{
  "fields": [{"type":"int","id":"_id"},{"info":{"type_override":"text","notes":"Hora UTC de lectura de los datos (AAAA-MM-DD HH:mm:SS)(+1 para CET invierno, +2 para CET verano)","label":"date"},"type":"text","id":"TIMESTAMP"},{"info":{"type_override":"text","notes":"Record Number - identificador del registro","label":"int"},"type":"text","id":"RECORD"},{"info":{"type_override":"text","notes":"Velocidad media del viento en el periodo de 10 minutos leído","label":"float"},"type":"text","id":"VV_S_WVT"},{"info":{"type_override":"text","notes":"Dirección media del viento en el periodo de 10 minutos leído","label":"float"},"type":"text","id":"DV_D1_WVT"},{"info":{"type_override":"text","notes":"Velocidad máxima del viento en el periodo de 10 minutos leído","label":"float"},"type":"text","id":"VV10m3Seg_Max"},{"info":{"type_override":"text","notes":"Dirección de la racha máxima del viento en el periodo de 10 minutos leído","label":"text"},"type":"text","id":"DV10m3Seg_SMM"},{"info":{"type_override":"text","notes":"Presión atmosférica media en el periodo de 10 minutos leído","label":"text"},"type":"text","id":"PRE_Avg"},{"info":{"type_override":"text","notes":"Temperatura del aire media en el periodo de 10 minutos leído","label":"text"},"type":"text","id":"TEM_Avg"},{"info":{"type_override":"text","notes":"Humedad relativa del aire promedio en el periodo de 10 minutos leído","label":"text"},"type":"text","id":"HUM_Avg"},{"info":{"type_override":"text","notes":"Radiación solar media en el periodo de 10 minutos leído","label":"text"},"type":"text","id":"RAD_Avg"},{"info":{"type_override":"text","notes":"Precipitación acumulada en el periodo de 10 minutos leído","label":"text"},"type":"text","id":"PLU_Tot"}],
  "records": [
    [1535419,"2026-01-01 00:00:00","47175","0.723","49.91","1.274","37.22","1020.5239999999999","9.64","66.34","NAN","0.0"],
    [1535420,"2026-01-01 00:10:00","47176","0.826","54.81","1.568","48.39","1020.383","9.66","66.58","NAN","0.0"],
    [1535421,"2026-01-01 00:20:00","47177","1.053","59.21","2.0580000000000003","49.92","1020.395","9.62","66.66","NAN","0.0"],
    [1535422,"2026-01-01 00:30:00","47178","1.071","40.63","2.025","22.78","1020.3760000000001","9.53","66.88","NAN","0.0"],
    [1535423,"2026-01-01 00:40:00","47179","1.0290000000000001","22.69","2.156","44.07","1020.299","9.4","67","NAN","0.0"],
    [1535424,"2026-01-01 00:50:00","47180","0.937","39.42","2.548","35.15","1020.27","9.17","67.83","NAN","0.0"],
    [1535425,"2026-01-01 01:00:00","47181","0.948","33.67","1.8619999999999999","48.09","1020.2669999999999","8.98","68.53","NAN","0.0"],
    [1535426,"2026-01-01 01:10:00","47182","0.937","42.75","1.797","52.59","1020.25","8.81","69.78","NAN","0.0"],
    [1535427,"2026-01-01 01:20:00","47183","0.792","34.8","1.47","34.03","1020.2389999999999","8.72","70.07","NAN","0.0"],
    [1535428,"2026-01-01 01:30:00","47184","0.726","24.59","1.699","38.98","1020.255","8.66","70.09","NAN","0.0"],
    [1535429,"2026-01-01 01:40:00","47185","0.977","43.17","2.123","35.09","1020.322","8.58","70.43","NAN","0.0"],
    [1535430,"2026-01-01 01:50:00","47186","0.865","43.69","1.568","41.39","1020.322","8.47","70.82","NAN","0.0"],
    [1535431,"2026-01-01 02:00:00","47187","0.302","36.36","0.6859999999999999","53.84","1020.322","8.32","71.76","NAN","0.0"],
    [1535432,"2026-01-01 02:10:00","47188","0.081","39.29","0.6859999999999999","44.0","1020.322","8.04","72.95","NAN","0.0"],
    [1535433,"2026-01-01 02:20:00","47189","0.0","0.0","0.0","0.0","1020.275","8.03","73.42","NAN","0.0"],
    [1535434,"2026-01-01 02:30:00","47190","0.35100000000000003","253.6","1.274","262.3","1020.187","8.12","72.38","NAN","0.0"],
    [1535435,"2026-01-01 02:40:00","47191","0.5489999999999999","262.6","1.895","266.6","1020.0980000000001","8.26","70.06","NAN","0.0"],
    [1535436,"2026-01-01 02:50:00","47192","0.715","273.3","1.568","267.1","1020.073","8.54","68.05","NAN","0.0"],
    [1535437,"2026-01-01 03:00:00","47193","0.924","262.6","2.0909999999999997","256.0","1020.0010000000001","8.66","67.03","NAN","0.0"],
    [1535438,"2026-01-01 03:10:00","47194","0.9520000000000001","256.8","2.025","296.0","1019.8589999999999","8.56","67.01","NAN","0.0"],
    [1535439,"2026-01-01 03:20:00","47195","0.675","246.2","1.993","265.2","1019.7310000000001","8.49","66.47","NAN","0.0"],
    [1535440,"2026-01-01 03:30:00","47196","0.773","261.7","2.287","274.3","1019.672","8.33","66.87","NAN","0.0"],
    [1535441,"2026-01-01 03:40:00","47197","0.7809999999999999","251.1","2.385","266.5","1019.567","8.31","66.6","NAN","0.0"],
    [1535442,"2026-01-01 03:50:00","47198","1.1540000000000001","262.5","2.319","295.1","1019.462","8.27","66.63","NAN","0.0"],
    [1535443,"2026-01-01 04:00:00","47199","0.982","262.5","2.287","265.5","1019.34","8.22","66.82","NAN","0.0"],
    [1535444,"2026-01-01 04:10:00","47200","0.25","325.0","1.339","320.0","1019.326","8.12","68.37","NAN","0.0"],
    [1535445,"2026-01-01 04:20:00","47201","0.055999999999999994","236.2","0.8490000000000001","309.2","1019.326","7.799","70.61","NAN","0.0"],
    [1535446,"2026-01-01 04:30:00","47202","0.447","236.3","1.535","268.3","1019.288","7.712","70.75","NAN","0.0"],
    [1535447,"2026-01-01 04:40:00","47203","0.72","236.5","2.0909999999999997","265.7","1019.2560000000001","7.79","69.37","NAN","0.0"],
    [1535448,"2026-01-01 04:50:00","47204","0.598","238.7","1.8619999999999999","279.9","1019.318","7.908","68.09","NAN","0.0"],
    [1535449,"2026-01-01 05:00:00","47205","0.799","244.1","2.45","234.9","1019.1260000000001","8.01","67.38","NAN","0.0"],
    [1535450,"2026-01-01 05:10:00","47206","0.826","240.6","2.123","236.8","1019.0189999999999","7.901","67.51","NAN","0.0"],
    [1535451,"2026-01-01 05:20:00","47207","0.71","242.3","1.633","282.7","1018.862","7.761","68.09","NAN","0.0"],
    [1535452,"2026-01-01 05:30:00","47208","0.878","252.5","1.895","261.0","1018.827","7.718","68.37","NAN","0.0"],
    [1535453,"2026-01-01 05:40:00","47209","0.616","246.5","1.568","263.9","1018.815","7.748","68.48","NAN","0.0"],
    [1535454,"2026-01-01 05:50:00","47210","0.745","242.0","1.568","242.5","1018.7869999999999","7.654","68.59","NAN","0.0"],
    [1535455,"2026-01-01 06:00:00","47211","0.816","256.6","1.993","283.8","1018.827","7.66","68.33","NAN","0.0"],
    [1535456,"2026-01-01 06:10:00","47212","0.912","254.7","2.319","271.3","1018.847","7.571","68.35","NAN","0.0"],
    [1535457,"2026-01-01 06:20:00","47213","1.265","265.2","2.548","258.8","1018.862","7.805","66.66","NAN","0.0"],
    [1535458,"2026-01-01 06:30:00","47214","0.867","256.4","2.123","271.2","1018.847","7.852","66.09","NAN","0.0"],
    [1535459,"2026-01-01 06:40:00","47215","1.111","263.8","2.548","256.8","1018.85","7.865","66.04","NAN","0.0"],
    [1535460,"2026-01-01 06:50:00","47216","1.2670000000000001","267.9","2.6460000000000004","264.4","1018.827","7.863","65.83","NAN","0.0"],
    [1535461,"2026-01-01 07:00:00","47217","1.53","273.4","3.0380000000000003","297.3","1018.827","7.926","65.1","NAN","0.0"],
    [1535462,"2026-01-01 07:10:00","47218","1.27","269.0","2.548","295.9","1018.827","7.884","65.52","NAN","0.0"],
    [1535463,"2026-01-01 07:20:00","47219","1.489","280.7","3.0380000000000003","270.0","1018.827","7.89","65.46","NAN","0.0"],
    [1535464,"2026-01-01 07:30:00","47220","1.3219999999999998","271.7","2.679","293.0","1018.827","7.82","65.79","NAN","0.0"],
    [1535465,"2026-01-01 07:40:00","47221","1.167","274.0","2.8089999999999997","278.8","1018.827","7.803","66.12","NAN","0.0"],
    [1535466,"2026-01-01 07:50:00","47222","0.9840000000000001","279.3","3.267","290.2","1018.827","7.912","65.77","NAN","0.0"],
    [1535467,"2026-01-01 08:00:00","47223","1.159","273.5","2.254","279.3","1018.815","7.958","65.48","NAN","0.0"],
    [1535468,"2026-01-01 08:10:00","47224","0.9329999999999999","267.6","2.7110000000000003","263.4","1018.7819999999999","8.03","65.33","NAN","0.0"],
    [1535469,"2026-01-01 08:20:00","47225","1.088","261.5","2.417","272.2","1018.818","8.29","64.58","NAN","0.0"],
    [1535470,"2026-01-01 08:30:00","47226","1.032","273.8","2.8089999999999997","286.7","1018.812","8.58","63.76","NAN","0.0"],
    [1535471,"2026-01-01 08:40:00","47227","1.251","273.1","2.875","261.2","1018.717","8.98","62.6","NAN","0.0"],
    [1535472,"2026-01-01 08:50:00","47228","0.941","301.4","2.0909999999999997","276.2","1018.79","9.25","61.81","NAN","0.0"],
    [1535473,"2026-01-01 09:00:00","47229","0.968","293.9","2.515","282.5","1018.932","9.44","61.63","NAN","0.0"],
    [1535474,"2026-01-01 09:10:00","47230","1.052","266.8","2.221","294.0","1019.02","9.46","61.66","NAN","0.0"],
    [1535475,"2026-01-01 09:20:00","47231","0.818","287.6","2.319","298.4","1019.008","9.76","60.88","NAN","0.0"],
    [1535476,"2026-01-01 09:30:00","47232","0.9229999999999999","282.9","2.842","253.4","1019.1060000000001","9.99","60.62","NAN","0.0"],
    [1535477,"2026-01-01 09:40:00","47233","0.593","290.7","1.666","249.1","1019.187","10.35","59.35","NAN","0.0"],
    [1535478,"2026-01-01 09:50:00","47234","1.415","281.3","2.842","279.2","1019.1260000000001","10.26","59.6","NAN","0.0"],
    [1535479,"2026-01-01 10:00:00","47235","0.807","276.3","1.9269999999999998","263.5","1019.135","10.73","58.52","NAN","0.0"],
    [1535480,"2026-01-01 10:10:00","47236","0.721","251.2","1.797","238.1","1019.01","10.98","57.76","NAN","0.0"],
    [1535481,"2026-01-01 10:20:00","47237","0.517","324.8","1.405","306.7","1018.937","11.13","57.77","NAN","0.0"],
    [1535482,"2026-01-01 10:30:00","47238","0.8320000000000001","286.9","1.993","239.6","1018.8330000000001","11.54","56.77","NAN","0.0"],
    [1535483,"2026-01-01 10:40:00","47239","0.698","230.1","1.699","244.9","1018.683","11.67","56.81","NAN","0.0"],
    [1535484,"2026-01-01 10:50:00","47240","1.0070000000000001","217.2","3.234","220.2","1018.6260000000001","12.4","55.76","NAN","0.0"],
    [1535485,"2026-01-01 11:00:00","47241","1.337","212.5","3.201","178.8","1018.3989999999999","12.52","56.23","NAN","0.0"],
    [1535486,"2026-01-01 11:10:00","47242","1.311","221.8","2.613","243.9","1018.265","12.8","55.55","NAN","0.0"],
    [1535487,"2026-01-01 11:20:00","47243","1.146","229.1","2.8089999999999997","234.4","1018.08","12.89","55.98","NAN","0.0"],
    [1535488,"2026-01-01 11:30:00","47244","1.1840000000000002","221.1","2.45","250.0","1017.933","12.79","57.22","NAN","0.0"],
    [1535489,"2026-01-01 11:40:00","47245","1.6869999999999998","226.9","5.227","239.1","1017.712","12.89","57.94","NAN","0.0"],
    [1535490,"2026-01-01 11:50:00","47246","1.439","233.6","3.332","242.9","1017.507","12.79","58.44","NAN","0.0"],
    [1535491,"2026-01-01 12:00:00","47247","1.766","234.7","3.6260000000000003","224.5","1017.31","13.06","58.11","NAN","0.0"],
    [1535492,"2026-01-01 12:10:00","47248","2.001","239.7","4.475","241.2","1017.1110000000001","12.89","58.88","NAN","0.0"],
    [1535493,"2026-01-01 12:20:00","47249","1.994","218.6","3.92","200.0","1016.9119999999999","13.01","59.81","NAN","0.0"],
    [1535494,"2026-01-01 12:30:00","47250","1.926","227.6","4.573","218.8","1016.7280000000001","13","60.38","NAN","0.0"],
    [1535495,"2026-01-01 12:40:00","47251","1.68","237.8","4.377","223.6","1016.633","13.1","60.47","NAN","0.0"],
    [1535496,"2026-01-01 12:50:00","47252","1.375","235.3","3.005","203.0","1016.3660000000001","13.36","59.96","NAN","0.0"],
    [1535497,"2026-01-01 13:00:00","47253","1.361","246.1","2.907","297.4","1016.187","13.51","59.35","NAN","0.0"],
    [1535498,"2026-01-01 13:10:00","47254","1.2819999999999998","246.1","3.103","236.6","1015.9960000000001","13.68","59.15","NAN","0.0"],
    [1535499,"2026-01-01 13:20:00","47255","1.6059999999999999","259.1","3.7239999999999998","244.2","1015.863","13.91","57.88","NAN","0.0"],
    [1535500,"2026-01-01 13:30:00","47256","2.448","229.5","5.912999999999999","256.0","1015.687","14.05","56.85","NAN","0.0"],
    [1535501,"2026-01-01 13:40:00","47257","2.589","221.9","6.141","197.1","1015.582","13.97","57.02","NAN","0.0"],
    [1535502,"2026-01-01 13:50:00","47258","2.596","224.7","6.0760000000000005","234.8","1015.472","13.92","57.01","NAN","0.0"],
    [1535503,"2026-01-01 14:00:00","47259","2.543","221.4","6.109","227.5","1015.403","13.96","57.28","NAN","0.0"],
    [1535504,"2026-01-01 14:10:00","47260","2.032","220.7","4.671","230.7","1015.2860000000001","13.85","58.48","NAN","0.0"],
    [1535505,"2026-01-01 14:20:00","47261","2.398","216.7","5.521","207.8","1015.194","13.86","58.78","NAN","0.0"],
    [1535506,"2026-01-01 14:30:00","47262","2.5789999999999997","218.8","4.965","202.2","1015.166","13.73","58.81","NAN","0.0"],
    [1535507,"2026-01-01 14:40:00","47263","2.5069999999999997","223.3","5.782","231.4","1015.051","13.5","58.84","NAN","0.0"],
    [1535508,"2026-01-01 14:50:00","47264","2.278","224.9","5.194","216.4","1014.99","13.51","58.42","NAN","0.0"],
    [1535509,"2026-01-01 15:00:00","47265","2.658","226.4","5.782","223.2","1014.972","13.27","59.05","NAN","0.0"],
    [1535510,"2026-01-01 15:10:00","47266","2.193","225.4","5.7170000000000005","231.9","1014.947","13.08","60.18","NAN","0.0"],
    [1535511,"2026-01-01 15:20:00","47267","1.962","215.9","5.129","203.4","1014.937","13.07","60.42","NAN","0.0"],
    [1535512,"2026-01-01 15:30:00","47268","1.6380000000000001","219.7","3.463","219.2","1014.91","12.97","60.88","NAN","0.0"],
    [1535513,"2026-01-01 15:40:00","47269","1.554","221.7","3.7239999999999998","244.1","1014.825","12.81","61.11","NAN","0.0"],
    [1535514,"2026-01-01 15:50:00","47270","1.4469999999999998","220.6","3.267","218.8","1014.795","12.61","62.12","NAN","0.0"],
    [1535515,"2026-01-01 16:00:00","47271","1.462","216.1","3.005","198.1","1014.701","12.47","63.22","NAN","0.0"],
    [1535516,"2026-01-01 16:10:00","47272","1.686","218.7","3.5610000000000004","215.2","1014.695","12.27","64.02","NAN","0.0"],
    [1535517,"2026-01-01 16:20:00","47273","1.28","222.4","3.299","224.1","1014.5319999999999","12.17","64.42","NAN","0.0"],
    [1535518,"2026-01-01 16:30:00","47274","1.4880000000000002","224.8","3.005","225.7","1014.4960000000001","12","65","NAN","0.0"],
    [1535519,"2026-01-01 16:40:00","47275","1.463","232.0","3.463","227.6","1014.433","11.82","65.32","NAN","0.0"],
    [1535520,"2026-01-01 16:50:00","47276","1.798","239.5","4.247","234.7","1014.382","11.86","64.5","NAN","0.0"],
    [1535521,"2026-01-01 17:00:00","47277","1.57","233.9","3.43","235.0","1014.341","11.71","65.35","NAN","0.0"],
    [1535522,"2026-01-01 17:10:00","47278","1.6230000000000002","242.1","3.855","250.7","1014.3969999999999","11.63","66.44","NAN","0.0"],
    [1535523,"2026-01-01 17:20:00","47279","1.535","238.7","4.41","234.3","1014.487","11.59","67.87","NAN","0.0"],
    [1535524,"2026-01-01 17:30:00","47280","1.217","240.1","2.907","232.0","1014.5219999999999","11.41","69.4","NAN","0.0"],
    [1535525,"2026-01-01 17:40:00","47281","1.272","238.3","3.201","231.0","1014.5219999999999","11.2","70.65","NAN","0.0"],
    [1535526,"2026-01-01 17:50:00","47282","1.337","235.7","2.515","253.5","1014.5219999999999","11.22","70.58","NAN","0.0"],
    [1535527,"2026-01-01 18:00:00","47283","1.123","238.0","2.9730000000000003","232.5","1014.5089999999999","11.09","71.22","NAN","0.0"],
    [1535528,"2026-01-01 18:10:00","47284","0.871","243.8","2.287","217.1","1014.457","11.01","72.36","NAN","0.0"],
    [1535529,"2026-01-01 18:20:00","47285","1.2819999999999998","286.7","3.136","300.3","1014.39","11.08","72.14","NAN","0.0"],
    [1535530,"2026-01-01 18:30:00","47286","1.218","275.4","2.8089999999999997","296.1","1014.466","11.07","71.61","NAN","0.0"],
    [1535531,"2026-01-01 18:40:00","47287","1.1320000000000001","257.2","3.299","301.4","1014.436","10.85","72.55","NAN","0.0"],
    [1535532,"2026-01-01 18:50:00","47288","1.579","236.6","3.136","269.2","1014.352","10.75","73.45","NAN","0.0"],
    [1535533,"2026-01-01 19:00:00","47289","0.87","241.3","2.417","231.7","1014.31","10.49","74.47","NAN","0.0"],
    [1535534,"2026-01-01 19:10:00","47290","1.217","239.3","2.613","231.4","1014.293","10.42","75.21","NAN","0.0"],
    [1535535,"2026-01-01 19:20:00","47291","1.3519999999999999","235.1","2.45","242.6","1014.303","10.38","75.54","NAN","0.0"],
    [1535536,"2026-01-01 19:30:00","47292","1.156","234.4","2.548","238.6","1014.309","10.35","75.63","NAN","0.0"],
    [1535537,"2026-01-01 19:40:00","47293","1.245","227.5","3.234","230.2","1014.328","10.2","76.23","NAN","0.0"],
    [1535538,"2026-01-01 19:50:00","47294","1.4169999999999998","228.8","3.267","245.1","1014.311","10.19","76.37","NAN","0.0"],
    [1535539,"2026-01-01 20:00:00","47295","1.099","223.1","2.6460000000000004","201.2","1014.334","10.03","76.81","NAN","0.0"],
    [1535540,"2026-01-01 20:10:00","47296","1.1840000000000002","229.6","3.005","225.8","1014.335","9.83","77.33","NAN","0.0"],
    [1535541,"2026-01-01 20:20:00","47297","0.95","226.2","2.287","259.2","1014.341","9.85","77.16","NAN","0.0"],
    [1535542,"2026-01-01 20:30:00","47298","1.195","223.6","3.0380000000000003","216.9","1014.342","9.91","76.54","NAN","0.0"],
    [1535543,"2026-01-01 20:40:00","47299","1.04","213.9","2.123","225.1","1014.3939999999999","9.76","76.52","NAN","0.0"],
    [1535544,"2026-01-01 20:50:00","47300","0.929","207.9","1.7309999999999999","199.9","1014.456","9.74","75.94","NAN","0.0"],
    [1535545,"2026-01-01 21:00:00","47301","0.991","219.1","2.156","241.1","1014.4689999999999","9.63","75.28","NAN","0.0"],
    [1535546,"2026-01-01 21:10:00","47302","0.57","207.4","1.176","180.6","1014.4780000000001","9.69","74.84","NAN","0.0"],
    [1535547,"2026-01-01 21:20:00","47303","0.8240000000000001","219.5","1.829","223.4","1014.551","9.52","75.75","NAN","0.0"],
    [1535548,"2026-01-01 21:30:00","47304","0.782","218.5","1.601","228.0","1014.459","9.51","75.11","NAN","0.0"],
    [1535549,"2026-01-01 21:40:00","47305","0.8290000000000001","218.7","1.535","214.8","1014.4069999999999","9.41","75.33","NAN","0.0"],
    [1535550,"2026-01-01 21:50:00","47306","0.597","221.0","1.274","212.7","1014.362","9.34","75.47","NAN","0.0"],
    [1535551,"2026-01-01 22:00:00","47307","0.61","228.5","1.47","240.0","1014.3389999999999","9.29","74.97","NAN","0.0"],
    [1535552,"2026-01-01 22:10:00","47308","0.4","229.4","1.143","258.2","1014.342","9.35","74.61","NAN","0.0"],
    [1535553,"2026-01-01 22:20:00","47309","0.617","239.9","1.405","239.6","1014.32","9.49","73.88","NAN","0.0"],
    [1535554,"2026-01-01 22:30:00","47310","0.527","255.4","1.209","265.8","1014.115","9.49","73.67","NAN","0.0"],
    [1535555,"2026-01-01 22:40:00","47311","0.631","260.1","1.3719999999999999","265.6","1014.255","9.73","72.53","NAN","0.0"],
    [1535556,"2026-01-01 22:50:00","47312","0.47","269.6","0.915","261.5","1014.325","9.8","72.19","NAN","0.0"],
    [1535557,"2026-01-01 23:00:00","47313","0.758","258.2","1.3719999999999999","272.4","1014.39","9.94","71.45","NAN","0.0"],
    [1535558,"2026-01-01 23:10:00","47314","0.526","261.1","1.2409999999999999","278.4","1014.5419999999999","9.82","71.01","NAN","0.0"],
    [1535559,"2026-01-01 23:20:00","47315","0.757","301.2","1.993","309.5","1014.408","9.67","71.42","NAN","0.0"],
    [1535560,"2026-01-01 23:30:00","47316","0.53","320.6","1.895","294.5","1014.179","9.95","64.43","NAN","0.0"],
    [1535561,"2026-01-01 23:40:00","47317","0.915","309.0","2.515","305.8","1013.841","9.94","60.14","NAN","0.0"],
    [1535562,"2026-01-01 23:50:00","47318","0.6559999999999999","310.6","2.189","302.2","1013.627","10.05","58.11","NAN","0.0"],
    [1535563,"2026-01-02 00:00:00","47319","0.6709999999999999","6.398","1.111","34.26","1013.388","10.05","59.64","NAN","0.0"],
    [1535564,"2026-01-02 00:10:00","47320","0.48700000000000004","32.21","1.209","10.38","1013.324","9.95","62.02","NAN","0.0"],
    [1535565,"2026-01-02 00:20:00","47321","0.20600000000000002","76.61","0.784","34.34","1013.2589999999999","9.76","61.54","NAN","0.0"],
    [1535566,"2026-01-02 00:30:00","47322","0.28","80.2","0.653","76.78","1013.2230000000001","9.43","62.77","NAN","0.0"],
    [1535567,"2026-01-02 00:40:00","47323","0.040999999999999995","154.6","0.457","158.7","1013.26","9.08","64.21","NAN","0.0"],
    [1535568,"2026-01-02 00:50:00","47324","0.305","135.3","0.98","147.0","1013.258","9","65.8","NAN","0.0"],
    [1535569,"2026-01-02 01:00:00","47325","0.496","42.69","2.156","6.605","1013.2239999999999","9.24","63.94","NAN","0.0"],
    [1535570,"2026-01-02 01:10:00","47326","1.406","321.7","3.495","326.5","1013.243","9.77","56.29","NAN","0.0"],
    [1535571,"2026-01-02 01:20:00","47327","1.172","321.5","3.365","315.4","1013.1389999999999","9.75","55.48","NAN","0.0"],
    [1535572,"2026-01-02 01:30:00","47328","1.517","315.9","3.7889999999999997","314.9","1013.0939999999999","9.51","56.35","NAN","0.0"],
    [1535573,"2026-01-02 01:40:00","47329","1.045","274.1","2.7439999999999998","318.8","1013.0939999999999","9.31","57.18","NAN","0.0"],
    [1535574,"2026-01-02 01:50:00","47330","0.452","274.6","1.4369999999999998","310.3","1013.044","9.13","58.19","NAN","0.0"],
    [1535575,"2026-01-02 02:00:00","47331","0.4","56.06","1.568","48.68","1012.8919999999999","8.87","60","NAN","0.0"],
    [1535576,"2026-01-02 02:10:00","47332","0.588","51.5","1.339","38.14","1012.775","8.64","61.12","NAN","0.0"],
    [1535577,"2026-01-02 02:20:00","47333","0.263","85.2","0.784","95.8","1012.6080000000001","8.14","63.38","NAN","0.0"],
    [1535578,"2026-01-02 02:30:00","47334","0.456","90.7","0.9470000000000001","51.76","1012.429","8.06","63.5","NAN","0.0"],
    [1535579,"2026-01-02 02:40:00","47335","0.536","39.1","1.405","68.9","1012.304","8.18","63.2","NAN","0.0"],
    [1535580,"2026-01-02 02:50:00","47336","0.853","273.7","1.797","239.3","1012.22","8.33","62.15","NAN","0.0"],
    [1535581,"2026-01-02 03:00:00","47337","0.7879999999999999","271.9","1.8619999999999999","263.3","1012.105","8.54","60.9","NAN","0.0"],
    [1535582,"2026-01-02 03:10:00","47338","1.0270000000000001","300.0","2.94","324.6","1012.003","8.69","59.9","NAN","0.0"],
    [1535583,"2026-01-02 03:20:00","47339","1.489","333.4","4.737","302.9","1011.903","8.63","59.51","NAN","0.0"],
    [1535584,"2026-01-02 03:30:00","47340","1.2819999999999998","341.4","4.1160000000000005","321.9","1011.8530000000001","8.26","60.85","NAN","0.0"],
    [1535585,"2026-01-02 03:40:00","47341","1.115","314.3","2.7110000000000003","297.1","1011.8510000000001","7.987","62.04","NAN","0.0"],
    [1535586,"2026-01-02 03:50:00","47342","1.043","336.3","3.136","300.0","1011.836","7.886","62.88","NAN","0.0"],
    [1535587,"2026-01-02 04:00:00","47343","1.157","345.8","3.659","303.6","1011.664","7.851","63.18","NAN","0.0"],
    [1535588,"2026-01-02 04:10:00","47344","1.584","348.1","3.7239999999999998","343.4","1011.444","8.03","62.42","NAN","0.0"],
    [1535589,"2026-01-02 04:20:00","47345","1.405","343.5","4.312","347.7","1011.305","7.89","63.03","NAN","0.0"],
    [1535590,"2026-01-02 04:30:00","47346","0.493","60.34","2.156","295.0","1011.248","7.599","64.4","NAN","0.0"],
    [1535591,"2026-01-02 04:40:00","47347","0.763","340.1","2.0580000000000003","303.8","1011.2310000000001","7.64","64.46","NAN","0.0"],
    [1535592,"2026-01-02 04:50:00","47348","0.51","327.3","1.764","321.5","1011.2280000000001","7.815","63.81","NAN","0.0"],
    [1535593,"2026-01-02 05:00:00","47349","0.568","344.5","2.613","324.4","1011.2230000000001","7.787","64.13","NAN","0.0"],
    [1535594,"2026-01-02 05:10:00","47350","1.3159999999999998","338.4","4.1160000000000005","299.5","1011.0830000000001","7.744","64.07","NAN","0.0"],
    [1535595,"2026-01-02 05:20:00","47351","1.32","294.8","4.965","318.3","1010.9889999999999","7.417","64.84","NAN","0.0"],
    [1535596,"2026-01-02 05:30:00","47352","0.9159999999999999","243.4","2.7769999999999997","216.8","1010.857","7.436","64.78","NAN","0.0"],
    [1535597,"2026-01-02 05:40:00","47353","0.746","168.3","1.9269999999999998","300.4","1010.922","7.638","64.6","NAN","0.0"],
    [1535598,"2026-01-02 05:50:00","47354","0.802","191.0","1.895","246.5","1011.1289999999999","7.547","65.53","NAN","0.0"],
    [1535599,"2026-01-02 06:00:00","47355","0.823","297.2","2.5810000000000004","260.4","1011.1030000000001","7.587","64.01","NAN","0.0"],
    [1535600,"2026-01-02 06:10:00","47356","0.8079999999999999","6.9510000000000005","2.254","40.65","1011.086","7.374","64.61","NAN","0.0"],
    [1535601,"2026-01-02 06:20:00","47357","0.493","331.2","1.111","319.7","1011.2810000000001","7.615","63.87","NAN","0.0"],
    [1535602,"2026-01-02 06:30:00","47358","0.409","344.0","1.274","30.39","1011.31","7.742","63.09","NAN","0.0"],
    [1535603,"2026-01-02 06:40:00","47359","0.57","302.3","2.6460000000000004","79.16","1011.36","7.708","63.97","NAN","0.0"],
    [1535604,"2026-01-02 06:50:00","47360","0.631","333.0","2.515","70.54","1011.52","7.425","63.61","NAN","0.0"],
    [1535605,"2026-01-02 07:00:00","47361","1.4240000000000002","326.3","3.201","295.3","1011.6469999999999","7.53","62.79","NAN","0.0"],
    [1535606,"2026-01-02 07:10:00","47362","1.119","346.0","2.613","316.0","1011.5089999999999","7.63","62.63","NAN","0.0"],
    [1535607,"2026-01-02 07:20:00","47363","0.813","21.56","1.829","40.6","1011.447","7.299","64.15","NAN","0.0"],
    [1535608,"2026-01-02 07:30:00","47364","0.961","5.457000000000001","1.895","348.6","1011.62","7.151","65.18","NAN","0.0"],
    [1535609,"2026-01-02 07:40:00","47365","1.3159999999999998","335.5","3.071","295.0","1011.579","7.52","63.23","NAN","0.0"],
    [1535610,"2026-01-02 07:50:00","47366","1.026","297.6","2.6460000000000004","305.6","1011.497","7.892","60.3","NAN","0.0"],
    [1535611,"2026-01-02 08:00:00","47367","0.34600000000000003","127.2","1.666","129.4","1011.485","7.783","60.9","NAN","0.0"],
    [1535612,"2026-01-02 08:10:00","47368","0.248","70.58","1.699","218.4","1011.597","7.818","62.74","NAN","0.0"],
    [1535613,"2026-01-02 08:20:00","47369","1.123","345.8","4.181","314.0","1011.6289999999999","8.22","59.93","NAN","0.0"],
    [1535614,"2026-01-02 08:30:00","47370","2.0580000000000003","325.4","6.501","298.4","1011.7489999999999","8.45","58","NAN","0.0"],
    [1535615,"2026-01-02 08:40:00","47371","1.3940000000000001","317.2","3.92","300.5","1011.7439999999999","8.75","56.98","NAN","0.0"],
    [1535616,"2026-01-02 08:50:00","47372","1.868","320.5","5.4879999999999995","319.1","1011.7260000000001","8.83","56.35","NAN","0.0"],
    [1535617,"2026-01-02 09:00:00","47373","0.9159999999999999","308.0","3.234","306.3","1011.811","8.86","56.7","NAN","0.0"],
    [1535618,"2026-01-02 09:10:00","47374","0.8320000000000001","302.5","2.842","350.8","1011.818","9.63","54.63","NAN","0.0"],
    [1535619,"2026-01-02 09:20:00","47375","0.84","307.6","3.528","309.4","1011.747","9.85","52.73","NAN","0.0"],
    [1535620,"2026-01-02 09:30:00","47376","0.679","8.78","1.568","25.86","1011.862","9.48","54.5","NAN","0.0"],
    [1535621,"2026-01-02 09:40:00","47377","0.7559999999999999","20.98","2.025","67.75","1011.9760000000001","9.41","54.95","NAN","0.0"],
    [1535622,"2026-01-02 09:50:00","47378","0.866","354.2","2.613","13.12","1011.779","9.67","53.68","NAN","0.0"],
    [1535623,"2026-01-02 10:00:00","47379","0.731","306.2","2.385","323.6","1011.8510000000001","10.14","52.18","NAN","0.0"],
    [1535624,"2026-01-02 10:10:00","47380","0.848","278.7","3.071","34.44","1011.815","10.77","49.32","NAN","0.0"],
    [1535625,"2026-01-02 10:20:00","47381","0.8140000000000001","330.4","2.6460000000000004","286.5","1011.775","11.09","48.06","NAN","0.0"],
    [1535626,"2026-01-02 10:30:00","47382","1.138","305.5","2.548","309.7","1011.659","11.11","47.4","NAN","0.0"],
    [1535627,"2026-01-02 10:40:00","47383","1.227","307.0","4.41","310.4","1011.5169999999999","11.1","47.8","NAN","0.0"],
    [1535628,"2026-01-02 10:50:00","47384","1.327","293.5","4.312","294.5","1011.3580000000001","11.02","48.82","NAN","0.0"],
    [1535629,"2026-01-02 11:00:00","47385","1.76","253.0","4.181","254.2","1011.388","11.17","48.72","NAN","0.0"],
    [1535630,"2026-01-02 11:10:00","47386","0.888","233.3","2.0580000000000003","259.3","1011.3430000000001","11.15","50.22","NAN","0.0"],
    [1535631,"2026-01-02 11:20:00","47387","1.361","240.9","3.365","268.5","1011.268","11.42","50.1","NAN","0.0"],
    [1535632,"2026-01-02 11:30:00","47388","1.5819999999999999","285.5","3.463","260.1","1011.1260000000001","11.29","49.49","NAN","0.0"],
    [1535633,"2026-01-02 11:40:00","47389","1.598","301.2","3.332","299.0","1010.7739999999999","11.44","49.51","NAN","0.0"],
    [1535634,"2026-01-02 11:50:00","47390","1.681","279.1","3.92","304.7","1010.404","11.5","49.98","NAN","0.0"],
    [1535635,"2026-01-02 12:00:00","47391","1.531","284.2","3.92","271.8","1010.1669999999999","11.73","49.58","NAN","0.0"],
    [1535636,"2026-01-02 12:10:00","47392","1.5330000000000001","291.1","4.051","348.2","1009.923","11.95","48.48","NAN","0.0"],
    [1535637,"2026-01-02 12:20:00","47393","1.178","301.4","3.463","295.9","1009.706","12.32","47.31","NAN","0.0"],
    [1535638,"2026-01-02 12:30:00","47394","1.9980000000000002","301.6","4.867","308.4","1009.552","12.74","45.45","NAN","0.0"],
    [1535639,"2026-01-02 12:40:00","47395","1.5519999999999998","281.0","4.4430000000000005","295.6","1009.44","12.91","45.59","NAN","0.0"],
    [1535640,"2026-01-02 12:50:00","47396","1.619","269.9","4.018","292.0","1009.263","13.14","45.45","NAN","0.0"],
    [1535641,"2026-01-02 13:00:00","47397","1.774","307.1","4.018","320.2","1009.2080000000001","13.35","45.12","NAN","0.0"],
    [1535642,"2026-01-02 13:10:00","47398","1.541","309.6","4.867","305.8","1009.0989999999999","13.41","45.85","NAN","0.0"],
    [1535643,"2026-01-02 13:20:00","47399","1.46","289.7","3.201","304.5","1008.914","13.19","47.38","NAN","0.0"],
    [1535644,"2026-01-02 13:30:00","47400","1.1420000000000001","266.7","3.0380000000000003","240.6","1008.7330000000001","13.5","47.5","NAN","0.0"],
    [1535645,"2026-01-02 13:40:00","47401","1.145","239.6","3.005","262.5","1008.668","13.5","48.25","NAN","0.0"],
    [1535646,"2026-01-02 13:50:00","47402","1.3119999999999998","240.7","2.842","263.1","1008.561","13.53","48.88","NAN","0.0"],
    [1535647,"2026-01-02 14:00:00","47403","1.181","226.0","2.907","250.7","1008.459","13.43","49.32","NAN","0.0"],
    [1535648,"2026-01-02 14:10:00","47404","1.048","224.2","2.907","204.0","1008.3919999999999","13.38","50.22","NAN","0.0"],
    [1535649,"2026-01-02 14:20:00","47405","1.412","226.3","3.1689999999999996","233.3","1008.5889999999999","13.33","50.67","NAN","0.0"],
    [1535650,"2026-01-02 14:30:00","47406","1.777","236.5","3.855","239.7","1008.558","13.08","51.47","NAN","0.0"],
    [1535651,"2026-01-02 14:40:00","47407","1.44","235.8","3.365","251.0","1008.442","12.94","52.12","NAN","0.0"],
    [1535652,"2026-01-02 14:50:00","47408","1.244","222.4","2.679","240.7","1008.5010000000001","12.92","52.93","NAN","0.0"],
    [1535653,"2026-01-02 15:00:00","47409","1.207","232.4","2.6460000000000004","217.9","1008.4939999999999","12.75","53.51","NAN","0.0"],
    [1535654,"2026-01-02 15:10:00","47410","1.198","248.9","2.907","244.4","1008.5010000000001","12.66","53.83","NAN","0.0"],
    [1535655,"2026-01-02 15:20:00","47411","1.043","266.0","2.875","283.3","1008.4739999999999","12.78","53.99","NAN","0.0"],
    [1535656,"2026-01-02 15:30:00","47412","1.226","262.6","2.417","283.7","1008.441","12.82","54.36","NAN","0.0"],
    [1535657,"2026-01-02 15:40:00","47413","1.217","258.5","2.417","280.9","1008.546","12.83","54.48","NAN","0.0"],
    [1535658,"2026-01-02 15:50:00","47414","0.9329999999999999","209.2","1.8619999999999999","233.8","1008.5830000000001","12.79","56.67","NAN","0.0"],
    [1535659,"2026-01-02 16:00:00","47415","0.894","230.9","1.8619999999999999","220.5","1008.471","12.51","58.15","NAN","0.0"],
    [1535660,"2026-01-02 16:10:00","47416","0.584","243.3","1.829","243.7","1008.3489999999999","12.46","59.79","NAN","0.0"],
    [1535661,"2026-01-02 16:20:00","47417","0.731","252.0","1.4369999999999998","224.1","1008.312","12.35","60.47","NAN","0.0"],
    [1535662,"2026-01-02 16:30:00","47418","0.426","295.1","1.339","312.7","1008.222","12.39","60.12","NAN","0.0"],
    [1535663,"2026-01-02 16:40:00","47419","0.589","328.1","1.274","318.1","1008.01","12.52","57.96","NAN","0.0"],
    [1535664,"2026-01-02 16:50:00","47420","0.449","309.9","2.0580000000000003","297.7","1008.053","12.58","56.92","NAN","0.0"],
    [1535665,"2026-01-02 17:00:00","47421","0.451","317.4","1.2409999999999999","278.8","1008.113","12.54","56.89","NAN","0.0"],
    [1535666,"2026-01-02 17:10:00","47422","0.285","324.2","1.013","326.2","1008.225","12.47","56.95","NAN","0.0"],
    [1535667,"2026-01-02 17:20:00","47423","0.6940000000000001","317.6","1.8619999999999999","315.5","1008.225","12.47","56.21","NAN","0.0"],
    [1535668,"2026-01-02 17:30:00","47424","0.455","281.8","1.535","282.6","1008.2310000000001","12.41","56.35","NAN","0.0"],
    [1535669,"2026-01-02 17:40:00","47425","0.305","238.1","0.9470000000000001","235.1","1008.199","12.05","57.94","NAN","0.0"],
    [1535670,"2026-01-02 17:50:00","47426","0.21","283.7","0.7509999999999999","241.8","1008.1560000000001","11.93","58.04","NAN","0.0"],
    [1535671,"2026-01-02 18:00:00","47427","0.7090000000000001","293.2","1.4369999999999998","291.0","1008.209","12.03","57.58","NAN","0.0"],
    [1535672,"2026-01-02 18:10:00","47428","0.634","288.5","1.601","305.9","1008.2810000000001","12.12","57.48","NAN","0.0"],
    [1535673,"2026-01-02 18:20:00","47429","0.6970000000000001","266.5","2.189","287.2","1008.2739999999999","11.97","58.16","NAN","0.0"],
    [1535674,"2026-01-02 18:30:00","47430","0.6","280.2","2.025","286.6","1008.273","12.07","57.01","NAN","0.0"],
    [1535675,"2026-01-02 18:40:00","47431","0.397","287.2","1.339","296.0","1008.3689999999999","12.09","57.04","NAN","0.0"],
    [1535676,"2026-01-02 18:50:00","47432","0.29","233.0","1.013","265.5","1008.398","11.93","58.28","NAN","0.0"],
    [1535677,"2026-01-02 19:00:00","47433","0.419","228.9","0.8170000000000001","222.0","1008.334","11.58","59.85","NAN","0.0"],
    [1535678,"2026-01-02 19:10:00","47434","0.155","258.1","0.653","290.2","1008.291","11.49","60.31","NAN","0.0"],
    [1535679,"2026-01-02 19:20:00","47435","0.547","291.9","1.339","256.2","1008.293","11.74","59.43","NAN","0.0"],
    [1535680,"2026-01-02 19:30:00","47436","0.542","241.1","1.405","233.3","1008.294","11.66","59.58","NAN","0.0"],
    [1535681,"2026-01-02 19:40:00","47437","1.177","244.5","2.189","247.4","1008.296","11.57","59.24","NAN","0.0"],
    [1535682,"2026-01-02 19:50:00","47438","0.888","243.3","1.699","247.9","1008.184","11.48","59.2","NAN","0.0"],
    [1535683,"2026-01-02 20:00:00","47439","0.905","255.6","2.352","231.2","1008.074","11.35","60.2","NAN","0.0"],
    [1535684,"2026-01-02 20:10:00","47440","0.441","264.3","1.4369999999999998","299.7","1008.072","11.43","60.22","NAN","0.0"],
    [1535685,"2026-01-02 20:20:00","47441","0.542","266.0","2.156","294.8","1008.154","11.48","60.35","NAN","0.0"],
    [1535686,"2026-01-02 20:30:00","47442","0.5539999999999999","253.6","2.385","286.4","1008.279","11.51","60.22","NAN","0.0"],
    [1535687,"2026-01-02 20:40:00","47443","0.75","280.2","2.221","273.3","1008.154","11.84","58.53","NAN","0.0"],
    [1535688,"2026-01-02 20:50:00","47444","0.7759999999999999","289.0","1.666","262.2","1008.039","12.06","58.17","NAN","0.0"],
    [1535689,"2026-01-02 21:00:00","47445","0.165","305.1","1.078","294.4","1007.99","12.02","58.47","NAN","0.0"],
    [1535690,"2026-01-02 21:10:00","47446","0.46299999999999997","2.824","1.47","331.2","1008.08","11.96","59.06","NAN","0.0"],
    [1535691,"2026-01-02 21:20:00","47447","0.204","285.9","1.013","288.3","1008.2239999999999","11.65","60.62","NAN","0.0"],
    [1535692,"2026-01-02 21:30:00","47448","0.496","200.2","1.699","217.9","1008.169","11.6","61.18","NAN","0.0"],
    [1535693,"2026-01-02 21:40:00","47449","0.38799999999999996","296.1","1.5030000000000001","282.3","1008.0139999999999","11.62","60.31","NAN","0.0"],
    [1535694,"2026-01-02 21:50:00","47450","0.203","310.2","1.405","271.2","1007.922","11.52","60.75","NAN","0.0"],
    [1535695,"2026-01-02 22:00:00","47451","0.273","104.5","0.7190000000000001","93.7","1007.8530000000001","11.2","63.54","NAN","0.0"],
    [1535696,"2026-01-02 22:10:00","47452","0.43700000000000006","165.1","1.405","207.3","1008.102","10.86","64.6","NAN","0.0"],
    [1535697,"2026-01-02 22:20:00","47453","0.223","225.4","1.013","202.4","1008.2310000000001","10.79","65.49","NAN","0.0"],
    [1535698,"2026-01-02 22:30:00","47454","1.06","228.6","2.515","247.6","1008.174","10.77","63.9","NAN","0.0"],
    [1535699,"2026-01-02 22:40:00","47455","1.088","230.8","2.6460000000000004","263.2","1007.995","10.62","63.61","NAN","0.0"],
    [1535700,"2026-01-02 22:50:00","47456","1.003","296.4","2.45","221.2","1007.962","10.98","61.94","NAN","0.0"],
    [1535701,"2026-01-02 23:00:00","47457","0.53","295.2","1.666","263.8","1007.8919999999999","11.14","61.61","NAN","0.0"],
    [1535702,"2026-01-02 23:10:00","47458","0.927","313.5","1.5030000000000001","281.5","1007.798","11.11","61.86","NAN","0.0"],
    [1535703,"2026-01-02 23:20:00","47459","0.494","354.0","0.9470000000000001","4.117","1007.721","11.23","62.41","NAN","0.0"],
    [1535704,"2026-01-02 23:30:00","47460","0.235","10.51","0.882","13.3","1007.658","11.02","64.18","NAN","0.0"],
    [1535705,"2026-01-02 23:40:00","47461","0.175","15.24","0.621","27.64","1007.5039999999999","10.9","65.2","NAN","0.0"],
    [1535706,"2026-01-02 23:50:00","47462","0.223","58.97","0.7190000000000001","56.84","1007.4689999999999","10.83","66.09","NAN","0.0"],
    [1535707,"2026-01-03 00:00:00","47463","0.08199999999999999","40.43","0.457","14.48","1007.4119999999999","10.67","66.23","NAN","0.0"],
    [1535708,"2026-01-03 00:10:00","47464","0.327","133.7","0.915","144.7","1007.3639999999999","10.5","67.17","NAN","0.0"],
    [1535709,"2026-01-03 00:20:00","47465","0.37","129.1","0.7509999999999999","128.5","1007.422","10.56","68.19","NAN","0.0"],
    [1535710,"2026-01-03 00:30:00","47466","0.239","21.11","0.621","23.07","1007.6139999999999","10.63","68.16","NAN","0.0"],
    [1535711,"2026-01-03 00:40:00","47467","1.129","16.72","2.7110000000000003","32.09","1007.596","10.53","66.01","NAN","0.0"],
    [1535712,"2026-01-03 00:50:00","47468","1.232","22.29","2.45","36.49","1007.5039999999999","10.24","66.38","NAN","0.0"],
    [1535713,"2026-01-03 01:00:00","47469","0.951","35.37","2.319","29.99","1007.395","10.04","66.85","NAN","0.0"],
    [1535714,"2026-01-03 01:10:00","47470","0.584","19.45","1.993","4.26","1007.556","9.97","66.75","NAN","0.0"],
    [1535715,"2026-01-03 01:20:00","47471","0.903","28.9","2.025","23.95","1007.6060000000001","10.06","65.3","NAN","0.0"],
    [1535716,"2026-01-03 01:30:00","47472","0.8340000000000001","42.19","1.829","44.47","1007.547","9.86","66.26","NAN","0.0"],
    [1535717,"2026-01-03 01:40:00","47473","0.945","0.32299999999999995","1.993","2.202","1007.597","9.78","66.13","NAN","0.0"],
    [1535718,"2026-01-03 01:50:00","47474","0.767","11.44","1.535","357.0","1007.671","10","65.44","NAN","0.0"],
    [1535719,"2026-01-03 02:00:00","47475","0.804","14.46","1.8619999999999999","26.4","1007.703","10.12","65.07","NAN","0.0"],
    [1535720,"2026-01-03 02:10:00","47476","0.589","358.1","1.699","23.12","1007.852","10.22","64.51","NAN","0.0"],
    [1535721,"2026-01-03 02:20:00","47477","0.807","6.466","1.4369999999999998","348.7","1007.857","10.37","64.12","NAN","0.0"],
    [1535722,"2026-01-03 02:30:00","47478","0.807","16.4","1.5030000000000001","3.878","1007.7710000000001","10.46","64.15","NAN","0.0"],
    [1535723,"2026-01-03 02:40:00","47479","0.647","6.171","1.307","354.4","1007.7589999999999","10.36","65.02","NAN","0.0"],
    [1535724,"2026-01-03 02:50:00","47480","1.1059999999999999","7.999","1.797","19.07","1007.638","10.48","65.34","NAN","0.0"],
    [1535725,"2026-01-03 03:00:00","47481","1.048","7.43","2.254","30.33","1007.462","10.46","65.96","NAN","0.0"],
    [1535726,"2026-01-03 03:10:00","47482","0.5589999999999999","17.07","1.9269999999999998","13.49","1007.422","10.35","66.8","NAN","0.0"],
    [1535727,"2026-01-03 03:20:00","47483","0.763","11.7","1.895","7.93","1007.365","10.28","67.57","NAN","0.0"],
    [1535728,"2026-01-03 03:30:00","47484","0.958","9.35","2.189","357.8","1007.367","10.21","68.3","NAN","0.0"],
    [1535729,"2026-01-03 03:40:00","47485","0.915","13.84","2.025","10.23","1007.32","10.18","68.79","NAN","0.0"],
    [1535730,"2026-01-03 03:50:00","47486","1.1909999999999998","10.47","2.385","27.35","1007.301","10.05","69.23","NAN","0.0"],
    [1535731,"2026-01-03 04:00:00","47487","1.215","11.93","2.45","21.41","1007.3","10.05","68.36","NAN","0.0"],
    [1535732,"2026-01-03 04:10:00","47488","0.8340000000000001","21.29","2.189","24.62","1007.335","10.05","67.29","NAN","0.0"],
    [1535733,"2026-01-03 04:20:00","47489","0.958","22.96","2.221","5.797999999999999","1007.232","10","66.81","NAN","0.0"],
    [1535734,"2026-01-03 04:30:00","47490","1.307","10.41","2.5810000000000004","6.827999999999999","1007.175","10.05","65.48","NAN","0.0"],
    [1535735,"2026-01-03 04:40:00","47491","0.998","3.68","1.797","22.27","1007.2180000000001","10.18","64.18","NAN","0.0"],
    [1535736,"2026-01-03 04:50:00","47492","0.953","29.03","1.666","29.97","1007.095","10.26","63.8","NAN","0.0"],
    [1535737,"2026-01-03 05:00:00","47493","0.833","27.27","1.797","49.36","1006.953","10.16","64.21","NAN","0.0"],
    [1535738,"2026-01-03 05:10:00","47494","0.9570000000000001","7.872000000000001","1.96","356.9","1007.0010000000001","10.28","62.9","NAN","0.0"],
    [1535739,"2026-01-03 05:20:00","47495","0.885","20.11","3.1689999999999996","12.08","1006.971","10.34","62.33","NAN","0.0"],
    [1535740,"2026-01-03 05:30:00","47496","0.9229999999999999","15.13","2.45","28.93","1007.071","10.27","62.23","NAN","0.0"],
    [1535741,"2026-01-03 05:40:00","47497","0.92","6.6129999999999995","2.319","10.55","1007.273","10.39","61.08","NAN","0.0"],
    [1535742,"2026-01-03 05:50:00","47498","0.9209999999999999","9.84","1.797","17.7","1007.297","10.38","61.22","NAN","0.0"],
    [1535743,"2026-01-03 06:00:00","47499","0.9470000000000001","12.4","1.8619999999999999","2.36","1007.33","10.37","61.27","NAN","0.0"],
    [1535744,"2026-01-03 06:10:00","47500","0.5820000000000001","9.39","1.339","3.5210000000000004","1007.472","10.31","61.31","NAN","0.0"],
    [1535745,"2026-01-03 06:20:00","47501","0.6990000000000001","2.162","1.3719999999999999","2.238","1007.721","10.38","61.33","NAN","0.0"],
    [1535746,"2026-01-03 06:30:00","47502","0.532","18.41","1.013","38.05","1007.8610000000001","10.46","61.98","NAN","0.0"],
    [1535747,"2026-01-03 06:40:00","47503","0.755","16.03","1.47","33.32","1008.053","10.3","63.66","NAN","0.0"],
    [1535748,"2026-01-03 06:50:00","47504","1.008","43.48","2.189","29.4","1008.102","10.28","64.48","NAN","0.0"],
    [1535749,"2026-01-03 07:00:00","47505","0.993","20.41","1.9269999999999998","32.06","1008.0369999999999","10.21","66.48","NAN","0.0"],
    [1535750,"2026-01-03 07:10:00","47506","1.308","31.58","2.7110000000000003","42.2","1007.87","10.27","69.27","NAN","0.0"],
    [1535751,"2026-01-03 07:20:00","47507","1.212","14.57","2.875","36.32","1007.763","10.18","71.86","NAN","0.0"],
    [1535752,"2026-01-03 07:30:00","47508","1.43","31.59","2.613","50.64","1007.684","10.14","73.91","NAN","0.0"],
    [1535753,"2026-01-03 07:40:00","47509","1.254","22.06","2.907","29.67","1007.669","10.01","74.7","NAN","0.0"],
    [1535754,"2026-01-03 07:50:00","47510","0.987","26.88","1.829","37.73","1007.7330000000001","10.11","74.81","NAN","0.0"],
    [1535755,"2026-01-03 08:00:00","47511","0.99","14.79","1.7309999999999999","354.0","1007.796","10.15","74.4","NAN","0.0"],
    [1535756,"2026-01-03 08:10:00","47512","1.089","21.75","2.352","24.34","1007.798","10.18","74.43","NAN","0.0"],
    [1535757,"2026-01-03 08:20:00","47513","0.94","24.77","2.025","82.8","1007.8710000000001","10.24","74.54","NAN","0.0"],
    [1535758,"2026-01-03 08:30:00","47514","1.2990000000000002","29.94","3.593","18.72","1007.831","10.28","74.15","NAN","0.0"],
    [1535759,"2026-01-03 08:40:00","47515","1.194","33.07","2.5810000000000004","39.3","1007.995","10.37","73.6","NAN","0.0"],
    [1535760,"2026-01-03 08:50:00","47516","0.848","40.56","2.0909999999999997","59.2","1008.22","10.53","72.86","NAN","0.0"],
    [1535761,"2026-01-03 09:00:00","47517","2.086","71.08","4.835","68.97","1008.334","11.06","70.38","NAN","0.0"],
    [1535762,"2026-01-03 09:10:00","47518","2.302","74.62","5.194","64.17","1008.326","11.71","67.48","NAN","0.0"],
    [1535763,"2026-01-03 09:20:00","47519","2.274","75.12","4.9","73.62","1008.45","11.75","66.66","NAN","0.0"],
    [1535764,"2026-01-03 09:30:00","47520","1.97","75.18","5.2589999999999995","74.64","1008.591","11.53","68.22","NAN","0.0"],
    [1535765,"2026-01-03 09:40:00","47521","2.333","73.55","4.867","75.6","1008.747","11.48","68.6","NAN","0.0"],
    [1535766,"2026-01-03 09:50:00","47522","2.441","72.1","5.129","66.76","1008.9060000000001","11.42","68.54","NAN","0.0"],
    [1535767,"2026-01-03 10:00:00","47523","2.35","70.83","4.737","72.17","1009.0010000000001","11.42","68.43","NAN","0.0"],
    [1535768,"2026-01-03 10:10:00","47524","2.6430000000000002","69.94","5.521","71.54","1009.0269999999999","11.46","68.28","NAN","0.0"],
    [1535769,"2026-01-03 10:20:00","47525","2.969","73.64","5.847","77.86","1008.8789999999999","11.41","68.19","NAN","0.0"],
    [1535770,"2026-01-03 10:30:00","47526","2.772","75.19","4.835","81.7","1008.74","11.36","69.13","NAN","0.0"],
    [1535771,"2026-01-03 10:40:00","47527","2.385","76.05","5.194","108.3","1008.701","11.39","69.3","NAN","0.0"],
    [1535772,"2026-01-03 10:50:00","47528","1.5659999999999998","57.04","3.593","82.2","1008.7189999999999","11.48","69.38","NAN","0.0"],
    [1535773,"2026-01-03 11:00:00","47529","1.1640000000000001","60.02","3.071","76.79","1008.693","11.47","69.49","NAN","0.0"],
    [1535774,"2026-01-03 11:10:00","47530","1.8090000000000002","69.52","4.704","97.2","1008.685","11.54","69.25","NAN","0.0"],
    [1535775,"2026-01-03 11:20:00","47531","1.8980000000000001","66.48","5.063","84.6","1008.5260000000001","11.63","69.24","NAN","0.0"],
    [1535776,"2026-01-03 11:30:00","47532","2.123","75.98","4.835","93.5","1008.432","11.68","69.5","NAN","0.0"],
    [1535777,"2026-01-03 11:40:00","47533","2.544","75.83","5.063","69.4","1008.297","11.42","69.64","NAN","0.0"],
    [1535778,"2026-01-03 11:50:00","47534","2.252","72.27","5.129","66.04","1008.1619999999999","11.54","68.91","NAN","0.0"],
    [1535779,"2026-01-03 12:00:00","47535","2.221","71.33","4.41","78.02","1007.923","11.43","69.11","NAN","0.0"],
    [1535780,"2026-01-03 12:10:00","47536","2.16","72.82","4.345","88.1","1007.762","11.46","68.67","NAN","0.0"],
    [1535781,"2026-01-03 12:20:00","47537","1.963","67.45","3.985","72.58","1007.8489999999999","11.4","68.43","NAN","0.0"],
    [1535782,"2026-01-03 12:30:00","47538","1.851","73.94","3.528","87.0","1007.7489999999999","11.26","69.14","NAN","0.0"],
    [1535783,"2026-01-03 12:40:00","47539","2.4130000000000003","74.13","5.194","73.03","1007.587","11.24","69.76","NAN","0.0"],
    [1535784,"2026-01-03 12:50:00","47540","2.234","83.0","4.41","91.0","1007.39","11.27","70.45","NAN","0.0"],
    [1535785,"2026-01-03 13:00:00","47541","1.8330000000000002","68.88","3.593","76.37","1007.3330000000001","11.38","70.6","NAN","0.0"],
    [1535786,"2026-01-03 13:10:00","47542","1.79","59.75","3.9530000000000003","64.34","1007.2310000000001","11.4","71.4","NAN","0.0"],
    [1535787,"2026-01-03 13:20:00","47543","1.374","60.03","3.103","41.15","1007.1189999999999","11.55","71.5","NAN","0.0"],
    [1535788,"2026-01-03 13:30:00","47544","1.577","71.33","4.41","75.35","1007.1389999999999","11.79","69.89","NAN","0.0"],
    [1535789,"2026-01-03 13:40:00","47545","2.094","73.37","3.985","83.0","1007.1439999999999","11.69","69.38","NAN","0.0"],
    [1535790,"2026-01-03 13:50:00","47546","1.9509999999999998","72.51","4.181","84.9","1007.166","11.6","69.91","NAN","0.0"],
    [1535791,"2026-01-03 14:00:00","47547","1.7269999999999999","71.29","4.018","54.59","1006.942","11.67","70.29","NAN","0.0"],
    [1535792,"2026-01-03 14:10:00","47548","1.778","76.71","3.822","72.19","1007.077","11.61","70.35","NAN","0.0"],
    [1535793,"2026-01-03 14:20:00","47549","1.994","76.77","4.181","77.41","1007.084","11.57","70.53","NAN","0.0"],
    [1535794,"2026-01-03 14:30:00","47550","2.1","72.63","4.1160000000000005","68.16","1007.191","11.59","70.27","NAN","0.0"],
    [1535795,"2026-01-03 14:40:00","47551","2.122","67.93","4.247","67.29","1007.1610000000001","11.48","70.11","NAN","0.0"],
    [1535796,"2026-01-03 14:50:00","47552","1.902","70.96","4.149","63.52","1007.046","11.53","69.92","NAN","0.0"],
    [1535797,"2026-01-03 15:00:00","47553","1.4280000000000002","55.51","3.299","22.28","1006.87","11.58","69.88","NAN","0.0"],
    [1535798,"2026-01-03 15:10:00","47554","1.4","45.58","3.7569999999999997","60.12","1006.73","11.52","69.64","NAN","0.0"],
    [1535799,"2026-01-03 15:20:00","47555","1.268","54.02","2.6460000000000004","54.56","1006.73","11.56","69.42","NAN","0.0"],
    [1535800,"2026-01-03 15:30:00","47556","1.77","77.34","3.855","91.9","1006.73","11.56","69.11","NAN","0.0"],
    [1535801,"2026-01-03 15:40:00","47557","2.645","71.75","4.802","75.65","1006.7080000000001","11.5","69.39","NAN","0.0"],
    [1535802,"2026-01-03 15:50:00","47558","2.27","72.91","4.573","40.89","1006.613","11.45","69.89","NAN","0.0"],
    [1535803,"2026-01-03 16:00:00","47559","2.356","71.82","4.606","60.26","1006.5310000000001","11.42","70.12","NAN","0.0"],
    [1535804,"2026-01-03 16:10:00","47560","2.523","82.5","4.671","58.47","1006.47","11.47","70.79","NAN","0.0"],
    [1535805,"2026-01-03 16:20:00","47561","2.416","78.76","4.638999999999999","78.85","1006.555","11.44","70.93","NAN","0.0"],
    [1535806,"2026-01-03 16:30:00","47562","1.9769999999999999","77.9","3.7569999999999997","109.3","1006.429","11.44","71.01","NAN","0.0"],
    [1535807,"2026-01-03 16:40:00","47563","1.781","76.06","4.2139999999999995","77.11","1006.43","11.46","71.35","NAN","0.0"],
    [1535808,"2026-01-03 16:50:00","47564","1.774","76.63","3.92","68.98","1006.5139999999999","11.53","71.34","NAN","0.0"],
    [1535809,"2026-01-03 17:00:00","47565","1.861","78.28","3.593","117.9","1006.555","11.53","72.4","NAN","0.0"],
    [1535810,"2026-01-03 17:10:00","47566","2.206","93.0","3.855","96.6","1006.6110000000001","11.54","73.79","NAN","0.0"],
    [1535811,"2026-01-03 17:20:00","47567","2.265","84.0","4.051","81.2","1006.554","11.55","74.34","NAN","0.0"],
    [1535812,"2026-01-03 17:30:00","47568","1.6469999999999998","77.88","4.181","86.8","1006.563","11.53","74.54","NAN","0.0"],
    [1535813,"2026-01-03 17:40:00","47569","1.8459999999999999","81.5","3.6260000000000003","81.1","1006.705","11.53","74.61","NAN","0.0"],
    [1535814,"2026-01-03 17:50:00","47570","1.87","66.88","3.92","61.24","1006.738","11.55","74.15","NAN","0.0"],
    [1535815,"2026-01-03 18:00:00","47571","1.817","70.34","3.6260000000000003","77.64","1006.7389999999999","11.58","74.19","NAN","0.0"],
    [1535816,"2026-01-03 18:10:00","47572","1.679","77.42","3.463","76.9","1006.748","11.64","74.1","NAN","0.0"],
    [1535817,"2026-01-03 18:20:00","47573","1.966","83.2","4.083","63.58","1006.7810000000001","11.71","73.51","NAN","0.0"],
    [1535818,"2026-01-03 18:30:00","47574","2.3569999999999998","82.9","4.9","99.2","1006.846","11.68","73.26","NAN","0.0"],
    [1535819,"2026-01-03 18:40:00","47575","1.71","69.01","3.7889999999999997","67.81","1006.785","11.68","73.31","NAN","0.0"],
    [1535820,"2026-01-03 18:50:00","47576","2.13","69.56","4.475","67.07","1006.778","11.66","72.69","NAN","0.0"],
    [1535821,"2026-01-03 19:00:00","47577","2.336","71.3","4.998","69.28","1006.8989999999999","11.62","72.74","NAN","0.0"],
    [1535822,"2026-01-03 19:10:00","47578","2.786","71.77","5.553","76.55","1006.921","11.55","72.74","NAN","0.0"],
    [1535823,"2026-01-03 19:20:00","47579","2.457","75.22","4.802","70.9","1006.855","11.52","73.62","NAN","0.0"],
    [1535824,"2026-01-03 19:30:00","47580","2.266","76.03","4.41","37.56","1006.872","11.46","73.17","NAN","0.0"],
    [1535825,"2026-01-03 19:40:00","47581","2.804","70.6","5.031000000000001","69.39","1006.8919999999999","11.38","72.83","NAN","0.0"],
    [1535826,"2026-01-03 19:50:00","47582","2.22","69.55","4.508","74.78","1007.005","11.38","73.88","NAN","0.0"],
    [1535827,"2026-01-03 20:00:00","47583","1.337","40.02","2.875","54.57","1006.9789999999999","11.17","75.91","NAN","0.0"],
    [1535828,"2026-01-03 20:10:00","47584","1.345","42.73","3.136","32.21","1007.0239999999999","10.9","78.05","NAN","0.0"],
    [1535829,"2026-01-03 20:20:00","47585","1.274","58.09","2.5810000000000004","55.22","1006.997","10.77","79.9","NAN","0.0"],
    [1535830,"2026-01-03 20:30:00","47586","1.443","54.03","3.332","69.26","1007.0369999999999","10.68","82","NAN","0.0"],
    [1535831,"2026-01-03 20:40:00","47587","1.472","54.62","3.299","64.59","1007.041","10.51","83.2","NAN","0.1"],
    [1535832,"2026-01-03 20:50:00","47588","1.38","53.83","3.299","77.0","1007.0210000000001","10.43","83.7","NAN","0.0"],
    [1535833,"2026-01-03 21:00:00","47589","1.65","66.3","4.475","64.61","1006.9780000000001","10.34","85.2","NAN","0.1"],
    [1535834,"2026-01-03 21:10:00","47590","1.5219999999999998","79.14","4.149","85.4","1006.919","10.35","84.4","NAN","0.1"],
    [1535835,"2026-01-03 21:20:00","47591","1.103","41.83","3.0380000000000003","79.85","1006.8639999999999","10.25","86.4","NAN","0.1"],
    [1535836,"2026-01-03 21:30:00","47592","0.752","24.71","1.829","69.2","1006.921","10.01","88.1","NAN","0.1"],
    [1535837,"2026-01-03 21:40:00","47593","0.728","37.01","1.764","32.61","1006.9110000000001","9.94","88.9","NAN","0.0"],
    [1535838,"2026-01-03 21:50:00","47594","0.51","34.52","1.47","37.34","1006.9119999999999","9.91","88.9","NAN","0.0"],
    [1535839,"2026-01-03 22:00:00","47595","0.405","39.27","1.2409999999999999","20.1","1006.937","9.88","89.2","NAN","0.0"],
    [1535840,"2026-01-03 22:10:00","47596","0.6459999999999999","11.68","1.568","5.271","1006.995","9.84","88.5","NAN","0.0"],
    [1535841,"2026-01-03 22:20:00","47597","0.479","79.14","1.3719999999999999","57.48","1007.055","9.88","88.2","NAN","0.0"],
    [1535842,"2026-01-03 22:30:00","47598","0.369","14.52","1.405","24.53","1007.055","9.83","88.8","NAN","0.0"],
    [1535843,"2026-01-03 22:40:00","47599","0.431","20.17","2.025","60.79","1007.073","9.88","87.5","NAN","0.0"],
    [1535844,"2026-01-03 22:50:00","47600","0.35100000000000003","30.85","1.045","20.78","1007.08","9.91","88","NAN","0.1"],
    [1535845,"2026-01-03 23:00:00","47601","0.529","7.035","1.7309999999999999","33.08","1007.068","9.84","87.7","NAN","0.0"],
    [1535846,"2026-01-03 23:10:00","47602","0.612","20.01","1.405","15.81","1007.058","9.85","88.3","NAN","0.0"],
    [1535847,"2026-01-03 23:20:00","47603","0.45299999999999996","16.89","1.7309999999999999","10.85","1007.068","9.81","87.8","NAN","0.0"],
    [1535848,"2026-01-03 23:30:00","47604","0.569","57.21","1.7309999999999999","79.4","1006.9810000000001","9.79","88.6","NAN","0.0"],
    [1535849,"2026-01-03 23:40:00","47605","1.838","77.69","3.463","83.0","1006.9019999999999","9.78","86.4","NAN","0.0"],
    [1535850,"2026-01-03 23:50:00","47606","1.6869999999999998","73.66","3.234","66.01","1006.8330000000001","9.79","85.9","NAN","0.0"],
    [1535851,"2026-01-04 00:00:00","47607","1.6480000000000001","75.42","3.267","92.0","1006.821","9.67","87.2","NAN","0.1"],
    [1535852,"2026-01-04 00:10:00","47608","1.963","81.2","4.508","95.9","1006.828","9.64","88.5","NAN","0.0"],
    [1535853,"2026-01-04 00:20:00","47609","1.435","88.3","3.985","69.73","1006.813","9.59","88","NAN","0.1"],
    [1535854,"2026-01-04 00:30:00","47610","1.8090000000000002","93.4","4.671","105.5","1006.7189999999999","9.63","86.3","NAN","0.0"],
    [1535855,"2026-01-04 00:40:00","47611","1.994","102.3","4.279","110.8","1006.683","9.7","84.6","NAN","0.0"],
    [1535856,"2026-01-04 00:50:00","47612","2.662","98.1","5.422999999999999","99.8","1006.699","9.76","82.5","NAN","0.0"],
    [1535857,"2026-01-04 01:00:00","47613","2.119","95.3","5.978","101.7","1006.699","9.72","81.9","NAN","0.0"],
    [1535858,"2026-01-04 01:10:00","47614","2.331","99.1","6.272","103.9","1006.683","9.57","81.2","NAN","0.0"],
    [1535859,"2026-01-04 01:20:00","47615","2.394","79.21","4.835","53.86","1006.711","9.39","80.5","NAN","0.1"],
    [1535860,"2026-01-04 01:30:00","47616","1.9980000000000002","76.12","4.541","112.3","1006.712","9.25","81","NAN","0.1"],
    [1535861,"2026-01-04 01:40:00","47617","2.2119999999999997","80.8","4.769","69.94","1006.722","9.2","80.1","NAN","0.0"],
    [1535862,"2026-01-04 01:50:00","47618","2.536","76.48","5.292000000000001","104.8","1006.671","9.28","77.37","NAN","0.0"],
    [1535863,"2026-01-04 02:00:00","47619","2.7319999999999998","89.0","4.965","93.5","1006.596","9.37","76.53","NAN","0.0"],
    [1535864,"2026-01-04 02:10:00","47620","2.131","86.4","4.083","91.8","1006.561","9.38","76.62","NAN","0.0"],
    [1535865,"2026-01-04 02:20:00","47621","2.53","75.1","6.0760000000000005","65.44","1006.512","9.48","72.26","NAN","0.0"],
    [1535866,"2026-01-04 02:30:00","47622","2.9210000000000003","84.0","5.651","77.6","1006.487","9.59","69.66","NAN","0.0"],
    [1535867,"2026-01-04 02:40:00","47623","2.887","84.8","5.39","90.7","1006.459","9.53","71.33","NAN","0.0"],
    [1535868,"2026-01-04 02:50:00","47624","3.1710000000000003","75.25","6.697","69.72","1006.3639999999999","9.51","64.95","NAN","0.0"],
    [1535869,"2026-01-04 03:00:00","47625","3.55","72.42","6.5329999999999995","77.04","1006.3330000000001","9.39","65.32","NAN","0.0"],
    [1535870,"2026-01-04 03:10:00","47626","3.589","75.72","7.775","69.32","1006.2639999999999","9.29","68.89","NAN","0.0"],
    [1535871,"2026-01-04 03:20:00","47627","2.84","74.03","6.305","68.62","1006.235","9.17","70.48","NAN","0.0"],
    [1535872,"2026-01-04 03:30:00","47628","2.8480000000000003","70.85","5.815","73.65","1006.1510000000001","8.9","74.06","NAN","0.0"],
    [1535873,"2026-01-04 03:40:00","47629","2.6260000000000003","74.78","5.325","74.62","1006.1","8.63","75.55","NAN","0.1"],
    [1535874,"2026-01-04 03:50:00","47630","2.8930000000000002","71.96","5.847","72.79","1006.0930000000001","8.58","75.19","NAN","0.1"],
    [1535875,"2026-01-04 04:00:00","47631","2.044","53.55","5.521","76.86","1006.018","8.59","75.3","NAN","0.0"],
    [1535876,"2026-01-04 04:10:00","47632","2.655","69.07","6.239","80.7","1005.9830000000001","8.5","75.32","NAN","0.1"],
    [1535877,"2026-01-04 04:20:00","47633","2.112","66.3","5.227","74.38","1005.908","8.47","74.99","NAN","0.0"],
    [1535878,"2026-01-04 04:30:00","47634","3.198","76.61","6.305","76.48","1005.8689999999999","8.4","74.13","NAN","0.1"],
    [1535879,"2026-01-04 04:40:00","47635","1.8359999999999999","51.54","3.43","55.2","1005.8639999999999","8.32","78.8","NAN","0.0"],
    [1535880,"2026-01-04 04:50:00","47636","1.686","44.44","3.985","25.46","1005.8710000000001","8.14","79.82","NAN","0.1"],
    [1535881,"2026-01-04 05:00:00","47637","1.89","54.51","3.6910000000000003","51.22","1005.8789999999999","8.16","77.37","NAN","0.0"],
    [1535882,"2026-01-04 05:10:00","47638","1.786","59.17","5.129","46.78","1005.914","8.17","76.56","NAN","0.0"],
    [1535883,"2026-01-04 05:20:00","47639","2.594","70.34","6.109","61.48","1005.9730000000001","8.23","74.65","NAN","0.0"],
    [1535884,"2026-01-04 05:30:00","47640","2.474","67.93","5.815","66.98","1005.916","7.993","72.25","NAN","0.1"],
    [1535885,"2026-01-04 05:40:00","47641","2.963","67.8","5.586","73.18","1005.888","7.911","73.02","NAN","0.0"],
    [1535886,"2026-01-04 05:50:00","47642","2.826","71.09","5.455","62.72","1005.8739999999999","7.81","73.16","NAN","0.0"],
    [1535887,"2026-01-04 06:00:00","47643","2.052","65.65","3.822","59.13","1005.868","7.752","74.24","NAN","0.0"],
    [1535888,"2026-01-04 06:10:00","47644","1.7409999999999999","71.87","3.332","79.59","1005.846","7.697","75.64","NAN","0.0"],
    [1535889,"2026-01-04 06:20:00","47645","1.2209999999999999","71.02","2.5810000000000004","54.27","1005.7739999999999","7.694","76.46","NAN","0.0"],
    [1535890,"2026-01-04 06:30:00","47646","0.523","53.32","1.3719999999999999","38.65","1005.789","7.757","78.11","NAN","0.0"],
    [1535891,"2026-01-04 06:40:00","47647","0.748","2.782","1.339","3.42","1005.8710000000001","7.746","78.17","NAN","0.0"],
    [1535892,"2026-01-04 06:50:00","47648","0.65","333.4","1.47","351.4","1005.8710000000001","7.838","77.68","NAN","0.0"],
    [1535893,"2026-01-04 07:00:00","47649","0.92","349.1","1.993","14.79","1005.966","7.943","78","NAN","0.0"],
    [1535894,"2026-01-04 07:10:00","47650","1.6469999999999998","42.44","3.299","43.89","1006.135","7.815","82.4","NAN","0.0"],
    [1535895,"2026-01-04 07:20:00","47651","1.344","36.75","2.907","22.92","1006.238","7.36","85.8","NAN","0.0"],
    [1535896,"2026-01-04 07:30:00","47652","0.767","24.56","1.829","14.87","1006.3","7.304","85.4","NAN","0.0"],
    [1535897,"2026-01-04 07:40:00","47653","1.046","44.82","2.156","38.66","1006.37","7.4","84.7","NAN","0.0"],
    [1535898,"2026-01-04 07:50:00","47654","0.373","30.01","1.176","59.66","1006.382","7.56","83.9","NAN","0.0"],
    [1535899,"2026-01-04 08:00:00","47655","0.37200000000000005","43.79","1.2409999999999999","12.4","1006.4889999999999","7.683","82.4","NAN","0.0"],
    [1535900,"2026-01-04 08:10:00","47656","0.354","54.83","1.405","19.08","1006.5089999999999","7.804","81.8","NAN","0.0"],
    [1535901,"2026-01-04 08:20:00","47657","0.9570000000000001","28.56","2.0909999999999997","22.56","1006.551","7.655","81.4","NAN","0.0"],
    [1535902,"2026-01-04 08:30:00","47658","0.611","17.32","1.274","24.63","1006.569","7.606","82.1","NAN","0.0"],
    [1535903,"2026-01-04 08:40:00","47659","0.713","45.2","2.0909999999999997","34.29","1006.709","7.681","81.4","NAN","0.0"],
    [1535904,"2026-01-04 08:50:00","47660","0.72","26.79","2.0580000000000003","23.23","1006.71","7.74","80.7","NAN","0.0"],
    [1535905,"2026-01-04 09:00:00","47661","0.6409999999999999","24.4","1.633","5.25","1006.6439999999999","7.818","80.1","NAN","0.0"],
    [1535906,"2026-01-04 09:10:00","47662","1.124","47.46","2.0909999999999997","54.46","1006.738","7.854","79.27","NAN","0.0"],
    [1535907,"2026-01-04 09:20:00","47663","0.885","31.82","1.895","38.47","1006.8330000000001","7.903","78.86","NAN","0.0"],
    [1535908,"2026-01-04 09:30:00","47664","0.6729999999999999","10.06","1.666","25.04","1006.8489999999999","7.864","78.81","NAN","0.0"],
    [1535909,"2026-01-04 09:40:00","47665","0.61","17.82","1.535","45.84","1006.898","7.885","79.16","NAN","0.0"],
    [1535910,"2026-01-04 09:50:00","47666","0.46799999999999997","4.064","1.274","350.7","1007.066","7.916","79.46","NAN","0.0"],
    [1535911,"2026-01-04 10:00:00","47667","0.342","31.34","0.8170000000000001","100.1","1007.159","7.999","79.58","NAN","0.0"],
    [1535912,"2026-01-04 10:10:00","47668","0.095","62.74","0.6859999999999999","69.36","1007.197","8.26","79.13","NAN","0.0"],
    [1535913,"2026-01-04 10:20:00","47669","0.025","116.8","0.425","113.6","1007.186","8.4","78.05","NAN","0.0"],
    [1535914,"2026-01-04 10:30:00","47670","0.012","133.1","0.294","159.0","1007.115","8.58","77.42","NAN","0.0"],
    [1535915,"2026-01-04 10:40:00","47671","0.06","95.7","0.7190000000000001","94.9","1007.053","8.69","76.26","NAN","0.0"],
    [1535916,"2026-01-04 10:50:00","47672","0.602","141.8","1.013","141.3","1007.044","8.87","76.63","NAN","0.0"],
    [1535917,"2026-01-04 11:00:00","47673","0.833","164.8","1.895","170.4","1006.9730000000001","8.85","78.71","NAN","0.0"],
    [1535918,"2026-01-04 11:10:00","47674","0.688","165.1","1.8619999999999999","240.4","1006.8610000000001","8.88","80.2","NAN","0.0"],
    [1535919,"2026-01-04 11:20:00","47675","0.7020000000000001","212.0","1.764","207.7","1006.796","9","82","NAN","0.0"],
    [1535920,"2026-01-04 11:30:00","47676","0.765","213.3","1.9269999999999998","211.4","1006.6489999999999","9.05","83.3","NAN","0.0"],
    [1535921,"2026-01-04 11:40:00","47677","0.998","215.3","2.842","237.0","1006.48","8.9","84.7","NAN","0.0"],
    [1535922,"2026-01-04 11:50:00","47678","1.228","252.2","3.201","245.7","1006.3580000000001","8.75","82.6","NAN","0.0"],
    [1535923,"2026-01-04 12:00:00","47679","1.2570000000000001","252.4","2.7110000000000003","267.6","1006.289","8.63","83.4","NAN","0.0"],
    [1535924,"2026-01-04 12:10:00","47680","1.344","236.1","2.875","228.3","1006.2560000000001","8.5","84.3","NAN","0.0"],
    [1535925,"2026-01-04 12:20:00","47681","1.329","237.8","2.7110000000000003","269.2","1006.096","8.47","85","NAN","0.0"],
    [1535926,"2026-01-04 12:30:00","47682","1.235","227.0","2.907","238.9","1006.052","8.48","84.9","NAN","0.0"],
    [1535927,"2026-01-04 12:40:00","47683","1.099","210.0","2.254","221.3","1005.927","8.57","84.9","NAN","0.0"],
    [1535928,"2026-01-04 12:50:00","47684","1.052","223.9","2.0580000000000003","197.1","1005.805","8.56","84.1","NAN","0.0"],
    [1535929,"2026-01-04 13:00:00","47685","1.016","220.4","2.842","224.6","1005.73","8.7","84.6","NAN","0.0"],
    [1535930,"2026-01-04 13:10:00","47686","0.848","244.1","2.156","252.9","1005.678","8.85","84.4","NAN","0.0"],
    [1535931,"2026-01-04 13:20:00","47687","1.12","238.4","2.417","253.2","1005.6260000000001","8.95","84.8","NAN","0.0"],
    [1535932,"2026-01-04 13:30:00","47688","0.465","233.7","2.254","244.6","1005.561","9.06","85.5","NAN","0.0"],
    [1535933,"2026-01-04 13:40:00","47689","0.455","267.7","1.993","250.9","1005.5089999999999","9.07","85.3","NAN","0.0"],
    [1535934,"2026-01-04 13:50:00","47690","1.183","236.1","2.483","237.2","1005.427","9.09","84.9","NAN","0.0"],
    [1535935,"2026-01-04 14:00:00","47691","0.599","239.0","1.8619999999999999","258.5","1005.317","9.15","84.8","NAN","0.0"],
    [1535936,"2026-01-04 14:10:00","47692","0.691","276.2","2.0909999999999997","263.7","1005.305","9.22","84.6","NAN","0.0"],
    [1535937,"2026-01-04 14:20:00","47693","0.809","256.1","2.254","276.7","1005.304","9.25","85","NAN","0.0"],
    [1535938,"2026-01-04 14:30:00","47694","0.631","247.9","1.764","246.1","1005.302","9.47","84.9","NAN","0.0"],
    [1535939,"2026-01-04 14:40:00","47695","1.038","267.1","2.385","244.5","1005.324","9.56","83.9","NAN","0.0"],
    [1535940,"2026-01-04 14:50:00","47696","0.85","268.5","2.221","301.5","1005.42","9.71","82.2","NAN","0.0"],
    [1535941,"2026-01-04 15:00:00","47697","1.272","272.8","3.136","250.7","1005.5160000000001","9.84","81.1","NAN","0.0"],
    [1535942,"2026-01-04 15:10:00","47698","0.9840000000000001","271.6","2.352","293.6","1005.659","9.93","79.56","NAN","0.0"],
    [1535943,"2026-01-04 15:20:00","47699","0.8640000000000001","301.6","2.189","280.6","1005.763","9.95","78.67","NAN","0.0"],
    [1535944,"2026-01-04 15:30:00","47700","1.016","4.966","2.123","333.6","1005.795","9.86","81.1","NAN","0.0"],
    [1535945,"2026-01-04 15:40:00","47701","0.812","308.1","2.417","236.0","1005.816","9.77","82.3","NAN","0.0"],
    [1535946,"2026-01-04 15:50:00","47702","1.06","48.36","2.875","58.55","1005.923","9.66","83.1","NAN","0.0"],
    [1535947,"2026-01-04 16:00:00","47703","0.525","356.2","1.274","328.0","1005.956","9.48","83.3","NAN","0.0"],
    [1535948,"2026-01-04 16:10:00","47704","1.1520000000000001","37.64","2.483","42.01","1006.039","9.29","82.4","NAN","0.0"],
    [1535949,"2026-01-04 16:20:00","47705","1.146","12.92","2.319","26.5","1006.049","9.04","81.8","NAN","0.0"],
    [1535950,"2026-01-04 16:30:00","47706","0.867","9.46","2.613","17.99","1006.03","8.84","81.7","NAN","0.0"],
    [1535951,"2026-01-04 16:40:00","47707","0.98","22.78","2.156","32.05","1006.059","8.86","81.1","NAN","0.0"],
    [1535952,"2026-01-04 16:50:00","47708","0.941","18.06","2.548","21.69","1006.1469999999999","8.86","80","NAN","0.0"],
    [1535953,"2026-01-04 17:00:00","47709","0.8740000000000001","36.65","1.96","50.97","1006.176","8.8","79.28","NAN","0.0"],
    [1535954,"2026-01-04 17:10:00","47710","1.412","39.55","2.7769999999999997","45.18","1006.2639999999999","8.81","78.51","NAN","0.0"],
    [1535955,"2026-01-04 17:20:00","47711","1.173","41.56","2.417","24.49","1006.301","8.72","78.88","NAN","0.0"],
    [1535956,"2026-01-04 17:30:00","47712","1.429","40.71","2.548","35.92","1006.3860000000001","8.5","81.2","NAN","0.0"],
    [1535957,"2026-01-04 17:40:00","47713","0.956","14.19","1.993","32.66","1006.538","8.19","83.4","NAN","0.0"],
    [1535958,"2026-01-04 17:50:00","47714","0.889","9.9","2.0909999999999997","5.547000000000001","1006.6519999999999","8.09","84.2","NAN","0.0"],
    [1535959,"2026-01-04 18:00:00","47715","1.018","359.4","2.0909999999999997","335.7","1006.757","8.11","85.2","NAN","0.0"],
    [1535960,"2026-01-04 18:10:00","47716","0.995","4.195","2.221","8.22","1006.8689999999999","8.11","86.5","NAN","0.0"],
    [1535961,"2026-01-04 18:20:00","47717","0.846","9.26","1.666","16.73","1007.0","8.16","86.8","NAN","0.0"],
    [1535962,"2026-01-04 18:30:00","47718","0.629","8.87","1.633","47.89","1007.128","8.19","85.6","NAN","0.0"],
    [1535963,"2026-01-04 18:40:00","47719","0.441","159.2","1.045","162.2","1007.2389999999999","8.35","83.4","NAN","0.0"],
    [1535964,"2026-01-04 18:50:00","47720","0.29100000000000004","201.1","0.882","187.4","1007.252","8.47","77.68","NAN","0.0"],
    [1535965,"2026-01-04 19:00:00","47721","0.37","9.56","0.9470000000000001","30.99","1007.311","8.58","74.81","NAN","0.0"],
    [1535966,"2026-01-04 19:10:00","47722","0.39399999999999996","36.98","1.013","32.23","1007.304","8.78","72.12","NAN","0.0"],
    [1535967,"2026-01-04 19:20:00","47723","0.105","222.0","1.078","162.5","1007.31","8.72","67.66","NAN","0.0"],
    [1535968,"2026-01-04 19:30:00","47724","0.7090000000000001","59.96","1.568","51.33","1007.422","8.85","66.49","NAN","0.0"],
    [1535969,"2026-01-04 19:40:00","47725","1.024","66.68","2.548","53.48","1007.413","9","65.33","NAN","0.0"],
    [1535970,"2026-01-04 19:50:00","47726","1.081","34.12","2.025","52.26","1007.352","8.84","67.44","NAN","0.0"],
    [1535971,"2026-01-04 20:00:00","47727","0.619","21.3","1.666","50.19","1007.409","8.85","68.45","NAN","0.0"],
    [1535972,"2026-01-04 20:10:00","47728","0.552","8.47","1.3719999999999999","17.93","1007.422","8.81","68.79","NAN","0.0"],
    [1535973,"2026-01-04 20:20:00","47729","0.813","50.47","1.633","355.5","1007.482","8.86","74.86","NAN","0.0"],
    [1535974,"2026-01-04 20:30:00","47730","0.6859999999999999","26.86","1.568","37.02","1007.597","8.54","78.72","NAN","0.0"],
    [1535975,"2026-01-04 20:40:00","47731","0.765","46.67","1.829","55.94","1007.673","8.36","79.77","NAN","0.0"],
    [1535976,"2026-01-04 20:50:00","47732","0.787","25.3","2.221","61.5","1007.701","8.2","80.6","NAN","0.0"],
    [1535977,"2026-01-04 21:00:00","47733","0.586","12.92","2.189","3.7310000000000003","1007.7239999999999","8.14","80.6","NAN","0.0"],
    [1535978,"2026-01-04 21:10:00","47734","1.043","15.93","2.123","40.19","1007.682","8.07","80.6","NAN","0.0"],
    [1535979,"2026-01-04 21:20:00","47735","1.339","8.14","2.417","0.368","1007.63","7.918","80.6","NAN","0.0"],
    [1535980,"2026-01-04 21:30:00","47736","1.425","4.935","2.8089999999999997","11.3","1007.586","7.866","81.5","NAN","0.0"],
    [1535981,"2026-01-04 21:40:00","47737","1.005","9.26","2.515","19.71","1007.573","7.879","82.3","NAN","0.0"],
    [1535982,"2026-01-04 21:50:00","47738","0.9","13.15","2.0580000000000003","355.2","1007.675","7.916","82.7","NAN","0.0"],
    [1535983,"2026-01-04 22:00:00","47739","0.951","47.0","1.895","41.18","1007.73","7.94","83.6","NAN","0.0"],
    [1535984,"2026-01-04 22:10:00","47740","1.288","53.2","2.287","53.85","1007.824","7.823","84.4","NAN","0.0"],
    [1535985,"2026-01-04 22:20:00","47741","1.297","30.96","2.679","42.21","1007.88","7.682","85.2","NAN","0.0"],
    [1535986,"2026-01-04 22:30:00","47742","1.136","29.96","2.417","53.9","1008.0239999999999","7.597","86.1","NAN","0.0"],
    [1535987,"2026-01-04 22:40:00","47743","0.94","31.18","2.254","34.56","1008.1210000000001","7.442","86.7","NAN","0.0"],
    [1535988,"2026-01-04 22:50:00","47744","1.245","45.56","2.483","50.72","1008.112","7.435","87.1","NAN","0.0"],
    [1535989,"2026-01-04 23:00:00","47745","1.129","34.78","2.515","41.1","1008.1560000000001","7.431","86.6","NAN","0.0"],
    [1535990,"2026-01-04 23:10:00","47746","1.089","28.74","2.123","55.54","1008.209","7.407","86.3","NAN","0.0"],
    [1535991,"2026-01-04 23:20:00","47747","1.113","44.39","2.483","34.29","1008.19","7.44","86.1","NAN","0.0"],
    [1535992,"2026-01-04 23:30:00","47748","0.856","25.81","1.96","77.32","1008.2860000000001","7.481","85.7","NAN","0.0"],
    [1535993,"2026-01-04 23:40:00","47749","0.777","10.31","1.895","35.81","1008.225","7.487","85","NAN","0.0"],
    [1535994,"2026-01-04 23:50:00","47750","0.815","3.4130000000000003","1.797","323.9","1008.1669999999999","7.562","83.2","NAN","0.0"],
    [1535995,"2026-01-05 00:00:00","47751","1.044","327.4","2.319","304.7","1008.1139999999999","7.723","80.3","NAN","0.0"],
    [1535996,"2026-01-05 00:10:00","47752","1.185","341.3","3.136","346.6","1008.112","7.75","79.26","NAN","0.0"],
    [1535997,"2026-01-05 00:20:00","47753","0.784","350.3","1.895","358.3","1008.1110000000001","7.76","78.9","NAN","0.0"],
    [1535998,"2026-01-05 00:30:00","47754","1.2930000000000001","6.712000000000001","2.45","34.12","1008.1110000000001","7.813","78.02","NAN","0.0"],
    [1535999,"2026-01-05 00:40:00","47755","1.131","342.3","2.417","39.76","1008.107","7.755","76.97","NAN","0.0"],
    [1536000,"2026-01-05 00:50:00","47756","0.7809999999999999","357.5","1.96","326.9","1008.02","7.689","77.46","NAN","0.0"],
    [1536001,"2026-01-05 01:00:00","47757","0.74","1.2109999999999999","1.829","350.2","1007.9780000000001","7.608","78.72","NAN","0.0"],
    [1536002,"2026-01-05 01:10:00","47758","0.9329999999999999","15.77","2.254","9.63","1007.9810000000001","7.551","79.13","NAN","0.0"],
    [1536003,"2026-01-05 01:20:00","47759","0.895","25.71","2.5810000000000004","36.58","1007.972","7.468","79","NAN","0.0"],
    [1536004,"2026-01-05 01:30:00","47760","0.9540000000000001","40.16","2.8089999999999997","25.51","1007.945","7.493","79.14","NAN","0.0"],
    [1536005,"2026-01-05 01:40:00","47761","1.172","45.14","2.45","48.28","1008.007","7.473","79.9","NAN","0.0"],
    [1536006,"2026-01-05 01:50:00","47762","1.074","24.04","2.8089999999999997","30.07","1008.047","7.463","80.9","NAN","0.1"],
    [1536007,"2026-01-05 02:00:00","47763","0.914","21.75","2.319","62.28","1008.081","7.353","83.3","NAN","0.0"],
    [1536008,"2026-01-05 02:10:00","47764","1.1","11.93","2.45","34.14","1008.1139999999999","7.324","82.3","NAN","0.1"],
    [1536009,"2026-01-05 02:20:00","47765","0.898","349.9","2.0909999999999997","13.72","1008.1310000000001","7.383","82.1","NAN","0.0"],
    [1536010,"2026-01-05 02:30:00","47766","0.7120000000000001","311.7","1.535","2.9139999999999997","1008.243","7.319","82.4","NAN","0.0"],
    [1536011,"2026-01-05 02:40:00","47767","0.764","254.6","1.764","285.0","1008.176","7.282","83.7","NAN","0.0"],
    [1536012,"2026-01-05 02:50:00","47768","0.574","271.6","2.287","261.7","1008.0930000000001","7.206","84.1","NAN","0.0"],
    [1536013,"2026-01-05 03:00:00","47769","1.13","291.0","2.385","303.9","1008.0010000000001","7.175","82.2","NAN","0.0"],
    [1536014,"2026-01-05 03:10:00","47770","0.9109999999999999","269.5","1.7309999999999999","284.5","1007.9789999999999","7.111","81.5","NAN","0.0"],
    [1536015,"2026-01-05 03:20:00","47771","1.732","262.2","3.659","259.3","1007.927","6.955","79.72","NAN","0.1"],
    [1536016,"2026-01-05 03:30:00","47772","2.069","261.4","3.985","256.4","1007.812","6.802","78.25","NAN","0.0"],
    [1536017,"2026-01-05 03:40:00","47773","1.8940000000000001","258.2","3.822","234.0","1007.747","6.729","78.45","NAN","0.0"],
    [1536018,"2026-01-05 03:50:00","47774","1.714","274.5","3.822","296.6","1007.857","6.594","78.35","NAN","0.0"],
    [1536019,"2026-01-05 04:00:00","47775","1.68","261.9","3.6260000000000003","249.1","1007.862","6.404","78.54","NAN","0.0"],
    [1536020,"2026-01-05 04:10:00","47776","0.904","261.6","2.189","252.5","1007.862","6.498","78.23","NAN","0.0"],
    [1536021,"2026-01-05 04:20:00","47777","0.6459999999999999","237.2","2.0580000000000003","228.1","1007.805","6.665","77.66","NAN","0.0"],
    [1536022,"2026-01-05 04:30:00","47778","0.655","243.2","1.797","277.1","1007.865","6.644","77.07","NAN","0.0"],
    [1536023,"2026-01-05 04:40:00","47779","0.821","33.25","2.352","301.2","1007.8739999999999","6.794","76.14","NAN","0.0"],
    [1536024,"2026-01-05 04:50:00","47780","1.131","37.4","1.9269999999999998","28.81","1007.944","6.599","75.47","NAN","0.0"],
    [1536025,"2026-01-05 05:00:00","47781","0.449","6.303999999999999","1.405","6.297000000000001","1008.0939999999999","6.512","74.99","NAN","0.0"],
    [1536026,"2026-01-05 05:10:00","47782","1.091","11.91","3.071","32.67","1008.096","6.542","72.24","NAN","0.0"],
    [1536027,"2026-01-05 05:20:00","47783","1.002","6.794","2.5810000000000004","357.7","1008.1139999999999","6.625","69.93","NAN","0.0"],
    [1536028,"2026-01-05 05:30:00","47784","1.385","4.586","2.679","20.19","1008.1139999999999","6.574","68.66","NAN","0.0"],
    [1536029,"2026-01-05 05:40:00","47785","1.187","349.0","2.515","349.2","1008.183","6.424","68.51","NAN","0.0"],
    [1536030,"2026-01-05 05:50:00","47786","0.9690000000000001","333.9","3.005","290.2","1008.174","6.417","69.07","NAN","0.0"],
    [1536031,"2026-01-05 06:00:00","47787","1.392","334.8","3.136","313.7","1008.2410000000001","6.275","68.71","NAN","0.0"],
    [1536032,"2026-01-05 06:10:00","47788","1.376","326.3","3.9530000000000003","306.2","1008.3480000000001","6.158","69.04","NAN","0.0"],
    [1536033,"2026-01-05 06:20:00","47789","1.9380000000000002","324.5","4.671","328.1","1008.3480000000001","6.108","68.29","NAN","0.0"],
    [1536034,"2026-01-05 06:30:00","47790","1.025","317.5","3.495","337.0","1008.363","6.122","68.65","NAN","0.0"],
    [1536035,"2026-01-05 06:40:00","47791","1.675","317.2","3.659","317.2","1008.363","6.117","68.27","NAN","0.0"],
    [1536036,"2026-01-05 06:50:00","47792","1.643","335.4","4.2139999999999995","305.3","1008.363","6.031","67.98","NAN","0.0"],
    [1536037,"2026-01-05 07:00:00","47793","1.7409999999999999","328.1","4.1160000000000005","314.0","1008.408","6.053","67.82","NAN","0.0"],
    [1536038,"2026-01-05 07:10:00","47794","1.137","314.6","2.842","319.6","1008.492","6.018","68.04","NAN","0.0"],
    [1536039,"2026-01-05 07:20:00","47795","0.812","317.0","1.96","318.2","1008.602","6.109","68.28","NAN","0.0"],
    [1536040,"2026-01-05 07:30:00","47796","0.9790000000000001","316.2","3.528","295.9","1008.6389999999999","6.198","68.38","NAN","0.0"],
    [1536041,"2026-01-05 07:40:00","47797","1.194","315.2","3.0380000000000003","308.6","1008.694","6.212","68.16","NAN","0.0"],
    [1536042,"2026-01-05 07:50:00","47798","1.472","340.6","2.7769999999999997","322.1","1008.789","6.165","68.19","NAN","0.0"],
    [1536043,"2026-01-05 08:00:00","47799","1.112","331.9","3.071","287.9","1008.8560000000001","6.284","67.75","NAN","0.0"],
    [1536044,"2026-01-05 08:10:00","47800","0.528","301.4","1.9269999999999998","277.2","1008.8789999999999","6.308","68.31","NAN","0.0"],
    [1536045,"2026-01-05 08:20:00","47801","0.72","332.8","1.7309999999999999","340.5","1008.9580000000001","6.371","68.42","NAN","0.0"],
    [1536046,"2026-01-05 08:30:00","47802","0.9359999999999999","342.2","2.156","0.958","1009.058","6.442","67.49","NAN","0.0"],
    [1536047,"2026-01-05 08:40:00","47803","1.173","323.6","3.136","322.8","1009.12","6.462","66.91","NAN","0.0"],
    [1536048,"2026-01-05 08:50:00","47804","0.596","309.6","1.829","325.4","1009.14","6.463","68.07","NAN","0.0"],
    [1536049,"2026-01-05 09:00:00","47805","1.165","273.3","3.005","297.6","1009.247","6.327","69.32","NAN","0.0"],
    [1536050,"2026-01-05 09:10:00","47806","1.057","293.3","2.287","294.4","1009.327","6.243","69.78","NAN","0.0"],
    [1536051,"2026-01-05 09:20:00","47807","0.8170000000000001","289.6","2.0909999999999997","322.2","1009.3589999999999","6.288","69.61","NAN","0.0"],
    [1536052,"2026-01-05 09:30:00","47808","0.711","326.4","2.287","281.4","1009.4169999999999","6.444","68.43","NAN","0.0"],
    [1536053,"2026-01-05 09:40:00","47809","0.631","343.6","1.8619999999999999","294.6","1009.581","6.401","67.96","NAN","0.0"],
    [1536054,"2026-01-05 09:50:00","47810","1.2590000000000001","344.2","2.94","316.7","1009.795","6.265","66.6","NAN","0.0"],
    [1536055,"2026-01-05 10:00:00","47811","2.0780000000000003","326.3","3.528","296.5","1009.743","6.103","66.32","NAN","0.0"],
    [1536056,"2026-01-05 10:10:00","47812","1.364","340.8","3.071","312.5","1009.732","6.203","65.82","NAN","0.0"],
    [1536057,"2026-01-05 10:20:00","47813","1.256","340.2","3.267","303.4","1009.735","6.334","65.66","NAN","0.0"],
    [1536058,"2026-01-05 10:30:00","47814","1.633","331.4","3.397","325.6","1009.828","6.32","65.33","NAN","0.0"],
    [1536059,"2026-01-05 10:40:00","47815","1.298","325.6","3.005","323.2","1009.828","6.527","64.53","NAN","0.0"],
    [1536060,"2026-01-05 10:50:00","47816","0.516","326.7","1.797","228.4","1009.7330000000001","6.821","64.42","NAN","0.0"],
    [1536061,"2026-01-05 11:00:00","47817","0.97","267.3","2.679","291.2","1009.655","6.814","65.02","NAN","0.0"],
    [1536062,"2026-01-05 11:10:00","47818","0.8809999999999999","247.6","1.96","224.2","1009.6060000000001","6.968","65.1","NAN","0.0"],
    [1536063,"2026-01-05 11:20:00","47819","1.069","240.4","2.0909999999999997","249.1","1009.56","7.089","65.32","NAN","0.0"],
    [1536064,"2026-01-05 11:30:00","47820","1.246","261.0","2.483","259.0","1009.378","6.898","66.22","NAN","0.0"],
    [1536065,"2026-01-05 11:40:00","47821","0.943","273.9","2.6460000000000004","275.3","1009.31","6.953","67.5","NAN","0.0"],
    [1536066,"2026-01-05 11:50:00","47822","0.708","278.6","2.254","238.1","1009.128","7.217","66.66","NAN","0.0"],
    [1536067,"2026-01-05 12:00:00","47823","0.675","318.7","2.156","306.8","1008.955","7.388","65.94","NAN","0.0"],
    [1536068,"2026-01-05 12:10:00","47824","0.245","348.0","1.4369999999999998","296.7","1008.815","7.633","64.65","NAN","0.0"],
    [1536069,"2026-01-05 12:20:00","47825","1.087","283.8","2.679","248.5","1008.735","7.73","64.47","NAN","0.0"],
    [1536070,"2026-01-05 12:30:00","47826","1.6219999999999999","256.5","3.855","243.1","1008.5010000000001","7.744","64.76","NAN","0.0"],
    [1536071,"2026-01-05 12:40:00","47827","1.861","261.5","4.312","251.4","1008.4110000000001","7.584","64.67","NAN","0.0"],
    [1536072,"2026-01-05 12:50:00","47828","2.0180000000000002","261.1","4.1160000000000005","288.3","1008.307","7.307","65.68","NAN","0.0"],
    [1536073,"2026-01-05 13:00:00","47829","2.055","259.5","3.92","263.4","1008.299","7.067","66.72","NAN","0.0"],
    [1536074,"2026-01-05 13:10:00","47830","2.003","259.4","4.083","293.3","1008.3660000000001","6.953","66.89","NAN","0.0"],
    [1536075,"2026-01-05 13:20:00","47831","1.044","264.7","2.8089999999999997","246.0","1008.321","7.025","66.89","NAN","0.0"],
    [1536076,"2026-01-05 13:30:00","47832","0.8","269.2","2.385","257.9","1008.299","7.335","65.4","NAN","0.0"],
    [1536077,"2026-01-05 13:40:00","47833","1.4569999999999999","255.2","3.7889999999999997","245.8","1008.102","7.163","64.85","NAN","0.0"],
    [1536078,"2026-01-05 13:50:00","47834","1.3430000000000002","253.4","3.005","252.8","1008.2489999999999","7.177","64.59","NAN","0.0"],
    [1536079,"2026-01-05 14:00:00","47835","2.008","256.0","4.1160000000000005","271.1","1008.477","6.971","64.59","NAN","0.0"],
    [1536080,"2026-01-05 14:10:00","47836","1.6369999999999998","256.2","3.365","227.0","1008.6210000000001","6.599","65.95","NAN","0.0"],
    [1536081,"2026-01-05 14:20:00","47837","1.745","263.1","4.149","232.7","1008.691","6.387","66.44","NAN","0.0"],
    [1536082,"2026-01-05 14:30:00","47838","1.851","261.5","3.6910000000000003","248.3","1008.7869999999999","6.333","66.64","NAN","0.0"],
    [1536083,"2026-01-05 14:40:00","47839","1.1340000000000001","255.0","2.7439999999999998","240.7","1008.725","6.446","65.96","NAN","0.0"],
    [1536084,"2026-01-05 14:50:00","47840","1.493","273.4","3.234","283.3","1008.798","6.617","64.95","NAN","0.0"],
    [1536085,"2026-01-05 15:00:00","47841","1.1420000000000001","304.5","2.7769999999999997","281.4","1008.76","6.881","63.64","NAN","0.0"],
    [1536086,"2026-01-05 15:10:00","47842","1.186","306.3","3.43","310.6","1008.753","7.266","61.98","NAN","0.0"],
    [1536087,"2026-01-05 15:20:00","47843","1.206","318.7","2.842","314.6","1008.8480000000001","7.469","60.98","NAN","0.0"],
    [1536088,"2026-01-05 15:30:00","47844","0.8190000000000001","288.0","2.515","284.4","1008.8430000000001","7.476","61.23","NAN","0.0"],
    [1536089,"2026-01-05 15:40:00","47845","1.411","268.2","3.103","303.3","1008.85","7.256","62.67","NAN","0.0"],
    [1536090,"2026-01-05 15:50:00","47846","1.268","264.8","3.136","271.4","1008.855","6.952","63.67","NAN","0.0"],
    [1536091,"2026-01-05 16:00:00","47847","1.018","273.4","2.842","278.5","1008.895","6.828","64.04","NAN","0.0"],
    [1536092,"2026-01-05 16:10:00","47848","1.114","264.2","4.149","290.3","1008.928","6.784","63.85","NAN","0.0"],
    [1536093,"2026-01-05 16:20:00","47849","1.391","268.0","3.495","265.1","1008.8839999999999","6.68","64.04","NAN","0.0"],
    [1536094,"2026-01-05 16:30:00","47850","1.545","265.1","3.136","259.8","1008.8960000000001","6.475","64.51","NAN","0.0"],
    [1536095,"2026-01-05 16:40:00","47851","0.9329999999999999","274.8","2.613","231.2","1008.933","6.479","64.58","NAN","0.0"],
    [1536096,"2026-01-05 16:50:00","47852","1.41","256.7","2.7769999999999997","237.0","1008.8960000000001","6.498","64.15","NAN","0.0"],
    [1536097,"2026-01-05 17:00:00","47853","1.374","262.3","3.071","293.4","1008.909","6.393","64.38","NAN","0.0"],
    [1536098,"2026-01-05 17:10:00","47854","1.3619999999999999","260.6","3.1689999999999996","237.7","1008.9860000000001","6.4","64.38","NAN","0.0"],
    [1536099,"2026-01-05 17:20:00","47855","1.4069999999999998","265.1","2.907","257.1","1008.993","6.395","63.9","NAN","0.0"],
    [1536100,"2026-01-05 17:30:00","47856","1.46","264.2","3.397","237.2","1008.9680000000001","6.386","63.76","NAN","0.0"],
    [1536101,"2026-01-05 17:40:00","47857","0.856","259.2","2.7110000000000003","237.5","1008.923","6.461","63.27","NAN","0.0"],
    [1536102,"2026-01-05 17:50:00","47858","1.25","251.9","2.8089999999999997","263.6","1008.921","6.56","62.45","NAN","0.0"],
    [1536103,"2026-01-05 18:00:00","47859","1.222","262.9","2.9730000000000003","252.0","1008.8910000000001","6.574","61.84","NAN","0.0"],
    [1536104,"2026-01-05 18:10:00","47860","1.053","262.5","2.548","244.2","1008.8610000000001","6.553","61.89","NAN","0.0"],
    [1536105,"2026-01-05 18:20:00","47861","0.895","260.1","1.993","238.3","1008.8639999999999","6.64","61.94","NAN","0.0"],
    [1536106,"2026-01-05 18:30:00","47862","0.71","312.2","1.9269999999999998","313.3","1009.01","6.768","61.28","NAN","0.0"],
    [1536107,"2026-01-05 18:40:00","47863","0.8220000000000001","305.2","2.7769999999999997","286.9","1009.0930000000001","6.972","59.18","NAN","0.0"],
    [1536108,"2026-01-05 18:50:00","47864","0.843","328.8","2.123","312.9","1009.263","7.036","58.52","NAN","0.0"],
    [1536109,"2026-01-05 19:00:00","47865","1.692","337.1","4.475","308.6","1009.377","6.78","58.7","NAN","0.0"],
    [1536110,"2026-01-05 19:10:00","47866","1.726","329.0","3.397","300.5","1009.4810000000001","6.611","59.39","NAN","0.0"],
    [1536111,"2026-01-05 19:20:00","47867","1.256","325.6","3.234","324.4","1009.4839999999999","6.777","58.53","NAN","0.0"],
    [1536112,"2026-01-05 19:30:00","47868","0.25","323.1","1.274","2.421","1009.497","6.997","57.93","NAN","0.0"],
    [1536113,"2026-01-05 19:40:00","47869","0.613","297.3","3.201","309.1","1009.5989999999999","7.124","57.15","NAN","0.0"],
    [1536114,"2026-01-05 19:50:00","47870","1.181","309.1","2.9730000000000003","310.2","1009.6060000000001","7.249","55.48","NAN","0.0"],
    [1536115,"2026-01-05 20:00:00","47871","1.358","300.3","3.136","343.0","1009.6060000000001","7.32","54.78","NAN","0.0"],
    [1536116,"2026-01-05 20:10:00","47872","0.546","248.8","1.764","309.1","1009.7260000000001","7.246","56.2","NAN","0.0"],
    [1536117,"2026-01-05 20:20:00","47873","0.675","236.9","2.221","225.7","1009.648","7.009","57.62","NAN","0.0"],
    [1536118,"2026-01-05 20:30:00","47874","1.071","264.0","2.385","223.4","1009.6039999999999","6.862","57.93","NAN","0.0"],
    [1536119,"2026-01-05 20:40:00","47875","0.7040000000000001","276.1","2.189","294.4","1009.5830000000001","6.846","57.82","NAN","0.0"],
    [1536120,"2026-01-05 20:50:00","47876","0.612","294.9","1.993","325.0","1009.4889999999999","6.951","57.66","NAN","0.0"],
    [1536121,"2026-01-05 21:00:00","47877","1.525","336.4","3.528","316.5","1009.4860000000001","7.112","55.25","NAN","0.0"],
    [1536122,"2026-01-05 21:10:00","47878","1.095","339.9","3.365","308.2","1009.4939999999999","6.882","56.53","NAN","0.0"],
    [1536123,"2026-01-05 21:20:00","47879","0.971","334.6","2.025","303.3","1009.574","6.879","56.72","NAN","0.0"],
    [1536124,"2026-01-05 21:30:00","47880","0.6","306.4","2.5810000000000004","278.5","1009.6110000000001","7.036","56.79","NAN","0.0"],
    [1536125,"2026-01-05 21:40:00","47881","0.807","274.9","1.96","302.5","1009.5989999999999","7.099","57.54","NAN","0.0"],
    [1536126,"2026-01-05 21:50:00","47882","0.97","267.1","2.254","268.6","1009.6080000000001","7.009","57.9","NAN","0.0"],
    [1536127,"2026-01-05 22:00:00","47883","0.813","257.0","2.352","240.1","1009.7289999999999","6.845","58.56","NAN","0.0"],
    [1536128,"2026-01-05 22:10:00","47884","1.001","269.0","2.0909999999999997","277.6","1009.76","6.826","58.12","NAN","0.0"],
    [1536129,"2026-01-05 22:20:00","47885","0.515","285.7","1.829","309.4","1009.768","6.838","58.46","NAN","0.0"],
    [1536130,"2026-01-05 22:30:00","47886","0.715","305.6","2.8089999999999997","316.9","1009.806","7.031","57.01","NAN","0.0"],
    [1536131,"2026-01-05 22:40:00","47887","0.927","241.6","2.907","238.1","1009.86","7.05","56.98","NAN","0.0"],
    [1536132,"2026-01-05 22:50:00","47888","1.3659999999999999","245.6","2.875","260.8","1009.97","6.518","58.54","NAN","0.0"],
    [1536133,"2026-01-05 23:00:00","47889","1.5390000000000001","267.4","3.365","292.6","1009.997","6.437","58.64","NAN","0.0"],
    [1536134,"2026-01-05 23:10:00","47890","1.124","251.8","2.907","244.3","1010.1289999999999","6.405","59.19","NAN","0.0"],
    [1536135,"2026-01-05 23:20:00","47891","0.8690000000000001","251.1","2.319","243.1","1010.1460000000001","6.269","60.08","NAN","0.0"],
    [1536136,"2026-01-05 23:30:00","47892","0.965","234.2","2.385","240.8","1010.1239999999999","6.178","60.55","NAN","0.0"],
    [1536137,"2026-01-05 23:40:00","47893","0.746","240.4","2.156","238.5","1010.062","6.071","61.14","NAN","0.0"],
    [1536138,"2026-01-05 23:50:00","47894","0.6890000000000001","276.8","1.5030000000000001","250.5","1009.94","6.124","61.24","NAN","0.0"],
    [1536139,"2026-01-06 00:00:00","47895","0.569","227.2","1.405","153.5","1009.8330000000001","6.245","61.17","NAN","0.0"],
    [1536140,"2026-01-06 00:10:00","47896","0.354","205.3","1.3719999999999999","286.9","1009.7180000000001","6.338","61.2","NAN","0.0"],
    [1536141,"2026-01-06 00:20:00","47897","0.836","9.77","2.45","7.497999999999999","1009.6060000000001","6.587","59.45","NAN","0.0"],
    [1536142,"2026-01-06 00:30:00","47898","0.858","336.5","2.0909999999999997","18.63","1009.568","6.56","57.94","NAN","0.0"],
    [1536143,"2026-01-06 00:40:00","47899","1.369","322.5","4.345","296.3","1009.6010000000001","6.272","58.77","NAN","0.0"],
    [1536144,"2026-01-06 00:50:00","47900","1.002","248.6","2.94","248.8","1009.701","5.998","60.22","NAN","0.0"],
    [1536145,"2026-01-06 01:00:00","47901","1.6769999999999998","241.5","3.365","238.9","1009.7360000000001","5.354","63.4","NAN","0.0"],
    [1536146,"2026-01-06 01:10:00","47902","1.402","241.7","3.071","260.3","1009.815","5.172","64.93","NAN","0.0"],
    [1536147,"2026-01-06 01:20:00","47903","0.9309999999999999","244.3","2.45","240.3","1009.8580000000001","5.071","65.4","NAN","0.0"],
    [1536148,"2026-01-06 01:30:00","47904","0.875","283.3","2.352","267.9","1009.78","5.266","64.54","NAN","0.0"],
    [1536149,"2026-01-06 01:40:00","47905","1.078","278.4","2.907","255.3","1009.738","5.463","63.15","NAN","0.0"],
    [1536150,"2026-01-06 01:50:00","47906","1.1740000000000002","296.9","2.9730000000000003","318.8","1009.7510000000001","5.272","64.37","NAN","0.0"],
    [1536151,"2026-01-06 02:00:00","47907","1.099","273.7","2.613","245.5","1009.885","5.193","65.08","NAN","0.0"],
    [1536152,"2026-01-06 02:10:00","47908","1.034","268.0","2.123","271.6","1010.02","4.872","66.44","NAN","0.0"],
    [1536153,"2026-01-06 02:20:00","47909","1.297","266.8","2.7439999999999998","257.2","1010.077","4.611","67.54","NAN","0.0"],
    [1536154,"2026-01-06 02:30:00","47910","1.112","263.3","2.319","246.8","1010.107","4.431","68.12","NAN","0.0"],
    [1536155,"2026-01-06 02:40:00","47911","1.198","263.1","3.136","280.9","1010.107","4.406","68.34","NAN","0.0"],
    [1536156,"2026-01-06 02:50:00","47912","1.2009999999999998","263.5","3.071","245.0","1010.049","4.42","68.11","NAN","0.0"],
    [1536157,"2026-01-06 03:00:00","47913","1.284","257.8","3.267","257.3","1009.941","4.241","67.94","NAN","0.0"],
    [1536158,"2026-01-06 03:10:00","47914","1.18","239.1","2.254","240.9","1009.8439999999999","4.106","68.37","NAN","0.0"],
    [1536159,"2026-01-06 03:20:00","47915","1.4469999999999998","242.3","2.94","241.0","1009.794","3.988","68.31","NAN","0.0"],
    [1536160,"2026-01-06 03:30:00","47916","1.2819999999999998","266.7","3.528","254.3","1009.768","3.963","67.87","NAN","0.0"],
    [1536161,"2026-01-06 03:40:00","47917","1.432","264.4","3.071","266.7","1009.683","3.828","67.86","NAN","0.0"],
    [1536162,"2026-01-06 03:50:00","47918","1.5430000000000001","240.2","2.7439999999999998","237.8","1009.7180000000001","3.847","66.67","NAN","0.0"],
    [1536163,"2026-01-06 04:00:00","47919","1.255","239.1","2.875","231.9","1009.797","3.733","65.25","NAN","0.0"],
    [1536164,"2026-01-06 04:10:00","47920","1.3","253.2","2.907","265.0","1009.675","3.613","64.54","NAN","0.0"],
    [1536165,"2026-01-06 04:20:00","47921","1.2229999999999999","259.8","2.875","269.3","1009.679","3.698","63.58","NAN","0.0"],
    [1536166,"2026-01-06 04:30:00","47922","0.556","310.0","1.666","310.8","1009.61","3.705","63.37","NAN","0.0"],
    [1536167,"2026-01-06 04:40:00","47923","0.588","308.0","1.993","10.14","1009.735","3.974","61.82","NAN","0.0"],
    [1536168,"2026-01-06 04:50:00","47924","0.833","312.0","1.699","344.6","1009.668","4.13","59.71","NAN","0.0"],
    [1536169,"2026-01-06 05:00:00","47925","0.851","266.7","1.993","307.6","1009.67","4.128","59.71","NAN","0.0"],
    [1536170,"2026-01-06 05:10:00","47926","0.40700000000000003","234.7","1.47","236.2","1009.554","3.751","61.82","NAN","0.0"],
    [1536171,"2026-01-06 05:20:00","47927","0.9490000000000001","229.7","1.96","239.6","1009.568","3.604","61.54","NAN","0.0"],
    [1536172,"2026-01-06 05:30:00","47928","0.544","230.4","1.274","218.0","1009.668","3.578","61.06","NAN","0.0"],
    [1536173,"2026-01-06 05:40:00","47929","0.33899999999999997","223.2","1.339","258.1","1009.68","3.4","62.27","NAN","0.0"],
    [1536174,"2026-01-06 05:50:00","47930","0.289","234.0","0.98","242.4","1009.632","3.279","62.5","NAN","0.0"],
    [1536175,"2026-01-06 06:00:00","47931","0.344","176.2","0.784","216.6","1009.6089999999999","3.307","62.4","NAN","0.0"],
    [1536176,"2026-01-06 06:10:00","47932","0.41100000000000003","114.3","0.9470000000000001","92.2","1009.715","3.338","63.73","NAN","0.0"],
    [1536177,"2026-01-06 06:20:00","47933","0.401","189.2","1.078","202.8","1009.895","3.402","62.57","NAN","0.0"],
    [1536178,"2026-01-06 06:30:00","47934","0.159","200.8","0.8490000000000001","205.1","1009.997","3.368","61.91","NAN","0.0"],
    [1536179,"2026-01-06 06:40:00","47935","0.419","298.0","1.568","335.0","1010.055","3.484","60.03","NAN","0.0"],
    [1536180,"2026-01-06 06:50:00","47936","0.375","169.0","1.143","161.2","1010.192","3.602","59.52","NAN","0.0"],
    [1536181,"2026-01-06 07:00:00","47937","0.256","230.5","0.98","249.2","1010.4119999999999","3.307","60.06","NAN","0.0"],
    [1536182,"2026-01-06 07:10:00","47938","0.075","155.9","0.523","104.3","1010.5169999999999","3.443","58.69","NAN","0.0"],
    [1536183,"2026-01-06 07:20:00","47939","0.294","171.2","0.653","149.2","1010.615","3.399","60.71","NAN","0.0"],
    [1536184,"2026-01-06 07:30:00","47940","0.325","285.3","1.2409999999999999","323.6","1010.635","3.366","60.49","NAN","0.0"],
    [1536185,"2026-01-06 07:40:00","47941","0.092","308.3","0.8170000000000001","303.0","1010.625","3.625","57.36","NAN","0.0"],
    [1536186,"2026-01-06 07:50:00","47942","0.006","208.8","0.22899999999999998","208.5","1010.703","3.803","57.06","NAN","0.0"],
    [1536187,"2026-01-06 08:00:00","47943","0.105","287.4","0.882","274.2","1010.7230000000001","3.806","56.68","NAN","0.0"],
    [1536188,"2026-01-06 08:10:00","47944","0.257","257.9","1.078","257.6","1010.7669999999999","4.217","55.64","NAN","0.0"],
    [1536189,"2026-01-06 08:20:00","47945","0.585","358.9","1.699","293.0","1010.926","4.717","50.47","NAN","0.0"],
    [1536190,"2026-01-06 08:30:00","47946","0.674","358.0","2.7769999999999997","302.2","1011.063","5.11","48.33","NAN","0.0"],
    [1536191,"2026-01-06 08:40:00","47947","0.991","358.4","2.5810000000000004","316.8","1011.2560000000001","5.202","48.05","NAN","0.0"],
    [1536192,"2026-01-06 08:50:00","47948","0.9259999999999999","339.2","2.7110000000000003","308.0","1011.321","5.477","46.89","NAN","0.0"],
    [1536193,"2026-01-06 09:00:00","47949","0.9390000000000001","301.3","2.025","318.3","1011.404","5.994","44.95","NAN","0.0"],
    [1536194,"2026-01-06 09:10:00","47950","0.526","251.6","1.111","283.9","1011.6","6.394","45.72","NAN","0.0"],
    [1536195,"2026-01-06 09:20:00","47951","0.444","264.7","1.797","33.29","1011.7689999999999","7.307","44.9","NAN","0.0"],
    [1536196,"2026-01-06 09:30:00","47952","0.9009999999999999","323.5","2.123","311.5","1011.8689999999999","7.25","40.79","NAN","0.0"],
    [1536197,"2026-01-06 09:40:00","47953","0.915","354.0","3.43","312.4","1011.9810000000001","7.401","39.26","NAN","0.0"],
    [1536198,"2026-01-06 09:50:00","47954","0.366","296.5","1.078","301.2","1012.052","7.884","39.46","NAN","0.0"],
    [1536199,"2026-01-06 10:00:00","47955","0.478","309.1","2.0580000000000003","291.9","1012.1360000000001","8.65","39.55","NAN","0.0"],
    [1536200,"2026-01-06 10:10:00","47956","1.3430000000000002","315.9","3.5610000000000004","324.8","1012.237","8.17","36","NAN","0.0"],
    [1536201,"2026-01-06 10:20:00","47957","1.429","326.8","4.018","297.3","1012.2660000000001","8.28","34.49","NAN","0.0"],
    [1536202,"2026-01-06 10:30:00","47958","0.889","269.1","2.319","219.9","1012.235","8.81","35.53","NAN","0.0"],
    [1536203,"2026-01-06 10:40:00","47959","1.496","238.3","2.9730000000000003","240.7","1012.2189999999999","8.74","38.82","NAN","0.0"],
    [1536204,"2026-01-06 10:50:00","47960","1.3969999999999998","235.0","2.7110000000000003","226.1","1012.21","8.71","39.84","NAN","0.0"],
    [1536205,"2026-01-06 11:00:00","47961","1.339","254.8","2.875","237.8","1012.212","8.79","38.89","NAN","0.0"],
    [1536206,"2026-01-06 11:10:00","47962","1.272","260.3","2.679","260.6","1012.21","9.19","37.51","NAN","0.0"],
    [1536207,"2026-01-06 11:20:00","47963","1.038","304.4","2.287","266.0","1012.14","9.54","35.83","NAN","0.0"],
    [1536208,"2026-01-06 11:30:00","47964","0.736","1.474","2.287","32.78","1012.033","9.9","33.06","NAN","0.0"],
    [1536209,"2026-01-06 11:40:00","47965","0.861","10.87","1.993","3.155","1011.961","9.92","31.72","NAN","0.0"],
    [1536210,"2026-01-06 11:50:00","47966","0.616","10.92","2.025","44.64","1011.923","10.36","30.45","NAN","0.0"],
    [1536211,"2026-01-06 12:00:00","47967","1.074","318.0","2.483","292.4","1011.7710000000001","9.93","31.28","NAN","0.0"],
    [1536212,"2026-01-06 12:10:00","47968","0.9440000000000001","240.0","2.5810000000000004","224.4","1011.707","10.16","32.9","NAN","0.0"],
    [1536213,"2026-01-06 12:20:00","47969","1.034","267.2","2.5810000000000004","246.5","1011.597","10.23","33.11","NAN","0.0"],
    [1536214,"2026-01-06 12:30:00","47970","1.15","242.6","3.201","235.7","1011.587","10.22","33.72","NAN","0.0"],
    [1536215,"2026-01-06 12:40:00","47971","1.7590000000000001","239.9","3.103","233.0","1011.555","10.01","33","NAN","0.0"],
    [1536216,"2026-01-06 12:50:00","47972","1.5090000000000001","244.4","3.0380000000000003","235.2","1011.398","9.98","32.87","NAN","0.0"],
    [1536217,"2026-01-06 13:00:00","47973","1.712","238.4","3.5610000000000004","243.2","1011.316","10.26","31.2","NAN","0.0"],
    [1536218,"2026-01-06 13:10:00","47974","1.621","235.6","3.659","229.5","1011.2360000000001","10.36","29.71","NAN","0.0"],
    [1536219,"2026-01-06 13:20:00","47975","1.119","233.5","2.156","223.7","1011.2139999999999","10.57","29.54","NAN","0.0"],
    [1536220,"2026-01-06 13:30:00","47976","1.187","233.0","2.548","254.7","1011.2139999999999","10.51","29.72","NAN","0.0"],
    [1536221,"2026-01-06 13:40:00","47977","1.307","245.0","2.9730000000000003","237.2","1011.2189999999999","10.22","29.94","NAN","0.0"],
    [1536222,"2026-01-06 13:50:00","47978","1.218","241.9","2.515","247.6","1011.299","10.55","29.78","NAN","0.0"],
    [1536223,"2026-01-06 14:00:00","47979","1.4069999999999998","246.1","2.45","242.8","1011.341","10.27","32.37","NAN","0.0"],
    [1536224,"2026-01-06 14:10:00","47980","1.496","275.3","3.299","302.7","1011.3530000000001","10.09","34.01","NAN","0.0"],
    [1536225,"2026-01-06 14:20:00","47981","1.63","238.7","4.279","235.1","1011.4580000000001","10.1","34.77","NAN","0.0"],
    [1536226,"2026-01-06 14:30:00","47982","1.527","278.7","3.659","291.0","1011.59","9.88","35.6","NAN","0.0"],
    [1536227,"2026-01-06 14:40:00","47983","1.1","276.0","2.385","288.7","1011.592","9.79","38.15","NAN","0.0"],
    [1536228,"2026-01-06 14:50:00","47984","1.473","261.4","3.822","241.1","1011.635","9.48","41.63","NAN","0.0"],
    [1536229,"2026-01-06 15:00:00","47985","1.827","263.1","3.6910000000000003","253.5","1011.709","9.18","43.09","NAN","0.0"],
    [1536230,"2026-01-06 15:10:00","47986","1.574","265.1","3.855","238.0","1011.717","9.05","44.81","NAN","0.0"],
    [1536231,"2026-01-06 15:20:00","47987","1.5","264.7","3.463","256.9","1011.78","8.79","45.58","NAN","0.0"],
    [1536232,"2026-01-06 15:30:00","47988","1.7619999999999998","259.7","3.887","254.3","1011.8389999999999","8.67","46.41","NAN","0.0"],
    [1536233,"2026-01-06 15:40:00","47989","1.499","262.0","4.2139999999999995","256.5","1011.942","8.53","46.1","NAN","0.0"],
    [1536234,"2026-01-06 15:50:00","47990","1.274","266.2","4.083","253.1","1012.028","8.46","46.34","NAN","0.0"],
    [1536235,"2026-01-06 16:00:00","47991","1.724","258.7","4.051","271.8","1012.063","8.39","46.6","NAN","0.0"],
    [1536236,"2026-01-06 16:10:00","47992","1.53","263.7","4.181","289.8","1012.1410000000001","8.08","47.75","NAN","0.0"],
    [1536237,"2026-01-06 16:20:00","47993","1.5330000000000001","270.9","3.7239999999999998","283.1","1012.2610000000001","7.846","48.74","NAN","0.0"],
    [1536238,"2026-01-06 16:30:00","47994","1.631","268.7","4.573","250.2","1012.36","7.76","48.49","NAN","0.0"],
    [1536239,"2026-01-06 16:40:00","47995","1.465","265.6","3.43","253.3","1012.513","7.58","48.6","NAN","0.0"],
    [1536240,"2026-01-06 16:50:00","47996","1.099","250.6","2.94","298.7","1012.596","7.395","48.6","NAN","0.0"],
    [1536241,"2026-01-06 17:00:00","47997","0.932","237.8","1.764","237.1","1012.6110000000001","7.273","48.5","NAN","0.0"],
    [1536242,"2026-01-06 17:10:00","47998","0.524","240.3","1.666","226.3","1012.748","7.142","48.69","NAN","0.0"],
    [1536243,"2026-01-06 17:20:00","47999","0.9890000000000001","288.6","2.417","288.5","1012.84","7.35","45.32","NAN","0.0"],
    [1536244,"2026-01-06 17:30:00","48000","0.81","237.7","1.764","217.5","1012.855","7.212","46.12","NAN","0.0"],
    [1536245,"2026-01-06 17:40:00","48001","0.946","263.5","3.593","241.7","1012.8919999999999","6.928","47.64","NAN","0.0"],
    [1536246,"2026-01-06 17:50:00","48002","1.462","298.3","3.299","298.0","1012.9680000000001","7.092","44.53","NAN","0.0"],
    [1536247,"2026-01-06 18:00:00","48003","0.98","340.3","2.45","312.0","1013.077","7.219","43.21","NAN","0.0"],
    [1536248,"2026-01-06 18:10:00","48004","1.071","1.825","2.385","16.29","1013.2339999999999","7.349","41.06","NAN","0.0"],
    [1536249,"2026-01-06 18:20:00","48005","1.1540000000000001","69.1","2.287","72.25","1013.3960000000001","7.382","41.49","NAN","0.0"],
    [1536250,"2026-01-06 18:30:00","48006","1.213","76.11","3.332","105.0","1013.635","7.177","42.7","NAN","0.0"],
    [1536251,"2026-01-06 18:40:00","48007","1.248","61.99","2.515","70.98","1013.8589999999999","6.799","44.7","NAN","0.0"],
    [1536252,"2026-01-06 18:50:00","48008","1.2109999999999999","57.14","2.907","73.93","1014.066","6.621","45.62","NAN","0.0"],
    [1536253,"2026-01-06 19:00:00","48009","1.526","52.62","3.6260000000000003","62.09","1014.243","6.348","47.65","NAN","0.0"],
    [1536254,"2026-01-06 19:10:00","48010","1.4480000000000002","62.18","3.201","67.62","1014.425","6.208","48.7","NAN","0.0"],
    [1536255,"2026-01-06 19:20:00","48011","1.4469999999999998","1.004","3.071","1.0590000000000002","1014.569","6.196","48.78","NAN","0.0"],
    [1536256,"2026-01-06 19:30:00","48012","0.96","353.8","2.679","9.43","1014.562","6.238","49.14","NAN","0.0"],
    [1536257,"2026-01-06 19:40:00","48013","1.381","7.55","3.103","18.15","1014.7310000000001","6.293","49.54","NAN","0.0"],
    [1536258,"2026-01-06 19:50:00","48014","1.489","356.1","4.1160000000000005","20.64","1014.9110000000001","6.292","50.2","NAN","0.0"],
    [1536259,"2026-01-06 20:00:00","48015","1.453","1.432","4.377","3.5039999999999996","1015.09","6.288","50.7","NAN","0.0"],
    [1536260,"2026-01-06 20:10:00","48016","1.005","356.7","3.0380000000000003","359.5","1015.09","6.289","50.97","NAN","0.0"],
    [1536261,"2026-01-06 20:20:00","48017","0.614","1.89","2.221","10.08","1015.09","6.31","50.33","NAN","0.0"],
    [1536262,"2026-01-06 20:30:00","48018","0.847","3.577","2.156","334.4","1015.092","6.47","48.25","NAN","0.0"],
    [1536263,"2026-01-06 20:40:00","48019","0.812","354.1","1.764","12.43","1015.115","6.542","46.4","NAN","0.0"],
    [1536264,"2026-01-06 20:50:00","48020","0.6","350.5","1.8619999999999999","293.5","1015.2189999999999","6.544","46.74","NAN","0.0"],
    [1536265,"2026-01-06 21:00:00","48021","0.882","331.3","2.6460000000000004","320.7","1015.334","6.707","46.6","NAN","0.0"],
    [1536266,"2026-01-06 21:10:00","48022","1.1420000000000001","322.2","2.875","313.9","1015.3389999999999","7.137","45.52","NAN","0.0"],
    [1536267,"2026-01-06 21:20:00","48023","0.937","294.1","2.613","303.0","1015.372","7.18","45.27","NAN","0.0"],
    [1536268,"2026-01-06 21:30:00","48024","0.58","259.0","1.7309999999999999","244.5","1015.4639999999999","6.951","46.18","NAN","0.0"],
    [1536269,"2026-01-06 21:40:00","48025","0.6659999999999999","275.4","2.0580000000000003","288.7","1015.5139999999999","6.543","47.94","NAN","0.0"],
    [1536270,"2026-01-06 21:50:00","48026","0.55","236.0","1.535","222.5","1015.5060000000001","6.521","45.73","NAN","0.0"],
    [1536271,"2026-01-06 22:00:00","48027","0.5660000000000001","228.6","1.666","283.1","1015.554","6.374","42.71","NAN","0.0"],
    [1536272,"2026-01-06 22:10:00","48028","0.711","237.9","2.0909999999999997","263.4","1015.5980000000001","6.432","39.56","NAN","0.0"],
    [1536273,"2026-01-06 22:20:00","48029","0.885","302.8","2.548","274.3","1015.633","6.791","33.39","NAN","0.0"],
    [1536274,"2026-01-06 22:30:00","48030","0.5329999999999999","238.0","1.5030000000000001","253.8","1015.745","6.821","31.79","NAN","0.0"],
    [1536275,"2026-01-06 22:40:00","48031","0.943","306.6","2.287","311.0","1015.77","6.889","30.23","NAN","0.0"],
    [1536276,"2026-01-06 22:50:00","48032","0.552","331.4","2.417","304.6","1015.82","6.901","28.33","NAN","0.0"],
    [1536277,"2026-01-06 23:00:00","48033","1.395","333.4","4.247","308.3","1015.837","7.021","26.6","NAN","0.0"],
    [1536278,"2026-01-06 23:10:00","48034","1.976","323.1","4.867","328.0","1015.847","7.073","27.29","NAN","0.0"],
    [1536279,"2026-01-06 23:20:00","48035","1.51","315.5","4.769","299.9","1015.867","7.037","28.5","NAN","0.0"],
    [1536280,"2026-01-06 23:30:00","48036","1.1840000000000002","309.0","2.9730000000000003","298.1","1015.7180000000001","6.913","29.72","NAN","0.0"],
    [1536281,"2026-01-06 23:40:00","48037","0.809","303.3","4.083","308.6","1015.715","6.751","31.14","NAN","0.0"],
    [1536282,"2026-01-06 23:50:00","48038","1.173","316.2","3.887","328.0","1015.648","6.913","31.61","NAN","0.0"],
    [1536283,"2026-01-07 00:00:00","48039","1.075","275.0","3.103","307.6","1015.5880000000001","6.775","33.2","NAN","0.0"],
    [1536284,"2026-01-07 00:10:00","48040","1.139","313.8","3.005","330.0","1015.5880000000001","6.58","34.52","NAN","0.0"],
    [1536285,"2026-01-07 00:20:00","48041","0.9129999999999999","283.0","2.0909999999999997","269.0","1015.5880000000001","6.427","35.31","NAN","0.0"],
    [1536286,"2026-01-07 00:30:00","48042","1.01","273.9","2.123","247.9","1015.493","5.995","40.71","NAN","0.0"],
    [1536287,"2026-01-07 00:40:00","48043","0.996","271.4","2.5810000000000004","287.8","1015.466","5.542","45.95","NAN","0.0"],
    [1536288,"2026-01-07 00:50:00","48044","1.0590000000000002","283.1","2.515","279.3","1015.4989999999999","5.336","47.21","NAN","0.0"],
    [1536289,"2026-01-07 01:00:00","48045","0.898","274.7","2.221","259.8","1015.658","5.308","46.95","NAN","0.0"],
    [1536290,"2026-01-07 01:10:00","48046","0.8540000000000001","248.5","1.993","231.9","1015.658","5.022","47.86","NAN","0.0"],
    [1536291,"2026-01-07 01:20:00","48047","1.3","257.4","3.887","280.6","1015.579","4.779","48.66","NAN","0.0"],
    [1536292,"2026-01-07 01:30:00","48048","0.8320000000000001","238.6","3.234","296.7","1015.586","4.777","48.21","NAN","0.0"],
    [1536293,"2026-01-07 01:40:00","48049","1.781","263.0","4.279","310.2","1015.663","4.713","47.33","NAN","0.0"],
    [1536294,"2026-01-07 01:50:00","48050","1.781","259.6","3.887","256.9","1015.783","4.398","49.58","NAN","0.0"],
    [1536295,"2026-01-07 02:00:00","48051","1.963","267.8","4.475","293.0","1015.773","4.243","48.99","NAN","0.0"],
    [1536296,"2026-01-07 02:10:00","48052","1.48","287.0","4.377","283.1","1015.7560000000001","4.401","46.98","NAN","0.0"],
    [1536297,"2026-01-07 02:20:00","48053","2.3","330.8","4.737","299.3","1015.948","4.498","45.11","NAN","0.0"],
    [1536298,"2026-01-07 02:30:00","48054","1.399","321.4","3.6260000000000003","322.7","1015.882","4.147","47.63","NAN","0.0"],
    [1536299,"2026-01-07 02:40:00","48055","2.065","323.3","5.129","310.7","1015.823","3.975","49.03","NAN","0.0"],
    [1536300,"2026-01-07 02:50:00","48056","1.8730000000000002","301.3","4.41","332.1","1015.82","4.064","47.48","NAN","0.0"],
    [1536301,"2026-01-07 03:00:00","48057","1.69","284.1","4.1160000000000005","271.9","1015.855","3.727","50.26","NAN","0.0"],
    [1536302,"2026-01-07 03:10:00","48058","1.345","299.2","4.737","280.2","1015.895","3.476","51.37","NAN","0.0"],
    [1536303,"2026-01-07 03:20:00","48059","1.901","295.7","4.4430000000000005","320.9","1015.903","3.382","51.43","NAN","0.0"],
    [1536304,"2026-01-07 03:30:00","48060","1.0290000000000001","330.3","3.0380000000000003","342.1","1015.975","3.527","49.33","NAN","0.0"],
    [1536305,"2026-01-07 03:40:00","48061","1.614","345.2","4.345","300.0","1016.137","3.614","48.1","NAN","0.0"],
    [1536306,"2026-01-07 03:50:00","48062","1.6369999999999998","11.28","4.083","22.19","1016.232","3.513","48.74","NAN","0.0"],
    [1536307,"2026-01-07 04:00:00","48063","1.271","44.22","2.94","59.81","1016.257","3.28","49.6","NAN","0.0"],
    [1536308,"2026-01-07 04:10:00","48064","1.736","68.86","3.593","68.35","1016.378","3.162","50.31","NAN","0.0"],
    [1536309,"2026-01-07 04:20:00","48065","1.355","64.77","3.528","79.55","1016.41","3.009","51","NAN","0.0"],
    [1536310,"2026-01-07 04:30:00","48066","1.6669999999999998","60.03","4.377","45.62","1016.562","2.856","51.35","NAN","0.0"],
    [1536311,"2026-01-07 04:40:00","48067","1.157","76.7","2.319","59.97","1016.5319999999999","2.861","51.25","NAN","0.0"],
    [1536312,"2026-01-07 04:50:00","48068","1.5090000000000001","69.65","3.136","75.86","1016.454","2.734","52.5","NAN","0.0"],
    [1536313,"2026-01-07 05:00:00","48069","0.982","20.38","3.267","304.5","1016.426","2.533","52.74","NAN","0.0"],
    [1536314,"2026-01-07 05:10:00","48070","1.5190000000000001","346.6","3.92","301.9","1016.413","3.056","50.1","NAN","0.0"],
    [1536315,"2026-01-07 05:20:00","48071","0.971","14.74","2.483","28.33","1016.4580000000001","3.042","50.6","NAN","0.0"],
    [1536316,"2026-01-07 05:30:00","48072","1.064","337.4","2.6460000000000004","283.9","1016.503","2.957","51.58","NAN","0.0"],
    [1536317,"2026-01-07 05:40:00","48073","2.392","333.3","6.37","309.2","1016.4960000000001","2.935","52.14","NAN","0.0"],
    [1536318,"2026-01-07 05:50:00","48074","2.7110000000000003","328.3","5.651","299.3","1016.498","3.151","50.97","NAN","0.0"],
    [1536319,"2026-01-07 06:00:00","48075","2.05","331.8","4.704","309.4","1016.668","3.323","49.62","NAN","0.0"],
    [1536320,"2026-01-07 06:10:00","48076","2.372","322.8","6.337000000000001","304.9","1016.943","3.54","48.13","NAN","0.0"],
    [1536321,"2026-01-07 06:20:00","48077","2.03","315.6","4.312","337.3","1017.023","3.442","49.18","NAN","0.0"],
    [1536322,"2026-01-07 06:30:00","48078","1.548","326.4","3.7889999999999997","319.4","1017.097","3.316","50.3","NAN","0.0"],
    [1536323,"2026-01-07 06:40:00","48079","2.13","308.7","5.782","306.2","1017.067","3.362","50.22","NAN","0.0"],
    [1536324,"2026-01-07 06:50:00","48080","2.6010000000000004","327.0","5.292000000000001","301.9","1017.0039999999999","3.521","48.95","NAN","0.0"],
    [1536325,"2026-01-07 07:00:00","48081","3.4010000000000002","328.5","6.664","315.5","1016.941","3.676","47.66","NAN","0.0"],
    [1536326,"2026-01-07 07:10:00","48082","2.5660000000000003","334.6","6.468","322.2","1016.9910000000001","3.76","47.07","NAN","0.0"],
    [1536327,"2026-01-07 07:20:00","48083","1.715","346.2","4.606","314.4","1017.1519999999999","3.813","46.52","NAN","0.0"],
    [1536328,"2026-01-07 07:30:00","48084","1.124","358.2","4.4430000000000005","316.6","1017.169","3.858","45.97","NAN","0.0"],
    [1536329,"2026-01-07 07:40:00","48085","0.34600000000000003","64.6","1.764","67.52","1017.301","3.386","48.85","NAN","0.0"],
    [1536330,"2026-01-07 07:50:00","48086","0.629","49.37","3.1689999999999996","311.4","1017.4060000000001","3.348","48.98","NAN","0.0"],
    [1536331,"2026-01-07 08:00:00","48087","1.453","343.0","3.201","352.6","1017.54","3.913","46.01","NAN","0.0"],
    [1536332,"2026-01-07 08:10:00","48088","1.274","351.2","3.365","321.1","1017.732","4.126","45.37","NAN","0.0"],
    [1536333,"2026-01-07 08:20:00","48089","0.9440000000000001","2.725","2.483","315.9","1017.824","4.279","44.5","NAN","0.0"],
    [1536334,"2026-01-07 08:30:00","48090","0.425","319.2","1.5030000000000001","48.03","1017.8989999999999","4.596","43","NAN","0.0"],
    [1536335,"2026-01-07 08:40:00","48091","0.804","323.6","1.9269999999999998","341.4","1017.9019999999999","4.983","40.27","NAN","0.0"],
    [1536336,"2026-01-07 08:50:00","48092","1.8459999999999999","335.8","3.5610000000000004","323.9","1017.857","4.944","38.95","NAN","0.0"],
    [1536337,"2026-01-07 09:00:00","48093","1.666","331.4","3.887","319.7","1017.926","5.13","38.64","NAN","0.0"],
    [1536338,"2026-01-07 09:10:00","48094","1.55","358.2","3.1689999999999996","33.97","1018.118","5.284","37.97","NAN","0.0"],
    [1536339,"2026-01-07 09:20:00","48095","1.94","346.9","4.279","319.8","1018.192","5.434","36.93","NAN","0.0"],
    [1536340,"2026-01-07 09:30:00","48096","1.422","348.4","3.5610000000000004","333.7","1018.2869999999999","5.522","37.12","NAN","0.0"],
    [1536341,"2026-01-07 09:40:00","48097","1.08","355.3","3.5610000000000004","338.7","1018.332","5.944","35.97","NAN","0.0"],
    [1536342,"2026-01-07 09:50:00","48098","1.7890000000000001","334.6","4.181","310.6","1018.441","6.055","34.43","NAN","0.0"],
    [1536343,"2026-01-07 10:00:00","48099","1.018","350.3","2.7439999999999998","350.4","1018.623","6.544","33.87","NAN","0.0"],
    [1536344,"2026-01-07 10:10:00","48100","1.2009999999999998","359.5","2.9730000000000003","329.2","1018.56","6.713","33.31","NAN","0.0"],
    [1536345,"2026-01-07 10:20:00","48101","1.338","346.0","2.5810000000000004","12.95","1018.45","6.786","33.02","NAN","0.0"],
    [1536346,"2026-01-07 10:30:00","48102","1.0659999999999998","350.6","2.6460000000000004","7.145","1018.54","7.27","32.22","NAN","0.0"],
    [1536347,"2026-01-07 10:40:00","48103","1.795","334.5","3.659","316.8","1018.682","7.389","31.63","NAN","0.0"],
    [1536348,"2026-01-07 10:50:00","48104","1.6480000000000001","333.1","4.704","306.2","1018.7339999999999","7.73","29.9","NAN","0.0"],
    [1536349,"2026-01-07 11:00:00","48105","1.455","340.0","3.887","314.1","1018.7460000000001","7.767","30.26","NAN","0.0"],
    [1536350,"2026-01-07 11:10:00","48106","1.416","357.6","3.136","331.3","1018.703","7.797","31.05","NAN","0.0"],
    [1536351,"2026-01-07 11:20:00","48107","0.9840000000000001","341.6","2.5810000000000004","339.5","1018.5169999999999","8.24","31.35","NAN","0.0"],
    [1536352,"2026-01-07 11:30:00","48108","1.515","316.8","2.94","301.8","1018.426","8.06","31.52","NAN","0.0"],
    [1536353,"2026-01-07 11:40:00","48109","1.0490000000000002","297.6","3.822","314.4","1018.2389999999999","8.19","30.88","NAN","0.0"],
    [1536354,"2026-01-07 11:50:00","48110","1.413","242.8","4.1160000000000005","235.8","1018.1610000000001","8.77","31.98","NAN","0.0"],
    [1536355,"2026-01-07 12:00:00","48111","1.65","240.7","4.2139999999999995","302.1","1017.9730000000001","8.39","32.79","NAN","0.0"],
    [1536356,"2026-01-07 12:10:00","48112","1.4340000000000002","255.4","3.43","249.5","1017.926","8.48","32.26","NAN","0.0"],
    [1536357,"2026-01-07 12:20:00","48113","1.672","261.6","3.43","281.9","1017.811","8.53","31.8","NAN","0.0"],
    [1536358,"2026-01-07 12:30:00","48114","1.604","255.2","4.149","238.9","1017.699","8.74","30.87","NAN","0.0"],
    [1536359,"2026-01-07 12:40:00","48115","2.042","252.1","5.455","256.7","1017.707","8.89","30.23","NAN","0.0"],
    [1536360,"2026-01-07 12:50:00","48116","2.2769999999999997","262.8","5.4879999999999995","244.9","1017.682","8.65","30.35","NAN","0.0"],
    [1536361,"2026-01-07 13:00:00","48117","1.881","267.7","4.704","297.9","1017.615","8.62","30.76","NAN","0.0"],
    [1536362,"2026-01-07 13:10:00","48118","1.3840000000000001","253.0","4.279","255.3","1017.455","9.09","30.86","NAN","0.0"],
    [1536363,"2026-01-07 13:20:00","48119","1.939","279.0","5.227","285.2","1017.4060000000001","8.71","30.7","NAN","0.0"],
    [1536364,"2026-01-07 13:30:00","48120","1.213","341.8","4.769","319.2","1017.326","8.66","30.48","NAN","0.0"],
    [1536365,"2026-01-07 13:40:00","48121","1.222","308.9","3.855","231.3","1017.2360000000001","8.76","30.4","NAN","0.0"],
    [1536366,"2026-01-07 13:50:00","48122","1.298","332.4","3.005","326.1","1017.189","8.45","31.77","NAN","0.0"],
    [1536367,"2026-01-07 14:00:00","48123","1.686","282.0","5.031000000000001","239.9","1017.1210000000001","8.56","31.74","NAN","0.0"],
    [1536368,"2026-01-07 14:10:00","48124","1.078","313.6","3.985","307.8","1016.967","8.66","32.39","NAN","0.0"],
    [1536369,"2026-01-07 14:20:00","48125","1.7469999999999999","311.6","6.403","284.3","1016.962","8.96","32.12","NAN","0.0"],
    [1536370,"2026-01-07 14:30:00","48126","1.329","302.3","4.051","329.9","1017.0419999999999","9.29","32.27","NAN","0.0"],
    [1536371,"2026-01-07 14:40:00","48127","1.531","314.0","4.312","277.9","1017.177","9.1","32.26","NAN","0.0"],
    [1536372,"2026-01-07 14:50:00","48128","1.651","321.2","3.659","315.6","1017.2560000000001","9.01","32.83","NAN","0.0"],
    [1536373,"2026-01-07 15:00:00","48129","1.5119999999999998","316.1","4.083","317.2","1017.328","8.68","34.78","NAN","0.0"],
    [1536374,"2026-01-07 15:10:00","48130","1.858","292.0","4.345","279.9","1017.352","8.31","36.6","NAN","0.0"],
    [1536375,"2026-01-07 15:20:00","48131","1.597","302.9","4.867","315.7","1017.4889999999999","8.33","37.12","NAN","0.0"],
    [1536376,"2026-01-07 15:30:00","48132","1.715","296.0","4.541","308.3","1017.548","8.36","37.07","NAN","0.0"],
    [1536377,"2026-01-07 15:40:00","48133","2.1319999999999997","321.6","4.704","320.4","1017.5160000000001","8.39","36.54","NAN","0.0"],
    [1536378,"2026-01-07 15:50:00","48134","1.9069999999999998","294.1","4.769","288.0","1017.3710000000001","8.29","36.82","NAN","0.0"],
    [1536379,"2026-01-07 16:00:00","48135","1.475","275.7","3.7889999999999997","299.0","1017.332","8.4","37.1","NAN","0.0"],
    [1536380,"2026-01-07 16:10:00","48136","1.3459999999999999","274.4","3.92","281.0","1017.311","8.22","38.07","NAN","0.0"],
    [1536381,"2026-01-07 16:20:00","48137","1.7690000000000001","281.6","4.1160000000000005","305.0","1017.342","8.2","38.48","NAN","0.0"],
    [1536382,"2026-01-07 16:30:00","48138","1.341","274.5","3.365","283.5","1017.4119999999999","8.13","39.36","NAN","0.0"],
    [1536383,"2026-01-07 16:40:00","48139","1.3619999999999999","282.9","3.365","270.6","1017.485","8.08","39.94","NAN","0.0"],
    [1536384,"2026-01-07 16:50:00","48140","0.672","261.0","1.8619999999999999","309.0","1017.465","8.03","40.64","NAN","0.0"],
    [1536385,"2026-01-07 17:00:00","48141","1.337","255.0","3.1689999999999996","233.9","1017.539","8.08","40.84","NAN","0.0"],
    [1536386,"2026-01-07 17:10:00","48142","1.148","251.7","2.45","305.6","1017.638","8.07","41.34","NAN","0.0"],
    [1536387,"2026-01-07 17:20:00","48143","1.805","266.4","3.9530000000000003","260.4","1017.779","8.08","42.26","NAN","0.0"],
    [1536388,"2026-01-07 17:30:00","48144","1.6780000000000002","279.4","4.638999999999999","271.5","1017.831","8.17","43.01","NAN","0.0"],
    [1536389,"2026-01-07 17:40:00","48145","1.818","297.5","4.671","331.0","1017.778","8.19","43.51","NAN","0.0"],
    [1536390,"2026-01-07 17:50:00","48146","1.335","291.4","3.9530000000000003","297.0","1017.758","8.15","44.16","NAN","0.0"],
    [1536391,"2026-01-07 18:00:00","48147","1.385","312.0","3.887","340.6","1017.802","8.11","45.12","NAN","0.0"],
    [1536392,"2026-01-07 18:10:00","48148","2.062","286.0","4.345","289.5","1017.7610000000001","8.15","45.86","NAN","0.0"],
    [1536393,"2026-01-07 18:20:00","48149","1.396","301.8","3.985","316.2","1017.96","8.09","47","NAN","0.0"],
    [1536394,"2026-01-07 18:30:00","48150","1.222","275.9","2.515","282.7","1018.039","8.05","47.75","NAN","0.0"],
    [1536395,"2026-01-07 18:40:00","48151","1.041","265.4","2.483","258.5","1018.034","8.07","48.35","NAN","0.0"],
    [1536396,"2026-01-07 18:50:00","48152","1.609","270.3","4.1160000000000005","281.7","1018.2339999999999","8.46","48.19","NAN","0.0"],
    [1536397,"2026-01-07 19:00:00","48153","1.682","276.6","4.998","250.2","1018.293","8.54","48.59","NAN","0.0"],
    [1536398,"2026-01-07 19:10:00","48154","2.109","298.4","5.422999999999999","287.2","1018.357","8.81","48.46","NAN","0.0"],
    [1536399,"2026-01-07 19:20:00","48155","2.239","274.3","5.2589999999999995","232.0","1018.316","8.87","48.81","NAN","0.0"],
    [1536400,"2026-01-07 19:30:00","48156","1.964","282.9","4.573","245.8","1018.291","8.83","49.48","NAN","0.0"],
    [1536401,"2026-01-07 19:40:00","48157","2.285","270.3","5.684","286.5","1018.169","8.83","49.89","NAN","0.0"],
    [1536402,"2026-01-07 19:50:00","48158","1.7790000000000001","274.9","4.247","287.9","1018.28","8.77","50.51","NAN","0.0"],
    [1536403,"2026-01-07 20:00:00","48159","1.275","254.9","3.234","273.2","1018.285","8.61","51.37","NAN","0.0"],
    [1536404,"2026-01-07 20:10:00","48160","1.642","255.6","4.2139999999999995","300.3","1018.38","8.58","52.07","NAN","0.0"],
    [1536405,"2026-01-07 20:20:00","48161","1.9669999999999999","260.1","4.802","263.9","1018.4839999999999","8.75","52.09","NAN","0.0"],
    [1536406,"2026-01-07 20:30:00","48162","1.2570000000000001","261.1","3.92","283.2","1018.434","8.66","52.96","NAN","0.0"],
    [1536407,"2026-01-07 20:40:00","48163","1.256","247.7","3.7239999999999998","268.8","1018.7310000000001","8.68","53.83","NAN","0.0"],
    [1536408,"2026-01-07 20:50:00","48164","1.6669999999999998","275.0","5.227","276.1","1018.842","8.86","54.62","NAN","0.0"],
    [1536409,"2026-01-07 21:00:00","48165","1.63","235.5","6.403","266.7","1018.8510000000001","8.89","55.58","NAN","0.0"],
    [1536410,"2026-01-07 21:10:00","48166","1.13","27.53","4.247","297.7","1019.1189999999999","8.81","56.44","NAN","0.0"],
    [1536411,"2026-01-07 21:20:00","48167","1.65","330.3","4.2139999999999995","271.1","1019.2560000000001","8.9","56.9","NAN","0.0"],
    [1536412,"2026-01-07 21:30:00","48168","1.86","295.6","4.835","345.6","1019.295","8.89","57.43","NAN","0.0"],
    [1536413,"2026-01-07 21:40:00","48169","1.064","184.2","3.463","105.2","1019.331","8.76","58.28","NAN","0.0"],
    [1536414,"2026-01-07 21:50:00","48170","0.738","188.4","1.764","50.98","1019.497","8.68","58.56","NAN","0.0"],
    [1536415,"2026-01-07 22:00:00","48171","0.555","312.5","2.221","311.2","1019.495","8.4","58.97","NAN","0.0"],
    [1536416,"2026-01-07 22:10:00","48172","0.898","50.72","1.829","47.23","1019.7139999999999","8.23","59","NAN","0.0"],
    [1536417,"2026-01-07 22:20:00","48173","0.795","11.87","1.568","8.3","1019.8710000000001","7.912","59","NAN","0.0"],
    [1536418,"2026-01-07 22:30:00","48174","1.168","359.9","2.189","353.5","1020.071","7.682","58.64","NAN","0.0"],
    [1536419,"2026-01-07 22:40:00","48175","0.836","355.9","2.0909999999999997","6.184","1020.166","7.527","58.98","NAN","0.0"],
    [1536420,"2026-01-07 22:50:00","48176","0.713","346.8","1.8619999999999999","295.2","1020.315","7.421","59.4","NAN","0.0"],
    [1536421,"2026-01-07 23:00:00","48177","0.485","344.1","1.47","325.5","1020.502","7.354","59.44","NAN","0.0"],
    [1536422,"2026-01-07 23:10:00","48178","0.632","354.7","1.8619999999999999","325.8","1020.472","7.518","59.04","NAN","0.0"],
    [1536423,"2026-01-07 23:20:00","48179","0.36","7.547999999999999","1.209","33.56","1020.678","7.191","60.87","NAN","0.0"],
    [1536424,"2026-01-07 23:30:00","48180","0.569","358.0","1.568","41.84","1020.691","7.125","60.88","NAN","0.0"],
    [1536425,"2026-01-07 23:40:00","48181","0.992","43.51","1.829","49.11","1020.6110000000001","7.284","59.54","NAN","0.0"],
    [1536426,"2026-01-07 23:50:00","48182","0.5660000000000001","43.76","1.209","65.92","1020.4810000000001","7.062","60.51","NAN","0.0"],
    [1536427,"2026-01-08 00:00:00","48183","0.637","55.54","1.4369999999999998","44.95","1020.51","6.784","61.41","NAN","0.0"],
    [1536428,"2026-01-08 00:10:00","48184","0.84","51.95","1.8619999999999999","59.09","1020.7280000000001","6.682","61.37","NAN","0.0"],
    [1536429,"2026-01-08 00:20:00","48185","1.112","71.11","2.7439999999999998","81.6","1020.686","6.584","62.68","NAN","0.0"],
    [1536430,"2026-01-08 00:30:00","48186","1.396","77.27","2.875","56.37","1020.7130000000001","6.641","63.9","NAN","0.0"],
    [1536431,"2026-01-08 00:40:00","48187","0.568","44.24","1.4369999999999998","58.24","1020.576","6.457","64.36","NAN","0.0"],
    [1536432,"2026-01-08 00:50:00","48188","1.006","15.25","2.156","36.31","1020.322","6.326","64.92","NAN","0.0"],
    [1536433,"2026-01-08 01:00:00","48189","0.5820000000000001","321.3","1.7309999999999999","313.8","1020.2769999999999","6.589","63.86","NAN","0.0"],
    [1536434,"2026-01-08 01:10:00","48190","0.244","196.0","0.784","209.9","1020.352","6.426","64.97","NAN","0.0"],
    [1536435,"2026-01-08 01:20:00","48191","0.409","269.8","0.8490000000000001","249.7","1020.3739999999999","6.172","66.99","NAN","0.0"],
    [1536436,"2026-01-08 01:30:00","48192","0.222","285.9","0.882","276.1","1020.3989999999999","6.312","67.06","NAN","0.0"],
    [1536437,"2026-01-08 01:40:00","48193","0.512","309.2","1.829","316.3","1020.557","6.47","67.67","NAN","0.0"],
    [1536438,"2026-01-08 01:50:00","48194","0.688","327.3","2.254","331.6","1020.801","6.984","66.37","NAN","0.0"],
    [1536439,"2026-01-08 02:00:00","48195","1.462","277.0","3.887","265.7","1020.5930000000001","7.315","65.98","NAN","0.0"],
    [1536440,"2026-01-08 02:10:00","48196","1.6059999999999999","281.5","4.737","278.6","1020.581","7.552","65.4","NAN","0.0"],
    [1536441,"2026-01-08 02:20:00","48197","1.286","240.3","3.299","254.9","1020.6410000000001","7.537","65.9","NAN","0.0"],
    [1536442,"2026-01-08 02:30:00","48198","1.37","227.0","3.201","221.8","1020.698","7.686","65.91","NAN","0.0"],
    [1536443,"2026-01-08 02:40:00","48199","1.107","217.0","3.267","272.9","1020.6410000000001","7.351","67.74","NAN","0.0"],
    [1536444,"2026-01-08 02:50:00","48200","1.436","217.7","3.005","203.2","1020.813","7.063","68.78","NAN","0.0"],
    [1536445,"2026-01-08 03:00:00","48201","1.444","233.7","3.43","242.7","1020.648","7.045","68.56","NAN","0.0"],
    [1536446,"2026-01-08 03:10:00","48202","0.7809999999999999","257.1","2.123","261.0","1020.6239999999999","7.062","68.28","NAN","0.0"],
    [1536447,"2026-01-08 03:20:00","48203","0.6629999999999999","132.3","1.535","111.3","1020.693","7.02","69.14","NAN","0.0"],
    [1536448,"2026-01-08 03:30:00","48204","0.597","25.91","1.176","17.6","1020.818","6.834","70.3","NAN","0.0"],
    [1536449,"2026-01-08 03:40:00","48205","0.494","267.8","1.764","223.7","1020.685","7.187","69.82","NAN","0.0"],
    [1536450,"2026-01-08 03:50:00","48206","0.7509999999999999","188.6","1.829","226.8","1020.571","7.406","68.98","NAN","0.0"],
    [1536451,"2026-01-08 04:00:00","48207","0.31","175.7","1.633","169.3","1020.544","7.156","70.13","NAN","0.0"],
    [1536452,"2026-01-08 04:10:00","48208","0.46399999999999997","65.2","1.274","68.79","1020.7180000000001","7.049","70.65","NAN","0.0"],
    [1536453,"2026-01-08 04:20:00","48209","0.711","276.4","2.515","313.1","1020.5889999999999","7.253","69.69","NAN","0.0"],
    [1536454,"2026-01-08 04:30:00","48210","0.601","142.9","1.895","121.8","1020.5210000000001","7.004","71.64","NAN","0.0"],
    [1536455,"2026-01-08 04:40:00","48211","0.687","95.8","1.47","94.5","1020.4810000000001","7.329","71.01","NAN","0.0"],
    [1536456,"2026-01-08 04:50:00","48212","0.601","214.4","1.96","275.4","1020.472","7.32","71.07","NAN","0.0"],
    [1536457,"2026-01-08 05:00:00","48213","0.7290000000000001","102.1","1.8619999999999999","166.6","1020.487","7.41","70.59","NAN","0.0"],
    [1536458,"2026-01-08 05:10:00","48214","1.4809999999999999","218.4","3.9530000000000003","302.8","1020.472","7.793","69.91","NAN","0.0"],
    [1536459,"2026-01-08 05:20:00","48215","1.27","263.9","2.679","290.3","1020.4960000000001","8.17","68.16","NAN","0.0"],
    [1536460,"2026-01-08 05:30:00","48216","1.999","233.7","4.9","218.2","1020.4019999999999","8.14","67.94","NAN","0.0"],
    [1536461,"2026-01-08 05:40:00","48217","1.594","232.4","4.41","305.4","1020.459","8.12","67.87","NAN","0.0"],
    [1536462,"2026-01-08 05:50:00","48218","1.226","212.8","3.9530000000000003","311.8","1020.347","8.01","68.73","NAN","0.0"],
    [1536463,"2026-01-08 06:00:00","48219","1.113","204.4","2.8089999999999997","177.5","1020.405","8.09","69.12","NAN","0.0"],
    [1536464,"2026-01-08 06:10:00","48220","1.6740000000000002","223.3","4.051","186.6","1020.452","8.14","69.01","NAN","0.0"],
    [1536465,"2026-01-08 06:20:00","48221","1.579","190.3","3.267","204.2","1020.466","8.14","69.22","NAN","0.0"],
    [1536466,"2026-01-08 06:30:00","48222","1.306","259.9","2.9730000000000003","317.0","1020.4069999999999","8.22","68.84","NAN","0.0"],
    [1536467,"2026-01-08 06:40:00","48223","2.0869999999999997","264.0","6.957999999999999","254.0","1020.3539999999999","8.55","67.3","NAN","0.0"],
    [1536468,"2026-01-08 06:50:00","48224","1.013","244.3","3.855","318.5","1020.423","8.59","67.5","NAN","0.0"],
    [1536469,"2026-01-08 07:00:00","48225","0.645","10.86","1.8619999999999999","8.83","1020.5989999999999","8.54","68.78","NAN","0.0"],
    [1536470,"2026-01-08 07:10:00","48226","1.456","305.9","3.7239999999999998","296.8","1020.6339999999999","8.77","69.08","NAN","0.0"],
    [1536471,"2026-01-08 07:20:00","48227","0.894","311.5","2.94","314.4","1020.52","8.91","68.74","NAN","0.0"],
    [1536472,"2026-01-08 07:30:00","48228","0.8109999999999999","223.4","2.287","287.6","1020.4","8.84","69.12","NAN","0.0"],
    [1536473,"2026-01-08 07:40:00","48229","1.105","233.1","4.998","280.2","1020.5939999999999","8.87","69.29","NAN","0.0"],
    [1536474,"2026-01-08 07:50:00","48230","0.84","171.9","1.993","150.3","1020.617","8.9","70.04","NAN","0.0"],
    [1536475,"2026-01-08 08:00:00","48231","1.9240000000000002","249.5","5.455","260.7","1020.816","9.26","68.73","NAN","0.0"],
    [1536476,"2026-01-08 08:10:00","48232","2.499","243.2","7.807","242.1","1020.8839999999999","9.47","67.11","NAN","0.0"],
    [1536477,"2026-01-08 08:20:00","48233","1.411","246.2","3.593","302.8","1020.923","9.46","67.01","NAN","0.0"],
    [1536478,"2026-01-08 08:30:00","48234","1.3219999999999998","245.0","4.345","178.8","1020.8969999999999","9.71","66.22","NAN","0.0"],
    [1536479,"2026-01-08 08:40:00","48235","1.9469999999999998","254.4","6.403","240.6","1021.0239999999999","10.01","65.33","NAN","0.0"],
    [1536480,"2026-01-08 08:50:00","48236","2.576","240.2","6.9910000000000005","215.0","1021.168","10.41","63.79","NAN","0.0"],
    [1536481,"2026-01-08 09:00:00","48237","2.318","252.3","5.978","234.6","1021.2710000000001","10.6","63.19","NAN","0.0"],
    [1536482,"2026-01-08 09:10:00","48238","2.329","259.6","6.37","251.3","1021.415","10.64","62.97","NAN","0.0"],
    [1536483,"2026-01-08 09:20:00","48239","1.791","269.1","4.4430000000000005","323.2","1021.262","10.63","63.22","NAN","0.0"],
    [1536484,"2026-01-08 09:30:00","48240","1.857","312.4","5.2589999999999995","294.1","1021.2260000000001","10.76","63.1","NAN","0.0"],
    [1536485,"2026-01-08 09:40:00","48241","1.214","304.0","2.842","280.7","1021.176","11.17","61.9","NAN","0.0"],
    [1536486,"2026-01-08 09:50:00","48242","1.204","298.1","3.593","320.4","1021.174","11.72","60.65","NAN","0.0"],
    [1536487,"2026-01-08 10:00:00","48243","2.504","326.1","6.957999999999999","313.6","1021.137","11.63","61.25","NAN","0.0"],
    [1536488,"2026-01-08 10:10:00","48244","2.0709999999999997","301.5","5.129","290.9","1021.079","11.94","60.69","NAN","0.0"],
    [1536489,"2026-01-08 10:20:00","48245","2.5989999999999998","284.9","6.795","283.1","1021.0219999999999","12.1","60.38","NAN","0.0"],
    [1536490,"2026-01-08 10:30:00","48246","2.937","270.9","6.697","312.7","1020.9989999999999","12.12","60.44","NAN","0.0"],
    [1536491,"2026-01-08 10:40:00","48247","2.202","268.6","5.7170000000000005","294.1","1020.808","12.03","60.74","NAN","0.0"],
    [1536492,"2026-01-08 10:50:00","48248","1.686","276.4","4.737","298.1","1020.5310000000001","12.21","60.2","NAN","0.0"],
    [1536493,"2026-01-08 11:00:00","48249","1.369","65.44","4.9","238.3","1020.312","12.37","59.7","NAN","0.0"],
    [1536494,"2026-01-08 11:10:00","48250","1.137","52.8","4.312","293.9","1020.207","12.53","59.21","NAN","0.0"],
    [1536495,"2026-01-08 11:20:00","48251","0.948","134.9","2.319","144.7","1020.066","12.82","58.19","NAN","0.0"],
    [1536496,"2026-01-08 11:30:00","48252","0.7","120.2","2.0580000000000003","104.0","1020.18","13.67","55.43","NAN","0.0"],
    [1536497,"2026-01-08 11:40:00","48253","1.4769999999999999","230.5","3.659","223.8","1020.148","14.34","53.59","NAN","0.0"],
    [1536498,"2026-01-08 11:50:00","48254","1.845","242.0","5.292000000000001","224.4","1019.988","14.52","52.98","NAN","0.0"],
    [1536499,"2026-01-08 12:00:00","48255","2.043","251.8","4.4430000000000005","239.7","1019.8839999999999","14.59","52.9","NAN","0.0"],
    [1536500,"2026-01-08 12:10:00","48256","2.408","255.8","5.39","243.8","1019.7260000000001","14.79","52.27","NAN","0.0"],
    [1536501,"2026-01-08 12:20:00","48257","1.841","259.2","5.227","270.2","1019.798","15.07","51.7","NAN","0.0"],
    [1536502,"2026-01-08 12:30:00","48258","1.7009999999999998","279.5","5.586","304.4","1019.794","15.02","51.77","NAN","0.0"],
    [1536503,"2026-01-08 12:40:00","48259","2.108","283.8","4.835","276.9","1019.6439999999999","14.88","52.16","NAN","0.0"],
    [1536504,"2026-01-08 12:50:00","48260","2.113","332.8","5.292000000000001","323.6","1019.503","15.05","52.01","NAN","0.0"],
    [1536505,"2026-01-08 13:00:00","48261","1.8019999999999998","333.3","5.129","316.9","1019.4119999999999","15.27","51.68","NAN","0.0"],
    [1536506,"2026-01-08 13:10:00","48262","2.405","331.0","6.011","310.2","1019.193","15.23","51.72","NAN","0.0"],
    [1536507,"2026-01-08 13:20:00","48263","2.085","284.4","7.187","285.9","1019.113","15.33","51.31","NAN","0.0"],
    [1536508,"2026-01-08 13:30:00","48264","2.046","276.7","5.422999999999999","242.5","1019.1619999999999","15.4","51.02","NAN","0.0"],
    [1536509,"2026-01-08 13:40:00","48265","1.03","280.1","3.6910000000000003","296.3","1019.191","15.19","51.7","NAN","0.0"],
    [1536510,"2026-01-08 13:50:00","48266","2.316","256.3","6.141","277.0","1019.166","15.29","51.28","NAN","0.0"],
    [1536511,"2026-01-08 14:00:00","48267","1.495","276.7","4.149","301.5","1019.1289999999999","15.64","50.21","NAN","0.0"],
    [1536512,"2026-01-08 14:10:00","48268","1.319","295.0","4.835","284.5","1019.095","15.72","49.98","NAN","0.0"],
    [1536513,"2026-01-08 14:20:00","48269","1.901","297.7","6.468","313.4","1019.1160000000001","15.65","50.06","NAN","0.0"],
    [1536514,"2026-01-08 14:30:00","48270","1.712","291.4","5.978","300.5","1019.059","15.62","50.18","NAN","0.0"],
    [1536515,"2026-01-08 14:40:00","48271","2.1790000000000003","272.6","5.749","318.2","1019.049","15.68","50.22","NAN","0.0"],
    [1536516,"2026-01-08 14:50:00","48272","1.776","276.8","4.835","300.7","1018.8639999999999","15.77","50.2","NAN","0.0"],
    [1536517,"2026-01-08 15:00:00","48273","1.8530000000000002","271.1","4.312","289.6","1019.048","15.55","50.84","NAN","0.0"],
    [1536518,"2026-01-08 15:10:00","48274","1.68","304.8","4.345","241.9","1019.173","15.48","50.99","NAN","0.0"],
    [1536519,"2026-01-08 15:20:00","48275","1.03","297.6","3.005","310.0","1019.201","15.31","51.62","NAN","0.0"],
    [1536520,"2026-01-08 15:30:00","48276","1.163","334.3","3.659","349.1","1019.1510000000001","15.23","52.21","NAN","0.0"],
    [1536521,"2026-01-08 15:40:00","48277","0.8859999999999999","286.9","3.659","329.9","1019.0360000000001","15.4","52.14","NAN","0.0"],
    [1536522,"2026-01-08 15:50:00","48278","1.058","260.6","2.9730000000000003","265.1","1019.1439999999999","15.34","52.52","NAN","0.0"],
    [1536523,"2026-01-08 16:00:00","48279","1.775","258.0","4.541","238.3","1019.061","15.27","52.8","NAN","0.0"],
    [1536524,"2026-01-08 16:10:00","48280","2.039","253.2","5.063","250.5","1019.1260000000001","15.13","53.18","NAN","0.0"],
    [1536525,"2026-01-08 16:20:00","48281","2.985","260.5","6.403","223.0","1019.2310000000001","15.1","53.08","NAN","0.0"],
    [1536526,"2026-01-08 16:30:00","48282","2.15","279.5","8.43","286.7","1019.1310000000001","14.97","52.94","NAN","0.0"],
    [1536527,"2026-01-08 16:40:00","48283","1.0959999999999999","281.0","3.397","261.2","1019.194","14.79","53.29","NAN","0.0"],
    [1536528,"2026-01-08 16:50:00","48284","1.5659999999999998","254.2","5.749","248.9","1019.2310000000001","14.75","52.97","NAN","0.0"],
    [1536529,"2026-01-08 17:00:00","48285","1.629","241.7","4.1160000000000005","207.7","1019.1560000000001","14.69","53.2","NAN","0.0"],
    [1536530,"2026-01-08 17:10:00","48286","1.4180000000000001","245.5","3.6910000000000003","220.0","1019.2410000000001","14.57","53.58","NAN","0.0"],
    [1536531,"2026-01-08 17:20:00","48287","1.276","247.1","3.365","253.4","1019.45","14.57","53.14","NAN","0.0"],
    [1536532,"2026-01-08 17:30:00","48288","0.6559999999999999","243.3","2.0580000000000003","255.2","1019.47","14.47","53.36","NAN","0.0"],
    [1536533,"2026-01-08 17:40:00","48289","1.205","251.6","3.103","258.5","1019.38","14.41","53.23","NAN","0.0"],
    [1536534,"2026-01-08 17:50:00","48290","0.787","256.9","3.365","258.2","1019.288","14.34","53.33","NAN","0.0"],
    [1536535,"2026-01-08 18:00:00","48291","0.512","252.0","2.156","259.7","1019.2810000000001","14.18","53.78","NAN","0.0"],
    [1536536,"2026-01-08 18:10:00","48292","0.465","285.7","2.254","275.3","1019.378","14.12","53.94","NAN","0.0"],
    [1536537,"2026-01-08 18:20:00","48293","0.815","235.6","1.699","226.0","1019.311","14.05","54.23","NAN","0.0"],
    [1536538,"2026-01-08 18:30:00","48294","0.986","237.9","2.385","251.0","1019.301","14","54.8","NAN","0.0"],
    [1536539,"2026-01-08 18:40:00","48295","0.8809999999999999","269.2","2.483","266.5","1019.168","14.02","54.87","NAN","0.0"],
    [1536540,"2026-01-08 18:50:00","48296","0.774","239.7","2.287","251.9","1019.169","13.96","55.02","NAN","0.0"],
    [1536541,"2026-01-08 19:00:00","48297","0.995","225.1","1.96","244.4","1019.1610000000001","13.67","56.19","NAN","0.0"],
    [1536542,"2026-01-08 19:10:00","48298","0.45399999999999996","242.8","1.535","240.7","1019.069","13.59","55.8","NAN","0.0"],
    [1536543,"2026-01-08 19:20:00","48299","0.985","233.2","1.895","250.8","1018.835","13.58","55.58","NAN","0.0"],
    [1536544,"2026-01-08 19:30:00","48300","1.087","246.3","2.907","270.1","1018.747","13.83","53.51","NAN","0.0"],
    [1536545,"2026-01-08 19:40:00","48301","0.9229999999999999","231.5","2.417","269.1","1018.72","13.91","52.42","NAN","0.0"],
    [1536546,"2026-01-08 19:50:00","48302","0.565","238.4","1.797","259.8","1018.67","13.65","53.08","NAN","0.0"],
    [1536547,"2026-01-08 20:00:00","48303","1.5430000000000001","233.8","3.855","235.3","1018.566","13.79","52.19","NAN","0.0"],
    [1536548,"2026-01-08 20:10:00","48304","0.943","240.7","2.842","259.6","1018.439","13.88","51.32","NAN","0.0"],
    [1536549,"2026-01-08 20:20:00","48305","0.9209999999999999","220.7","1.8619999999999999","215.2","1018.414","13.64","52.26","NAN","0.0"],
    [1536550,"2026-01-08 20:30:00","48306","0.688","228.7","1.7309999999999999","215.6","1018.202","13.26","53.71","NAN","0.0"],
    [1536551,"2026-01-08 20:40:00","48307","1.0859999999999999","226.0","2.417","241.9","1018.08","13.24","53.37","NAN","0.0"],
    [1536552,"2026-01-08 20:50:00","48308","1.077","230.1","2.45","248.6","1017.96","13.16","53.62","NAN","0.0"],
    [1536553,"2026-01-08 21:00:00","48309","1.114","255.3","2.9730000000000003","283.2","1017.818","13.24","53.29","NAN","0.0"],
    [1536554,"2026-01-08 21:10:00","48310","0.653","273.1","2.0909999999999997","322.1","1017.877","13.36","52.62","NAN","0.0"],
    [1536555,"2026-01-08 21:20:00","48311","0.797","307.4","2.287","349.7","1017.975","13.47","52","NAN","0.0"],
    [1536556,"2026-01-08 21:30:00","48312","1.128","304.3","2.907","271.8","1017.926","13.55","51.37","NAN","0.0"],
    [1536557,"2026-01-08 21:40:00","48313","0.831","230.9","2.352","276.4","1017.8660000000001","13.47","51.64","NAN","0.0"],
    [1536558,"2026-01-08 21:50:00","48314","0.7709999999999999","222.4","1.568","219.5","1017.697","12.57","55.54","NAN","0.0"],
    [1536559,"2026-01-08 22:00:00","48315","0.7859999999999999","267.2","2.515","272.9","1017.6339999999999","12.32","56.33","NAN","0.0"],
    [1536560,"2026-01-08 22:10:00","48316","0.866","251.4","2.8089999999999997","239.9","1017.6039999999999","12.9","53.52","NAN","0.0"],
    [1536561,"2026-01-08 22:20:00","48317","2.3","272.6","6.1739999999999995","269.1","1017.455","13.44","50.51","NAN","0.0"],
    [1536562,"2026-01-08 22:30:00","48318","0.877","287.4","3.6910000000000003","260.1","1017.294","13.71","48.91","NAN","0.0"],
    [1536563,"2026-01-08 22:40:00","48319","1.496","274.7","5.521","270.4","1017.175","13.54","49.25","NAN","0.0"],
    [1536564,"2026-01-08 22:50:00","48320","1.713","257.5","5.912999999999999","287.6","1017.0989999999999","13.57","49.18","NAN","0.0"],
    [1536565,"2026-01-08 23:00:00","48321","1.819","250.0","5.063","278.8","1016.949","13.51","49.69","NAN","0.0"],
    [1536566,"2026-01-08 23:10:00","48322","1.5119999999999998","212.9","4.737","245.1","1016.7810000000001","13.36","50.6","NAN","0.0"],
    [1536567,"2026-01-08 23:20:00","48323","1.63","239.0","5.455","235.5","1016.7230000000001","13.1","51.58","NAN","0.0"],
    [1536568,"2026-01-08 23:30:00","48324","1.3840000000000001","258.7","4.965","261.7","1016.653","13","51.75","NAN","0.0"],
    [1536569,"2026-01-08 23:40:00","48325","2.138","240.4","6.599","226.0","1016.502","13.19","51.26","NAN","0.0"],
    [1536570,"2026-01-08 23:50:00","48326","2.086","219.3","5.2589999999999995","241.2","1016.227","13.14","51.6","NAN","0.0"],
    [1536571,"2026-01-09 00:00:00","48327","1.306","242.9","4.802","314.1","1016.0039999999999","12.98","52.36","NAN","0.0"],
    [1536572,"2026-01-09 00:10:00","48328","2.634","256.7","7.35","283.2","1015.7769999999999","13.76","50.44","NAN","0.0"],
    [1536573,"2026-01-09 00:20:00","48329","2.5839999999999996","273.6","8.56","263.9","1015.671","14.11","49.72","NAN","0.0"],
    [1536574,"2026-01-09 00:30:00","48330","2.8110000000000004","266.6","6.337000000000001","264.6","1015.709","13.97","50.2","NAN","0.0"],
    [1536575,"2026-01-09 00:40:00","48331","3.0069999999999997","285.1","8.89","242.2","1015.54","13.92","50.43","NAN","0.0"],
    [1536576,"2026-01-09 00:50:00","48332","2.736","288.5","7.285","285.6","1015.3560000000001","13.78","50.87","NAN","0.0"],
    [1536577,"2026-01-09 01:00:00","48333","2.783","277.8","9.11","297.1","1015.363","13.68","51.15","NAN","0.0"],
    [1536578,"2026-01-09 01:10:00","48334","3.23","285.8","8.69","295.0","1015.298","13.64","51.32","NAN","0.0"],
    [1536579,"2026-01-09 01:20:00","48335","3.093","283.3","7.84","293.5","1015.2589999999999","13.6","51.58","NAN","0.0"],
    [1536580,"2026-01-09 01:30:00","48336","2.799","277.9","6.9910000000000005","276.2","1015.298","13.67","51.63","NAN","0.0"],
    [1536581,"2026-01-09 01:40:00","48337","3.0180000000000002","288.5","9.8","273.1","1015.324","13.73","51.56","NAN","0.0"],
    [1536582,"2026-01-09 01:50:00","48338","2.764","280.6","7.579","256.9","1015.368","13.7","51.84","NAN","0.0"],
    [1536583,"2026-01-09 02:00:00","48339","2.7","276.7","8.1","264.2","1015.425","13.62","52.04","NAN","0.0"],
    [1536584,"2026-01-09 02:10:00","48340","2.7310000000000003","282.4","7.6770000000000005","292.7","1015.553","13.39","52.69","NAN","0.0"],
    [1536585,"2026-01-09 02:20:00","48341","3.25","273.6","7.0889999999999995","295.0","1015.438","13.31","52.93","NAN","0.0"],
    [1536586,"2026-01-09 02:30:00","48342","2.833","274.3","5.684","262.1","1015.375","13.16","53.4","NAN","0.0"],
    [1536587,"2026-01-09 02:40:00","48343","2.528","274.4","6.042999999999999","283.2","1015.321","13.09","53.49","NAN","0.0"],
    [1536588,"2026-01-09 02:50:00","48344","2.109","279.7","6.207000000000001","276.8","1015.204","13.01","53.43","NAN","0.0"],
    [1536589,"2026-01-09 03:00:00","48345","2.479","275.6","6.109","303.2","1015.206","13.12","52.64","NAN","0.0"],
    [1536590,"2026-01-09 03:10:00","48346","2.272","274.0","6.468","266.8","1015.191","13.07","52.51","NAN","0.0"],
    [1536591,"2026-01-09 03:20:00","48347","2.249","277.4","6.631","287.4","1015.184","12.92","52.69","NAN","0.0"],
    [1536592,"2026-01-09 03:30:00","48348","2.492","271.0","6.925","319.8","1015.196","12.74","53.05","NAN","0.0"],
    [1536593,"2026-01-09 03:40:00","48349","2.852","270.6","6.664","282.6","1015.166","12.74","52.9","NAN","0.0"],
    [1536594,"2026-01-09 03:50:00","48350","2.158","269.9","6.729","258.5","1015.1039999999999","12.6","53.35","NAN","0.0"],
    [1536595,"2026-01-09 04:00:00","48351","1.4680000000000002","307.9","4.541","328.5","1015.0169999999999","12.52","53.63","NAN","0.0"],
    [1536596,"2026-01-09 04:10:00","48352","1.829","278.0","6.141","266.7","1014.98","12.46","53.93","NAN","0.0"],
    [1536597,"2026-01-09 04:20:00","48353","2.022","274.8","6.37","273.3","1014.951","12.45","53.94","NAN","0.0"],
    [1536598,"2026-01-09 04:30:00","48354","2.832","268.4","5.651","325.6","1014.827","12.54","53.7","NAN","0.0"],
    [1536599,"2026-01-09 04:40:00","48355","2.52","263.7","6.599","309.1","1014.791","12.54","53.69","NAN","0.0"],
    [1536600,"2026-01-09 04:50:00","48356","3.162","266.9","8.36","256.9","1014.552","12.56","53.72","NAN","0.0"],
    [1536601,"2026-01-09 05:00:00","48357","2.878","272.1","7.121","253.1","1014.3710000000001","12.54","53.87","NAN","0.0"],
    [1536602,"2026-01-09 05:10:00","48358","2.613","270.0","6.272","287.9","1014.427","12.55","54.03","NAN","0.0"],
    [1536603,"2026-01-09 05:20:00","48359","2.597","270.2","7.415","285.2","1014.3710000000001","12.68","53.86","NAN","0.0"],
    [1536604,"2026-01-09 05:30:00","48360","2.09","293.7","4.704","298.6","1014.3430000000001","12.68","54.1","NAN","0.0"],
    [1536605,"2026-01-09 05:40:00","48361","1.9969999999999999","266.2","5.063","262.2","1014.345","12.77","54.06","NAN","0.0"],
    [1536606,"2026-01-09 05:50:00","48362","1.818","249.5","4.018","252.6","1014.263","12.66","54.69","NAN","0.0"],
    [1536607,"2026-01-09 06:00:00","48363","1.652","241.5","4.1160000000000005","227.7","1014.2610000000001","12.48","55.42","NAN","0.0"],
    [1536608,"2026-01-09 06:10:00","48364","1.6909999999999998","255.7","4.051","258.8","1014.3480000000001","12.25","56.46","NAN","0.0"],
    [1536609,"2026-01-09 06:20:00","48365","1.307","256.2","3.201","258.1","1014.3739999999999","12.21","56.8","NAN","0.0"],
    [1536610,"2026-01-09 06:30:00","48366","0.882","242.5","2.483","264.7","1014.385","11.89","58.28","NAN","0.0"],
    [1536611,"2026-01-09 06:40:00","48367","0.617","230.2","1.895","287.9","1014.3660000000001","11.54","59.89","NAN","0.0"],
    [1536612,"2026-01-09 06:50:00","48368","0.94","215.0","2.45","244.7","1014.422","11.47","61.35","NAN","0.0"],
    [1536613,"2026-01-09 07:00:00","48369","0.953","207.1","1.993","211.2","1014.4119999999999","11.15","63.47","NAN","0.0"],
    [1536614,"2026-01-09 07:10:00","48370","0.825","205.2","1.2409999999999999","216.8","1014.3589999999999","10.82","64.96","NAN","0.0"],
    [1536615,"2026-01-09 07:20:00","48371","0.915","200.3","1.4369999999999998","204.9","1014.28","10.49","67.79","NAN","0.0"],
    [1536616,"2026-01-09 07:30:00","48372","0.371","218.8","1.078","193.5","1014.288","10.4","66.15","NAN","0.0"],
    [1536617,"2026-01-09 07:40:00","48373","0.537","5.986000000000001","1.339","22.64","1014.403","10.56","65.69","NAN","0.0"],
    [1536618,"2026-01-09 07:50:00","48374","0.691","1.208","1.9269999999999998","32.17","1014.615","11.12","62.94","NAN","0.0"],
    [1536619,"2026-01-09 08:00:00","48375","0.5670000000000001","17.49","1.307","24.54","1014.582","11.37","62.18","NAN","0.0"],
    [1536620,"2026-01-09 08:10:00","48376","0.348","33.65","0.915","73.0","1014.6060000000001","11.32","62.83","NAN","0.0"],
    [1536621,"2026-01-09 08:20:00","48377","0.134","333.6","0.588","297.9","1014.529","11.76","61.46","NAN","0.0"],
    [1536622,"2026-01-09 08:30:00","48378","0.21899999999999997","276.7","0.9470000000000001","256.6","1014.4069999999999","12.42","59.36","NAN","0.0"],
    [1536623,"2026-01-09 08:40:00","48379","0.174","233.4","1.568","268.5","1014.409","13.22","56.78","NAN","0.0"],
    [1536624,"2026-01-09 08:50:00","48380","0.6409999999999999","241.0","3.0380000000000003","230.8","1014.308","13.93","53.86","NAN","0.0"],
    [1536625,"2026-01-09 09:00:00","48381","1.915","252.3","4.802","268.4","1014.453","14.15","52.16","NAN","0.0"],
    [1536626,"2026-01-09 09:10:00","48382","1.679","259.9","4.345","260.5","1014.3939999999999","14.44","50.94","NAN","0.0"],
    [1536627,"2026-01-09 09:20:00","48383","1.565","244.7","5.39","224.3","1014.372","14.96","48.72","NAN","0.0"],
    [1536628,"2026-01-09 09:30:00","48384","1.905","247.5","4.638999999999999","265.5","1014.324","15.22","47.36","NAN","0.0"],
    [1536629,"2026-01-09 09:40:00","48385","1.9780000000000002","246.3","4.737","252.7","1014.34","15.45","46.46","NAN","0.0"],
    [1536630,"2026-01-09 09:50:00","48386","2.085","246.7","6.337000000000001","234.8","1014.3539999999999","15.82","45.27","NAN","0.0"],
    [1536631,"2026-01-09 10:00:00","48387","2.6","253.6","6.5329999999999995","276.5","1014.293","15.99","44.23","NAN","0.0"],
    [1536632,"2026-01-09 10:10:00","48388","2.877","259.5","8.04","263.6","1014.2860000000001","16.21","43.5","NAN","0.0"],
    [1536633,"2026-01-09 10:20:00","48389","2.801","265.3","7.709","218.8","1014.165","16.23","43.64","NAN","0.0"],
    [1536634,"2026-01-09 10:30:00","48390","2.384","260.9","5.978","288.7","1014.0189999999999","16.27","43.39","NAN","0.0"],
    [1536635,"2026-01-09 10:40:00","48391","2.354","260.1","6.011","292.9","1014.0239999999999","16.58","41.67","NAN","0.0"],
    [1536636,"2026-01-09 10:50:00","48392","2.4619999999999997","261.3","6.5329999999999995","293.3","1013.8760000000001","16.88","40.01","NAN","0.0"],
    [1536637,"2026-01-09 11:00:00","48393","3.137","284.9","9.11","271.5","1013.7439999999999","16.89","38.63","NAN","0.0"],
    [1536638,"2026-01-09 11:10:00","48394","2.924","272.0","8.66","288.0","1013.579","16.76","38.46","NAN","0.0"],
    [1536639,"2026-01-09 11:20:00","48395","2.036","262.9","6.501","302.1","1013.439","17.07","37.94","NAN","0.0"],
    [1536640,"2026-01-09 11:30:00","48396","3.5860000000000003","261.2","9.38","254.0","1013.2510000000001","16.98","36.87","NAN","0.0"],
    [1536641,"2026-01-09 11:40:00","48397","3.208","266.5","8.4","258.9","1013.081","16.96","36.75","NAN","0.0"],
    [1536642,"2026-01-09 11:50:00","48398","3.1510000000000002","245.0","8.75","255.8","1012.9760000000001","16.68","37.04","NAN","0.0"],
    [1536643,"2026-01-09 12:00:00","48399","3.775","252.0","11.86","269.0","1012.865","16.57","37.31","NAN","0.0"],
    [1536644,"2026-01-09 12:10:00","48400","3.45","246.6","8.85","254.8","1012.783","16.39","37.06","NAN","0.0"],
    [1536645,"2026-01-09 12:20:00","48401","4.364","244.6","10.19","234.6","1012.632","16.35","37.22","NAN","0.0"],
    [1536646,"2026-01-09 12:30:00","48402","3.6260000000000003","250.9","9.6","228.9","1012.452","16.28","37.76","NAN","0.0"],
    [1536647,"2026-01-09 12:40:00","48403","4.373","251.1","9.31","266.0","1012.175","16.49","36.94","NAN","0.0"],
    [1536648,"2026-01-09 12:50:00","48404","3.516","248.6","9.64","255.2","1012.067","16.67","36.49","NAN","0.0"],
    [1536649,"2026-01-09 13:00:00","48405","4.511","254.1","10.81","252.2","1011.883","16.64","35.02","NAN","0.0"],
    [1536650,"2026-01-09 13:10:00","48406","4.258","248.8","12.58","269.6","1011.822","16.62","34.96","NAN","0.0"],
    [1536651,"2026-01-09 13:20:00","48407","3.937","268.2","9.8","283.3","1011.7639999999999","16.67","34.66","NAN","0.0"],
    [1536652,"2026-01-09 13:30:00","48408","3.51","254.3","8.66","275.2","1011.68","16.67","34.61","NAN","0.0"],
    [1536653,"2026-01-09 13:40:00","48409","4.123","268.8","11.56","297.6","1011.666","16.52","34.86","NAN","0.0"],
    [1536654,"2026-01-09 13:50:00","48410","3.484","276.2","10.0","294.1","1011.552","16.47","34.83","NAN","0.0"],
    [1536655,"2026-01-09 14:00:00","48411","3.35","262.7","7.872999999999999","254.0","1011.3989999999999","16.5","34.94","NAN","0.0"],
    [1536656,"2026-01-09 14:10:00","48412","3.8139999999999996","251.3","9.31","268.7","1011.2","16.47","35.05","NAN","0.0"],
    [1536657,"2026-01-09 14:20:00","48413","4.277","261.4","11.53","279.7","1011.165","16.44","34.38","NAN","0.0"],
    [1536658,"2026-01-09 14:30:00","48414","4.01","272.2","10.94","250.6","1011.1039999999999","16.48","33.57","NAN","0.0"],
    [1536659,"2026-01-09 14:40:00","48415","3.437","272.6","8.82","257.6","1011.065","16.5","33.27","NAN","0.0"],
    [1536660,"2026-01-09 14:50:00","48416","2.516","254.0","6.239","247.7","1010.985","16.69","33.84","NAN","0.0"],
    [1536661,"2026-01-09 15:00:00","48417","3.3560000000000003","249.2","8.26","301.7","1010.8389999999999","16.5","34.31","NAN","0.0"],
    [1536662,"2026-01-09 15:10:00","48418","3.327","252.8","9.51","226.4","1010.815","16.42","34.05","NAN","0.0"],
    [1536663,"2026-01-09 15:20:00","48419","3.628","264.6","8.72","260.1","1010.962","16.41","33.63","NAN","0.0"],
    [1536664,"2026-01-09 15:30:00","48420","2.786","267.4","6.37","296.7","1011.1160000000001","16.38","34.23","NAN","0.0"],
    [1536665,"2026-01-09 15:40:00","48421","2.923","265.7","8.23","288.6","1010.9989999999999","16.33","34.41","NAN","0.0"],
    [1536666,"2026-01-09 15:50:00","48422","3.135","258.7","7.905","270.8","1010.942","16.31","34.29","NAN","0.0"],
    [1536667,"2026-01-09 16:00:00","48423","2.675","270.7","9.31","261.2","1011.0089999999999","16.29","34.4","NAN","0.0"],
    [1536668,"2026-01-09 16:10:00","48424","2.359","258.5","7.546","299.4","1011.2460000000001","16.21","34.84","NAN","0.0"],
    [1536669,"2026-01-09 16:20:00","48425","3.3289999999999997","273.4","9.83","289.0","1011.808","16.07","37.16","NAN","0.0"],
    [1536670,"2026-01-09 16:30:00","48426","3.057","254.0","8.53","272.7","1011.773","14.45","48.61","NAN","0.0"],
    [1536671,"2026-01-09 16:40:00","48427","3.133","252.9","7.513","238.8","1011.367","13.54","52","NAN","0.0"],
    [1536672,"2026-01-09 16:50:00","48428","2.9610000000000003","253.3","8.04","229.3","1011.2410000000001","13.6","47.53","NAN","0.0"],
    [1536673,"2026-01-09 17:00:00","48429","2.983","258.0","8.13","281.8","1011.196","13.72","43.21","NAN","0.0"],
    [1536674,"2026-01-09 17:10:00","48430","3.54","257.1","8.0","314.9","1011.191","13.68","40.58","NAN","0.0"],
    [1536675,"2026-01-09 17:20:00","48431","3.032","242.9","8.1","265.3","1011.206","13.62","39.11","NAN","0.0"],
    [1536676,"2026-01-09 17:30:00","48432","3.46","242.2","7.644","224.6","1011.066","13.6","36.78","NAN","0.0"],
    [1536677,"2026-01-09 17:40:00","48433","2.9360000000000004","250.8","8.3","249.3","1011.4010000000001","13.65","34.68","NAN","0.0"],
    [1536678,"2026-01-09 17:50:00","48434","3.1310000000000002","278.0","8.0","303.6","1012.0189999999999","13.52","34.28","NAN","0.0"],
    [1536679,"2026-01-09 18:00:00","48435","2.616","273.7","5.847","258.3","1012.2080000000001","13.42","33.88","NAN","0.0"],
    [1536680,"2026-01-09 18:10:00","48436","2.488","279.9","7.285","288.8","1012.444","13.32","33.61","NAN","0.0"],
    [1536681,"2026-01-09 18:20:00","48437","3.029","278.1","7.35","290.2","1012.7130000000001","13.12","34.15","NAN","0.0"],
    [1536682,"2026-01-09 18:30:00","48438","2.98","281.7","7.6770000000000005","287.0","1012.6460000000001","12.78","35.98","NAN","0.0"],
    [1536683,"2026-01-09 18:40:00","48439","3.418","276.9","10.49","302.5","1012.497","12.52","37.45","NAN","0.0"],
    [1536684,"2026-01-09 18:50:00","48440","2.068","280.1","6.697","275.3","1012.648","12.27","38.97","NAN","0.0"],
    [1536685,"2026-01-09 19:00:00","48441","2.292","289.8","5.912999999999999","291.6","1012.802","12.05","40.48","NAN","0.0"],
    [1536686,"2026-01-09 19:10:00","48442","2.5989999999999998","275.6","7.579","271.3","1012.919","11.85","41.78","NAN","0.0"],
    [1536687,"2026-01-09 19:20:00","48443","3.0189999999999997","281.9","7.807","220.8","1013.025","11.68","42.86","NAN","0.0"],
    [1536688,"2026-01-09 19:30:00","48444","2.753","277.1","7.644","301.4","1013.2339999999999","11.54","43.8","NAN","0.0"],
    [1536689,"2026-01-09 19:40:00","48445","2.363","273.5","5.88","273.9","1013.174","11.42","44.22","NAN","0.0"],
    [1536690,"2026-01-09 19:50:00","48446","2.254","277.8","5.782","267.1","1013.3760000000001","11.39","44.14","NAN","0.0"],
    [1536691,"2026-01-09 20:00:00","48447","1.972","273.9","5.129","305.0","1013.523","11.29","44.02","NAN","0.0"],
    [1536692,"2026-01-09 20:10:00","48448","1.891","275.2","5.88","291.0","1013.52","11.13","44.41","NAN","0.0"],
    [1536693,"2026-01-09 20:20:00","48449","2.512","273.0","6.957999999999999","270.9","1013.477","11.05","44.36","NAN","0.0"],
    [1536694,"2026-01-09 20:30:00","48450","2.523","273.0","6.86","251.3","1013.6030000000001","10.99","44","NAN","0.0"],
    [1536695,"2026-01-09 20:40:00","48451","1.8130000000000002","274.2","5.782","253.3","1013.785","10.9","43.43","NAN","0.0"],
    [1536696,"2026-01-09 20:50:00","48452","2.396","278.5","6.042999999999999","316.3","1013.85","10.8","42.77","NAN","0.0"],
    [1536697,"2026-01-09 21:00:00","48453","2.573","292.4","6.501","246.7","1013.993","10.75","42.41","NAN","0.0"],
    [1536698,"2026-01-09 21:10:00","48454","3.068","286.4","7.35","272.4","1013.905","10.65","42.43","NAN","0.0"],
    [1536699,"2026-01-09 21:20:00","48455","2.475","292.1","8.13","303.6","1013.823","10.54","42.78","NAN","0.0"],
    [1536700,"2026-01-09 21:30:00","48456","2.381","317.3","8.33","340.0","1013.7260000000001","10.42","43.47","NAN","0.0"],
    [1536701,"2026-01-09 21:40:00","48457","3.286","318.2","11.96","305.6","1013.707","10.31","44.25","NAN","0.0"],
    [1536702,"2026-01-09 21:50:00","48458","3.0260000000000002","307.3","8.36","314.4","1013.904","10.24","44.68","NAN","0.0"],
    [1536703,"2026-01-09 22:00:00","48459","3.326","309.8","11.89","279.5","1013.988","10.2","44.94","NAN","0.0"],
    [1536704,"2026-01-09 22:10:00","48460","3.1189999999999998","309.4","8.82","345.6","1014.096","10.14","45.43","NAN","0.0"],
    [1536705,"2026-01-09 22:20:00","48461","2.8819999999999997","308.2","8.33","325.0","1014.178","10.03","46.42","NAN","0.0"],
    [1536706,"2026-01-09 22:30:00","48462","3.0780000000000003","317.0","8.62","312.2","1014.3689999999999","9.92","46.91","NAN","0.0"],
    [1536707,"2026-01-09 22:40:00","48463","2.7230000000000003","304.0","7.971","291.3","1014.63","9.78","47.61","NAN","0.0"],
    [1536708,"2026-01-09 22:50:00","48464","2.45","298.1","8.95","283.7","1014.715","9.66","48.22","NAN","0.0"],
    [1536709,"2026-01-09 23:00:00","48465","2.194","296.0","8.13","266.0","1014.832","9.57","48.88","NAN","0.0"],
    [1536710,"2026-01-09 23:10:00","48466","2.3040000000000003","304.9","7.84","300.1","1014.9119999999999","9.45","49.52","NAN","0.0"],
    [1536711,"2026-01-09 23:20:00","48467","2.842","287.5","8.89","284.6","1015.01","9.41","49.92","NAN","0.0"],
    [1536712,"2026-01-09 23:30:00","48468","2.25","310.1","9.34","325.0","1014.9780000000001","9.32","50.67","NAN","0.0"],
    [1536713,"2026-01-09 23:40:00","48469","2.772","305.7","8.23","322.0","1014.86","9.22","51.32","NAN","0.0"],
    [1536714,"2026-01-09 23:50:00","48470","2.638","315.4","8.17","345.3","1014.8610000000001","9.18","51.61","NAN","0.0"],
    [1536715,"2026-01-10 00:00:00","48471","2.722","306.7","9.83","314.6","1014.868","9.17","51.73","NAN","0.0"],
    [1536716,"2026-01-10 00:10:00","48472","2.969","315.1","9.83","319.6","1014.823","9.14","51.91","NAN","0.0"],
    [1536717,"2026-01-10 00:20:00","48473","2.611","313.0","8.1","306.2","1014.7139999999999","9.15","51.98","NAN","0.0"],
    [1536718,"2026-01-10 00:30:00","48474","3.091","316.0","9.93","311.6","1014.801","9.14","52.16","NAN","0.0"],
    [1536719,"2026-01-10 00:40:00","48475","2.434","308.5","7.285","331.9","1014.873","9.03","53.12","NAN","0.0"],
    [1536720,"2026-01-10 00:50:00","48476","2.764","307.8","7.546","318.6","1014.948","8.97","53.42","NAN","0.0"],
    [1536721,"2026-01-10 01:00:00","48477","3.072","304.1","7.84","296.1","1014.993","8.93","53.7","NAN","0.0"],
    [1536722,"2026-01-10 01:10:00","48478","2.175","300.1","9.8","273.2","1015.195","8.83","54.37","NAN","0.0"],
    [1536723,"2026-01-10 01:20:00","48479","2.909","303.6","9.38","311.1","1015.2360000000001","8.79","54.65","NAN","0.0"],
    [1536724,"2026-01-10 01:30:00","48480","2.094","299.1","8.13","296.7","1015.2919999999999","8.71","55.07","NAN","0.0"],
    [1536725,"2026-01-10 01:40:00","48481","2.092","284.0","6.272","306.8","1015.3989999999999","8.65","55.49","NAN","0.0"],
    [1536726,"2026-01-10 01:50:00","48482","2.824","281.2","8.36","270.6","1015.618","8.64","55.53","NAN","0.0"],
    [1536727,"2026-01-10 02:00:00","48483","2.431","288.3","7.382999999999999","312.3","1015.825","8.58","56.11","NAN","0.0"],
    [1536728,"2026-01-10 02:10:00","48484","2.504","293.3","8.89","300.3","1015.935","8.5","56.7","NAN","0.0"],
    [1536729,"2026-01-10 02:20:00","48485","2.255","283.2","5.912999999999999","268.0","1015.847","8.48","56.9","NAN","0.0"],
    [1536730,"2026-01-10 02:30:00","48486","2.45","277.8","5.749","253.4","1015.74","8.47","56.88","NAN","0.0"],
    [1536731,"2026-01-10 02:40:00","48487","3.128","281.1","9.96","317.0","1015.748","8.46","56.98","NAN","0.0"],
    [1536732,"2026-01-10 02:50:00","48488","2.205","283.0","8.04","326.3","1015.695","8.43","57.05","NAN","0.0"],
    [1536733,"2026-01-10 03:00:00","48489","2.239","305.7","8.36","307.8","1015.7130000000001","8.41","57.04","NAN","0.0"],
    [1536734,"2026-01-10 03:10:00","48490","2.345","308.2","5.815","316.2","1015.773","8.45","56.58","NAN","0.0"],
    [1536735,"2026-01-10 03:20:00","48491","2.736","303.0","8.17","301.2","1015.802","8.47","56.41","NAN","0.0"],
    [1536736,"2026-01-10 03:30:00","48492","2.843","311.9","6.957999999999999","331.3","1015.847","8.42","56.85","NAN","0.0"],
    [1536737,"2026-01-10 03:40:00","48493","2.667","321.5","7.187","317.6","1015.977","8.38","57.06","NAN","0.0"],
    [1536738,"2026-01-10 03:50:00","48494","1.8559999999999999","292.3","7.317","330.6","1015.977","8.34","57.12","NAN","0.0"],
    [1536739,"2026-01-10 04:00:00","48495","2.464","295.4","8.3","310.4","1015.967","8.38","57.06","NAN","0.0"],
    [1536740,"2026-01-10 04:10:00","48496","2.106","317.1","5.912999999999999","335.1","1015.867","8.32","57.32","NAN","0.0"],
    [1536741,"2026-01-10 04:20:00","48497","2.785","328.1","6.468","325.0","1016.212","8.26","57.8","NAN","0.0"],
    [1536742,"2026-01-10 04:30:00","48498","2.502","330.3","8.33","322.4","1016.316","8.21","58.13","NAN","0.0"],
    [1536743,"2026-01-10 04:40:00","48499","2.8089999999999997","320.3","8.07","305.7","1016.3560000000001","8.11","58.52","NAN","0.0"],
    [1536744,"2026-01-10 04:50:00","48500","2.073","333.2","6.827000000000001","322.2","1016.2280000000001","8.04","58.67","NAN","0.0"],
    [1536745,"2026-01-10 05:00:00","48501","1.0590000000000002","325.6","5.031000000000001","307.1","1016.2310000000001","7.88","59.19","NAN","0.0"],
    [1536746,"2026-01-10 05:10:00","48502","2.0340000000000003","335.2","6.305","315.9","1016.543","7.938","58.93","NAN","0.0"],
    [1536747,"2026-01-10 05:20:00","48503","1.5759999999999998","338.3","4.737","314.5","1016.709","7.867","59.27","NAN","0.0"],
    [1536748,"2026-01-10 05:30:00","48504","2.0909999999999997","332.3","5.031000000000001","322.3","1016.7819999999999","7.841","59.28","NAN","0.0"],
    [1536749,"2026-01-10 05:40:00","48505","2.352","324.0","8.75","298.2","1016.7919999999999","7.801","59.35","NAN","0.0"],
    [1536750,"2026-01-10 05:50:00","48506","2.371","314.6","7.218999999999999","307.8","1016.836","7.743","59.91","NAN","0.0"],
    [1536751,"2026-01-10 06:00:00","48507","2.267","311.9","6.141","297.5","1016.919","7.723","60.07","NAN","0.0"],
    [1536752,"2026-01-10 06:10:00","48508","2.281","317.5","5.782","328.5","1017.063","7.737","59.69","NAN","0.0"],
    [1536753,"2026-01-10 06:20:00","48509","2.946","328.7","6.207000000000001","315.3","1017.211","7.767","59.56","NAN","0.0"],
    [1536754,"2026-01-10 06:30:00","48510","2.184","327.8","5.88","315.4","1017.337","7.714","59.71","NAN","0.0"],
    [1536755,"2026-01-10 06:40:00","48511","2.4659999999999997","329.8","6.893","324.1","1017.317","7.668","59.86","NAN","0.0"],
    [1536756,"2026-01-10 06:50:00","48512","2.156","327.2","5.227","300.8","1017.34","7.687","59.86","NAN","0.0"],
    [1536757,"2026-01-10 07:00:00","48513","2.846","322.0","9.8","312.1","1017.3919999999999","7.709","59.67","NAN","0.0"],
    [1536758,"2026-01-10 07:10:00","48514","1.879","307.6","7.6770000000000005","306.5","1017.49","7.641","60.06","NAN","0.0"],
    [1536759,"2026-01-10 07:20:00","48515","1.922","308.9","6.305","306.8","1017.683","7.666","60.21","NAN","0.0"],
    [1536760,"2026-01-10 07:30:00","48516","2.1109999999999998","315.8","5.7170000000000005","322.4","1017.779","7.679","60.46","NAN","0.0"],
    [1536761,"2026-01-10 07:40:00","48517","2.428","320.6","6.207000000000001","287.3","1017.898","7.722","60.47","NAN","0.0"],
    [1536762,"2026-01-10 07:50:00","48518","2.544","326.2","5.7170000000000005","315.2","1018.035","7.77","60.34","NAN","0.0"],
    [1536763,"2026-01-10 08:00:00","48519","1.675","328.3","5.847","311.4","1018.2819999999999","7.837","60.17","NAN","0.0"],
    [1536764,"2026-01-10 08:10:00","48520","2.145","322.1","5.978","316.8","1018.4810000000001","7.936","59.94","NAN","0.0"],
    [1536765,"2026-01-10 08:20:00","48521","1.8030000000000002","302.2","4.835","337.1","1018.765","8","59.8","NAN","0.0"],
    [1536766,"2026-01-10 08:30:00","48522","1.963","296.0","6.37","313.2","1018.95","8.07","59.73","NAN","0.0"],
    [1536767,"2026-01-10 08:40:00","48523","1.6159999999999999","312.3","4.41","309.5","1019.1289999999999","8.2","59.31","NAN","0.0"],
    [1536768,"2026-01-10 08:50:00","48524","1.286","291.7","4.279","283.4","1019.405","8.49","58.34","NAN","0.0"],
    [1536769,"2026-01-10 09:00:00","48525","1.355","325.7","5.455","323.1","1019.717","8.74","57.34","NAN","0.0"],
    [1536770,"2026-01-10 09:10:00","48526","1.285","330.5","2.875","350.9","1019.818","8.77","57.24","NAN","0.0"],
    [1536771,"2026-01-10 09:20:00","48527","1.2009999999999998","275.9","3.92","235.8","1019.88","9.18","55.79","NAN","0.0"],
    [1536772,"2026-01-10 09:30:00","48528","0.726","309.8","3.103","305.5","1019.936","9.36","54.97","NAN","0.0"],
    [1536773,"2026-01-10 09:40:00","48529","0.831","318.2","3.234","319.2","1020.025","9.5","54.6","NAN","0.0"],
    [1536774,"2026-01-10 09:50:00","48530","0.996","295.7","2.417","307.3","1020.087","9.53","54.55","NAN","0.0"],
    [1536775,"2026-01-10 10:00:00","48531","0.76","35.3","2.287","299.3","1020.1210000000001","9.96","53.31","NAN","0.0"],
    [1536776,"2026-01-10 10:10:00","48532","1.578","256.7","3.7569999999999997","221.5","1020.137","10.1","52.48","NAN","0.0"],
    [1536777,"2026-01-10 10:20:00","48533","1.7109999999999999","248.7","3.6260000000000003","221.9","1019.998","10.04","52.91","NAN","0.0"],
    [1536778,"2026-01-10 10:30:00","48534","1.464","257.0","4.573","228.0","1019.9010000000001","10.25","52.61","NAN","0.0"],
    [1536779,"2026-01-10 10:40:00","48535","2.127","267.1","4.835","255.1","1019.903","10.26","52.3","NAN","0.0"],
    [1536780,"2026-01-10 10:50:00","48536","2.205","258.2","5.1610000000000005","288.8","1019.7710000000001","10.41","52.41","NAN","0.0"],
    [1536781,"2026-01-10 11:00:00","48537","2.158","264.0","6.1739999999999995","293.2","1019.684","10.81","51.45","NAN","0.0"],
    [1536782,"2026-01-10 11:10:00","48538","2.089","273.8","6.468","299.6","1019.6569999999999","11.08","50.54","NAN","0.0"],
    [1536783,"2026-01-10 11:20:00","48539","2.064","282.1","6.37","281.9","1019.398","11.28","49.97","NAN","0.0"],
    [1536784,"2026-01-10 11:30:00","48540","2.266","298.4","5.978","343.5","1019.273","11.56","49.11","NAN","0.0"],
    [1536785,"2026-01-10 11:40:00","48541","2.519","297.5","6.109","299.6","1019.1110000000001","11.65","48.43","NAN","0.0"],
    [1536786,"2026-01-10 11:50:00","48542","2.057","298.1","5.194","279.6","1018.842","11.84","48.01","NAN","0.0"],
    [1536787,"2026-01-10 12:00:00","48543","1.8980000000000001","282.3","7.056","291.2","1018.7130000000001","12.23","46.59","NAN","0.0"],
    [1536788,"2026-01-10 12:10:00","48544","3.29","275.1","8.26","279.1","1018.6060000000001","12.17","45.91","NAN","0.0"],
    [1536789,"2026-01-10 12:20:00","48545","2.214","287.3","8.1","273.7","1018.404","12.44","44.99","NAN","0.0"],
    [1536790,"2026-01-10 12:30:00","48546","2.2569999999999997","290.5","6.337000000000001","312.3","1018.16","12.69","44.2","NAN","0.0"],
    [1536791,"2026-01-10 12:40:00","48547","2.312","280.5","5.684","254.0","1017.995","12.79","43.87","NAN","0.0"],
    [1536792,"2026-01-10 12:50:00","48548","3.2030000000000003","285.3","7.611000000000001","279.4","1017.811","12.89","43.01","NAN","0.0"],
    [1536793,"2026-01-10 13:00:00","48549","2.611","293.7","7.611000000000001","302.2","1017.822","13.09","42.57","NAN","0.0"],
    [1536794,"2026-01-10 13:10:00","48550","3.3110000000000004","288.1","9.57","289.2","1017.799","13.19","42.39","NAN","0.0"],
    [1536795,"2026-01-10 13:20:00","48551","2.549","266.8","7.938","246.9","1017.682","13.39","41.23","NAN","0.0"],
    [1536796,"2026-01-10 13:30:00","48552","2.4819999999999998","289.9","8.04","283.5","1017.56","13.47","40.92","NAN","0.0"],
    [1536797,"2026-01-10 13:40:00","48553","2.416","291.5","8.04","282.3","1017.4580000000001","13.56","40.88","NAN","0.0"],
    [1536798,"2026-01-10 13:50:00","48554","2.12","304.0","6.337000000000001","318.9","1017.375","13.67","40.82","NAN","0.0"],
    [1536799,"2026-01-10 14:00:00","48555","2.7760000000000002","291.9","8.17","267.4","1017.3810000000001","13.78","40.95","NAN","0.0"],
    [1536800,"2026-01-10 14:10:00","48556","2.358","280.2","7.056","275.0","1017.518","13.69","41.76","NAN","0.0"],
    [1536801,"2026-01-10 14:20:00","48557","1.6740000000000002","290.9","4.769","323.2","1017.553","13.91","41.58","NAN","0.0"],
    [1536802,"2026-01-10 14:30:00","48558","1.774","289.3","4.4430000000000005","235.5","1017.6569999999999","13.93","41.76","NAN","0.0"],
    [1536803,"2026-01-10 14:40:00","48559","2.39","294.3","6.207000000000001","244.8","1017.6669999999999","13.81","42.95","NAN","0.0"],
    [1536804,"2026-01-10 14:50:00","48560","2.676","279.3","6.893","287.5","1017.704","13.77","43.55","NAN","0.0"],
    [1536805,"2026-01-10 15:00:00","48561","2.299","266.2","5.749","268.4","1017.672","13.66","44.23","NAN","0.0"],
    [1536806,"2026-01-10 15:10:00","48562","2.658","273.9","5.325","258.1","1017.6489999999999","13.56","44.74","NAN","0.0"],
    [1536807,"2026-01-10 15:20:00","48563","2.1","278.0","5.782","305.9","1017.627","13.52","44.97","NAN","0.0"],
    [1536808,"2026-01-10 15:30:00","48564","1.734","279.7","5.4879999999999995","261.3","1017.6669999999999","13.56","44.78","NAN","0.0"],
    [1536809,"2026-01-10 15:40:00","48565","1.845","285.5","4.802","261.2","1017.674","13.52","44.93","NAN","0.0"],
    [1536810,"2026-01-10 15:50:00","48566","1.923","279.7","5.684","291.4","1017.685","13.47","45.15","NAN","0.0"],
    [1536811,"2026-01-10 16:00:00","48567","1.3840000000000001","277.9","4.638999999999999","291.2","1017.812","13.43","45.27","NAN","0.0"],
    [1536812,"2026-01-10 16:10:00","48568","1.8419999999999999","262.1","5.325","284.1","1017.904","13.36","45.47","NAN","0.0"],
    [1536813,"2026-01-10 16:20:00","48569","1.619","255.6","4.606","287.3","1018.041","13.27","45.96","NAN","0.0"],
    [1536814,"2026-01-10 16:30:00","48570","1.137","258.5","4.508","294.4","1018.2","13.17","46.41","NAN","0.0"],
    [1536815,"2026-01-10 16:40:00","48571","1.2790000000000001","256.3","4.149","272.5","1018.315","13.09","46.63","NAN","0.0"],
    [1536816,"2026-01-10 16:50:00","48572","1.4980000000000002","268.1","4.247","298.0","1018.382","12.98","46.89","NAN","0.0"],
    [1536817,"2026-01-10 17:00:00","48573","1.381","260.4","2.907","295.6","1018.4939999999999","12.9","47.07","NAN","0.0"],
    [1536818,"2026-01-10 17:10:00","48574","1.2670000000000001","246.4","3.201","276.1","1018.6010000000001","12.72","47.57","NAN","0.0"],
    [1536819,"2026-01-10 17:20:00","48575","1.486","256.7","4.802","271.9","1018.587","12.64","47.69","NAN","0.0"],
    [1536820,"2026-01-10 17:30:00","48576","2.147","274.7","5.684","257.6","1018.554","12.6","47.52","NAN","0.0"],
    [1536821,"2026-01-10 17:40:00","48577","1.4069999999999998","276.3","4.41","291.7","1018.66","12.51","47.65","NAN","0.0"],
    [1536822,"2026-01-10 17:50:00","48578","1.3840000000000001","264.3","3.7889999999999997","234.9","1018.7539999999999","12.38","47.99","NAN","0.0"],
    [1536823,"2026-01-10 18:00:00","48579","1.806","257.6","4.475","291.5","1018.7919999999999","12.38","47.81","NAN","0.0"],
    [1536824,"2026-01-10 18:10:00","48580","2.2119999999999997","261.0","6.337000000000001","275.9","1018.785","12.22","48.44","NAN","0.0"],
    [1536825,"2026-01-10 18:20:00","48581","1.804","275.0","4.345","253.1","1018.8689999999999","12.23","48.48","NAN","0.0"],
    [1536826,"2026-01-10 18:30:00","48582","1.844","288.9","5.847","332.3","1018.9169999999999","12.14","48.8","NAN","0.0"],
    [1536827,"2026-01-10 18:40:00","48583","1.439","287.9","4.835","279.0","1018.953","11.98","49.4","NAN","0.0"],
    [1536828,"2026-01-10 18:50:00","48584","1.705","273.4","4.933","308.6","1019.03","11.85","49.84","NAN","0.0"],
    [1536829,"2026-01-10 19:00:00","48585","1.496","274.0","4.867","291.7","1019.22","11.79","50.07","NAN","0.0"],
    [1536830,"2026-01-10 19:10:00","48586","1.284","283.0","3.1689999999999996","289.4","1019.346","11.71","50.28","NAN","0.0"],
    [1536831,"2026-01-10 19:20:00","48587","0.6579999999999999","334.2","2.221","327.3","1019.4910000000001","11.58","50.85","NAN","0.0"],
    [1536832,"2026-01-10 19:30:00","48588","0.622","334.6","2.385","329.4","1019.4739999999999","11.4","51.53","NAN","0.0"],
    [1536833,"2026-01-10 19:40:00","48589","1.062","288.9","4.802","309.1","1019.4989999999999","11.19","52.27","NAN","0.0"],
    [1536834,"2026-01-10 19:50:00","48590","1.314","312.2","4.4430000000000005","302.9","1019.6460000000001","11.25","52.15","NAN","0.0"],
    [1536835,"2026-01-10 20:00:00","48591","1.125","297.9","3.365","321.9","1019.7080000000001","11.12","52.61","NAN","0.0"],
    [1536836,"2026-01-10 20:10:00","48592","1.13","291.2","3.0380000000000003","252.4","1019.71","10.93","53.26","NAN","0.0"],
    [1536837,"2026-01-10 20:20:00","48593","1.545","278.6","3.5610000000000004","297.5","1019.7180000000001","10.95","53.02","NAN","0.0"],
    [1536838,"2026-01-10 20:30:00","48594","1.2309999999999999","247.2","4.181","273.8","1019.717","10.76","53.67","NAN","0.0"],
    [1536839,"2026-01-10 20:40:00","48595","0.823","287.9","3.6260000000000003","303.5","1019.71","10.67","54","NAN","0.0"],
    [1536840,"2026-01-10 20:50:00","48596","1.102","283.5","3.103","344.1","1019.7180000000001","10.62","54.08","NAN","0.0"],
    [1536841,"2026-01-10 21:00:00","48597","0.833","263.4","3.43","241.1","1019.628","10.48","54.27","NAN","0.0"],
    [1536842,"2026-01-10 21:10:00","48598","1.104","272.2","2.8089999999999997","315.6","1019.665","10.49","54.11","NAN","0.0"],
    [1536843,"2026-01-10 21:20:00","48599","1.358","261.3","4.181","254.3","1019.671","10.55","53.26","NAN","0.0"],
    [1536844,"2026-01-10 21:30:00","48600","1.745","280.8","4.247","266.1","1019.659","10.61","52.76","NAN","0.0"],
    [1536845,"2026-01-10 21:40:00","48601","1.29","279.4","3.659","261.3","1019.5369999999999","10.48","53.45","NAN","0.0"],
    [1536846,"2026-01-10 21:50:00","48602","1.473","288.0","3.299","303.0","1019.66","10.32","54.08","NAN","0.0"],
    [1536847,"2026-01-10 22:00:00","48603","0.768","326.3","3.332","284.5","1019.748","10.54","52.28","NAN","0.0"],
    [1536848,"2026-01-10 22:10:00","48604","0.9540000000000001","135.8","2.45","141.3","1019.8610000000001","10.16","54.49","NAN","0.0"],
    [1536849,"2026-01-10 22:20:00","48605","1.9880000000000002","81.3","3.593","78.77","1020.065","10.06","56.95","NAN","0.0"],
    [1536850,"2026-01-10 22:30:00","48606","1.526","73.48","3.7889999999999997","50.35","1020.182","9.87","58.54","NAN","0.0"],
    [1536851,"2026-01-10 22:40:00","48607","1.06","58.43","2.123","25.29","1020.36","9.54","58.33","NAN","0.0"],
    [1536852,"2026-01-10 22:50:00","48608","0.871","50.88","1.699","47.24","1020.431","9.28","59.22","NAN","0.0"],
    [1536853,"2026-01-10 23:00:00","48609","0.8029999999999999","16.29","2.0580000000000003","12.57","1020.419","8.93","60.77","NAN","0.0"],
    [1536854,"2026-01-10 23:10:00","48610","0.938","350.3","1.829","4.166","1020.564","9","60.58","NAN","0.0"],
    [1536855,"2026-01-10 23:20:00","48611","1.24","6.672999999999999","2.515","9.12","1020.4639999999999","8.93","61.05","NAN","0.0"],
    [1536856,"2026-01-10 23:30:00","48612","1.381","3.404","2.352","17.24","1020.5369999999999","8.69","62.21","NAN","0.0"],
    [1536857,"2026-01-10 23:40:00","48613","1.5619999999999998","4.702","2.875","34.38","1020.4910000000001","8.66","62.43","NAN","0.0"],
    [1536858,"2026-01-10 23:50:00","48614","1.284","358.6","2.385","314.1","1020.512","8.66","62.32","NAN","0.0"],
    [1536859,"2026-01-11 00:00:00","48615","1.123","355.3","2.287","0.639","1020.689","8.82","61.24","NAN","0.0"],
    [1536860,"2026-01-11 00:10:00","48616","1.024","348.3","1.993","319.8","1020.691","8.74","61.48","NAN","0.0"],
    [1536861,"2026-01-11 00:20:00","48617","0.767","335.3","2.0580000000000003","323.5","1020.678","8.78","61.29","NAN","0.0"],
    [1536862,"2026-01-11 00:30:00","48618","0.5479999999999999","321.6","1.7309999999999999","319.0","1020.7510000000001","8.88","60.48","NAN","0.0"],
    [1536863,"2026-01-11 00:40:00","48619","0.39799999999999996","322.5","1.143","323.8","1020.696","8.86","60.33","NAN","0.0"],
    [1536864,"2026-01-11 00:50:00","48620","0.595","25.23","1.47","8.18","1020.698","8.43","62.66","NAN","0.0"],
    [1536865,"2026-01-11 01:00:00","48621","0.919","18.6","1.666","15.29","1020.7710000000001","8.16","63.88","NAN","0.0"],
    [1536866,"2026-01-11 01:10:00","48622","0.7","11.71","1.405","9.94","1020.8380000000001","7.946","65.05","NAN","0.0"],
    [1536867,"2026-01-11 01:20:00","48623","1.056","15.69","2.319","17.64","1021.003","7.87","65.51","NAN","0.0"],
    [1536868,"2026-01-11 01:30:00","48624","1.0659999999999998","5.289","2.907","38.05","1021.007","8.03","65.13","NAN","0.0"],
    [1536869,"2026-01-11 01:40:00","48625","0.502","359.3","0.9470000000000001","4.8389999999999995","1021.195","7.963","65.87","NAN","0.0"],
    [1536870,"2026-01-11 01:50:00","48626","0.603","16.58","1.2409999999999999","25.45","1021.321","8.17","65.73","NAN","0.0"],
    [1536871,"2026-01-11 02:00:00","48627","0.779","17.42","1.568","41.52","1021.3610000000001","8.23","65.76","NAN","0.0"],
    [1536872,"2026-01-11 02:10:00","48628","0.738","19.98","1.666","25.5","1021.4580000000001","8.22","65.93","NAN","0.0"],
    [1536873,"2026-01-11 02:20:00","48629","0.38","54.94","1.307","75.02","1021.615","8.09","66.85","NAN","0.0"],
    [1536874,"2026-01-11 02:30:00","48630","0.455","55.86","1.3719999999999999","83.4","1021.693","7.899","68.27","NAN","0.0"],
    [1536875,"2026-01-11 02:40:00","48631","0.22699999999999998","76.33","0.784","88.0","1021.747","7.899","68.5","NAN","0.0"],
    [1536876,"2026-01-11 02:50:00","48632","0.313","55.7","0.8490000000000001","76.66","1021.84","7.878","68.55","NAN","0.0"],
    [1536877,"2026-01-11 03:00:00","48633","0.287","3.759","0.8170000000000001","29.68","1021.939","8.09","67.87","NAN","0.0"],
    [1536878,"2026-01-11 03:10:00","48634","0.565","28.03","1.078","32.77","1021.944","8.56","66.17","NAN","0.0"],
    [1536879,"2026-01-11 03:20:00","48635","0.638","26.34","1.078","24.32","1021.967","8.52","65.97","NAN","0.0"],
    [1536880,"2026-01-11 03:30:00","48636","0.675","1.912","1.274","0.192","1022.0160000000001","8.54","65.96","NAN","0.0"],
    [1536881,"2026-01-11 03:40:00","48637","0.7120000000000001","12.37","1.4369999999999998","44.82","1022.0419999999999","8.59","65.8","NAN","0.0"],
    [1536882,"2026-01-11 03:50:00","48638","0.7709999999999999","10.57","1.2409999999999999","25.17","1022.066","8.52","66.1","NAN","0.0"],
    [1536883,"2026-01-11 04:00:00","48639","0.833","6.319","1.307","352.9","1022.064","8.51","66.05","NAN","0.0"],
    [1536884,"2026-01-11 04:10:00","48640","0.7340000000000001","10.35","1.274","8.67","1022.064","8.43","66.2","NAN","0.0"],
    [1536885,"2026-01-11 04:20:00","48641","0.629","3.4730000000000003","1.078","3.717","1022.1060000000001","8.39","66.7","NAN","0.0"],
    [1536886,"2026-01-11 04:30:00","48642","0.561","6.901","1.045","15.62","1022.171","8.47","66.74","NAN","0.0"],
    [1536887,"2026-01-11 04:40:00","48643","0.6809999999999999","3.4789999999999996","1.601","4.92","1022.181","8.56","66.26","NAN","0.0"],
    [1536888,"2026-01-11 04:50:00","48644","0.634","1.7409999999999999","1.3719999999999999","358.8","1022.2280000000001","8.71","65.23","NAN","0.0"],
    [1536889,"2026-01-11 05:00:00","48645","0.531","7.108","1.045","357.7","1022.305","8.74","65.34","NAN","0.0"],
    [1536890,"2026-01-11 05:10:00","48646","0.785","342.4","2.221","308.5","1022.425","8.92","62.8","NAN","0.0"],
    [1536891,"2026-01-11 05:20:00","48647","1.305","318.7","3.005","298.0","1022.47","9.3","56.91","NAN","0.0"],
    [1536892,"2026-01-11 05:30:00","48648","1.5419999999999998","320.0","3.299","302.0","1022.447","9.25","56.42","NAN","0.0"],
    [1536893,"2026-01-11 05:40:00","48649","1.136","327.3","2.7439999999999998","334.8","1022.475","9.16","57.19","NAN","0.0"],
    [1536894,"2026-01-11 05:50:00","48650","0.833","325.3","2.7439999999999998","328.7","1022.6569999999999","8.94","58.44","NAN","0.0"],
    [1536895,"2026-01-11 06:00:00","48651","1.158","337.8","3.299","339.5","1022.814","8.95","58.72","NAN","0.0"],
    [1536896,"2026-01-11 06:10:00","48652","1.068","325.2","2.7769999999999997","304.3","1022.916","8.72","59.75","NAN","0.0"],
    [1536897,"2026-01-11 06:20:00","48653","1.34","317.1","3.7239999999999998","312.3","1023.063","8.6","60.8","NAN","0.0"],
    [1536898,"2026-01-11 06:30:00","48654","1.295","324.3","2.9730000000000003","319.2","1023.128","8.64","60.75","NAN","0.0"],
    [1536899,"2026-01-11 06:40:00","48655","0.863","313.2","2.417","247.8","1023.304","8.58","60.83","NAN","0.0"],
    [1536900,"2026-01-11 06:50:00","48656","0.934","313.3","1.96","301.0","1023.297","8.6","60.68","NAN","0.0"],
    [1536901,"2026-01-11 07:00:00","48657","0.898","321.7","2.907","292.1","1023.352","8.46","61.35","NAN","0.0"],
    [1536902,"2026-01-11 07:10:00","48658","0.623","318.2","2.156","342.7","1023.4860000000001","8.44","61.87","NAN","0.0"],
    [1536903,"2026-01-11 07:20:00","48659","1.207","331.6","3.103","315.5","1023.529","8.45","62.22","NAN","0.0"],
    [1536904,"2026-01-11 07:30:00","48660","1.058","351.7","2.7769999999999997","310.4","1023.825","8.44","62.28","NAN","0.0"],
    [1536905,"2026-01-11 07:40:00","48661","1.335","328.1","3.201","312.6","1023.93","8.38","62.51","NAN","0.0"],
    [1536906,"2026-01-11 07:50:00","48662","0.655","332.0","1.699","322.5","1024.012","8.35","62.83","NAN","0.0"],
    [1536907,"2026-01-11 08:00:00","48663","1.29","328.3","3.822","341.0","1024.022","8.42","62.67","NAN","0.0"],
    [1536908,"2026-01-11 08:10:00","48664","1.077","339.5","2.548","317.7","1024.059","8.48","62.38","NAN","0.0"],
    [1536909,"2026-01-11 08:20:00","48665","0.716","346.8","2.385","310.2","1024.047","8.63","61.99","NAN","0.0"],
    [1536910,"2026-01-11 08:30:00","48666","1.159","328.6","2.6460000000000004","297.2","1024.015","8.88","60.97","NAN","0.0"],
    [1536911,"2026-01-11 08:40:00","48667","0.489","309.5","1.797","329.4","1024.059","9.2","60.12","NAN","0.0"],
    [1536912,"2026-01-11 08:50:00","48668","1.065","329.9","2.221","329.1","1024.099","9.56","58.99","NAN","0.0"],
    [1536913,"2026-01-11 09:00:00","48669","0.654","356.2","1.764","353.1","1024.2069999999999","9.87","57.59","NAN","0.0"],
    [1536914,"2026-01-11 09:10:00","48670","0.927","350.0","2.025","300.8","1024.2839999999999","9.97","56.75","NAN","0.0"],
    [1536915,"2026-01-11 09:20:00","48671","0.679","338.7","2.156","1.044","1024.392","10.19","55.96","NAN","0.0"],
    [1536916,"2026-01-11 09:30:00","48672","0.7090000000000001","283.7","2.287","325.0","1024.5439999999999","10.41","55.54","NAN","0.0"],
    [1536917,"2026-01-11 09:40:00","48673","1.172","249.3","3.6260000000000003","233.3","1024.724","10.73","55.02","NAN","0.0"],
    [1536918,"2026-01-11 09:50:00","48674","1.099","240.1","2.679","260.3","1024.93","10.6","55.23","NAN","0.0"],
    [1536919,"2026-01-11 10:00:00","48675","1.113","261.4","3.0380000000000003","285.7","1024.974","10.87","54.05","NAN","0.0"],
    [1536920,"2026-01-11 10:10:00","48676","1.896","276.9","3.92","282.8","1024.902","10.74","53.25","NAN","0.0"],
    [1536921,"2026-01-11 10:20:00","48677","1.261","279.1","5.063","279.2","1024.7930000000001","10.9","52.39","NAN","0.0"],
    [1536922,"2026-01-11 10:30:00","48678","1.3359999999999999","302.3","3.6260000000000003","309.9","1024.902","11.2","51.33","NAN","0.0"],
    [1536923,"2026-01-11 10:40:00","48679","0.723","298.5","2.679","255.9","1024.912","11.53","50.52","NAN","0.0"],
    [1536924,"2026-01-11 10:50:00","48680","1.137","293.4","3.267","282.4","1024.827","11.91","48.73","NAN","0.0"],
    [1536925,"2026-01-11 11:00:00","48681","1.261","297.1","3.234","344.6","1024.663","11.8","48.98","NAN","0.0"],
    [1536926,"2026-01-11 11:10:00","48682","1.815","288.7","4.247","286.1","1024.6660000000002","11.68","49.3","NAN","0.0"],
    [1536927,"2026-01-11 11:20:00","48683","1.807","281.8","4.083","289.2","1024.619","11.77","47.77","NAN","0.0"],
    [1536928,"2026-01-11 11:30:00","48684","1.7280000000000002","263.9","4.018","238.3","1024.598","12.13","47.26","NAN","0.0"],
    [1536929,"2026-01-11 11:40:00","48685","1.39","305.5","4.541","327.3","1024.447","12.28","46.35","NAN","0.0"],
    [1536930,"2026-01-11 11:50:00","48686","1.61","283.7","3.201","280.8","1024.421","12.39","45.27","NAN","0.0"],
    [1536931,"2026-01-11 12:00:00","48687","1.4580000000000002","238.9","3.855","225.7","1024.3419999999999","12.86","43.71","NAN","0.0"],
    [1536932,"2026-01-11 12:10:00","48688","1.29","267.1","3.43","306.9","1024.1580000000001","12.94","43.57","NAN","0.0"],
    [1536933,"2026-01-11 12:20:00","48689","1.473","263.0","3.43","284.6","1024.165","13.09","43.32","NAN","0.0"],
    [1536934,"2026-01-11 12:30:00","48690","1.187","265.8","2.7110000000000003","254.8","1024.093","12.79","45.55","NAN","0.0"],
    [1536935,"2026-01-11 12:40:00","48691","0.8220000000000001","292.3","2.319","308.1","1023.9580000000001","13.1","45.59","NAN","0.0"],
    [1536936,"2026-01-11 12:50:00","48692","0.797","285.9","2.8089999999999997","332.8","1023.659","13.59","42.79","NAN","0.0"],
    [1536937,"2026-01-11 13:00:00","48693","1.27","299.6","3.365","319.8","1023.632","13.14","43.2","NAN","0.0"],
    [1536938,"2026-01-11 13:10:00","48694","1.2770000000000001","291.5","3.201","263.5","1023.433","13.13","43.86","NAN","0.0"],
    [1536939,"2026-01-11 13:20:00","48695","1.0659999999999998","254.7","2.6460000000000004","232.2","1023.3660000000001","13.36","44.5","NAN","0.0"],
    [1536940,"2026-01-11 13:30:00","48696","0.778","248.2","2.0909999999999997","303.9","1023.194","13.59","45","NAN","0.0"],
    [1536941,"2026-01-11 13:40:00","48697","1.8419999999999999","201.8","4.1160000000000005","182.3","1023.039","13.3","52.44","NAN","0.0"],
    [1536942,"2026-01-11 13:50:00","48698","1.4380000000000002","209.6","4.1160000000000005","174.9","1022.9169999999999","13.42","52.85","NAN","0.0"],
    [1536943,"2026-01-11 14:00:00","48699","1.9909999999999999","200.2","3.887","205.3","1022.743","13.01","54.78","NAN","0.0"],
    [1536944,"2026-01-11 14:10:00","48700","1.696","199.4","3.9530000000000003","206.0","1022.865","12.79","55.98","NAN","0.0"],
    [1536945,"2026-01-11 14:20:00","48701","1.555","200.9","3.201","189.5","1022.908","12.77","55.96","NAN","0.0"],
    [1536946,"2026-01-11 14:30:00","48702","1.281","209.9","2.907","193.8","1022.905","13.06","54.28","NAN","0.0"],
    [1536947,"2026-01-11 14:40:00","48703","2.6439999999999997","178.3","4.2139999999999995","177.1","1022.83","12.52","58.74","NAN","0.0"],
    [1536948,"2026-01-11 14:50:00","48704","2.314","179.2","4.018","184.9","1022.8480000000001","12.25","60.81","NAN","0.0"],
    [1536949,"2026-01-11 15:00:00","48705","2.209","183.8","4.1160000000000005","204.0","1022.932","12.35","59.72","NAN","0.0"],
    [1536950,"2026-01-11 15:10:00","48706","2.044","186.1","3.6910000000000003","179.9","1023.04","12.22","60.72","NAN","0.0"],
    [1536951,"2026-01-11 15:20:00","48707","1.911","181.0","3.528","174.5","1023.1260000000001","12.08","62.1","NAN","0.0"],
    [1536952,"2026-01-11 15:30:00","48708","1.411","181.3","2.8089999999999997","176.1","1023.154","12.11","62.04","NAN","0.0"],
    [1536953,"2026-01-11 15:40:00","48709","1.24","204.1","2.7769999999999997","234.2","1023.1410000000001","12.11","61.96","NAN","0.0"],
    [1536954,"2026-01-11 15:50:00","48710","1.16","218.7","2.842","227.3","1023.11","12.31","60.55","NAN","0.0"],
    [1536955,"2026-01-11 16:00:00","48711","1.36","228.4","2.7439999999999998","235.8","1023.194","12.39","59.3","NAN","0.0"],
    [1536956,"2026-01-11 16:10:00","48712","1.284","219.9","4.1160000000000005","200.5","1023.184","12.13","59.54","NAN","0.0"],
    [1536957,"2026-01-11 16:20:00","48713","1.314","219.1","2.7769999999999997","229.2","1023.237","11.88","60.09","NAN","0.0"],
    [1536958,"2026-01-11 16:30:00","48714","1.328","223.2","2.679","239.3","1023.307","11.56","61.7","NAN","0.0"],
    [1536959,"2026-01-11 16:40:00","48715","1.225","203.6","2.679","198.8","1023.2669999999999","11.43","63.08","NAN","0.0"],
    [1536960,"2026-01-11 16:50:00","48716","0.833","210.9","1.993","208.4","1023.206","11.19","64.37","NAN","0.0"],
    [1536961,"2026-01-11 17:00:00","48717","0.9329999999999999","201.2","2.6460000000000004","208.8","1023.2230000000001","10.99","65.5","NAN","0.0"],
    [1536962,"2026-01-11 17:10:00","48718","1.2790000000000001","221.7","2.417","239.5","1023.35","11.1","64.37","NAN","0.0"],
    [1536963,"2026-01-11 17:20:00","48719","0.9279999999999999","201.5","1.797","204.4","1023.335","11.01","65.37","NAN","0.0"],
    [1536964,"2026-01-11 17:30:00","48720","0.945","209.1","1.7309999999999999","237.3","1023.238","10.88","66.33","NAN","0.0"],
    [1536965,"2026-01-11 17:40:00","48721","0.672","253.2","1.699","226.8","1023.393","10.74","66.48","NAN","0.0"],
    [1536966,"2026-01-11 17:50:00","48722","1.139","234.2","2.254","258.2","1023.577","10.87","66.38","NAN","0.0"],
    [1536967,"2026-01-11 18:00:00","48723","0.7879999999999999","207.2","2.0909999999999997","251.1","1023.452","10.75","67.41","NAN","0.0"],
    [1536968,"2026-01-11 18:10:00","48724","1.117","253.6","2.319","247.8","1023.5369999999999","10.66","67.65","NAN","0.0"],
    [1536969,"2026-01-11 18:20:00","48725","1.1340000000000001","253.6","2.613","256.6","1023.6439999999999","10.7","67.61","NAN","0.0"],
    [1536970,"2026-01-11 18:30:00","48726","0.9109999999999999","233.8","2.0580000000000003","231.1","1023.7710000000001","10.65","68.07","NAN","0.0"],
    [1536971,"2026-01-11 18:40:00","48727","0.955","221.0","1.9269999999999998","245.2","1023.955","10.72","67.86","NAN","0.0"],
    [1536972,"2026-01-11 18:50:00","48728","0.9009999999999999","203.7","1.5030000000000001","194.0","1024.001","10.35","70.71","NAN","0.0"],
    [1536973,"2026-01-11 19:00:00","48729","1.139","220.5","1.895","235.7","1024.032","10.05","71.59","NAN","0.0"],
    [1536974,"2026-01-11 19:10:00","48730","1.135","222.2","1.895","225.8","1024.139","10.24","70.12","NAN","0.0"],
    [1536975,"2026-01-11 19:20:00","48731","1.335","225.2","2.221","225.2","1024.079","10.59","67.98","NAN","0.0"],
    [1536976,"2026-01-11 19:30:00","48732","0.937","220.7","2.0580000000000003","232.1","1024.225","10.35","67.9","NAN","0.0"],
    [1536977,"2026-01-11 19:40:00","48733","0.8690000000000001","239.8","1.699","239.1","1024.103","10.17","67.7","NAN","0.0"],
    [1536978,"2026-01-11 19:50:00","48734","1.003","247.8","1.764","254.9","1024.029","10.38","65.93","NAN","0.0"],
    [1536979,"2026-01-11 20:00:00","48735","0.8240000000000001","268.2","1.829","293.1","1023.873","10.35","65.75","NAN","0.0"],
    [1536980,"2026-01-11 20:10:00","48736","0.409","296.2","1.666","307.7","1023.85","10.6","64.99","NAN","0.0"],
    [1536981,"2026-01-11 20:20:00","48737","0.644","245.0","1.274","222.3","1023.825","10.32","66.26","NAN","0.0"],
    [1536982,"2026-01-11 20:30:00","48738","0.8809999999999999","227.3","1.405","232.7","1023.9630000000001","10.13","67.7","NAN","0.0"],
    [1536983,"2026-01-11 20:40:00","48739","0.57","237.1","1.405","241.2","1024.031","9.88","68.67","NAN","0.0"],
    [1536984,"2026-01-11 20:50:00","48740","0.746","227.4","1.4369999999999998","221.4","1024.15","9.58","70.16","NAN","0.0"],
    [1536985,"2026-01-11 21:00:00","48741","0.7020000000000001","242.7","1.405","244.7","1024.126","9.47","70.49","NAN","0.0"],
    [1536986,"2026-01-11 21:10:00","48742","0.8079999999999999","264.4","1.764","283.8","1024.173","9.87","68.74","NAN","0.0"],
    [1536987,"2026-01-11 21:20:00","48743","0.56","260.5","1.666","288.3","1024.171","10.25","66.21","NAN","0.0"],
    [1536988,"2026-01-11 21:30:00","48744","0.83","272.7","1.8619999999999999","229.7","1024.141","10.35","64.96","NAN","0.0"],
    [1536989,"2026-01-11 21:40:00","48745","0.755","276.5","1.797","304.6","1024.086","10.44","64.67","NAN","0.0"],
    [1536990,"2026-01-11 21:50:00","48746","0.605","253.0","1.5030000000000001","252.6","1024.039","10.18","65.49","NAN","0.0"],
    [1536991,"2026-01-11 22:00:00","48747","0.523","259.9","1.339","254.0","1024.0330000000001","9.95","66.24","NAN","0.0"],
    [1536992,"2026-01-11 22:10:00","48748","0.474","273.6","1.111","279.5","1023.954","9.84","67.43","NAN","0.0"],
    [1536993,"2026-01-11 22:20:00","48749","0.523","272.9","1.829","288.3","1023.954","9.97","66.19","NAN","0.0"],
    [1536994,"2026-01-11 22:30:00","48750","0.461","294.7","1.535","308.7","1023.9689999999999","10.32","63.14","NAN","0.0"],
    [1536995,"2026-01-11 22:40:00","48751","0.597","254.0","1.797","296.5","1023.941","10.27","62.98","NAN","0.0"],
    [1536996,"2026-01-11 22:50:00","48752","0.532","228.8","1.111","267.0","1024.01","9.96","64.32","NAN","0.0"],
    [1536997,"2026-01-11 23:00:00","48753","0.589","263.1","1.535","287.5","1023.836","9.7","66.25","NAN","0.0"],
    [1536998,"2026-01-11 23:10:00","48754","0.359","265.1","1.111","269.8","1023.9010000000001","9.93","65.06","NAN","0.0"],
    [1536999,"2026-01-11 23:20:00","48755","0.604","275.0","1.176","275.8","1023.785","9.92","65.31","NAN","0.0"],
    [1537000,"2026-01-11 23:30:00","48756","0.723","217.9","1.111","207.3","1023.7739999999999","9.94","65.74","NAN","0.0"],
    [1537001,"2026-01-11 23:40:00","48757","0.648","230.8","0.98","240.5","1023.688","9.29","69.85","NAN","0.0"],
    [1537002,"2026-01-11 23:50:00","48758","0.556","237.9","1.045","251.4","1023.763","9.08","71.02","NAN","0.0"],
    [1537003,"2026-01-12 00:00:00","48759","0.381","261.8","0.784","283.7","1023.671","9.36","70.23","NAN","0.0"],
    [1537004,"2026-01-12 00:10:00","48760","0.369","280.0","0.8490000000000001","278.3","1023.663","9.21","70.96","NAN","0.0"],
    [1537005,"2026-01-12 00:20:00","48761","0.336","241.1","0.6859999999999999","250.2","1023.69","9.25","71.24","NAN","0.0"],
    [1537006,"2026-01-12 00:30:00","48762","0.6409999999999999","215.5","1.078","225.5","1023.645","9.12","75.53","NAN","0.0"],
    [1537007,"2026-01-12 00:40:00","48763","0.518","226.0","0.8490000000000001","228.7","1023.502","8.87","75.02","NAN","0.0"],
    [1537008,"2026-01-12 00:50:00","48764","0.6579999999999999","209.8","0.9470000000000001","196.3","1023.414","8.74","74.83","NAN","0.0"],
    [1537009,"2026-01-12 01:00:00","48765","0.49200000000000005","206.5","1.013","191.2","1023.314","8.98","75.93","NAN","0.0"],
    [1537010,"2026-01-12 01:10:00","48766","0.467","255.7","1.307","242.7","1023.299","8.73","76.2","NAN","0.0"],
    [1537011,"2026-01-12 01:20:00","48767","0.705","246.6","1.601","259.9","1023.252","8.96","75.59","NAN","0.0"],
    [1537012,"2026-01-12 01:30:00","48768","0.71","238.5","1.47","241.0","1023.123","9.21","73.82","NAN","0.0"],
    [1537013,"2026-01-12 01:40:00","48769","0.785","217.4","1.307","222.7","1023.2460000000001","9.13","73.67","NAN","0.0"],
    [1537014,"2026-01-12 01:50:00","48770","0.716","219.9","1.2409999999999999","210.5","1023.425","9.16","73.59","NAN","0.0"],
    [1537015,"2026-01-12 02:00:00","48771","0.413","206.4","1.143","230.0","1023.439","9.21","73.38","NAN","0.0"],
    [1537016,"2026-01-12 02:10:00","48772","0.513","213.8","1.013","205.1","1023.332","9.32","73.04","NAN","0.0"],
    [1537017,"2026-01-12 02:20:00","48773","0.56","200.9","1.307","190.5","1023.51","9.29","74.23","NAN","0.0"],
    [1537018,"2026-01-12 02:30:00","48774","0.366","225.0","0.8170000000000001","204.6","1023.341","8.85","73.64","NAN","0.0"],
    [1537019,"2026-01-12 02:40:00","48775","0.204","224.9","1.209","222.8","1023.202","8.85","72.85","NAN","0.0"],
    [1537020,"2026-01-12 02:50:00","48776","0.337","228.4","1.274","252.9","1023.029","9.13","70.73","NAN","0.0"],
    [1537021,"2026-01-12 03:00:00","48777","0.532","179.6","1.307","161.9","1022.953","9.21","71.08","NAN","0.0"],
    [1537022,"2026-01-12 03:10:00","48778","0.13","1.7269999999999999","0.915","35.81","1022.9","9","71.28","NAN","0.0"],
    [1537023,"2026-01-12 03:20:00","48779","0.013000000000000001","4.7989999999999995","0.294","4.8069999999999995","1022.949","8.99","70.29","NAN","0.0"],
    [1537024,"2026-01-12 03:30:00","48780","0.429","143.6","1.078","160.0","1022.945","8.62","73.55","NAN","0.0"],
    [1537025,"2026-01-12 03:40:00","48781","0.34600000000000003","165.9","1.307","171.3","1022.791","8.42","76.21","NAN","0.0"],
    [1537026,"2026-01-12 03:50:00","48782","0.361","215.3","1.013","213.8","1022.5139999999999","8.16","77.6","NAN","0.0"],
    [1537027,"2026-01-12 04:00:00","48783","0.513","207.5","1.339","226.0","1022.4739999999999","7.803","77.13","NAN","0.0"],
    [1537028,"2026-01-12 04:10:00","48784","0.233","299.0","0.653","307.8","1022.313","7.511","75.22","NAN","0.0"],
    [1537029,"2026-01-12 04:20:00","48785","0.405","244.4","0.7509999999999999","274.0","1022.308","7.791","74.88","NAN","0.0"],
    [1537030,"2026-01-12 04:30:00","48786","0.527","252.1","1.2409999999999999","228.5","1022.318","8.08","73.38","NAN","0.0"],
    [1537031,"2026-01-12 04:40:00","48787","0.562","269.8","1.307","262.8","1022.315","8.58","69.93","NAN","0.0"],
    [1537032,"2026-01-12 04:50:00","48788","0.9790000000000001","281.4","1.9269999999999998","291.3","1022.315","9.47","65.61","NAN","0.0"],
    [1537033,"2026-01-12 05:00:00","48789","0.7809999999999999","272.4","2.0909999999999997","292.5","1022.315","9.28","65.86","NAN","0.0"],
    [1537034,"2026-01-12 05:10:00","48790","0.677","274.6","1.405","297.8","1022.331","9.41","65.39","NAN","0.0"],
    [1537035,"2026-01-12 05:20:00","48791","0.7390000000000001","274.6","1.307","292.6","1022.35","9.42","65.73","NAN","0.0"],
    [1537036,"2026-01-12 05:30:00","48792","0.774","267.6","1.699","280.6","1022.315","9.56","64.95","NAN","0.0"],
    [1537037,"2026-01-12 05:40:00","48793","1.025","275.7","1.666","291.4","1022.315","9.65","64.71","NAN","0.0"],
    [1537038,"2026-01-12 05:50:00","48794","0.8740000000000001","264.7","1.8619999999999999","287.1","1022.312","9.81","64","NAN","0.0"],
    [1537039,"2026-01-12 06:00:00","48795","0.5329999999999999","261.6","1.2409999999999999","247.5","1022.312","9.74","64.46","NAN","0.0"],
    [1537040,"2026-01-12 06:10:00","48796","0.619","275.3","1.209","291.2","1022.311","9.78","64.25","NAN","0.0"],
    [1537041,"2026-01-12 06:20:00","48797","0.444","243.2","0.98","246.4","1022.31","9.58","65.14","NAN","0.0"],
    [1537042,"2026-01-12 06:30:00","48798","0.387","257.3","1.078","276.6","1022.377","9.45","66.08","NAN","0.0"],
    [1537043,"2026-01-12 06:40:00","48799","0.7390000000000001","285.2","1.601","300.8","1022.3530000000001","9.45","66.27","NAN","0.0"],
    [1537044,"2026-01-12 06:50:00","48800","0.7809999999999999","286.7","1.568","286.1","1022.3910000000001","9.95","64.05","NAN","0.0"],
    [1537045,"2026-01-12 07:00:00","48801","0.852","303.0","1.829","315.8","1022.38","9.85","63.89","NAN","0.0"],
    [1537046,"2026-01-12 07:10:00","48802","0.879","293.9","1.633","281.7","1022.308","9.75","63.81","NAN","0.0"],
    [1537047,"2026-01-12 07:20:00","48803","0.977","290.7","2.221","305.5","1022.299","9.59","64.55","NAN","0.0"],
    [1537048,"2026-01-12 07:30:00","48804","0.695","266.3","1.5030000000000001","277.6","1022.331","9.52","64.9","NAN","0.0"],
    [1537049,"2026-01-12 07:40:00","48805","0.562","252.8","1.2409999999999999","216.0","1022.372","9.54","65.13","NAN","0.0"],
    [1537050,"2026-01-12 07:50:00","48806","0.47600000000000003","261.4","1.143","232.4","1022.342","9.64","64.6","NAN","0.0"],
    [1537051,"2026-01-12 08:00:00","48807","0.48200000000000004","281.8","1.405","287.3","1022.3860000000001","9.64","65.07","NAN","0.0"],
    [1537052,"2026-01-12 08:10:00","48808","0.9640000000000001","293.3","1.764","305.5","1022.378","10.04","63.19","NAN","0.0"],
    [1537053,"2026-01-12 08:20:00","48809","0.865","273.7","1.764","261.1","1022.4119999999999","10.31","61.69","NAN","0.0"],
    [1537054,"2026-01-12 08:30:00","48810","1.092","234.0","2.0580000000000003","234.7","1022.4739999999999","10.2","60.95","NAN","0.0"],
    [1537055,"2026-01-12 08:40:00","48811","1.058","244.9","2.0909999999999997","239.0","1022.525","10.15","60.99","NAN","0.0"],
    [1537056,"2026-01-12 08:50:00","48812","0.98","254.0","2.189","267.3","1022.658","10.47","59.88","NAN","0.0"],
    [1537057,"2026-01-12 09:00:00","48813","1.016","286.6","2.45","268.4","1022.74","10.59","59.71","NAN","0.0"],
    [1537058,"2026-01-12 09:10:00","48814","0.774","251.8","1.8619999999999999","275.8","1022.732","11.08","58.49","NAN","0.0"],
    [1537059,"2026-01-12 09:20:00","48815","1.037","233.5","2.254","257.0","1022.689","11.73","57.27","NAN","0.0"],
    [1537060,"2026-01-12 09:30:00","48816","1.406","220.7","2.7769999999999997","212.2","1022.671","12.3","57.13","NAN","0.0"],
    [1537061,"2026-01-12 09:40:00","48817","1.156","235.1","2.5810000000000004","232.6","1022.671","12.51","56.8","NAN","0.0"],
    [1537062,"2026-01-12 09:50:00","48818","1.072","238.8","2.189","239.0","1022.683","12.69","55.97","NAN","0.0"],
    [1537063,"2026-01-12 10:00:00","48819","1.078","236.0","1.993","224.0","1022.678","12.66","54.83","NAN","0.0"],
    [1537064,"2026-01-12 10:10:00","48820","0.976","219.1","2.123","243.7","1022.671","13.25","52.92","NAN","0.0"],
    [1537065,"2026-01-12 10:20:00","48821","0.9470000000000001","237.5","2.385","231.1","1022.643","12.97","52.95","NAN","0.0"],
    [1537066,"2026-01-12 10:30:00","48822","0.894","239.4","1.895","247.4","1022.5160000000001","13.22","52.66","NAN","0.0"],
    [1537067,"2026-01-12 10:40:00","48823","1.3090000000000002","242.7","2.7439999999999998","251.8","1022.4960000000001","13.16","53.06","NAN","0.0"],
    [1537068,"2026-01-12 10:50:00","48824","1.4880000000000002","236.2","3.201","248.6","1022.429","13.36","53.24","NAN","0.0"],
    [1537069,"2026-01-12 11:00:00","48825","1.432","232.7","3.299","243.2","1022.342","13.53","53.45","NAN","0.0"],
    [1537070,"2026-01-12 11:10:00","48826","1.7069999999999999","244.5","3.5610000000000004","259.0","1022.207","13.29","55.06","NAN","0.0"],
    [1537071,"2026-01-12 11:20:00","48827","1.578","237.2","4.41","241.5","1022.115","13.3","55.6","NAN","0.0"],
    [1537072,"2026-01-12 11:30:00","48828","1.4569999999999999","243.2","3.92","262.3","1021.8910000000001","13.42","54.98","NAN","0.0"],
    [1537073,"2026-01-12 11:40:00","48829","1.3090000000000002","245.5","2.515","232.8","1021.6289999999999","13.77","54.28","NAN","0.0"],
    [1537074,"2026-01-12 11:50:00","48830","1.615","238.5","3.332","223.5","1021.5219999999999","14.12","53.05","NAN","0.0"],
    [1537075,"2026-01-12 12:00:00","48831","1.8840000000000001","240.6","4.2139999999999995","218.0","1021.345","14.08","53.96","NAN","0.0"],
    [1537076,"2026-01-12 12:10:00","48832","1.511","239.0","4.345","240.9","1021.184","14.31","55.41","NAN","0.0"],
    [1537077,"2026-01-12 12:20:00","48833","1.4480000000000002","224.1","3.267","229.4","1021.1039999999999","14.37","56.09","NAN","0.0"],
    [1537078,"2026-01-12 12:30:00","48834","1.37","242.2","2.842","224.5","1020.972","14.33","56.99","NAN","0.0"],
    [1537079,"2026-01-12 12:40:00","48835","1.476","219.9","3.0380000000000003","237.9","1020.89","14.46","57.39","NAN","0.0"],
    [1537080,"2026-01-12 12:50:00","48836","1.341","221.5","3.005","218.6","1020.7230000000001","14.63","56.9","NAN","0.0"],
    [1537081,"2026-01-12 13:00:00","48837","1.348","233.9","3.463","222.9","1020.6160000000001","14.85","55.34","NAN","0.0"],
    [1537082,"2026-01-12 13:10:00","48838","1.107","223.9","2.907","218.8","1020.441","15.14","54.3","NAN","0.0"],
    [1537083,"2026-01-12 13:20:00","48839","1.5930000000000002","244.5","4.018","229.5","1020.312","15.27","53.81","NAN","0.0"],
    [1537084,"2026-01-12 13:30:00","48840","1.6380000000000001","238.1","4.541","240.6","1020.289","15.24","54.69","NAN","0.0"],
    [1537085,"2026-01-12 13:40:00","48841","1.545","235.0","4.051","241.8","1020.174","15.43","55.47","NAN","0.0"],
    [1537086,"2026-01-12 13:50:00","48842","1.554","234.5","3.822","259.2","1020.1619999999999","15.64","56.19","NAN","0.0"],
    [1537087,"2026-01-12 14:00:00","48843","1.5019999999999998","245.0","3.495","255.6","1020.065","15.68","57.9","NAN","0.0"],
    [1537088,"2026-01-12 14:10:00","48844","1.666","237.9","4.508","239.8","1019.893","15.9","60.6","NAN","0.0"],
    [1537089,"2026-01-12 14:20:00","48845","1.733","232.2","3.495","242.7","1019.885","15.94","62.56","NAN","0.0"],
    [1537090,"2026-01-12 14:30:00","48846","1.7280000000000002","231.1","5.096","231.6","1019.91","15.75","64.23","NAN","0.0"],
    [1537091,"2026-01-12 14:40:00","48847","1.681","236.6","4.247","243.2","1019.8710000000001","15.47","66.61","NAN","0.0"],
    [1537092,"2026-01-12 14:50:00","48848","2.028","235.9","5.2589999999999995","258.7","1019.888","15.3","67.6","NAN","0.0"],
    [1537093,"2026-01-12 15:00:00","48849","1.1079999999999999","232.9","3.855","235.8","1019.817","15.26","68.06","NAN","0.0"],
    [1537094,"2026-01-12 15:10:00","48850","1.329","219.4","3.071","221.3","1019.811","15.37","68.67","NAN","0.0"],
    [1537095,"2026-01-12 15:20:00","48851","1.6","222.5","3.887","216.2","1019.811","14.97","70.78","NAN","0.0"],
    [1537096,"2026-01-12 15:30:00","48852","1.429","222.6","4.835","218.3","1019.7510000000001","14.84","70.88","NAN","0.0"],
    [1537097,"2026-01-12 15:40:00","48853","1.173","215.6","4.149","251.8","1019.699","14.73","71.66","NAN","0.0"],
    [1537098,"2026-01-12 15:50:00","48854","1.065","213.8","3.071","208.4","1019.6419999999999","14.45","74.24","NAN","0.0"],
    [1537099,"2026-01-12 16:00:00","48855","0.89","223.1","2.7110000000000003","201.7","1019.682","14.22","76.07","NAN","0.0"],
    [1537100,"2026-01-12 16:10:00","48856","1.199","210.1","3.103","207.0","1019.677","13.99","77.86","NAN","0.0"],
    [1537101,"2026-01-12 16:20:00","48857","1.526","215.9","4.377","228.8","1019.6619999999999","13.7","81.3","NAN","0.0"],
    [1537102,"2026-01-12 16:30:00","48858","1.9080000000000001","217.8","4.149","249.2","1019.602","13.56","83.1","NAN","0.0"],
    [1537103,"2026-01-12 16:40:00","48859","1.787","222.5","4.573","192.0","1019.5319999999999","13.41","84.7","NAN","0.0"],
    [1537104,"2026-01-12 16:50:00","48860","1.712","219.0","4.965","216.2","1019.53","13.29","86.3","NAN","0.0"],
    [1537105,"2026-01-12 17:00:00","48861","1.578","215.5","3.332","226.1","1019.607","13.12","87.3","NAN","0.0"],
    [1537106,"2026-01-12 17:10:00","48862","1.635","217.7","3.6260000000000003","218.6","1019.682","13.04","87.5","NAN","0.0"],
    [1537107,"2026-01-12 17:20:00","48863","1.3730000000000002","219.1","3.201","218.7","1019.679","13","87","NAN","0.0"],
    [1537108,"2026-01-12 17:30:00","48864","1.4709999999999999","214.8","3.463","227.9","1019.595","12.93","86.6","NAN","0.0"],
    [1537109,"2026-01-12 17:40:00","48865","1.263","218.5","2.875","186.8","1019.677","12.87","85.7","NAN","0.0"],
    [1537110,"2026-01-12 17:50:00","48866","1.595","219.2","3.92","196.2","1019.747","12.87","84.7","NAN","0.0"],
    [1537111,"2026-01-12 18:00:00","48867","1.169","225.4","3.332","231.4","1019.86","13","82.8","NAN","0.0"],
    [1537112,"2026-01-12 18:10:00","48868","0.882","224.6","2.287","272.9","1019.908","12.78","83.5","NAN","0.0"],
    [1537113,"2026-01-12 18:20:00","48869","0.81","211.0","1.568","202.3","1019.904","12.77","83.6","NAN","0.0"],
    [1537114,"2026-01-12 18:30:00","48870","0.6709999999999999","207.5","1.633","308.5","1019.947","12.6","84.3","NAN","0.0"],
    [1537115,"2026-01-12 18:40:00","48871","0.684","227.4","1.339","259.5","1019.98","12.27","86.1","NAN","0.0"],
    [1537116,"2026-01-12 18:50:00","48872","0.578","229.0","1.339","236.8","1020.091","12.17","86.4","NAN","0.0"],
    [1537117,"2026-01-12 19:00:00","48873","0.317","206.0","0.621","210.0","1020.0989999999999","12.25","85.4","NAN","0.0"],
    [1537118,"2026-01-12 19:10:00","48874","0.475","211.7","0.9470000000000001","214.7","1020.069","11.95","85.9","NAN","0.0"],
    [1537119,"2026-01-12 19:20:00","48875","0.125","207.4","0.588","241.4","1020.153","11.69","86.5","NAN","0.0"],
    [1537120,"2026-01-12 19:30:00","48876","0.28800000000000003","224.8","1.111","226.9","1020.159","11.64","86.9","NAN","0.0"],
    [1537121,"2026-01-12 19:40:00","48877","0.212","213.5","0.621","195.7","1020.1460000000001","11.69","86.1","NAN","0.0"],
    [1537122,"2026-01-12 19:50:00","48878","0.564","203.7","0.9470000000000001","203.0","1020.1389999999999","11.39","87.2","NAN","0.0"],
    [1537123,"2026-01-12 20:00:00","48879","0.509","232.5","0.882","210.2","1020.117","11.18","88.1","NAN","0.0"],
    [1537124,"2026-01-12 20:10:00","48880","0.389","252.9","0.8170000000000001","274.1","1020.012","11.07","87.9","NAN","0.0"],
    [1537125,"2026-01-12 20:20:00","48881","0.376","252.5","0.653","284.9","1019.982","11.32","86.8","NAN","0.0"],
    [1537126,"2026-01-12 20:30:00","48882","0.42","216.8","0.882","209.5","1020.002","11.39","86.3","NAN","0.0"],
    [1537127,"2026-01-12 20:40:00","48883","0.267","231.7","0.555","233.4","1019.9789999999999","11.03","88.3","NAN","0.0"],
    [1537128,"2026-01-12 20:50:00","48884","0.235","234.2","0.653","248.0","1019.877","10.87","88.9","NAN","0.0"],
    [1537129,"2026-01-12 21:00:00","48885","0.07400000000000001","236.5","0.359","253.8","1019.867","10.75","89.3","NAN","0.0"],
    [1537130,"2026-01-12 21:10:00","48886","0.408","264.1","1.013","252.3","1019.778","10.8","89.6","NAN","0.0"],
    [1537131,"2026-01-12 21:20:00","48887","0.664","261.5","1.339","261.9","1019.77","11.08","88.2","NAN","0.0"],
    [1537132,"2026-01-12 21:30:00","48888","0.675","258.0","1.176","273.4","1019.745","11.55","85.2","NAN","0.0"],
    [1537133,"2026-01-12 21:40:00","48889","0.833","262.6","1.47","260.5","1019.738","11.71","84.5","NAN","0.0"],
    [1537134,"2026-01-12 21:50:00","48890","0.486","271.6","1.045","278.7","1019.676","11.79","84.2","NAN","0.0"],
    [1537135,"2026-01-12 22:00:00","48891","0.528","265.1","1.045","296.1","1019.6560000000001","11.7","84.5","NAN","0.0"],
    [1537136,"2026-01-12 22:10:00","48892","0.331","269.3","0.7509999999999999","269.0","1019.681","11.69","84.7","NAN","0.0"],
    [1537137,"2026-01-12 22:20:00","48893","0.11599999999999999","244.4","0.555","237.2","1019.753","11.87","84.1","NAN","0.0"],
    [1537138,"2026-01-12 22:30:00","48894","0.275","249.7","0.653","256.0","1019.748","11.83","84","NAN","0.0"],
    [1537139,"2026-01-12 22:40:00","48895","0.187","242.8","0.653","246.0","1019.703","11.9","84.2","NAN","0.0"],
    [1537140,"2026-01-12 22:50:00","48896","0.294","205.8","0.621","197.9","1019.7280000000001","11.91","85.5","NAN","0.0"],
    [1537141,"2026-01-12 23:00:00","48897","0.18100000000000002","213.4","0.8170000000000001","194.2","1019.717","11.91","85.5","NAN","0.0"],
    [1537142,"2026-01-12 23:10:00","48898","0.23","235.3","0.882","235.3","1019.721","11.99","84.4","NAN","0.0"],
    [1537143,"2026-01-12 23:20:00","48899","0.39399999999999996","236.1","0.882","260.5","1019.6619999999999","12.08","84.1","NAN","0.0"],
    [1537144,"2026-01-12 23:30:00","48900","0.384","235.0","1.176","223.6","1019.557","12.24","83","NAN","0.0"],
    [1537145,"2026-01-12 23:40:00","48901","0.494","245.1","0.9470000000000001","271.6","1019.453","12.46","81.8","NAN","0.0"],
    [1537146,"2026-01-12 23:50:00","48902","0.426","237.0","0.882","247.4","1019.393","12.4","81.9","NAN","0.0"],
    [1537147,"2026-01-13 00:00:00","48903","0.34600000000000003","235.6","1.078","258.5","1019.303","12.39","82.2","NAN","0.0"],
    [1537148,"2026-01-13 00:10:00","48904","0.391","241.9","1.078","251.8","1019.2239999999999","12.3","82.7","NAN","0.0"],
    [1537149,"2026-01-13 00:20:00","48905","0.29100000000000004","209.4","0.915","197.0","1019.1489999999999","12.45","83","NAN","0.0"],
    [1537150,"2026-01-13 00:30:00","48906","0.45299999999999996","258.0","1.274","280.7","1019.052","12.4","82.6","NAN","0.0"],
    [1537151,"2026-01-13 00:40:00","48907","0.618","265.4","1.3719999999999999","271.9","1018.94","12.64","80.6","NAN","0.0"],
    [1537152,"2026-01-13 00:50:00","48908","0.41700000000000004","238.7","1.307","219.7","1018.927","12.62","80.6","NAN","0.0"],
    [1537153,"2026-01-13 01:00:00","48909","0.647","238.0","1.274","243.2","1018.803","12.56","81","NAN","0.0"],
    [1537154,"2026-01-13 01:10:00","48910","0.562","202.8","0.915","223.8","1018.7230000000001","12.64","81.4","NAN","0.0"],
    [1537155,"2026-01-13 01:20:00","48911","0.193","227.5","0.7190000000000001","232.1","1018.686","12.52","82","NAN","0.0"],
    [1537156,"2026-01-13 01:30:00","48912","0.0","0.0","0.0","0.0","1018.686","12.38","82.9","NAN","0.0"],
    [1537157,"2026-01-13 01:40:00","48913","0.003","13.07","0.098","13.36","1018.683","12.4","83.2","NAN","0.0"],
    [1537158,"2026-01-13 01:50:00","48914","0.084","2.414","0.425","1.426","1018.566","12.33","82.2","NAN","0.0"],
    [1537159,"2026-01-13 02:00:00","48915","0.363","18.07","0.915","58.55","1018.561","12.1","81.7","NAN","0.0"],
    [1537160,"2026-01-13 02:10:00","48916","0.377","63.05","0.9470000000000001","68.75","1018.4789999999999","11.86","80.9","NAN","0.0"],
    [1537161,"2026-01-13 02:20:00","48917","0.647","25.1","1.013","37.84","1018.334","11.77","80.2","NAN","0.0"],
    [1537162,"2026-01-13 02:30:00","48918","0.496","25.59","1.2409999999999999","36.1","1018.245","11.67","79.02","NAN","0.0"],
    [1537163,"2026-01-13 02:40:00","48919","0.488","28.89","1.2409999999999999","32.77","1018.16","11.57","78.95","NAN","0.0"],
    [1537164,"2026-01-13 02:50:00","48920","0.41700000000000004","15.12","1.045","25.31","1018.0310000000001","11.52","78.9","NAN","0.0"],
    [1537165,"2026-01-13 03:00:00","48921","0.243","14.42","0.7190000000000001","34.73","1017.936","11.62","78.93","NAN","0.0"],
    [1537166,"2026-01-13 03:10:00","48922","0.14400000000000002","27.51","0.588","37.9","1017.831","11.71","78.97","NAN","0.0"],
    [1537167,"2026-01-13 03:20:00","48923","0.0","0.0","0.0","0.0","1017.794","11.57","79.91","NAN","0.0"],
    [1537168,"2026-01-13 03:30:00","48924","0.0","0.0","0.0","0.0","1017.6389999999999","11.51","80.5","NAN","0.0"],
    [1537169,"2026-01-13 03:40:00","48925","0.0","0.0","0.0","0.0","1017.565","11.57","80.1","NAN","0.0"],
    [1537170,"2026-01-13 03:50:00","48926","0.0","0.0","0.0","0.0","1017.57","11.63","79.66","NAN","0.0"],
    [1537171,"2026-01-13 04:00:00","48927","0.047","351.7","0.555","349.3","1017.572","11.6","79.52","NAN","0.0"],
    [1537172,"2026-01-13 04:10:00","48928","0.073","27.87","0.588","48.25","1017.562","11.62","78.92","NAN","0.0"],
    [1537173,"2026-01-13 04:20:00","48929","0.237","18.08","0.555","3.156","1017.562","11.61","78.87","NAN","0.0"],
    [1537174,"2026-01-13 04:30:00","48930","0.29100000000000004","12.63","0.784","31.27","1017.56","11.61","78.43","NAN","0.0"],
    [1537175,"2026-01-13 04:40:00","48931","0.401","2.602","0.8170000000000001","7.112","1017.582","11.63","78.81","NAN","0.0"],
    [1537176,"2026-01-13 04:50:00","48932","0.614","41.98","1.176","60.16","1017.56","11.73","78.44","NAN","0.0"],
    [1537177,"2026-01-13 05:00:00","48933","0.373","45.38","0.9470000000000001","48.52","1017.453","11.58","78.33","NAN","0.0"],
    [1537178,"2026-01-13 05:10:00","48934","0.426","35.7","0.882","55.09","1017.563","11.55","78.1","NAN","0.0"],
    [1537179,"2026-01-13 05:20:00","48935","0.337","357.5","0.784","15.25","1017.567","11.54","77.78","NAN","0.0"],
    [1537180,"2026-01-13 05:30:00","48936","0.303","6.706","0.784","18.02","1017.5930000000001","11.53","77.67","NAN","0.0"],
    [1537181,"2026-01-13 05:40:00","48937","0.257","19.27","0.882","30.71","1017.687","11.57","77.81","NAN","0.0"],
    [1537182,"2026-01-13 05:50:00","48938","0.361","2.653","0.9470000000000001","348.5","1017.677","11.64","77.68","NAN","0.0"],
    [1537183,"2026-01-13 06:00:00","48939","0.23","6.044","0.7190000000000001","347.8","1017.682","11.78","77.33","NAN","0.0"],
    [1537184,"2026-01-13 06:10:00","48940","0.38","3.701","1.013","326.2","1017.592","11.86","76.94","NAN","0.0"],
    [1537185,"2026-01-13 06:20:00","48941","0.409","13.58","0.882","20.28","1017.684","11.83","77.33","NAN","0.0"],
    [1537186,"2026-01-13 06:30:00","48942","0.243","9.73","0.784","5.206","1017.707","11.87","77.09","NAN","0.0"],
    [1537187,"2026-01-13 06:40:00","48943","0.066","290.3","0.457","273.5","1017.797","11.97","76.94","NAN","0.0"],
    [1537188,"2026-01-13 06:50:00","48944","0.0","0.0","0.0","0.0","1017.8710000000001","11.93","77.45","NAN","0.0"],
    [1537189,"2026-01-13 07:00:00","48945","0.0","0.0","0.0","0.0","1017.919","11.87","78.01","NAN","0.0"],
    [1537190,"2026-01-13 07:10:00","48946","0.0","0.0","0.0","0.0","1017.824","12.02","78.31","NAN","0.0"],
    [1537191,"2026-01-13 07:20:00","48947","0.174","139.5","0.588","143.2","1017.8539999999999","11.88","78.77","NAN","0.0"],
    [1537192,"2026-01-13 07:30:00","48948","0.0","0.0","0.0","0.0","1017.8789999999999","11.71","82","NAN","0.0"],
    [1537193,"2026-01-13 07:40:00","48949","0.138","200.1","0.555","211.0","1017.936","11.93","82.9","NAN","0.0"],
    [1537194,"2026-01-13 07:50:00","48950","0.096","152.0","0.588","149.4","1017.934","11.97","84.5","NAN","0.0"],
    [1537195,"2026-01-13 08:00:00","48951","0.073","163.9","0.555","175.3","1017.939","11.94","85.3","NAN","0.0"],
    [1537196,"2026-01-13 08:10:00","48952","0.071","188.9","0.49","203.3","1017.9730000000001","12.05","85.8","NAN","0.0"],
    [1537197,"2026-01-13 08:20:00","48953","0.136","170.2","0.588","171.3","1018.128","12.24","84.3","NAN","0.0"],
    [1537198,"2026-01-13 08:30:00","48954","0.032","170.5","0.392","166.3","1018.172","12.29","84.1","NAN","0.0"],
    [1537199,"2026-01-13 08:40:00","48955","0.0","0.0","0.0","0.0","1018.118","12.36","84.1","NAN","0.0"],
    [1537200,"2026-01-13 08:50:00","48956","0.002","114.0","0.22899999999999998","137.6","1018.185","12.47","83.7","NAN","0.0"],
    [1537201,"2026-01-13 09:00:00","48957","0.06","173.2","0.457","172.5","1018.203","12.81","82.1","NAN","0.0"],
    [1537202,"2026-01-13 09:10:00","48958","0.136","160.8","0.6859999999999999","165.5","1018.312","12.97","81.3","NAN","0.0"],
    [1537203,"2026-01-13 09:20:00","48959","0.322","185.5","0.784","172.5","1018.322","13.38","79.89","NAN","0.0"],
    [1537204,"2026-01-13 09:30:00","48960","0.9079999999999999","235.6","2.45","256.8","1018.427","15.15","74.23","NAN","0.0"],
    [1537205,"2026-01-13 09:40:00","48961","1.198","247.9","2.7769999999999997","236.5","1018.497","15.06","74.48","NAN","0.0"],
    [1537206,"2026-01-13 09:50:00","48962","1.4669999999999999","251.5","2.7769999999999997","248.1","1018.559","15.04","74.41","NAN","0.0"],
    [1537207,"2026-01-13 10:00:00","48963","1.33","237.6","2.842","271.3","1018.615","15.14","73.72","NAN","0.0"],
    [1537208,"2026-01-13 10:10:00","48964","1.294","235.1","3.5610000000000004","232.9","1018.666","15.59","72.31","NAN","0.0"],
    [1537209,"2026-01-13 10:20:00","48965","1.237","247.0","2.907","235.9","1018.653","15.57","72.29","NAN","0.0"],
    [1537210,"2026-01-13 10:30:00","48966","1.8159999999999998","245.3","3.299","243.0","1018.617","15.62","72","NAN","0.0"],
    [1537211,"2026-01-13 10:40:00","48967","1.236","241.5","3.1689999999999996","236.0","1018.4910000000001","15.75","71.58","NAN","0.0"],
    [1537212,"2026-01-13 10:50:00","48968","1.798","238.6","4.247","245.4","1018.37","15.78","70.91","NAN","0.0"],
    [1537213,"2026-01-13 11:00:00","48969","1.7819999999999998","240.4","4.541","238.1","1018.206","15.75","69.36","NAN","0.0"],
    [1537214,"2026-01-13 11:10:00","48970","1.984","242.3","4.867","250.2","1017.959","15.83","68.34","NAN","0.0"],
    [1537215,"2026-01-13 11:20:00","48971","1.6380000000000001","241.6","3.5610000000000004","254.5","1017.802","16.16","66.67","NAN","0.0"],
    [1537216,"2026-01-13 11:30:00","48972","1.925","226.5","3.887","236.0","1017.61","16.25","66.17","NAN","0.0"],
    [1537217,"2026-01-13 11:40:00","48973","1.423","234.9","3.855","229.9","1017.388","16.32","65.99","NAN","0.0"],
    [1537218,"2026-01-13 11:50:00","48974","1.281","225.6","3.5610000000000004","220.0","1017.1460000000001","16.91","63.86","NAN","0.0"],
    [1537219,"2026-01-13 12:00:00","48975","1.785","229.7","4.835","232.3","1016.998","16.49","65.41","NAN","0.0"],
    [1537220,"2026-01-13 12:10:00","48976","1.703","231.4","4.247","207.1","1016.8539999999999","16.4","65.81","NAN","0.0"],
    [1537221,"2026-01-13 12:20:00","48977","1.8630000000000002","231.5","4.2139999999999995","242.7","1016.676","16.33","65.89","NAN","0.0"],
    [1537222,"2026-01-13 12:30:00","48978","1.419","226.8","3.267","217.2","1016.547","16.4","65.48","NAN","0.0"],
    [1537223,"2026-01-13 12:40:00","48979","1.629","241.6","3.593","264.9","1016.3760000000001","16.53","64.93","NAN","0.0"],
    [1537224,"2026-01-13 12:50:00","48980","1.754","225.1","3.5610000000000004","231.2","1016.27","16.68","63.46","NAN","0.0"],
    [1537225,"2026-01-13 13:00:00","48981","1.8880000000000001","234.7","3.855","231.6","1016.1339999999999","16.86","60.58","NAN","0.0"],
    [1537226,"2026-01-13 13:10:00","48982","1.903","225.1","4.638999999999999","247.5","1016.1039999999999","17.09","59.17","NAN","0.0"],
    [1537227,"2026-01-13 13:20:00","48983","1.8030000000000002","221.3","4.933","204.5","1016.113","16.91","58.62","NAN","0.0"],
    [1537228,"2026-01-13 13:30:00","48984","1.545","223.7","4.998","243.9","1016.012","16.81","59.19","NAN","0.0"],
    [1537229,"2026-01-13 13:40:00","48985","1.604","221.9","4.41","259.4","1016.015","17","58.45","NAN","0.0"],
    [1537230,"2026-01-13 13:50:00","48986","1.669","233.1","4.475","240.5","1015.965","16.77","59.21","NAN","0.0"],
    [1537231,"2026-01-13 14:00:00","48987","1.9580000000000002","224.0","4.181","232.0","1015.923","16.66","61.22","NAN","0.0"],
    [1537232,"2026-01-13 14:10:00","48988","1.876","222.4","4.606","218.7","1015.9169999999999","16.78","63.08","NAN","0.0"],
    [1537233,"2026-01-13 14:20:00","48989","1.393","219.5","3.6260000000000003","206.9","1015.84","16.94","63.44","NAN","0.0"],
    [1537234,"2026-01-13 14:30:00","48990","1.9","228.6","5.422999999999999","227.5","1015.7719999999999","16.8","64.26","NAN","0.0"],
    [1537235,"2026-01-13 14:40:00","48991","1.252","215.7","3.7889999999999997","210.4","1015.685","16.92","63.28","NAN","0.0"],
    [1537236,"2026-01-13 14:50:00","48992","2.116","202.5","4.737","212.2","1015.584","16.59","65.21","NAN","0.0"],
    [1537237,"2026-01-13 15:00:00","48993","2.285","195.2","5.227","190.4","1015.622","15.99","68.49","NAN","0.0"],
    [1537238,"2026-01-13 15:10:00","48994","1.89","198.7","3.822","191.3","1015.6610000000001","15.92","68.69","NAN","0.0"],
    [1537239,"2026-01-13 15:20:00","48995","1.7519999999999998","196.9","3.822","188.3","1015.69","15.7","70.46","NAN","0.0"],
    [1537240,"2026-01-13 15:30:00","48996","1.518","187.6","3.659","186.2","1015.677","15.53","71.18","NAN","0.0"],
    [1537241,"2026-01-13 15:40:00","48997","1.44","194.2","3.201","195.3","1015.699","15.47","71.82","NAN","0.0"],
    [1537242,"2026-01-13 15:50:00","48998","1.587","197.3","3.43","188.5","1015.7560000000001","15.43","72.23","NAN","0.0"],
    [1537243,"2026-01-13 16:00:00","48999","1.6880000000000002","196.4","3.463","188.8","1015.7260000000001","15.22","74.67","NAN","0.0"],
    [1537244,"2026-01-13 16:10:00","49000","1.436","202.8","2.842","202.2","1015.826","15.02","76.07","NAN","0.0"],
    [1537245,"2026-01-13 16:20:00","49001","1.4509999999999998","223.7","3.822","230.0","1015.923","14.94","76.66","NAN","0.0"],
    [1537246,"2026-01-13 16:30:00","49002","1.1520000000000001","209.5","2.417","239.9","1015.946","14.81","77.53","NAN","0.0"],
    [1537247,"2026-01-13 16:40:00","49003","1.0290000000000001","230.8","2.907","225.5","1015.946","14.73","78.5","NAN","0.0"],
    [1537248,"2026-01-13 16:50:00","49004","0.95","215.9","1.993","297.7","1016.0260000000001","14.87","78.49","NAN","0.0"],
    [1537249,"2026-01-13 17:00:00","49005","0.879","230.1","1.96","239.6","1016.188","14.7","80.2","NAN","0.0"],
    [1537250,"2026-01-13 17:10:00","49006","0.843","235.4","1.993","251.2","1016.317","14.86","79.66","NAN","0.0"],
    [1537251,"2026-01-13 17:20:00","49007","1.304","251.5","2.548","265.9","1016.439","14.82","79.8","NAN","0.0"],
    [1537252,"2026-01-13 17:30:00","49008","0.867","244.0","1.895","253.1","1016.434","14.72","80","NAN","0.0"],
    [1537253,"2026-01-13 17:40:00","49009","0.8809999999999999","224.3","2.156","248.9","1016.431","14.59","80.5","NAN","0.0"],
    [1537254,"2026-01-13 17:50:00","49010","0.537","243.0","1.5030000000000001","252.8","1016.422","14.32","81.8","NAN","0.0"],
    [1537255,"2026-01-13 18:00:00","49011","0.439","218.7","1.143","268.0","1016.444","14.27","82.2","NAN","0.0"],
    [1537256,"2026-01-13 18:10:00","49012","0.342","143.7","0.7190000000000001","153.4","1016.444","13.97","83.5","NAN","0.0"],
    [1537257,"2026-01-13 18:20:00","49013","0.374","184.7","0.784","202.7","1016.459","13.64","85.1","NAN","0.0"],
    [1537258,"2026-01-13 18:30:00","49014","0.298","196.3","0.621","230.8","1016.5189999999999","13.65","85.9","NAN","0.0"],
    [1537259,"2026-01-13 18:40:00","49015","0.359","146.7","0.7190000000000001","120.6","1016.454","13.53","86.5","NAN","0.0"],
    [1537260,"2026-01-13 18:50:00","49016","0.682","135.6","1.5030000000000001","142.2","1016.569","13.47","88.5","NAN","0.0"],
    [1537261,"2026-01-13 19:00:00","49017","0.45299999999999996","153.8","1.2409999999999999","152.1","1016.693","13.47","90.5","NAN","0.0"],
    [1537262,"2026-01-13 19:10:00","49018","0.0","0.0","0.0","0.0","1016.693","13.24","91.5","NAN","0.0"],
    [1537263,"2026-01-13 19:20:00","49019","0.0","0.0","0.0","0.0","1016.71","13.12","92.4","NAN","0.0"],
    [1537264,"2026-01-13 19:30:00","49020","0.042","151.0","0.621","143.2","1016.763","12.92","92.9","NAN","0.0"],
    [1537265,"2026-01-13 19:40:00","49021","0.096","165.9","0.49","145.2","1016.8710000000001","12.91","93.2","NAN","0.0"],
    [1537266,"2026-01-13 19:50:00","49022","0.10099999999999999","120.3","0.7190000000000001","150.9","1016.945","13.01","93.8","NAN","0.0"],
    [1537267,"2026-01-13 20:00:00","49023","0.392","108.0","1.209","108.4","1016.965","13.15","94.8","NAN","0.0"],
    [1537268,"2026-01-13 20:10:00","49024","0.24600000000000002","111.0","1.013","111.2","1016.967","13.25","95.8","NAN","0.0"],
    [1537269,"2026-01-13 20:20:00","49025","0.252","66.56","0.6859999999999999","74.65","1017.0","13.21","96.6","NAN","0.0"],
    [1537270,"2026-01-13 20:30:00","49026","0.136","68.21","0.621","60.52","1016.9760000000001","13.22","96.9","NAN","0.0"],
    [1537271,"2026-01-13 20:40:00","49027","0.07200000000000001","51.23","0.523","62.46","1017.138","13.24","97.4","NAN","0.0"],
    [1537272,"2026-01-13 20:50:00","49028","0.055999999999999994","15.49","0.621","26.34","1017.2189999999999","13.3","97.5","NAN","0.0"],
    [1537273,"2026-01-13 21:00:00","49029","0.225","17.71","1.339","13.09","1017.221","13.19","96.9","NAN","0.0"],
    [1537274,"2026-01-13 21:10:00","49030","0.539","25.04","1.176","9.96","1017.285","13.06","94.4","NAN","0.0"],
    [1537275,"2026-01-13 21:20:00","49031","0.872","43.04","1.4369999999999998","35.66","1017.194","13.06","90.7","NAN","0.0"],
    [1537276,"2026-01-13 21:30:00","49032","0.534","13.65","1.078","26.3","1017.252","13.06","89.9","NAN","0.0"],
    [1537277,"2026-01-13 21:40:00","49033","0.332","23.01","1.045","15.26","1017.2289999999999","13.11","88.8","NAN","0.0"],
    [1537278,"2026-01-13 21:50:00","49034","0.45","18.39","1.143","28.03","1017.191","13.09","88.5","NAN","0.0"],
    [1537279,"2026-01-13 22:00:00","49035","0.722","4.861000000000001","1.633","10.73","1017.191","13.13","87.3","NAN","0.0"],
    [1537280,"2026-01-13 22:10:00","49036","0.6","6.732","1.405","16.84","1017.257","13.17","85.7","NAN","0.0"],
    [1537281,"2026-01-13 22:20:00","49037","0.397","19.08","1.339","24.78","1017.32","13.16","85.1","NAN","0.0"],
    [1537282,"2026-01-13 22:30:00","49038","0.557","14.87","1.143","34.31","1017.32","13.16","85.1","NAN","0.0"],
    [1537283,"2026-01-13 22:40:00","49039","0.631","11.45","1.339","24.57","1017.311","13.14","84.9","NAN","0.0"],
    [1537284,"2026-01-13 22:50:00","49040","0.5379999999999999","20.97","1.111","15.87","1017.316","12.91","85.8","NAN","0.0"],
    [1537285,"2026-01-13 23:00:00","49041","0.75","8.48","1.209","10.78","1017.288","12.81","86.3","NAN","0.0"],
    [1537286,"2026-01-13 23:10:00","49042","0.88","2.096","1.3719999999999999","3.44","1017.306","12.88","85.8","NAN","0.0"],
    [1537287,"2026-01-13 23:20:00","49043","0.8170000000000001","9.09","1.405","8.49","1017.33","12.83","85.5","NAN","0.0"],
    [1537288,"2026-01-13 23:30:00","49044","0.795","8.85","1.47","16.1","1017.345","12.66","86.1","NAN","0.0"],
    [1537289,"2026-01-13 23:40:00","49045","0.659","348.3","1.4369999999999998","5.216","1017.365","12.62","85.9","NAN","0.0"],
    [1537290,"2026-01-13 23:50:00","49046","0.163","329.3","0.621","325.7","1017.4910000000001","12.64","86","NAN","0.0"],
    [1537291,"2026-01-14 00:00:00","49047","0.026000000000000002","2.059","0.359","2.019","1017.3910000000001","12.42","87","NAN","0.0"],
    [1537292,"2026-01-14 00:10:00","49048","0.042","2.033","0.359","1.858","1017.3660000000001","12.12","88.2","NAN","0.0"],
    [1537293,"2026-01-14 00:20:00","49049","0.109","52.78","0.882","57.61","1017.3639999999999","11.89","89.2","NAN","0.0"],
    [1537294,"2026-01-14 00:30:00","49050","0.573","31.09","1.307","18.79","1017.3560000000001","11.81","89.7","NAN","0.0"],
    [1537295,"2026-01-14 00:40:00","49051","0.299","19.78","0.915","5.351","1017.2639999999999","11.84","89.2","NAN","0.0"],
    [1537296,"2026-01-14 00:50:00","49052","0.35","21.28","0.8170000000000001","0.884","1017.262","11.73","89.3","NAN","0.0"],
    [1537297,"2026-01-14 01:00:00","49053","0.201","3.112","1.013","1.089","1017.2589999999999","11.82","88.4","NAN","0.0"],
    [1537298,"2026-01-14 01:10:00","49054","0.0","0.0","0.0","0.0","1017.262","11.58","90.1","NAN","0.0"],
    [1537299,"2026-01-14 01:20:00","49055","0.095","331.3","0.523","0.192","1017.2689999999999","11.26","91.2","NAN","0.0"],
    [1537300,"2026-01-14 01:30:00","49056","0.217","20.28","0.7190000000000001","33.07","1017.3710000000001","11.2","91.2","NAN","0.0"],
    [1537301,"2026-01-14 01:40:00","49057","0.153","10.86","0.621","33.58","1017.319","11.2","90.1","NAN","0.0"],
    [1537302,"2026-01-14 01:50:00","49058","0.253","2.94","1.045","24.35","1017.3739999999999","11.05","89.9","NAN","0.0"],
    [1537303,"2026-01-14 02:00:00","49059","0.648","4.792","1.4369999999999998","7.065","1017.3839999999999","11.28","88.9","NAN","0.0"],
    [1537304,"2026-01-14 02:10:00","49060","0.816","358.2","1.4369999999999998","347.6","1017.334","11.42","87.1","NAN","0.0"],
    [1537305,"2026-01-14 02:20:00","49061","0.573","9.53","1.47","30.14","1017.332","11.28","87","NAN","0.0"],
    [1537306,"2026-01-14 02:30:00","49062","0.233","12.6","0.882","50.79","1017.2639999999999","10.95","88","NAN","0.0"],
    [1537307,"2026-01-14 02:40:00","49063","0.361","353.2","0.7509999999999999","355.3","1017.2589999999999","11.03","88.5","NAN","0.0"],
    [1537308,"2026-01-14 02:50:00","49064","0.039","356.4","0.327","342.5","1017.252","11.05","88","NAN","0.0"],
    [1537309,"2026-01-14 03:00:00","49065","0.364","15.14","0.882","0.721","1017.174","10.98","88.6","NAN","0.0"],
    [1537310,"2026-01-14 03:10:00","49066","0.8340000000000001","8.32","1.339","0.35200000000000004","1017.2410000000001","11.03","87.3","NAN","0.0"],
    [1537311,"2026-01-14 03:20:00","49067","0.39899999999999997","17.02","1.143","10.48","1017.0880000000001","11","87","NAN","0.0"],
    [1537312,"2026-01-14 03:30:00","49068","0.24","357.2","0.7509999999999999","1.17","1017.013","10.83","88.3","NAN","0.0"],
    [1537313,"2026-01-14 03:40:00","49069","0.204","355.3","0.523","4.3580000000000005","1017.013","10.99","88.4","NAN","0.0"],
    [1537314,"2026-01-14 03:50:00","49070","0.11599999999999999","333.9","0.523","335.0","1017.013","11.13","87.9","NAN","0.0"],
    [1537315,"2026-01-14 04:00:00","49071","0.39799999999999996","189.8","0.7190000000000001","183.2","1017.023","10.77","89.6","NAN","0.0"],
    [1537316,"2026-01-14 04:10:00","49072","0.198","228.1","0.588","239.0","1017.0169999999999","10.53","92.4","NAN","0.0"],
    [1537317,"2026-01-14 04:20:00","49073","0.027000000000000003","252.2","0.555","274.4","1017.0139999999999","10.53","94.2","NAN","0.0"],
    [1537318,"2026-01-14 04:30:00","49074","0.043","257.7","0.425","291.7","1016.992","10.57","95.1","NAN","0.0"],
    [1537319,"2026-01-14 04:40:00","49075","0.207","46.34","0.915","50.74","1016.941","10.46","94.9","NAN","0.0"],
    [1537320,"2026-01-14 04:50:00","49076","0.151","21.04","1.045","36.82","1016.795","10.4","93.6","NAN","0.0"],
    [1537321,"2026-01-14 05:00:00","49077","0.067","20.69","0.653","37.36","1016.8560000000001","10.25","91.3","NAN","0.0"],
    [1537322,"2026-01-14 05:10:00","49078","0.044000000000000004","15.42","0.523","25.54","1016.812","10.14","90.7","NAN","0.0"],
    [1537323,"2026-01-14 05:20:00","49079","0.061","45.75","0.523","58.03","1016.8810000000001","9.91","90.8","NAN","0.0"],
    [1537324,"2026-01-14 05:30:00","49080","0.043","288.1","0.425","278.2","1017.01","9.98","90.8","NAN","0.0"],
    [1537325,"2026-01-14 05:40:00","49081","0.7709999999999999","264.8","2.189","254.5","1017.033","10.54","90.5","NAN","0.0"],
    [1537326,"2026-01-14 05:50:00","49082","0.698","252.2","1.9269999999999998","274.6","1017.064","11.07","86.1","NAN","0.0"],
    [1537327,"2026-01-14 06:00:00","49083","1.013","263.1","2.483","298.8","1017.064","11.35","82.9","NAN","0.0"],
    [1537328,"2026-01-14 06:10:00","49084","0.8059999999999999","277.7","1.7309999999999999","316.9","1017.079","11.31","82.1","NAN","0.0"],
    [1537329,"2026-01-14 06:20:00","49085","0.594","280.7","2.156","298.5","1017.221","11.36","81.7","NAN","0.0"],
    [1537330,"2026-01-14 06:30:00","49086","0.07200000000000001","328.7","0.7190000000000001","318.4","1017.296","10.87","83.6","NAN","0.0"],
    [1537331,"2026-01-14 06:40:00","49087","0.33299999999999996","295.0","1.568","341.6","1017.3689999999999","10.53","85.7","NAN","0.0"],
    [1537332,"2026-01-14 06:50:00","49088","0.585","42.2","1.143","47.75","1017.423","10.27","86.3","NAN","0.0"],
    [1537333,"2026-01-14 07:00:00","49089","0.451","13.29","0.882","34.06","1017.546","10.04","86.6","NAN","0.0"],
    [1537334,"2026-01-14 07:10:00","49090","0.32899999999999996","14.45","0.6859999999999999","25.25","1017.707","10.03","86.5","NAN","0.0"],
    [1537335,"2026-01-14 07:20:00","49091","0.485","32.68","0.8490000000000001","54.78","1017.803","10.15","86.2","NAN","0.0"],
    [1537336,"2026-01-14 07:30:00","49092","0.237","48.73","0.784","54.7","1017.812","10.09","86.4","NAN","0.0"],
    [1537337,"2026-01-14 07:40:00","49093","0.125","37.39","1.143","80.3","1017.868","10.03","87.3","NAN","0.0"],
    [1537338,"2026-01-14 07:50:00","49094","0.182","14.58","0.7509999999999999","36.89","1017.9839999999999","10.24","87","NAN","0.0"],
    [1537339,"2026-01-14 08:00:00","49095","0.184","11.31","0.8170000000000001","30.67","1018.1110000000001","10.43","86","NAN","0.0"],
    [1537340,"2026-01-14 08:10:00","49096","0.37799999999999995","355.9","0.882","354.9","1018.2589999999999","10.59","85.2","NAN","0.0"],
    [1537341,"2026-01-14 08:20:00","49097","0.34700000000000003","8.4","0.653","348.8","1018.273","10.85","84","NAN","0.0"],
    [1537342,"2026-01-14 08:30:00","49098","0.254","315.6","1.209","276.9","1018.311","11.1","84.1","NAN","0.0"],
    [1537343,"2026-01-14 08:40:00","49099","0.066","194.1","0.588","183.1","1018.438","11.22","84.7","NAN","0.0"],
    [1537344,"2026-01-14 08:50:00","49100","0.32899999999999996","157.6","1.045","169.9","1018.6569999999999","11.51","84.1","NAN","0.0"],
    [1537345,"2026-01-14 09:00:00","49101","0.504","144.0","1.633","313.7","1018.752","12.03","83.1","NAN","0.0"],
    [1537346,"2026-01-14 09:10:00","49102","0.513","326.0","1.568","344.1","1018.7330000000001","12.72","78.24","NAN","0.0"],
    [1537347,"2026-01-14 09:20:00","49103","0.361","0.9690000000000001","1.143","0.895","1018.805","12.93","76.01","NAN","0.0"],
    [1537348,"2026-01-14 09:30:00","49104","0.314","107.4","0.915","134.1","1018.875","13.65","73.41","NAN","0.0"],
    [1537349,"2026-01-14 09:40:00","49105","0.6970000000000001","151.7","1.601","235.7","1019.012","13.83","73.86","NAN","0.0"],
    [1537350,"2026-01-14 09:50:00","49106","1.089","162.4","1.9269999999999998","159.9","1019.1569999999999","13.84","75.31","NAN","0.0"],
    [1537351,"2026-01-14 10:00:00","49107","1.031","135.3","1.895","152.4","1019.184","13.21","76.35","NAN","0.0"],
    [1537352,"2026-01-14 10:10:00","49108","0.981","128.7","1.699","143.2","1019.186","12.93","77.27","NAN","0.0"],
    [1537353,"2026-01-14 10:20:00","49109","1.151","121.9","1.96","120.5","1019.189","12.84","78.37","NAN","0.0"],
    [1537354,"2026-01-14 10:30:00","49110","1.062","119.2","1.633","101.4","1019.184","12.98","77.84","NAN","0.0"],
    [1537355,"2026-01-14 10:40:00","49111","1.122","120.9","2.025","103.0","1019.184","13.08","77.15","NAN","0.0"],
    [1537356,"2026-01-14 10:50:00","49112","1.048","123.9","2.0909999999999997","111.1","1019.166","13.4","75.62","NAN","0.0"],
    [1537357,"2026-01-14 11:00:00","49113","1.051","123.3","1.601","118.4","1019.1510000000001","13.34","76.75","NAN","0.0"],
    [1537358,"2026-01-14 11:10:00","49114","0.852","123.0","1.5030000000000001","130.5","1019.0319999999999","13.7","75.3","NAN","0.0"],
    [1537359,"2026-01-14 11:20:00","49115","0.856","140.8","1.47","100.9","1018.9689999999999","13.87","74.32","NAN","0.0"],
    [1537360,"2026-01-14 11:30:00","49116","1.063","139.3","2.0580000000000003","161.3","1018.802","14.05","73.59","NAN","0.0"],
    [1537361,"2026-01-14 11:40:00","49117","0.9540000000000001","130.7","1.601","147.4","1018.7230000000001","14.2","72.85","NAN","0.0"],
    [1537362,"2026-01-14 11:50:00","49118","0.986","123.0","1.797","138.8","1018.716","14.3","72.46","NAN","0.0"],
    [1537363,"2026-01-14 12:00:00","49119","0.7979999999999999","130.2","1.209","146.7","1018.6310000000001","14.41","71.98","NAN","0.0"],
    [1537364,"2026-01-14 12:10:00","49120","0.716","123.0","1.274","158.7","1018.454","14.3","72.85","NAN","0.0"],
    [1537365,"2026-01-14 12:20:00","49121","0.958","129.2","1.601","120.0","1018.2589999999999","14.57","71.85","NAN","0.0"],
    [1537366,"2026-01-14 12:30:00","49122","1.242","132.6","2.189","161.0","1018.202","13.93","73.83","NAN","0.0"],
    [1537367,"2026-01-14 12:40:00","49123","1.194","125.3","1.829","108.9","1018.058","13.99","74.16","NAN","0.0"],
    [1537368,"2026-01-14 12:50:00","49124","1.476","134.3","2.483","145.8","1018.0310000000001","14.2","73.34","NAN","0.0"],
    [1537369,"2026-01-14 13:00:00","49125","1.4469999999999998","139.7","2.287","166.1","1017.8510000000001","14.02","74.99","NAN","0.0"],
    [1537370,"2026-01-14 13:10:00","49126","1.348","156.1","2.385","161.6","1017.81","14.1","75.54","NAN","0.0"],
    [1537371,"2026-01-14 13:20:00","49127","1.6880000000000002","170.3","2.7439999999999998","152.5","1017.7180000000001","14","76.37","NAN","0.0"],
    [1537372,"2026-01-14 13:30:00","49128","1.6030000000000002","179.1","2.6460000000000004","185.2","1017.686","14.12","76.7","NAN","0.0"],
    [1537373,"2026-01-14 13:40:00","49129","1.962","180.1","2.907","180.2","1017.681","13.92","78.21","NAN","0.0"],
    [1537374,"2026-01-14 13:50:00","49130","1.969","183.1","3.234","176.3","1017.6139999999999","13.79","80.6","NAN","0.0"],
    [1537375,"2026-01-14 14:00:00","49131","1.8359999999999999","182.7","2.94","178.1","1017.59","13.76","82.1","NAN","0.0"],
    [1537376,"2026-01-14 14:10:00","49132","1.851","176.7","2.7769999999999997","176.7","1017.565","13.55","83.4","NAN","0.0"],
    [1537377,"2026-01-14 14:20:00","49133","1.557","172.8","2.548","168.8","1017.5219999999999","13.6","83.5","NAN","0.0"],
    [1537378,"2026-01-14 14:30:00","49134","1.758","184.0","2.875","179.6","1017.4730000000001","13.66","83.3","NAN","0.0"],
    [1537379,"2026-01-14 14:40:00","49135","1.7080000000000002","178.7","2.613","174.5","1017.48","13.73","83.7","NAN","0.0"],
    [1537380,"2026-01-14 14:50:00","49136","1.714","171.4","2.6460000000000004","167.3","1017.453","13.84","83.6","NAN","0.0"],
    [1537381,"2026-01-14 15:00:00","49137","2.017","172.3","3.1689999999999996","173.6","1017.453","13.86","84.3","NAN","0.0"],
    [1537382,"2026-01-14 15:10:00","49138","1.868","171.2","2.7769999999999997","185.1","1017.448","13.68","85.6","NAN","0.0"],
    [1537383,"2026-01-14 15:20:00","49139","1.3969999999999998","172.6","2.254","183.5","1017.482","13.66","85.7","NAN","0.0"],
    [1537384,"2026-01-14 15:30:00","49140","1.261","175.1","2.287","177.7","1017.4580000000001","13.77","85.1","NAN","0.0"],
    [1537385,"2026-01-14 15:40:00","49141","1.3430000000000002","166.9","2.254","173.8","1017.565","13.65","85.7","NAN","0.0"],
    [1537386,"2026-01-14 15:50:00","49142","0.946","179.0","1.829","163.8","1017.587","13.65","86.1","NAN","0.0"],
    [1537387,"2026-01-14 16:00:00","49143","0.828","187.4","1.601","166.3","1017.674","13.71","86.1","NAN","0.0"],
    [1537388,"2026-01-14 16:10:00","49144","0.8440000000000001","182.7","1.47","176.1","1017.7139999999999","13.69","86.6","NAN","0.0"],
    [1537389,"2026-01-14 16:20:00","49145","0.654","191.6","1.111","199.4","1017.809","13.61","87.1","NAN","0.0"],
    [1537390,"2026-01-14 16:30:00","49146","0.49700000000000005","186.0","0.98","191.5","1017.8389999999999","13.6","86.7","NAN","0.0"],
    [1537391,"2026-01-14 16:40:00","49147","0.797","174.8","1.895","168.4","1017.824","13.57","87.4","NAN","0.0"],
    [1537392,"2026-01-14 16:50:00","49148","0.929","178.3","1.633","158.6","1017.7239999999999","13.49","88.5","NAN","0.0"],
    [1537393,"2026-01-14 17:00:00","49149","0.591","193.4","1.143","215.8","1017.809","13.35","89.6","NAN","0.0"],
    [1537394,"2026-01-14 17:10:00","49150","0.10800000000000001","203.7","0.8490000000000001","175.7","1017.816","13.13","90","NAN","0.0"],
    [1537395,"2026-01-14 17:20:00","49151","0.01","218.4","0.6859999999999999","216.9","1017.804","12.93","90.9","NAN","0.0"],
    [1537396,"2026-01-14 17:30:00","49152","0.37","159.2","0.621","158.3","1017.737","12.88","92","NAN","0.0"],
    [1537397,"2026-01-14 17:40:00","49153","0.389","189.8","0.9470000000000001","204.8","1017.928","12.87","92","NAN","0.0"],
    [1537398,"2026-01-14 17:50:00","49154","0.7120000000000001","201.2","1.013","195.4","1018.056","12.79","92.5","NAN","0.0"],
    [1537399,"2026-01-14 18:00:00","49155","0.53","224.5","1.307","240.6","1018.177","12.94","92","NAN","0.0"],
    [1537400,"2026-01-14 18:10:00","49156","0.664","210.7","1.601","205.2","1018.194","13","91.1","NAN","0.0"],
    [1537401,"2026-01-14 18:20:00","49157","0.638","202.6","1.274","204.3","1018.273","12.99","91.3","NAN","0.0"],
    [1537402,"2026-01-14 18:30:00","49158","0.74","195.4","1.111","201.0","1018.2739999999999","12.91","91.7","NAN","0.0"],
    [1537403,"2026-01-14 18:40:00","49159","0.628","211.8","1.2409999999999999","242.8","1018.199","12.73","92.3","NAN","0.0"],
    [1537404,"2026-01-14 18:50:00","49160","0.889","207.9","1.3719999999999999","200.4","1018.313","12.77","92.7","NAN","0.0"],
    [1537405,"2026-01-14 19:00:00","49161","0.7659999999999999","202.8","1.339","195.9","1018.255","12.73","92.7","NAN","0.0"],
    [1537406,"2026-01-14 19:10:00","49162","0.9359999999999999","214.3","1.5030000000000001","216.9","1018.3910000000001","12.66","93.3","NAN","0.0"],
    [1537407,"2026-01-14 19:20:00","49163","0.758","240.4","1.5030000000000001","218.7","1018.6560000000001","12.69","93.5","NAN","0.0"],
    [1537408,"2026-01-14 19:30:00","49164","0.655","242.0","1.405","230.8","1018.6139999999999","12.98","92.1","NAN","0.0"],
    [1537409,"2026-01-14 19:40:00","49165","0.607","211.7","1.143","242.8","1018.596","12.89","91.7","NAN","0.0"],
    [1537410,"2026-01-14 19:50:00","49166","0.575","219.1","0.98","199.9","1018.515","12.55","92.8","NAN","0.0"],
    [1537411,"2026-01-14 20:00:00","49167","0.327","236.2","1.143","198.6","1018.513","12.63","93.5","NAN","0.0"],
    [1537412,"2026-01-14 20:10:00","49168","0.384","243.9","1.176","219.1","1018.534","12.64","92.5","NAN","0.0"],
    [1537413,"2026-01-14 20:20:00","49169","0.408","177.7","0.8490000000000001","174.7","1018.488","12.59","91.6","NAN","0.0"],
    [1537414,"2026-01-14 20:30:00","49170","0.145","101.6","0.555","99.8","1018.421","12.24","92.1","NAN","0.0"],
    [1537415,"2026-01-14 20:40:00","49171","0.0","0.0","0.0","0.0","1018.3789999999999","12.13","93.8","NAN","0.0"],
    [1537416,"2026-01-14 20:50:00","49172","0.0","0.0","0.0","0.0","1018.372","12.04","93.7","NAN","0.0"],
    [1537417,"2026-01-14 21:00:00","49173","0.019","234.5","0.392","234.4","1018.425","11.68","94.8","NAN","0.0"],
    [1537418,"2026-01-14 21:10:00","49174","0.027000000000000003","173.3","0.261","173.4","1018.445","11.65","95.7","NAN","0.0"],
    [1537419,"2026-01-14 21:20:00","49175","0.0","0.0","0.0","0.0","1018.507","11.79","95.9","NAN","0.0"],
    [1537420,"2026-01-14 21:30:00","49176","0.35100000000000003","252.0","1.47","260.8","1018.477","11.84","95.6","NAN","0.0"],
    [1537421,"2026-01-14 21:40:00","49177","0.557","268.9","1.47","302.5","1018.46","12.23","94.8","NAN","0.0"],
    [1537422,"2026-01-14 21:50:00","49178","0.489","260.9","1.47","265.6","1018.555","12.22","94.1","NAN","0.0"],
    [1537423,"2026-01-14 22:00:00","49179","0.402","254.9","1.4369999999999998","258.8","1018.52","12.11","94.2","NAN","0.0"],
    [1537424,"2026-01-14 22:10:00","49180","0.255","264.4","0.98","248.8","1018.672","12.04","94.3","NAN","0.0"],
    [1537425,"2026-01-14 22:20:00","49181","0.10800000000000001","30.31","0.457","30.12","1018.7539999999999","11.76","94.5","NAN","0.0"],
    [1537426,"2026-01-14 22:30:00","49182","0.531","57.05","1.111","49.79","1018.7510000000001","11.44","95.4","NAN","0.0"],
    [1537427,"2026-01-14 22:40:00","49183","0.099","81.0","0.49","76.8","1018.7539999999999","11.09","95.4","NAN","0.0"],
    [1537428,"2026-01-14 22:50:00","49184","0.233","14.54","0.653","25.5","1018.7539999999999","10.98","95.8","NAN","0.0"],
    [1537429,"2026-01-14 23:00:00","49185","0.32799999999999996","2.6430000000000002","0.98","6.184","1018.7539999999999","11.13","94.7","NAN","0.0"],
    [1537430,"2026-01-14 23:10:00","49186","0.47600000000000003","5.322","1.307","18.52","1018.7289999999999","11.25","93.2","NAN","0.0"],
    [1537431,"2026-01-14 23:20:00","49187","0.18899999999999997","42.19","0.621","40.7","1018.6519999999999","10.99","92.5","NAN","0.0"],
    [1537432,"2026-01-14 23:30:00","49188","0.556","5.899","1.045","2.563","1018.763","10.8","92.5","NAN","0.0"],
    [1537433,"2026-01-14 23:40:00","49189","0.506","18.81","1.5030000000000001","19.18","1018.7660000000001","10.74","90.4","NAN","0.0"],
    [1537434,"2026-01-14 23:50:00","49190","0.649","352.5","1.535","20.28","1018.747","10.66","88.8","NAN","0.0"],
    [1537435,"2026-01-15 00:00:00","49191","0.13699999999999998","0.9620000000000001","0.555","338.1","1018.7610000000001","10.75","87.9","NAN","0.0"],
    [1537436,"2026-01-15 00:10:00","49192","0.5539999999999999","17.58","1.4369999999999998","31.32","1018.748","10.55","89.2","NAN","0.0"],
    [1537437,"2026-01-15 00:20:00","49193","0.929","23.53","2.123","29.15","1018.665","10.35","89","NAN","0.0"],
    [1537438,"2026-01-15 00:30:00","49194","1.057","9.58","1.96","29.4","1018.493","10.27","88.3","NAN","0.0"],
    [1537439,"2026-01-15 00:40:00","49195","1.215","8.15","1.96","22.15","1018.398","10.3","87.7","NAN","0.0"],
    [1537440,"2026-01-15 00:50:00","49196","1.3459999999999999","8.0","2.156","3.9419999999999997","1018.421","10.23","86.9","NAN","0.0"],
    [1537441,"2026-01-15 01:00:00","49197","1.104","8.01","1.9269999999999998","24.79","1018.4580000000001","10.08","86.1","NAN","0.0"],
    [1537442,"2026-01-15 01:10:00","49198","1.305","6.562","1.96","6.42","1018.59","9.99","85.3","NAN","0.0"],
    [1537443,"2026-01-15 01:20:00","49199","1.015","10.03","2.287","19.12","1018.7330000000001","10.03","84.1","NAN","0.0"],
    [1537444,"2026-01-15 01:30:00","49200","1.1","16.01","2.189","16.25","1018.789","10.28","82.7","NAN","0.0"],
    [1537445,"2026-01-15 01:40:00","49201","1.226","11.49","2.417","359.9","1018.791","10.33","82.5","NAN","0.0"],
    [1537446,"2026-01-15 01:50:00","49202","1.462","7.766","2.385","36.52","1018.8","10.3","85.1","NAN","0.0"],
    [1537447,"2026-01-15 02:00:00","49203","1.1059999999999999","11.75","2.254","4.942","1018.809","10.28","88","NAN","0.0"],
    [1537448,"2026-01-15 02:10:00","49204","0.815","16.98","1.797","19.18","1018.7860000000001","10.11","90.1","NAN","0.0"],
    [1537449,"2026-01-15 02:20:00","49205","0.917","24.34","1.7309999999999999","46.45","1018.62","9.93","91.8","NAN","0.0"],
    [1537450,"2026-01-15 02:30:00","49206","0.765","17.01","1.568","42.08","1018.5139999999999","9.85","92.9","NAN","0.0"],
    [1537451,"2026-01-15 02:40:00","49207","0.7190000000000001","6.276","1.4369999999999998","34.19","1018.554","9.79","93.3","NAN","0.0"],
    [1537452,"2026-01-15 02:50:00","49208","0.364","6.165","0.784","0.929","1018.545","9.8","93","NAN","0.0"],
    [1537453,"2026-01-15 03:00:00","49209","0.47100000000000003","347.3","0.8170000000000001","5.945","1018.558","9.95","92.3","NAN","0.0"],
    [1537454,"2026-01-15 03:10:00","49210","0.37","42.92","1.405","18.24","1018.3489999999999","9.96","91.5","NAN","0.0"],
    [1537455,"2026-01-15 03:20:00","49211","0.741","14.79","1.666","17.85","1018.325","9.68","92.4","NAN","0.0"],
    [1537456,"2026-01-15 03:30:00","49212","0.907","2.7439999999999998","1.8619999999999999","8.75","1018.325","9.67","92.3","NAN","0.0"],
    [1537457,"2026-01-15 03:40:00","49213","0.82","10.88","1.568","349.4","1018.3760000000001","9.71","92.1","NAN","0.0"],
    [1537458,"2026-01-15 03:50:00","49214","0.727","16.11","1.4369999999999998","31.63","1018.429","9.64","92.3","NAN","0.0"],
    [1537459,"2026-01-15 04:00:00","49215","0.9890000000000001","18.1","1.895","354.0","1018.365","9.62","93","NAN","0.0"],
    [1537460,"2026-01-15 04:10:00","49216","0.846","23.35","1.8619999999999999","10.68","1018.329","9.53","93.4","NAN","0.0"],
    [1537461,"2026-01-15 04:20:00","49217","0.9590000000000001","16.94","2.156","7.325","1018.329","9.32","93.5","NAN","0.0"],
    [1537462,"2026-01-15 04:30:00","49218","1.288","11.62","2.352","31.64","1018.3969999999999","9.22","93.6","NAN","0.0"],
    [1537463,"2026-01-15 04:40:00","49219","1.185","9.61","2.45","15.95","1018.4","9.17","94","NAN","0.0"],
    [1537464,"2026-01-15 04:50:00","49220","0.96","15.8","2.45","18.35","1018.446","9.04","94.6","NAN","0.0"],
    [1537465,"2026-01-15 05:00:00","49221","1.412","7.672999999999999","3.0380000000000003","26.9","1018.418","9.07","94.9","NAN","0.0"],
    [1537466,"2026-01-15 05:10:00","49222","1.473","1.525","2.8089999999999997","15.9","1018.4060000000001","9.2","93.6","NAN","0.0"],
    [1537467,"2026-01-15 05:20:00","49223","0.922","8.56","2.5810000000000004","4.181","1018.326","9.2","92.8","NAN","0.0"],
    [1537468,"2026-01-15 05:30:00","49224","0.855","358.2","2.352","33.61","1018.217","9.07","92.9","NAN","0.0"],
    [1537469,"2026-01-15 05:40:00","49225","0.71","353.4","1.797","6.921","1018.2339999999999","9.08","92.8","NAN","0.0"],
    [1537470,"2026-01-15 05:50:00","49226","0.579","335.3","1.47","4.228","1018.1619999999999","9.23","92.2","NAN","0.0"],
    [1537471,"2026-01-15 06:00:00","49227","0.08","330.4","0.588","277.8","1018.242","9.51","90.8","NAN","0.0"],
    [1537472,"2026-01-15 06:10:00","49228","0.084","1.361","0.425","27.56","1018.329","9.12","91.1","NAN","0.0"],
    [1537473,"2026-01-15 06:20:00","49229","0.44","314.2","1.96","296.1","1018.329","9.21","92.4","NAN","0.0"],
    [1537474,"2026-01-15 06:30:00","49230","0.86","284.1","2.156","287.7","1018.331","9.73","89.7","NAN","0.0"],
    [1537475,"2026-01-15 06:40:00","49231","0.512","273.0","1.405","289.1","1018.321","9.88","87.3","NAN","0.0"],
    [1537476,"2026-01-15 06:50:00","49232","0.461","258.1","1.339","261.2","1018.319","9.71","87.4","NAN","0.0"],
    [1537477,"2026-01-15 07:00:00","49233","0.293","20.0","1.078","28.84","1018.314","9.62","87.9","NAN","0.0"],
    [1537478,"2026-01-15 07:10:00","49234","0.426","349.0","0.7509999999999999","342.6","1018.304","9.56","89.2","NAN","0.0"],
    [1537479,"2026-01-15 07:20:00","49235","0.111","281.1","0.653","304.2","1018.324","9.72","87.6","NAN","0.0"],
    [1537480,"2026-01-15 07:30:00","49236","0.027999999999999997","308.6","0.425","282.6","1018.319","9.5","87.8","NAN","0.0"],
    [1537481,"2026-01-15 07:40:00","49237","0.035","284.1","0.621","270.0","1018.316","9.44","88.2","NAN","0.0"],
    [1537482,"2026-01-15 07:50:00","49238","0.10400000000000001","281.8","0.7509999999999999","310.5","1018.316","9.72","87.1","NAN","0.0"],
    [1537483,"2026-01-15 08:00:00","49239","0.376","7.641","0.8490000000000001","33.14","1018.143","9.91","86","NAN","0.0"],
    [1537484,"2026-01-15 08:10:00","49240","0.534","18.83","1.993","308.2","1018.077","10.28","82.9","NAN","0.0"],
    [1537485,"2026-01-15 08:20:00","49241","0.821","11.75","2.156","41.41","1018.075","10.81","78.4","NAN","0.0"],
    [1537486,"2026-01-15 08:30:00","49242","1.226","12.94","2.287","15.81","1018.062","10.5","80.2","NAN","0.0"],
    [1537487,"2026-01-15 08:40:00","49243","0.937","352.2","2.025","34.92","1018.096","10.8","79.17","NAN","0.0"],
    [1537488,"2026-01-15 08:50:00","49244","0.872","6.921","1.7309999999999999","34.69","1018.243","10.95","77.65","NAN","0.0"],
    [1537489,"2026-01-15 09:00:00","49245","0.579","36.96","1.829","47.38","1018.2589999999999","11.45","75.17","NAN","0.0"],
    [1537490,"2026-01-15 09:10:00","49246","0.42200000000000004","50.61","1.176","65.28","1018.3330000000001","12.15","71.46","NAN","0.0"],
    [1537491,"2026-01-15 09:20:00","49247","0.47600000000000003","64.55","1.307","80.7","1018.3530000000001","12.46","69.33","NAN","0.0"],
    [1537492,"2026-01-15 09:30:00","49248","0.662","124.3","1.2409999999999999","120.2","1018.485","12.57","69.7","NAN","0.0"],
    [1537493,"2026-01-15 09:40:00","49249","0.858","125.2","1.339","159.8","1018.6510000000001","12.39","71.85","NAN","0.0"],
    [1537494,"2026-01-15 09:50:00","49250","0.7040000000000001","123.2","1.143","121.4","1018.686","12.67","71.01","NAN","0.0"],
    [1537495,"2026-01-15 10:00:00","49251","0.8079999999999999","136.7","1.4369999999999998","113.8","1018.688","12.75","71.45","NAN","0.0"],
    [1537496,"2026-01-15 10:10:00","49252","0.37799999999999995","182.9","0.915","181.7","1018.686","13.4","68.1","NAN","0.0"],
    [1537497,"2026-01-15 10:20:00","49253","0.853","223.4","1.797","238.1","1018.5039999999999","14.35","62.65","NAN","0.0"],
    [1537498,"2026-01-15 10:30:00","49254","0.998","197.2","2.156","145.0","1018.452","14.81","60.11","NAN","0.0"],
    [1537499,"2026-01-15 10:40:00","49255","1.2590000000000001","147.7","2.483","173.7","1018.4910000000001","14.26","66.02","NAN","0.0"],
    [1537500,"2026-01-15 10:50:00","49256","1.003","163.8","3.201","210.2","1018.437","14.56","64.22","NAN","0.0"],
    [1537501,"2026-01-15 11:00:00","49257","1.4380000000000002","224.8","2.907","249.4","1018.327","15.08","59.65","NAN","0.0"],
    [1537502,"2026-01-15 11:10:00","49258","1.6130000000000002","197.2","3.887","194.5","1018.22","14.68","64.8","NAN","0.0"],
    [1537503,"2026-01-15 11:20:00","49259","1.4140000000000001","241.7","3.528","240.0","1018.1669999999999","14.65","65.7","NAN","0.0"],
    [1537504,"2026-01-15 11:30:00","49260","0.988","225.1","3.201","239.0","1018.029","15.05","64.21","NAN","0.0"],
    [1537505,"2026-01-15 11:40:00","49261","1.4269999999999998","232.7","3.92","241.8","1017.888","15.12","63.53","NAN","0.0"],
    [1537506,"2026-01-15 11:50:00","49262","1.9609999999999999","207.4","4.083","229.0","1017.748","14.73","65.63","NAN","0.0"],
    [1537507,"2026-01-15 12:00:00","49263","2.181","224.1","4.051","226.1","1017.66","14.6","65.67","NAN","0.0"],
    [1537508,"2026-01-15 12:10:00","49264","1.472","235.3","3.9530000000000003","255.6","1017.544","14.92","65","NAN","0.0"],
    [1537509,"2026-01-15 12:20:00","49265","1.6480000000000001","211.8","3.92","227.5","1017.413","15.23","64.7","NAN","0.0"],
    [1537510,"2026-01-15 12:30:00","49266","1.57","227.9","3.365","229.1","1017.26","15.26","65","NAN","0.0"],
    [1537511,"2026-01-15 12:40:00","49267","1.521","238.0","3.659","228.9","1017.168","15.33","66.5","NAN","0.0"],
    [1537512,"2026-01-15 12:50:00","49268","1.274","218.7","3.332","239.3","1016.9889999999999","15.46","68.56","NAN","0.0"],
    [1537513,"2026-01-15 13:00:00","49269","1.476","209.9","3.005","183.3","1016.7460000000001","15.66","68.95","NAN","0.0"],
    [1537514,"2026-01-15 13:10:00","49270","1.817","195.9","3.855","175.4","1016.6139999999999","15.34","70.32","NAN","0.0"],
    [1537515,"2026-01-15 13:20:00","49271","2.8569999999999998","173.3","5.292000000000001","174.5","1016.4630000000001","14.79","75.73","NAN","0.0"],
    [1537516,"2026-01-15 13:30:00","49272","2.271","179.6","4.312","169.4","1016.314","14.34","80.1","NAN","0.0"],
    [1537517,"2026-01-15 13:40:00","49273","2.369","181.5","4.41","161.7","1016.183","14.38","80.3","NAN","0.0"],
    [1537518,"2026-01-15 13:50:00","49274","1.952","191.9","3.659","177.6","1016.127","14.65","78.12","NAN","0.0"],
    [1537519,"2026-01-15 14:00:00","49275","2.085","196.3","4.2139999999999995","203.6","1016.01","14.65","77.91","NAN","0.0"],
    [1537520,"2026-01-15 14:10:00","49276","1.531","198.3","3.234","180.2","1015.8910000000001","14.84","77.06","NAN","0.0"],
    [1537521,"2026-01-15 14:20:00","49277","1.989","204.7","5.815","209.3","1015.7130000000001","14.97","74.08","NAN","0.0"],
    [1537522,"2026-01-15 14:30:00","49278","1.768","220.5","3.985","221.1","1015.6489999999999","15.34","68.58","NAN","0.0"],
    [1537523,"2026-01-15 14:40:00","49279","2.0","204.0","3.9530000000000003","206.9","1015.607","15.29","63.24","NAN","0.0"],
    [1537524,"2026-01-15 14:50:00","49280","1.834","229.2","4.051","206.7","1015.564","15.35","61.91","NAN","0.0"],
    [1537525,"2026-01-15 15:00:00","49281","1.818","229.2","3.9530000000000003","206.3","1015.568","15.34","61.77","NAN","0.0"],
    [1537526,"2026-01-15 15:10:00","49282","1.548","233.3","4.573","213.5","1015.572","15.34","61.28","NAN","0.0"],
    [1537527,"2026-01-15 15:20:00","49283","1.845","213.2","4.279","223.4","1015.557","14.96","61.96","NAN","0.0"],
    [1537528,"2026-01-15 15:30:00","49284","1.6769999999999998","214.4","5.7170000000000005","196.3","1015.505","14.71","63.36","NAN","0.0"],
    [1537529,"2026-01-15 15:40:00","49285","1.032","215.7","3.985","204.8","1015.393","14.87","62.18","NAN","0.0"],
    [1537530,"2026-01-15 15:50:00","49286","1.192","229.9","3.103","242.4","1015.44","14.87","61.02","NAN","0.0"],
    [1537531,"2026-01-15 16:00:00","49287","1.778","229.0","3.659","249.1","1015.443","14.68","60.49","NAN","0.0"],
    [1537532,"2026-01-15 16:10:00","49288","1.5759999999999998","225.7","4.312","238.3","1015.44","14.44","61.2","NAN","0.0"],
    [1537533,"2026-01-15 16:20:00","49289","1.69","225.5","3.659","229.3","1015.448","14.23","61.26","NAN","0.0"],
    [1537534,"2026-01-15 16:30:00","49290","1.521","215.7","3.659","190.5","1015.423","14","61.05","NAN","0.0"],
    [1537535,"2026-01-15 16:40:00","49291","1.6440000000000001","216.6","4.247","201.7","1015.3480000000001","13.74","62.85","NAN","0.0"],
    [1537536,"2026-01-15 16:50:00","49292","1.557","223.2","3.7239999999999998","237.5","1015.32","13.55","63.13","NAN","0.0"],
    [1537537,"2026-01-15 17:00:00","49293","1.798","229.4","3.822","245.0","1015.336","13.55","61.31","NAN","0.0"],
    [1537538,"2026-01-15 17:10:00","49294","1.6969999999999998","240.8","3.7569999999999997","243.1","1015.443","13.46","64.12","NAN","0.0"],
    [1537539,"2026-01-15 17:20:00","49295","1.419","240.3","3.528","262.3","1015.515","13.33","67.18","NAN","0.0"],
    [1537540,"2026-01-15 17:30:00","49296","1.704","234.6","4.2139999999999995","243.0","1015.632","13.28","68.09","NAN","0.0"],
    [1537541,"2026-01-15 17:40:00","49297","1.001","224.4","3.234","218.5","1015.703","13.03","71.13","NAN","0.0"],
    [1537542,"2026-01-15 17:50:00","49298","1.215","235.3","3.201","240.8","1015.79","12.87","74.78","NAN","0.0"],
    [1537543,"2026-01-15 18:00:00","49299","1.4809999999999999","241.1","3.1689999999999996","245.4","1015.956","12.97","75.78","NAN","0.0"],
    [1537544,"2026-01-15 18:10:00","49300","1.135","236.5","2.875","244.1","1016.04","12.96","76.33","NAN","0.0"],
    [1537545,"2026-01-15 18:20:00","49301","1.196","241.3","2.679","242.6","1016.1439999999999","12.83","76.86","NAN","0.0"],
    [1537546,"2026-01-15 18:30:00","49302","0.9840000000000001","234.3","2.515","240.6","1016.23","12.86","76.64","NAN","0.0"],
    [1537547,"2026-01-15 18:40:00","49303","1.26","232.5","3.6260000000000003","264.1","1016.242","12.68","77.69","NAN","0.0"],
    [1537548,"2026-01-15 18:50:00","49304","1.147","236.7","2.94","245.9","1016.1389999999999","12.74","78.1","NAN","0.0"],
    [1537549,"2026-01-15 19:00:00","49305","0.698","237.5","2.156","247.6","1016.1310000000001","12.51","79.43","NAN","0.0"],
    [1537550,"2026-01-15 19:10:00","49306","1.06","247.0","2.123","292.4","1016.164","12.59","79.52","NAN","0.0"],
    [1537551,"2026-01-15 19:20:00","49307","0.83","241.4","2.0909999999999997","243.6","1016.196","12.62","78.82","NAN","0.0"],
    [1537552,"2026-01-15 19:30:00","49308","1.115","253.8","2.7110000000000003","262.8","1016.255","12.59","78.24","NAN","0.0"],
    [1537553,"2026-01-15 19:40:00","49309","0.831","238.3","1.96","286.8","1016.2280000000001","12.52","76.68","NAN","0.0"],
    [1537554,"2026-01-15 19:50:00","49310","0.9309999999999999","201.0","2.123","210.8","1016.262","12.27","77.91","NAN","0.0"],
    [1537555,"2026-01-15 20:00:00","49311","0.652","213.2","1.143","236.2","1016.265","11.69","79.72","NAN","0.0"],
    [1537556,"2026-01-15 20:10:00","49312","0.495","227.7","1.4369999999999998","263.3","1016.263","11.65","76.62","NAN","0.0"],
    [1537557,"2026-01-15 20:20:00","49313","0.747","233.8","1.601","242.6","1016.23","11.99","72.68","NAN","0.0"],
    [1537558,"2026-01-15 20:30:00","49314","0.917","217.4","1.633","236.9","1016.26","11.87","73.36","NAN","0.0"],
    [1537559,"2026-01-15 20:40:00","49315","0.823","209.6","1.176","205.9","1016.2180000000001","11.78","73.11","NAN","0.0"],
    [1537560,"2026-01-15 20:50:00","49316","0.637","232.0","1.47","271.0","1016.073","11.34","73.31","NAN","0.0"],
    [1537561,"2026-01-15 21:00:00","49317","0.772","211.0","1.405","222.1","1016.0160000000001","11.56","72.61","NAN","0.0"],
    [1537562,"2026-01-15 21:10:00","49318","0.777","203.4","1.2409999999999999","196.9","1016.0189999999999","11.39","74.12","NAN","0.0"],
    [1537563,"2026-01-15 21:20:00","49319","0.72","212.7","1.699","237.7","1016.002","11.19","74.57","NAN","0.0"],
    [1537564,"2026-01-15 21:30:00","49320","0.879","241.3","1.8619999999999999","245.8","1015.877","11.56","74.56","NAN","0.0"],
    [1537565,"2026-01-15 21:40:00","49321","0.526","253.7","1.339","247.7","1015.795","11.86","74.09","NAN","0.0"],
    [1537566,"2026-01-15 21:50:00","49322","0.596","232.9","1.4369999999999998","252.7","1015.768","11.54","76.45","NAN","0.0"],
    [1537567,"2026-01-15 22:00:00","49323","0.517","242.9","1.339","236.5","1015.7710000000001","11.54","77.61","NAN","0.0"],
    [1537568,"2026-01-15 22:10:00","49324","0.716","225.4","1.307","213.1","1015.6610000000001","11.48","78.35","NAN","0.0"],
    [1537569,"2026-01-15 22:20:00","49325","0.469","220.5","1.274","224.6","1015.669","11.35","80.1","NAN","0.0"],
    [1537570,"2026-01-15 22:30:00","49326","0.385","216.7","0.98","256.1","1015.72","11.06","82.6","NAN","0.0"],
    [1537571,"2026-01-15 22:40:00","49327","0.348","210.4","1.013","235.6","1015.752","10.97","83.8","NAN","0.0"],
    [1537572,"2026-01-15 22:50:00","49328","0.441","252.2","1.209","286.5","1015.73","10.9","84.7","NAN","0.0"],
    [1537573,"2026-01-15 23:00:00","49329","0.245","253.9","0.8490000000000001","312.3","1015.5830000000001","11.17","82.5","NAN","0.0"],
    [1537574,"2026-01-15 23:10:00","49330","0.484","228.0","0.915","216.9","1015.503","11.04","82.6","NAN","0.0"],
    [1537575,"2026-01-15 23:20:00","49331","0.402","268.7","1.045","259.0","1015.49","10.98","82.7","NAN","0.0"],
    [1537576,"2026-01-15 23:30:00","49332","0.156","333.0","0.555","311.2","1015.431","10.86","83.1","NAN","0.0"],
    [1537577,"2026-01-15 23:40:00","49333","0.114","3.8810000000000002","0.49","18.43","1015.4069999999999","10.83","82","NAN","0.0"],
    [1537578,"2026-01-15 23:50:00","49334","0.07400000000000001","106.5","0.457","100.7","1015.4169999999999","10.53","82.2","NAN","0.0"],
    [1537579,"2026-01-16 00:00:00","49335","0.204","120.5","0.7190000000000001","103.3","1015.3380000000001","10.37","83.5","NAN","0.0"],
    [1537580,"2026-01-16 00:10:00","49336","0.0","0.0","0.0","0.0","1015.307","10.34","85.6","NAN","0.0"],
    [1537581,"2026-01-16 00:20:00","49337","0.027999999999999997","266.9","0.523","267.9","1015.305","10.45","85.4","NAN","0.0"],
    [1537582,"2026-01-16 00:30:00","49338","0.419","309.2","1.045","308.1","1015.2139999999999","10.82","85.2","NAN","0.0"],
    [1537583,"2026-01-16 00:40:00","49339","0.395","355.6","0.9470000000000001","7.579","1015.097","10.96","80.9","NAN","0.0"],
    [1537584,"2026-01-16 00:50:00","49340","0.033","333.6","0.327","330.0","1015.055","10.84","80.9","NAN","0.0"],
    [1537585,"2026-01-16 01:00:00","49341","0.40700000000000003","192.7","0.7509999999999999","198.0","1015.061","10.49","84.1","NAN","0.0"],
    [1537586,"2026-01-16 01:10:00","49342","0.28600000000000003","222.1","0.588","214.6","1015.054","10.18","88.4","NAN","0.0"],
    [1537587,"2026-01-16 01:20:00","49343","0.18","241.6","0.555","237.6","1015.051","10.02","89.7","NAN","0.0"],
    [1537588,"2026-01-16 01:30:00","49344","0.27399999999999997","235.6","0.6859999999999999","220.0","1015.055","9.98","89.9","NAN","0.0"],
    [1537589,"2026-01-16 01:40:00","49345","0.003","255.4","0.261","256.3","1015.044","9.93","90.3","NAN","0.0"],
    [1537590,"2026-01-16 01:50:00","49346","0.166","262.6","0.653","252.9","1014.8689999999999","9.9","90.5","NAN","0.0"],
    [1537591,"2026-01-16 02:00:00","49347","0.319","304.8","0.6859999999999999","231.4","1014.84","10.04","88.2","NAN","0.0"],
    [1537592,"2026-01-16 02:10:00","49348","0.39899999999999997","23.08","0.9470000000000001","25.96","1014.936","10.09","85.6","NAN","0.0"],
    [1537593,"2026-01-16 02:20:00","49349","0.731","27.68","1.405","31.07","1014.86","9.97","84.3","NAN","0.0"],
    [1537594,"2026-01-16 02:30:00","49350","0.311","17.99","1.274","8.78","1014.828","9.89","83.3","NAN","0.0"],
    [1537595,"2026-01-16 02:40:00","49351","0.026000000000000002","15.32","0.327","19.85","1014.7260000000001","9.54","85","NAN","0.0"],
    [1537596,"2026-01-16 02:50:00","49352","0.245","53.77","0.784","59.83","1014.753","9.27","86.8","NAN","0.0"],
    [1537597,"2026-01-16 03:00:00","49353","0.9570000000000001","51.19","1.633","35.03","1014.7760000000001","9.1","87.3","NAN","0.0"],
    [1537598,"2026-01-16 03:10:00","49354","0.655","13.02","1.078","2.9160000000000004","1014.6139999999999","9.27","85.3","NAN","0.0"],
    [1537599,"2026-01-16 03:20:00","49355","0.66","16.5","1.2409999999999999","359.8","1014.547","9.32","83.7","NAN","0.0"],
    [1537600,"2026-01-16 03:30:00","49356","0.325","41.32","1.143","42.07","1014.5369999999999","9.01","84.5","NAN","0.0"],
    [1537601,"2026-01-16 03:40:00","49357","0.23","359.6","0.7190000000000001","6.428","1014.467","8.76","85.5","NAN","0.0"],
    [1537602,"2026-01-16 03:50:00","49358","0.524","5.811","1.176","5.336","1014.467","8.98","84.5","NAN","0.0"],
    [1537603,"2026-01-16 04:00:00","49359","0.418","6.316","1.013","26.47","1014.497","9.09","83.2","NAN","0.0"],
    [1537604,"2026-01-16 04:10:00","49360","0.528","6.17","0.915","19.55","1014.4689999999999","9.22","82.1","NAN","0.0"],
    [1537605,"2026-01-16 04:20:00","49361","0.615","14.88","1.176","13.32","1014.457","9.23","81.3","NAN","0.0"],
    [1537606,"2026-01-16 04:30:00","49362","0.364","6.091","0.8170000000000001","354.6","1014.367","9.17","81.4","NAN","0.0"],
    [1537607,"2026-01-16 04:40:00","49363","0.49700000000000005","351.8","0.915","354.4","1014.422","9.11","81.4","NAN","0.0"],
    [1537608,"2026-01-16 04:50:00","49364","0.528","355.7","0.915","351.7","1014.5","9.24","80.9","NAN","0.0"],
    [1537609,"2026-01-16 05:00:00","49365","0.31","359.7","0.98","3.8139999999999996","1014.5189999999999","9.32","79.72","NAN","0.0"],
    [1537610,"2026-01-16 05:10:00","49366","0.485","13.34","1.176","26.04","1014.467","9.06","80.5","NAN","0.0"],
    [1537611,"2026-01-16 05:20:00","49367","0.6409999999999999","353.9","1.339","9.2","1014.4639999999999","9","80.3","NAN","0.0"],
    [1537612,"2026-01-16 05:30:00","49368","0.6940000000000001","1.9","1.307","359.5","1014.39","9.1","79.05","NAN","0.0"],
    [1537613,"2026-01-16 05:40:00","49369","0.647","0.336","1.2409999999999999","5.256","1014.34","8.88","79.61","NAN","0.0"],
    [1537614,"2026-01-16 05:50:00","49370","0.5820000000000001","354.7","1.307","13.96","1014.32","8.79","79.88","NAN","0.0"],
    [1537615,"2026-01-16 06:00:00","49371","0.569","16.59","1.339","24.6","1014.3430000000001","8.74","80.2","NAN","0.0"],
    [1537616,"2026-01-16 06:10:00","49372","0.28600000000000003","2.505","0.6859999999999999","19.13","1014.3430000000001","8.59","80.8","NAN","0.0"],
    [1537617,"2026-01-16 06:20:00","49373","0.324","4.1419999999999995","0.8490000000000001","6.185","1014.385","8.49","81.6","NAN","0.0"],
    [1537618,"2026-01-16 06:30:00","49374","0.006","356.4","0.294","351.8","1014.385","8.36","82","NAN","0.0"],
    [1537619,"2026-01-16 06:40:00","49375","0.107","296.0","0.523","279.8","1014.345","8.5","83.6","NAN","0.0"],
    [1537620,"2026-01-16 06:50:00","49376","0.489","11.38","1.5030000000000001","5.336","1014.435","8.5","81.3","NAN","0.0"],
    [1537621,"2026-01-16 07:00:00","49377","0.6859999999999999","15.21","1.568","18.39","1014.467","8.39","80.6","NAN","0.0"],
    [1537622,"2026-01-16 07:10:00","49378","0.971","10.27","1.993","27.67","1014.472","8.28","79.63","NAN","0.0"],
    [1537623,"2026-01-16 07:20:00","49379","0.903","3.824","1.633","5.2410000000000005","1014.4789999999999","8.28","78.99","NAN","0.0"],
    [1537624,"2026-01-16 07:30:00","49380","0.502","359.6","1.013","348.1","1014.574","8.43","78.29","NAN","0.0"],
    [1537625,"2026-01-16 07:40:00","49381","0.447","28.06","0.8170000000000001","330.1","1014.6210000000001","8.4","78.2","NAN","0.0"],
    [1537626,"2026-01-16 07:50:00","49382","0.809","2.157","1.601","32.93","1014.607","8.36","77.79","NAN","0.0"],
    [1537627,"2026-01-16 08:00:00","49383","0.904","5.48","1.5030000000000001","9.74","1014.6519999999999","8.57","77.03","NAN","0.0"],
    [1537628,"2026-01-16 08:10:00","49384","0.508","6.874","1.2409999999999999","10.44","1014.826","8.84","76.36","NAN","0.0"],
    [1537629,"2026-01-16 08:20:00","49385","0.5539999999999999","4.2410000000000005","1.143","10.99","1014.8330000000001","9.15","75.01","NAN","0.0"],
    [1537630,"2026-01-16 08:30:00","49386","0.7340000000000001","356.0","1.339","358.0","1014.836","9.51","73.88","NAN","0.0"],
    [1537631,"2026-01-16 08:40:00","49387","0.69","352.0","1.307","12.67","1014.8589999999999","9.97","72.52","NAN","0.0"],
    [1537632,"2026-01-16 08:50:00","49388","0.456","350.5","0.9470000000000001","348.6","1014.934","10.5","71.27","NAN","0.0"],
    [1537633,"2026-01-16 09:00:00","49389","0.6409999999999999","15.85","1.143","24.74","1014.956","11.05","69.85","NAN","0.0"],
    [1537634,"2026-01-16 09:10:00","49390","0.711","13.51","1.3719999999999999","3.987","1015.008","11.64","67.96","NAN","0.0"],
    [1537635,"2026-01-16 09:20:00","49391","0.664","3.795","1.209","2.77","1015.002","11.78","67.57","NAN","0.0"],
    [1537636,"2026-01-16 09:30:00","49392","0.33299999999999996","73.37","1.176","97.9","1015.0880000000001","12.7","65","NAN","0.0"],
    [1537637,"2026-01-16 09:40:00","49393","0.868","112.5","1.3719999999999999","111.6","1015.199","13.04","63.28","NAN","0.0"],
    [1537638,"2026-01-16 09:50:00","49394","1.376","124.6","2.287","112.6","1015.2810000000001","12.77","65.75","NAN","0.0"],
    [1537639,"2026-01-16 10:00:00","49395","1.182","154.5","1.993","155.9","1015.445","12.49","68.61","NAN","0.0"],
    [1537640,"2026-01-16 10:10:00","49396","1.821","152.7","2.875","129.1","1015.47","12.23","72.31","NAN","0.0"],
    [1537641,"2026-01-16 10:20:00","49397","1.255","137.2","2.319","142.7","1015.4780000000001","11.91","75.56","NAN","0.0"],
    [1537642,"2026-01-16 10:30:00","49398","0.991","124.0","1.96","106.0","1015.375","11.99","76.61","NAN","0.0"],
    [1537643,"2026-01-16 10:40:00","49399","0.9309999999999999","128.1","1.829","92.2","1015.323","12.11","78.66","NAN","0.0"],
    [1537644,"2026-01-16 10:50:00","49400","1.07","117.3","2.221","141.2","1015.326","12.08","79.29","NAN","0.0"],
    [1537645,"2026-01-16 11:00:00","49401","0.7020000000000001","124.4","2.189","145.8","1015.321","12.16","77.47","NAN","0.0"],
    [1537646,"2026-01-16 11:10:00","49402","0.862","113.4","1.797","106.4","1015.2310000000001","12.22","77","NAN","0.0"],
    [1537647,"2026-01-16 11:20:00","49403","0.49","114.0","1.078","119.0","1015.1439999999999","12.2","75.4","NAN","0.0"],
    [1537648,"2026-01-16 11:30:00","49404","0.405","99.1","0.882","94.8","1014.9839999999999","12.54","76.8","NAN","0.0"],
    [1537649,"2026-01-16 11:40:00","49405","0.685","142.8","1.405","127.3","1014.743","12.74","75.25","NAN","0.0"],
    [1537650,"2026-01-16 11:50:00","49406","1.0090000000000001","124.6","2.0909999999999997","133.5","1014.701","12.56","76.71","NAN","0.0"],
    [1537651,"2026-01-16 12:00:00","49407","1.119","120.8","2.0580000000000003","118.9","1014.513","12.45","77.5","NAN","0.0"],
    [1537652,"2026-01-16 12:10:00","49408","0.972","119.9","1.633","109.0","1014.377","12.64","75.89","NAN","0.0"],
    [1537653,"2026-01-16 12:20:00","49409","1.1059999999999999","120.4","2.123","127.4","1014.247","13.42","71.57","NAN","0.0"],
    [1537654,"2026-01-16 12:30:00","49410","0.97","145.5","1.993","164.7","1014.192","13.53","69.81","NAN","0.0"],
    [1537655,"2026-01-16 12:40:00","49411","0.75","129.1","1.405","161.3","1014.035","13.87","66.51","NAN","0.0"],
    [1537656,"2026-01-16 12:50:00","49412","1.021","124.5","1.797","124.5","1013.926","14.16","59.7","NAN","0.0"],
    [1537657,"2026-01-16 13:00:00","49413","1.157","121.4","1.993","112.9","1013.7639999999999","14.26","57.86","NAN","0.0"],
    [1537658,"2026-01-16 13:10:00","49414","1.5419999999999998","124.8","2.8089999999999997","112.5","1013.6419999999999","13.94","60.9","NAN","0.0"],
    [1537659,"2026-01-16 13:20:00","49415","1.3459999999999999","125.5","2.417","116.5","1013.669","13.48","68.54","NAN","0.0"],
    [1537660,"2026-01-16 13:30:00","49416","1.278","122.8","2.0909999999999997","131.2","1013.6469999999999","13.3","69.71","NAN","0.0"],
    [1537661,"2026-01-16 13:40:00","49417","1.176","127.0","1.96","146.7","1013.69","13.27","70.34","NAN","0.0"],
    [1537662,"2026-01-16 13:50:00","49418","1.253","130.3","2.156","137.5","1013.704","13.57","66.8","NAN","0.0"],
    [1537663,"2026-01-16 14:00:00","49419","1.3519999999999999","129.1","2.189","139.7","1013.692","13.66","64.77","NAN","0.0"],
    [1537664,"2026-01-16 14:10:00","49420","1.4569999999999999","128.5","2.287","103.9","1013.6489999999999","13.54","67.6","NAN","0.0"],
    [1537665,"2026-01-16 14:20:00","49421","1.324","123.9","2.352","129.0","1013.664","13.53","71.4","NAN","0.0"],
    [1537666,"2026-01-16 14:30:00","49422","1.399","130.2","2.221","137.5","1013.704","13.43","71.29","NAN","0.0"],
    [1537667,"2026-01-16 14:40:00","49423","1.001","126.2","1.7309999999999999","122.2","1013.704","13.38","73.27","NAN","0.0"],
    [1537668,"2026-01-16 14:50:00","49424","0.693","120.5","1.764","125.2","1013.704","13.42","73.78","NAN","0.0"],
    [1537669,"2026-01-16 15:00:00","49425","0.625","109.3","1.307","112.1","1013.704","13.37","74.48","NAN","0.0"],
    [1537670,"2026-01-16 15:10:00","49426","0.915","132.0","1.666","119.6","1013.704","13.31","74.46","NAN","0.0"],
    [1537671,"2026-01-16 15:20:00","49427","0.995","125.9","1.535","118.8","1013.701","13.26","76.42","NAN","0.0"],
    [1537672,"2026-01-16 15:30:00","49428","0.9420000000000001","107.1","2.025","102.8","1013.597","13.27","75.88","NAN","0.0"],
    [1537673,"2026-01-16 15:40:00","49429","1.021","90.1","1.895","79.71","1013.57","13.37","73.78","NAN","0.0"],
    [1537674,"2026-01-16 15:50:00","49430","1.36","85.5","2.515","85.8","1013.497","13.33","73.59","NAN","0.0"],
    [1537675,"2026-01-16 16:00:00","49431","1.405","84.3","2.7110000000000003","72.87","1013.54","13.26","72.95","NAN","0.0"],
    [1537676,"2026-01-16 16:10:00","49432","1.17","84.8","2.319","77.07","1013.6619999999999","13.2","73.82","NAN","0.0"],
    [1537677,"2026-01-16 16:20:00","49433","0.7879999999999999","71.84","2.123","74.68","1013.592","13.18","76.86","NAN","0.0"],
    [1537678,"2026-01-16 16:30:00","49434","0.861","75.04","1.895","105.0","1013.587","13.2","78.82","NAN","0.0"],
    [1537679,"2026-01-16 16:40:00","49435","1.186","41.83","2.156","57.01","1013.582","13.14","80.6","NAN","0.0"],
    [1537680,"2026-01-16 16:50:00","49436","1.037","77.14","3.005","65.32","1013.5319999999999","13.17","82.1","NAN","0.0"],
    [1537681,"2026-01-16 17:00:00","49437","1.219","71.52","2.483","89.3","1013.53","13.19","82.4","NAN","0.0"],
    [1537682,"2026-01-16 17:10:00","49438","0.8420000000000001","50.21","1.7309999999999999","48.63","1013.607","13.22","83","NAN","0.0"],
    [1537683,"2026-01-16 17:20:00","49439","0.912","332.8","2.385","21.05","1013.694","13.31","82.2","NAN","0.0"],
    [1537684,"2026-01-16 17:30:00","49440","1.266","76.28","2.679","70.3","1013.682","13.25","83.5","NAN","0.0"],
    [1537685,"2026-01-16 17:40:00","49441","0.982","100.6","2.123","72.05","1013.7189999999999","13.28","83.8","NAN","0.0"],
    [1537686,"2026-01-16 17:50:00","49442","1.043","6.432","1.993","338.6","1013.7539999999999","13.4","84.5","NAN","0.0"],
    [1537687,"2026-01-16 18:00:00","49443","1.45","338.0","3.365","59.2","1013.923","13.57","84.9","NAN","0.0"],
    [1537688,"2026-01-16 18:10:00","49444","0.643","326.5","2.0580000000000003","44.46","1013.933","13.64","81.9","NAN","0.0"],
    [1537689,"2026-01-16 18:20:00","49445","0.47700000000000004","159.7","0.9470000000000001","201.9","1013.956","13.75","79.78","NAN","0.0"],
    [1537690,"2026-01-16 18:30:00","49446","0.153","148.0","0.6859999999999999","163.3","1014.05","13.6","81.4","NAN","0.0"],
    [1537691,"2026-01-16 18:40:00","49447","0.233","65.13","0.555","98.8","1014.075","13.56","81.5","NAN","0.0"],
    [1537692,"2026-01-16 18:50:00","49448","0.255","126.5","0.7190000000000001","145.1","1014.09","13.61","81.1","NAN","0.0"],
    [1537693,"2026-01-16 19:00:00","49449","0.242","120.3","0.882","103.8","1014.135","13.59","81","NAN","0.0"],
    [1537694,"2026-01-16 19:10:00","49450","0.61","109.5","1.601","162.4","1014.145","13.61","82.2","NAN","0.0"],
    [1537695,"2026-01-16 19:20:00","49451","0.893","147.3","1.5030000000000001","156.0","1014.18","13.54","83.6","NAN","0.0"],
    [1537696,"2026-01-16 19:30:00","49452","1.044","158.0","1.895","147.5","1014.18","13.64","82.6","NAN","0.0"],
    [1537697,"2026-01-16 19:40:00","49453","0.8240000000000001","146.3","1.568","129.7","1014.19","13.62","82.7","NAN","0.0"],
    [1537698,"2026-01-16 19:50:00","49454","0.845","149.8","1.601","150.6","1014.202","13.57","83.4","NAN","0.0"],
    [1537699,"2026-01-16 20:00:00","49455","0.8079999999999999","145.3","1.797","122.5","1014.185","13.53","83.6","NAN","0.0"],
    [1537700,"2026-01-16 20:10:00","49456","0.922","158.6","1.8619999999999999","153.6","1014.175","13.57","83.4","NAN","0.0"],
    [1537701,"2026-01-16 20:20:00","49457","0.414","165.5","1.274","147.0","1014.06","13.54","83.6","NAN","0.0"],
    [1537702,"2026-01-16 20:30:00","49458","0.579","149.3","1.078","149.5","1014.048","13.4","84.6","NAN","0.0"],
    [1537703,"2026-01-16 20:40:00","49459","0.11800000000000001","187.0","0.621","174.2","1014.182","13.35","84.6","NAN","0.0"],
    [1537704,"2026-01-16 20:50:00","49460","0.113","161.4","1.078","158.1","1014.1619999999999","13.26","85.8","NAN","0.0"],
    [1537705,"2026-01-16 21:00:00","49461","0.078","150.3","0.6859999999999999","138.5","1014.15","13.27","85.8","NAN","0.0"],
    [1537706,"2026-01-16 21:10:00","49462","0.258","144.9","1.013","135.1","1014.175","13.32","85.8","NAN","0.0"],
    [1537707,"2026-01-16 21:20:00","49463","0.72","152.0","1.7309999999999999","159.0","1014.172","13.54","85.1","NAN","0.0"],
    [1537708,"2026-01-16 21:30:00","49464","0.6559999999999999","137.3","1.339","143.9","1014.068","13.59","84.6","NAN","0.0"],
    [1537709,"2026-01-16 21:40:00","49465","0.816","134.1","1.764","120.0","1014.0830000000001","13.68","83.4","NAN","0.0"],
    [1537710,"2026-01-16 21:50:00","49466","0.765","113.2","1.764","121.4","1014.015","13.67","84","NAN","0.0"],
    [1537711,"2026-01-16 22:00:00","49467","0.564","96.8","1.339","102.4","1013.988","13.65","84.2","NAN","0.0"],
    [1537712,"2026-01-16 22:10:00","49468","0.6659999999999999","68.87","1.568","72.45","1013.96","13.6","85.1","NAN","0.0"],
    [1537713,"2026-01-16 22:20:00","49469","1.099","65.9","1.993","86.8","1013.953","13.63","85.7","NAN","0.0"],
    [1537714,"2026-01-16 22:30:00","49470","0.973","48.87","2.254","34.82","1013.953","13.68","85.9","NAN","0.0"],
    [1537715,"2026-01-16 22:40:00","49471","1.067","26.7","2.156","16.69","1013.953","13.38","85.1","NAN","0.0"],
    [1537716,"2026-01-16 22:50:00","49472","0.722","64.08","1.5030000000000001","68.62","1013.923","13.26","86","NAN","0.0"],
    [1537717,"2026-01-16 23:00:00","49473","0.996","59.31","2.0580000000000003","51.84","1013.818","13.21","86.6","NAN","0.0"],
    [1537718,"2026-01-16 23:10:00","49474","1.044","43.37","1.895","48.92","1013.7339999999999","13.19","86.7","NAN","0.0"],
    [1537719,"2026-01-16 23:20:00","49475","1.222","34.9","2.385","38.91","1013.617","13.12","86.7","NAN","0.0"],
    [1537720,"2026-01-16 23:30:00","49476","0.807","22.68","2.0909999999999997","18.85","1013.5319999999999","13.12","86.7","NAN","0.0"],
    [1537721,"2026-01-16 23:40:00","49477","1.043","21.69","1.993","31.67","1013.323","13.13","87","NAN","0.0"],
    [1537722,"2026-01-16 23:50:00","49478","1.014","43.17","1.764","49.88","1013.188","13.23","86.9","NAN","0.0"],
    [1537723,"2026-01-17 00:00:00","49479","0.71","44.16","1.339","34.84","1013.206","13.19","88","NAN","0.0"],
    [1537724,"2026-01-17 00:10:00","49480","0.441","29.2","1.339","30.71","1013.191","13.12","90.3","NAN","0.0"],
    [1537725,"2026-01-17 00:20:00","49481","0.652","356.7","1.307","350.0","1013.1360000000001","13","90.7","NAN","0.0"],
    [1537726,"2026-01-17 00:30:00","49482","0.835","0.24100000000000002","1.339","352.7","1012.9989999999999","12.93","90.8","NAN","0.1"],
    [1537727,"2026-01-17 00:40:00","49483","1.003","22.77","1.829","41.85","1012.957","12.95","91.1","NAN","0.0"],
    [1537728,"2026-01-17 00:50:00","49484","0.735","15.44","1.666","19.13","1012.8989999999999","12.89","91.8","NAN","0.0"],
    [1537729,"2026-01-17 01:00:00","49485","0.8440000000000001","17.32","2.221","17.89","1012.72","12.91","92.3","NAN","0.0"],
    [1537730,"2026-01-17 01:10:00","49486","0.7240000000000001","8.35","1.4369999999999998","21.86","1012.705","12.92","92.6","NAN","0.0"],
    [1537731,"2026-01-17 01:20:00","49487","0.9670000000000001","19.74","2.156","43.87","1012.541","12.92","92.3","NAN","0.0"],
    [1537732,"2026-01-17 01:30:00","49488","1.1179999999999999","29.95","2.613","32.53","1012.456","12.84","92.5","NAN","0.0"],
    [1537733,"2026-01-17 01:40:00","49489","1.119","25.43","2.319","12.05","1012.459","12.84","92.9","NAN","0.0"],
    [1537734,"2026-01-17 01:50:00","49490","0.826","32.91","1.993","23.95","1012.459","12.91","92.8","NAN","0.0"],
    [1537735,"2026-01-17 02:00:00","49491","1.024","44.04","2.613","32.4","1012.3610000000001","13.04","92.8","NAN","0.0"],
    [1537736,"2026-01-17 02:10:00","49492","1.78","63.9","4.312","72.53","1012.304","13.22","92.6","NAN","0.0"],
    [1537737,"2026-01-17 02:20:00","49493","2.021","59.28","4.835","85.5","1012.217","13.45","92.3","NAN","0.0"],
    [1537738,"2026-01-17 02:30:00","49494","2.224","69.83","4.312","96.4","1012.21","13.48","92.5","NAN","0.0"],
    [1537739,"2026-01-17 02:40:00","49495","2.1109999999999998","70.19","3.7889999999999997","74.58","1012.187","13.55","93.3","NAN","0.0"],
    [1537740,"2026-01-17 02:50:00","49496","1.915","83.9","3.7889999999999997","64.95","1012.0369999999999","13.79","95.3","NAN","0.0"],
    [1537741,"2026-01-17 03:00:00","49497","1.896","100.8","4.867","120.8","1011.9580000000001","13.79","95.9","NAN","0.0"],
    [1537742,"2026-01-17 03:10:00","49498","2.052","121.8","4.475","106.6","1011.956","13.73","94.2","NAN","0.0"],
    [1537743,"2026-01-17 03:20:00","49499","2.372","126.4","4.41","111.4","1011.903","13.75","93.3","NAN","0.0"],
    [1537744,"2026-01-17 03:30:00","49500","2.075","137.6","4.2139999999999995","111.6","1011.846","13.72","92.2","NAN","0.0"],
    [1537745,"2026-01-17 03:40:00","49501","2.1319999999999997","135.5","3.887","119.7","1011.7739999999999","13.76","91.5","NAN","0.0"],
    [1537746,"2026-01-17 03:50:00","49502","2.1719999999999997","135.0","4.508","116.8","1011.721","13.8","91.7","NAN","0.0"],
    [1537747,"2026-01-17 04:00:00","49503","2.864","127.6","4.606","151.6","1011.5939999999999","13.85","90.9","NAN","0.0"],
    [1537748,"2026-01-17 04:10:00","49504","2.546","127.1","4.704","121.2","1011.5239999999999","13.86","91.2","NAN","0.0"],
    [1537749,"2026-01-17 04:20:00","49505","2.398","122.6","4.998","121.2","1011.372","13.84","91.7","NAN","0.0"],
    [1537750,"2026-01-17 04:30:00","49506","2.096","116.4","4.508","115.3","1011.2130000000001","13.85","91.5","NAN","0.0"],
    [1537751,"2026-01-17 04:40:00","49507","2.095","111.9","3.985","86.5","1011.176","13.83","91","NAN","0.0"],
    [1537752,"2026-01-17 04:50:00","49508","2.1790000000000003","97.4","4.867","102.4","1011.1160000000001","13.86","91.3","NAN","0.0"],
    [1537753,"2026-01-17 05:00:00","49509","2.37","101.7","4.573","112.3","1011.154","13.87","92.3","NAN","0.0"],
    [1537754,"2026-01-17 05:10:00","49510","2.4290000000000003","99.8","4.737","114.2","1011.1460000000001","13.86","93.2","NAN","0.0"],
    [1537755,"2026-01-17 05:20:00","49511","2.299","101.2","4.802","102.3","1011.091","13.85","93.2","NAN","0.0"],
    [1537756,"2026-01-17 05:30:00","49512","2.2319999999999998","87.9","4.4430000000000005","59.03","1011.0239999999999","13.86","93.2","NAN","0.0"],
    [1537757,"2026-01-17 05:40:00","49513","2.685","102.1","5.292000000000001","95.2","1010.9689999999999","13.87","93.1","NAN","0.0"],
    [1537758,"2026-01-17 05:50:00","49514","2.977","104.0","5.7170000000000005","95.7","1011.007","13.9","93.2","NAN","0.0"],
    [1537759,"2026-01-17 06:00:00","49515","2.915","100.7","6.1739999999999995","103.7","1010.942","13.91","93","NAN","0.0"],
    [1537760,"2026-01-17 06:10:00","49516","2.627","99.3","5.194","117.9","1010.959","13.87","93","NAN","0.0"],
    [1537761,"2026-01-17 06:20:00","49517","2.65","97.0","6.337000000000001","100.3","1010.9639999999999","13.87","92.7","NAN","0.0"],
    [1537762,"2026-01-17 06:30:00","49518","2.925","101.4","5.912999999999999","127.4","1010.954","13.92","92.9","NAN","0.0"],
    [1537763,"2026-01-17 06:40:00","49519","3.1639999999999997","99.4","5.749","104.7","1010.962","13.92","92.9","NAN","0.0"],
    [1537764,"2026-01-17 06:50:00","49520","2.572","96.7","5.357","79.15","1010.954","13.9","92.3","NAN","0.0"],
    [1537765,"2026-01-17 07:00:00","49521","3.44","101.3","6.468","108.7","1010.952","13.95","92.1","NAN","0.0"],
    [1537766,"2026-01-17 07:10:00","49522","3.608","101.5","7.0889999999999995","101.2","1010.885","13.96","92.6","NAN","0.0"],
    [1537767,"2026-01-17 07:20:00","49523","3.022","106.0","6.337000000000001","110.9","1010.957","13.93","92.4","NAN","0.0"],
    [1537768,"2026-01-17 07:30:00","49524","3.0469999999999997","100.9","6.435","111.1","1010.962","13.95","92.1","NAN","0.0"],
    [1537769,"2026-01-17 07:40:00","49525","3.675","98.7","7.481","93.2","1010.9639999999999","13.96","92.5","NAN","0.0"],
    [1537770,"2026-01-17 07:50:00","49526","3.927","99.4","6.86","110.0","1010.992","13.96","92.6","NAN","0.0"],
    [1537771,"2026-01-17 08:00:00","49527","3.736","102.3","6.925","122.1","1011.051","13.99","92.1","NAN","0.0"],
    [1537772,"2026-01-17 08:10:00","49528","3.179","102.1","6.957999999999999","101.7","1011.077","14.02","91.9","NAN","0.0"],
    [1537773,"2026-01-17 08:20:00","49529","3.466","112.3","5.912999999999999","107.1","1011.1189999999999","14.03","91.7","NAN","0.0"],
    [1537774,"2026-01-17 08:30:00","49530","3.267","107.1","8.23","82.5","1011.1439999999999","14.01","92.2","NAN","0.0"],
    [1537775,"2026-01-17 08:40:00","49531","3.008","104.3","6.37","96.2","1011.2080000000001","13.95","92.8","NAN","0.0"],
    [1537776,"2026-01-17 08:50:00","49532","2.47","104.7","6.042999999999999","99.6","1011.211","13.95","93","NAN","0.0"],
    [1537777,"2026-01-17 09:00:00","49533","3.4960000000000004","101.6","6.468","95.8","1011.2180000000001","14","92.4","NAN","0.0"],
    [1537778,"2026-01-17 09:10:00","49534","3.3710000000000004","105.9","7.644","93.7","1011.2180000000001","14.02","93.5","NAN","0.0"],
    [1537779,"2026-01-17 09:20:00","49535","3.278","104.2","7.971","103.9","1011.2760000000001","13.98","93.4","NAN","0.0"],
    [1537780,"2026-01-17 09:30:00","49536","3.199","104.7","7.546","106.8","1011.308","14.03","93.6","NAN","0.0"],
    [1537781,"2026-01-17 09:40:00","49537","3.3080000000000003","100.4","7.121","95.6","1011.3330000000001","14.03","94.2","NAN","0.0"],
    [1537782,"2026-01-17 09:50:00","49538","4.248","98.5","7.546","108.4","1011.3330000000001","14.03","93.7","NAN","0.0"],
    [1537783,"2026-01-17 10:00:00","49539","3.745","98.2","7.382999999999999","100.0","1011.355","14","93.4","NAN","0.1"],
    [1537784,"2026-01-17 10:10:00","49540","3.053","105.9","7.84","97.3","1011.34","13.94","93.7","NAN","0.0"],
    [1537785,"2026-01-17 10:20:00","49541","3.8289999999999997","114.5","6.697","111.5","1011.38","13.94","93.4","NAN","0.0"],
    [1537786,"2026-01-17 10:30:00","49542","3.38","118.8","6.37","117.0","1011.36","14.01","93","NAN","0.0"],
    [1537787,"2026-01-17 10:40:00","49543","3.6060000000000003","103.7","8.46","112.0","1011.268","13.99","93","NAN","0.0"],
    [1537788,"2026-01-17 10:50:00","49544","4.087","102.2","7.709","108.1","1011.26","13.99","92.2","NAN","0.0"],
    [1537789,"2026-01-17 11:00:00","49545","3.697","103.7","6.729","92.0","1011.2080000000001","13.96","91.8","NAN","0.0"],
    [1537790,"2026-01-17 11:10:00","49546","2.79","107.5","5.684","100.3","1011.1560000000001","13.96","91.1","NAN","0.0"],
    [1537791,"2026-01-17 11:20:00","49547","3.188","100.0","7.023","110.1","1011.0239999999999","13.98","90.5","NAN","0.0"],
    [1537792,"2026-01-17 11:30:00","49548","3.623","111.1","7.742000000000001","113.0","1010.919","13.99","90.6","NAN","0.0"],
    [1537793,"2026-01-17 11:40:00","49549","3.174","113.4","7.382999999999999","94.2","1010.69","13.98","90.7","NAN","0.0"],
    [1537794,"2026-01-17 11:50:00","49550","3.548","109.7","7.872999999999999","88.6","1010.4730000000001","13.96","90.7","NAN","0.0"],
    [1537795,"2026-01-17 12:00:00","49551","3.398","105.1","7.742000000000001","101.5","1010.317","13.99","90.7","NAN","0.0"],
    [1537796,"2026-01-17 12:10:00","49552","3.16","105.8","7.709","84.2","1010.227","14","90.4","NAN","0.0"],
    [1537797,"2026-01-17 12:20:00","49553","3.035","105.8","6.109","114.4","1010.12","14.03","91","NAN","0.0"],
    [1537798,"2026-01-17 12:30:00","49554","3.468","110.9","7.84","113.8","1009.956","13.98","91.7","NAN","0.0"],
    [1537799,"2026-01-17 12:40:00","49555","3.8","119.2","7.4479999999999995","106.5","1009.8480000000001","13.98","91.5","NAN","0.0"],
    [1537800,"2026-01-17 12:50:00","49556","3.168","118.5","6.272","119.5","1009.686","13.96","92.5","NAN","0.1"],
    [1537801,"2026-01-17 13:00:00","49557","3.233","116.2","6.305","119.8","1009.602","13.82","94.1","NAN","0.3"],
    [1537802,"2026-01-17 13:10:00","49558","3.1889999999999996","116.8","6.599","130.7","1009.457","13.74","95","NAN","0.4"],
    [1537803,"2026-01-17 13:20:00","49559","3.715","127.1","6.337000000000001","114.0","1009.357","13.74","94.8","NAN","0.1"],
    [1537804,"2026-01-17 13:30:00","49560","3.847","123.8","7.905","106.4","1009.323","13.96","92.3","NAN","0.0"],
    [1537805,"2026-01-17 13:40:00","49561","3.36","123.9","5.912999999999999","122.0","1009.278","14.07","91.9","NAN","0.0"],
    [1537806,"2026-01-17 13:50:00","49562","3.3710000000000004","123.5","6.501","111.6","1009.258","14.04","91.7","NAN","0.0"],
    [1537807,"2026-01-17 14:00:00","49563","3.372","123.8","6.501","103.2","1009.2360000000001","14.03","92.1","NAN","0.0"],
    [1537808,"2026-01-17 14:10:00","49564","3.282","123.3","6.893","106.0","1009.2260000000001","14.02","92.7","NAN","0.0"],
    [1537809,"2026-01-17 14:20:00","49565","3.1830000000000003","133.2","5.325","116.7","1009.2360000000001","13.99","93.3","NAN","0.0"],
    [1537810,"2026-01-17 14:30:00","49566","3.529","127.0","6.1739999999999995","102.9","1009.196","13.94","94","NAN","0.0"],
    [1537811,"2026-01-17 14:40:00","49567","3.4139999999999997","122.7","6.403","109.9","1009.0189999999999","13.91","94.3","NAN","0.0"],
    [1537812,"2026-01-17 14:50:00","49568","3.248","160.3","7.154","168.9","1009.217","13.65","93.6","NAN","1.1"],
    [1537813,"2026-01-17 15:00:00","49569","1.703","228.6","5.194","231.4","1009.572","11.46","94.8","NAN","2.2"],
    [1537814,"2026-01-17 15:10:00","49570","0.77","244.5","2.6460000000000004","243.7","1009.43","11.03","98.1","NAN","1.5"],
    [1537815,"2026-01-17 15:20:00","49571","0.5379999999999999","224.7","1.568","231.0","1009.3589999999999","11","99.1","NAN","0.7"],
    [1537816,"2026-01-17 15:30:00","49572","0.33399999999999996","224.8","1.143","188.3","1009.299","11.02","99.6","NAN","0.8"],
    [1537817,"2026-01-17 15:40:00","49573","0.34600000000000003","283.8","1.4369999999999998","307.6","1009.1310000000001","11.01","99.8","NAN","0.2"],
    [1537818,"2026-01-17 15:50:00","49574","0.301","327.1","1.568","298.9","1009.237","11.15","99.8","NAN","0.0"],
    [1537819,"2026-01-17 16:00:00","49575","0.303","259.0","1.176","253.2","1009.2560000000001","11.13","99.7","NAN","0.1"],
    [1537820,"2026-01-17 16:10:00","49576","0.588","49.95","2.156","68.82","1009.23","11.16","99.6","NAN","0.1"],
    [1537821,"2026-01-17 16:20:00","49577","1.071","57.27","1.993","64.65","1009.176","11.26","99.6","NAN","0.1"],
    [1537822,"2026-01-17 16:30:00","49578","1.012","62.22","1.797","49.81","1009.2769999999999","11.28","99.6","NAN","0.3"],
    [1537823,"2026-01-17 16:40:00","49579","1.2429999999999999","42.01","2.287","49.41","1009.203","11.34","99.8","NAN","0.3"],
    [1537824,"2026-01-17 16:50:00","49580","0.853","47.18","2.6460000000000004","29.54","1009.253","11.35","99.9","NAN","0.4"],
    [1537825,"2026-01-17 17:00:00","49581","1.514","42.72","2.875","16.82","1009.201","11.3","99.8","NAN","0.1"],
    [1537826,"2026-01-17 17:10:00","49582","1.146","37.04","2.907","29.59","1009.084","11.21","99.7","NAN","0.0"],
    [1537827,"2026-01-17 17:20:00","49583","1.114","42.67","3.103","22.96","1009.138","11.23","99.5","NAN","0.0"],
    [1537828,"2026-01-17 17:30:00","49584","0.9670000000000001","43.54","2.385","56.7","1009.258","11.21","99.1","NAN","0.0"],
    [1537829,"2026-01-17 17:40:00","49585","1.3780000000000001","54.51","2.254","66.87","1009.288","11.21","98.5","NAN","0.0"],
    [1537830,"2026-01-17 17:50:00","49586","1.14","50.93","2.221","78.68","1009.36","11.28","97.8","NAN","0.0"],
    [1537831,"2026-01-17 18:00:00","49587","1.004","33.75","2.0580000000000003","42.73","1009.312","11.35","97.3","NAN","0.0"],
    [1537832,"2026-01-17 18:10:00","49588","1.197","57.78","2.287","55.79","1009.293","11.39","96.7","NAN","0.0"],
    [1537833,"2026-01-17 18:20:00","49589","1.016","44.12","2.0580000000000003","65.03","1009.29","11.44","96.3","NAN","0.0"],
    [1537834,"2026-01-17 18:30:00","49590","1.197","57.05","1.9269999999999998","60.88","1009.33","11.51","95.7","NAN","0.0"],
    [1537835,"2026-01-17 18:40:00","49591","0.71","30.59","1.829","7.598","1009.298","11.54","95.6","NAN","0.0"],
    [1537836,"2026-01-17 18:50:00","49592","0.315","61.56","1.405","48.9","1009.3330000000001","11.58","95.3","NAN","0.0"],
    [1537837,"2026-01-17 19:00:00","49593","0.158","341.5","1.3719999999999999","34.56","1009.447","11.56","95.2","NAN","0.7"],
    [1537838,"2026-01-17 19:10:00","49594","0.675","15.46","1.9269999999999998","7.2410000000000005","1009.414","11.48","95.6","NAN","0.7"],
    [1537839,"2026-01-17 19:20:00","49595","0.882","35.57","1.829","7.609","1009.4069999999999","11.48","96.6","NAN","0.8"],
    [1537840,"2026-01-17 19:30:00","49596","1.079","39.37","2.123","53.29","1009.4069999999999","11.39","97.7","NAN","0.6"],
    [1537841,"2026-01-17 19:40:00","49597","0.9690000000000001","52.06","2.189","43.02","1009.4069999999999","11.33","98.6","NAN","0.2"],
    [1537842,"2026-01-17 19:50:00","49598","1.26","45.5","2.515","36.5","1009.4010000000001","11.34","98.7","NAN","0.1"],
    [1537843,"2026-01-17 20:00:00","49599","1.168","41.91","2.123","46.28","1009.2869999999999","11.35","98.5","NAN","0.1"],
    [1537844,"2026-01-17 20:10:00","49600","0.7759999999999999","25.52","1.8619999999999999","43.03","1009.1610000000001","11.38","98.2","NAN","0.2"],
    [1537845,"2026-01-17 20:20:00","49601","1.168","42.8","2.5810000000000004","48.34","1009.225","11.4","98.1","NAN","0.0"],
    [1537846,"2026-01-17 20:30:00","49602","1.046","50.62","2.548","63.63","1009.2589999999999","11.38","98","NAN","0.0"],
    [1537847,"2026-01-17 20:40:00","49603","1.16","32.92","2.5810000000000004","36.96","1009.283","11.4","98","NAN","0.0"],
    [1537848,"2026-01-17 20:50:00","49604","0.8140000000000001","24.25","2.0909999999999997","34.4","1009.235","11.45","98","NAN","0.1"],
    [1537849,"2026-01-17 21:00:00","49605","0.802","29.15","1.9269999999999998","40.22","1009.13","11.5","98.1","NAN","0.1"],
    [1537850,"2026-01-17 21:10:00","49606","0.929","34.09","2.5810000000000004","36.19","1009.049","11.53","98.3","NAN","0.0"],
    [1537851,"2026-01-17 21:20:00","49607","1.551","42.27","3.005","43.22","1009.072","11.54","98.4","NAN","0.0"],
    [1537852,"2026-01-17 21:30:00","49608","1.459","37.48","3.103","34.93","1009.041","11.61","98.3","NAN","0.1"],
    [1537853,"2026-01-17 21:40:00","49609","1.578","41.46","2.9730000000000003","67.16","1008.8860000000001","11.62","97.9","NAN","0.1"],
    [1537854,"2026-01-17 21:50:00","49610","1.445","45.82","3.071","51.73","1008.7860000000001","11.65","97.1","NAN","0.0"],
    [1537855,"2026-01-17 22:00:00","49611","0.7170000000000001","30.42","1.993","47.62","1008.797","11.66","96.5","NAN","0.0"],
    [1537856,"2026-01-17 22:10:00","49612","1.0959999999999999","34.45","2.7439999999999998","41.98","1008.794","11.65","96.1","NAN","0.0"],
    [1537857,"2026-01-17 22:20:00","49613","1.084","18.3","2.319","15.92","1008.79","11.7","95.1","NAN","0.1"],
    [1537858,"2026-01-17 22:30:00","49614","0.871","15.81","1.666","356.8","1008.78","11.69","95.2","NAN","0.2"],
    [1537859,"2026-01-17 22:40:00","49615","0.57","11.0","2.156","7.692","1008.783","11.66","95.6","NAN","0.4"],
    [1537860,"2026-01-17 22:50:00","49616","0.401","13.2","1.339","29.05","1008.796","11.73","95.7","NAN","0.1"],
    [1537861,"2026-01-17 23:00:00","49617","1.015","54.14","3.365","115.2","1008.904","11.92","95.4","NAN","0.0"],
    [1537862,"2026-01-17 23:10:00","49618","1.8259999999999998","65.51","5.455","99.6","1008.8960000000001","12.33","96.8","NAN","1.0"],
    [1537863,"2026-01-17 23:20:00","49619","2.8089999999999997","99.3","5.847","108.1","1008.8910000000001","12.68","98.3","NAN","1.4"],
    [1537864,"2026-01-17 23:30:00","49620","3.239","113.8","6.239","57.59","1008.8660000000001","12.68","98.5","NAN","0.7"],
    [1537865,"2026-01-17 23:40:00","49621","2.7030000000000003","108.6","5.782","113.5","1008.877","12.61","98.6","NAN","0.7"],
    [1537866,"2026-01-17 23:50:00","49622","2.4819999999999998","110.9","4.606","106.8","1008.87","12.66","98.5","NAN","0.3"],
    [1537867,"2026-01-18 00:00:00","49623","2.3","125.7","4.345","121.6","1008.9069999999999","12.64","98.5","NAN","0.0"],
    [1537868,"2026-01-18 00:10:00","49624","1.5819999999999999","121.0","3.6910000000000003","107.2","1008.8489999999999","12.55","98","NAN","0.0"],
    [1537869,"2026-01-18 00:20:00","49625","1.1179999999999999","106.2","2.385","123.0","1008.747","12.41","97.3","NAN","0.0"],
    [1537870,"2026-01-18 00:30:00","49626","0.174","135.3","1.405","80.4","1008.7510000000001","12.31","97.5","NAN","0.0"],
    [1537871,"2026-01-18 00:40:00","49627","0.387","144.2","1.176","150.7","1008.7439999999999","12.21","97.9","NAN","0.0"],
    [1537872,"2026-01-18 00:50:00","49628","0.527","166.6","1.209","142.7","1008.748","12.29","98.2","NAN","0.0"],
    [1537873,"2026-01-18 01:00:00","49629","0.7","191.0","1.9269999999999998","173.6","1008.7360000000001","12.05","98","NAN","0.0"],
    [1537874,"2026-01-18 01:10:00","49630","0.5489999999999999","205.0","1.535","203.7","1008.778","11.75","96.7","NAN","0.0"],
    [1537875,"2026-01-18 01:20:00","49631","0.434","190.8","1.2409999999999999","177.3","1008.7610000000001","11.76","96.1","NAN","0.0"],
    [1537876,"2026-01-18 01:30:00","49632","0.0","0.0","0.0","0.0","1008.794","11.78","96","NAN","0.0"],
    [1537877,"2026-01-18 01:40:00","49633","0.24100000000000002","200.2","1.143","195.6","1008.993","11.67","96.3","NAN","0.0"],
    [1537878,"2026-01-18 01:50:00","49634","0.106","233.5","0.7190000000000001","271.2","1009.0189999999999","11.61","96.3","NAN","0.0"],
    [1537879,"2026-01-18 02:00:00","49635","0.18","215.6","0.784","240.0","1009.0060000000001","11.55","96.3","NAN","0.0"],
    [1537880,"2026-01-18 02:10:00","49636","0.287","236.4","0.653","213.0","1009.0360000000001","11.41","96.5","NAN","0.0"],
    [1537881,"2026-01-18 02:20:00","49637","0.08199999999999999","267.0","0.621","255.7","1009.03","11.4","96.7","NAN","0.0"],
    [1537882,"2026-01-18 02:30:00","49638","0.218","224.5","0.49","218.6","1009.15","11.34","96.4","NAN","0.0"],
    [1537883,"2026-01-18 02:40:00","49639","0.0","0.0","0.0","0.0","1009.305","11.12","96.9","NAN","0.0"],
    [1537884,"2026-01-18 02:50:00","49640","0.019","216.8","0.294","217.7","1009.303","11.13","97.5","NAN","0.0"],
    [1537885,"2026-01-18 03:00:00","49641","0.035","215.7","0.327","215.7","1009.4069999999999","11.08","97.6","NAN","0.0"],
    [1537886,"2026-01-18 03:10:00","49642","0.0","0.0","0.0","0.0","1009.4169999999999","11.22","97.9","NAN","0.0"],
    [1537887,"2026-01-18 03:20:00","49643","0.218","8.57","0.7509999999999999","22.99","1009.46","11.43","97.3","NAN","0.0"],
    [1537888,"2026-01-18 03:30:00","49644","0.419","3.78","0.8490000000000001","16.95","1009.4169999999999","11.59","96.9","NAN","0.0"],
    [1537889,"2026-01-18 03:40:00","49645","0.821","355.1","1.7309999999999999","348.8","1009.367","11.75","96.6","NAN","0.1"],
    [1537890,"2026-01-18 03:50:00","49646","0.151","344.2","0.7509999999999999","344.2","1009.3910000000001","11.87","96","NAN","0.1"],
    [1537891,"2026-01-18 04:00:00","49647","0.521","43.68","1.3719999999999999","350.6","1009.37","11.76","96.3","NAN","0.0"],
    [1537892,"2026-01-18 04:10:00","49648","0.478","32.05","1.7309999999999999","351.3","1009.357","11.81","96.9","NAN","0.0"],
    [1537893,"2026-01-18 04:20:00","49649","1.046","11.38","2.221","359.9","1009.438","11.86","96.5","NAN","0.1"],
    [1537894,"2026-01-18 04:30:00","49650","0.493","6.056","1.5030000000000001","18.41","1009.5060000000001","11.88","96","NAN","0.0"],
    [1537895,"2026-01-18 04:40:00","49651","0.968","16.96","1.829","39.09","1009.477","11.86","96.4","NAN","0.0"],
    [1537896,"2026-01-18 04:50:00","49652","1.1520000000000001","22.59","2.189","29.37","1009.5260000000001","11.85","96.4","NAN","0.0"],
    [1537897,"2026-01-18 05:00:00","49653","1.097","17.8","2.221","35.29","1009.578","11.88","96.1","NAN","0.0"],
    [1537898,"2026-01-18 05:10:00","49654","0.713","30.91","1.666","8.75","1009.6360000000001","11.87","96.3","NAN","0.0"],
    [1537899,"2026-01-18 05:20:00","49655","1.037","48.03","2.319","34.28","1009.6439999999999","11.84","96.2","NAN","0.0"],
    [1537900,"2026-01-18 05:30:00","49656","0.565","34.87","1.895","33.72","1009.7","11.85","96.2","NAN","0.0"],
    [1537901,"2026-01-18 05:40:00","49657","1.112","189.3","2.679","178.5","1009.779","11.97","95.4","NAN","0.0"],
    [1537902,"2026-01-18 05:50:00","49658","1.314","177.0","2.842","176.5","1009.832","12.43","91.1","NAN","0.0"],
    [1537903,"2026-01-18 06:00:00","49659","1.119","186.8","2.94","178.5","1009.987","12.36","90.6","NAN","0.0"],
    [1537904,"2026-01-18 06:10:00","49660","0.599","214.3","1.764","201.6","1010.078","12.12","92.5","NAN","0.0"],
    [1537905,"2026-01-18 06:20:00","49661","0.753","209.6","1.601","229.1","1010.2510000000001","11.75","94","NAN","0.1"],
    [1537906,"2026-01-18 06:30:00","49662","0.251","220.7","1.013","237.8","1010.2669999999999","11.5","94.9","NAN","0.0"],
    [1537907,"2026-01-18 06:40:00","49663","0.34600000000000003","224.3","1.013","198.8","1010.329","11.44","94.9","NAN","0.2"],
    [1537908,"2026-01-18 06:50:00","49664","0.0","147.6","0.033","282.4","1010.5110000000001","11.44","94.5","NAN","0.3"],
    [1537909,"2026-01-18 07:00:00","49665","0.0","311.3","0.033","307.9","1010.693","11.42","95.3","NAN","0.2"],
    [1537910,"2026-01-18 07:10:00","49666","0.7879999999999999","45.29","1.699","38.57","1010.8480000000001","11.38","96.4","NAN","0.2"],
    [1537911,"2026-01-18 07:20:00","49667","0.9590000000000001","16.05","1.8619999999999999","36.22","1010.877","11.34","97.3","NAN","0.3"],
    [1537912,"2026-01-18 07:30:00","49668","0.434","14.58","1.045","17.86","1010.836","11.35","97.2","NAN","0.0"],
    [1537913,"2026-01-18 07:40:00","49669","0.309","61.26","0.7190000000000001","55.72","1011.056","11.34","96.9","NAN","0.1"],
    [1537914,"2026-01-18 07:50:00","49670","0.574","25.02","1.176","23.86","1011.1510000000001","11.37","97.3","NAN","0.0"],
    [1537915,"2026-01-18 08:00:00","49671","0.8320000000000001","30.4","1.666","18.96","1011.18","11.44","97.2","NAN","0.0"],
    [1537916,"2026-01-18 08:10:00","49672","0.856","21.32","1.993","34.78","1011.238","11.54","97","NAN","0.1"],
    [1537917,"2026-01-18 08:20:00","49673","0.893","20.97","2.0909999999999997","1.121","1011.2769999999999","11.65","97.4","NAN","0.2"],
    [1537918,"2026-01-18 08:30:00","49674","0.9390000000000001","28.26","2.221","2.291","1011.404","11.66","97.8","NAN","0.5"],
    [1537919,"2026-01-18 08:40:00","49675","0.909","36.59","1.568","38.06","1011.559","11.61","98.1","NAN","0.5"],
    [1537920,"2026-01-18 08:50:00","49676","0.976","28.07","2.417","33.56","1011.596","11.56","98.1","NAN","0.1"],
    [1537921,"2026-01-18 09:00:00","49677","0.9470000000000001","24.41","2.7769999999999997","22.78","1011.6469999999999","11.64","97.7","NAN","0.0"],
    [1537922,"2026-01-18 09:10:00","49678","0.6729999999999999","30.74","2.0580000000000003","17.34","1011.747","11.69","97.3","NAN","0.0"],
    [1537923,"2026-01-18 09:20:00","49679","1.063","5.867000000000001","2.319","3.6460000000000004","1011.785","11.75","96.6","NAN","0.0"],
    [1537924,"2026-01-18 09:30:00","49680","0.637","19.22","1.568","26.08","1011.932","12","95.4","NAN","0.0"],
    [1537925,"2026-01-18 09:40:00","49681","0.598","35.92","2.385","1.97","1012.1110000000001","12.23","94.6","NAN","0.0"],
    [1537926,"2026-01-18 09:50:00","49682","0.982","36.17","2.385","33.61","1012.2439999999999","12.25","93.9","NAN","0.0"],
    [1537927,"2026-01-18 10:00:00","49683","1.331","36.85","3.0380000000000003","52.52","1012.327","12.18","93.1","NAN","0.1"],
    [1537928,"2026-01-18 10:10:00","49684","1.6159999999999999","39.14","2.875","48.49","1012.4689999999999","12.05","94","NAN","0.3"],
    [1537929,"2026-01-18 10:20:00","49685","1.1840000000000002","40.88","2.221","31.27","1012.4630000000001","11.91","95.7","NAN","0.6"],
    [1537930,"2026-01-18 10:30:00","49686","0.622","37.12","1.96","68.51","1012.419","11.77","96.7","NAN","0.3"],
    [1537931,"2026-01-18 10:40:00","49687","0.996","9.55","2.0909999999999997","8.01","1012.284","11.77","96.8","NAN","0.1"],
    [1537932,"2026-01-18 10:50:00","49688","1.0070000000000001","14.63","2.254","359.0","1012.2189999999999","11.8","96.4","NAN","0.0"],
    [1537933,"2026-01-18 11:00:00","49689","1.1179999999999999","6.48","2.156","17.96","1012.217","11.78","94.5","NAN","0.0"],
    [1537934,"2026-01-18 11:10:00","49690","0.684","18.56","1.764","356.0","1012.197","12.12","93.2","NAN","0.0"],
    [1537935,"2026-01-18 11:20:00","49691","1.145","359.4","2.189","13.93","1012.074","12.27","89.9","NAN","0.0"],
    [1537936,"2026-01-18 11:30:00","49692","1.287","7.465","2.483","3.138","1011.883","12.53","88.5","NAN","0.0"],
    [1537937,"2026-01-18 11:40:00","49693","0.9940000000000001","7.77","2.842","358.0","1011.73","12.81","88.5","NAN","0.0"],
    [1537938,"2026-01-18 11:50:00","49694","1.126","15.06","3.267","19.75","1011.716","12.95","88.8","NAN","0.0"],
    [1537939,"2026-01-18 12:00:00","49695","1.474","25.36","3.136","20.4","1011.7080000000001","12.87","87.4","NAN","0.0"],
    [1537940,"2026-01-18 12:10:00","49696","1.402","16.59","2.417","353.5","1011.622","12.8","86.1","NAN","0.0"],
    [1537941,"2026-01-18 12:20:00","49697","1.355","7.2989999999999995","3.103","42.38","1011.505","12.64","88.9","NAN","0.3"],
    [1537942,"2026-01-18 12:30:00","49698","1.561","11.35","3.332","10.6","1011.341","12.16","93.4","NAN","0.4"],
    [1537943,"2026-01-18 12:40:00","49699","1.148","4.119","2.7769999999999997","358.4","1011.313","12.03","95.2","NAN","0.3"],
    [1537944,"2026-01-18 12:50:00","49700","0.993","30.39","3.103","53.82","1011.2810000000001","12.03","96.4","NAN","0.2"],
    [1537945,"2026-01-18 13:00:00","49701","1.262","18.72","3.103","14.79","1011.209","12.02","96.8","NAN","0.2"],
    [1537946,"2026-01-18 13:10:00","49702","1.6980000000000002","10.32","3.267","7.015","1011.1210000000001","11.9","96.5","NAN","0.0"],
    [1537947,"2026-01-18 13:20:00","49703","1.4980000000000002","4.437","3.332","17.08","1011.047","11.91","96.3","NAN","0.1"],
    [1537948,"2026-01-18 13:30:00","49704","1.7930000000000001","9.0","3.528","0.65","1010.957","11.95","96.2","NAN","0.2"],
    [1537949,"2026-01-18 13:40:00","49705","1.831","11.23","3.463","0.917","1010.965","12.01","95.8","NAN","0.1"],
    [1537950,"2026-01-18 13:50:00","49706","1.242","17.97","3.463","19.69","1010.975","12.12","95.7","NAN","0.0"],
    [1537951,"2026-01-18 14:00:00","49707","1.3940000000000001","34.63","3.201","50.66","1010.972","12.21","95.8","NAN","0.0"],
    [1537952,"2026-01-18 14:10:00","49708","1.4780000000000002","46.59","2.9730000000000003","32.72","1011.039","12.36","95.4","NAN","0.0"],
    [1537953,"2026-01-18 14:20:00","49709","1.459","49.06","3.201","44.56","1011.182","12.49","95","NAN","0.0"],
    [1537954,"2026-01-18 14:30:00","49710","1.9369999999999998","53.27","4.508","77.09","1011.209","12.52","92.2","NAN","0.0"],
    [1537955,"2026-01-18 14:40:00","49711","2.124","49.24","3.985","76.92","1011.2710000000001","12.54","92","NAN","0.0"],
    [1537956,"2026-01-18 14:50:00","49712","2.9560000000000004","48.73","5.945","51.71","1011.3330000000001","12.28","91.4","NAN","0.0"],
    [1537957,"2026-01-18 15:00:00","49713","1.609","32.47","3.887","28.11","1011.342","12.38","91.7","NAN","0.0"],
    [1537958,"2026-01-18 15:10:00","49714","1.402","40.49","3.332","42.94","1011.403","12.51","92.4","NAN","0.0"],
    [1537959,"2026-01-18 15:20:00","49715","1.031","25.39","2.7769999999999997","60.26","1011.3430000000001","12.59","91.9","NAN","0.0"],
    [1537960,"2026-01-18 15:30:00","49716","1.76","33.92","4.181","55.36","1011.3580000000001","12.65","91.5","NAN","0.0"],
    [1537961,"2026-01-18 15:40:00","49717","1.79","38.97","4.867","31.05","1011.46","12.62","91","NAN","0.0"],
    [1537962,"2026-01-18 15:50:00","49718","1.806","43.01","3.7889999999999997","23.99","1011.505","12.65","91.8","NAN","0.0"],
    [1537963,"2026-01-18 16:00:00","49719","2.198","39.76","4.2139999999999995","36.28","1011.488","12.6","92.2","NAN","0.0"],
    [1537964,"2026-01-18 16:10:00","49720","2.269","40.24","4.638999999999999","28.85","1011.562","12.67","92.7","NAN","0.0"],
    [1537965,"2026-01-18 16:20:00","49721","2.059","42.21","4.312","57.99","1011.55","12.67","93.7","NAN","0.0"],
    [1537966,"2026-01-18 16:30:00","49722","1.2229999999999999","39.75","2.875","22.72","1011.585","12.7","94.1","NAN","0.0"],
    [1537967,"2026-01-18 16:40:00","49723","2.056","67.77","4.998","61.95","1011.6","12.77","93.5","NAN","0.0"],
    [1537968,"2026-01-18 16:50:00","49724","1.7919999999999998","67.25","4.933","77.85","1011.704","12.93","91.8","NAN","0.0"],
    [1537969,"2026-01-18 17:00:00","49725","1.732","41.97","3.985","37.48","1011.809","12.79","92.4","NAN","0.0"],
    [1537970,"2026-01-18 17:10:00","49726","1.334","49.32","2.9730000000000003","35.92","1011.8639999999999","12.66","92.4","NAN","0.0"],
    [1537971,"2026-01-18 17:20:00","49727","1.581","42.31","3.7889999999999997","42.04","1011.944","12.65","92.1","NAN","0.0"],
    [1537972,"2026-01-18 17:30:00","49728","1.651","35.68","4.181","35.01","1012.043","12.58","90.8","NAN","0.0"],
    [1537973,"2026-01-18 17:40:00","49729","0.868","26.83","2.5810000000000004","31.14","1012.205","12.51","91.6","NAN","0.0"],
    [1537974,"2026-01-18 17:50:00","49730","1.193","31.9","2.385","40.59","1012.22","12.42","92.2","NAN","0.0"],
    [1537975,"2026-01-18 18:00:00","49731","1.023","40.24","2.221","25.46","1012.327","12.44","92.2","NAN","0.0"],
    [1537976,"2026-01-18 18:10:00","49732","1.314","47.49","3.234","68.18","1012.352","12.54","92.1","NAN","0.0"],
    [1537977,"2026-01-18 18:20:00","49733","1.686","81.9","4.181","89.4","1012.472","12.74","90.5","NAN","0.0"],
    [1537978,"2026-01-18 18:30:00","49734","1.8769999999999998","81.7","4.933","69.41","1012.581","12.98","87.6","NAN","0.0"],
    [1537979,"2026-01-18 18:40:00","49735","2.2319999999999998","82.0","5.031000000000001","80.3","1012.696","13.03","87","NAN","0.0"],
    [1537980,"2026-01-18 18:50:00","49736","2.475","71.66","6.468","66.01","1012.7260000000001","12.98","86.5","NAN","0.0"],
    [1537981,"2026-01-18 19:00:00","49737","2.617","66.56","5.912999999999999","82.3","1012.8480000000001","12.87","87.5","NAN","0.0"],
    [1537982,"2026-01-18 19:10:00","49738","1.7409999999999999","49.14","4.671","37.56","1012.96","12.68","91.4","NAN","0.0"],
    [1537983,"2026-01-18 19:20:00","49739","1.722","43.32","4.181","32.54","1013.092","12.52","92.4","NAN","0.0"],
    [1537984,"2026-01-18 19:30:00","49740","1.983","39.61","3.659","62.33","1013.082","12.59","91.6","NAN","0.0"],
    [1537985,"2026-01-18 19:40:00","49741","2.3369999999999997","42.41","4.835","23.58","1012.9939999999999","12.6","90.5","NAN","0.0"],
    [1537986,"2026-01-18 19:50:00","49742","2.0580000000000003","44.27","4.933","45.63","1013.07","12.6","89.3","NAN","0.0"],
    [1537987,"2026-01-18 20:00:00","49743","2.105","48.47","3.9530000000000003","71.88","1013.206","12.6","88.5","NAN","0.0"],
    [1537988,"2026-01-18 20:10:00","49744","2.2640000000000002","41.23","4.965","20.23","1013.299","12.62","87.4","NAN","0.0"],
    [1537989,"2026-01-18 20:20:00","49745","2.201","46.72","4.541","51.81","1013.323","12.54","88.5","NAN","0.0"],
    [1537990,"2026-01-18 20:30:00","49746","2.074","44.01","4.051","47.63","1013.3430000000001","12.31","89.7","NAN","0.0"],
    [1537991,"2026-01-18 20:40:00","49747","1.395","47.25","3.463","84.7","1013.453","12.33","88.3","NAN","0.0"],
    [1537992,"2026-01-18 20:50:00","49748","1.541","55.83","4.279","42.18","1013.553","12.31","89.4","NAN","0.5"],
    [1537993,"2026-01-18 21:00:00","49749","2.4459999999999997","44.93","4.41","47.33","1013.562","11.95","93.6","NAN","0.8"],
    [1537994,"2026-01-18 21:10:00","49750","1.656","42.42","4.018","28.99","1013.6030000000001","11.72","95.9","NAN","0.0"],
    [1537995,"2026-01-18 21:20:00","49751","1.224","28.83","3.855","21.09","1013.577","11.73","96.6","NAN","0.0"],
    [1537996,"2026-01-18 21:30:00","49752","1.202","6.507999999999999","2.515","6.936","1013.582","11.69","96.6","NAN","0.0"],
    [1537997,"2026-01-18 21:40:00","49753","0.659","21.22","2.025","54.09","1013.61","11.66","96.2","NAN","0.0"],
    [1537998,"2026-01-18 21:50:00","49754","1.177","18.56","3.332","30.52","1013.617","11.66","95.5","NAN","0.0"],
    [1537999,"2026-01-18 22:00:00","49755","0.871","17.76","2.5810000000000004","50.81","1013.6410000000001","11.73","94.7","NAN","0.0"],
    [1538000,"2026-01-18 22:10:00","49756","0.9009999999999999","18.27","2.483","18.48","1013.6489999999999","11.7","94.5","NAN","0.0"],
    [1538001,"2026-01-18 22:20:00","49757","1.28","35.11","2.5810000000000004","50.87","1013.654","11.72","94.1","NAN","0.0"],
    [1538002,"2026-01-18 22:30:00","49758","1.225","43.36","2.94","55.74","1013.648","11.88","93.1","NAN","0.0"],
    [1538003,"2026-01-18 22:40:00","49759","1.339","34.44","2.94","29.67","1013.6289999999999","11.95","92.4","NAN","0.0"],
    [1538004,"2026-01-18 22:50:00","49760","1.3319999999999999","30.5","3.299","57.0","1013.6189999999999","11.94","92.4","NAN","0.0"],
    [1538005,"2026-01-18 23:00:00","49761","1.475","33.34","3.365","27.97","1013.654","11.87","92.9","NAN","0.0"],
    [1538006,"2026-01-18 23:10:00","49762","1.433","26.67","2.842","35.5","1013.717","11.85","92.8","NAN","0.0"],
    [1538007,"2026-01-18 23:20:00","49763","1.6540000000000001","29.49","3.92","46.19","1013.702","11.85","92.4","NAN","0.1"],
    [1538008,"2026-01-18 23:30:00","49764","1.263","35.78","3.365","34.76","1013.7639999999999","11.85","91.9","NAN","0.0"],
    [1538009,"2026-01-18 23:40:00","49765","1.492","32.85","3.887","23.91","1013.778","11.88","91.4","NAN","0.0"],
    [1538010,"2026-01-18 23:50:00","49766","1.335","24.57","3.005","38.85","1013.7310000000001","11.88","90.9","NAN","0.0"],
    [1538011,"2026-01-19 00:00:00","49767","1.2930000000000001","35.11","2.483","35.16","1013.653","11.83","90.7","NAN","0.0"],
    [1538012,"2026-01-19 00:10:00","49768","1.252","31.07","2.483","15.29","1013.6260000000001","11.82","90.2","NAN","0.0"],
    [1538013,"2026-01-19 00:20:00","49769","1.236","36.87","2.417","31.1","1013.5260000000001","11.8","89.8","NAN","0.0"],
    [1538014,"2026-01-19 00:30:00","49770","1.6580000000000001","39.45","2.875","35.21","1013.513","11.79","89","NAN","0.0"],
    [1538015,"2026-01-19 00:40:00","49771","1.2009999999999998","28.47","2.45","47.17","1013.518","11.78","88.3","NAN","0.0"],
    [1538016,"2026-01-19 00:50:00","49772","1.3530000000000002","33.07","3.43","21.45","1013.455","11.71","88.2","NAN","0.0"],
    [1538017,"2026-01-19 01:00:00","49773","1.24","33.14","2.483","13.23","1013.5139999999999","11.69","88.2","NAN","0.0"],
    [1538018,"2026-01-19 01:10:00","49774","0.784","21.76","2.0580000000000003","0.945","1013.5039999999999","11.67","88.1","NAN","0.0"],
    [1538019,"2026-01-19 01:20:00","49775","0.995","32.78","1.895","40.8","1013.4960000000001","11.65","88.2","NAN","0.0"],
    [1538020,"2026-01-19 01:30:00","49776","0.735","30.12","2.123","49.96","1013.4839999999999","11.57","88.8","NAN","0.0"],
    [1538021,"2026-01-19 01:40:00","49777","0.73","33.04","1.5030000000000001","49.69","1013.482","11.49","89.1","NAN","0.1"],
    [1538022,"2026-01-19 01:50:00","49778","1.195","30.24","2.515","37.89","1013.59","11.47","89.1","NAN","0.0"],
    [1538023,"2026-01-19 02:00:00","49779","1.364","27.95","3.103","59.78","1013.643","11.49","88.7","NAN","0.0"],
    [1538024,"2026-01-19 02:10:00","49780","1.266","27.84","3.463","41.16","1013.638","11.55","87.9","NAN","0.0"],
    [1538025,"2026-01-19 02:20:00","49781","0.828","29.61","1.797","36.19","1013.6469999999999","11.49","88.2","NAN","0.0"],
    [1538026,"2026-01-19 02:30:00","49782","1.1059999999999999","40.0","1.993","25.14","1013.6519999999999","11.43","88.8","NAN","0.0"],
    [1538027,"2026-01-19 02:40:00","49783","0.629","42.16","1.993","75.66","1013.653","11.41","89.3","NAN","0.0"],
    [1538028,"2026-01-19 02:50:00","49784","0.774","32.15","2.221","49.9","1013.6460000000001","11.35","90.3","NAN","0.0"],
    [1538029,"2026-01-19 03:00:00","49785","0.591","51.86","1.47","32.94","1013.6160000000001","11.33","91.2","NAN","0.4"],
    [1538030,"2026-01-19 03:10:00","49786","0.632","32.67","2.123","76.56","1013.502","11.17","93.2","NAN","0.2"],
    [1538031,"2026-01-19 03:20:00","49787","0.915","9.18","2.287","359.9","1013.368","11.21","93.8","NAN","0.1"],
    [1538032,"2026-01-19 03:30:00","49788","0.759","6.268","1.8619999999999999","20.16","1013.2719999999999","11.26","93.8","NAN","0.0"],
    [1538033,"2026-01-19 03:40:00","49789","0.9309999999999999","8.89","1.666","13.29","1013.1439999999999","11.33","93.1","NAN","0.0"],
    [1538034,"2026-01-19 03:50:00","49790","0.7759999999999999","12.53","1.8619999999999999","13.24","1013.0269999999999","11.38","92.4","NAN","0.0"],
    [1538035,"2026-01-19 04:00:00","49791","0.735","37.88","1.8619999999999999","18.64","1013.0269999999999","11.31","92.3","NAN","0.0"],
    [1538036,"2026-01-19 04:10:00","49792","0.569","17.5","1.993","30.12","1013.0269999999999","11.28","91.5","NAN","0.0"],
    [1538037,"2026-01-19 04:20:00","49793","1.021","40.87","1.764","55.58","1013.0269999999999","11.33","90.5","NAN","0.0"],
    [1538038,"2026-01-19 04:30:00","49794","0.848","37.45","1.47","65.86","1013.0189999999999","11.27","90.1","NAN","0.0"],
    [1538039,"2026-01-19 04:40:00","49795","0.745","17.02","2.417","37.02","1012.935","11.21","89.9","NAN","0.0"],
    [1538040,"2026-01-19 04:50:00","49796","0.792","21.09","1.8619999999999999","23.43","1012.834","11.18","89.4","NAN","0.0"],
    [1538041,"2026-01-19 05:00:00","49797","0.639","11.16","1.829","41.39","1012.779","11.08","89.6","NAN","0.0"],
    [1538042,"2026-01-19 05:10:00","49798","0.988","13.41","2.385","18.31","1012.778","11.04","89.2","NAN","0.0"],
    [1538043,"2026-01-19 05:20:00","49799","1.181","10.48","2.94","7.099","1012.778","11.16","87.5","NAN","0.0"],
    [1538044,"2026-01-19 05:30:00","49800","0.89","35.63","2.254","54.97","1012.794","11.14","87.7","NAN","0.0"],
    [1538045,"2026-01-19 05:40:00","49801","0.905","27.46","2.189","320.8","1012.785","11.1","87.9","NAN","0.0"],
    [1538046,"2026-01-19 05:50:00","49802","0.862","12.27","2.0580000000000003","33.19","1012.784","11.1","87.6","NAN","0.0"],
    [1538047,"2026-01-19 06:00:00","49803","0.92","26.9","1.633","358.9","1012.84","11.22","86.6","NAN","0.0"],
    [1538048,"2026-01-19 06:10:00","49804","0.809","12.4","2.189","17.88","1012.872","11.2","86.8","NAN","0.0"],
    [1538049,"2026-01-19 06:20:00","49805","0.914","11.37","2.0580000000000003","24.52","1012.955","11.2","86.5","NAN","0.0"],
    [1538050,"2026-01-19 06:30:00","49806","1.2309999999999999","8.59","2.417","1.318","1012.9019999999999","11.25","85.7","NAN","0.0"],
    [1538051,"2026-01-19 06:40:00","49807","0.9309999999999999","7.09","1.96","11.86","1012.967","11.26","85.1","NAN","0.0"],
    [1538052,"2026-01-19 06:50:00","49808","0.941","28.92","2.156","24.0","1013.159","11.25","84.6","NAN","0.0"],
    [1538053,"2026-01-19 07:00:00","49809","0.862","20.52","1.96","20.52","1013.082","11.05","85.6","NAN","0.0"],
    [1538054,"2026-01-19 07:10:00","49810","0.94","4.069","2.0909999999999997","14.8","1013.1139999999999","11.1","85.2","NAN","0.0"],
    [1538055,"2026-01-19 07:20:00","49811","1.03","15.71","2.319","16.25","1013.2560000000001","11.18","84.5","NAN","0.0"],
    [1538056,"2026-01-19 07:30:00","49812","1.2819999999999998","7.905","2.483","3.4010000000000002","1013.326","11.21","83.8","NAN","0.0"],
    [1538057,"2026-01-19 07:40:00","49813","1.01","6.562","2.7439999999999998","20.37","1013.453","11.25","83.7","NAN","0.0"],
    [1538058,"2026-01-19 07:50:00","49814","1.004","11.66","2.483","347.2","1013.533","11.23","83.9","NAN","0.0"],
    [1538059,"2026-01-19 08:00:00","49815","1.016","8.72","2.254","34.99","1013.645","11.2","84.2","NAN","0.0"],
    [1538060,"2026-01-19 08:10:00","49816","1.182","12.64","2.9730000000000003","6.196000000000001","1013.814","11.23","84","NAN","0.0"],
    [1538061,"2026-01-19 08:20:00","49817","1.028","15.44","2.515","47.39","1013.9760000000001","11.21","84.2","NAN","0.0"],
    [1538062,"2026-01-19 08:30:00","49818","0.82","10.11","1.829","35.45","1014.0160000000001","11.29","84","NAN","0.0"],
    [1538063,"2026-01-19 08:40:00","49819","0.768","347.2","1.666","19.95","1013.977","11.56","83.1","NAN","0.0"],
    [1538064,"2026-01-19 08:50:00","49820","0.67","1.1640000000000001","1.797","16.04","1014.0269999999999","11.94","80.7","NAN","0.0"],
    [1538065,"2026-01-19 09:00:00","49821","0.789","17.93","1.601","9.63","1014.125","12.15","78.75","NAN","0.0"],
    [1538066,"2026-01-19 09:10:00","49822","0.754","20.87","2.287","10.92","1014.205","12.3","77.72","NAN","0.0"],
    [1538067,"2026-01-19 09:20:00","49823","1.091","12.44","2.287","10.92","1014.203","12.39","76.41","NAN","0.0"],
    [1538068,"2026-01-19 09:30:00","49824","1.74","7.655","3.071","39.38","1014.205","12.4","75.97","NAN","0.0"],
    [1538069,"2026-01-19 09:40:00","49825","1.113","23.29","2.679","20.78","1014.295","12.37","77.02","NAN","0.2"],
    [1538070,"2026-01-19 09:50:00","49826","1.0759999999999998","19.04","2.7110000000000003","349.7","1014.332","11.83","83.4","NAN","0.6"],
    [1538071,"2026-01-19 10:00:00","49827","0.856","20.1","2.156","8.16","1014.3889999999999","11.51","86.7","NAN","0.5"],
    [1538072,"2026-01-19 10:10:00","49828","1.575","13.21","3.855","32.35","1014.34","11.55","85.7","NAN","0.3"],
    [1538073,"2026-01-19 10:20:00","49829","1.3130000000000002","19.11","3.43","21.42","1014.3589999999999","11.67","86.2","NAN","0.3"],
    [1538074,"2026-01-19 10:30:00","49830","1.455","9.88","3.234","19.75","1014.419","11.64","87.1","NAN","0.0"],
    [1538075,"2026-01-19 10:40:00","49831","1.774","20.11","4.475","25.11","1014.444","11.64","86.5","NAN","0.1"],
    [1538076,"2026-01-19 10:50:00","49832","1.7309999999999999","13.72","4.573","27.47","1014.425","11.6","88.4","NAN","0.3"],
    [1538077,"2026-01-19 11:00:00","49833","1.931","15.79","4.769","12.78","1014.362","11.45","90.4","NAN","0.5"],
    [1538078,"2026-01-19 11:10:00","49834","1.386","18.62","2.842","353.7","1014.395","11.36","90.7","NAN","0.4"],
    [1538079,"2026-01-19 11:20:00","49835","1.16","14.29","3.103","50.8","1014.4780000000001","11.19","91.4","NAN","0.2"],
    [1538080,"2026-01-19 11:30:00","49836","1.58","9.34","4.247","17.63","1014.352","11.17","90.9","NAN","0.1"],
    [1538081,"2026-01-19 11:40:00","49837","2.272","6.952000000000001","3.92","15.26","1014.2710000000001","11.22","89.9","NAN","0.1"],
    [1538082,"2026-01-19 11:50:00","49838","2.0","10.22","4.867","19.16","1014.2539999999999","11.29","89.7","NAN","0.0"],
    [1538083,"2026-01-19 12:00:00","49839","2.271","5.888999999999999","4.508","350.9","1014.265","11.33","89.2","NAN","0.5"],
    [1538084,"2026-01-19 12:10:00","49840","1.824","7.252000000000001","4.247","36.57","1014.197","11.03","93.1","NAN","0.7"],
    [1538085,"2026-01-19 12:20:00","49841","2.006","7.7829999999999995","4.475","25.26","1014.023","11.15","93","NAN","0.2"],
    [1538086,"2026-01-19 12:30:00","49842","1.98","9.67","4.802","7.902","1013.966","11.34","90","NAN","0.1"],
    [1538087,"2026-01-19 12:40:00","49843","1.5030000000000001","6.617000000000001","3.6260000000000003","19.35","1013.8489999999999","11.25","89.5","NAN","0.1"],
    [1538088,"2026-01-19 12:50:00","49844","1.401","16.71","3.267","26.99","1013.7760000000001","11.27","89.3","NAN","0.2"],
    [1538089,"2026-01-19 13:00:00","49845","1.837","6.886","3.495","356.9","1013.752","11.4","87.6","NAN","0.0"],
    [1538090,"2026-01-19 13:10:00","49846","1.495","10.61","3.7569999999999997","12.16","1013.7710000000001","11.49","87.9","NAN","0.3"],
    [1538091,"2026-01-19 13:20:00","49847","1.55","0.376","3.92","30.86","1013.6569999999999","11.33","90.2","NAN","0.5"],
    [1538092,"2026-01-19 13:30:00","49848","1.6219999999999999","4.374","4.018","22.56","1013.6460000000001","11.39","89.6","NAN","0.0"],
    [1538093,"2026-01-19 13:40:00","49849","1.3619999999999999","14.96","3.5610000000000004","15.11","1013.6089999999999","11.58","87.6","NAN","0.0"],
    [1538094,"2026-01-19 13:50:00","49850","1.607","10.22","3.855","352.7","1013.5369999999999","11.75","87.1","NAN","0.0"],
    [1538095,"2026-01-19 14:00:00","49851","1.355","2.375","2.613","28.28","1013.547","11.93","86.8","NAN","0.0"],
    [1538096,"2026-01-19 14:10:00","49852","1.847","7.667000000000001","3.7569999999999997","17.81","1013.578","12.06","85.5","NAN","0.0"],
    [1538097,"2026-01-19 14:20:00","49853","1.557","10.59","3.6910000000000003","36.08","1013.569","12.23","84.6","NAN","0.0"],
    [1538098,"2026-01-19 14:30:00","49854","1.465","14.21","3.299","18.2","1013.615","12.34","84.9","NAN","0.0"],
    [1538099,"2026-01-19 14:40:00","49855","1.7790000000000001","12.62","4.475","23.5","1013.622","12.43","84.6","NAN","0.0"],
    [1538100,"2026-01-19 14:50:00","49856","1.44","19.01","3.365","340.7","1013.6","12.47","85.2","NAN","0.0"],
    [1538101,"2026-01-19 15:00:00","49857","1.9509999999999998","12.27","3.9530000000000003","32.73","1013.52","12.32","85.3","NAN","0.0"],
    [1538102,"2026-01-19 15:10:00","49858","1.5430000000000001","14.71","3.7889999999999997","5.254","1013.528","12.28","85.7","NAN","0.0"],
    [1538103,"2026-01-19 15:20:00","49859","2.122","6.569","4.475","14.69","1013.587","12.28","85.2","NAN","0.0"],
    [1538104,"2026-01-19 15:30:00","49860","1.5330000000000001","11.45","4.2139999999999995","20.46","1013.592","12.42","84.7","NAN","0.0"],
    [1538105,"2026-01-19 15:40:00","49861","1.993","12.96","4.051","28.2","1013.617","12.47","84","NAN","0.0"],
    [1538106,"2026-01-19 15:50:00","49862","2.01","8.09","4.279","1.6340000000000001","1013.674","12.44","83.7","NAN","0.0"],
    [1538107,"2026-01-19 16:00:00","49863","1.406","19.04","2.7769999999999997","8.54","1013.62","12.45","83.6","NAN","0.0"],
    [1538108,"2026-01-19 16:10:00","49864","1.632","15.43","5.096","19.09","1013.617","12.44","83.5","NAN","0.0"],
    [1538109,"2026-01-19 16:20:00","49865","1.837","8.05","3.5610000000000004","9.21","1013.572","12.42","83.1","NAN","0.0"],
    [1538110,"2026-01-19 16:30:00","49866","1.643","11.53","3.7569999999999997","20.23","1013.572","12.39","82.2","NAN","0.0"],
    [1538111,"2026-01-19 16:40:00","49867","1.676","11.95","4.998","12.13","1013.58","12.4","81.9","NAN","0.0"],
    [1538112,"2026-01-19 16:50:00","49868","1.633","21.4","3.43","47.88","1013.592","12.45","81.2","NAN","0.0"],
    [1538113,"2026-01-19 17:00:00","49869","1.7","19.53","4.573","33.74","1013.582","12.51","80.2","NAN","0.0"],
    [1538114,"2026-01-19 17:10:00","49870","1.755","14.46","3.659","23.2","1013.54","12.59","79.14","NAN","0.0"],
    [1538115,"2026-01-19 17:20:00","49871","1.46","11.51","3.593","9.86","1013.453","12.56","79.53","NAN","0.0"],
    [1538116,"2026-01-19 17:30:00","49872","1.3219999999999998","21.54","3.887","16.08","1013.488","12.56","79.54","NAN","0.0"],
    [1538117,"2026-01-19 17:40:00","49873","1.4909999999999999","17.69","4.737","359.9","1013.597","12.56","79.86","NAN","0.0"],
    [1538118,"2026-01-19 17:50:00","49874","1.629","17.99","3.365","25.71","1013.679","12.62","79.74","NAN","0.0"],
    [1538119,"2026-01-19 18:00:00","49875","1.64","18.79","4.051","50.07","1013.704","12.63","79.78","NAN","0.0"],
    [1538120,"2026-01-19 18:10:00","49876","2.135","17.21","5.129","80.3","1013.704","12.54","81.5","NAN","0.1"],
    [1538121,"2026-01-19 18:20:00","49877","2.0","27.16","5.749","16.35","1013.737","12.34","83.5","NAN","0.1"],
    [1538122,"2026-01-19 18:30:00","49878","2.043","38.65","4.737","47.29","1013.801","12.28","84","NAN","0.0"],
    [1538123,"2026-01-19 18:40:00","49879","1.8219999999999998","43.63","4.41","72.19","1013.831","12.25","84.7","NAN","0.2"],
    [1538124,"2026-01-19 18:50:00","49880","2.6180000000000003","32.91","6.141","27.6","1013.98","12.15","84.7","NAN","0.1"],
    [1538125,"2026-01-19 19:00:00","49881","3.082","40.9","6.337000000000001","38.62","1014.1339999999999","12","86.2","NAN","0.4"],
    [1538126,"2026-01-19 19:10:00","49882","2.052","38.26","5.194","53.04","1014.0989999999999","11.61","90.2","NAN","0.0"],
    [1538127,"2026-01-19 19:20:00","49883","1.808","31.86","5.455","54.6","1014.0980000000001","11.49","91.7","NAN","0.0"],
    [1538128,"2026-01-19 19:30:00","49884","1.95","18.52","4.998","39.39","1014.097","11.5","91.4","NAN","0.0"],
    [1538129,"2026-01-19 19:40:00","49885","1.7209999999999999","21.38","4.083","36.38","1014.0219999999999","11.69","88.7","NAN","0.0"],
    [1538130,"2026-01-19 19:50:00","49886","1.834","15.72","4.181","18.73","1014.0039999999999","11.88","86.8","NAN","0.0"],
    [1538131,"2026-01-19 20:00:00","49887","2.2640000000000002","24.49","4.638999999999999","31.26","1014.0060000000001","12.02","84.9","NAN","0.0"],
    [1538132,"2026-01-19 20:10:00","49888","2.6010000000000004","35.75","6.795","42.71","1013.949","12.09","83.5","NAN","0.0"],
    [1538133,"2026-01-19 20:20:00","49889","2.855","32.95","6.011","29.11","1013.863","12.01","83.7","NAN","0.0"],
    [1538134,"2026-01-19 20:30:00","49890","2.351","28.46","5.521","33.5","1013.797","12.03","83.1","NAN","0.0"],
    [1538135,"2026-01-19 20:40:00","49891","2.3080000000000003","37.03","6.042999999999999","34.3","1013.8610000000001","12.13","81.9","NAN","0.0"],
    [1538136,"2026-01-19 20:50:00","49892","2.412","30.44","5.651","30.16","1013.814","12.19","81.1","NAN","0.0"],
    [1538137,"2026-01-19 21:00:00","49893","3.0439999999999996","35.2","7.317","27.99","1013.7669999999999","12.17","81.3","NAN","0.0"],
    [1538138,"2026-01-19 21:10:00","49894","2.275","37.95","5.978","66.6","1013.7689999999999","12.08","81.9","NAN","0.0"],
    [1538139,"2026-01-19 21:20:00","49895","3.384","38.45","7.709","69.66","1013.831","12.2","79.88","NAN","0.0"],
    [1538140,"2026-01-19 21:30:00","49896","3.207","42.36","7.611000000000001","66.6","1014.0260000000001","12.23","79.86","NAN","0.0"],
    [1538141,"2026-01-19 21:40:00","49897","3.443","38.85","7.513","41.92","1014.078","12.12","81.4","NAN","0.1"],
    [1538142,"2026-01-19 21:50:00","49898","2.445","37.61","5.455","51.3","1014.078","11.88","84.3","NAN","0.1"],
    [1538143,"2026-01-19 22:00:00","49899","2.306","34.1","5.553","13.35","1014.04","11.73","85.2","NAN","0.1"],
    [1538144,"2026-01-19 22:10:00","49900","2.3890000000000002","37.43","5.031000000000001","1.263","1014.0210000000001","11.68","85.5","NAN","0.0"],
    [1538145,"2026-01-19 22:20:00","49901","2.198","35.42","5.912999999999999","57.43","1013.992","11.63","86","NAN","0.0"],
    [1538146,"2026-01-19 22:30:00","49902","2.636","37.61","5.129","8.65","1013.998","11.7","84.8","NAN","0.1"],
    [1538147,"2026-01-19 22:40:00","49903","2.131","40.39","5.325","62.67","1014.023","11.68","85.3","NAN","0.0"],
    [1538148,"2026-01-19 22:50:00","49904","2.1430000000000002","37.33","4.638999999999999","37.55","1014.0930000000001","11.63","85.9","NAN","0.1"],
    [1538149,"2026-01-19 23:00:00","49905","2.4330000000000003","40.05","5.945","29.58","1014.052","11.57","86.5","NAN","0.3"],
    [1538150,"2026-01-19 23:10:00","49906","2.3280000000000003","42.7","6.272","27.35","1014.028","11.36","88.8","NAN","0.5"],
    [1538151,"2026-01-19 23:20:00","49907","2.174","32.44","5.945","23.97","1013.971","11.17","90.5","NAN","1.0"],
    [1538152,"2026-01-19 23:30:00","49908","1.819","31.01","5.455","44.11","1013.831","10.85","94.4","NAN","1.2"],
    [1538153,"2026-01-19 23:40:00","49909","1.516","30.61","3.397","36.48","1013.669","10.76","95","NAN","0.8"],
    [1538154,"2026-01-19 23:50:00","49910","1.676","22.77","3.7569999999999997","24.63","1013.455","10.77","94.9","NAN","0.9"],
    [1538155,"2026-01-20 00:00:00","49911","1.858","30.79","4.704","19.94","1013.283","10.72","95.6","NAN","0.8"],
    [1538156,"2026-01-20 00:10:00","49912","2.508","35.12","5.749","42.66","1013.2510000000001","10.84","93.8","NAN","0.3"],
    [1538157,"2026-01-20 00:20:00","49913","3.029","34.43","7.285","38.45","1013.1260000000001","11.03","90.7","NAN","0.1"],
    [1538158,"2026-01-20 00:30:00","49914","1.953","28.56","5.325","27.11","1012.962","11.07","89.7","NAN","0.0"],
    [1538159,"2026-01-20 00:40:00","49915","2.346","34.29","5.521","46.6","1012.778","11.13","87.7","NAN","0.1"],
    [1538160,"2026-01-20 00:50:00","49916","2.9019999999999997","34.56","6.37","31.56","1012.765","11.24","85.5","NAN","0.0"],
    [1538161,"2026-01-20 01:00:00","49917","2.8280000000000003","39.04","7.023","63.68","1012.7280000000001","11.22","84.4","NAN","0.2"],
    [1538162,"2026-01-20 01:10:00","49918","3.241","34.76","7.252000000000001","8.2","1012.566","11.12","84.5","NAN","0.2"],
    [1538163,"2026-01-20 01:20:00","49919","3.238","28.32","7.154","50.29","1012.564","11.04","84.2","NAN","0.2"],
    [1538164,"2026-01-20 01:30:00","49920","2.932","21.92","8.2","31.34","1012.591","10.94","84.6","NAN","0.2"],
    [1538165,"2026-01-20 01:40:00","49921","2.873","24.22","6.305","24.48","1012.529","10.95","82.8","NAN","0.1"],
    [1538166,"2026-01-20 01:50:00","49922","3.029","23.77","7.709","22.01","1012.515","10.93","82.2","NAN","0.1"],
    [1538167,"2026-01-20 02:00:00","49923","3.043","22.33","8.0","52.33","1012.505","10.82","82.4","NAN","0.3"],
    [1538168,"2026-01-20 02:10:00","49924","2.928","24.19","8.59","358.8","1012.495","10.65","83.7","NAN","0.3"],
    [1538169,"2026-01-20 02:20:00","49925","3.385","28.36","8.04","29.56","1012.4639999999999","10.66","81.4","NAN","0.0"],
    [1538170,"2026-01-20 02:30:00","49926","3.862","31.28","8.36","47.78","1012.438","10.85","78.25","NAN","0.0"],
    [1538171,"2026-01-20 02:40:00","49927","3.388","29.45","7.415","62.97","1012.424","10.8","78.45","NAN","0.1"],
    [1538172,"2026-01-20 02:50:00","49928","3.5789999999999997","28.35","7.6770000000000005","39.84","1012.579","10.5","79.51","NAN","0.2"],
    [1538173,"2026-01-20 03:00:00","49929","4.319","26.01","10.39","11.5","1012.663","10.21","80.9","NAN","0.2"],
    [1538174,"2026-01-20 03:10:00","49930","3.617","29.29","8.53","11.28","1012.695","10.25","79.25","NAN","0.2"],
    [1538175,"2026-01-20 03:20:00","49931","2.648","24.69","9.21","62.56","1012.654","10.06","81.6","NAN","0.4"],
    [1538176,"2026-01-20 03:30:00","49932","2.519","19.34","5.553","38.15","1012.591","9.99","81.8","NAN","0.2"],
    [1538177,"2026-01-20 03:40:00","49933","2.833","22.07","6.9910000000000005","57.74","1012.553","9.92","82","NAN","0.1"],
    [1538178,"2026-01-20 03:50:00","49934","2.47","19.93","7.056","11.36","1012.3960000000001","9.83","81.6","NAN","0.1"],
    [1538179,"2026-01-20 04:00:00","49935","2.717","18.26","6.403","30.94","1012.3560000000001","9.88","79.18","NAN","0.1"],
    [1538180,"2026-01-20 04:10:00","49936","3.133","20.21","6.305","8.65","1012.263","9.97","77.46","NAN","0.2"],
    [1538181,"2026-01-20 04:20:00","49937","3.535","28.56","7.218999999999999","31.52","1012.324","9.81","78.04","NAN","0.1"],
    [1538182,"2026-01-20 04:30:00","49938","2.7939999999999996","28.15","6.664","67.0","1012.2339999999999","9.69","78.38","NAN","0.2"],
    [1538183,"2026-01-20 04:40:00","49939","3.319","21.12","9.47","40.19","1012.0419999999999","9.8","76.16","NAN","0.1"],
    [1538184,"2026-01-20 04:50:00","49940","2.502","8.56","7.807","314.6","1011.9780000000001","9.74","79","NAN","0.1"],
    [1538185,"2026-01-20 05:00:00","49941","1.9880000000000002","4.75","5.422999999999999","2.3080000000000003","1011.7639999999999","9.57","81.5","NAN","0.0"],
    [1538186,"2026-01-20 05:10:00","49942","2.399","14.73","5.194","32.3","1011.612","9.59","79.72","NAN","0.0"],
    [1538187,"2026-01-20 05:20:00","49943","2.54","4.5489999999999995","7.187","27.7","1011.467","9.88","75.54","NAN","0.0"],
    [1538188,"2026-01-20 05:30:00","49944","3.069","11.69","9.08","62.25","1011.4119999999999","9.93","73.1","NAN","0.0"],
    [1538189,"2026-01-20 05:40:00","49945","2.47","13.02","5.586","17.86","1011.452","9.93","72.84","NAN","0.0"],
    [1538190,"2026-01-20 05:50:00","49946","2.392","8.14","7.709","4.1339999999999995","1011.57","9.93","72.66","NAN","0.0"],
    [1538191,"2026-01-20 06:00:00","49947","3.228","11.02","6.435","14.0","1011.627","9.94","72.41","NAN","0.0"],
    [1538192,"2026-01-20 06:10:00","49948","2.496","6.034","8.23","11.2","1011.627","10.01","72.13","NAN","0.0"],
    [1538193,"2026-01-20 06:20:00","49949","2.593","15.47","5.978","53.36","1011.775","9.96","72.33","NAN","0.0"],
    [1538194,"2026-01-20 06:30:00","49950","2.54","20.35","5.521","10.16","1011.84","9.86","73.65","NAN","0.0"],
    [1538195,"2026-01-20 06:40:00","49951","2.343","14.71","6.1739999999999995","8.82","1011.895","10.05","73.1","NAN","0.0"],
    [1538196,"2026-01-20 06:50:00","49952","2.012","16.15","6.207000000000001","22.49","1011.921","10.27","72.72","NAN","0.0"],
    [1538197,"2026-01-20 07:00:00","49953","2.377","13.18","6.5329999999999995","32.16","1011.9960000000001","10.34","72.83","NAN","0.0"],
    [1538198,"2026-01-20 07:10:00","49954","2.533","10.19","6.272","15.2","1012.003","10.38","72.98","NAN","0.0"],
    [1538199,"2026-01-20 07:20:00","49955","2.138","11.82","4.9","32.16","1011.987","10.23","75.01","NAN","0.2"],
    [1538200,"2026-01-20 07:30:00","49956","2.044","11.09","5.096","30.89","1012.0310000000001","9.9","78.33","NAN","0.0"],
    [1538201,"2026-01-20 07:40:00","49957","2.349","8.95","4.541","343.7","1012.06","9.87","78.64","NAN","0.2"],
    [1538202,"2026-01-20 07:50:00","49958","2.461","2.883","5.455","15.21","1012.16","10.08","76.14","NAN","0.1"],
    [1538203,"2026-01-20 08:00:00","49959","2.289","18.3","4.802","58.48","1012.3439999999999","10.33","73.47","NAN","0.0"],
    [1538204,"2026-01-20 08:10:00","49960","2.12","21.97","5.2589999999999995","57.51","1012.47","10.28","74.27","NAN","0.1"],
    [1538205,"2026-01-20 08:20:00","49961","2.0709999999999997","17.08","5.194","19.43","1012.6089999999999","10.22","74.21","NAN","0.1"],
    [1538206,"2026-01-20 08:30:00","49962","2.345","20.99","5.031000000000001","32.88","1012.613","10.47","71.29","NAN","0.0"],
    [1538207,"2026-01-20 08:40:00","49963","2.46","13.1","7.35","33.63","1012.553","10.47","72.41","NAN","0.0"],
    [1538208,"2026-01-20 08:50:00","49964","2.351","2.687","5.619","15.0","1012.579","9.96","77.16","NAN","0.1"],
    [1538209,"2026-01-20 09:00:00","49965","2.555","9.0","5.129","10.26","1012.707","9.84","77.9","NAN","0.1"],
    [1538210,"2026-01-20 09:10:00","49966","2.245","8.27","4.933","351.3","1012.828","9.67","79.67","NAN","0.2"],
    [1538211,"2026-01-20 09:20:00","49967","2.241","6.0089999999999995","4.769","28.67","1012.827","9.53","81.5","NAN","0.1"],
    [1538212,"2026-01-20 09:30:00","49968","1.757","2.81","3.6910000000000003","8.32","1012.888","9.46","82.9","NAN","0.1"],
    [1538213,"2026-01-20 09:40:00","49969","1.7280000000000002","11.04","4.4430000000000005","0.243","1012.967","9.36","84.3","NAN","0.1"],
    [1538214,"2026-01-20 09:50:00","49970","2.059","9.31","4.475","11.21","1013.047","9.38","84.4","NAN","0.2"],
    [1538215,"2026-01-20 10:00:00","49971","2.167","5.449","3.985","17.52","1013.0889999999999","9.35","85","NAN","0.1"],
    [1538216,"2026-01-20 10:10:00","49972","1.715","6.1739999999999995","4.704","359.8","1013.086","9.51","84.3","NAN","0.1"],
    [1538217,"2026-01-20 10:20:00","49973","2.608","5.653","5.782","23.99","1013.055","9.57","84","NAN","0.3"],
    [1538218,"2026-01-20 10:30:00","49974","2.499","7.062","5.619","7.81","1012.9680000000001","9.59","86","NAN","0.5"],
    [1538219,"2026-01-20 10:40:00","49975","2.369","7.082999999999999","5.357","25.59","1012.8489999999999","9.65","86.9","NAN","0.4"],
    [1538220,"2026-01-20 10:50:00","49976","2.819","8.46","5.619","24.55","1012.689","9.79","85.3","NAN","0.2"],
    [1538221,"2026-01-20 11:00:00","49977","2.458","13.27","6.925","20.11","1012.5160000000001","9.82","83.7","NAN","0.2"],
    [1538222,"2026-01-20 11:10:00","49978","2.166","9.75","5.2589999999999995","324.5","1012.475","9.62","83","NAN","0.2"],
    [1538223,"2026-01-20 11:20:00","49979","2.096","13.63","6.599","27.51","1012.38","9.44","85.4","NAN","0.5"],
    [1538224,"2026-01-20 11:30:00","49980","2.1719999999999997","7.985","4.965","31.4","1012.2239999999999","9.61","86","NAN","0.3"],
    [1538225,"2026-01-20 11:40:00","49981","2.16","9.59","4.9","36.71","1012.1260000000001","9.86","85.3","NAN","0.2"],
    [1538226,"2026-01-20 11:50:00","49982","1.632","16.18","4.671","355.1","1012.1339999999999","9.97","85.6","NAN","0.2"],
    [1538227,"2026-01-20 12:00:00","49983","2.524","20.0","6.566","356.5","1012.056","10","85.3","NAN","0.1"],
    [1538228,"2026-01-20 12:10:00","49984","1.849","25.52","6.272","7.879","1011.997","10","85.7","NAN","0.1"],
    [1538229,"2026-01-20 12:20:00","49985","2.135","10.14","5.7170000000000005","36.82","1011.887","10","85.9","NAN","0.1"],
    [1538230,"2026-01-20 12:30:00","49986","2.219","8.88","4.965","4.494","1011.846","9.93","87.6","NAN","0.3"],
    [1538231,"2026-01-20 12:40:00","49987","1.733","5.73","3.887","355.7","1011.812","9.88","89.4","NAN","0.1"],
    [1538232,"2026-01-20 12:50:00","49988","1.7719999999999998","8.97","3.822","13.5","1011.7919999999999","9.93","89.6","NAN","0.0"],
    [1538233,"2026-01-20 13:00:00","49989","1.724","10.92","4.671","341.3","1011.7310000000001","10.09","88.9","NAN","0.0"],
    [1538234,"2026-01-20 13:10:00","49990","1.8769999999999998","8.25","4.312","27.42","1011.5889999999999","10.24","88.1","NAN","0.0"],
    [1538235,"2026-01-20 13:20:00","49991","1.631","8.5","3.659","15.44","1011.5089999999999","10.31","88.1","NAN","0.0"],
    [1538236,"2026-01-20 13:30:00","49992","1.774","15.26","4.965","24.22","1011.52","10.47","87","NAN","0.0"],
    [1538237,"2026-01-20 13:40:00","49993","1.368","19.91","3.659","45.88","1011.453","10.67","86.5","NAN","0.0"],
    [1538238,"2026-01-20 13:50:00","49994","1.415","33.72","4.867","2.059","1011.424","10.96","85.2","NAN","0.0"],
    [1538239,"2026-01-20 14:00:00","49995","2.193","31.88","6.1739999999999995","62.73","1011.42","11.22","83.8","NAN","0.0"],
    [1538240,"2026-01-20 14:10:00","49996","3.27","38.5","6.729","38.11","1011.47","11.46","82.2","NAN","0.0"],
    [1538241,"2026-01-20 14:20:00","49997","2.351","43.01","6.141","61.04","1011.477","11.68","81.2","NAN","0.0"],
    [1538242,"2026-01-20 14:30:00","49998","2.885","36.17","5.129","12.69","1011.4580000000001","11.82","80.7","NAN","0.0"],
    [1538243,"2026-01-20 14:40:00","49999","2.752","41.56","6.109","20.17","1011.585","11.9","80.5","NAN","0.0"],
    [1538244,"2026-01-20 14:50:00","50000","2.862","43.9","6.5329999999999995","26.71","1011.7260000000001","12.03","79.6","NAN","0.0"],
    [1538245,"2026-01-20 15:00:00","50001","3.55","42.68","8.26","33.87","1011.7689999999999","12.08","79.24","NAN","0.0"],
    [1538246,"2026-01-20 15:10:00","50002","3.633","43.39","7.905","40.69","1011.783","12.11","79.59","NAN","0.0"],
    [1538247,"2026-01-20 15:20:00","50003","3.07","39.56","6.697","67.51","1011.8639999999999","12.05","81","NAN","0.0"],
    [1538248,"2026-01-20 15:30:00","50004","3.772","38.57","8.07","37.26","1011.94","12.04","81.5","NAN","0.0"],
    [1538249,"2026-01-20 15:40:00","50005","2.884","47.85","6.664","25.41","1011.9989999999999","12","82","NAN","0.0"],
    [1538250,"2026-01-20 15:50:00","50006","3.012","47.25","7.611000000000001","23.6","1012.0310000000001","11.91","82.7","NAN","0.0"],
    [1538251,"2026-01-20 16:00:00","50007","3.1710000000000003","42.47","7.611000000000001","23.6","1012.11","11.93","83.2","NAN","0.0"],
    [1538252,"2026-01-20 16:10:00","50008","3.0589999999999997","47.28","7.023","41.65","1012.204","11.86","84.7","NAN","0.0"],
    [1538253,"2026-01-20 16:20:00","50009","3.0610000000000004","43.42","6.37","47.76","1012.21","11.84","85.2","NAN","0.0"],
    [1538254,"2026-01-20 16:30:00","50010","2.911","44.79","7.056","49.19","1012.2669999999999","12.02","83.6","NAN","0.0"],
    [1538255,"2026-01-20 16:40:00","50011","3.147","45.4","7.938","39.88","1012.331","11.97","84.2","NAN","0.0"],
    [1538256,"2026-01-20 16:50:00","50012","2.658","42.55","6.599","25.0","1012.3439999999999","11.93","84.4","NAN","0.0"],
    [1538257,"2026-01-20 17:00:00","50013","2.947","43.23","6.239","23.95","1012.3610000000001","11.91","84.2","NAN","0.0"],
    [1538258,"2026-01-20 17:10:00","50014","3.173","41.6","5.912999999999999","20.15","1012.4939999999999","11.92","83.8","NAN","0.0"],
    [1538259,"2026-01-20 17:20:00","50015","1.882","33.14","5.912999999999999","39.79","1012.6489999999999","11.92","83.8","NAN","0.0"],
    [1538260,"2026-01-20 17:30:00","50016","2.904","36.21","6.1739999999999995","39.94","1012.666","12.07","83","NAN","0.0"],
    [1538261,"2026-01-20 17:40:00","50017","1.96","40.02","5.031000000000001","46.18","1012.703","12.2","82.2","NAN","0.0"],
    [1538262,"2026-01-20 17:50:00","50018","3.221","44.86","6.664","7.42","1012.7360000000001","12.38","80.9","NAN","0.0"],
    [1538263,"2026-01-20 18:00:00","50019","2.575","46.03","6.37","53.26","1012.8330000000001","12.49","80.7","NAN","0.0"],
    [1538264,"2026-01-20 18:10:00","50020","3.2060000000000004","48.94","6.729","57.86","1012.903","12.53","80.5","NAN","0.0"],
    [1538265,"2026-01-20 18:20:00","50021","2.9560000000000004","43.18","6.1739999999999995","36.37","1012.91","12.57","80.3","NAN","0.0"],
    [1538266,"2026-01-20 18:30:00","50022","2.952","47.29","6.011","79.55","1012.945","12.57","80.6","NAN","0.0"],
    [1538267,"2026-01-20 18:40:00","50023","2.3819999999999997","51.34","6.207000000000001","70.24","1012.93","12.56","80.7","NAN","0.0"],
    [1538268,"2026-01-20 18:50:00","50024","2.386","43.2","5.422999999999999","359.0","1012.92","12.56","80.7","NAN","0.0"],
    [1538269,"2026-01-20 19:00:00","50025","3.02","52.64","6.925","51.69","1012.955","12.57","80.6","NAN","0.0"],
    [1538270,"2026-01-20 19:10:00","50026","2.822","41.66","6.207000000000001","49.56","1012.965","12.54","80.4","NAN","0.0"],
    [1538271,"2026-01-20 19:20:00","50027","2.483","42.74","4.965","46.68","1012.96","12.47","80.3","NAN","0.0"],
    [1538272,"2026-01-20 19:30:00","50028","2.589","44.8","5.4879999999999995","53.12","1012.852","12.4","80.6","NAN","0.0"],
    [1538273,"2026-01-20 19:40:00","50029","2.126","42.97","5.129","45.77","1012.885","12.35","80.9","NAN","0.0"],
    [1538274,"2026-01-20 19:50:00","50030","2.84","41.37","5.7170000000000005","29.22","1012.905","12.41","81.1","NAN","0.0"],
    [1538275,"2026-01-20 20:00:00","50031","3.332","41.99","7.218999999999999","64.46","1012.763","12.54","80.6","NAN","0.0"],
    [1538276,"2026-01-20 20:10:00","50032","3.017","42.18","6.664","33.34","1012.828","12.56","80.2","NAN","0.0"],
    [1538277,"2026-01-20 20:20:00","50033","3.117","47.76","6.631","77.59","1012.9","12.57","80.1","NAN","0.0"],
    [1538278,"2026-01-20 20:30:00","50034","2.713","47.13","4.835","52.92","1012.9169999999999","12.64","80","NAN","0.0"],
    [1538279,"2026-01-20 20:40:00","50035","1.926","46.54","5.292000000000001","80.2","1012.957","12.65","80.3","NAN","0.0"],
    [1538280,"2026-01-20 20:50:00","50036","2.239","44.19","5.455","37.74","1012.982","12.67","80.2","NAN","0.0"],
    [1538281,"2026-01-20 21:00:00","50037","2.068","48.05","4.312","55.43","1013.0","12.69","79.88","NAN","0.0"],
    [1538282,"2026-01-20 21:10:00","50038","2.241","41.63","5.88","67.03","1012.972","12.7","79.96","NAN","0.0"],
    [1538283,"2026-01-20 21:20:00","50039","2.398","36.65","7.154","32.13","1012.96","12.77","79.3","NAN","0.0"],
    [1538284,"2026-01-20 21:30:00","50040","2.063","41.52","5.782","65.47","1013.057","12.79","78.98","NAN","0.0"],
    [1538285,"2026-01-20 21:40:00","50041","1.788","47.53","3.43","54.91","1013.154","12.74","79.23","NAN","0.0"],
    [1538286,"2026-01-20 21:50:00","50042","1.952","39.61","4.4430000000000005","67.34","1013.179","12.7","79.45","NAN","0.0"],
    [1538287,"2026-01-20 22:00:00","50043","1.187","40.39","3.1689999999999996","350.4","1013.206","12.67","79.9","NAN","0.0"],
    [1538288,"2026-01-20 22:10:00","50044","2.271","41.07","5.4879999999999995","40.57","1013.294","12.72","79.56","NAN","0.0"],
    [1538289,"2026-01-20 22:20:00","50045","1.5659999999999998","28.36","3.887","6.521","1013.3530000000001","12.79","79.26","NAN","0.0"],
    [1538290,"2026-01-20 22:30:00","50046","1.204","28.42","2.7439999999999998","51.98","1013.331","12.7","79.53","NAN","0.0"],
    [1538291,"2026-01-20 22:40:00","50047","1.44","26.1","3.593","34.86","1013.3330000000001","12.65","79.65","NAN","0.0"],
    [1538292,"2026-01-20 22:50:00","50048","1.301","26.19","3.103","22.76","1013.393","12.63","79.58","NAN","0.0"],
    [1538293,"2026-01-20 23:00:00","50049","1.069","14.56","2.5810000000000004","51.27","1013.3330000000001","12.62","79.56","NAN","0.0"],
    [1538294,"2026-01-20 23:10:00","50050","1.05","9.82","2.842","320.6","1013.303","12.61","79.61","NAN","0.0"],
    [1538295,"2026-01-20 23:20:00","50051","0.7709999999999999","14.33","1.666","16.79","1013.204","12.49","81","NAN","0.0"],
    [1538296,"2026-01-20 23:30:00","50052","0.851","5.515","1.895","348.6","1013.1139999999999","12.38","81.6","NAN","0.0"],
    [1538297,"2026-01-20 23:40:00","50053","0.7879999999999999","7.082000000000001","1.993","15.31","1013.0989999999999","12.39","81.3","NAN","0.0"],
    [1538298,"2026-01-20 23:50:00","50054","0.8140000000000001","9.31","2.025","349.5","1013.0889999999999","12.37","81.4","NAN","0.0"],
    [1538299,"2026-01-21 00:00:00","50055","1.011","3.0639999999999996","2.319","26.32","1013.112","12.46","80.2","NAN","0.0"],
    [1538300,"2026-01-21 00:10:00","50056","0.8009999999999999","9.79","1.8619999999999999","23.37","1013.051","12.53","79.67","NAN","0.0"],
    [1538301,"2026-01-21 00:20:00","50057","0.772","15.64","2.189","25.68","1012.962","12.45","80.4","NAN","0.0"],
    [1538302,"2026-01-21 00:30:00","50058","0.894","32.5","2.025","30.81","1012.957","12.31","81.7","NAN","0.0"],
    [1538303,"2026-01-21 00:40:00","50059","1.006","10.07","2.613","29.68","1012.957","12.13","82.6","NAN","0.0"],
    [1538304,"2026-01-21 00:50:00","50060","0.721","14.2","1.568","23.5","1012.882","12.05","83.2","NAN","0.0"],
    [1538305,"2026-01-21 01:00:00","50061","0.981","15.29","2.025","31.35","1012.755","12.01","83.5","NAN","0.0"],
    [1538306,"2026-01-21 01:10:00","50062","0.838","4.454","2.679","17.35","1012.7080000000001","11.98","83.8","NAN","0.0"],
    [1538307,"2026-01-21 01:20:00","50063","1.0759999999999998","8.85","2.0909999999999997","17.98","1012.7080000000001","11.99","83.6","NAN","0.0"],
    [1538308,"2026-01-21 01:30:00","50064","0.595","12.01","2.254","25.65","1012.7080000000001","12","83.2","NAN","0.0"],
    [1538309,"2026-01-21 01:40:00","50065","0.9590000000000001","21.59","2.417","35.73","1012.69","12.03","82.9","NAN","0.0"],
    [1538310,"2026-01-21 01:50:00","50066","0.807","12.8","1.633","346.9","1012.579","12.07","82.5","NAN","0.0"],
    [1538311,"2026-01-21 02:00:00","50067","1.1059999999999999","11.76","2.515","27.57","1012.541","12.1","82.1","NAN","0.0"],
    [1538312,"2026-01-21 02:10:00","50068","0.5870000000000001","23.49","1.895","351.6","1012.5189999999999","12.1","82","NAN","0.0"],
    [1538313,"2026-01-21 02:20:00","50069","0.8320000000000001","8.31","2.0580000000000003","32.91","1012.452","12.07","82.1","NAN","0.0"],
    [1538314,"2026-01-21 02:30:00","50070","0.73","21.53","1.633","25.26","1012.352","12.12","81.8","NAN","0.0"],
    [1538315,"2026-01-21 02:40:00","50071","0.557","26.4","1.633","20.65","1012.327","12.11","81.6","NAN","0.0"],
    [1538316,"2026-01-21 02:50:00","50072","0.5529999999999999","17.63","1.535","9.93","1012.227","12.13","81.5","NAN","0.0"],
    [1538317,"2026-01-21 03:00:00","50073","0.382","12.15","1.209","6.207000000000001","1012.2","12.16","81.6","NAN","0.0"],
    [1538318,"2026-01-21 03:10:00","50074","0.434","23.81","1.5030000000000001","35.0","1012.068","12.14","81.5","NAN","0.0"],
    [1538319,"2026-01-21 03:20:00","50075","0.43799999999999994","23.63","1.3719999999999999","16.31","1011.956","12.12","81.6","NAN","0.0"],
    [1538320,"2026-01-21 03:30:00","50076","0.47100000000000003","24.12","1.176","348.7","1011.791","12.09","81.7","NAN","0.0"],
    [1538321,"2026-01-21 03:40:00","50077","0.8009999999999999","39.96","1.47","60.47","1011.632","12.07","81.7","NAN","0.0"],
    [1538322,"2026-01-21 03:50:00","50078","0.706","10.43","1.339","5.865","1011.375","12.01","82.1","NAN","0.0"],
    [1538323,"2026-01-21 04:00:00","50079","0.585","5.837999999999999","1.078","12.19","1011.221","12","82.5","NAN","0.0"],
    [1538324,"2026-01-21 04:10:00","50080","0.7759999999999999","2.037","1.601","350.0","1011.199","11.98","82.7","NAN","0.0"],
    [1538325,"2026-01-21 04:20:00","50081","0.59","5.931","1.045","0.929","1011.1310000000001","12.01","82.6","NAN","0.0"],
    [1538326,"2026-01-21 04:30:00","50082","0.263","13.89","0.653","23.64","1011.092","12","83","NAN","0.0"],
    [1538327,"2026-01-21 04:40:00","50083","0.203","359.4","0.588","353.9","1011.084","11.99","83.3","NAN","0.0"],
    [1538328,"2026-01-21 04:50:00","50084","0.23600000000000002","354.8","0.6859999999999999","5.126","1011.0219999999999","11.98","83.6","NAN","0.0"],
    [1538329,"2026-01-21 05:00:00","50085","0.061","328.9","0.49","296.3","1010.967","12.03","83.3","NAN","0.0"],
    [1538330,"2026-01-21 05:10:00","50086","0.17","16.31","0.7509999999999999","7.462999999999999","1010.965","11.98","83.2","NAN","0.0"],
    [1538331,"2026-01-21 05:20:00","50087","0.41600000000000004","11.54","1.045","336.2","1010.965","12.03","82.9","NAN","0.0"],
    [1538332,"2026-01-21 05:30:00","50088","0.34299999999999997","15.28","0.8170000000000001","24.46","1010.96","12.04","82.7","NAN","0.0"],
    [1538333,"2026-01-21 05:40:00","50089","0.525","7.754","0.9470000000000001","14.3","1010.915","12.08","82.6","NAN","0.0"],
    [1538334,"2026-01-21 05:50:00","50090","0.316","15.29","0.915","2.419","1010.745","12.05","82.2","NAN","0.0"],
    [1538335,"2026-01-21 06:00:00","50091","0.24600000000000002","359.4","0.98","5.702000000000001","1010.7260000000001","12.02","82.7","NAN","0.0"],
    [1538336,"2026-01-21 06:10:00","50092","0.309","9.38","0.7190000000000001","7.848","1010.773","12.04","82.8","NAN","0.0"],
    [1538337,"2026-01-21 06:20:00","50093","0.23199999999999998","7.94","0.7509999999999999","30.98","1010.721","12.03","83.3","NAN","0.0"],
    [1538338,"2026-01-21 06:30:00","50094","0.084","30.67","0.555","29.54","1010.768","11.91","84","NAN","0.0"],
    [1538339,"2026-01-21 06:40:00","50095","0.019","26.02","0.49","27.58","1010.721","11.86","84.6","NAN","0.0"],
    [1538340,"2026-01-21 06:50:00","50096","0.0","0.0","0.0","0.0","1010.711","11.82","84.5","NAN","0.0"],
    [1538341,"2026-01-21 07:00:00","50097","0.135","200.9","0.621","203.0","1010.673","11.86","84.6","NAN","0.0"],
    [1538342,"2026-01-21 07:10:00","50098","0.21","228.2","0.8170000000000001","244.1","1010.578","11.75","85.9","NAN","0.0"],
    [1538343,"2026-01-21 07:20:00","50099","0.27","217.4","1.045","244.3","1010.446","11.83","85.8","NAN","0.0"],
    [1538344,"2026-01-21 07:30:00","50100","0.038","140.6","0.392","150.7","1010.342","11.82","86.1","NAN","0.0"],
    [1538345,"2026-01-21 07:40:00","50101","0.332","222.5","1.209","240.0","1010.3439999999999","11.75","85.9","NAN","0.0"],
    [1538346,"2026-01-21 07:50:00","50102","0.409","225.0","1.045","237.4","1010.299","11.8","85.3","NAN","0.1"],
    [1538347,"2026-01-21 08:00:00","50103","0.287","239.2","0.915","258.3","1010.217","11.76","84.7","NAN","0.0"],
    [1538348,"2026-01-21 08:10:00","50104","0.575","263.6","1.666","304.4","1010.19","12.13","83.3","NAN","0.0"],
    [1538349,"2026-01-21 08:20:00","50105","0.889","250.3","1.993","263.1","1009.9780000000001","12.4","79.6","NAN","0.0"],
    [1538350,"2026-01-21 08:30:00","50106","0.495","247.6","1.535","284.5","1010.028","12.55","78.2","NAN","0.0"],
    [1538351,"2026-01-21 08:40:00","50107","0.48100000000000004","272.8","1.535","301.4","1009.998","12.76","76.73","NAN","0.0"],
    [1538352,"2026-01-21 08:50:00","50108","0.245","210.1","1.078","259.7","1009.868","13.02","75.87","NAN","0.0"],
    [1538353,"2026-01-21 09:00:00","50109","0.20199999999999999","260.1","0.8170000000000001","277.4","1009.7189999999999","12.89","76.42","NAN","0.0"],
    [1538354,"2026-01-21 09:10:00","50110","0.32","250.8","1.5030000000000001","310.3","1009.712","13.58","74.03","NAN","0.0"],
    [1538355,"2026-01-21 09:20:00","50111","0.657","273.9","2.385","268.2","1009.654","13.48","72.7","NAN","0.0"],
    [1538356,"2026-01-21 09:30:00","50112","0.49200000000000005","272.5","1.7309999999999999","265.5","1009.617","13.39","72.94","NAN","0.0"],
    [1538357,"2026-01-21 09:40:00","50113","0.6859999999999999","239.2","2.352","246.0","1009.597","13.29","73.5","NAN","0.0"],
    [1538358,"2026-01-21 09:50:00","50114","0.6759999999999999","212.8","1.829","237.9","1009.602","13.27","74.52","NAN","0.0"],
    [1538359,"2026-01-21 10:00:00","50115","0.9840000000000001","239.8","3.267","238.3","1009.595","13.57","72.77","NAN","0.0"],
    [1538360,"2026-01-21 10:10:00","50116","1.1079999999999999","234.1","2.679","220.8","1009.535","13.83","71.86","NAN","0.0"],
    [1538361,"2026-01-21 10:20:00","50117","1.032","238.2","2.6460000000000004","240.1","1009.385","13.52","73.64","NAN","0.0"],
    [1538362,"2026-01-21 10:30:00","50118","1.3630000000000002","234.1","2.842","179.9","1009.2130000000001","13.48","75.36","NAN","0.0"],
    [1538363,"2026-01-21 10:40:00","50119","0.997","243.4","2.875","230.0","1009.0369999999999","13.34","76.88","NAN","0.0"],
    [1538364,"2026-01-21 10:50:00","50120","1.0590000000000002","220.8","2.842","202.1","1008.8889999999999","13.94","75.61","NAN","0.0"],
    [1538365,"2026-01-21 11:00:00","50121","1.113","204.5","2.679","204.0","1008.688","14.16","74.42","NAN","0.0"],
    [1538366,"2026-01-21 11:10:00","50122","1.149","221.3","2.5810000000000004","216.0","1008.426","14.23","74.24","NAN","0.0"],
    [1538367,"2026-01-21 11:20:00","50123","1.216","234.2","3.822","262.5","1008.2769999999999","14.24","74.06","NAN","0.0"],
    [1538368,"2026-01-21 11:30:00","50124","1.218","237.3","3.071","245.3","1008.0980000000001","14.31","73.98","NAN","0.0"],
    [1538369,"2026-01-21 11:40:00","50125","1.5630000000000002","237.2","3.43","238.6","1007.802","14.25","74.6","NAN","0.0"],
    [1538370,"2026-01-21 11:50:00","50126","1.87","243.5","3.593","235.6","1007.659","14.09","73.73","NAN","0.0"],
    [1538371,"2026-01-21 12:00:00","50127","2.061","231.1","4.965","224.8","1007.4169999999999","14.06","73.53","NAN","0.0"],
    [1538372,"2026-01-21 12:10:00","50128","1.733","217.5","4.2139999999999995","224.6","1007.186","14.01","75.03","NAN","0.0"],
    [1538373,"2026-01-21 12:20:00","50129","1.906","236.9","4.312","237.9","1006.9989999999999","14.11","74.87","NAN","0.0"],
    [1538374,"2026-01-21 12:30:00","50130","2.217","223.6","5.422999999999999","191.0","1006.7589999999999","14.04","74.48","NAN","0.0"],
    [1538375,"2026-01-21 12:40:00","50131","1.892","231.6","4.998","234.9","1006.471","14.05","74.11","NAN","0.0"],
    [1538376,"2026-01-21 12:50:00","50132","1.8619999999999999","221.4","5.129","239.6","1006.194","13.98","74.25","NAN","0.0"],
    [1538377,"2026-01-21 13:00:00","50133","1.7409999999999999","233.7","5.063","242.6","1005.828","14.21","74.07","NAN","0.0"],
    [1538378,"2026-01-21 13:10:00","50134","1.087","232.0","3.1689999999999996","272.0","1005.4939999999999","14.58","72.98","NAN","0.0"],
    [1538379,"2026-01-21 13:20:00","50135","1.952","235.5","5.39","228.9","1005.263","14.87","71.03","NAN","0.0"],
    [1538380,"2026-01-21 13:30:00","50136","2.55","241.5","5.978","232.5","1005.1510000000001","14.67","70.97","NAN","0.0"],
    [1538381,"2026-01-21 13:40:00","50137","2.5140000000000002","231.1","6.1739999999999995","238.5","1004.8789999999999","14.8","70.69","NAN","0.0"],
    [1538382,"2026-01-21 13:50:00","50138","2.332","227.0","5.651","246.5","1004.785","14.55","71.78","NAN","0.0"],
    [1538383,"2026-01-21 14:00:00","50139","2.4219999999999997","224.6","4.9","239.8","1004.602","14.53","72.15","NAN","0.0"],
    [1538384,"2026-01-21 14:10:00","50140","2.448","224.5","6.305","225.4","1004.423","14.98","70.46","NAN","0.0"],
    [1538385,"2026-01-21 14:20:00","50141","2.1719999999999997","221.6","4.769","232.9","1004.3939999999999","14.66","71.62","NAN","0.0"],
    [1538386,"2026-01-21 14:30:00","50142","2.356","223.7","4.998","215.8","1004.207","14.6","71.55","NAN","0.0"],
    [1538387,"2026-01-21 14:40:00","50143","2.266","227.5","4.965","221.3","1003.993","14.89","70.3","NAN","0.0"],
    [1538388,"2026-01-21 14:50:00","50144","2.745","219.6","5.455","218.3","1003.818","14.73","70.7","NAN","0.0"],
    [1538389,"2026-01-21 15:00:00","50145","2.106","218.8","4.2139999999999995","197.1","1003.7489999999999","14.6","71.61","NAN","0.0"],
    [1538390,"2026-01-21 15:10:00","50146","2.0269999999999997","220.9","4.279","204.2","1003.6310000000001","14.3","73.16","NAN","0.0"],
    [1538391,"2026-01-21 15:20:00","50147","2.27","222.4","4.867","223.6","1003.375","14.13","73.39","NAN","0.0"],
    [1538392,"2026-01-21 15:30:00","50148","1.6540000000000001","208.8","4.2139999999999995","202.9","1003.171","13.92","74.48","NAN","0.0"],
    [1538393,"2026-01-21 15:40:00","50149","1.77","219.0","4.181","211.5","1002.9739999999999","13.79","74.38","NAN","0.0"],
    [1538394,"2026-01-21 15:50:00","50150","1.964","216.9","4.769","237.2","1002.789","13.66","74.1","NAN","0.0"],
    [1538395,"2026-01-21 16:00:00","50151","1.781","220.9","4.508","217.9","1002.635","13.43","74.76","NAN","0.0"],
    [1538396,"2026-01-21 16:10:00","50152","1.337","218.9","3.593","232.3","1002.5010000000001","13.29","75.96","NAN","0.0"],
    [1538397,"2026-01-21 16:20:00","50153","2.055","217.5","4.279","201.9","1002.454","13.18","76.87","NAN","0.0"],
    [1538398,"2026-01-21 16:30:00","50154","1.7830000000000001","216.3","4.312","208.9","1002.3710000000001","13","78.16","NAN","0.0"],
    [1538399,"2026-01-21 16:40:00","50155","1.381","214.3","2.7439999999999998","227.7","1002.242","12.87","79.31","NAN","0.0"],
    [1538400,"2026-01-21 16:50:00","50156","2.005","228.1","5.2589999999999995","240.3","1002.047","12.8","80.4","NAN","0.0"],
    [1538401,"2026-01-21 17:00:00","50157","1.6119999999999999","235.8","3.463","258.1","1001.8530000000001","12.78","81.2","NAN","0.0"],
    [1538402,"2026-01-21 17:10:00","50158","1.349","236.0","3.528","261.2","1001.7389999999999","12.8","81.5","NAN","0.0"],
    [1538403,"2026-01-21 17:20:00","50159","1.4140000000000001","236.0","4.149","232.5","1001.6210000000001","12.77","82.2","NAN","0.0"],
    [1538404,"2026-01-21 17:30:00","50160","1.7590000000000001","237.2","3.9530000000000003","237.5","1001.455","12.78","82.9","NAN","0.0"],
    [1538405,"2026-01-21 17:40:00","50161","0.993","232.5","2.679","247.3","1001.318","12.76","83.7","NAN","0.0"],
    [1538406,"2026-01-21 17:50:00","50162","1.5019999999999998","236.4","2.842","236.1","1001.245","12.79","84.2","NAN","0.0"],
    [1538407,"2026-01-21 18:00:00","50163","1.557","238.5","3.234","243.6","1001.051","12.8","84.8","NAN","0.0"],
    [1538408,"2026-01-21 18:10:00","50164","1.295","235.7","3.005","234.7","1000.9760000000001","12.79","85.6","NAN","0.0"],
    [1538409,"2026-01-21 18:20:00","50165","1.25","226.9","2.842","257.7","1000.7669999999999","12.78","86.1","NAN","0.0"],
    [1538410,"2026-01-21 18:30:00","50166","1.1909999999999998","227.8","2.875","242.3","1000.525","12.74","86.9","NAN","0.0"],
    [1538411,"2026-01-21 18:40:00","50167","1.814","227.8","4.1160000000000005","267.4","1000.3789999999999","12.84","86.9","NAN","0.0"],
    [1538412,"2026-01-21 18:50:00","50168","1.485","227.8","4.312","234.9","1000.329","12.88","87.3","NAN","0.0"],
    [1538413,"2026-01-21 19:00:00","50169","1.8769999999999998","219.3","4.279","214.8","1000.2539999999999","12.98","85.8","NAN","0.0"],
    [1538414,"2026-01-21 19:10:00","50170","2.209","218.4","5.325","196.2","1000.13","13.04","84.5","NAN","0.0"],
    [1538415,"2026-01-21 19:20:00","50171","1.936","223.1","4.638999999999999","237.3","1000.007","13.11","83.3","NAN","0.0"],
    [1538416,"2026-01-21 19:30:00","50172","1.4040000000000001","219.1","3.397","172.9","999.8232","13.12","81.7","NAN","0.0"],
    [1538417,"2026-01-21 19:40:00","50173","1.689","224.2","4.4430000000000005","196.8","999.5765","12.8","83.9","NAN","0.3"],
    [1538418,"2026-01-21 19:50:00","50174","1.994","230.1","4.247","220.8","999.4633","12.45","85.6","NAN","0.1"],
    [1538419,"2026-01-21 20:00:00","50175","1.391","229.0","4.018","263.8","999.2631","12.31","86.4","NAN","0.1"],
    [1538420,"2026-01-21 20:10:00","50176","1.214","226.4","2.221","213.3","999.1872","12.18","87","NAN","0.0"],
    [1538421,"2026-01-21 20:20:00","50177","1.36","221.6","3.103","233.7","999.1489999999999","12.03","87.6","NAN","0.0"],
    [1538422,"2026-01-21 20:30:00","50178","1.317","214.8","2.8089999999999997","191.0","999.0389","11.99","88","NAN","0.0"],
    [1538423,"2026-01-21 20:40:00","50179","1.251","216.2","3.528","224.0","998.8826","11.9","88.9","NAN","0.0"],
    [1538424,"2026-01-21 20:50:00","50180","1.545","213.6","2.7439999999999998","208.5","998.817","11.89","89.1","NAN","0.0"],
    [1538425,"2026-01-21 21:00:00","50181","1.38","220.5","3.1689999999999996","235.7","998.7068","11.86","89","NAN","0.0"],
    [1538426,"2026-01-21 21:10:00","50182","1.465","222.0","3.593","261.0","998.5806","11.92","87.1","NAN","0.0"],
    [1538427,"2026-01-21 21:20:00","50183","1.808","228.0","4.279","265.7","998.3698","12.01","84.3","NAN","0.0"],
    [1538428,"2026-01-21 21:30:00","50184","1.358","228.3","4.573","256.9","998.3258","12.03","83.4","NAN","0.0"],
    [1538429,"2026-01-21 21:40:00","50185","1.4880000000000002","239.5","4.475","227.6","998.1397","11.96","84.2","NAN","0.0"],
    [1538430,"2026-01-21 21:50:00","50186","1.449","225.8","4.2139999999999995","254.3","998.0025","11.9","85.6","NAN","0.0"],
    [1538431,"2026-01-21 22:00:00","50187","1.489","226.9","4.671","230.9","997.8593","11.82","86.8","NAN","0.0"],
    [1538432,"2026-01-21 22:10:00","50188","1.758","232.2","4.606","242.6","997.7193","11.88","85.7","NAN","0.0"],
    [1538433,"2026-01-21 22:20:00","50189","1.646","233.1","3.822","242.3","997.6843","11.87","85.6","NAN","0.0"],
    [1538434,"2026-01-21 22:30:00","50190","2.02","236.9","4.835","246.2","997.6406","11.98","84.8","NAN","0.0"],
    [1538435,"2026-01-21 22:40:00","50191","2.105","237.8","3.6260000000000003","234.2","997.5646","12.04","84.6","NAN","0.0"],
    [1538436,"2026-01-21 22:50:00","50192","1.524","239.1","3.855","231.6","997.4631","12.1","84.9","NAN","0.0"],
    [1538437,"2026-01-21 23:00:00","50193","1.476","234.9","3.495","223.3","997.4002","12.13","85.4","NAN","0.0"],
    [1538438,"2026-01-21 23:10:00","50194","1.587","237.0","3.855","246.7","997.4108","12.2","85.5","NAN","0.0"],
    [1538439,"2026-01-21 23:20:00","50195","1.246","238.4","3.071","247.6","997.2214","12.34","84.5","NAN","0.0"],
    [1538440,"2026-01-21 23:30:00","50196","1.3619999999999999","240.3","3.43","240.6","997.0286","12.4","84.2","NAN","0.0"],
    [1538441,"2026-01-21 23:40:00","50197","1.3419999999999999","229.5","3.299","232.3","996.785","12.56","82.8","NAN","0.0"],
    [1538442,"2026-01-21 23:50:00","50198","1.252","241.6","2.875","237.1","996.6302","12.6","82.8","NAN","0.0"],
    [1538443,"2026-01-22 00:00:00","50199","1.258","240.3","2.907","226.9","996.4587","12.71","82.5","NAN","0.0"],
    [1538444,"2026-01-22 00:10:00","50200","0.9129999999999999","232.4","2.0909999999999997","242.8","996.3762","12.76","82.6","NAN","0.0"],
    [1538445,"2026-01-22 00:20:00","50201","0.64","222.9","1.797","242.5","996.2093","12.73","83.4","NAN","0.0"],
    [1538446,"2026-01-22 00:30:00","50202","0.687","247.5","1.5030000000000001","262.6","996.0179","12.67","84.1","NAN","0.0"],
    [1538447,"2026-01-22 00:40:00","50203","0.401","298.5","1.3719999999999999","312.3","995.8356","12.71","84.2","NAN","0.0"],
    [1538448,"2026-01-22 00:50:00","50204","0.235","273.2","1.209","244.9","995.7039","12.82","83.3","NAN","0.0"],
    [1538449,"2026-01-22 01:00:00","50205","0.523","236.5","1.5030000000000001","222.0","995.6017","12.78","83.9","NAN","0.0"],
    [1538450,"2026-01-22 01:10:00","50206","1.139","240.4","4.737","231.8","995.4922","12.81","83.9","NAN","0.0"],
    [1538451,"2026-01-22 01:20:00","50207","2.171","242.1","4.965","244.9","995.2628","12.91","85.2","NAN","0.1"],
    [1538452,"2026-01-22 01:30:00","50208","1.228","261.5","3.103","233.1","995.1312","12.85","86.3","NAN","0.0"],
    [1538453,"2026-01-22 01:40:00","50209","0.809","289.6","2.613","291.2","994.9888","12.75","86.5","NAN","0.0"],
    [1538454,"2026-01-22 01:50:00","50210","0.47200000000000003","241.4","1.797","228.6","994.8023","12.75","85.6","NAN","0.0"],
    [1538455,"2026-01-22 02:00:00","50211","0.467","222.1","1.078","273.1","994.7751","12.68","86.2","NAN","0.0"],
    [1538456,"2026-01-22 02:10:00","50212","0.725","192.2","1.2409999999999999","170.7","994.6553","12.6","87","NAN","0.0"],
    [1538457,"2026-01-22 02:20:00","50213","0.5660000000000001","214.2","0.98","207.2","994.5255","12.38","88.4","NAN","0.0"],
    [1538458,"2026-01-22 02:30:00","50214","0.7929999999999999","212.5","1.5030000000000001","237.0","994.3463","12.23","87.7","NAN","0.0"],
    [1538459,"2026-01-22 02:40:00","50215","0.6940000000000001","216.9","1.2409999999999999","213.7","994.0848","12.18","87.2","NAN","0.0"],
    [1538460,"2026-01-22 02:50:00","50216","0.758","226.0","1.535","249.0","993.8538","12.02","87.8","NAN","0.0"],
    [1538461,"2026-01-22 03:00:00","50217","0.757","220.3","1.699","254.3","993.8022","12.09","86.8","NAN","0.0"],
    [1538462,"2026-01-22 03:10:00","50218","0.46299999999999997","233.4","1.5030000000000001","253.1","993.7824","12.08","86.3","NAN","0.0"],
    [1538463,"2026-01-22 03:20:00","50219","0.6579999999999999","282.4","2.8089999999999997","278.1","993.6796","12.19","84.6","NAN","0.0"],
    [1538464,"2026-01-22 03:30:00","50220","0.156","320.7","1.3719999999999999","274.1","993.5366","12.29","83.1","NAN","0.0"],
    [1538465,"2026-01-22 03:40:00","50221","0.8029999999999999","322.5","1.96","278.5","993.4366","12.35","81.5","NAN","0.0"],
    [1538466,"2026-01-22 03:50:00","50222","0.723","327.2","2.7110000000000003","316.5","993.3691","12.55","79.53","NAN","0.0"],
    [1538467,"2026-01-22 04:00:00","50223","0.8","345.6","1.8619999999999999","314.4","993.3038","12.52","78.83","NAN","0.0"],
    [1538468,"2026-01-22 04:10:00","50224","0.607","42.18","1.568","21.9","993.1597","12.06","83.3","NAN","0.0"],
    [1538469,"2026-01-22 04:20:00","50225","0.637","7.382000000000001","1.666","30.42","993.0452","11.83","84.7","NAN","0.0"],
    [1538470,"2026-01-22 04:30:00","50226","0.615","5.587999999999999","1.797","46.12","993.0225","11.86","84.1","NAN","0.0"],
    [1538471,"2026-01-22 04:40:00","50227","0.882","331.0","2.287","321.8","993.0421","12.1","81.8","NAN","0.0"],
    [1538472,"2026-01-22 04:50:00","50228","0.63","313.8","1.633","313.7","993.0209","12.41","78.63","NAN","0.0"],
    [1538473,"2026-01-22 05:00:00","50229","1.102","337.5","3.528","356.1","992.905","12.54","76","NAN","0.0"],
    [1538474,"2026-01-22 05:10:00","50230","1.136","335.6","3.201","328.9","992.8899","12.66","72.02","NAN","0.0"],
    [1538475,"2026-01-22 05:20:00","50231","1.5390000000000001","329.7","3.267","300.8","992.9096","12.78","69.39","NAN","0.0"],
    [1538476,"2026-01-22 05:30:00","50232","1.485","328.9","4.671","311.3","992.9021","12.74","69.74","NAN","0.0"],
    [1538477,"2026-01-22 05:40:00","50233","1.264","272.4","3.136","311.5","993.008","12.61","70.91","NAN","0.0"],
    [1538478,"2026-01-22 05:50:00","50234","0.6679999999999999","259.5","1.993","257.1","993.2255","12.42","72.81","NAN","0.0"],
    [1538479,"2026-01-22 06:00:00","50235","0.978","235.1","2.7110000000000003","330.7","993.4213","12.19","74.5","NAN","0.0"],
    [1538480,"2026-01-22 06:10:00","50236","0.68","309.2","2.613","292.0","993.6669999999999","12.07","74.32","NAN","0.0"],
    [1538481,"2026-01-22 06:20:00","50237","1.307","311.0","3.365","351.9","993.8542","12.11","73.99","NAN","0.2"],
    [1538482,"2026-01-22 06:30:00","50238","1.755","284.8","4.083","292.9","993.8768","11.8","76.9","NAN","0.3"],
    [1538483,"2026-01-22 06:40:00","50239","2.112","318.9","5.651","304.5","993.9509","11.39","80.7","NAN","0.4"],
    [1538484,"2026-01-22 06:50:00","50240","1.865","332.0","5.292000000000001","329.1","994.0787","11.57","79.07","NAN","0.1"],
    [1538485,"2026-01-22 07:00:00","50241","1.7919999999999998","347.6","4.475","335.5","994.1992","11.52","79.24","NAN","0.0"],
    [1538486,"2026-01-22 07:10:00","50242","1.412","354.3","4.475","322.4","994.3812","11.52","79.01","NAN","0.0"],
    [1538487,"2026-01-22 07:20:00","50243","1.8219999999999998","345.6","4.671","317.1","994.5403","11.55","78.56","NAN","0.0"],
    [1538488,"2026-01-22 07:30:00","50244","0.584","4.323","2.254","330.4","994.6601","11.44","80.3","NAN","0.1"],
    [1538489,"2026-01-22 07:40:00","50245","1.046","27.58","2.548","24.95","994.9271","11.3","81.6","NAN","0.0"],
    [1538490,"2026-01-22 07:50:00","50246","0.787","1.213","3.071","303.2","995.1907","11.44","80.2","NAN","0.0"],
    [1538491,"2026-01-22 08:00:00","50247","0.222","121.5","0.882","21.91","995.3802","11.23","82.5","NAN","0.0"],
    [1538492,"2026-01-22 08:10:00","50248","0.493","117.5","1.3719999999999999","189.2","995.6293","11.15","83.1","NAN","0.1"],
    [1538493,"2026-01-22 08:20:00","50249","0.7709999999999999","61.45","2.025","95.4","995.9309","11.13","84.2","NAN","0.0"],
    [1538494,"2026-01-22 08:30:00","50250","0.988","68.57","1.829","73.49","996.1772","10.94","87.3","NAN","0.1"],
    [1538495,"2026-01-22 08:40:00","50251","0.627","57.45","1.176","76.66","996.3041","10.75","89.1","NAN","0.1"],
    [1538496,"2026-01-22 08:50:00","50252","0.597","41.03","1.143","61.47","996.3466","10.73","90.8","NAN","0.2"],
    [1538497,"2026-01-22 09:00:00","50253","0.413","40.82","1.47","41.4","996.4609","10.65","92.3","NAN","0.2"],
    [1538498,"2026-01-22 09:10:00","50254","0.304","22.6","1.209","12.19","996.4609","10.72","92.6","NAN","0.0"],
    [1538499,"2026-01-22 09:20:00","50255","0.26899999999999996","24.53","1.111","1.554","996.5358","11.05","92.2","NAN","0.1"],
    [1538500,"2026-01-22 09:30:00","50256","1.33","329.0","3.43","330.7","996.7127","11.43","85.6","NAN","0.0"],
    [1538501,"2026-01-22 09:40:00","50257","1.561","338.1","4.965","338.3","996.7275","11.84","79.7","NAN","0.0"],
    [1538502,"2026-01-22 09:50:00","50258","1.827","332.3","3.7569999999999997","307.9","996.8588","12.14","76.68","NAN","0.0"],
    [1538503,"2026-01-22 10:00:00","50259","1.197","351.2","3.071","314.1","996.9324","12.31","76.18","NAN","0.0"],
    [1538504,"2026-01-22 10:10:00","50260","1.195","4.518","2.613","16.77","997.1351","12.48","75.16","NAN","0.0"],
    [1538505,"2026-01-22 10:20:00","50261","0.9259999999999999","5.721","2.352","73.57","997.2784","12.52","75.24","NAN","0.0"],
    [1538506,"2026-01-22 10:30:00","50262","0.821","12.58","2.7110000000000003","59.19","997.3878","12.41","75.24","NAN","0.0"],
    [1538507,"2026-01-22 10:40:00","50263","0.602","11.16","1.829","139.1","997.2728","12.42","75.74","NAN","0.0"],
    [1538508,"2026-01-22 10:50:00","50264","1.263","164.1","2.0580000000000003","183.2","997.1434","12.44","75.07","NAN","0.0"],
    [1538509,"2026-01-22 11:00:00","50265","1.026","188.5","2.221","167.5","997.0443","12.4","76.15","NAN","0.0"],
    [1538510,"2026-01-22 11:10:00","50266","0.6829999999999999","207.5","1.4369999999999998","162.0","997.1962","12.54","76.93","NAN","0.0"],
    [1538511,"2026-01-22 11:20:00","50267","1.129","215.8","2.5810000000000004","243.4","997.2632","12.75","75.9","NAN","0.0"],
    [1538512,"2026-01-22 11:30:00","50268","2.36","240.9","4.345","228.3","997.4156","12.67","76.14","NAN","0.0"],
    [1538513,"2026-01-22 11:40:00","50269","1.175","273.7","3.528","265.6","997.5599","12.76","75.67","NAN","0.0"],
    [1538514,"2026-01-22 11:50:00","50270","0.721","305.0","2.907","308.7","997.5696","13.04","70.7","NAN","0.0"],
    [1538515,"2026-01-22 12:00:00","50271","1.028","303.4","3.136","305.6","997.6394","13.27","66.89","NAN","0.0"],
    [1538516,"2026-01-22 12:10:00","50272","0.5870000000000001","215.9","1.535","308.0","997.6669999999999","13.88","63.23","NAN","0.0"],
    [1538517,"2026-01-22 12:20:00","50273","1.3359999999999999","243.5","3.7239999999999998","278.3","997.9713","14.03","62.36","NAN","0.0"],
    [1538518,"2026-01-22 12:30:00","50274","1.982","270.4","4.345","282.8","998.0628","13.78","63.36","NAN","0.0"],
    [1538519,"2026-01-22 12:40:00","50275","1.875","267.1","4.2139999999999995","271.5","998.0601","13.71","63.47","NAN","0.0"],
    [1538520,"2026-01-22 12:50:00","50276","1.86","270.5","4.1160000000000005","300.1","998.0254","13.84","60.35","NAN","0.0"],
    [1538521,"2026-01-22 13:00:00","50277","1.765","280.4","4.377","241.7","997.9830000000001","14.14","58.09","NAN","0.0"],
    [1538522,"2026-01-22 13:10:00","50278","1.065","269.1","3.332","216.2","997.998","14.52","56.63","NAN","0.0"],
    [1538523,"2026-01-22 13:20:00","50279","1.636","256.5","4.018","271.3","998.0256","14.44","56.33","NAN","0.0"],
    [1538524,"2026-01-22 13:30:00","50280","1.699","250.3","3.887","247.4","998.1028","14.48","57.09","NAN","0.0"],
    [1538525,"2026-01-22 13:40:00","50281","1.5230000000000001","262.1","3.332","248.4","998.1144","14.57","56.41","NAN","0.0"],
    [1538526,"2026-01-22 13:50:00","50282","1.59","275.2","3.495","297.8","998.1819","14.56","56.85","NAN","0.0"],
    [1538527,"2026-01-22 14:00:00","50283","1.2670000000000001","228.5","2.7110000000000003","240.5","998.1594","14.63","57.22","NAN","0.0"],
    [1538528,"2026-01-22 14:10:00","50284","1.268","206.4","2.7439999999999998","199.3","998.1484","14.74","58.08","NAN","0.0"],
    [1538529,"2026-01-22 14:20:00","50285","1.767","194.9","2.9730000000000003","202.0","998.1412","14.58","58.57","NAN","0.0"],
    [1538530,"2026-01-22 14:30:00","50286","1.368","185.3","2.287","158.7","998.2146","14.62","59.12","NAN","0.0"],
    [1538531,"2026-01-22 14:40:00","50287","1.963","173.1","3.136","152.0","998.2164","14.32","61.75","NAN","0.0"],
    [1538532,"2026-01-22 14:50:00","50288","2.075","179.8","3.43","178.2","998.3003","14.04","64.03","NAN","0.0"],
    [1538533,"2026-01-22 15:00:00","50289","2.106","174.5","3.463","175.8","998.482","13.93","65.58","NAN","0.0"],
    [1538534,"2026-01-22 15:10:00","50290","1.986","177.8","3.103","180.3","998.5607","13.78","66.29","NAN","0.0"],
    [1538535,"2026-01-22 15:20:00","50291","2.1590000000000003","176.0","3.397","178.4","998.7489999999999","13.63","66.95","NAN","0.0"],
    [1538536,"2026-01-22 15:30:00","50292","1.939","182.9","3.5610000000000004","176.1","998.8325","13.62","66.8","NAN","0.0"],
    [1538537,"2026-01-22 15:40:00","50293","1.959","168.4","3.463","149.6","998.9966","13.7","65.55","NAN","0.0"],
    [1538538,"2026-01-22 15:50:00","50294","1.962","162.7","3.267","137.5","999.0089999999999","13.82","64.55","NAN","0.0"],
    [1538539,"2026-01-22 16:00:00","50295","1.74","175.8","3.495","175.8","999.0491","13.88","65.11","NAN","0.0"],
    [1538540,"2026-01-22 16:10:00","50296","2.267","170.0","3.234","171.8","999.2233","13.83","67.03","NAN","0.0"],
    [1538541,"2026-01-22 16:20:00","50297","0.912","183.1","2.679","161.9","999.258","13.83","66.72","NAN","0.0"],
    [1538542,"2026-01-22 16:30:00","50298","0.841","196.7","2.7110000000000003","170.1","999.3831","13.79","64.73","NAN","0.0"],
    [1538543,"2026-01-22 16:40:00","50299","1.1740000000000002","212.8","2.319","219.5","999.6518","13.59","62.52","NAN","0.0"],
    [1538544,"2026-01-22 16:50:00","50300","0.884","223.3","2.7439999999999998","224.3","999.7589","13.64","60.6","NAN","0.0"],
    [1538545,"2026-01-22 17:00:00","50301","1.0190000000000001","238.8","2.8089999999999997","224.2","999.8782","13.86","58.87","NAN","0.0"],
    [1538546,"2026-01-22 17:10:00","50302","0.545","249.3","1.5030000000000001","295.5","999.9481","13.73","60.01","NAN","0.0"],
    [1538547,"2026-01-22 17:20:00","50303","0.457","199.6","1.045","198.5","1000.043","13.52","61.73","NAN","0.0"],
    [1538548,"2026-01-22 17:30:00","50304","0.535","233.6","1.274","238.5","1000.187","13.31","62.78","NAN","0.0"],
    [1538549,"2026-01-22 17:40:00","50305","1.173","265.6","3.593","220.4","1000.222","13.88","58.96","NAN","0.0"],
    [1538550,"2026-01-22 17:50:00","50306","0.9129999999999999","278.1","2.875","271.3","1000.2589999999999","14.14","56.31","NAN","0.0"],
    [1538551,"2026-01-22 18:00:00","50307","1.089","271.4","3.855","274.6","1000.3889999999999","14.01","56.07","NAN","0.0"],
    [1538552,"2026-01-22 18:10:00","50308","1.669","269.2","4.965","303.8","1000.558","14","54.55","NAN","0.0"],
    [1538553,"2026-01-22 18:20:00","50309","1.78","261.6","5.063","274.9","1000.683","14","52.82","NAN","0.0"],
    [1538554,"2026-01-22 18:30:00","50310","1.3519999999999999","266.8","3.6260000000000003","346.7","1000.745","13.83","52.95","NAN","0.0"],
    [1538555,"2026-01-22 18:40:00","50311","1.7280000000000002","277.8","3.92","293.9","1000.737","13.69","53.05","NAN","0.0"],
    [1538556,"2026-01-22 18:50:00","50312","1.2770000000000001","256.4","3.201","298.3","1000.7330000000001","13.49","53.81","NAN","0.0"],
    [1538557,"2026-01-22 19:00:00","50313","1.44","272.3","4.051","263.4","1000.732","13.35","53.95","NAN","0.0"],
    [1538558,"2026-01-22 19:10:00","50314","1.278","278.7","3.9530000000000003","283.0","1000.732","13.28","54.14","NAN","0.0"],
    [1538559,"2026-01-22 19:20:00","50315","0.894","272.1","2.385","275.0","1000.752","13.08","55.07","NAN","0.0"],
    [1538560,"2026-01-22 19:30:00","50316","1.157","255.2","3.43","235.1","1000.7810000000001","12.95","55.74","NAN","0.0"],
    [1538561,"2026-01-22 19:40:00","50317","1.151","273.8","3.7569999999999997","270.5","1000.791","12.86","55.9","NAN","0.0"],
    [1538562,"2026-01-22 19:50:00","50318","0.584","273.2","1.601","317.5","1000.818","12.67","56.59","NAN","0.0"],
    [1538563,"2026-01-22 20:00:00","50319","0.602","262.8","1.535","288.8","1000.9119999999999","12.55","57.14","NAN","0.0"],
    [1538564,"2026-01-22 20:10:00","50320","0.6990000000000001","237.4","2.319","257.2","1000.943","12.41","57.46","NAN","0.0"],
    [1538565,"2026-01-22 20:20:00","50321","1.249","247.5","3.6910000000000003","246.4","1001.0319999999999","12.59","55.39","NAN","0.0"],
    [1538566,"2026-01-22 20:30:00","50322","1.601","236.7","3.92","232.7","1001.003","12.65","54.41","NAN","0.0"],
    [1538567,"2026-01-22 20:40:00","50323","1.546","252.9","3.92","235.9","1001.0089999999999","12.71","53.28","NAN","0.0"],
    [1538568,"2026-01-22 20:50:00","50324","1.3319999999999999","249.2","3.365","232.8","1001.0260000000001","12.67","52.79","NAN","0.0"],
    [1538569,"2026-01-22 21:00:00","50325","1.704","271.2","3.985","302.5","1001.068","12.69","52.1","NAN","0.0"],
    [1538570,"2026-01-22 21:10:00","50326","1.16","256.3","2.7110000000000003","242.4","1001.17","12.59","52.47","NAN","0.0"],
    [1538571,"2026-01-22 21:20:00","50327","0.9109999999999999","214.8","1.764","195.1","1001.1289999999999","12.12","56.7","NAN","0.0"],
    [1538572,"2026-01-22 21:30:00","50328","1.037","215.9","1.993","262.3","1001.029","11.42","59.31","NAN","0.0"],
    [1538573,"2026-01-22 21:40:00","50329","0.8909999999999999","225.8","2.548","216.2","1000.923","11.53","57.54","NAN","0.0"],
    [1538574,"2026-01-22 21:50:00","50330","0.726","261.2","2.7439999999999998","270.2","1000.93","11.63","56.93","NAN","0.0"],
    [1538575,"2026-01-22 22:00:00","50331","0.727","250.2","2.352","258.0","1000.945","11.78","56.06","NAN","0.0"],
    [1538576,"2026-01-22 22:10:00","50332","1.052","267.9","2.842","303.1","1000.855","11.93","54.49","NAN","0.0"],
    [1538577,"2026-01-22 22:20:00","50333","0.882","249.0","2.123","282.1","1000.82","11.83","54.53","NAN","0.0"],
    [1538578,"2026-01-22 22:30:00","50334","0.38299999999999995","271.0","1.535","320.5","1000.658","11.83","54.39","NAN","0.0"],
    [1538579,"2026-01-22 22:40:00","50335","0.966","207.1","1.797","194.5","1000.546","11.47","58.65","NAN","0.0"],
    [1538580,"2026-01-22 22:50:00","50336","0.677","226.7","1.143","209.2","1000.442","10.5","62.07","NAN","0.0"],
    [1538581,"2026-01-22 23:00:00","50337","0.688","220.8","1.176","219.0","1000.46","10.4","62.16","NAN","0.0"],
    [1538582,"2026-01-22 23:10:00","50338","0.664","231.9","1.2409999999999999","216.4","1000.5010000000001","10.38","62.2","NAN","0.0"],
    [1538583,"2026-01-22 23:20:00","50339","0.768","217.9","1.3719999999999999","238.6","1000.529","10.46","63.02","NAN","0.0"],
    [1538584,"2026-01-22 23:30:00","50340","0.631","229.9","1.339","235.1","1000.425","10.28","63.99","NAN","0.0"],
    [1538585,"2026-01-22 23:40:00","50341","0.975","237.1","1.764","232.6","1000.4910000000001","10.56","63.32","NAN","0.0"],
    [1538586,"2026-01-22 23:50:00","50342","0.818","233.8","1.829","230.7","1000.408","10.62","61.89","NAN","0.0"],
    [1538587,"2026-01-23 00:00:00","50343","0.9490000000000001","231.4","1.764","245.9","1000.3480000000001","10.31","62.63","NAN","0.0"],
    [1538588,"2026-01-23 00:10:00","50344","0.596","267.2","1.4369999999999998","264.4","1000.32","10.65","61.34","NAN","0.0"],
    [1538589,"2026-01-23 00:20:00","50345","0.993","247.2","2.0580000000000003","240.8","1000.3710000000001","10.55","61.87","NAN","0.0"],
    [1538590,"2026-01-23 00:30:00","50346","1.067","250.7","2.0580000000000003","244.1","1000.3689999999999","10.72","60.02","NAN","0.0"],
    [1538591,"2026-01-23 00:40:00","50347","0.9109999999999999","228.7","2.221","253.3","1000.193","10.76","58.37","NAN","0.0"],
    [1538592,"2026-01-23 00:50:00","50348","1.124","238.0","3.6260000000000003","254.9","999.9658","10.42","59.54","NAN","0.0"],
    [1538593,"2026-01-23 01:00:00","50349","1.044","217.5","2.0909999999999997","208.7","999.8737","10.35","61.54","NAN","0.0"],
    [1538594,"2026-01-23 01:10:00","50350","1.047","220.2","2.123","229.9","999.7538","9.88","64.5","NAN","0.0"],
    [1538595,"2026-01-23 01:20:00","50351","1.105","221.2","2.483","258.7","999.6364","9.85","64.19","NAN","0.0"],
    [1538596,"2026-01-23 01:30:00","50352","1.396","232.6","2.515","237.7","999.5062","10.19","62.08","NAN","0.0"],
    [1538597,"2026-01-23 01:40:00","50353","0.9740000000000001","222.4","2.0580000000000003","239.8","999.4658","10.07","62.68","NAN","0.0"],
    [1538598,"2026-01-23 01:50:00","50354","0.9840000000000001","226.6","2.156","248.8","999.4863","10.04","62.06","NAN","0.0"],
    [1538599,"2026-01-23 02:00:00","50355","0.941","232.5","1.9269999999999998","251.1","999.3939","10.02","61.87","NAN","0.0"],
    [1538600,"2026-01-23 02:10:00","50356","0.7040000000000001","226.5","1.764","218.3","999.3427","10.27","61.49","NAN","0.0"],
    [1538601,"2026-01-23 02:20:00","50357","0.753","262.7","2.548","258.0","999.2573","10.53","58.88","NAN","0.0"],
    [1538602,"2026-01-23 02:30:00","50358","0.6859999999999999","245.4","1.7309999999999999","229.7","999.0311","10.81","56.75","NAN","0.0"],
    [1538603,"2026-01-23 02:40:00","50359","0.526","246.1","1.47","302.5","998.8772","10.6","57.38","NAN","0.0"],
    [1538604,"2026-01-23 02:50:00","50360","0.544","242.4","1.405","248.2","998.6952","10.45","58.23","NAN","0.0"],
    [1538605,"2026-01-23 03:00:00","50361","0.478","257.2","1.535","260.2","998.5318","10.47","58.15","NAN","0.0"],
    [1538606,"2026-01-23 03:10:00","50362","0.349","286.4","1.176","309.2","998.4495","10.62","57.06","NAN","0.0"],
    [1538607,"2026-01-23 03:20:00","50363","0.667","218.6","1.3719999999999999","212.6","998.3505","10.68","57.6","NAN","0.0"],
    [1538608,"2026-01-23 03:30:00","50364","0.867","216.7","1.2409999999999999","212.1","998.3535","10","61.77","NAN","0.0"],
    [1538609,"2026-01-23 03:40:00","50365","0.67","217.3","1.111","231.8","998.2612","9.93","60.28","NAN","0.0"],
    [1538610,"2026-01-23 03:50:00","50366","0.825","209.3","1.5030000000000001","200.4","998.0999","10.01","59.06","NAN","0.0"],
    [1538611,"2026-01-23 04:00:00","50367","1.119","210.4","1.96","188.3","997.9373","9.88","58.31","NAN","0.0"],
    [1538612,"2026-01-23 04:10:00","50368","0.8170000000000001","226.2","1.47","209.4","998.0308","9.92","57.58","NAN","0.0"],
    [1538613,"2026-01-23 04:20:00","50369","0.759","251.2","1.7309999999999999","224.5","997.9089","9.98","57.43","NAN","0.0"],
    [1538614,"2026-01-23 04:30:00","50370","0.6859999999999999","228.8","1.339","221.7","997.7731","10.09","57.79","NAN","0.0"],
    [1538615,"2026-01-23 04:40:00","50371","0.736","274.8","1.339","276.7","997.699","9.91","59.71","NAN","0.0"],
    [1538616,"2026-01-23 04:50:00","50372","0.495","246.9","0.98","213.7","997.622","10.15","60.22","NAN","0.0"],
    [1538617,"2026-01-23 05:00:00","50373","0.735","275.6","1.535","282.4","997.5184","10.05","61.34","NAN","0.0"],
    [1538618,"2026-01-23 05:10:00","50374","0.544","247.9","1.143","281.6","997.485","10.34","60.67","NAN","0.0"],
    [1538619,"2026-01-23 05:20:00","50375","0.618","261.4","1.405","259.3","997.4256","10.21","61.59","NAN","0.0"],
    [1538620,"2026-01-23 05:30:00","50376","0.614","267.6","1.2409999999999999","302.1","997.3157","10.34","61.42","NAN","0.0"],
    [1538621,"2026-01-23 05:40:00","50377","0.62","282.0","1.601","283.9","997.1912","10.42","61.34","NAN","0.0"],
    [1538622,"2026-01-23 05:50:00","50378","0.799","273.6","1.666","276.4","997.3097","10.59","60.81","NAN","0.0"],
    [1538623,"2026-01-23 06:00:00","50379","0.71","254.1","1.797","264.7","997.0641","10.35","61.28","NAN","0.0"],
    [1538624,"2026-01-23 06:10:00","50380","0.355","245.3","1.143","275.7","997.0049","10.12","62.41","NAN","0.0"],
    [1538625,"2026-01-23 06:20:00","50381","0.679","282.3","1.764","290.3","996.8477","10.33","61.35","NAN","0.0"],
    [1538626,"2026-01-23 06:30:00","50382","0.758","285.7","1.666","289.3","996.6305","10.75","58.58","NAN","0.0"],
    [1538627,"2026-01-23 06:40:00","50383","0.725","277.2","1.764","304.7","996.5318","10.9","57.96","NAN","0.0"],
    [1538628,"2026-01-23 06:50:00","50384","0.502","235.3","1.5030000000000001","259.9","996.5037","10.44","60.47","NAN","0.0"],
    [1538629,"2026-01-23 07:00:00","50385","0.6940000000000001","229.7","1.5030000000000001","237.5","996.5978","10.24","62.34","NAN","0.0"],
    [1538630,"2026-01-23 07:10:00","50386","1.109","226.9","2.417","238.0","996.9076","10.35","61.41","NAN","0.0"],
    [1538631,"2026-01-23 07:20:00","50387","0.83","240.6","2.221","247.6","997.1844","10.32","60.8","NAN","0.0"],
    [1538632,"2026-01-23 07:30:00","50388","0.731","244.0","2.189","243.9","997.2463","10.06","62.19","NAN","0.0"],
    [1538633,"2026-01-23 07:40:00","50389","0.679","242.1","1.5030000000000001","234.1","997.2524","9.47","66.28","NAN","0.0"],
    [1538634,"2026-01-23 07:50:00","50390","0.754","263.6","1.568","303.3","997.1229","10.08","64.5","NAN","0.0"],
    [1538635,"2026-01-23 08:00:00","50391","0.679","236.4","1.7309999999999999","263.1","997.1487","10.87","61.97","NAN","0.0"],
    [1538636,"2026-01-23 08:10:00","50392","0.5529999999999999","219.5","1.274","227.0","997.1589","11.09","61.88","NAN","0.0"],
    [1538637,"2026-01-23 08:20:00","50393","0.562","234.4","1.5030000000000001","242.8","997.1951","11.37","61.47","NAN","0.0"],
    [1538638,"2026-01-23 08:30:00","50394","0.7040000000000001","224.8","1.633","232.9","997.3153","11.63","59.46","NAN","0.0"],
    [1538639,"2026-01-23 08:40:00","50395","0.633","187.1","1.143","177.4","997.1183","11.62","60.3","NAN","0.0"],
    [1538640,"2026-01-23 08:50:00","50396","0.42","165.1","1.045","172.6","997.0346","12.36","57.63","NAN","0.0"],
    [1538641,"2026-01-23 09:00:00","50397","0.46799999999999997","213.5","1.176","284.6","996.9989999999999","13.07","55.17","NAN","0.0"],
    [1538642,"2026-01-23 09:10:00","50398","0.927","286.2","2.6460000000000004","297.2","996.8994","13.28","55.28","NAN","0.0"],
    [1538643,"2026-01-23 09:20:00","50399","1.399","245.8","4.149","245.1","996.7899","13.55","54.87","NAN","0.0"],
    [1538644,"2026-01-23 09:30:00","50400","1.3980000000000001","244.7","3.5610000000000004","239.6","996.8226","13.63","54.74","NAN","0.0"],
    [1538645,"2026-01-23 09:40:00","50401","1.517","245.8","3.887","310.0","996.7849","13.62","54.78","NAN","0.0"],
    [1538646,"2026-01-23 09:50:00","50402","1.6909999999999998","245.4","4.149","259.4","996.7726","13.69","55.14","NAN","0.0"],
    [1538647,"2026-01-23 10:00:00","50403","1.715","243.7","3.397","233.8","996.7803","13.74","54.73","NAN","0.0"],
    [1538648,"2026-01-23 10:10:00","50404","1.272","236.8","2.45","202.5","996.8847","14.13","53.32","NAN","0.0"],
    [1538649,"2026-01-23 10:20:00","50405","1.3630000000000002","236.2","3.7569999999999997","238.3","996.9169","14.48","51.53","NAN","0.0"],
    [1538650,"2026-01-23 10:30:00","50406","1.3230000000000002","235.3","3.1689999999999996","242.2","996.8025","14.55","50.58","NAN","0.0"],
    [1538651,"2026-01-23 10:40:00","50407","1.092","218.8","2.842","226.2","996.7655","15.02","48.96","NAN","0.0"],
    [1538652,"2026-01-23 10:50:00","50408","1.089","213.9","3.365","196.0","996.7689999999999","15.26","48.56","NAN","0.0"],
    [1538653,"2026-01-23 11:00:00","50409","1.276","207.9","2.7769999999999997","215.4","996.743","15.21","48.18","NAN","0.0"],
    [1538654,"2026-01-23 11:10:00","50410","1.4680000000000002","225.9","2.7769999999999997","220.0","996.7177","15.48","46.1","NAN","0.0"],
    [1538655,"2026-01-23 11:20:00","50411","1.28","228.3","3.0380000000000003","225.9","996.6639","15.3","45.82","NAN","0.0"],
    [1538656,"2026-01-23 11:30:00","50412","1.4909999999999999","209.3","3.0380000000000003","223.7","996.5848","15.17","47.19","NAN","0.0"],
    [1538657,"2026-01-23 11:40:00","50413","1.268","218.3","3.299","221.6","996.4911","15.08","47.5","NAN","0.0"],
    [1538658,"2026-01-23 11:50:00","50414","1.194","214.2","2.6460000000000004","242.7","996.3707","15.16","48.58","NAN","0.0"],
    [1538659,"2026-01-23 12:00:00","50415","1.365","229.5","2.613","220.0","996.2677","14.86","49.71","NAN","0.0"],
    [1538660,"2026-01-23 12:10:00","50416","1.75","221.6","3.5610000000000004","220.2","996.2579","14.59","53.7","NAN","0.0"],
    [1538661,"2026-01-23 12:20:00","50417","1.484","217.3","3.332","200.3","996.3557","14.83","54.6","NAN","0.0"],
    [1538662,"2026-01-23 12:30:00","50418","1.766","215.0","3.463","236.3","996.3645","14.87","53.6","NAN","0.0"],
    [1538663,"2026-01-23 12:40:00","50419","1.663","230.4","3.593","244.6","996.3926","15.05","53.52","NAN","0.0"],
    [1538664,"2026-01-23 12:50:00","50420","1.5819999999999999","291.8","4.867","313.4","996.2921","16.07","45.17","NAN","0.0"],
    [1538665,"2026-01-23 13:00:00","50421","1.719","310.3","5.422999999999999","332.1","996.2811","15.89","42.54","NAN","0.0"],
    [1538666,"2026-01-23 13:10:00","50422","1.476","284.0","4.377","291.9","996.2447","15.34","43.91","NAN","0.0"],
    [1538667,"2026-01-23 13:20:00","50423","1.786","305.1","4.704","321.1","996.1502","15.18","44.12","NAN","0.0"],
    [1538668,"2026-01-23 13:30:00","50424","1.192","304.2","4.279","336.6","995.9578","15.18","43.14","NAN","0.0"],
    [1538669,"2026-01-23 13:40:00","50425","1.915","257.9","6.5329999999999995","327.6","995.8144","15.55","40.75","NAN","0.0"],
    [1538670,"2026-01-23 13:50:00","50426","1.837","287.6","5.7170000000000005","249.4","995.6692","15.84","36.3","NAN","0.0"],
    [1538671,"2026-01-23 14:00:00","50427","1.983","264.7","6.827000000000001","254.7","995.6108","15.87","35.91","NAN","0.0"],
    [1538672,"2026-01-23 14:10:00","50428","2.053","280.5","5.096","290.3","995.6542","16.01","35.72","NAN","0.0"],
    [1538673,"2026-01-23 14:20:00","50429","2.033","259.7","5.4879999999999995","296.1","995.6232","16.05","35.91","NAN","0.0"],
    [1538674,"2026-01-23 14:30:00","50430","2.046","267.1","4.998","280.0","995.7595","16","35.98","NAN","0.0"],
    [1538675,"2026-01-23 14:40:00","50431","3.0439999999999996","248.0","6.011","261.0","995.8943","15.94","35.26","NAN","0.0"],
    [1538676,"2026-01-23 14:50:00","50432","2.806","259.6","6.729","253.1","996.0471","15.92","33.6","NAN","0.0"],
    [1538677,"2026-01-23 15:00:00","50433","1.999","264.9","6.207000000000001","278.7","996.2104","15.89","34.06","NAN","0.0"],
    [1538678,"2026-01-23 15:10:00","50434","2.8710000000000004","254.8","9.7","252.2","996.3047","15.85","33.04","NAN","0.0"],
    [1538679,"2026-01-23 15:20:00","50435","2.109","235.9","6.827000000000001","220.7","996.3282","15.64","32.92","NAN","0.0"],
    [1538680,"2026-01-23 15:30:00","50436","1.5330000000000001","249.7","3.659","242.3","996.3887","15.51","32.97","NAN","0.0"],
    [1538681,"2026-01-23 15:40:00","50437","2.469","247.3","5.325","246.9","996.3915","15.27","32.47","NAN","0.0"],
    [1538682,"2026-01-23 15:50:00","50438","1.975","254.4","5.325","217.8","996.5159","15.12","33.22","NAN","0.0"],
    [1538683,"2026-01-23 16:00:00","50439","2.6319999999999997","258.8","7.382999999999999","250.4","996.6453","15","33.47","NAN","0.0"],
    [1538684,"2026-01-23 16:10:00","50440","2.1390000000000002","252.1","5.651","241.4","996.7202","14.9","34.12","NAN","0.0"],
    [1538685,"2026-01-23 16:20:00","50441","2.36","250.5","6.37","257.0","996.7723","14.67","35.12","NAN","0.0"],
    [1538686,"2026-01-23 16:30:00","50442","1.7009999999999998","251.8","4.9","259.9","996.7646","14.41","36.91","NAN","0.0"],
    [1538687,"2026-01-23 16:40:00","50443","1.169","250.3","3.267","297.4","996.7625","14.19","38.31","NAN","0.0"],
    [1538688,"2026-01-23 16:50:00","50444","0.93","243.2","2.352","214.8","996.7123","13.93","39.23","NAN","0.0"],
    [1538689,"2026-01-23 17:00:00","50445","1.0759999999999998","258.1","2.8089999999999997","244.3","996.7704","13.71","40.21","NAN","0.0"],
    [1538690,"2026-01-23 17:10:00","50446","1.584","259.1","3.659","333.8","997.1313","13.68","40.46","NAN","0.0"],
    [1538691,"2026-01-23 17:20:00","50447","1.409","256.8","3.9530000000000003","242.7","997.3752","13.58","41.39","NAN","0.0"],
    [1538692,"2026-01-23 17:30:00","50448","1.256","260.4","4.149","283.7","997.4699","13.49","42.2","NAN","0.0"],
    [1538693,"2026-01-23 17:40:00","50449","1.305","247.9","3.463","232.9","997.5671","13.41","43.11","NAN","0.0"],
    [1538694,"2026-01-23 17:50:00","50450","1.494","241.7","3.103","224.7","997.5749","13.2","43.89","NAN","0.0"],
    [1538695,"2026-01-23 18:00:00","50451","1.21","243.6","2.9730000000000003","240.1","997.4457","13","44.54","NAN","0.0"],
    [1538696,"2026-01-23 18:10:00","50452","1.121","252.0","2.45","245.4","997.5015","12.93","45.03","NAN","0.0"],
    [1538697,"2026-01-23 18:20:00","50453","1.2009999999999998","227.5","2.613","237.7","997.6551","12.86","44.87","NAN","0.0"],
    [1538698,"2026-01-23 18:30:00","50454","1.361","208.7","2.123","216.5","997.8438","12.46","46.18","NAN","0.0"],
    [1538699,"2026-01-23 18:40:00","50455","1.054","235.2","2.483","247.2","998.1519999999999","12.45","45.8","NAN","0.0"],
    [1538700,"2026-01-23 18:50:00","50456","1.199","241.3","2.5810000000000004","267.9","998.2373","12.61","45.68","NAN","0.0"],
    [1538701,"2026-01-23 19:00:00","50457","0.757","240.0","2.025","241.2","998.3194","12.59","46.47","NAN","0.0"],
    [1538702,"2026-01-23 19:10:00","50458","1.061","238.8","2.7110000000000003","242.8","998.3293","12.52","46.95","NAN","0.0"],
    [1538703,"2026-01-23 19:20:00","50459","0.753","295.4","2.189","284.0","998.1819","12.52","46.99","NAN","0.0"],
    [1538704,"2026-01-23 19:30:00","50460","1.347","329.2","3.5610000000000004","325.9","998.0525","12.77","45.78","NAN","0.0"],
    [1538705,"2026-01-23 19:40:00","50461","1.5119999999999998","342.2","3.528","302.6","997.7683","12.87","45.02","NAN","0.0"],
    [1538706,"2026-01-23 19:50:00","50462","1.16","336.6","2.483","321.0","997.6067","12.85","44.95","NAN","0.0"],
    [1538707,"2026-01-23 20:00:00","50463","0.624","344.4","2.548","329.1","997.4096","12.64","45.54","NAN","0.0"],
    [1538708,"2026-01-23 20:10:00","50464","0.846","340.0","2.515","322.4","997.3104","12.51","45.49","NAN","0.0"],
    [1538709,"2026-01-23 20:20:00","50465","1.016","13.3","2.7110000000000003","313.5","997.3179","12.45","45.47","NAN","0.0"],
    [1538710,"2026-01-23 20:30:00","50466","0.88","14.31","2.7110000000000003","10.62","997.3803","11.86","48.45","NAN","0.0"],
    [1538711,"2026-01-23 20:40:00","50467","0.899","331.4","2.319","344.5","997.455","11.92","47.4","NAN","0.0"],
    [1538712,"2026-01-23 20:50:00","50468","0.8440000000000001","295.1","1.7309999999999999","268.7","997.4935","11.93","46.65","NAN","0.0"],
    [1538713,"2026-01-23 21:00:00","50469","1.05","318.8","2.483","305.1","997.6222","12","46.59","NAN","0.0"],
    [1538714,"2026-01-23 21:10:00","50470","1.0979999999999999","327.0","2.025","314.5","997.6915","12.14","45.26","NAN","0.0"],
    [1538715,"2026-01-23 21:20:00","50471","0.9279999999999999","320.3","2.221","299.3","997.6992","12.11","43.5","NAN","0.0"],
    [1538716,"2026-01-23 21:30:00","50472","0.5329999999999999","16.67","1.339","6.751","997.5246","11.85","44.22","NAN","0.0"],
    [1538717,"2026-01-23 21:40:00","50473","0.509","160.1","1.7309999999999999","150.7","997.5859","11.47","45.76","NAN","0.0"],
    [1538718,"2026-01-23 21:50:00","50474","0.9129999999999999","180.5","1.7309999999999999","150.7","997.8138","11.43","48.59","NAN","0.0"],
    [1538719,"2026-01-23 22:00:00","50475","0.98","206.6","2.45","181.2","997.7292","10.97","53.2","NAN","0.0"],
    [1538720,"2026-01-23 22:10:00","50476","0.5770000000000001","213.1","1.568","190.0","997.7229","10.76","50.86","NAN","0.0"],
    [1538721,"2026-01-23 22:20:00","50477","0.645","229.9","1.895","254.7","997.7174","10.64","53.09","NAN","0.0"],
    [1538722,"2026-01-23 22:30:00","50478","1.0070000000000001","268.9","2.287","280.9","997.5323","10.96","49.96","NAN","0.0"],
    [1538723,"2026-01-23 22:40:00","50479","0.8079999999999999","290.6","2.254","289.1","997.4662","10.84","51.82","NAN","0.0"],
    [1538724,"2026-01-23 22:50:00","50480","0.556","268.1","1.8619999999999999","238.0","997.4462","10.84","53.04","NAN","0.0"],
    [1538725,"2026-01-23 23:00:00","50481","0.488","229.1","1.699","239.2","997.5010000000001","10.73","53.44","NAN","0.0"],
    [1538726,"2026-01-23 23:10:00","50482","0.613","186.2","1.078","208.7","997.5671","10.74","53.02","NAN","0.0"],
    [1538727,"2026-01-23 23:20:00","50483","0.22899999999999998","305.6","1.078","286.6","997.4224","10.83","51.94","NAN","0.0"],
    [1538728,"2026-01-23 23:30:00","50484","0.114","60.15","0.6859999999999999","101.8","997.3369","10.81","51","NAN","0.0"],
    [1538729,"2026-01-23 23:40:00","50485","0.46299999999999997","37.4","1.111","56.43","997.3414","10.93","52.07","NAN","0.0"],
    [1538730,"2026-01-23 23:50:00","50486","0.649","14.79","1.2409999999999999","30.51","997.2181","10.9","52.38","NAN","0.0"],
    [1538731,"2026-01-24 00:00:00","50487","0.38299999999999995","14.47","1.111","346.3","997.166","11.05","51.86","NAN","0.0"],
    [1538732,"2026-01-24 00:10:00","50488","0.494","2.333","1.568","353.3","997.0925","11.05","52.18","NAN","0.0"],
    [1538733,"2026-01-24 00:20:00","50489","0.929","23.75","2.548","31.82","996.8831","10.87","53.04","NAN","0.0"],
    [1538734,"2026-01-24 00:30:00","50490","1.216","23.56","2.515","38.3","996.5034","10.8","52.72","NAN","0.0"],
    [1538735,"2026-01-24 00:40:00","50491","0.92","5.975","1.7309999999999999","352.6","996.5582","10.78","52.42","NAN","0.0"],
    [1538736,"2026-01-24 00:50:00","50492","0.863","14.45","2.287","13.57","996.4305","10.83","53.05","NAN","0.0"],
    [1538737,"2026-01-24 01:00:00","50493","1.018","22.7","2.189","28.77","996.1171","10.61","54.33","NAN","0.0"],
    [1538738,"2026-01-24 01:10:00","50494","1.249","9.33","2.156","7.162000000000001","996.11","10.56","55.23","NAN","0.0"],
    [1538739,"2026-01-24 01:20:00","50495","0.8440000000000001","12.25","2.221","20.34","996.207","10.7","55.17","NAN","0.0"],
    [1538740,"2026-01-24 01:30:00","50496","1.325","5.24","2.5810000000000004","7.754","996.1399","10.63","55.39","NAN","0.0"],
    [1538741,"2026-01-24 01:40:00","50497","1.411","19.25","2.842","12.98","995.9053","10.67","55.39","NAN","0.0"],
    [1538742,"2026-01-24 01:50:00","50498","1.466","7.481","2.842","11.29","995.8162","10.7","55.17","NAN","0.0"],
    [1538743,"2026-01-24 02:00:00","50499","0.649","355.1","1.568","26.17","995.9266","10.82","54.87","NAN","0.0"],
    [1538744,"2026-01-24 02:10:00","50500","0.337","340.0","1.274","33.68","995.862","10.78","55.64","NAN","0.0"],
    [1538745,"2026-01-24 02:20:00","50501","0.522","2.3609999999999998","0.9470000000000001","354.3","995.7974","10.77","55.93","NAN","0.0"],
    [1538746,"2026-01-24 02:30:00","50502","0.48","12.4","1.764","2.051","995.6884","10.74","56.5","NAN","0.0"],
    [1538747,"2026-01-24 02:40:00","50503","1.163","1.178","1.96","359.3","995.4769","10.82","55.74","NAN","0.0"],
    [1538748,"2026-01-24 02:50:00","50504","0.728","2.245","1.797","349.3","995.3797","10.97","55.94","NAN","0.0"],
    [1538749,"2026-01-24 03:00:00","50505","0.294","357.5","1.209","4.598","995.2925","10.88","56.78","NAN","0.0"],
    [1538750,"2026-01-24 03:10:00","50506","0.588","6.3260000000000005","1.176","3.9739999999999998","995.1354","10.75","57.89","NAN","0.0"],
    [1538751,"2026-01-24 03:20:00","50507","0.335","323.4","0.7509999999999999","12.08","994.9338","10.63","59.5","NAN","0.0"],
    [1538752,"2026-01-24 03:30:00","50508","0.38299999999999995","322.4","1.47","302.8","994.7744","10.86","59.71","NAN","0.0"],
    [1538753,"2026-01-24 03:40:00","50509","0.5710000000000001","333.6","1.568","242.5","994.6199","11.11","60.15","NAN","0.0"],
    [1538754,"2026-01-24 03:50:00","50510","1.9709999999999999","242.3","6.501","277.0","994.6376","11.66","62.15","NAN","0.0"],
    [1538755,"2026-01-24 04:00:00","50511","1.757","242.8","4.41","263.4","994.5126","11.46","63.65","NAN","0.0"],
    [1538756,"2026-01-24 04:10:00","50512","1.0759999999999998","275.1","3.299","291.8","993.9766","11.27","64.31","NAN","0.0"],
    [1538757,"2026-01-24 04:20:00","50513","0.732","321.2","1.993","348.4","993.7929","11.19","65.18","NAN","0.0"],
    [1538758,"2026-01-24 04:30:00","50514","0.37200000000000005","332.8","1.2409999999999999","336.7","993.8132","11.2","65.22","NAN","0.0"],
    [1538759,"2026-01-24 04:40:00","50515","0.28","262.1","1.4369999999999998","276.5","994.0351","11.14","64.67","NAN","0.0"],
    [1538760,"2026-01-24 04:50:00","50516","0.295","347.5","1.176","310.1","993.9222","11.19","64.2","NAN","0.0"],
    [1538761,"2026-01-24 05:00:00","50517","1.104","37.78","2.123","41.57","993.8427","10.83","66.24","NAN","0.0"],
    [1538762,"2026-01-24 05:10:00","50518","0.9570000000000001","10.75","1.895","26.39","993.5385","10.14","69.03","NAN","0.0"],
    [1538763,"2026-01-24 05:20:00","50519","0.861","6.193","2.123","8.76","993.4939999999999","10.04","69.7","NAN","0.0"],
    [1538764,"2026-01-24 05:30:00","50520","0.968","35.45","2.0580000000000003","43.5","993.3447","10.01","70.09","NAN","0.0"],
    [1538765,"2026-01-24 05:40:00","50521","0.742","36.82","1.895","47.39","993.3023","9.88","70.31","NAN","0.0"],
    [1538766,"2026-01-24 05:50:00","50522","0.792","131.3","2.156","116.1","993.4298","9.86","70.6","NAN","0.0"],
    [1538767,"2026-01-24 06:00:00","50523","1.4080000000000001","106.7","2.5810000000000004","96.8","993.4889999999999","9.95","71.35","NAN","0.3"],
    [1538768,"2026-01-24 06:10:00","50524","1.063","66.56","1.96","103.3","993.3066","9.53","75.96","NAN","0.6"],
    [1538769,"2026-01-24 06:20:00","50525","1.038","14.5","2.189","58.62","993.0507","8.92","83.8","NAN","0.5"],
    [1538770,"2026-01-24 06:30:00","50526","0.247","319.8","1.111","331.2","993.3669","8.76","85.3","NAN","0.2"],
    [1538771,"2026-01-24 06:40:00","50527","0.444","218.2","1.013","205.4","993.71","8.7","88.3","NAN","0.7"],
    [1538772,"2026-01-24 06:50:00","50528","1.4980000000000002","2.8930000000000002","2.8089999999999997","10.74","993.1917","8.67","90.9","NAN","1.1"],
    [1538773,"2026-01-24 07:00:00","50529","0.789","48.13","2.221","27.69","993.0603","8.66","92.5","NAN","0.1"],
    [1538774,"2026-01-24 07:10:00","50530","0.483","10.34","1.045","347.1","993.1165","8.62","93.1","NAN","0.1"],
    [1538775,"2026-01-24 07:20:00","50531","0.727","6.93","1.699","24.34","992.9125","8.73","93.2","NAN","0.1"],
    [1538776,"2026-01-24 07:30:00","50532","0.718","347.4","1.666","316.9","992.7974","8.86","93.3","NAN","0.2"],
    [1538777,"2026-01-24 07:40:00","50533","0.5710000000000001","292.0","1.3719999999999999","299.7","992.8405","9.06","93.4","NAN","0.8"],
    [1538778,"2026-01-24 07:50:00","50534","0.455","181.9","0.98","176.0","993.0226","9.06","94.2","NAN","0.9"],
    [1538779,"2026-01-24 08:00:00","50535","0.386","344.0","1.568","313.0","992.9191","8.94","95.6","NAN","1.2"],
    [1538780,"2026-01-24 08:10:00","50536","0.89","4.489","2.156","37.69","992.9152","8.79","95.6","NAN","0.6"],
    [1538781,"2026-01-24 08:20:00","50537","1.0270000000000001","14.45","2.45","21.46","992.8618","8.79","94.8","NAN","0.2"],
    [1538782,"2026-01-24 08:30:00","50538","0.858","18.78","1.7309999999999999","14.43","992.8255","8.78","92","NAN","0.0"],
    [1538783,"2026-01-24 08:40:00","50539","1.207","355.0","2.6460000000000004","30.48","992.7572","8.89","90.4","NAN","0.3"],
    [1538784,"2026-01-24 08:50:00","50540","1.3659999999999999","342.6","4.737","318.2","992.6663","8.83","91.1","NAN","0.1"],
    [1538785,"2026-01-24 09:00:00","50541","3.0639999999999996","328.4","5.619","325.2","992.5402","8.58","88.8","NAN","0.0"],
    [1538786,"2026-01-24 09:10:00","50542","2.167","323.7","4.279","301.2","992.1676","8.5","86.4","NAN","0.0"],
    [1538787,"2026-01-24 09:20:00","50543","1.328","326.0","4.737","273.6","992.4329","8.37","86.2","NAN","0.0"],
    [1538788,"2026-01-24 09:30:00","50544","2.3280000000000003","261.6","6.468","250.7","992.9832","8.17","84.6","NAN","0.0"],
    [1538789,"2026-01-24 09:40:00","50545","2.5860000000000003","270.8","6.468","244.3","993.3018","7.842","83.6","NAN","0.0"],
    [1538790,"2026-01-24 09:50:00","50546","2.483","282.7","6.631","279.8","993.4138","7.528","82.8","NAN","0.0"],
    [1538791,"2026-01-24 10:00:00","50547","1.952","275.5","5.88","272.0","993.7104","7.216","83.3","NAN","0.1"],
    [1538792,"2026-01-24 10:10:00","50548","2.026","273.1","6.566","227.4","993.8145","6.732","83","NAN","0.0"],
    [1538793,"2026-01-24 10:20:00","50549","2.2119999999999997","271.4","7.35","301.3","993.775","6.451","81.5","NAN","0.0"],
    [1538794,"2026-01-24 10:30:00","50550","2.952","261.8","8.3","260.5","993.8797","6.431","80.1","NAN","0.0"],
    [1538795,"2026-01-24 10:40:00","50551","3.0239999999999996","257.1","5.912999999999999","298.2","994.0317","6.424","77.58","NAN","0.0"],
    [1538796,"2026-01-24 10:50:00","50552","2.506","264.3","5.815","287.4","994.1188","6.465","76.52","NAN","0.0"],
    [1538797,"2026-01-24 11:00:00","50553","2.58","254.5","8.17","299.9","994.1511","6.455","76.8","NAN","0.0"],
    [1538798,"2026-01-24 11:10:00","50554","2.506","242.1","6.37","230.4","994.3059","6.439","77.49","NAN","0.1"],
    [1538799,"2026-01-24 11:20:00","50555","2.23","230.2","5.651","221.5","994.385","6.307","81.3","NAN","0.0"],
    [1538800,"2026-01-24 11:30:00","50556","1.973","233.6","5.194","229.6","994.2781","6.301","82.5","NAN","0.1"],
    [1538801,"2026-01-24 11:40:00","50557","2.585","230.3","5.815","223.2","994.2332","6.274","83.8","NAN","0.2"],
    [1538802,"2026-01-24 11:50:00","50558","2.234","231.4","5.357","250.9","994.2006","6.146","85.3","NAN","0.4"],
    [1538803,"2026-01-24 12:00:00","50559","1.6840000000000002","232.7","3.887","251.9","994.046","6.137","88.4","NAN","0.2"],
    [1538804,"2026-01-24 12:10:00","50560","2.537","237.2","6.109","227.8","993.9019","6.221","87.2","NAN","0.1"],
    [1538805,"2026-01-24 12:20:00","50561","2.3280000000000003","235.7","4.704","231.5","993.8045","6.467","85.9","NAN","0.1"],
    [1538806,"2026-01-24 12:30:00","50562","2.5669999999999997","243.2","6.272","244.5","993.6949","6.664","84","NAN","0.0"],
    [1538807,"2026-01-24 12:40:00","50563","2.6660000000000004","254.3","6.141","240.3","993.7451","6.861","82.2","NAN","0.0"],
    [1538808,"2026-01-24 12:50:00","50564","2.437","258.4","6.109","252.5","993.8822","6.833","81.4","NAN","0.1"],
    [1538809,"2026-01-24 13:00:00","50565","3.508","253.9","9.28","292.9","993.8918","6.488","81.4","NAN","0.1"],
    [1538810,"2026-01-24 13:10:00","50566","2.9819999999999998","258.3","8.49","241.0","993.862","6.337","81.9","NAN","0.1"],
    [1538811,"2026-01-24 13:20:00","50567","2.807","258.8","5.619","293.7","993.8969","6.281","82.3","NAN","0.0"],
    [1538812,"2026-01-24 13:30:00","50568","2.6319999999999997","261.8","7.285","255.0","993.9816","6.114","82.3","NAN","0.1"],
    [1538813,"2026-01-24 13:40:00","50569","2.406","260.8","5.521","249.4","994.0693","5.937","83.8","NAN","0.2"],
    [1538814,"2026-01-24 13:50:00","50570","2.617","270.7","7.154","295.8","994.1387","5.667","85.7","NAN","0.6"],
    [1538815,"2026-01-24 14:00:00","50571","1.889","286.6","5.129","272.8","994.3406","5.422","88.3","NAN","0.4"],
    [1538816,"2026-01-24 14:10:00","50572","1.5430000000000001","298.4","4.508","279.6","994.4552","5.136","88.7","NAN","0.5"],
    [1538817,"2026-01-24 14:20:00","50573","1.5759999999999998","278.8","5.1610000000000005","276.9","994.6149","5.044","89.6","NAN","0.3"],
    [1538818,"2026-01-24 14:30:00","50574","1.874","286.2","5.227","301.2","994.6666","5.135","89.4","NAN","0.2"],
    [1538819,"2026-01-24 14:40:00","50575","1.6369999999999998","303.0","4.9","327.2","994.677","5.435","88.8","NAN","0.4"],
    [1538820,"2026-01-24 14:50:00","50576","1.6880000000000002","313.1","5.357","321.5","994.819","5.694","89.8","NAN","0.6"],
    [1538821,"2026-01-24 15:00:00","50577","1.796","293.5","5.912999999999999","293.6","994.936","5.885","89.4","NAN","0.6"],
    [1538822,"2026-01-24 15:10:00","50578","2.135","283.0","5.553","294.1","995.1030000000001","6.175","86.5","NAN","0.1"],
    [1538823,"2026-01-24 15:20:00","50579","2.242","269.6","6.566","297.0","995.1725","6.447","84.6","NAN","0.3"],
    [1538824,"2026-01-24 15:30:00","50580","2.659","271.1","8.53","294.6","995.2674","6.666","83.2","NAN","0.4"],
    [1538825,"2026-01-24 15:40:00","50581","2.367","259.9","6.109","278.2","995.3621","6.873","81.5","NAN","0.3"],
    [1538826,"2026-01-24 15:50:00","50582","2.766","236.3","5.292000000000001","239.2","995.3669","7.045","80.1","NAN","0.0"],
    [1538827,"2026-01-24 16:00:00","50583","2.521","231.8","5.129","241.4","995.4919","6.887","82.4","NAN","0.0"],
    [1538828,"2026-01-24 16:10:00","50584","0.674","188.4","2.221","213.9","995.8334","6.829","85.1","NAN","0.0"],
    [1538829,"2026-01-24 16:20:00","50585","0.845","157.2","1.699","169.5","996.0996","6.656","87.3","NAN","0.0"],
    [1538830,"2026-01-24 16:30:00","50586","1.508","157.7","2.548","162.6","996.3166","6.709","87.2","NAN","0.0"],
    [1538831,"2026-01-24 16:40:00","50587","1.808","170.3","2.94","170.9","996.4335","6.823","84.8","NAN","0.0"],
    [1538832,"2026-01-24 16:50:00","50588","1.7530000000000001","174.1","3.103","177.2","996.5830000000001","7.122","80.9","NAN","0.0"],
    [1538833,"2026-01-24 17:00:00","50589","1.085","171.4","2.0580000000000003","176.0","996.7375","7.351","79.07","NAN","0.0"],
    [1538834,"2026-01-24 17:10:00","50590","1.0270000000000001","191.7","1.764","172.7","996.867","7.285","81.9","NAN","0.0"],
    [1538835,"2026-01-24 17:20:00","50591","0.855","203.1","1.797","214.4","996.9044","7.122","85.1","NAN","0.0"],
    [1538836,"2026-01-24 17:30:00","50592","0.935","194.7","1.829","206.9","997.0488","7.109","85.8","NAN","0.0"],
    [1538837,"2026-01-24 17:40:00","50593","0.8540000000000001","197.4","1.601","186.6","997.1685","7.257","83.6","NAN","0.0"],
    [1538838,"2026-01-24 17:50:00","50594","0.511","213.3","1.764","205.2","997.2754","7.303","83.8","NAN","0.0"],
    [1538839,"2026-01-24 18:00:00","50595","0.726","213.6","1.2409999999999999","204.1","997.3427","7.282","84.2","NAN","0.0"],
    [1538840,"2026-01-24 18:10:00","50596","1.0270000000000001","214.0","1.666","201.1","997.3977","7.318","83.4","NAN","0.0"],
    [1538841,"2026-01-24 18:20:00","50597","0.9690000000000001","201.9","1.4369999999999998","212.6","997.4025","7.548","80.6","NAN","0.0"],
    [1538842,"2026-01-24 18:30:00","50598","0.589","204.9","1.045","217.7","997.5051","7.618","80.3","NAN","0.0"],
    [1538843,"2026-01-24 18:40:00","50599","0.5539999999999999","193.3","1.078","222.5","997.7017","7.717","79.86","NAN","0.0"],
    [1538844,"2026-01-24 18:50:00","50600","0.473","192.6","1.143","161.9","997.8461","7.828","78.92","NAN","0.0"],
    [1538845,"2026-01-24 19:00:00","50601","0.486","130.2","1.633","174.5","997.9707","7.879","78.99","NAN","0.0"],
    [1538846,"2026-01-24 19:10:00","50602","0.382","11.65","0.98","325.0","998.1003","8.16","77.48","NAN","0.0"],
    [1538847,"2026-01-24 19:20:00","50603","0.45299999999999996","167.9","1.797","195.5","998.2675","8.48","73.44","NAN","0.0"],
    [1538848,"2026-01-24 19:30:00","50604","0.37799999999999995","192.2","1.5030000000000001","197.2","998.3691","8.62","73.56","NAN","0.0"],
    [1538849,"2026-01-24 19:40:00","50605","1.003","222.2","4.638999999999999","217.1","998.4167","8.76","70.02","NAN","0.0"],
    [1538850,"2026-01-24 19:50:00","50606","0.406","163.5","1.176","112.1","998.5221","8.98","69.15","NAN","0.0"],
    [1538851,"2026-01-24 20:00:00","50607","0.804","224.0","1.993","299.0","998.4929","8.99","67.64","NAN","0.0"],
    [1538852,"2026-01-24 20:10:00","50608","0.711","239.4","1.666","214.6","998.4933","9.15","66.06","NAN","0.0"],
    [1538853,"2026-01-24 20:20:00","50609","0.722","232.1","1.829","289.9","998.6451","9.07","65.4","NAN","0.0"],
    [1538854,"2026-01-24 20:30:00","50610","0.899","246.7","1.895","240.8","998.8558","9.26","62.54","NAN","0.0"],
    [1538855,"2026-01-24 20:40:00","50611","0.945","227.0","3.332","296.2","998.9471","9.21","62.61","NAN","0.0"],
    [1538856,"2026-01-24 20:50:00","50612","1.133","244.0","2.94","246.1","999.1073","9.18","61.86","NAN","0.0"],
    [1538857,"2026-01-24 21:00:00","50613","0.718","245.6","2.6460000000000004","254.1","999.1428","9.18","61.69","NAN","0.0"],
    [1538858,"2026-01-24 21:10:00","50614","1.135","221.8","2.8089999999999997","188.2","999.3162","9.1","63.11","NAN","0.0"],
    [1538859,"2026-01-24 21:20:00","50615","0.42","238.7","1.895","217.3","999.4846","8.83","67.77","NAN","0.0"],
    [1538860,"2026-01-24 21:30:00","50616","0.604","219.1","1.078","195.0","999.7058","8.54","68.69","NAN","0.0"],
    [1538861,"2026-01-24 21:40:00","50617","0.41","275.3","1.143","316.9","999.8989","8.75","65.39","NAN","0.0"],
    [1538862,"2026-01-24 21:50:00","50618","0.387","234.0","1.699","225.6","999.9446","8.75","65.06","NAN","0.0"],
    [1538863,"2026-01-24 22:00:00","50619","1.207","249.1","4.965","301.5","999.9924","8.75","63.22","NAN","0.0"],
    [1538864,"2026-01-24 22:10:00","50620","0.958","262.3","3.397","269.3","1000.115","9.01","59.87","NAN","0.0"],
    [1538865,"2026-01-24 22:20:00","50621","1.8880000000000001","278.3","5.2589999999999995","255.5","1000.2260000000001","9.09","58.44","NAN","0.0"],
    [1538866,"2026-01-24 22:30:00","50622","2.105","309.2","4.312","306.1","1000.341","9.24","56.82","NAN","0.0"],
    [1538867,"2026-01-24 22:40:00","50623","1.381","295.8","3.463","281.6","1000.512","9.25","57.12","NAN","0.0"],
    [1538868,"2026-01-24 22:50:00","50624","1.931","273.6","4.933","293.1","1000.5989999999999","9.33","56.37","NAN","0.0"],
    [1538869,"2026-01-24 23:00:00","50625","2.065","275.2","4.41","288.8","1000.61","9.22","57.78","NAN","0.0"],
    [1538870,"2026-01-24 23:10:00","50626","1.466","266.9","3.234","301.3","1000.789","9.18","58.07","NAN","0.0"],
    [1538871,"2026-01-24 23:20:00","50627","1.463","283.7","3.267","299.7","1000.8389999999999","9.13","58.03","NAN","0.0"],
    [1538872,"2026-01-24 23:30:00","50628","1.795","273.7","4.312","239.3","1000.868","9.22","57.13","NAN","0.0"],
    [1538873,"2026-01-24 23:40:00","50629","1.9769999999999999","325.0","4.018","305.9","1000.9069999999999","9.41","55.38","NAN","0.0"],
    [1538874,"2026-01-24 23:50:00","50630","1.3130000000000002","334.2","3.7569999999999997","306.8","1001.056","9.44","55.06","NAN","0.0"],
    [1538875,"2026-01-25 00:00:00","50631","1.18","346.5","2.875","309.5","1001.169","9.3","56.27","NAN","0.0"],
    [1538876,"2026-01-25 00:10:00","50632","1.3419999999999999","335.8","2.7439999999999998","303.6","1001.3530000000001","9.29","56.43","NAN","0.0"],
    [1538877,"2026-01-25 00:20:00","50633","1.569","311.7","4.279","315.0","1001.337","9.12","57.77","NAN","0.0"],
    [1538878,"2026-01-25 00:30:00","50634","1.87","327.4","5.1610000000000005","323.5","1001.335","9.14","58.18","NAN","0.0"],
    [1538879,"2026-01-25 00:40:00","50635","1.955","349.3","3.528","313.5","1001.3430000000001","9.01","59.4","NAN","0.0"],
    [1538880,"2026-01-25 00:50:00","50636","2.0580000000000003","336.4","4.279","325.2","1001.457","8.87","60.44","NAN","0.0"],
    [1538881,"2026-01-25 01:00:00","50637","2.012","317.9","5.063","311.7","1001.758","8.91","59.95","NAN","0.0"],
    [1538882,"2026-01-25 01:10:00","50638","2.7910000000000004","263.2","7.611000000000001","300.2","1001.8710000000001","8.91","60.43","NAN","0.0"],
    [1538883,"2026-01-25 01:20:00","50639","0.94","295.6","2.9730000000000003","8.34","1002.03","8.79","61.38","NAN","0.0"],
    [1538884,"2026-01-25 01:30:00","50640","0.609","113.6","2.385","6.313","1001.9060000000001","8.57","63.18","NAN","0.0"],
    [1538885,"2026-01-25 01:40:00","50641","1.008","109.1","2.613","159.2","1002.04","8.41","64.43","NAN","0.0"],
    [1538886,"2026-01-25 01:50:00","50642","0.9329999999999999","99.1","2.319","121.7","1002.0880000000001","8.39","64.53","NAN","0.0"],
    [1538887,"2026-01-25 02:00:00","50643","1.012","20.43","3.005","342.3","1002.034","8.23","65.79","NAN","0.0"],
    [1538888,"2026-01-25 02:10:00","50644","1.124","342.7","2.254","276.7","1001.935","8.56","64.66","NAN","0.0"],
    [1538889,"2026-01-25 02:20:00","50645","1.692","324.5","4.4430000000000005","289.2","1001.8939999999999","8.65","64.71","NAN","0.0"],
    [1538890,"2026-01-25 02:30:00","50646","2.536","334.4","6.011","320.2","1001.85","8.74","64.61","NAN","0.0"],
    [1538891,"2026-01-25 02:40:00","50647","1.567","345.5","4.312","310.3","1001.905","8.67","65.3","NAN","0.0"],
    [1538892,"2026-01-25 02:50:00","50648","1.784","57.93","4.835","37.56","1002.1139999999999","8.64","65.07","NAN","0.0"],
    [1538893,"2026-01-25 03:00:00","50649","2.101","94.9","4.051","77.73","1002.187","8.68","64.94","NAN","0.0"],
    [1538894,"2026-01-25 03:10:00","50650","1.014","25.38","2.5810000000000004","68.63","1002.4010000000001","8.58","65.22","NAN","0.0"],
    [1538895,"2026-01-25 03:20:00","50651","0.77","17.78","2.483","33.22","1002.471","8.46","65.7","NAN","0.0"],
    [1538896,"2026-01-25 03:30:00","50652","1.285","75.36","4.181","97.8","1002.625","8.42","65.61","NAN","0.0"],
    [1538897,"2026-01-25 03:40:00","50653","1.2990000000000002","11.05","3.5610000000000004","41.92","1002.665","8.49","64.84","NAN","0.0"],
    [1538898,"2026-01-25 03:50:00","50654","0.818","286.8","2.45","313.6","1002.8989999999999","8.56","64.5","NAN","0.0"],
    [1538899,"2026-01-25 04:00:00","50655","1.207","27.27","4.312","5.766","1003.0830000000001","8.46","64.75","NAN","0.0"],
    [1538900,"2026-01-25 04:10:00","50656","1.739","35.37","5.2589999999999995","26.45","1003.1160000000001","8.27","65.61","NAN","0.0"],
    [1538901,"2026-01-25 04:20:00","50657","1.7619999999999998","359.8","3.201","25.48","1003.3","8.11","66.58","NAN","0.0"],
    [1538902,"2026-01-25 04:30:00","50658","1.935","354.5","3.9530000000000003","350.8","1003.342","8.2","66.12","NAN","0.0"],
    [1538903,"2026-01-25 04:40:00","50659","1.617","359.9","4.541","2.0380000000000003","1003.375","7.9","67.59","NAN","0.0"],
    [1538904,"2026-01-25 04:50:00","50660","1.337","356.8","3.0380000000000003","346.5","1003.27","7.703","68.75","NAN","0.0"],
    [1538905,"2026-01-25 05:00:00","50661","0.982","359.0","2.385","33.29","1003.225","7.485","70.18","NAN","0.0"],
    [1538906,"2026-01-25 05:10:00","50662","0.825","20.25","2.221","333.4","1003.347","7.623","69.61","NAN","0.0"],
    [1538907,"2026-01-25 05:20:00","50663","0.966","7.021","3.005","24.08","1003.275","7.541","70.26","NAN","0.0"],
    [1538908,"2026-01-25 05:30:00","50664","0.371","53.58","1.078","358.3","1003.357","7.319","71.4","NAN","0.0"],
    [1538909,"2026-01-25 05:40:00","50665","0.659","61.51","1.633","71.53","1003.377","6.907","74.19","NAN","0.0"],
    [1538910,"2026-01-25 05:50:00","50666","0.573","41.74","1.568","66.98","1003.32","6.633","74.9","NAN","0.0"],
    [1538911,"2026-01-25 06:00:00","50667","0.887","2.144","3.201","40.59","1003.367","6.875","74.01","NAN","0.0"],
    [1538912,"2026-01-25 06:10:00","50668","1.4040000000000001","359.9","2.7110000000000003","7.936","1003.36","7.376","70.44","NAN","0.0"],
    [1538913,"2026-01-25 06:20:00","50669","1.246","0.833","2.483","358.2","1003.3969999999999","7.663","68.67","NAN","0.0"],
    [1538914,"2026-01-25 06:30:00","50670","0.743","12.28","1.339","31.84","1003.55","7.327","70.17","NAN","0.0"],
    [1538915,"2026-01-25 06:40:00","50671","2.24","157.5","5.978","172.1","1003.878","7.553","70.41","NAN","0.0"],
    [1538916,"2026-01-25 06:50:00","50672","1.236","247.7","2.385","346.3","1003.98","7.377","72.46","NAN","0.0"],
    [1538917,"2026-01-25 07:00:00","50673","1.49","325.7","3.234","309.9","1003.73","8.26","65.69","NAN","0.0"],
    [1538918,"2026-01-25 07:10:00","50674","1.082","305.7","4.312","10.93","1003.637","8.43","64.37","NAN","0.0"],
    [1538919,"2026-01-25 07:20:00","50675","0.718","217.9","1.8619999999999999","202.2","1003.961","7.985","67.39","NAN","0.0"],
    [1538920,"2026-01-25 07:30:00","50676","1.8330000000000002","294.6","5.227","316.0","1003.867","8.19","66.03","NAN","0.0"],
    [1538921,"2026-01-25 07:40:00","50677","1.966","309.7","4.083","338.5","1003.559","8.62","63.63","NAN","0.0"],
    [1538922,"2026-01-25 07:50:00","50678","0.775","275.7","2.842","292.6","1003.811","8.63","63.81","NAN","0.0"],
    [1538923,"2026-01-25 08:00:00","50679","1.2790000000000001","271.8","4.247","303.1","1003.8710000000001","8.85","61.52","NAN","0.0"],
    [1538924,"2026-01-25 08:10:00","50680","1.581","235.1","4.2139999999999995","240.5","1003.823","9.23","58.76","NAN","0.0"],
    [1538925,"2026-01-25 08:20:00","50681","2.085","258.3","5.4879999999999995","255.7","1003.773","9.31","58.06","NAN","0.0"],
    [1538926,"2026-01-25 08:30:00","50682","2.085","248.2","5.455","227.6","1003.821","9.33","57.98","NAN","0.0"],
    [1538927,"2026-01-25 08:40:00","50683","2.56","256.1","6.729","249.7","1003.831","9.5","57.11","NAN","0.0"],
    [1538928,"2026-01-25 08:50:00","50684","1.8769999999999998","254.8","4.737","250.9","1003.929","9.58","56.81","NAN","0.0"],
    [1538929,"2026-01-25 09:00:00","50685","1.8869999999999998","258.3","4.573","300.5","1003.842","9.77","56.1","NAN","0.0"],
    [1538930,"2026-01-25 09:10:00","50686","2.593","254.5","6.957999999999999","276.6","1003.7","9.89","55.55","NAN","0.0"],
    [1538931,"2026-01-25 09:20:00","50687","2.1319999999999997","238.0","5.357","255.1","1003.735","9.96","55.98","NAN","0.0"],
    [1538932,"2026-01-25 09:30:00","50688","3.1439999999999997","239.2","8.49","236.0","1003.9169999999999","10.31","54.17","NAN","0.0"],
    [1538933,"2026-01-25 09:40:00","50689","2.036","237.6","5.39","242.6","1003.882","10.32","54.5","NAN","0.0"],
    [1538934,"2026-01-25 09:50:00","50690","2.301","251.4","5.553","295.6","1003.811","10.55","53.89","NAN","0.0"],
    [1538935,"2026-01-25 10:00:00","50691","2.204","267.0","4.802","278.7","1003.687","11.01","52.09","NAN","0.0"],
    [1538936,"2026-01-25 10:10:00","50692","2.459","268.1","5.88","268.0","1003.704","11.63","50.22","NAN","0.0"],
    [1538937,"2026-01-25 10:20:00","50693","2.333","254.6","7.742000000000001","286.5","1003.8910000000001","11.74","49.68","NAN","0.0"],
    [1538938,"2026-01-25 10:30:00","50694","2.494","274.1","6.042999999999999","266.4","1003.689","11.48","50.64","NAN","0.0"],
    [1538939,"2026-01-25 10:40:00","50695","2.575","277.0","6.042999999999999","283.7","1003.704","11.8","50.4","NAN","0.0"],
    [1538940,"2026-01-25 10:50:00","50696","2.042","260.9","4.671","298.4","1003.679","12.14","49.94","NAN","0.0"],
    [1538941,"2026-01-25 11:00:00","50697","2.004","266.0","5.063","262.1","1003.393","12.29","49.82","NAN","0.0"],
    [1538942,"2026-01-25 11:10:00","50698","1.9380000000000002","272.9","6.37","266.9","1003.2360000000001","12.77","48.91","NAN","0.0"],
    [1538943,"2026-01-25 11:20:00","50699","2.612","260.7","6.566","312.7","1003.1260000000001","12.97","48.08","NAN","0.0"],
    [1538944,"2026-01-25 11:30:00","50700","2.261","262.1","7.382999999999999","257.0","1002.857","13.18","47.25","NAN","0.0"],
    [1538945,"2026-01-25 11:40:00","50701","2.311","263.2","6.925","259.9","1002.84","13.43","46.92","NAN","0.0"],
    [1538946,"2026-01-25 11:50:00","50702","2.833","261.4","7.709","285.7","1002.72","13.5","46.38","NAN","0.0"],
    [1538947,"2026-01-25 12:00:00","50703","3.157","273.2","6.337000000000001","236.2","1002.311","13.5","45.79","NAN","0.0"],
    [1538948,"2026-01-25 12:10:00","50704","2.391","263.8","5.2589999999999995","280.5","1002.257","13.73","45.65","NAN","0.0"],
    [1538949,"2026-01-25 12:20:00","50705","2.371","254.3","6.0760000000000005","268.3","1002.118","14.06","45.08","NAN","0.0"],
    [1538950,"2026-01-25 12:30:00","50706","3.05","265.8","8.89","300.2","1002.257","13.8","45.03","NAN","0.0"],
    [1538951,"2026-01-25 12:40:00","50707","2.7889999999999997","273.9","8.26","265.9","1002.1519999999999","13.8","45.6","NAN","0.0"],
    [1538952,"2026-01-25 12:50:00","50708","2.331","278.2","5.651","286.8","1001.988","13.91","45.78","NAN","0.0"],
    [1538953,"2026-01-25 13:00:00","50709","1.317","268.7","4.704","262.5","1001.7860000000001","14.27","45.18","NAN","0.0"],
    [1538954,"2026-01-25 13:10:00","50710","1.7890000000000001","272.3","4.541","241.8","1001.315","14.37","44.42","NAN","0.0"],
    [1538955,"2026-01-25 13:20:00","50711","2.963","255.4","6.435","242.5","1001.181","14.63","43.05","NAN","0.0"],
    [1538956,"2026-01-25 13:30:00","50712","2.839","278.8","6.5329999999999995","339.5","1001.1289999999999","14.37","43.86","NAN","0.0"],
    [1538957,"2026-01-25 13:40:00","50713","2.291","279.4","5.684","254.9","1001.02","14.47","43.89","NAN","0.0"],
    [1538958,"2026-01-25 13:50:00","50714","2.596","265.1","6.305","274.1","1000.8810000000001","14.53","43.53","NAN","0.0"],
    [1538959,"2026-01-25 14:00:00","50715","2.9139999999999997","273.6","7.415","272.5","1000.697","14.53","43.44","NAN","0.0"],
    [1538960,"2026-01-25 14:10:00","50716","2.306","259.9","5.325","311.1","1000.4760000000001","14.79","43.14","NAN","0.0"],
    [1538961,"2026-01-25 14:20:00","50717","2.388","262.5","5.619","278.4","1000.2660000000001","15.01","42.91","NAN","0.0"],
    [1538962,"2026-01-25 14:30:00","50718","3.112","258.7","10.19","248.4","1000.1610000000001","15.01","42.58","NAN","0.0"],
    [1538963,"2026-01-25 14:40:00","50719","2.617","252.0","6.7620000000000005","257.1","1000.1139999999999","14.8","42.9","NAN","0.0"],
    [1538964,"2026-01-25 14:50:00","50720","2.245","253.3","5.1610000000000005","260.2","1000.034","14.76","43.66","NAN","0.0"],
    [1538965,"2026-01-25 15:00:00","50721","1.6780000000000002","267.8","4.867","296.2","1000.046","14.78","44.04","NAN","0.0"],
    [1538966,"2026-01-25 15:10:00","50722","2.017","278.2","5.325","264.0","1000.02","14.44","45.47","NAN","0.0"],
    [1538967,"2026-01-25 15:20:00","50723","1.911","265.3","4.475","286.6","999.7659","14.33","46.41","NAN","0.0"],
    [1538968,"2026-01-25 15:30:00","50724","1.97","252.1","5.619","264.8","999.7938","14.39","46.55","NAN","0.0"],
    [1538969,"2026-01-25 15:40:00","50725","1.901","252.0","4.835","257.7","999.8107","14.44","46.32","NAN","0.0"],
    [1538970,"2026-01-25 15:50:00","50726","1.406","248.0","3.43","262.9","999.8212","14.5","46.27","NAN","0.0"],
    [1538971,"2026-01-25 16:00:00","50727","1.7109999999999999","232.0","4.41","227.5","999.8257","14.51","45.84","NAN","0.0"],
    [1538972,"2026-01-25 16:10:00","50728","1.328","216.5","3.267","236.3","999.7236","14.19","50.71","NAN","0.0"],
    [1538973,"2026-01-25 16:20:00","50729","1.581","221.2","2.94","202.2","999.4868","13.8","55.25","NAN","0.0"],
    [1538974,"2026-01-25 16:30:00","50730","1.131","225.8","2.417","232.9","999.3375","13.65","56.43","NAN","0.0"],
    [1538975,"2026-01-25 16:40:00","50731","0.67","224.9","2.025","214.0","999.258","13.59","58.39","NAN","0.0"],
    [1538976,"2026-01-25 16:50:00","50732","0.478","214.7","1.111","263.8","999.1702","13.33","61.65","NAN","0.1"],
    [1538977,"2026-01-25 17:00:00","50733","0.385","153.7","1.3719999999999999","137.9","998.9646","13.03","66.69","NAN","0.1"],
    [1538978,"2026-01-25 17:10:00","50734","1.9680000000000002","7.575","7.611000000000001","38.75","999.3762","12.9","65.77","NAN","0.1"],
    [1538979,"2026-01-25 17:20:00","50735","2.392","339.5","6.795","318.2","999.5811","9.81","79.18","NAN","5.3"],
    [1538980,"2026-01-25 17:30:00","50736","1.348","332.6","3.6910000000000003","324.9","999.4938","8.09","96.8","NAN","0.2"],
    [1538981,"2026-01-25 17:40:00","50737","0.322","289.4","2.7439999999999998","207.1","999.2943","8.8","92","NAN","0.0"],
    [1538982,"2026-01-25 17:50:00","50738","0.555","234.9","1.274","269.5","999.4305","8.96","86.6","NAN","0.0"],
    [1538983,"2026-01-25 18:00:00","50739","1.9980000000000002","261.6","7.481","247.7","1000.0310000000001","9.66","80.4","NAN","0.0"],
    [1538984,"2026-01-25 18:10:00","50740","2.978","259.8","7.807","282.8","999.9856","10.28","73.4","NAN","0.2"],
    [1538985,"2026-01-25 18:20:00","50741","1.74","241.7","5.031000000000001","269.8","999.4301","10.03","75.78","NAN","0.0"],
    [1538986,"2026-01-25 18:30:00","50742","0.935","267.5","3.071","284.6","999.4704","9.97","74.45","NAN","0.0"],
    [1538987,"2026-01-25 18:40:00","50743","0.721","264.6","2.319","285.1","999.5625","10.13","72.23","NAN","0.0"],
    [1538988,"2026-01-25 18:50:00","50744","1.204","239.4","2.8089999999999997","202.2","999.6945","10.02","73.52","NAN","0.0"],
    [1538989,"2026-01-25 19:00:00","50745","1.232","221.1","3.234","195.1","999.7344","9.7","77.39","NAN","0.0"],
    [1538990,"2026-01-25 19:10:00","50746","0.9890000000000001","229.5","2.483","207.1","999.7823","9.25","82.7","NAN","0.0"],
    [1538991,"2026-01-25 19:20:00","50747","1.042","217.1","1.797","229.9","999.9792","9.08","82.2","NAN","0.0"],
    [1538992,"2026-01-25 19:30:00","50748","1.2429999999999999","222.1","2.385","234.8","1000.0260000000001","9.17","79.88","NAN","0.0"],
    [1538993,"2026-01-25 19:40:00","50749","0.9790000000000001","229.4","2.5810000000000004","233.4","999.9412","9.33","77.48","NAN","0.0"],
    [1538994,"2026-01-25 19:50:00","50750","0.778","202.8","1.5030000000000001","192.7","999.9089","9.28","77.52","NAN","0.0"],
    [1538995,"2026-01-25 20:00:00","50751","1.024","209.1","3.365","179.1","999.9688","9.21","79.45","NAN","0.0"],
    [1538996,"2026-01-25 20:10:00","50752","1.3559999999999999","221.7","4.1160000000000005","199.4","999.9916","9.82","73.89","NAN","0.0"],
    [1538997,"2026-01-25 20:20:00","50753","0.941","214.3","3.365","245.8","999.993","9.7","74.94","NAN","0.0"],
    [1538998,"2026-01-25 20:30:00","50754","0.218","61.39","1.143","40.22","999.7794","9.3","77.41","NAN","0.0"],
    [1538999,"2026-01-25 20:40:00","50755","0.6990000000000001","280.2","2.6460000000000004","343.9","999.7142","9.44","75.89","NAN","0.0"],
    [1539000,"2026-01-25 20:50:00","50756","1.4709999999999999","274.9","4.606","231.3","999.4281","10.3","68.86","NAN","0.0"],
    [1539001,"2026-01-25 21:00:00","50757","2.077","263.3","4.704","246.0","999.6528","10.52","65.91","NAN","0.0"],
    [1539002,"2026-01-25 21:10:00","50758","1.413","265.1","3.887","285.6","999.7971","10.51","65.25","NAN","0.0"],
    [1539003,"2026-01-25 21:20:00","50759","1.508","291.6","4.671","309.1","1000.1139999999999","10.5","64.06","NAN","0.0"],
    [1539004,"2026-01-25 21:30:00","50760","1.217","291.8","4.051","303.0","1000.393","10.6","62.67","NAN","0.0"],
    [1539005,"2026-01-25 21:40:00","50761","1.636","281.8","4.247","267.0","1000.437","10.44","62.85","NAN","0.0"],
    [1539006,"2026-01-25 21:50:00","50762","1.8559999999999999","300.9","7.742000000000001","330.7","1000.595","10.27","63.57","NAN","0.0"],
    [1539007,"2026-01-25 22:00:00","50763","1.7380000000000002","277.1","4.312","242.3","1000.7339999999999","10.04","64.32","NAN","0.0"],
    [1539008,"2026-01-25 22:10:00","50764","1.995","288.0","4.737","312.9","1000.962","9.92","64.04","NAN","0.0"],
    [1539009,"2026-01-25 22:20:00","50765","2.002","315.1","4.769","311.8","1001.1519999999999","9.83","63.77","NAN","0.0"],
    [1539010,"2026-01-25 22:30:00","50766","1.819","320.1","5.7170000000000005","309.7","1001.388","9.79","62.91","NAN","0.0"],
    [1539011,"2026-01-25 22:40:00","50767","1.679","311.4","5.063","310.0","1001.5360000000001","9.68","62.48","NAN","0.0"],
    [1539012,"2026-01-25 22:50:00","50768","1.6469999999999998","318.2","3.593","293.1","1001.552","9.58","61.65","NAN","0.0"],
    [1539013,"2026-01-25 23:00:00","50769","1.2670000000000001","11.44","4.671","27.35","1001.535","9.59","60.28","NAN","0.0"],
    [1539014,"2026-01-25 23:10:00","50770","0.754","346.6","2.483","200.6","1001.582","9.41","61.11","NAN","0.0"],
    [1539015,"2026-01-25 23:20:00","50771","0.743","260.9","2.875","310.7","1001.778","9.34","60.82","NAN","0.0"],
    [1539016,"2026-01-25 23:30:00","50772","1.047","293.3","2.7769999999999997","236.0","1001.7919999999999","9.33","60.09","NAN","0.0"],
    [1539017,"2026-01-25 23:40:00","50773","1.6469999999999998","11.75","5.912999999999999","305.1","1001.7180000000001","9.43","58.96","NAN","0.0"],
    [1539018,"2026-01-25 23:50:00","50774","2.069","332.7","7.644","308.7","1001.7","9.49","58.63","NAN","0.0"],
    [1539019,"2026-01-26 00:00:00","50775","2.154","308.4","8.66","350.0","1001.52","9.48","58.54","NAN","0.0"],
    [1539020,"2026-01-26 00:10:00","50776","2.424","321.0","5.88","345.6","1001.424","9.49","58.31","NAN","0.0"],
    [1539021,"2026-01-26 00:20:00","50777","2.438","312.3","6.566","315.4","1001.5189999999999","9.5","58.23","NAN","0.0"],
    [1539022,"2026-01-26 00:30:00","50778","0.9590000000000001","301.7","5.88","338.1","1001.69","9.43","58.28","NAN","0.0"],
    [1539023,"2026-01-26 00:40:00","50779","1.32","283.6","4.573","309.8","1001.745","9.38","58.28","NAN","0.0"],
    [1539024,"2026-01-26 00:50:00","50780","1.083","293.1","4.4430000000000005","63.36","1001.965","9.33","58.58","NAN","0.0"],
    [1539025,"2026-01-26 01:00:00","50781","3.057","317.7","9.08","4.698","1001.946","9.75","56.9","NAN","0.0"],
    [1539026,"2026-01-26 01:10:00","50782","1.8719999999999999","258.0","7.4479999999999995","272.8","1001.8689999999999","9.61","58.56","NAN","0.0"],
    [1539027,"2026-01-26 01:20:00","50783","2.8110000000000004","277.7","7.154","292.9","1002.044","9.55","59.54","NAN","0.0"],
    [1539028,"2026-01-26 01:30:00","50784","1.979","282.3","6.5329999999999995","193.9","1002.084","9.44","60.63","NAN","0.0"],
    [1539029,"2026-01-26 01:40:00","50785","1.7409999999999999","290.4","5.455","299.8","1002.1089999999999","9.42","61","NAN","0.0"],
    [1539030,"2026-01-26 01:50:00","50786","2.088","262.4","5.586","277.2","1002.199","9.4","61.44","NAN","0.0"],
    [1539031,"2026-01-26 02:00:00","50787","2.219","237.7","7.154","295.7","1002.335","9.42","61.51","NAN","0.0"],
    [1539032,"2026-01-26 02:10:00","50788","2.279","245.3","8.04","316.7","1002.413","9.34","62.19","NAN","0.0"],
    [1539033,"2026-01-26 02:20:00","50789","1.5719999999999998","252.3","5.553","276.2","1002.393","9.29","62.65","NAN","0.0"],
    [1539034,"2026-01-26 02:30:00","50790","1.7719999999999998","261.4","4.802","200.9","1002.3760000000001","9.35","62.01","NAN","0.0"],
    [1539035,"2026-01-26 02:40:00","50791","1.371","195.9","3.9530000000000003","249.3","1002.413","9.3","62.56","NAN","0.0"],
    [1539036,"2026-01-26 02:50:00","50792","1.121","243.8","3.463","309.0","1002.408","9.17","63.25","NAN","0.0"],
    [1539037,"2026-01-26 03:00:00","50793","1.4809999999999999","263.2","5.422999999999999","336.5","1002.295","9.26","62.49","NAN","0.0"],
    [1539038,"2026-01-26 03:10:00","50794","1.932","282.3","6.957999999999999","300.4","1002.3510000000001","9.3","62.13","NAN","0.0"],
    [1539039,"2026-01-26 03:20:00","50795","1.889","264.5","6.957999999999999","313.1","1002.378","9.31","61.93","NAN","0.0"],
    [1539040,"2026-01-26 03:30:00","50796","2.3480000000000003","310.5","7.872999999999999","324.5","1002.304","9.47","60.74","NAN","0.0"],
    [1539041,"2026-01-26 03:40:00","50797","3.16","318.6","11.14","322.5","1002.313","9.57","60.01","NAN","0.0"],
    [1539042,"2026-01-26 03:50:00","50798","4.518","328.4","10.0","319.7","1002.2080000000001","9.66","59.12","NAN","0.0"],
    [1539043,"2026-01-26 04:00:00","50799","4.36","325.1","12.02","302.1","1002.177","9.68","58.79","NAN","0.0"],
    [1539044,"2026-01-26 04:10:00","50800","4.053","329.4","10.88","328.1","1002.2560000000001","9.76","58.12","NAN","0.0"],
    [1539045,"2026-01-26 04:20:00","50801","3.907","328.8","11.11","340.0","1002.299","9.77","58.13","NAN","0.0"],
    [1539046,"2026-01-26 04:30:00","50802","3.995","323.5","10.71","315.7","1002.3489999999999","9.65","59.6","NAN","0.0"],
    [1539047,"2026-01-26 04:40:00","50803","4.35","324.2","9.9","327.1","1002.2869999999999","9.54","60.73","NAN","0.0"],
    [1539048,"2026-01-26 04:50:00","50804","3.758","313.5","10.88","331.7","1002.316","9.52","61","NAN","0.0"],
    [1539049,"2026-01-26 05:00:00","50805","3.593","320.6","9.6","338.5","1002.553","9.41","61.83","NAN","0.0"],
    [1539050,"2026-01-26 05:10:00","50806","3.1310000000000002","311.6","9.24","295.6","1002.717","9.32","62.39","NAN","0.0"],
    [1539051,"2026-01-26 05:20:00","50807","2.977","325.1","8.1","330.2","1002.813","9.32","62.6","NAN","0.0"],
    [1539052,"2026-01-26 05:30:00","50808","2.924","320.8","8.0","307.0","1003.0930000000001","9.33","62.66","NAN","0.0"],
    [1539053,"2026-01-26 05:40:00","50809","2.7089999999999996","317.2","7.742000000000001","323.8","1003.24","9.3","63","NAN","0.0"],
    [1539054,"2026-01-26 05:50:00","50810","2.9419999999999997","324.5","8.1","312.9","1003.378","9.35","62.54","NAN","0.0"],
    [1539055,"2026-01-26 06:00:00","50811","2.062","323.7","5.2589999999999995","300.9","1003.434","9.29","62.93","NAN","0.0"],
    [1539056,"2026-01-26 06:10:00","50812","2.951","326.1","7.971","347.5","1003.7560000000001","9.36","62.63","NAN","0.0"],
    [1539057,"2026-01-26 06:20:00","50813","3.295","328.6","7.513","307.1","1003.951","9.42","62.21","NAN","0.0"],
    [1539058,"2026-01-26 06:30:00","50814","2.6910000000000003","334.1","6.957999999999999","346.3","1004.1260000000001","9.33","62.56","NAN","0.0"],
    [1539059,"2026-01-26 06:40:00","50815","2.006","336.2","6.272","328.6","1004.432","9.16","63.12","NAN","0.0"],
    [1539060,"2026-01-26 06:50:00","50816","1.829","325.6","5.325","315.0","1004.679","9.1","62.77","NAN","0.0"],
    [1539061,"2026-01-26 07:00:00","50817","1.3630000000000002","322.4","5.749","313.3","1004.921","8.96","63.45","NAN","0.0"],
    [1539062,"2026-01-26 07:10:00","50818","0.812","117.8","3.7889999999999997","329.4","1005.2589999999999","8.86","64.05","NAN","0.0"],
    [1539063,"2026-01-26 07:20:00","50819","0.622","120.7","2.025","116.4","1005.448","8.75","64.63","NAN","0.0"],
    [1539064,"2026-01-26 07:30:00","50820","1.065","248.2","3.005","296.1","1005.622","8.86","64.16","NAN","0.0"],
    [1539065,"2026-01-26 07:40:00","50821","1.115","264.6","3.201","248.9","1005.825","8.91","63.95","NAN","0.0"],
    [1539066,"2026-01-26 07:50:00","50822","1.2209999999999999","289.0","3.267","205.8","1006.007","9.06","63.06","NAN","0.0"],
    [1539067,"2026-01-26 08:00:00","50823","1.121","306.9","2.907","298.7","1006.323","9.15","62.21","NAN","0.0"],
    [1539068,"2026-01-26 08:10:00","50824","0.852","301.5","3.234","315.6","1006.6419999999999","9.15","62.32","NAN","0.0"],
    [1539069,"2026-01-26 08:20:00","50825","0.675","245.2","1.666","308.7","1006.951","9.29","62.82","NAN","0.0"],
    [1539070,"2026-01-26 08:30:00","50826","1.3030000000000002","277.9","5.586","238.4","1007.107","9.63","61.02","NAN","0.0"],
    [1539071,"2026-01-26 08:40:00","50827","1.5719999999999998","296.9","3.463","256.2","1007.074","9.73","60.85","NAN","0.0"],
    [1539072,"2026-01-26 08:50:00","50828","1.215","299.3","2.483","288.5","1007.0319999999999","10.03","60.59","NAN","0.0"],
    [1539073,"2026-01-26 09:00:00","50829","1.96","281.3","4.018","283.3","1006.9630000000001","10.23","59.78","NAN","0.0"],
    [1539074,"2026-01-26 09:10:00","50830","1.271","280.8","3.463","271.2","1007.0310000000001","10.41","59.58","NAN","0.0"],
    [1539075,"2026-01-26 09:20:00","50831","0.909","302.5","3.5610000000000004","291.2","1007.0989999999999","10.71","58.67","NAN","0.0"],
    [1539076,"2026-01-26 09:30:00","50832","1.002","318.9","2.385","317.8","1007.102","10.55","59.07","NAN","0.0"],
    [1539077,"2026-01-26 09:40:00","50833","2.069","316.7","6.599","299.2","1007.215","10.56","58.42","NAN","0.0"],
    [1539078,"2026-01-26 09:50:00","50834","1.34","299.6","3.7889999999999997","303.1","1007.382","10.8","57.79","NAN","0.0"],
    [1539079,"2026-01-26 10:00:00","50835","1.874","290.3","4.279","280.7","1007.5210000000001","11.02","56.89","NAN","0.0"],
    [1539080,"2026-01-26 10:10:00","50836","1.357","290.0","3.7239999999999998","261.3","1007.513","11.32","56.54","NAN","0.0"],
    [1539081,"2026-01-26 10:20:00","50837","1.317","327.4","3.495","322.4","1007.56","11.43","56.38","NAN","0.0"],
    [1539082,"2026-01-26 10:30:00","50838","2.424","331.5","5.782","322.7","1007.632","11.56","56.04","NAN","0.0"],
    [1539083,"2026-01-26 10:40:00","50839","2.935","326.4","6.141","308.0","1007.7339999999999","11.47","56.22","NAN","0.0"],
    [1539084,"2026-01-26 10:50:00","50840","2.434","317.1","6.141","308.0","1007.7239999999999","11.74","55.35","NAN","0.0"],
    [1539085,"2026-01-26 11:00:00","50841","3.02","321.4","6.9910000000000005","301.4","1007.6469999999999","12.08","54.33","NAN","0.0"],
    [1539086,"2026-01-26 11:10:00","50842","2.915","320.3","7.218999999999999","311.0","1007.577","12.42","53.3","NAN","0.0"],
    [1539087,"2026-01-26 11:20:00","50843","3.069","321.2","6.337000000000001","328.0","1007.477","12.5","53.14","NAN","0.0"],
    [1539088,"2026-01-26 11:30:00","50844","1.847","312.3","6.664","318.2","1007.303","12.96","52.28","NAN","0.0"],
    [1539089,"2026-01-26 11:40:00","50845","2.4819999999999998","288.1","8.07","269.0","1007.1610000000001","13.14","51.61","NAN","0.0"],
    [1539090,"2026-01-26 11:50:00","50846","2.39","288.8","6.435","254.5","1006.947","13.51","50.74","NAN","0.0"],
    [1539091,"2026-01-26 12:00:00","50847","2.7230000000000003","274.4","6.631","271.7","1006.9169999999999","13.71","50.39","NAN","0.0"],
    [1539092,"2026-01-26 12:10:00","50848","2.39","293.6","7.579","290.3","1006.852","13.87","50.14","NAN","0.0"],
    [1539093,"2026-01-26 12:20:00","50849","2.5869999999999997","299.4","5.7170000000000005","324.8","1006.8","13.75","50.5","NAN","0.0"],
    [1539094,"2026-01-26 12:30:00","50850","2.316","300.6","6.435","282.9","1006.573","13.87","49.54","NAN","0.0"],
    [1539095,"2026-01-26 12:40:00","50851","2.52","300.1","8.89","307.5","1006.3710000000001","13.83","49.4","NAN","0.0"],
    [1539096,"2026-01-26 12:50:00","50852","2.497","284.8","7.382999999999999","351.5","1006.2769999999999","13.53","50.37","NAN","0.0"],
    [1539097,"2026-01-26 13:00:00","50853","2.715","275.2","8.33","292.4","1006.1519999999999","13.53","50.68","NAN","0.0"],
    [1539098,"2026-01-26 13:10:00","50854","1.985","273.8","5.912999999999999","268.1","1005.951","13.7","50.52","NAN","0.0"],
    [1539099,"2026-01-26 13:20:00","50855","1.902","277.7","7.023","298.7","1005.8580000000001","13.94","49.74","NAN","0.0"],
    [1539100,"2026-01-26 13:30:00","50856","2.541","263.3","6.272","234.7","1005.988","13.99","49.88","NAN","0.0"],
    [1539101,"2026-01-26 13:40:00","50857","3.5","269.6","8.49","281.9","1006.128","13.81","50.67","NAN","0.0"],
    [1539102,"2026-01-26 13:50:00","50858","2.269","252.1","6.631","300.7","1006.46","14.27","49.85","NAN","0.0"],
    [1539103,"2026-01-26 14:00:00","50859","2.605","252.6","6.566","260.9","1006.5360000000001","14.58","48.5","NAN","0.0"],
    [1539104,"2026-01-26 14:10:00","50860","2.483","265.5","6.501","250.7","1006.2719999999999","14.69","47.61","NAN","0.0"],
    [1539105,"2026-01-26 14:20:00","50861","2.463","276.9","7.285","239.2","1006.317","14.56","47.33","NAN","0.0"],
    [1539106,"2026-01-26 14:30:00","50862","1.22","297.9","4.377","303.8","1006.434","14.6","47.25","NAN","0.0"],
    [1539107,"2026-01-26 14:40:00","50863","1.444","329.7","4.541","348.9","1006.372","14.68","47.2","NAN","0.0"],
    [1539108,"2026-01-26 14:50:00","50864","1.6740000000000002","338.4","6.631","311.5","1006.137","14.57","47.3","NAN","0.0"],
    [1539109,"2026-01-26 15:00:00","50865","1.849","244.6","4.018","255.8","1006.255","14.53","47.57","NAN","0.0"],
    [1539110,"2026-01-26 15:10:00","50866","2.134","258.3","6.1739999999999995","248.6","1006.572","14.54","47.33","NAN","0.0"],
    [1539111,"2026-01-26 15:20:00","50867","1.71","317.9","4.41","239.4","1006.568","14.59","47.38","NAN","0.0"],
    [1539112,"2026-01-26 15:30:00","50868","1.985","295.3","5.129","330.3","1006.564","14.52","47.98","NAN","0.0"],
    [1539113,"2026-01-26 15:40:00","50869","1.422","263.9","3.855","266.1","1006.828","14.47","48.07","NAN","0.0"],
    [1539114,"2026-01-26 15:50:00","50870","1.07","281.6","2.679","292.4","1006.7869999999999","14.49","48.29","NAN","0.0"],
    [1539115,"2026-01-26 16:00:00","50871","1.3159999999999998","261.3","4.377","253.3","1006.7660000000001","14.38","48.57","NAN","0.0"],
    [1539116,"2026-01-26 16:10:00","50872","1.374","269.9","3.071","284.4","1006.934","14.19","48.48","NAN","0.0"],
    [1539117,"2026-01-26 16:20:00","50873","1.794","262.9","4.638999999999999","247.2","1006.967","14.05","48.1","NAN","0.0"],
    [1539118,"2026-01-26 16:30:00","50874","1.806","283.2","5.096","291.6","1006.807","13.93","48.41","NAN","0.0"],
    [1539119,"2026-01-26 16:40:00","50875","2.204","253.9","5.194","274.3","1007.012","13.84","48.91","NAN","0.0"],
    [1539120,"2026-01-26 16:50:00","50876","2.0780000000000003","275.4","4.737","258.9","1007.076","13.8","49.05","NAN","0.0"],
    [1539121,"2026-01-26 17:00:00","50877","2.127","273.6","4.998","291.1","1006.8530000000001","13.75","49.33","NAN","0.0"],
    [1539122,"2026-01-26 17:10:00","50878","1.138","271.4","3.822","241.7","1007.1339999999999","13.72","49.5","NAN","0.0"],
    [1539123,"2026-01-26 17:20:00","50879","1.53","293.9","3.593","251.1","1007.2289999999999","13.72","48.8","NAN","0.0"],
    [1539124,"2026-01-26 17:30:00","50880","1.1059999999999999","228.9","4.149","243.5","1007.2289999999999","13.73","49.06","NAN","0.0"],
    [1539125,"2026-01-26 17:40:00","50881","0.772","217.1","2.221","172.0","1007.243","13.51","50.39","NAN","0.0"],
    [1539126,"2026-01-26 17:50:00","50882","0.932","209.4","2.483","172.6","1007.328","13.34","51.81","NAN","0.0"],
    [1539127,"2026-01-26 18:00:00","50883","1.198","230.6","3.495","263.0","1007.47","13.37","50.68","NAN","0.0"],
    [1539128,"2026-01-26 18:10:00","50884","1.0590000000000002","221.1","2.94","222.1","1007.388","13.42","50.7","NAN","0.0"],
    [1539129,"2026-01-26 18:20:00","50885","0.902","227.3","2.515","219.7","1007.3560000000001","13.26","51.72","NAN","0.0"],
    [1539130,"2026-01-26 18:30:00","50886","0.935","207.5","1.9269999999999998","263.4","1007.388","13.12","52.96","NAN","0.0"],
    [1539131,"2026-01-26 18:40:00","50887","0.847","219.2","2.5810000000000004","244.1","1007.368","13.05","53.5","NAN","0.0"],
    [1539132,"2026-01-26 18:50:00","50888","1.133","224.5","3.463","222.9","1007.436","13.08","54.79","NAN","0.0"],
    [1539133,"2026-01-26 19:00:00","50889","1.148","248.5","3.365","258.0","1007.4780000000001","12.92","57.19","NAN","0.0"],
    [1539134,"2026-01-26 19:10:00","50890","1.209","239.8","3.495","237.2","1007.4780000000001","12.72","59.23","NAN","0.0"],
    [1539135,"2026-01-26 19:20:00","50891","1.265","237.3","3.005","234.0","1007.445","12.73","59.2","NAN","0.0"],
    [1539136,"2026-01-26 19:30:00","50892","1.295","239.2","2.7439999999999998","240.0","1007.53","12.69","59.57","NAN","0.0"],
    [1539137,"2026-01-26 19:40:00","50893","1.676","237.4","3.463","231.0","1007.472","12.7","58.55","NAN","0.0"],
    [1539138,"2026-01-26 19:50:00","50894","1.4780000000000002","239.0","2.679","237.1","1007.318","12.63","59.8","NAN","0.0"],
    [1539139,"2026-01-26 20:00:00","50895","1.2919999999999998","240.0","2.613","242.1","1007.2310000000001","12.46","60.8","NAN","0.0"],
    [1539140,"2026-01-26 20:10:00","50896","0.745","273.9","2.7439999999999998","296.3","1007.1610000000001","12.33","61.74","NAN","0.0"],
    [1539141,"2026-01-26 20:20:00","50897","0.892","278.7","2.385","305.1","1007.1089999999999","12.48","60.82","NAN","0.0"],
    [1539142,"2026-01-26 20:30:00","50898","1.065","270.6","2.483","276.4","1006.98","12.48","60.3","NAN","0.0"],
    [1539143,"2026-01-26 20:40:00","50899","0.8109999999999999","231.0","2.6460000000000004","278.8","1006.941","12.4","61","NAN","0.0"],
    [1539144,"2026-01-26 20:50:00","50900","0.486","229.3","1.4369999999999998","251.8","1006.9760000000001","11.99","63.1","NAN","0.0"],
    [1539145,"2026-01-26 21:00:00","50901","0.336","260.3","1.4369999999999998","290.2","1006.867","11.88","63.26","NAN","0.0"],
    [1539146,"2026-01-26 21:10:00","50902","0.633","320.0","2.025","246.2","1006.666","12.24","60.53","NAN","0.0"],
    [1539147,"2026-01-26 21:20:00","50903","0.684","226.2","2.0909999999999997","243.3","1006.3810000000001","12.17","61.12","NAN","0.0"],
    [1539148,"2026-01-26 21:30:00","50904","0.7929999999999999","207.3","1.2409999999999999","203.5","1006.2","11.83","63.47","NAN","0.0"],
    [1539149,"2026-01-26 21:40:00","50905","0.782","205.6","1.2409999999999999","195.5","1006.148","11.39","66.47","NAN","0.0"],
    [1539150,"2026-01-26 21:50:00","50906","0.91","203.4","1.666","205.3","1006.199","11.12","67.12","NAN","0.0"],
    [1539151,"2026-01-26 22:00:00","50907","0.47700000000000004","198.0","1.111","204.6","1006.135","11.1","68.56","NAN","0.0"],
    [1539152,"2026-01-26 22:10:00","50908","0.34299999999999997","201.0","1.078","221.0","1006.033","10.87","69.88","NAN","0.0"],
    [1539153,"2026-01-26 22:20:00","50909","0.348","212.4","1.013","196.6","1005.887","10.81","68.89","NAN","0.0"],
    [1539154,"2026-01-26 22:30:00","50910","0.887","208.8","1.797","195.5","1005.9169999999999","10.7","70.98","NAN","0.0"],
    [1539155,"2026-01-26 22:40:00","50911","0.742","223.5","1.601","218.4","1005.807","10.96","69.88","NAN","0.0"],
    [1539156,"2026-01-26 22:50:00","50912","1.265","240.4","2.5810000000000004","252.6","1005.808","11.69","65.46","NAN","0.0"],
    [1539157,"2026-01-26 23:00:00","50913","1.268","239.1","2.7769999999999997","227.0","1005.835","12.06","63.33","NAN","0.0"],
    [1539158,"2026-01-26 23:10:00","50914","1.525","238.2","2.7769999999999997","229.9","1005.779","12.1","62.98","NAN","0.0"],
    [1539159,"2026-01-26 23:20:00","50915","1.368","242.0","2.5810000000000004","267.5","1005.7819999999999","12.15","62.67","NAN","0.0"],
    [1539160,"2026-01-26 23:30:00","50916","1.083","232.5","2.45","232.1","1005.753","12.18","62.48","NAN","0.0"],
    [1539161,"2026-01-26 23:40:00","50917","0.8190000000000001","213.6","1.993","235.0","1005.513","12.01","63.59","NAN","0.0"],
    [1539162,"2026-01-26 23:50:00","50918","0.877","224.2","1.797","222.3","1005.309","11.93","63.38","NAN","0.0"],
    [1539163,"2026-01-27 00:00:00","50919","0.655","245.4","2.0580000000000003","246.5","1005.0880000000001","12.1","62.06","NAN","0.0"],
    [1539164,"2026-01-27 00:10:00","50920","0.489","248.6","1.339","232.9","1004.926","12.24","61.91","NAN","0.0"],
    [1539165,"2026-01-27 00:20:00","50921","0.71","232.5","1.764","233.5","1004.875","12.26","62.25","NAN","0.0"],
    [1539166,"2026-01-27 00:30:00","50922","0.43799999999999994","233.0","1.013","240.7","1004.865","12.24","62.22","NAN","0.0"],
    [1539167,"2026-01-27 00:40:00","50923","0.311","210.2","0.8490000000000001","211.0","1004.862","12.25","62.46","NAN","0.0"],
    [1539168,"2026-01-27 00:50:00","50924","0.038","146.0","0.7190000000000001","325.9","1004.845","12.25","63.84","NAN","0.0"],
    [1539169,"2026-01-27 01:00:00","50925","0.16","169.5","0.555","149.6","1004.8969999999999","11.93","65.03","NAN","0.0"],
    [1539170,"2026-01-27 01:10:00","50926","0.073","229.1","0.425","241.9","1004.952","11.78","66.05","NAN","0.0"],
    [1539171,"2026-01-27 01:20:00","50927","0.151","186.4","0.621","190.2","1004.834","11.6","66.62","NAN","0.0"],
    [1539172,"2026-01-27 01:30:00","50928","0.07","156.5","0.523","163.6","1004.654","11.29","68.82","NAN","0.0"],
    [1539173,"2026-01-27 01:40:00","50929","0.011000000000000001","162.6","0.294","162.5","1004.569","11.12","70.05","NAN","0.0"],
    [1539174,"2026-01-27 01:50:00","50930","0.016","271.9","0.392","284.5","1004.462","11.13","69.29","NAN","0.0"],
    [1539175,"2026-01-27 02:00:00","50931","0.004","244.5","0.261","245.1","1004.305","11.14","68.82","NAN","0.0"],
    [1539176,"2026-01-27 02:10:00","50932","0.418","244.1","0.7190000000000001","271.4","1004.196","10.97","70.16","NAN","0.0"],
    [1539177,"2026-01-27 02:20:00","50933","0.358","281.4","0.9470000000000001","260.1","1004.18","11.22","67.83","NAN","0.0"],
    [1539178,"2026-01-27 02:30:00","50934","0.114","287.1","0.7509999999999999","315.9","1004.2139999999999","11.52","66.47","NAN","0.0"],
    [1539179,"2026-01-27 02:40:00","50935","0.08800000000000001","197.1","0.555","201.3","1004.038","11.34","67.58","NAN","0.0"],
    [1539180,"2026-01-27 02:50:00","50936","0.11900000000000001","81.4","0.8170000000000001","113.0","1003.8489999999999","11.11","69.4","NAN","0.0"],
    [1539181,"2026-01-27 03:00:00","50937","0.613","46.12","1.339","41.32","1003.4630000000001","10.99","70.14","NAN","0.0"],
    [1539182,"2026-01-27 03:10:00","50938","0.594","181.3","1.045","208.3","1003.1669999999999","10.77","71.81","NAN","0.0"],
    [1539183,"2026-01-27 03:20:00","50939","0.5920000000000001","214.5","1.47","202.1","1003.289","10.81","73.25","NAN","0.0"],
    [1539184,"2026-01-27 03:30:00","50940","0.516","215.5","1.013","218.2","1003.209","11.02","73.7","NAN","0.0"],
    [1539185,"2026-01-27 03:40:00","50941","0.381","330.9","1.143","165.9","1002.932","10.91","73.72","NAN","0.0"],
    [1539186,"2026-01-27 03:50:00","50942","0.201","247.5","0.621","228.1","1002.789","10.98","71.98","NAN","0.0"],
    [1539187,"2026-01-27 04:00:00","50943","0.555","233.2","1.143","249.8","1002.7260000000001","10.89","72.86","NAN","0.0"],
    [1539188,"2026-01-27 04:10:00","50944","0.319","249.6","0.882","208.8","1002.571","11.14","71.65","NAN","0.0"],
    [1539189,"2026-01-27 04:20:00","50945","0.431","211.9","1.2409999999999999","162.7","1002.3689999999999","11.19","71.57","NAN","0.0"],
    [1539190,"2026-01-27 04:30:00","50946","0.414","206.7","1.209","174.4","1002.203","11","74.24","NAN","0.0"],
    [1539191,"2026-01-27 04:40:00","50947","0.38299999999999995","225.2","0.882","47.68","1001.995","10.71","75.62","NAN","0.0"],
    [1539192,"2026-01-27 04:50:00","50948","0.512","36.39","1.045","54.34","1001.5010000000001","10.61","77.18","NAN","0.0"],
    [1539193,"2026-01-27 05:00:00","50949","0.23600000000000002","5.739","0.7509999999999999","39.09","1001.363","10.61","76.85","NAN","0.0"],
    [1539194,"2026-01-27 05:10:00","50950","0.198","19.02","0.882","14.16","1001.288","10.71","75.39","NAN","0.0"],
    [1539195,"2026-01-27 05:20:00","50951","0.22699999999999998","41.85","0.6859999999999999","43.51","1001.0419999999999","10.73","75.16","NAN","0.0"],
    [1539196,"2026-01-27 05:30:00","50952","0.38","24.58","0.784","33.93","1000.768","10.74","74.78","NAN","0.0"],
    [1539197,"2026-01-27 05:40:00","50953","0.455","185.7","0.8170000000000001","155.9","1000.533","10.44","77.03","NAN","0.0"],
    [1539198,"2026-01-27 05:50:00","50954","0.418","197.4","0.8170000000000001","133.5","1000.4019999999999","10.44","80.6","NAN","0.0"],
    [1539199,"2026-01-27 06:00:00","50955","0.41700000000000004","187.3","1.209","203.8","1000.327","10.52","82.2","NAN","0.0"],
    [1539200,"2026-01-27 06:10:00","50956","0.361","194.1","1.143","218.2","1000.37","10.1","82.1","NAN","0.0"],
    [1539201,"2026-01-27 06:20:00","50957","0.308","149.5","1.3719999999999999","159.8","1000.447","9.87","82.8","NAN","0.0"],
    [1539202,"2026-01-27 06:30:00","50958","0.0","236.2","0.033","236.4","1000.5169999999999","9.8","84","NAN","0.0"],
    [1539203,"2026-01-27 06:40:00","50959","0.53","230.9","1.078","200.1","1000.6410000000001","9.93","83.6","NAN","0.0"],
    [1539204,"2026-01-27 06:50:00","50960","0.496","247.4","1.699","251.5","1000.5110000000001","10.22","80.7","NAN","0.0"],
    [1539205,"2026-01-27 07:00:00","50961","0.653","180.6","1.2409999999999999","168.6","1000.308","10.46","78.91","NAN","0.0"],
    [1539206,"2026-01-27 07:10:00","50962","0.272","222.4","1.143","289.9","1000.1560000000001","10.31","80.9","NAN","0.0"],
    [1539207,"2026-01-27 07:20:00","50963","0.608","259.8","2.025","246.9","1000.07","10.77","79.77","NAN","0.0"],
    [1539208,"2026-01-27 07:30:00","50964","0.863","261.5","1.993","295.7","1000.24","11.05","79.51","NAN","0.0"],
    [1539209,"2026-01-27 07:40:00","50965","1.1059999999999999","245.6","2.385","226.9","1000.45","11.32","78.47","NAN","0.0"],
    [1539210,"2026-01-27 07:50:00","50966","0.9490000000000001","252.6","2.287","239.5","1000.429","11.46","77.89","NAN","0.0"],
    [1539211,"2026-01-27 08:00:00","50967","1.052","236.7","2.7439999999999998","238.2","1000.497","11.57","77.45","NAN","0.0"],
    [1539212,"2026-01-27 08:10:00","50968","1.3780000000000001","242.9","3.43","236.8","1000.314","11.71","76.41","NAN","0.0"],
    [1539213,"2026-01-27 08:20:00","50969","1.683","243.7","3.822","239.1","1000.1260000000001","11.99","74.62","NAN","0.0"],
    [1539214,"2026-01-27 08:30:00","50970","1.892","252.8","3.365","238.4","1000.165","12.1","73.48","NAN","0.0"],
    [1539215,"2026-01-27 08:40:00","50971","0.797","276.4","2.842","243.6","999.8995","12.25","73.26","NAN","0.0"],
    [1539216,"2026-01-27 08:50:00","50972","1.197","250.6","3.234","244.6","999.9119999999999","12.35","72.79","NAN","0.0"],
    [1539217,"2026-01-27 09:00:00","50973","0.982","254.1","2.5810000000000004","237.4","999.7587","12.75","71.51","NAN","0.0"],
    [1539218,"2026-01-27 09:10:00","50974","0.78","230.1","1.9269999999999998","226.9","999.4221","13.62","68.63","NAN","0.0"],
    [1539219,"2026-01-27 09:20:00","50975","1.088","224.9","2.385","223.8","999.2584","13.49","69.61","NAN","0.0"],
    [1539220,"2026-01-27 09:30:00","50976","0.89","214.8","1.8619999999999999","224.8","999.2935","13.51","71.02","NAN","0.0"],
    [1539221,"2026-01-27 09:40:00","50977","0.68","231.8","2.45","266.4","999.5101","13.42","73.12","NAN","0.0"],
    [1539222,"2026-01-27 09:50:00","50978","0.8009999999999999","217.2","2.352","197.9","999.3978","13.53","75.48","NAN","0.0"],
    [1539223,"2026-01-27 10:00:00","50979","1.195","231.6","3.071","246.0","999.37","13.32","76.68","NAN","0.0"],
    [1539224,"2026-01-27 10:10:00","50980","1.187","239.4","2.8089999999999997","224.6","999.2456","13.29","76.98","NAN","0.0"],
    [1539225,"2026-01-27 10:20:00","50981","0.687","221.2","1.405","266.2","998.8443","13.17","79.25","NAN","0.1"],
    [1539226,"2026-01-27 10:30:00","50982","1.3330000000000002","237.4","3.136","245.6","998.9296","13.09","80.5","NAN","0.0"],
    [1539227,"2026-01-27 10:40:00","50983","1.379","243.4","2.7110000000000003","236.4","998.6402","13.19","79.96","NAN","0.0"],
    [1539228,"2026-01-27 10:50:00","50984","1.453","235.6","2.7110000000000003","243.4","998.5162","13.23","79.39","NAN","0.0"],
    [1539229,"2026-01-27 11:00:00","50985","0.903","221.6","2.9730000000000003","221.8","998.5856","13.08","81.9","NAN","10.1"],
    [1539230,"2026-01-27 11:10:00","50986","1.023","229.6","2.319","238.5","998.6010000000001","12.82","84.5","NAN","0.2"],
    [1539231,"2026-01-27 11:20:00","50987","0.8590000000000001","228.2","1.993","249.2","998.4061","12.76","86.1","NAN","0.0"],
    [1539232,"2026-01-27 11:30:00","50988","1.5830000000000002","233.8","3.0380000000000003","243.4","998.2494","13.05","85","NAN","0.0"],
    [1539233,"2026-01-27 11:40:00","50989","1.264","226.0","20.84","118.2","998.2513","13.27","84.2","NAN","0.0"],
    [1539234,"2026-01-27 11:50:00","50990","6.372999999999999","226.2","73.47","118.4","998.0339","13.61","82.7","NAN","0.1"],
    [1539235,"2026-01-27 12:00:00","50991","1.921","239.0","3.528","251.4","997.8972","13.86","79.38","NAN","0.5"],
    [1539236,"2026-01-27 12:10:00","50992","1.712","235.5","4.377","229.4","997.7821","14.13","76.57","NAN","0.0"],
    [1539237,"2026-01-27 12:20:00","50993","1.845","235.3","3.397","219.0","997.5568","14.08","76.79","NAN","0.0"],
    [1539238,"2026-01-27 12:30:00","50994","1.3459999999999999","236.5","2.94","229.7","997.2852","14.05","77.79","NAN","0.0"],
    [1539239,"2026-01-27 12:40:00","50995","1.064","233.1","2.0580000000000003","240.9","996.9987","14.1","79.52","NAN","0.0"],
    [1539240,"2026-01-27 12:50:00","50996","1.216","221.8","3.1689999999999996","246.7","996.7224","14.23","80.3","NAN","0.0"],
    [1539241,"2026-01-27 13:00:00","50997","2.045","227.7","6.239","259.7","996.3636","14.66","78.54","NAN","0.0"],
    [1539242,"2026-01-27 13:10:00","50998","2.339","234.1","5.651","226.4","996.1747","14.97","76","NAN","0.0"],
    [1539243,"2026-01-27 13:20:00","50999","2.657","233.7","7.742000000000001","249.6","996.0976","15.04","74.92","NAN","0.0"],
    [1539244,"2026-01-27 13:30:00","51000","2.504","234.3","5.39","247.5","995.9801","15.02","74.86","NAN","0.0"],
    [1539245,"2026-01-27 13:40:00","51001","2.8819999999999997","238.1","6.337000000000001","238.7","995.8308","14.86","75.9","NAN","0.0"],
    [1539246,"2026-01-27 13:50:00","51002","3.1919999999999997","234.1","6.795","229.6","995.8013","14.75","76.33","NAN","0.0"],
    [1539247,"2026-01-27 14:00:00","51003","3.092","238.4","7.218999999999999","224.5","995.9235","14.66","76.84","NAN","0.0"],
    [1539248,"2026-01-27 14:10:00","51004","2.949","235.8","6.566","207.3","996.0478","14.6","77.09","NAN","0.0"],
    [1539249,"2026-01-27 14:20:00","51005","2.6310000000000002","235.6","5.945","232.1","996.0129","14.45","78.42","NAN","0.2"],
    [1539250,"2026-01-27 14:30:00","51006","2.99","232.6","6.37","233.7","995.9703","14.09","81.4","NAN","0.2"],
    [1539251,"2026-01-27 14:40:00","51007","2.647","231.0","6.042999999999999","213.1","995.8883","13.67","84.8","NAN","0.2"],
    [1539252,"2026-01-27 14:50:00","51008","2.39","230.6","5.292000000000001","244.4","995.9334","13.63","85.4","NAN","0.1"],
    [1539253,"2026-01-27 15:00:00","51009","2.593","233.9","5.4879999999999995","230.0","995.9355","13.76","84","NAN","0.0"],
    [1539254,"2026-01-27 15:10:00","51010","1.895","231.5","4.279","240.5","995.8557","13.8","83.6","NAN","0.0"],
    [1539255,"2026-01-27 15:20:00","51011","2.19","230.1","5.4879999999999995","241.1","995.6591","13.79","83.5","NAN","0.0"],
    [1539256,"2026-01-27 15:30:00","51012","2.296","235.0","4.573","239.9","995.5665","13.9","82.6","NAN","0.0"],
    [1539257,"2026-01-27 15:40:00","51013","1.0590000000000002","207.9","2.254","216.7","994.7755","13.84","83.7","NAN","0.0"],
    [1539258,"2026-01-27 15:50:00","51014","0.83","216.6","2.45","236.7","994.1536","13.6","85.5","NAN","0.0"],
    [1539259,"2026-01-27 16:00:00","51015","1.4340000000000002","231.6","4.149","236.6","995.1765","13.8","85.2","NAN","0.0"],
    [1539260,"2026-01-27 16:10:00","51016","1.724","233.1","4.345","213.1","994.9167","13.86","85.6","NAN","0.0"],
    [1539261,"2026-01-27 16:20:00","51017","1.245","236.6","3.5610000000000004","227.5","994.7251","13.87","85.7","NAN","0.0"],
    [1539262,"2026-01-27 16:30:00","51018","1.381","242.9","2.679","262.0","994.5855","13.9","85.7","NAN","0.0"],
    [1539263,"2026-01-27 16:40:00","51019","1.276","246.0","3.136","271.6","994.5259","13.93","85.6","NAN","0.0"],
    [1539264,"2026-01-27 16:50:00","51020","1.422","237.9","2.548","237.4","994.5458","13.93","85.7","NAN","0.0"],
    [1539265,"2026-01-27 17:00:00","51021","0.9890000000000001","237.3","2.548","234.1","994.4757","13.91","86.3","NAN","0.0"],
    [1539266,"2026-01-27 17:10:00","51022","1.791","222.0","4.312","220.0","994.2595","13.97","85.6","NAN","0.0"],
    [1539267,"2026-01-27 17:20:00","51023","1.528","224.6","3.397","247.9","994.2821","13.98","85.6","NAN","0.0"],
    [1539268,"2026-01-27 17:30:00","51024","1.829","228.4","4.149","227.2","994.3738","14.06","85.7","NAN","0.0"],
    [1539269,"2026-01-27 17:40:00","51025","1.5959999999999999","220.5","4.377","228.2","994.2718","14.21","86.3","NAN","0.0"],
    [1539270,"2026-01-27 17:50:00","51026","1.714","215.7","4.181","206.1","994.0575","14.14","87.6","NAN","0.0"],
    [1539271,"2026-01-27 18:00:00","51027","1.815","217.6","4.083","225.0","993.8107","14.17","88.7","NAN","0.0"],
    [1539272,"2026-01-27 18:10:00","51028","1.712","230.3","4.835","197.3","993.7039","14.15","89.5","NAN","0.0"],
    [1539273,"2026-01-27 18:20:00","51029","1.973","223.4","6.1739999999999995","210.5","993.5167","14.04","90.1","NAN","0.0"],
    [1539274,"2026-01-27 18:30:00","51030","1.7830000000000001","216.8","5.815","226.1","993.2806","14.15","88.9","NAN","0.0"],
    [1539275,"2026-01-27 18:40:00","51031","2.2680000000000002","222.3","5.194","214.9","993.5125","14.2","88.6","NAN","0.0"],
    [1539276,"2026-01-27 18:50:00","51032","1.805","224.2","5.063","238.6","993.3404","14.23","88.1","NAN","0.0"],
    [1539277,"2026-01-27 19:00:00","51033","1.454","223.8","3.299","214.1","993.363","14.27","87.7","NAN","0.0"],
    [1539278,"2026-01-27 19:10:00","51034","1.536","215.6","3.071","216.3","993.2076","14.28","87.2","NAN","0.0"],
    [1539279,"2026-01-27 19:20:00","51035","1.1740000000000002","235.3","3.365","245.0","993.1063","14.4","86.2","NAN","0.0"],
    [1539280,"2026-01-27 19:30:00","51036","1.161","246.4","2.9730000000000003","221.4","993.0934","14.36","86.4","NAN","0.0"],
    [1539281,"2026-01-27 19:40:00","51037","0.6609999999999999","257.3","1.699","273.6","992.8599","14.23","87.5","NAN","0.0"],
    [1539282,"2026-01-27 19:50:00","51038","0.626","235.5","1.601","234.2","992.8048","14.1","88.6","NAN","0.0"],
    [1539283,"2026-01-27 20:00:00","51039","0.37","229.2","1.535","228.4","992.6503","13.88","89.5","NAN","0.0"],
    [1539284,"2026-01-27 20:10:00","51040","0.445","218.6","1.013","205.2","992.6682","13.65","90.8","NAN","0.0"],
    [1539285,"2026-01-27 20:20:00","51041","0.507","207.2","1.274","241.3","992.7377","13.5","92.3","NAN","0.5"],
    [1539286,"2026-01-27 20:30:00","51042","0.505","213.6","1.47","194.3","992.7952","13.32","93.7","NAN","0.2"],
    [1539287,"2026-01-27 20:40:00","51043","0.48200000000000004","265.2","1.47","310.3","993.0943","13.31","94.4","NAN","0.7"],
    [1539288,"2026-01-27 20:50:00","51044","0.643","224.1","1.993","239.7","993.2559","13.38","94.2","NAN","0.4"],
    [1539289,"2026-01-27 21:00:00","51045","0.491","219.6","1.274","235.2","993.2806","13.12","94.8","NAN","0.1"],
    [1539290,"2026-01-27 21:10:00","51046","0.693","215.7","2.385","233.7","993.2856","12.79","95.5","NAN","0.0"],
    [1539291,"2026-01-27 21:20:00","51047","0.41200000000000003","221.6","1.274","280.0","993.1138","12.6","95","NAN","0.0"],
    [1539292,"2026-01-27 21:30:00","51048","0.297","213.2","0.915","225.1","993.2258","12.55","95.1","NAN","0.0"],
    [1539293,"2026-01-27 21:40:00","51049","0.72","237.0","2.0580000000000003","228.5","993.3207","12.4","95.4","NAN","0.0"],
    [1539294,"2026-01-27 21:50:00","51050","1.037","252.6","3.267","269.7","993.4101","12.52","90.6","NAN","0.0"],
    [1539295,"2026-01-27 22:00:00","51051","2.052","276.5","6.7620000000000005","246.8","993.5453","13.06","77.56","NAN","0.1"],
    [1539296,"2026-01-27 22:10:00","51052","1.847","290.6","4.181","256.2","993.5923","13","70.06","NAN","0.0"],
    [1539297,"2026-01-27 22:20:00","51053","2.043","304.6","5.749","296.9","993.7211","12.72","69.31","NAN","0.0"],
    [1539298,"2026-01-27 22:30:00","51054","2.248","297.6","6.501","296.9","993.9188","12.47","67.57","NAN","0.0"],
    [1539299,"2026-01-27 22:40:00","51055","2.708","266.8","7.0889999999999995","295.6","994.2023","12.29","64.88","NAN","0.0"],
    [1539300,"2026-01-27 22:50:00","51056","2.189","242.8","5.325","316.2","994.3859","12.03","65.99","NAN","0.0"],
    [1539301,"2026-01-27 23:00:00","51057","2.117","245.8","5.912999999999999","263.8","994.4347","11.84","66.87","NAN","0.0"],
    [1539302,"2026-01-27 23:10:00","51058","2.474","264.5","5.782","297.7","994.4626","11.84","65.59","NAN","0.0"],
    [1539303,"2026-01-27 23:20:00","51059","1.547","232.6","5.651","229.8","994.3708","11.64","66.65","NAN","0.0"],
    [1539304,"2026-01-27 23:30:00","51060","1.396","244.7","4.508","317.0","994.533","11.55","66.78","NAN","0.0"],
    [1539305,"2026-01-27 23:40:00","51061","1.787","241.1","5.586","279.3","994.7425","11.48","66.27","NAN","0.0"],
    [1539306,"2026-01-27 23:50:00","51062","1.213","210.9","2.548","208.2","994.8791","11.19","68.87","NAN","0.0"],
    [1539307,"2026-01-28 00:00:00","51063","1.371","214.9","3.985","205.2","994.9117","10.94","69.34","NAN","0.0"],
    [1539308,"2026-01-28 00:10:00","51064","1.547","230.3","3.855","235.3","994.8615","10.93","68.65","NAN","0.0"],
    [1539309,"2026-01-28 00:20:00","51065","1.5930000000000002","235.5","3.6910000000000003","280.5","994.9242","11.21","66.41","NAN","0.0"],
    [1539310,"2026-01-28 00:30:00","51066","1.6909999999999998","241.5","3.887","217.8","994.9963","11.23","65.79","NAN","0.0"],
    [1539311,"2026-01-28 00:40:00","51067","1.882","231.0","4.149","243.5","995.1262","11.17","65.32","NAN","0.0"],
    [1539312,"2026-01-28 00:50:00","51068","2.137","233.9","4.671","233.8","995.2652","11.21","63.79","NAN","0.0"],
    [1539313,"2026-01-28 01:00:00","51069","2.093","228.9","6.37","234.6","995.3675","11.2","62.56","NAN","0.0"],
    [1539314,"2026-01-28 01:10:00","51070","1.555","232.1","5.945","211.9","995.5591","11.19","61.62","NAN","0.0"],
    [1539315,"2026-01-28 01:20:00","51071","1.751","240.4","4.247","274.9","995.462","11.39","58.78","NAN","0.0"],
    [1539316,"2026-01-28 01:30:00","51072","2.588","242.4","6.305","273.1","995.5071","11.49","56.76","NAN","0.0"],
    [1539317,"2026-01-28 01:40:00","51073","2.206","242.8","5.88","223.8","995.6866","11.58","54.21","NAN","0.0"],
    [1539318,"2026-01-28 01:50:00","51074","2.883","236.9","5.4879999999999995","230.7","995.8506","11.56","51.91","NAN","0.0"],
    [1539319,"2026-01-28 02:00:00","51075","2.571","237.1","6.207000000000001","243.8","996.1076","11.63","49.38","NAN","0.0"],
    [1539320,"2026-01-28 02:10:00","51076","3.002","249.2","9.38","278.7","996.2023","11.68","47.14","NAN","0.0"],
    [1539321,"2026-01-28 02:20:00","51077","2.1790000000000003","241.1","5.194","232.9","996.309","11.64","46.5","NAN","0.0"],
    [1539322,"2026-01-28 02:30:00","51078","2.72","247.7","6.893","280.3","996.3414","11.58","45.48","NAN","0.0"],
    [1539323,"2026-01-28 02:40:00","51079","3.23","257.2","8.0","265.1","996.2515","11.61","43.86","NAN","0.0"],
    [1539324,"2026-01-28 02:50:00","51080","3.2089999999999996","273.8","11.17","257.2","996.1944","11.66","42.67","NAN","0.0"],
    [1539325,"2026-01-28 03:00:00","51081","2.952","270.7","7.252000000000001","265.2","996.2819999999999","11.6","42.57","NAN","0.0"],
    [1539326,"2026-01-28 03:10:00","51082","2.49","266.3","8.17","291.1","996.3386","11.51","42.39","NAN","0.0"],
    [1539327,"2026-01-28 03:20:00","51083","2.801","269.0","7.872999999999999","300.0","996.4061","11.42","42.13","NAN","0.0"],
    [1539328,"2026-01-28 03:30:00","51084","3.617","261.7","9.18","281.0","996.319","11.36","42.29","NAN","0.0"],
    [1539329,"2026-01-28 03:40:00","51085","3.116","251.0","8.59","248.8","996.439","11.13","43.48","NAN","0.0"],
    [1539330,"2026-01-28 03:50:00","51086","3.0","253.2","7.872999999999999","243.3","996.5406","10.95","44.41","NAN","0.0"],
    [1539331,"2026-01-28 04:00:00","51087","3.258","253.2","7.872999999999999","308.4","996.5728","10.82","44.99","NAN","0.0"],
    [1539332,"2026-01-28 04:10:00","51088","3.897","244.0","9.8","230.7","996.8551","10.72","45.3","NAN","0.0"],
    [1539333,"2026-01-28 04:20:00","51089","3.266","253.4","9.73","237.3","996.8745","10.6","46.04","NAN","0.0"],
    [1539334,"2026-01-28 04:30:00","51090","2.245","262.2","6.305","299.4","996.9031","10.43","47.04","NAN","0.0"],
    [1539335,"2026-01-28 04:40:00","51091","2.64","254.2","6.7620000000000005","234.3","997.2277","10.45","46.77","NAN","0.0"],
    [1539336,"2026-01-28 04:50:00","51092","2.559","243.4","7.807","256.9","997.7643","10.53","46.37","NAN","0.0"],
    [1539337,"2026-01-28 05:00:00","51093","2.765","258.1","9.31","251.4","997.5997","10.58","45.76","NAN","0.0"],
    [1539338,"2026-01-28 05:10:00","51094","2.298","269.6","6.599","296.4","997.3939999999999","10.51","45.87","NAN","0.0"],
    [1539339,"2026-01-28 05:20:00","51095","1.8330000000000002","272.3","7.481","263.1","997.1928","10.41","45.67","NAN","0.0"],
    [1539340,"2026-01-28 05:30:00","51096","2.498","264.1","6.305","248.6","997.1611","10.42","45.43","NAN","0.0"],
    [1539341,"2026-01-28 05:40:00","51097","2.455","252.0","7.415","245.5","997.4116","10.36","45.5","NAN","0.0"],
    [1539342,"2026-01-28 05:50:00","51098","1.736","238.6","4.247","275.0","997.791","10.32","45.57","NAN","0.0"],
    [1539343,"2026-01-28 06:00:00","51099","1.4509999999999998","238.3","4.051","231.6","998.063","10.02","47.48","NAN","0.0"],
    [1539344,"2026-01-28 06:10:00","51100","0.647","258.5","1.7309999999999999","234.0","998.1358","9.59","48.68","NAN","0.0"],
    [1539345,"2026-01-28 06:20:00","51101","0.114","322.2","0.7190000000000001","278.3","997.834","9.27","50.36","NAN","0.0"],
    [1539346,"2026-01-28 06:30:00","51102","0.254","105.6","1.078","106.1","997.7428","9.12","50.68","NAN","0.0"],
    [1539347,"2026-01-28 06:40:00","51103","0.081","37.83","0.653","115.7","997.7004","8.86","53.35","NAN","0.0"],
    [1539348,"2026-01-28 06:50:00","51104","0.8059999999999999","145.4","1.405","182.6","997.7289","8.75","55.22","NAN","0.0"],
    [1539349,"2026-01-28 07:00:00","51105","0.623","196.1","1.829","150.2","997.8331","8.85","55.48","NAN","0.0"],
    [1539350,"2026-01-28 07:10:00","51106","1.082","359.2","3.136","314.5","997.4669","9.64","48.74","NAN","0.0"],
    [1539351,"2026-01-28 07:20:00","51107","0.31","137.6","1.013","181.9","997.3825","9.42","50.84","NAN","0.0"],
    [1539352,"2026-01-28 07:30:00","51108","1.073","218.9","3.397","243.5","997.4374","9.33","50","NAN","0.0"],
    [1539353,"2026-01-28 07:40:00","51109","0.629","254.2","1.633","241.2","997.3524","9.71","48.13","NAN","0.0"],
    [1539354,"2026-01-28 07:50:00","51110","0.65","260.5","2.221","292.2","997.2358","9.68","48.98","NAN","0.0"],
    [1539355,"2026-01-28 08:00:00","51111","1.171","311.7","3.495","279.2","997.2722","9.82","47.09","NAN","0.0"],
    [1539356,"2026-01-28 08:10:00","51112","2.12","241.3","5.1610000000000005","218.4","997.3839","9.72","47.86","NAN","0.0"],
    [1539357,"2026-01-28 08:20:00","51113","1.0590000000000002","246.0","4.998","249.2","997.3172","9.61","48.43","NAN","0.0"],
    [1539358,"2026-01-28 08:30:00","51114","1.685","209.3","4.377","243.3","997.4827","9.75","48.89","NAN","0.0"],
    [1539359,"2026-01-28 08:40:00","51115","0.961","244.4","3.7569999999999997","187.3","997.3248","9.97","47.22","NAN","0.0"],
    [1539360,"2026-01-28 08:50:00","51116","0.9209999999999999","208.4","3.7569999999999997","283.4","997.4257","10.24","47.3","NAN","0.0"],
    [1539361,"2026-01-28 09:00:00","51117","1.5090000000000001","212.2","2.94","159.7","997.5469","10.22","47.24","NAN","0.0"],
    [1539362,"2026-01-28 09:10:00","51118","1.278","279.5","3.7889999999999997","238.5","997.1483","10.37","45.16","NAN","0.0"],
    [1539363,"2026-01-28 09:20:00","51119","1.493","270.6","4.149","257.9","997.0739","10.49","44.74","NAN","0.0"],
    [1539364,"2026-01-28 09:30:00","51120","0.742","223.9","2.9730000000000003","303.4","996.8715","10.65","45.19","NAN","0.0"],
    [1539365,"2026-01-28 09:40:00","51121","0.423","198.0","1.895","226.7","996.4851","10.82","45.26","NAN","0.0"],
    [1539366,"2026-01-28 09:50:00","51122","1.485","221.4","2.94","243.2","996.2811","10.82","45.23","NAN","0.0"],
    [1539367,"2026-01-28 10:00:00","51123","2.718","226.7","6.435","233.3","996.5986","10.71","44.88","NAN","0.0"],
    [1539368,"2026-01-28 10:10:00","51124","1.78","229.4","4.704","207.6","996.773","10.62","45.29","NAN","0.0"],
    [1539369,"2026-01-28 10:20:00","51125","1.425","240.3","2.907","245.8","996.7061","10.74","45.54","NAN","0.0"],
    [1539370,"2026-01-28 10:30:00","51126","1.554","228.9","4.083","252.6","996.5696","10.86","45.92","NAN","0.0"],
    [1539371,"2026-01-28 10:40:00","51127","1.87","232.4","3.7569999999999997","261.2","996.5239","10.82","47.1","NAN","0.0"],
    [1539372,"2026-01-28 10:50:00","51128","2.292","235.0","5.455","237.7","996.3442","10.7","47.46","NAN","0.0"],
    [1539373,"2026-01-28 11:00:00","51129","2.388","231.7","5.129","227.3","996.2819999999999","10.72","47.1","NAN","0.0"],
    [1539374,"2026-01-28 11:10:00","51130","1.547","256.6","3.855","257.1","996.1969","10.87","45.33","NAN","0.0"],
    [1539375,"2026-01-28 11:20:00","51131","1.848","240.7","4.737","226.3","995.9477","10.93","44.07","NAN","0.0"],
    [1539376,"2026-01-28 11:30:00","51132","1.33","268.1","3.9530000000000003","258.9","995.4042","10.99","43.01","NAN","0.0"],
    [1539377,"2026-01-28 11:40:00","51133","1.242","304.0","2.94","335.4","995.0516","11.1","43.13","NAN","0.0"],
    [1539378,"2026-01-28 11:50:00","51134","1.617","329.1","3.9530000000000003","350.2","995.0439","11.11","42.55","NAN","0.0"],
    [1539379,"2026-01-28 12:00:00","51135","0.6609999999999999","321.4","2.319","292.4","994.9739","11.32","42.12","NAN","0.0"],
    [1539380,"2026-01-28 12:10:00","51136","0.32899999999999996","286.6","1.143","279.6","994.7475","11.61","41.31","NAN","0.0"],
    [1539381,"2026-01-28 12:20:00","51137","0.508","310.6","2.0580000000000003","333.5","994.4232","11.69","40.15","NAN","0.0"],
    [1539382,"2026-01-28 12:30:00","51138","0.19899999999999998","343.7","0.98","230.0","994.2819","11.68","41.04","NAN","0.0"],
    [1539383,"2026-01-28 12:40:00","51139","0.5820000000000001","290.2","1.666","287.1","994.2195","11.75","40.04","NAN","0.0"],
    [1539384,"2026-01-28 12:50:00","51140","0.6859999999999999","274.3","1.829","278.1","994.2149","11.93","40.66","NAN","0.0"],
    [1539385,"2026-01-28 13:00:00","51141","1.3980000000000001","277.2","3.267","260.2","994.1871","11.79","42.83","NAN","0.0"],
    [1539386,"2026-01-28 13:10:00","51142","1.3659999999999999","256.2","3.495","302.2","994.0173","11.8","44.67","NAN","0.0"],
    [1539387,"2026-01-28 13:20:00","51143","1.715","268.0","3.6910000000000003","268.4","993.8908","11.78","45.65","NAN","0.0"],
    [1539388,"2026-01-28 13:30:00","51144","1.383","255.8","3.397","256.6","993.8087","11.75","46.59","NAN","0.0"],
    [1539389,"2026-01-28 13:40:00","51145","1.601","244.1","4.247","246.7","993.584","11.96","46.92","NAN","0.0"],
    [1539390,"2026-01-28 13:50:00","51146","1.9580000000000002","261.4","4.377","283.1","993.4697","11.87","47.8","NAN","0.0"],
    [1539391,"2026-01-28 14:00:00","51147","1.95","310.1","4.867","343.3","993.4201","11.76","49.1","NAN","0.0"],
    [1539392,"2026-01-28 14:10:00","51148","2.04","326.2","4.9","301.9","993.2879","11.45","49.88","NAN","0.0"],
    [1539393,"2026-01-28 14:20:00","51149","1.6669999999999998","328.2","4.965","316.1","993.2708","11.64","48.28","NAN","0.0"],
    [1539394,"2026-01-28 14:30:00","51150","1.469","304.5","3.855","308.5","993.1483","11.76","48.23","NAN","0.0"],
    [1539395,"2026-01-28 14:40:00","51151","2.354","322.3","5.063","313.9","992.9668","11.74","48.53","NAN","0.0"],
    [1539396,"2026-01-28 14:50:00","51152","1.6780000000000002","287.0","4.4430000000000005","309.4","992.8444","11.76","48.52","NAN","0.0"],
    [1539397,"2026-01-28 15:00:00","51153","1.73","311.3","4.018","318.5","992.6723","11.87","48.39","NAN","0.0"],
    [1539398,"2026-01-28 15:10:00","51154","1.3880000000000001","287.0","4.051","309.1","992.3987","12.13","48.35","NAN","0.0"],
    [1539399,"2026-01-28 15:20:00","51155","1.706","304.1","4.051","294.9","992.3867","12.14","48.89","NAN","0.0"],
    [1539400,"2026-01-28 15:30:00","51156","1.464","341.6","4.051","270.8","992.3787","12.26","48.79","NAN","0.0"],
    [1539401,"2026-01-28 15:40:00","51157","1.911","330.2","4.965","305.7","992.4193","12.15","48.55","NAN","0.0"],
    [1539402,"2026-01-28 15:50:00","51158","2.306","337.9","4.737","331.0","992.6282","11.98","47.63","NAN","0.0"],
    [1539403,"2026-01-28 16:00:00","51159","2.4730000000000003","328.6","4.998","320.3","992.7155","11.78","47.65","NAN","0.0"],
    [1539404,"2026-01-28 16:10:00","51160","2.614","329.7","5.2589999999999995","312.1","992.785","11.7","47.31","NAN","0.0"],
    [1539405,"2026-01-28 16:20:00","51161","2.154","323.4","5.455","322.7","992.9276","11.71","46.65","NAN","0.0"],
    [1539406,"2026-01-28 16:30:00","51162","2.352","329.4","5.227","307.1","993.2385","11.71","45.83","NAN","0.0"],
    [1539407,"2026-01-28 16:40:00","51163","1.2890000000000001","295.5","4.41","288.8","993.3232","11.59","45.62","NAN","0.0"],
    [1539408,"2026-01-28 16:50:00","51164","2.164","319.3","5.4879999999999995","333.9","993.5452","11.53","42.67","NAN","0.0"],
    [1539409,"2026-01-28 17:00:00","51165","1.994","314.6","4.41","307.5","993.8694","11.38","42.2","NAN","0.0"],
    [1539410,"2026-01-28 17:10:00","51166","2.31","317.0","5.553","313.4","994.0485","11.23","44","NAN","0.0"],
    [1539411,"2026-01-28 17:20:00","51167","1.347","306.4","4.41","309.6","994.4303","11.02","45.8","NAN","0.0"],
    [1539412,"2026-01-28 17:30:00","51168","1.206","313.1","3.659","295.6","994.8598","10.84","47.14","NAN","0.0"],
    [1539413,"2026-01-28 17:40:00","51169","1.8159999999999998","283.5","5.063","262.0","995.1232","10.74","46.7","NAN","0.0"],
    [1539414,"2026-01-28 17:50:00","51170","2.162","263.0","5.325","249.2","995.1855","10.66","46.65","NAN","0.0"],
    [1539415,"2026-01-28 18:00:00","51171","2.1790000000000003","250.8","5.031000000000001","247.8","995.3505","10.45","47.45","NAN","0.0"],
    [1539416,"2026-01-28 18:10:00","51172","2.0340000000000003","259.1","4.4430000000000005","266.3","995.6819","10.37","47.85","NAN","0.0"],
    [1539417,"2026-01-28 18:20:00","51173","2.103","261.6","5.782","261.6","996.0181","10.3","48.65","NAN","0.0"],
    [1539418,"2026-01-28 18:30:00","51174","1.925","267.4","5.4879999999999995","293.5","996.3495","10.16","49.76","NAN","0.0"],
    [1539419,"2026-01-28 18:40:00","51175","1.4340000000000002","227.0","3.985","210.7","996.7289","9.99","50.71","NAN","0.0"],
    [1539420,"2026-01-28 18:50:00","51176","1.577","239.5","3.985","271.5","997.0507","9.89","51.06","NAN","0.0"],
    [1539421,"2026-01-28 19:00:00","51177","1.198","247.1","3.887","227.2","997.2944","9.83","51.31","NAN","0.0"],
    [1539422,"2026-01-28 19:10:00","51178","1.8159999999999998","281.9","5.586","298.1","997.5959","9.88","51.3","NAN","0.0"],
    [1539423,"2026-01-28 19:20:00","51179","1.5130000000000001","322.1","6.7620000000000005","315.3","997.7985","9.72","51.81","NAN","0.0"],
    [1539424,"2026-01-28 19:30:00","51180","2.3819999999999997","344.3","8.43","307.6","998.0095","9.63","52.76","NAN","0.0"],
    [1539425,"2026-01-28 19:40:00","51181","2.108","319.3","5.422999999999999","324.2","998.2115","9.62","53.93","NAN","0.0"],
    [1539426,"2026-01-28 19:50:00","51182","2.225","308.2","7.742000000000001","334.2","998.5747","9.51","55.07","NAN","0.0"],
    [1539427,"2026-01-28 20:00:00","51183","3.01","309.8","9.08","290.2","998.8517","9.54","55.89","NAN","0.0"],
    [1539428,"2026-01-28 20:10:00","51184","3.168","326.7","9.38","316.1","998.8834","9.48","56.62","NAN","0.0"],
    [1539429,"2026-01-28 20:20:00","51185","2.474","320.1","5.815","315.2","999.1193","9.49","57.01","NAN","0.0"],
    [1539430,"2026-01-28 20:30:00","51186","1.912","329.9","5.422999999999999","324.2","999.2709","9.46","57.46","NAN","0.0"],
    [1539431,"2026-01-28 20:40:00","51187","2.551","319.1","7.317","332.0","999.2889","9.51","57.31","NAN","0.0"],
    [1539432,"2026-01-28 20:50:00","51188","1.493","312.5","3.887","313.2","999.3945","9.53","57.23","NAN","0.0"],
    [1539433,"2026-01-28 21:00:00","51189","2.248","291.2","6.435","254.5","999.5057","9.44","57.76","NAN","0.0"],
    [1539434,"2026-01-28 21:10:00","51190","2.505","277.0","6.893","242.8","999.5404","9.33","58.62","NAN","0.0"],
    [1539435,"2026-01-28 21:20:00","51191","2.052","249.2","5.292000000000001","299.9","999.8018","9.2","59.41","NAN","0.0"],
    [1539436,"2026-01-28 21:30:00","51192","1.067","199.8","3.071","245.5","1000.3939999999999","9.12","60.57","NAN","0.0"],
    [1539437,"2026-01-28 21:40:00","51193","1.236","237.5","4.704","275.6","1000.533","9.03","61.13","NAN","0.0"],
    [1539438,"2026-01-28 21:50:00","51194","1.761","286.2","6.305","288.9","1000.446","9.08","61.16","NAN","0.0"],
    [1539439,"2026-01-28 22:00:00","51195","1.7180000000000002","271.1","4.41","296.6","1000.355","9.16","61.26","NAN","0.0"],
    [1539440,"2026-01-28 22:10:00","51196","1.595","238.5","6.827000000000001","237.7","1000.31","9.17","61.6","NAN","0.0"],
    [1539441,"2026-01-28 22:20:00","51197","1.632","214.2","4.541","254.3","1000.55","9.23","61.86","NAN","0.0"],
    [1539442,"2026-01-28 22:30:00","51198","1.077","210.3","2.417","202.2","1000.946","8.73","64.45","NAN","0.0"],
    [1539443,"2026-01-28 22:40:00","51199","1.1079999999999999","232.3","4.2139999999999995","250.5","1001.1519999999999","8.37","65.62","NAN","0.0"],
    [1539444,"2026-01-28 22:50:00","51200","2.414","260.2","5.978","260.1","1001.137","9.05","62.83","NAN","0.0"],
    [1539445,"2026-01-28 23:00:00","51201","1.4880000000000002","251.6","3.528","234.9","1001.1360000000001","9.16","62.44","NAN","0.0"],
    [1539446,"2026-01-28 23:10:00","51202","1.3619999999999999","236.4","3.6260000000000003","225.7","1001.1389999999999","9.23","62.24","NAN","0.0"],
    [1539447,"2026-01-28 23:20:00","51203","1.7380000000000002","213.2","3.528","180.0","1001.3839999999999","9.08","63.21","NAN","0.0"],
    [1539448,"2026-01-28 23:30:00","51204","1.368","204.6","3.659","182.1","1001.665","8.94","64.59","NAN","0.0"],
    [1539449,"2026-01-28 23:40:00","51205","0.752","184.1","4.018","199.9","1001.565","9.24","63.96","NAN","0.0"],
    [1539450,"2026-01-28 23:50:00","51206","0.888","184.1","2.385","191.9","1001.387","9.06","64.29","NAN","0.0"],
    [1539451,"2026-01-29 00:00:00","51207","0.9109999999999999","223.1","2.6460000000000004","184.1","1001.443","9.3","63.39","NAN","0.0"],
    [1539452,"2026-01-29 00:10:00","51208","0.6459999999999999","188.0","2.9730000000000003","175.6","1001.419","9.5","62.67","NAN","0.0"],
    [1539453,"2026-01-29 00:20:00","51209","1.182","203.1","2.842","204.4","1001.334","9.6","62.28","NAN","0.0"],
    [1539454,"2026-01-29 00:30:00","51210","1.609","167.1","4.247","183.9","1001.457","9.64","63.08","NAN","0.0"],
    [1539455,"2026-01-29 00:40:00","51211","1.52","191.0","2.7769999999999997","157.0","1001.425","9.72","63.03","NAN","0.0"],
    [1539456,"2026-01-29 00:50:00","51212","1.297","214.2","3.071","222.1","1001.671","9.69","62.4","NAN","0.0"],
    [1539457,"2026-01-29 01:00:00","51213","1.641","246.7","4.312","237.6","1001.841","9.7","61.79","NAN","0.0"],
    [1539458,"2026-01-29 01:10:00","51214","1.484","254.1","4.279","230.2","1001.7639999999999","9.7","61.68","NAN","0.0"],
    [1539459,"2026-01-29 01:20:00","51215","1.421","297.9","4.541","315.2","1001.778","9.63","61.87","NAN","0.0"],
    [1539460,"2026-01-29 01:30:00","51216","1.517","302.2","5.39","280.2","1001.789","9.62","61.66","NAN","0.0"],
    [1539461,"2026-01-29 01:40:00","51217","1.085","354.7","3.005","273.0","1002.0319999999999","9.59","61.94","NAN","0.0"],
    [1539462,"2026-01-29 01:50:00","51218","1.1320000000000001","305.5","3.397","255.1","1002.306","9.51","62.26","NAN","0.0"],
    [1539463,"2026-01-29 02:00:00","51219","0.6509999999999999","337.9","2.0580000000000003","200.4","1002.3860000000001","9.41","62.71","NAN","0.0"],
    [1539464,"2026-01-29 02:10:00","51220","1.155","326.4","3.92","312.1","1002.294","9.42","62.7","NAN","0.0"],
    [1539465,"2026-01-29 02:20:00","51221","0.773","326.3","2.385","259.1","1002.329","9.39","62.78","NAN","0.0"],
    [1539466,"2026-01-29 02:30:00","51222","1.284","313.8","3.528","292.2","1002.185","9.46","62.13","NAN","0.0"],
    [1539467,"2026-01-29 02:40:00","51223","0.7979999999999999","329.8","2.515","358.3","1002.0369999999999","9.57","61.53","NAN","0.0"],
    [1539468,"2026-01-29 02:50:00","51224","1.0190000000000001","278.2","3.7239999999999998","262.0","1002.03","9.57","61.3","NAN","0.0"],
    [1539469,"2026-01-29 03:00:00","51225","1.963","250.7","4.2139999999999995","255.2","1001.977","9.74","60.35","NAN","0.0"],
    [1539470,"2026-01-29 03:10:00","51226","1.354","226.1","4.998","214.4","1001.8489999999999","9.59","61.13","NAN","0.0"],
    [1539471,"2026-01-29 03:20:00","51227","1.2919999999999998","207.9","2.319","213.6","1001.875","9.14","63.92","NAN","0.0"],
    [1539472,"2026-01-29 03:30:00","51228","1.179","211.0","3.1689999999999996","212.3","1001.702","8.99","64.52","NAN","0.0"],
    [1539473,"2026-01-29 03:40:00","51229","1.094","220.5","2.8089999999999997","190.2","1001.5419999999999","9","64.04","NAN","0.0"],
    [1539474,"2026-01-29 03:50:00","51230","1.6480000000000001","227.2","3.985","243.4","1001.618","9.23","62.64","NAN","0.0"],
    [1539475,"2026-01-29 04:00:00","51231","2.073","240.9","5.39","228.2","1001.534","9.7","60","NAN","0.0"],
    [1539476,"2026-01-29 04:10:00","51232","1.24","243.3","3.234","225.3","1001.668","9.87","59.02","NAN","0.0"],
    [1539477,"2026-01-29 04:20:00","51233","0.7490000000000001","263.8","2.483","280.4","1001.743","9.56","60.46","NAN","0.0"],
    [1539478,"2026-01-29 04:30:00","51234","0.762","275.8","2.45","298.1","1001.682","9.71","59.51","NAN","0.0"],
    [1539479,"2026-01-29 04:40:00","51235","0.639","281.7","1.993","308.4","1001.835","9.77","59.04","NAN","0.0"],
    [1539480,"2026-01-29 04:50:00","51236","0.838","258.2","2.189","336.9","1001.7760000000001","9.68","59.54","NAN","0.0"],
    [1539481,"2026-01-29 05:00:00","51237","0.613","210.4","1.2409999999999999","196.8","1001.587","9.17","63.79","NAN","0.0"],
    [1539482,"2026-01-29 05:10:00","51238","0.495","196.9","1.2409999999999999","197.8","1001.707","8.78","66.06","NAN","0.0"],
    [1539483,"2026-01-29 05:20:00","51239","0.111","153.9","0.6859999999999999","140.0","1001.513","8.52","67.52","NAN","0.0"],
    [1539484,"2026-01-29 05:30:00","51240","0.498","216.5","1.209","256.7","1001.676","8.37","68.2","NAN","0.0"],
    [1539485,"2026-01-29 05:40:00","51241","0.565","234.5","1.405","267.8","1001.7689999999999","9.05","64.41","NAN","0.0"],
    [1539486,"2026-01-29 05:50:00","51242","0.556","233.3","1.568","269.6","1001.909","9.16","63.51","NAN","0.0"],
    [1539487,"2026-01-29 06:00:00","51243","1.083","216.1","2.45","233.2","1001.908","9.4","63.02","NAN","0.0"],
    [1539488,"2026-01-29 06:10:00","51244","0.889","215.4","1.9269999999999998","240.5","1001.922","9.28","63.98","NAN","0.0"],
    [1539489,"2026-01-29 06:20:00","51245","0.6559999999999999","215.6","1.601","218.3","1002.047","9.45","62.28","NAN","0.0"],
    [1539490,"2026-01-29 06:30:00","51246","1.051","214.0","1.895","235.1","1002.1","9.69","62.09","NAN","0.0"],
    [1539491,"2026-01-29 06:40:00","51247","0.665","242.1","1.895","221.4","1001.985","9.81","60.82","NAN","0.0"],
    [1539492,"2026-01-29 06:50:00","51248","0.84","228.3","1.96","276.5","1001.799","10.03","59.92","NAN","0.0"],
    [1539493,"2026-01-29 07:00:00","51249","1.004","210.7","2.0580000000000003","166.3","1001.9780000000001","9.72","62.31","NAN","0.0"],
    [1539494,"2026-01-29 07:10:00","51250","0.679","204.0","1.47","207.0","1002.054","9.4","64.25","NAN","0.0"],
    [1539495,"2026-01-29 07:20:00","51251","1.162","211.7","2.5810000000000004","206.3","1002.0360000000001","9.32","65.05","NAN","0.0"],
    [1539496,"2026-01-29 07:30:00","51252","2.157","250.8","5.39","266.5","1001.8589999999999","10.05","60.67","NAN","0.0"],
    [1539497,"2026-01-29 07:40:00","51253","2.105","274.4","4.345","319.2","1001.8739999999999","10.4","58.99","NAN","0.0"],
    [1539498,"2026-01-29 07:50:00","51254","2.037","266.9","4.965","304.3","1002.154","10.38","59.17","NAN","0.0"],
    [1539499,"2026-01-29 08:00:00","51255","1.824","259.2","4.704","290.9","1002.293","10.36","59.08","NAN","0.0"],
    [1539500,"2026-01-29 08:10:00","51256","1.515","239.7","5.063","251.2","1002.345","10.31","59.66","NAN","0.0"],
    [1539501,"2026-01-29 08:20:00","51257","2.055","232.6","4.1160000000000005","240.6","1002.323","10.34","59.97","NAN","0.0"],
    [1539502,"2026-01-29 08:30:00","51258","2.061","230.9","4.835","233.1","1002.367","10.44","60.07","NAN","0.0"],
    [1539503,"2026-01-29 08:40:00","51259","2.182","239.8","5.325","244.4","1002.295","10.42","60.4","NAN","0.0"],
    [1539504,"2026-01-29 08:50:00","51260","2.524","232.0","5.357","250.5","1002.31","10.43","60.73","NAN","0.0"],
    [1539505,"2026-01-29 09:00:00","51261","2.181","232.5","4.573","236.4","1002.367","10.73","60.09","NAN","0.0"],
    [1539506,"2026-01-29 09:10:00","51262","1.67","237.0","3.593","239.8","1002.275","11.11","59.05","NAN","0.0"],
    [1539507,"2026-01-29 09:20:00","51263","1.453","241.6","3.071","251.2","1002.235","11.66","57.5","NAN","0.0"],
    [1539508,"2026-01-29 09:30:00","51264","1.6269999999999998","236.3","3.365","219.7","1002.1669999999999","11.9","56.54","NAN","0.0"],
    [1539509,"2026-01-29 09:40:00","51265","1.5419999999999998","244.7","4.638999999999999","263.9","1002.033","12.2","55.49","NAN","0.0"],
    [1539510,"2026-01-29 09:50:00","51266","1.775","239.4","3.7889999999999997","232.8","1002.21","12.46","54.71","NAN","0.0"],
    [1539511,"2026-01-29 10:00:00","51267","1.5830000000000002","287.8","5.031000000000001","316.3","1002.203","12.79","53.57","NAN","0.0"],
    [1539512,"2026-01-29 10:10:00","51268","1.5819999999999999","293.8","3.5610000000000004","255.4","1002.434","12.34","54.96","NAN","0.0"],
    [1539513,"2026-01-29 10:20:00","51269","1.5630000000000002","290.9","4.835","293.1","1002.4069999999999","12.66","53.99","NAN","0.0"],
    [1539514,"2026-01-29 10:30:00","51270","1.9680000000000002","298.5","5.945","250.5","1002.2769999999999","12.69","53.79","NAN","0.0"],
    [1539515,"2026-01-29 10:40:00","51271","1.639","285.7","4.083","259.3","1002.3439999999999","12.84","53.7","NAN","0.0"],
    [1539516,"2026-01-29 10:50:00","51272","1.867","265.6","4.051","252.3","1002.227","12.85","54.06","NAN","0.0"],
    [1539517,"2026-01-29 11:00:00","51273","1.361","247.4","3.397","232.8","1002.21","13.4","52.68","NAN","0.0"],
    [1539518,"2026-01-29 11:10:00","51274","1.621","255.6","3.887","237.6","1002.005","13.3","52.86","NAN","0.0"],
    [1539519,"2026-01-29 11:20:00","51275","1.876","227.5","3.593","241.9","1001.998","13.32","53.22","NAN","0.0"],
    [1539520,"2026-01-29 11:30:00","51276","1.7530000000000001","206.9","3.071","216.8","1001.828","13.27","54.56","NAN","0.0"],
    [1539521,"2026-01-29 11:40:00","51277","1.541","212.5","3.5610000000000004","240.7","1001.308","13.46","54.52","NAN","0.0"],
    [1539522,"2026-01-29 11:50:00","51278","1.567","206.6","3.136","203.0","1001.308","13.34","54.74","NAN","0.0"],
    [1539523,"2026-01-29 12:00:00","51279","0.9790000000000001","206.5","2.9730000000000003","211.1","1001.178","13.74","54.59","NAN","0.0"],
    [1539524,"2026-01-29 12:10:00","51280","1.452","199.0","2.8089999999999997","184.1","1000.9069999999999","14.41","52.27","NAN","0.0"],
    [1539525,"2026-01-29 12:20:00","51281","1.367","208.7","3.299","226.9","1000.668","14.92","50.53","NAN","0.0"],
    [1539526,"2026-01-29 12:30:00","51282","2.11","232.7","5.194","234.8","1000.5139999999999","15.17","48.54","NAN","0.0"],
    [1539527,"2026-01-29 12:40:00","51283","2.102","237.1","4.508","202.8","1000.363","15.28","48.12","NAN","0.0"],
    [1539528,"2026-01-29 12:50:00","51284","1.9909999999999999","236.8","4.41","240.4","1000.046","15.51","47.99","NAN","0.0"],
    [1539529,"2026-01-29 13:00:00","51285","1.472","237.8","3.822","259.8","999.8395","15.89","47.31","NAN","0.0"],
    [1539530,"2026-01-29 13:10:00","51286","1.306","236.6","3.6260000000000003","247.8","999.7064","15.68","48.44","NAN","0.0"],
    [1539531,"2026-01-29 13:20:00","51287","1.5419999999999998","223.5","3.887","219.9","999.7102","15.33","50.08","NAN","0.0"],
    [1539532,"2026-01-29 13:30:00","51288","1.933","267.5","4.638999999999999","283.4","999.7498","15.35","49.91","NAN","0.0"],
    [1539533,"2026-01-29 13:40:00","51289","0.7879999999999999","278.2","2.907","251.9","999.7466","15.69","49.37","NAN","0.0"],
    [1539534,"2026-01-29 13:50:00","51290","1.537","243.3","4.181","232.6","999.8668","16.21","48.65","NAN","0.0"],
    [1539535,"2026-01-29 14:00:00","51291","1.952","217.1","5.586","160.7","999.9792","14.92","54.19","NAN","0.0"],
    [1539536,"2026-01-29 14:10:00","51292","1.847","215.5","4.704","233.1","999.8744","14.53","55.16","NAN","0.0"],
    [1539537,"2026-01-29 14:20:00","51293","1.449","233.7","5.978","222.1","999.9362","14.25","56.62","NAN","0.0"],
    [1539538,"2026-01-29 14:30:00","51294","1.903","225.3","5.063","221.4","999.7158","14.13","57.55","NAN","0.0"],
    [1539539,"2026-01-29 14:40:00","51295","1.2","225.4","4.149","180.2","999.7141","13.91","59.17","NAN","0.0"],
    [1539540,"2026-01-29 14:50:00","51296","1.994","215.8","4.638999999999999","230.7","999.6863","13.84","59.7","NAN","0.0"],
    [1539541,"2026-01-29 15:00:00","51297","1.43","218.6","3.7889999999999997","242.2","999.7967","13.72","60.47","NAN","0.0"],
    [1539542,"2026-01-29 15:10:00","51298","1.4369999999999998","217.7","4.769","235.9","999.8906","13.74","60.31","NAN","0.0"],
    [1539543,"2026-01-29 15:20:00","51299","1.6269999999999998","219.6","4.541","234.7","1000.055","13.76","60.66","NAN","0.0"],
    [1539544,"2026-01-29 15:30:00","51300","2.079","235.9","4.998","242.8","1000.5189999999999","13.82","60.55","NAN","0.0"],
    [1539545,"2026-01-29 15:40:00","51301","1.881","226.8","4.835","233.1","1000.5260000000001","13.89","60.55","NAN","0.0"],
    [1539546,"2026-01-29 15:50:00","51302","1.91","234.7","4.279","245.9","1000.47","13.85","61.04","NAN","0.0"],
    [1539547,"2026-01-29 16:00:00","51303","1.609","231.3","3.887","237.8","999.9579","13.75","61.45","NAN","0.0"],
    [1539548,"2026-01-29 16:10:00","51304","1.5930000000000002","229.9","3.332","227.7","999.8879","13.71","61.83","NAN","0.0"],
    [1539549,"2026-01-29 16:20:00","51305","1.5730000000000002","236.3","3.495","229.3","1000.46","13.61","63.53","NAN","0.0"],
    [1539550,"2026-01-29 16:30:00","51306","1.6869999999999998","239.1","4.247","238.0","1000.694","13.6","64.47","NAN","0.0"],
    [1539551,"2026-01-29 16:40:00","51307","1.452","221.2","4.475","260.9","1000.2589999999999","13.42","66.15","NAN","0.0"],
    [1539552,"2026-01-29 16:50:00","51308","0.73","206.5","2.0909999999999997","246.8","999.9680000000001","13.18","68.24","NAN","0.0"],
    [1539553,"2026-01-29 17:00:00","51309","0.9540000000000001","226.2","1.96","233.5","1000.102","13.12","68.2","NAN","0.0"],
    [1539554,"2026-01-29 17:10:00","51310","0.718","219.9","1.797","244.4","1000.057","12.99","69.01","NAN","0.0"],
    [1539555,"2026-01-29 17:20:00","51311","0.6","193.8","2.0909999999999997","245.3","1000.175","12.86","69.9","NAN","0.0"],
    [1539556,"2026-01-29 17:30:00","51312","1.26","227.7","2.319","249.2","1000.327","12.88","70.2","NAN","0.0"],
    [1539557,"2026-01-29 17:40:00","51313","1.0170000000000001","201.8","1.8619999999999999","208.1","1000.466","12.62","72.19","NAN","0.0"],
    [1539558,"2026-01-29 17:50:00","51314","1.155","213.3","1.9269999999999998","203.3","1000.618","12.38","73.41","NAN","0.0"],
    [1539559,"2026-01-29 18:00:00","51315","1.244","234.2","2.6460000000000004","229.7","1000.7560000000001","12.33","73.88","NAN","0.0"],
    [1539560,"2026-01-29 18:10:00","51316","1.4","244.0","3.103","232.9","1000.7660000000001","12.5","73.62","NAN","0.0"],
    [1539561,"2026-01-29 18:20:00","51317","1.162","238.9","2.254","227.8","1000.694","12.44","73.98","NAN","0.0"],
    [1539562,"2026-01-29 18:30:00","51318","0.581","240.1","1.797","248.6","1000.71","12.36","74.06","NAN","0.0"],
    [1539563,"2026-01-29 18:40:00","51319","0.255","248.9","1.013","243.4","1000.607","12.23","74.31","NAN","0.0"],
    [1539564,"2026-01-29 18:50:00","51320","0.414","259.6","1.633","196.4","1000.7860000000001","12.23","73.92","NAN","0.0"],
    [1539565,"2026-01-29 19:00:00","51321","0.627","305.0","1.47","278.6","1000.7260000000001","12.5","71.03","NAN","0.0"],
    [1539566,"2026-01-29 19:10:00","51322","0.711","321.2","1.96","321.5","1001.039","12.86","68.11","NAN","0.0"],
    [1539567,"2026-01-29 19:20:00","51323","1.2329999999999999","334.7","3.593","308.8","1001.2769999999999","12.95","65.11","NAN","0.0"],
    [1539568,"2026-01-29 19:30:00","51324","1.2570000000000001","329.4","3.005","324.5","1001.432","12.86","64.09","NAN","0.0"],
    [1539569,"2026-01-29 19:40:00","51325","0.945","337.9","2.352","304.5","1001.55","12.74","64.06","NAN","0.0"],
    [1539570,"2026-01-29 19:50:00","51326","1.1340000000000001","343.2","2.7110000000000003","339.7","1001.595","12.65","64.1","NAN","0.0"],
    [1539571,"2026-01-29 20:00:00","51327","1.794","341.6","4.051","301.9","1001.433","12.76","63.59","NAN","0.0"],
    [1539572,"2026-01-29 20:10:00","51328","1.65","318.8","3.855","308.9","1001.133","12.7","63.35","NAN","0.0"],
    [1539573,"2026-01-29 20:20:00","51329","1.122","323.6","3.071","317.2","1001.23","12.54","63.33","NAN","0.0"],
    [1539574,"2026-01-29 20:30:00","51330","1.375","335.6","3.267","332.0","1001.245","12.42","63.38","NAN","0.0"],
    [1539575,"2026-01-29 20:40:00","51331","0.809","334.7","2.319","311.5","1001.265","12.41","63.86","NAN","0.0"],
    [1539576,"2026-01-29 20:50:00","51332","1.393","318.4","3.495","288.7","1001.298","12.5","63.74","NAN","0.0"],
    [1539577,"2026-01-29 21:00:00","51333","1.442","347.6","2.875","344.9","1001.4","12.5","63.56","NAN","0.0"],
    [1539578,"2026-01-29 21:10:00","51334","0.645","350.0","2.352","345.4","1001.477","12.37","64.05","NAN","0.0"],
    [1539579,"2026-01-29 21:20:00","51335","0.485","333.0","1.699","271.9","1001.7719999999999","12.3","64.99","NAN","0.0"],
    [1539580,"2026-01-29 21:30:00","51336","1.208","283.5","3.5610000000000004","239.2","1001.9119999999999","12.45","65.43","NAN","0.0"],
    [1539581,"2026-01-29 21:40:00","51337","1.021","313.6","2.5810000000000004","344.2","1002.085","12.56","65.15","NAN","0.0"],
    [1539582,"2026-01-29 21:50:00","51338","0.941","317.1","2.5810000000000004","308.7","1002.0060000000001","12.55","65.34","NAN","0.0"],
    [1539583,"2026-01-29 22:00:00","51339","0.664","228.9","2.221","218.4","1002.243","12.32","66.63","NAN","0.0"],
    [1539584,"2026-01-29 22:10:00","51340","0.644","261.7","1.797","288.0","1002.323","12","68.4","NAN","0.0"],
    [1539585,"2026-01-29 22:20:00","51341","0.644","275.5","2.352","318.7","1002.44","12.06","68.15","NAN","0.0"],
    [1539586,"2026-01-29 22:30:00","51342","0.649","261.1","2.123","268.6","1002.313","12.12","68.02","NAN","0.0"],
    [1539587,"2026-01-29 22:40:00","51343","0.687","256.0","2.025","278.6","1002.335","12.19","67.91","NAN","0.0"],
    [1539588,"2026-01-29 22:50:00","51344","0.436","222.8","1.307","242.5","1002.6160000000001","12.15","68.31","NAN","0.0"],
    [1539589,"2026-01-29 23:00:00","51345","0.364","132.6","1.307","189.8","1002.466","11.76","70.96","NAN","0.0"],
    [1539590,"2026-01-29 23:10:00","51346","0.293","191.0","0.98","185.3","1002.4989999999999","11.67","70.79","NAN","0.0"],
    [1539591,"2026-01-29 23:20:00","51347","0.5579999999999999","189.3","1.176","199.1","1002.548","11.48","72.85","NAN","0.0"],
    [1539592,"2026-01-29 23:30:00","51348","0.209","70.25","0.7190000000000001","63.44","1002.502","11.26","74.49","NAN","0.0"],
    [1539593,"2026-01-29 23:40:00","51349","0.319","3.536","1.535","313.9","1002.457","11.4","73.65","NAN","0.0"],
    [1539594,"2026-01-29 23:50:00","51350","1.193","334.8","3.234","320.1","1002.572","12.55","67.13","NAN","0.0"],
    [1539595,"2026-01-30 00:00:00","51351","0.696","324.4","2.0909999999999997","272.1","1002.497","12.97","64.78","NAN","0.0"],
    [1539596,"2026-01-30 00:10:00","51352","0.447","219.4","1.209","202.3","1002.3489999999999","12.85","65.25","NAN","0.0"],
    [1539597,"2026-01-30 00:20:00","51353","0.09","226.8","0.7190000000000001","211.0","1002.617","12.53","67.06","NAN","0.0"],
    [1539598,"2026-01-30 00:30:00","51354","0.496","212.4","1.209","168.5","1002.4639999999999","12.36","67.76","NAN","0.0"],
    [1539599,"2026-01-30 00:40:00","51355","0.607","196.5","1.47","185.1","1002.201","11.8","71.79","NAN","0.0"],
    [1539600,"2026-01-30 00:50:00","51356","0.321","245.2","1.568","189.0","1002.328","11.54","71.55","NAN","0.0"],
    [1539601,"2026-01-30 01:00:00","51357","0.091","155.9","0.457","0.192","1002.3389999999999","11.48","71.35","NAN","0.0"],
    [1539602,"2026-01-30 01:10:00","51358","0.059000000000000004","39.55","0.425","39.51","1002.319","11.24","72.54","NAN","0.0"],
    [1539603,"2026-01-30 01:20:00","51359","0.115","122.1","0.555","120.2","1002.311","11.07","74.1","NAN","0.0"],
    [1539604,"2026-01-30 01:30:00","51360","0.525","47.08","1.339","68.74","1002.25","10.99","74.91","NAN","0.0"],
    [1539605,"2026-01-30 01:40:00","51361","0.267","119.6","1.143","99.6","1002.166","10.8","74.89","NAN","0.0"],
    [1539606,"2026-01-30 01:50:00","51362","0.392","216.5","0.882","210.5","1002.2919999999999","10.49","76.85","NAN","0.0"],
    [1539607,"2026-01-30 02:00:00","51363","0.397","217.1","1.078","186.7","1002.19","10.41","81.1","NAN","0.0"],
    [1539608,"2026-01-30 02:10:00","51364","0.25","316.5","0.882","325.9","1002.181","10.58","78.02","NAN","0.0"],
    [1539609,"2026-01-30 02:20:00","51365","0.128","300.1","0.523","330.6","1002.243","10.79","75.72","NAN","0.0"],
    [1539610,"2026-01-30 02:30:00","51366","0.21899999999999997","89.1","1.013","311.2","1002.2460000000001","10.54","77.68","NAN","0.0"],
    [1539611,"2026-01-30 02:40:00","51367","0.16399999999999998","318.7","1.2409999999999999","39.68","1002.373","10.61","77.56","NAN","0.0"],
    [1539612,"2026-01-30 02:50:00","51368","0.313","292.1","1.2409999999999999","319.9","1002.4760000000001","11.08","73.03","NAN","0.0"],
    [1539613,"2026-01-30 03:00:00","51369","0.517","333.2","2.385","327.7","1002.5319999999999","11.57","69.84","NAN","0.0"],
    [1539614,"2026-01-30 03:10:00","51370","0.615","352.9","1.797","319.0","1002.512","11.48","69.79","NAN","0.0"],
    [1539615,"2026-01-30 03:20:00","51371","0.976","325.3","2.123","288.9","1002.66","12.01","66.94","NAN","0.0"],
    [1539616,"2026-01-30 03:30:00","51372","1.358","310.6","4.835","248.0","1002.696","12.24","65.09","NAN","0.0"],
    [1539617,"2026-01-30 03:40:00","51373","1.581","313.1","4.4430000000000005","275.8","1002.687","12.53","61.86","NAN","0.0"],
    [1539618,"2026-01-30 03:50:00","51374","2.283","331.6","5.619","318.9","1002.873","12.66","60.15","NAN","0.0"],
    [1539619,"2026-01-30 04:00:00","51375","1.7480000000000002","331.9","4.083","319.6","1002.8660000000001","12.6","59.98","NAN","0.0"],
    [1539620,"2026-01-30 04:10:00","51376","1.834","329.0","4.475","311.0","1003.013","12.39","61.14","NAN","0.0"],
    [1539621,"2026-01-30 04:20:00","51377","2.225","325.4","4.737","337.6","1003.135","12.17","62.41","NAN","0.0"],
    [1539622,"2026-01-30 04:30:00","51378","1.639","326.5","4.279","309.5","1003.372","12.01","62.7","NAN","0.0"],
    [1539623,"2026-01-30 04:40:00","51379","2.028","328.3","4.704","306.5","1003.4639999999999","12.02","61.55","NAN","0.0"],
    [1539624,"2026-01-30 04:50:00","51380","1.138","327.6","5.031000000000001","280.8","1003.546","12.02","59.56","NAN","0.0"],
    [1539625,"2026-01-30 05:00:00","51381","1.395","322.5","4.606","312.3","1003.6469999999999","11.94","58.77","NAN","0.0"],
    [1539626,"2026-01-30 05:10:00","51382","1.9880000000000002","326.7","4.606","330.1","1003.795","11.68","60.06","NAN","0.0"],
    [1539627,"2026-01-30 05:20:00","51383","1.5319999999999998","338.9","4.312","315.4","1003.862","11.51","60.44","NAN","0.0"],
    [1539628,"2026-01-30 05:30:00","51384","1.695","331.8","4.737","296.8","1003.987","11.51","59.75","NAN","0.0"],
    [1539629,"2026-01-30 05:40:00","51385","1.8319999999999999","323.0","4.9","315.8","1004.2189999999999","11.61","58.69","NAN","0.0"],
    [1539630,"2026-01-30 05:50:00","51386","1.694","320.9","4.835","303.5","1004.303","11.66","57.69","NAN","0.0"],
    [1539631,"2026-01-30 06:00:00","51387","1.983","326.8","4.835","320.3","1004.2760000000001","11.84","55.7","NAN","0.0"],
    [1539632,"2026-01-30 06:10:00","51388","1.338","304.8","5.422999999999999","312.9","1004.305","11.98","53.98","NAN","0.0"],
    [1539633,"2026-01-30 06:20:00","51389","1.6669999999999998","290.4","5.749","304.9","1004.278","11.76","54.64","NAN","0.0"],
    [1539634,"2026-01-30 06:30:00","51390","1.206","291.9","4.475","327.7","1004.303","11.93","52.6","NAN","0.0"],
    [1539635,"2026-01-30 06:40:00","51391","1.9869999999999999","313.3","5.651","339.4","1004.32","12.25","50.15","NAN","0.0"],
    [1539636,"2026-01-30 06:50:00","51392","1.6909999999999998","318.2","5.455","315.5","1004.38","12.35","49.03","NAN","0.0"],
    [1539637,"2026-01-30 07:00:00","51393","1.68","317.4","5.227","336.5","1004.515","12.41","48.31","NAN","0.0"],
    [1539638,"2026-01-30 07:10:00","51394","2.1919999999999997","328.9","6.042999999999999","323.9","1004.6439999999999","12.54","47.45","NAN","0.0"],
    [1539639,"2026-01-30 07:20:00","51395","2.727","332.3","8.0","315.3","1004.677","12.72","46.29","NAN","0.0"],
    [1539640,"2026-01-30 07:30:00","51396","2.907","330.8","6.435","322.5","1004.941","12.53","47.69","NAN","0.0"],
    [1539641,"2026-01-30 07:40:00","51397","2.608","328.4","6.239","304.0","1005.173","12.34","49.08","NAN","0.0"],
    [1539642,"2026-01-30 07:50:00","51398","2.228","327.1","6.207000000000001","310.1","1005.279","12.33","49.16","NAN","0.0"],
    [1539643,"2026-01-30 08:00:00","51399","2.269","324.0","4.508","313.3","1005.4939999999999","12.52","48.03","NAN","0.0"],
    [1539644,"2026-01-30 08:10:00","51400","1.7269999999999999","308.7","5.2589999999999995","314.2","1005.716","12.56","47.92","NAN","0.0"],
    [1539645,"2026-01-30 08:20:00","51401","1.285","285.0","4.279","273.4","1006.128","12.68","47.61","NAN","0.0"],
    [1539646,"2026-01-30 08:30:00","51402","1.486","260.0","4.475","296.3","1006.372","12.86","47.32","NAN","0.0"],
    [1539647,"2026-01-30 08:40:00","51403","1.315","301.8","4.312","313.4","1006.372","12.97","47.01","NAN","0.0"],
    [1539648,"2026-01-30 08:50:00","51404","2.158","337.9","3.92","348.4","1006.204","13.02","46.82","NAN","0.0"],
    [1539649,"2026-01-30 09:00:00","51405","2.524","344.1","5.945","324.1","1006.0139999999999","13.26","45.84","NAN","0.0"],
    [1539650,"2026-01-30 09:10:00","51406","1.8730000000000002","308.8","5.586","316.5","1006.311","13.78","43.67","NAN","0.0"],
    [1539651,"2026-01-30 09:20:00","51407","1.672","278.5","4.247","300.6","1006.6160000000001","14.12","42.72","NAN","0.0"],
    [1539652,"2026-01-30 09:30:00","51408","1.297","314.7","3.593","321.6","1006.523","14.35","42.3","NAN","0.0"],
    [1539653,"2026-01-30 09:40:00","51409","2.654","327.2","5.945","310.9","1006.132","14.31","41.97","NAN","0.0"],
    [1539654,"2026-01-30 09:50:00","51410","1.88","267.7","5.651","319.4","1006.2230000000001","14.64","41.14","NAN","0.0"],
    [1539655,"2026-01-30 10:00:00","51411","1.666","240.8","4.018","247.4","1006.6239999999999","14.97","40.21","NAN","0.0"],
    [1539656,"2026-01-30 10:10:00","51412","1.504","275.5","5.357","257.7","1006.7819999999999","15.45","38.42","NAN","0.0"],
    [1539657,"2026-01-30 10:20:00","51413","2.36","328.6","6.272","312.2","1006.508","15.53","38.2","NAN","0.0"],
    [1539658,"2026-01-30 10:30:00","51414","2.523","327.7","7.023","317.0","1006.24","15.29","39.55","NAN","0.0"],
    [1539659,"2026-01-30 10:40:00","51415","2.116","326.6","5.4879999999999995","324.6","1006.26","15.33","40.24","NAN","0.0"],
    [1539660,"2026-01-30 10:50:00","51416","1.663","330.1","4.41","309.3","1006.317","15.66","38.67","NAN","0.0"],
    [1539661,"2026-01-30 11:00:00","51417","0.935","270.1","3.7569999999999997","350.0","1006.304","16.27","37.44","NAN","0.0"],
    [1539662,"2026-01-30 11:10:00","51418","1.246","284.2","3.5610000000000004","214.0","1006.275","16.41","36.64","NAN","0.0"],
    [1539663,"2026-01-30 11:20:00","51419","1.111","293.7","3.5610000000000004","249.9","1006.2560000000001","16.49","36.37","NAN","0.0"],
    [1539664,"2026-01-30 11:30:00","51420","1.288","289.1","4.312","312.4","1006.14","16.6","36.21","NAN","0.0"],
    [1539665,"2026-01-30 11:40:00","51421","1.8840000000000001","300.4","6.957999999999999","315.2","1006.003","16.37","37.43","NAN","0.0"],
    [1539666,"2026-01-30 11:50:00","51422","2.4530000000000003","275.3","5.912999999999999","226.9","1005.868","16.36","37.31","NAN","0.0"],
    [1539667,"2026-01-30 12:00:00","51423","2.033","283.5","5.292000000000001","295.2","1005.655","16.52","37.54","NAN","0.0"],
    [1539668,"2026-01-30 12:10:00","51424","1.868","290.4","6.272","288.6","1005.424","16.85","37.35","NAN","0.0"],
    [1539669,"2026-01-30 12:20:00","51425","1.395","268.8","3.43","305.6","1005.17","17.01","37.36","NAN","0.0"],
    [1539670,"2026-01-30 12:30:00","51426","2.276","267.1","5.88","270.1","1004.995","17.07","36.61","NAN","0.0"],
    [1539671,"2026-01-30 12:40:00","51427","1.9","259.1","4.638999999999999","239.9","1004.798","17.39","35.96","NAN","0.0"],
    [1539672,"2026-01-30 12:50:00","51428","2.22","272.4","4.9","322.9","1004.717","17.64","35.56","NAN","0.0"],
    [1539673,"2026-01-30 13:00:00","51429","2.4019999999999997","274.3","6.729","262.7","1004.622","17.71","34.47","NAN","0.0"],
    [1539674,"2026-01-30 13:10:00","51430","1.9409999999999998","290.8","6.957999999999999","287.8","1004.309","17.83","34.27","NAN","0.0"],
    [1539675,"2026-01-30 13:20:00","51431","2.784","267.9","6.501","286.5","1004.1139999999999","17.83","34.28","NAN","0.0"],
    [1539676,"2026-01-30 13:30:00","51432","2.98","249.6","7.611000000000001","267.2","1004.107","17.68","34.23","NAN","0.0"],
    [1539677,"2026-01-30 13:40:00","51433","1.9869999999999999","253.3","6.0760000000000005","243.5","1004.1289999999999","17.82","34.38","NAN","0.0"],
    [1539678,"2026-01-30 13:50:00","51434","2.3369999999999997","262.8","7.154","283.9","1003.938","17.88","33.86","NAN","0.0"],
    [1539679,"2026-01-30 14:00:00","51435","2.645","266.6","7.154","290.5","1003.7189999999999","17.69","34.3","NAN","0.0"],
    [1539680,"2026-01-30 14:10:00","51436","2.28","286.8","6.435","242.2","1003.508","17.85","34.3","NAN","0.0"],
    [1539681,"2026-01-30 14:20:00","51437","2.9739999999999998","262.5","5.912999999999999","263.8","1003.4119999999999","17.9","34.27","NAN","0.0"],
    [1539682,"2026-01-30 14:30:00","51438","2.7239999999999998","250.2","6.9910000000000005","247.1","1003.462","17.91","34.01","NAN","0.0"],
    [1539683,"2026-01-30 14:40:00","51439","1.963","253.8","5.031000000000001","232.9","1003.375","17.86","34.51","NAN","0.0"],
    [1539684,"2026-01-30 14:50:00","51440","2.063","248.5","5.521","281.9","1003.341","18.04","35.16","NAN","0.0"],
    [1539685,"2026-01-30 15:00:00","51441","1.3019999999999998","245.2","3.7569999999999997","257.4","1003.237","17.94","35.74","NAN","0.0"],
    [1539686,"2026-01-30 15:10:00","51442","1.501","244.8","6.272","264.2","1003.262","18.07","35.71","NAN","0.0"],
    [1539687,"2026-01-30 15:20:00","51443","1.89","237.4","6.305","215.7","1003.2080000000001","17.7","36.6","NAN","0.0"],
    [1539688,"2026-01-30 15:30:00","51444","2.364","248.7","6.042999999999999","241.5","1003.209","17.47","39.22","NAN","0.0"],
    [1539689,"2026-01-30 15:40:00","51445","1.611","204.9","4.41","252.4","1003.2610000000001","16.69","49.11","NAN","0.0"],
    [1539690,"2026-01-30 15:50:00","51446","1.226","211.0","4.083","228.2","1003.314","16.88","46.54","NAN","0.0"],
    [1539691,"2026-01-30 16:00:00","51447","1.9469999999999998","221.3","4.704","221.4","1003.3480000000001","16.74","48.59","NAN","0.0"],
    [1539692,"2026-01-30 16:10:00","51448","2.506","216.3","6.305","206.9","1003.2919999999999","16.28","51.04","NAN","0.0"],
    [1539693,"2026-01-30 16:20:00","51449","2.465","229.2","5.847","224.3","1003.308","15.77","53.11","NAN","0.0"],
    [1539694,"2026-01-30 16:30:00","51450","1.976","213.4","5.1610000000000005","178.6","1003.24","15.43","56.04","NAN","0.0"],
    [1539695,"2026-01-30 16:40:00","51451","2.324","209.1","6.272","223.5","1003.1460000000001","14.98","63.2","NAN","0.0"],
    [1539696,"2026-01-30 16:50:00","51452","2.52","229.5","6.109","226.2","1002.9810000000001","14.68","65.91","NAN","0.0"],
    [1539697,"2026-01-30 17:00:00","51453","1.4369999999999998","222.0","3.593","208.5","1002.814","14.57","67.25","NAN","0.0"],
    [1539698,"2026-01-30 17:10:00","51454","1.494","213.4","4.051","229.8","1002.887","14.48","67.79","NAN","0.0"],
    [1539699,"2026-01-30 17:20:00","51455","1.528","219.6","3.5610000000000004","203.0","1002.921","14.31","69.21","NAN","0.0"],
    [1539700,"2026-01-30 17:30:00","51456","1.16","218.8","2.7769999999999997","208.9","1002.75","14.19","68.97","NAN","0.0"],
    [1539701,"2026-01-30 17:40:00","51457","1.374","226.0","3.5610000000000004","231.4","1002.66","14.04","68.9","NAN","0.0"],
    [1539702,"2026-01-30 17:50:00","51458","1.3730000000000002","237.4","3.234","261.3","1002.498","14.12","66.58","NAN","0.0"],
    [1539703,"2026-01-30 18:00:00","51459","1.2819999999999998","239.7","2.8089999999999997","234.6","1002.4910000000001","14.2","63.58","NAN","0.0"],
    [1539704,"2026-01-30 18:10:00","51460","0.758","212.3","1.405","254.7","1002.314","14.03","63.44","NAN","0.0"],
    [1539705,"2026-01-30 18:20:00","51461","0.6409999999999999","226.1","1.829","223.4","1002.1339999999999","13.74","63.16","NAN","0.0"],
    [1539706,"2026-01-30 18:30:00","51462","0.975","232.5","2.221","243.6","1001.975","14.07","59.67","NAN","0.0"],
    [1539707,"2026-01-30 18:40:00","51463","0.38","217.9","1.797","225.2","1001.688","14.03","59.36","NAN","0.0"],
    [1539708,"2026-01-30 18:50:00","51464","0.168","201.2","1.2409999999999999","236.5","1001.387","14.06","57.9","NAN","0.0"],
    [1539709,"2026-01-30 19:00:00","51465","0.405","176.8","0.784","218.3","1001.188","13.92","58.35","NAN","0.0"],
    [1539710,"2026-01-30 19:10:00","51466","0.004","151.2","0.294","151.4","1000.997","13.55","59.56","NAN","0.0"],
    [1539711,"2026-01-30 19:20:00","51467","0.05","140.3","0.523","171.9","1000.762","13.65","58.72","NAN","0.0"],
    [1539712,"2026-01-30 19:30:00","51468","0.539","195.2","1.013","177.1","1000.4110000000001","13.76","59.22","NAN","0.0"],
    [1539713,"2026-01-30 19:40:00","51469","0.192","221.3","0.7509999999999999","194.8","1000.257","13.95","55.24","NAN","0.0"],
    [1539714,"2026-01-30 19:50:00","51470","0.581","289.3","2.385","316.2","1000.242","14.61","48.89","NAN","0.0"],
    [1539715,"2026-01-30 20:00:00","51471","1.005","286.1","3.332","269.4","1000.222","15.12","44.99","NAN","0.0"],
    [1539716,"2026-01-30 20:10:00","51472","1.2770000000000001","288.7","3.9530000000000003","280.8","1000.1569999999999","15.13","44.69","NAN","0.0"],
    [1539717,"2026-01-30 20:20:00","51473","1.609","308.4","3.593","283.4","1000.06","14.94","46.06","NAN","0.0"],
    [1539718,"2026-01-30 20:30:00","51474","2.957","319.5","6.7620000000000005","310.0","999.9479","14.48","48.7","NAN","0.0"],
    [1539719,"2026-01-30 20:40:00","51475","3.0639999999999996","327.8","7.742000000000001","309.0","999.9203","14.03","51.8","NAN","0.0"],
    [1539720,"2026-01-30 20:50:00","51476","2.526","320.4","7.252000000000001","310.6","999.7933","13.66","54.09","NAN","0.0"],
    [1539721,"2026-01-30 21:00:00","51477","2.661","324.0","7.121","324.5","999.7136","13.48","56.14","NAN","0.0"],
    [1539722,"2026-01-30 21:10:00","51478","2.806","333.0","5.357","315.2","999.5516","13.09","59.52","NAN","0.0"],
    [1539723,"2026-01-30 21:20:00","51479","2.425","331.4","5.912999999999999","304.9","999.3126","12.69","62.83","NAN","0.0"],
    [1539724,"2026-01-30 21:30:00","51480","1.815","325.7","4.737","348.8","999.2679","12.58","62.72","NAN","0.0"],
    [1539725,"2026-01-30 21:40:00","51481","1.801","324.1","6.501","310.6","999.1885","12.69","61.11","NAN","0.0"],
    [1539726,"2026-01-30 21:50:00","51482","1.486","310.2","4.769","327.4","999.0252","12.76","59.75","NAN","0.0"],
    [1539727,"2026-01-30 22:00:00","51483","1.571","288.1","4.802","317.9","998.9321","12.74","59.72","NAN","0.0"],
    [1539728,"2026-01-30 22:10:00","51484","1.7530000000000001","310.8","4.508","289.0","998.76","12.73","59.06","NAN","0.0"],
    [1539729,"2026-01-30 22:20:00","51485","1.876","333.5","4.508","317.6","998.5187","12.59","60.48","NAN","0.0"],
    [1539730,"2026-01-30 22:30:00","51486","0.7879999999999999","304.7","2.287","311.6","998.2905","12.52","61.28","NAN","0.0"],
    [1539731,"2026-01-30 22:40:00","51487","1.213","298.6","3.136","257.1","998.2809","12.48","61.55","NAN","0.0"],
    [1539732,"2026-01-30 22:50:00","51488","1.15","293.5","3.593","300.6","998.1343","12.48","61.75","NAN","0.0"],
    [1539733,"2026-01-30 23:00:00","51489","0.915","323.6","3.332","333.5","997.9105","12.36","62.77","NAN","0.0"],
    [1539734,"2026-01-30 23:10:00","51490","1.069","314.5","3.267","334.8","997.6722","12.35","62.46","NAN","0.0"],
    [1539735,"2026-01-30 23:20:00","51491","0.447","282.3","2.613","305.4","997.5284","12.31","63.26","NAN","0.0"],
    [1539736,"2026-01-30 23:30:00","51492","0.968","260.8","2.483","250.8","997.4351","12.29","62.54","NAN","0.0"],
    [1539737,"2026-01-30 23:40:00","51493","1.045","251.5","2.7439999999999998","274.0","997.2946","12.29","62.4","NAN","0.0"],
    [1539738,"2026-01-30 23:50:00","51494","1.4909999999999999","251.3","3.103","250.7","997.1282","12.2","61.9","NAN","0.0"],
    [1539739,"2026-01-31 00:00:00","51495","0.883","290.8","3.43","283.1","997.0133","12.25","61.54","NAN","0.0"],
    [1539740,"2026-01-31 00:10:00","51496","0.315","275.8","1.2409999999999999","259.0","996.8302","12.33","61.26","NAN","0.0"],
    [1539741,"2026-01-31 00:20:00","51497","1.212","221.3","2.842","215.2","996.7463","12.26","61.93","NAN","0.0"],
    [1539742,"2026-01-31 00:30:00","51498","1.405","228.2","2.9730000000000003","248.6","996.5956","12.21","61.78","NAN","0.0"],
    [1539743,"2026-01-31 00:40:00","51499","1.3780000000000001","235.8","3.332","276.2","996.5533","12.08","62.62","NAN","0.0"],
    [1539744,"2026-01-31 00:50:00","51500","1.198","248.6","3.103","264.6","996.4148","12.05","62.84","NAN","0.0"],
    [1539745,"2026-01-31 01:00:00","51501","1.024","250.2","2.7769999999999997","293.7","996.1866","12.09","62.02","NAN","0.0"],
    [1539746,"2026-01-31 01:10:00","51502","1.3230000000000002","231.8","3.365","244.5","995.9355","12.1","61.8","NAN","0.0"],
    [1539747,"2026-01-31 01:20:00","51503","1.1640000000000001","240.0","2.548","223.6","995.7715","11.84","63.51","NAN","0.0"],
    [1539748,"2026-01-31 01:30:00","51504","0.609","242.2","1.7309999999999999","257.0","995.6639","11.7","64.47","NAN","0.0"],
    [1539749,"2026-01-31 01:40:00","51505","0.818","265.8","1.8619999999999999","276.1","995.4955","11.65","64.03","NAN","0.0"],
    [1539750,"2026-01-31 01:50:00","51506","1.166","235.2","2.679","234.9","995.4379","11.87","62.56","NAN","0.0"],
    [1539751,"2026-01-31 02:00:00","51507","1.314","235.8","3.299","229.7","995.2853","11.82","62.11","NAN","0.0"],
    [1539752,"2026-01-31 02:10:00","51508","1.9580000000000002","238.6","4.312","235.9","995.2478","11.84","61.36","NAN","0.0"],
    [1539753,"2026-01-31 02:20:00","51509","2.263","238.5","4.279","253.4","995.3275","11.71","62.36","NAN","0.0"],
    [1539754,"2026-01-31 02:30:00","51510","2.167","241.4","4.1160000000000005","229.5","995.3424","11.5","63.84","NAN","0.0"],
    [1539755,"2026-01-31 02:40:00","51511","1.6230000000000002","247.5","4.4430000000000005","236.9","995.3898","11.43","64.2","NAN","0.0"],
    [1539756,"2026-01-31 02:50:00","51512","2.667","264.6","5.749","275.8","995.3073","11.72","61.82","NAN","0.0"],
    [1539757,"2026-01-31 03:00:00","51513","1.8880000000000001","259.1","4.312","304.8","995.1481","11.67","61.99","NAN","0.0"],
    [1539758,"2026-01-31 03:10:00","51514","1.955","275.3","4.9","271.6","995.2280000000001","11.62","62.23","NAN","0.0"],
    [1539759,"2026-01-31 03:20:00","51515","1.107","319.9","3.005","303.2","995.3524","11.53","62.7","NAN","0.0"],
    [1539760,"2026-01-31 03:30:00","51516","1.6340000000000001","271.0","3.92","293.8","995.325","11.45","63.13","NAN","0.0"],
    [1539761,"2026-01-31 03:40:00","51517","1.725","277.0","3.397","294.3","995.2276","11.43","63.41","NAN","0.0"],
    [1539762,"2026-01-31 03:50:00","51518","1.3330000000000002","277.4","4.083","306.7","995.2029","11.4","63.81","NAN","0.0"],
    [1539763,"2026-01-31 04:00:00","51519","1.6130000000000002","285.7","3.92","278.0","995.2779","11.36","64.17","NAN","0.0"],
    [1539764,"2026-01-31 04:10:00","51520","1.7890000000000001","305.4","4.247","317.0","995.3723","11.27","64.58","NAN","0.0"],
    [1539765,"2026-01-31 04:20:00","51521","2.096","323.5","7.121","294.4","995.4823","11.23","64.44","NAN","0.0"],
    [1539766,"2026-01-31 04:30:00","51522","0.7929999999999999","313.3","2.221","316.9","995.6767","11.13","65.18","NAN","0.0"],
    [1539767,"2026-01-31 04:40:00","51523","1.439","307.6","3.822","314.3","995.9882","10.94","66.32","NAN","0.0"],
    [1539768,"2026-01-31 04:50:00","51524","1.375","290.2","3.267","312.1","996.3443","10.85","66.83","NAN","0.0"],
    [1539769,"2026-01-31 05:00:00","51525","1.492","283.1","3.5610000000000004","323.3","996.5333","10.62","66.49","NAN","0.0"],
    [1539770,"2026-01-31 05:10:00","51526","1.381","295.6","4.606","305.0","996.7102","10.56","66.2","NAN","0.0"],
    [1539771,"2026-01-31 05:20:00","51527","1.262","311.8","3.9530000000000003","287.8","996.7526","10.45","65.67","NAN","0.0"],
    [1539772,"2026-01-31 05:30:00","51528","1.462","314.8","3.6910000000000003","321.4","996.8296","10.31","65.87","NAN","0.0"],
    [1539773,"2026-01-31 05:40:00","51529","1.0490000000000002","313.4","3.528","290.0","996.9048","10.07","67.42","NAN","0.0"],
    [1539774,"2026-01-31 05:50:00","51530","1.365","316.5","4.508","286.2","997.1387","10.14","67.02","NAN","0.0"],
    [1539775,"2026-01-31 06:00:00","51531","1.51","298.0","6.9910000000000005","292.0","997.3408","10.25","65.86","NAN","0.0"],
    [1539776,"2026-01-31 06:10:00","51532","1.4869999999999999","291.3","4.1160000000000005","255.8","997.6415","10.2","65.72","NAN","0.0"],
    [1539777,"2026-01-31 06:20:00","51533","2.042","300.3","4.998","301.3","997.7519","10.2","64.65","NAN","0.0"],
    [1539778,"2026-01-31 06:30:00","51534","2.093","307.9","6.239","325.0","997.9233","10.28","61.19","NAN","0.0"],
    [1539779,"2026-01-31 06:40:00","51535","1.929","292.3","6.827000000000001","261.9","998.1679","10.28","58.85","NAN","0.0"],
    [1539780,"2026-01-31 06:50:00","51536","2.552","292.7","9.08","268.4","998.4096","10.25","56.96","NAN","0.0"],
    [1539781,"2026-01-31 07:00:00","51537","3.114","307.6","8.66","284.2","998.7522","10.28","55.46","NAN","0.0"],
    [1539782,"2026-01-31 07:10:00","51538","1.9480000000000002","284.2","6.239","342.2","998.9728","10.24","55.1","NAN","0.0"],
    [1539783,"2026-01-31 07:20:00","51539","1.6880000000000002","286.3","6.011","281.5","999.2634","10.18","55","NAN","0.0"],
    [1539784,"2026-01-31 07:30:00","51540","2.323","291.4","6.109","298.2","999.4589","10.12","54.82","NAN","0.0"],
    [1539785,"2026-01-31 07:40:00","51541","2.358","303.3","8.82","323.5","999.7111","10.08","54.7","NAN","0.0"],
    [1539786,"2026-01-31 07:50:00","51542","2.017","323.0","5.325","313.2","1000.0160000000001","10.04","54.76","NAN","0.0"],
    [1539787,"2026-01-31 08:00:00","51543","1.466","330.7","4.247","323.3","1000.283","10.04","54.75","NAN","0.0"],
    [1539788,"2026-01-31 08:10:00","51544","1.406","339.4","4.149","311.5","1000.385","10.02","54.87","NAN","0.0"],
    [1539789,"2026-01-31 08:20:00","51545","1.758","308.0","7.252000000000001","287.4","1000.4939999999999","10.03","54.6","NAN","0.0"],
    [1539790,"2026-01-31 08:30:00","51546","1.494","331.3","5.88","296.5","1000.528","10.08","54.37","NAN","0.0"],
    [1539791,"2026-01-31 08:40:00","51547","2.884","322.2","6.631","319.5","1000.6060000000001","10.17","53.67","NAN","0.0"],
    [1539792,"2026-01-31 08:50:00","51548","2.517","331.5","6.0760000000000005","313.1","1000.7689999999999","10.24","53.34","NAN","0.0"],
    [1539793,"2026-01-31 09:00:00","51549","1.433","339.8","4.1160000000000005","356.7","1000.997","10.31","53.29","NAN","0.0"],
    [1539794,"2026-01-31 09:10:00","51550","1.62","344.1","6.566","317.8","1001.227","10.64","52.43","NAN","0.0"],
    [1539795,"2026-01-31 09:20:00","51551","1.463","328.1","3.92","28.25","1001.4060000000001","11.08","51.16","NAN","0.0"],
    [1539796,"2026-01-31 09:30:00","51552","1.3459999999999999","297.8","2.875","269.8","1001.671","11.44","50.11","NAN","0.0"],
    [1539797,"2026-01-31 09:40:00","51553","0.9309999999999999","284.8","3.659","303.4","1001.9019999999999","11.67","49.76","NAN","0.0"],
    [1539798,"2026-01-31 09:50:00","51554","1.9480000000000002","321.6","5.227","321.7","1002.002","11.64","49.56","NAN","0.0"],
    [1539799,"2026-01-31 10:00:00","51555","2.353","297.1","5.749","298.3","1002.191","11.94","48.57","NAN","0.0"],
    [1539800,"2026-01-31 10:10:00","51556","1.74","316.6","4.638999999999999","335.3","1002.3889999999999","12.31","47.48","NAN","0.0"],
    [1539801,"2026-01-31 10:20:00","51557","1.9380000000000002","307.8","5.912999999999999","322.6","1002.574","12.62","46.35","NAN","0.0"],
    [1539802,"2026-01-31 10:30:00","51558","2.64","326.2","6.207000000000001","316.4","1002.7510000000001","12.63","46.28","NAN","0.0"],
    [1539803,"2026-01-31 10:40:00","51559","2.6460000000000004","331.7","5.815","328.4","1002.905","12.72","46.14","NAN","0.0"],
    [1539804,"2026-01-31 10:50:00","51560","2.269","332.8","4.867","353.3","1002.9889999999999","13","45.77","NAN","0.0"],
    [1539805,"2026-01-31 11:00:00","51561","2.4419999999999997","332.1","5.945","326.5","1003.1560000000001","13.35","44.87","NAN","0.0"],
    [1539806,"2026-01-31 11:10:00","51562","2.3","340.1","5.227","317.0","1003.2310000000001","13.5","44.4","NAN","0.0"],
    [1539807,"2026-01-31 11:20:00","51563","2.476","330.4","6.109","314.2","1003.311","13.83","43.27","NAN","0.0"],
    [1539808,"2026-01-31 11:30:00","51564","3.05","330.2","8.82","321.1","1003.3430000000001","13.94","42.83","NAN","0.0"],
    [1539809,"2026-01-31 11:40:00","51565","2.906","334.7","7.4479999999999995","309.0","1003.4730000000001","14.12","42.56","NAN","0.0"],
    [1539810,"2026-01-31 11:50:00","51566","2.738","326.2","7.807","294.6","1003.645","14.44","42","NAN","0.0"],
    [1539811,"2026-01-31 12:00:00","51567","2.628","333.1","7.382999999999999","316.4","1003.7439999999999","14.6","41.72","NAN","0.0"],
    [1539812,"2026-01-31 12:10:00","51568","3.2880000000000003","324.9","9.21","307.0","1003.784","14.56","41.86","NAN","0.0"],
    [1539813,"2026-01-31 12:20:00","51569","3.463","321.6","8.33","266.5","1003.779","14.71","41.68","NAN","0.0"],
    [1539814,"2026-01-31 12:30:00","51570","3.352","330.5","8.2","329.5","1003.7589999999999","14.78","41.11","NAN","0.0"],
    [1539815,"2026-01-31 12:40:00","51571","2.369","330.9","8.26","310.2","1003.737","15.25","40.13","NAN","0.0"],
    [1539816,"2026-01-31 12:50:00","51572","2.3","338.9","7.285","326.8","1003.8439999999999","15.17","40.17","NAN","0.0"],
    [1539817,"2026-01-31 13:00:00","51573","2.9810000000000003","319.8","7.905","311.9","1003.9780000000001","15.23","40.43","NAN","0.0"],
    [1539818,"2026-01-31 13:10:00","51574","1.986","311.9","5.945","322.4","1004.0110000000001","15.37","40.93","NAN","0.0"],
    [1539819,"2026-01-31 13:20:00","51575","1.933","296.0","5.357","17.2","1004.115","15.77","40.2","NAN","0.0"],
    [1539820,"2026-01-31 13:30:00","51576","2.148","324.9","8.75","316.9","1004.198","15.87","39.73","NAN","0.0"],
    [1539821,"2026-01-31 13:40:00","51577","2.115","323.1","7.938","240.7","1004.252","15.84","39.32","NAN","0.0"],
    [1539822,"2026-01-31 13:50:00","51578","2.332","306.9","6.566","325.8","1004.375","15.84","38.91","NAN","0.0"],
    [1539823,"2026-01-31 14:00:00","51579","2.155","277.8","5.357","286.7","1004.6510000000001","15.91","38.92","NAN","0.0"],
    [1539824,"2026-01-31 14:10:00","51580","3.103","317.6","7.218999999999999","314.5","1004.8989999999999","15.9","39.22","NAN","0.0"],
    [1539825,"2026-01-31 14:20:00","51581","2.66","320.3","6.957999999999999","310.8","1005.0219999999999","15.71","40.05","NAN","0.0"],
    [1539826,"2026-01-31 14:30:00","51582","1.63","307.0","6.435","314.7","1005.0880000000001","15.89","39.91","NAN","0.0"],
    [1539827,"2026-01-31 14:40:00","51583","1.89","292.6","5.912999999999999","278.5","1005.247","16.02","39.41","NAN","0.0"],
    [1539828,"2026-01-31 14:50:00","51584","1.1420000000000001","274.6","4.2139999999999995","248.8","1005.2180000000001","16.33","39.3","NAN","0.0"],
    [1539829,"2026-01-31 15:00:00","51585","2.673","280.0","6.599","305.8","1005.4639999999999","16.2","39.52","NAN","0.0"],
    [1539830,"2026-01-31 15:10:00","51586","2.4090000000000003","322.2","6.207000000000001","305.6","1005.6339999999999","15.83","40.63","NAN","0.0"],
    [1539831,"2026-01-31 15:20:00","51587","2.057","305.9","5.586","311.3","1005.757","15.87","40.77","NAN","0.0"],
    [1539832,"2026-01-31 15:30:00","51588","2.021","295.0","4.998","324.5","1005.9060000000001","15.99","40.58","NAN","0.0"],
    [1539833,"2026-01-31 15:40:00","51589","1.7790000000000001","320.2","4.769","293.6","1005.908","15.84","40.64","NAN","0.0"],
    [1539834,"2026-01-31 15:50:00","51590","2.0669999999999997","321.2","6.697","308.5","1006.051","15.66","40.74","NAN","0.0"],
    [1539835,"2026-01-31 16:00:00","51591","1.526","331.0","4.377","321.3","1006.225","15.59","41.49","NAN","0.0"],
    [1539836,"2026-01-31 16:10:00","51592","0.8170000000000001","326.1","3.332","287.7","1006.414","15.57","42.48","NAN","0.0"],
    [1539837,"2026-01-31 16:20:00","51593","1.892","315.5","5.782","321.6","1006.6080000000001","15.54","42.94","NAN","0.0"],
    [1539838,"2026-01-31 16:30:00","51594","1.409","318.2","4.737","309.4","1006.715","15.37","44.02","NAN","0.0"],
    [1539839,"2026-01-31 16:40:00","51595","1.9380000000000002","324.6","4.9","334.2","1006.86","15.1","45.06","NAN","0.0"],
    [1539840,"2026-01-31 16:50:00","51596","2.276","325.1","5.063","273.4","1006.92","14.93","45.68","NAN","0.0"],
    [1539841,"2026-01-31 17:00:00","51597","2.7739999999999996","325.6","6.664","321.4","1007.0219999999999","14.69","45.84","NAN","0.0"],
    [1539842,"2026-01-31 17:10:00","51598","2.3680000000000003","326.1","4.933","317.3","1007.316","14.46","46.17","NAN","0.0"],
    [1539843,"2026-01-31 17:20:00","51599","2.134","321.7","5.586","316.0","1007.57","14.19","46.78","NAN","0.0"],
    [1539844,"2026-01-31 17:30:00","51600","1.577","303.0","5.1610000000000005","286.3","1007.7639999999999","13.97","47.52","NAN","0.0"],
    [1539845,"2026-01-31 17:40:00","51601","1.742","288.9","5.4879999999999995","307.5","1008.105","13.8","48.28","NAN","0.0"],
    [1539846,"2026-01-31 17:50:00","51602","2.053","290.7","5.227","296.6","1008.232","13.65","48.93","NAN","0.0"],
    [1539847,"2026-01-31 18:00:00","51603","2.285","316.1","6.0760000000000005","310.1","1008.296","13.55","49.37","NAN","0.0"],
    [1539848,"2026-01-31 18:10:00","51604","2.647","316.2","7.252000000000001","307.6","1008.3839999999999","13.45","49.59","NAN","0.0"],
    [1539849,"2026-01-31 18:20:00","51605","2.375","325.9","7.775","312.2","1008.6289999999999","13.38","49.67","NAN","0.0"],
    [1539850,"2026-01-31 18:30:00","51606","1.5630000000000002","308.6","5.749","316.8","1008.8710000000001","13.23","50.07","NAN","0.0"],
    [1539851,"2026-01-31 18:40:00","51607","1.324","302.5","4.1160000000000005","255.8","1009.112","13.12","50.35","NAN","0.0"],
    [1539852,"2026-01-31 18:50:00","51608","0.86","121.2","2.352","144.0","1009.248","12.92","51.29","NAN","0.0"],
    [1539853,"2026-01-31 19:00:00","51609","1.6059999999999999","86.2","4.018","78.39","1009.262","12.79","51.75","NAN","0.0"],
    [1539854,"2026-01-31 19:10:00","51610","1.9609999999999999","65.28","3.299","78.88","1009.4060000000001","12.68","52.02","NAN","0.0"],
    [1539855,"2026-01-31 19:20:00","51611","1.818","70.08","3.6260000000000003","31.22","1009.4960000000001","12.56","52.5","NAN","0.0"],
    [1539856,"2026-01-31 19:30:00","51612","1.364","66.85","3.136","83.9","1009.6510000000001","12.51","52.71","NAN","0.0"],
    [1539857,"2026-01-31 19:40:00","51613","0.8170000000000001","42.43","3.1689999999999996","81.1","1009.811","12.52","52.76","NAN","0.0"],
    [1539858,"2026-01-31 19:50:00","51614","0.7829999999999999","39.75","3.136","79.15","1009.948","12.41","53.34","NAN","0.0"],
    [1539859,"2026-01-31 20:00:00","51615","1.067","8.65","3.7889999999999997","131.5","1010.015","12.42","53.3","NAN","0.0"],
    [1539860,"2026-01-31 20:10:00","51616","0.904","320.0","2.8089999999999997","112.9","1009.965","12.39","53.43","NAN","0.0"],
    [1539861,"2026-01-31 20:20:00","51617","1.0859999999999999","313.3","3.071","305.9","1009.943","12.3","53.9","NAN","0.0"],
    [1539862,"2026-01-31 20:30:00","51618","1.261","317.5","5.063","309.3","1009.966","12.21","54.24","NAN","0.0"],
    [1539863,"2026-01-31 20:40:00","51619","0.987","319.9","2.94","347.7","1010.2589999999999","12.15","54.27","NAN","0.0"],
    [1539864,"2026-01-31 20:50:00","51620","0.956","257.4","3.887","302.3","1010.309","12.03","54.54","NAN","0.0"],
    [1539865,"2026-01-31 21:00:00","51621","1.089","307.5","5.325","317.5","1010.416","12.08","53.88","NAN","0.0"],
    [1539866,"2026-01-31 21:10:00","51622","1.9380000000000002","317.2","6.468","323.4","1010.346","12.07","53.52","NAN","0.0"],
    [1539867,"2026-01-31 21:20:00","51623","2.392","318.5","7.252000000000001","322.1","1010.357","12.17","52.73","NAN","0.0"],
    [1539868,"2026-01-31 21:30:00","51624","2.354","318.3","5.7170000000000005","313.7","1010.3739999999999","12.13","52.66","NAN","0.0"],
    [1539869,"2026-01-31 21:40:00","51625","2.001","296.1","6.86","313.3","1010.4780000000001","12.02","53.29","NAN","0.0"],
    [1539870,"2026-01-31 21:50:00","51626","2.35","305.9","6.1739999999999995","299.8","1010.6460000000001","11.93","53.46","NAN","0.0"],
    [1539871,"2026-01-31 22:00:00","51627","1.614","296.7","4.1160000000000005","287.5","1011.01","11.87","53.66","NAN","0.0"],
    [1539872,"2026-01-31 22:10:00","51628","1.7919999999999998","287.1","4.802","252.2","1011.308","11.79","54.1","NAN","0.0"],
    [1539873,"2026-01-31 22:20:00","51629","1.7690000000000001","321.6","4.312","264.3","1011.365","11.73","54.28","NAN","0.0"],
    [1539874,"2026-01-31 22:30:00","51630","1.77","336.8","4.051","346.4","1011.467","11.72","54.15","NAN","0.0"],
    [1539875,"2026-01-31 22:40:00","51631","1.778","330.7","4.4430000000000005","337.7","1011.419","11.74","53.59","NAN","0.0"],
    [1539876,"2026-01-31 22:50:00","51632","1.883","326.1","6.337000000000001","321.2","1011.51","11.81","53.02","NAN","0.0"],
    [1539877,"2026-01-31 23:00:00","51633","1.219","345.8","3.593","333.4","1011.4","11.71","53.52","NAN","0.0"],
    [1539878,"2026-01-31 23:10:00","51634","0.973","333.2","2.221","276.0","1011.297","11.63","53.5","NAN","0.0"],
    [1539879,"2026-01-31 23:20:00","51635","1.7280000000000002","323.9","4.083","312.5","1011.215","11.69","53.03","NAN","0.0"],
    [1539880,"2026-01-31 23:30:00","51636","1.585","336.6","4.9","330.7","1010.9889999999999","11.78","52.4","NAN","0.0"],
    [1539881,"2026-01-31 23:40:00","51637","0.638","358.0","1.764","25.46","1010.827","11.68","52.35","NAN","0.0"],
    [1539882,"2026-01-31 23:50:00","51638","1.355","298.7","5.194","298.3","1010.785","11.73","52.14","NAN","0.0"],
    [1539883,"2026-02-01 00:00:00","51639","1.439","275.6","3.985","290.3","1010.78","11.59","53.04","NAN","0.0"],
    [1539884,"2026-02-01 00:10:00","51640","2.079","273.7","5.782","303.2","1010.801","11.36","54.66","NAN","0.0"],
    [1539885,"2026-02-01 00:20:00","51641","1.589","300.2","5.422999999999999","255.7","1010.938","11.13","55.85","NAN","0.0"],
    [1539886,"2026-02-01 00:30:00","51642","1.999","286.0","5.227","330.8","1011.113","11.07","55.99","NAN","0.0"],
    [1539887,"2026-02-01 00:40:00","51643","1.59","263.5","3.92","324.1","1011.052","11.06","56","NAN","0.0"],
    [1539888,"2026-02-01 00:50:00","51644","1.672","262.8","4.149","284.0","1011.076","11.07","55.66","NAN","0.0"],
    [1539889,"2026-02-01 01:00:00","51645","1.671","270.0","5.619","304.9","1010.959","11.01","55.88","NAN","0.0"],
    [1539890,"2026-02-01 01:10:00","51646","1.492","282.5","4.508","275.6","1011.03","10.92","56.13","NAN","0.0"],
    [1539891,"2026-02-01 01:20:00","51647","0.963","304.2","4.018","316.6","1011.178","10.87","56.15","NAN","0.0"],
    [1539892,"2026-02-01 01:30:00","51648","0.9109999999999999","66.13","2.189","39.52","1011.3","10.68","56.7","NAN","0.0"],
    [1539893,"2026-02-01 01:40:00","51649","1.122","37.98","4.573","42.05","1011.346","10.6","56.62","NAN","0.0"],
    [1539894,"2026-02-01 01:50:00","51650","1.348","19.09","3.299","36.48","1011.297","10.55","57.06","NAN","0.0"],
    [1539895,"2026-02-01 02:00:00","51651","0.76","15.29","1.797","41.48","1011.247","10.48","57.43","NAN","0.0"],
    [1539896,"2026-02-01 02:10:00","51652","0.7040000000000001","348.6","2.679","282.1","1011.052","10.53","56.86","NAN","0.0"],
    [1539897,"2026-02-01 02:20:00","51653","0.648","334.4","1.96","321.2","1010.8889999999999","10.88","54.94","NAN","0.0"],
    [1539898,"2026-02-01 02:30:00","51654","0.35","84.8","0.882","41.23","1010.84","10.6","55.66","NAN","0.0"],
    [1539899,"2026-02-01 02:40:00","51655","0.467","92.5","1.764","61.3","1010.865","10.59","55.3","NAN","0.0"],
    [1539900,"2026-02-01 02:50:00","51656","0.713","50.39","1.601","42.64","1010.836","10.62","55.13","NAN","0.0"],
    [1539901,"2026-02-01 03:00:00","51657","0.565","105.4","1.829","300.9","1010.699","10.59","55.15","NAN","0.0"],
    [1539902,"2026-02-01 03:10:00","51658","0.767","178.8","1.764","198.5","1010.6030000000001","10.48","56.37","NAN","0.0"],
    [1539903,"2026-02-01 03:20:00","51659","0.795","191.4","1.797","126.1","1010.5930000000001","10.41","56.69","NAN","0.0"],
    [1539904,"2026-02-01 03:30:00","51660","1.044","134.6","3.397","114.4","1010.745","10.48","55.71","NAN","0.0"],
    [1539905,"2026-02-01 03:40:00","51661","1.694","121.0","3.234","95.7","1010.947","10.91","56.54","NAN","0.0"],
    [1539906,"2026-02-01 03:50:00","51662","1.422","145.3","2.352","152.9","1010.9119999999999","10.9","58.58","NAN","0.0"],
    [1539907,"2026-02-01 04:00:00","51663","1.2329999999999999","161.0","2.907","160.7","1011.069","10.71","56.64","NAN","0.0"],
    [1539908,"2026-02-01 04:10:00","51664","1.4169999999999998","133.0","3.071","104.7","1011.252","10.79","57.82","NAN","0.0"],
    [1539909,"2026-02-01 04:20:00","51665","1.02","131.0","2.548","281.9","1011.326","10.83","57.97","NAN","0.0"],
    [1539910,"2026-02-01 04:30:00","51666","1.2690000000000001","271.9","3.7569999999999997","293.0","1011.3539999999999","10.93","52.61","NAN","0.0"],
    [1539911,"2026-02-01 04:40:00","51667","1.103","254.6","2.6460000000000004","264.9","1011.3430000000001","10.73","53.2","NAN","0.0"],
    [1539912,"2026-02-01 04:50:00","51668","1.4169999999999998","273.4","3.201","284.4","1011.3969999999999","10.76","52.9","NAN","0.0"],
    [1539913,"2026-02-01 05:00:00","51669","1.185","273.4","3.528","294.7","1011.1160000000001","10.55","53.91","NAN","0.0"],
    [1539914,"2026-02-01 05:10:00","51670","1.459","272.3","4.606","283.5","1011.096","10.44","54.41","NAN","0.0"],
    [1539915,"2026-02-01 05:20:00","51671","1.331","320.5","3.7889999999999997","298.4","1011.2489999999999","10.27","55.14","NAN","0.0"],
    [1539916,"2026-02-01 05:30:00","51672","1.3419999999999999","311.2","3.103","320.3","1011.317","10.18","55.37","NAN","0.0"],
    [1539917,"2026-02-01 05:40:00","51673","1.3019999999999998","330.4","3.201","321.3","1011.32","10.23","55.47","NAN","0.0"],
    [1539918,"2026-02-01 05:50:00","51674","0.237","251.6","1.4369999999999998","325.5","1011.4580000000001","10.13","55.96","NAN","0.0"],
    [1539919,"2026-02-01 06:00:00","51675","0.594","321.0","1.633","309.7","1011.6289999999999","10.19","55.68","NAN","0.0"],
    [1539920,"2026-02-01 06:10:00","51676","0.892","7.5729999999999995","1.601","7.899","1011.58","10.14","56.1","NAN","0.0"],
    [1539921,"2026-02-01 06:20:00","51677","0.7120000000000001","351.6","1.2409999999999999","37.66","1011.466","10.05","56.32","NAN","0.0"],
    [1539922,"2026-02-01 06:30:00","51678","1.0759999999999998","343.5","3.397","296.8","1011.582","10.22","55.57","NAN","0.0"],
    [1539923,"2026-02-01 06:40:00","51679","1.531","335.0","3.9530000000000003","310.4","1011.654","10.23","55.11","NAN","0.0"],
    [1539924,"2026-02-01 06:50:00","51680","1.0979999999999999","342.3","4.41","279.7","1011.8430000000001","10","55.96","NAN","0.0"],
    [1539925,"2026-02-01 07:00:00","51681","0.8640000000000001","346.3","2.0580000000000003","277.7","1012.063","9.79","56.81","NAN","0.0"],
    [1539926,"2026-02-01 07:10:00","51682","1.026","334.4","2.189","319.7","1011.9839999999999","9.83","56.71","NAN","0.0"],
    [1539927,"2026-02-01 07:20:00","51683","0.858","333.2","2.287","297.3","1011.846","9.96","56.24","NAN","0.0"],
    [1539928,"2026-02-01 07:30:00","51684","0.993","347.3","2.025","306.1","1011.8480000000001","9.98","56.08","NAN","0.0"],
    [1539929,"2026-02-01 07:40:00","51685","0.726","15.49","2.0580000000000003","20.63","1011.808","9.82","56.85","NAN","0.0"],
    [1539930,"2026-02-01 07:50:00","51686","1.369","24.17","2.875","16.17","1011.918","9.67","57.42","NAN","0.0"],
    [1539931,"2026-02-01 08:00:00","51687","0.915","2.873","2.6460000000000004","355.4","1011.845","9.59","58.14","NAN","0.0"],
    [1539932,"2026-02-01 08:10:00","51688","0.9","49.63","1.9269999999999998","27.22","1012.056","9.69","58.23","NAN","0.0"],
    [1539933,"2026-02-01 08:20:00","51689","1.148","332.1","2.352","349.9","1011.8710000000001","9.91","57.08","NAN","0.0"],
    [1539934,"2026-02-01 08:30:00","51690","0.237","256.4","1.176","304.7","1012.056","10.45","54.59","NAN","0.0"],
    [1539935,"2026-02-01 08:40:00","51691","0.306","204.6","1.111","217.1","1012.1489999999999","10.93","53.48","NAN","0.0"],
    [1539936,"2026-02-01 08:50:00","51692","0.71","223.7","1.7309999999999999","232.8","1012.0360000000001","11.41","52.46","NAN","0.0"],
    [1539937,"2026-02-01 09:00:00","51693","0.488","233.9","1.307","228.2","1012.079","11.37","51.51","NAN","0.0"],
    [1539938,"2026-02-01 09:10:00","51694","0.26899999999999996","23.53","1.2409999999999999","52.2","1012.053","11.27","51.41","NAN","0.0"],
    [1539939,"2026-02-01 09:20:00","51695","0.6829999999999999","38.2","1.666","70.65","1012.0930000000001","11.35","52.29","NAN","0.0"],
    [1539940,"2026-02-01 09:30:00","51696","0.332","64.2","1.045","39.09","1012.179","11.51","51.53","NAN","0.0"],
    [1539941,"2026-02-01 09:40:00","51697","0.836","23.99","1.699","52.44","1012.063","11.72","50.93","NAN","0.0"],
    [1539942,"2026-02-01 09:50:00","51698","0.62","87.9","1.699","74.01","1011.992","11.76","50.28","NAN","0.0"],
    [1539943,"2026-02-01 10:00:00","51699","0.857","33.04","1.96","63.23","1011.9639999999999","11.74","50.72","NAN","0.0"],
    [1539944,"2026-02-01 10:10:00","51700","0.871","222.9","1.8619999999999999","179.2","1012.0369999999999","11.71","51.4","NAN","0.0"],
    [1539945,"2026-02-01 10:20:00","51701","0.848","212.9","2.679","239.4","1012.209","11.77","51.24","NAN","0.0"],
    [1539946,"2026-02-01 10:30:00","51702","1.1840000000000002","244.1","3.136","241.8","1012.0830000000001","11.71","50.64","NAN","0.0"],
    [1539947,"2026-02-01 10:40:00","51703","1.63","270.8","3.7569999999999997","262.4","1011.961","11.77","50.23","NAN","0.0"],
    [1539948,"2026-02-01 10:50:00","51704","1.7990000000000002","283.2","4.541","289.0","1011.9680000000001","11.71","50.13","NAN","0.0"],
    [1539949,"2026-02-01 11:00:00","51705","1.3519999999999999","259.3","3.6260000000000003","278.4","1011.951","11.83","50.09","NAN","0.0"],
    [1539950,"2026-02-01 11:10:00","51706","1.683","276.2","5.325","294.1","1011.7760000000001","11.8","50.56","NAN","0.0"],
    [1539951,"2026-02-01 11:20:00","51707","1.693","303.3","4.377","256.2","1011.5319999999999","11.98","50.13","NAN","0.0"],
    [1539952,"2026-02-01 11:30:00","51708","1.624","276.2","3.332","271.3","1011.303","12.39","49.27","NAN","0.0"],
    [1539953,"2026-02-01 11:40:00","51709","1.4369999999999998","268.1","3.1689999999999996","291.1","1011.2289999999999","12.78","48.37","NAN","0.0"],
    [1539954,"2026-02-01 11:50:00","51710","1.3659999999999999","265.4","3.855","257.1","1011.0360000000001","13.1","47.38","NAN","0.0"],
    [1539955,"2026-02-01 12:00:00","51711","1.139","255.9","3.92","240.0","1010.86","13.23","47.61","NAN","0.0"],
    [1539956,"2026-02-01 12:10:00","51712","1.6230000000000002","290.9","4.2139999999999995","286.2","1010.74","13.33","47.5","NAN","0.0"],
    [1539957,"2026-02-01 12:20:00","51713","1.524","275.8","3.7569999999999997","310.8","1010.7280000000001","13.33","47.78","NAN","0.0"],
    [1539958,"2026-02-01 12:30:00","51714","1.5019999999999998","284.9","4.247","324.6","1010.6610000000001","13.41","47.28","NAN","0.0"],
    [1539959,"2026-02-01 12:40:00","51715","1.5859999999999999","312.2","3.365","324.8","1010.3839999999999","13.44","47.49","NAN","0.0"],
    [1539960,"2026-02-01 12:50:00","51716","1.069","336.3","2.287","309.3","1010.09","13.59","47.82","NAN","0.0"],
    [1539961,"2026-02-01 13:00:00","51717","0.728","321.8","2.287","287.9","1009.721","14.04","46.99","NAN","0.0"],
    [1539962,"2026-02-01 13:10:00","51718","1.8090000000000002","249.0","4.2139999999999995","253.6","1009.472","14.49","46.06","NAN","0.0"],
    [1539963,"2026-02-01 13:20:00","51719","2.213","234.5","6.011","264.9","1009.268","14.79","45.57","NAN","0.0"],
    [1539964,"2026-02-01 13:30:00","51720","2.0469999999999997","226.7","5.357","246.0","1009.0239999999999","14.9","46.12","NAN","0.0"],
    [1539965,"2026-02-01 13:40:00","51721","1.574","201.3","3.397","198.5","1008.852","14.8","48.62","NAN","0.0"],
    [1539966,"2026-02-01 13:50:00","51722","2.121","184.7","3.887","161.0","1008.802","14.06","50.96","NAN","0.0"],
    [1539967,"2026-02-01 14:00:00","51723","2.063","185.9","4.638999999999999","163.2","1008.7230000000001","13.59","53.64","NAN","0.0"],
    [1539968,"2026-02-01 14:10:00","51724","1.7730000000000001","207.6","3.7569999999999997","172.1","1008.795","13.5","53.76","NAN","0.0"],
    [1539969,"2026-02-01 14:20:00","51725","1.547","208.6","3.7569999999999997","202.9","1008.768","13.6","53.11","NAN","0.0"],
    [1539970,"2026-02-01 14:30:00","51726","1.9669999999999999","198.1","4.312","207.0","1008.7230000000001","13.35","55.26","NAN","0.0"],
    [1539971,"2026-02-01 14:40:00","51727","1.757","206.4","4.41","202.9","1008.686","13.42","55.96","NAN","0.0"],
    [1539972,"2026-02-01 14:50:00","51728","1.881","207.8","4.9","205.8","1008.6310000000001","13.72","55.59","NAN","0.0"],
    [1539973,"2026-02-01 15:00:00","51729","2.094","205.2","5.031000000000001","207.6","1008.548","13.82","58.86","NAN","0.0"],
    [1539974,"2026-02-01 15:10:00","51730","1.845","206.7","4.573","214.7","1008.3839999999999","14.04","60.48","NAN","0.0"],
    [1539975,"2026-02-01 15:20:00","51731","1.455","205.9","3.855","193.7","1008.279","14.21","60.05","NAN","0.0"],
    [1539976,"2026-02-01 15:30:00","51732","1.423","204.6","3.136","207.0","1008.225","14.34","57.85","NAN","0.0"],
    [1539977,"2026-02-01 15:40:00","51733","0.9309999999999999","205.1","2.515","232.8","1008.225","14.58","55.58","NAN","0.0"],
    [1539978,"2026-02-01 15:50:00","51734","1.0959999999999999","269.0","3.43","279.1","1008.225","14.91","49.89","NAN","0.0"],
    [1539979,"2026-02-01 16:00:00","51735","1.673","273.1","5.096","232.3","1008.21","15.36","43.41","NAN","0.0"],
    [1539980,"2026-02-01 16:10:00","51736","1.49","252.4","4.083","263.9","1008.285","15.29","42.71","NAN","0.0"],
    [1539981,"2026-02-01 16:20:00","51737","1.7069999999999999","278.7","5.1610000000000005","301.8","1008.3989999999999","15.06","43.29","NAN","0.0"],
    [1539982,"2026-02-01 16:30:00","51738","1.5919999999999999","270.6","3.593","291.8","1008.372","14.9","44","NAN","0.0"],
    [1539983,"2026-02-01 16:40:00","51739","1.168","261.0","4.345","284.9","1008.4939999999999","14.74","44.89","NAN","0.0"],
    [1539984,"2026-02-01 16:50:00","51740","1.426","261.9","3.528","327.2","1008.6410000000001","14.63","45.27","NAN","0.0"],
    [1539985,"2026-02-01 17:00:00","51741","1.574","261.2","3.9530000000000003","252.1","1008.725","14.55","45.82","NAN","0.0"],
    [1539986,"2026-02-01 17:10:00","51742","1.112","254.5","3.365","311.9","1008.7230000000001","14.4","46.64","NAN","0.0"],
    [1539987,"2026-02-01 17:20:00","51743","1.026","246.2","2.189","297.0","1008.818","14.17","47.59","NAN","0.0"],
    [1539988,"2026-02-01 17:30:00","51744","1.022","264.3","2.7439999999999998","234.0","1008.753","14.12","47.73","NAN","0.0"],
    [1539989,"2026-02-01 17:40:00","51745","1.195","250.9","2.5810000000000004","250.7","1008.793","14","48.17","NAN","0.0"],
    [1539990,"2026-02-01 17:50:00","51746","0.852","255.9","3.071","260.5","1008.8480000000001","13.87","48.82","NAN","0.0"],
    [1539991,"2026-02-01 18:00:00","51747","0.993","241.8","2.515","239.5","1008.877","13.71","49.56","NAN","0.0"],
    [1539992,"2026-02-01 18:10:00","51748","0.565","265.5","2.319","234.4","1008.79","13.61","50.09","NAN","0.0"],
    [1539993,"2026-02-01 18:20:00","51749","0.603","263.6","2.417","279.6","1008.813","13.47","50.83","NAN","0.0"],
    [1539994,"2026-02-01 18:30:00","51750","0.934","279.0","1.96","291.9","1008.74","13.47","51.36","NAN","0.0"],
    [1539995,"2026-02-01 18:40:00","51751","0.7190000000000001","275.7","2.123","289.9","1008.613","13.45","51.97","NAN","0.0"],
    [1539996,"2026-02-01 18:50:00","51752","1.3119999999999998","272.8","2.9730000000000003","282.5","1008.556","13.47","52.19","NAN","0.0"],
    [1539997,"2026-02-01 19:00:00","51753","1.013","257.1","2.0580000000000003","278.8","1008.503","13.42","52.65","NAN","0.0"],
    [1539998,"2026-02-01 19:10:00","51754","0.9990000000000001","223.9","2.287","229.9","1008.4780000000001","13.02","54.42","NAN","0.0"],
    [1539999,"2026-02-01 19:20:00","51755","0.738","213.7","2.156","220.8","1008.4860000000001","12.81","55.77","NAN","0.0"],
    [1540000,"2026-02-01 19:30:00","51756","0.613","228.2","1.699","250.1","1008.482","12.63","55.94","NAN","0.0"],
    [1540001,"2026-02-01 19:40:00","51757","0.741","318.9","2.254","332.7","1008.404","12.79","55.61","NAN","0.0"],
    [1540002,"2026-02-01 19:50:00","51758","0.703","257.7","2.0909999999999997","250.1","1008.2769999999999","12.97","54.94","NAN","0.0"],
    [1540003,"2026-02-01 20:00:00","51759","0.653","247.8","1.633","327.8","1008.284","12.61","56.61","NAN","0.0"],
    [1540004,"2026-02-01 20:10:00","51760","1.02","263.2","2.7439999999999998","253.0","1008.316","12.76","56.01","NAN","0.0"],
    [1540005,"2026-02-01 20:20:00","51761","0.511","227.2","1.5030000000000001","287.5","1008.4","12.78","56.29","NAN","0.0"],
    [1540006,"2026-02-01 20:30:00","51762","0.522","270.2","1.96","245.6","1008.328","12.5","57.47","NAN","0.0"],
    [1540007,"2026-02-01 20:40:00","51763","0.376","252.9","1.699","297.3","1008.1110000000001","12.59","57.2","NAN","0.0"],
    [1540008,"2026-02-01 20:50:00","51764","0.6970000000000001","208.3","1.274","206.5","1008.159","12.29","59.19","NAN","0.0"],
    [1540009,"2026-02-01 21:00:00","51765","0.648","206.7","1.7309999999999999","220.2","1008.184","12","60.51","NAN","0.0"],
    [1540010,"2026-02-01 21:10:00","51766","0.3","204.4","0.8490000000000001","177.8","1008.069","11.61","63.2","NAN","0.0"],
    [1540011,"2026-02-01 21:20:00","51767","0.509","245.2","1.307","254.0","1008.0319999999999","11.59","61.67","NAN","0.0"],
    [1540012,"2026-02-01 21:30:00","51768","0.4","243.4","1.339","307.3","1007.883","11.79","61.24","NAN","0.0"],
    [1540013,"2026-02-01 21:40:00","51769","0.684","225.7","1.3719999999999999","233.5","1007.825","11.51","62.69","NAN","0.0"],
    [1540014,"2026-02-01 21:50:00","51770","0.8690000000000001","234.8","1.8619999999999999","251.7","1007.975","11.31","62.81","NAN","0.0"],
    [1540015,"2026-02-01 22:00:00","51771","0.9059999999999999","267.3","2.189","266.8","1007.935","11.9","59.93","NAN","0.0"],
    [1540016,"2026-02-01 22:10:00","51772","0.8759999999999999","243.9","1.9269999999999998","240.8","1007.808","11.85","59.79","NAN","0.0"],
    [1540017,"2026-02-01 22:20:00","51773","0.66","185.8","1.535","180.7","1007.943","11.65","60.95","NAN","0.0"],
    [1540018,"2026-02-01 22:30:00","51774","0.598","218.5","1.4369999999999998","172.5","1007.98","10.87","65.88","NAN","0.0"],
    [1540019,"2026-02-01 22:40:00","51775","0.13","356.4","0.555","55.94","1007.7660000000001","10.46","67.47","NAN","0.0"],
    [1540020,"2026-02-01 22:50:00","51776","0.591","323.9","1.078","333.8","1007.447","10.94","64.74","NAN","0.0"],
    [1540021,"2026-02-01 23:00:00","51777","0.46299999999999997","285.5","1.111","291.6","1007.35","11.47","62.08","NAN","0.0"],
    [1540022,"2026-02-01 23:10:00","51778","0.295","304.3","0.7190000000000001","295.0","1007.242","11.29","63.16","NAN","0.0"],
    [1540023,"2026-02-01 23:20:00","51779","0.08900000000000001","14.22","0.588","30.92","1007.072","11.14","64.2","NAN","0.0"],
    [1540024,"2026-02-01 23:30:00","51780","0.19699999999999998","71.82","0.523","76.52","1007.054","10.56","67.37","NAN","0.0"],
    [1540025,"2026-02-01 23:40:00","51781","0.523","215.1","0.784","203.1","1007.056","10.22","70.31","NAN","0.0"],
    [1540026,"2026-02-01 23:50:00","51782","0.095","153.2","0.7509999999999999","141.6","1006.932","10.14","71.24","NAN","0.0"],
    [1540027,"2026-02-02 00:00:00","51783","0.023","225.9","0.621","226.1","1006.757","10.2","71.38","NAN","0.0"],
    [1540028,"2026-02-02 00:10:00","51784","0.573","251.6","0.9470000000000001","244.4","1006.8","10.27","70.94","NAN","0.0"],
    [1540029,"2026-02-02 00:20:00","51785","0.48","187.6","0.7509999999999999","185.1","1006.805","10.32","72.22","NAN","0.0"],
    [1540030,"2026-02-02 00:30:00","51786","0.379","204.2","1.143","218.5","1006.7389999999999","10.15","72.64","NAN","0.0"],
    [1540031,"2026-02-02 00:40:00","51787","0.506","262.7","1.3719999999999999","269.7","1006.625","10.21","70.25","NAN","0.0"],
    [1540032,"2026-02-02 00:50:00","51788","0.366","250.8","1.209","301.6","1006.4019999999999","10.56","67.12","NAN","0.0"],
    [1540033,"2026-02-02 01:00:00","51789","0.113","136.4","0.8170000000000001","136.2","1006.345","10.21","69.16","NAN","0.0"],
    [1540034,"2026-02-02 01:10:00","51790","0.001","61.39","0.163","61.39","1006.308","9.98","70.15","NAN","0.0"],
    [1540035,"2026-02-02 01:20:00","51791","0.18899999999999997","350.0","0.653","353.3","1006.128","9.81","70.89","NAN","0.0"],
    [1540036,"2026-02-02 01:30:00","51792","0.848","13.53","2.0580000000000003","31.6","1005.888","10.05","70.33","NAN","0.0"],
    [1540037,"2026-02-02 01:40:00","51793","1.103","18.1","2.0580000000000003","37.4","1005.6089999999999","10.07","70.13","NAN","0.0"],
    [1540038,"2026-02-02 01:50:00","51794","0.7829999999999999","355.0","1.5030000000000001","349.9","1005.56","9.97","70.03","NAN","0.0"],
    [1540039,"2026-02-02 02:00:00","51795","0.773","12.78","1.47","18.76","1005.472","9.73","70.05","NAN","0.0"],
    [1540040,"2026-02-02 02:10:00","51796","0.758","2.927","1.405","5.5920000000000005","1005.4060000000001","9.48","70.51","NAN","0.0"],
    [1540041,"2026-02-02 02:20:00","51797","0.7809999999999999","9.35","1.829","25.51","1005.194","9.47","70.74","NAN","0.0"],
    [1540042,"2026-02-02 02:30:00","51798","0.89","2.51","1.568","18.52","1004.908","9.51","70.6","NAN","0.0"],
    [1540043,"2026-02-02 02:40:00","51799","0.836","4.231","1.4369999999999998","345.9","1004.7860000000001","9.56","70.28","NAN","0.0"],
    [1540044,"2026-02-02 02:50:00","51800","0.535","43.17","1.405","18.49","1004.586","9.45","70.3","NAN","0.0"],
    [1540045,"2026-02-02 03:00:00","51801","0.222","30.29","1.143","42.24","1004.576","9.33","70.15","NAN","0.0"],
    [1540046,"2026-02-02 03:10:00","51802","0.24600000000000002","85.0","0.653","103.3","1004.415","9.21","70.78","NAN","0.0"],
    [1540047,"2026-02-02 03:20:00","51803","0.125","336.7","0.915","8.57","1004.209","9.09","71.92","NAN","0.0"],
    [1540048,"2026-02-02 03:30:00","51804","0.598","0.5760000000000001","1.405","5.143","1003.961","9.47","70.64","NAN","0.0"],
    [1540049,"2026-02-02 03:40:00","51805","0.14400000000000002","162.3","0.523","172.5","1003.825","9.36","71.37","NAN","0.0"],
    [1540050,"2026-02-02 03:50:00","51806","0.0","0.0","0.0","0.0","1003.666","9.35","71.31","NAN","0.0"],
    [1540051,"2026-02-02 04:00:00","51807","0.0","0.0","0.0","0.0","1003.658","9.33","71.92","NAN","0.0"],
    [1540052,"2026-02-02 04:10:00","51808","0.047","341.3","0.49","338.1","1003.5169999999999","9.46","71.43","NAN","0.0"],
    [1540053,"2026-02-02 04:20:00","51809","0.353","2.283","1.209","6.475","1003.443","9.7","70.75","NAN","0.0"],
    [1540054,"2026-02-02 04:30:00","51810","0.593","8.74","1.307","4.63","1003.315","9.85","70.13","NAN","0.0"],
    [1540055,"2026-02-02 04:40:00","51811","0.48700000000000004","1.489","0.8490000000000001","6.572","1003.0880000000001","9.73","70.55","NAN","0.0"],
    [1540056,"2026-02-02 04:50:00","51812","0.081","354.6","0.588","354.8","1003.09","9.64","71.09","NAN","0.0"],
    [1540057,"2026-02-02 05:00:00","51813","0.0","0.0","0.0","0.0","1003.1239999999999","9.41","72.1","NAN","0.0"],
    [1540058,"2026-02-02 05:10:00","51814","0.083","211.2","0.6859999999999999","209.1","1003.059","9.41","73.33","NAN","0.0"],
    [1540059,"2026-02-02 05:20:00","51815","0.516","299.3","1.339","326.0","1002.74","9.9","72.23","NAN","0.0"],
    [1540060,"2026-02-02 05:30:00","51816","0.193","291.5","1.209","284.6","1002.5010000000001","10.2","69.9","NAN","0.0"],
    [1540061,"2026-02-02 05:40:00","51817","0.51","275.3","1.209","276.7","1002.3389999999999","10.18","70.13","NAN","0.0"],
    [1540062,"2026-02-02 05:50:00","51818","0.35600000000000004","275.0","1.143","307.4","1002.309","10.28","69.88","NAN","0.0"],
    [1540063,"2026-02-02 06:00:00","51819","0.305","60.27","0.882","255.6","1002.294","10.22","69.85","NAN","0.0"],
    [1540064,"2026-02-02 06:10:00","51820","0.26899999999999996","12.59","0.784","39.46","1002.158","9.66","71.92","NAN","0.0"],
    [1540065,"2026-02-02 06:20:00","51821","0.439","2.6919999999999997","0.882","313.4","1002.1489999999999","9.67","71.06","NAN","0.0"],
    [1540066,"2026-02-02 06:30:00","51822","0.135","29.06","0.7190000000000001","24.94","1002.0369999999999","9.57","71.59","NAN","0.0"],
    [1540067,"2026-02-02 06:40:00","51823","0.292","8.69","0.653","6.665","1001.885","9.68","71.34","NAN","0.0"],
    [1540068,"2026-02-02 06:50:00","51824","0.738","2.3480000000000003","1.274","8.54","1001.6619999999999","10.05","70.55","NAN","0.0"],
    [1540069,"2026-02-02 07:00:00","51825","0.71","23.3","1.633","56.55","1001.415","9.82","70.8","NAN","0.0"],
    [1540070,"2026-02-02 07:10:00","51826","0.155","26.12","0.621","40.15","1001.63","9.63","71.65","NAN","0.0"],
    [1540071,"2026-02-02 07:20:00","51827","0.433","54.8","0.8490000000000001","63.01","1001.528","9.69","71.87","NAN","0.0"],
    [1540072,"2026-02-02 07:30:00","51828","0.051","24.65","0.425","33.4","1001.443","9.81","71.59","NAN","0.0"],
    [1540073,"2026-02-02 07:40:00","51829","0.015","355.4","0.327","9.32","1001.4910000000001","9.89","71.4","NAN","0.0"],
    [1540074,"2026-02-02 07:50:00","51830","0.021","339.0","0.392","345.5","1001.628","10.13","70.57","NAN","0.0"],
    [1540075,"2026-02-02 08:00:00","51831","0.226","15.78","0.784","285.9","1001.6","10.55","70.4","NAN","0.0"],
    [1540076,"2026-02-02 08:10:00","51832","0.32","36.38","0.7190000000000001","34.56","1001.346","10.73","68.91","NAN","0.0"],
    [1540077,"2026-02-02 08:20:00","51833","0.653","17.48","1.3719999999999999","19.13","1001.199","10.82","68.27","NAN","0.0"],
    [1540078,"2026-02-02 08:30:00","51834","0.519","15.91","1.274","69.61","1001.1239999999999","10.76","68.61","NAN","0.0"],
    [1540079,"2026-02-02 08:40:00","51835","0.598","34.08","1.143","49.73","1000.868","10.95","68.23","NAN","0.0"],
    [1540080,"2026-02-02 08:50:00","51836","0.8959999999999999","12.55","2.025","16.31","1000.551","10.97","67.18","NAN","0.0"],
    [1540081,"2026-02-02 09:00:00","51837","0.833","359.7","1.568","351.3","1000.546","10.94","66.63","NAN","0.0"],
    [1540082,"2026-02-02 09:10:00","51838","0.8640000000000001","5.781000000000001","1.633","349.5","1000.584","11.06","65.95","NAN","0.0"],
    [1540083,"2026-02-02 09:20:00","51839","1.055","31.28","2.221","26.19","1000.243","11.21","65.61","NAN","0.0"],
    [1540084,"2026-02-02 09:30:00","51840","0.9129999999999999","18.78","1.764","7.529","1000.061","11.38","65.33","NAN","0.0"],
    [1540085,"2026-02-02 09:40:00","51841","0.9229999999999999","0.963","1.829","358.7","1000.135","11.49","64.77","NAN","0.0"],
    [1540086,"2026-02-02 09:50:00","51842","0.8390000000000001","7.676","1.764","13.31","1000.128","11.6","64.65","NAN","0.0"],
    [1540087,"2026-02-02 10:00:00","51843","0.633","358.4","1.47","15.88","1000.3489999999999","11.53","65.58","NAN","0.0"],
    [1540088,"2026-02-02 10:10:00","51844","0.452","349.7","1.045","325.2","1000.355","11.95","64.86","NAN","0.0"],
    [1540089,"2026-02-02 10:20:00","51845","0.19399999999999998","351.8","0.915","322.5","1000.347","12.45","63.65","NAN","0.0"],
    [1540090,"2026-02-02 10:30:00","51846","0.595","42.53","1.176","55.71","1000.2739999999999","12.73","63.12","NAN","0.0"],
    [1540091,"2026-02-02 10:40:00","51847","0.8490000000000001","24.31","1.633","40.63","1000.105","12.86","62.51","NAN","0.0"],
    [1540092,"2026-02-02 10:50:00","51848","1.0190000000000001","6.266","1.895","14.39","1000.0830000000001","12.7","63.67","NAN","0.0"],
    [1540093,"2026-02-02 11:00:00","51849","0.8909999999999999","26.58","1.829","37.53","999.7383","12.98","63.55","NAN","0.0"],
    [1540094,"2026-02-02 11:10:00","51850","1.028","358.6","1.797","8.57","999.5597","12.98","63.79","NAN","0.0"],
    [1540095,"2026-02-02 11:20:00","51851","0.9179999999999999","9.18","1.633","26.49","999.6145","12.93","64.59","NAN","0.0"],
    [1540096,"2026-02-02 11:30:00","51852","0.765","10.29","1.7309999999999999","356.0","999.3748","13.06","65.5","NAN","0.0"],
    [1540097,"2026-02-02 11:40:00","51853","0.645","46.42","1.764","12.08","999.2882","12.98","67.65","NAN","0.0"],
    [1540098,"2026-02-02 11:50:00","51854","0.5670000000000001","65.81","1.078","72.64","999.1732","13.02","68.9","NAN","0.0"],
    [1540099,"2026-02-02 12:00:00","51855","0.5770000000000001","26.66","1.764","38.86","998.8592","13.21","68.68","NAN","0.0"],
    [1540100,"2026-02-02 12:10:00","51856","1.2690000000000001","48.96","1.9269999999999998","57.61","998.4531","13","70.03","NAN","0.0"],
    [1540101,"2026-02-02 12:20:00","51857","0.976","51.66","1.568","38.76","998.232","12.83","72.95","NAN","0.0"],
    [1540102,"2026-02-02 12:30:00","51858","1.034","36.01","1.633","18.27","997.8751","12.47","77.65","NAN","0.0"],
    [1540103,"2026-02-02 12:40:00","51859","0.792","5.257000000000001","2.025","352.2","997.5294","12.19","80.5","NAN","0.0"],
    [1540104,"2026-02-02 12:50:00","51860","0.795","9.66","1.666","3.264","997.4255","12.24","82.9","NAN","0.0"],
    [1540105,"2026-02-02 13:00:00","51861","0.6579999999999999","16.68","1.797","39.69","997.432","12.25","83.8","NAN","0.0"],
    [1540106,"2026-02-02 13:10:00","51862","0.8390000000000001","21.9","1.666","36.1","997.2180000000001","12.11","85.5","NAN","0.0"],
    [1540107,"2026-02-02 13:20:00","51863","0.83","41.58","1.699","39.53","996.8968","11.86","90.1","NAN","0.0"],
    [1540108,"2026-02-02 13:30:00","51864","0.304","16.01","0.9470000000000001","350.0","996.7448","11.8","93.2","NAN","0.1"],
    [1540109,"2026-02-02 13:40:00","51865","0.997","44.0","2.123","40.52","996.4235","11.78","95.4","NAN","0.1"],
    [1540110,"2026-02-02 13:50:00","51866","0.28300000000000003","7.987","0.8490000000000001","353.3","996.3544","11.9","96.8","NAN","0.0"],
    [1540111,"2026-02-02 14:00:00","51867","0.593","29.84","1.47","25.29","996.3389","11.7","97","NAN","0.1"],
    [1540112,"2026-02-02 14:10:00","51868","0.47700000000000004","57.02","1.535","61.78","996.3567","11.72","97.5","NAN","0.0"],
    [1540113,"2026-02-02 14:20:00","51869","0.303","53.14","1.176","58.67","996.2768","11.77","97.8","NAN","0.2"],
    [1540114,"2026-02-02 14:30:00","51870","0.609","23.45","1.47","30.82","996.0025","11.93","98.2","NAN","0.1"],
    [1540115,"2026-02-02 14:40:00","51871","0.556","7.348","1.209","5.858","995.7883","12","98.4","NAN","0.1"],
    [1540116,"2026-02-02 14:50:00","51872","0.503","48.32","1.47","71.38","995.6344","12.08","98.7","NAN","0.0"],
    [1540117,"2026-02-02 15:00:00","51873","0.233","25.98","0.9470000000000001","68.59","995.5545","12.1","98.8","NAN","0.1"],
    [1540118,"2026-02-02 15:10:00","51874","0.15","52.68","0.882","28.42","995.4847","12.14","98.9","NAN","0.0"],
    [1540119,"2026-02-02 15:20:00","51875","0.44799999999999995","62.46","0.9470000000000001","53.34","995.1829","12.25","99.1","NAN","0.1"],
    [1540120,"2026-02-02 15:30:00","51876","0.445","55.82","1.143","62.5","995.0341","12.29","99.2","NAN","0.0"],
    [1540121,"2026-02-02 15:40:00","51877","0.302","63.38","0.653","79.02","994.8918","12.31","99.4","NAN","0.1"],
    [1540122,"2026-02-02 15:50:00","51878","0.198","67.57","0.915","52.03","994.6852","12.43","99.6","NAN","0.0"],
    [1540123,"2026-02-02 16:00:00","51879","0.488","31.51","1.013","35.46","994.4782","12.53","99.7","NAN","0.0"],
    [1540124,"2026-02-02 16:10:00","51880","0.358","30.84","0.915","23.32","994.4415","12.43","99.6","NAN","0.0"],
    [1540125,"2026-02-02 16:20:00","51881","0.42100000000000004","29.18","1.111","22.75","994.3887","12.44","99.6","NAN","0.0"],
    [1540126,"2026-02-02 16:30:00","51882","0.0","0.0","0.0","0.0","994.4266","12.5","99.7","NAN","0.0"],
    [1540127,"2026-02-02 16:40:00","51883","0.254","98.9","0.7509999999999999","101.1","994.426","12.5","99.6","NAN","0.0"],
    [1540128,"2026-02-02 16:50:00","51884","0.435","79.15","1.045","68.24","994.1669","12.54","99.7","NAN","0.0"],
    [1540129,"2026-02-02 17:00:00","51885","0.075","209.1","0.621","226.0","993.9504","12.64","99.7","NAN","0.0"],
    [1540130,"2026-02-02 17:10:00","51886","0.035","195.5","0.49","263.1","994.0004","12.73","99.8","NAN","0.1"],
    [1540131,"2026-02-02 17:20:00","51887","0.10099999999999999","145.2","0.49","145.3","993.926","12.74","99.8","NAN","0.0"],
    [1540132,"2026-02-02 17:30:00","51888","0.371","206.9","0.8490000000000001","202.5","993.8952","12.78","99.9","NAN","0.0"],
    [1540133,"2026-02-02 17:40:00","51889","0.301","214.3","1.045","221.8","993.7018","12.85","99.9","NAN","0.2"],
    [1540134,"2026-02-02 17:50:00","51890","0.40700000000000003","288.4","1.633","280.4","993.6039","12.95","99.9","NAN","0.0"],
    [1540135,"2026-02-02 18:00:00","51891","0.639","249.2","1.601","248.9","993.6325","13.06","99.9","NAN","0.0"],
    [1540136,"2026-02-02 18:10:00","51892","0.8","246.2","2.123","251.9","993.7089","13.05","99.6","NAN","0.0"],
    [1540137,"2026-02-02 18:20:00","51893","0.40399999999999997","215.1","1.764","222.6","993.597","13.11","99.4","NAN","0.0"],
    [1540138,"2026-02-02 18:30:00","51894","0.775","235.5","2.025","228.4","993.7991","13.07","99.3","NAN","0.0"],
    [1540139,"2026-02-02 18:40:00","51895","0.7759999999999999","228.3","1.8619999999999999","246.2","993.8507","13.11","99.1","NAN","0.0"],
    [1540140,"2026-02-02 18:50:00","51896","0.639","237.8","1.829","207.3","993.8361","13.06","98.9","NAN","0.1"],
    [1540141,"2026-02-02 19:00:00","51897","0.514","202.6","1.209","197.4","993.7664","12.93","98.7","NAN","0.0"],
    [1540142,"2026-02-02 19:10:00","51898","0.8190000000000001","217.0","1.764","233.4","993.8687","12.78","98.8","NAN","0.0"],
    [1540143,"2026-02-02 19:20:00","51899","1.057","215.8","2.483","217.1","994.0529","12.78","99.1","NAN","0.0"],
    [1540144,"2026-02-02 19:30:00","51900","1.3880000000000001","230.2","3.103","220.1","994.0351","12.74","99","NAN","0.0"],
    [1540145,"2026-02-02 19:40:00","51901","1.0659999999999998","225.6","2.7110000000000003","237.1","993.9818","12.72","98.7","NAN","0.0"],
    [1540146,"2026-02-02 19:50:00","51902","1.794","229.6","5.39","256.0","995.0399","12.65","98.7","NAN","1.5"],
    [1540147,"2026-02-02 20:00:00","51903","3.853","259.2","10.49","280.7","995.1813","11.9","99.1","NAN","1.3"],
    [1540148,"2026-02-02 20:10:00","51904","3.3289999999999997","261.0","9.8","260.1","995.3365","10.49","94.7","NAN","0.5"],
    [1540149,"2026-02-02 20:20:00","51905","2.63","291.9","6.729","291.3","994.7339","11.74","76.74","NAN","0.0"],
    [1540150,"2026-02-02 20:30:00","51906","3.2319999999999998","262.2","8.1","270.4","994.5762","12.53","69.9","NAN","0.0"],
    [1540151,"2026-02-02 20:40:00","51907","2.8710000000000004","268.8","7.218999999999999","315.3","994.5967","12.42","67.07","NAN","0.0"],
    [1540152,"2026-02-02 20:50:00","51908","2.603","283.3","6.272","341.3","994.482","12.62","64.46","NAN","0.0"],
    [1540153,"2026-02-02 21:00:00","51909","2.2030000000000003","234.8","5.096","231.2","995.3436","12.57","65.7","NAN","0.0"],
    [1540154,"2026-02-02 21:10:00","51910","1.641","233.1","5.292000000000001","254.5","995.4965","12.22","70.12","NAN","0.0"],
    [1540155,"2026-02-02 21:20:00","51911","1.517","236.3","3.855","249.8","995.6221","12.02","72.16","NAN","0.0"],
    [1540156,"2026-02-02 21:30:00","51912","1.02","209.9","2.025","199.5","996.0181","11.55","75.8","NAN","0.0"],
    [1540157,"2026-02-02 21:40:00","51913","1.3519999999999999","214.4","2.7110000000000003","194.4","996.4341","11.16","77.53","NAN","0.0"],
    [1540158,"2026-02-02 21:50:00","51914","1.288","215.6","2.613","212.4","996.5982","11.12","77.33","NAN","0.0"],
    [1540159,"2026-02-02 22:00:00","51915","1.505","223.6","3.593","229.9","996.7626","11.21","77.07","NAN","0.0"],
    [1540160,"2026-02-02 22:10:00","51916","1.409","226.5","3.365","230.6","996.8346","11.23","75.18","NAN","0.0"],
    [1540161,"2026-02-02 22:20:00","51917","2.064","233.0","5.553","245.3","996.8473","11.66","70.91","NAN","0.0"],
    [1540162,"2026-02-02 22:30:00","51918","2.455","237.9","5.586","234.4","996.9443","12.12","68.51","NAN","0.0"],
    [1540163,"2026-02-02 22:40:00","51919","1.87","229.0","5.063","219.2","997.0092","11.91","69.61","NAN","0.0"],
    [1540164,"2026-02-02 22:50:00","51920","1.5959999999999999","235.2","3.6260000000000003","241.6","997.1411","11.59","71.53","NAN","0.0"],
    [1540165,"2026-02-02 23:00:00","51921","1.273","230.6","3.103","256.7","997.1711","11.57","72.08","NAN","0.0"],
    [1540166,"2026-02-02 23:10:00","51922","1.275","216.0","2.875","255.4","997.1859","11.22","75.94","NAN","0.0"],
    [1540167,"2026-02-02 23:20:00","51923","1.527","228.5","4.051","231.0","997.203","11.28","74.95","NAN","0.0"],
    [1540168,"2026-02-02 23:30:00","51924","1.406","222.6","3.5610000000000004","207.5","997.1135","11.4","71.7","NAN","0.0"],
    [1540169,"2026-02-02 23:40:00","51925","1.331","226.6","3.332","238.0","997.1185","11.31","70.56","NAN","0.0"],
    [1540170,"2026-02-02 23:50:00","51926","1.2229999999999999","241.2","3.1689999999999996","239.2","997.2935","11.54","66.98","NAN","0.0"],
    [1540171,"2026-02-03 00:00:00","51927","2.011","237.2","4.377","233.4","997.3554","11.88","61.26","NAN","0.0"],
    [1540172,"2026-02-03 00:10:00","51928","2.157","235.6","4.704","254.8","997.405","12.2","56.46","NAN","0.0"],
    [1540173,"2026-02-03 00:20:00","51929","2.392","236.6","4.573","243.1","997.46","12.14","55.42","NAN","0.0"],
    [1540174,"2026-02-03 00:30:00","51930","2.6069999999999998","234.6","5.553","234.1","997.632","12.16","54.59","NAN","0.0"],
    [1540175,"2026-02-03 00:40:00","51931","2.708","236.1","4.835","224.8","997.7861","12.12","54.25","NAN","0.0"],
    [1540176,"2026-02-03 00:50:00","51932","2.19","241.0","6.37","246.4","997.8262","12.17","53.55","NAN","0.0"],
    [1540177,"2026-02-03 01:00:00","51933","1.4280000000000002","240.9","3.659","255.0","997.8735","11.96","54.44","NAN","0.0"],
    [1540178,"2026-02-03 01:10:00","51934","1.081","228.9","3.6260000000000003","244.9","998.0581","11.78","55.25","NAN","0.0"],
    [1540179,"2026-02-03 01:20:00","51935","0.684","229.4","1.9269999999999998","179.5","998.1925","11.47","57.19","NAN","0.0"],
    [1540180,"2026-02-03 01:30:00","51936","0.775","236.8","2.8089999999999997","257.7","998.3968","11.32","57.25","NAN","0.0"],
    [1540181,"2026-02-03 01:40:00","51937","0.511","277.2","2.352","269.3","998.4189","11.42","56.42","NAN","0.0"],
    [1540182,"2026-02-03 01:50:00","51938","0.5820000000000001","212.7","1.96","242.9","998.4139","11.33","56.32","NAN","0.0"],
    [1540183,"2026-02-03 02:00:00","51939","0.414","135.3","1.078","98.9","998.5292","11.22","56.85","NAN","0.0"],
    [1540184,"2026-02-03 02:10:00","51940","0.7490000000000001","186.5","1.601","207.4","998.9674","10.61","61.21","NAN","0.0"],
    [1540185,"2026-02-03 02:20:00","51941","0.643","172.6","1.405","199.2","999.1173","10.29","63.41","NAN","0.0"],
    [1540186,"2026-02-03 02:30:00","51942","0.111","91.6","0.653","25.55","999.3586","10.39","61.88","NAN","0.0"],
    [1540187,"2026-02-03 02:40:00","51943","0.71","212.1","1.797","181.1","999.6646","10.29","63.05","NAN","0.0"],
    [1540188,"2026-02-03 02:50:00","51944","1.185","211.2","3.005","226.9","999.9312","10.05","64.36","NAN","0.0"],
    [1540189,"2026-02-03 03:00:00","51945","0.9229999999999999","220.7","2.842","189.0","1000.039","10.06","63.86","NAN","0.0"],
    [1540190,"2026-02-03 03:10:00","51946","1.369","230.9","3.659","247.6","1000.148","10.37","61.15","NAN","0.0"],
    [1540191,"2026-02-03 03:20:00","51947","1.042","217.7","1.895","251.0","1000.29","10.15","63.04","NAN","0.0"],
    [1540192,"2026-02-03 03:30:00","51948","0.765","231.1","1.601","219.6","1000.372","9.64","64.81","NAN","0.0"],
    [1540193,"2026-02-03 03:40:00","51949","0.68","233.4","2.385","224.8","1000.388","9.81","63.86","NAN","0.0"],
    [1540194,"2026-02-03 03:50:00","51950","0.639","242.1","1.699","246.9","1000.48","9.77","64.38","NAN","0.0"],
    [1540195,"2026-02-03 04:00:00","51951","0.718","244.8","1.47","290.5","1000.64","9.75","64.82","NAN","0.0"],
    [1540196,"2026-02-03 04:10:00","51952","0.914","250.8","1.797","235.1","1000.7589999999999","9.89","63.93","NAN","0.0"],
    [1540197,"2026-02-03 04:20:00","51953","0.605","276.6","1.797","259.4","1000.7660000000001","9.87","64.76","NAN","0.0"],
    [1540198,"2026-02-03 04:30:00","51954","1.052","244.5","2.221","200.3","1000.875","9.8","65.08","NAN","0.0"],
    [1540199,"2026-02-03 04:40:00","51955","0.517","255.1","1.5030000000000001","295.6","1000.898","9.95","63.48","NAN","0.0"],
    [1540200,"2026-02-03 04:50:00","51956","0.48100000000000004","219.9","1.078","206.7","1000.927","9.49","65.98","NAN","0.0"],
    [1540201,"2026-02-03 05:00:00","51957","0.662","226.0","1.633","224.8","1000.91","9.39","66.75","NAN","0.0"],
    [1540202,"2026-02-03 05:10:00","51958","0.685","318.9","1.307","289.9","1000.948","9.74","66.21","NAN","0.0"],
    [1540203,"2026-02-03 05:20:00","51959","0.508","218.1","1.078","196.6","1001.018","9.85","66.03","NAN","0.0"],
    [1540204,"2026-02-03 05:30:00","51960","0.732","215.5","1.078","218.0","1001.0830000000001","9","70.65","NAN","0.0"],
    [1540205,"2026-02-03 05:40:00","51961","0.635","199.3","0.915","204.7","1001.2819999999999","8.75","72.26","NAN","0.0"],
    [1540206,"2026-02-03 05:50:00","51962","0.073","180.3","0.555","175.8","1001.446","8.63","75.58","NAN","0.0"],
    [1540207,"2026-02-03 06:00:00","51963","0.294","249.9","0.8170000000000001","237.4","1001.618","8.63","74.8","NAN","0.0"],
    [1540208,"2026-02-03 06:10:00","51964","0.366","252.6","0.882","238.1","1001.6310000000001","8.85","71.7","NAN","0.0"],
    [1540209,"2026-02-03 06:20:00","51965","0.521","248.0","1.045","249.1","1001.701","9.57","66.71","NAN","0.0"],
    [1540210,"2026-02-03 06:30:00","51966","0.537","264.5","0.882","273.1","1001.7","9.42","67.18","NAN","0.0"],
    [1540211,"2026-02-03 06:40:00","51967","0.562","257.3","1.111","250.0","1001.755","9.8","64.82","NAN","0.0"],
    [1540212,"2026-02-03 06:50:00","51968","0.63","258.3","1.3719999999999999","247.1","1001.668","9.9","64.86","NAN","0.0"],
    [1540213,"2026-02-03 07:00:00","51969","0.591","271.2","1.078","262.5","1001.7710000000001","10.12","63.84","NAN","0.0"],
    [1540214,"2026-02-03 07:10:00","51970","0.8109999999999999","299.3","1.2409999999999999","302.3","1002.025","10.21","63.94","NAN","0.0"],
    [1540215,"2026-02-03 07:20:00","51971","0.37200000000000005","268.6","1.143","285.1","1002.1339999999999","10.15","64.6","NAN","0.0"],
    [1540216,"2026-02-03 07:30:00","51972","0.8140000000000001","260.2","1.699","249.5","1002.183","10.06","63.59","NAN","0.0"],
    [1540217,"2026-02-03 07:40:00","51973","0.871","270.9","1.568","284.3","1002.257","10.38","62.34","NAN","0.0"],
    [1540218,"2026-02-03 07:50:00","51974","0.591","272.4","1.274","284.2","1002.2719999999999","10.45","62.14","NAN","0.0"],
    [1540219,"2026-02-03 08:00:00","51975","0.563","263.7","1.143","282.2","1002.373","10.56","62.3","NAN","0.0"],
    [1540220,"2026-02-03 08:10:00","51976","0.677","251.7","1.307","280.1","1002.3489999999999","11","61.05","NAN","0.0"],
    [1540221,"2026-02-03 08:20:00","51977","0.695","229.4","1.5030000000000001","221.7","1002.347","11.17","60.21","NAN","0.0"],
    [1540222,"2026-02-03 08:30:00","51978","0.568","212.2","1.274","218.2","1002.492","11.41","61.19","NAN","0.0"],
    [1540223,"2026-02-03 08:40:00","51979","0.377","201.0","1.176","218.2","1002.56","12.13","58.64","NAN","0.0"],
    [1540224,"2026-02-03 08:50:00","51980","0.109","123.6","0.588","89.8","1002.564","13.13","54.73","NAN","0.0"],
    [1540225,"2026-02-03 09:00:00","51981","0.652","85.6","1.045","81.9","1002.643","13.61","53.65","NAN","0.0"],
    [1540226,"2026-02-03 09:10:00","51982","0.603","74.75","1.078","52.19","1002.543","13.63","55.18","NAN","0.0"],
    [1540227,"2026-02-03 09:20:00","51983","0.617","351.9","3.7569999999999997","321.7","1002.663","14.35","51.48","NAN","0.0"],
    [1540228,"2026-02-03 09:30:00","51984","1.2570000000000001","294.7","3.495","333.1","1002.698","13.89","45.7","NAN","0.0"],
    [1540229,"2026-02-03 09:40:00","51985","1.2919999999999998","286.8","3.201","246.5","1002.748","14.22","44.41","NAN","0.0"],
    [1540230,"2026-02-03 09:50:00","51986","1.119","290.5","3.1689999999999996","317.2","1002.778","14.21","44.07","NAN","0.0"],
    [1540231,"2026-02-03 10:00:00","51987","0.846","231.1","1.7309999999999999","225.6","1002.91","14.53","46.51","NAN","0.0"],
    [1540232,"2026-02-03 10:10:00","51988","1.203","200.9","3.332","244.0","1002.992","14.55","50.32","NAN","0.0"],
    [1540233,"2026-02-03 10:20:00","51989","1.093","256.7","2.6460000000000004","238.3","1003.0369999999999","14.66","45.29","NAN","0.0"],
    [1540234,"2026-02-03 10:30:00","51990","1.026","257.3","2.156","259.2","1003.079","14.93","44.63","NAN","0.0"],
    [1540235,"2026-02-03 10:40:00","51991","1.127","236.6","2.907","224.9","1003.0269999999999","15.11","44.59","NAN","0.0"],
    [1540236,"2026-02-03 10:50:00","51992","1.476","238.1","3.332","236.6","1003.049","14.86","44.9","NAN","0.0"],
    [1540237,"2026-02-03 11:00:00","51993","1.0979999999999999","240.3","2.9730000000000003","241.3","1002.952","15.11","43.96","NAN","0.0"],
    [1540238,"2026-02-03 11:10:00","51994","1.4569999999999999","226.7","3.43","248.8","1002.76","15.13","43.95","NAN","0.0"],
    [1540239,"2026-02-03 11:20:00","51995","1.607","228.2","3.822","229.3","1002.6569999999999","15.27","42.75","NAN","0.0"],
    [1540240,"2026-02-03 11:30:00","51996","1.351","223.2","2.7110000000000003","213.1","1002.5089999999999","15.42","43.44","NAN","0.0"],
    [1540241,"2026-02-03 11:40:00","51997","1.5319999999999998","211.0","3.136","208.1","1002.312","15.67","43.26","NAN","0.0"],
    [1540242,"2026-02-03 11:50:00","51998","1.4480000000000002","224.9","3.365","212.8","1002.238","15.66","42.55","NAN","0.0"],
    [1540243,"2026-02-03 12:00:00","51999","1.515","204.2","3.6260000000000003","179.0","1002.1619999999999","15.82","44.68","NAN","0.0"],
    [1540244,"2026-02-03 12:10:00","52000","2.853","176.9","5.292000000000001","178.0","1002.125","14.66","56.76","NAN","0.0"],
    [1540245,"2026-02-03 12:20:00","52001","2.444","177.4","4.541","174.6","1001.945","14.54","59.13","NAN","0.0"],
    [1540246,"2026-02-03 12:30:00","52002","2.035","192.8","4.345","204.8","1001.752","14.99","56.47","NAN","0.0"],
    [1540247,"2026-02-03 12:40:00","52003","2.123","194.8","4.149","197.8","1001.59","15.16","54.68","NAN","0.0"],
    [1540248,"2026-02-03 12:50:00","52004","1.689","192.5","3.7569999999999997","179.4","1001.462","15.43","54.34","NAN","0.0"],
    [1540249,"2026-02-03 13:00:00","52005","2.434","184.1","4.704","171.7","1001.372","15.15","54.81","NAN","0.0"],
    [1540250,"2026-02-03 13:10:00","52006","3.2089999999999996","175.2","5.096","180.9","1001.283","14.16","63.74","NAN","0.0"],
    [1540251,"2026-02-03 13:20:00","52007","3.1919999999999997","173.4","4.737","193.1","1001.1139999999999","14.24","63.41","NAN","0.0"],
    [1540252,"2026-02-03 13:30:00","52008","3.634","172.4","5.553","172.2","1000.927","14.29","61.56","NAN","0.0"],
    [1540253,"2026-02-03 13:40:00","52009","3.2030000000000003","171.9","4.9","177.0","1000.752","14.59","59.69","NAN","0.0"],
    [1540254,"2026-02-03 13:50:00","52010","2.5069999999999997","173.5","4.541","172.4","1000.61","14.93","55.01","NAN","0.0"],
    [1540255,"2026-02-03 14:00:00","52011","1.946","183.4","3.6910000000000003","167.9","1000.4169999999999","15.38","52.13","NAN","0.0"],
    [1540256,"2026-02-03 14:10:00","52012","2.707","172.5","4.573","178.7","1000.311","14.79","58.08","NAN","0.0"],
    [1540257,"2026-02-03 14:20:00","52013","2.056","189.3","4.573","183.9","1000.3510000000001","14.93","55.25","NAN","0.0"],
    [1540258,"2026-02-03 14:30:00","52014","2.206","193.9","4.377","192.7","1000.342","15.04","51.09","NAN","0.0"],
    [1540259,"2026-02-03 14:40:00","52015","2.761","199.7","5.357","210.1","1000.235","14.98","49.08","NAN","0.0"],
    [1540260,"2026-02-03 14:50:00","52016","2.335","209.4","5.227","191.7","1000.189","15.24","46.37","NAN","0.0"],
    [1540261,"2026-02-03 15:00:00","52017","2.4859999999999998","205.0","5.031000000000001","213.5","1000.133","15.24","44.2","NAN","0.0"],
    [1540262,"2026-02-03 15:10:00","52018","1.804","215.1","5.129","201.5","1000.166","15.43","42.68","NAN","0.0"],
    [1540263,"2026-02-03 15:20:00","52019","2.259","212.5","5.619","228.5","1000.128","15.22","47","NAN","0.0"],
    [1540264,"2026-02-03 15:30:00","52020","2.267","206.8","4.345","200.7","1000.179","14.72","54.61","NAN","0.0"],
    [1540265,"2026-02-03 15:40:00","52021","2.082","200.5","4.018","189.4","1000.19","14.44","57.55","NAN","0.0"],
    [1540266,"2026-02-03 15:50:00","52022","2.016","201.6","5.129","211.7","1000.127","14.09","60.86","NAN","0.0"],
    [1540267,"2026-02-03 16:00:00","52023","1.7990000000000002","211.4","3.9530000000000003","207.0","1000.122","14.12","60.59","NAN","0.0"],
    [1540268,"2026-02-03 16:10:00","52024","1.944","207.1","4.149","175.9","1000.187","14","62.18","NAN","0.0"],
    [1540269,"2026-02-03 16:20:00","52025","1.7480000000000002","223.6","3.822","228.8","1000.2539999999999","13.92","62.62","NAN","0.0"],
    [1540270,"2026-02-03 16:30:00","52026","1.744","217.2","3.887","208.6","1000.252","13.79","63.8","NAN","0.0"],
    [1540271,"2026-02-03 16:40:00","52027","1.588","219.3","4.671","221.2","1000.257","13.55","63.79","NAN","0.0"],
    [1540272,"2026-02-03 16:50:00","52028","2.015","221.2","4.312","218.9","1000.341","13.4","61.44","NAN","0.0"],
    [1540273,"2026-02-03 17:00:00","52029","1.702","226.4","4.083","237.7","1000.302","13.35","59.94","NAN","0.0"],
    [1540274,"2026-02-03 17:10:00","52030","1.4040000000000001","225.8","3.6910000000000003","237.9","1000.367","13.29","59.73","NAN","0.0"],
    [1540275,"2026-02-03 17:20:00","52031","1.061","231.2","3.005","245.3","1000.416","13.13","60.12","NAN","0.0"],
    [1540276,"2026-02-03 17:30:00","52032","1.192","238.8","2.7439999999999998","272.6","1000.4760000000001","13.16","60.34","NAN","0.0"],
    [1540277,"2026-02-03 17:40:00","52033","1.76","240.4","3.7889999999999997","257.9","1000.5060000000001","13.11","61.37","NAN","0.0"],
    [1540278,"2026-02-03 17:50:00","52034","1.53","235.2","2.9730000000000003","240.3","1000.544","13.03","63.18","NAN","0.0"],
    [1540279,"2026-02-03 18:00:00","52035","1.7690000000000001","240.4","3.6910000000000003","264.1","1000.533","12.93","64.84","NAN","0.0"],
    [1540280,"2026-02-03 18:10:00","52036","1.1909999999999998","238.2","2.7769999999999997","230.4","1000.5139999999999","12.81","66.53","NAN","0.0"],
    [1540281,"2026-02-03 18:20:00","52037","1.34","234.4","2.94","237.1","1000.5260000000001","12.69","67.85","NAN","0.0"],
    [1540282,"2026-02-03 18:30:00","52038","1.215","240.0","3.136","253.5","1000.565","12.55","69.22","NAN","0.0"],
    [1540283,"2026-02-03 18:40:00","52039","1.306","244.8","2.875","243.0","1000.703","12.48","69.97","NAN","0.0"],
    [1540284,"2026-02-03 18:50:00","52040","1.425","244.2","2.9730000000000003","254.8","1000.699","12.45","69.83","NAN","0.0"],
    [1540285,"2026-02-03 19:00:00","52041","1.3659999999999999","224.7","2.907","233.5","1000.804","12.32","69.44","NAN","0.0"],
    [1540286,"2026-02-03 19:10:00","52042","1.415","227.6","3.267","222.5","1000.743","12.09","70.41","NAN","0.0"],
    [1540287,"2026-02-03 19:20:00","52043","0.975","237.4","2.6460000000000004","243.9","1000.69","12.05","70.18","NAN","0.0"],
    [1540288,"2026-02-03 19:30:00","52044","1.136","219.3","2.5810000000000004","229.9","1000.6030000000001","12.02","67.46","NAN","0.0"],
    [1540289,"2026-02-03 19:40:00","52045","0.92","223.5","2.123","219.1","1000.5039999999999","11.92","66.61","NAN","0.0"],
    [1540290,"2026-02-03 19:50:00","52046","0.81","226.1","2.7769999999999997","201.9","1000.5089999999999","11.76","67.12","NAN","0.0"],
    [1540291,"2026-02-03 20:00:00","52047","1.0390000000000001","229.4","2.5810000000000004","271.6","1000.6030000000001","11.81","67.06","NAN","0.0"],
    [1540292,"2026-02-03 20:10:00","52048","0.8420000000000001","211.5","1.829","213.8","1000.5010000000001","11.6","68.56","NAN","0.0"],
    [1540293,"2026-02-03 20:20:00","52049","0.648","227.1","1.96","252.9","1000.37","11.22","69.85","NAN","0.0"],
    [1540294,"2026-02-03 20:30:00","52050","1.229","232.7","2.287","234.2","1000.372","11.56","68.46","NAN","0.0"],
    [1540295,"2026-02-03 20:40:00","52051","0.867","219.1","2.221","240.7","1000.367","11.53","67.13","NAN","0.0"],
    [1540296,"2026-02-03 20:50:00","52052","1.014","228.0","2.123","211.4","1000.3739999999999","11.45","65.3","NAN","0.0"],
    [1540297,"2026-02-03 21:00:00","52053","0.7190000000000001","225.3","1.4369999999999998","214.0","1000.3839999999999","11.43","64.67","NAN","0.0"],
    [1540298,"2026-02-03 21:10:00","52054","0.625","257.1","2.025","269.4","1000.398","11.5","64.33","NAN","0.0"],
    [1540299,"2026-02-03 21:20:00","52055","0.61","207.6","1.633","263.6","1000.367","11.53","66.05","NAN","0.0"],
    [1540300,"2026-02-03 21:30:00","52056","0.715","186.2","1.405","194.6","1000.322","11.14","68.61","NAN","0.0"],
    [1540301,"2026-02-03 21:40:00","52057","0.177","165.7","0.8170000000000001","173.8","1000.326","10.62","70.44","NAN","0.0"],
    [1540302,"2026-02-03 21:50:00","52058","0.053","132.4","0.49","120.4","1000.372","10.33","71.35","NAN","0.0"],
    [1540303,"2026-02-03 22:00:00","52059","0.133","195.2","0.555","229.2","1000.438","10.22","71.63","NAN","0.0"],
    [1540304,"2026-02-03 22:10:00","52060","0.009000000000000001","246.1","0.261","234.4","1000.436","10.26","73.33","NAN","0.0"],
    [1540305,"2026-02-03 22:20:00","52061","0.001","299.6","0.098","300.7","1000.2769999999999","10.46","72.33","NAN","0.0"],
    [1540306,"2026-02-03 22:30:00","52062","0.139","49.42","0.588","73.64","1000.1669999999999","10.64","67.88","NAN","0.0"],
    [1540307,"2026-02-03 22:40:00","52063","0.0","0.0","0.0","0.0","1000.1160000000001","10.64","66.58","NAN","0.0"],
    [1540308,"2026-02-03 22:50:00","52064","0.049","45.02","0.392","41.79","1000.1210000000001","10.36","65.02","NAN","0.0"],
    [1540309,"2026-02-03 23:00:00","52065","0.7120000000000001","24.15","1.274","36.21","999.92","10.4","64.01","NAN","0.0"],
    [1540310,"2026-02-03 23:10:00","52066","0.872","3.5839999999999996","1.339","6.757999999999999","999.9515","10.5","62.46","NAN","0.0"],
    [1540311,"2026-02-03 23:20:00","52067","0.539","4.033","1.013","353.5","999.8607","10.56","62.89","NAN","0.0"],
    [1540312,"2026-02-03 23:30:00","52068","0.5710000000000001","35.88","1.045","51.87","999.7167","10.29","64.68","NAN","0.0"],
    [1540313,"2026-02-03 23:40:00","52069","0.41700000000000004","34.66","0.9470000000000001","24.8","999.5013","10.11","65.86","NAN","0.0"],
    [1540314,"2026-02-03 23:50:00","52070","0.19899999999999998","14.71","0.588","0.192","999.3635","9.97","66.71","NAN","0.0"],
    [1540315,"2026-02-04 00:00:00","52071","0.188","8.54","0.621","3.06","999.2560000000001","9.91","67.57","NAN","0.0"],
    [1540316,"2026-02-04 00:10:00","52072","0.0","0.0","0.0","0.0","999.0871","9.51","69.6","NAN","0.0"],
    [1540317,"2026-02-04 00:20:00","52073","0.0","0.0","0.0","0.0","998.8989","9.59","70.67","NAN","0.0"],
    [1540318,"2026-02-04 00:30:00","52074","0.332","51.29","0.915","59.0","998.7512","9.47","70.91","NAN","0.0"],
    [1540319,"2026-02-04 00:40:00","52075","0.479","23.24","1.209","35.46","998.5652","9.29","71.88","NAN","0.0"],
    [1540320,"2026-02-04 00:50:00","52076","0.5720000000000001","12.51","1.797","7.23","998.4213","9.46","71.49","NAN","0.0"],
    [1540321,"2026-02-04 01:00:00","52077","0.588","15.76","1.209","36.9","998.3315","9.41","72.11","NAN","0.0"],
    [1540322,"2026-02-04 01:10:00","52078","0.897","9.09","1.535","48.0","998.1474","9.4","72.28","NAN","0.0"],
    [1540323,"2026-02-04 01:20:00","52079","0.5920000000000001","11.2","1.3719999999999999","9.82","998.1474","9.3","72.78","NAN","0.0"],
    [1540324,"2026-02-04 01:30:00","52080","0.804","11.05","1.4369999999999998","31.82","998.0566","9.25","73.02","NAN","0.0"],
    [1540325,"2026-02-04 01:40:00","52081","0.815","3.5180000000000002","1.601","9.85","997.9185","9.25","72.9","NAN","0.0"],
    [1540326,"2026-02-04 01:50:00","52082","0.87","10.92","1.5030000000000001","17.54","997.7283","9.23","72.8","NAN","0.0"],
    [1540327,"2026-02-04 02:00:00","52083","0.9520000000000001","2.9789999999999996","1.699","4.7589999999999995","997.6392","9.2","72.61","NAN","0.0"],
    [1540328,"2026-02-04 02:10:00","52084","0.722","24.24","2.0580000000000003","3.237","997.4836","9.17","72.71","NAN","0.0"],
    [1540329,"2026-02-04 02:20:00","52085","1.328","2.866","2.221","6.556","997.385","9.02","73.01","NAN","0.0"],
    [1540330,"2026-02-04 02:30:00","52086","1.268","5.843","2.189","7.3420000000000005","997.2227","9.13","72.68","NAN","0.0"],
    [1540331,"2026-02-04 02:40:00","52087","0.9009999999999999","21.31","1.7309999999999999","29.84","997.0165","9.06","72.98","NAN","0.0"],
    [1540332,"2026-02-04 02:50:00","52088","1.429","7.093999999999999","2.6460000000000004","12.86","996.7098","8.94","73.09","NAN","0.0"],
    [1540333,"2026-02-04 03:00:00","52089","1.319","5.565","2.483","12.3","996.5073","8.93","72.73","NAN","0.0"],
    [1540334,"2026-02-04 03:10:00","52090","1.389","6.4479999999999995","2.385","18.91","996.3049","8.92","72.56","NAN","0.0"],
    [1540335,"2026-02-04 03:20:00","52091","1.569","5.446000000000001","2.515","9.9","995.9689","8.88","72.05","NAN","0.0"],
    [1540336,"2026-02-04 03:30:00","52092","1.534","4.876","2.0909999999999997","16.52","995.6856","8.86","71.76","NAN","0.0"],
    [1540337,"2026-02-04 03:40:00","52093","1.1740000000000002","2.461","2.45","2.7760000000000002","995.7007","8.89","71.36","NAN","0.0"],
    [1540338,"2026-02-04 03:50:00","52094","1.085","7.04","1.895","33.14","995.6358","8.87","71.05","NAN","0.0"],
    [1540339,"2026-02-04 04:00:00","52095","1.281","4.293","1.993","359.4","995.4139","8.85","71.1","NAN","0.0"],
    [1540340,"2026-02-04 04:10:00","52096","1.329","7.232","2.875","9.34","995.0914","8.92","70.92","NAN","0.0"],
    [1540341,"2026-02-04 04:20:00","52097","1.2570000000000001","6.188","2.352","10.71","994.9828","8.95","71.11","NAN","0.0"],
    [1540342,"2026-02-04 04:30:00","52098","1.294","6.065","2.221","35.87","994.9084","9.07","70.62","NAN","0.0"],
    [1540343,"2026-02-04 04:40:00","52099","1.412","6.452999999999999","2.156","2.628","994.8408","9.09","70.17","NAN","0.0"],
    [1540344,"2026-02-04 04:50:00","52100","1.3619999999999999","8.14","2.287","9.6","994.6648","9.07","70.03","NAN","0.0"],
    [1540345,"2026-02-04 05:00:00","52101","1.16","5.92","1.8619999999999999","26.07","994.5132","9.19","70.03","NAN","0.0"],
    [1540346,"2026-02-04 05:10:00","52102","1.411","7.145","2.221","17.05","994.3557","9.24","70.22","NAN","0.0"],
    [1540347,"2026-02-04 05:20:00","52103","1.3630000000000002","5.1","3.332","12.74","994.1658","9.23","70.62","NAN","0.0"],
    [1540348,"2026-02-04 05:30:00","52104","1.138","13.04","1.797","359.1","994.0648","9.19","71.01","NAN","0.0"],
    [1540349,"2026-02-04 05:40:00","52105","0.77","7.939","1.47","4.71","993.9775","9.08","71.48","NAN","0.0"],
    [1540350,"2026-02-04 05:50:00","52106","1.122","6.94","2.025","24.57","993.8894","9.12","71.96","NAN","0.0"],
    [1540351,"2026-02-04 06:00:00","52107","0.852","0.805","1.601","358.6","993.8547","9.12","73.61","NAN","0.0"],
    [1540352,"2026-02-04 06:10:00","52108","0.613","327.3","1.9269999999999998","359.3","993.8113","9.27","74.82","NAN","0.0"],
    [1540353,"2026-02-04 06:20:00","52109","0.8240000000000001","5.718","1.633","352.5","993.7842","9.23","75.15","NAN","0.0"],
    [1540354,"2026-02-04 06:30:00","52110","0.5589999999999999","358.0","1.4369999999999998","25.75","993.7776","9.3","75.26","NAN","0.0"],
    [1540355,"2026-02-04 06:40:00","52111","0.128","87.2","0.6859999999999999","171.9","993.7541","9.19","77.15","NAN","0.0"],
    [1540356,"2026-02-04 06:50:00","52112","0.016","349.3","0.523","349.5","993.6775","9.22","77.65","NAN","0.0"],
    [1540357,"2026-02-04 07:00:00","52113","0.157","174.0","0.882","180.9","993.685","9.22","79.25","NAN","0.0"],
    [1540358,"2026-02-04 07:10:00","52114","0.083","190.7","0.359","197.7","993.7366","9.25","83.5","NAN","0.0"],
    [1540359,"2026-02-04 07:20:00","52115","0.304","239.4","1.666","232.6","993.8498","9.32","84.6","NAN","0.0"],
    [1540360,"2026-02-04 07:30:00","52116","0.833","224.2","2.0909999999999997","238.7","993.8544","9.92","81.5","NAN","0.0"],
    [1540361,"2026-02-04 07:40:00","52117","0.981","221.1","1.96","208.5","993.8457","10.09","78.91","NAN","0.0"],
    [1540362,"2026-02-04 07:50:00","52118","1.056","225.5","2.352","224.0","993.7804","10.14","78.39","NAN","0.0"],
    [1540363,"2026-02-04 08:00:00","52119","1.4880000000000002","246.1","3.0380000000000003","236.4","993.7193","10.08","78.48","NAN","0.0"],
    [1540364,"2026-02-04 08:10:00","52120","1.496","248.1","3.234","257.7","993.6160000000001","9.89","78.9","NAN","0.1"],
    [1540365,"2026-02-04 08:20:00","52121","1.463","235.3","2.7439999999999998","245.1","993.6013","9.86","80.1","NAN","0.1"],
    [1540366,"2026-02-04 08:30:00","52122","1.514","227.5","4.508","238.1","993.5089","9.94","81","NAN","0.0"],
    [1540367,"2026-02-04 08:40:00","52123","1.5430000000000001","218.1","3.6260000000000003","221.3","993.4703","10.33","78.9","NAN","0.0"],
    [1540368,"2026-02-04 08:50:00","52124","1.9169999999999998","219.0","3.7569999999999997","216.3","993.3344","10.55","76.12","NAN","0.0"],
    [1540369,"2026-02-04 09:00:00","52125","1.324","214.4","2.7110000000000003","201.1","993.2625","10.53","76.59","NAN","0.0"],
    [1540370,"2026-02-04 09:10:00","52126","1.6119999999999999","216.9","3.528","205.3","993.1379","10.56","76.08","NAN","0.0"],
    [1540371,"2026-02-04 09:20:00","52127","1.436","217.1","3.43","231.2","993.1927","10.66","74.51","NAN","0.0"],
    [1540372,"2026-02-04 09:30:00","52128","1.83","217.7","3.659","230.1","993.2305","10.64","74.16","NAN","0.0"],
    [1540373,"2026-02-04 09:40:00","52129","0.986","211.8","2.123","225.4","993.2264","10.64","75.23","NAN","0.0"],
    [1540374,"2026-02-04 09:50:00","52130","1.494","214.2","4.247","240.0","993.1033","10.67","74.43","NAN","0.0"],
    [1540375,"2026-02-04 10:00:00","52131","1.347","217.8","3.6910000000000003","223.1","992.9225","10.85","72.81","NAN","0.0"],
    [1540376,"2026-02-04 10:10:00","52132","1.1320000000000001","223.7","2.875","206.7","992.7809","11.35","70.44","NAN","0.0"],
    [1540377,"2026-02-04 10:20:00","52133","1.265","239.8","3.234","218.6","992.7825","11.47","69.18","NAN","0.0"],
    [1540378,"2026-02-04 10:30:00","52134","1.516","230.5","3.528","228.7","992.7753","11.38","68.08","NAN","0.0"],
    [1540379,"2026-02-04 10:40:00","52135","1.261","230.9","3.234","247.1","992.7776","11.47","68.08","NAN","0.0"],
    [1540380,"2026-02-04 10:50:00","52136","0.898","211.5","2.025","196.7","992.6877","11.56","68.71","NAN","0.0"],
    [1540381,"2026-02-04 11:00:00","52137","1.6","189.2","3.201","175.1","992.6254","11.44","69.66","NAN","0.0"],
    [1540382,"2026-02-04 11:10:00","52138","1.401","182.9","2.483","176.0","992.5283","11.5","70.2","NAN","0.0"],
    [1540383,"2026-02-04 11:20:00","52139","1.227","191.4","2.221","198.6","992.4437","11.51","70.24","NAN","0.0"],
    [1540384,"2026-02-04 11:30:00","52140","1.324","209.4","2.613","236.1","992.4136","11.55","69.58","NAN","0.0"],
    [1540385,"2026-02-04 11:40:00","52141","1.212","204.0","3.071","204.6","992.2867","11.6","68.65","NAN","0.0"],
    [1540386,"2026-02-04 11:50:00","52142","1.203","228.0","2.7439999999999998","185.7","992.1497","11.74","67.41","NAN","0.0"],
    [1540387,"2026-02-04 12:00:00","52143","0.903","257.5","2.548","282.9","992.0602","11.75","66.22","NAN","0.0"],
    [1540388,"2026-02-04 12:10:00","52144","1.101","225.6","3.234","244.7","991.9028","11.94","65.51","NAN","0.0"],
    [1540389,"2026-02-04 12:20:00","52145","0.953","234.3","3.6260000000000003","258.5","991.7385","12.43","64.16","NAN","0.0"],
    [1540390,"2026-02-04 12:30:00","52146","1.841","227.3","3.495","237.2","991.5472","12.23","64.09","NAN","0.0"],
    [1540391,"2026-02-04 12:40:00","52147","1.709","224.5","3.9530000000000003","235.6","991.4747","12.12","65.76","NAN","0.0"],
    [1540392,"2026-02-04 12:50:00","52148","1.496","210.1","3.43","197.3","991.3728","12.14","67.22","NAN","0.0"],
    [1540393,"2026-02-04 13:00:00","52149","1.183","226.1","3.201","221.6","991.3003","12.22","66.63","NAN","0.0"],
    [1540394,"2026-02-04 13:10:00","52150","1.446","213.1","3.0380000000000003","204.4","991.3578","12.27","66.56","NAN","0.0"],
    [1540395,"2026-02-04 13:20:00","52151","1.264","230.7","3.528","236.7","991.3032","12.63","64.31","NAN","0.0"],
    [1540396,"2026-02-04 13:30:00","52152","1.171","242.9","3.365","219.2","991.3402","12.48","65.78","NAN","0.0"],
    [1540397,"2026-02-04 13:40:00","52153","1.245","234.0","3.332","255.3","991.3279","12.42","67.75","NAN","0.0"],
    [1540398,"2026-02-04 13:50:00","52154","1.35","228.8","4.018","226.3","991.4205","12.46","68.4","NAN","0.0"],
    [1540399,"2026-02-04 14:00:00","52155","1.2229999999999999","307.0","3.43","340.4","991.5496","12.82","63.69","NAN","0.0"],
    [1540400,"2026-02-04 14:10:00","52156","1.138","310.9","3.495","291.7","991.6246","12.79","62.6","NAN","0.0"],
    [1540401,"2026-02-04 14:20:00","52157","1.252","254.6","3.0380000000000003","267.3","991.5644","12.98","61.82","NAN","0.0"],
    [1540402,"2026-02-04 14:30:00","52158","1.9409999999999998","229.3","4.083","226.4","991.3724","12.86","62.52","NAN","0.0"],
    [1540403,"2026-02-04 14:40:00","52159","1.3359999999999999","232.8","3.267","231.1","991.2032","12.91","63.16","NAN","0.0"],
    [1540404,"2026-02-04 14:50:00","52160","0.987","222.1","2.9730000000000003","187.0","991.2459","13.71","61.62","NAN","0.0"],
    [1540405,"2026-02-04 15:00:00","52161","0.903","230.6","2.385","267.7","991.2881","13.98","60.63","NAN","0.0"],
    [1540406,"2026-02-04 15:10:00","52162","1.774","266.7","4.377","335.5","991.2781","13.92","57.3","NAN","0.0"],
    [1540407,"2026-02-04 15:20:00","52163","2.088","271.3","5.194","282.9","991.2932","14.01","54.01","NAN","0.0"],
    [1540408,"2026-02-04 15:30:00","52164","2.114","246.1","5.782","254.9","991.3231","14.27","51.91","NAN","0.0"],
    [1540409,"2026-02-04 15:40:00","52165","2.222","272.0","6.664","291.7","991.4425","14.19","50.78","NAN","0.0"],
    [1540410,"2026-02-04 15:50:00","52166","1.597","265.6","4.377","236.5","991.4024","14.11","50.65","NAN","0.0"],
    [1540411,"2026-02-04 16:00:00","52167","1.798","256.4","5.325","251.0","991.4327","13.95","50.95","NAN","0.0"],
    [1540412,"2026-02-04 16:10:00","52168","1.805","254.0","4.41","278.4","991.4527","13.9","51.53","NAN","0.0"],
    [1540413,"2026-02-04 16:20:00","52169","1.32","262.2","3.887","299.1","991.5747","13.95","51.83","NAN","0.0"],
    [1540414,"2026-02-04 16:30:00","52170","2.017","247.9","4.671","236.2","991.6468","13.79","52.05","NAN","0.0"],
    [1540415,"2026-02-04 16:40:00","52171","1.79","250.5","3.855","281.7","991.8168","13.6","52.73","NAN","0.0"],
    [1540416,"2026-02-04 16:50:00","52172","1.7169999999999999","254.8","4.279","226.7","991.8931","13.52","52.63","NAN","0.0"],
    [1540417,"2026-02-04 17:00:00","52173","1.431","233.3","3.5610000000000004","234.9","991.9059","13.37","53.29","NAN","0.0"],
    [1540418,"2026-02-04 17:10:00","52174","1.5819999999999999","250.3","4.475","227.5","992.0278","13.31","53.42","NAN","0.0"],
    [1540419,"2026-02-04 17:20:00","52175","1.1059999999999999","226.8","3.267","273.1","992.0401","13.16","53.97","NAN","0.0"],
    [1540420,"2026-02-04 17:30:00","52176","1.3869999999999998","226.3","4.737","231.4","992.1802","13.03","54.23","NAN","0.0"],
    [1540421,"2026-02-04 17:40:00","52177","0.953","213.8","1.8619999999999999","190.3","992.0774","12.75","56.11","NAN","0.0"],
    [1540422,"2026-02-04 17:50:00","52178","0.9","220.6","1.96","223.7","992.2526","12.28","57.89","NAN","0.0"],
    [1540423,"2026-02-04 18:00:00","52179","1.409","218.6","3.201","213.8","992.6686","12.31","58.11","NAN","0.0"],
    [1540424,"2026-02-04 18:10:00","52180","1.5630000000000002","221.2","3.234","235.9","992.9217","12.41","57.69","NAN","0.0"],
    [1540425,"2026-02-04 18:20:00","52181","0.927","219.3","2.0580000000000003","207.1","993.0986","12.14","59.01","NAN","0.0"],
    [1540426,"2026-02-04 18:30:00","52182","1.225","208.4","1.96","202.3","993.3172","11.94","60.06","NAN","0.0"],
    [1540427,"2026-02-04 18:40:00","52183","1.077","208.4","1.764","211.0","993.1644","11.88","60.44","NAN","0.0"],
    [1540428,"2026-02-04 18:50:00","52184","0.983","205.3","1.8619999999999999","198.0","993.1838","11.67","63.26","NAN","0.0"],
    [1540429,"2026-02-04 19:00:00","52185","1.153","217.3","2.352","219.8","993.32","11.98","62.57","NAN","0.0"],
    [1540430,"2026-02-04 19:10:00","52186","1.284","215.0","2.254","209.5","993.1501","12.06","62.29","NAN","0.0"],
    [1540431,"2026-02-04 19:20:00","52187","0.759","240.7","2.679","231.3","992.9895","11.91","62.61","NAN","0.0"],
    [1540432,"2026-02-04 19:30:00","52188","0.7709999999999999","246.2","1.699","255.4","993.3355","12.35","61.43","NAN","0.0"],
    [1540433,"2026-02-04 19:40:00","52189","0.818","213.3","1.568","251.1","993.4471","11.89","63.7","NAN","0.0"],
    [1540434,"2026-02-04 19:50:00","52190","0.877","203.9","1.2409999999999999","197.7","993.6915","11.56","67.16","NAN","0.0"],
    [1540435,"2026-02-04 20:00:00","52191","0.907","209.2","1.274","214.0","993.8928","11.12","68.67","NAN","0.0"],
    [1540436,"2026-02-04 20:10:00","52192","0.7290000000000001","213.5","1.2409999999999999","218.4","994.0547","10.93","67.88","NAN","0.0"],
    [1540437,"2026-02-04 20:20:00","52193","0.379","188.0","0.9470000000000001","194.1","993.9993","10.84","69.04","NAN","0.0"],
    [1540438,"2026-02-04 20:30:00","52194","0.45","194.1","1.274","221.1","993.9329","10.71","71.09","NAN","0.0"],
    [1540439,"2026-02-04 20:40:00","52195","0.6809999999999999","219.5","1.307","199.5","994.2742","10.75","68.75","NAN","0.0"],
    [1540440,"2026-02-04 20:50:00","52196","0.529","183.1","1.111","179.2","994.196","10.96","67.34","NAN","0.0"],
    [1540441,"2026-02-04 21:00:00","52197","0.41700000000000004","181.1","0.8170000000000001","210.4","994.012","10.78","68.44","NAN","0.0"],
    [1540442,"2026-02-04 21:10:00","52198","0.465","217.9","1.143","226.0","994.2223","10.64","68.56","NAN","0.0"],
    [1540443,"2026-02-04 21:20:00","52199","0.7170000000000001","208.5","1.307","214.7","994.3989","10.8","67.98","NAN","0.0"],
    [1540444,"2026-02-04 21:30:00","52200","0.174","197.1","0.8490000000000001","200.1","994.3347","10.68","70.51","NAN","0.0"],
    [1540445,"2026-02-04 21:40:00","52201","0.255","218.3","0.9470000000000001","222.4","994.4286","10.73","69.14","NAN","0.0"],
    [1540446,"2026-02-04 21:50:00","52202","0.501","226.6","0.8490000000000001","215.9","994.4381","10.72","68.73","NAN","0.0"],
    [1540447,"2026-02-04 22:00:00","52203","0.561","227.4","1.111","209.4","994.3411","10.72","69.33","NAN","0.0"],
    [1540448,"2026-02-04 22:10:00","52204","0.6890000000000001","229.3","1.111","225.6","994.3969","10.6","70.24","NAN","0.0"],
    [1540449,"2026-02-04 22:20:00","52205","0.6509999999999999","258.9","1.47","295.5","994.209","10.68","70.09","NAN","0.0"],
    [1540450,"2026-02-04 22:30:00","52206","0.5670000000000001","261.7","1.274","284.7","994.1788","11.23","68.16","NAN","0.0"],
    [1540451,"2026-02-04 22:40:00","52207","0.932","287.5","1.895","316.3","993.9826","11.27","67.86","NAN","0.0"],
    [1540452,"2026-02-04 22:50:00","52208","0.732","271.2","1.601","271.2","994.3044","11.44","67.23","NAN","0.0"],
    [1540453,"2026-02-04 23:00:00","52209","0.7909999999999999","274.4","1.8619999999999999","281.9","994.8458","11.56","66.73","NAN","0.0"],
    [1540454,"2026-02-04 23:10:00","52210","0.433","254.7","1.209","220.6","994.8318","11.54","66.65","NAN","0.0"],
    [1540455,"2026-02-04 23:20:00","52211","0.46","277.4","1.274","270.5","994.8419","11.39","67.78","NAN","0.0"],
    [1540456,"2026-02-04 23:30:00","52212","0.474","267.3","1.209","267.9","994.7796","11.43","68.16","NAN","0.0"],
    [1540457,"2026-02-04 23:40:00","52213","0.528","267.0","1.143","268.1","994.797","11.48","68.26","NAN","0.0"],
    [1540458,"2026-02-04 23:50:00","52214","0.445","260.9","1.339","263.0","994.7592","11.62","67.8","NAN","0.0"],
    [1540459,"2026-02-05 00:00:00","52215","0.359","241.3","1.078","241.7","994.8103","11.57","68.33","NAN","0.0"],
    [1540460,"2026-02-05 00:10:00","52216","0.524","241.1","1.013","224.8","994.7839","11.42","69","NAN","0.0"],
    [1540461,"2026-02-05 00:20:00","52217","0.228","258.8","0.7190000000000001","248.7","994.6176","11.25","69.35","NAN","0.0"],
    [1540462,"2026-02-05 00:30:00","52218","0.0","0.0","0.0","0.0","994.2182","11.38","69.11","NAN","0.0"],
    [1540463,"2026-02-05 00:40:00","52219","0.182","270.5","0.915","273.5","993.8876","11.27","69.44","NAN","0.0"],
    [1540464,"2026-02-05 00:50:00","52220","0.485","261.8","1.143","264.1","994.1101","11.08","70.55","NAN","0.0"],
    [1540465,"2026-02-05 01:00:00","52221","0.764","273.7","1.405","275.0","994.3486","11.5","68.77","NAN","0.0"],
    [1540466,"2026-02-05 01:10:00","52222","0.736","279.9","1.601","294.7","994.5328","11.64","68.24","NAN","0.0"],
    [1540467,"2026-02-05 01:20:00","52223","0.434","250.1","1.3719999999999999","284.3","994.5106","11.33","69.16","NAN","0.0"],
    [1540468,"2026-02-05 01:30:00","52224","0.634","259.5","1.307","267.7","994.615","11.05","70.43","NAN","0.0"],
    [1540469,"2026-02-05 01:40:00","52225","0.168","264.2","0.588","279.1","994.5353","11.19","70.33","NAN","0.0"],
    [1540470,"2026-02-05 01:50:00","52226","0.363","276.2","0.653","254.2","994.5774","11.12","70.81","NAN","0.0"],
    [1540471,"2026-02-05 02:00:00","52227","0.17","324.3","0.523","298.5","994.5353","11.09","71.43","NAN","0.0"],
    [1540472,"2026-02-05 02:10:00","52228","0.449","265.5","0.784","224.1","994.5853","10.82","72.93","NAN","0.0"],
    [1540473,"2026-02-05 02:20:00","52229","0.09699999999999999","288.0","0.6859999999999999","281.3","994.4728","10.77","73.7","NAN","0.0"],
    [1540474,"2026-02-05 02:30:00","52230","0.56","259.2","1.111","246.8","994.5527","10.73","74.08","NAN","0.0"],
    [1540475,"2026-02-05 02:40:00","52231","0.526","231.5","0.882","257.4","994.5029","10.68","75.35","NAN","0.0"],
    [1540476,"2026-02-05 02:50:00","52232","0.693","217.7","1.111","217.6","994.5652","10.61","76.05","NAN","0.0"],
    [1540477,"2026-02-05 03:00:00","52233","0.299","223.3","0.8170000000000001","238.3","994.5056","10.74","75.29","NAN","0.0"],
    [1540478,"2026-02-05 03:10:00","52234","0.625","213.2","1.111","211.1","994.5926","10.75","75.83","NAN","0.0"],
    [1540479,"2026-02-05 03:20:00","52235","0.35700000000000004","202.3","1.045","216.2","994.4977","10.86","75.06","NAN","0.0"],
    [1540480,"2026-02-05 03:30:00","52236","0.44299999999999995","243.1","1.176","221.0","994.4404","10.94","74.15","NAN","0.0"],
    [1540481,"2026-02-05 03:40:00","52237","0.449","252.6","1.013","240.0","994.2859","11.12","72.92","NAN","0.0"],
    [1540482,"2026-02-05 03:50:00","52238","0.657","273.8","1.4369999999999998","251.1","994.1863","11.44","71.41","NAN","0.0"],
    [1540483,"2026-02-05 04:00:00","52239","0.562","271.8","1.2409999999999999","304.1","993.9518","11.81","69.37","NAN","0.0"],
    [1540484,"2026-02-05 04:10:00","52240","0.986","288.2","1.535","289.2","993.7857","11.96","68.73","NAN","0.0"],
    [1540485,"2026-02-05 04:20:00","52241","0.741","279.2","1.5030000000000001","259.1","993.9455","11.96","68.69","NAN","0.0"],
    [1540486,"2026-02-05 04:30:00","52242","0.802","251.1","1.633","237.8","994.3389","11.81","69.39","NAN","0.0"],
    [1540487,"2026-02-05 04:40:00","52243","0.955","240.6","1.9269999999999998","240.3","994.7322","11.85","69.04","NAN","0.0"],
    [1540488,"2026-02-05 04:50:00","52244","0.6990000000000001","247.7","1.568","257.5","994.82","11.92","68.86","NAN","0.0"],
    [1540489,"2026-02-05 05:00:00","52245","0.669","200.8","1.339","179.8","994.7686","11.16","74.53","NAN","0.0"],
    [1540490,"2026-02-05 05:10:00","52246","0.539","282.5","1.3719999999999999","291.8","994.5443","11.08","74.01","NAN","0.0"],
    [1540491,"2026-02-05 05:20:00","52247","0.47","301.6","1.5030000000000001","324.0","994.318","11.78","70.09","NAN","0.0"],
    [1540492,"2026-02-05 05:30:00","52248","0.382","281.8","1.013","275.4","994.1546","11.78","69.86","NAN","0.0"],
    [1540493,"2026-02-05 05:40:00","52249","0.507","253.3","1.47","242.4","994.0451","11.73","70.26","NAN","0.0"],
    [1540494,"2026-02-05 05:50:00","52250","0.555","248.0","1.307","245.7","994.137","11.65","70.44","NAN","0.0"],
    [1540495,"2026-02-05 06:00:00","52251","0.608","248.3","1.013","226.9","994.0912","11.55","71.47","NAN","0.0"],
    [1540496,"2026-02-05 06:10:00","52252","0.382","303.5","0.882","338.0","993.8608","11.65","71.3","NAN","0.0"],
    [1540497,"2026-02-05 06:20:00","52253","0.483","309.6","1.601","22.38","993.7015","12.37","67.78","NAN","0.0"],
    [1540498,"2026-02-05 06:30:00","52254","0.63","294.2","1.829","316.5","993.6863","12.73","64.92","NAN","0.0"],
    [1540499,"2026-02-05 06:40:00","52255","0.486","215.3","1.143","225.7","993.4477","12.77","64.91","NAN","0.0"],
    [1540500,"2026-02-05 06:50:00","52256","0.387","161.9","0.882","179.3","993.0669","12.22","68.2","NAN","0.0"],
    [1540501,"2026-02-05 07:00:00","52257","0.65","162.6","1.274","176.9","993.1539","12.05","68.85","NAN","0.0"],
    [1540502,"2026-02-05 07:10:00","52258","0.833","217.5","1.993","219.8","993.4916","11.79","70.73","NAN","0.0"],
    [1540503,"2026-02-05 07:20:00","52259","1.127","247.5","2.875","269.8","993.7809","12.22","66.68","NAN","0.0"],
    [1540504,"2026-02-05 07:30:00","52260","1.3530000000000002","247.1","3.103","231.5","994.1193","12.3","65.67","NAN","0.0"],
    [1540505,"2026-02-05 07:40:00","52261","0.981","249.8","2.5810000000000004","258.5","994.0833","11.71","68.11","NAN","0.0"],
    [1540506,"2026-02-05 07:50:00","52262","1.0170000000000001","236.5","2.548","263.2","994.125","11.8","68.37","NAN","0.0"],
    [1540507,"2026-02-05 08:00:00","52263","1.273","230.7","2.7769999999999997","246.2","993.8580000000001","12.21","66.85","NAN","0.0"],
    [1540508,"2026-02-05 08:10:00","52264","1.139","235.4","3.299","250.2","993.6364","12.4","66.73","NAN","0.0"],
    [1540509,"2026-02-05 08:20:00","52265","1.526","257.4","3.887","265.9","993.5945","12.59","67.08","NAN","0.0"],
    [1540510,"2026-02-05 08:30:00","52266","1.3940000000000001","256.0","2.907","289.7","993.5297","12.35","71.96","NAN","0.0"],
    [1540511,"2026-02-05 08:40:00","52267","1.265","275.4","2.515","260.2","993.3751","12.26","73.32","NAN","0.0"],
    [1540512,"2026-02-05 08:50:00","52268","0.449","235.3","1.666","261.5","993.3626","12.28","74.25","NAN","0.0"],
    [1540513,"2026-02-05 09:00:00","52269","1.105","233.3","2.483","240.2","993.4828","12.19","75.72","NAN","0.2"],
    [1540514,"2026-02-05 09:10:00","52270","1.088","249.8","2.45","256.9","993.6271","11.79","79.89","NAN","0.1"],
    [1540515,"2026-02-05 09:20:00","52271","0.75","249.3","1.993","284.3","993.5967","11.77","82.4","NAN","0.1"],
    [1540516,"2026-02-05 09:30:00","52272","1.0659999999999998","284.2","2.679","282.9","993.3724","11.86","82.3","NAN","0.0"],
    [1540517,"2026-02-05 09:40:00","52273","0.41","268.9","1.7309999999999999","308.0","993.0744","12","81.8","NAN","0.0"],
    [1540518,"2026-02-05 09:50:00","52274","0.809","246.3","1.829","229.6","993.184","12.08","82.1","NAN","0.0"],
    [1540519,"2026-02-05 10:00:00","52275","0.8320000000000001","242.1","2.025","273.7","993.3347","12.03","82.8","NAN","0.1"],
    [1540520,"2026-02-05 10:10:00","52276","0.778","238.0","2.189","245.6","993.2537","12.01","83.3","NAN","0.0"],
    [1540521,"2026-02-05 10:20:00","52277","1.091","259.3","3.071","259.5","993.0367","12.12","82.3","NAN","0.0"],
    [1540522,"2026-02-05 10:30:00","52278","0.622","234.4","1.829","224.8","992.7083","12.09","82.9","NAN","0.1"],
    [1540523,"2026-02-05 10:40:00","52279","0.418","243.4","1.4369999999999998","218.6","992.4316","12.07","84","NAN","0.1"],
    [1540524,"2026-02-05 10:50:00","52280","0.523","279.1","1.4369999999999998","279.9","992.3416","12.37","82.5","NAN","0.0"],
    [1540525,"2026-02-05 11:00:00","52281","0.111","145.5","0.9470000000000001","334.5","992.3141","12.6","82.4","NAN","0.1"],
    [1540526,"2026-02-05 11:10:00","52282","0.369","179.2","0.8170000000000001","157.3","992.033","12.61","81.8","NAN","0.0"],
    [1540527,"2026-02-05 11:20:00","52283","0.07","311.5","0.588","272.8","991.7285","12.72","81","NAN","0.0"],
    [1540528,"2026-02-05 11:30:00","52284","0.265","327.7","1.013","293.1","991.3769","13.2","79.04","NAN","0.0"],
    [1540529,"2026-02-05 11:40:00","52285","0.946","175.2","1.601","170.2","991.0936","13.4","77.74","NAN","0.0"],
    [1540530,"2026-02-05 11:50:00","52286","0.647","194.6","1.339","169.4","990.9639","13.14","79.26","NAN","0.0"],
    [1540531,"2026-02-05 12:00:00","52287","0.451","76.05","1.274","76.76","990.2905","13.25","82.4","NAN","0.0"],
    [1540532,"2026-02-05 12:10:00","52288","0.785","154.3","1.47","164.4","989.9277","13.13","84.7","NAN","0.0"],
    [1540533,"2026-02-05 12:20:00","52289","1.071","132.6","1.8619999999999999","157.7","989.7560000000001","12.78","85.1","NAN","0.0"],
    [1540534,"2026-02-05 12:30:00","52290","0.943","126.2","1.633","119.9","989.5864","12.61","86","NAN","0.0"],
    [1540535,"2026-02-05 12:40:00","52291","1.042","127.4","1.895","114.5","989.2081","12.58","86.5","NAN","0.0"],
    [1540536,"2026-02-05 12:50:00","52292","0.794","139.0","1.666","156.5","989.2158","12.55","86.9","NAN","0.0"],
    [1540537,"2026-02-05 13:00:00","52293","0.696","167.8","1.274","144.2","989.1013","12.66","87.5","NAN","0.0"],
    [1540538,"2026-02-05 13:10:00","52294","0.223","93.5","0.8170000000000001","88.8","988.7516","12.91","87.9","NAN","0.1"],
    [1540539,"2026-02-05 13:20:00","52295","0.381","126.7","1.045","141.0","988.4532","12.98","88.3","NAN","0.0"],
    [1540540,"2026-02-05 13:30:00","52296","0.21899999999999997","143.7","1.013","133.2","988.5396","12.88","90.3","NAN","0.0"],
    [1540541,"2026-02-05 13:40:00","52297","0.863","231.9","2.156","150.4","988.7917","13.17","91","NAN","0.0"],
    [1540542,"2026-02-05 13:50:00","52298","1.2770000000000001","176.8","2.679","157.4","988.1029","13.5","90.6","NAN","0.0"],
    [1540543,"2026-02-05 14:00:00","52299","1.32","180.5","2.548","169.6","987.5697","13.72","89.2","NAN","0.0"],
    [1540544,"2026-02-05 14:10:00","52300","1.032","189.7","2.417","163.6","987.6393","13.9","87.9","NAN","0.0"],
    [1540545,"2026-02-05 14:20:00","52301","1.743","176.8","3.136","171.7","987.5172","13.83","87.8","NAN","0.0"],
    [1540546,"2026-02-05 14:30:00","52302","0.523","200.0","1.96","175.0","987.6247","13.99","88.1","NAN","0.0"],
    [1540547,"2026-02-05 14:40:00","52303","1.25","234.6","3.43","245.5","987.7366","14.25","87.9","NAN","0.0"],
    [1540548,"2026-02-05 14:50:00","52304","1.625","243.0","2.9730000000000003","235.0","987.7706","14.62","85.5","NAN","0.0"],
    [1540549,"2026-02-05 15:00:00","52305","1.8769999999999998","215.6","3.528","224.7","987.5793","14.57","85.2","NAN","0.0"],
    [1540550,"2026-02-05 15:10:00","52306","1.8519999999999999","226.3","4.933","253.9","987.3301","14.75","85.5","NAN","0.0"],
    [1540551,"2026-02-05 15:20:00","52307","1.696","217.1","3.985","203.9","987.2280000000001","15.22","83.6","NAN","0.0"],
    [1540552,"2026-02-05 15:30:00","52308","2.364","220.9","4.671","204.5","987.2061","15.46","82.1","NAN","0.0"],
    [1540553,"2026-02-05 15:40:00","52309","2.375","224.7","6.7620000000000005","228.2","987.0709","15.44","81.9","NAN","0.0"],
    [1540554,"2026-02-05 15:50:00","52310","2.202","226.5","5.7170000000000005","217.3","987.0967","15.41","82.3","NAN","0.0"],
    [1540555,"2026-02-05 16:00:00","52311","2.4290000000000003","230.3","5.422999999999999","246.1","987.3928","15.48","81.4","NAN","0.0"],
    [1540556,"2026-02-05 16:10:00","52312","2.181","227.0","5.325","240.4","987.4202","15.48","81","NAN","0.0"],
    [1540557,"2026-02-05 16:20:00","52313","1.6369999999999998","221.7","4.018","241.2","987.6393","15.46","81.9","NAN","0.0"],
    [1540558,"2026-02-05 16:30:00","52314","1.204","219.3","4.671","232.2","987.6818","15.3","82.9","NAN","0.0"],
    [1540559,"2026-02-05 16:40:00","52315","1.5519999999999998","223.2","3.397","222.5","987.6763","15","83.8","NAN","0.0"],
    [1540560,"2026-02-05 16:50:00","52316","1.265","242.7","2.8089999999999997","249.7","987.5197","15.04","82.7","NAN","0.0"],
    [1540561,"2026-02-05 17:00:00","52317","1.546","229.5","3.234","237.5","987.4597","15.1","81.9","NAN","0.0"],
    [1540562,"2026-02-05 17:10:00","52318","1.442","211.7","3.6260000000000003","204.0","987.5898","14.68","83.1","NAN","0.0"],
    [1540563,"2026-02-05 17:20:00","52319","1.584","217.5","3.332","221.3","987.7416","14.33","85.2","NAN","0.0"],
    [1540564,"2026-02-05 17:30:00","52320","1.66","229.6","4.083","254.1","988.041","14.48","80.9","NAN","0.0"],
    [1540565,"2026-02-05 17:40:00","52321","1.16","238.7","2.319","243.6","988.4595","14.63","77.62","NAN","0.0"],
    [1540566,"2026-02-05 17:50:00","52322","1.047","256.7","3.234","293.7","988.9626","14.62","75.87","NAN","0.0"],
    [1540567,"2026-02-05 18:00:00","52323","1.693","263.7","4.475","244.4","989.2355","15.48","62.71","NAN","0.0"],
    [1540568,"2026-02-05 18:10:00","52324","1.8230000000000002","255.8","5.1610000000000005","300.8","989.1686","16.36","52.41","NAN","0.0"],
    [1540569,"2026-02-05 18:20:00","52325","2.177","250.9","5.063","256.8","989.3605","16.39","51.15","NAN","0.0"],
    [1540570,"2026-02-05 18:30:00","52326","1.797","258.0","4.704","284.6","989.4601","16.49","49.71","NAN","0.0"],
    [1540571,"2026-02-05 18:40:00","52327","2.461","257.1","8.43","297.2","989.5571","16.72","47.53","NAN","0.0"],
    [1540572,"2026-02-05 18:50:00","52328","2.49","266.8","5.782","287.6","989.6243","16.72","46.89","NAN","0.0"],
    [1540573,"2026-02-05 19:00:00","52329","2.26","260.9","5.325","258.4","989.6542","16.49","48.14","NAN","0.0"],
    [1540574,"2026-02-05 19:10:00","52330","2.1319999999999997","253.0","6.664","213.4","989.7169","16.22","49.81","NAN","0.0"],
    [1540575,"2026-02-05 19:20:00","52331","2.369","260.8","6.893","307.4","989.8536","16.11","50.28","NAN","0.0"],
    [1540576,"2026-02-05 19:30:00","52332","2.041","241.7","4.737","234.7","990.0155","15.9","51.28","NAN","0.0"],
    [1540577,"2026-02-05 19:40:00","52333","2.062","239.1","4.149","235.4","989.8831","15.75","51.56","NAN","0.0"],
    [1540578,"2026-02-05 19:50:00","52334","2.885","234.2","5.815","230.9","989.8233","15.79","50.95","NAN","0.0"],
    [1540579,"2026-02-05 20:00:00","52335","2.824","235.3","5.619","241.7","989.8887","15.86","50.2","NAN","0.0"],
    [1540580,"2026-02-05 20:10:00","52336","3.4610000000000003","234.3","6.795","240.8","990.0703","15.86","49.98","NAN","0.0"],
    [1540581,"2026-02-05 20:20:00","52337","1.9680000000000002","245.7","5.684","298.7","990.1198","15.68","50.79","NAN","0.0"],
    [1540582,"2026-02-05 20:30:00","52338","2.194","242.6","6.141","250.1","990.2675","15.71","50.43","NAN","0.0"],
    [1540583,"2026-02-05 20:40:00","52339","1.8630000000000002","246.8","5.129","233.3","990.5314","15.69","50.29","NAN","0.0"],
    [1540584,"2026-02-05 20:50:00","52340","2.1","239.3","5.063","217.9","990.6978","15.8","49.53","NAN","0.0"],
    [1540585,"2026-02-05 21:00:00","52341","1.876","243.0","4.279","268.0","990.7932","15.86","49.17","NAN","0.0"],
    [1540586,"2026-02-05 21:10:00","52342","2.19","231.2","4.704","256.8","991.0467","15.85","49.18","NAN","0.0"],
    [1540587,"2026-02-05 21:20:00","52343","2.762","228.1","5.651","245.5","991.2285","15.72","49.5","NAN","0.0"],
    [1540588,"2026-02-05 21:30:00","52344","2.209","234.0","4.737","231.6","991.2831","15.72","49.29","NAN","0.0"],
    [1540589,"2026-02-05 21:40:00","52345","1.716","231.0","4.867","219.6","991.4329","15.52","50.19","NAN","0.0"],
    [1540590,"2026-02-05 21:50:00","52346","1.166","242.0","2.875","246.0","991.5972","15.18","51.59","NAN","0.0"],
    [1540591,"2026-02-05 22:00:00","52347","0.8440000000000001","235.6","2.319","246.1","991.5843","14.75","53.45","NAN","0.0"],
    [1540592,"2026-02-05 22:10:00","52348","0.759","226.4","2.613","255.5","991.5023","14.5","54.56","NAN","0.0"],
    [1540593,"2026-02-05 22:20:00","52349","0.8740000000000001","247.2","2.515","243.9","991.5897","14.8","53.46","NAN","0.0"],
    [1540594,"2026-02-05 22:30:00","52350","0.878","252.6","2.8089999999999997","262.9","991.6719","15","52.92","NAN","0.0"],
    [1540595,"2026-02-05 22:40:00","52351","1.1909999999999998","237.8","3.136","235.5","991.7687","15.02","53.02","NAN","0.0"],
    [1540596,"2026-02-05 22:50:00","52352","0.9440000000000001","214.1","2.189","203.2","991.8812","14.78","54.86","NAN","0.0"],
    [1540597,"2026-02-05 23:00:00","52353","1.287","218.6","3.593","213.5","992.0428","14.38","56.32","NAN","0.0"],
    [1540598,"2026-02-05 23:10:00","52354","0.9109999999999999","244.9","2.7769999999999997","304.3","992.1127","14.77","54.54","NAN","0.0"],
    [1540599,"2026-02-05 23:20:00","52355","0.81","258.7","2.025","256.7","992.1574","14.52","55.62","NAN","0.0"],
    [1540600,"2026-02-05 23:30:00","52356","0.7909999999999999","253.8","2.221","253.7","992.2149","14.3","56.71","NAN","0.0"],
    [1540601,"2026-02-05 23:40:00","52357","0.745","229.3","1.8619999999999999","265.6","992.2819","14.13","57.16","NAN","0.0"],
    [1540602,"2026-02-05 23:50:00","52358","1.133","232.1","2.7439999999999998","214.7","992.3819","14.24","56.64","NAN","0.0"],
    [1540603,"2026-02-06 00:00:00","52359","1.406","235.0","3.593","5.938","992.5184","14.7","53.88","NAN","0.0"],
    [1540604,"2026-02-06 00:10:00","52360","1.2329999999999999","238.3","5.39","225.5","992.6583","14.09","56.98","NAN","0.0"],
    [1540605,"2026-02-06 00:20:00","52361","1.48","244.0","3.43","270.9","992.9249","14.46","55.27","NAN","0.0"],
    [1540606,"2026-02-06 00:30:00","52362","1.4880000000000002","255.6","3.6260000000000003","298.3","993.0117","14.57","53.98","NAN","0.0"],
    [1540607,"2026-02-06 00:40:00","52363","2.285","265.1","4.606","285.6","992.882","15.06","51.07","NAN","0.0"],
    [1540608,"2026-02-06 00:50:00","52364","2.137","271.4","6.337000000000001","304.3","992.8674","15.19","49.93","NAN","0.0"],
    [1540609,"2026-02-06 01:00:00","52365","2.622","269.0","7.905","295.5","993.1191","15.55","47.73","NAN","0.0"],
    [1540610,"2026-02-06 01:10:00","52366","2.335","263.5","6.011","290.3","993.2607","15.48","47.81","NAN","0.0"],
    [1540611,"2026-02-06 01:20:00","52367","3.1430000000000002","266.8","7.84","271.3","993.2877","15.46","47.65","NAN","0.0"],
    [1540612,"2026-02-06 01:30:00","52368","2.366","268.5","9.6","266.6","993.4734","15.42","47.66","NAN","0.0"],
    [1540613,"2026-02-06 01:40:00","52369","2.1959999999999997","289.6","6.5329999999999995","287.2","993.6968","15.21","48.47","NAN","0.0"],
    [1540614,"2026-02-06 01:50:00","52370","1.7309999999999999","295.2","4.965","305.7","993.7813","15.04","49.29","NAN","0.0"],
    [1540615,"2026-02-06 02:00:00","52371","2.019","281.3","6.109","279.4","993.8812","14.9","50","NAN","0.0"],
    [1540616,"2026-02-06 02:10:00","52372","1.311","297.5","4.541","286.3","994.0851","14.73","50.73","NAN","0.0"],
    [1540617,"2026-02-06 02:20:00","52373","1.253","308.2","4.051","253.9","994.335","14.56","51.48","NAN","0.0"],
    [1540618,"2026-02-06 02:30:00","52374","1.868","302.6","4.051","285.8","994.6881","14.58","51.64","NAN","0.0"],
    [1540619,"2026-02-06 02:40:00","52375","0.977","294.8","3.7569999999999997","299.1","994.7155","14.41","52.32","NAN","0.0"],
    [1540620,"2026-02-06 02:50:00","52376","1.286","327.7","3.7889999999999997","310.3","994.6526","14.45","52.22","NAN","0.0"],
    [1540621,"2026-02-06 03:00:00","52377","2.082","326.8","5.1610000000000005","305.7","994.5485","14.41","52.33","NAN","0.0"],
    [1540622,"2026-02-06 03:10:00","52378","1.6769999999999998","331.6","4.802","293.7","994.7529","14.42","52.16","NAN","0.0"],
    [1540623,"2026-02-06 03:20:00","52379","1.112","297.8","3.593","265.4","994.9826","14.35","52.18","NAN","0.0"],
    [1540624,"2026-02-06 03:30:00","52380","1.216","281.6","3.7889999999999997","298.9","995.3859","14.31","52.21","NAN","0.0"],
    [1540625,"2026-02-06 03:40:00","52381","1.1159999999999999","297.8","2.9730000000000003","326.0","995.6866","14.31","51.92","NAN","0.0"],
    [1540626,"2026-02-06 03:50:00","52382","0.841","301.7","2.7439999999999998","272.5","995.6645","14.27","52.01","NAN","0.0"],
    [1540627,"2026-02-06 04:00:00","52383","1.237","283.1","4.737","337.6","995.9662","14.18","52.32","NAN","0.0"],
    [1540628,"2026-02-06 04:10:00","52384","0.95","261.5","5.1610000000000005","303.8","996.2373","14.15","52.49","NAN","0.0"],
    [1540629,"2026-02-06 04:20:00","52385","1.396","278.0","4.377","290.5","996.3496","14.13","52.48","NAN","0.0"],
    [1540630,"2026-02-06 04:30:00","52386","1.801","261.3","4.312","303.3","996.5186","14.31","51.84","NAN","0.0"],
    [1540631,"2026-02-06 04:40:00","52387","1.5530000000000002","266.4","3.822","246.1","996.6735","14.37","51.76","NAN","0.0"],
    [1540632,"2026-02-06 04:50:00","52388","1.8719999999999999","240.2","6.272","221.0","996.6404","14.41","51.65","NAN","0.0"],
    [1540633,"2026-02-06 05:00:00","52389","1.97","250.4","5.586","253.0","996.7280000000001","14.3","52.11","NAN","0.0"],
    [1540634,"2026-02-06 05:10:00","52390","1.764","261.9","5.553","281.9","996.7925","14.27","52.27","NAN","0.0"],
    [1540635,"2026-02-06 05:20:00","52391","1.3030000000000002","283.1","4.41","271.8","996.9324","14.08","53.14","NAN","0.0"],
    [1540636,"2026-02-06 05:30:00","52392","1.276","273.0","4.181","286.3","997.0868","14.01","53.59","NAN","0.0"],
    [1540637,"2026-02-06 05:40:00","52393","1.091","226.8","3.43","195.8","997.2883","13.64","55.39","NAN","0.0"],
    [1540638,"2026-02-06 05:50:00","52394","0.778","223.0","3.267","237.7","997.449","13.34","57.12","NAN","0.0"],
    [1540639,"2026-02-06 06:00:00","52395","1.48","267.3","4.377","287.8","997.5243","13.48","56.14","NAN","0.0"],
    [1540640,"2026-02-06 06:10:00","52396","1.121","271.1","3.855","304.5","997.5223","13.7","55.21","NAN","0.0"],
    [1540641,"2026-02-06 06:20:00","52397","1.206","246.0","2.7110000000000003","297.9","997.6578","13.61","55.4","NAN","0.0"],
    [1540642,"2026-02-06 06:30:00","52398","1.173","235.0","4.083","237.0","997.9385","13.33","56.91","NAN","0.0"],
    [1540643,"2026-02-06 06:40:00","52399","1.413","228.8","5.292000000000001","242.8","998.0399","13.53","56","NAN","0.0"],
    [1540644,"2026-02-06 06:50:00","52400","1.4380000000000002","248.0","5.586","259.8","998.1822","13.42","56.47","NAN","0.0"],
    [1540645,"2026-02-06 07:00:00","52401","1.0590000000000002","268.9","3.985","256.5","998.2671","13.63","55.58","NAN","0.0"],
    [1540646,"2026-02-06 07:10:00","52402","0.618","228.1","3.495","171.0","998.4098","13.45","56.13","NAN","0.0"],
    [1540647,"2026-02-06 07:20:00","52403","1.008","251.0","3.267","267.7","998.707","13.51","56.22","NAN","0.0"],
    [1540648,"2026-02-06 07:30:00","52404","0.887","215.5","3.005","290.5","999.008","13.38","57.04","NAN","0.0"],
    [1540649,"2026-02-06 07:40:00","52405","1.24","222.8","3.332","223.3","999.1449","13.38","57.11","NAN","0.0"],
    [1540650,"2026-02-06 07:50:00","52406","0.934","219.5","2.287","229.3","999.2086","13.58","56.18","NAN","0.0"],
    [1540651,"2026-02-06 08:00:00","52407","1.5759999999999998","236.3","4.638999999999999","228.0","999.3447","13.79","54.94","NAN","0.0"],
    [1540652,"2026-02-06 08:10:00","52408","1.5530000000000002","245.0","4.998","262.2","999.5787","14.04","53.84","NAN","0.0"],
    [1540653,"2026-02-06 08:20:00","52409","1.167","233.2","3.267","292.5","999.7068","14.09","53.72","NAN","0.0"],
    [1540654,"2026-02-06 08:30:00","52410","1.6059999999999999","241.5","4.41","233.2","999.7789","14.34","52.89","NAN","0.0"],
    [1540655,"2026-02-06 08:40:00","52411","2.052","243.6","6.109","228.1","999.8441","14.65","51.6","NAN","0.0"],
    [1540656,"2026-02-06 08:50:00","52412","1.923","253.8","5.422999999999999","287.4","1000.013","14.92","50.47","NAN","0.0"],
    [1540657,"2026-02-06 09:00:00","52413","1.19","258.3","5.325","292.1","1000.061","15.31","48.89","NAN","0.0"],
    [1540658,"2026-02-06 09:10:00","52414","2.492","271.9","8.1","313.6","1000.203","15.47","47.61","NAN","0.0"],
    [1540659,"2026-02-06 09:20:00","52415","1.786","239.3","4.638999999999999","218.0","1000.3439999999999","15.8","46.61","NAN","0.0"],
    [1540660,"2026-02-06 09:30:00","52416","2.144","241.0","4.1160000000000005","238.5","1000.534","15.95","45.73","NAN","0.0"],
    [1540661,"2026-02-06 09:40:00","52417","1.64","252.3","4.933","225.5","1000.673","16.26","44.96","NAN","0.0"],
    [1540662,"2026-02-06 09:50:00","52418","1.859","254.0","5.096","315.5","1000.722","16.4","44.72","NAN","0.0"],
    [1540663,"2026-02-06 10:00:00","52419","2.062","265.0","4.9","297.3","1000.7260000000001","16.58","43.8","NAN","0.0"],
    [1540664,"2026-02-06 10:10:00","52420","2.19","273.8","4.835","295.0","1000.831","16.71","43.58","NAN","0.0"],
    [1540665,"2026-02-06 10:20:00","52421","1.9669999999999999","269.5","5.619","251.6","1000.8430000000001","16.83","43.33","NAN","0.0"],
    [1540666,"2026-02-06 10:30:00","52422","2.331","278.2","6.337000000000001","296.9","1000.807","16.83","43.05","NAN","0.0"],
    [1540667,"2026-02-06 10:40:00","52423","1.889","307.0","4.769","300.1","1000.873","17.01","42.51","NAN","0.0"],
    [1540668,"2026-02-06 10:50:00","52424","2.412","272.6","6.501","251.7","1000.8689999999999","17.15","41.93","NAN","0.0"],
    [1540669,"2026-02-06 11:00:00","52425","1.8630000000000002","282.1","7.056","255.6","1000.904","17.47","41.48","NAN","0.0"],
    [1540670,"2026-02-06 11:10:00","52426","1.671","292.0","5.749","287.5","1000.927","17.72","41.05","NAN","0.0"],
    [1540671,"2026-02-06 11:20:00","52427","2.416","284.9","6.631","247.5","1000.875","17.27","41.96","NAN","0.0"],
    [1540672,"2026-02-06 11:30:00","52428","2.267","275.4","6.011","265.1","1000.8789999999999","17.28","41.59","NAN","0.0"],
    [1540673,"2026-02-06 11:40:00","52429","2.266","281.4","6.239","308.9","1000.8389999999999","17.12","41.07","NAN","0.0"],
    [1540674,"2026-02-06 11:50:00","52430","1.82","302.9","4.9","293.7","1000.721","17.79","39.59","NAN","0.0"],
    [1540675,"2026-02-06 12:00:00","52431","1.641","289.8","5.292000000000001","254.9","1000.791","17.94","39.12","NAN","0.0"],
    [1540676,"2026-02-06 12:10:00","52432","1.999","293.5","6.207000000000001","260.3","1000.7389999999999","17.67","38.84","NAN","0.0"],
    [1540677,"2026-02-06 12:20:00","52433","1.524","259.0","4.9","264.3","1000.681","17.86","38.72","NAN","0.0"],
    [1540678,"2026-02-06 12:30:00","52434","1.3630000000000002","281.4","4.671","292.4","1000.681","18.32","37.91","NAN","0.0"],
    [1540679,"2026-02-06 12:40:00","52435","2.053","280.0","5.847","253.2","1000.675","18.08","37.74","NAN","0.0"],
    [1540680,"2026-02-06 12:50:00","52436","2.009","270.3","5.422999999999999","338.8","1000.605","18.28","37.67","NAN","0.0"],
    [1540681,"2026-02-06 13:00:00","52437","1.723","284.0","4.933","284.3","1000.529","18.33","37.67","NAN","0.0"],
    [1540682,"2026-02-06 13:10:00","52438","1.3459999999999999","290.6","3.6910000000000003","321.6","1000.4760000000001","18.22","38.31","NAN","0.0"],
    [1540683,"2026-02-06 13:20:00","52439","1.919","276.9","4.508","287.7","1000.45","17.78","39.05","NAN","0.0"],
    [1540684,"2026-02-06 13:30:00","52440","1.4780000000000002","262.6","4.083","242.1","1000.434","17.64","39.46","NAN","0.0"],
    [1540685,"2026-02-06 13:40:00","52441","1.4180000000000001","254.5","3.528","287.0","1000.49","17.78","39.2","NAN","0.0"],
    [1540686,"2026-02-06 13:50:00","52442","1.068","276.9","2.7439999999999998","312.4","1000.523","18.26","37.97","NAN","0.0"],
    [1540687,"2026-02-06 14:00:00","52443","0.7490000000000001","224.9","2.352","241.2","1000.679","18.17","38.65","NAN","0.0"],
    [1540688,"2026-02-06 14:10:00","52444","1.755","244.1","4.181","219.1","1000.633","17.76","41.41","NAN","0.0"],
    [1540689,"2026-02-06 14:20:00","52445","1.222","225.6","3.267","247.2","1000.515","18.02","42.09","NAN","0.0"],
    [1540690,"2026-02-06 14:30:00","52446","2.181","223.1","5.815","221.1","1000.578","17.53","42.51","NAN","0.0"],
    [1540691,"2026-02-06 14:40:00","52447","2.456","214.4","6.435","206.1","1000.705","17.37","41.86","NAN","0.0"],
    [1540692,"2026-02-06 14:50:00","52448","2.305","229.7","5.651","205.5","1000.742","17.87","40.42","NAN","0.0"],
    [1540693,"2026-02-06 15:00:00","52449","2.46","227.4","5.912999999999999","244.2","1000.7180000000001","17.96","39.07","NAN","0.0"],
    [1540694,"2026-02-06 15:10:00","52450","2.677","225.1","6.566","222.3","1000.682","17.88","37.87","NAN","0.0"],
    [1540695,"2026-02-06 15:20:00","52451","1.7169999999999999","213.6","4.802","204.8","1000.725","18","38.43","NAN","0.0"],
    [1540696,"2026-02-06 15:30:00","52452","1.9369999999999998","216.5","4.867","242.5","1000.8589999999999","17.89","40.14","NAN","0.0"],
    [1540697,"2026-02-06 15:40:00","52453","1.693","219.7","5.782","215.8","1001.068","17.58","40.09","NAN","0.0"],
    [1540698,"2026-02-06 15:50:00","52454","1.584","228.5","4.802","245.0","1001.215","17.62","40.49","NAN","0.0"],
    [1540699,"2026-02-06 16:00:00","52455","2.637","218.0","6.042999999999999","195.4","1001.221","17.4","41.4","NAN","0.0"],
    [1540700,"2026-02-06 16:10:00","52456","2.177","218.8","6.501","185.3","1001.285","16.98","46.55","NAN","0.0"],
    [1540701,"2026-02-06 16:20:00","52457","2.253","216.7","5.912999999999999","216.3","1001.26","16.49","51.27","NAN","0.0"],
    [1540702,"2026-02-06 16:30:00","52458","1.7280000000000002","209.2","4.247","208.4","1001.253","16.09","57.02","NAN","0.0"],
    [1540703,"2026-02-06 16:40:00","52459","1.3219999999999998","222.6","3.7569999999999997","213.2","1001.32","15.76","60.58","NAN","0.0"],
    [1540704,"2026-02-06 16:50:00","52460","1.5719999999999998","243.6","3.6260000000000003","238.0","1001.2510000000001","15.66","60.05","NAN","0.0"],
    [1540705,"2026-02-06 17:00:00","52461","1.242","225.5","4.018","241.6","1001.2510000000001","15.58","59.75","NAN","0.0"],
    [1540706,"2026-02-06 17:10:00","52462","1.26","231.8","2.6460000000000004","227.5","1001.2510000000001","15.4","59.58","NAN","0.0"],
    [1540707,"2026-02-06 17:20:00","52463","2.5","240.8","5.031000000000001","250.2","1001.305","15.4","59.59","NAN","0.0"],
    [1540708,"2026-02-06 17:30:00","52464","2.035","242.6","4.051","246.0","1001.308","15.32","59.61","NAN","0.0"],
    [1540709,"2026-02-06 17:40:00","52465","1.263","235.8","2.8089999999999997","240.0","1001.375","15.2","59.59","NAN","0.0"],
    [1540710,"2026-02-06 17:50:00","52466","1.2329999999999999","239.8","2.7439999999999998","238.1","1001.38","15.11","59.68","NAN","0.0"],
    [1540711,"2026-02-06 18:00:00","52467","0.929","241.4","2.254","252.1","1001.378","15","59.63","NAN","0.0"],
    [1540712,"2026-02-06 18:10:00","52468","1.01","237.1","2.254","220.9","1001.378","15","58.97","NAN","0.0"],
    [1540713,"2026-02-06 18:20:00","52469","0.506","223.8","1.176","214.9","1001.433","14.52","61.23","NAN","0.0"],
    [1540714,"2026-02-06 18:30:00","52470","0.966","226.8","1.9269999999999998","239.0","1001.5","14.54","61.4","NAN","0.0"],
    [1540715,"2026-02-06 18:40:00","52471","0.815","227.8","1.405","248.1","1001.39","14.3","62.13","NAN","0.0"],
    [1540716,"2026-02-06 18:50:00","52472","0.7759999999999999","216.6","1.47","253.7","1001.41","14.1","61.15","NAN","0.0"],
    [1540717,"2026-02-06 19:00:00","52473","0.9570000000000001","211.7","2.6460000000000004","174.0","1001.595","14.12","58.56","NAN","0.0"],
    [1540718,"2026-02-06 19:10:00","52474","1.272","247.4","2.94","269.5","1001.7489999999999","14.56","55.43","NAN","0.0"],
    [1540719,"2026-02-06 19:20:00","52475","1.216","241.2","2.483","252.5","1001.7489999999999","14.67","55.25","NAN","0.0"],
    [1540720,"2026-02-06 19:30:00","52476","0.816","223.3","1.895","207.7","1001.6189999999999","14.16","58.01","NAN","0.0"],
    [1540721,"2026-02-06 19:40:00","52477","0.6890000000000001","242.0","1.535","237.9","1001.4580000000001","14.06","57.39","NAN","0.0"],
    [1540722,"2026-02-06 19:50:00","52478","0.524","223.1","1.764","204.1","1001.383","13.81","57.7","NAN","0.0"],
    [1540723,"2026-02-06 20:00:00","52479","0.136","257.0","1.013","253.5","1001.3839999999999","13.79","57.65","NAN","0.0"],
    [1540724,"2026-02-06 20:10:00","52480","0.373","235.8","1.013","186.8","1001.309","13.86","58.33","NAN","0.0"],
    [1540725,"2026-02-06 20:20:00","52481","0.728","240.8","1.405","249.8","1001.3910000000001","13.8","59.39","NAN","0.0"],
    [1540726,"2026-02-06 20:30:00","52482","0.22","213.7","0.882","271.8","1001.39","13.85","59.88","NAN","0.0"],
    [1540727,"2026-02-06 20:40:00","52483","0.684","220.1","0.9470000000000001","218.1","1001.44","13.49","62.18","NAN","0.0"],
    [1540728,"2026-02-06 20:50:00","52484","0.42","201.4","0.9470000000000001","214.9","1001.495","13.23","64.6","NAN","0.0"],
    [1540729,"2026-02-06 21:00:00","52485","0.795","256.8","2.156","258.8","1001.445","13.35","63.67","NAN","0.0"],
    [1540730,"2026-02-06 21:10:00","52486","0.79","248.1","1.7309999999999999","244.2","1001.423","13.88","60.39","NAN","0.0"],
    [1540731,"2026-02-06 21:20:00","52487","0.611","250.9","1.339","238.8","1001.4169999999999","13.72","59.81","NAN","0.0"],
    [1540732,"2026-02-06 21:30:00","52488","0.25","321.3","1.045","327.7","1001.422","13.75","59.06","NAN","0.0"],
    [1540733,"2026-02-06 21:40:00","52489","0.48","277.7","2.6460000000000004","246.3","1001.3860000000001","14.09","55.44","NAN","0.0"],
    [1540734,"2026-02-06 21:50:00","52490","0.674","276.4","1.797","294.8","1001.2869999999999","14.11","53.57","NAN","0.0"],
    [1540735,"2026-02-06 22:00:00","52491","0.611","21.28","1.209","13.65","1001.2489999999999","14.14","53.28","NAN","0.0"],
    [1540736,"2026-02-06 22:10:00","52492","0.47700000000000004","10.43","1.3719999999999999","34.12","1001.1419999999999","14.05","53.69","NAN","0.0"],
    [1540737,"2026-02-06 22:20:00","52493","0.138","342.1","0.7190000000000001","0.226","1001.216","13.94","54.29","NAN","0.0"],
    [1540738,"2026-02-06 22:30:00","52494","0.725","322.2","1.601","291.0","1001.3430000000001","14.19","51.18","NAN","0.0"],
    [1540739,"2026-02-06 22:40:00","52495","0.88","203.5","1.993","182.9","1001.492","14.15","52.46","NAN","0.0"],
    [1540740,"2026-02-06 22:50:00","52496","0.355","197.3","1.3719999999999999","172.5","1001.452","13.21","59.33","NAN","0.0"],
    [1540741,"2026-02-06 23:00:00","52497","0.49200000000000005","214.2","1.601","160.1","1001.5060000000001","12.85","64.61","NAN","0.0"],
    [1540742,"2026-02-06 23:10:00","52498","1.084","233.1","2.156","231.0","1001.549","13.11","58.26","NAN","0.0"],
    [1540743,"2026-02-06 23:20:00","52499","0.764","259.9","2.123","219.1","1001.4989999999999","14.06","50.16","NAN","0.0"],
    [1540744,"2026-02-06 23:30:00","52500","1.419","232.8","3.201","224.9","1001.6210000000001","13.94","50.65","NAN","0.0"],
    [1540745,"2026-02-06 23:40:00","52501","1.4369999999999998","263.5","3.495","309.3","1001.53","13.83","51.22","NAN","0.0"],
    [1540746,"2026-02-06 23:50:00","52502","0.9390000000000001","271.8","2.221","270.8","1001.563","13.74","51.71","NAN","0.0"],
    [1540747,"2026-02-07 00:00:00","52503","1.266","250.7","2.7439999999999998","237.7","1001.681","13.63","52.18","NAN","0.0"],
    [1540748,"2026-02-07 00:10:00","52504","1.389","255.8","4.083","297.7","1001.7719999999999","13.47","53.5","NAN","0.0"],
    [1540749,"2026-02-07 00:20:00","52505","1.554","267.3","3.6910000000000003","258.1","1001.7860000000001","13.25","54.8","NAN","0.0"],
    [1540750,"2026-02-07 00:30:00","52506","1.395","266.8","3.92","256.4","1001.735","13.04","55.94","NAN","0.0"],
    [1540751,"2026-02-07 00:40:00","52507","1.413","281.0","3.92","295.1","1001.6389999999999","12.94","56.64","NAN","0.0"],
    [1540752,"2026-02-07 00:50:00","52508","0.802","273.0","2.548","251.0","1001.673","12.95","56.45","NAN","0.0"],
    [1540753,"2026-02-07 01:00:00","52509","1.6230000000000002","257.8","3.6910000000000003","248.9","1001.758","12.78","57.52","NAN","0.0"],
    [1540754,"2026-02-07 01:10:00","52510","1.666","249.2","5.031000000000001","257.6","1001.862","12.53","58.59","NAN","0.0"],
    [1540755,"2026-02-07 01:20:00","52511","1.449","241.3","3.6260000000000003","236.9","1002.029","12.43","58.67","NAN","0.0"],
    [1540756,"2026-02-07 01:30:00","52512","1.399","229.8","3.071","232.5","1001.9760000000001","12.33","59.04","NAN","0.0"],
    [1540757,"2026-02-07 01:40:00","52513","1.355","211.5","3.9530000000000003","212.5","1002.1060000000001","11.84","61.3","NAN","0.0"],
    [1540758,"2026-02-07 01:50:00","52514","1.574","212.8","3.822","225.5","1002.305","11.59","62.99","NAN","0.0"],
    [1540759,"2026-02-07 02:00:00","52515","2.07","198.4","4.704","179.9","1002.497","11.58","64.15","NAN","0.0"],
    [1540760,"2026-02-07 02:10:00","52516","1.5519999999999998","207.0","3.43","184.9","1002.6519999999999","11.48","64.77","NAN","0.0"],
    [1540761,"2026-02-07 02:20:00","52517","1.8530000000000002","215.6","5.619","215.2","1002.711","11.45","63.25","NAN","0.0"],
    [1540762,"2026-02-07 02:30:00","52518","2.656","231.9","6.435","262.6","1002.7289999999999","11.64","61.64","NAN","0.0"],
    [1540763,"2026-02-07 02:40:00","52519","2.781","238.4","7.644","224.8","1002.7310000000001","11.99","59.5","NAN","0.0"],
    [1540764,"2026-02-07 02:50:00","52520","2.605","245.2","6.697","220.7","1002.784","12.03","59.57","NAN","0.0"],
    [1540765,"2026-02-07 03:00:00","52521","1.83","258.4","4.933","245.5","1002.988","11.98","59.91","NAN","0.0"],
    [1540766,"2026-02-07 03:10:00","52522","1.2329999999999999","258.2","3.234","326.9","1003.063","11.88","60.45","NAN","0.0"],
    [1540767,"2026-02-07 03:20:00","52523","1.071","219.3","2.907","201.3","1003.132","11.32","62.72","NAN","0.0"],
    [1540768,"2026-02-07 03:30:00","52524","1.026","241.6","3.1689999999999996","289.8","1003.082","11.14","63.6","NAN","0.0"],
    [1540769,"2026-02-07 03:40:00","52525","1.084","284.5","4.802","301.9","1003.018","11.64","61.3","NAN","0.0"],
    [1540770,"2026-02-07 03:50:00","52526","1.71","267.3","5.357","283.6","1003.184","11.77","60.4","NAN","0.0"],
    [1540771,"2026-02-07 04:00:00","52527","0.752","237.6","2.417","236.6","1003.382","11.64","60.92","NAN","0.0"],
    [1540772,"2026-02-07 04:10:00","52528","1.3","266.1","3.5610000000000004","293.0","1003.5189999999999","11.62","60.99","NAN","0.0"],
    [1540773,"2026-02-07 04:20:00","52529","1.45","244.1","3.5610000000000004","247.4","1003.596","11.67","60.93","NAN","0.0"],
    [1540774,"2026-02-07 04:30:00","52530","1.3130000000000002","245.3","3.92","284.1","1003.576","11.64","61.05","NAN","0.0"],
    [1540775,"2026-02-07 04:40:00","52531","0.882","235.8","2.319","224.4","1003.6089999999999","11.44","61.68","NAN","0.0"],
    [1540776,"2026-02-07 04:50:00","52532","0.9079999999999999","228.7","1.993","254.4","1003.668","11.44","61.66","NAN","0.0"],
    [1540777,"2026-02-07 05:00:00","52533","1.9380000000000002","252.8","4.769","275.2","1003.558","11.76","59.06","NAN","0.0"],
    [1540778,"2026-02-07 05:10:00","52534","1.122","232.5","3.7239999999999998","245.9","1003.559","11.82","58.36","NAN","0.0"],
    [1540779,"2026-02-07 05:20:00","52535","1.739","236.6","4.1160000000000005","218.6","1003.49","11.71","58.37","NAN","0.0"],
    [1540780,"2026-02-07 05:30:00","52536","2.273","234.4","4.835","207.2","1003.3760000000001","11.91","56.44","NAN","0.0"],
    [1540781,"2026-02-07 05:40:00","52537","1.837","233.2","4.933","228.6","1003.426","11.93","55.33","NAN","0.0"],
    [1540782,"2026-02-07 05:50:00","52538","1.635","273.0","4.279","257.4","1003.541","12.04","54.43","NAN","0.0"],
    [1540783,"2026-02-07 06:00:00","52539","1.12","241.3","2.5810000000000004","203.9","1003.693","11.88","54.74","NAN","0.0"],
    [1540784,"2026-02-07 06:10:00","52540","2.333","250.1","6.7620000000000005","245.2","1003.922","12.07","52.63","NAN","0.0"],
    [1540785,"2026-02-07 06:20:00","52541","2.181","244.8","4.9","311.2","1003.9119999999999","12.19","51.68","NAN","0.0"],
    [1540786,"2026-02-07 06:30:00","52542","2.66","261.8","6.011","288.2","1004.015","12.15","51.8","NAN","0.0"],
    [1540787,"2026-02-07 06:40:00","52543","2.602","255.9","5.227","281.4","1003.9789999999999","11.97","53.04","NAN","0.0"],
    [1540788,"2026-02-07 06:50:00","52544","2.0580000000000003","246.1","5.782","284.3","1004.0269999999999","11.83","53.81","NAN","0.0"],
    [1540789,"2026-02-07 07:00:00","52545","2.449","245.9","6.011","245.8","1004.029","11.82","53.87","NAN","0.0"],
    [1540790,"2026-02-07 07:10:00","52546","2.594","248.6","5.4879999999999995","246.6","1004.159","11.92","52.99","NAN","0.0"],
    [1540791,"2026-02-07 07:20:00","52547","1.94","247.7","6.239","232.0","1004.2460000000001","11.89","52.63","NAN","0.0"],
    [1540792,"2026-02-07 07:30:00","52548","1.963","279.1","4.704","255.1","1004.336","11.9","52.37","NAN","0.0"],
    [1540793,"2026-02-07 07:40:00","52549","1.4580000000000002","329.9","4.051","314.7","1004.453","11.77","52.93","NAN","0.0"],
    [1540794,"2026-02-07 07:50:00","52550","1.2229999999999999","307.9","4.737","291.2","1004.6669999999999","11.59","53.21","NAN","0.0"],
    [1540795,"2026-02-07 08:00:00","52551","2.312","278.7","5.684","280.1","1004.904","11.64","52.43","NAN","0.0"],
    [1540796,"2026-02-07 08:10:00","52552","2.166","297.9","5.1610000000000005","293.6","1004.995","11.74","51.97","NAN","0.0"],
    [1540797,"2026-02-07 08:20:00","52553","2.068","276.7","6.631","261.0","1005.048","11.86","50.82","NAN","0.0"],
    [1540798,"2026-02-07 08:30:00","52554","2.3169999999999997","274.0","6.37","253.0","1005.255","12.03","49.84","NAN","0.0"],
    [1540799,"2026-02-07 08:40:00","52555","2.283","274.0","5.4879999999999995","253.8","1005.34","12.36","48.22","NAN","0.0"],
    [1540800,"2026-02-07 08:50:00","52556","1.8459999999999999","287.2","8.69","276.2","1005.4689999999999","12.5","47.32","NAN","0.0"],
    [1540801,"2026-02-07 09:00:00","52557","2.696","265.6","7.154","289.9","1005.547","12.76","45.93","NAN","0.0"],
    [1540802,"2026-02-07 09:10:00","52558","2.7089999999999996","261.5","8.89","297.9","1005.7310000000001","12.95","44.98","NAN","0.0"],
    [1540803,"2026-02-07 09:20:00","52559","3.7680000000000002","270.9","7.938","301.4","1005.941","12.94","44.7","NAN","0.0"],
    [1540804,"2026-02-07 09:30:00","52560","2.204","259.6","8.04","259.6","1006.091","13.14","44.73","NAN","0.0"],
    [1540805,"2026-02-07 09:40:00","52561","2.476","279.4","6.5329999999999995","233.1","1006.4069999999999","13.2","44.72","NAN","0.0"],
    [1540806,"2026-02-07 09:50:00","52562","2.753","263.2","5.978","306.2","1006.467","13.43","44.27","NAN","0.0"],
    [1540807,"2026-02-07 10:00:00","52563","2.516","268.4","5.553","278.2","1006.7080000000001","13.59","43.82","NAN","0.0"],
    [1540808,"2026-02-07 10:10:00","52564","1.784","267.7","5.031000000000001","257.9","1006.758","14.03","42.51","NAN","0.0"],
    [1540809,"2026-02-07 10:20:00","52565","2.022","274.5","6.272","259.0","1006.955","14.3","41.29","NAN","0.0"],
    [1540810,"2026-02-07 10:30:00","52566","2.136","266.5","4.671","332.6","1007.1489999999999","14.68","40.02","NAN","0.0"],
    [1540811,"2026-02-07 10:40:00","52567","2.658","259.8","6.664","255.1","1007.216","14.65","39.47","NAN","0.0"],
    [1540812,"2026-02-07 10:50:00","52568","2.8339999999999996","264.3","6.631","284.4","1007.368","14.7","39.1","NAN","0.0"],
    [1540813,"2026-02-07 11:00:00","52569","2.456","292.0","5.912999999999999","229.9","1007.36","14.58","38.87","NAN","0.0"],
    [1540814,"2026-02-07 11:10:00","52570","2.188","307.6","6.501","302.4","1007.3510000000001","14.84","38.33","NAN","0.0"],
    [1540815,"2026-02-07 11:20:00","52571","2.372","290.1","6.435","285.8","1007.408","14.64","38.94","NAN","0.0"],
    [1540816,"2026-02-07 11:30:00","52572","2.673","279.6","6.468","265.6","1007.415","14.74","38.63","NAN","0.0"],
    [1540817,"2026-02-07 11:40:00","52573","2.082","288.0","5.422999999999999","328.2","1007.2460000000001","14.82","38.62","NAN","0.0"],
    [1540818,"2026-02-07 11:50:00","52574","1.7469999999999999","268.9","6.109","302.5","1007.2489999999999","15.52","37.03","NAN","0.0"],
    [1540819,"2026-02-07 12:00:00","52575","2.392","262.0","5.88","241.1","1007.418","15.63","36.11","NAN","0.0"],
    [1540820,"2026-02-07 12:10:00","52576","2.5580000000000003","267.0","6.468","283.7","1007.592","15.49","35.61","NAN","0.0"],
    [1540821,"2026-02-07 12:20:00","52577","3.2560000000000002","265.7","7.481","251.4","1007.465","15.33","35.73","NAN","0.0"],
    [1540822,"2026-02-07 12:30:00","52578","2.282","269.3","5.912999999999999","302.1","1007.37","15.34","35.7","NAN","0.0"],
    [1540823,"2026-02-07 12:40:00","52579","2.9539999999999997","281.1","8.3","281.7","1007.196","15.42","35.58","NAN","0.0"],
    [1540824,"2026-02-07 12:50:00","52580","2.9739999999999998","270.0","7.285","296.4","1007.1160000000001","15.47","35.73","NAN","0.0"],
    [1540825,"2026-02-07 13:00:00","52581","2.733","283.8","5.88","281.9","1007.035","15.36","36.35","NAN","0.0"],
    [1540826,"2026-02-07 13:10:00","52582","2.65","260.0","6.109","264.1","1007.066","15.61","35.99","NAN","0.0"],
    [1540827,"2026-02-07 13:20:00","52583","3.109","274.9","8.04","294.4","1006.97","15.52","35.53","NAN","0.0"],
    [1540828,"2026-02-07 13:30:00","52584","3.673","263.1","7.644","268.8","1006.8539999999999","15.45","35.6","NAN","0.0"],
    [1540829,"2026-02-07 13:40:00","52585","2.576","257.0","6.893","240.4","1006.7660000000001","15.75","34.67","NAN","0.0"],
    [1540830,"2026-02-07 13:50:00","52586","3.3539999999999996","247.3","6.9910000000000005","234.4","1006.87","15.72","34.78","NAN","0.0"],
    [1540831,"2026-02-07 14:00:00","52587","2.957","252.3","7.0889999999999995","241.2","1006.83","15.79","35.03","NAN","0.0"],
    [1540832,"2026-02-07 14:10:00","52588","1.724","257.7","5.422999999999999","218.3","1006.8530000000001","15.94","35.45","NAN","0.0"],
    [1540833,"2026-02-07 14:20:00","52589","2.456","275.3","6.1739999999999995","290.6","1006.8919999999999","15.9","35.65","NAN","0.0"],
    [1540834,"2026-02-07 14:30:00","52590","1.4609999999999999","282.5","3.887","256.4","1006.755","16.21","35.17","NAN","0.0"],
    [1540835,"2026-02-07 14:40:00","52591","1.899","250.5","5.1610000000000005","235.0","1006.693","16.22","34.35","NAN","0.0"],
    [1540836,"2026-02-07 14:50:00","52592","3.1069999999999998","251.6","7.154","227.7","1006.6510000000001","15.99","34.62","NAN","0.0"],
    [1540837,"2026-02-07 15:00:00","52593","2.2969999999999997","265.6","6.403","287.4","1006.693","16.18","34.81","NAN","0.0"],
    [1540838,"2026-02-07 15:10:00","52594","2.385","260.0","7.187","298.9","1006.845","16.02","35.71","NAN","0.0"],
    [1540839,"2026-02-07 15:20:00","52595","2.062","254.1","4.181","277.3","1006.883","15.97","36.45","NAN","0.0"],
    [1540840,"2026-02-07 15:30:00","52596","2.391","264.8","6.141","273.2","1006.7919999999999","15.99","36.42","NAN","0.0"],
    [1540841,"2026-02-07 15:40:00","52597","2.208","251.8","5.4879999999999995","234.7","1006.89","15.91","36.48","NAN","0.0"],
    [1540842,"2026-02-07 15:50:00","52598","1.788","269.8","4.2139999999999995","294.4","1007.084","15.79","36.93","NAN","0.0"],
    [1540843,"2026-02-07 16:00:00","52599","2.023","255.3","4.9","295.2","1007.194","15.7","37.61","NAN","0.0"],
    [1540844,"2026-02-07 16:10:00","52600","2.144","262.3","5.88","261.9","1007.034","15.63","37.45","NAN","0.0"],
    [1540845,"2026-02-07 16:20:00","52601","2.137","255.8","4.835","275.5","1006.8919999999999","15.53","37.49","NAN","0.0"],
    [1540846,"2026-02-07 16:30:00","52602","1.8869999999999998","238.1","4.704","233.4","1007.08","15.41","37.88","NAN","0.0"],
    [1540847,"2026-02-07 16:40:00","52603","1.835","235.3","6.795","222.1","1007.206","14.97","43.05","NAN","0.0"],
    [1540848,"2026-02-07 16:50:00","52604","1.8780000000000001","231.3","6.5329999999999995","240.2","1007.2389999999999","14.15","54.39","NAN","0.0"],
    [1540849,"2026-02-07 17:00:00","52605","2.625","238.3","5.553","231.2","1007.039","13.83","59.73","NAN","0.0"],
    [1540850,"2026-02-07 17:10:00","52606","2.114","228.2","5.063","226.7","1006.9789999999999","13.72","60.49","NAN","0.0"],
    [1540851,"2026-02-07 17:20:00","52607","2.313","220.5","5.88","260.5","1007.067","13.64","59.92","NAN","0.0"],
    [1540852,"2026-02-07 17:30:00","52608","1.913","235.7","5.063","230.8","1007.0110000000001","13.52","59.63","NAN","0.0"],
    [1540853,"2026-02-07 17:40:00","52609","2.01","238.4","5.096","221.2","1006.977","13.57","58.05","NAN","0.0"],
    [1540854,"2026-02-07 17:50:00","52610","1.815","231.5","4.345","242.7","1007.0269999999999","13.54","57.17","NAN","0.0"],
    [1540855,"2026-02-07 18:00:00","52611","1.04","228.2","3.071","244.6","1007.163","13.49","57.04","NAN","0.0"],
    [1540856,"2026-02-07 18:10:00","52612","0.995","232.1","3.201","254.1","1007.07","13.36","57.33","NAN","0.0"],
    [1540857,"2026-02-07 18:20:00","52613","1.446","229.4","3.887","232.3","1007.153","13.42","56.43","NAN","0.0"],
    [1540858,"2026-02-07 18:30:00","52614","1.374","238.8","3.822","237.3","1007.262","13.39","56.27","NAN","0.0"],
    [1540859,"2026-02-07 18:40:00","52615","1.043","235.9","2.385","240.6","1007.1030000000001","13.28","56.65","NAN","0.0"],
    [1540860,"2026-02-07 18:50:00","52616","1.155","218.6","2.907","218.6","1007.123","13.18","57.14","NAN","0.0"],
    [1540861,"2026-02-07 19:00:00","52617","0.728","233.1","1.8619999999999999","231.0","1007.051","12.99","57.74","NAN","0.0"],
    [1540862,"2026-02-07 19:10:00","52618","1.494","237.7","3.234","243.1","1006.938","13.08","56.61","NAN","0.0"],
    [1540863,"2026-02-07 19:20:00","52619","1.47","235.5","3.6910000000000003","228.5","1006.971","13.18","55.7","NAN","0.0"],
    [1540864,"2026-02-07 19:30:00","52620","0.521","227.5","1.699","244.8","1006.9730000000001","12.95","57.61","NAN","0.0"],
    [1540865,"2026-02-07 19:40:00","52621","0.843","233.6","2.385","267.6","1006.7869999999999","12.99","55.21","NAN","0.0"],
    [1540866,"2026-02-07 19:50:00","52622","1.042","232.4","2.189","231.4","1006.7869999999999","13.21","53.56","NAN","0.0"],
    [1540867,"2026-02-07 20:00:00","52623","0.613","222.5","1.666","230.8","1006.6619999999999","13.12","54.95","NAN","0.0"],
    [1540868,"2026-02-07 20:10:00","52624","0.639","216.2","1.2409999999999999","225.4","1006.5369999999999","12.92","56.82","NAN","0.0"],
    [1540869,"2026-02-07 20:20:00","52625","0.41700000000000004","256.3","1.143","246.9","1006.477","13.06","54.1","NAN","0.0"],
    [1540870,"2026-02-07 20:30:00","52626","0.785","236.7","1.535","242.9","1006.425","13.27","52.46","NAN","0.0"],
    [1540871,"2026-02-07 20:40:00","52627","0.519","201.5","1.568","225.0","1006.368","13.17","54","NAN","0.0"],
    [1540872,"2026-02-07 20:50:00","52628","0.85","192.3","1.764","206.4","1006.405","12.89","56.74","NAN","0.0"],
    [1540873,"2026-02-07 21:00:00","52629","0.467","166.7","0.8170000000000001","178.0","1006.189","12.93","55.13","NAN","0.0"],
    [1540874,"2026-02-07 21:10:00","52630","0.366","172.8","0.6859999999999999","192.8","1006.221","12.94","57.07","NAN","0.0"],
    [1540875,"2026-02-07 21:20:00","52631","0.185","175.2","0.7190000000000001","202.5","1006.293","12.74","61.61","NAN","0.0"],
    [1540876,"2026-02-07 21:30:00","52632","0.528","192.3","0.98","207.3","1006.263","12.64","61.17","NAN","0.0"],
    [1540877,"2026-02-07 21:40:00","52633","0.149","132.8","0.588","133.2","1006.1110000000001","12.67","60.87","NAN","0.0"],
    [1540878,"2026-02-07 21:50:00","52634","0.205","130.2","0.523","161.8","1006.039","12.68","60.26","NAN","0.0"],
    [1540879,"2026-02-07 22:00:00","52635","0.525","181.1","1.209","199.6","1006.052","12.65","60.94","NAN","0.0"],
    [1540880,"2026-02-07 22:10:00","52636","0.457","195.4","1.013","201.8","1005.9019999999999","12.62","64.55","NAN","0.0"],
    [1540881,"2026-02-07 22:20:00","52637","0.27699999999999997","180.2","0.621","178.0","1005.7330000000001","12.69","64.25","NAN","0.0"],
    [1540882,"2026-02-07 22:30:00","52638","0.59","193.1","1.829","223.7","1005.678","12.68","67.07","NAN","0.0"],
    [1540883,"2026-02-07 22:40:00","52639","0.675","192.3","1.8619999999999999","238.2","1005.541","12.79","70.17","NAN","0.0"],
    [1540884,"2026-02-07 22:50:00","52640","0.8420000000000001","196.2","1.96","211.4","1005.461","12.83","70.39","NAN","0.0"],
    [1540885,"2026-02-07 23:00:00","52641","0.981","211.8","1.797","196.2","1005.334","12.92","69.77","NAN","0.0"],
    [1540886,"2026-02-07 23:10:00","52642","1.146","220.0","2.613","224.8","1005.289","12.99","69.68","NAN","0.0"],
    [1540887,"2026-02-07 23:20:00","52643","1.081","225.5","2.613","241.4","1005.092","12.86","70.02","NAN","0.0"],
    [1540888,"2026-02-07 23:30:00","52644","1.4469999999999998","227.2","3.365","234.6","1004.908","12.75","70.4","NAN","0.0"],
    [1540889,"2026-02-07 23:40:00","52645","1.099","233.7","2.385","251.6","1004.779","12.74","70.99","NAN","0.0"],
    [1540890,"2026-02-07 23:50:00","52646","0.981","239.8","2.385","254.2","1004.4689999999999","12.66","71.34","NAN","0.0"],
    [1540891,"2026-02-08 00:00:00","52647","0.8370000000000001","251.9","2.0580000000000003","236.6","1004.1669999999999","12.65","70.95","NAN","0.0"],
    [1540892,"2026-02-08 00:10:00","52648","0.882","261.7","2.221","255.2","1003.8789999999999","12.76","69.72","NAN","0.0"],
    [1540893,"2026-02-08 00:20:00","52649","0.887","269.3","2.319","289.4","1003.6","12.86","68.74","NAN","0.0"],
    [1540894,"2026-02-08 00:30:00","52650","0.612","225.7","1.4369999999999998","266.9","1003.4630000000001","12.78","69.68","NAN","0.0"],
    [1540895,"2026-02-08 00:40:00","52651","0.262","265.0","1.209","275.9","1003.132","12.73","70.32","NAN","0.0"],
    [1540896,"2026-02-08 00:50:00","52652","0.433","250.0","1.601","292.0","1002.923","12.75","71.29","NAN","0.0"],
    [1540897,"2026-02-08 01:00:00","52653","0.262","221.2","1.274","258.6","1002.8430000000001","12.63","72.81","NAN","0.0"],
    [1540898,"2026-02-08 01:10:00","52654","0.815","211.9","2.417","256.0","1002.845","12.53","74.45","NAN","0.1"],
    [1540899,"2026-02-08 01:20:00","52655","1.003","206.9","2.319","259.2","1002.587","12.43","76.4","NAN","0.1"],
    [1540900,"2026-02-08 01:30:00","52656","1.006","79.8","2.156","51.46","1002.472","11.84","79.62","NAN","0.1"],
    [1540901,"2026-02-08 01:40:00","52657","1.4780000000000002","56.37","2.5810000000000004","65.73","1002.185","10.76","81.6","NAN","0.1"],
    [1540902,"2026-02-08 01:50:00","52658","1.192","48.35","2.483","41.91","1002.193","10.59","79.96","NAN","0.0"],
    [1540903,"2026-02-08 02:00:00","52659","0.8909999999999999","19.65","2.254","49.67","1002.206","10.71","78.63","NAN","0.0"],
    [1540904,"2026-02-08 02:10:00","52660","1.4469999999999998","42.02","2.254","50.26","1001.888","10.74","77.91","NAN","0.0"],
    [1540905,"2026-02-08 02:20:00","52661","1.2830000000000001","42.15","2.417","6.377999999999999","1001.6389999999999","10.63","78.05","NAN","0.0"],
    [1540906,"2026-02-08 02:30:00","52662","1.122","4.843999999999999","3.103","45.1","1001.5139999999999","10.53","74.94","NAN","0.0"],
    [1540907,"2026-02-08 02:40:00","52663","0.721","349.6","1.8619999999999999","359.2","1001.7769999999999","10.57","72.75","NAN","0.0"],
    [1540908,"2026-02-08 02:50:00","52664","0.981","350.2","2.221","351.6","1001.495","10.93","72.13","NAN","0.0"],
    [1540909,"2026-02-08 03:00:00","52665","0.862","9.85","1.9269999999999998","32.22","1001.318","11.01","71.81","NAN","0.0"],
    [1540910,"2026-02-08 03:10:00","52666","1.204","16.64","3.005","7.947","1001.079","10.86","72.74","NAN","0.0"],
    [1540911,"2026-02-08 03:20:00","52667","1.416","9.97","3.43","12.06","1000.831","10.72","73.07","NAN","0.0"],
    [1540912,"2026-02-08 03:30:00","52668","1.065","8.1","2.0909999999999997","24.33","1000.648","10.6","73.96","NAN","0.0"],
    [1540913,"2026-02-08 03:40:00","52669","0.499","14.8","1.4369999999999998","20.95","1000.4680000000001","10.51","74.78","NAN","0.0"],
    [1540914,"2026-02-08 03:50:00","52670","0.47200000000000003","2.408","1.274","345.9","1000.543","10.42","76.18","NAN","0.0"],
    [1540915,"2026-02-08 04:00:00","52671","0.405","355.3","1.307","303.2","1000.513","10.55","76.06","NAN","0.0"],
    [1540916,"2026-02-08 04:10:00","52672","0.242","2.24","0.915","352.0","1000.4939999999999","10.51","76.61","NAN","0.0"],
    [1540917,"2026-02-08 04:20:00","52673","0.319","51.68","0.6859999999999999","72.51","1000.456","10.48","77.14","NAN","0.0"],
    [1540918,"2026-02-08 04:30:00","52674","0.415","53.66","0.8170000000000001","51.68","1000.443","10.25","78.42","NAN","0.0"],
    [1540919,"2026-02-08 04:40:00","52675","0.37799999999999995","35.94","0.8490000000000001","48.96","1000.444","10.06","79.86","NAN","0.0"],
    [1540920,"2026-02-08 04:50:00","52676","0.10800000000000001","176.9","0.7509999999999999","36.45","1000.4730000000001","10.05","81.1","NAN","0.0"],
    [1540921,"2026-02-08 05:00:00","52677","0.044000000000000004","65.45","0.523","97.9","1000.574","10.31","79.68","NAN","0.0"],
    [1540922,"2026-02-08 05:10:00","52678","0.086","83.5","0.49","76.23","1000.6310000000001","10.33","79.27","NAN","0.0"],
    [1540923,"2026-02-08 05:20:00","52679","0.147","113.5","0.915","103.2","1000.533","10.22","80.6","NAN","0.0"],
    [1540924,"2026-02-08 05:30:00","52680","0.336","95.4","0.9470000000000001","101.0","1000.322","10","83.3","NAN","0.0"],
    [1540925,"2026-02-08 05:40:00","52681","0.13699999999999998","50.92","0.653","22.65","1000.322","9.92","84.1","NAN","0.0"],
    [1540926,"2026-02-08 05:50:00","52682","0.048","135.4","0.588","137.8","1000.285","10.12","83.3","NAN","0.0"],
    [1540927,"2026-02-08 06:00:00","52683","0.021","59.05","0.588","61.81","1000.312","10.11","83","NAN","0.0"],
    [1540928,"2026-02-08 06:10:00","52684","0.349","48.41","0.9470000000000001","67.93","1000.355","9.94","84.1","NAN","0.0"],
    [1540929,"2026-02-08 06:20:00","52685","0.381","235.1","1.078","252.7","1000.332","9.95","81.1","NAN","0.0"],
    [1540930,"2026-02-08 06:30:00","52686","0.436","230.4","1.47","231.9","1000.444","10.11","75.19","NAN","0.0"],
    [1540931,"2026-02-08 06:40:00","52687","0.6629999999999999","232.2","1.4369999999999998","261.7","1000.462","10.17","74.82","NAN","0.0"],
    [1540932,"2026-02-08 06:50:00","52688","0.237","266.4","0.882","294.6","1000.435","10.06","74.67","NAN","0.0"],
    [1540933,"2026-02-08 07:00:00","52689","0.37","195.4","1.045","183.3","1000.3860000000001","9.96","76.12","NAN","0.0"],
    [1540934,"2026-02-08 07:10:00","52690","0.08900000000000001","225.0","0.8170000000000001","201.6","1000.451","9.55","79.3","NAN","0.0"],
    [1540935,"2026-02-08 07:20:00","52691","0.33899999999999997","233.6","1.111","238.8","1000.457","9.63","79.19","NAN","0.0"],
    [1540936,"2026-02-08 07:30:00","52692","0.909","223.1","1.633","298.4","1000.5189999999999","10.03","75.61","NAN","0.0"],
    [1540937,"2026-02-08 07:40:00","52693","0.8859999999999999","203.9","1.699","188.1","1000.572","9.91","77.5","NAN","0.0"],
    [1540938,"2026-02-08 07:50:00","52694","0.664","170.1","1.307","180.0","1000.6260000000001","9.98","78.88","NAN","0.0"],
    [1540939,"2026-02-08 08:00:00","52695","0.183","103.9","1.143","144.4","1000.716","9.9","80.3","NAN","0.0"],
    [1540940,"2026-02-08 08:10:00","52696","0.067","61.3","0.588","53.43","1000.788","9.98","80.6","NAN","0.0"],
    [1540941,"2026-02-08 08:20:00","52697","0.026000000000000002","73.64","0.425","72.38","1000.823","10.24","79.53","NAN","0.0"],
    [1540942,"2026-02-08 08:30:00","52698","0.33899999999999997","129.1","0.915","184.3","1000.868","10.58","78.41","NAN","0.0"],
    [1540943,"2026-02-08 08:40:00","52699","0.5429999999999999","189.2","1.274","198.5","1000.948","10.82","78.92","NAN","0.0"],
    [1540944,"2026-02-08 08:50:00","52700","0.389","151.4","1.307","144.9","1001.045","11.14","75.91","NAN","0.0"],
    [1540945,"2026-02-08 09:00:00","52701","0.948","308.5","3.103","317.9","1001.127","11.65","69.23","NAN","0.0"],
    [1540946,"2026-02-08 09:10:00","52702","1.011","262.1","3.071","239.3","1001.3","12.01","65.56","NAN","0.0"],
    [1540947,"2026-02-08 09:20:00","52703","0.9640000000000001","312.6","2.287","321.9","1001.262","12.3","63.72","NAN","0.0"],
    [1540948,"2026-02-08 09:30:00","52704","1.155","273.0","2.483","280.0","1001.2660000000001","12.69","62.26","NAN","0.0"],
    [1540949,"2026-02-08 09:40:00","52705","1.166","271.3","3.5610000000000004","281.5","1001.3860000000001","12.8","61.31","NAN","0.0"],
    [1540950,"2026-02-08 09:50:00","52706","1.499","274.1","3.7569999999999997","300.3","1001.477","12.96","59.93","NAN","0.0"],
    [1540951,"2026-02-08 10:00:00","52707","1.295","271.0","3.365","258.0","1001.64","13.05","58.79","NAN","0.0"],
    [1540952,"2026-02-08 10:10:00","52708","0.9209999999999999","283.9","2.6460000000000004","263.5","1001.6669999999999","13.4","57.29","NAN","0.0"],
    [1540953,"2026-02-08 10:20:00","52709","1.2109999999999999","280.5","3.822","280.2","1001.577","13.67","56.11","NAN","0.0"],
    [1540954,"2026-02-08 10:30:00","52710","1.7269999999999999","269.6","4.083","280.5","1001.612","13.76","55.93","NAN","0.0"],
    [1540955,"2026-02-08 10:40:00","52711","1.69","276.0","4.638999999999999","279.7","1001.699","13.82","56.1","NAN","0.0"],
    [1540956,"2026-02-08 10:50:00","52712","1.9909999999999999","321.0","4.998","308.5","1001.7610000000001","13.58","57.05","NAN","0.0"],
    [1540957,"2026-02-08 11:00:00","52713","1.43","286.0","4.279","338.6","1001.707","13.9","56.55","NAN","0.0"],
    [1540958,"2026-02-08 11:10:00","52714","1.7069999999999999","286.2","5.521","322.0","1001.696","14.06","55.7","NAN","0.0"],
    [1540959,"2026-02-08 11:20:00","52715","1.618","313.3","5.031000000000001","249.1","1001.587","14.18","56.15","NAN","0.0"],
    [1540960,"2026-02-08 11:30:00","52716","1.8869999999999998","274.5","4.933","292.7","1001.612","14.53","55.74","NAN","0.0"],
    [1540961,"2026-02-08 11:40:00","52717","2.011","266.4","5.292000000000001","251.2","1001.507","14.89","55.03","NAN","0.0"],
    [1540962,"2026-02-08 11:50:00","52718","2.4530000000000003","266.7","5.815","240.5","1001.485","14.81","55.18","NAN","0.0"],
    [1540963,"2026-02-08 12:00:00","52719","2.228","265.9","5.815","284.2","1001.385","14.96","54.37","NAN","0.0"],
    [1540964,"2026-02-08 12:10:00","52720","1.359","259.9","4.377","242.3","1001.45","15.62","52.67","NAN","0.0"],
    [1540965,"2026-02-08 12:20:00","52721","0.9229999999999999","270.3","3.1689999999999996","245.3","1001.513","15.88","51.78","NAN","0.0"],
    [1540966,"2026-02-08 12:30:00","52722","1.929","278.2","4.181","296.0","1001.59","15.78","51.11","NAN","0.0"],
    [1540967,"2026-02-08 12:40:00","52723","1.712","285.9","5.1610000000000005","319.4","1001.622","15.7","51.38","NAN","0.0"],
    [1540968,"2026-02-08 12:50:00","52724","1.5959999999999999","267.8","4.083","259.2","1001.5219999999999","16.04","50.44","NAN","0.0"],
    [1540969,"2026-02-08 13:00:00","52725","2.215","316.5","4.279","288.6","1001.4910000000001","16.01","49.71","NAN","0.0"],
    [1540970,"2026-02-08 13:10:00","52726","2.1630000000000003","322.4","4.671","302.2","1001.4910000000001","15.98","47.51","NAN","0.0"],
    [1540971,"2026-02-08 13:20:00","52727","1.2329999999999999","338.4","4.345","32.69","1001.48","16.26","46.32","NAN","0.0"],
    [1540972,"2026-02-08 13:30:00","52728","1.2570000000000001","339.1","3.365","315.7","1001.6519999999999","16.66","44.68","NAN","0.0"],
    [1540973,"2026-02-08 13:40:00","52729","1.8219999999999998","48.21","3.6260000000000003","60.64","1001.717","16.48","44.16","NAN","0.0"],
    [1540974,"2026-02-08 13:50:00","52730","0.43","290.1","2.287","339.6","1001.7330000000001","16.91","43.06","NAN","0.0"],
    [1540975,"2026-02-08 14:00:00","52731","1.084","28.8","3.365","13.32","1001.7769999999999","17.28","42.24","NAN","0.0"],
    [1540976,"2026-02-08 14:10:00","52732","1.63","11.72","3.365","50.6","1001.7230000000001","16.74","43.32","NAN","0.0"],
    [1540977,"2026-02-08 14:20:00","52733","1.537","76.8","3.659","59.71","1001.818","16.69","44.91","NAN","0.0"],
    [1540978,"2026-02-08 14:30:00","52734","1.1909999999999998","117.8","2.287","94.9","1001.887","16.56","46.74","NAN","0.0"],
    [1540979,"2026-02-08 14:40:00","52735","1.921","100.1","4.475","64.33","1002.067","16.28","49.03","NAN","0.0"],
    [1540980,"2026-02-08 14:50:00","52736","2.5789999999999997","81.7","4.41","62.87","1002.118","15.52","54.18","NAN","0.0"],
    [1540981,"2026-02-08 15:00:00","52737","1.8030000000000002","116.0","4.377","124.7","1002.1419999999999","15.09","51.86","NAN","0.0"],
    [1540982,"2026-02-08 15:10:00","52738","1.6580000000000001","122.1","2.548","119.5","1002.2489999999999","15.4","48.89","NAN","0.0"],
    [1540983,"2026-02-08 15:20:00","52739","1.59","127.0","2.5810000000000004","141.2","1002.5189999999999","15.38","49.4","NAN","0.0"],
    [1540984,"2026-02-08 15:30:00","52740","1.4369999999999998","109.7","2.8089999999999997","96.0","1002.829","15.43","49.52","NAN","0.0"],
    [1540985,"2026-02-08 15:40:00","52741","2.106","92.3","3.397","87.9","1003.0930000000001","14.88","56.61","NAN","0.0"],
    [1540986,"2026-02-08 15:50:00","52742","1.734","98.2","3.1689999999999996","90.9","1003.2360000000001","14.66","55.17","NAN","0.0"],
    [1540987,"2026-02-08 16:00:00","52743","1.421","126.3","2.8089999999999997","101.5","1003.298","14.67","57.25","NAN","0.0"],
    [1540988,"2026-02-08 16:10:00","52744","1.196","117.4","2.0909999999999997","107.1","1003.5369999999999","14.58","58.06","NAN","0.0"],
    [1540989,"2026-02-08 16:20:00","52745","0.902","124.3","1.568","83.0","1003.7719999999999","14.62","57.75","NAN","0.0"],
    [1540990,"2026-02-08 16:30:00","52746","1.26","112.4","2.352","118.5","1003.888","14.84","55.59","NAN","0.0"],
    [1540991,"2026-02-08 16:40:00","52747","1.2819999999999998","114.4","2.254","137.4","1003.9910000000001","14.79","53.87","NAN","0.0"],
    [1540992,"2026-02-08 16:50:00","52748","0.7609999999999999","99.5","1.3719999999999999","93.3","1004.21","14.72","57.92","NAN","0.0"],
    [1540993,"2026-02-08 17:00:00","52749","1.056","106.4","2.156","97.9","1004.357","14.57","58.83","NAN","0.0"],
    [1540994,"2026-02-08 17:10:00","52750","1.232","65.34","2.613","68.2","1004.5889999999999","14.32","64.75","NAN","0.0"],
    [1540995,"2026-02-08 17:20:00","52751","1.5859999999999999","77.3","2.9730000000000003","60.88","1004.717","14.13","64.84","NAN","0.0"],
    [1540996,"2026-02-08 17:30:00","52752","1.032","70.64","3.005","72.9","1004.818","14.01","65.22","NAN","0.0"],
    [1540997,"2026-02-08 17:40:00","52753","1.262","68.5","3.1689999999999996","72.1","1005.107","13.9","64.21","NAN","0.0"],
    [1540998,"2026-02-08 17:50:00","52754","0.775","60.08","1.829","29.95","1005.336","13.82","67.54","NAN","0.0"],
    [1540999,"2026-02-08 18:00:00","52755","1.626","40.54","2.9730000000000003","35.46","1005.612","13.83","70.72","NAN","0.0"],
    [1541000,"2026-02-08 18:10:00","52756","1.5659999999999998","37.01","2.45","52.62","1005.784","13.77","72.19","NAN","0.0"],
    [1541001,"2026-02-08 18:20:00","52757","1.3219999999999998","53.09","2.417","49.32","1006.03","13.8","71.4","NAN","0.0"],
    [1541002,"2026-02-08 18:30:00","52758","1.07","68.18","2.254","71.15","1006.215","13.77","71.74","NAN","0.0"],
    [1541003,"2026-02-08 18:40:00","52759","1.7530000000000001","93.1","4.475","69.31","1006.232","13.47","71.36","NAN","0.0"],
    [1541004,"2026-02-08 18:50:00","52760","2.155","83.3","4.4430000000000005","83.1","1006.347","13.05","70.39","NAN","0.0"],
    [1541005,"2026-02-08 19:00:00","52761","2.1430000000000002","81.2","3.659","60.44","1006.4960000000001","13","69.12","NAN","0.0"],
    [1541006,"2026-02-08 19:10:00","52762","1.5630000000000002","84.7","3.463","91.1","1006.738","12.95","69.08","NAN","0.0"],
    [1541007,"2026-02-08 19:20:00","52763","1.3559999999999999","59.97","3.495","80.4","1006.962","12.99","68.2","NAN","0.0"],
    [1541008,"2026-02-08 19:30:00","52764","1.712","71.67","3.6260000000000003","66.15","1007.1239999999999","13.04","66.86","NAN","0.0"],
    [1541009,"2026-02-08 19:40:00","52765","2.1069999999999998","62.06","3.822","45.44","1007.2310000000001","13.06","67.22","NAN","0.0"],
    [1541010,"2026-02-08 19:50:00","52766","1.8","71.63","3.6260000000000003","36.35","1007.335","13","66.99","NAN","0.0"],
    [1541011,"2026-02-08 20:00:00","52767","1.4280000000000002","80.1","2.875","75.56","1007.35","12.94","67.35","NAN","0.0"],
    [1541012,"2026-02-08 20:10:00","52768","2.099","55.32","4.181","70.97","1007.49","12.73","68.05","NAN","0.0"],
    [1541013,"2026-02-08 20:20:00","52769","2.543","68.26","4.638999999999999","70.69","1007.5989999999999","12.65","67.61","NAN","0.0"],
    [1541014,"2026-02-08 20:30:00","52770","2.424","78.55","4.312","87.2","1007.7130000000001","12.65","66.99","NAN","0.0"],
    [1541015,"2026-02-08 20:40:00","52771","1.723","70.84","4.638999999999999","72.97","1007.7339999999999","12.5","67.1","NAN","0.0"],
    [1541016,"2026-02-08 20:50:00","52772","1.834","77.32","3.7239999999999998","63.76","1007.638","12.32","67.79","NAN","0.0"],
    [1541017,"2026-02-08 21:00:00","52773","2.299","83.9","4.508","82.6","1007.648","12.15","68.95","NAN","0.0"],
    [1541018,"2026-02-08 21:10:00","52774","1.5919999999999999","72.02","3.92","67.25","1007.7560000000001","12.07","70.5","NAN","0.0"],
    [1541019,"2026-02-08 21:20:00","52775","1.766","62.43","4.312","82.0","1007.8560000000001","11.94","72.1","NAN","0.0"],
    [1541020,"2026-02-08 21:30:00","52776","1.3780000000000001","56.94","3.365","71.98","1007.925","11.8","72.27","NAN","0.0"],
    [1541021,"2026-02-08 21:40:00","52777","1.266","37.41","2.907","54.15","1008.015","11.72","73.15","NAN","0.0"],
    [1541022,"2026-02-08 21:50:00","52778","1.163","44.35","2.842","34.61","1008.127","11.56","74.18","NAN","0.0"],
    [1541023,"2026-02-08 22:00:00","52779","1.053","44.18","2.385","31.87","1008.2239999999999","11.44","74.88","NAN","0.0"],
    [1541024,"2026-02-08 22:10:00","52780","0.672","42.88","1.9269999999999998","69.75","1008.294","11.34","76.06","NAN","0.0"],
    [1541025,"2026-02-08 22:20:00","52781","0.747","61.22","1.568","79.25","1008.306","11.26","76.75","NAN","0.0"],
    [1541026,"2026-02-08 22:30:00","52782","0.632","73.57","1.8619999999999999","93.3","1008.423","11.23","77.68","NAN","0.0"],
    [1541027,"2026-02-08 22:40:00","52783","0.623","64.67","1.4369999999999998","75.2","1008.4960000000001","11.08","78.66","NAN","0.0"],
    [1541028,"2026-02-08 22:50:00","52784","0.5920000000000001","84.5","1.96","93.3","1008.485","11","78.5","NAN","0.0"],
    [1541029,"2026-02-08 23:00:00","52785","0.9440000000000001","74.72","1.829","72.79","1008.313","11.14","79.02","NAN","0.0"],
    [1541030,"2026-02-08 23:10:00","52786","0.6459999999999999","62.44","1.9269999999999998","60.03","1008.204","11.12","79.97","NAN","0.0"],
    [1541031,"2026-02-08 23:20:00","52787","0.946","73.51","1.96","68.11","1007.967","11.09","80.5","NAN","0.0"],
    [1541032,"2026-02-08 23:30:00","52788","1.2919999999999998","76.61","3.005","70.22","1007.7410000000001","11.15","80.1","NAN","0.0"],
    [1541033,"2026-02-08 23:40:00","52789","1.4140000000000001","90.8","2.907","91.3","1007.5310000000001","11.2","79.03","NAN","0.0"],
    [1541034,"2026-02-08 23:50:00","52790","1.325","83.6","2.7110000000000003","106.6","1007.431","11.2","78.82","NAN","0.0"],
    [1541035,"2026-02-09 00:00:00","52791","1.251","80.3","2.483","74.03","1007.444","11.17","79.76","NAN","0.0"],
    [1541036,"2026-02-09 00:10:00","52792","0.11599999999999999","79.72","0.98","108.2","1007.737","11.02","80.6","NAN","0.0"],
    [1541037,"2026-02-09 00:20:00","52793","0.562","36.84","1.2409999999999999","36.1","1007.658","10.84","81.8","NAN","0.0"],
    [1541038,"2026-02-09 00:30:00","52794","0.615","0.892","1.535","333.6","1007.727","10.91","81.6","NAN","0.0"],
    [1541039,"2026-02-09 00:40:00","52795","0.6659999999999999","291.2","1.699","292.2","1008.0239999999999","11.31","79.77","NAN","0.0"],
    [1541040,"2026-02-09 00:50:00","52796","0.597","265.9","1.3719999999999999","299.0","1008.138","11.55","77.69","NAN","0.0"],
    [1541041,"2026-02-09 01:00:00","52797","0.9329999999999999","228.2","2.45","258.4","1008.205","11.57","77.17","NAN","0.0"],
    [1541042,"2026-02-09 01:10:00","52798","0.5710000000000001","220.9","1.405","210.9","1008.2489999999999","11.37","78.18","NAN","0.0"],
    [1541043,"2026-02-09 01:20:00","52799","1.013","229.4","2.189","248.5","1008.296","11.29","77.53","NAN","0.0"],
    [1541044,"2026-02-09 01:30:00","52800","0.415","233.9","1.601","231.9","1008.334","11.39","75.46","NAN","0.0"],
    [1541045,"2026-02-09 01:40:00","52801","0.72","243.5","1.8619999999999999","217.7","1008.439","11.33","75.56","NAN","0.0"],
    [1541046,"2026-02-09 01:50:00","52802","0.9470000000000001","239.8","1.895","249.8","1008.541","11.54","73.62","NAN","0.0"],
    [1541047,"2026-02-09 02:00:00","52803","0.856","226.8","1.8619999999999999","226.0","1008.5060000000001","11.56","73.12","NAN","0.0"],
    [1541048,"2026-02-09 02:10:00","52804","0.499","210.3","1.3719999999999999","203.4","1008.508","11.44","74.52","NAN","0.0"],
    [1541049,"2026-02-09 02:20:00","52805","0.527","220.0","1.47","245.5","1008.418","11.33","75.8","NAN","0.0"],
    [1541050,"2026-02-09 02:30:00","52806","0.188","214.6","0.784","226.4","1008.3530000000001","11.26","76.44","NAN","0.0"],
    [1541051,"2026-02-09 02:40:00","52807","0.19699999999999998","245.2","0.98","269.1","1008.294","11.09","77.79","NAN","0.0"],
    [1541052,"2026-02-09 02:50:00","52808","0.43799999999999994","241.2","1.143","246.1","1008.334","11.19","77.39","NAN","0.0"],
    [1541053,"2026-02-09 03:00:00","52809","0.493","229.0","1.307","248.6","1008.418","11.37","76.36","NAN","0.0"],
    [1541054,"2026-02-09 03:10:00","52810","0.483","208.9","1.013","198.1","1008.346","11.27","76.57","NAN","0.0"],
    [1541055,"2026-02-09 03:20:00","52811","0.5379999999999999","210.3","0.9470000000000001","196.7","1008.279","11.1","76.95","NAN","0.0"],
    [1541056,"2026-02-09 03:30:00","52812","0.762","208.5","1.274","207.1","1008.221","10.95","77.78","NAN","0.0"],
    [1541057,"2026-02-09 03:40:00","52813","0.221","190.6","0.6859999999999999","204.2","1008.067","10.83","78.84","NAN","0.0"],
    [1541058,"2026-02-09 03:50:00","52814","0.529","242.4","1.3719999999999999","253.2","1008.045","10.71","80.6","NAN","0.0"],
    [1541059,"2026-02-09 04:00:00","52815","0.298","232.8","1.307","250.1","1008.047","11.17","76.65","NAN","0.0"],
    [1541060,"2026-02-09 04:10:00","52816","0.311","240.3","0.915","232.2","1007.962","11.13","74.81","NAN","0.0"],
    [1541061,"2026-02-09 04:20:00","52817","0.551","299.4","0.98","327.3","1008.078","11.28","67.26","NAN","0.0"],
    [1541062,"2026-02-09 04:30:00","52818","0.765","273.4","1.895","269.5","1008.2189999999999","11.45","66.14","NAN","0.0"],
    [1541063,"2026-02-09 04:40:00","52819","0.542","273.5","1.633","289.2","1008.294","11.54","63.02","NAN","0.0"],
    [1541064,"2026-02-09 04:50:00","52820","0.654","294.0","1.699","284.3","1008.294","11.54","61.76","NAN","0.0"],
    [1541065,"2026-02-09 05:00:00","52821","0.8109999999999999","285.8","1.895","286.4","1008.294","11.6","61.74","NAN","0.0"],
    [1541066,"2026-02-09 05:10:00","52822","1.186","312.7","2.156","332.2","1008.2539999999999","11.54","62.2","NAN","0.0"],
    [1541067,"2026-02-09 05:20:00","52823","0.613","307.5","1.8619999999999999","324.2","1008.1289999999999","11.53","62.96","NAN","0.0"],
    [1541068,"2026-02-09 05:30:00","52824","0.523","291.0","1.209","330.3","1008.045","11.47","63.99","NAN","0.0"],
    [1541069,"2026-02-09 05:40:00","52825","0.231","290.7","0.9470000000000001","223.8","1007.942","11.48","64.59","NAN","0.0"],
    [1541070,"2026-02-09 05:50:00","52826","0.636","329.0","1.47","14.61","1008.013","11.33","65.32","NAN","0.0"],
    [1541071,"2026-02-09 06:00:00","52827","0.774","320.4","1.895","313.5","1008.045","11.54","65.38","NAN","0.0"],
    [1541072,"2026-02-09 06:10:00","52828","0.579","278.1","1.5030000000000001","292.7","1008.105","11.44","66.17","NAN","0.0"],
    [1541073,"2026-02-09 06:20:00","52829","0.818","254.4","2.8089999999999997","282.7","1008.1389999999999","11.36","66.44","NAN","0.0"],
    [1541074,"2026-02-09 06:30:00","52830","1.058","277.0","2.5810000000000004","274.7","1008.045","11.45","60.67","NAN","0.0"],
    [1541075,"2026-02-09 06:40:00","52831","0.541","304.2","1.4369999999999998","14.18","1007.895","11.4","57.16","NAN","0.0"],
    [1541076,"2026-02-09 06:50:00","52832","0.589","342.0","1.96","7.557","1007.6260000000001","11.11","55.22","NAN","0.0"],
    [1541077,"2026-02-09 07:00:00","52833","0.629","260.5","2.45","281.8","1007.556","11.09","55.36","NAN","0.0"],
    [1541078,"2026-02-09 07:10:00","52834","1.023","258.3","2.417","246.2","1007.6260000000001","11.13","55.54","NAN","0.0"],
    [1541079,"2026-02-09 07:20:00","52835","0.973","276.1","2.417","296.4","1007.6160000000001","11.11","56.2","NAN","0.0"],
    [1541080,"2026-02-09 07:30:00","52836","0.904","318.1","2.123","301.9","1007.497","11","56.92","NAN","0.0"],
    [1541081,"2026-02-09 07:40:00","52837","1.0859999999999999","299.5","2.8089999999999997","322.2","1007.43","11.07","56.83","NAN","0.0"],
    [1541082,"2026-02-09 07:50:00","52838","0.7040000000000001","260.4","1.829","277.4","1007.6469999999999","11.18","56.77","NAN","0.0"],
    [1541083,"2026-02-09 08:00:00","52839","0.81","268.2","2.613","278.0","1007.836","11.37","56.24","NAN","0.0"],
    [1541084,"2026-02-09 08:10:00","52840","1.547","294.4","4.2139999999999995","315.2","1008.028","11.5","55.55","NAN","0.0"],
    [1541085,"2026-02-09 08:20:00","52841","0.7490000000000001","289.5","2.0580000000000003","331.0","1008.082","11.43","56.27","NAN","0.0"],
    [1541086,"2026-02-09 08:30:00","52842","1.246","322.4","2.679","316.4","1008.173","11.32","56.61","NAN","0.0"],
    [1541087,"2026-02-09 08:40:00","52843","0.8859999999999999","320.4","2.417","312.1","1008.185","11.44","56.29","NAN","0.0"],
    [1541088,"2026-02-09 08:50:00","52844","0.943","314.9","2.548","319.0","1008.285","11.67","55.28","NAN","0.0"],
    [1541089,"2026-02-09 09:00:00","52845","0.895","349.9","2.385","325.3","1008.278","11.7","55.48","NAN","0.0"],
    [1541090,"2026-02-09 09:10:00","52846","0.799","302.1","3.0380000000000003","285.7","1008.323","11.83","55.03","NAN","0.0"],
    [1541091,"2026-02-09 09:20:00","52847","0.943","270.9","2.254","308.8","1008.237","12.06","54.08","NAN","0.0"],
    [1541092,"2026-02-09 09:30:00","52848","0.992","253.8","3.593","245.4","1008.194","12.06","53.53","NAN","0.0"],
    [1541093,"2026-02-09 09:40:00","52849","0.594","243.8","2.156","238.6","1008.1210000000001","12.38","52.5","NAN","0.0"],
    [1541094,"2026-02-09 09:50:00","52850","1.2009999999999998","242.2","2.842","243.8","1008.172","13.1","49.38","NAN","0.0"],
    [1541095,"2026-02-09 10:00:00","52851","1.2329999999999999","246.0","3.855","246.7","1008.1080000000001","13.09","49.12","NAN","0.0"],
    [1541096,"2026-02-09 10:10:00","52852","1.598","244.9","3.365","243.7","1008.07","13.37","48.21","NAN","0.0"],
    [1541097,"2026-02-09 10:20:00","52853","1.9769999999999999","260.1","4.345","277.3","1007.918","13.17","48.75","NAN","0.0"],
    [1541098,"2026-02-09 10:30:00","52854","1.5859999999999999","255.6","3.985","244.6","1007.791","13.69","47.24","NAN","0.0"],
    [1541099,"2026-02-09 10:40:00","52855","1.516","251.5","4.018","216.2","1007.7810000000001","13.91","45.97","NAN","0.0"],
    [1541100,"2026-02-09 10:50:00","52856","1.829","266.9","3.7569999999999997","253.6","1007.809","13.91","45.95","NAN","0.0"],
    [1541101,"2026-02-09 11:00:00","52857","1.36","231.6","3.6910000000000003","239.4","1007.6569999999999","14.33","45.26","NAN","0.0"],
    [1541102,"2026-02-09 11:10:00","52858","1.444","231.9","3.593","229.3","1007.672","14.41","45.52","NAN","0.0"],
    [1541103,"2026-02-09 11:20:00","52859","1.5830000000000002","223.6","3.103","282.4","1007.689","14.39","45.63","NAN","0.0"],
    [1541104,"2026-02-09 11:30:00","52860","1.9","225.0","3.7239999999999998","242.8","1007.6","14.39","45.37","NAN","0.0"],
    [1541105,"2026-02-09 11:40:00","52861","1.751","198.3","4.083","174.5","1007.442","14.65","46.76","NAN","0.0"],
    [1541106,"2026-02-09 11:50:00","52862","2.479","181.7","3.9530000000000003","174.8","1007.315","13.81","50.05","NAN","0.0"],
    [1541107,"2026-02-09 12:00:00","52863","2.798","184.5","4.279","179.4","1007.186","13.61","53.76","NAN","0.0"],
    [1541108,"2026-02-09 12:10:00","52864","3.1189999999999998","177.1","5.357","175.4","1007.1239999999999","13.36","61","NAN","0.0"],
    [1541109,"2026-02-09 12:20:00","52865","3.013","181.5","5.1610000000000005","180.1","1007.0269999999999","13.1","62.77","NAN","0.0"],
    [1541110,"2026-02-09 12:30:00","52866","3.147","180.3","5.2589999999999995","177.1","1006.982","13.12","64.07","NAN","0.0"],
    [1541111,"2026-02-09 12:40:00","52867","3.135","181.0","5.553","154.3","1007.002","13.17","63.46","NAN","0.0"],
    [1541112,"2026-02-09 12:50:00","52868","3.085","180.7","5.129","170.6","1006.9939999999999","13.15","62.56","NAN","0.0"],
    [1541113,"2026-02-09 13:00:00","52869","2.785","182.9","4.965","180.0","1007.034","13.01","63.88","NAN","0.0"],
    [1541114,"2026-02-09 13:10:00","52870","1.89","183.7","3.397","125.8","1006.949","13.17","62.63","NAN","0.0"],
    [1541115,"2026-02-09 13:20:00","52871","2.113","191.2","4.573","173.4","1006.73","13.57","60.6","NAN","0.0"],
    [1541116,"2026-02-09 13:30:00","52872","2.539","189.8","4.867","168.3","1006.73","13.81","58.97","NAN","0.0"],
    [1541117,"2026-02-09 13:40:00","52873","2.523","190.7","5.031000000000001","209.9","1006.6410000000001","14.5","55.42","NAN","0.0"],
    [1541118,"2026-02-09 13:50:00","52874","2.454","182.0","4.933","171.1","1006.4889999999999","14.54","56.69","NAN","0.0"],
    [1541119,"2026-02-09 14:00:00","52875","2.377","182.2","4.2139999999999995","174.5","1006.3639999999999","14.31","61.2","NAN","0.0"],
    [1541120,"2026-02-09 14:10:00","52876","1.867","193.7","3.7889999999999997","173.3","1006.317","14.69","57.58","NAN","0.0"],
    [1541121,"2026-02-09 14:20:00","52877","1.3090000000000002","208.3","3.6260000000000003","185.1","1006.387","15.08","54.8","NAN","0.0"],
    [1541122,"2026-02-09 14:30:00","52878","1.4409999999999998","226.7","3.985","231.4","1006.429","15.5","52.12","NAN","0.0"],
    [1541123,"2026-02-09 14:40:00","52879","1.6669999999999998","216.6","3.7889999999999997","251.1","1006.3839999999999","15.79","52.17","NAN","0.0"],
    [1541124,"2026-02-09 14:50:00","52880","1.262","226.8","3.1689999999999996","232.1","1006.5189999999999","16.46","49.83","NAN","0.0"],
    [1541125,"2026-02-09 15:00:00","52881","1.6569999999999998","291.6","4.083","337.8","1006.658","16.37","44.35","NAN","0.0"],
    [1541126,"2026-02-09 15:10:00","52882","1.44","277.6","5.749","311.2","1006.6060000000001","16.15","43.9","NAN","0.0"],
    [1541127,"2026-02-09 15:20:00","52883","1.59","276.7","4.965","242.0","1006.541","15.89","44.48","NAN","0.0"],
    [1541128,"2026-02-09 15:30:00","52884","1.839","273.7","4.279","281.2","1006.6160000000001","15.7","44.87","NAN","0.0"],
    [1541129,"2026-02-09 15:40:00","52885","1.6740000000000002","298.9","4.704","287.9","1006.7130000000001","15.62","45.41","NAN","0.0"],
    [1541130,"2026-02-09 15:50:00","52886","1.662","304.3","3.887","252.7","1006.88","15.6","45.76","NAN","0.0"],
    [1541131,"2026-02-09 16:00:00","52887","0.889","278.2","2.7439999999999998","226.0","1006.822","15.55","46.43","NAN","0.0"],
    [1541132,"2026-02-09 16:10:00","52888","1.507","318.1","4.279","309.7","1006.7660000000001","15.4","46.88","NAN","0.0"],
    [1541133,"2026-02-09 16:20:00","52889","0.914","325.1","2.875","308.5","1006.955","15.36","47.48","NAN","0.0"],
    [1541134,"2026-02-09 16:30:00","52890","0.875","322.8","2.352","329.3","1006.987","15.23","48.07","NAN","0.0"],
    [1541135,"2026-02-09 16:40:00","52891","1.275","290.8","2.907","296.0","1006.9789999999999","15.21","48.48","NAN","0.0"],
    [1541136,"2026-02-09 16:50:00","52892","1.35","272.0","3.495","300.0","1007.079","15.1","49.13","NAN","0.0"],
    [1541137,"2026-02-09 17:00:00","52893","1.145","263.5","2.548","295.1","1007.181","15.06","49.38","NAN","0.0"],
    [1541138,"2026-02-09 17:10:00","52894","1.395","263.4","3.463","296.4","1007.2289999999999","14.97","49.48","NAN","0.0"],
    [1541139,"2026-02-09 17:20:00","52895","1.2429999999999999","252.3","2.94","272.3","1007.2289999999999","14.89","49.92","NAN","0.0"],
    [1541140,"2026-02-09 17:30:00","52896","0.7829999999999999","241.7","2.548","283.5","1007.2660000000001","14.72","50.64","NAN","0.0"],
    [1541141,"2026-02-09 17:40:00","52897","1.272","292.2","3.593","266.8","1007.283","14.71","49.9","NAN","0.0"],
    [1541142,"2026-02-09 17:50:00","52898","1.2890000000000001","309.6","4.1160000000000005","328.3","1007.316","14.68","49.85","NAN","0.0"],
    [1541143,"2026-02-09 18:00:00","52899","1.031","289.8","3.822","279.5","1007.448","14.6","50.31","NAN","0.0"],
    [1541144,"2026-02-09 18:10:00","52900","0.992","299.3","3.267","322.3","1007.4830000000001","14.53","50.76","NAN","0.0"],
    [1541145,"2026-02-09 18:20:00","52901","0.725","270.5","2.679","236.0","1007.448","14.49","51.26","NAN","0.0"],
    [1541146,"2026-02-09 18:30:00","52902","0.7709999999999999","244.8","2.0580000000000003","224.0","1007.2260000000001","14.33","52.04","NAN","0.0"],
    [1541147,"2026-02-09 18:40:00","52903","0.613","206.8","1.568","199.6","1007.0210000000001","13.9","57.2","NAN","0.0"],
    [1541148,"2026-02-09 18:50:00","52904","1.08","212.9","1.9269999999999998","191.8","1006.887","13.56","59.23","NAN","0.0"],
    [1541149,"2026-02-09 19:00:00","52905","0.948","217.1","1.8619999999999999","203.4","1006.802","13.44","57.44","NAN","0.0"],
    [1541150,"2026-02-09 19:10:00","52906","1.058","210.7","2.352","224.0","1006.791","13.47","62.01","NAN","0.0"],
    [1541151,"2026-02-09 19:20:00","52907","1.249","234.8","2.9730000000000003","255.5","1007.03","13.32","66.74","NAN","0.0"],
    [1541152,"2026-02-09 19:30:00","52908","1.1420000000000001","233.7","2.613","226.1","1007.062","13.38","69.75","NAN","0.0"],
    [1541153,"2026-02-09 19:40:00","52909","1.03","228.2","2.156","265.3","1007.038","13.24","71.66","NAN","0.0"],
    [1541154,"2026-02-09 19:50:00","52910","1.382","237.3","2.875","234.6","1007.122","13.24","72.72","NAN","0.0"],
    [1541155,"2026-02-09 20:00:00","52911","0.856","230.6","2.123","265.6","1007.2439999999999","13.28","73.21","NAN","0.0"],
    [1541156,"2026-02-09 20:10:00","52912","0.996","239.0","2.221","273.4","1007.2919999999999","13.29","73.31","NAN","0.0"],
    [1541157,"2026-02-09 20:20:00","52913","1.591","238.0","3.267","227.9","1007.342","13.33","72.79","NAN","0.0"],
    [1541158,"2026-02-09 20:30:00","52914","1.515","239.9","3.0380000000000003","246.6","1007.321","13.42","70.94","NAN","0.0"],
    [1541159,"2026-02-09 20:40:00","52915","1.311","226.4","2.7110000000000003","230.7","1007.1560000000001","13.43","69.83","NAN","0.0"],
    [1541160,"2026-02-09 20:50:00","52916","1.143","228.6","2.515","235.6","1007.07","13.39","69.85","NAN","0.0"],
    [1541161,"2026-02-09 21:00:00","52917","1.1909999999999998","225.1","2.613","202.0","1006.93","13.33","70.81","NAN","0.0"],
    [1541162,"2026-02-09 21:10:00","52918","0.96","230.8","2.613","246.5","1006.865","13.23","71.51","NAN","0.0"],
    [1541163,"2026-02-09 21:20:00","52919","1.0390000000000001","236.4","3.103","238.5","1006.815","13.22","71","NAN","0.0"],
    [1541164,"2026-02-09 21:30:00","52920","1.195","223.3","2.613","250.5","1006.835","13.19","71.59","NAN","0.0"],
    [1541165,"2026-02-09 21:40:00","52921","1.258","217.3","2.287","206.6","1006.7489999999999","12.81","74.07","NAN","0.1"],
    [1541166,"2026-02-09 21:50:00","52922","1.204","221.2","2.679","234.9","1006.985","12.4","78.32","NAN","0.4"],
    [1541167,"2026-02-09 22:00:00","52923","1.042","211.4","2.123","220.5","1007.018","11.98","84.3","NAN","0.3"],
    [1541168,"2026-02-09 22:10:00","52924","1.003","217.0","2.0909999999999997","207.1","1006.803","11.74","86.8","NAN","0.2"],
    [1541169,"2026-02-09 22:20:00","52925","0.98","220.6","2.385","230.4","1006.689","11.63","87.3","NAN","0.1"],
    [1541170,"2026-02-09 22:30:00","52926","1.124","211.8","2.417","245.7","1006.4060000000001","11.5","86.7","NAN","0.0"],
    [1541171,"2026-02-09 22:40:00","52927","0.941","225.1","2.8089999999999997","256.7","1006.329","11.44","87","NAN","0.0"],
    [1541172,"2026-02-09 22:50:00","52928","1.261","239.3","2.385","270.4","1006.3330000000001","11.78","83.9","NAN","0.0"],
    [1541173,"2026-02-09 23:00:00","52929","1.236","241.3","2.907","241.1","1006.323","12.08","80.4","NAN","0.0"],
    [1541174,"2026-02-09 23:10:00","52930","1.38","238.7","2.679","254.8","1006.3760000000001","12.21","78.83","NAN","0.0"],
    [1541175,"2026-02-09 23:20:00","52931","1.374","233.2","2.8089999999999997","241.1","1006.435","12.1","80.5","NAN","0.0"],
    [1541176,"2026-02-09 23:30:00","52932","1.0190000000000001","228.8","2.548","239.5","1006.3760000000001","12.01","81.1","NAN","0.0"],
    [1541177,"2026-02-09 23:40:00","52933","0.894","215.8","2.123","236.0","1006.3330000000001","11.91","81.9","NAN","0.0"],
    [1541178,"2026-02-09 23:50:00","52934","0.5589999999999999","205.8","1.078","200.5","1006.258","11.83","82.8","NAN","0.0"],
    [1541179,"2026-02-10 00:00:00","52935","0.402","354.9","1.993","307.1","1006.076","11.89","82.3","NAN","0.2"],
    [1541180,"2026-02-10 00:10:00","52936","0.91","348.2","1.895","332.9","1006.0939999999999","12.24","79.92","NAN","0.1"],
    [1541181,"2026-02-10 00:20:00","52937","0.7859999999999999","354.2","1.666","347.9","1006.044","12.23","81.7","NAN","0.0"],
    [1541182,"2026-02-10 00:30:00","52938","0.799","354.3","2.45","298.0","1005.87","12.16","83.7","NAN","0.0"],
    [1541183,"2026-02-10 00:40:00","52939","0.614","308.8","1.568","294.3","1005.845","12.27","83.5","NAN","0.0"],
    [1541184,"2026-02-10 00:50:00","52940","0.196","267.0","1.013","296.7","1005.73","12.21","84.1","NAN","0.0"],
    [1541185,"2026-02-10 01:00:00","52941","0.688","253.8","2.613","284.1","1005.556","12.16","84.7","NAN","0.0"],
    [1541186,"2026-02-10 01:10:00","52942","1.194","244.0","3.6260000000000003","262.8","1005.4680000000001","12.29","83.7","NAN","0.0"],
    [1541187,"2026-02-10 01:20:00","52943","0.705","209.1","1.699","188.8","1005.372","12.19","84.4","NAN","0.0"],
    [1541188,"2026-02-10 01:30:00","52944","0.218","161.3","0.8170000000000001","166.0","1005.222","11.92","86.4","NAN","0.0"],
    [1541189,"2026-02-10 01:40:00","52945","0.07","123.3","0.49","123.6","1005.05","11.7","87.5","NAN","0.0"],
    [1541190,"2026-02-10 01:50:00","52946","0.061","143.1","0.425","141.1","1004.943","11.69","88.3","NAN","0.0"],
    [1541191,"2026-02-10 02:00:00","52947","0.21","217.1","0.915","234.5","1004.806","11.68","89","NAN","0.0"],
    [1541192,"2026-02-10 02:10:00","52948","0.59","229.7","1.143","230.7","1004.801","11.68","88.9","NAN","0.0"],
    [1541193,"2026-02-10 02:20:00","52949","0.452","237.6","1.3719999999999999","291.5","1004.7539999999999","11.94","87.5","NAN","0.0"],
    [1541194,"2026-02-10 02:30:00","52950","0.44799999999999995","254.1","1.4369999999999998","220.0","1004.462","11.88","87.4","NAN","0.0"],
    [1541195,"2026-02-10 02:40:00","52951","0.74","343.6","2.352","303.3","1004.585","12.15","85.1","NAN","0.0"],
    [1541196,"2026-02-10 02:50:00","52952","0.45299999999999996","14.85","1.111","34.85","1004.602","12.35","83.8","NAN","0.0"],
    [1541197,"2026-02-10 03:00:00","52953","0.005","22.1","0.22899999999999998","27.4","1004.442","12.16","85.2","NAN","0.0"],
    [1541198,"2026-02-10 03:10:00","52954","0.336","285.7","0.9470000000000001","301.0","1004.308","12.13","85.8","NAN","0.0"],
    [1541199,"2026-02-10 03:20:00","52955","0.9079999999999999","268.9","1.96","275.1","1004.387","12.35","84.1","NAN","0.0"],
    [1541200,"2026-02-10 03:30:00","52956","0.8140000000000001","279.9","1.96","257.9","1004.791","12.57","80.4","NAN","0.0"],
    [1541201,"2026-02-10 03:40:00","52957","0.7","270.5","2.123","257.8","1004.7739999999999","12.49","79.54","NAN","0.0"],
    [1541202,"2026-02-10 03:50:00","52958","0.271","252.6","1.5030000000000001","257.3","1004.5310000000001","12.19","81.3","NAN","0.0"],
    [1541203,"2026-02-10 04:00:00","52959","0.38299999999999995","232.7","1.045","274.7","1004.62","11.77","84.7","NAN","0.0"],
    [1541204,"2026-02-10 04:10:00","52960","0.616","218.0","1.405","258.2","1004.804","11.88","84.4","NAN","0.0"],
    [1541205,"2026-02-10 04:20:00","52961","0.5710000000000001","186.6","1.176","164.6","1004.7760000000001","11.57","85.3","NAN","0.0"],
    [1541206,"2026-02-10 04:30:00","52962","0.667","216.7","1.535","211.9","1004.7810000000001","11.57","85.3","NAN","0.0"],
    [1541207,"2026-02-10 04:40:00","52963","1.2830000000000001","10.38","3.463","40.39","1004.7639999999999","12.06","80.8","NAN","0.0"],
    [1541208,"2026-02-10 04:50:00","52964","1.359","303.4","3.365","241.5","1004.664","12.7","75.36","NAN","0.0"],
    [1541209,"2026-02-10 05:00:00","52965","1.229","275.1","3.1689999999999996","240.0","1004.86","12.71","75.16","NAN","0.0"],
    [1541210,"2026-02-10 05:10:00","52966","1.052","285.4","2.7110000000000003","290.8","1004.926","12.56","75.73","NAN","0.0"],
    [1541211,"2026-02-10 05:20:00","52967","1.339","274.0","3.299","277.6","1004.8760000000001","12.59","75.49","NAN","0.0"],
    [1541212,"2026-02-10 05:30:00","52968","1.527","264.1","3.136","260.9","1004.988","12.52","76.02","NAN","0.0"],
    [1541213,"2026-02-10 05:40:00","52969","1.1340000000000001","268.0","3.6260000000000003","295.4","1005.081","12.52","76.03","NAN","0.0"],
    [1541214,"2026-02-10 05:50:00","52970","0.797","296.4","2.385","323.3","1005.312","12.65","75.08","NAN","0.0"],
    [1541215,"2026-02-10 06:00:00","52971","0.7929999999999999","261.7","2.613","245.0","1005.307","12.84","73.98","NAN","0.0"],
    [1541216,"2026-02-10 06:10:00","52972","0.9890000000000001","262.0","2.875","354.3","1005.334","12.92","73.43","NAN","0.0"],
    [1541217,"2026-02-10 06:20:00","52973","0.506","258.6","1.535","272.1","1005.577","12.62","76.94","NAN","0.0"],
    [1541218,"2026-02-10 06:30:00","52974","0.243","240.7","0.8170000000000001","214.9","1005.757","12.36","78.49","NAN","0.0"],
    [1541219,"2026-02-10 06:40:00","52975","0.147","222.3","0.555","203.9","1005.795","12.09","80.7","NAN","0.0"],
    [1541220,"2026-02-10 06:50:00","52976","0.131","174.8","0.7509999999999999","131.1","1005.596","12","82.1","NAN","0.0"],
    [1541221,"2026-02-10 07:00:00","52977","0.634","239.0","1.47","237.7","1005.472","12.17","81.1","NAN","0.0"],
    [1541222,"2026-02-10 07:10:00","52978","0.898","236.3","2.287","240.6","1005.752","12.25","80.4","NAN","0.0"],
    [1541223,"2026-02-10 07:20:00","52979","0.898","250.0","1.8619999999999999","247.0","1005.956","12.62","77.71","NAN","0.0"],
    [1541224,"2026-02-10 07:30:00","52980","1.073","244.2","2.7769999999999997","301.5","1006.225","12.72","77.35","NAN","0.0"],
    [1541225,"2026-02-10 07:40:00","52981","1.0290000000000001","244.0","3.0380000000000003","240.6","1006.248","12.81","77.54","NAN","0.0"],
    [1541226,"2026-02-10 07:50:00","52982","0.82","208.5","2.45","231.5","1006.2489999999999","12.85","80","NAN","0.0"],
    [1541227,"2026-02-10 08:00:00","52983","0.665","224.6","1.9269999999999998","247.5","1006.24","12.77","82.1","NAN","0.0"],
    [1541228,"2026-02-10 08:10:00","52984","0.935","221.8","2.189","229.1","1006.0419999999999","12.94","80.3","NAN","0.0"],
    [1541229,"2026-02-10 08:20:00","52985","1.188","218.7","2.94","226.0","1005.9839999999999","13.13","79.45","NAN","0.0"],
    [1541230,"2026-02-10 08:30:00","52986","0.9440000000000001","228.3","2.025","240.8","1005.9830000000001","13.37","78.92","NAN","0.0"],
    [1541231,"2026-02-10 08:40:00","52987","0.449","239.2","1.829","259.5","1006.133","13.88","77.35","NAN","0.0"],
    [1541232,"2026-02-10 08:50:00","52988","0.872","242.0","2.189","243.5","1006.198","13.96","77.1","NAN","0.0"],
    [1541233,"2026-02-10 09:00:00","52989","0.691","235.4","2.0580000000000003","227.4","1006.2769999999999","14.16","76.41","NAN","0.0"],
    [1541234,"2026-02-10 09:10:00","52990","0.8440000000000001","226.8","1.633","246.0","1006.21","14.88","71.92","NAN","0.0"],
    [1541235,"2026-02-10 09:20:00","52991","1.3090000000000002","237.8","2.7769999999999997","234.0","1006.197","15.1","69.47","NAN","0.0"],
    [1541236,"2026-02-10 09:30:00","52992","0.8390000000000001","220.8","2.385","227.6","1006.205","14.97","70.62","NAN","0.0"],
    [1541237,"2026-02-10 09:40:00","52993","0.677","222.5","1.633","264.2","1006.23","15.19","69.68","NAN","0.0"],
    [1541238,"2026-02-10 09:50:00","52994","0.493","192.4","1.339","192.5","1006.0880000000001","15.77","67.01","NAN","0.0"],
    [1541239,"2026-02-10 10:00:00","52995","0.667","255.9","1.8619999999999999","239.1","1006.112","16.25","65.21","NAN","0.0"],
    [1541240,"2026-02-10 10:10:00","52996","0.9620000000000001","226.4","2.156","205.1","1006.145","16.58","64.1","NAN","0.0"],
    [1541241,"2026-02-10 10:20:00","52997","1.2329999999999999","144.7","2.45","111.9","1005.789","16.3","65.94","NAN","0.0"],
    [1541242,"2026-02-10 10:30:00","52998","0.9890000000000001","146.5","1.797","137.5","1005.584","15.57","72.59","NAN","0.0"],
    [1541243,"2026-02-10 10:40:00","52999","1.073","182.7","1.764","189.1","1005.6519999999999","15.79","68.41","NAN","0.0"],
    [1541244,"2026-02-10 10:50:00","53000","1.042","182.1","1.797","177.7","1005.581","16.01","66.96","NAN","0.0"],
    [1541245,"2026-02-10 11:00:00","53001","1.014","188.8","1.764","187.1","1005.6510000000001","15.52","71.82","NAN","0.0"],
    [1541246,"2026-02-10 11:10:00","53002","1.196","173.2","2.7110000000000003","177.9","1005.57","15.04","73.06","NAN","0.0"],
    [1541247,"2026-02-10 11:20:00","53003","1.921","174.8","3.365","160.8","1005.559","14.72","76.26","NAN","0.0"],
    [1541248,"2026-02-10 11:30:00","53004","1.527","168.5","2.7439999999999998","157.6","1005.6460000000001","14.32","80.8","NAN","0.0"],
    [1541249,"2026-02-10 11:40:00","53005","0.88","161.2","1.9269999999999998","167.5","1005.5110000000001","14.44","81.4","NAN","0.0"],
    [1541250,"2026-02-10 11:50:00","53006","1.48","165.1","2.875","151.6","1005.4019999999999","14.87","79.05","NAN","0.0"],
    [1541251,"2026-02-10 12:00:00","53007","1.554","163.3","2.254","202.3","1005.383","15.51","75.98","NAN","0.0"],
    [1541252,"2026-02-10 12:10:00","53008","0.927","162.5","1.9269999999999998","159.4","1005.33","16.27","73.58","NAN","0.0"],
    [1541253,"2026-02-10 12:20:00","53009","1.4280000000000002","189.1","2.6460000000000004","200.0","1005.2189999999999","16.97","70.92","NAN","0.0"],
    [1541254,"2026-02-10 12:30:00","53010","1.403","205.0","2.483","202.7","1005.064","17.5","68.96","NAN","0.0"],
    [1541255,"2026-02-10 12:40:00","53011","1.784","223.0","3.855","222.5","1004.7330000000001","18.14","65.44","NAN","0.0"],
    [1541256,"2026-02-10 12:50:00","53012","1.6159999999999999","209.9","3.463","195.2","1004.64","18.29","65.34","NAN","0.0"],
    [1541257,"2026-02-10 13:00:00","53013","1.337","204.9","3.0380000000000003","209.3","1004.6310000000001","17.74","67.97","NAN","0.0"],
    [1541258,"2026-02-10 13:10:00","53014","1.093","230.2","2.7110000000000003","245.7","1004.4","18.37","65.1","NAN","0.0"],
    [1541259,"2026-02-10 13:20:00","53015","1.225","223.7","2.613","229.6","1004.317","18.72","63.53","NAN","0.0"],
    [1541260,"2026-02-10 13:30:00","53016","1.412","211.6","3.005","205.3","1003.9760000000001","18.54","64.6","NAN","0.0"],
    [1541261,"2026-02-10 13:40:00","53017","1.726","218.9","3.7889999999999997","223.9","1003.84","18.65","64.39","NAN","0.0"],
    [1541262,"2026-02-10 13:50:00","53018","1.821","233.9","4.1160000000000005","226.6","1003.841","18.96","63.73","NAN","0.0"],
    [1541263,"2026-02-10 14:00:00","53019","1.3159999999999998","228.5","3.005","245.3","1003.727","19.06","63.58","NAN","0.0"],
    [1541264,"2026-02-10 14:10:00","53020","1.42","204.7","3.528","197.5","1003.602","18.48","66.12","NAN","0.0"],
    [1541265,"2026-02-10 14:20:00","53021","1.287","201.6","2.515","208.4","1003.554","17.2","72.38","NAN","0.0"],
    [1541266,"2026-02-10 14:30:00","53022","0.938","204.4","1.96","198.6","1003.3689999999999","17.01","74.05","NAN","0.0"],
    [1541267,"2026-02-10 14:40:00","53023","1.228","208.8","2.842","257.6","1003.3580000000001","17.65","70.61","NAN","0.0"],
    [1541268,"2026-02-10 14:50:00","53024","1.798","208.2","3.7889999999999997","173.4","1003.14","19.06","61.73","NAN","0.0"],
    [1541269,"2026-02-10 15:00:00","53025","1.5930000000000002","192.6","3.6260000000000003","190.3","1003.14","16.78","73.45","NAN","0.0"],
    [1541270,"2026-02-10 15:10:00","53026","1.147","203.3","2.548","179.5","1003.0930000000001","16.47","75.91","NAN","0.0"],
    [1541271,"2026-02-10 15:20:00","53027","0.59","199.1","2.025","191.6","1002.903","16.52","75.74","NAN","0.0"],
    [1541272,"2026-02-10 15:30:00","53028","0.527","203.1","1.829","166.0","1002.5930000000001","16.96","74.03","NAN","0.0"],
    [1541273,"2026-02-10 15:40:00","53029","0.191","335.5","0.784","326.4","1002.363","17.62","70.54","NAN","0.0"],
    [1541274,"2026-02-10 15:50:00","53030","0.223","231.7","0.8490000000000001","243.9","1002.284","18.62","66.57","NAN","0.0"],
    [1541275,"2026-02-10 16:00:00","53031","1.122","252.1","2.613","242.0","1002.3660000000001","19.69","60.31","NAN","0.0"],
    [1541276,"2026-02-10 16:10:00","53032","1.253","236.7","3.071","233.5","1002.278","20.22","57.59","NAN","0.0"],
    [1541277,"2026-02-10 16:20:00","53033","1.632","240.3","4.083","232.9","1002.432","20.28","57.14","NAN","0.0"],
    [1541278,"2026-02-10 16:30:00","53034","2.096","236.4","4.1160000000000005","245.6","1002.431","20.19","57.37","NAN","0.0"],
    [1541279,"2026-02-10 16:40:00","53035","1.23","238.6","3.136","245.8","1002.6260000000001","20.07","57.81","NAN","0.0"],
    [1541280,"2026-02-10 16:50:00","53036","1.113","223.3","2.548","238.0","1002.518","19.9","58.71","NAN","0.0"],
    [1541281,"2026-02-10 17:00:00","53037","1.187","218.8","3.0380000000000003","248.1","1002.2660000000001","19.5","59.7","NAN","0.0"],
    [1541282,"2026-02-10 17:10:00","53038","1.109","239.6","3.1689999999999996","238.4","1002.245","19.32","60.28","NAN","0.0"],
    [1541283,"2026-02-10 17:20:00","53039","0.775","243.4","2.875","264.4","1002.32","19.07","61.26","NAN","0.0"],
    [1541284,"2026-02-10 17:30:00","53040","0.725","221.3","1.797","238.2","1002.296","18.76","62.68","NAN","0.0"],
    [1541285,"2026-02-10 17:40:00","53041","0.574","242.8","1.209","281.5","1002.2460000000001","18.31","64.79","NAN","0.0"],
    [1541286,"2026-02-10 17:50:00","53042","0.653","255.2","1.633","292.1","1002.247","18.36","64.82","NAN","0.0"],
    [1541287,"2026-02-10 18:00:00","53043","0.6579999999999999","261.3","1.47","278.2","1002.3610000000001","18.15","65.7","NAN","0.0"],
    [1541288,"2026-02-10 18:10:00","53044","0.51","251.1","1.7309999999999999","259.1","1002.316","17.98","66.51","NAN","0.0"],
    [1541289,"2026-02-10 18:20:00","53045","0.331","278.0","1.209","312.4","1002.2489999999999","17.93","66.73","NAN","0.0"],
    [1541290,"2026-02-10 18:30:00","53046","0.111","181.7","0.784","196.9","1002.237","17.66","67.83","NAN","0.0"],
    [1541291,"2026-02-10 18:40:00","53047","0.43799999999999994","196.0","0.8490000000000001","186.1","1002.207","17.18","69.99","NAN","0.0"],
    [1541292,"2026-02-10 18:50:00","53048","0.42200000000000004","230.6","0.7509999999999999","223.4","1002.0419999999999","17.03","71.38","NAN","0.0"],
    [1541293,"2026-02-10 19:00:00","53049","0.22","275.3","0.915","310.3","1001.9580000000001","17.36","70.24","NAN","0.0"],
    [1541294,"2026-02-10 19:10:00","53050","0.436","279.8","0.9470000000000001","306.8","1002.033","17.26","70.81","NAN","0.0"],
    [1541295,"2026-02-10 19:20:00","53051","0.376","258.3","0.98","241.8","1002.2389999999999","17.51","69.78","NAN","0.0"],
    [1541296,"2026-02-10 19:30:00","53052","0.5660000000000001","255.5","1.699","258.9","1002.3539999999999","17.6","69.02","NAN","0.0"],
    [1541297,"2026-02-10 19:40:00","53053","0.684","205.8","1.568","233.4","1002.2810000000001","17.07","71.12","NAN","0.0"],
    [1541298,"2026-02-10 19:50:00","53054","0.294","224.3","1.013","248.2","1002.2489999999999","16.61","73.88","NAN","0.0"],
    [1541299,"2026-02-10 20:00:00","53055","0.409","7.254","1.143","10.48","1002.247","16.72","73.32","NAN","0.0"],
    [1541300,"2026-02-10 20:10:00","53056","0.852","286.4","2.254","288.9","1002.2489999999999","17.03","71.79","NAN","0.0"],
    [1541301,"2026-02-10 20:20:00","53057","1.389","281.7","2.319","295.5","1002.2339999999999","17.11","71.57","NAN","0.0"],
    [1541302,"2026-02-10 20:30:00","53058","1.7519999999999998","283.9","3.234","291.5","1002.052","17.01","72.14","NAN","0.0"],
    [1541303,"2026-02-10 20:40:00","53059","0.895","270.9","2.0580000000000003","278.4","1002.008","16.98","72.2","NAN","0.0"],
    [1541304,"2026-02-10 20:50:00","53060","1.256","297.3","2.352","299.6","1001.985","17.13","71.35","NAN","0.0"],
    [1541305,"2026-02-10 21:00:00","53061","1.151","315.4","2.0580000000000003","314.6","1001.918","17.2","70.8","NAN","0.0"],
    [1541306,"2026-02-10 21:10:00","53062","0.9470000000000001","37.73","1.895","71.15","1001.9780000000001","17.06","71.39","NAN","0.0"],
    [1541307,"2026-02-10 21:20:00","53063","1.1840000000000002","26.47","2.0909999999999997","23.8","1002.09","16.5","74.39","NAN","0.0"],
    [1541308,"2026-02-10 21:30:00","53064","0.539","347.0","1.339","26.45","1002.257","16.58","73.92","NAN","0.0"],
    [1541309,"2026-02-10 21:40:00","53065","0.778","315.8","1.601","331.0","1002.262","16.82","72.69","NAN","0.0"],
    [1541310,"2026-02-10 21:50:00","53066","0.785","281.4","1.993","297.3","1002.3539999999999","17.04","71.56","NAN","0.0"],
    [1541311,"2026-02-10 22:00:00","53067","0.975","258.9","2.45","240.2","1002.1139999999999","16.94","72.06","NAN","0.0"],
    [1541312,"2026-02-10 22:10:00","53068","1.215","279.0","2.254","244.3","1001.7560000000001","16.81","72.79","NAN","0.0"],
    [1541313,"2026-02-10 22:20:00","53069","0.63","236.1","1.405","221.8","1001.7489999999999","16.54","73.74","NAN","0.0"],
    [1541314,"2026-02-10 22:30:00","53070","1.133","282.6","3.659","264.0","1001.819","16.45","74.46","NAN","0.0"],
    [1541315,"2026-02-10 22:40:00","53071","1.561","290.0","2.548","299.2","1001.7760000000001","16.69","73.27","NAN","0.0"],
    [1541316,"2026-02-10 22:50:00","53072","1.3980000000000001","285.5","2.8089999999999997","296.1","1001.345","16.65","73.44","NAN","0.0"],
    [1541317,"2026-02-10 23:00:00","53073","1.078","309.1","2.8089999999999997","283.4","1001.378","16.66","73.17","NAN","0.0"],
    [1541318,"2026-02-10 23:10:00","53074","0.767","300.2","2.679","286.4","1001.46","17.05","70.7","NAN","0.0"],
    [1541319,"2026-02-10 23:20:00","53075","0.687","211.8","1.764","172.5","1001.6519999999999","16.55","72.82","NAN","0.0"],
    [1541320,"2026-02-10 23:30:00","53076","0.6659999999999999","252.5","2.254","296.7","1001.711","16.5","72.66","NAN","0.0"],
    [1541321,"2026-02-10 23:40:00","53077","0.777","212.7","3.5610000000000004","193.8","1001.709","16.9","69.64","NAN","0.0"],
    [1541322,"2026-02-10 23:50:00","53078","1.031","205.0","2.287","195.6","1001.457","17.58","65.1","NAN","0.0"],
    [1541323,"2026-02-11 00:00:00","53079","0.7559999999999999","252.0","2.123","298.9","1001.6419999999999","17.62","64.59","NAN","0.0"],
    [1541324,"2026-02-11 00:10:00","53080","1.464","268.7","7.4479999999999995","295.6","1001.7510000000001","18.24","60.95","NAN","0.0"],
    [1541325,"2026-02-11 00:20:00","53081","1.693","257.1","4.737","280.8","1001.439","19.33","54.91","NAN","0.0"],
    [1541326,"2026-02-11 00:30:00","53082","1.756","284.4","6.239","294.1","1001.171","20.19","50.95","NAN","0.0"],
    [1541327,"2026-02-11 00:40:00","53083","1.8969999999999998","267.8","6.109","288.0","1001.1189999999999","20.3","50.18","NAN","0.0"],
    [1541328,"2026-02-11 00:50:00","53084","2.728","284.3","8.69","306.1","1001.4780000000001","20.22","50.33","NAN","0.0"],
    [1541329,"2026-02-11 01:00:00","53085","2.6630000000000003","280.0","8.95","267.4","1001.654","20.35","49.75","NAN","0.0"],
    [1541330,"2026-02-11 01:10:00","53086","1.76","290.0","6.272","252.7","1001.659","20.11","50.22","NAN","0.0"],
    [1541331,"2026-02-11 01:20:00","53087","2.188","289.3","8.46","308.8","1001.887","19.9","50.06","NAN","0.0"],
    [1541332,"2026-02-11 01:30:00","53088","2.0709999999999997","306.4","7.056","301.0","1002.197","19.88","49.3","NAN","0.0"],
    [1541333,"2026-02-11 01:40:00","53089","2.164","292.8","5.88","292.2","1002.257","19.8","49.45","NAN","0.0"],
    [1541334,"2026-02-11 01:50:00","53090","2.8160000000000003","274.3","9.05","311.0","1002.1389999999999","19.64","50","NAN","0.0"],
    [1541335,"2026-02-11 02:00:00","53091","2.762","279.7","7.775","263.9","1001.945","19.68","49.12","NAN","0.0"],
    [1541336,"2026-02-11 02:10:00","53092","3.075","284.4","7.382999999999999","293.5","1002.0930000000001","19.66","48.72","NAN","0.0"],
    [1541337,"2026-02-11 02:20:00","53093","3.6889999999999996","278.2","10.06","271.8","1002.27","19.65","48.22","NAN","0.0"],
    [1541338,"2026-02-11 02:30:00","53094","4.084","295.7","11.63","289.5","1002.279","19.7","46.84","NAN","0.0"],
    [1541339,"2026-02-11 02:40:00","53095","3.514","308.9","11.47","320.5","1002.2539999999999","19.7","45.06","NAN","0.0"],
    [1541340,"2026-02-11 02:50:00","53096","3.679","312.6","11.53","309.4","1002.324","19.53","44.98","NAN","0.0"],
    [1541341,"2026-02-11 03:00:00","53097","3.457","321.6","9.67","316.6","1002.436","19.37","44.83","NAN","0.0"],
    [1541342,"2026-02-11 03:10:00","53098","4.606","319.7","13.65","287.4","1002.3939999999999","19.31","44.26","NAN","0.0"],
    [1541343,"2026-02-11 03:20:00","53099","4.709","322.3","13.65","316.7","1002.334","19.28","44.28","NAN","0.0"],
    [1541344,"2026-02-11 03:30:00","53100","3.888","323.5","9.93","332.3","1002.3560000000001","19.11","44.79","NAN","0.0"],
    [1541345,"2026-02-11 03:40:00","53101","5.132000000000001","321.8","14.67","326.8","1002.2589999999999","19.15","43.5","NAN","0.0"],
    [1541346,"2026-02-11 03:50:00","53102","4.745","323.8","11.99","338.7","1002.2489999999999","19.17","41.86","NAN","0.0"],
    [1541347,"2026-02-11 04:00:00","53103","4.376","325.8","12.54","311.7","1002.304","19.12","41.03","NAN","0.0"],
    [1541348,"2026-02-11 04:10:00","53104","4.493","322.7","11.99","279.4","1002.2869999999999","19.12","40.47","NAN","0.0"],
    [1541349,"2026-02-11 04:20:00","53105","4.7410000000000005","320.7","13.62","330.5","1002.419","18.98","41.03","NAN","0.0"],
    [1541350,"2026-02-11 04:30:00","53106","4.488","319.5","12.9","305.9","1002.555","18.95","41.15","NAN","0.0"],
    [1541351,"2026-02-11 04:40:00","53107","4.914","326.7","11.66","327.4","1002.578","18.88","40.55","NAN","0.0"],
    [1541352,"2026-02-11 04:50:00","53108","4.638999999999999","321.9","11.53","341.0","1002.573","18.89","39.92","NAN","0.0"],
    [1541353,"2026-02-11 05:00:00","53109","4.561","324.9","11.79","299.3","1002.653","18.79","40.15","NAN","0.0"],
    [1541354,"2026-02-11 05:10:00","53110","4.6339999999999995","329.5","11.86","335.0","1002.7","18.73","40.26","NAN","0.0"],
    [1541355,"2026-02-11 05:20:00","53111","4.001","332.6","8.04","323.7","1002.852","18.63","40.6","NAN","0.0"],
    [1541356,"2026-02-11 05:30:00","53112","4.1","333.4","13.52","320.3","1002.862","18.58","40.4","NAN","0.0"],
    [1541357,"2026-02-11 05:40:00","53113","5.0569999999999995","331.2","12.84","318.2","1002.745","18.63","39.76","NAN","0.0"],
    [1541358,"2026-02-11 05:50:00","53114","5.0569999999999995","330.5","13.43","296.6","1002.685","18.63","39.2","NAN","0.0"],
    [1541359,"2026-02-11 06:00:00","53115","4.808","324.2","13.0","263.1","1002.877","18.68","38.73","NAN","0.0"],
    [1541360,"2026-02-11 06:10:00","53116","3.123","316.4","8.98","243.0","1003.2689999999999","18.47","39.23","NAN","0.0"],
    [1541361,"2026-02-11 06:20:00","53117","2.67","287.6","8.72","269.3","1003.686","18.41","39.32","NAN","0.0"],
    [1541362,"2026-02-11 06:30:00","53118","2.8539999999999996","285.4","6.1739999999999995","346.7","1003.936","18.42","39.04","NAN","0.0"],
    [1541363,"2026-02-11 06:40:00","53119","2.485","274.9","6.664","269.1","1004.2230000000001","18.31","39.42","NAN","0.0"],
    [1541364,"2026-02-11 06:50:00","53120","2.805","261.8","7.218999999999999","270.0","1004.6039999999999","18.3","39.47","NAN","0.0"],
    [1541365,"2026-02-11 07:00:00","53121","2.96","258.2","6.566","327.6","1005.0260000000001","18.27","39.67","NAN","0.0"],
    [1541366,"2026-02-11 07:10:00","53122","2.427","276.3","7.579","260.8","1005.029","18.25","39.79","NAN","0.0"],
    [1541367,"2026-02-11 07:20:00","53123","1.7530000000000001","283.7","5.521","320.9","1005.1560000000001","18.29","39.67","NAN","0.0"],
    [1541368,"2026-02-11 07:30:00","53124","1.864","270.9","8.23","288.0","1005.1189999999999","18.24","39.85","NAN","0.0"],
    [1541369,"2026-02-11 07:40:00","53125","2.625","266.6","6.435","242.0","1005.383","18.29","39.85","NAN","0.0"],
    [1541370,"2026-02-11 07:50:00","53126","2.366","260.3","5.2589999999999995","269.3","1005.467","18.3","40.03","NAN","0.0"],
    [1541371,"2026-02-11 08:00:00","53127","2.062","248.4","4.573","245.2","1005.56","18.22","40.59","NAN","0.0"],
    [1541372,"2026-02-11 08:10:00","53128","2.653","257.9","6.827000000000001","294.3","1005.5239999999999","18.14","40.91","NAN","0.0"],
    [1541373,"2026-02-11 08:20:00","53129","2.705","288.1","10.09","283.4","1005.303","18.25","40.71","NAN","0.0"],
    [1541374,"2026-02-11 08:30:00","53130","3.194","284.7","10.36","294.4","1005.291","18.3","40.52","NAN","0.0"],
    [1541375,"2026-02-11 08:40:00","53131","3.049","282.2","8.98","299.5","1005.495","18.36","40.52","NAN","0.0"],
    [1541376,"2026-02-11 08:50:00","53132","2.681","285.5","7.285","255.0","1005.789","18.41","40.7","NAN","0.0"],
    [1541377,"2026-02-11 09:00:00","53133","2.609","274.6","8.72","256.5","1006.0880000000001","18.51","40.49","NAN","0.0"],
    [1541378,"2026-02-11 09:10:00","53134","2.305","275.3","8.26","273.4","1006.377","18.57","40.47","NAN","0.0"],
    [1541379,"2026-02-11 09:20:00","53135","2.2680000000000002","268.4","5.521","292.5","1006.451","18.65","40.43","NAN","0.0"],
    [1541380,"2026-02-11 09:30:00","53136","1.36","262.6","3.332","282.8","1006.658","18.75","40.45","NAN","0.0"],
    [1541381,"2026-02-11 09:40:00","53137","1.5759999999999998","236.4","5.847","249.1","1007.064","19.07","39.85","NAN","0.0"],
    [1541382,"2026-02-11 09:50:00","53138","2.4090000000000003","259.4","6.893","303.8","1007.0889999999999","19.27","39.39","NAN","0.0"],
    [1541383,"2026-02-11 10:00:00","53139","1.903","263.9","5.586","281.1","1006.773","19.55","39.04","NAN","0.0"],
    [1541384,"2026-02-11 10:10:00","53140","2.249","281.5","5.521","288.5","1006.722","19.83","38.64","NAN","0.0"],
    [1541385,"2026-02-11 10:20:00","53141","2.504","285.4","6.925","282.5","1006.6160000000001","20.01","38.34","NAN","0.0"],
    [1541386,"2026-02-11 10:30:00","53142","2.4290000000000003","289.0","8.13","267.6","1006.5110000000001","20.05","38.48","NAN","0.0"],
    [1541387,"2026-02-11 10:40:00","53143","2.886","281.4","10.85","264.7","1006.409","20.4","37.79","NAN","0.0"],
    [1541388,"2026-02-11 10:50:00","53144","2.722","272.7","7.187","287.0","1006.345","20.67","36.88","NAN","0.0"],
    [1541389,"2026-02-11 11:00:00","53145","3.187","268.6","10.65","263.9","1006.222","20.79","36.26","NAN","0.0"],
    [1541390,"2026-02-11 11:10:00","53146","2.401","281.3","6.86","249.0","1006.115","21.07","35.86","NAN","0.0"],
    [1541391,"2026-02-11 11:20:00","53147","2.322","289.5","7.872999999999999","310.8","1006.007","21.22","35.68","NAN","0.0"],
    [1541392,"2026-02-11 11:30:00","53148","2.8760000000000003","271.0","7.644","289.4","1005.7919999999999","21.23","35.1","NAN","0.0"],
    [1541393,"2026-02-11 11:40:00","53149","2.004","266.5","5.227","286.9","1005.779","21.29","35.15","NAN","0.0"],
    [1541394,"2026-02-11 11:50:00","53150","2.387","264.3","6.86","259.6","1005.7389999999999","21.59","34.38","NAN","0.0"],
    [1541395,"2026-02-11 12:00:00","53151","1.889","276.4","5.619","318.3","1005.686","21.69","34.19","NAN","0.0"],
    [1541396,"2026-02-11 12:10:00","53152","2.204","272.7","5.357","269.5","1005.72","21.72","34.2","NAN","0.0"],
    [1541397,"2026-02-11 12:20:00","53153","1.9580000000000002","262.3","4.704","262.9","1005.555","21.74","34.24","NAN","0.0"],
    [1541398,"2026-02-11 12:30:00","53154","2.577","278.8","6.957999999999999","327.2","1005.27","21.64","34.77","NAN","0.0"],
    [1541399,"2026-02-11 12:40:00","53155","2.926","274.1","7.546","267.3","1005.096","21.24","35.49","NAN","0.0"],
    [1541400,"2026-02-11 12:50:00","53156","2.815","308.8","8.23","272.6","1004.8960000000001","21.2","35.44","NAN","0.0"],
    [1541401,"2026-02-11 13:00:00","53157","2.051","305.6","5.586","298.8","1004.551","21.54","35.33","NAN","0.0"],
    [1541402,"2026-02-11 13:10:00","53158","3.0589999999999997","288.4","10.78","327.6","1004.295","21.55","35.4","NAN","0.0"],
    [1541403,"2026-02-11 13:20:00","53159","2.4619999999999997","276.2","7.35","304.6","1004.1210000000001","21.75","35.44","NAN","0.0"],
    [1541404,"2026-02-11 13:30:00","53160","2.605","320.2","7.4479999999999995","347.8","1004.04","21.52","35.87","NAN","0.0"],
    [1541405,"2026-02-11 13:40:00","53161","2.457","319.6","7.775","316.9","1003.768","20.91","37.48","NAN","0.0"],
    [1541406,"2026-02-11 13:50:00","53162","1.778","291.0","5.1610000000000005","283.7","1003.9110000000001","20.91","37.62","NAN","0.0"],
    [1541407,"2026-02-11 14:00:00","53163","2.013","272.6","6.729","278.8","1003.9069999999999","21.01","37.43","NAN","0.0"],
    [1541408,"2026-02-11 14:10:00","53164","2.274","269.4","5.422999999999999","247.3","1003.7660000000001","21","36.98","NAN","0.0"],
    [1541409,"2026-02-11 14:20:00","53165","2.521","272.1","6.272","296.0","1003.444","20.92","37.35","NAN","0.0"],
    [1541410,"2026-02-11 14:30:00","53166","1.496","289.3","6.042999999999999","287.2","1003.429","21.05","37.44","NAN","0.0"],
    [1541411,"2026-02-11 14:40:00","53167","2.23","284.9","6.207000000000001","282.7","1003.591","21.1","37.33","NAN","0.0"],
    [1541412,"2026-02-11 14:50:00","53168","1.8840000000000001","298.9","5.292000000000001","292.1","1003.4830000000001","21.19","37.34","NAN","0.0"],
    [1541413,"2026-02-11 15:00:00","53169","1.9180000000000001","300.0","5.912999999999999","317.6","1003.342","20.99","38.21","NAN","0.0"],
    [1541414,"2026-02-11 15:10:00","53170","1.696","326.3","5.422999999999999","266.8","1003.21","20.95","38.89","NAN","0.0"],
    [1541415,"2026-02-11 15:20:00","53171","1.5819999999999999","300.9","5.619","311.1","1003.125","20.9","39.4","NAN","0.0"],
    [1541416,"2026-02-11 15:30:00","53172","1.699","312.2","4.933","340.8","1002.8389999999999","20.87","39.7","NAN","0.0"],
    [1541417,"2026-02-11 15:40:00","53173","1.52","288.9","4.933","323.7","1003.048","20.85","40.15","NAN","0.0"],
    [1541418,"2026-02-11 15:50:00","53174","2.1319999999999997","270.9","4.933","254.2","1003.068","20.76","40.76","NAN","0.0"],
    [1541419,"2026-02-11 16:00:00","53175","2.191","267.3","5.88","241.0","1003.117","20.58","41.86","NAN","0.0"],
    [1541420,"2026-02-11 16:10:00","53176","2.323","272.9","6.925","295.8","1002.705","20.31","43.13","NAN","0.0"],
    [1541421,"2026-02-11 16:20:00","53177","2.367","263.5","5.651","248.9","1002.414","20.19","43.73","NAN","0.0"],
    [1541422,"2026-02-11 16:30:00","53178","2.832","266.9","7.579","323.0","1002.2639999999999","20.05","44.34","NAN","0.0"],
    [1541423,"2026-02-11 16:40:00","53179","2.37","266.1","5.978","264.6","1002.035","19.88","45.21","NAN","0.0"],
    [1541424,"2026-02-11 16:50:00","53180","2.322","274.1","6.599","292.3","1001.8810000000001","19.73","45.94","NAN","0.0"],
    [1541425,"2026-02-11 17:00:00","53181","2.761","266.7","7.0889999999999995","283.7","1001.868","19.58","46.53","NAN","0.0"],
    [1541426,"2026-02-11 17:10:00","53182","2.488","274.5","7.709","286.6","1001.6039999999999","19.41","47.21","NAN","0.0"],
    [1541427,"2026-02-11 17:20:00","53183","2.511","272.6","6.239","261.8","1001.398","19.21","48.1","NAN","0.0"],
    [1541428,"2026-02-11 17:30:00","53184","2.7460000000000004","284.4","6.501","273.4","1001.422","19.03","49.21","NAN","0.0"],
    [1541429,"2026-02-11 17:40:00","53185","2.536","278.5","7.6770000000000005","299.1","1001.383","18.86","50.3","NAN","0.0"],
    [1541430,"2026-02-11 17:50:00","53186","2.015","256.5","5.521","289.4","1001.605","18.81","50.9","NAN","0.0"],
    [1541431,"2026-02-11 18:00:00","53187","2.451","240.1","4.965","236.6","1001.801","18.64","52.55","NAN","0.0"],
    [1541432,"2026-02-11 18:10:00","53188","2.6069999999999998","244.3","5.292000000000001","246.6","1001.868","18.02","58.16","NAN","0.0"],
    [1541433,"2026-02-11 18:20:00","53189","2.5340000000000003","262.9","5.7170000000000005","292.3","1001.579","17.32","63.4","NAN","0.1"],
    [1541434,"2026-02-11 18:30:00","53190","1.879","261.5","4.867","285.4","1001.495","16.99","66.42","NAN","0.0"],
    [1541435,"2026-02-11 18:40:00","53191","1.712","270.4","4.41","277.0","1001.4","16.87","67.34","NAN","0.0"],
    [1541436,"2026-02-11 18:50:00","53192","0.986","272.8","3.201","305.7","1001.273","16.78","68.43","NAN","0.0"],
    [1541437,"2026-02-11 19:00:00","53193","1.482","287.5","3.5610000000000004","1.493","1001.21","16.6","69.4","NAN","0.1"],
    [1541438,"2026-02-11 19:10:00","53194","1.075","286.6","3.071","290.6","1000.835","16.38","70.74","NAN","0.0"],
    [1541439,"2026-02-11 19:20:00","53195","0.975","298.0","2.7110000000000003","352.3","1000.6619999999999","16.31","72.14","NAN","0.1"],
    [1541440,"2026-02-11 19:30:00","53196","1.297","310.9","3.7239999999999998","319.1","1000.331","16.2","73.62","NAN","0.0"],
    [1541441,"2026-02-11 19:40:00","53197","1.295","329.0","3.0380000000000003","278.5","1000.3","16.28","73.07","NAN","0.0"],
    [1541442,"2026-02-11 19:50:00","53198","1.99","337.1","6.239","296.4","1000.903","16.5","72.39","NAN","0.1"],
    [1541443,"2026-02-11 20:00:00","53199","1.7309999999999999","325.1","3.7239999999999998","284.8","1000.701","15.89","76.36","NAN","0.0"],
    [1541444,"2026-02-11 20:10:00","53200","1.7280000000000002","320.3","4.181","336.6","1000.66","15.62","78.45","NAN","0.0"],
    [1541445,"2026-02-11 20:20:00","53201","1.631","334.9","3.5610000000000004","327.5","1000.6210000000001","15.6","77.63","NAN","0.0"],
    [1541446,"2026-02-11 20:30:00","53202","1.208","320.5","2.548","340.6","1000.311","15.72","76.28","NAN","0.0"],
    [1541447,"2026-02-11 20:40:00","53203","1.3130000000000002","325.9","3.43","283.5","1000.2860000000001","15.76","75.52","NAN","0.0"],
    [1541448,"2026-02-11 20:50:00","53204","1.203","311.2","3.365","301.8","1000.1030000000001","15.78","74.75","NAN","0.0"],
    [1541449,"2026-02-11 21:00:00","53205","0.912","291.9","2.613","318.3","999.7310000000001","15.76","74.02","NAN","0.0"],
    [1541450,"2026-02-11 21:10:00","53206","0.7","262.7","1.666","273.2","999.4375","15.71","74.39","NAN","0.0"],
    [1541451,"2026-02-11 21:20:00","53207","1.531","238.3","3.332","229.7","999.5084","15.6","75.21","NAN","0.0"],
    [1541452,"2026-02-11 21:30:00","53208","1.381","257.9","4.018","291.4","999.4354","15.4","74.98","NAN","0.0"],
    [1541453,"2026-02-11 21:40:00","53209","1.204","236.1","3.528","254.5","999.446","15.42","74.6","NAN","0.0"],
    [1541454,"2026-02-11 21:50:00","53210","1.321","234.3","2.548","225.9","999.5009","15.3","76.35","NAN","0.0"],
    [1541455,"2026-02-11 22:00:00","53211","1.409","222.0","2.5810000000000004","213.8","999.3571","15.03","77.21","NAN","0.0"],
    [1541456,"2026-02-11 22:10:00","53212","1.621","226.7","3.7889999999999997","219.6","999.3427","14.81","78.34","NAN","0.0"],
    [1541457,"2026-02-11 22:20:00","53213","1.87","239.0","3.463","233.3","999.1679","14.96","77.57","NAN","0.0"],
    [1541458,"2026-02-11 22:30:00","53214","1.694","238.6","3.6260000000000003","225.7","999.1094","15.02","77.38","NAN","0.0"],
    [1541459,"2026-02-11 22:40:00","53215","1.62","235.9","3.985","240.8","999.1808","15.04","77.33","NAN","0.0"],
    [1541460,"2026-02-11 22:50:00","53216","1.493","235.0","3.0380000000000003","239.2","999.0668","15.02","77.65","NAN","0.0"],
    [1541461,"2026-02-11 23:00:00","53217","1.319","229.8","2.7439999999999998","231.1","999.0502","14.96","78.11","NAN","0.0"],
    [1541462,"2026-02-11 23:10:00","53218","1.056","229.4","2.7439999999999998","241.9","999.0827","14.8","79.38","NAN","0.0"],
    [1541463,"2026-02-11 23:20:00","53219","0.941","217.9","1.993","205.8","999.0126","14.51","81.8","NAN","0.0"],
    [1541464,"2026-02-11 23:30:00","53220","0.799","226.6","2.45","231.5","999.0084","14.45","82.7","NAN","0.0"],
    [1541465,"2026-02-11 23:40:00","53221","0.8590000000000001","206.1","1.307","232.3","998.934","14.3","83.3","NAN","0.0"],
    [1541466,"2026-02-11 23:50:00","53222","0.57","228.1","1.7309999999999999","248.0","998.7799","14.35","83.3","NAN","0.0"],
    [1541467,"2026-02-12 00:00:00","53223","0.569","192.0","1.96","179.5","998.7563","14.31","83.7","NAN","0.0"],
    [1541468,"2026-02-12 00:10:00","53224","0.823","232.3","3.985","292.8","998.5493","14.32","84.5","NAN","0.0"],
    [1541469,"2026-02-12 00:20:00","53225","1.6030000000000002","261.6","5.553","290.8","998.3414","16.15","75.54","NAN","0.0"],
    [1541470,"2026-02-12 00:30:00","53226","2.378","294.7","9.18","294.1","998.2886","17.18","66.84","NAN","0.0"],
    [1541471,"2026-02-12 00:40:00","53227","2.818","310.1","8.33","297.7","998.3768","17.89","58.91","NAN","0.0"],
    [1541472,"2026-02-12 00:50:00","53228","2.642","301.6","9.44","304.8","998.5110000000001","18.02","53.9","NAN","0.0"],
    [1541473,"2026-02-12 01:00:00","53229","3.2710000000000004","320.5","9.02","315.7","998.4899","18.07","49.64","NAN","0.0"],
    [1541474,"2026-02-12 01:10:00","53230","4.02","319.9","10.03","311.1","998.6404","17.87","49.56","NAN","0.0"],
    [1541475,"2026-02-12 01:20:00","53231","2.556","298.9","6.468","286.3","998.6829","17.69","48.58","NAN","0.0"],
    [1541476,"2026-02-12 01:30:00","53232","3.266","284.3","9.73","294.2","998.773","17.75","45.7","NAN","0.0"],
    [1541477,"2026-02-12 01:40:00","53233","3.147","273.0","8.3","285.7","998.8546","17.78","44.41","NAN","0.0"],
    [1541478,"2026-02-12 01:50:00","53234","4.045","275.3","10.88","305.0","999.0298","17.8","43.64","NAN","0.0"],
    [1541479,"2026-02-12 02:00:00","53235","3.5869999999999997","280.2","10.91","293.8","999.2111","17.69","43.16","NAN","0.0"],
    [1541480,"2026-02-12 02:10:00","53236","3.511","279.4","9.77","293.5","999.3282","17.57","42.29","NAN","0.0"],
    [1541481,"2026-02-12 02:20:00","53237","3.8","272.9","9.77","273.2","999.4354","17.46","41.61","NAN","0.0"],
    [1541482,"2026-02-12 02:30:00","53238","3.9760000000000004","267.0","11.5","296.2","999.4576","17.39","41.49","NAN","0.0"],
    [1541483,"2026-02-12 02:40:00","53239","3.866","269.0","11.2","292.1","999.48","17.35","41.01","NAN","0.0"],
    [1541484,"2026-02-12 02:50:00","53240","4.15","266.5","11.17","291.9","999.4549","17.19","41.35","NAN","0.0"],
    [1541485,"2026-02-12 03:00:00","53241","3.7289999999999996","260.5","9.8","273.5","999.3428","17.1","41.36","NAN","0.0"],
    [1541486,"2026-02-12 03:10:00","53242","3.517","260.6","9.54","269.6","999.4082","17.09","41.28","NAN","0.0"],
    [1541487,"2026-02-12 03:20:00","53243","4.058","265.3","10.32","295.5","999.3403","16.97","41.65","NAN","0.0"],
    [1541488,"2026-02-12 03:30:00","53244","4.149","264.6","10.42","299.7","999.4152","16.93","41.47","NAN","0.0"],
    [1541489,"2026-02-12 03:40:00","53245","3.589","265.0","8.95","253.5","999.4026","16.84","41.67","NAN","0.0"],
    [1541490,"2026-02-12 03:50:00","53246","4.002","261.1","11.73","275.4","999.1954","16.72","41.68","NAN","0.0"],
    [1541491,"2026-02-12 04:00:00","53247","4.346","265.5","11.73","275.4","999.084","16.77","41.07","NAN","0.0"],
    [1541492,"2026-02-12 04:10:00","53248","4.268","264.3","11.92","271.7","999.1016","16.65","41.12","NAN","0.0"],
    [1541493,"2026-02-12 04:20:00","53249","4.162","264.9","10.62","265.7","999.0966","16.61","40.82","NAN","0.0"],
    [1541494,"2026-02-12 04:30:00","53250","3.937","273.3","9.11","275.3","998.8365","16.6","40.16","NAN","0.0"],
    [1541495,"2026-02-12 04:40:00","53251","5.541","263.7","12.71","258.9","998.0236","16.55","39.21","NAN","0.0"],
    [1541496,"2026-02-12 04:50:00","53252","5.625","271.4","13.07","266.8","997.355","16.54","38.05","NAN","0.0"],
    [1541497,"2026-02-12 05:00:00","53253","4.938","280.4","13.2","282.7","997.0861","16.52","36.75","NAN","0.0"],
    [1541498,"2026-02-12 05:10:00","53254","5.106","280.3","19.27","281.7","996.7599","16.55","35.03","NAN","0.0"],
    [1541499,"2026-02-12 05:20:00","53255","5.63","276.0","16.3","280.3","996.5098","16.58","33.46","NAN","0.0"],
    [1541500,"2026-02-12 05:30:00","53256","5.3","282.6","12.87","290.2","996.2799","16.57","32.53","NAN","0.0"],
    [1541501,"2026-02-12 05:40:00","53257","4.734","285.2","12.74","271.3","996.1029","16.54","31.55","NAN","0.0"],
    [1541502,"2026-02-12 05:50:00","53258","4.4319999999999995","290.7","12.09","257.0","996.0455","16.56","30.36","NAN","0.0"],
    [1541503,"2026-02-12 06:00:00","53259","4.474","288.2","14.41","328.8","996.0872","16.54","29.79","NAN","0.0"],
    [1541504,"2026-02-12 06:10:00","53260","4.418","306.2","11.2","326.6","996.2356","16.39","30.45","NAN","0.0"],
    [1541505,"2026-02-12 06:20:00","53261","4.223","304.9","17.05","257.5","996.4164","16.28","30.8","NAN","0.0"],
    [1541506,"2026-02-12 06:30:00","53262","4.356","311.1","15.39","332.4","996.666","16.17","31.5","NAN","0.0"],
    [1541507,"2026-02-12 06:40:00","53263","4.091","302.8","12.35","349.9","996.9598","16.03","32.28","NAN","0.0"],
    [1541508,"2026-02-12 06:50:00","53264","4.602","307.7","14.01","312.3","997.1415","15.93","32.51","NAN","0.0"],
    [1541509,"2026-02-12 07:00:00","53265","3.767","292.8","11.17","283.9","997.3813","15.85","32.38","NAN","0.0"],
    [1541510,"2026-02-12 07:10:00","53266","4.447","294.7","12.15","276.0","997.6693","15.88","31.92","NAN","0.0"],
    [1541511,"2026-02-12 07:20:00","53267","4.92","287.8","14.54","247.5","997.9185","15.93","31.35","NAN","0.0"],
    [1541512,"2026-02-12 07:30:00","53268","4.018","283.9","12.02","288.4","998.2705","15.94","31.38","NAN","0.0"],
    [1541513,"2026-02-12 07:40:00","53269","3.7039999999999997","292.2","10.16","259.4","998.6166","15.96","31.5","NAN","0.0"],
    [1541514,"2026-02-12 07:50:00","53270","3.987","295.6","12.09","321.0","998.9773","15.98","31.36","NAN","0.0"],
    [1541515,"2026-02-12 08:00:00","53271","3.715","284.2","10.32","272.2","999.3162","16.02","30.8","NAN","0.0"],
    [1541516,"2026-02-12 08:10:00","53272","3.728","284.0","11.66","251.4","999.6624","16.12","30.39","NAN","0.0"],
    [1541517,"2026-02-12 08:20:00","53273","4.375","267.0","11.4","328.4","999.7465","16.21","29.86","NAN","0.0"],
    [1541518,"2026-02-12 08:30:00","53274","4.053999999999999","283.2","12.32","259.4","999.8262","16.33","29.41","NAN","0.0"],
    [1541519,"2026-02-12 08:40:00","53275","4.601","289.6","11.37","279.4","999.9711","16.42","29.08","NAN","0.0"],
    [1541520,"2026-02-12 08:50:00","53276","4.359","305.1","11.76","294.8","1000.075","16.54","29.1","NAN","0.0"],
    [1541521,"2026-02-12 09:00:00","53277","4.084","285.9","11.04","340.8","1000.148","16.73","28.89","NAN","0.0"],
    [1541522,"2026-02-12 09:10:00","53278","2.9330000000000003","302.4","8.07","273.6","1000.365","16.83","28.87","NAN","0.0"],
    [1541523,"2026-02-12 09:20:00","53279","3.7260000000000004","307.3","11.56","337.2","1000.554","16.85","29.28","NAN","0.0"],
    [1541524,"2026-02-12 09:30:00","53280","5.4239999999999995","322.2","12.51","315.6","1000.788","16.76","29.78","NAN","0.0"],
    [1541525,"2026-02-12 09:40:00","53281","4.349","318.7","12.15","325.2","1001.1039999999999","16.87","30.14","NAN","0.0"],
    [1541526,"2026-02-12 09:50:00","53282","3.931","320.7","10.98","322.5","1001.243","16.94","30.27","NAN","0.0"],
    [1541527,"2026-02-12 10:00:00","53283","4.22","299.0","12.48","297.0","1001.2810000000001","17.09","30.15","NAN","0.0"],
    [1541528,"2026-02-12 10:10:00","53284","3.67","299.7","9.44","296.7","1001.4580000000001","17.26","30.11","NAN","0.0"],
    [1541529,"2026-02-12 10:20:00","53285","4.075","288.4","11.96","277.5","1001.613","17.37","29.87","NAN","0.0"],
    [1541530,"2026-02-12 10:30:00","53286","3.679","280.2","10.19","276.5","1001.846","17.55","29.67","NAN","0.0"],
    [1541531,"2026-02-12 10:40:00","53287","3.8339999999999996","292.7","11.37","288.1","1002.041","17.59","29.61","NAN","0.0"],
    [1541532,"2026-02-12 10:50:00","53288","3.701","274.5","10.75","283.6","1002.122","17.87","29.61","NAN","0.0"],
    [1541533,"2026-02-12 11:00:00","53289","3.97","284.9","13.03","286.4","1002.29","17.91","29.81","NAN","0.0"],
    [1541534,"2026-02-12 11:10:00","53290","3.85","285.5","11.3","319.9","1002.551","17.92","29.83","NAN","0.0"],
    [1541535,"2026-02-12 11:20:00","53291","4.0889999999999995","276.6","11.24","282.6","1002.628","18.05","30.29","NAN","0.0"],
    [1541536,"2026-02-12 11:30:00","53292","3.688","278.1","10.62","253.5","1002.943","18.14","30.41","NAN","0.0"],
    [1541537,"2026-02-12 11:40:00","53293","3.6830000000000003","276.0","10.58","254.9","1003.2560000000001","18.43","30.44","NAN","0.0"],
    [1541538,"2026-02-12 11:50:00","53294","4.269","271.5","8.72","304.5","1003.5319999999999","18.26","30.95","NAN","0.0"],
    [1541539,"2026-02-12 12:00:00","53295","3.1860000000000004","271.2","9.15","288.9","1003.528","18.57","30.84","NAN","0.0"],
    [1541540,"2026-02-12 12:10:00","53296","4.412","268.1","10.13","269.8","1003.51","18.51","30.63","NAN","0.0"],
    [1541541,"2026-02-12 12:20:00","53297","4.625","278.0","10.36","306.8","1003.512","18.38","31.05","NAN","0.0"],
    [1541542,"2026-02-12 12:30:00","53298","3.7319999999999998","285.5","10.91","319.3","1003.715","18.57","30.69","NAN","0.0"],
    [1541543,"2026-02-12 12:40:00","53299","5.195","274.4","11.6","259.5","1003.791","18.55","30.25","NAN","0.0"],
    [1541544,"2026-02-12 12:50:00","53300","4.5","270.2","11.5","291.9","1003.784","18.62","30.08","NAN","0.0"],
    [1541545,"2026-02-12 13:00:00","53301","5.297999999999999","269.9","12.77","274.6","1003.804","18.72","29.68","NAN","0.0"],
    [1541546,"2026-02-12 13:10:00","53302","4.773","268.9","11.69","288.6","1003.784","18.73","29.62","NAN","0.0"],
    [1541547,"2026-02-12 13:20:00","53303","4.0969999999999995","285.9","12.58","311.5","1003.9860000000001","18.85","29.46","NAN","0.0"],
    [1541548,"2026-02-12 13:30:00","53304","4.192","276.3","10.98","264.9","1004.102","18.83","29.45","NAN","0.0"],
    [1541549,"2026-02-12 13:40:00","53305","3.197","305.7","10.91","319.0","1004.135","18.98","28.92","NAN","0.0"],
    [1541550,"2026-02-12 13:50:00","53306","3.1710000000000003","306.5","9.24","315.1","1004.1310000000001","19.09","28.38","NAN","0.0"],
    [1541551,"2026-02-12 14:00:00","53307","3.7489999999999997","278.1","10.16","270.4","1004.17","19.34","27.9","NAN","0.0"],
    [1541552,"2026-02-12 14:10:00","53308","3.238","295.2","8.62","308.8","1004.2689999999999","19.22","28.12","NAN","0.0"],
    [1541553,"2026-02-12 14:20:00","53309","4.006","281.0","12.41","278.7","1004.495","19.13","28.35","NAN","0.0"],
    [1541554,"2026-02-12 14:30:00","53310","3.141","287.7","9.51","336.5","1004.5110000000001","19.06","28.75","NAN","0.0"],
    [1541555,"2026-02-12 14:40:00","53311","3.38","306.5","10.75","333.5","1004.595","19.07","28.84","NAN","0.0"],
    [1541556,"2026-02-12 14:50:00","53312","3.8080000000000003","303.6","9.73","332.5","1004.711","18.9","28.79","NAN","0.0"],
    [1541557,"2026-02-12 15:00:00","53313","2.8339999999999996","303.0","10.39","333.0","1004.8530000000001","18.96","28.99","NAN","0.0"],
    [1541558,"2026-02-12 15:10:00","53314","3.029","294.6","8.82","332.3","1004.799","18.87","29.28","NAN","0.0"],
    [1541559,"2026-02-12 15:20:00","53315","3.763","318.4","10.42","306.3","1004.8960000000001","18.76","29.34","NAN","0.0"],
    [1541560,"2026-02-12 15:30:00","53316","3.995","325.8","9.77","328.3","1004.933","18.67","29.35","NAN","0.0"],
    [1541561,"2026-02-12 15:40:00","53317","3.324","318.2","11.27","343.3","1005.0260000000001","18.68","29.19","NAN","0.0"],
    [1541562,"2026-02-12 15:50:00","53318","3.733","307.2","10.55","5.706","1005.188","18.45","28.87","NAN","0.0"],
    [1541563,"2026-02-12 16:00:00","53319","2.799","311.4","7.121","263.2","1005.2660000000001","18.41","29.14","NAN","0.0"],
    [1541564,"2026-02-12 16:10:00","53320","3.1319999999999997","304.3","9.54","329.6","1005.4","18.38","29.56","NAN","0.0"],
    [1541565,"2026-02-12 16:20:00","53321","3.9339999999999997","284.6","10.58","297.1","1005.5","18.31","29.82","NAN","0.0"],
    [1541566,"2026-02-12 16:30:00","53322","4.126","285.7","9.67","292.3","1005.492","18.22","29.79","NAN","0.0"],
    [1541567,"2026-02-12 16:40:00","53323","3.548","285.2","9.21","269.3","1005.515","18.18","29.67","NAN","0.0"],
    [1541568,"2026-02-12 16:50:00","53324","3.425","288.0","10.78","295.5","1005.669","18.09","29.51","NAN","0.0"],
    [1541569,"2026-02-12 17:00:00","53325","2.693","302.2","8.79","239.9","1005.791","17.99","29.28","NAN","0.0"],
    [1541570,"2026-02-12 17:10:00","53326","2.085","282.0","8.0","280.6","1005.8610000000001","17.88","29.25","NAN","0.0"],
    [1541571,"2026-02-12 17:20:00","53327","2.5340000000000003","293.5","6.827000000000001","278.3","1005.985","17.78","29.29","NAN","0.0"],
    [1541572,"2026-02-12 17:30:00","53328","2.611","298.1","7.742000000000001","246.3","1006.0880000000001","17.68","29.46","NAN","0.0"],
    [1541573,"2026-02-12 17:40:00","53329","2.748","291.7","6.957999999999999","343.5","1006.217","17.6","29.56","NAN","0.0"],
    [1541574,"2026-02-12 17:50:00","53330","2.3040000000000003","289.0","7.611000000000001","299.0","1006.462","17.49","29.78","NAN","0.0"],
    [1541575,"2026-02-12 18:00:00","53331","2.682","299.6","7.546","304.5","1006.711","17.43","30.08","NAN","0.0"],
    [1541576,"2026-02-12 18:10:00","53332","2.006","302.0","7.154","316.1","1006.752","17.32","30.32","NAN","0.0"],
    [1541577,"2026-02-12 18:20:00","53333","2.693","306.4","7.513","315.4","1006.7230000000001","17.22","30.65","NAN","0.0"],
    [1541578,"2026-02-12 18:30:00","53334","2.93","315.8","9.54","300.6","1006.698","17.18","30.96","NAN","0.0"],
    [1541579,"2026-02-12 18:40:00","53335","2.193","293.3","9.6","243.9","1006.628","17.08","31.41","NAN","0.0"],
    [1541580,"2026-02-12 18:50:00","53336","2.733","315.0","7.023","340.0","1006.71","17.03","31.8","NAN","0.0"],
    [1541581,"2026-02-12 19:00:00","53337","2.4290000000000003","313.0","6.827000000000001","330.1","1006.78","17.03","32.05","NAN","0.0"],
    [1541582,"2026-02-12 19:10:00","53338","2.911","312.8","6.7620000000000005","325.8","1006.745","17.04","32.15","NAN","0.0"],
    [1541583,"2026-02-12 19:20:00","53339","2.248","325.9","5.455","344.2","1006.565","16.97","32.57","NAN","0.0"],
    [1541584,"2026-02-12 19:30:00","53340","2.593","319.0","8.07","341.5","1006.5980000000001","16.87","33.06","NAN","0.0"],
    [1541585,"2026-02-12 19:40:00","53341","3.117","324.7","8.46","309.1","1006.54","16.96","32.88","NAN","0.0"],
    [1541586,"2026-02-12 19:50:00","53342","1.9680000000000002","309.6","5.651","321.5","1006.7460000000001","16.84","33.42","NAN","0.0"],
    [1541587,"2026-02-12 20:00:00","53343","2.106","301.0","5.553","293.9","1007.0239999999999","16.66","34.07","NAN","0.0"],
    [1541588,"2026-02-12 20:10:00","53344","1.758","280.3","5.88","300.7","1006.9939999999999","16.64","34.41","NAN","0.0"],
    [1541589,"2026-02-12 20:20:00","53345","1.9880000000000002","282.4","4.606","246.1","1007.112","16.5","35","NAN","0.0"],
    [1541590,"2026-02-12 20:30:00","53346","1.493","272.9","4.377","279.4","1007.202","16.46","35.07","NAN","0.0"],
    [1541591,"2026-02-12 20:40:00","53347","1.5659999999999998","305.5","4.573","243.7","1007.0319999999999","16.43","35.23","NAN","0.0"],
    [1541592,"2026-02-12 20:50:00","53348","1.665","296.6","4.541","317.0","1007.0039999999999","16.46","35.36","NAN","0.0"],
    [1541593,"2026-02-12 21:00:00","53349","1.8219999999999998","277.6","5.651","320.8","1006.875","16.52","35.47","NAN","0.0"],
    [1541594,"2026-02-12 21:10:00","53350","2.877","267.3","6.827000000000001","287.4","1006.7130000000001","16.54","35.77","NAN","0.0"],
    [1541595,"2026-02-12 21:20:00","53351","2.69","258.0","5.912999999999999","256.2","1006.703","16.53","36.06","NAN","0.0"],
    [1541596,"2026-02-12 21:30:00","53352","2.674","255.2","5.945","266.6","1006.704","16.52","36.01","NAN","0.0"],
    [1541597,"2026-02-12 21:40:00","53353","2.891","262.9","6.239","243.6","1006.696","16.55","35.88","NAN","0.0"],
    [1541598,"2026-02-12 21:50:00","53354","2.5810000000000004","265.7","7.056","288.8","1006.5110000000001","16.6","35.67","NAN","0.0"],
    [1541599,"2026-02-12 22:00:00","53355","2.716","274.2","5.978","305.7","1006.182","16.64","35.37","NAN","0.0"],
    [1541600,"2026-02-12 22:10:00","53356","2.915","274.6","7.382999999999999","244.4","1005.9780000000001","16.67","35.39","NAN","0.0"],
    [1541601,"2026-02-12 22:20:00","53357","2.205","267.4","7.218999999999999","271.1","1005.933","16.63","35.71","NAN","0.0"],
    [1541602,"2026-02-12 22:30:00","53358","2.093","274.2","6.011","290.7","1005.847","16.56","36.3","NAN","0.0"],
    [1541603,"2026-02-12 22:40:00","53359","1.713","249.8","4.41","270.3","1006.041","16.48","36.8","NAN","0.0"],
    [1541604,"2026-02-12 22:50:00","53360","2.359","237.9","5.88","263.2","1006.268","16.48","37.05","NAN","0.0"],
    [1541605,"2026-02-12 23:00:00","53361","2.222","218.7","6.042999999999999","189.4","1006.446","16.56","37.02","NAN","0.0"],
    [1541606,"2026-02-12 23:10:00","53362","2.615","239.2","6.827000000000001","225.1","1006.439","16.46","37.4","NAN","0.0"],
    [1541607,"2026-02-12 23:20:00","53363","2.875","275.0","8.75","308.6","1006.3760000000001","16.5","37.55","NAN","0.0"],
    [1541608,"2026-02-12 23:30:00","53364","2.445","290.5","8.98","305.9","1006.122","16.42","37.95","NAN","0.0"],
    [1541609,"2026-02-12 23:40:00","53365","2.432","293.5","6.7620000000000005","313.9","1006.0110000000001","16.29","38.44","NAN","0.0"],
    [1541610,"2026-02-12 23:50:00","53366","2.035","246.4","5.586","282.3","1006.285","16.19","38.82","NAN","0.0"],
    [1541611,"2026-02-13 00:00:00","53367","1.886","221.0","4.573","251.3","1006.581","16.05","39.53","NAN","0.0"],
    [1541612,"2026-02-13 00:10:00","53368","0.8959999999999999","333.6","2.287","297.2","1006.322","15.63","40.77","NAN","0.0"],
    [1541613,"2026-02-13 00:20:00","53369","1.556","321.4","5.2589999999999995","292.8","1005.791","15.93","39.43","NAN","0.0"],
    [1541614,"2026-02-13 00:30:00","53370","1.3119999999999998","294.5","3.6260000000000003","316.6","1005.682","15.94","39.69","NAN","0.0"],
    [1541615,"2026-02-13 00:40:00","53371","0.835","223.6","2.842","266.0","1005.711","15.72","40.62","NAN","0.0"],
    [1541616,"2026-02-13 00:50:00","53372","0.9490000000000001","242.3","3.397","270.0","1005.427","15.45","41.41","NAN","0.0"],
    [1541617,"2026-02-13 01:00:00","53373","1.591","230.7","3.528","270.5","1005.316","15.64","41.23","NAN","0.0"],
    [1541618,"2026-02-13 01:10:00","53374","1.409","246.5","3.822","279.2","1005.2860000000001","15.49","41.93","NAN","0.0"],
    [1541619,"2026-02-13 01:20:00","53375","1.882","312.7","5.357","300.9","1005.0089999999999","15.58","42.29","NAN","0.0"],
    [1541620,"2026-02-13 01:30:00","53376","1.236","261.4","3.7239999999999998","319.1","1004.934","15.49","42.83","NAN","0.0"],
    [1541621,"2026-02-13 01:40:00","53377","1.294","189.6","4.802","195.6","1005.2080000000001","15.19","44.74","NAN","0.0"],
    [1541622,"2026-02-13 01:50:00","53378","1.6580000000000001","243.8","4.671","237.2","1004.816","15.02","45.22","NAN","0.0"],
    [1541623,"2026-02-13 02:00:00","53379","2.066","262.7","4.606","234.3","1004.2860000000001","15.18","43.95","NAN","0.0"],
    [1541624,"2026-02-13 02:10:00","53380","2.036","235.0","4.933","253.1","1004.4789999999999","15.03","44.54","NAN","0.0"],
    [1541625,"2026-02-13 02:20:00","53381","1.6740000000000002","245.0","4.4430000000000005","243.9","1004.069","14.89","45.07","NAN","0.0"],
    [1541626,"2026-02-13 02:30:00","53382","2.153","240.0","5.031000000000001","257.5","1004.153","14.8","45.52","NAN","0.0"],
    [1541627,"2026-02-13 02:40:00","53383","1.825","273.1","4.051","304.9","1003.72","14.73","45.96","NAN","0.0"],
    [1541628,"2026-02-13 02:50:00","53384","2.069","260.8","5.619","290.7","1003.421","14.79","45.83","NAN","0.0"],
    [1541629,"2026-02-13 03:00:00","53385","1.77","244.2","3.528","235.5","1003.2180000000001","14.72","46.12","NAN","0.0"],
    [1541630,"2026-02-13 03:10:00","53386","1.364","242.2","3.136","257.0","1002.807","14.61","46.66","NAN","0.0"],
    [1541631,"2026-02-13 03:20:00","53387","1.21","227.3","2.7769999999999997","232.6","1002.824","14.31","48.2","NAN","0.0"],
    [1541632,"2026-02-13 03:30:00","53388","0.9440000000000001","231.4","2.548","254.3","1002.586","14.34","47.79","NAN","0.0"],
    [1541633,"2026-02-13 03:40:00","53389","1.075","214.5","2.385","194.0","1002.74","14.13","49.17","NAN","0.0"],
    [1541634,"2026-02-13 03:50:00","53390","1.047","240.4","3.103","240.7","1002.3589999999999","14.14","48.06","NAN","0.0"],
    [1541635,"2026-02-13 04:00:00","53391","0.835","213.9","2.221","195.0","1002.258","14.06","48.94","NAN","0.0"],
    [1541636,"2026-02-13 04:10:00","53392","0.539","249.4","1.96","248.2","1002.076","14.03","48.57","NAN","0.0"],
    [1541637,"2026-02-13 04:20:00","53393","1.074","206.7","2.287","250.3","1001.86","14.16","49.49","NAN","0.0"],
    [1541638,"2026-02-13 04:30:00","53394","0.938","216.8","1.7309999999999999","204.8","1001.735","13.75","51.16","NAN","0.0"],
    [1541639,"2026-02-13 04:40:00","53395","1.446","243.3","4.2139999999999995","233.5","1001.5110000000001","14.24","47.76","NAN","0.0"],
    [1541640,"2026-02-13 04:50:00","53396","1.32","260.3","3.659","235.1","1001.238","14.45","47.02","NAN","0.0"],
    [1541641,"2026-02-13 05:00:00","53397","1.119","248.9","2.94","231.0","1001.1389999999999","14.46","47.13","NAN","0.0"],
    [1541642,"2026-02-13 05:10:00","53398","0.94","218.0","1.829","223.8","1001.039","14.27","47.94","NAN","0.0"],
    [1541643,"2026-02-13 05:20:00","53399","0.629","205.1","1.111","201.7","1000.8","13.91","51.38","NAN","0.0"],
    [1541644,"2026-02-13 05:30:00","53400","1.047","217.9","2.156","238.4","1000.65","13.78","50.8","NAN","0.0"],
    [1541645,"2026-02-13 05:40:00","53401","1.172","253.6","2.8089999999999997","252.2","1000.3430000000001","14","49.98","NAN","0.0"],
    [1541646,"2026-02-13 05:50:00","53402","0.619","268.2","2.221","289.8","1000.145","14.13","49.55","NAN","0.0"],
    [1541647,"2026-02-13 06:00:00","53403","0.826","322.1","2.45","308.8","1000.0039999999999","14.31","48.39","NAN","0.0"],
    [1541648,"2026-02-13 06:10:00","53404","0.873","323.2","2.189","307.6","999.8309","14.48","47.3","NAN","0.0"],
    [1541649,"2026-02-13 06:20:00","53405","0.42","335.9","1.2409999999999999","30.4","999.8248","14.48","47.38","NAN","0.0"],
    [1541650,"2026-02-13 06:30:00","53406","0.17800000000000002","97.8","0.621","97.2","999.8862","14.28","47.94","NAN","0.0"],
    [1541651,"2026-02-13 06:40:00","53407","0.614","170.4","1.274","162.7","999.6337","13.95","51.61","NAN","0.0"],
    [1541652,"2026-02-13 06:50:00","53408","0.513","90.1","0.98","65.45","999.2308","13.76","52.71","NAN","0.0"],
    [1541653,"2026-02-13 07:00:00","53409","0.6779999999999999","75.53","2.221","69.31","998.8652","13.74","55.54","NAN","0.0"],
    [1541654,"2026-02-13 07:10:00","53410","1.095","153.8","2.0909999999999997","191.7","998.7498","13.63","58.59","NAN","0.0"],
    [1541655,"2026-02-13 07:20:00","53411","1.321","189.7","2.875","180.3","998.8282","13.38","63.83","NAN","0.0"],
    [1541656,"2026-02-13 07:30:00","53412","0.68","195.4","1.895","182.5","999.0488","13.43","61.08","NAN","0.0"],
    [1541657,"2026-02-13 07:40:00","53413","0.9640000000000001","194.0","2.025","205.3","998.8567","13.55","56.67","NAN","0.0"],
    [1541658,"2026-02-13 07:50:00","53414","0.809","197.6","2.515","178.2","998.4835","13.68","53.3","NAN","0.0"],
    [1541659,"2026-02-13 08:00:00","53415","0.838","188.4","1.535","175.2","998.1486","13.69","54.11","NAN","0.0"],
    [1541660,"2026-02-13 08:10:00","53416","1.09","197.7","3.234","177.2","998.0952","13.63","56.73","NAN","0.0"],
    [1541661,"2026-02-13 08:20:00","53417","0.426","193.2","1.2409999999999999","216.3","997.7301","13.7","57.68","NAN","0.0"],
    [1541662,"2026-02-13 08:30:00","53418","0.033","91.3","0.425","81.0","997.2946","13.72","57.74","NAN","0.0"],
    [1541663,"2026-02-13 08:40:00","53419","0.633","162.2","1.307","162.2","997.1147","13.53","62.06","NAN","0.1"],
    [1541664,"2026-02-13 08:50:00","53420","0.691","36.76","1.601","324.5","996.6493","13.12","66.53","NAN","0.1"],
    [1541665,"2026-02-13 09:00:00","53421","0.512","36.74","1.633","32.76","996.4378","13.24","67.76","NAN","0.2"],
    [1541666,"2026-02-13 09:10:00","53422","0.917","22.6","1.535","40.73","996.2083","13.07","70.71","NAN","0.1"],
    [1541667,"2026-02-13 09:20:00","53423","0.276","305.9","1.143","13.26","996.2672","13.21","70.02","NAN","0.0"],
    [1541668,"2026-02-13 09:30:00","53424","0.9520000000000001","53.45","2.319","30.85","995.945","13.28","73.94","NAN","0.1"],
    [1541669,"2026-02-13 09:40:00","53425","0.9520000000000001","356.5","3.071","50.7","995.6339","13.18","72.35","NAN","0.0"],
    [1541670,"2026-02-13 09:50:00","53426","0.45799999999999996","35.67","1.666","62.14","995.4717","13.36","72.73","NAN","0.1"],
    [1541671,"2026-02-13 10:00:00","53427","0.408","46.87","1.143","75.65","995.4018","13.14","71.67","NAN","0.2"],
    [1541672,"2026-02-13 10:10:00","53428","0.6779999999999999","25.9","1.307","55.4","995.0254","12.87","75.09","NAN","0.2"],
    [1541673,"2026-02-13 10:20:00","53429","0.396","229.1","1.274","222.0","994.8393","12.78","79.78","NAN","0.2"],
    [1541674,"2026-02-13 10:30:00","53430","0.637","177.3","1.5030000000000001","222.4","994.5646","12.72","85.8","NAN","0.5"],
    [1541675,"2026-02-13 10:40:00","53431","0.575","190.1","1.3719999999999999","191.4","994.4105","12.59","89","NAN","0.3"],
    [1541676,"2026-02-13 10:50:00","53432","0.08900000000000001","169.8","0.7509999999999999","143.3","994.2982","12.62","90.9","NAN","0.3"],
    [1541677,"2026-02-13 11:00:00","53433","0.501","149.2","1.209","144.7","993.9119","12.68","91.9","NAN","0.1"],
    [1541678,"2026-02-13 11:10:00","53434","0.268","162.8","1.013","156.6","993.5507","12.72","92","NAN","0.3"],
    [1541679,"2026-02-13 11:20:00","53435","0.299","167.0","0.9470000000000001","208.4","993.177","12.61","92.2","NAN","0.4"],
    [1541680,"2026-02-13 11:30:00","53436","0.24","203.8","0.8170000000000001","203.8","992.8608","12.56","93","NAN","0.4"],
    [1541681,"2026-02-13 11:40:00","53437","0.365","72.05","1.601","67.21","992.4941","12.57","94.2","NAN","0.3"],
    [1541682,"2026-02-13 11:50:00","53438","1.669","43.01","2.875","33.39","991.9633","12.19","93.5","NAN","0.1"],
    [1541683,"2026-02-13 12:00:00","53439","1.374","34.71","3.0380000000000003","50.47","991.4702","11.86","93.1","NAN","0.0"],
    [1541684,"2026-02-13 12:10:00","53440","1.5959999999999999","45.09","3.136","37.6","991.0319999999999","11.76","93.1","NAN","0.3"],
    [1541685,"2026-02-13 12:20:00","53441","0.95","17.92","1.96","350.2","990.7957","11.65","94.2","NAN","0.8"],
    [1541686,"2026-02-13 12:30:00","53442","1.22","21.4","2.94","37.68","990.3168","11.33","95.6","NAN","0.7"],
    [1541687,"2026-02-13 12:40:00","53443","1.645","43.19","3.1689999999999996","39.67","989.6941","11.3","96.5","NAN","0.7"],
    [1541688,"2026-02-13 12:50:00","53444","2.062","38.5","4.051","48.72","989.0162","11.52","96.7","NAN","0.4"],
    [1541689,"2026-02-13 13:00:00","53445","2.0340000000000003","38.92","4.573","31.08","988.5338","11.39","96.3","NAN","0.5"],
    [1541690,"2026-02-13 13:10:00","53446","0.787","34.13","1.9269999999999998","12.09","988.2596","11.42","96.3","NAN","0.5"],
    [1541691,"2026-02-13 13:20:00","53447","1.278","43.73","2.9730000000000003","37.04","987.6563","11.44","96.3","NAN","0.3"],
    [1541692,"2026-02-13 13:30:00","53448","0.9590000000000001","69.8","2.842","39.16","987.1486","11.39","96.1","NAN","0.3"],
    [1541693,"2026-02-13 13:40:00","53449","1.2690000000000001","51.37","2.842","25.86","986.6275","11.43","96.6","NAN","0.6"],
    [1541694,"2026-02-13 13:50:00","53450","0.23","336.5","1.339","267.9","986.2768","11.47","97.2","NAN","0.4"],
    [1541695,"2026-02-13 14:00:00","53451","1.52","12.3","3.495","352.7","985.8617","11.58","97.8","NAN","1.1"],
    [1541696,"2026-02-13 14:10:00","53452","1.9280000000000002","310.9","5.7170000000000005","296.0","985.8523","11.58","98.4","NAN","1.5"],
    [1541697,"2026-02-13 14:20:00","53453","1.6219999999999999","338.1","4.802","6.511","985.7516","11.42","98.2","NAN","0.7"],
    [1541698,"2026-02-13 14:30:00","53454","1.585","324.6","2.7110000000000003","317.4","985.5905","11.61","97.1","NAN","0.3"],
    [1541699,"2026-02-13 14:40:00","53455","1.4080000000000001","322.7","3.855","309.8","985.4512","11.93","94.3","NAN","0.2"],
    [1541700,"2026-02-13 14:50:00","53456","1.3","269.0","3.332","286.6","985.6224","12.19","92.2","NAN","0.1"],
    [1541701,"2026-02-13 15:00:00","53457","1.301","286.8","4.247","247.6","985.5998","11.98","89.9","NAN","0.1"],
    [1541702,"2026-02-13 15:10:00","53458","1.1059999999999999","279.5","3.071","247.0","985.5724","11.73","89.6","NAN","0.1"],
    [1541703,"2026-02-13 15:20:00","53459","0.7609999999999999","250.2","2.385","232.7","985.5623","11.79","89.7","NAN","0.2"],
    [1541704,"2026-02-13 15:30:00","53460","1.251","233.6","3.136","223.0","985.4352","11.76","91","NAN","0.1"],
    [1541705,"2026-02-13 15:40:00","53461","1.5430000000000001","226.5","3.1689999999999996","235.3","985.3532","11.42","91.7","NAN","0.1"],
    [1541706,"2026-02-13 15:50:00","53462","1.4340000000000002","211.5","2.9730000000000003","216.7","985.2314","11.13","93.1","NAN","0.3"],
    [1541707,"2026-02-13 16:00:00","53463","0.8759999999999999","222.7","2.679","211.4","985.1001","11.05","93.9","NAN","0.1"],
    [1541708,"2026-02-13 16:10:00","53464","1.032","214.6","2.352","204.4","984.9783","11.07","94.2","NAN","0.1"],
    [1541709,"2026-02-13 16:20:00","53465","1.349","237.8","3.365","236.9","984.9774","11.11","95.1","NAN","0.1"],
    [1541710,"2026-02-13 16:30:00","53466","2.1959999999999997","237.7","3.9530000000000003","235.7","984.9301","11.18","95.3","NAN","0.2"],
    [1541711,"2026-02-13 16:40:00","53467","2.0269999999999997","236.7","4.835","242.9","984.9225","11.03","97","NAN","0.2"],
    [1541712,"2026-02-13 16:50:00","53468","1.675","240.8","3.463","248.4","985.0084","11.04","97.9","NAN","0.2"],
    [1541713,"2026-02-13 17:00:00","53469","1.6780000000000002","237.6","3.7569999999999997","222.9","985.0208","10.99","98","NAN","0.2"],
    [1541714,"2026-02-13 17:10:00","53470","1.013","242.9","2.842","221.9","985.0301","11.1","97.8","NAN","0.1"],
    [1541715,"2026-02-13 17:20:00","53471","1.2109999999999999","248.6","3.005","260.4","985.1042","11.28","96.9","NAN","0.2"],
    [1541716,"2026-02-13 17:30:00","53472","1.385","260.3","3.7569999999999997","257.7","985.1797","11.41","94.8","NAN","0.2"],
    [1541717,"2026-02-13 17:40:00","53473","1.141","236.3","3.201","239.5","985.2649","11.45","93.1","NAN","0.2"],
    [1541718,"2026-02-13 17:50:00","53474","1.0070000000000001","228.7","2.483","221.0","985.3406","11.39","92.8","NAN","0.2"],
    [1541719,"2026-02-13 18:00:00","53475","1.286","261.2","3.9530000000000003","267.5","985.3792","11.4","91.1","NAN","0.2"],
    [1541720,"2026-02-13 18:10:00","53476","1.8969999999999998","281.8","5.455","257.0","985.4832","11.34","89.1","NAN","0.5"],
    [1541721,"2026-02-13 18:20:00","53477","2.385","254.1","6.272","262.0","985.4696","11.36","84.1","NAN","0.5"],
    [1541722,"2026-02-13 18:30:00","53478","2.452","244.0","6.272","292.6","985.4008","10.95","86.6","NAN","0.6"],
    [1541723,"2026-02-13 18:40:00","53479","3.259","252.0","6.893","259.0","985.4678","10.65","87.8","NAN","0.9"],
    [1541724,"2026-02-13 18:50:00","53480","2.668","258.5","7.6770000000000005","299.8","985.6655","10.94","84.6","NAN","0.3"],
    [1541725,"2026-02-13 19:00:00","53481","2.7039999999999997","256.8","7.0889999999999995","291.0","985.7594","11.15","80.8","NAN","0.2"],
    [1541726,"2026-02-13 19:10:00","53482","2.842","260.3","8.82","289.7","985.8305","11.36","78.34","NAN","0.1"],
    [1541727,"2026-02-13 19:20:00","53483","2.739","266.9","5.978","277.2","985.9522","11.49","76.43","NAN","0.0"],
    [1541728,"2026-02-13 19:30:00","53484","2.511","264.4","8.2","286.0","986.1276","11.53","75.51","NAN","0.0"],
    [1541729,"2026-02-13 19:40:00","53485","1.652","263.0","4.638999999999999","286.2","986.2724","11.51","76.27","NAN","0.0"],
    [1541730,"2026-02-13 19:50:00","53486","1.855","267.6","4.737","282.0","986.4366","11.5","76","NAN","0.0"],
    [1541731,"2026-02-13 20:00:00","53487","1.864","287.9","5.553","287.0","986.5023","11.48","75.65","NAN","0.0"],
    [1541732,"2026-02-13 20:10:00","53488","4.048","273.0","11.04","289.2","986.495","11.55","72.28","NAN","0.0"],
    [1541733,"2026-02-13 20:20:00","53489","3.6060000000000003","266.4","9.7","279.3","986.4515","11.59","70.25","NAN","0.0"],
    [1541734,"2026-02-13 20:30:00","53490","3.248","273.1","7.807","289.4","986.4724","11.64","69.05","NAN","0.0"],
    [1541735,"2026-02-13 20:40:00","53491","3.845","265.0","10.98","249.7","986.5747","11.73","67.42","NAN","0.0"],
    [1541736,"2026-02-13 20:50:00","53492","2.906","272.6","9.34","280.8","986.7326","11.69","67.62","NAN","0.0"],
    [1541737,"2026-02-13 21:00:00","53493","3.299","275.5","9.05","273.5","986.7498","11.68","67.86","NAN","0.0"],
    [1541738,"2026-02-13 21:10:00","53494","2.865","274.0","8.69","285.2","986.7403","11.78","67.73","NAN","0.0"],
    [1541739,"2026-02-13 21:20:00","53495","2.926","276.6","8.36","228.3","986.7161","11.9","67.7","NAN","0.0"],
    [1541740,"2026-02-13 21:30:00","53496","3.133","281.2","9.44","265.1","986.7852","12","67.64","NAN","0.0"],
    [1541741,"2026-02-13 21:40:00","53497","2.675","288.1","7.546","255.5","986.7112","12.01","68.3","NAN","0.0"],
    [1541742,"2026-02-13 21:50:00","53498","2.695","297.5","8.3","326.8","986.6633","12.03","68.3","NAN","0.0"],
    [1541743,"2026-02-13 22:00:00","53499","2.487","304.0","6.9910000000000005","243.9","986.7211","12.09","68.04","NAN","0.0"],
    [1541744,"2026-02-13 22:10:00","53500","1.847","311.9","5.553","328.3","986.9656","12.12","67.8","NAN","0.0"],
    [1541745,"2026-02-13 22:20:00","53501","1.837","237.0","5.553","337.7","987.2068","12.14","67.56","NAN","0.0"],
    [1541746,"2026-02-13 22:30:00","53502","1.2919999999999998","295.3","3.365","107.4","987.3538","12.08","67.81","NAN","0.0"],
    [1541747,"2026-02-13 22:40:00","53503","1.452","171.5","3.7569999999999997","132.3","987.426","12.16","66.09","NAN","0.0"],
    [1541748,"2026-02-13 22:50:00","53504","1.561","196.6","3.92","216.5","987.5057","12.04","67.99","NAN","0.0"],
    [1541749,"2026-02-13 23:00:00","53505","1.406","200.2","3.593","215.0","987.6178","12.01","66.9","NAN","0.0"],
    [1541750,"2026-02-13 23:10:00","53506","1.198","211.9","3.5610000000000004","166.9","987.7573","12","66.35","NAN","0.0"],
    [1541751,"2026-02-13 23:20:00","53507","1.004","112.9","2.189","201.2","987.8844","11.93","65.98","NAN","0.0"],
    [1541752,"2026-02-13 23:30:00","53508","1.1340000000000001","157.1","3.43","319.2","987.959","11.82","65.84","NAN","0.0"],
    [1541753,"2026-02-13 23:40:00","53509","1.382","182.3","4.149","282.6","988.1133","11.84","64.26","NAN","0.0"],
    [1541754,"2026-02-13 23:50:00","53510","1.607","265.1","7.121","21.92","988.1982","11.76","64.63","NAN","0.0"],
    [1541755,"2026-02-14 00:00:00","53511","0.904","315.5","2.842","300.8","988.2105","11.63","64.79","NAN","0.0"],
    [1541756,"2026-02-14 00:10:00","53512","1.443","144.8","4.4430000000000005","190.5","988.263","11.55","65.46","NAN","0.0"],
    [1541757,"2026-02-14 00:20:00","53513","1.065","199.2","2.5810000000000004","175.8","988.3625","11.49","66.37","NAN","0.0"],
    [1541758,"2026-02-14 00:30:00","53514","1.912","219.6","4.4430000000000005","206.4","988.3649","11.41","66.31","NAN","0.0"],
    [1541759,"2026-02-14 00:40:00","53515","1.6480000000000001","199.8","5.651","216.0","988.3525","11.42","66.14","NAN","0.0"],
    [1541760,"2026-02-14 00:50:00","53516","1.7919999999999998","184.3","4.1160000000000005","167.3","988.3425","11.39","65.52","NAN","0.0"],
    [1541761,"2026-02-14 01:00:00","53517","1.3730000000000002","167.6","3.299","159.6","988.36","11.32","65.52","NAN","0.0"],
    [1541762,"2026-02-14 01:10:00","53518","1.162","178.0","2.679","195.4","988.5421","11.4","65.35","NAN","0.0"],
    [1541763,"2026-02-14 01:20:00","53519","2.012","352.3","5.7170000000000005","322.6","988.7692","11.39","64.32","NAN","0.0"],
    [1541764,"2026-02-14 01:30:00","53520","1.412","327.7","4.181","308.7","988.8631","11.4","63.74","NAN","0.0"],
    [1541765,"2026-02-14 01:40:00","53521","1.078","14.55","5.325","293.8","988.9381","11.31","64.23","NAN","0.0"],
    [1541766,"2026-02-14 01:50:00","53522","1.29","330.7","3.5610000000000004","220.6","989.1301","11.25","64.15","NAN","0.0"],
    [1541767,"2026-02-14 02:00:00","53523","1.355","287.0","4.1160000000000005","248.6","989.2842","11.3","63.52","NAN","0.0"],
    [1541768,"2026-02-14 02:10:00","53524","1.1540000000000001","301.8","3.136","314.6","989.3691","11.25","63.77","NAN","0.0"],
    [1541769,"2026-02-14 02:20:00","53525","1.492","288.2","3.267","266.4","989.4288","11.2","63.6","NAN","0.0"],
    [1541770,"2026-02-14 02:30:00","53526","0.525","231.1","1.8619999999999999","189.1","989.5485","11.14","64.25","NAN","0.0"],
    [1541771,"2026-02-14 02:40:00","53527","1.1840000000000002","262.1","3.822","285.8","989.6132","11.11","64.24","NAN","0.0"],
    [1541772,"2026-02-14 02:50:00","53528","1.406","305.8","3.985","284.8","989.7201","11.17","63.73","NAN","0.0"],
    [1541773,"2026-02-14 03:00:00","53529","1.916","297.6","3.985","284.8","989.7926","11.16","63.4","NAN","0.0"],
    [1541774,"2026-02-14 03:10:00","53530","1.3840000000000001","302.1","3.332","283.6","989.9122","11.11","63.55","NAN","0.0"],
    [1541775,"2026-02-14 03:20:00","53531","1.621","332.5","3.822","18.84","990.0892","11.07","63.45","NAN","0.0"],
    [1541776,"2026-02-14 03:30:00","53532","1.72","352.4","4.377","325.6","990.3007","11.08","62.73","NAN","0.0"],
    [1541777,"2026-02-14 03:40:00","53533","0.7","0.17300000000000001","1.5030000000000001","43.19","990.4203","10.99","63.04","NAN","0.0"],
    [1541778,"2026-02-14 03:50:00","53534","1.224","268.3","2.907","244.2","990.5723","11.04","62.75","NAN","0.0"],
    [1541779,"2026-02-14 04:00:00","53535","1.554","284.1","3.855","294.9","990.8365","11.01","62.34","NAN","0.0"],
    [1541780,"2026-02-14 04:10:00","53536","1.061","263.4","3.5610000000000004","289.3","990.9446","10.96","61.68","NAN","0.0"],
    [1541781,"2026-02-14 04:20:00","53537","0.9670000000000001","327.6","2.5810000000000004","279.2","991.0939","10.97","61.38","NAN","0.0"],
    [1541782,"2026-02-14 04:30:00","53538","0.7390000000000001","319.8","2.352","357.3","991.2397","10.85","61.47","NAN","0.0"],
    [1541783,"2026-02-14 04:40:00","53539","1.254","281.2","3.43","274.4","991.3246","10.83","61.19","NAN","0.0"],
    [1541784,"2026-02-14 04:50:00","53540","0.836","21.31","3.299","64.09","991.3557","10.79","61.56","NAN","0.0"],
    [1541785,"2026-02-14 05:00:00","53541","1.568","309.5","4.867","36.43","991.4197","10.8","61.12","NAN","0.0"],
    [1541786,"2026-02-14 05:10:00","53542","1.4080000000000001","293.5","4.051","312.4","991.4910000000001","10.85","60.96","NAN","0.0"],
    [1541787,"2026-02-14 05:20:00","53543","1.95","281.3","4.802","298.1","991.6075","10.91","60.21","NAN","0.0"],
    [1541788,"2026-02-14 05:30:00","53544","1.9409999999999998","296.0","3.463","299.8","991.7477","10.94","60.16","NAN","0.0"],
    [1541789,"2026-02-14 05:40:00","53545","2.0909999999999997","286.4","6.042999999999999","292.1","991.8771","10.99","59.26","NAN","0.0"],
    [1541790,"2026-02-14 05:50:00","53546","1.732","292.2","3.887","264.7","991.9897","11.01","58.69","NAN","0.0"],
    [1541791,"2026-02-14 06:00:00","53547","2.7239999999999998","292.1","6.7620000000000005","355.2","992.1443","11.01","58.4","NAN","0.0"],
    [1541792,"2026-02-14 06:10:00","53548","2.037","276.7","5.521","291.7","992.2393","11.04","57.91","NAN","0.0"],
    [1541793,"2026-02-14 06:20:00","53549","2.469","285.5","5.553","284.2","992.3381","11.06","58.08","NAN","0.0"],
    [1541794,"2026-02-14 06:30:00","53550","2.254","293.8","5.684","273.7","992.4171","11.12","57.5","NAN","0.0"],
    [1541795,"2026-02-14 06:40:00","53551","2.388","296.1","6.1739999999999995","237.1","992.5674","11.1","57.59","NAN","0.0"],
    [1541796,"2026-02-14 06:50:00","53552","2.055","296.0","5.7170000000000005","239.2","992.9086","11.08","57.73","NAN","0.0"],
    [1541797,"2026-02-14 07:00:00","53553","1.902","292.3","5.031000000000001","359.7","993.187","10.93","58.6","NAN","0.0"],
    [1541798,"2026-02-14 07:10:00","53554","1.385","307.1","3.887","349.2","993.3952","10.82","58.96","NAN","0.0"],
    [1541799,"2026-02-14 07:20:00","53555","2.017","319.4","6.109","313.8","993.6588","10.83","58.41","NAN","0.0"],
    [1541800,"2026-02-14 07:30:00","53556","1.5759999999999998","311.8","4.933","303.8","993.8889","10.9","58.1","NAN","0.0"],
    [1541801,"2026-02-14 07:40:00","53557","1.6909999999999998","329.3","4.377","319.5","994.2131","10.91","57.62","NAN","0.0"],
    [1541802,"2026-02-14 07:50:00","53558","1.4","280.7","3.7889999999999997","256.2","994.4602","10.9","57.66","NAN","0.0"],
    [1541803,"2026-02-14 08:00:00","53559","1.6159999999999999","277.7","3.887","304.0","994.7283","10.92","57.22","NAN","0.0"],
    [1541804,"2026-02-14 08:10:00","53560","1.016","224.5","2.417","238.5","994.9636","10.99","57.21","NAN","0.0"],
    [1541805,"2026-02-14 08:20:00","53561","1.181","163.3","1.895","135.2","995.191","11.16","56.77","NAN","0.0"],
    [1541806,"2026-02-14 08:30:00","53562","1.517","152.5","4.475","178.7","995.3677","11.1","56.4","NAN","0.0"],
    [1541807,"2026-02-14 08:40:00","53563","0.892","145.3","1.9269999999999998","127.5","995.5097","11.5","55.24","NAN","0.0"],
    [1541808,"2026-02-14 08:50:00","53564","1.159","132.0","2.5810000000000004","161.0","995.7192","12.01","53.74","NAN","0.0"],
    [1541809,"2026-02-14 09:00:00","53565","1.055","154.8","2.417","329.4","995.9401","12.42","52.41","NAN","0.0"],
    [1541810,"2026-02-14 09:10:00","53566","0.996","83.5","2.7769999999999997","90.7","996.0134","12.81","51.28","NAN","0.0"],
    [1541811,"2026-02-14 09:20:00","53567","1.493","90.0","3.0380000000000003","109.6","996.0855","13.24","49.71","NAN","0.0"],
    [1541812,"2026-02-14 09:30:00","53568","1.032","165.9","2.254","87.6","996.2674","13.42","49.74","NAN","0.0"],
    [1541813,"2026-02-14 09:40:00","53569","1.265","171.8","2.7439999999999998","160.2","996.3567","13.66","48.9","NAN","0.0"],
    [1541814,"2026-02-14 09:50:00","53570","1.252","220.1","3.136","250.3","996.4662","13.8","48.34","NAN","0.0"],
    [1541815,"2026-02-14 10:00:00","53571","1.63","250.7","4.345","288.4","996.5712","13.98","47.72","NAN","0.0"],
    [1541816,"2026-02-14 10:10:00","53572","1.662","308.4","5.7170000000000005","296.0","996.778","14.23","47.52","NAN","0.0"],
    [1541817,"2026-02-14 10:20:00","53573","1.854","357.2","5.521","302.5","996.9797","14.46","46.75","NAN","0.0"],
    [1541818,"2026-02-14 10:30:00","53574","1.9909999999999999","7.309","3.9530000000000003","16.3","997.1838","14.55","46.76","NAN","0.0"],
    [1541819,"2026-02-14 10:40:00","53575","2.306","326.9","6.501","313.2","997.2632","14.87","46.32","NAN","0.0"],
    [1541820,"2026-02-14 10:50:00","53576","2.383","327.8","5.684","338.1","997.3757","14.87","46.39","NAN","0.0"],
    [1541821,"2026-02-14 11:00:00","53577","2.7319999999999998","331.7","6.239","2.79","997.5373","15.12","45.51","NAN","0.0"],
    [1541822,"2026-02-14 11:10:00","53578","3.23","321.5","8.04","323.3","997.6472","15.12","45.11","NAN","0.0"],
    [1541823,"2026-02-14 11:20:00","53579","3.6","325.2","7.35","339.2","997.7439999999999","15.33","44.65","NAN","0.0"],
    [1541824,"2026-02-14 11:30:00","53580","3.701","325.1","8.59","317.6","997.8912","15.3","44.56","NAN","0.0"],
    [1541825,"2026-02-14 11:40:00","53581","2.838","325.4","7.056","326.4","997.9758","15.84","43.89","NAN","0.0"],
    [1541826,"2026-02-14 11:50:00","53582","3.3110000000000004","328.9","7.546","302.4","998.1026","16","43.59","NAN","0.0"],
    [1541827,"2026-02-14 12:00:00","53583","2.5989999999999998","320.6","7.154","345.0","998.2303","16.31","42.6","NAN","0.0"],
    [1541828,"2026-02-14 12:10:00","53584","2.639","328.0","7.481","312.3","998.4042","16.55","41.96","NAN","0.0"],
    [1541829,"2026-02-14 12:20:00","53585","2.415","325.7","7.285","319.1","998.666","16.89","41.72","NAN","0.0"],
    [1541830,"2026-02-14 12:30:00","53586","2.432","325.1","8.26","322.9","998.8251","16.94","41.48","NAN","0.0"],
    [1541831,"2026-02-14 12:40:00","53587","1.982","328.3","7.775","318.6","998.9823","17.25","40.76","NAN","0.0"],
    [1541832,"2026-02-14 12:50:00","53588","2.075","336.8","5.325","338.5","999.1489999999999","17.47","39.48","NAN","0.0"],
    [1541833,"2026-02-14 13:00:00","53589","2.506","328.3","6.9910000000000005","308.6","999.3333","17.73","38.8","NAN","0.0"],
    [1541834,"2026-02-14 13:10:00","53590","3.161","330.6","7.0889999999999995","327.9","999.4902","17.58","38.81","NAN","0.0"],
    [1541835,"2026-02-14 13:20:00","53591","2.9930000000000003","329.7","7.317","319.5","999.6346","17.76","38.36","NAN","0.0"],
    [1541836,"2026-02-14 13:30:00","53592","2.72","318.5","6.109","300.5","999.804","17.81","38.18","NAN","0.0"],
    [1541837,"2026-02-14 13:40:00","53593","1.92","299.1","5.815","283.8","999.9128","18.07","38.52","NAN","0.0"],
    [1541838,"2026-02-14 13:50:00","53594","1.876","295.0","5.1610000000000005","296.3","1000.038","18.45","38.13","NAN","0.0"],
    [1541839,"2026-02-14 14:00:00","53595","2.057","289.2","5.4879999999999995","261.6","1000.058","18.39","38.17","NAN","0.0"],
    [1541840,"2026-02-14 14:10:00","53596","2.3280000000000003","322.8","5.978","237.7","1000.1619999999999","18.42","38.11","NAN","0.0"],
    [1541841,"2026-02-14 14:20:00","53597","2.707","39.36","5.88","309.2","1000.605","17.57","47.38","NAN","0.0"],
    [1541842,"2026-02-14 14:30:00","53598","3.2739999999999996","57.81","8.36","67.49","1000.8439999999999","15.63","62.01","NAN","0.0"],
    [1541843,"2026-02-14 14:40:00","53599","4.1930000000000005","68.86","9.11","70.5","1001.076","14.47","67.63","NAN","0.0"],
    [1541844,"2026-02-14 14:50:00","53600","3.2039999999999997","77.95","6.141","68.01","1001.3489999999999","14.53","67.35","NAN","0.0"],
    [1541845,"2026-02-14 15:00:00","53601","2.799","73.88","7.285","74.07","1001.555","14.47","66.98","NAN","0.0"],
    [1541846,"2026-02-14 15:10:00","53602","2.1390000000000002","63.15","5.422999999999999","65.12","1001.712","14.53","66.75","NAN","0.0"],
    [1541847,"2026-02-14 15:20:00","53603","2.36","77.56","5.063","117.4","1001.8960000000001","14.31","68.69","NAN","0.0"],
    [1541848,"2026-02-14 15:30:00","53604","2.685","71.73","4.41","77.7","1002.06","14.27","68.88","NAN","0.0"],
    [1541849,"2026-02-14 15:40:00","53605","2.127","70.24","4.638999999999999","63.5","1002.222","14.22","68.83","NAN","0.0"],
    [1541850,"2026-02-14 15:50:00","53606","2.7060000000000004","70.96","5.619","74.46","1002.367","13.97","69.74","NAN","0.0"],
    [1541851,"2026-02-14 16:00:00","53607","2.013","79.57","4.377","72.6","1002.554","13.92","70.2","NAN","0.0"],
    [1541852,"2026-02-14 16:10:00","53608","1.409","80.7","3.463","87.1","1002.805","14.04","70.41","NAN","0.0"],
    [1541853,"2026-02-14 16:20:00","53609","1.936","85.3","3.6260000000000003","85.3","1002.992","13.8","69.78","NAN","0.0"],
    [1541854,"2026-02-14 16:30:00","53610","0.9570000000000001","74.75","2.7110000000000003","66.28","1003.184","13.97","67.25","NAN","0.0"],
    [1541855,"2026-02-14 16:40:00","53611","1.2930000000000001","90.4","2.9730000000000003","88.5","1003.525","14.07","68.03","NAN","0.0"],
    [1541856,"2026-02-14 16:50:00","53612","1.704","93.9","3.6910000000000003","94.1","1003.846","13.83","70.03","NAN","0.0"],
    [1541857,"2026-02-14 17:00:00","53613","1.351","58.77","2.875","82.9","1004.113","13.69","71.01","NAN","0.0"],
    [1541858,"2026-02-14 17:10:00","53614","0.981","66.95","2.9730000000000003","48.87","1004.2869999999999","13.66","70.19","NAN","0.0"],
    [1541859,"2026-02-14 17:20:00","53615","0.551","52.48","1.4369999999999998","64.94","1004.5210000000001","13.58","69.71","NAN","0.0"],
    [1541860,"2026-02-14 17:30:00","53616","0.457","11.9","1.176","67.37","1004.895","13.69","67.25","NAN","0.0"],
    [1541861,"2026-02-14 17:40:00","53617","0.382","156.5","1.339","171.2","1005.242","13.73","67.44","NAN","0.0"],
    [1541862,"2026-02-14 17:50:00","53618","0.5","120.4","1.339","153.0","1005.482","13.49","71.75","NAN","0.0"],
    [1541863,"2026-02-14 18:00:00","53619","0.878","49.68","2.025","68.36","1005.813","13.38","75.17","NAN","0.0"],
    [1541864,"2026-02-14 18:10:00","53620","2.133","356.0","8.13","343.0","1006.0419999999999","14.53","51.6","NAN","0.0"],
    [1541865,"2026-02-14 18:20:00","53621","3.2110000000000003","331.4","7.971","317.9","1006.199","16.5","30.36","NAN","0.0"],
    [1541866,"2026-02-14 18:30:00","53622","3.063","332.4","8.3","306.6","1006.393","16.52","29.4","NAN","0.0"],
    [1541867,"2026-02-14 18:40:00","53623","3.6239999999999997","331.3","6.435","301.0","1006.7689999999999","16.46","28.54","NAN","0.0"],
    [1541868,"2026-02-14 18:50:00","53624","3.148","331.3","7.252000000000001","334.2","1006.9060000000001","16.42","28.03","NAN","0.0"],
    [1541869,"2026-02-14 19:00:00","53625","3.5380000000000003","336.8","7.252000000000001","353.6","1007.197","16.44","27.09","NAN","0.0"],
    [1541870,"2026-02-14 19:10:00","53626","3.364","328.6","7.775","320.8","1007.615","16.36","27.09","NAN","0.0"],
    [1541871,"2026-02-14 19:20:00","53627","2.421","330.8","6.435","345.7","1007.809","16.2","27.34","NAN","0.0"],
    [1541872,"2026-02-14 19:30:00","53628","1.9409999999999998","326.2","5.586","324.8","1008.076","15.91","28.19","NAN","0.0"],
    [1541873,"2026-02-14 19:40:00","53629","1.8459999999999999","330.8","4.638999999999999","304.7","1008.263","15.74","28.49","NAN","0.0"],
    [1541874,"2026-02-14 19:50:00","53630","2.155","333.5","4.312","320.5","1008.439","15.68","28.14","NAN","0.0"],
    [1541875,"2026-02-14 20:00:00","53631","1.764","328.2","3.495","311.0","1008.643","15.57","28.2","NAN","0.0"],
    [1541876,"2026-02-14 20:10:00","53632","2.04","319.4","5.031000000000001","310.1","1008.888","15.48","27.99","NAN","0.0"],
    [1541877,"2026-02-14 20:20:00","53633","1.767","329.4","5.1610000000000005","340.0","1009.27","15.4","27.82","NAN","0.0"],
    [1541878,"2026-02-14 20:30:00","53634","1.755","323.6","4.671","294.8","1009.687","15.29","27.97","NAN","0.0"],
    [1541879,"2026-02-14 20:40:00","53635","2.4290000000000003","324.6","6.1739999999999995","334.2","1009.813","15.29","27.44","NAN","0.0"],
    [1541880,"2026-02-14 20:50:00","53636","2.376","334.2","5.749","304.7","1009.934","15.44","26.31","NAN","0.0"],
    [1541881,"2026-02-14 21:00:00","53637","2.494","332.0","5.651","308.6","1010.301","15.66","24.73","NAN","0.0"],
    [1541882,"2026-02-14 21:10:00","53638","1.9069999999999998","329.9","4.835","333.9","1010.686","15.49","24.96","NAN","0.0"],
    [1541883,"2026-02-14 21:20:00","53639","1.695","345.4","4.279","291.2","1010.812","15.35","24.28","NAN","0.0"],
    [1541884,"2026-02-14 21:30:00","53640","1.673","10.36","6.1739999999999995","15.46","1011.028","15.08","24.22","NAN","0.0"],
    [1541885,"2026-02-14 21:40:00","53641","1.485","352.4","3.92","25.86","1011.2280000000001","14.93","24.22","NAN","0.0"],
    [1541886,"2026-02-14 21:50:00","53642","1.992","329.3","5.357","296.6","1011.26","14.95","23.91","NAN","0.0"],
    [1541887,"2026-02-14 22:00:00","53643","2.325","330.5","3.9530000000000003","318.7","1011.373","14.87","23.87","NAN","0.0"],
    [1541888,"2026-02-14 22:10:00","53644","2.274","336.8","4.41","308.1","1011.427","14.76","24.21","NAN","0.0"],
    [1541889,"2026-02-14 22:20:00","53645","1.395","339.3","2.9730000000000003","339.1","1011.414","14.47","25.26","NAN","0.0"],
    [1541890,"2026-02-14 22:30:00","53646","1.215","285.1","3.234","320.5","1011.7410000000001","14.33","27.16","NAN","0.0"],
    [1541891,"2026-02-14 22:40:00","53647","1.794","257.0","4.41","288.3","1011.959","13.98","28.98","NAN","0.0"],
    [1541892,"2026-02-14 22:50:00","53648","1.966","253.3","6.501","235.5","1012.232","13.71","30.28","NAN","0.0"],
    [1541893,"2026-02-14 23:00:00","53649","2.035","239.0","4.475","235.5","1012.329","13.38","32.55","NAN","0.0"],
    [1541894,"2026-02-14 23:10:00","53650","1.6569999999999998","249.2","4.4430000000000005","286.5","1012.382","13.13","34.54","NAN","0.0"],
    [1541895,"2026-02-14 23:20:00","53651","1.36","279.2","4.345","282.7","1012.3760000000001","13.03","35.8","NAN","0.0"],
    [1541896,"2026-02-14 23:30:00","53652","1.848","287.4","5.292000000000001","312.8","1012.2669999999999","12.85","37.05","NAN","0.0"],
    [1541897,"2026-02-14 23:40:00","53653","2.7439999999999998","260.7","7.252000000000001","251.9","1012.3439999999999","12.57","38.87","NAN","0.0"],
    [1541898,"2026-02-14 23:50:00","53654","2.886","256.4","6.729","283.9","1012.427","12.11","41.39","NAN","0.0"],
    [1541899,"2026-02-15 00:00:00","53655","3.0869999999999997","266.0","8.62","253.3","1012.5980000000001","11.72","44.08","NAN","0.0"],
    [1541900,"2026-02-15 00:10:00","53656","3.012","268.8","9.93","278.3","1012.395","11.41","46.1","NAN","0.0"],
    [1541901,"2026-02-15 00:20:00","53657","2.3369999999999997","281.0","7.644","299.4","1012.3530000000001","11.14","47.83","NAN","0.0"],
    [1541902,"2026-02-15 00:30:00","53658","2.6719999999999997","286.3","6.925","273.7","1012.3510000000001","10.96","48.85","NAN","0.0"],
    [1541903,"2026-02-15 00:40:00","53659","2.775","276.4","7.807","268.3","1012.238","10.93","48.5","NAN","0.0"],
    [1541904,"2026-02-15 00:50:00","53660","2.9360000000000004","282.6","7.938","286.1","1011.937","10.93","48.16","NAN","0.0"],
    [1541905,"2026-02-15 01:00:00","53661","2.94","276.1","5.88","269.4","1011.696","10.81","48.62","NAN","0.0"],
    [1541906,"2026-02-15 01:10:00","53662","3.2769999999999997","277.9","7.154","276.4","1011.9119999999999","10.64","49.73","NAN","0.0"],
    [1541907,"2026-02-15 01:20:00","53663","2.932","282.3","8.23","308.0","1012.065","10.54","50.06","NAN","0.0"],
    [1541908,"2026-02-15 01:30:00","53664","3.4610000000000003","270.9","9.7","215.1","1011.8969999999999","10.49","50.24","NAN","0.0"],
    [1541909,"2026-02-15 01:40:00","53665","3.158","276.2","7.971","282.1","1011.794","10.38","50.66","NAN","0.0"],
    [1541910,"2026-02-15 01:50:00","53666","3.2310000000000003","281.3","8.66","314.4","1011.672","10.33","50.61","NAN","0.0"],
    [1541911,"2026-02-15 02:00:00","53667","3.155","262.3","7.0889999999999995","300.6","1011.721","10.28","50.71","NAN","0.0"],
    [1541912,"2026-02-15 02:10:00","53668","3.031","271.0","9.8","283.3","1011.8510000000001","10.23","50.81","NAN","0.0"],
    [1541913,"2026-02-15 02:20:00","53669","3.321","302.0","8.53","277.6","1012.0010000000001","10.16","51.03","NAN","0.0"],
    [1541914,"2026-02-15 02:30:00","53670","2.7739999999999996","318.9","10.85","309.3","1012.13","10.17","50.42","NAN","0.0"],
    [1541915,"2026-02-15 02:40:00","53671","2.431","288.4","6.827000000000001","307.1","1012.297","10.2","49.62","NAN","0.0"],
    [1541916,"2026-02-15 02:50:00","53672","2.425","300.9","8.98","315.4","1012.312","10.17","49.38","NAN","0.0"],
    [1541917,"2026-02-15 03:00:00","53673","3.165","320.7","7.6770000000000005","331.9","1012.309","10.13","49.51","NAN","0.0"],
    [1541918,"2026-02-15 03:10:00","53674","4.115","324.9","10.94","341.6","1012.289","10.2","48.42","NAN","0.0"],
    [1541919,"2026-02-15 03:20:00","53675","3.6","319.3","7.872999999999999","306.4","1012.2739999999999","10.31","47.32","NAN","0.0"],
    [1541920,"2026-02-15 03:30:00","53676","3.2510000000000003","325.9","10.0","330.0","1012.2869999999999","10.26","47.42","NAN","0.0"],
    [1541921,"2026-02-15 03:40:00","53677","2.286","322.6","6.239","310.0","1012.559","10.26","47.14","NAN","0.0"],
    [1541922,"2026-02-15 03:50:00","53678","1.588","348.3","6.207000000000001","302.0","1012.6360000000001","10.36","46.13","NAN","0.0"],
    [1541923,"2026-02-15 04:00:00","53679","1.945","345.3","5.325","302.2","1012.84","10.51","44.21","NAN","0.0"],
    [1541924,"2026-02-15 04:10:00","53680","1.3119999999999998","55.04","5.422999999999999","310.8","1013.1","10.51","43.73","NAN","0.0"],
    [1541925,"2026-02-15 04:20:00","53681","0.879","32.2","2.385","34.27","1013.421","10.14","45.56","NAN","0.0"],
    [1541926,"2026-02-15 04:30:00","53682","1.395","91.8","3.071","108.3","1013.857","10.16","45.6","NAN","0.0"],
    [1541927,"2026-02-15 04:40:00","53683","1.6540000000000001","90.3","4.1160000000000005","96.4","1014.076","10.19","45.78","NAN","0.0"],
    [1541928,"2026-02-15 04:50:00","53684","1.065","107.4","2.8089999999999997","132.2","1014.186","9.77","48.01","NAN","0.0"],
    [1541929,"2026-02-15 05:00:00","53685","0.909","45.04","2.875","148.8","1014.3580000000001","9.63","48.57","NAN","0.0"],
    [1541930,"2026-02-15 05:10:00","53686","1.575","56.31","3.659","41.78","1014.607","9.54","47.82","NAN","0.0"],
    [1541931,"2026-02-15 05:20:00","53687","1.9769999999999999","27.53","4.018","12.55","1014.7760000000001","9.61","47.42","NAN","0.0"],
    [1541932,"2026-02-15 05:30:00","53688","1.413","14.4","3.6260000000000003","7.861000000000001","1014.949","9.6","47.2","NAN","0.0"],
    [1541933,"2026-02-15 05:40:00","53689","1.254","11.19","2.515","2.082","1015.227","9.68","47","NAN","0.0"],
    [1541934,"2026-02-15 05:50:00","53690","1.0","2.032","2.287","15.12","1015.299","9.56","47.74","NAN","0.0"],
    [1541935,"2026-02-15 06:00:00","53691","1.195","40.21","2.417","58.68","1015.549","9.22","49.51","NAN","0.0"],
    [1541936,"2026-02-15 06:10:00","53692","1.368","22.44","2.907","11.4","1015.773","9.06","50.25","NAN","0.0"],
    [1541937,"2026-02-15 06:20:00","53693","1.043","12.71","2.7110000000000003","15.21","1016.175","9.07","50.18","NAN","0.0"],
    [1541938,"2026-02-15 06:30:00","53694","0.6579999999999999","350.2","1.9269999999999998","359.4","1016.46","9.04","50.55","NAN","0.0"],
    [1541939,"2026-02-15 06:40:00","53695","1.275","42.58","1.9269999999999998","47.04","1016.4630000000001","8.89","51.44","NAN","0.0"],
    [1541940,"2026-02-15 06:50:00","53696","0.703","12.07","2.5810000000000004","35.73","1016.508","8.62","52.96","NAN","0.0"],
    [1541941,"2026-02-15 07:00:00","53697","0.9490000000000001","22.67","2.6460000000000004","5.978","1016.65","8.68","53.04","NAN","0.0"],
    [1541942,"2026-02-15 07:10:00","53698","1.09","32.9","2.156","38.2","1016.827","8.54","53.93","NAN","0.0"],
    [1541943,"2026-02-15 07:20:00","53699","0.958","27.58","1.895","45.44","1017.058","8.39","54.98","NAN","0.0"],
    [1541944,"2026-02-15 07:30:00","53700","1.2590000000000001","358.7","2.6460000000000004","38.09","1017.1460000000001","8.5","54.46","NAN","0.0"],
    [1541945,"2026-02-15 07:40:00","53701","1.618","324.0","3.528","308.3","1017.385","8.95","53.17","NAN","0.0"],
    [1541946,"2026-02-15 07:50:00","53702","1.474","338.7","3.397","341.5","1017.529","9.22","52.4","NAN","0.0"],
    [1541947,"2026-02-15 08:00:00","53703","1.403","337.7","3.0380000000000003","348.2","1017.706","9.47","51.76","NAN","0.0"],
    [1541948,"2026-02-15 08:10:00","53704","1.186","354.0","2.7439999999999998","41.49","1017.716","9.63","50.71","NAN","0.0"],
    [1541949,"2026-02-15 08:20:00","53705","1.278","3.73","3.0380000000000003","18.41","1017.831","9.77","50.16","NAN","0.0"],
    [1541950,"2026-02-15 08:30:00","53706","1.276","332.3","4.4430000000000005","312.2","1017.9830000000001","9.72","50.61","NAN","0.0"],
    [1541951,"2026-02-15 08:40:00","53707","1.619","330.6","3.43","311.3","1017.929","9.96","50.57","NAN","0.0"],
    [1541952,"2026-02-15 08:50:00","53708","1.425","326.2","3.9530000000000003","306.0","1017.9580000000001","10.25","49.57","NAN","0.0"],
    [1541953,"2026-02-15 09:00:00","53709","1.334","316.0","3.1689999999999996","323.2","1017.985","10.43","48.02","NAN","0.0"],
    [1541954,"2026-02-15 09:10:00","53710","1.746","334.5","3.593","356.4","1018.17","10.86","46.58","NAN","0.0"],
    [1541955,"2026-02-15 09:20:00","53711","1.4680000000000002","331.5","3.495","309.6","1018.2360000000001","11.33","45.49","NAN","0.0"],
    [1541956,"2026-02-15 09:30:00","53712","1.4880000000000002","334.7","3.7889999999999997","349.0","1018.193","11.77","44.18","NAN","0.0"],
    [1541957,"2026-02-15 09:40:00","53713","1.889","317.4","5.292000000000001","309.6","1018.195","11.82","44.1","NAN","0.0"],
    [1541958,"2026-02-15 09:50:00","53714","1.69","319.4","3.92","281.5","1018.352","11.99","44.46","NAN","0.0"],
    [1541959,"2026-02-15 10:00:00","53715","1.829","325.4","4.4430000000000005","321.1","1018.245","12.26","43.67","NAN","0.0"],
    [1541960,"2026-02-15 10:10:00","53716","2.499","334.9","5.847","316.4","1018.262","12.06","43.38","NAN","0.0"],
    [1541961,"2026-02-15 10:20:00","53717","1.568","325.6","3.9530000000000003","293.0","1018.315","11.88","44.76","NAN","0.0"],
    [1541962,"2026-02-15 10:30:00","53718","1.6369999999999998","336.3","3.528","319.9","1018.367","11.9","45.36","NAN","0.0"],
    [1541963,"2026-02-15 10:40:00","53719","1.99","329.0","3.7569999999999997","350.8","1018.442","11.99","44.3","NAN","0.0"],
    [1541964,"2026-02-15 10:50:00","53720","1.128","323.5","2.483","328.9","1018.419","12.11","44.09","NAN","0.0"],
    [1541965,"2026-02-15 11:00:00","53721","0.871","333.8","2.548","312.9","1018.315","12.35","43.98","NAN","0.0"],
    [1541966,"2026-02-15 11:10:00","53722","1.056","299.6","2.189","318.6","1018.242","12.96","42.87","NAN","0.0"],
    [1541967,"2026-02-15 11:20:00","53723","1.351","13.06","2.9730000000000003","4.293","1018.23","13.04","43.31","NAN","0.0"],
    [1541968,"2026-02-15 11:30:00","53724","1.19","311.4","3.43","269.8","1018.018","13.13","43.23","NAN","0.0"],
    [1541969,"2026-02-15 11:40:00","53725","1.001","293.2","4.638999999999999","226.3","1017.916","13.38","43.12","NAN","0.0"],
    [1541970,"2026-02-15 11:50:00","53726","1.744","239.6","3.9530000000000003","239.0","1017.816","13.78","42.5","NAN","0.0"],
    [1541971,"2026-02-15 12:00:00","53727","1.258","217.6","2.875","217.8","1017.801","14.12","42.4","NAN","0.0"],
    [1541972,"2026-02-15 12:10:00","53728","1.062","189.0","2.385","169.6","1017.817","13.92","43.29","NAN","0.0"],
    [1541973,"2026-02-15 12:20:00","53729","1.74","247.5","4.312","299.4","1017.699","14.49","42.71","NAN","0.0"],
    [1541974,"2026-02-15 12:30:00","53730","1.7209999999999999","247.8","3.7569999999999997","254.1","1017.413","14.89","42.02","NAN","0.0"],
    [1541975,"2026-02-15 12:40:00","53731","2.083","257.1","4.704","277.2","1017.326","14.94","42.09","NAN","0.0"],
    [1541976,"2026-02-15 12:50:00","53732","3.135","177.7","6.305","177.3","1017.079","13.77","46.92","NAN","0.0"],
    [1541977,"2026-02-15 13:00:00","53733","2.905","197.3","4.998","216.0","1016.837","13.92","45.38","NAN","0.0"],
    [1541978,"2026-02-15 13:10:00","53734","2.593","200.1","5.292000000000001","199.5","1016.698","13.86","46.18","NAN","0.0"],
    [1541979,"2026-02-15 13:20:00","53735","2.55","207.4","5.4879999999999995","195.6","1016.671","13.81","45.39","NAN","0.0"],
    [1541980,"2026-02-15 13:30:00","53736","2.343","216.9","5.1610000000000005","225.7","1016.753","14.12","44.61","NAN","0.0"],
    [1541981,"2026-02-15 13:40:00","53737","1.943","213.8","4.018","196.5","1016.72","14.33","44.79","NAN","0.0"],
    [1541982,"2026-02-15 13:50:00","53738","2.503","214.1","5.422999999999999","223.0","1016.596","13.98","46.25","NAN","0.0"],
    [1541983,"2026-02-15 14:00:00","53739","2.204","195.0","4.573","187.5","1016.456","13.72","49.63","NAN","0.0"],
    [1541984,"2026-02-15 14:10:00","53740","2.654","187.8","4.704","174.3","1016.6389999999999","13.22","54.12","NAN","0.0"],
    [1541985,"2026-02-15 14:20:00","53741","2.2159999999999997","195.4","4.312","185.3","1016.556","13.14","56.85","NAN","0.0"],
    [1541986,"2026-02-15 14:30:00","53742","2.173","195.5","4.377","184.4","1016.377","13.23","57.67","NAN","0.0"],
    [1541987,"2026-02-15 14:40:00","53743","2.004","214.1","3.6910000000000003","178.2","1016.462","13.49","55.6","NAN","0.0"],
    [1541988,"2026-02-15 14:50:00","53744","1.6219999999999999","215.8","3.005","213.2","1016.4889999999999","13.75","52.16","NAN","0.0"],
    [1541989,"2026-02-15 15:00:00","53745","2.005","211.7","3.822","206.7","1016.322","13.81","52.88","NAN","0.0"],
    [1541990,"2026-02-15 15:10:00","53746","1.9340000000000002","210.9","4.541","197.6","1016.284","13.55","52.5","NAN","0.0"],
    [1541991,"2026-02-15 15:20:00","53747","1.672","209.2","3.7239999999999998","198.8","1016.177","13.49","53.74","NAN","0.0"],
    [1541992,"2026-02-15 15:30:00","53748","1.443","205.3","3.365","210.4","1015.961","13.29","55.05","NAN","0.0"],
    [1541993,"2026-02-15 15:40:00","53749","1.775","219.1","3.495","230.4","1015.841","13.28","54.33","NAN","0.0"],
    [1541994,"2026-02-15 15:50:00","53750","1.746","220.7","3.9530000000000003","188.1","1015.8910000000001","13.38","55.38","NAN","0.0"],
    [1541995,"2026-02-15 16:00:00","53751","1.624","212.6","3.43","197.1","1015.812","13.38","56.66","NAN","0.0"],
    [1541996,"2026-02-15 16:10:00","53752","1.879","215.3","3.299","217.0","1015.9010000000001","13.27","57.4","NAN","0.0"],
    [1541997,"2026-02-15 16:20:00","53753","1.915","237.4","4.638999999999999","239.2","1015.941","13.25","56.63","NAN","0.0"],
    [1541998,"2026-02-15 16:30:00","53754","1.226","222.7","2.613","266.1","1015.868","13.39","56.41","NAN","0.0"],
    [1541999,"2026-02-15 16:40:00","53755","1.304","233.1","2.515","232.9","1015.59","13.36","57.16","NAN","0.0"],
    [1542000,"2026-02-15 16:50:00","53756","0.996","236.0","2.025","221.5","1015.684","13.35","58.34","NAN","0.0"],
    [1542001,"2026-02-15 17:00:00","53757","0.977","223.1","2.0909999999999997","252.5","1015.705","13.36","59.24","NAN","0.0"],
    [1542002,"2026-02-15 17:10:00","53758","0.713","248.9","2.025","225.7","1015.805","13.31","59.59","NAN","0.0"],
    [1542003,"2026-02-15 17:20:00","53759","0.8220000000000001","238.2","2.352","258.5","1016.0110000000001","13.4","59.4","NAN","0.0"],
    [1542004,"2026-02-15 17:30:00","53760","0.6970000000000001","236.3","2.025","231.9","1016.1110000000001","13.46","59.13","NAN","0.0"],
    [1542005,"2026-02-15 17:40:00","53761","0.456","168.0","0.8490000000000001","164.3","1016.171","13.28","60.68","NAN","0.0"],
    [1542006,"2026-02-15 17:50:00","53762","0.16","156.9","0.653","172.3","1016.072","13.12","61.6","NAN","0.0"],
    [1542007,"2026-02-15 18:00:00","53763","0.65","189.1","1.5030000000000001","177.9","1016.059","12.92","63.69","NAN","0.0"],
    [1542008,"2026-02-15 18:10:00","53764","0.188","170.5","0.9470000000000001","182.3","1016.168","12.93","65.01","NAN","0.0"],
    [1542009,"2026-02-15 18:20:00","53765","0.37200000000000005","189.8","0.8490000000000001","190.1","1015.961","12.98","64.04","NAN","0.0"],
    [1542010,"2026-02-15 18:30:00","53766","0.353","197.6","1.045","207.1","1015.966","13.19","63.21","NAN","0.0"],
    [1542011,"2026-02-15 18:40:00","53767","0.7440000000000001","244.8","2.842","211.8","1015.8839999999999","13.72","59.8","NAN","0.0"],
    [1542012,"2026-02-15 18:50:00","53768","0.8859999999999999","260.7","2.842","211.8","1016.0010000000001","14.52","55.03","NAN","0.0"],
    [1542013,"2026-02-15 19:00:00","53769","1.004","245.9","2.319","233.3","1015.9939999999999","14.73","53.63","NAN","0.0"],
    [1542014,"2026-02-15 19:10:00","53770","0.785","219.8","1.9269999999999998","222.8","1016.112","14.63","54.47","NAN","0.0"],
    [1542015,"2026-02-15 19:20:00","53771","0.816","239.3","1.895","229.0","1016.1460000000001","14.62","54.26","NAN","0.0"],
    [1542016,"2026-02-15 19:30:00","53772","0.491","238.8","1.601","220.2","1016.06","14.5","54.57","NAN","0.0"],
    [1542017,"2026-02-15 19:40:00","53773","0.987","236.9","2.221","250.0","1016.2389999999999","14.51","54.53","NAN","0.0"],
    [1542018,"2026-02-15 19:50:00","53774","0.765","211.7","1.601","201.9","1016.3","14.33","55.64","NAN","0.0"],
    [1542019,"2026-02-15 20:00:00","53775","1.1","257.3","3.43","180.7","1016.068","14.53","52.95","NAN","0.0"],
    [1542020,"2026-02-15 20:10:00","53776","2.185","262.0","5.357","260.5","1016.055","14.8","50.09","NAN","0.0"],
    [1542021,"2026-02-15 20:20:00","53777","2.0780000000000003","268.8","4.769","247.5","1016.5160000000001","14.86","48.94","NAN","0.0"],
    [1542022,"2026-02-15 20:30:00","53778","2.0909999999999997","280.2","5.422999999999999","286.0","1016.434","14.84","48.63","NAN","0.0"],
    [1542023,"2026-02-15 20:40:00","53779","2.231","277.6","5.194","300.1","1016.3580000000001","14.76","48.8","NAN","0.0"],
    [1542024,"2026-02-15 20:50:00","53780","1.617","275.2","4.083","296.1","1016.174","14.66","49.01","NAN","0.0"],
    [1542025,"2026-02-15 21:00:00","53781","1.581","284.4","4.051","279.1","1016.203","14.56","49.3","NAN","0.0"],
    [1542026,"2026-02-15 21:10:00","53782","2.002","264.5","4.802","256.2","1015.951","14.47","49.35","NAN","0.0"],
    [1542027,"2026-02-15 21:20:00","53783","3.1489999999999996","272.7","6.435","274.9","1015.8889999999999","14.45","49.14","NAN","0.0"],
    [1542028,"2026-02-15 21:30:00","53784","2.125","281.3","5.651","269.8","1015.699","14.38","49.21","NAN","0.0"],
    [1542029,"2026-02-15 21:40:00","53785","2.141","276.3","5.88","322.7","1015.643","14.36","49.09","NAN","0.0"],
    [1542030,"2026-02-15 21:50:00","53786","2.316","274.4","6.0760000000000005","262.9","1015.465","14.3","49.19","NAN","0.0"],
    [1542031,"2026-02-15 22:00:00","53787","2.072","304.8","4.802","297.7","1015.683","14.28","49.25","NAN","0.0"],
    [1542032,"2026-02-15 22:10:00","53788","1.409","316.2","3.6910000000000003","246.5","1015.68","14.13","49.87","NAN","0.0"],
    [1542033,"2026-02-15 22:20:00","53789","2.608","326.8","8.79","316.4","1015.705","14.04","50.19","NAN","0.0"],
    [1542034,"2026-02-15 22:30:00","53790","3.35","329.9","5.945","310.1","1015.645","14.01","50.31","NAN","0.0"],
    [1542035,"2026-02-15 22:40:00","53791","1.847","313.4","5.194","297.0","1015.488","13.93","50.67","NAN","0.0"],
    [1542036,"2026-02-15 22:50:00","53792","2.991","321.4","6.337000000000001","316.8","1015.4010000000001","13.87","51.05","NAN","0.0"],
    [1542037,"2026-02-15 23:00:00","53793","3.0410000000000004","319.8","7.6770000000000005","310.6","1015.426","13.84","51.23","NAN","0.0"],
    [1542038,"2026-02-15 23:10:00","53794","2.426","299.7","5.782","311.6","1015.427","13.82","51.46","NAN","0.0"],
    [1542039,"2026-02-15 23:20:00","53795","2.503","303.7","7.056","317.4","1015.329","13.75","51.83","NAN","0.0"],
    [1542040,"2026-02-15 23:30:00","53796","2.344","316.3","5.4879999999999995","263.5","1015.133","13.74","51.86","NAN","0.0"],
    [1542041,"2026-02-15 23:40:00","53797","2.31","309.8","6.207000000000001","326.9","1015.166","13.71","52.05","NAN","0.0"],
    [1542042,"2026-02-15 23:50:00","53798","2.645","324.7","5.978","308.2","1015.319","13.68","52.2","NAN","0.0"],
    [1542043,"2026-02-16 00:00:00","53799","2.4419999999999997","325.9","4.181","328.5","1015.5169999999999","13.74","52.05","NAN","0.0"],
    [1542044,"2026-02-16 00:10:00","53800","2.6710000000000003","326.1","4.573","312.7","1015.7819999999999","13.74","52.23","NAN","0.0"],
    [1542045,"2026-02-16 00:20:00","53801","1.639","294.1","4.867","301.4","1015.427","13.63","52.78","NAN","0.0"],
    [1542046,"2026-02-16 00:30:00","53802","2.145","320.6","4.606","306.9","1015.367","13.5","53.42","NAN","0.0"],
    [1542047,"2026-02-16 00:40:00","53803","2.013","320.3","5.096","329.5","1015.373","13.44","53.72","NAN","0.0"],
    [1542048,"2026-02-16 00:50:00","53804","2.008","327.6","4.671","315.8","1015.0219999999999","13.34","54.12","NAN","0.0"],
    [1542049,"2026-02-16 01:00:00","53805","1.9369999999999998","312.5","4.606","324.5","1014.868","13.28","54.41","NAN","0.0"],
    [1542050,"2026-02-16 01:10:00","53806","2.528","328.2","4.933","323.4","1015.165","13.26","54.7","NAN","0.0"],
    [1542051,"2026-02-16 01:20:00","53807","2.221","329.7","5.586","317.8","1015.3689999999999","13.32","54.73","NAN","0.0"],
    [1542052,"2026-02-16 01:30:00","53808","2.286","326.7","5.031000000000001","357.2","1015.3689999999999","13.42","54.72","NAN","0.0"],
    [1542053,"2026-02-16 01:40:00","53809","1.7269999999999999","285.8","5.1610000000000005","316.7","1015.2310000000001","13.53","54.58","NAN","0.0"],
    [1542054,"2026-02-16 01:50:00","53810","1.207","284.0","3.365","314.6","1015.047","13.52","54.8","NAN","0.0"],
    [1542055,"2026-02-16 02:00:00","53811","1.052","322.7","4.083","294.5","1015.132","13.5","55.1","NAN","0.0"],
    [1542056,"2026-02-16 02:10:00","53812","0.919","346.6","4.41","29.01","1014.992","13.47","55.26","NAN","0.0"],
    [1542057,"2026-02-16 02:20:00","53813","0.953","134.1","2.221","143.4","1015.045","13.36","55.85","NAN","0.0"],
    [1542058,"2026-02-16 02:30:00","53814","0.6459999999999999","134.1","1.699","125.3","1015.03","13.3","56.37","NAN","0.0"],
    [1542059,"2026-02-16 02:40:00","53815","1.571","257.5","3.6260000000000003","291.6","1015.077","13.4","56.48","NAN","0.0"],
    [1542060,"2026-02-16 02:50:00","53816","0.794","308.8","2.417","312.4","1015.072","13.7","54.99","NAN","0.0"],
    [1542061,"2026-02-16 03:00:00","53817","1.625","272.5","4.018","242.0","1014.758","13.71","55.13","NAN","0.0"],
    [1542062,"2026-02-16 03:10:00","53818","2.1430000000000002","305.0","5.782","281.5","1014.67","13.79","54.95","NAN","0.0"],
    [1542063,"2026-02-16 03:20:00","53819","1.615","303.8","4.181","298.3","1014.503","13.8","54.99","NAN","0.0"],
    [1542064,"2026-02-16 03:30:00","53820","1.4469999999999998","266.1","3.0380000000000003","258.8","1014.387","13.89","54.8","NAN","0.0"],
    [1542065,"2026-02-16 03:40:00","53821","1.101","292.4","3.136","286.2","1014.38","13.8","55.31","NAN","0.0"],
    [1542066,"2026-02-16 03:50:00","53822","0.792","304.7","2.613","286.3","1014.2539999999999","13.79","55.46","NAN","0.0"],
    [1542067,"2026-02-16 04:00:00","53823","0.812","165.7","2.123","156.5","1013.8910000000001","13.82","55.71","NAN","0.0"],
    [1542068,"2026-02-16 04:10:00","53824","0.457","71.92","1.895","352.2","1013.7489999999999","13.54","56.88","NAN","0.0"],
    [1542069,"2026-02-16 04:20:00","53825","0.768","149.0","2.417","157.0","1013.7810000000001","13.52","57.34","NAN","0.0"],
    [1542070,"2026-02-16 04:30:00","53826","1.614","161.7","4.1160000000000005","141.9","1013.717","13.4","58.62","NAN","0.0"],
    [1542071,"2026-02-16 04:40:00","53827","1.764","171.5","3.43","175.0","1014.0260000000001","13.62","58.29","NAN","0.0"],
    [1542072,"2026-02-16 04:50:00","53828","2.035","182.2","4.312","158.1","1013.9730000000001","13.81","58.07","NAN","0.0"],
    [1542073,"2026-02-16 05:00:00","53829","1.8869999999999998","206.5","4.181","229.4","1014.2180000000001","13.87","58.04","NAN","0.0"],
    [1542074,"2026-02-16 05:10:00","53830","1.176","252.3","2.94","209.6","1014.321","13.95","57.45","NAN","0.0"],
    [1542075,"2026-02-16 05:20:00","53831","0.7979999999999999","216.2","2.287","296.1","1014.35","13.92","57.98","NAN","0.0"],
    [1542076,"2026-02-16 05:30:00","53832","1.56","246.6","4.279","318.1","1014.27","14.07","57.68","NAN","0.0"],
    [1542077,"2026-02-16 05:40:00","53833","1.112","223.1","4.998","279.4","1014.427","14.12","57.77","NAN","0.0"],
    [1542078,"2026-02-16 05:50:00","53834","2.6630000000000003","264.3","5.978","226.9","1014.568","14.27","57.64","NAN","0.0"],
    [1542079,"2026-02-16 06:00:00","53835","1.8780000000000001","254.1","6.305","262.9","1014.4939999999999","14.2","58.15","NAN","0.0"],
    [1542080,"2026-02-16 06:10:00","53836","1.239","257.6","3.365","264.9","1014.304","14.12","58.66","NAN","0.0"],
    [1542081,"2026-02-16 06:20:00","53837","1.51","269.5","4.377","231.4","1014.284","14.08","59.05","NAN","0.0"],
    [1542082,"2026-02-16 06:30:00","53838","1.364","277.0","3.234","274.5","1014.253","13.98","59.68","NAN","0.0"],
    [1542083,"2026-02-16 06:40:00","53839","1.389","297.7","3.985","220.2","1014.3639999999999","13.94","60.05","NAN","0.0"],
    [1542084,"2026-02-16 06:50:00","53840","1.469","281.5","4.2139999999999995","293.2","1014.6039999999999","13.99","60.19","NAN","0.0"],
    [1542085,"2026-02-16 07:00:00","53841","1.788","294.4","5.553","334.4","1014.465","14.08","60.3","NAN","0.0"],
    [1542086,"2026-02-16 07:10:00","53842","1.754","277.7","4.671","268.8","1014.2810000000001","14.12","60.5","NAN","0.0"],
    [1542087,"2026-02-16 07:20:00","53843","1.368","261.5","3.0380000000000003","303.9","1014.518","14.24","60.34","NAN","0.0"],
    [1542088,"2026-02-16 07:30:00","53844","1.4569999999999999","287.9","3.887","293.3","1014.6239999999999","14.33","60.3","NAN","0.0"],
    [1542089,"2026-02-16 07:40:00","53845","1.7519999999999998","273.6","7.285","270.4","1014.8480000000001","14.45","60.02","NAN","0.0"],
    [1542090,"2026-02-16 07:50:00","53846","1.722","295.6","4.508","327.9","1014.8589999999999","14.63","59.44","NAN","0.0"],
    [1542091,"2026-02-16 08:00:00","53847","2.122","261.4","5.357","242.1","1014.681","14.82","58.8","NAN","0.0"],
    [1542092,"2026-02-16 08:10:00","53848","1.286","284.6","4.867","294.1","1014.5360000000001","15.01","58.02","NAN","0.0"],
    [1542093,"2026-02-16 08:20:00","53849","1.284","270.0","3.528","264.1","1014.279","15.33","56.8","NAN","0.0"],
    [1542094,"2026-02-16 08:30:00","53850","2.5669999999999997","249.7","5.619","253.5","1014.07","15.56","55.68","NAN","0.0"],
    [1542095,"2026-02-16 08:40:00","53851","1.993","240.5","4.541","286.0","1014.168","15.71","55.63","NAN","0.0"],
    [1542096,"2026-02-16 08:50:00","53852","1.493","219.8","4.965","243.6","1014.335","15.78","56.08","NAN","0.0"],
    [1542097,"2026-02-16 09:00:00","53853","2.575","255.0","6.664","275.9","1014.342","16.13","54.04","NAN","0.0"],
    [1542098,"2026-02-16 09:10:00","53854","3.103","250.7","7.938","245.1","1014.1239999999999","16.44","52.96","NAN","0.0"],
    [1542099,"2026-02-16 09:20:00","53855","2.344","245.1","6.272","237.1","1013.789","16.74","52.18","NAN","0.0"],
    [1542100,"2026-02-16 09:30:00","53856","2.802","240.9","8.23","245.1","1013.7489999999999","17.05","51.14","NAN","0.0"],
    [1542101,"2026-02-16 09:40:00","53857","2.221","237.4","6.403","240.4","1014.046","17.35","50.5","NAN","0.0"],
    [1542102,"2026-02-16 09:50:00","53858","1.63","256.6","3.43","302.0","1014.173","17.74","49.58","NAN","0.0"],
    [1542103,"2026-02-16 10:00:00","53859","2.295","236.5","6.925","206.9","1014.4019999999999","17.88","49.3","NAN","0.0"],
    [1542104,"2026-02-16 10:10:00","53860","2.905","246.1","7.187","227.8","1014.069","17.71","49.71","NAN","0.0"],
    [1542105,"2026-02-16 10:20:00","53861","2.8539999999999996","251.1","8.23","227.2","1014.1089999999999","18.06","48.99","NAN","0.0"],
    [1542106,"2026-02-16 10:30:00","53862","2.862","269.2","9.47","248.4","1013.937","18.15","48.88","NAN","0.0"],
    [1542107,"2026-02-16 10:40:00","53863","2.761","270.1","7.742000000000001","245.4","1013.6030000000001","18.18","48.85","NAN","0.0"],
    [1542108,"2026-02-16 10:50:00","53864","3.236","275.8","6.9910000000000005","286.2","1013.698","18.16","48.99","NAN","0.0"],
    [1542109,"2026-02-16 11:00:00","53865","2.437","282.2","7.546","301.8","1013.878","18.05","49.64","NAN","0.0"],
    [1542110,"2026-02-16 11:10:00","53866","2.336","301.7","8.04","327.5","1014.084","18.1","49.67","NAN","0.0"],
    [1542111,"2026-02-16 11:20:00","53867","2.679","306.5","8.07","277.7","1014.071","18.24","49.33","NAN","0.0"],
    [1542112,"2026-02-16 11:30:00","53868","1.785","292.8","7.415","294.9","1013.8939999999999","18.53","48.93","NAN","0.0"],
    [1542113,"2026-02-16 11:40:00","53869","2.57","297.1","8.46","327.2","1013.745","18.67","48.59","NAN","0.0"],
    [1542114,"2026-02-16 11:50:00","53870","2.524","305.3","7.481","287.6","1013.696","18.66","48.58","NAN","0.0"],
    [1542115,"2026-02-16 12:00:00","53871","2.546","286.6","6.1739999999999995","286.7","1013.5830000000001","18.72","48.2","NAN","0.0"],
    [1542116,"2026-02-16 12:10:00","53872","1.6569999999999998","274.1","4.933","299.1","1013.357","19.17","47.23","NAN","0.0"],
    [1542117,"2026-02-16 12:20:00","53873","2.6830000000000003","291.7","8.62","278.2","1013.197","19.12","47.12","NAN","0.0"],
    [1542118,"2026-02-16 12:30:00","53874","2.815","286.5","8.26","315.7","1013.122","19.32","46.64","NAN","0.0"],
    [1542119,"2026-02-16 12:40:00","53875","2.38","289.1","7.775","289.2","1012.727","19.41","46.55","NAN","0.0"],
    [1542120,"2026-02-16 12:50:00","53876","3.088","266.5","8.1","287.3","1012.7180000000001","19.65","45.88","NAN","0.0"],
    [1542121,"2026-02-16 13:00:00","53877","3.3930000000000002","287.3","9.24","280.1","1012.61","19.63","45.81","NAN","0.0"],
    [1542122,"2026-02-16 13:10:00","53878","2.56","258.4","8.75","294.4","1012.0889999999999","19.89","45.39","NAN","0.0"],
    [1542123,"2026-02-16 13:20:00","53879","3.343","265.9","6.664","273.3","1011.794","20.03","44.9","NAN","0.0"],
    [1542124,"2026-02-16 13:30:00","53880","3.1060000000000003","261.7","7.415","311.7","1011.793","20.05","45.01","NAN","0.0"],
    [1542125,"2026-02-16 13:40:00","53881","3.673","244.8","9.05","230.5","1011.75","19.92","44.97","NAN","0.0"],
    [1542126,"2026-02-16 13:50:00","53882","3.1460000000000004","239.7","9.31","245.7","1011.539","20.08","44.46","NAN","0.0"],
    [1542127,"2026-02-16 14:00:00","53883","2.476","250.2","8.56","287.0","1011.431","20.53","43.35","NAN","0.0"],
    [1542128,"2026-02-16 14:10:00","53884","2.537","260.4","8.59","258.3","1011.209","20.69","43.01","NAN","0.0"],
    [1542129,"2026-02-16 14:20:00","53885","3.2030000000000003","273.2","8.0","280.8","1011.19","20.77","42.46","NAN","0.0"],
    [1542130,"2026-02-16 14:30:00","53886","3.034","274.5","8.95","282.8","1011.174","20.75","42.41","NAN","0.0"],
    [1542131,"2026-02-16 14:40:00","53887","3.3539999999999996","298.2","8.26","301.5","1011.306","20.7","42.68","NAN","0.0"],
    [1542132,"2026-02-16 14:50:00","53888","2.5340000000000003","283.2","8.23","248.8","1011.112","20.5","43.39","NAN","0.0"],
    [1542133,"2026-02-16 15:00:00","53889","2.267","297.5","7.481","258.0","1011.135","20.48","43.8","NAN","0.0"],
    [1542134,"2026-02-16 15:10:00","53890","2.707","278.7","7.056","255.6","1011.2330000000001","20.5","43.93","NAN","0.0"],
    [1542135,"2026-02-16 15:20:00","53891","2.338","284.6","6.795","316.7","1011.2510000000001","20.39","44.4","NAN","0.0"],
    [1542136,"2026-02-16 15:30:00","53892","3.04","284.4","7.056","339.1","1011.419","20.44","44.45","NAN","0.0"],
    [1542137,"2026-02-16 15:40:00","53893","2.9010000000000002","271.9","7.121","253.7","1011.678","20.38","44.85","NAN","0.0"],
    [1542138,"2026-02-16 15:50:00","53894","2.131","329.0","7.4479999999999995","298.1","1011.666","20.24","45.59","NAN","0.0"],
    [1542139,"2026-02-16 16:00:00","53895","1.4809999999999999","284.4","4.998","258.5","1011.5139999999999","20.24","45.66","NAN","0.0"],
    [1542140,"2026-02-16 16:10:00","53896","1.8030000000000002","273.8","5.455","254.6","1011.431","20.11","45.77","NAN","0.0"],
    [1542141,"2026-02-16 16:20:00","53897","1.538","268.1","4.475","231.2","1011.335","20.17","45.63","NAN","0.0"],
    [1542142,"2026-02-16 16:30:00","53898","2.6430000000000002","279.9","7.023","247.0","1011.3910000000001","20.01","46","NAN","0.0"],
    [1542143,"2026-02-16 16:40:00","53899","1.989","302.0","6.664","262.3","1011.26","19.86","46.77","NAN","0.0"],
    [1542144,"2026-02-16 16:50:00","53900","1.633","265.0","4.149","275.1","1011.328","19.77","47","NAN","0.0"],
    [1542145,"2026-02-16 17:00:00","53901","1.83","255.2","4.475","284.3","1011.368","19.77","46.71","NAN","0.0"],
    [1542146,"2026-02-16 17:10:00","53902","2.3369999999999997","258.2","5.945","251.5","1011.41","19.75","46.62","NAN","0.0"],
    [1542147,"2026-02-16 17:20:00","53903","2.076","255.3","5.4879999999999995","298.5","1011.45","19.76","46.47","NAN","0.0"],
    [1542148,"2026-02-16 17:30:00","53904","1.6030000000000002","269.4","6.109","281.4","1011.435","19.72","46.7","NAN","0.0"],
    [1542149,"2026-02-16 17:40:00","53905","1.089","253.2","3.855","281.4","1011.295","19.57","47.33","NAN","0.0"],
    [1542150,"2026-02-16 17:50:00","53906","2.046","324.2","5.4879999999999995","316.4","1011.4760000000001","19.6","47.15","NAN","0.0"],
    [1542151,"2026-02-16 18:00:00","53907","1.9409999999999998","309.0","4.638999999999999","276.9","1011.539","19.58","47.29","NAN","0.0"],
    [1542152,"2026-02-16 18:10:00","53908","1.73","321.8","3.7569999999999997","331.6","1011.49","19.36","48.32","NAN","0.0"],
    [1542153,"2026-02-16 18:20:00","53909","1.97","322.7","4.998","331.0","1011.428","19.15","49.22","NAN","0.0"],
    [1542154,"2026-02-16 18:30:00","53910","2.3609999999999998","326.0","5.619","300.2","1011.791","19.02","49.65","NAN","0.0"],
    [1542155,"2026-02-16 18:40:00","53911","1.777","299.5","6.37","275.5","1011.846","18.87","50.14","NAN","0.0"],
    [1542156,"2026-02-16 18:50:00","53912","2.251","295.8","6.827000000000001","302.9","1011.7439999999999","18.7","51.02","NAN","0.0"],
    [1542157,"2026-02-16 19:00:00","53913","2.641","305.3","7.218999999999999","328.0","1011.966","18.59","51.79","NAN","0.0"],
    [1542158,"2026-02-16 19:10:00","53914","2.385","297.2","7.056","284.7","1011.868","18.47","52.38","NAN","0.0"],
    [1542159,"2026-02-16 19:20:00","53915","2.261","290.3","6.664","323.7","1011.938","18.38","52.88","NAN","0.0"],
    [1542160,"2026-02-16 19:30:00","53916","1.868","307.0","6.697","286.5","1012.073","18.28","53.37","NAN","0.0"],
    [1542161,"2026-02-16 19:40:00","53917","1.902","317.9","4.704","314.3","1012.175","18.16","54.14","NAN","0.0"],
    [1542162,"2026-02-16 19:50:00","53918","1.557","292.3","3.5610000000000004","285.8","1012.16","18.03","54.88","NAN","0.0"],
    [1542163,"2026-02-16 20:00:00","53919","1.2309999999999999","279.6","3.7889999999999997","301.7","1011.965","17.89","55.69","NAN","0.0"],
    [1542164,"2026-02-16 20:10:00","53920","1.811","279.2","4.4430000000000005","354.2","1011.916","17.83","56.07","NAN","0.0"],
    [1542165,"2026-02-16 20:20:00","53921","1.868","304.3","5.815","321.9","1011.938","17.76","56.57","NAN","0.0"],
    [1542166,"2026-02-16 20:30:00","53922","1.367","317.2","4.377","302.0","1011.818","17.58","57.35","NAN","0.0"],
    [1542167,"2026-02-16 20:40:00","53923","0.9309999999999999","317.9","3.299","342.2","1011.67","17.43","58.08","NAN","0.0"],
    [1542168,"2026-02-16 20:50:00","53924","1.6769999999999998","334.4","3.593","325.4","1012.115","17.39","58.32","NAN","0.0"],
    [1542169,"2026-02-16 21:00:00","53925","1.868","323.9","4.835","273.9","1012.332","17.45","57.92","NAN","0.0"],
    [1542170,"2026-02-16 21:10:00","53926","1.401","308.5","3.855","249.8","1012.327","17.43","57.8","NAN","0.0"],
    [1542171,"2026-02-16 21:20:00","53927","1.504","319.7","3.9530000000000003","284.4","1012.2919999999999","17.39","57.89","NAN","0.0"],
    [1542172,"2026-02-16 21:30:00","53928","1.663","310.2","4.475","284.1","1012.33","17.28","58.05","NAN","0.0"],
    [1542173,"2026-02-16 21:40:00","53929","1.425","326.6","3.299","316.9","1012.5239999999999","17.24","58.1","NAN","0.0"],
    [1542174,"2026-02-16 21:50:00","53930","1.3259999999999998","330.6","3.267","310.1","1012.7080000000001","17.16","58.15","NAN","0.0"],
    [1542175,"2026-02-16 22:00:00","53931","1.064","304.5","2.9730000000000003","262.9","1012.683","17.03","58.07","NAN","0.0"],
    [1542176,"2026-02-16 22:10:00","53932","1.13","312.5","2.842","304.1","1012.7180000000001","16.97","57.83","NAN","0.0"],
    [1542177,"2026-02-16 22:20:00","53933","0.794","324.4","3.1689999999999996","292.4","1012.703","16.8","58.11","NAN","0.0"],
    [1542178,"2026-02-16 22:30:00","53934","1.249","267.1","3.397","286.3","1012.663","16.7","58.04","NAN","0.0"],
    [1542179,"2026-02-16 22:40:00","53935","0.981","23.71","2.287","95.4","1013.065","16.57","58.16","NAN","0.0"],
    [1542180,"2026-02-16 22:50:00","53936","2.147","82.7","4.377","71.34","1013.336","16.01","63.18","NAN","0.0"],
    [1542181,"2026-02-16 23:00:00","53937","1.893","83.6","3.463","67.65","1013.575","15.2","69.1","NAN","0.0"],
    [1542182,"2026-02-16 23:10:00","53938","0.457","133.6","1.339","104.1","1013.398","14.91","70.63","NAN","0.0"],
    [1542183,"2026-02-16 23:20:00","53939","0.8190000000000001","239.4","2.0909999999999997","240.6","1013.6160000000001","14.95","70.06","NAN","0.0"],
    [1542184,"2026-02-16 23:30:00","53940","1.666","230.9","3.234","239.5","1013.9680000000001","15.58","62.68","NAN","0.0"],
    [1542185,"2026-02-16 23:40:00","53941","1.5130000000000001","247.5","3.201","233.5","1013.956","15.93","58.29","NAN","0.0"],
    [1542186,"2026-02-16 23:50:00","53942","1.249","261.6","2.7439999999999998","242.7","1013.73","15.85","58.08","NAN","0.0"],
    [1542187,"2026-02-17 00:00:00","53943","1.683","269.7","4.41","304.6","1013.6569999999999","15.78","57.54","NAN","0.0"],
    [1542188,"2026-02-17 00:10:00","53944","1.4509999999999998","289.2","4.573","298.3","1013.732","15.73","57.03","NAN","0.0"],
    [1542189,"2026-02-17 00:20:00","53945","1.348","273.0","3.5610000000000004","260.1","1013.8910000000001","15.61","57.1","NAN","0.0"],
    [1542190,"2026-02-17 00:30:00","53946","1.609","257.5","5.227","259.2","1013.747","15.48","57","NAN","0.0"],
    [1542191,"2026-02-17 00:40:00","53947","1.801","258.9","4.508","274.7","1013.793","15.38","56.9","NAN","0.0"],
    [1542192,"2026-02-17 00:50:00","53948","1.869","273.9","4.508","290.3","1013.592","15.32","56.76","NAN","0.0"],
    [1542193,"2026-02-17 01:00:00","53949","2.51","272.8","7.0889999999999995","261.4","1013.4689999999999","15.31","56.05","NAN","0.0"],
    [1542194,"2026-02-17 01:10:00","53950","2.253","274.4","4.933","280.4","1013.5089999999999","15.36","54.81","NAN","0.0"],
    [1542195,"2026-02-17 01:20:00","53951","2.0909999999999997","277.3","5.815","248.3","1013.685","15.37","54.34","NAN","0.0"],
    [1542196,"2026-02-17 01:30:00","53952","1.858","277.9","5.2589999999999995","296.4","1013.908","15.33","54.24","NAN","0.0"],
    [1542197,"2026-02-17 01:40:00","53953","1.578","245.1","3.463","237.8","1013.841","15.29","54.06","NAN","0.0"],
    [1542198,"2026-02-17 01:50:00","53954","1.9480000000000002","263.9","5.651","288.6","1013.9069999999999","15.1","54.75","NAN","0.0"],
    [1542199,"2026-02-17 02:00:00","53955","2.009","288.0","5.815","287.9","1014.018","14.99","54.43","NAN","0.0"],
    [1542200,"2026-02-17 02:10:00","53956","1.817","299.5","5.194","283.8","1014.175","14.82","54.35","NAN","0.0"],
    [1542201,"2026-02-17 02:20:00","53957","1.5759999999999998","353.8","4.083","314.3","1014.437","14.74","54.13","NAN","0.0"],
    [1542202,"2026-02-17 02:30:00","53958","1.624","339.2","5.063","337.1","1014.3489999999999","14.66","53.62","NAN","0.0"],
    [1542203,"2026-02-17 02:40:00","53959","1.4680000000000002","321.9","4.933","310.4","1014.2739999999999","14.64","52.89","NAN","0.0"],
    [1542204,"2026-02-17 02:50:00","53960","1.234","294.0","4.606","274.2","1014.3660000000001","14.61","52.56","NAN","0.0"],
    [1542205,"2026-02-17 03:00:00","53961","1.8969999999999998","288.4","5.194","263.1","1014.316","14.6","52.09","NAN","0.0"],
    [1542206,"2026-02-17 03:10:00","53962","1.7369999999999999","293.0","5.88","310.8","1014.4739999999999","14.58","51.53","NAN","0.0"],
    [1542207,"2026-02-17 03:20:00","53963","1.725","303.9","6.042999999999999","347.0","1014.482","14.43","51.55","NAN","0.0"],
    [1542208,"2026-02-17 03:30:00","53964","1.548","305.1","5.39","314.9","1014.6610000000001","14.24","52.13","NAN","0.0"],
    [1542209,"2026-02-17 03:40:00","53965","1.913","302.2","5.978","310.3","1014.6460000000001","14.04","52.84","NAN","0.0"],
    [1542210,"2026-02-17 03:50:00","53966","1.8030000000000002","351.7","5.7170000000000005","335.9","1014.873","13.86","53.48","NAN","0.0"],
    [1542211,"2026-02-17 04:00:00","53967","1.445","353.7","4.475","326.4","1015.145","13.68","54.29","NAN","0.0"],
    [1542212,"2026-02-17 04:10:00","53968","1.617","14.52","3.136","42.57","1015.204","13.57","54.72","NAN","0.0"],
    [1542213,"2026-02-17 04:20:00","53969","1.591","0.6859999999999999","3.071","3.405","1015.498","13.45","55.17","NAN","0.0"],
    [1542214,"2026-02-17 04:30:00","53970","1.6980000000000002","2.707","4.802","25.55","1015.441","13.39","55.4","NAN","0.0"],
    [1542215,"2026-02-17 04:40:00","53971","1.036","358.3","2.842","0.213","1015.528","13.17","56.26","NAN","0.0"],
    [1542216,"2026-02-17 04:50:00","53972","1.177","359.1","2.515","22.94","1015.668","13.1","56.42","NAN","0.0"],
    [1542217,"2026-02-17 05:00:00","53973","1.36","323.8","4.704","297.8","1015.914","13.23","55.43","NAN","0.0"],
    [1542218,"2026-02-17 05:10:00","53974","0.8170000000000001","300.6","2.7769999999999997","314.5","1016.14","13.14","55.49","NAN","0.0"],
    [1542219,"2026-02-17 05:20:00","53975","0.703","305.9","2.7110000000000003","313.9","1016.306","13.15","55.19","NAN","0.0"],
    [1542220,"2026-02-17 05:30:00","53976","0.348","343.8","1.601","306.3","1016.3989999999999","12.77","56.42","NAN","0.0"],
    [1542221,"2026-02-17 05:40:00","53977","0.777","333.7","2.875","257.6","1016.4630000000001","12.99","55.38","NAN","0.0"],
    [1542222,"2026-02-17 05:50:00","53978","1.469","329.5","3.593","312.5","1016.633","13.26","53.54","NAN","0.0"],
    [1542223,"2026-02-17 06:00:00","53979","1.4780000000000002","275.5","4.149","234.0","1016.873","13.34","53.02","NAN","0.0"],
    [1542224,"2026-02-17 06:10:00","53980","1.492","276.4","4.149","267.3","1017.1310000000001","13.2","53.43","NAN","0.0"],
    [1542225,"2026-02-17 06:20:00","53981","1.5759999999999998","261.9","5.194","246.3","1017.1460000000001","13.19","53.08","NAN","0.0"],
    [1542226,"2026-02-17 06:30:00","53982","1.239","316.9","4.377","349.5","1017.368","13.11","53.3","NAN","0.0"],
    [1542227,"2026-02-17 06:40:00","53983","0.8059999999999999","347.6","2.548","0.975","1017.551","13.23","52.44","NAN","0.0"],
    [1542228,"2026-02-17 06:50:00","53984","0.935","159.1","2.5810000000000004","181.0","1017.79","12.96","53.71","NAN","0.0"],
    [1542229,"2026-02-17 07:00:00","53985","0.9009999999999999","132.2","1.993","118.5","1017.972","12.46","60.37","NAN","0.0"],
    [1542230,"2026-02-17 07:10:00","53986","0.611","58.19","1.568","33.12","1018.2230000000001","11.95","61.94","NAN","0.0"],
    [1542231,"2026-02-17 07:20:00","53987","1.183","36.04","2.123","36.27","1018.2260000000001","11.74","63.05","NAN","0.0"],
    [1542232,"2026-02-17 07:30:00","53988","0.815","88.7","2.417","34.46","1018.5319999999999","11.92","62.18","NAN","0.0"],
    [1542233,"2026-02-17 07:40:00","53989","0.38799999999999996","67.44","1.307","156.4","1018.7560000000001","11.9","62.44","NAN","0.0"],
    [1542234,"2026-02-17 07:50:00","53990","0.586","63.29","1.47","89.6","1018.806","12.01","62.16","NAN","0.0"],
    [1542235,"2026-02-17 08:00:00","53991","0.602","235.0","2.9730000000000003","243.8","1018.9810000000001","12.34","60.25","NAN","0.0"],
    [1542236,"2026-02-17 08:10:00","53992","0.609","288.5","2.189","281.5","1019.086","13.18","56.02","NAN","0.0"],
    [1542237,"2026-02-17 08:20:00","53993","1.474","246.1","2.94","223.2","1019.22","13.71","53.41","NAN","0.0"],
    [1542238,"2026-02-17 08:30:00","53994","1.588","324.4","3.495","324.3","1019.432","13.64","53.57","NAN","0.0"],
    [1542239,"2026-02-17 08:40:00","53995","1.774","339.0","3.822","342.2","1019.498","13.8","53.32","NAN","0.0"],
    [1542240,"2026-02-17 08:50:00","53996","1.536","300.6","4.671","351.0","1019.5110000000001","14.16","52.03","NAN","0.0"],
    [1542241,"2026-02-17 09:00:00","53997","1.858","333.6","4.051","338.2","1019.56","14.33","51.42","NAN","0.0"],
    [1542242,"2026-02-17 09:10:00","53998","1.531","330.5","4.018","299.0","1019.632","14.49","50.84","NAN","0.0"],
    [1542243,"2026-02-17 09:20:00","53999","1.199","8.71","2.7439999999999998","42.58","1019.8689999999999","14.95","49.09","NAN","0.0"],
    [1542244,"2026-02-17 09:30:00","54000","1.3319999999999999","47.14","3.9530000000000003","106.2","1020.168","15.2","49.6","NAN","0.0"],
    [1542245,"2026-02-17 09:40:00","54001","1.9969999999999999","114.8","4.149","101.4","1020.395","14.07","57.07","NAN","0.0"],
    [1542246,"2026-02-17 09:50:00","54002","1.3119999999999998","127.3","2.287","128.3","1020.449","14.21","57.35","NAN","0.0"],
    [1542247,"2026-02-17 10:00:00","54003","1.42","138.8","2.7769999999999997","123.4","1020.659","14.25","59.26","NAN","0.0"],
    [1542248,"2026-02-17 10:10:00","54004","0.9620000000000001","158.2","2.0580000000000003","141.9","1020.678","14.93","54.99","NAN","0.0"],
    [1542249,"2026-02-17 10:20:00","54005","1.4609999999999999","187.3","2.515","199.4","1020.7080000000001","15.33","51.37","NAN","0.0"],
    [1542250,"2026-02-17 10:30:00","54006","1.787","154.8","3.397","159.8","1020.703","15.37","53.24","NAN","0.0"],
    [1542251,"2026-02-17 10:40:00","54007","2.16","140.1","4.018","121.3","1020.855","14.96","62.95","NAN","0.0"],
    [1542252,"2026-02-17 10:50:00","54008","2.155","130.3","4.018","133.8","1020.84","14.62","68.86","NAN","0.0"],
    [1542253,"2026-02-17 11:00:00","54009","1.902","127.1","3.528","137.6","1020.805","14.48","70.35","NAN","0.0"],
    [1542254,"2026-02-17 11:10:00","54010","2.148","127.7","3.593","142.8","1020.813","14.66","69.41","NAN","0.0"],
    [1542255,"2026-02-17 11:20:00","54011","1.859","128.2","3.267","142.1","1020.84","14.79","68.42","NAN","0.0"],
    [1542256,"2026-02-17 11:30:00","54012","1.913","129.9","3.7889999999999997","146.3","1020.803","14.97","68.19","NAN","0.0"],
    [1542257,"2026-02-17 11:40:00","54013","2.046","137.7","3.7889999999999997","123.0","1020.788","14.91","67.87","NAN","0.0"],
    [1542258,"2026-02-17 11:50:00","54014","2.229","130.9","4.671","145.3","1020.671","14.87","67.57","NAN","0.0"],
    [1542259,"2026-02-17 12:00:00","54015","2.083","114.8","3.9530000000000003","95.9","1020.4910000000001","14.81","67.22","NAN","0.0"],
    [1542260,"2026-02-17 12:10:00","54016","1.786","107.6","3.7569999999999997","116.8","1020.422","15.15","65.54","NAN","0.0"],
    [1542261,"2026-02-17 12:20:00","54017","1.9","112.1","4.1160000000000005","125.1","1020.3839999999999","15.22","64.59","NAN","0.0"],
    [1542262,"2026-02-17 12:30:00","54018","2.536","107.8","4.4430000000000005","93.0","1020.195","14.89","65.76","NAN","0.0"],
    [1542263,"2026-02-17 12:40:00","54019","2.274","119.1","4.1160000000000005","114.5","1020.153","14.84","66.45","NAN","0.0"],
    [1542264,"2026-02-17 12:50:00","54020","2.425","105.7","3.985","122.8","1020.028","14.79","66.35","NAN","0.0"],
    [1542265,"2026-02-17 13:00:00","54021","1.9780000000000002","107.8","3.7889999999999997","74.64","1020.033","14.89","66.5","NAN","0.0"],
    [1542266,"2026-02-17 13:10:00","54022","1.8","96.2","4.247","112.0","1019.988","15.25","64.64","NAN","0.0"],
    [1542267,"2026-02-17 13:20:00","54023","2.661","88.0","4.998","93.3","1019.819","15.08","64.93","NAN","0.0"],
    [1542268,"2026-02-17 13:30:00","54024","1.9709999999999999","75.74","4.9","85.0","1019.6339999999999","15.07","65.16","NAN","0.0"],
    [1542269,"2026-02-17 13:40:00","54025","2.3209999999999997","61.34","4.247","45.75","1019.615","15.14","66.04","NAN","0.0"],
    [1542270,"2026-02-17 13:50:00","54026","2.8489999999999998","77.02","4.769","92.9","1019.393","15.02","68.87","NAN","0.0"],
    [1542271,"2026-02-17 14:00:00","54027","2.201","74.45","4.2139999999999995","76.56","1019.318","15.13","73.51","NAN","0.0"],
    [1542272,"2026-02-17 14:10:00","54028","2.0140000000000002","104.7","4.018","67.69","1019.263","15.18","76.11","NAN","0.0"],
    [1542273,"2026-02-17 14:20:00","54029","1.909","106.0","3.528","101.0","1019.186","15.1","75.45","NAN","0.0"],
    [1542274,"2026-02-17 14:30:00","54030","1.825","111.9","3.5610000000000004","140.6","1019.184","15.13","74.52","NAN","0.0"],
    [1542275,"2026-02-17 14:40:00","54031","2.324","124.4","3.985","145.1","1019.084","14.87","74.24","NAN","0.0"],
    [1542276,"2026-02-17 14:50:00","54032","2.182","125.4","4.018","146.9","1019.0889999999999","14.75","74.47","NAN","0.0"],
    [1542277,"2026-02-17 15:00:00","54033","1.9369999999999998","132.8","3.495","146.4","1019.059","14.71","73.24","NAN","0.0"],
    [1542278,"2026-02-17 15:10:00","54034","1.8","133.4","3.136","128.8","1019.0989999999999","14.57","73.66","NAN","0.0"],
    [1542279,"2026-02-17 15:20:00","54035","1.671","128.6","2.8089999999999997","114.7","1019.064","14.4","74.58","NAN","0.0"],
    [1542280,"2026-02-17 15:30:00","54036","1.595","126.0","2.7110000000000003","113.1","1019.064","14.4","74.31","NAN","0.0"],
    [1542281,"2026-02-17 15:40:00","54037","2.0340000000000003","109.6","3.593","105.5","1019.0269999999999","14.45","71.72","NAN","0.0"],
    [1542282,"2026-02-17 15:50:00","54038","1.633","112.4","3.463","121.9","1019.176","14.3","68.72","NAN","0.0"],
    [1542283,"2026-02-17 16:00:00","54039","1.196","89.3","2.254","154.6","1019.181","14.43","68.87","NAN","0.0"],
    [1542284,"2026-02-17 16:10:00","54040","1.474","66.9","3.136","68.36","1019.1489999999999","14.49","68.33","NAN","0.0"],
    [1542285,"2026-02-17 16:20:00","54041","1.545","95.0","3.0380000000000003","87.4","1019.1669999999999","14.2","66.69","NAN","0.0"],
    [1542286,"2026-02-17 16:30:00","54042","1.735","87.1","3.071","70.12","1019.288","14.24","69.9","NAN","0.0"],
    [1542287,"2026-02-17 16:40:00","54043","1.694","124.2","3.267","125.7","1019.2460000000001","14.08","79.68","NAN","0.0"],
    [1542288,"2026-02-17 16:50:00","54044","2.254","128.1","4.149","144.8","1019.368","13.85","83.4","NAN","0.0"],
    [1542289,"2026-02-17 17:00:00","54045","2.6910000000000003","130.5","4.573","144.5","1019.424","13.71","83.6","NAN","0.0"],
    [1542290,"2026-02-17 17:10:00","54046","2.4130000000000003","127.2","3.92","128.0","1019.556","13.67","83.7","NAN","0.0"],
    [1542291,"2026-02-17 17:20:00","54047","1.82","113.4","3.7569999999999997","142.8","1019.582","13.62","84.7","NAN","0.0"],
    [1542292,"2026-02-17 17:30:00","54048","1.2229999999999999","113.4","2.352","103.0","1019.675","13.55","85.7","NAN","0.0"],
    [1542293,"2026-02-17 17:40:00","54049","1.682","105.5","4.279","89.5","1019.753","13.48","86","NAN","0.0"],
    [1542294,"2026-02-17 17:50:00","54050","2.123","88.7","3.7889999999999997","108.7","1019.828","13.48","86","NAN","0.0"],
    [1542295,"2026-02-17 18:00:00","54051","1.489","97.8","3.0380000000000003","75.71","1019.924","13.48","86.1","NAN","0.0"],
    [1542296,"2026-02-17 18:10:00","54052","1.886","112.7","4.279","121.0","1020.0039999999999","13.44","86.3","NAN","0.0"],
    [1542297,"2026-02-17 18:20:00","54053","1.224","106.3","2.548","120.7","1020.002","13.41","86.3","NAN","0.0"],
    [1542298,"2026-02-17 18:30:00","54054","1.3969999999999998","107.9","3.267","107.8","1020.172","13.38","86.1","NAN","0.0"],
    [1542299,"2026-02-17 18:40:00","54055","1.3519999999999999","87.9","3.299","101.4","1020.291","13.35","86.3","NAN","0.0"],
    [1542300,"2026-02-17 18:50:00","54056","1.128","86.3","3.365","61.05","1020.305","13.29","86","NAN","0.0"],
    [1542301,"2026-02-17 19:00:00","54057","1.015","68.52","2.548","71.68","1020.2510000000001","13.3","86.1","NAN","0.0"],
    [1542302,"2026-02-17 19:10:00","54058","1.528","81.3","3.7569999999999997","78.82","1020.279","13.4","86.6","NAN","0.0"],
    [1542303,"2026-02-17 19:20:00","54059","1.598","88.0","3.6260000000000003","108.4","1020.346","13.53","86.5","NAN","0.0"],
    [1542304,"2026-02-17 19:30:00","54060","1.53","112.0","2.907","110.1","1020.3560000000001","13.5","86.5","NAN","0.0"],
    [1542305,"2026-02-17 19:40:00","54061","1.213","102.0","2.7110000000000003","134.6","1020.258","13.42","86.7","NAN","0.0"],
    [1542306,"2026-02-17 19:50:00","54062","1.371","106.6","2.5810000000000004","119.2","1020.324","13.33","86.6","NAN","0.0"],
    [1542307,"2026-02-17 20:00:00","54063","1.65","84.6","3.136","69.48","1020.299","13.31","86.6","NAN","0.0"],
    [1542308,"2026-02-17 20:10:00","54064","1.202","98.1","3.136","59.03","1020.3389999999999","13.34","86.1","NAN","0.0"],
    [1542309,"2026-02-17 20:20:00","54065","0.9129999999999999","107.6","2.7439999999999998","155.7","1020.367","13.36","86.2","NAN","0.0"],
    [1542310,"2026-02-17 20:30:00","54066","1.6569999999999998","112.4","3.463","102.5","1020.36","13.36","86","NAN","0.0"],
    [1542311,"2026-02-17 20:40:00","54067","1.61","116.5","2.907","109.7","1020.3739999999999","13.27","85.5","NAN","0.0"],
    [1542312,"2026-02-17 20:50:00","54068","1.82","120.9","3.6260000000000003","119.3","1020.28","13.26","85.7","NAN","0.0"],
    [1542313,"2026-02-17 21:00:00","54069","1.6669999999999998","103.8","3.071","59.69","1020.232","13.19","85.7","NAN","0.0"],
    [1542314,"2026-02-17 21:10:00","54070","1.2409999999999999","96.2","2.9730000000000003","83.1","1020.265","13.27","85.6","NAN","0.0"],
    [1542315,"2026-02-17 21:20:00","54071","1.5759999999999998","84.4","3.6260000000000003","71.74","1020.2489999999999","13.3","85.3","NAN","0.0"],
    [1542316,"2026-02-17 21:30:00","54072","1.857","86.3","3.43","96.0","1020.2410000000001","13.3","85.3","NAN","0.0"],
    [1542317,"2026-02-17 21:40:00","54073","1.895","81.7","3.495","68.71","1020.2230000000001","13.3","85.3","NAN","0.0"],
    [1542318,"2026-02-17 21:50:00","54074","2.2030000000000003","81.2","3.985","75.72","1020.2189999999999","13.24","84.5","NAN","0.0"],
    [1542319,"2026-02-17 22:00:00","54075","1.915","83.0","3.7889999999999997","81.4","1020.215","13.25","84.1","NAN","0.0"],
    [1542320,"2026-02-17 22:10:00","54076","1.723","80.3","4.377","77.44","1020.1439999999999","13.27","84.2","NAN","0.0"],
    [1542321,"2026-02-17 22:20:00","54077","1.431","82.3","3.267","74.33","1020.023","13.27","83.5","NAN","0.0"],
    [1542322,"2026-02-17 22:30:00","54078","1.985","86.7","4.41","75.1","1019.99","13.22","83.9","NAN","0.0"],
    [1542323,"2026-02-17 22:40:00","54079","1.546","82.4","3.593","68.97","1019.972","13.08","84.5","NAN","0.0"],
    [1542324,"2026-02-17 22:50:00","54080","1.087","65.93","2.287","83.5","1019.925","12.97","84.9","NAN","0.0"],
    [1542325,"2026-02-17 23:00:00","54081","1.3030000000000002","67.69","2.842","65.78","1019.8919999999999","12.99","84.5","NAN","0.0"],
    [1542326,"2026-02-17 23:10:00","54082","1.25","76.0","3.071","57.66","1019.835","13","84.3","NAN","0.0"],
    [1542327,"2026-02-17 23:20:00","54083","1.921","88.5","3.1689999999999996","90.9","1019.888","13.04","83.8","NAN","0.0"],
    [1542328,"2026-02-17 23:30:00","54084","1.785","78.41","3.659","81.7","1019.865","12.99","84","NAN","0.0"],
    [1542329,"2026-02-17 23:40:00","54085","1.5030000000000001","79.17","3.136","59.15","1019.812","12.9","84.1","NAN","0.0"],
    [1542330,"2026-02-17 23:50:00","54086","1.244","67.33","2.548","66.97","1019.7330000000001","12.84","84.6","NAN","0.0"],
    [1542331,"2026-02-18 00:00:00","54087","1.383","74.09","3.234","67.06","1019.628","12.76","85.1","NAN","0.0"],
    [1542332,"2026-02-18 00:10:00","54088","1.311","71.09","2.6460000000000004","70.04","1019.471","12.73","85.1","NAN","0.0"],
    [1542333,"2026-02-18 00:20:00","54089","2.0580000000000003","64.49","3.9530000000000003","67.3","1019.3689999999999","12.71","84.7","NAN","0.0"],
    [1542334,"2026-02-18 00:30:00","54090","1.935","66.1","3.822","81.6","1019.2919999999999","12.73","83.8","NAN","0.0"],
    [1542335,"2026-02-18 00:40:00","54091","1.181","50.72","3.7889999999999997","77.55","1019.247","12.71","83.7","NAN","0.0"],
    [1542336,"2026-02-18 00:50:00","54092","0.682","64.68","2.7769999999999997","76.5","1019.225","12.63","84.2","NAN","0.0"],
    [1542337,"2026-02-18 01:00:00","54093","0.768","77.27","1.7309999999999999","110.8","1019.362","12.6","84.4","NAN","0.0"],
    [1542338,"2026-02-18 01:10:00","54094","0.862","55.09","1.8619999999999999","71.48","1019.247","12.54","84.9","NAN","0.0"],
    [1542339,"2026-02-18 01:20:00","54095","0.9259999999999999","69.17","1.96","72.03","1019.232","12.57","85.2","NAN","0.0"],
    [1542340,"2026-02-18 01:30:00","54096","1.3530000000000002","76.71","2.483","93.6","1019.137","12.7","84.6","NAN","0.0"],
    [1542341,"2026-02-18 01:40:00","54097","1.4980000000000002","76.68","2.8089999999999997","99.2","1019.16","12.76","84.1","NAN","0.0"],
    [1542342,"2026-02-18 01:50:00","54098","1.224","83.5","2.221","72.19","1019.11","12.75","84.4","NAN","0.0"],
    [1542343,"2026-02-18 02:00:00","54099","1.2890000000000001","83.5","2.385","87.6","1018.905","12.73","84.8","NAN","0.0"],
    [1542344,"2026-02-18 02:10:00","54100","1.3969999999999998","80.5","2.7769999999999997","73.65","1018.674","12.71","84.8","NAN","0.0"],
    [1542345,"2026-02-18 02:20:00","54101","1.052","76.82","2.7769999999999997","97.2","1018.577","12.73","85.1","NAN","0.0"],
    [1542346,"2026-02-18 02:30:00","54102","0.9940000000000001","63.22","2.613","91.1","1018.405","12.75","84.8","NAN","0.0"],
    [1542347,"2026-02-18 02:40:00","54103","0.469","36.43","1.405","32.2","1018.373","12.78","83.9","NAN","0.0"],
    [1542348,"2026-02-18 02:50:00","54104","0.7190000000000001","57.99","1.47","60.29","1018.298","12.76","83.4","NAN","0.0"],
    [1542349,"2026-02-18 03:00:00","54105","0.799","42.88","1.699","64.9","1018.243","12.74","83.4","NAN","0.0"],
    [1542350,"2026-02-18 03:10:00","54106","0.649","53.49","1.47","54.05","1018.03","12.75","83.4","NAN","0.0"],
    [1542351,"2026-02-18 03:20:00","54107","0.5660000000000001","46.47","1.274","43.26","1017.831","12.76","83.5","NAN","0.0"],
    [1542352,"2026-02-18 03:30:00","54108","0.406","53.67","1.307","29.09","1017.681","12.7","83.9","NAN","0.0"],
    [1542353,"2026-02-18 03:40:00","54109","0.652","37.21","1.535","46.04","1017.584","12.59","84.5","NAN","0.0"],
    [1542354,"2026-02-18 03:50:00","54110","0.523","38.47","1.47","5.479","1017.613","12.47","85","NAN","0.0"],
    [1542355,"2026-02-18 04:00:00","54111","0.617","11.63","1.699","13.94","1017.605","12.44","85","NAN","0.0"],
    [1542356,"2026-02-18 04:10:00","54112","0.586","32.66","1.568","38.89","1017.503","12.39","84.9","NAN","0.0"],
    [1542357,"2026-02-18 04:20:00","54113","0.505","36.49","1.47","30.34","1017.431","12.2","85.6","NAN","0.0"],
    [1542358,"2026-02-18 04:30:00","54114","0.8290000000000001","45.56","1.4369999999999998","34.19","1017.262","12.11","85.9","NAN","0.0"],
    [1542359,"2026-02-18 04:40:00","54115","0.767","57.1","1.5030000000000001","26.77","1017.2639999999999","12.03","86","NAN","0.0"],
    [1542360,"2026-02-18 04:50:00","54116","0.565","24.31","1.4369999999999998","37.62","1017.2489999999999","11.92","86.6","NAN","0.0"],
    [1542361,"2026-02-18 05:00:00","54117","0.579","43.82","1.176","42.57","1017.03","11.89","86.5","NAN","0.0"],
    [1542362,"2026-02-18 05:10:00","54118","0.579","11.69","1.143","41.27","1017.0139999999999","11.8","87","NAN","0.0"],
    [1542363,"2026-02-18 05:20:00","54119","0.5529999999999999","8.24","1.078","357.8","1017.0260000000001","11.84","86.7","NAN","0.0"],
    [1542364,"2026-02-18 05:30:00","54120","0.573","30.05","1.143","15.21","1017.034","11.89","86.4","NAN","0.0"],
    [1542365,"2026-02-18 05:40:00","54121","0.802","38.53","1.143","36.9","1016.966","11.77","86.9","NAN","0.0"],
    [1542366,"2026-02-18 05:50:00","54122","0.48","20.72","1.078","22.16","1016.816","11.67","87.3","NAN","0.0"],
    [1542367,"2026-02-18 06:00:00","54123","0.643","25.43","1.3719999999999999","37.62","1016.8","11.64","87.4","NAN","0.0"],
    [1542368,"2026-02-18 06:10:00","54124","0.588","35.94","1.2409999999999999","26.08","1016.8919999999999","11.57","87.3","NAN","0.0"],
    [1542369,"2026-02-18 06:20:00","54125","0.6579999999999999","31.16","1.176","17.53","1016.79","11.48","87.8","NAN","0.0"],
    [1542370,"2026-02-18 06:30:00","54126","0.6759999999999999","28.34","0.98","35.72","1016.791","11.43","87.8","NAN","0.0"],
    [1542371,"2026-02-18 06:40:00","54127","0.618","23.46","1.209","22.24","1016.779","11.52","87.4","NAN","0.0"],
    [1542372,"2026-02-18 06:50:00","54128","0.65","19.16","1.307","18.55","1016.7239999999999","11.59","87","NAN","0.0"],
    [1542373,"2026-02-18 07:00:00","54129","0.643","17.42","1.535","31.93","1016.664","11.6","86.7","NAN","0.0"],
    [1542374,"2026-02-18 07:10:00","54130","0.545","13.23","1.209","337.6","1016.7230000000001","11.71","85.9","NAN","0.0"],
    [1542375,"2026-02-18 07:20:00","54131","0.6629999999999999","25.53","1.47","29.19","1016.7239999999999","11.76","85.6","NAN","0.0"],
    [1542376,"2026-02-18 07:30:00","54132","0.636","12.58","1.5030000000000001","5.8020000000000005","1016.694","11.87","84.6","NAN","0.0"],
    [1542377,"2026-02-18 07:40:00","54133","1.005","40.59","2.189","38.88","1016.7080000000001","12.02","83.6","NAN","0.0"],
    [1542378,"2026-02-18 07:50:00","54134","0.782","43.08","1.568","54.6","1016.7489999999999","12.23","82.6","NAN","0.0"],
    [1542379,"2026-02-18 08:00:00","54135","0.623","349.7","2.287","339.2","1016.7639999999999","12.47","81","NAN","0.0"],
    [1542380,"2026-02-18 08:10:00","54136","0.446","6.303","1.045","3.33","1016.7560000000001","12.51","79.92","NAN","0.0"],
    [1542381,"2026-02-18 08:20:00","54137","0.687","9.39","1.405","9.42","1016.7589999999999","12.49","79.62","NAN","0.0"],
    [1542382,"2026-02-18 08:30:00","54138","0.835","42.21","1.7309999999999999","46.43","1016.6419999999999","12.9","78.29","NAN","0.0"],
    [1542383,"2026-02-18 08:40:00","54139","0.797","52.7","1.666","42.56","1016.52","13.06","76.67","NAN","0.0"],
    [1542384,"2026-02-18 08:50:00","54140","0.9520000000000001","43.33","1.9269999999999998","72.95","1016.413","13.38","75.19","NAN","0.0"],
    [1542385,"2026-02-18 09:00:00","54141","0.982","61.76","2.287","74.69","1016.26","13.94","72.72","NAN","0.0"],
    [1542386,"2026-02-18 09:10:00","54142","0.5429999999999999","50.28","1.601","67.12","1016.195","14.32","70.88","NAN","0.0"],
    [1542387,"2026-02-18 09:20:00","54143","0.509","123.0","1.078","137.6","1016.19","14.82","68.57","NAN","0.0"],
    [1542388,"2026-02-18 09:30:00","54144","0.757","107.9","1.3719999999999999","112.2","1016.143","14.91","67.89","NAN","0.0"],
    [1542389,"2026-02-18 09:40:00","54145","0.894","92.3","1.601","94.2","1015.9810000000001","14.73","68.55","NAN","0.0"],
    [1542390,"2026-02-18 09:50:00","54146","1.4580000000000002","131.5","2.7769999999999997","125.4","1016.039","14.68","67.89","NAN","0.0"],
    [1542391,"2026-02-18 10:00:00","54147","1.556","143.9","2.94","146.5","1016.195","14.26","69.8","NAN","0.0"],
    [1542392,"2026-02-18 10:10:00","54148","1.601","182.4","2.94","173.1","1016.16","14.19","71.93","NAN","0.0"],
    [1542393,"2026-02-18 10:20:00","54149","1.455","179.6","2.417","152.0","1016.073","14.22","71.7","NAN","0.0"],
    [1542394,"2026-02-18 10:30:00","54150","1.69","178.0","2.7110000000000003","166.1","1015.918","13.98","74.1","NAN","0.0"],
    [1542395,"2026-02-18 10:40:00","54151","1.632","126.0","2.875","112.6","1015.7289999999999","14.22","75.28","NAN","0.0"],
    [1542396,"2026-02-18 10:50:00","54152","1.632","106.4","2.5810000000000004","101.7","1015.597","14.31","74.76","NAN","0.0"],
    [1542397,"2026-02-18 11:00:00","54153","1.319","115.6","2.548","98.5","1015.383","15.11","69.87","NAN","0.0"],
    [1542398,"2026-02-18 11:10:00","54154","1.386","212.0","2.7110000000000003","229.1","1015.323","15.46","65.69","NAN","0.0"],
    [1542399,"2026-02-18 11:20:00","54155","1.604","197.0","3.005","180.9","1015.2330000000001","15.71","65.23","NAN","0.0"],
    [1542400,"2026-02-18 11:30:00","54156","3.103","173.3","5.586","151.8","1015.196","14.76","72.55","NAN","0.0"],
    [1542401,"2026-02-18 11:40:00","54157","3.373","173.5","5.194","182.0","1015.0139999999999","14.35","75.54","NAN","0.0"],
    [1542402,"2026-02-18 11:50:00","54158","2.443","187.9","4.279","196.9","1014.7","14.8","73.89","NAN","0.0"],
    [1542403,"2026-02-18 12:00:00","54159","2.305","199.1","4.835","204.6","1014.459","14.9","73.22","NAN","0.0"],
    [1542404,"2026-02-18 12:10:00","54160","2.197","218.0","4.573","202.5","1014.2919999999999","15.01","72.11","NAN","0.0"],
    [1542405,"2026-02-18 12:20:00","54161","2.2880000000000003","210.8","5.031000000000001","200.1","1014.13","14.81","72.89","NAN","0.0"],
    [1542406,"2026-02-18 12:30:00","54162","1.281","219.2","2.9730000000000003","210.1","1013.883","15.03","72.37","NAN","0.0"],
    [1542407,"2026-02-18 12:40:00","54163","2.0780000000000003","222.2","4.965","244.0","1013.6519999999999","14.98","72.86","NAN","0.0"],
    [1542408,"2026-02-18 12:50:00","54164","1.74","218.9","3.659","233.4","1013.4019999999999","15.02","73.67","NAN","0.0"],
    [1542409,"2026-02-18 13:00:00","54165","2.404","201.8","5.031000000000001","218.7","1013.1060000000001","14.96","74.94","NAN","0.0"],
    [1542410,"2026-02-18 13:10:00","54166","2.6039999999999996","203.1","4.835","184.0","1012.877","14.77","76.25","NAN","0.0"],
    [1542411,"2026-02-18 13:20:00","54167","1.859","219.8","4.41","228.3","1012.7330000000001","15.02","75.48","NAN","0.0"],
    [1542412,"2026-02-18 13:30:00","54168","1.952","216.2","3.985","214.1","1012.3610000000001","15.28","74.29","NAN","0.0"],
    [1542413,"2026-02-18 13:40:00","54169","1.94","222.6","4.051","233.7","1012.05","15.93","71.34","NAN","0.0"],
    [1542414,"2026-02-18 13:50:00","54170","2.269","204.4","4.671","203.7","1011.7710000000001","15.99","69.97","NAN","0.0"],
    [1542415,"2026-02-18 14:00:00","54171","1.879","208.9","4.279","212.5","1011.592","16.27","67.84","NAN","0.0"],
    [1542416,"2026-02-18 14:10:00","54172","2.34","237.3","4.998","266.1","1011.365","16.55","65.75","NAN","0.0"],
    [1542417,"2026-02-18 14:20:00","54173","2.113","236.5","4.737","241.5","1011.049","16.54","65.77","NAN","0.0"],
    [1542418,"2026-02-18 14:30:00","54174","2.12","231.7","4.541","251.1","1010.655","16.64","65.54","NAN","0.0"],
    [1542419,"2026-02-18 14:40:00","54175","1.6380000000000001","225.4","4.4430000000000005","233.8","1010.561","17.34","61.62","NAN","0.0"],
    [1542420,"2026-02-18 14:50:00","54176","2.436","204.3","4.508","200.9","1010.247","16.72","62.56","NAN","0.0"],
    [1542421,"2026-02-18 15:00:00","54177","2.283","210.9","5.2589999999999995","208.5","1010.204","16.43","63.96","NAN","0.0"],
    [1542422,"2026-02-18 15:10:00","54178","3.25","204.6","7.742000000000001","188.1","1009.935","16.05","65.76","NAN","0.0"],
    [1542423,"2026-02-18 15:20:00","54179","3.159","204.6","6.599","171.2","1009.816","15.62","68.66","NAN","0.0"],
    [1542424,"2026-02-18 15:30:00","54180","2.963","206.4","5.684","218.4","1009.7639999999999","15.59","70.55","NAN","0.0"],
    [1542425,"2026-02-18 15:40:00","54181","3.4360000000000004","206.9","6.925","207.0","1009.422","15.49","70.15","NAN","0.0"],
    [1542426,"2026-02-18 15:50:00","54182","2.245","210.9","5.912999999999999","198.1","1009.36","15.76","69.32","NAN","0.0"],
    [1542427,"2026-02-18 16:00:00","54183","1.84","210.0","4.149","218.5","1009.378","15.75","69.72","NAN","0.0"],
    [1542428,"2026-02-18 16:10:00","54184","1.7719999999999998","204.0","3.365","213.4","1009.3580000000001","15.71","70.03","NAN","0.0"],
    [1542429,"2026-02-18 16:20:00","54185","1.775","211.4","3.822","244.1","1009.325","15.73","69.27","NAN","0.0"],
    [1542430,"2026-02-18 16:30:00","54186","2.005","212.2","4.835","224.3","1009.2","16","66.86","NAN","0.0"],
    [1542431,"2026-02-18 16:40:00","54187","1.8090000000000002","209.8","3.659","248.1","1008.937","15.87","67.25","NAN","0.0"],
    [1542432,"2026-02-18 16:50:00","54188","2.217","221.4","5.2589999999999995","217.0","1008.742","16","63.58","NAN","0.0"],
    [1542433,"2026-02-18 17:00:00","54189","1.916","213.9","4.2139999999999995","216.9","1008.7080000000001","15.85","63.59","NAN","0.0"],
    [1542434,"2026-02-18 17:10:00","54190","2.149","217.1","4.2139999999999995","211.1","1008.451","15.68","63.6","NAN","0.0"],
    [1542435,"2026-02-18 17:20:00","54191","2.3409999999999997","214.3","4.508","225.4","1008.3839999999999","15.54","63.58","NAN","0.0"],
    [1542436,"2026-02-18 17:30:00","54192","1.899","211.2","4.247","211.2","1008.316","15.33","64.75","NAN","0.0"],
    [1542437,"2026-02-18 17:40:00","54193","2.129","205.4","4.4430000000000005","210.7","1008.2689999999999","15.05","67.8","NAN","0.0"],
    [1542438,"2026-02-18 17:50:00","54194","2.1919999999999997","208.6","4.475","212.0","1008.172","14.65","71.2","NAN","0.0"],
    [1542439,"2026-02-18 18:00:00","54195","1.972","210.3","4.573","211.1","1008.24","14.5","73.44","NAN","0.0"],
    [1542440,"2026-02-18 18:10:00","54196","2.113","214.8","4.181","196.5","1008.248","14.12","76.22","NAN","0.0"],
    [1542441,"2026-02-18 18:20:00","54197","1.3559999999999999","222.2","3.299","169.4","1008.322","14.06","77.06","NAN","0.0"],
    [1542442,"2026-02-18 18:30:00","54198","1.8359999999999999","225.4","3.7569999999999997","231.9","1008.3639999999999","13.93","77.93","NAN","0.0"],
    [1542443,"2026-02-18 18:40:00","54199","1.821","228.2","4.279","236.5","1008.3489999999999","13.82","78.96","NAN","0.0"],
    [1542444,"2026-02-18 18:50:00","54200","1.795","227.4","3.887","237.7","1008.279","13.78","79.56","NAN","0.0"],
    [1542445,"2026-02-18 19:00:00","54201","2.0180000000000002","229.2","4.606","222.9","1008.1619999999999","13.76","79.92","NAN","0.0"],
    [1542446,"2026-02-18 19:10:00","54202","1.7309999999999999","224.1","3.234","210.4","1008.063","13.73","79.88","NAN","0.0"],
    [1542447,"2026-02-18 19:20:00","54203","1.286","218.3","2.907","212.7","1007.828","13.65","79.78","NAN","0.0"],
    [1542448,"2026-02-18 19:30:00","54204","1.5530000000000002","206.7","3.365","211.8","1007.6110000000001","13.51","81.5","NAN","0.0"],
    [1542449,"2026-02-18 19:40:00","54205","1.391","213.5","4.247","191.6","1007.5369999999999","13.35","82.8","NAN","0.0"],
    [1542450,"2026-02-18 19:50:00","54206","1.123","215.3","2.9730000000000003","205.1","1007.3960000000001","13.31","82.8","NAN","0.0"],
    [1542451,"2026-02-18 20:00:00","54207","1.127","222.8","3.528","203.1","1007.295","13.23","83","NAN","0.0"],
    [1542452,"2026-02-18 20:10:00","54208","1.01","210.9","2.7110000000000003","196.7","1007.181","13.13","83.2","NAN","0.0"],
    [1542453,"2026-02-18 20:20:00","54209","0.583","210.2","1.405","194.2","1006.951","12.99","84.5","NAN","0.0"],
    [1542454,"2026-02-18 20:30:00","54210","0.9740000000000001","225.7","2.483","233.2","1006.799","13.01","84.9","NAN","0.0"],
    [1542455,"2026-02-18 20:40:00","54211","1.053","236.3","3.5610000000000004","255.2","1006.802","12.97","85.3","NAN","0.0"],
    [1542456,"2026-02-18 20:50:00","54212","1.736","236.6","3.7569999999999997","245.3","1006.961","13","85.5","NAN","0.0"],
    [1542457,"2026-02-18 21:00:00","54213","0.9329999999999999","221.6","2.679","230.4","1006.988","12.95","85","NAN","0.0"],
    [1542458,"2026-02-18 21:10:00","54214","1.008","200.3","2.221","196.2","1006.946","12.89","86","NAN","0.0"],
    [1542459,"2026-02-18 21:20:00","54215","0.825","220.1","1.764","189.7","1006.821","12.66","88.2","NAN","0.0"],
    [1542460,"2026-02-18 21:30:00","54216","0.555","212.6","1.699","272.5","1006.816","12.6","88.6","NAN","0.0"],
    [1542461,"2026-02-18 21:40:00","54217","0.94","194.2","1.797","192.3","1006.799","12.47","89.4","NAN","0.0"],
    [1542462,"2026-02-18 21:50:00","54218","0.518","201.5","1.2409999999999999","199.7","1006.7919999999999","12.39","89.9","NAN","0.0"],
    [1542463,"2026-02-18 22:00:00","54219","0.778","193.9","1.405","170.4","1006.794","12.37","89.7","NAN","0.0"],
    [1542464,"2026-02-18 22:10:00","54220","0.759","206.3","1.568","201.8","1006.795","12.32","89.5","NAN","0.0"],
    [1542465,"2026-02-18 22:20:00","54221","0.59","214.2","2.483","249.5","1006.7","12.39","88.9","NAN","0.0"],
    [1542466,"2026-02-18 22:30:00","54222","1.337","230.2","3.7239999999999998","229.6","1006.806","12.61","87.7","NAN","0.0"],
    [1542467,"2026-02-18 22:40:00","54223","0.99","236.5","2.123","254.8","1006.7689999999999","12.88","85.3","NAN","0.0"],
    [1542468,"2026-02-18 22:50:00","54224","0.736","262.9","1.993","284.7","1006.835","13.13","82.2","NAN","0.0"],
    [1542469,"2026-02-18 23:00:00","54225","0.66","228.2","1.7309999999999999","248.2","1006.939","13.35","79","NAN","0.0"],
    [1542470,"2026-02-18 23:10:00","54226","1.774","251.0","5.031000000000001","237.2","1006.8919999999999","14.12","69.86","NAN","0.0"],
    [1542471,"2026-02-18 23:20:00","54227","2.605","254.4","6.9910000000000005","261.3","1006.8839999999999","16.15","51.43","NAN","0.0"],
    [1542472,"2026-02-18 23:30:00","54228","2.593","251.0","6.141","242.7","1007.043","16.12","51.03","NAN","0.0"],
    [1542473,"2026-02-18 23:40:00","54229","2.298","252.9","4.573","273.5","1007.0139999999999","15.9","51.97","NAN","0.0"],
    [1542474,"2026-02-18 23:50:00","54230","2.166","237.5","4.312","231.3","1006.93","15.68","53.13","NAN","0.0"],
    [1542475,"2026-02-19 00:00:00","54231","2.231","237.0","4.181","227.6","1007.005","15.48","54.36","NAN","0.0"],
    [1542476,"2026-02-19 00:10:00","54232","2.1319999999999997","234.9","4.2139999999999995","241.0","1006.908","15.17","56.31","NAN","0.0"],
    [1542477,"2026-02-19 00:20:00","54233","1.03","243.4","2.352","234.1","1006.97","14.96","57.4","NAN","0.0"],
    [1542478,"2026-02-19 00:30:00","54234","1.105","245.3","2.515","249.1","1007.0139999999999","14.81","58.18","NAN","0.0"],
    [1542479,"2026-02-19 00:40:00","54235","0.895","260.3","2.254","274.6","1007.082","14.75","58.51","NAN","0.0"],
    [1542480,"2026-02-19 00:50:00","54236","1.318","275.6","3.397","276.7","1007.383","15.12","55.94","NAN","0.0"],
    [1542481,"2026-02-19 01:00:00","54237","1.183","281.4","3.1689999999999996","292.1","1007.3710000000001","15.18","55.19","NAN","0.0"],
    [1542482,"2026-02-19 01:10:00","54238","1.057","252.0","2.9730000000000003","230.4","1007.4639999999999","15.14","54.99","NAN","0.0"],
    [1542483,"2026-02-19 01:20:00","54239","1.8840000000000001","261.1","4.345","302.9","1007.515","15.24","53.07","NAN","0.0"],
    [1542484,"2026-02-19 01:30:00","54240","1.985","271.8","5.1610000000000005","297.9","1007.533","15.33","51.66","NAN","0.0"],
    [1542485,"2026-02-19 01:40:00","54241","1.5330000000000001","266.2","3.397","293.0","1007.453","15.24","51.86","NAN","0.0"],
    [1542486,"2026-02-19 01:50:00","54242","1.6669999999999998","250.1","4.2139999999999995","244.3","1007.615","15.18","51.83","NAN","0.0"],
    [1542487,"2026-02-19 02:00:00","54243","1.5590000000000002","241.4","5.553","254.8","1007.512","15.13","51.17","NAN","0.0"],
    [1542488,"2026-02-19 02:10:00","54244","2.15","263.6","7.938","289.7","1007.398","15.26","47.77","NAN","0.0"],
    [1542489,"2026-02-19 02:20:00","54245","2.595","280.5","5.749","281.8","1007.368","15.43","44.57","NAN","0.0"],
    [1542490,"2026-02-19 02:30:00","54246","2.7939999999999996","273.5","6.9910000000000005","270.4","1007.278","15.33","44.6","NAN","0.0"],
    [1542491,"2026-02-19 02:40:00","54247","2.121","265.4","4.867","262.0","1007.308","15.14","44.82","NAN","0.0"],
    [1542492,"2026-02-19 02:50:00","54248","1.915","252.0","5.39","272.8","1007.298","14.97","44.28","NAN","0.0"],
    [1542493,"2026-02-19 03:00:00","54249","1.966","243.6","5.357","225.8","1007.173","14.77","43.59","NAN","0.0"],
    [1542494,"2026-02-19 03:10:00","54250","1.724","241.8","3.887","238.4","1007.22","14.71","42.67","NAN","0.0"],
    [1542495,"2026-02-19 03:20:00","54251","2.897","243.3","8.56","239.6","1007.192","14.67","40.98","NAN","0.0"],
    [1542496,"2026-02-19 03:30:00","54252","3.4360000000000004","242.0","7.644","236.8","1007.252","14.72","39.92","NAN","0.0"],
    [1542497,"2026-02-19 03:40:00","54253","2.94","239.5","7.382999999999999","223.4","1007.128","14.59","39.73","NAN","0.0"],
    [1542498,"2026-02-19 03:50:00","54254","2.7110000000000003","250.8","6.5329999999999995","240.2","1007.174","14.55","38.06","NAN","0.0"],
    [1542499,"2026-02-19 04:00:00","54255","2.8","264.5","6.893","288.3","1007.096","14.53","37.32","NAN","0.0"],
    [1542500,"2026-02-19 04:10:00","54256","3.333","270.5","11.27","250.5","1007.018","14.4","37.85","NAN","0.0"],
    [1542501,"2026-02-19 04:20:00","54257","3.138","273.9","7.644","247.8","1007.063","14.24","38.5","NAN","0.0"],
    [1542502,"2026-02-19 04:30:00","54258","3.193","271.0","9.47","259.9","1007.17","14.06","39.32","NAN","0.0"],
    [1542503,"2026-02-19 04:40:00","54259","4.162","263.2","11.37","273.1","1007.296","13.88","39.92","NAN","0.0"],
    [1542504,"2026-02-19 04:50:00","54260","3.5380000000000003","271.1","9.93","284.3","1007.45","13.7","40.9","NAN","0.0"],
    [1542505,"2026-02-19 05:00:00","54261","3.025","274.7","8.53","299.6","1007.5939999999999","13.55","41.24","NAN","0.0"],
    [1542506,"2026-02-19 05:10:00","54262","3.321","282.4","9.96","276.0","1007.7560000000001","13.49","40.71","NAN","0.0"],
    [1542507,"2026-02-19 05:20:00","54263","2.675","284.1","8.26","284.8","1007.98","13.49","40.08","NAN","0.0"],
    [1542508,"2026-02-19 05:30:00","54264","2.72","292.7","8.69","302.0","1008.0219999999999","13.3","40.69","NAN","0.0"],
    [1542509,"2026-02-19 05:40:00","54265","2.3080000000000003","300.4","5.978","242.3","1008.007","13.22","40.9","NAN","0.0"],
    [1542510,"2026-02-19 05:50:00","54266","2.245","296.7","8.4","297.2","1008.0169999999999","13.1","41.09","NAN","0.0"],
    [1542511,"2026-02-19 06:00:00","54267","4.058","274.4","11.66","284.4","1007.9830000000001","12.98","41.03","NAN","0.0"],
    [1542512,"2026-02-19 06:10:00","54268","3.449","273.4","8.3","289.4","1007.97","12.71","41.89","NAN","0.0"],
    [1542513,"2026-02-19 06:20:00","54269","4.08","273.0","9.8","289.5","1007.938","12.36","42.67","NAN","0.0"],
    [1542514,"2026-02-19 06:30:00","54270","3.175","271.5","10.85","307.5","1008.205","12.07","43.24","NAN","0.0"],
    [1542515,"2026-02-19 06:40:00","54271","3.049","299.5","10.06","271.2","1008.32","11.79","44.17","NAN","0.0"],
    [1542516,"2026-02-19 06:50:00","54272","2.94","301.3","7.546","315.5","1008.404","11.71","44.26","NAN","0.0"],
    [1542517,"2026-02-19 07:00:00","54273","2.7960000000000003","303.8","8.36","275.2","1008.3739999999999","11.56","45.28","NAN","0.0"],
    [1542518,"2026-02-19 07:10:00","54274","2.545","305.0","6.599","271.2","1008.2660000000001","11.5","45.42","NAN","0.0"],
    [1542519,"2026-02-19 07:20:00","54275","2.6210000000000004","282.5","8.56","286.2","1008.243","11.52","44.78","NAN","0.0"],
    [1542520,"2026-02-19 07:30:00","54276","3.167","281.1","9.15","329.7","1008.323","11.55","43.96","NAN","0.0"],
    [1542521,"2026-02-19 07:40:00","54277","3.161","299.4","7.35","301.2","1008.7660000000001","11.62","43.3","NAN","0.0"],
    [1542522,"2026-02-19 07:50:00","54278","2.551","299.4","7.6770000000000005","290.5","1009.2439999999999","11.69","43.55","NAN","0.0"],
    [1542523,"2026-02-19 08:00:00","54279","2.665","318.5","8.23","294.6","1009.7639999999999","11.55","44.5","NAN","0.0"],
    [1542524,"2026-02-19 08:10:00","54280","1.685","58.48","5.194","253.5","1010.307","11.27","45.91","NAN","0.0"],
    [1542525,"2026-02-19 08:20:00","54281","1.679","163.4","5.129","175.1","1010.6010000000001","11.07","47.32","NAN","0.0"],
    [1542526,"2026-02-19 08:30:00","54282","1.507","173.8","4.998","166.6","1010.742","11.01","47.87","NAN","0.0"],
    [1542527,"2026-02-19 08:40:00","54283","3.3360000000000003","178.7","5.815","176.9","1010.925","11.02","48.17","NAN","0.0"],
    [1542528,"2026-02-19 08:50:00","54284","3.12","182.7","4.671","176.8","1010.992","11.23","48.3","NAN","0.0"],
    [1542529,"2026-02-19 09:00:00","54285","2.3209999999999997","192.8","4.737","239.3","1011.1439999999999","11.71","46.74","NAN","0.0"],
    [1542530,"2026-02-19 09:10:00","54286","1.939","220.7","4.083","220.9","1011.403","12.07","45.03","NAN","0.0"],
    [1542531,"2026-02-19 09:20:00","54287","1.371","158.8","4.181","187.9","1011.4780000000001","12.48","44.88","NAN","0.0"],
    [1542532,"2026-02-19 09:30:00","54288","1.4869999999999999","326.9","4.279","69.5","1011.403","12.9","42.99","NAN","0.0"],
    [1542533,"2026-02-19 09:40:00","54289","2.7689999999999997","328.0","7.579","305.3","1011.44","12.89","41.93","NAN","0.0"],
    [1542534,"2026-02-19 09:50:00","54290","2.525","298.6","7.546","261.4","1011.578","12.79","41.85","NAN","0.0"],
    [1542535,"2026-02-19 10:00:00","54291","2.572","297.6","8.1","289.3","1011.7389999999999","12.72","42.08","NAN","0.0"],
    [1542536,"2026-02-19 10:10:00","54292","2.9739999999999998","320.8","8.3","275.0","1011.862","12.5","42.8","NAN","0.0"],
    [1542537,"2026-02-19 10:20:00","54293","3.068","325.4","8.3","349.4","1012.148","12.37","43.5","NAN","0.0"],
    [1542538,"2026-02-19 10:30:00","54294","2.504","311.0","6.697","326.3","1012.419","12.42","43.56","NAN","0.0"],
    [1542539,"2026-02-19 10:40:00","54295","2.25","294.5","6.566","271.3","1012.7310000000001","12.4","43.59","NAN","0.0"],
    [1542540,"2026-02-19 10:50:00","54296","1.786","283.6","7.056","290.0","1012.9730000000001","12.68","43.31","NAN","0.0"],
    [1542541,"2026-02-19 11:00:00","54297","2.134","304.7","6.239","318.4","1013.1489999999999","12.97","42.69","NAN","0.0"],
    [1542542,"2026-02-19 11:10:00","54298","1.796","288.1","5.292000000000001","305.0","1013.1360000000001","13.59","41.27","NAN","0.0"],
    [1542543,"2026-02-19 11:20:00","54299","1.67","304.8","6.631","332.4","1012.92","14.14","39.79","NAN","0.0"],
    [1542544,"2026-02-19 11:30:00","54300","2.104","279.0","6.566","254.3","1012.695","13.88","40.74","NAN","0.0"],
    [1542545,"2026-02-19 11:40:00","54301","2.9739999999999998","284.8","7.84","250.4","1012.654","14.39","39.77","NAN","0.0"],
    [1542546,"2026-02-19 11:50:00","54302","2.037","311.0","5.455","306.5","1012.543","14.83","39.25","NAN","0.0"],
    [1542547,"2026-02-19 12:00:00","54303","2.548","277.5","6.9910000000000005","292.7","1012.539","14.94","38.87","NAN","0.0"],
    [1542548,"2026-02-19 12:10:00","54304","2.96","257.5","8.04","302.3","1012.449","15.32","38.48","NAN","0.0"],
    [1542549,"2026-02-19 12:20:00","54305","3.625","272.1","9.6","279.9","1012.544","15.19","38.63","NAN","0.0"],
    [1542550,"2026-02-19 12:30:00","54306","2.7289999999999996","280.1","7.317","290.2","1012.4889999999999","15.18","38.49","NAN","0.0"],
    [1542551,"2026-02-19 12:40:00","54307","3.218","267.3","10.26","283.6","1012.2919999999999","15.3","37.98","NAN","0.0"],
    [1542552,"2026-02-19 12:50:00","54308","3.3789999999999996","283.7","10.09","273.9","1012.23","15.59","37.51","NAN","0.0"],
    [1542553,"2026-02-19 13:00:00","54309","3.5989999999999998","280.4","9.73","311.3","1012.245","15.65","36.74","NAN","0.0"],
    [1542554,"2026-02-19 13:10:00","54310","4.154","270.0","9.24","298.3","1012.3489999999999","15.62","37.38","NAN","0.0"],
    [1542555,"2026-02-19 13:20:00","54311","3.8089999999999997","262.8","8.07","270.5","1012.337","15.82","37.17","NAN","0.0"],
    [1542556,"2026-02-19 13:30:00","54312","3.2089999999999996","262.9","7.872999999999999","245.2","1012.347","16.11","36.58","NAN","0.0"],
    [1542557,"2026-02-19 13:40:00","54313","2.965","281.6","8.26","296.0","1012.4069999999999","16.3","36.17","NAN","0.0"],
    [1542558,"2026-02-19 13:50:00","54314","2.8710000000000004","288.6","7.971","319.7","1012.372","16.4","35.66","NAN","0.0"],
    [1542559,"2026-02-19 14:00:00","54315","2.911","296.6","7.154","299.0","1012.372","16.39","35.45","NAN","0.0"],
    [1542560,"2026-02-19 14:10:00","54316","2.182","271.6","5.2589999999999995","253.8","1012.442","16.75","35.17","NAN","0.0"],
    [1542561,"2026-02-19 14:20:00","54317","1.818","270.6","5.096","278.9","1012.451","17.07","34.4","NAN","0.0"],
    [1542562,"2026-02-19 14:30:00","54318","2.457","256.7","6.7620000000000005","247.3","1012.4639999999999","17.02","34.54","NAN","0.0"],
    [1542563,"2026-02-19 14:40:00","54319","2.883","283.2","7.938","251.4","1012.564","16.89","34.93","NAN","0.0"],
    [1542564,"2026-02-19 14:50:00","54320","2.722","262.6","8.0","261.6","1012.5110000000001","16.93","35.16","NAN","0.0"],
    [1542565,"2026-02-19 15:00:00","54321","2.861","270.4","6.7620000000000005","266.7","1012.633","16.81","35.2","NAN","0.0"],
    [1542566,"2026-02-19 15:10:00","54322","2.286","259.3","9.31","226.6","1012.553","17.03","34.73","NAN","0.0"],
    [1542567,"2026-02-19 15:20:00","54323","3.339","262.0","8.23","253.7","1012.449","16.66","35.09","NAN","0.0"],
    [1542568,"2026-02-19 15:30:00","54324","2.497","266.0","6.042999999999999","248.6","1012.3389999999999","16.78","35.33","NAN","0.0"],
    [1542569,"2026-02-19 15:40:00","54325","2.8560000000000003","263.0","7.579","255.8","1012.279","16.81","35.28","NAN","0.0"],
    [1542570,"2026-02-19 15:50:00","54326","4.013","263.4","9.18","287.0","1012.232","16.62","35.61","NAN","0.0"],
    [1542571,"2026-02-19 16:00:00","54327","5.119","263.5","10.55","296.7","1012.23","16.15","36.24","NAN","0.0"],
    [1542572,"2026-02-19 16:10:00","54328","3.888","261.4","8.49","259.7","1012.5239999999999","15.99","36.57","NAN","0.0"],
    [1542573,"2026-02-19 16:20:00","54329","3.3960000000000004","258.6","8.85","262.5","1012.7260000000001","15.98","36.99","NAN","0.0"],
    [1542574,"2026-02-19 16:30:00","54330","4.055","266.7","9.87","286.3","1012.778","15.83","37.12","NAN","0.0"],
    [1542575,"2026-02-19 16:40:00","54331","3.5860000000000003","274.0","10.39","273.6","1012.885","15.74","37.61","NAN","0.0"],
    [1542576,"2026-02-19 16:50:00","54332","3.2230000000000003","267.0","8.53","251.2","1012.987","15.65","38.02","NAN","0.0"],
    [1542577,"2026-02-19 17:00:00","54333","3.678","277.5","12.32","298.7","1013.174","15.43","38.31","NAN","0.0"],
    [1542578,"2026-02-19 17:10:00","54334","3.696","264.6","11.73","245.7","1013.306","15.24","38.4","NAN","0.0"],
    [1542579,"2026-02-19 17:20:00","54335","3.1239999999999997","252.8","6.403","284.2","1013.4680000000001","15.1","38.8","NAN","0.0"],
    [1542580,"2026-02-19 17:30:00","54336","2.563","263.2","6.501","304.4","1013.6669999999999","14.95","39.59","NAN","0.0"],
    [1542581,"2026-02-19 17:40:00","54337","3.3110000000000004","269.5","8.92","256.8","1013.882","14.81","39.93","NAN","0.0"],
    [1542582,"2026-02-19 17:50:00","54338","3.8339999999999996","271.5","11.4","313.2","1014.185","14.63","40.25","NAN","0.0"],
    [1542583,"2026-02-19 18:00:00","54339","3.0669999999999997","266.8","8.1","260.3","1014.4810000000001","14.47","40.55","NAN","0.0"],
    [1542584,"2026-02-19 18:10:00","54340","2.7560000000000002","272.5","6.599","292.3","1014.725","14.38","40.64","NAN","0.0"],
    [1542585,"2026-02-19 18:20:00","54341","3.266","271.3","9.73","267.5","1014.8860000000001","14.29","40.5","NAN","0.0"],
    [1542586,"2026-02-19 18:30:00","54342","3.1439999999999997","267.6","9.6","273.4","1014.965","14.16","40.84","NAN","0.0"],
    [1542587,"2026-02-19 18:40:00","54343","3.573","263.1","9.24","287.7","1015.115","14.1","41","NAN","0.0"],
    [1542588,"2026-02-19 18:50:00","54344","3.097","266.2","8.3","253.9","1015.1089999999999","14.04","41.16","NAN","0.0"],
    [1542589,"2026-02-19 19:00:00","54345","3.37","262.9","8.95","292.9","1015.028","14.01","40.96","NAN","0.0"],
    [1542590,"2026-02-19 19:10:00","54346","2.722","265.5","8.56","304.1","1015.163","13.99","40.63","NAN","0.0"],
    [1542591,"2026-02-19 19:20:00","54347","2.324","268.6","5.847","265.5","1015.459","14.02","40.13","NAN","0.0"],
    [1542592,"2026-02-19 19:30:00","54348","2.678","268.6","7.285","257.6","1015.615","13.99","39.93","NAN","0.0"],
    [1542593,"2026-02-19 19:40:00","54349","3.0869999999999997","263.9","7.121","258.8","1015.575","13.9","39.73","NAN","0.0"],
    [1542594,"2026-02-19 19:50:00","54350","3.1289999999999996","267.6","9.38","313.2","1015.8580000000001","13.79","39.93","NAN","0.0"],
    [1542595,"2026-02-19 20:00:00","54351","3.247","266.9","7.154","294.3","1016.278","13.67","40.31","NAN","0.0"],
    [1542596,"2026-02-19 20:10:00","54352","2.8789999999999996","266.5","7.252000000000001","274.4","1016.35","13.59","40.58","NAN","0.0"],
    [1542597,"2026-02-19 20:20:00","54353","2.7689999999999997","263.0","6.925","288.3","1016.3919999999999","13.48","40.91","NAN","0.0"],
    [1542598,"2026-02-19 20:30:00","54354","2.802","250.9","6.86","260.7","1016.322","13.33","41.34","NAN","0.0"],
    [1542599,"2026-02-19 20:40:00","54355","2.927","251.0","6.566","252.8","1016.393","13.22","41.62","NAN","0.0"],
    [1542600,"2026-02-19 20:50:00","54356","2.3409999999999997","239.5","7.023","238.3","1016.515","13.11","41.96","NAN","0.0"],
    [1542601,"2026-02-19 21:00:00","54357","2.4","235.0","6.501","216.4","1016.721","13.01","42.09","NAN","0.0"],
    [1542602,"2026-02-19 21:10:00","54358","2.6889999999999996","248.2","6.957999999999999","228.2","1016.773","12.96","42.17","NAN","0.0"],
    [1542603,"2026-02-19 21:20:00","54359","2.437","239.9","5.749","252.4","1016.709","12.81","42.68","NAN","0.0"],
    [1542604,"2026-02-19 21:30:00","54360","1.994","247.6","6.37","235.3","1016.711","12.7","42.9","NAN","0.0"],
    [1542605,"2026-02-19 21:40:00","54361","1.591","263.2","3.7239999999999998","294.3","1016.721","12.57","43.39","NAN","0.0"],
    [1542606,"2026-02-19 21:50:00","54362","1.4","300.6","4.508","278.9","1016.686","12.58","43.2","NAN","0.0"],
    [1542607,"2026-02-19 22:00:00","54363","1.3559999999999999","324.9","5.227","315.6","1016.804","12.49","43.35","NAN","0.0"],
    [1542608,"2026-02-19 22:10:00","54364","1.896","336.2","5.063","319.2","1016.887","12.43","43.43","NAN","0.0"],
    [1542609,"2026-02-19 22:20:00","54365","2.036","328.9","4.933","309.6","1016.7760000000001","12.4","43.55","NAN","0.0"],
    [1542610,"2026-02-19 22:30:00","54366","1.123","289.8","2.842","269.2","1016.572","12.33","43.82","NAN","0.0"],
    [1542611,"2026-02-19 22:40:00","54367","2.464","308.5","7.121","293.2","1016.623","12.28","43.88","NAN","0.0"],
    [1542612,"2026-02-19 22:50:00","54368","2.4290000000000003","309.3","7.382999999999999","255.3","1016.913","12.27","43.96","NAN","0.0"],
    [1542613,"2026-02-19 23:00:00","54369","2.908","328.8","8.23","326.1","1016.962","12.23","44.25","NAN","0.0"],
    [1542614,"2026-02-19 23:10:00","54370","2.8539999999999996","326.1","7.218999999999999","302.7","1016.8910000000001","12.16","44.58","NAN","0.0"],
    [1542615,"2026-02-19 23:20:00","54371","2.352","321.0","7.187","329.1","1016.7330000000001","12.08","44.8","NAN","0.0"],
    [1542616,"2026-02-19 23:30:00","54372","2.602","322.7","7.709","333.0","1016.755","12.07","44.71","NAN","0.0"],
    [1542617,"2026-02-19 23:40:00","54373","2.9530000000000003","319.3","6.631","340.5","1016.895","12.01","44.95","NAN","0.0"],
    [1542618,"2026-02-19 23:50:00","54374","2.915","326.6","8.98","313.7","1016.824","11.91","45.33","NAN","0.0"],
    [1542619,"2026-02-20 00:00:00","54375","2.8489999999999998","321.7","7.905","324.6","1016.743","11.85","45.56","NAN","0.0"],
    [1542620,"2026-02-20 00:10:00","54376","2.474","318.1","7.971","298.0","1016.802","11.78","45.68","NAN","0.0"],
    [1542621,"2026-02-20 00:20:00","54377","2.4130000000000003","317.0","6.7620000000000005","306.8","1016.945","11.72","45.86","NAN","0.0"],
    [1542622,"2026-02-20 00:30:00","54378","1.7919999999999998","312.5","5.521","337.9","1017.052","11.7","46.02","NAN","0.0"],
    [1542623,"2026-02-20 00:40:00","54379","2.7230000000000003","314.0","6.9910000000000005","321.3","1017.0889999999999","11.63","46.4","NAN","0.0"],
    [1542624,"2026-02-20 00:50:00","54380","2.6889999999999996","304.0","7.317","11.26","1017.092","11.57","46.79","NAN","0.0"],
    [1542625,"2026-02-20 01:00:00","54381","3.0389999999999997","308.8","8.3","294.6","1017.1410000000001","11.46","47.34","NAN","0.0"],
    [1542626,"2026-02-20 01:10:00","54382","3.173","321.1","8.07","293.9","1017.3589999999999","11.43","47.53","NAN","0.0"],
    [1542627,"2026-02-20 01:20:00","54383","2.374","305.1","7.415","315.3","1017.5930000000001","11.42","47.67","NAN","0.0"],
    [1542628,"2026-02-20 01:30:00","54384","2.461","306.1","8.66","312.5","1017.745","11.39","47.78","NAN","0.0"],
    [1542629,"2026-02-20 01:40:00","54385","1.569","286.6","5.521","348.4","1017.86","11.36","47.71","NAN","0.0"],
    [1542630,"2026-02-20 01:50:00","54386","1.922","293.8","5.619","353.1","1018.158","11.34","47.84","NAN","0.0"],
    [1542631,"2026-02-20 02:00:00","54387","1.875","287.4","5.651","260.6","1018.3660000000001","11.28","48.25","NAN","0.0"],
    [1542632,"2026-02-20 02:10:00","54388","1.84","288.9","6.239","316.9","1018.427","11.24","48.49","NAN","0.0"],
    [1542633,"2026-02-20 02:20:00","54389","1.8719999999999999","287.5","5.2589999999999995","283.0","1018.3960000000001","11.17","48.82","NAN","0.0"],
    [1542634,"2026-02-20 02:30:00","54390","2.128","267.5","7.382999999999999","274.9","1018.313","11.13","48.9","NAN","0.0"],
    [1542635,"2026-02-20 02:40:00","54391","1.7309999999999999","273.1","4.606","291.1","1018.459","11.11","49.1","NAN","0.0"],
    [1542636,"2026-02-20 02:50:00","54392","1.167","277.6","4.802","278.8","1018.549","11.07","49.13","NAN","0.0"],
    [1542637,"2026-02-20 03:00:00","54393","1.013","276.8","3.201","299.7","1018.5419999999999","11.08","48.93","NAN","0.0"],
    [1542638,"2026-02-20 03:10:00","54394","1.615","307.4","4.279","322.5","1018.462","11.27","47.6","NAN","0.0"],
    [1542639,"2026-02-20 03:20:00","54395","1.817","261.9","4.018","316.2","1018.3919999999999","11.5","46.49","NAN","0.0"],
    [1542640,"2026-02-20 03:30:00","54396","1.347","277.5","3.985","298.2","1018.448","11.36","47.15","NAN","0.0"],
    [1542641,"2026-02-20 03:40:00","54397","1.507","274.8","4.867","282.7","1018.546","11.38","46.96","NAN","0.0"],
    [1542642,"2026-02-20 03:50:00","54398","1.2670000000000001","252.4","5.455","232.0","1018.7260000000001","11.47","46.51","NAN","0.0"],
    [1542643,"2026-02-20 04:00:00","54399","1.298","275.2","4.41","291.6","1018.7","11.62","45.24","NAN","0.0"],
    [1542644,"2026-02-20 04:10:00","54400","1.145","328.4","4.998","307.1","1018.681","11.8","44.18","NAN","0.0"],
    [1542645,"2026-02-20 04:20:00","54401","2.551","326.5","6.925","340.2","1018.549","11.7","44.56","NAN","0.0"],
    [1542646,"2026-02-20 04:30:00","54402","2.467","307.5","5.586","325.5","1018.503","11.66","44.83","NAN","0.0"],
    [1542647,"2026-02-20 04:40:00","54403","1.5319999999999998","282.7","5.2589999999999995","339.8","1018.576","11.64","44.63","NAN","0.0"],
    [1542648,"2026-02-20 04:50:00","54404","1.804","285.5","5.031000000000001","250.0","1018.6410000000001","11.87","43.22","NAN","0.0"],
    [1542649,"2026-02-20 05:00:00","54405","1.212","234.3","2.7110000000000003","210.4","1018.831","11.84","43.67","NAN","0.0"],
    [1542650,"2026-02-20 05:10:00","54406","1.2109999999999999","222.1","3.299","230.5","1019.197","11.13","48.36","NAN","0.0"],
    [1542651,"2026-02-20 05:20:00","54407","1.882","236.5","3.822","246.0","1019.323","10.84","49.75","NAN","0.0"],
    [1542652,"2026-02-20 05:30:00","54408","1.723","234.8","3.6910000000000003","251.7","1019.43","10.55","51.64","NAN","0.0"],
    [1542653,"2026-02-20 05:40:00","54409","1.094","243.3","2.679","234.5","1019.643","10.63","51.17","NAN","0.0"],
    [1542654,"2026-02-20 05:50:00","54410","0.871","227.5","2.417","222.6","1019.7589999999999","10.94","49.11","NAN","0.0"],
    [1542655,"2026-02-20 06:00:00","54411","0.659","96.0","1.568","312.5","1019.803","10.92","49.26","NAN","0.0"],
    [1542656,"2026-02-20 06:10:00","54412","0.899","137.9","1.829","162.4","1019.94","11.43","45.61","NAN","0.0"],
    [1542657,"2026-02-20 06:20:00","54413","0.95","207.9","3.201","226.1","1020.191","11.7","44.73","NAN","0.0"],
    [1542658,"2026-02-20 06:30:00","54414","1.3719999999999999","341.2","3.332","329.3","1020.3860000000001","11.99","42.71","NAN","0.0"],
    [1542659,"2026-02-20 06:40:00","54415","1.5519999999999998","21.59","3.92","47.59","1020.682","12.21","41.03","NAN","0.0"],
    [1542660,"2026-02-20 06:50:00","54416","1.831","24.45","4.606","13.5","1020.863","12","42.31","NAN","0.0"],
    [1542661,"2026-02-20 07:00:00","54417","1.058","342.1","3.201","347.4","1021.13","11.77","44.18","NAN","0.0"],
    [1542662,"2026-02-20 07:10:00","54418","0.496","119.4","1.111","109.1","1021.346","12.02","44.18","NAN","0.0"],
    [1542663,"2026-02-20 07:20:00","54419","0.752","187.6","1.568","147.4","1021.703","11.85","45.55","NAN","0.0"],
    [1542664,"2026-02-20 07:30:00","54420","0.542","171.4","1.111","184.0","1022.18","11.79","46.11","NAN","0.0"],
    [1542665,"2026-02-20 07:40:00","54421","0.223","101.2","1.045","322.1","1022.2439999999999","11.9","46.52","NAN","0.0"],
    [1542666,"2026-02-20 07:50:00","54422","1.256","359.3","3.593","7.9639999999999995","1022.429","12.07","44.25","NAN","0.0"],
    [1542667,"2026-02-20 08:00:00","54423","1.781","339.4","4.867","339.9","1022.788","11.9","45.12","NAN","0.0"],
    [1542668,"2026-02-20 08:10:00","54424","1.922","333.4","4.377","307.6","1022.7460000000001","11.8","45.84","NAN","0.0"],
    [1542669,"2026-02-20 08:20:00","54425","1.446","324.5","2.907","344.0","1022.82","11.81","46.26","NAN","0.0"],
    [1542670,"2026-02-20 08:30:00","54426","1.26","335.8","3.5610000000000004","311.2","1023.182","12.05","45.5","NAN","0.0"],
    [1542671,"2026-02-20 08:40:00","54427","1.632","333.5","3.659","306.5","1023.375","12.26","44.5","NAN","0.0"],
    [1542672,"2026-02-20 08:50:00","54428","1.874","329.0","3.822","321.8","1023.6410000000001","12.53","43.76","NAN","0.0"],
    [1542673,"2026-02-20 09:00:00","54429","1.7380000000000002","319.2","4.933","290.7","1023.6669999999999","12.67","44.18","NAN","0.0"],
    [1542674,"2026-02-20 09:10:00","54430","1.994","328.5","5.031000000000001","305.4","1023.834","13.04","43.17","NAN","0.0"],
    [1542675,"2026-02-20 09:20:00","54431","1.7990000000000002","340.2","4.737","325.4","1023.7769999999999","13.22","42.57","NAN","0.0"],
    [1542676,"2026-02-20 09:30:00","54432","1.489","352.1","3.985","356.6","1023.951","13.76","40.62","NAN","0.0"],
    [1542677,"2026-02-20 09:40:00","54433","1.768","0.9329999999999999","3.887","348.5","1024.093","13.85","40.81","NAN","0.0"],
    [1542678,"2026-02-20 09:50:00","54434","1.7830000000000001","347.5","4.508","308.6","1024.128","13.78","41.74","NAN","0.0"],
    [1542679,"2026-02-20 10:00:00","54435","1.633","1.065","3.822","5.59","1024.233","13.84","42.26","NAN","0.0"],
    [1542680,"2026-02-20 10:10:00","54436","1.743","342.4","4.345","326.1","1024.435","14.12","42","NAN","0.0"],
    [1542681,"2026-02-20 10:20:00","54437","1.452","339.1","4.345","333.9","1024.651","14.21","42.27","NAN","0.0"],
    [1542682,"2026-02-20 10:30:00","54438","2.406","332.9","5.096","303.3","1024.6760000000002","13.87","42.95","NAN","0.0"],
    [1542683,"2026-02-20 10:40:00","54439","2.339","326.9","4.802","310.4","1024.888","14.03","42.43","NAN","0.0"],
    [1542684,"2026-02-20 10:50:00","54440","1.8840000000000001","348.3","4.247","313.9","1024.912","14.65","41.18","NAN","0.0"],
    [1542685,"2026-02-20 11:00:00","54441","1.565","349.9","3.7569999999999997","346.2","1024.99","15.25","39.32","NAN","0.0"],
    [1542686,"2026-02-20 11:10:00","54442","1.609","345.8","3.6910000000000003","310.7","1024.845","15.77","37.8","NAN","0.0"],
    [1542687,"2026-02-20 11:20:00","54443","1.797","356.2","3.6260000000000003","10.02","1024.8","16.02","37.14","NAN","0.0"],
    [1542688,"2026-02-20 11:30:00","54444","1.933","293.4","5.031000000000001","292.3","1024.7060000000001","16.03","36.84","NAN","0.0"],
    [1542689,"2026-02-20 11:40:00","54445","1.8519999999999999","326.3","4.051","357.3","1024.641","15.89","37.13","NAN","0.0"],
    [1542690,"2026-02-20 11:50:00","54446","1.838","334.2","4.051","340.7","1024.484","16.15","36.22","NAN","0.0"],
    [1542691,"2026-02-20 12:00:00","54447","1.831","2.489","4.247","17.02","1024.252","16.47","35.64","NAN","0.0"],
    [1542692,"2026-02-20 12:10:00","54448","2.539","13.59","4.933","21.36","1024.1580000000001","16.45","34.86","NAN","0.0"],
    [1542693,"2026-02-20 12:20:00","54449","2.026","22.64","3.887","54.6","1024.088","16.98","33.97","NAN","0.0"],
    [1542694,"2026-02-20 12:30:00","54450","1.719","6.8629999999999995","4.279","15.3","1024.057","17.09","34.15","NAN","0.0"],
    [1542695,"2026-02-20 12:40:00","54451","1.791","330.4","4.018","300.1","1024.032","16.93","34.86","NAN","0.0"],
    [1542696,"2026-02-20 12:50:00","54452","1.5030000000000001","351.9","3.365","297.2","1023.945","17.15","35.27","NAN","0.0"],
    [1542697,"2026-02-20 13:00:00","54453","1.551","344.5","4.1160000000000005","302.2","1023.972","16.82","36.93","NAN","0.0"],
    [1542698,"2026-02-20 13:10:00","54454","1.5419999999999998","329.9","3.92","338.6","1024.117","16.81","37.82","NAN","0.0"],
    [1542699,"2026-02-20 13:20:00","54455","1.973","326.4","4.638999999999999","298.7","1024.155","16.67","38.02","NAN","0.0"],
    [1542700,"2026-02-20 13:30:00","54456","1.63","306.2","4.802","328.2","1024.049","16.61","39.45","NAN","0.0"],
    [1542701,"2026-02-20 13:40:00","54457","1.875","276.9","4.41","286.0","1024.146","16.56","40.34","NAN","0.0"],
    [1542702,"2026-02-20 13:50:00","54458","1.791","279.2","3.887","288.9","1024.155","16.14","41.45","NAN","0.0"],
    [1542703,"2026-02-20 14:00:00","54459","2.2230000000000003","257.1","4.737","247.8","1023.9780000000001","16.18","41.28","NAN","0.0"],
    [1542704,"2026-02-20 14:10:00","54460","1.986","275.5","4.704","258.4","1023.9580000000001","16.2","41.17","NAN","0.0"],
    [1542705,"2026-02-20 14:20:00","54461","1.617","294.6","4.051","307.0","1023.9960000000001","16.12","41.57","NAN","0.0"],
    [1542706,"2026-02-20 14:30:00","54462","2.06","273.4","4.867","292.7","1023.936","16.06","41.63","NAN","0.0"],
    [1542707,"2026-02-20 14:40:00","54463","1.453","296.6","3.332","291.7","1023.863","16.13","41.49","NAN","0.0"],
    [1542708,"2026-02-20 14:50:00","54464","1.5030000000000001","315.8","3.985","334.7","1023.7139999999999","16.02","41.72","NAN","0.0"],
    [1542709,"2026-02-20 15:00:00","54465","1.249","289.5","3.299","248.3","1023.6339999999999","16.1","41.54","NAN","0.0"],
    [1542710,"2026-02-20 15:10:00","54466","0.652","287.1","1.797","272.6","1023.5419999999999","16.29","41.29","NAN","0.0"],
    [1542711,"2026-02-20 15:20:00","54467","0.6990000000000001","307.0","2.025","281.6","1023.5419999999999","16.46","40.99","NAN","0.0"],
    [1542712,"2026-02-20 15:30:00","54468","1.319","293.0","2.8089999999999997","282.7","1023.5219999999999","16.42","40.79","NAN","0.0"],
    [1542713,"2026-02-20 15:40:00","54469","1.34","273.5","3.267","293.4","1023.61","16.23","41.22","NAN","0.0"],
    [1542714,"2026-02-20 15:50:00","54470","0.76","285.2","2.287","311.3","1023.602","16.29","41.04","NAN","0.0"],
    [1542715,"2026-02-20 16:00:00","54471","0.47600000000000003","208.5","1.993","276.8","1023.694","16.51","41","NAN","0.0"],
    [1542716,"2026-02-20 16:10:00","54472","0.48200000000000004","327.2","1.3719999999999999","325.9","1023.8789999999999","16.6","40.08","NAN","0.0"],
    [1542717,"2026-02-20 16:20:00","54473","0.5760000000000001","327.5","1.666","321.9","1023.9760000000001","16.54","39.54","NAN","0.0"],
    [1542718,"2026-02-20 16:30:00","54474","0.644","119.6","2.5810000000000004","69.37","1024.038","16.6","42.09","NAN","0.0"],
    [1542719,"2026-02-20 16:40:00","54475","2.01","89.7","3.92","102.3","1024.165","15.39","58.08","NAN","0.0"],
    [1542720,"2026-02-20 16:50:00","54476","2.281","94.6","3.659","105.1","1024.17","14.35","66.46","NAN","0.0"],
    [1542721,"2026-02-20 17:00:00","54477","2.201","82.3","3.9530000000000003","76.98","1024.22","14.21","67.4","NAN","0.0"],
    [1542722,"2026-02-20 17:10:00","54478","2.009","76.0","3.365","79.05","1024.5339999999999","14.06","68.54","NAN","0.0"],
    [1542723,"2026-02-20 17:20:00","54479","1.618","66.65","3.234","55.74","1024.661","14.06","66.05","NAN","0.0"],
    [1542724,"2026-02-20 17:30:00","54480","1.004","71.28","2.7439999999999998","74.21","1024.6680000000001","14.13","64.53","NAN","0.0"],
    [1542725,"2026-02-20 17:40:00","54481","0.919","83.9","1.993","73.91","1024.82","14.11","62.12","NAN","0.0"],
    [1542726,"2026-02-20 17:50:00","54482","1.082","47.58","2.025","62.32","1025.114","14.08","60.69","NAN","0.0"],
    [1542727,"2026-02-20 18:00:00","54483","1.209","53.08","2.221","69.87","1025.274","13.91","62.54","NAN","0.0"],
    [1542728,"2026-02-20 18:10:00","54484","1.26","66.36","2.319","41.96","1025.496","13.76","64.12","NAN","0.0"],
    [1542729,"2026-02-20 18:20:00","54485","1.655","69.68","3.005","74.12","1025.672","13.67","68.99","NAN","0.0"],
    [1542730,"2026-02-20 18:30:00","54486","1.889","73.61","3.0380000000000003","76.78","1025.876","13.52","69.63","NAN","0.0"],
    [1542731,"2026-02-20 18:40:00","54487","1.662","64.48","3.103","97.4","1026.147","13.53","70.41","NAN","0.0"],
    [1542732,"2026-02-20 18:50:00","54488","1.695","68.16","2.907","72.85","1026.261","13.47","71.41","NAN","0.0"],
    [1542733,"2026-02-20 19:00:00","54489","1.141","76.51","2.221","83.7","1026.2839999999999","13.38","71.33","NAN","0.0"],
    [1542734,"2026-02-20 19:10:00","54490","1.02","66.34","2.417","53.09","1026.279","13.34","72.25","NAN","0.0"],
    [1542735,"2026-02-20 19:20:00","54491","0.7929999999999999","58.22","1.4369999999999998","47.81","1026.316","13.25","72.98","NAN","0.0"],
    [1542736,"2026-02-20 19:30:00","54492","0.7140000000000001","71.56","1.4369999999999998","71.95","1026.2","13.12","74.12","NAN","0.0"],
    [1542737,"2026-02-20 19:40:00","54493","0.992","81.4","1.829","72.86","1026.125","13.09","75.44","NAN","0.0"],
    [1542738,"2026-02-20 19:50:00","54494","0.8340000000000001","60.1","2.156","70.24","1026.322","13.08","76.1","NAN","0.0"],
    [1542739,"2026-02-20 20:00:00","54495","0.8059999999999999","21.95","1.699","39.09","1026.427","13.05","75.07","NAN","0.0"],
    [1542740,"2026-02-20 20:10:00","54496","0.49200000000000005","13.29","1.013","30.14","1026.484","13.15","73.56","NAN","0.0"],
    [1542741,"2026-02-20 20:20:00","54497","0.36","55.95","1.045","53.01","1026.349","13","73.28","NAN","0.0"],
    [1542742,"2026-02-20 20:30:00","54498","0.06","63.06","0.555","54.49","1026.234","12.8","73.3","NAN","0.0"],
    [1542743,"2026-02-20 20:40:00","54499","0.32899999999999996","58.46","0.6859999999999999","60.94","1026.299","12.74","72.79","NAN","0.0"],
    [1542744,"2026-02-20 20:50:00","54500","0.894","61.56","1.535","73.87","1026.5539999999999","12.68","73.58","NAN","0.0"],
    [1542745,"2026-02-20 21:00:00","54501","0.8340000000000001","52.92","1.5030000000000001","65.41","1026.721","12.78","72.89","NAN","0.0"],
    [1542746,"2026-02-20 21:10:00","54502","0.588","51.44","1.47","62.08","1026.754","12.78","72.97","NAN","0.0"],
    [1542747,"2026-02-20 21:20:00","54503","0.26","24.98","0.6859999999999999","32.25","1026.82","12.67","73.56","NAN","0.0"],
    [1542748,"2026-02-20 21:30:00","54504","0.578","51.97","0.98","60.05","1026.9","12.63","73.97","NAN","0.0"],
    [1542749,"2026-02-20 21:40:00","54505","0.297","20.32","0.6859999999999999","63.56","1026.8410000000001","12.62","73.56","NAN","0.0"],
    [1542750,"2026-02-20 21:50:00","54506","0.6890000000000001","28.84","1.143","37.87","1026.906","12.74","72.45","NAN","0.0"],
    [1542751,"2026-02-20 22:00:00","54507","0.44299999999999995","10.53","1.111","352.7","1027.125","12.63","72.49","NAN","0.0"],
    [1542752,"2026-02-20 22:10:00","54508","0.5760000000000001","4.968","1.797","14.45","1027.213","12.5","71.66","NAN","0.0"],
    [1542753,"2026-02-20 22:20:00","54509","0.1","72.92","0.653","89.2","1027.246","12.33","72.55","NAN","0.0"],
    [1542754,"2026-02-20 22:30:00","54510","0.606","32.02","1.7309999999999999","35.18","1027.2930000000001","12.01","74.59","NAN","0.0"],
    [1542755,"2026-02-20 22:40:00","54511","1.025","36.05","1.9269999999999998","33.34","1027.3980000000001","12.07","73.07","NAN","0.0"],
    [1542756,"2026-02-20 22:50:00","54512","0.787","37.83","2.221","26.85","1027.567","12.14","71.89","NAN","0.0"],
    [1542757,"2026-02-20 23:00:00","54513","0.748","350.8","1.764","4.114","1027.64","12.27","68.74","NAN","0.0"],
    [1542758,"2026-02-20 23:10:00","54514","0.595","314.8","2.189","272.4","1027.628","12.98","61.65","NAN","0.0"],
    [1542759,"2026-02-20 23:20:00","54515","1.3119999999999998","328.8","2.907","308.8","1027.723","13.49","56.51","NAN","0.0"],
    [1542760,"2026-02-20 23:30:00","54516","0.596","321.9","2.189","323.7","1027.6660000000002","13.39","56.53","NAN","0.0"],
    [1542761,"2026-02-20 23:40:00","54517","0.48","279.9","1.96","271.3","1027.618","13.19","56.46","NAN","0.0"],
    [1542762,"2026-02-20 23:50:00","54518","0.924","265.6","3.267","334.3","1027.632","13.22","55.83","NAN","0.0"],
    [1542763,"2026-02-21 00:00:00","54519","1.121","330.6","3.365","317.1","1027.726","13.19","55.46","NAN","0.0"],
    [1542764,"2026-02-21 00:10:00","54520","2.18","332.7","5.4879999999999995","327.8","1027.809","13.13","55.5","NAN","0.0"],
    [1542765,"2026-02-21 00:20:00","54521","1.419","306.1","3.7569999999999997","331.1","1027.758","12.99","55.9","NAN","0.0"],
    [1542766,"2026-02-21 00:30:00","54522","1.32","289.3","3.92","305.2","1027.7269999999999","12.85","56.58","NAN","0.0"],
    [1542767,"2026-02-21 00:40:00","54523","2.108","274.2","4.835","281.9","1027.733","12.65","56.88","NAN","0.0"],
    [1542768,"2026-02-21 00:50:00","54524","1.989","272.1","4.998","276.6","1027.724","12.45","57.44","NAN","0.0"],
    [1542769,"2026-02-21 01:00:00","54525","1.4140000000000001","256.7","3.887","250.7","1027.894","12.36","57.87","NAN","0.0"],
    [1542770,"2026-02-21 01:10:00","54526","0.87","293.4","3.397","319.8","1027.979","12.3","58.15","NAN","0.0"],
    [1542771,"2026-02-21 01:20:00","54527","1.413","332.4","3.855","331.7","1027.983","12.28","57.92","NAN","0.0"],
    [1542772,"2026-02-21 01:30:00","54528","1.2819999999999998","329.0","2.907","321.1","1027.99","12.29","58.06","NAN","0.0"],
    [1542773,"2026-02-21 01:40:00","54529","1.4469999999999998","318.9","3.397","318.7","1027.991","12.26","58.2","NAN","0.0"],
    [1542774,"2026-02-21 01:50:00","54530","1.955","329.8","3.7569999999999997","321.3","1027.992","12.14","58.24","NAN","0.0"],
    [1542775,"2026-02-21 02:00:00","54531","1.8019999999999998","326.5","3.9530000000000003","341.2","1027.993","11.93","58.62","NAN","0.0"],
    [1542776,"2026-02-21 02:10:00","54532","1.291","314.7","3.332","1.5730000000000002","1027.997","11.85","58.84","NAN","0.0"],
    [1542777,"2026-02-21 02:20:00","54533","1.104","263.9","2.875","255.6","1028.185","11.73","59.34","NAN","0.0"],
    [1542778,"2026-02-21 02:30:00","54534","0.855","286.3","2.679","272.8","1028.261","11.65","59.78","NAN","0.0"],
    [1542779,"2026-02-21 02:40:00","54535","0.611","319.8","1.633","308.9","1028.26","11.62","59.86","NAN","0.0"],
    [1542780,"2026-02-21 02:50:00","54536","0.341","340.2","1.666","335.7","1028.2830000000001","11.52","60.22","NAN","0.0"],
    [1542781,"2026-02-21 03:00:00","54537","0.429","26.11","1.666","10.65","1028.279","11.35","61.14","NAN","0.0"],
    [1542782,"2026-02-21 03:10:00","54538","0.65","38.17","1.797","70.14","1028.4080000000001","11.13","62.15","NAN","0.0"],
    [1542783,"2026-02-21 03:20:00","54539","0.7809999999999999","22.33","1.699","313.8","1028.441","11.11","62.26","NAN","0.0"],
    [1542784,"2026-02-21 03:30:00","54540","0.7020000000000001","332.8","1.895","305.4","1028.471","11.34","60.93","NAN","0.0"],
    [1542785,"2026-02-21 03:40:00","54541","1.236","339.0","2.515","320.6","1028.537","11.5","59.81","NAN","0.0"],
    [1542786,"2026-02-21 03:50:00","54542","1.081","19.09","2.189","32.04","1028.594","11.34","60.32","NAN","0.0"],
    [1542787,"2026-02-21 04:00:00","54543","0.71","348.4","1.764","335.3","1028.714","11.2","60.56","NAN","0.0"],
    [1542788,"2026-02-21 04:10:00","54544","1.0659999999999998","329.0","2.6460000000000004","317.5","1028.736","11.43","59.4","NAN","0.0"],
    [1542789,"2026-02-21 04:20:00","54545","0.8059999999999999","19.8","2.319","318.7","1028.73","11.03","61.4","NAN","0.0"],
    [1542790,"2026-02-21 04:30:00","54546","0.873","314.8","2.515","315.8","1028.911","11.19","60.51","NAN","0.0"],
    [1542791,"2026-02-21 04:40:00","54547","0.43200000000000005","32.11","1.339","28.7","1028.963","10.89","61.74","NAN","0.0"],
    [1542792,"2026-02-21 04:50:00","54548","0.7140000000000001","349.0","1.4369999999999998","21.54","1029.007","10.76","62.28","NAN","0.0"],
    [1542793,"2026-02-21 05:00:00","54549","0.46399999999999997","336.7","1.307","350.1","1028.8139999999999","10.97","61.64","NAN","0.0"],
    [1542794,"2026-02-21 05:10:00","54550","0.386","331.2","1.143","321.1","1028.911","10.97","61.62","NAN","0.0"],
    [1542795,"2026-02-21 05:20:00","54551","0.015","341.8","0.392","329.7","1028.893","10.66","62.48","NAN","0.0"],
    [1542796,"2026-02-21 05:30:00","54552","0.132","35.07","0.784","47.4","1029.038","10.33","63.67","NAN","0.0"],
    [1542797,"2026-02-21 05:40:00","54553","0.134","5.419","0.621","13.17","1029.122","10.22","64.29","NAN","0.0"],
    [1542798,"2026-02-21 05:50:00","54554","0.179","58.28","0.8490000000000001","52.77","1029.204","10.06","64.78","NAN","0.0"],
    [1542799,"2026-02-21 06:00:00","54555","0.457","69.07","1.4369999999999998","68.28","1029.225","9.77","65.89","NAN","0.0"],
    [1542800,"2026-02-21 06:10:00","54556","0.7929999999999999","33.55","1.829","35.67","1029.4089999999999","9.6","67.03","NAN","0.0"],
    [1542801,"2026-02-21 06:20:00","54557","0.8240000000000001","9.32","1.601","38.01","1029.514","9.8","65.72","NAN","0.0"],
    [1542802,"2026-02-21 06:30:00","54558","0.21","351.2","0.98","326.9","1029.725","9.88","65.37","NAN","0.0"],
    [1542803,"2026-02-21 06:40:00","54559","0.51","331.8","1.274","343.1","1029.79","10.07","64.53","NAN","0.0"],
    [1542804,"2026-02-21 06:50:00","54560","0.525","255.7","1.601","267.0","1029.79","10.04","64.33","NAN","0.0"],
    [1542805,"2026-02-21 07:00:00","54561","0.256","219.4","1.111","246.4","1029.858","10.31","62.73","NAN","0.0"],
    [1542806,"2026-02-21 07:10:00","54562","0.295","330.0","0.9470000000000001","310.7","1030.139","10.35","63.25","NAN","0.0"],
    [1542807,"2026-02-21 07:20:00","54563","0.5","54.46","1.339","74.09","1030.296","11.05","60.83","NAN","0.0"],
    [1542808,"2026-02-21 07:30:00","54564","0.51","64.78","0.98","69.46","1030.389","11.35","60.1","NAN","0.0"],
    [1542809,"2026-02-21 07:40:00","54565","0.49","22.29","1.3719999999999999","67.45","1030.5739999999998","11.35","59.38","NAN","0.0"],
    [1542810,"2026-02-21 07:50:00","54566","0.992","245.9","3.234","244.9","1030.604","11.37","58.13","NAN","0.0"],
    [1542811,"2026-02-21 08:00:00","54567","1.534","267.4","3.822","292.0","1030.779","11.61","56.46","NAN","0.0"],
    [1542812,"2026-02-21 08:10:00","54568","1.891","270.2","4.018","284.6","1030.921","11.52","56.55","NAN","0.0"],
    [1542813,"2026-02-21 08:20:00","54569","1.462","289.2","3.201","257.5","1030.885","11.6","56.2","NAN","0.0"],
    [1542814,"2026-02-21 08:30:00","54570","1.768","268.0","4.475","240.8","1030.948","11.69","55.71","NAN","0.0"],
    [1542815,"2026-02-21 08:40:00","54571","1.442","277.0","3.43","247.6","1030.984","12","54.96","NAN","0.0"],
    [1542816,"2026-02-21 08:50:00","54572","0.972","273.5","3.365","257.9","1031.147","12.4","53.59","NAN","0.0"],
    [1542817,"2026-02-21 09:00:00","54573","1.672","264.1","4.181","273.0","1031.237","12.36","53.82","NAN","0.0"],
    [1542818,"2026-02-21 09:10:00","54574","1.7619999999999998","270.9","4.181","265.6","1031.346","12.48","53.45","NAN","0.0"],
    [1542819,"2026-02-21 09:20:00","54575","1.656","262.5","3.136","247.5","1031.383","12.76","52.41","NAN","0.0"],
    [1542820,"2026-02-21 09:30:00","54576","1.112","255.3","3.593","277.4","1031.386","13.32","50.62","NAN","0.0"],
    [1542821,"2026-02-21 09:40:00","54577","1.555","269.3","3.887","247.9","1031.461","13.21","50.4","NAN","0.0"],
    [1542822,"2026-02-21 09:50:00","54578","1.153","246.8","2.94","248.5","1031.453","13.52","49.62","NAN","0.0"],
    [1542823,"2026-02-21 10:00:00","54579","1.699","246.3","3.6910000000000003","232.1","1031.443","13.85","48.82","NAN","0.0"],
    [1542824,"2026-02-21 10:10:00","54580","0.9890000000000001","251.4","2.287","238.5","1031.438","14.3","47.68","NAN","0.0"],
    [1542825,"2026-02-21 10:20:00","54581","1.476","282.9","3.234","292.0","1031.371","14.61","46.78","NAN","0.0"],
    [1542826,"2026-02-21 10:30:00","54582","1.682","266.5","3.887","279.2","1031.368","14.96","45.45","NAN","0.0"],
    [1542827,"2026-02-21 10:40:00","54583","1.3969999999999998","253.0","3.7239999999999998","260.8","1031.326","15.44","44.59","NAN","0.0"],
    [1542828,"2026-02-21 10:50:00","54584","2.15","232.3","4.9","241.5","1031.1889999999999","15.5","44.57","NAN","0.0"],
    [1542829,"2026-02-21 11:00:00","54585","2.375","236.5","4.965","237.3","1031.149","15.28","45.56","NAN","0.0"],
    [1542830,"2026-02-21 11:10:00","54586","2.48","235.7","4.638999999999999","229.8","1031.137","15.36","45.51","NAN","0.0"],
    [1542831,"2026-02-21 11:20:00","54587","1.7480000000000002","231.8","3.201","233.0","1031.0739999999998","15.74","45","NAN","0.0"],
    [1542832,"2026-02-21 11:30:00","54588","1.733","229.4","3.397","195.1","1030.897","16.07","44.19","NAN","0.0"],
    [1542833,"2026-02-21 11:40:00","54589","1.2329999999999999","207.0","2.679","191.1","1030.713","16.58","43.38","NAN","0.0"],
    [1542834,"2026-02-21 11:50:00","54590","1.18","248.2","2.842","249.3","1030.539","17.23","40.42","NAN","0.0"],
    [1542835,"2026-02-21 12:00:00","54591","0.853","187.0","2.679","219.0","1030.394","17.34","40.85","NAN","0.0"],
    [1542836,"2026-02-21 12:10:00","54592","0.981","40.59","2.025","65.71","1030.325","17.54","40.55","NAN","0.0"],
    [1542837,"2026-02-21 12:20:00","54593","1.369","130.7","2.287","166.9","1030.267","17.79","39.8","NAN","0.0"],
    [1542838,"2026-02-21 12:30:00","54594","1.905","117.0","4.247","162.1","1030.253","17.46","44.51","NAN","0.0"],
    [1542839,"2026-02-21 12:40:00","54595","2.509","154.4","4.704","176.3","1030.156","15.68","56.27","NAN","0.0"],
    [1542840,"2026-02-21 12:50:00","54596","2.32","171.6","4.181","160.0","1029.948","15.68","57.06","NAN","0.0"],
    [1542841,"2026-02-21 13:00:00","54597","2.438","165.8","4.279","160.1","1029.8980000000001","15.83","57.1","NAN","0.0"],
    [1542842,"2026-02-21 13:10:00","54598","2.471","176.1","4.671","178.7","1029.8310000000001","15.71","58.64","NAN","0.0"],
    [1542843,"2026-02-21 13:20:00","54599","3.009","174.7","5.1610000000000005","174.5","1029.6789999999999","15.25","61.53","NAN","0.0"],
    [1542844,"2026-02-21 13:30:00","54600","3.397","176.2","5.357","176.7","1029.6019999999999","14.82","65.37","NAN","0.0"],
    [1542845,"2026-02-21 13:40:00","54601","2.395","181.5","4.704","186.9","1029.522","15.26","63.32","NAN","0.0"],
    [1542846,"2026-02-21 13:50:00","54602","2.61","174.9","4.181","159.3","1029.54","15.47","61.96","NAN","0.0"],
    [1542847,"2026-02-21 14:00:00","54603","2.948","171.1","4.4430000000000005","180.0","1029.502","15.37","62.92","NAN","0.0"],
    [1542848,"2026-02-21 14:10:00","54604","2.32","180.3","4.377","169.7","1029.388","15.45","62.06","NAN","0.0"],
    [1542849,"2026-02-21 14:20:00","54605","3.367","173.3","5.357","181.7","1029.356","15.01","65.67","NAN","0.0"],
    [1542850,"2026-02-21 14:30:00","54606","2.867","175.7","4.573","187.0","1029.406","14.78","66.72","NAN","0.0"],
    [1542851,"2026-02-21 14:40:00","54607","2.5869999999999997","175.6","4.051","174.4","1029.46","14.97","65.14","NAN","0.0"],
    [1542852,"2026-02-21 14:50:00","54608","1.946","193.0","4.377","171.1","1029.373","15.36","61.03","NAN","0.0"],
    [1542853,"2026-02-21 15:00:00","54609","2.261","184.4","3.822","180.7","1029.281","15.52","59.46","NAN","0.0"],
    [1542854,"2026-02-21 15:10:00","54610","1.797","195.5","4.2139999999999995","176.1","1029.261","15.54","59.76","NAN","0.0"],
    [1542855,"2026-02-21 15:20:00","54611","1.8659999999999999","191.6","4.083","205.5","1029.1789999999999","15.53","60.04","NAN","0.0"],
    [1542856,"2026-02-21 15:30:00","54612","2.099","189.9","3.593","189.4","1029.146","15.48","60.3","NAN","0.0"],
    [1542857,"2026-02-21 15:40:00","54613","2.0469999999999997","194.5","3.9530000000000003","181.7","1029.121","15.48","60.47","NAN","0.0"],
    [1542858,"2026-02-21 15:50:00","54614","1.8969999999999998","197.0","3.397","181.8","1029.099","15.57","59.32","NAN","0.0"],
    [1542859,"2026-02-21 16:00:00","54615","1.182","210.3","2.7769999999999997","190.1","1029.104","15.84","57.69","NAN","0.0"],
    [1542860,"2026-02-21 16:10:00","54616","1.0","208.4","2.189","209.7","1029.121","15.69","58.11","NAN","0.0"],
    [1542861,"2026-02-21 16:20:00","54617","1.7469999999999999","192.8","3.299","185.2","1029.0919999999999","15.37","58.25","NAN","0.0"],
    [1542862,"2026-02-21 16:30:00","54618","1.639","195.0","2.94","186.9","1029.086","15.19","58.22","NAN","0.0"],
    [1542863,"2026-02-21 16:40:00","54619","1.511","191.9","2.613","194.1","1029.037","15.23","57.07","NAN","0.0"],
    [1542864,"2026-02-21 16:50:00","54620","1.379","194.0","2.45","198.7","1029.079","15.05","59.05","NAN","0.0"],
    [1542865,"2026-02-21 17:00:00","54621","1.51","194.1","2.352","192.0","1029.029","14.89","61.2","NAN","0.0"],
    [1542866,"2026-02-21 17:10:00","54622","1.297","201.7","2.0909999999999997","200.7","1029.112","14.62","62.28","NAN","0.0"],
    [1542867,"2026-02-21 17:20:00","54623","1.3359999999999999","202.4","2.6460000000000004","201.6","1029.146","14.63","60.48","NAN","0.0"],
    [1542868,"2026-02-21 17:30:00","54624","1.17","202.5","2.385","198.9","1029.191","14.45","61.13","NAN","0.0"],
    [1542869,"2026-02-21 17:40:00","54625","1.187","206.3","2.548","206.6","1029.2730000000001","14.18","63.38","NAN","0.0"],
    [1542870,"2026-02-21 17:50:00","54626","1.368","214.0","2.94","207.3","1029.241","14.04","63.32","NAN","0.0"],
    [1542871,"2026-02-21 18:00:00","54627","1.153","224.4","2.875","234.9","1029.31","14.07","60.93","NAN","0.0"],
    [1542872,"2026-02-21 18:10:00","54628","1.217","226.5","3.528","247.9","1029.374","14","59.05","NAN","0.0"],
    [1542873,"2026-02-21 18:20:00","54629","0.5870000000000001","210.2","2.319","244.7","1029.4569999999999","13.71","59.77","NAN","0.0"],
    [1542874,"2026-02-21 18:30:00","54630","0.878","200.2","1.568","190.6","1029.489","13.52","60.97","NAN","0.0"],
    [1542875,"2026-02-21 18:40:00","54631","0.823","214.2","1.601","219.5","1029.473","13.37","60.55","NAN","0.0"],
    [1542876,"2026-02-21 18:50:00","54632","0.894","223.8","1.764","205.1","1029.553","13.44","62.22","NAN","0.0"],
    [1542877,"2026-02-21 19:00:00","54633","1.04","241.5","2.613","222.3","1029.623","13.48","64.86","NAN","0.0"],
    [1542878,"2026-02-21 19:10:00","54634","0.7609999999999999","226.2","1.8619999999999999","270.9","1029.585","13.38","65.75","NAN","0.0"],
    [1542879,"2026-02-21 19:20:00","54635","0.6809999999999999","230.3","1.993","242.9","1029.496","13.34","67.16","NAN","0.0"],
    [1542880,"2026-02-21 19:30:00","54636","0.642","213.8","1.405","243.6","1029.51","13.08","69.4","NAN","0.0"],
    [1542881,"2026-02-21 19:40:00","54637","0.7090000000000001","211.2","1.2409999999999999","218.4","1029.386","13.1","69.51","NAN","0.0"],
    [1542882,"2026-02-21 19:50:00","54638","0.7070000000000001","218.0","1.633","210.5","1029.353","12.92","70.8","NAN","0.0"],
    [1542883,"2026-02-21 20:00:00","54639","1.0290000000000001","202.8","1.699","204.6","1029.369","12.84","72.29","NAN","0.0"],
    [1542884,"2026-02-21 20:10:00","54640","1.002","196.9","1.405","203.8","1029.346","12.68","72.09","NAN","0.0"],
    [1542885,"2026-02-21 20:20:00","54641","0.544","226.7","1.2409999999999999","228.7","1029.263","12.62","72.34","NAN","0.0"],
    [1542886,"2026-02-21 20:30:00","54642","0.498","191.7","1.111","180.8","1029.229","12.73","72.64","NAN","0.0"],
    [1542887,"2026-02-21 20:40:00","54643","0.65","249.7","1.829","264.8","1029.222","12.79","71.35","NAN","0.0"],
    [1542888,"2026-02-21 20:50:00","54644","0.6829999999999999","246.9","1.797","295.3","1029.219","13.27","67.05","NAN","0.0"],
    [1542889,"2026-02-21 21:00:00","54645","0.772","253.0","1.5030000000000001","292.7","1029.208","13.31","66.21","NAN","0.0"],
    [1542890,"2026-02-21 21:10:00","54646","0.5","259.1","1.4369999999999998","277.2","1029.222","13.29","65.82","NAN","0.0"],
    [1542891,"2026-02-21 21:20:00","54647","0.331","264.5","0.98","276.3","1029.21","13.24","65.61","NAN","0.0"],
    [1542892,"2026-02-21 21:30:00","54648","0.32799999999999996","265.1","0.9470000000000001","321.8","1029.21","13.21","65.46","NAN","0.0"],
    [1542893,"2026-02-21 21:40:00","54649","0.42700000000000005","192.4","0.9470000000000001","188.9","1029.221","12.66","69.86","NAN","0.0"],
    [1542894,"2026-02-21 21:50:00","54650","0.344","205.7","0.6859999999999999","193.8","1029.2269999999999","12.26","73.34","NAN","0.0"],
    [1542895,"2026-02-21 22:00:00","54651","0.369","154.7","0.653","113.4","1029.237","12.08","74.29","NAN","0.0"],
    [1542896,"2026-02-21 22:10:00","54652","0.092","78.22","0.6859999999999999","82.3","1029.243","11.72","76.17","NAN","0.0"],
    [1542897,"2026-02-21 22:20:00","54653","0.29100000000000004","56.7","1.078","258.4","1029.25","11.61","77.77","NAN","0.0"],
    [1542898,"2026-02-21 22:30:00","54654","0.912","263.7","1.666","276.5","1029.246","12.47","68.55","NAN","0.0"],
    [1542899,"2026-02-21 22:40:00","54655","0.46799999999999997","246.0","1.5030000000000001","250.1","1029.25","12.81","64.97","NAN","0.0"],
    [1542900,"2026-02-21 22:50:00","54656","0.872","262.4","1.8619999999999999","244.0","1029.254","12.94","62.55","NAN","0.0"],
    [1542901,"2026-02-21 23:00:00","54657","0.804","258.4","2.221","242.7","1029.251","13.1","60.38","NAN","0.0"],
    [1542902,"2026-02-21 23:10:00","54658","1.508","244.9","2.613","255.7","1029.245","13.26","58.22","NAN","0.0"],
    [1542903,"2026-02-21 23:20:00","54659","1.163","250.4","2.613","247.9","1029.182","13.24","57.13","NAN","0.0"],
    [1542904,"2026-02-21 23:30:00","54660","0.735","222.7","1.4369999999999998","224.4","1028.996","13.13","57.28","NAN","0.0"],
    [1542905,"2026-02-21 23:40:00","54661","0.222","231.0","1.013","211.7","1028.993","12.38","62.12","NAN","0.0"],
    [1542906,"2026-02-21 23:50:00","54662","0.9329999999999999","255.3","1.764","257.6","1028.992","12.79","58.2","NAN","0.0"],
    [1542907,"2026-02-22 00:00:00","54663","0.35200000000000004","263.4","1.47","239.8","1028.99","12.99","56.73","NAN","0.0"],
    [1542908,"2026-02-22 00:10:00","54664","0.249","325.8","1.209","348.3","1028.861","12.6","58.75","NAN","0.0"],
    [1542909,"2026-02-22 00:20:00","54665","0.43200000000000005","286.7","1.274","319.2","1028.828","12.99","57.66","NAN","0.0"],
    [1542910,"2026-02-22 00:30:00","54666","0.405","248.2","1.405","255.2","1028.752","12.8","57.28","NAN","0.0"],
    [1542911,"2026-02-22 00:40:00","54667","0.275","50.9","1.078","27.86","1028.688","12.41","59.97","NAN","0.0"],
    [1542912,"2026-02-22 00:50:00","54668","0.81","17.81","1.601","25.8","1028.641","12.06","66.96","NAN","0.0"],
    [1542913,"2026-02-22 01:00:00","54669","0.503","14.5","1.5030000000000001","32.86","1028.5839999999998","11.94","67.5","NAN","0.0"],
    [1542914,"2026-02-22 01:10:00","54670","0.191","27.91","0.915","10.4","1028.48","11.59","67.03","NAN","0.0"],
    [1542915,"2026-02-22 01:20:00","54671","0.111","94.4","0.588","79.73","1028.404","11.27","67.94","NAN","0.0"],
    [1542916,"2026-02-22 01:30:00","54672","0.345","71.86","0.653","84.0","1028.322","11.14","69.22","NAN","0.0"],
    [1542917,"2026-02-22 01:40:00","54673","0.17","72.45","0.7190000000000001","64.22","1028.295","10.95","70.61","NAN","0.0"],
    [1542918,"2026-02-22 01:50:00","54674","0.053","135.5","0.425","162.4","1028.242","11.01","70.82","NAN","0.0"],
    [1542919,"2026-02-22 02:00:00","54675","0.551","181.5","1.143","180.2","1028.113","10.79","72.93","NAN","0.0"],
    [1542920,"2026-02-22 02:10:00","54676","0.6829999999999999","38.42","1.176","33.41","1028.042","10.63","74.88","NAN","0.0"],
    [1542921,"2026-02-22 02:20:00","54677","1.025","34.44","1.699","36.12","1027.953","10.97","71.06","NAN","0.0"],
    [1542922,"2026-02-22 02:30:00","54678","0.23199999999999998","46.59","1.078","39.05","1027.777","10.91","69.83","NAN","0.0"],
    [1542923,"2026-02-22 02:40:00","54679","0.16699999999999998","197.9","0.8490000000000001","192.0","1027.664","10.8","71.49","NAN","0.0"],
    [1542924,"2026-02-22 02:50:00","54680","0.244","196.8","0.7509999999999999","140.9","1027.453","10.66","73.96","NAN","0.0"],
    [1542925,"2026-02-22 03:00:00","54681","0.099","277.5","0.523","327.9","1027.308","10.67","74.02","NAN","0.0"],
    [1542926,"2026-02-22 03:10:00","54682","0.063","311.1","0.425","260.3","1027.223","10.75","74.13","NAN","0.0"],
    [1542927,"2026-02-22 03:20:00","54683","0.0","0.0","0.0","0.0","1027.024","10.69","74.29","NAN","0.0"],
    [1542928,"2026-02-22 03:30:00","54684","0.162","37.55","0.621","31.34","1026.942","10.49","74.84","NAN","0.0"],
    [1542929,"2026-02-22 03:40:00","54685","0.289","25.45","1.111","48.36","1026.905","10.38","74.41","NAN","0.0"],
    [1542930,"2026-02-22 03:50:00","54686","0.0","0.0","0.0","0.0","1026.925","10.46","73.56","NAN","0.0"],
    [1542931,"2026-02-22 04:00:00","54687","0.06","209.5","0.588","205.3","1027.002","10.13","76.18","NAN","0.0"],
    [1542932,"2026-02-22 04:10:00","54688","0.28","204.5","1.111","218.8","1026.8419999999999","10.17","77.87","NAN","0.0"],
    [1542933,"2026-02-22 04:20:00","54689","0.221","358.3","1.111","218.6","1026.8","10.41","78.86","NAN","0.0"],
    [1542934,"2026-02-22 04:30:00","54690","0.0","0.0","0.0","0.0","1026.8","10.28","78.16","NAN","0.0"],
    [1542935,"2026-02-22 04:40:00","54691","0.441","60.0","0.8170000000000001","55.25","1026.8","10.15","77.21","NAN","0.0"],
    [1542936,"2026-02-22 04:50:00","54692","0.11199999999999999","70.12","0.98","52.01","1026.853","10.24","76.67","NAN","0.0"],
    [1542937,"2026-02-22 05:00:00","54693","0.813","25.37","1.4369999999999998","52.16","1027.002","10.38","74.64","NAN","0.0"],
    [1542938,"2026-02-22 05:10:00","54694","0.7240000000000001","12.45","1.5030000000000001","24.33","1027.007","10.62","70.86","NAN","0.0"],
    [1542939,"2026-02-22 05:20:00","54695","0.337","9.37","0.9470000000000001","29.24","1027.009","10.63","68.58","NAN","0.0"],
    [1542940,"2026-02-22 05:30:00","54696","0.175","146.2","0.9470000000000001","36.58","1026.969","10.46","70.82","NAN","0.0"],
    [1542941,"2026-02-22 05:40:00","54697","0.29600000000000004","23.11","0.8490000000000001","28.97","1026.9","10.05","71.83","NAN","0.0"],
    [1542942,"2026-02-22 05:50:00","54698","0.0","0.0","0.0","0.0","1026.9389999999999","10.02","72.08","NAN","0.0"],
    [1542943,"2026-02-22 06:00:00","54699","0.0","0.0","0.0","0.0","1026.972","10","72.17","NAN","0.0"],
    [1542944,"2026-02-22 06:10:00","54700","0.0","0.0","0.0","0.0","1026.95","9.94","71.88","NAN","0.0"],
    [1542945,"2026-02-22 06:20:00","54701","0.063","299.2","0.392","298.2","1026.935","10.08","72.21","NAN","0.0"],
    [1542946,"2026-02-22 06:30:00","54702","0.201","345.2","0.653","3.266","1026.972","10.3","71.13","NAN","0.0"],
    [1542947,"2026-02-22 06:40:00","54703","0.595","34.54","1.143","52.16","1027.0439999999999","10.12","70.45","NAN","0.0"],
    [1542948,"2026-02-22 06:50:00","54704","0.5579999999999999","29.57","1.307","42.91","1027.147","9.74","71.5","NAN","0.0"],
    [1542949,"2026-02-22 07:00:00","54705","0.785","17.14","1.764","31.31","1027.261","9.91","69.8","NAN","0.0"],
    [1542950,"2026-02-22 07:10:00","54706","0.978","9.02","1.764","8.3","1027.3410000000001","10.1","68.16","NAN","0.0"],
    [1542951,"2026-02-22 07:20:00","54707","0.603","4.368","1.535","3.645","1027.513","10.32","67.23","NAN","0.0"],
    [1542952,"2026-02-22 07:30:00","54708","0.642","1.7169999999999999","1.078","4.868","1027.685","10.46","66.53","NAN","0.0"],
    [1542953,"2026-02-22 07:40:00","54709","0.871","2.206","1.699","358.8","1027.743","10.62","65.6","NAN","0.0"],
    [1542954,"2026-02-22 07:50:00","54710","0.7859999999999999","5.001","1.405","7.555","1027.86","10.64","64.71","NAN","0.0"],
    [1542955,"2026-02-22 08:00:00","54711","0.7390000000000001","7.341","1.3719999999999999","1.1420000000000001","1027.979","10.95","63.32","NAN","0.0"],
    [1542956,"2026-02-22 08:10:00","54712","0.27399999999999997","0.371","1.143","5.527","1028.121","11.59","61.66","NAN","0.0"],
    [1542957,"2026-02-22 08:20:00","54713","0.192","15.84","0.653","347.8","1028.211","12.66","58.15","NAN","0.0"],
    [1542958,"2026-02-22 08:30:00","54714","0.23","139.6","0.882","129.6","1028.277","13.45","56.29","NAN","0.0"],
    [1542959,"2026-02-22 08:40:00","54715","0.649","202.2","1.797","200.2","1028.2830000000001","13.34","57.05","NAN","0.0"],
    [1542960,"2026-02-22 08:50:00","54716","0.81","195.5","1.7309999999999999","192.3","1028.4189999999999","13.39","58.48","NAN","0.0"],
    [1542961,"2026-02-22 09:00:00","54717","1.3230000000000002","181.4","2.254","152.7","1028.4769999999999","13.54","58.4","NAN","0.0"],
    [1542962,"2026-02-22 09:10:00","54718","1.641","184.0","2.515","177.9","1028.519","13.54","59.82","NAN","0.0"],
    [1542963,"2026-02-22 09:20:00","54719","1.689","181.1","2.875","184.5","1028.539","13.2","64.65","NAN","0.0"],
    [1542964,"2026-02-22 09:30:00","54720","1.058","165.7","1.666","189.4","1028.517","13.83","62.96","NAN","0.0"],
    [1542965,"2026-02-22 09:40:00","54721","0.8270000000000001","177.8","1.339","148.5","1028.5510000000002","14.26","61.2","NAN","0.0"],
    [1542966,"2026-02-22 09:50:00","54722","1.0490000000000002","146.2","2.123","157.4","1028.497","14.65","60.14","NAN","0.0"],
    [1542967,"2026-02-22 10:00:00","54723","1.145","169.4","1.96","174.1","1028.5910000000001","14.4","60.61","NAN","0.0"],
    [1542968,"2026-02-22 10:10:00","54724","0.787","130.8","1.405","114.0","1028.531","14.86","59.02","NAN","0.0"],
    [1542969,"2026-02-22 10:20:00","54725","1.0170000000000001","123.4","1.601","95.7","1028.4189999999999","15.03","58.66","NAN","0.0"],
    [1542970,"2026-02-22 10:30:00","54726","1.1520000000000001","126.1","1.797","122.2","1028.407","14.91","59.71","NAN","0.0"],
    [1542971,"2026-02-22 10:40:00","54727","1.2990000000000002","140.2","2.254","161.0","1028.399","14.77","61.36","NAN","0.0"],
    [1542972,"2026-02-22 10:50:00","54728","1.117","136.7","2.189","171.7","1028.434","14.64","61.46","NAN","0.0"],
    [1542973,"2026-02-22 11:00:00","54729","1.383","145.4","2.613","160.0","1028.339","14.85","60.03","NAN","0.0"],
    [1542974,"2026-02-22 11:10:00","54730","1.1840000000000002","131.5","1.993","135.9","1028.272","15","59.93","NAN","0.0"],
    [1542975,"2026-02-22 11:20:00","54731","1.45","146.5","2.352","121.9","1028.222","15.35","59.89","NAN","0.0"],
    [1542976,"2026-02-22 11:30:00","54732","1.484","164.4","2.8089999999999997","180.7","1028.1680000000001","15.57","59.66","NAN","0.0"],
    [1542977,"2026-02-22 11:40:00","54733","2.149","182.4","4.1160000000000005","155.8","1028.155","15.3","59.16","NAN","0.0"],
    [1542978,"2026-02-22 11:50:00","54734","2.395","172.9","3.6910000000000003","184.6","1028.095","15.11","61.69","NAN","0.0"],
    [1542979,"2026-02-22 12:00:00","54735","1.942","165.0","3.822","178.4","1027.894","15.93","59.81","NAN","0.0"],
    [1542980,"2026-02-22 12:10:00","54736","2.11","171.4","3.7239999999999998","157.3","1027.722","16.31","58.52","NAN","0.0"],
    [1542981,"2026-02-22 12:20:00","54737","1.675","183.6","3.267","175.5","1027.5919999999999","16.79","56.17","NAN","0.0"],
    [1542982,"2026-02-22 12:30:00","54738","2.511","174.3","3.855","180.6","1027.455","16.14","61.36","NAN","0.0"],
    [1542983,"2026-02-22 12:40:00","54739","3.089","176.9","4.573","180.6","1027.4080000000001","15.54","66.79","NAN","0.0"],
    [1542984,"2026-02-22 12:50:00","54740","2.6830000000000003","172.1","4.181","184.9","1027.313","15.41","68.85","NAN","0.0"],
    [1542985,"2026-02-22 13:00:00","54741","2.725","176.2","4.181","173.3","1027.231","15.24","70.8","NAN","0.0"],
    [1542986,"2026-02-22 13:10:00","54742","2.174","179.7","3.234","160.8","1027.154","15.29","69.13","NAN","0.0"],
    [1542987,"2026-02-22 13:20:00","54743","2.115","180.6","3.365","177.7","1027.119","15.28","65.97","NAN","0.0"],
    [1542988,"2026-02-22 13:30:00","54744","2.115","184.3","3.7889999999999997","183.1","1026.974","15.5","66.22","NAN","0.0"],
    [1542989,"2026-02-22 13:40:00","54745","3.0180000000000002","181.5","4.377","175.5","1026.833","15.17","68.83","NAN","0.0"],
    [1542990,"2026-02-22 13:50:00","54746","3.18","176.9","4.345","177.4","1026.673","14.89","71.99","NAN","0.0"],
    [1542991,"2026-02-22 14:00:00","54747","2.5639999999999996","173.1","3.855","158.2","1026.646","14.92","72.88","NAN","0.0"],
    [1542992,"2026-02-22 14:10:00","54748","2.366","172.6","3.495","171.0","1026.583","15.27","68.2","NAN","0.0"],
    [1542993,"2026-02-22 14:20:00","54749","2.445","176.2","3.92","179.1","1026.499","15.39","66.13","NAN","0.0"],
    [1542994,"2026-02-22 14:30:00","54750","1.538","168.1","2.7769999999999997","179.8","1026.404","15.98","63.6","NAN","0.0"],
    [1542995,"2026-02-22 14:40:00","54751","1.2770000000000001","146.6","2.254","152.0","1026.312","16.88","58.48","NAN","0.0"],
    [1542996,"2026-02-22 14:50:00","54752","1.219","146.4","2.907","156.0","1026.235","17.3","54.93","NAN","0.0"],
    [1542997,"2026-02-22 15:00:00","54753","1.734","172.7","3.201","167.3","1026.155","17.61","49.15","NAN","0.0"],
    [1542998,"2026-02-22 15:10:00","54754","1.531","178.8","2.515","168.9","1026.151","17.65","50.75","NAN","0.0"],
    [1542999,"2026-02-22 15:20:00","54755","1.876","181.9","2.842","168.5","1026.1480000000001","17.56","53.51","NAN","0.0"],
    [1543000,"2026-02-22 15:30:00","54756","1.3259999999999998","188.9","2.907","167.4","1026.137","17.3","55.27","NAN","0.0"],
    [1543001,"2026-02-22 15:40:00","54757","1.5830000000000002","197.4","3.0380000000000003","200.4","1026.143","17.69","51.54","NAN","0.0"],
    [1543002,"2026-02-22 15:50:00","54758","1.963","190.4","3.43","204.3","1026.138","17.18","52.54","NAN","0.0"],
    [1543003,"2026-02-22 16:00:00","54759","1.666","196.5","3.1689999999999996","177.7","1026.13","16.77","54.6","NAN","0.0"],
    [1543004,"2026-02-22 16:10:00","54760","1.656","188.0","2.875","172.6","1026.0430000000001","16.53","55.48","NAN","0.0"],
    [1543005,"2026-02-22 16:20:00","54761","1.788","169.3","2.679","174.5","1026.0330000000001","15.8","64.31","NAN","0.0"],
    [1543006,"2026-02-22 16:30:00","54762","1.521","170.0","2.417","179.2","1026.038","15.71","63.74","NAN","0.0"],
    [1543007,"2026-02-22 16:40:00","54763","1.3969999999999998","168.1","2.483","158.6","1026.058","15.65","64.52","NAN","0.0"],
    [1543008,"2026-02-22 16:50:00","54764","1.1909999999999998","168.4","1.993","183.8","1025.911","15.66","64.86","NAN","0.0"],
    [1543009,"2026-02-22 17:00:00","54765","0.6609999999999999","173.7","1.535","176.4","1025.9080000000001","15.63","65.44","NAN","0.0"],
    [1543010,"2026-02-22 17:10:00","54766","0.49","170.3","0.882","181.0","1025.9080000000001","15.62","65.24","NAN","0.0"],
    [1543011,"2026-02-22 17:20:00","54767","0.163","185.6","0.9470000000000001","166.1","1025.913","15.61","65.2","NAN","0.0"],
    [1543012,"2026-02-22 17:30:00","54768","0.076","220.6","0.8490000000000001","333.9","1025.983","15.47","65.71","NAN","0.0"],
    [1543013,"2026-02-22 17:40:00","54769","0.611","21.92","1.764","36.75","1026.031","15.56","67.58","NAN","0.0"],
    [1543014,"2026-02-22 17:50:00","54770","1.071","37.37","2.352","50.92","1026.133","15.27","71.04","NAN","0.0"],
    [1543015,"2026-02-22 18:00:00","54771","1.291","40.89","2.319","28.06","1026.162","15.03","71.91","NAN","0.0"],
    [1543016,"2026-02-22 18:10:00","54772","1.053","38.12","2.189","28.74","1026.252","14.88","73.19","NAN","0.0"],
    [1543017,"2026-02-22 18:20:00","54773","0.981","49.66","2.156","34.39","1026.282","14.65","74.95","NAN","0.0"],
    [1543018,"2026-02-22 18:30:00","54774","0.935","54.45","1.797","71.57","1026.285","14.47","76.25","NAN","0.0"],
    [1543019,"2026-02-22 18:40:00","54775","0.595","11.21","1.5030000000000001","58.27","1026.297","14.36","77.25","NAN","0.0"],
    [1543020,"2026-02-22 18:50:00","54776","0.48100000000000004","46.69","1.143","29.87","1026.306","14.32","76.64","NAN","0.0"],
    [1543021,"2026-02-22 19:00:00","54777","0.298","60.79","0.915","58.17","1026.367","14.16","77.38","NAN","0.0"],
    [1543022,"2026-02-22 19:10:00","54778","0.528","43.48","1.3719999999999999","34.22","1026.406","14.15","76.97","NAN","0.0"],
    [1543023,"2026-02-22 19:20:00","54779","0.474","120.1","0.882","60.94","1026.5430000000001","14.24","76.19","NAN","0.0"],
    [1543024,"2026-02-22 19:30:00","54780","0.099","145.2","0.6859999999999999","145.2","1026.559","14.04","76.58","NAN","0.0"],
    [1543025,"2026-02-22 19:40:00","54781","0.36","187.1","1.045","195.1","1026.608","13.83","78.27","NAN","0.0"],
    [1543026,"2026-02-22 19:50:00","54782","0.664","204.3","1.111","199.8","1026.62","13.62","82.5","NAN","0.0"],
    [1543027,"2026-02-22 20:00:00","54783","0.698","188.7","1.2409999999999999","203.8","1026.643","13.5","85.4","NAN","0.0"],
    [1543028,"2026-02-22 20:10:00","54784","0.5479999999999999","198.1","0.882","195.7","1026.701","13.4","88.4","NAN","0.0"],
    [1543029,"2026-02-22 20:20:00","54785","0.529","203.6","0.8170000000000001","180.6","1026.718","13.29","89.5","NAN","0.0"],
    [1543030,"2026-02-22 20:30:00","54786","0.439","159.1","0.8490000000000001","180.3","1026.725","13.26","88.9","NAN","0.0"],
    [1543031,"2026-02-22 20:40:00","54787","0.257","187.6","0.7509999999999999","184.4","1026.718","13.07","89.5","NAN","0.0"],
    [1543032,"2026-02-22 20:50:00","54788","0.228","156.5","0.6859999999999999","175.8","1026.613","13.02","89.4","NAN","0.0"],
    [1543033,"2026-02-22 21:00:00","54789","0.537","210.6","0.8170000000000001","203.9","1026.5610000000001","13.01","88.9","NAN","0.0"],
    [1543034,"2026-02-22 21:10:00","54790","0.426","191.7","0.8490000000000001","204.4","1026.553","13.19","86.8","NAN","0.0"],
    [1543035,"2026-02-22 21:20:00","54791","0.0","0.0","0.0","0.0","1026.479","13.11","87.4","NAN","0.0"],
    [1543036,"2026-02-22 21:30:00","54792","0.386","150.6","0.784","146.1","1026.494","13.11","87.1","NAN","0.0"],
    [1543037,"2026-02-22 21:40:00","54793","0.071","200.2","0.588","167.4","1026.481","12.9","87","NAN","0.0"],
    [1543038,"2026-02-22 21:50:00","54794","0.63","199.9","1.078","199.4","1026.404","12.87","87.8","NAN","0.0"],
    [1543039,"2026-02-22 22:00:00","54795","0.244","189.8","0.8490000000000001","184.5","1026.357","12.74","87.4","NAN","0.0"],
    [1543040,"2026-02-22 22:10:00","54796","0.284","11.91","0.653","338.0","1026.357","12.75","86.4","NAN","0.0"],
    [1543041,"2026-02-22 22:20:00","54797","0.633","343.2","1.5030000000000001","247.5","1026.354","13.35","78.14","NAN","0.0"],
    [1543042,"2026-02-22 22:30:00","54798","0.563","278.0","1.47","301.8","1026.356","13.67","72.6","NAN","0.0"],
    [1543043,"2026-02-22 22:40:00","54799","0.581","246.2","1.405","266.8","1026.357","13.55","72.17","NAN","0.0"],
    [1543044,"2026-02-22 22:50:00","54800","0.428","252.6","1.3719999999999999","270.2","1026.302","13.28","73.08","NAN","0.0"],
    [1543045,"2026-02-22 23:00:00","54801","0.627","259.8","1.3719999999999999","251.9","1026.213","13.22","72.96","NAN","0.0"],
    [1543046,"2026-02-22 23:10:00","54802","0.6509999999999999","224.7","1.143","257.2","1026.117","13.29","72.02","NAN","0.0"],
    [1543047,"2026-02-22 23:20:00","54803","0.573","182.4","1.111","184.3","1026.0919999999999","12.56","78.12","NAN","0.0"],
    [1543048,"2026-02-22 23:30:00","54804","0.174","185.6","0.555","197.8","1026.031","12.05","81.6","NAN","0.0"],
    [1543049,"2026-02-22 23:40:00","54805","0.183","195.2","0.555","208.9","1026.048","11.64","83.6","NAN","0.0"],
    [1543050,"2026-02-22 23:50:00","54806","0.364","174.6","0.653","165.8","1025.955","11.44","83.6","NAN","0.0"],
    [1543051,"2026-02-23 00:00:00","54807","0.015","168.8","0.261","162.4","1025.882","11.28","83.7","NAN","0.0"],
    [1543052,"2026-02-23 00:10:00","54808","0.0","0.0","0.0","0.0","1025.774","11.47","84.1","NAN","0.0"],
    [1543053,"2026-02-23 00:20:00","54809","0.312","206.6","0.882","198.0","1025.7839999999999","11.63","83.3","NAN","0.0"],
    [1543054,"2026-02-23 00:30:00","54810","0.255","177.3","0.653","177.8","1025.704","11.24","86.3","NAN","0.0"],
    [1543055,"2026-02-23 00:40:00","54811","0.12","17.44","0.555","41.71","1025.674","11.18","85.2","NAN","0.0"],
    [1543056,"2026-02-23 00:50:00","54812","0.145","20.36","0.555","354.6","1025.609","11.4","84.7","NAN","0.0"],
    [1543057,"2026-02-23 01:00:00","54813","0.498","31.85","0.915","48.42","1025.536","11.59","84.4","NAN","0.0"],
    [1543058,"2026-02-23 01:10:00","54814","0.27899999999999997","19.05","0.882","44.48","1025.4560000000001","11.74","82.6","NAN","0.0"],
    [1543059,"2026-02-23 01:20:00","54815","0.25","53.97","0.6859999999999999","49.96","1025.365","11.69","81.8","NAN","0.0"],
    [1543060,"2026-02-23 01:30:00","54816","0.51","18.09","1.2409999999999999","26.86","1025.3","11.57","80.7","NAN","0.0"],
    [1543061,"2026-02-23 01:40:00","54817","0.2","6.197","0.915","19.55","1025.218","11.82","77.83","NAN","0.0"],
    [1543062,"2026-02-23 01:50:00","54818","0.505","77.3","1.078","76.65","1025.188","11.46","79.57","NAN","0.0"],
    [1543063,"2026-02-23 02:00:00","54819","0.08900000000000001","108.1","0.555","111.5","1025.066","11.2","80.9","NAN","0.0"],
    [1543064,"2026-02-23 02:10:00","54820","0.271","112.0","0.8170000000000001","112.5","1025.011","11.07","83.2","NAN","0.0"],
    [1543065,"2026-02-23 02:20:00","54821","0.184","104.2","0.7190000000000001","142.9","1024.807","11.11","83.1","NAN","0.0"],
    [1543066,"2026-02-23 02:30:00","54822","0.19","81.6","0.523","61.5","1024.732","10.9","83.1","NAN","0.0"],
    [1543067,"2026-02-23 02:40:00","54823","0.14300000000000002","202.0","0.784","225.5","1024.559","10.82","84.2","NAN","0.0"],
    [1543068,"2026-02-23 02:50:00","54824","0.434","207.0","0.8490000000000001","229.9","1024.6","11","86.3","NAN","0.0"],
    [1543069,"2026-02-23 03:00:00","54825","0.371","110.3","0.8490000000000001","149.7","1024.558","10.86","84","NAN","0.0"],
    [1543070,"2026-02-23 03:10:00","54826","0.7020000000000001","37.71","1.339","32.21","1024.579","10.75","82.7","NAN","0.0"],
    [1543071,"2026-02-23 03:20:00","54827","0.413","15.69","1.8619999999999999","30.03","1024.553","10.86","75.75","NAN","0.0"],
    [1543072,"2026-02-23 03:30:00","54828","0.77","23.88","2.156","37.38","1024.558","11.04","72.59","NAN","0.0"],
    [1543073,"2026-02-23 03:40:00","54829","0.414","16.82","1.111","28.43","1024.44","10.88","73","NAN","0.0"],
    [1543074,"2026-02-23 03:50:00","54830","0.723","61.5","1.111","36.34","1024.3139999999999","10.68","74.02","NAN","0.0"],
    [1543075,"2026-02-23 04:00:00","54831","0.778","29.6","1.405","31.49","1024.3239999999998","10.55","73.98","NAN","0.0"],
    [1543076,"2026-02-23 04:10:00","54832","0.584","17.29","1.307","14.65","1024.393","10.54","74.17","NAN","0.0"],
    [1543077,"2026-02-23 04:20:00","54833","1.018","357.0","1.764","357.2","1024.433","10.82","72.57","NAN","0.0"],
    [1543078,"2026-02-23 04:30:00","54834","0.6579999999999999","343.4","1.3719999999999999","320.5","1024.433","11.15","71.29","NAN","0.0"],
    [1543079,"2026-02-23 04:40:00","54835","0.556","1.032","1.078","326.7","1024.433","11.26","71.26","NAN","0.0"],
    [1543080,"2026-02-23 04:50:00","54836","0.713","5.702999999999999","1.405","19.19","1024.433","11.18","71.53","NAN","0.0"],
    [1543081,"2026-02-23 05:00:00","54837","0.7829999999999999","0.935","1.601","3.4930000000000003","1024.4160000000002","11.34","70.28","NAN","0.0"],
    [1543082,"2026-02-23 05:10:00","54838","0.562","8.04","1.209","13.24","1024.358","11.16","70.97","NAN","0.0"],
    [1543083,"2026-02-23 05:20:00","54839","0.895","3.923","1.3719999999999999","344.5","1024.323","11.16","70.18","NAN","0.0"],
    [1543084,"2026-02-23 05:30:00","54840","0.852","356.8","1.601","8.16","1024.365","11.19","69.86","NAN","0.0"],
    [1543085,"2026-02-23 05:40:00","54841","1.042","4.029","1.666","8.48","1024.437","11.05","70.31","NAN","0.0"],
    [1543086,"2026-02-23 05:50:00","54842","0.96","359.9","1.633","352.6","1024.433","10.92","70.88","NAN","0.0"],
    [1543087,"2026-02-23 06:00:00","54843","0.782","4.647","1.405","9.57","1024.506","10.91","70.8","NAN","0.0"],
    [1543088,"2026-02-23 06:10:00","54844","0.314","0.478","0.882","15.87","1024.535","10.88","70.97","NAN","0.0"],
    [1543089,"2026-02-23 06:20:00","54845","0.48","7.511","1.209","346.5","1024.502","10.67","71.68","NAN","0.0"],
    [1543090,"2026-02-23 06:30:00","54846","0.20199999999999999","75.05","0.8490000000000001","248.8","1024.462","10.72","71.39","NAN","0.0"],
    [1543091,"2026-02-23 06:40:00","54847","0.235","94.9","0.6859999999999999","96.9","1024.61","10.4","73.13","NAN","0.0"],
    [1543092,"2026-02-23 06:50:00","54848","0.098","51.44","0.457","53.47","1024.76","10.46","73.68","NAN","0.0"],
    [1543093,"2026-02-23 07:00:00","54849","0.49200000000000005","15.56","1.111","18.42","1024.8039999999999","10.76","72.06","NAN","0.0"],
    [1543094,"2026-02-23 07:10:00","54850","0.8859999999999999","10.52","1.764","21.9","1024.9489999999998","11.22","69.65","NAN","0.0"],
    [1543095,"2026-02-23 07:20:00","54851","0.966","22.22","1.96","24.64","1025.073","11.55","68.12","NAN","0.0"],
    [1543096,"2026-02-23 07:30:00","54852","0.9209999999999999","21.32","1.895","41.33","1025.264","11.59","67.68","NAN","0.0"],
    [1543097,"2026-02-23 07:40:00","54853","0.8859999999999999","41.45","1.699","37.99","1025.353","11.93","66.42","NAN","0.0"],
    [1543098,"2026-02-23 07:50:00","54854","0.8270000000000001","43.42","1.829","52.21","1025.376","12.29","64.88","NAN","0.0"],
    [1543099,"2026-02-23 08:00:00","54855","0.703","16.32","1.405","48.8","1025.577","12.43","64.01","NAN","0.0"],
    [1543100,"2026-02-23 08:10:00","54856","0.639","4.572","1.5030000000000001","3.012","1025.4180000000001","12.76","62.83","NAN","0.0"],
    [1543101,"2026-02-23 08:20:00","54857","0.9109999999999999","16.1","2.221","7.305","1025.4289999999999","13.42","60.8","NAN","0.0"],
    [1543102,"2026-02-23 08:30:00","54858","1.197","11.28","2.319","21.26","1025.4660000000001","13.66","61.31","NAN","0.0"],
    [1543103,"2026-02-23 08:40:00","54859","1.3030000000000002","39.38","2.221","42.67","1025.535","14.29","62.68","NAN","0.0"],
    [1543104,"2026-02-23 08:50:00","54860","1.234","50.34","2.417","58.85","1025.535","14.74","59.64","NAN","0.0"],
    [1543105,"2026-02-23 09:00:00","54861","1.2009999999999998","43.71","2.319","55.45","1025.578","14.83","57.44","NAN","0.0"],
    [1543106,"2026-02-23 09:10:00","54862","1.033","26.41","2.842","29.81","1025.64","15.3","55.74","NAN","0.0"],
    [1543107,"2026-02-23 09:20:00","54863","1.327","29.05","3.005","53.08","1025.66","15.07","56.75","NAN","0.0"],
    [1543108,"2026-02-23 09:30:00","54864","1.483","25.29","2.842","30.74","1025.67","15.22","55.48","NAN","0.0"],
    [1543109,"2026-02-23 09:40:00","54865","1.452","49.92","2.907","46.85","1025.744","15.78","52.26","NAN","0.0"],
    [1543110,"2026-02-23 09:50:00","54866","1.338","55.74","2.94","16.66","1025.722","16.16","48.93","NAN","0.0"],
    [1543111,"2026-02-23 10:00:00","54867","1.489","63.77","3.267","73.41","1025.74","16.38","48.07","NAN","0.0"],
    [1543112,"2026-02-23 10:10:00","54868","1.218","81.2","2.385","69.23","1025.777","16.86","47.35","NAN","0.0"],
    [1543113,"2026-02-23 10:20:00","54869","1.159","77.71","2.287","111.0","1025.872","17.17","47.79","NAN","0.0"],
    [1543114,"2026-02-23 10:30:00","54870","1.8030000000000002","119.6","2.842","112.2","1025.904","16.42","53.34","NAN","0.0"],
    [1543115,"2026-02-23 10:40:00","54871","2.266","112.6","3.7239999999999998","118.0","1025.849","15.87","56.82","NAN","0.0"],
    [1543116,"2026-02-23 10:50:00","54872","1.798","103.5","2.7769999999999997","117.0","1025.806","15.68","60.15","NAN","0.0"],
    [1543117,"2026-02-23 11:00:00","54873","1.808","105.1","2.8089999999999997","112.9","1025.774","15.96","63.62","NAN","0.0"],
    [1543118,"2026-02-23 11:10:00","54874","1.655","115.7","2.94","118.5","1025.782","15.6","68.99","NAN","0.0"],
    [1543119,"2026-02-23 11:20:00","54875","1.442","124.4","2.156","101.6","1025.764","15.64","74.5","NAN","0.0"],
    [1543120,"2026-02-23 11:30:00","54876","1.315","123.7","2.254","107.0","1025.759","15.42","76.6","NAN","0.0"],
    [1543121,"2026-02-23 11:40:00","54877","1.348","122.9","2.221","112.1","1025.655","15.61","75.69","NAN","0.0"],
    [1543122,"2026-02-23 11:50:00","54878","1.4569999999999999","118.4","2.6460000000000004","115.8","1025.54","15.53","77.08","NAN","0.0"],
    [1543123,"2026-02-23 12:00:00","54879","1.1840000000000002","126.9","1.96","127.0","1025.358","15.43","78.08","NAN","0.0"],
    [1543124,"2026-02-23 12:10:00","54880","1.255","134.1","2.189","145.4","1025.211","15.75","75.04","NAN","0.0"],
    [1543125,"2026-02-23 12:20:00","54881","1.324","130.4","2.0909999999999997","125.0","1025.079","15.88","75.25","NAN","0.0"],
    [1543126,"2026-02-23 12:30:00","54882","1.321","131.0","2.0580000000000003","133.7","1024.952","15.69","75.9","NAN","0.0"],
    [1543127,"2026-02-23 12:40:00","54883","1.208","135.7","1.993","168.6","1024.72","15.96","73.93","NAN","0.0"],
    [1543128,"2026-02-23 12:50:00","54884","1.253","135.6","2.221","159.4","1024.6580000000001","15.75","75.12","NAN","0.0"],
    [1543129,"2026-02-23 13:00:00","54885","1.3980000000000001","156.5","2.287","176.9","1024.569","15.95","74.12","NAN","0.0"],
    [1543130,"2026-02-23 13:10:00","54886","1.246","144.8","2.156","169.9","1024.539","15.89","74.2","NAN","0.0"],
    [1543131,"2026-02-23 13:20:00","54887","1.2770000000000001","136.8","2.515","155.9","1024.454","15.93","72.35","NAN","0.0"],
    [1543132,"2026-02-23 13:30:00","54888","1.675","125.7","2.7439999999999998","120.9","1024.374","15.87","72.67","NAN","0.0"],
    [1543133,"2026-02-23 13:40:00","54889","1.442","126.2","2.385","104.3","1024.202","15.68","77.01","NAN","0.0"],
    [1543134,"2026-02-23 13:50:00","54890","1.419","122.1","2.5810000000000004","107.2","1024.164","15.73","77.34","NAN","0.0"],
    [1543135,"2026-02-23 14:00:00","54891","1.6680000000000001","120.8","2.613","143.0","1024.16","15.55","78.99","NAN","0.0"],
    [1543136,"2026-02-23 14:10:00","54892","1.632","132.8","2.94","102.4","1024.048","15.34","81.3","NAN","0.0"],
    [1543137,"2026-02-23 14:20:00","54893","1.2229999999999999","151.0","2.352","155.5","1023.948","15.79","77.77","NAN","0.0"],
    [1543138,"2026-02-23 14:30:00","54894","1.242","155.7","2.8089999999999997","182.5","1023.916","16.06","75.76","NAN","0.0"],
    [1543139,"2026-02-23 14:40:00","54895","1.412","128.5","2.352","122.3","1023.913","15.7","77.73","NAN","0.0"],
    [1543140,"2026-02-23 14:50:00","54896","1.395","142.2","2.417","174.8","1023.8530000000001","15.58","78.45","NAN","0.0"],
    [1543141,"2026-02-23 15:00:00","54897","1.415","151.1","2.189","196.7","1023.791","15.49","78.23","NAN","0.0"],
    [1543142,"2026-02-23 15:10:00","54898","1.858","187.4","2.8089999999999997","206.6","1023.684","15.36","78.49","NAN","0.0"],
    [1543143,"2026-02-23 15:20:00","54899","1.5719999999999998","185.4","2.352","190.3","1023.666","15.18","78.68","NAN","0.0"],
    [1543144,"2026-02-23 15:30:00","54900","1.8559999999999999","186.8","2.907","188.0","1023.605","15.03","81.1","NAN","0.0"],
    [1543145,"2026-02-23 15:40:00","54901","1.9609999999999999","178.4","2.94","187.1","1023.545","14.76","84.7","NAN","0.0"],
    [1543146,"2026-02-23 15:50:00","54902","2.052","178.4","3.1689999999999996","189.5","1023.482","14.64","84","NAN","0.0"],
    [1543147,"2026-02-23 16:00:00","54903","1.7719999999999998","175.0","3.0380000000000003","164.1","1023.368","14.76","82.4","NAN","0.0"],
    [1543148,"2026-02-23 16:10:00","54904","1.935","172.4","2.94","175.0","1023.298","14.59","82.4","NAN","0.0"],
    [1543149,"2026-02-23 16:20:00","54905","1.889","183.0","3.299","188.3","1023.328","14.54","84.2","NAN","0.0"],
    [1543150,"2026-02-23 16:30:00","54906","2.005","175.7","2.842","179.4","1023.373","14.4","87.4","NAN","0.0"],
    [1543151,"2026-02-23 16:40:00","54907","2.016","173.2","3.103","187.4","1023.295","14.18","89","NAN","0.0"],
    [1543152,"2026-02-23 16:50:00","54908","1.3119999999999998","170.6","2.319","162.6","1023.2760000000001","14.38","87.9","NAN","0.0"],
    [1543153,"2026-02-23 17:00:00","54909","1.308","171.1","2.6460000000000004","166.4","1023.3610000000001","14.47","86.8","NAN","0.0"],
    [1543154,"2026-02-23 17:10:00","54910","1.561","176.9","2.515","173.7","1023.42","14.36","87.1","NAN","0.0"],
    [1543155,"2026-02-23 17:20:00","54911","1.7409999999999999","180.4","2.9730000000000003","172.0","1023.427","14.09","90.5","NAN","0.0"],
    [1543156,"2026-02-23 17:30:00","54912","1.222","175.4","1.895","174.7","1023.429","13.96","92.1","NAN","0.0"],
    [1543157,"2026-02-23 17:40:00","54913","0.759","175.6","1.535","165.9","1023.432","13.96","92","NAN","0.0"],
    [1543158,"2026-02-23 17:50:00","54914","0.757","179.1","1.797","183.9","1023.45","13.91","92.1","NAN","0.0"],
    [1543159,"2026-02-23 18:00:00","54915","0.6729999999999999","191.0","1.4369999999999998","179.3","1023.4860000000001","13.81","92.4","NAN","0.0"],
    [1543160,"2026-02-23 18:10:00","54916","0.564","187.2","0.915","177.9","1023.592","13.74","92.1","NAN","0.0"],
    [1543161,"2026-02-23 18:20:00","54917","0.449","169.7","1.111","179.4","1023.6360000000001","13.68","91","NAN","0.0"],
    [1543162,"2026-02-23 18:30:00","54918","0.662","184.7","1.045","201.5","1023.7289999999999","13.69","90.6","NAN","0.0"],
    [1543163,"2026-02-23 18:40:00","54919","0.841","183.1","1.47","182.7","1023.7289999999999","13.63","90","NAN","0.0"],
    [1543164,"2026-02-23 18:50:00","54920","0.845","195.9","1.3719999999999999","201.0","1023.7389999999999","13.58","88.8","NAN","0.0"],
    [1543165,"2026-02-23 19:00:00","54921","1.077","207.7","1.601","177.2","1023.7389999999999","13.55","88.9","NAN","0.0"],
    [1543166,"2026-02-23 19:10:00","54922","1.122","200.5","2.0909999999999997","201.8","1023.7389999999999","13.54","85.6","NAN","0.0"],
    [1543167,"2026-02-23 19:20:00","54923","0.885","216.0","1.764","217.4","1023.7339999999999","13.71","80.6","NAN","0.0"],
    [1543168,"2026-02-23 19:30:00","54924","1.092","214.0","1.96","199.1","1023.7389999999999","13.86","78.98","NAN","0.0"],
    [1543169,"2026-02-23 19:40:00","54925","0.777","219.2","1.601","226.8","1023.7389999999999","13.78","80.1","NAN","0.0"],
    [1543170,"2026-02-23 19:50:00","54926","0.903","226.4","1.9269999999999998","237.6","1023.7510000000001","13.81","81.5","NAN","0.0"],
    [1543171,"2026-02-23 20:00:00","54927","0.981","219.9","2.319","240.7","1023.8439999999999","13.83","81.3","NAN","0.0"],
    [1543172,"2026-02-23 20:10:00","54928","0.706","225.0","1.307","236.8","1023.813","13.58","80.6","NAN","0.0"],
    [1543173,"2026-02-23 20:20:00","54929","0.64","221.8","1.633","240.9","1023.778","13.6","79.22","NAN","0.0"],
    [1543174,"2026-02-23 20:30:00","54930","0.624","212.3","1.3719999999999999","217.5","1023.7389999999999","13.49","77.99","NAN","0.0"],
    [1543175,"2026-02-23 20:40:00","54931","0.841","230.4","1.568","243.1","1023.7389999999999","13.66","77.75","NAN","0.0"],
    [1543176,"2026-02-23 20:50:00","54932","0.907","209.5","1.3719999999999999","194.7","1023.7389999999999","13.65","78.4","NAN","0.0"],
    [1543177,"2026-02-23 21:00:00","54933","0.6559999999999999","207.3","1.274","199.4","1023.7389999999999","13.36","81.3","NAN","0.0"],
    [1543178,"2026-02-23 21:10:00","54934","0.47","203.2","0.98","198.4","1023.7310000000001","13.31","81.6","NAN","0.0"],
    [1543179,"2026-02-23 21:20:00","54935","0.501","191.5","0.915","176.1","1023.701","13.1","82","NAN","0.0"],
    [1543180,"2026-02-23 21:30:00","54936","0.33399999999999996","206.9","0.882","214.2","1023.632","13.09","80.7","NAN","0.0"],
    [1543181,"2026-02-23 21:40:00","54937","0.457","119.9","0.8490000000000001","109.9","1023.6239999999999","12.87","82.1","NAN","0.0"],
    [1543182,"2026-02-23 21:50:00","54938","0.322","108.4","0.7509999999999999","107.0","1023.716","12.64","84.5","NAN","0.0"],
    [1543183,"2026-02-23 22:00:00","54939","0.094","59.8","0.49","59.92","1023.707","12.56","84.8","NAN","0.0"],
    [1543184,"2026-02-23 22:10:00","54940","0.305","39.37","0.6859999999999999","24.77","1023.6569999999999","12.85","85.3","NAN","0.0"],
    [1543185,"2026-02-23 22:20:00","54941","0.368","66.61","0.555","72.77","1023.73","12.87","87.7","NAN","0.0"],
    [1543186,"2026-02-23 22:30:00","54942","0.016","62.61","0.392","62.68","1023.75","12.63","89.5","NAN","0.0"],
    [1543187,"2026-02-23 22:40:00","54943","0.0","0.0","0.0","0.0","1023.68","12.39","90.9","NAN","0.0"],
    [1543188,"2026-02-23 22:50:00","54944","0.0","0.0","0.0","0.0","1023.5880000000001","12.43","92.8","NAN","0.0"],
    [1543189,"2026-02-23 23:00:00","54945","0.0","0.0","0.0","0.0","1023.47","12.35","94","NAN","0.0"],
    [1543190,"2026-02-23 23:10:00","54946","0.0","0.0","0.0","0.0","1023.3969999999999","12.47","94.9","NAN","0.0"],
    [1543191,"2026-02-23 23:20:00","54947","0.0","0.0","0.0","0.0","1023.308","12.25","95.4","NAN","0.0"],
    [1543192,"2026-02-23 23:30:00","54948","0.0","0.0","0.0","0.0","1023.2560000000001","12.28","95.8","NAN","0.0"],
    [1543193,"2026-02-23 23:40:00","54949","0.009000000000000001","34.92","0.294","36.05","1023.262","12.17","95.2","NAN","0.0"],
    [1543194,"2026-02-23 23:50:00","54950","0.07200000000000001","26.74","0.457","26.9","1023.181","12.24","94.9","NAN","0.0"],
    [1543195,"2026-02-24 00:00:00","54951","0.0","0.0","0.0","0.0","1023.063","12.2","94.1","NAN","0.0"],
    [1543196,"2026-02-24 00:10:00","54952","0.002","161.5","0.131","142.2","1022.99","11.99","93.8","NAN","0.0"],
    [1543197,"2026-02-24 00:20:00","54953","0.0","0.0","0.0","0.0","1022.952","11.83","94.4","NAN","0.0"],
    [1543198,"2026-02-24 00:30:00","54954","0.0","0.0","0.0","0.0","1022.904","11.74","94.7","NAN","0.0"],
    [1543199,"2026-02-24 00:40:00","54955","0.055","55.02","0.7509999999999999","58.15","1022.795","11.77","95","NAN","0.0"],
    [1543200,"2026-02-24 00:50:00","54956","0.445","48.94","0.915","51.35","1022.789","11.46","91.4","NAN","0.0"],
    [1543201,"2026-02-24 01:00:00","54957","0.381","46.42","0.915","52.07","1022.672","11.58","85.9","NAN","0.0"],
    [1543202,"2026-02-24 01:10:00","54958","0.006","27.34","0.22899999999999998","44.45","1022.554","11.59","85","NAN","0.0"],
    [1543203,"2026-02-24 01:20:00","54959","0.077","17.77","0.653","36.6","1022.467","11.55","85","NAN","0.0"],
    [1543204,"2026-02-24 01:30:00","54960","0.0","0.0","0.0","0.0","1022.3789999999999","11.52","84.7","NAN","0.0"],
    [1543205,"2026-02-24 01:40:00","54961","0.0","0.0","0.0","0.0","1022.305","11.47","85.8","NAN","0.0"],
    [1543206,"2026-02-24 01:50:00","54962","0.0","0.0","0.0","0.0","1022.306","11.38","86.7","NAN","0.0"],
    [1543207,"2026-02-24 02:00:00","54963","0.0","0.0","0.0","0.0","1022.295","11.27","86","NAN","0.0"],
    [1543208,"2026-02-24 02:10:00","54964","0.0","0.0","0.0","0.0","1022.2489999999999","11.15","86.6","NAN","0.0"],
    [1543209,"2026-02-24 02:20:00","54965","0.0","0.0","0.0","0.0","1022.076","11.41","85.8","NAN","0.0"],
    [1543210,"2026-02-24 02:30:00","54966","0.0","0.0","0.0","0.0","1021.955","11.32","85.8","NAN","0.0"],
    [1543211,"2026-02-24 02:40:00","54967","0.0","0.0","0.0","0.0","1021.784","11.38","86","NAN","0.0"],
    [1543212,"2026-02-24 02:50:00","54968","0.0","0.0","0.0","0.0","1021.682","11.24","85.8","NAN","0.0"],
    [1543213,"2026-02-24 03:00:00","54969","0.285","202.0","1.045","187.1","1021.579","11.2","86.5","NAN","0.0"],
    [1543214,"2026-02-24 03:10:00","54970","0.081","222.3","0.523","212.8","1021.51","11.31","89.9","NAN","0.0"],
    [1543215,"2026-02-24 03:20:00","54971","0.0","0.0","0.0","0.0","1021.44","11.22","91.8","NAN","0.0"],
    [1543216,"2026-02-24 03:30:00","54972","0.341","51.26","0.8490000000000001","50.31","1021.443","11.12","92","NAN","0.0"],
    [1543217,"2026-02-24 03:40:00","54973","0.138","55.0","0.6859999999999999","55.18","1021.427","10.97","88.7","NAN","0.0"],
    [1543218,"2026-02-24 03:50:00","54974","0.0","0.0","0.0","0.0","1021.433","11.13","87.4","NAN","0.0"],
    [1543219,"2026-02-24 04:00:00","54975","0.013999999999999999","268.3","0.261","267.1","1021.324","11.16","87.5","NAN","0.0"],
    [1543220,"2026-02-24 04:10:00","54976","0.0","0.0","0.0","0.0","1021.319","11.02","86.8","NAN","0.0"],
    [1543221,"2026-02-24 04:20:00","54977","0.0","0.0","0.0","0.0","1021.279","10.73","88.1","NAN","0.0"],
    [1543222,"2026-02-24 04:30:00","54978","0.049","56.38","0.555","61.91","1021.2539999999999","10.66","87","NAN","0.0"],
    [1543223,"2026-02-24 04:40:00","54979","0.203","182.1","0.784","182.7","1021.197","10.64","87.8","NAN","0.0"],
    [1543224,"2026-02-24 04:50:00","54980","0.045","195.9","0.523","198.3","1021.172","10.53","90.5","NAN","0.0"],
    [1543225,"2026-02-24 05:00:00","54981","0.58","8.48","1.143","15.72","1021.072","10.5","89.2","NAN","0.0"],
    [1543226,"2026-02-24 05:10:00","54982","0.674","359.2","1.209","22.02","1021.07","10.92","82.2","NAN","0.0"],
    [1543227,"2026-02-24 05:20:00","54983","0.461","23.32","1.078","7.851","1021.07","10.92","81","NAN","0.0"],
    [1543228,"2026-02-24 05:30:00","54984","0.10300000000000001","32.47","0.588","44.45","1021.07","10.49","82.8","NAN","0.0"],
    [1543229,"2026-02-24 05:40:00","54985","0.0","0.0","0.0","0.0","1021.07","10.44","82.6","NAN","0.0"],
    [1543230,"2026-02-24 05:50:00","54986","0.0","0.0","0.0","0.0","1021.067","10.27","83.6","NAN","0.0"],
    [1543231,"2026-02-24 06:00:00","54987","0.046","157.5","0.457","159.2","1021.072","10.09","87.2","NAN","0.0"],
    [1543232,"2026-02-24 06:10:00","54988","0.0","147.9","0.065","147.9","1021.072","9.92","87.3","NAN","0.0"],
    [1543233,"2026-02-24 06:20:00","54989","0.28","196.7","0.621","198.2","1021.057","9.97","88.2","NAN","0.0"],
    [1543234,"2026-02-24 06:30:00","54990","0.0","0.0","0.0","0.0","1020.97","9.94","89.4","NAN","0.0"],
    [1543235,"2026-02-24 06:40:00","54991","0.0","0.0","0.0","0.0","1020.9580000000001","9.91","89.8","NAN","0.0"],
    [1543236,"2026-02-24 06:50:00","54992","0.0","0.0","0.0","0.0","1020.98","10.14","88.7","NAN","0.0"],
    [1543237,"2026-02-24 07:00:00","54993","0.0","0.0","0.0","0.0","1021.06","10.65","83.9","NAN","0.0"],
    [1543238,"2026-02-24 07:10:00","54994","0.38299999999999995","60.49","0.784","59.38","1021.067","11.31","79.72","NAN","0.0"],
    [1543239,"2026-02-24 07:20:00","54995","0.027999999999999997","64.59","0.327","65.38","1021.069","12.02","75.99","NAN","0.0"],
    [1543240,"2026-02-24 07:30:00","54996","0.24","81.7","0.588","81.6","1021.0889999999999","12.39","76.1","NAN","0.0"],
    [1543241,"2026-02-24 07:40:00","54997","0.433","108.5","1.209","98.7","1021.2239999999999","12.31","77.49","NAN","0.0"],
    [1543242,"2026-02-24 07:50:00","54998","0.6920000000000001","102.3","1.274","99.9","1021.2330000000001","12.43","76.18","NAN","0.0"],
    [1543243,"2026-02-24 08:00:00","54999","0.142","88.9","0.8490000000000001","131.0","1021.242","12.44","74.91","NAN","0.0"],
    [1543244,"2026-02-24 08:10:00","55000","0.23399999999999999","128.2","0.7190000000000001","122.0","1021.199","12.96","73.19","NAN","0.0"],
    [1543245,"2026-02-24 08:20:00","55001","0.191","133.6","0.588","146.7","1021.165","13.15","72.33","NAN","0.0"],
    [1543246,"2026-02-24 08:30:00","55002","0.71","155.6","1.111","167.1","1021.1489999999999","13.22","71.59","NAN","0.0"],
    [1543247,"2026-02-24 08:40:00","55003","0.843","154.8","1.274","164.1","1021.1389999999999","13.13","72.59","NAN","0.0"],
    [1543248,"2026-02-24 08:50:00","55004","0.737","121.3","1.405","117.0","1021.0889999999999","13.38","71.86","NAN","0.0"],
    [1543249,"2026-02-24 09:00:00","55005","0.688","125.7","1.045","140.7","1021.049","13.62","69.97","NAN","0.0"],
    [1543250,"2026-02-24 09:10:00","55006","0.782","127.4","1.339","121.9","1020.96","13.78","69.71","NAN","0.0"],
    [1543251,"2026-02-24 09:20:00","55007","1.053","127.5","1.666","136.8","1020.967","13.71","69.7","NAN","0.0"],
    [1543252,"2026-02-24 09:30:00","55008","0.875","116.4","1.4369999999999998","100.1","1020.925","13.91","68.78","NAN","0.0"],
    [1543253,"2026-02-24 09:40:00","55009","1.06","128.5","1.764","122.3","1020.842","14.34","67.12","NAN","0.0"],
    [1543254,"2026-02-24 09:50:00","55010","0.9520000000000001","116.9","1.7309999999999999","98.0","1020.743","14.52","64.63","NAN","0.0"],
    [1543255,"2026-02-24 10:00:00","55011","0.655","101.4","1.274","100.6","1020.678","15.18","61.28","NAN","0.0"],
    [1543256,"2026-02-24 10:10:00","55012","0.9109999999999999","105.4","1.7309999999999999","107.4","1020.678","15.79","58.81","NAN","0.0"],
    [1543257,"2026-02-24 10:20:00","55013","1.629","157.1","2.8089999999999997","152.2","1020.671","15.69","64.85","NAN","0.0"],
    [1543258,"2026-02-24 10:30:00","55014","1.331","166.4","2.6460000000000004","156.5","1020.596","15.88","64.44","NAN","0.0"],
    [1543259,"2026-02-24 10:40:00","55015","1.868","173.0","2.9730000000000003","166.2","1020.534","15.87","65.36","NAN","0.0"],
    [1543260,"2026-02-24 10:50:00","55016","2.491","172.4","4.051","178.1","1020.404","15.62","71.51","NAN","0.0"],
    [1543261,"2026-02-24 11:00:00","55017","2.56","175.2","3.6260000000000003","165.6","1020.332","15.19","76.32","NAN","0.0"],
    [1543262,"2026-02-24 11:10:00","55018","1.9580000000000002","195.9","3.7569999999999997","187.7","1020.305","15.9","73.47","NAN","0.0"],
    [1543263,"2026-02-24 11:20:00","55019","2.1590000000000003","199.0","3.887","169.9","1020.3","16.2","70.4","NAN","0.0"],
    [1543264,"2026-02-24 11:30:00","55020","1.774","199.1","3.1689999999999996","199.0","1020.262","16.22","69.04","NAN","0.0"],
    [1543265,"2026-02-24 11:40:00","55021","1.469","200.4","2.7769999999999997","198.2","1020.15","16.19","68.39","NAN","0.0"],
    [1543266,"2026-02-24 11:50:00","55022","1.365","203.6","3.0380000000000003","183.8","1019.995","16.53","65.66","NAN","0.0"],
    [1543267,"2026-02-24 12:00:00","55023","1.881","196.0","3.528","185.1","1019.8430000000001","16.01","67.66","NAN","0.0"],
    [1543268,"2026-02-24 12:10:00","55024","1.675","197.1","3.332","202.4","1019.677","15.94","67.84","NAN","0.0"],
    [1543269,"2026-02-24 12:20:00","55025","2.181","197.7","4.573","182.8","1019.574","15.95","66.94","NAN","0.0"],
    [1543270,"2026-02-24 12:30:00","55026","2.062","220.9","4.606","232.7","1019.47","16.13","64.88","NAN","0.0"],
    [1543271,"2026-02-24 12:40:00","55027","1.493","222.9","3.822","227.5","1019.32","16.36","64.73","NAN","0.0"],
    [1543272,"2026-02-24 12:50:00","55028","2.041","229.7","4.704","240.8","1019.188","16.55","62.59","NAN","0.0"],
    [1543273,"2026-02-24 13:00:00","55029","2.471","234.8","5.521","244.1","1019.1389999999999","15.96","65.4","NAN","0.0"],
    [1543274,"2026-02-24 13:10:00","55030","2.73","243.4","4.965","216.4","1018.987","15.74","65.5","NAN","0.0"],
    [1543275,"2026-02-24 13:20:00","55031","2.417","244.2","4.1160000000000005","276.2","1018.8919999999999","15.95","65.48","NAN","0.0"],
    [1543276,"2026-02-24 13:30:00","55032","2.27","225.3","4.475","229.3","1018.73","16.14","64.97","NAN","0.0"],
    [1543277,"2026-02-24 13:40:00","55033","2.135","220.6","4.2139999999999995","222.1","1018.633","16.49","63.83","NAN","0.0"],
    [1543278,"2026-02-24 13:50:00","55034","2.059","218.5","3.855","228.6","1018.449","16.86","63.21","NAN","0.0"],
    [1543279,"2026-02-24 14:00:00","55035","2.19","222.7","3.887","257.6","1018.3489999999999","17.2","60.37","NAN","0.0"],
    [1543280,"2026-02-24 14:10:00","55036","1.6980000000000002","228.9","3.7239999999999998","230.1","1018.217","17.42","58.21","NAN","0.0"],
    [1543281,"2026-02-24 14:20:00","55037","1.9780000000000002","216.7","4.737","216.8","1018.182","17.26","60.02","NAN","0.0"],
    [1543282,"2026-02-24 14:30:00","55038","1.5919999999999999","212.8","3.5610000000000004","218.9","1018.074","17.54","58.85","NAN","0.0"],
    [1543283,"2026-02-24 14:40:00","55039","1.416","211.4","3.593","213.0","1017.922","17.71","58.43","NAN","0.0"],
    [1543284,"2026-02-24 14:50:00","55040","1.611","225.1","3.7569999999999997","241.8","1017.801","17.81","55.34","NAN","0.0"],
    [1543285,"2026-02-24 15:00:00","55041","1.92","221.8","3.92","232.7","1017.706","17.78","56.04","NAN","0.0"],
    [1543286,"2026-02-24 15:10:00","55042","2.151","232.4","5.7170000000000005","239.3","1017.697","17.23","58.35","NAN","0.0"],
    [1543287,"2026-02-24 15:20:00","55043","2.1430000000000002","225.9","3.92","260.0","1017.788","17.1","59.65","NAN","0.0"],
    [1543288,"2026-02-24 15:30:00","55044","1.931","229.5","3.7889999999999997","229.1","1017.795","16.94","59.93","NAN","0.0"],
    [1543289,"2026-02-24 15:40:00","55045","1.959","218.1","4.508","230.1","1017.709","16.93","59.23","NAN","0.0"],
    [1543290,"2026-02-24 15:50:00","55046","2.206","232.3","4.345","238.1","1017.7239999999999","16.54","61.63","NAN","0.0"],
    [1543291,"2026-02-24 16:00:00","55047","2.526","241.6","4.508","260.9","1017.701","16.31","61.55","NAN","0.0"],
    [1543292,"2026-02-24 16:10:00","55048","3.035","246.9","5.39","249.1","1017.687","15.8","63.27","NAN","0.0"],
    [1543293,"2026-02-24 16:20:00","55049","2.455","234.4","4.345","259.6","1017.679","15.75","64.15","NAN","0.0"],
    [1543294,"2026-02-24 16:30:00","55050","2.4130000000000003","244.8","4.083","237.4","1017.684","15.62","66.03","NAN","0.0"],
    [1543295,"2026-02-24 16:40:00","55051","1.33","218.1","2.679","234.6","1017.689","15.36","67.94","NAN","0.0"],
    [1543296,"2026-02-24 16:50:00","55052","1.3619999999999999","205.2","3.071","197.9","1017.709","15.04","70.12","NAN","0.0"],
    [1543297,"2026-02-24 17:00:00","55053","1.082","201.8","2.0909999999999997","179.9","1017.834","14.66","73.73","NAN","0.0"],
    [1543298,"2026-02-24 17:10:00","55054","1.003","200.7","2.221","196.1","1017.921","14.26","75.52","NAN","0.0"],
    [1543299,"2026-02-24 17:20:00","55055","1.178","220.5","2.352","276.5","1017.936","14.28","75.83","NAN","0.0"],
    [1543300,"2026-02-24 17:30:00","55056","1.43","204.1","2.5810000000000004","203.6","1017.938","13.96","77.92","NAN","0.0"],
    [1543301,"2026-02-24 17:40:00","55057","1.361","209.3","2.7110000000000003","207.2","1017.941","13.79","79.21","NAN","0.0"],
    [1543302,"2026-02-24 17:50:00","55058","1.652","202.5","3.103","190.9","1018.043","13.53","81","NAN","0.0"],
    [1543303,"2026-02-24 18:00:00","55059","1.454","204.2","3.365","217.1","1018.127","13.27","82.9","NAN","0.0"],
    [1543304,"2026-02-24 18:10:00","55060","1.126","208.9","2.189","200.3","1018.206","13.15","84.6","NAN","0.0"],
    [1543305,"2026-02-24 18:20:00","55061","1.209","221.9","2.875","228.2","1018.227","13.11","84.9","NAN","0.0"],
    [1543306,"2026-02-24 18:30:00","55062","0.991","229.7","3.103","225.3","1018.247","13.16","84.4","NAN","0.0"],
    [1543307,"2026-02-24 18:40:00","55063","1.254","210.1","2.5810000000000004","217.9","1018.24","13.12","85","NAN","0.0"],
    [1543308,"2026-02-24 18:50:00","55064","1.063","204.7","2.254","200.2","1018.248","12.87","87.3","NAN","0.0"],
    [1543309,"2026-02-24 19:00:00","55065","1.287","209.2","2.907","196.1","1018.258","12.72","88.4","NAN","0.0"],
    [1543310,"2026-02-24 19:10:00","55066","0.985","210.4","2.254","200.1","1018.263","12.79","88.6","NAN","0.0"],
    [1543311,"2026-02-24 19:20:00","55067","1.49","233.0","3.136","235.0","1018.3430000000001","12.78","88.9","NAN","0.0"],
    [1543312,"2026-02-24 19:30:00","55068","1.422","229.3","4.181","245.2","1018.363","12.82","89.4","NAN","0.0"],
    [1543313,"2026-02-24 19:40:00","55069","1.212","232.9","2.5810000000000004","231.5","1018.393","12.8","90.4","NAN","0.0"],
    [1543314,"2026-02-24 19:50:00","55070","1.165","227.6","2.9730000000000003","204.0","1018.395","12.78","91","NAN","0.0"],
    [1543315,"2026-02-24 20:00:00","55071","1.787","239.4","4.181","226.8","1018.3960000000001","12.77","91.7","NAN","0.0"],
    [1543316,"2026-02-24 20:10:00","55072","1.722","231.9","3.9530000000000003","234.8","1018.475","12.78","91.9","NAN","0.0"],
    [1543317,"2026-02-24 20:20:00","55073","0.997","241.3","3.495","240.4","1018.508","12.77","92.1","NAN","0.0"],
    [1543318,"2026-02-24 20:30:00","55074","1.004","238.0","3.005","268.8","1018.533","12.79","92.1","NAN","0.0"],
    [1543319,"2026-02-24 20:40:00","55075","1.3359999999999999","243.8","2.842","265.6","1018.576","12.76","92.4","NAN","0.0"],
    [1543320,"2026-02-24 20:50:00","55076","1.4969999999999999","245.0","3.136","233.2","1018.51","12.75","92.4","NAN","0.0"],
    [1543321,"2026-02-24 21:00:00","55077","1.228","235.9","3.397","236.2","1018.502","12.71","92.2","NAN","0.0"],
    [1543322,"2026-02-24 21:10:00","55078","1.236","235.6","3.7239999999999998","237.7","1018.415","12.61","92.7","NAN","0.0"],
    [1543323,"2026-02-24 21:20:00","55079","1.347","245.1","3.0380000000000003","239.3","1018.424","12.52","93.4","NAN","0.0"],
    [1543324,"2026-02-24 21:30:00","55080","1.147","252.0","2.385","253.2","1018.383","12.47","93.5","NAN","0.0"],
    [1543325,"2026-02-24 21:40:00","55081","1.4180000000000001","258.2","3.201","250.9","1018.373","12.49","93.3","NAN","0.0"],
    [1543326,"2026-02-24 21:50:00","55082","1.9669999999999999","252.1","3.855","246.0","1018.3889999999999","12.34","93.5","NAN","0.0"],
    [1543327,"2026-02-24 22:00:00","55083","1.902","246.8","3.528","237.0","1018.3919999999999","12.12","94.3","NAN","0.0"],
    [1543328,"2026-02-24 22:10:00","55084","1.5590000000000002","237.8","2.9730000000000003","239.8","1018.3939999999999","12.01","94.3","NAN","0.0"],
    [1543329,"2026-02-24 22:20:00","55085","1.521","238.2","3.43","245.7","1018.4060000000001","11.93","94.3","NAN","0.0"],
    [1543330,"2026-02-24 22:30:00","55086","1.5319999999999998","236.5","3.6910000000000003","266.0","1018.405","11.78","94.9","NAN","0.0"],
    [1543331,"2026-02-24 22:40:00","55087","1.5390000000000001","237.7","3.6260000000000003","244.0","1018.4019999999999","11.64","95.6","NAN","0.0"],
    [1543332,"2026-02-24 22:50:00","55088","1.433","264.3","3.005","263.3","1018.3589999999999","11.56","96.6","NAN","0.0"],
    [1543333,"2026-02-24 23:00:00","55089","0.813","228.6","2.123","242.5","1018.317","11.59","96.7","NAN","0.0"],
    [1543334,"2026-02-24 23:10:00","55090","1.016","257.5","2.287","265.3","1018.328","11.6","96.8","NAN","0.0"],
    [1543335,"2026-02-24 23:20:00","55091","0.511","241.7","2.025","277.2","1018.3","11.64","96.4","NAN","0.0"],
    [1543336,"2026-02-24 23:30:00","55092","0.618","251.2","2.025","252.9","1018.303","11.66","95.3","NAN","0.0"],
    [1543337,"2026-02-24 23:40:00","55093","0.493","239.3","2.025","238.7","1018.295","11.61","93.3","NAN","0.0"],
    [1543338,"2026-02-24 23:50:00","55094","0.7090000000000001","230.3","1.9269999999999998","236.0","1018.283","11.59","91.5","NAN","0.0"],
    [1543339,"2026-02-25 00:00:00","55095","0.32799999999999996","237.7","1.274","267.9","1018.2810000000001","11.55","90.5","NAN","0.0"],
    [1543340,"2026-02-25 00:10:00","55096","0.235","214.3","0.7190000000000001","229.0","1018.301","11.5","90","NAN","0.0"],
    [1543341,"2026-02-25 00:20:00","55097","0.147","194.6","0.653","188.9","1018.291","11.38","89.9","NAN","0.0"],
    [1543342,"2026-02-25 00:30:00","55098","0.0","0.0","0.0","0.0","1018.137","11.17","91","NAN","0.0"],
    [1543343,"2026-02-25 00:40:00","55099","0.278","150.1","0.8490000000000001","136.2","1018.08","11.09","91.5","NAN","0.0"],
    [1543344,"2026-02-25 00:50:00","55100","0.212","197.0","0.621","164.7","1018.082","10.99","92","NAN","0.0"],
    [1543345,"2026-02-25 01:00:00","55101","0.385","217.1","1.405","200.6","1018.1410000000001","11.08","93","NAN","0.0"],
    [1543346,"2026-02-25 01:10:00","55102","0.27","186.5","1.143","199.2","1018.284","11.03","93.5","NAN","0.0"],
    [1543347,"2026-02-25 01:20:00","55103","0.275","197.6","0.784","205.9","1018.311","10.67","94.3","NAN","0.0"],
    [1543348,"2026-02-25 01:30:00","55104","0.0","0.0","0.0","0.0","1018.319","10.62","95.1","NAN","0.0"],
    [1543349,"2026-02-25 01:40:00","55105","0.043","121.4","0.392","124.8","1018.322","10.21","95.3","NAN","0.0"],
    [1543350,"2026-02-25 01:50:00","55106","0.0","0.0","0.0","0.0","1018.326","10.21","95.8","NAN","0.0"],
    [1543351,"2026-02-25 02:00:00","55107","0.287","199.3","0.6859999999999999","209.5","1018.326","10.23","96","NAN","0.0"],
    [1543352,"2026-02-25 02:10:00","55108","0.267","198.0","0.588","188.0","1018.324","10.03","95.5","NAN","0.0"],
    [1543353,"2026-02-25 02:20:00","55109","0.264","187.7","0.7190000000000001","186.1","1018.329","9.87","95","NAN","0.0"],
    [1543354,"2026-02-25 02:30:00","55110","0.253","216.2","0.7509999999999999","208.4","1018.2919999999999","9.9","94.5","NAN","0.0"],
    [1543355,"2026-02-25 02:40:00","55111","0.27","204.2","0.555","175.4","1018.304","9.8","93.8","NAN","0.0"],
    [1543356,"2026-02-25 02:50:00","55112","0.078","175.2","0.425","163.9","1018.329","9.65","93.3","NAN","0.0"],
    [1543357,"2026-02-25 03:00:00","55113","0.369","191.5","0.653","191.3","1018.329","9.72","92.2","NAN","0.0"],
    [1543358,"2026-02-25 03:10:00","55114","0.07","153.4","0.425","122.7","1018.329","9.66","90.4","NAN","0.0"],
    [1543359,"2026-02-25 03:20:00","55115","0.5820000000000001","133.6","1.078","157.3","1018.409","9.86","89.9","NAN","0.0"],
    [1543360,"2026-02-25 03:30:00","55116","0.133","136.2","0.6859999999999999","139.0","1018.426","10.04","91.3","NAN","0.0"],
    [1543361,"2026-02-25 03:40:00","55117","0.251","78.65","0.784","86.3","1018.4580000000001","9.87","93","NAN","0.0"],
    [1543362,"2026-02-25 03:50:00","55118","0.354","77.89","1.013","65.73","1018.571","9.72","94.5","NAN","0.0"],
    [1543363,"2026-02-25 04:00:00","55119","0.555","76.53","1.405","70.82","1018.6560000000001","9.8","95.5","NAN","0.0"],
    [1543364,"2026-02-25 04:10:00","55120","0.6759999999999999","65.58","1.274","62.68","1018.74","9.99","96.7","NAN","0.0"],
    [1543365,"2026-02-25 04:20:00","55121","0.813","74.9","1.96","65.47","1018.823","9.99","97.7","NAN","0.0"],
    [1543366,"2026-02-25 04:30:00","55122","0.638","67.08","1.47","100.2","1018.957","9.96","98.4","NAN","0.0"],
    [1543367,"2026-02-25 04:40:00","55123","0.659","39.61","1.405","36.6","1019.066","10","98.8","NAN","0.0"],
    [1543368,"2026-02-25 04:50:00","55124","1.088","41.71","2.221","52.77","1019.076","10.09","98.6","NAN","0.0"],
    [1543369,"2026-02-25 05:00:00","55125","0.6579999999999999","31.08","2.385","57.51","1019.082","10.09","96.5","NAN","0.0"],
    [1543370,"2026-02-25 05:10:00","55126","0.857","23.84","2.189","52.77","1019.203","10.37","93.7","NAN","0.0"],
    [1543371,"2026-02-25 05:20:00","55127","1.297","44.49","2.8089999999999997","31.74","1019.336","10.58","94.7","NAN","0.0"],
    [1543372,"2026-02-25 05:30:00","55128","1.182","36.52","2.842","24.82","1019.434","10.53","96.7","NAN","0.0"],
    [1543373,"2026-02-25 05:40:00","55129","0.54","22.84","1.993","42.4","1019.5889999999999","10.53","97.2","NAN","0.0"],
    [1543374,"2026-02-25 05:50:00","55130","1.042","16.03","2.7110000000000003","27.2","1019.701","10.57","96.7","NAN","0.0"],
    [1543375,"2026-02-25 06:00:00","55131","0.5579999999999999","17.36","1.601","1.6769999999999998","1019.8530000000001","10.65","96.4","NAN","0.0"],
    [1543376,"2026-02-25 06:10:00","55132","0.938","11.63","2.025","36.26","1019.883","10.74","95.7","NAN","0.0"],
    [1543377,"2026-02-25 06:20:00","55133","1.308","9.08","3.071","6.935","1019.9580000000001","10.77","94.9","NAN","0.0"],
    [1543378,"2026-02-25 06:30:00","55134","1.124","16.8","2.221","63.15","1020.076","10.82","94.3","NAN","0.0"],
    [1543379,"2026-02-25 06:40:00","55135","1.155","25.66","2.287","359.0","1020.135","11","94.2","NAN","0.0"],
    [1543380,"2026-02-25 06:50:00","55136","1.275","29.35","2.875","43.66","1020.2489999999999","11.13","93.9","NAN","0.0"],
    [1543381,"2026-02-25 07:00:00","55137","1.733","51.28","5.227","83.7","1020.346","11.35","93.9","NAN","0.0"],
    [1543382,"2026-02-25 07:10:00","55138","2.037","60.14","4.704","69.9","1020.533","11.78","93.4","NAN","0.0"],
    [1543383,"2026-02-25 07:20:00","55139","1.4240000000000002","38.25","3.855","42.71","1020.762","11.89","92.8","NAN","0.0"],
    [1543384,"2026-02-25 07:30:00","55140","2.0340000000000003","47.63","4.018","32.94","1020.959","11.83","92.2","NAN","0.0"],
    [1543385,"2026-02-25 07:40:00","55141","1.932","57.37","4.638999999999999","63.47","1021.143","11.79","91.7","NAN","0.0"],
    [1543386,"2026-02-25 07:50:00","55142","2.721","71.05","5.749","63.09","1021.2330000000001","11.86","91","NAN","0.0"],
    [1543387,"2026-02-25 08:00:00","55143","1.902","56.63","4.018","64.02","1021.245","11.94","91.3","NAN","0.0"],
    [1543388,"2026-02-25 08:10:00","55144","2.169","44.27","4.737","52.94","1021.285","11.96","91.9","NAN","0.0"],
    [1543389,"2026-02-25 08:20:00","55145","1.9980000000000002","42.45","3.6260000000000003","31.03","1021.347","12.01","91.8","NAN","0.0"],
    [1543390,"2026-02-25 08:30:00","55146","1.713","65.47","3.593","62.61","1021.45","12.17","91.4","NAN","0.0"],
    [1543391,"2026-02-25 08:40:00","55147","1.493","58.69","3.005","64.55","1021.4989999999999","12.26","90.2","NAN","0.0"],
    [1543392,"2026-02-25 08:50:00","55148","2.115","60.69","4.051","67.3","1021.5830000000001","12.31","89.2","NAN","0.0"],
    [1543393,"2026-02-25 09:00:00","55149","1.548","71.07","4.1160000000000005","112.4","1021.6360000000001","12.42","89.1","NAN","0.0"],
    [1543394,"2026-02-25 09:10:00","55150","1.845","72.41","4.149","83.6","1021.725","12.57","87.6","NAN","0.0"],
    [1543395,"2026-02-25 09:20:00","55151","1.899","51.39","3.593","50.27","1021.745","12.76","86.8","NAN","0.0"],
    [1543396,"2026-02-25 09:30:00","55152","1.7069999999999999","76.24","4.769","90.7","1021.8639999999999","12.87","86.8","NAN","0.0"],
    [1543397,"2026-02-25 09:40:00","55153","1.482","73.87","3.9530000000000003","69.83","1021.998","12.97","86.5","NAN","0.0"],
    [1543398,"2026-02-25 09:50:00","55154","2.208","79.1","3.887","79.18","1022.158","13.02","86.3","NAN","0.0"],
    [1543399,"2026-02-25 10:00:00","55155","2.463","74.3","4.671","67.66","1022.175","13.02","85.9","NAN","0.0"],
    [1543400,"2026-02-25 10:10:00","55156","1.507","64.55","4.018","74.32","1022.209","13.31","84.7","NAN","0.0"],
    [1543401,"2026-02-25 10:20:00","55157","2.225","87.9","4.018","61.49","1022.325","13.38","83.8","NAN","0.0"],
    [1543402,"2026-02-25 10:30:00","55158","2.434","84.5","4.573","91.5","1022.43","13.48","83.6","NAN","0.0"],
    [1543403,"2026-02-25 10:40:00","55159","1.689","85.8","3.659","82.7","1022.5419999999999","13.66","83.1","NAN","0.0"],
    [1543404,"2026-02-25 10:50:00","55160","1.676","60.56","3.103","83.1","1022.658","13.8","82.7","NAN","0.0"],
    [1543405,"2026-02-25 11:00:00","55161","1.209","78.07","3.528","91.6","1022.671","14.1","81.7","NAN","0.0"],
    [1543406,"2026-02-25 11:10:00","55162","1.449","77.01","3.92","95.8","1022.676","14.22","79.97","NAN","0.0"],
    [1543407,"2026-02-25 11:20:00","55163","1.8159999999999998","61.91","4.149","89.0","1022.673","14.14","79.55","NAN","0.0"],
    [1543408,"2026-02-25 11:30:00","55164","2.503","82.7","4.247","71.7","1022.686","14.06","79.5","NAN","0.0"],
    [1543409,"2026-02-25 11:40:00","55165","2.136","84.5","3.7889999999999997","80.6","1022.671","14.22","79.64","NAN","0.0"],
    [1543410,"2026-02-25 11:50:00","55166","2.1","78.84","4.573","67.18","1022.6410000000001","14.39","79.48","NAN","0.0"],
    [1543411,"2026-02-25 12:00:00","55167","2.208","84.9","3.7889999999999997","97.8","1022.556","14.69","77.96","NAN","0.0"],
    [1543412,"2026-02-25 12:10:00","55168","2.275","75.85","4.083","71.65","1022.466","14.68","77.79","NAN","0.0"],
    [1543413,"2026-02-25 12:20:00","55169","2.411","79.2","4.312","103.9","1022.3939999999999","14.71","77.56","NAN","0.0"],
    [1543414,"2026-02-25 12:30:00","55170","2.464","66.24","4.051","68.38","1022.2919999999999","14.89","76.78","NAN","0.0"],
    [1543415,"2026-02-25 12:40:00","55171","2.532","71.53","4.4430000000000005","52.17","1022.187","14.94","76.11","NAN","0.0"],
    [1543416,"2026-02-25 12:50:00","55172","2.416","86.7","3.887","98.6","1022.09","14.91","77.01","NAN","0.0"],
    [1543417,"2026-02-25 13:00:00","55173","2.492","87.7","4.312","93.8","1022.0160000000001","14.99","76.76","NAN","0.0"],
    [1543418,"2026-02-25 13:10:00","55174","2.228","100.5","4.312","84.9","1022.043","15.21","75.77","NAN","0.0"],
    [1543419,"2026-02-25 13:20:00","55175","2.17","100.3","4.051","85.9","1021.944","15.05","76.58","NAN","0.0"],
    [1543420,"2026-02-25 13:30:00","55176","2.269","102.0","4.181","115.0","1021.939","15.16","75.81","NAN","0.0"],
    [1543421,"2026-02-25 13:40:00","55177","2.384","92.4","4.181","89.7","1021.913","15.25","75.95","NAN","0.0"],
    [1543422,"2026-02-25 13:50:00","55178","2.293","84.6","4.181","68.35","1021.9110000000001","15.16","77.23","NAN","0.0"],
    [1543423,"2026-02-25 14:00:00","55179","2.864","86.9","4.802","83.9","1021.8939999999999","15.29","75.84","NAN","0.0"],
    [1543424,"2026-02-25 14:10:00","55180","3.2760000000000002","82.3","5.063","90.3","1021.8539999999999","14.94","77.08","NAN","0.0"],
    [1543425,"2026-02-25 14:20:00","55181","2.397","79.47","4.835","104.7","1021.8839999999999","15.22","76.34","NAN","0.0"],
    [1543426,"2026-02-25 14:30:00","55182","2.07","74.56","4.4430000000000005","73.83","1021.8960000000001","15.3","76.33","NAN","0.0"],
    [1543427,"2026-02-25 14:40:00","55183","2.478","81.1","4.704","75.94","1021.921","15.17","77.2","NAN","0.0"],
    [1543428,"2026-02-25 14:50:00","55184","2.89","82.1","4.835","74.32","1021.9060000000001","14.88","79.24","NAN","0.0"],
    [1543429,"2026-02-25 15:00:00","55185","3.049","83.6","5.1610000000000005","73.67","1021.916","14.78","80.1","NAN","0.0"],
    [1543430,"2026-02-25 15:10:00","55186","2.49","81.9","5.096","82.2","1021.929","14.8","80.7","NAN","0.0"],
    [1543431,"2026-02-25 15:20:00","55187","2.485","87.6","4.345","80.3","1021.934","14.8","80.5","NAN","0.0"],
    [1543432,"2026-02-25 15:30:00","55188","2.864","85.0","4.606","81.8","1021.919","14.73","80.9","NAN","0.0"],
    [1543433,"2026-02-25 15:40:00","55189","1.9980000000000002","86.0","4.41","76.1","1021.9789999999999","14.64","81.3","NAN","0.0"],
    [1543434,"2026-02-25 15:50:00","55190","1.5930000000000002","77.25","3.201","99.5","1022.096","15","79.58","NAN","0.0"],
    [1543435,"2026-02-25 16:00:00","55191","1.633","69.83","3.7239999999999998","106.4","1022.123","14.85","79.69","NAN","0.0"],
    [1543436,"2026-02-25 16:10:00","55192","1.5130000000000001","72.56","3.136","66.54","1022.16","14.76","79.89","NAN","0.0"],
    [1543437,"2026-02-25 16:20:00","55193","1.7369999999999999","76.87","3.822","78.47","1022.173","14.48","80.8","NAN","0.0"],
    [1543438,"2026-02-25 16:30:00","55194","2.0180000000000002","84.6","3.7569999999999997","88.9","1022.183","14.35","81.6","NAN","0.0"],
    [1543439,"2026-02-25 16:40:00","55195","2.559","88.4","4.671","89.0","1022.257","14.25","82.1","NAN","0.0"],
    [1543440,"2026-02-25 16:50:00","55196","1.9969999999999999","80.6","4.2139999999999995","87.2","1022.302","14.21","82.5","NAN","0.0"],
    [1543441,"2026-02-25 17:00:00","55197","2.18","74.14","4.1160000000000005","70.25","1022.382","14.14","82.8","NAN","0.0"],
    [1543442,"2026-02-25 17:10:00","55198","1.73","85.0","3.43","86.4","1022.419","14.03","83.7","NAN","0.0"],
    [1543443,"2026-02-25 17:20:00","55199","1.556","84.5","3.1689999999999996","103.2","1022.512","14.02","83.9","NAN","0.0"],
    [1543444,"2026-02-25 17:30:00","55200","1.649","78.46","3.528","73.06","1022.686","13.92","85","NAN","0.0"],
    [1543445,"2026-02-25 17:40:00","55201","1.6909999999999998","68.86","3.005","94.0","1022.868","13.81","85.5","NAN","0.0"],
    [1543446,"2026-02-25 17:50:00","55202","1.534","73.03","2.8089999999999997","60.65","1023.0360000000001","13.74","86.7","NAN","0.0"],
    [1543447,"2026-02-25 18:00:00","55203","1.679","72.35","3.267","65.26","1023.1460000000001","13.68","88.4","NAN","0.0"],
    [1543448,"2026-02-25 18:10:00","55204","1.234","74.48","2.7110000000000003","95.0","1023.227","13.62","89.6","NAN","0.0"],
    [1543449,"2026-02-25 18:20:00","55205","1.444","76.08","2.9730000000000003","83.2","1023.263","13.58","90.2","NAN","0.0"],
    [1543450,"2026-02-25 18:30:00","55206","1.94","75.06","3.6910000000000003","77.25","1023.355","13.58","90.3","NAN","0.0"],
    [1543451,"2026-02-25 18:40:00","55207","1.048","44.2","2.417","32.65","1023.462","13.54","90.4","NAN","0.0"],
    [1543452,"2026-02-25 18:50:00","55208","1.3869999999999998","37.58","2.254","32.99","1023.617","13.5","90.9","NAN","0.0"],
    [1543453,"2026-02-25 19:00:00","55209","1.5619999999999998","42.43","2.548","37.17","1023.7339999999999","13.45","91.1","NAN","0.0"],
    [1543454,"2026-02-25 19:10:00","55210","1.6540000000000001","40.86","2.613","47.28","1023.779","13.42","91.3","NAN","0.0"],
    [1543455,"2026-02-25 19:20:00","55211","1.6","40.3","2.7769999999999997","20.8","1023.8530000000001","13.4","91.5","NAN","0.0"],
    [1543456,"2026-02-25 19:30:00","55212","1.659","41.27","3.136","78.42","1023.953","13.43","91.6","NAN","0.0"],
    [1543457,"2026-02-25 19:40:00","55213","2.005","40.6","4.606","20.41","1023.933","13.54","91.6","NAN","0.0"],
    [1543458,"2026-02-25 19:50:00","55214","1.517","47.43","3.0380000000000003","47.35","1024.0330000000001","13.55","91.8","NAN","0.0"],
    [1543459,"2026-02-25 20:00:00","55215","1.72","44.36","4.051","34.28","1024.171","13.57","92.5","NAN","0.0"],
    [1543460,"2026-02-25 20:10:00","55216","1.077","52.42","2.417","35.85","1024.238","13.61","92.8","NAN","0.0"],
    [1543461,"2026-02-25 20:20:00","55217","1.575","50.04","3.528","15.16","1024.401","13.57","92.5","NAN","0.0"],
    [1543462,"2026-02-25 20:30:00","55218","1.4380000000000002","43.69","3.234","32.27","1024.532","13.52","92.4","NAN","0.0"],
    [1543463,"2026-02-25 20:40:00","55219","1.349","55.91","2.613","118.0","1024.703","13.58","91.9","NAN","0.0"],
    [1543464,"2026-02-25 20:50:00","55220","1.25","64.49","2.515","68.35","1024.724","13.69","91.3","NAN","0.0"],
    [1543465,"2026-02-25 21:00:00","55221","1.865","64.73","4.377","66.84","1024.732","13.79","90.8","NAN","0.0"],
    [1543466,"2026-02-25 21:10:00","55222","2.688","73.6","4.638999999999999","71.7","1024.769","13.79","91","NAN","0.0"],
    [1543467,"2026-02-25 21:20:00","55223","2.133","73.37","4.638999999999999","71.7","1024.844","13.8","89.8","NAN","0.0"],
    [1543468,"2026-02-25 21:30:00","55224","0.929","60.93","2.0580000000000003","65.6","1024.935","13.85","89.6","NAN","0.0"],
    [1543469,"2026-02-25 21:40:00","55225","1.577","44.9","3.855","19.21","1024.95","13.83","88.6","NAN","0.0"],
    [1543470,"2026-02-25 21:50:00","55226","1.777","51.65","3.855","23.09","1025.089","13.76","87.3","NAN","0.0"],
    [1543471,"2026-02-25 22:00:00","55227","1.699","64.26","4.083","66.69","1025.178","13.72","86.5","NAN","0.0"],
    [1543472,"2026-02-25 22:10:00","55228","1.931","52.05","3.855","50.73","1025.175","13.67","87.3","NAN","0.0"],
    [1543473,"2026-02-25 22:20:00","55229","1.869","43.27","3.528","44.28","1025.212","13.59","87.4","NAN","0.0"],
    [1543474,"2026-02-25 22:30:00","55230","1.893","45.12","3.9530000000000003","57.68","1025.262","13.57","87","NAN","0.0"],
    [1543475,"2026-02-25 22:40:00","55231","1.7519999999999998","45.81","3.92","36.04","1025.213","13.45","87","NAN","0.0"],
    [1543476,"2026-02-25 22:50:00","55232","1.689","56.53","3.495","62.44","1025.327","13.32","87.3","NAN","0.0"],
    [1543477,"2026-02-25 23:00:00","55233","2.09","50.36","3.887","50.43","1025.444","13.19","87.8","NAN","0.0"],
    [1543478,"2026-02-25 23:10:00","55234","1.5219999999999998","52.73","3.6910000000000003","37.55","1025.447","13.07","88.4","NAN","0.0"],
    [1543479,"2026-02-25 23:20:00","55235","1.7530000000000001","48.99","3.92","52.8","1025.444","13.01","89","NAN","0.0"],
    [1543480,"2026-02-25 23:30:00","55236","1.903","59.59","4.965","68.29","1025.45","12.99","88.9","NAN","0.0"],
    [1543481,"2026-02-25 23:40:00","55237","1.296","42.98","2.875","35.05","1025.453","13","88.3","NAN","0.0"],
    [1543482,"2026-02-25 23:50:00","55238","1.521","41.39","2.7110000000000003","43.56","1025.4489999999998","13.02","87.1","NAN","0.0"],
    [1543483,"2026-02-26 00:00:00","55239","1.078","32.63","2.548","60.3","1025.489","12.99","86.9","NAN","0.0"],
    [1543484,"2026-02-26 00:10:00","55240","1.2109999999999999","53.11","2.6460000000000004","34.19","1025.577","12.93","86.8","NAN","0.0"],
    [1543485,"2026-02-26 00:20:00","55241","1.088","34.08","2.515","8.63","1025.5610000000001","12.84","86.9","NAN","0.0"],
    [1543486,"2026-02-26 00:30:00","55242","1.114","0.9109999999999999","2.417","341.9","1025.625","12.77","87","NAN","0.0"],
    [1543487,"2026-02-26 00:40:00","55243","0.6679999999999999","348.8","2.0909999999999997","280.8","1025.7069999999999","12.68","86.8","NAN","0.0"],
    [1543488,"2026-02-26 00:50:00","55244","0.792","0.977","1.8619999999999999","25.97","1025.787","12.6","86.9","NAN","0.0"],
    [1543489,"2026-02-26 01:00:00","55245","0.624","357.2","1.797","355.7","1025.856","12.41","87.4","NAN","0.0"],
    [1543490,"2026-02-26 01:10:00","55246","1.15","359.8","2.7439999999999998","32.71","1025.836","12.22","87.7","NAN","0.0"],
    [1543491,"2026-02-26 01:20:00","55247","1.419","7.004","2.7110000000000003","5.749","1025.8410000000001","11.95","88.1","NAN","0.0"],
    [1543492,"2026-02-26 01:30:00","55248","1.227","11.51","2.9730000000000003","16.12","1025.744","11.79","88.2","NAN","0.0"],
    [1543493,"2026-02-26 01:40:00","55249","1.2770000000000001","12.68","2.613","356.4","1025.729","11.72","87.8","NAN","0.0"],
    [1543494,"2026-02-26 01:50:00","55250","0.9129999999999999","23.06","2.613","13.36","1025.698","11.61","87.9","NAN","0.0"],
    [1543495,"2026-02-26 02:00:00","55251","1.1159999999999999","10.64","2.417","6.292999999999999","1025.713","11.51","88.7","NAN","0.0"],
    [1543496,"2026-02-26 02:10:00","55252","0.8240000000000001","13.77","1.797","15.54","1025.75","11.47","89","NAN","0.0"],
    [1543497,"2026-02-26 02:20:00","55253","1.0290000000000001","10.17","2.417","12.16","1025.767","11.52","88.7","NAN","0.0"],
    [1543498,"2026-02-26 02:30:00","55254","0.938","19.33","2.156","27.51","1025.73","11.52","88.6","NAN","0.0"],
    [1543499,"2026-02-26 02:40:00","55255","0.851","25.48","2.189","11.14","1025.653","11.44","88.9","NAN","0.0"],
    [1543500,"2026-02-26 02:50:00","55256","0.991","20.37","2.189","355.5","1025.597","11.3","89.4","NAN","0.0"],
    [1543501,"2026-02-26 03:00:00","55257","1.0190000000000001","14.12","2.679","30.59","1025.616","11.24","89.6","NAN","0.0"],
    [1543502,"2026-02-26 03:10:00","55258","1.043","8.49","2.385","10.14","1025.596","11.2","89.7","NAN","0.0"],
    [1543503,"2026-02-26 03:20:00","55259","1.078","10.77","1.9269999999999998","22.24","1025.675","11.22","89.7","NAN","0.0"],
    [1543504,"2026-02-26 03:30:00","55260","0.9390000000000001","28.99","1.895","45.7","1025.6480000000001","11.21","89.9","NAN","0.0"],
    [1543505,"2026-02-26 03:40:00","55261","1.038","9.35","2.0909999999999997","30.1","1025.6589999999999","11.17","90.5","NAN","0.0"],
    [1543506,"2026-02-26 03:50:00","55262","0.703","20.93","1.797","355.4","1025.6789999999999","11.1","90.6","NAN","0.0"],
    [1543507,"2026-02-26 04:00:00","55263","0.981","11.05","2.189","3.6689999999999996","1025.817","11.05","91.2","NAN","0.0"],
    [1543508,"2026-02-26 04:10:00","55264","0.856","26.99","1.666","7.2410000000000005","1025.906","11.03","90.9","NAN","0.0"],
    [1543509,"2026-02-26 04:20:00","55265","0.85","29.55","1.7309999999999999","54.43","1025.8139999999999","10.9","91","NAN","0.0"],
    [1543510,"2026-02-26 04:30:00","55266","0.8909999999999999","19.31","2.254","30.43","1025.8410000000001","10.78","90.5","NAN","0.0"],
    [1543511,"2026-02-26 04:40:00","55267","0.8859999999999999","19.46","2.156","34.2","1025.924","10.72","89.4","NAN","0.0"],
    [1543512,"2026-02-26 04:50:00","55268","1.061","8.82","2.156","341.6","1025.974","10.63","89.1","NAN","0.0"],
    [1543513,"2026-02-26 05:00:00","55269","0.96","11.91","1.9269999999999998","15.38","1026.05","10.58","88.6","NAN","0.0"],
    [1543514,"2026-02-26 05:10:00","55270","1.296","10.56","2.385","11.41","1026.163","10.63","87.9","NAN","0.0"],
    [1543515,"2026-02-26 05:20:00","55271","0.951","11.89","2.0580000000000003","354.7","1026.2939999999999","10.65","87.4","NAN","0.0"],
    [1543516,"2026-02-26 05:30:00","55272","0.882","14.06","1.797","5.061","1026.302","10.6","87.3","NAN","0.0"],
    [1543517,"2026-02-26 05:40:00","55273","0.75","12.48","1.47","1.169","1026.312","10.59","87.3","NAN","0.0"],
    [1543518,"2026-02-26 05:50:00","55274","0.968","17.51","1.633","353.4","1026.399","10.47","87.8","NAN","0.0"],
    [1543519,"2026-02-26 06:00:00","55275","0.922","14.79","1.9269999999999998","349.9","1026.454","10.49","87.7","NAN","0.0"],
    [1543520,"2026-02-26 06:10:00","55276","1.1340000000000001","10.65","2.0909999999999997","33.65","1026.5710000000001","10.44","87.8","NAN","0.0"],
    [1543521,"2026-02-26 06:20:00","55277","1.202","8.96","2.319","20.63","1026.788","10.4","87.9","NAN","0.0"],
    [1543522,"2026-02-26 06:30:00","55278","1.1079999999999999","7.202000000000001","1.9269999999999998","358.4","1026.8","10.39","87.9","NAN","0.0"],
    [1543523,"2026-02-26 06:40:00","55279","0.917","14.47","1.993","351.8","1026.875","10.21","88.6","NAN","0.0"],
    [1543524,"2026-02-26 06:50:00","55280","1.271","12.01","2.907","30.62","1027.039","10.21","89","NAN","0.0"],
    [1543525,"2026-02-26 07:00:00","55281","1.564","8.31","3.136","23.47","1027.134","10.27","88.7","NAN","0.0"],
    [1543526,"2026-02-26 07:10:00","55282","1.149","12.7","2.385","10.65","1027.3039999999999","10.29","88.4","NAN","0.0"],
    [1543527,"2026-02-26 07:20:00","55283","0.996","19.11","2.189","35.68","1027.461","10.44","87.4","NAN","0.0"],
    [1543528,"2026-02-26 07:30:00","55284","1.047","18.52","2.287","8.79","1027.575","10.61","85.9","NAN","0.0"],
    [1543529,"2026-02-26 07:40:00","55285","1.216","7.812","2.7769999999999997","352.1","1027.7060000000001","10.91","83.1","NAN","0.0"],
    [1543530,"2026-02-26 07:50:00","55286","1.6669999999999998","8.74","3.332","13.68","1027.851","11.28","80","NAN","0.0"],
    [1543531,"2026-02-26 08:00:00","55287","1.4169999999999998","10.21","2.7110000000000003","355.9","1027.974","11.25","78.82","NAN","0.0"],
    [1543532,"2026-02-26 08:10:00","55288","1.235","18.09","3.103","2.515","1028.079","11.43","77.02","NAN","0.0"],
    [1543533,"2026-02-26 08:20:00","55289","1.595","8.16","3.103","21.17","1028.223","11.71","75.92","NAN","0.0"],
    [1543534,"2026-02-26 08:30:00","55290","1.058","16.08","2.417","19.26","1028.221","12.13","75.31","NAN","0.0"],
    [1543535,"2026-02-26 08:40:00","55291","0.9","26.55","2.189","56.38","1028.253","12.88","73.47","NAN","0.0"],
    [1543536,"2026-02-26 08:50:00","55292","0.6859999999999999","13.0","1.4369999999999998","31.26","1028.292","12.97","74.55","NAN","0.0"],
    [1543537,"2026-02-26 09:00:00","55293","1.188","3.185","2.385","24.35","1028.394","13.39","74.6","NAN","0.0"],
    [1543538,"2026-02-26 09:10:00","55294","1.145","7.5920000000000005","2.221","14.64","1028.4669999999999","13.34","75.93","NAN","0.0"],
    [1543539,"2026-02-26 09:20:00","55295","1.065","355.9","1.829","338.8","1028.509","13.49","76.12","NAN","0.0"],
    [1543540,"2026-02-26 09:30:00","55296","0.943","14.77","2.156","350.0","1028.626","14.04","74.36","NAN","0.0"],
    [1543541,"2026-02-26 09:40:00","55297","1.33","60.28","2.8089999999999997","82.2","1028.651","14.63","72.32","NAN","0.0"],
    [1543542,"2026-02-26 09:50:00","55298","1.238","42.8","2.7439999999999998","76.55","1028.751","14.68","72.29","NAN","0.0"],
    [1543543,"2026-02-26 10:00:00","55299","1.69","94.8","3.593","111.7","1028.8310000000001","14.98","72.7","NAN","0.0"],
    [1543544,"2026-02-26 10:10:00","55300","1.829","98.6","2.9730000000000003","109.5","1028.897","15.21","71.74","NAN","0.0"],
    [1543545,"2026-02-26 10:20:00","55301","1.992","86.5","3.528","83.4","1028.903","14.95","72.98","NAN","0.0"],
    [1543546,"2026-02-26 10:30:00","55302","1.673","74.27","3.495","70.54","1028.92","14.94","73.39","NAN","0.0"],
    [1543547,"2026-02-26 10:40:00","55303","1.858","69.34","3.495","96.9","1028.897","14.9","73.01","NAN","0.0"],
    [1543548,"2026-02-26 10:50:00","55304","1.725","79.44","3.7889999999999997","85.8","1028.897","14.93","72.97","NAN","0.0"],
    [1543549,"2026-02-26 11:00:00","55305","1.821","75.82","3.103","63.53","1028.828","14.83","73.37","NAN","0.0"],
    [1543550,"2026-02-26 11:10:00","55306","1.703","80.2","3.593","63.38","1028.691","14.98","73.28","NAN","0.0"],
    [1543551,"2026-02-26 11:20:00","55307","2.178","72.2","3.7569999999999997","61.54","1028.6580000000001","15.13","72.68","NAN","0.0"],
    [1543552,"2026-02-26 11:30:00","55308","1.604","94.7","3.332","77.14","1028.643","15.07","73.38","NAN","0.0"],
    [1543553,"2026-02-26 11:40:00","55309","2.102","102.4","4.345","102.8","1028.5610000000001","14.77","75.11","NAN","0.0"],
    [1543554,"2026-02-26 11:50:00","55310","2.191","106.9","4.149","116.1","1028.422","14.66","75.73","NAN","0.0"],
    [1543555,"2026-02-26 12:00:00","55311","2.3409999999999997","105.3","4.247","121.4","1028.364","14.63","76.12","NAN","0.0"],
    [1543556,"2026-02-26 12:10:00","55312","1.851","104.9","3.332","141.2","1028.285","14.75","75.87","NAN","0.0"],
    [1543557,"2026-02-26 12:20:00","55313","2.156","106.7","3.855","100.9","1028.202","14.61","76.23","NAN","0.0"],
    [1543558,"2026-02-26 12:30:00","55314","1.77","104.9","3.43","106.6","1028.093","14.85","75.62","NAN","0.0"],
    [1543559,"2026-02-26 12:40:00","55315","2.1919999999999997","130.6","3.887","113.7","1027.961","14.76","75.48","NAN","0.0"],
    [1543560,"2026-02-26 12:50:00","55316","1.87","120.8","3.234","139.5","1027.9360000000001","14.59","76.86","NAN","0.0"],
    [1543561,"2026-02-26 13:00:00","55317","1.942","133.4","3.234","138.6","1027.851","14.74","76.02","NAN","0.0"],
    [1543562,"2026-02-26 13:10:00","55318","1.6119999999999999","126.4","3.136","150.9","1027.6889999999999","14.92","75.66","NAN","0.0"],
    [1543563,"2026-02-26 13:20:00","55319","1.76","130.3","3.397","111.4","1027.652","14.62","76.84","NAN","0.0"],
    [1543564,"2026-02-26 13:30:00","55320","1.6680000000000001","127.0","3.136","134.0","1027.635","14.8","76.24","NAN","0.0"],
    [1543565,"2026-02-26 13:40:00","55321","1.7990000000000002","139.8","3.397","111.7","1027.575","14.59","77.35","NAN","0.0"],
    [1543566,"2026-02-26 13:50:00","55322","1.714","128.2","2.613","129.0","1027.448","14.54","77.63","NAN","0.0"],
    [1543567,"2026-02-26 14:00:00","55323","1.517","127.0","2.875","136.8","1027.406","14.76","77.08","NAN","0.0"],
    [1543568,"2026-02-26 14:10:00","55324","1.68","122.1","3.136","110.4","1027.3110000000001","14.55","78.1","NAN","0.0"],
    [1543569,"2026-02-26 14:20:00","55325","1.6230000000000002","131.3","2.7769999999999997","114.2","1027.281","14.58","78.23","NAN","0.0"],
    [1543570,"2026-02-26 14:30:00","55326","1.528","136.6","3.43","110.7","1027.281","14.9","76.62","NAN","0.0"],
    [1543571,"2026-02-26 14:40:00","55327","1.869","120.4","2.7769999999999997","121.3","1027.281","14.34","79.18","NAN","0.0"],
    [1543572,"2026-02-26 14:50:00","55328","1.726","120.5","2.842","108.7","1027.3310000000001","14.42","79.59","NAN","0.0"],
    [1543573,"2026-02-26 15:00:00","55329","1.901","139.5","3.201","148.4","1027.281","14.29","79.83","NAN","0.0"],
    [1543574,"2026-02-26 15:10:00","55330","1.5759999999999998","139.3","2.7439999999999998","157.3","1027.214","14.41","79.81","NAN","0.0"],
    [1543575,"2026-02-26 15:20:00","55331","1.6219999999999999","140.1","2.9730000000000003","158.2","1027.154","14.23","80.8","NAN","0.0"],
    [1543576,"2026-02-26 15:30:00","55332","1.673","147.5","2.842","119.4","1027.104","14.32","80.6","NAN","0.0"],
    [1543577,"2026-02-26 15:40:00","55333","1.472","180.1","2.7110000000000003","196.4","1027.049","14.47","79.94","NAN","0.0"],
    [1543578,"2026-02-26 15:50:00","55334","1.464","196.1","2.5810000000000004","169.0","1026.935","14.5","79.19","NAN","0.0"],
    [1543579,"2026-02-26 16:00:00","55335","1.525","193.5","2.9730000000000003","181.0","1026.905","14.66","77.91","NAN","0.0"],
    [1543580,"2026-02-26 16:10:00","55336","1.328","176.0","2.7439999999999998","184.0","1026.902","14.23","80.6","NAN","0.0"],
    [1543581,"2026-02-26 16:20:00","55337","1.383","182.4","2.385","177.5","1026.865","13.97","82","NAN","0.0"],
    [1543582,"2026-02-26 16:30:00","55338","1.527","182.2","2.515","163.8","1026.7930000000001","13.87","82.8","NAN","0.0"],
    [1543583,"2026-02-26 16:40:00","55339","1.162","176.2","1.96","192.6","1026.776","13.97","82.5","NAN","0.0"],
    [1543584,"2026-02-26 16:50:00","55340","1.275","131.4","2.385","142.3","1026.7730000000001","13.87","82.7","NAN","0.0"],
    [1543585,"2026-02-26 17:00:00","55341","1.564","138.0","2.7110000000000003","112.1","1026.8","13.74","83.4","NAN","0.0"],
    [1543586,"2026-02-26 17:10:00","55342","1.115","122.3","2.287","131.0","1026.7930000000001","13.65","84.3","NAN","0.0"],
    [1543587,"2026-02-26 17:20:00","55343","1.003","137.0","1.7309999999999999","163.7","1026.7939999999999","13.66","84.1","NAN","0.0"],
    [1543588,"2026-02-26 17:30:00","55344","0.835","115.1","1.666","106.2","1026.85","13.55","84.7","NAN","0.0"],
    [1543589,"2026-02-26 17:40:00","55345","0.802","124.8","1.568","116.6","1026.93","13.54","85.3","NAN","0.0"],
    [1543590,"2026-02-26 17:50:00","55346","0.9329999999999999","127.2","1.797","107.5","1026.906","13.43","86.1","NAN","0.0"],
    [1543591,"2026-02-26 18:00:00","55347","0.997","142.8","1.7309999999999999","158.7","1026.962","13.37","86.4","NAN","0.0"],
    [1543592,"2026-02-26 18:10:00","55348","0.763","163.0","1.47","168.8","1026.9769999999999","13.35","86.7","NAN","0.0"],
    [1543593,"2026-02-26 18:20:00","55349","0.532","156.4","1.176","143.5","1027.072","13.27","87.6","NAN","0.0"],
    [1543594,"2026-02-26 18:30:00","55350","0.504","139.3","1.274","142.9","1027.027","13.24","87.9","NAN","0.0"],
    [1543595,"2026-02-26 18:40:00","55351","0.43700000000000006","141.7","1.078","124.6","1026.995","13.23","87.9","NAN","0.0"],
    [1543596,"2026-02-26 18:50:00","55352","0.485","137.6","1.045","110.3","1026.99","13.18","88.3","NAN","0.0"],
    [1543597,"2026-02-26 19:00:00","55353","0.654","140.7","1.274","137.7","1026.985","13.16","88.6","NAN","0.0"],
    [1543598,"2026-02-26 19:10:00","55354","0.564","142.2","1.078","125.8","1027.087","13.14","88.8","NAN","0.0"],
    [1543599,"2026-02-26 19:20:00","55355","0.436","131.3","0.882","149.4","1027.122","13.16","88.8","NAN","0.0"],
    [1543600,"2026-02-26 19:30:00","55356","0.546","158.4","1.013","138.8","1027.124","13.08","89.2","NAN","0.0"],
    [1543601,"2026-02-26 19:40:00","55357","0.743","164.7","1.339","166.4","1027.107","13","89.5","NAN","0.0"],
    [1543602,"2026-02-26 19:50:00","55358","0.597","170.9","1.013","171.7","1027.184","12.96","90","NAN","0.0"],
    [1543603,"2026-02-26 20:00:00","55359","0.373","162.9","1.078","167.6","1027.226","12.87","90.4","NAN","0.0"],
    [1543604,"2026-02-26 20:10:00","55360","0.289","152.9","0.9470000000000001","161.3","1027.249","12.82","90.8","NAN","0.0"],
    [1543605,"2026-02-26 20:20:00","55361","0.385","167.5","1.013","176.1","1027.351","12.79","91.4","NAN","0.0"],
    [1543606,"2026-02-26 20:30:00","55362","0.413","188.9","1.176","177.9","1027.396","12.85","91.9","NAN","0.0"],
    [1543607,"2026-02-26 20:40:00","55363","0.775","195.0","1.405","204.2","1027.38","12.99","91.6","NAN","0.0"],
    [1543608,"2026-02-26 20:50:00","55364","0.902","204.9","1.96","210.6","1027.451","13.09","90.5","NAN","0.0"],
    [1543609,"2026-02-26 21:00:00","55365","0.747","220.2","1.699","221.1","1027.483","13.18","89.1","NAN","0.0"],
    [1543610,"2026-02-26 21:10:00","55366","0.924","238.1","1.9269999999999998","232.4","1027.505","13.15","88.3","NAN","0.0"],
    [1543611,"2026-02-26 21:20:00","55367","0.877","207.8","1.764","236.0","1027.475","13.06","88.4","NAN","0.0"],
    [1543612,"2026-02-26 21:30:00","55368","0.696","234.5","1.633","264.5","1027.465","13","88.6","NAN","0.0"],
    [1543613,"2026-02-26 21:40:00","55369","0.887","222.8","1.8619999999999999","255.7","1027.44","12.93","88.3","NAN","0.0"],
    [1543614,"2026-02-26 21:50:00","55370","0.997","212.8","1.764","228.7","1027.478","12.7","88.9","NAN","0.0"],
    [1543615,"2026-02-26 22:00:00","55371","0.883","216.1","1.9269999999999998","233.6","1027.473","12.6","89.3","NAN","0.0"],
    [1543616,"2026-02-26 22:10:00","55372","0.713","200.8","1.5030000000000001","194.3","1027.373","12.46","90","NAN","0.0"],
    [1543617,"2026-02-26 22:20:00","55373","0.9690000000000001","211.7","1.895","204.5","1027.309","12.34","91","NAN","0.0"],
    [1543618,"2026-02-26 22:30:00","55374","0.792","217.0","1.47","215.2","1027.26","12.26","90.9","NAN","0.0"],
    [1543619,"2026-02-26 22:40:00","55375","0.61","223.4","1.601","185.0","1027.292","12.27","90.8","NAN","0.0"],
    [1543620,"2026-02-26 22:50:00","55376","1.172","212.2","2.025","221.1","1027.229","12.28","90.5","NAN","0.0"],
    [1543621,"2026-02-26 23:00:00","55377","0.708","234.9","2.123","260.5","1027.233","12.25","90.4","NAN","0.0"],
    [1543622,"2026-02-26 23:10:00","55378","1.381","237.0","2.9730000000000003","238.9","1027.238","12.25","90","NAN","0.0"],
    [1543623,"2026-02-26 23:20:00","55379","1.062","235.2","2.8089999999999997","238.7","1027.228","12.12","89.9","NAN","0.0"],
    [1543624,"2026-02-26 23:30:00","55380","1.048","203.8","2.45","209.5","1027.124","11.94","90.6","NAN","0.0"],
    [1543625,"2026-02-26 23:40:00","55381","0.9059999999999999","232.2","2.123","229.2","1027.028","11.88","91.2","NAN","0.0"],
    [1543626,"2026-02-26 23:50:00","55382","0.821","231.0","1.9269999999999998","247.5","1026.976","11.78","90.5","NAN","0.0"],
    [1543627,"2026-02-27 00:00:00","55383","0.691","219.9","1.633","197.2","1026.829","11.67","91.1","NAN","0.0"],
    [1543628,"2026-02-27 00:10:00","55384","0.8640000000000001","220.1","2.483","238.6","1026.8410000000001","11.64","91.3","NAN","0.0"],
    [1543629,"2026-02-27 00:20:00","55385","0.885","213.3","2.123","207.5","1026.757","11.52","91.5","NAN","0.0"],
    [1543630,"2026-02-27 00:30:00","55386","0.755","221.1","2.613","233.0","1026.724","11.52","91.6","NAN","0.0"],
    [1543631,"2026-02-27 00:40:00","55387","0.526","211.2","1.3719999999999999","205.0","1026.619","11.39","92","NAN","0.0"],
    [1543632,"2026-02-27 00:50:00","55388","0.768","209.6","1.666","216.6","1026.478","11.3","92.7","NAN","0.0"],
    [1543633,"2026-02-27 01:00:00","55389","0.865","219.5","1.601","233.3","1026.415","11.15","93","NAN","0.0"],
    [1543634,"2026-02-27 01:10:00","55390","0.9890000000000001","280.3","1.993","323.2","1026.396","11.28","92.6","NAN","0.0"],
    [1543635,"2026-02-27 01:20:00","55391","1.263","281.9","2.483","297.2","1026.354","11.25","91.7","NAN","0.0"],
    [1543636,"2026-02-27 01:30:00","55392","1.035","260.8","2.385","232.9","1026.297","11.11","92.1","NAN","0.0"],
    [1543637,"2026-02-27 01:40:00","55393","1.51","253.8","3.201","234.7","1026.29","11.01","92.5","NAN","0.0"],
    [1543638,"2026-02-27 01:50:00","55394","0.665","228.6","1.8619999999999999","307.5","1026.128","10.88","93.8","NAN","0.0"],
    [1543639,"2026-02-27 02:00:00","55395","1.202","238.2","2.221","237.4","1025.984","10.93","94.4","NAN","0.0"],
    [1543640,"2026-02-27 02:10:00","55396","1.1540000000000001","231.1","2.483","201.8","1025.9180000000001","10.95","94.4","NAN","0.0"],
    [1543641,"2026-02-27 02:20:00","55397","1.2429999999999999","245.7","2.5810000000000004","237.8","1025.851","10.95","94.7","NAN","0.0"],
    [1543642,"2026-02-27 02:30:00","55398","1.548","252.3","3.6260000000000003","228.3","1025.776","10.79","94.8","NAN","0.0"],
    [1543643,"2026-02-27 02:40:00","55399","1.146","217.4","2.5810000000000004","239.3","1025.63","10.51","95.6","NAN","0.0"],
    [1543644,"2026-02-27 02:50:00","55400","1.851","241.8","3.43","244.3","1025.539","10.29","96.4","NAN","0.0"],
    [1543645,"2026-02-27 03:00:00","55401","1.3219999999999998","236.4","3.267","238.5","1025.527","10.12","97","NAN","0.0"],
    [1543646,"2026-02-27 03:10:00","55402","1.3030000000000002","251.9","3.201","257.7","1025.528","10.03","96.8","NAN","0.0"],
    [1543647,"2026-02-27 03:20:00","55403","0.997","242.9","2.842","222.5","1025.478","9.97","96.3","NAN","0.0"],
    [1543648,"2026-02-27 03:30:00","55404","1.7819999999999998","231.0","3.365","230.3","1025.3410000000001","9.94","96.2","NAN","0.0"],
    [1543649,"2026-02-27 03:40:00","55405","2.0269999999999997","233.6","3.7239999999999998","243.3","1025.299","9.86","97.2","NAN","0.0"],
    [1543650,"2026-02-27 03:50:00","55406","1.4509999999999998","233.2","3.1689999999999996","228.4","1025.3039999999999","9.8","97.8","NAN","0.0"],
    [1543651,"2026-02-27 04:00:00","55407","1.177","227.4","2.907","224.8","1025.253","9.75","97.9","NAN","0.0"],
    [1543652,"2026-02-27 04:10:00","55408","0.94","225.6","2.385","236.4","1025.145","9.69","98.1","NAN","0.0"],
    [1543653,"2026-02-27 04:20:00","55409","1.32","247.5","2.613","241.5","1025.165","9.65","98","NAN","0.0"],
    [1543654,"2026-02-27 04:30:00","55410","1.3090000000000002","250.4","2.385","246.0","1025.096","9.6","97.7","NAN","0.0"],
    [1543655,"2026-02-27 04:40:00","55411","1.359","232.4","2.483","261.1","1025.056","9.56","97","NAN","0.0"],
    [1543656,"2026-02-27 04:50:00","55412","0.9490000000000001","232.2","2.123","223.8","1025.056","9.54","96.1","NAN","0.0"],
    [1543657,"2026-02-27 05:00:00","55413","1.17","238.2","2.385","246.5","1025.031","9.61","95.2","NAN","0.0"],
    [1543658,"2026-02-27 05:10:00","55414","0.302","211.2","1.078","200.2","1024.9289999999999","9.55","94.4","NAN","0.0"],
    [1543659,"2026-02-27 05:20:00","55415","0.6759999999999999","199.2","1.47","201.9","1024.904","9.4","95","NAN","0.0"],
    [1543660,"2026-02-27 05:30:00","55416","0.809","208.3","1.633","221.2","1025.039","9.3","95.4","NAN","0.0"],
    [1543661,"2026-02-27 05:40:00","55417","0.569","202.8","1.274","206.6","1025.049","9.25","95.5","NAN","0.0"],
    [1543662,"2026-02-27 05:50:00","55418","0.7140000000000001","204.3","1.568","202.8","1024.9560000000001","9.07","95.6","NAN","0.0"],
    [1543663,"2026-02-27 06:00:00","55419","0.903","203.8","1.9269999999999998","207.9","1025.028","8.83","95.6","NAN","0.0"],
    [1543664,"2026-02-27 06:10:00","55420","0.132","220.8","1.045","193.8","1025.009","8.54","95.5","NAN","0.0"],
    [1543665,"2026-02-27 06:20:00","55421","0.423","210.2","0.882","209.7","1025.031","8.5","96.1","NAN","0.0"],
    [1543666,"2026-02-27 06:30:00","55422","0.738","205.7","2.189","234.5","1025.056","8.55","96.2","NAN","0.0"],
    [1543667,"2026-02-27 06:40:00","55423","1.047","230.3","2.319","240.2","1025.056","8.74","94.5","NAN","0.0"],
    [1543668,"2026-02-27 06:50:00","55424","0.747","232.7","2.0909999999999997","237.4","1025.056","8.73","92.1","NAN","0.0"],
    [1543669,"2026-02-27 07:00:00","55425","0.8370000000000001","238.8","2.7769999999999997","237.9","1025.173","8.77","90.8","NAN","0.0"],
    [1543670,"2026-02-27 07:10:00","55426","1.906","241.4","3.7239999999999998","237.4","1025.305","8.66","88.7","NAN","0.0"],
    [1543671,"2026-02-27 07:20:00","55427","1.425","245.5","3.136","238.6","1025.305","8.89","87.4","NAN","0.0"],
    [1543672,"2026-02-27 07:30:00","55428","1.225","239.1","2.7769999999999997","236.5","1025.315","9.02","86.6","NAN","0.0"],
    [1543673,"2026-02-27 07:40:00","55429","1.574","236.8","2.907","227.0","1025.393","9.17","86","NAN","0.0"],
    [1543674,"2026-02-27 07:50:00","55430","1.347","229.0","3.299","237.6","1025.515","9.54","85.4","NAN","0.0"],
    [1543675,"2026-02-27 08:00:00","55431","1.584","238.4","3.201","247.1","1025.562","9.7","83.3","NAN","0.0"],
    [1543676,"2026-02-27 08:10:00","55432","1.367","254.1","2.417","242.0","1025.61","9.88","85.5","NAN","0.0"],
    [1543677,"2026-02-27 08:20:00","55433","0.8809999999999999","272.2","2.679","262.7","1025.5610000000001","10.02","88.6","NAN","0.0"],
    [1543678,"2026-02-27 08:30:00","55434","1.484","251.5","3.397","233.9","1025.5","10.07","90.7","NAN","0.0"],
    [1543679,"2026-02-27 08:40:00","55435","1.107","263.5","3.463","247.4","1025.49","10.06","92.3","NAN","0.0"],
    [1543680,"2026-02-27 08:50:00","55436","1.2329999999999999","263.6","3.234","285.2","1025.498","10.24","92.4","NAN","0.0"],
    [1543681,"2026-02-27 09:00:00","55437","0.8190000000000001","208.0","1.829","231.0","1025.515","10.48","91.6","NAN","0.0"],
    [1543682,"2026-02-27 09:10:00","55438","1.021","237.0","2.0580000000000003","236.5","1025.607","10.69","88.6","NAN","0.0"],
    [1543683,"2026-02-27 09:20:00","55439","0.7929999999999999","250.3","2.156","232.4","1025.607","10.85","86.7","NAN","0.0"],
    [1543684,"2026-02-27 09:30:00","55440","0.934","226.9","1.9269999999999998","201.8","1025.607","11.22","85.1","NAN","0.0"],
    [1543685,"2026-02-27 09:40:00","55441","0.5379999999999999","222.6","1.699","201.7","1025.5810000000001","11.43","83.5","NAN","0.0"],
    [1543686,"2026-02-27 09:50:00","55442","0.9159999999999999","163.8","1.535","161.3","1025.548","11.83","81.6","NAN","0.0"],
    [1543687,"2026-02-27 10:00:00","55443","1.005","189.1","1.96","192.6","1025.539","12.04","80.7","NAN","0.0"],
    [1543688,"2026-02-27 10:10:00","55444","1.653","153.2","2.515","164.6","1025.53","11.96","81.2","NAN","0.0"],
    [1543689,"2026-02-27 10:20:00","55445","1.416","153.7","2.221","149.7","1025.538","12.14","80.7","NAN","0.0"],
    [1543690,"2026-02-27 10:30:00","55446","1.5119999999999998","159.5","2.483","176.0","1025.535","12.46","79.3","NAN","0.0"],
    [1543691,"2026-02-27 10:40:00","55447","1.669","168.2","2.6460000000000004","184.8","1025.535","12.54","79.19","NAN","0.0"],
    [1543692,"2026-02-27 10:50:00","55448","1.631","168.7","2.6460000000000004","152.0","1025.535","12.81","77.67","NAN","0.0"],
    [1543693,"2026-02-27 11:00:00","55449","2.2569999999999997","173.7","4.1160000000000005","162.1","1025.53","12.79","78.75","NAN","0.0"],
    [1543694,"2026-02-27 11:10:00","55450","2.24","184.5","3.397","194.1","1025.41","12.65","81.1","NAN","0.0"],
    [1543695,"2026-02-27 11:20:00","55451","2.092","179.4","3.855","161.2","1025.336","12.97","78.62","NAN","0.0"],
    [1543696,"2026-02-27 11:30:00","55452","2.3040000000000003","185.6","3.6260000000000003","189.2","1025.2730000000001","12.57","80.4","NAN","0.0"],
    [1543697,"2026-02-27 11:40:00","55453","2.536","180.4","4.051","180.0","1025.164","12.56","81.1","NAN","0.0"],
    [1543698,"2026-02-27 11:50:00","55454","2.448","178.2","3.9530000000000003","178.9","1025.0839999999998","12.76","80.4","NAN","0.0"],
    [1543699,"2026-02-27 12:00:00","55455","3.147","174.8","4.4430000000000005","183.2","1024.935","12.65","80.9","NAN","0.0"],
    [1543700,"2026-02-27 12:10:00","55456","3.384","179.1","4.573","178.6","1024.853","12.48","81","NAN","0.0"],
    [1543701,"2026-02-27 12:20:00","55457","3.105","175.7","5.194","181.4","1024.735","12.63","81.1","NAN","0.0"],
    [1543702,"2026-02-27 12:30:00","55458","3.273","177.7","4.606","176.1","1024.663","12.39","82.8","NAN","0.0"],
    [1543703,"2026-02-27 12:40:00","55459","3.12","179.9","4.638999999999999","166.8","1024.633","12.53","82.5","NAN","0.0"],
    [1543704,"2026-02-27 12:50:00","55460","3.0039999999999996","176.5","4.573","178.4","1024.491","12.66","81.6","NAN","0.0"],
    [1543705,"2026-02-27 13:00:00","55461","2.88","172.7","4.867","176.8","1024.3239999999998","12.87","81.6","NAN","0.0"],
    [1543706,"2026-02-27 13:10:00","55462","3.096","175.2","4.573","181.2","1024.182","13.02","80.1","NAN","0.0"],
    [1543707,"2026-02-27 13:20:00","55463","2.748","173.8","4.704","188.8","1024.085","12.82","82","NAN","0.0"],
    [1543708,"2026-02-27 13:30:00","55464","2.593","173.2","4.181","180.3","1023.9060000000001","12.94","81.6","NAN","0.0"],
    [1543709,"2026-02-27 13:40:00","55465","2.8360000000000003","172.7","4.737","172.7","1023.806","13.06","81.4","NAN","0.0"],
    [1543710,"2026-02-27 13:50:00","55466","2.719","177.0","4.769","180.0","1023.689","13.14","81.2","NAN","0.0"],
    [1543711,"2026-02-27 14:00:00","55467","2.4619999999999997","169.1","4.181","160.6","1023.577","13.32","80.7","NAN","0.0"],
    [1543712,"2026-02-27 14:10:00","55468","2.609","177.9","4.475","179.8","1023.48","13.45","79.65","NAN","0.0"],
    [1543713,"2026-02-27 14:20:00","55469","2.778","175.6","4.1160000000000005","184.9","1023.415","13.44","79.8","NAN","0.0"],
    [1543714,"2026-02-27 14:30:00","55470","2.459","179.6","4.051","179.8","1023.3510000000001","13.54","79.91","NAN","0.0"],
    [1543715,"2026-02-27 14:40:00","55471","2.662","175.5","5.063","183.0","1023.313","13.44","80.1","NAN","0.0"],
    [1543716,"2026-02-27 14:50:00","55472","2.6689999999999996","177.1","4.083","177.3","1023.2239999999999","13.45","80.6","NAN","0.0"],
    [1543717,"2026-02-27 15:00:00","55473","2.725","177.0","4.279","181.2","1023.1619999999999","13.28","81.2","NAN","0.0"],
    [1543718,"2026-02-27 15:10:00","55474","2.891","179.0","4.312","178.9","1023.079","13.22","81","NAN","0.0"],
    [1543719,"2026-02-27 15:20:00","55475","2.647","174.5","4.2139999999999995","174.7","1022.952","13.28","81.2","NAN","0.0"],
    [1543720,"2026-02-27 15:30:00","55476","2.908","175.5","4.247","177.2","1022.915","13.14","81.6","NAN","0.0"],
    [1543721,"2026-02-27 15:40:00","55477","3.16","177.8","4.671","173.2","1022.82","12.91","83.2","NAN","0.0"],
    [1543722,"2026-02-27 15:50:00","55478","3.034","178.8","4.541","165.6","1022.763","12.9","84.1","NAN","0.0"],
    [1543723,"2026-02-27 16:00:00","55479","2.6289999999999996","179.7","4.312","175.4","1022.78","13","83.4","NAN","0.0"],
    [1543724,"2026-02-27 16:10:00","55480","1.5590000000000002","196.2","3.6260000000000003","176.0","1022.671","13.17","82.6","NAN","0.0"],
    [1543725,"2026-02-27 16:20:00","55481","1.6059999999999999","205.9","3.365","189.8","1022.6510000000001","13.27","80.4","NAN","0.0"],
    [1543726,"2026-02-27 16:30:00","55482","1.5959999999999999","196.5","2.7439999999999998","210.2","1022.623","13.25","79.96","NAN","0.0"],
    [1543727,"2026-02-27 16:40:00","55483","1.567","200.4","2.907","197.6","1022.4989999999999","13.13","81.1","NAN","0.0"],
    [1543728,"2026-02-27 16:50:00","55484","1.604","196.5","3.397","201.1","1022.4889999999999","13.12","80.8","NAN","0.0"],
    [1543729,"2026-02-27 17:00:00","55485","1.5030000000000001","197.5","3.005","183.0","1022.507","13.13","81.1","NAN","0.0"],
    [1543730,"2026-02-27 17:10:00","55486","1.325","195.6","2.483","198.8","1022.4169999999999","13.13","81.2","NAN","0.0"],
    [1543731,"2026-02-27 17:20:00","55487","1.375","199.2","2.417","182.6","1022.467","13.07","81.2","NAN","0.0"],
    [1543732,"2026-02-27 17:30:00","55488","1.425","204.7","2.9730000000000003","190.7","1022.5830000000001","13.1","81.1","NAN","0.0"],
    [1543733,"2026-02-27 17:40:00","55489","1.3559999999999999","200.4","2.352","189.6","1022.648","12.89","82.9","NAN","0.0"],
    [1543734,"2026-02-27 17:50:00","55490","1.175","216.1","3.332","208.0","1022.7239999999999","12.9","83.2","NAN","0.0"],
    [1543735,"2026-02-27 18:00:00","55491","1.926","219.7","3.7239999999999998","227.6","1022.8689999999999","12.75","83.2","NAN","0.0"],
    [1543736,"2026-02-27 18:10:00","55492","1.489","211.1","3.136","190.7","1022.9689999999999","12.67","83.5","NAN","0.0"],
    [1543737,"2026-02-27 18:20:00","55493","1.3530000000000002","202.4","2.94","206.6","1022.982","12.55","84.4","NAN","0.0"],
    [1543738,"2026-02-27 18:30:00","55494","1.5419999999999998","208.1","3.5610000000000004","183.2","1023.051","12.52","83.9","NAN","0.0"],
    [1543739,"2026-02-27 18:40:00","55495","1.493","236.0","2.7439999999999998","277.7","1023.048","12.44","83.6","NAN","0.0"],
    [1543740,"2026-02-27 18:50:00","55496","1.444","229.4","3.299","240.5","1023.113","12.41","83.3","NAN","0.0"],
    [1543741,"2026-02-27 19:00:00","55497","1.315","219.3","3.299","203.1","1023.188","12.34","83.9","NAN","0.0"],
    [1543742,"2026-02-27 19:10:00","55498","1.234","206.5","2.417","202.6","1023.076","12.22","84.3","NAN","0.0"],
    [1543743,"2026-02-27 19:20:00","55499","1.3719999999999999","228.9","2.515","224.3","1022.9960000000001","12.26","84.6","NAN","0.0"],
    [1543744,"2026-02-27 19:30:00","55500","1.422","222.3","3.0380000000000003","228.4","1023.1189999999999","12.28","83.8","NAN","0.0"],
    [1543745,"2026-02-27 19:40:00","55501","1.475","199.6","3.0380000000000003","195.5","1023.1160000000001","12.28","84.4","NAN","0.0"],
    [1543746,"2026-02-27 19:50:00","55502","1.4580000000000002","212.2","3.332","198.5","1023.193","12.12","84.7","NAN","0.0"],
    [1543747,"2026-02-27 20:00:00","55503","0.9670000000000001","202.4","2.352","216.0","1023.1610000000001","12.23","84.3","NAN","0.0"],
    [1543748,"2026-02-27 20:10:00","55504","1.365","224.9","2.6460000000000004","239.0","1023.158","12.25","83.6","NAN","0.0"],
    [1543749,"2026-02-27 20:20:00","55505","1.119","235.8","3.234","244.0","1023.163","12.15","83.3","NAN","0.0"],
    [1543750,"2026-02-27 20:30:00","55506","1.3840000000000001","204.2","2.352","199.6","1023.2339999999999","12.05","83.6","NAN","0.0"],
    [1543751,"2026-02-27 20:40:00","55507","0.7140000000000001","224.4","1.797","270.1","1023.24","12.01","83.2","NAN","0.0"],
    [1543752,"2026-02-27 20:50:00","55508","0.7609999999999999","254.0","2.45","259.5","1023.258","12.1","82.9","NAN","0.0"],
    [1543753,"2026-02-27 21:00:00","55509","1.088","224.2","2.319","243.2","1023.34","12.11","82.3","NAN","0.0"],
    [1543754,"2026-02-27 21:10:00","55510","0.752","209.0","1.47","226.1","1023.273","12.03","82.3","NAN","0.0"],
    [1543755,"2026-02-27 21:20:00","55511","0.7290000000000001","191.7","1.3719999999999999","198.2","1023.3480000000001","11.87","83.1","NAN","0.0"],
    [1543756,"2026-02-27 21:30:00","55512","0.48","214.6","1.47","194.5","1023.437","11.89","84","NAN","0.0"],
    [1543757,"2026-02-27 21:40:00","55513","0.82","225.6","2.0580000000000003","240.2","1023.425","12.04","82.7","NAN","0.0"],
    [1543758,"2026-02-27 21:50:00","55514","0.843","229.4","1.96","238.3","1023.362","12.12","82","NAN","0.0"],
    [1543759,"2026-02-27 22:00:00","55515","0.72","214.5","1.699","217.1","1023.3380000000001","12.11","81.4","NAN","0.0"],
    [1543760,"2026-02-27 22:10:00","55516","0.6759999999999999","217.0","1.3719999999999999","210.6","1023.47","12.04","81.6","NAN","0.0"],
    [1543761,"2026-02-27 22:20:00","55517","0.833","213.0","1.8619999999999999","215.0","1023.562","12.11","81.1","NAN","0.0"],
    [1543762,"2026-02-27 22:30:00","55518","0.41700000000000004","178.5","0.98","187.2","1023.507","12.07","80.8","NAN","0.0"],
    [1543763,"2026-02-27 22:40:00","55519","0.40700000000000003","182.3","1.045","176.5","1023.632","12.03","81.7","NAN","0.0"],
    [1543764,"2026-02-27 22:50:00","55520","0.136","201.0","1.013","172.7","1023.789","12.12","81.3","NAN","0.0"],
    [1543765,"2026-02-27 23:00:00","55521","0.564","180.4","1.339","148.4","1023.878","12.27","79.64","NAN","0.0"],
    [1543766,"2026-02-27 23:10:00","55522","0.35200000000000004","162.4","0.8170000000000001","161.1","1023.953","12.29","79.26","NAN","0.0"],
    [1543767,"2026-02-27 23:20:00","55523","0.45299999999999996","158.3","1.535","180.0","1024.003","12.32","79.35","NAN","0.0"],
    [1543768,"2026-02-27 23:30:00","55524","0.39","186.8","1.535","177.7","1024.07","12.32","77.62","NAN","0.0"],
    [1543769,"2026-02-27 23:40:00","55525","0.731","148.0","1.535","158.6","1024.048","12.36","77.28","NAN","0.0"],
    [1543770,"2026-02-27 23:50:00","55526","0.527","49.06","1.078","145.2","1023.965","12.35","76.81","NAN","0.0"],
    [1543771,"2026-02-28 00:00:00","55527","0.583","60.61","1.535","47.97","1023.862","12.35","76.92","NAN","0.0"],
    [1543772,"2026-02-28 00:10:00","55528","0.763","43.07","2.0580000000000003","67.03","1023.868","12.4","76.6","NAN","0.0"],
    [1543773,"2026-02-28 00:20:00","55529","1.015","45.8","2.156","59.88","1023.783","12.44","75.44","NAN","0.0"],
    [1543774,"2026-02-28 00:30:00","55530","1.206","34.15","2.0580000000000003","30.05","1023.7260000000001","12.48","76.05","NAN","0.0"],
    [1543775,"2026-02-28 00:40:00","55531","1.032","40.93","2.0580000000000003","34.91","1023.762","12.45","76.31","NAN","0.0"],
    [1543776,"2026-02-28 00:50:00","55532","1.6909999999999998","43.2","2.94","31.7","1023.696","12.45","77.17","NAN","0.0"],
    [1543777,"2026-02-28 01:00:00","55533","1.1420000000000001","47.71","2.45","51.09","1023.7280000000001","12.45","77.83","NAN","0.0"],
    [1543778,"2026-02-28 01:10:00","55534","1.2919999999999998","49.83","2.5810000000000004","32.25","1023.703","12.48","78.16","NAN","0.0"],
    [1543779,"2026-02-28 01:20:00","55535","0.9620000000000001","50.69","2.548","52.47","1023.72","12.46","78.72","NAN","0.0"],
    [1543780,"2026-02-28 01:30:00","55536","1.1520000000000001","42.81","2.319","32.89","1023.7310000000001","12.49","78.53","NAN","0.0"],
    [1543781,"2026-02-28 01:40:00","55537","1.254","47.48","2.7439999999999998","41.34","1023.682","12.52","79","NAN","0.0"],
    [1543782,"2026-02-28 01:50:00","55538","1.381","43.13","2.875","62.44","1023.6080000000001","12.51","78.93","NAN","0.0"],
    [1543783,"2026-02-28 02:00:00","55539","1.4869999999999999","79.25","2.679","67.33","1023.6189999999999","12.53","78.92","NAN","0.0"],
    [1543784,"2026-02-28 02:10:00","55540","1.079","76.61","2.385","78.77","1023.56","12.54","77.57","NAN","0.0"],
    [1543785,"2026-02-28 02:20:00","55541","0.868","59.32","2.189","58.04","1023.466","12.58","78.08","NAN","0.0"],
    [1543786,"2026-02-28 02:30:00","55542","0.977","44.36","2.287","60.03","1023.5160000000001","12.59","77.97","NAN","0.0"],
    [1543787,"2026-02-28 02:40:00","55543","1.485","46.66","3.136","33.22","1023.393","12.61","78.32","NAN","0.0"],
    [1543788,"2026-02-28 02:50:00","55544","1.459","49.16","2.8089999999999997","50.91","1023.2719999999999","12.58","80.5","NAN","0.0"],
    [1543789,"2026-02-28 03:00:00","55545","1.875","46.15","4.377","33.9","1023.138","12.44","82.2","NAN","0.0"],
    [1543790,"2026-02-28 03:10:00","55546","1.601","51.69","3.92","47.53","1023.196","12.36","82.6","NAN","0.0"],
    [1543791,"2026-02-28 03:20:00","55547","1.294","50.93","3.103","51.09","1023.31","12.4","82.1","NAN","0.0"],
    [1543792,"2026-02-28 03:30:00","55548","0.8420000000000001","38.16","2.319","50.98","1023.2669999999999","12.44","81.7","NAN","0.0"],
    [1543793,"2026-02-28 03:40:00","55549","1.405","43.02","3.071","38.31","1023.329","12.47","82","NAN","0.0"],
    [1543794,"2026-02-28 03:50:00","55550","1.3840000000000001","44.06","2.8089999999999997","22.43","1023.288","12.52","82.4","NAN","0.0"],
    [1543795,"2026-02-28 04:00:00","55551","1.281","47.58","3.6910000000000003","58.33","1023.232","12.59","82.4","NAN","0.0"],
    [1543796,"2026-02-28 04:10:00","55552","2.089","64.93","3.985","58.06","1023.2439999999999","12.67","81.5","NAN","0.0"],
    [1543797,"2026-02-28 04:20:00","55553","2.129","74.31","4.149","71.45","1023.466","12.77","80.3","NAN","0.0"],
    [1543798,"2026-02-28 04:30:00","55554","1.83","68.43","3.6260000000000003","86.3","1023.6","12.76","81.1","NAN","0.0"],
    [1543799,"2026-02-28 04:40:00","55555","2.1719999999999997","73.66","4.1160000000000005","65.25","1023.638","12.76","82.6","NAN","0.0"],
    [1543800,"2026-02-28 04:50:00","55556","2.102","66.82","4.051","67.93","1023.688","12.76","82.4","NAN","0.0"],
    [1543801,"2026-02-28 05:00:00","55557","2.465","68.96","4.312","60.04","1023.709","12.76","81.7","NAN","0.0"],
    [1543802,"2026-02-28 05:10:00","55558","2.097","72.42","4.998","60.19","1023.8","12.79","81.9","NAN","0.0"],
    [1543803,"2026-02-28 05:20:00","55559","2.4419999999999997","87.4","5.651","84.4","1023.783","12.84","82.2","NAN","0.0"],
    [1543804,"2026-02-28 05:30:00","55560","1.659","83.2","3.5610000000000004","55.23","1023.712","12.85","82.6","NAN","0.0"],
    [1543805,"2026-02-28 05:40:00","55561","1.864","80.5","4.508","70.53","1023.743","12.89","82.5","NAN","0.0"],
    [1543806,"2026-02-28 05:50:00","55562","2.371","63.94","4.573","62.88","1023.693","12.89","83.4","NAN","0.0"],
    [1543807,"2026-02-28 06:00:00","55563","2.405","66.36","4.508","68.5","1023.745","12.88","83","NAN","0.0"],
    [1543808,"2026-02-28 06:10:00","55564","2.3480000000000003","65.97","4.835","67.21","1023.8910000000001","12.92","82","NAN","0.0"],
    [1543809,"2026-02-28 06:20:00","55565","2.195","70.92","3.92","81.1","1023.9789999999999","13","81.4","NAN","0.0"],
    [1543810,"2026-02-28 06:30:00","55566","2.205","64.9","4.475","76.64","1024.097","13.01","81.2","NAN","0.0"],
    [1543811,"2026-02-28 06:40:00","55567","1.913","67.96","4.573","70.13","1024.193","12.96","83","NAN","0.0"],
    [1543812,"2026-02-28 06:50:00","55568","1.61","59.02","3.397","65.28","1024.4","12.96","83.3","NAN","0.0"],
    [1543813,"2026-02-28 07:00:00","55569","2.208","72.34","3.659","89.4","1024.505","12.98","82.6","NAN","0.0"],
    [1543814,"2026-02-28 07:10:00","55570","1.956","67.79","3.7889999999999997","76.04","1024.555","13.02","82.7","NAN","0.0"],
    [1543815,"2026-02-28 07:20:00","55571","2.081","66.78","4.4430000000000005","64.97","1024.687","13.02","81.8","NAN","0.0"],
    [1543816,"2026-02-28 07:30:00","55572","1.683","79.61","3.365","76.06","1024.8139999999999","13.07","80.6","NAN","0.0"],
    [1543817,"2026-02-28 07:40:00","55573","1.775","83.2","3.0380000000000003","69.56","1024.9160000000002","13.1","80.4","NAN","0.0"],
    [1543818,"2026-02-28 07:50:00","55574","1.535","78.47","3.234","74.41","1025.048","13.15","80.5","NAN","0.0"],
    [1543819,"2026-02-28 08:00:00","55575","1.2919999999999998","64.35","3.1689999999999996","42.51","1025.1889999999999","13.2","80.9","NAN","0.0"],
    [1543820,"2026-02-28 08:10:00","55576","1.045","74.72","2.319","74.58","1025.365","13.24","81.1","NAN","0.0"],
    [1543821,"2026-02-28 08:20:00","55577","1.6840000000000002","72.66","3.463","66.33","1025.335","13.25","81.6","NAN","0.0"],
    [1543822,"2026-02-28 08:30:00","55578","1.636","72.8","3.0380000000000003","70.96","1025.3410000000001","13.21","82.4","NAN","0.0"],
    [1543823,"2026-02-28 08:40:00","55579","1.146","48.54","2.156","66.75","1025.447","13.26","82.8","NAN","0.0"],
    [1543824,"2026-02-28 08:50:00","55580","1.008","56.47","2.94","69.39","1025.643","13.26","84.4","NAN","0.0"],
    [1543825,"2026-02-28 09:00:00","55581","1.5630000000000002","46.52","2.9730000000000003","35.72","1025.654","13.19","84.9","NAN","0.0"],
    [1543826,"2026-02-28 09:10:00","55582","1.5530000000000002","52.74","3.201","66.07","1025.604","13.21","84.5","NAN","0.0"],
    [1543827,"2026-02-28 09:20:00","55583","1.4580000000000002","46.68","3.136","64.23","1025.779","13.23","84.2","NAN","0.0"],
    [1543828,"2026-02-28 09:30:00","55584","1.736","39.25","3.659","21.7","1025.682","13.25","83.8","NAN","0.0"],
    [1543829,"2026-02-28 09:40:00","55585","1.442","56.03","3.495","65.66","1025.59","13.28","83.3","NAN","0.0"],
    [1543830,"2026-02-28 09:50:00","55586","1.496","60.85","3.071","61.16","1025.66","13.28","83.1","NAN","0.0"],
    [1543831,"2026-02-28 10:00:00","55587","1.193","46.09","3.0380000000000003","48.38","1025.695","13.29","82.8","NAN","0.0"],
    [1543832,"2026-02-28 10:10:00","55588","1.581","50.9","3.299","73.66","1025.8419999999999","13.43","82","NAN","0.0"],
    [1543833,"2026-02-28 10:20:00","55589","1.736","47.04","3.659","29.57","1025.854","13.32","82.1","NAN","0.0"],
    [1543834,"2026-02-28 10:30:00","55590","1.9909999999999999","44.86","3.1689999999999996","58.02","1025.8039999999999","13.28","81.7","NAN","0.0"],
    [1543835,"2026-02-28 10:40:00","55591","1.535","50.5","3.6260000000000003","31.7","1025.724","13.54","80.7","NAN","0.0"],
    [1543836,"2026-02-28 10:50:00","55592","1.62","71.55","2.9730000000000003","67.27","1025.66","13.94","79.3","NAN","0.0"],
    [1543837,"2026-02-28 11:00:00","55593","1.6280000000000001","67.66","3.43","32.92","1025.667","14.12","78.09","NAN","0.0"],
    [1543838,"2026-02-28 11:10:00","55594","1.614","69.33","3.6910000000000003","84.0","1025.685","13.95","80","NAN","0.0"],
    [1543839,"2026-02-28 11:20:00","55595","2.169","79.95","4.345","64.47","1025.702","13.66","82.4","NAN","0.0"],
    [1543840,"2026-02-28 11:30:00","55596","1.944","79.75","4.4430000000000005","53.9","1025.657","13.61","81.7","NAN","0.0"],
    [1543841,"2026-02-28 11:40:00","55597","2.7439999999999998","76.58","4.638999999999999","55.08","1025.642","13.6","80.8","NAN","0.0"],
    [1543842,"2026-02-28 11:50:00","55598","2.456","71.64","4.573","78.26","1025.562","13.56","80.5","NAN","0.0"],
    [1543843,"2026-02-28 12:00:00","55599","2.3280000000000003","67.53","4.345","88.5","1025.5330000000001","13.63","80.8","NAN","0.0"],
    [1543844,"2026-02-28 12:10:00","55600","2.121","63.93","4.1160000000000005","68.11","1025.505","13.74","80.1","NAN","0.0"],
    [1543845,"2026-02-28 12:20:00","55601","1.855","85.3","3.593","109.4","1025.338","14.1","79.24","NAN","0.0"],
    [1543846,"2026-02-28 12:30:00","55602","1.348","76.86","3.267","103.4","1025.368","14.28","77.58","NAN","0.0"],
    [1543847,"2026-02-28 12:40:00","55603","1.84","82.7","4.933","101.0","1025.2910000000002","14.19","77.02","NAN","0.0"],
    [1543848,"2026-02-28 12:50:00","55604","1.561","72.76","3.234","71.23","1025.162","14.26","76.37","NAN","0.0"],
    [1543849,"2026-02-28 13:00:00","55605","1.849","72.27","3.463","71.97","1025.027","14.3","76.69","NAN","0.0"],
    [1543850,"2026-02-28 13:10:00","55606","2.066","73.57","3.071","71.03","1024.892","14.3","77.06","NAN","0.0"],
    [1543851,"2026-02-28 13:20:00","55607","1.8430000000000002","84.1","3.201","81.7","1024.718","14.18","78.09","NAN","0.0"],
    [1543852,"2026-02-28 13:30:00","55608","1.587","94.9","2.8089999999999997","83.0","1024.6660000000002","14.55","75.62","NAN","0.0"],
    [1543853,"2026-02-28 13:40:00","55609","1.673","98.4","2.907","88.1","1024.631","14.47","76.05","NAN","0.0"],
    [1543854,"2026-02-28 13:50:00","55610","1.3259999999999998","96.2","2.613","78.44","1024.529","14.57","74.9","NAN","0.0"],
    [1543855,"2026-02-28 14:00:00","55611","1.3980000000000001","97.4","2.842","124.3","1024.4460000000001","14.86","74.58","NAN","0.0"],
    [1543856,"2026-02-28 14:10:00","55612","1.015","96.0","2.515","113.2","1024.417","15.03","72.2","NAN","0.0"],
    [1543857,"2026-02-28 14:20:00","55613","0.924","99.6","2.123","87.5","1024.374","15.08","72.64","NAN","0.0"],
    [1543858,"2026-02-28 14:30:00","55614","0.875","128.1","2.156","137.8","1024.4089999999999","14.61","75.58","NAN","0.0"],
    [1543859,"2026-02-28 14:40:00","55615","0.7879999999999999","96.6","2.5810000000000004","140.3","1024.474","14.89","75.51","NAN","0.0"],
    [1543860,"2026-02-28 14:50:00","55616","1.251","106.3","2.483","99.9","1024.479","14.75","76.76","NAN","0.0"],
    [1543861,"2026-02-28 15:00:00","55617","1.124","93.6","2.287","101.3","1024.422","14.44","79.5","NAN","0.0"],
    [1543862,"2026-02-28 15:10:00","55618","2.009","68.65","4.149","59.48","1024.489","14.75","78.14","NAN","0.0"],
    [1543863,"2026-02-28 15:20:00","55619","1.665","83.4","3.659","80.4","1024.519","14.87","77.95","NAN","0.0"],
    [1543864,"2026-02-28 15:30:00","55620","1.8159999999999998","88.2","3.528","109.5","1024.634","14.52","78.04","NAN","0.0"],
    [1543865,"2026-02-28 15:40:00","55621","1.9769999999999999","86.5","3.887","91.5","1024.661","14.43","77.8","NAN","0.0"],
    [1543866,"2026-02-28 15:50:00","55622","1.903","93.4","3.7889999999999997","95.1","1024.661","14.45","77.65","NAN","0.0"],
    [1543867,"2026-02-28 16:00:00","55623","1.29","70.84","3.397","76.01","1024.653","14.44","77.56","NAN","0.0"],
    [1543868,"2026-02-28 16:10:00","55624","1.396","85.1","3.136","105.5","1024.653","14.34","77.64","NAN","0.0"],
    [1543869,"2026-02-28 16:20:00","55625","1.6909999999999998","68.57","3.43","73.99","1024.5439999999999","14.36","76.91","NAN","0.0"],
    [1543870,"2026-02-28 16:30:00","55626","1.46","75.11","4.051","74.26","1024.546","14.27","77.59","NAN","0.0"],
    [1543871,"2026-02-28 16:40:00","55627","1.902","71.8","3.659","74.28","1024.611","14.17","77.8","NAN","0.0"],
    [1543872,"2026-02-28 16:50:00","55628","1.71","67.62","4.41","70.29","1024.631","14.04","79.35","NAN","0.0"],
    [1543873,"2026-02-28 17:00:00","55629","1.545","71.78","3.332","77.17","1024.618","13.99","79.76","NAN","0.0"],
    [1543874,"2026-02-28 17:10:00","55630","1.75","72.17","3.659","75.04","1024.604","14","79.4","NAN","0.0"],
    [1543875,"2026-02-28 17:20:00","55631","1.633","78.78","3.7569999999999997","66.28","1024.6589999999999","13.93","79.19","NAN","0.0"],
    [1543876,"2026-02-28 17:30:00","55632","1.618","71.88","3.6910000000000003","59.09","1024.748","13.92","78.55","NAN","0.0"],
    [1543877,"2026-02-28 17:40:00","55633","1.8159999999999998","79.54","3.659","89.2","1024.902","13.88","78.11","NAN","0.0"],
    [1543878,"2026-02-28 17:50:00","55634","1.077","68.66","2.287","83.4","1024.917","13.93","77.76","NAN","0.0"],
    [1543879,"2026-02-28 18:00:00","55635","1.2819999999999998","68.85","3.136","62.34","1025.052","13.92","77.42","NAN","0.0"],
    [1543880,"2026-02-28 18:10:00","55636","1.7280000000000002","84.4","3.659","95.4","1025.154","13.87","77.57","NAN","0.0"],
    [1543881,"2026-02-28 18:20:00","55637","2.001","87.0","3.593","86.4","1025.162","13.88","76.85","NAN","0.0"],
    [1543882,"2026-02-28 18:30:00","55638","1.965","107.1","3.43","96.1","1025.1680000000001","13.87","76.78","NAN","0.0"],
    [1543883,"2026-02-28 18:40:00","55639","1.188","82.6","3.397","80.8","1025.298","13.87","76.65","NAN","0.0"],
    [1543884,"2026-02-28 18:50:00","55640","1.297","92.4","2.94","110.6","1025.406","13.89","76.54","NAN","0.0"],
    [1543885,"2026-02-28 19:00:00","55641","1.297","90.5","3.071","114.1","1025.413","13.89","76.53","NAN","0.0"],
    [1543886,"2026-02-28 19:10:00","55642","1.686","108.6","3.365","117.4","1025.4","13.89","76.57","NAN","0.0"],
    [1543887,"2026-02-28 19:20:00","55643","1.3319999999999999","102.5","2.7110000000000003","91.9","1025.496","13.87","76.93","NAN","0.0"],
    [1543888,"2026-02-28 19:30:00","55644","1.3319999999999999","81.6","2.9730000000000003","91.2","1025.501","13.82","76.65","NAN","0.0"],
    [1543889,"2026-02-28 19:40:00","55645","1.61","79.84","3.43","105.3","1025.529","13.73","76.34","NAN","0.0"],
    [1543890,"2026-02-28 19:50:00","55646","1.3769999999999998","83.7","2.842","67.95","1025.656","13.76","75.93","NAN","0.0"],
    [1543891,"2026-02-28 20:00:00","55647","1.584","85.3","2.94","77.95","1025.6860000000001","13.78","75.97","NAN","0.0"],
    [1543892,"2026-02-28 20:10:00","55648","1.339","98.3","2.6460000000000004","104.1","1025.724","13.81","76.02","NAN","0.0"],
    [1543893,"2026-02-28 20:20:00","55649","1.232","91.1","2.7110000000000003","69.34","1025.889","13.84","76.32","NAN","0.0"],
    [1543894,"2026-02-28 20:30:00","55650","1.276","92.6","2.875","69.45","1025.9260000000002","13.82","76.38","NAN","0.0"],
    [1543895,"2026-02-28 20:40:00","55651","1.5330000000000001","108.4","2.875","109.5","1026.016","13.82","76.81","NAN","0.0"],
    [1543896,"2026-02-28 20:50:00","55652","1.6740000000000002","103.3","2.7439999999999998","94.6","1025.964","13.78","77.52","NAN","0.0"],
    [1543897,"2026-02-28 21:00:00","55653","1.369","106.6","2.7439999999999998","105.1","1025.968","13.71","77.4","NAN","0.0"],
    [1543898,"2026-02-28 21:10:00","55654","0.764","115.5","1.895","106.7","1026.125","13.68","78.57","NAN","0.0"],
    [1543899,"2026-02-28 21:20:00","55655","0.8009999999999999","116.9","1.633","114.8","1026.146","13.63","79.11","NAN","0.0"],
    [1543900,"2026-02-28 21:30:00","55656","0.746","101.4","1.7309999999999999","79.05","1026.173","13.64","79.13","NAN","0.0"],
    [1543901,"2026-02-28 21:40:00","55657","1.462","104.9","2.45","100.6","1026.15","13.64","78.61","NAN","0.0"],
    [1543902,"2026-02-28 21:50:00","55658","0.507","120.2","1.209","99.3","1026.1680000000001","13.64","79.3","NAN","0.0"],
    [1543903,"2026-02-28 22:00:00","55659","0.441","146.8","0.98","132.4","1026.1789999999999","13.61","80.7","NAN","0.0"],
    [1543904,"2026-02-28 22:10:00","55660","0.066","194.5","0.49","202.9","1026.1689999999999","13.57","80.2","NAN","0.0"],
    [1543905,"2026-02-28 22:20:00","55661","0.23199999999999998","180.0","0.6859999999999999","176.7","1026.132","13.59","80.3","NAN","0.0"],
    [1543906,"2026-02-28 22:30:00","55662","0.163","199.9","0.555","183.8","1026.144","13.57","79.85","NAN","0.0"],
    [1543907,"2026-02-28 22:40:00","55663","0.215","161.5","0.555","184.3","1026.0839999999998","13.57","79.02","NAN","0.0"],
    [1543908,"2026-02-28 22:50:00","55664","0.048","166.7","0.49","94.6","1026.026","13.57","78.74","NAN","0.0"],
    [1543909,"2026-02-28 23:00:00","55665","0.057999999999999996","221.9","0.392","227.0","1026.0230000000001","13.57","79.44","NAN","0.0"],
    [1543910,"2026-02-28 23:10:00","55666","0.287","196.5","0.784","205.8","1026.039","13.56","79.57","NAN","0.0"],
    [1543911,"2026-02-28 23:20:00","55667","0.302","204.1","0.7190000000000001","198.6","1026.031","13.55","79.85","NAN","0.0"],
    [1543912,"2026-02-28 23:30:00","55668","0.18600000000000003","162.6","0.7509999999999999","152.1","1025.904","13.54","79.63","NAN","0.0"],
    [1543913,"2026-02-28 23:40:00","55669","0.41200000000000003","180.7","0.9470000000000001","178.9","1025.763","13.52","79.8","NAN","0.0"],
    [1543914,"2026-02-28 23:50:00","55670","0.10800000000000001","192.4","0.555","194.3","1025.649","13.47","80.4","NAN","0.0"],
    [1543915,"2026-03-01 00:00:00","55671","0.392","206.3","0.9470000000000001","201.8","1025.559","13.45","80.1","NAN","0.0"],
    [1543916,"2026-03-01 00:10:00","55672","0.073","207.1","0.621","210.1","1025.613","13.48","79.81","NAN","0.0"],
    [1543917,"2026-03-01 00:20:00","55673","0.135","221.8","0.882","254.6","1025.663","13.48","80.2","NAN","0.0"],
    [1543918,"2026-03-01 00:30:00","55674","0.5","194.4","1.013","183.0","1025.6680000000001","13.55","79.43","NAN","0.0"],
    [1543919,"2026-03-01 00:40:00","55675","0.564","220.2","1.209","226.4","1025.6660000000002","13.6","78.6","NAN","0.0"],
    [1543920,"2026-03-01 00:50:00","55676","0.45","206.3","1.045","195.8","1025.644","13.64","77.84","NAN","0.0"],
    [1543921,"2026-03-01 01:00:00","55677","0.585","204.8","1.307","202.0","1025.586","13.66","77.84","NAN","0.0"],
    [1543922,"2026-03-01 01:10:00","55678","0.31","210.2","0.9470000000000001","213.7","1025.575","13.72","77.54","NAN","0.0"],
    [1543923,"2026-03-01 01:20:00","55679","0.5820000000000001","263.6","2.025","292.7","1025.5410000000002","13.76","75.34","NAN","0.0"],
    [1543924,"2026-03-01 01:30:00","55680","0.33799999999999997","279.5","1.405","266.3","1025.413","13.87","74.06","NAN","0.0"],
    [1543925,"2026-03-01 01:40:00","55681","0.273","254.8","1.176","304.7","1025.296","13.87","73.97","NAN","0.0"],
    [1543926,"2026-03-01 01:50:00","55682","0.275","208.7","0.882","278.5","1025.251","13.8","75","NAN","0.0"],
    [1543927,"2026-03-01 02:00:00","55683","0.773","202.2","1.339","203.0","1025.162","13.56","77.47","NAN","0.0"],
    [1543928,"2026-03-01 02:10:00","55684","0.635","223.3","1.4369999999999998","225.5","1025.162","13.62","75.53","NAN","0.0"],
    [1543929,"2026-03-01 02:20:00","55685","0.688","235.8","1.8619999999999999","235.9","1025.163","13.71","74.85","NAN","0.0"],
    [1543930,"2026-03-01 02:30:00","55686","0.7070000000000001","240.0","2.156","239.2","1025.163","13.72","74.5","NAN","0.0"],
    [1543931,"2026-03-01 02:40:00","55687","1.084","245.8","2.319","241.1","1025.0819999999999","13.7","74.13","NAN","0.0"],
    [1543932,"2026-03-01 02:50:00","55688","0.8079999999999999","249.1","1.666","299.5","1025.02","13.74","73.92","NAN","0.0"],
    [1543933,"2026-03-01 03:00:00","55689","1.141","237.2","2.221","233.0","1024.93","13.72","74.15","NAN","0.0"],
    [1543934,"2026-03-01 03:10:00","55690","0.841","213.5","1.764","237.3","1024.914","13.57","75.76","NAN","0.0"],
    [1543935,"2026-03-01 03:20:00","55691","1.205","241.5","2.025","257.8","1024.914","13.4","76.11","NAN","0.0"],
    [1543936,"2026-03-01 03:30:00","55692","0.675","243.7","1.535","228.3","1024.917","13.38","76.34","NAN","0.0"],
    [1543937,"2026-03-01 03:40:00","55693","1.35","236.7","2.515","251.4","1024.945","13.35","76.93","NAN","0.0"],
    [1543938,"2026-03-01 03:50:00","55694","0.9790000000000001","239.9","2.189","236.8","1025.025","13.35","77.22","NAN","0.0"],
    [1543939,"2026-03-01 04:00:00","55695","0.7","243.1","1.699","255.4","1025.104","13.35","77.4","NAN","0.0"],
    [1543940,"2026-03-01 04:10:00","55696","0.528","235.8","1.339","222.8","1025.1860000000001","13.32","77.6","NAN","0.0"],
    [1543941,"2026-03-01 04:20:00","55697","0.9590000000000001","239.5","2.352","251.3","1025.2","13.28","77.78","NAN","0.0"],
    [1543942,"2026-03-01 04:30:00","55698","0.616","252.9","1.5030000000000001","247.1","1025.229","13.25","77.98","NAN","0.0"],
    [1543943,"2026-03-01 04:40:00","55699","0.466","276.6","1.895","292.1","1025.232","13.27","77.74","NAN","0.0"],
    [1543944,"2026-03-01 04:50:00","55700","0.617","240.9","1.601","232.9","1025.2269999999999","13.22","77.68","NAN","0.0"],
    [1543945,"2026-03-01 05:00:00","55701","0.44799999999999995","251.2","1.143","263.4","1025.289","13.24","77.56","NAN","0.0"],
    [1543946,"2026-03-01 05:10:00","55702","0.405","242.7","1.013","249.7","1025.345","13.29","77.12","NAN","0.0"],
    [1543947,"2026-03-01 05:20:00","55703","0.39","211.8","1.045","172.9","1025.347","13.22","78.3","NAN","0.0"],
    [1543948,"2026-03-01 05:30:00","55704","0.48100000000000004","204.1","0.8170000000000001","216.8","1025.34","13.03","80.6","NAN","0.0"],
    [1543949,"2026-03-01 05:40:00","55705","0.451","214.6","0.9470000000000001","223.5","1025.361","12.89","80.4","NAN","0.0"],
    [1543950,"2026-03-01 05:50:00","55706","0.428","201.4","0.8490000000000001","200.7","1025.445","13.05","79.7","NAN","0.0"],
    [1543951,"2026-03-01 06:00:00","55707","0.301","242.1","0.8490000000000001","237.8","1025.468","13.16","78.29","NAN","0.0"],
    [1543952,"2026-03-01 06:10:00","55708","0.34299999999999997","255.2","1.339","227.2","1025.496","13.32","77.11","NAN","0.0"],
    [1543953,"2026-03-01 06:20:00","55709","0.539","231.3","1.176","240.3","1025.575","13.33","76.93","NAN","0.0"],
    [1543954,"2026-03-01 06:30:00","55710","0.281","208.4","0.7190000000000001","238.1","1025.5819999999999","13.22","77.68","NAN","0.0"],
    [1543955,"2026-03-01 06:40:00","55711","0.583","199.0","1.078","201.8","1025.573","13.1","79.06","NAN","0.0"],
    [1543956,"2026-03-01 06:50:00","55712","0.498","218.6","1.209","220.9","1025.502","13.06","79.15","NAN","0.0"],
    [1543957,"2026-03-01 07:00:00","55713","0.441","242.0","1.111","237.0","1025.57","13.22","77.81","NAN","0.0"],
    [1543958,"2026-03-01 07:10:00","55714","0.522","222.6","1.078","216.0","1025.643","13.46","76.17","NAN","0.0"],
    [1543959,"2026-03-01 07:20:00","55715","0.39799999999999996","206.4","0.98","184.0","1025.685","13.46","76.78","NAN","0.0"],
    [1543960,"2026-03-01 07:30:00","55716","0.46399999999999997","218.5","1.405","203.1","1025.77","13.51","76.46","NAN","0.0"],
    [1543961,"2026-03-01 07:40:00","55717","0.649","207.6","1.829","227.4","1025.9389999999999","13.58","75.92","NAN","0.0"],
    [1543962,"2026-03-01 07:50:00","55718","0.561","205.3","1.405","173.8","1026.094","13.58","76.2","NAN","0.0"],
    [1543963,"2026-03-01 08:00:00","55719","0.6679999999999999","213.1","1.535","246.2","1026.145","13.75","75.03","NAN","0.0"],
    [1543964,"2026-03-01 08:10:00","55720","0.807","201.6","1.8619999999999999","184.3","1026.153","13.67","75.68","NAN","0.0"],
    [1543965,"2026-03-01 08:20:00","55721","0.508","215.3","1.2409999999999999","210.9","1026.163","13.65","75.77","NAN","0.0"],
    [1543966,"2026-03-01 08:30:00","55722","0.8079999999999999","217.9","1.568","244.2","1026.272","13.8","73.87","NAN","0.0"],
    [1543967,"2026-03-01 08:40:00","55723","0.607","208.3","1.274","202.7","1026.28","13.96","73.3","NAN","0.0"],
    [1543968,"2026-03-01 08:50:00","55724","0.33299999999999996","216.0","1.47","333.5","1026.282","14.13","72.39","NAN","0.0"],
    [1543969,"2026-03-01 09:00:00","55725","0.474","172.1","1.274","160.7","1026.282","14.18","71.65","NAN","0.0"],
    [1543970,"2026-03-01 09:10:00","55726","0.478","71.9","1.764","310.6","1026.312","14.25","71.05","NAN","0.0"],
    [1543971,"2026-03-01 09:20:00","55727","1.4580000000000002","240.2","2.94","243.1","1026.3319999999999","14.41","66.67","NAN","0.0"],
    [1543972,"2026-03-01 09:30:00","55728","0.7190000000000001","246.6","2.189","270.7","1026.357","14.61","65.28","NAN","0.0"],
    [1543973,"2026-03-01 09:40:00","55729","1.042","271.1","2.7769999999999997","294.5","1026.282","14.87","63.46","NAN","0.0"],
    [1543974,"2026-03-01 09:50:00","55730","1.051","247.6","2.94","246.1","1026.257","15","62.76","NAN","0.0"],
    [1543975,"2026-03-01 10:00:00","55731","0.9470000000000001","240.4","2.7769999999999997","238.3","1026.228","15.21","61.9","NAN","0.0"],
    [1543976,"2026-03-01 10:10:00","55732","0.636","301.9","1.601","328.2","1026.215","15.86","59","NAN","0.0"],
    [1543977,"2026-03-01 10:20:00","55733","0.75","271.2","1.9269999999999998","279.1","1026.27","16.16","57.63","NAN","0.0"],
    [1543978,"2026-03-01 10:30:00","55734","0.401","31.65","1.143","30.51","1026.282","16","58.34","NAN","0.0"],
    [1543979,"2026-03-01 10:40:00","55735","0.327","333.0","1.535","345.4","1026.282","16.17","57.85","NAN","0.0"],
    [1543980,"2026-03-01 10:50:00","55736","1.319","122.8","2.483","120.3","1026.17","15.79","60.11","NAN","0.0"],
    [1543981,"2026-03-01 11:00:00","55737","1.102","217.8","2.94","122.8","1026.135","15.43","61.11","NAN","0.0"],
    [1543982,"2026-03-01 11:10:00","55738","0.9359999999999999","71.09","1.895","36.46","1026.06","15.68","61.48","NAN","0.0"],
    [1543983,"2026-03-01 11:20:00","55739","1.837","111.6","2.907","110.3","1025.911","16.02","60.85","NAN","0.0"],
    [1543984,"2026-03-01 11:30:00","55740","2.65","124.0","4.279","120.7","1025.8110000000001","15.88","64.33","NAN","0.0"],
    [1543985,"2026-03-01 11:40:00","55741","2.285","156.1","4.345","170.8","1025.774","15.82","66.69","NAN","0.0"],
    [1543986,"2026-03-01 11:50:00","55742","1.6969999999999998","125.8","3.397","122.2","1025.634","16.46","64.12","NAN","0.0"],
    [1543987,"2026-03-01 12:00:00","55743","2.312","120.5","3.528","120.7","1025.395","16.26","63.84","NAN","0.0"],
    [1543988,"2026-03-01 12:10:00","55744","2.793","160.8","5.129","172.8","1025.191","16.17","65.17","NAN","0.0"],
    [1543989,"2026-03-01 12:20:00","55745","3.168","174.1","5.619","182.5","1025.104","15.64","68.52","NAN","0.0"],
    [1543990,"2026-03-01 12:30:00","55746","3.193","173.3","5.194","185.0","1024.9769999999999","15.78","68.3","NAN","0.0"],
    [1543991,"2026-03-01 12:40:00","55747","3.423","173.3","4.998","177.4","1024.847","15.62","68.45","NAN","0.0"],
    [1543992,"2026-03-01 12:50:00","55748","3.66","176.1","5.88","179.8","1024.6760000000002","16","65.25","NAN","0.0"],
    [1543993,"2026-03-01 13:00:00","55749","4.146","174.1","5.912999999999999","179.2","1024.601","15.69","68.26","NAN","0.0"],
    [1543994,"2026-03-01 13:10:00","55750","4.045","172.8","5.912999999999999","176.5","1024.432","15.49","68.08","NAN","0.0"],
    [1543995,"2026-03-01 13:20:00","55751","3.514","172.5","5.7170000000000005","181.1","1024.4089999999999","15.71","67.27","NAN","0.0"],
    [1543996,"2026-03-01 13:30:00","55752","3.6519999999999997","174.5","5.422999999999999","168.7","1024.382","15.71","66.45","NAN","0.0"],
    [1543997,"2026-03-01 13:40:00","55753","2.955","173.6","4.867","180.1","1024.282","16.05","65.59","NAN","0.0"],
    [1543998,"2026-03-01 13:50:00","55754","2.839","188.4","4.573","200.9","1024.192","16.16","63.06","NAN","0.0"],
    [1543999,"2026-03-01 14:00:00","55755","3.03","179.3","4.835","181.8","1024.165","16.1","64.02","NAN","0.0"],
    [1544000,"2026-03-01 14:10:00","55756","3.509","170.9","5.455","180.0","1024.131","16.03","65.4","NAN","0.0"],
    [1544001,"2026-03-01 14:20:00","55757","2.8339999999999996","178.6","5.455","174.4","1023.9780000000001","15.97","64.46","NAN","0.0"],
    [1544002,"2026-03-01 14:30:00","55758","3.1039999999999996","172.4","5.847","157.1","1023.9110000000001","16.03","64.12","NAN","0.0"],
    [1544003,"2026-03-01 14:40:00","55759","3.194","178.7","6.1739999999999995","174.2","1023.898","15.72","65.85","NAN","0.0"],
    [1544004,"2026-03-01 14:50:00","55760","2.7769999999999997","192.2","5.815","198.8","1023.8539999999999","15.58","66.18","NAN","0.0"],
    [1544005,"2026-03-01 15:00:00","55761","2.557","193.4","5.978","212.0","1023.7819999999999","15.55","67.12","NAN","0.0"],
    [1544006,"2026-03-01 15:10:00","55762","1.905","205.0","4.638999999999999","178.8","1023.702","15.32","68.39","NAN","0.0"],
    [1544007,"2026-03-01 15:20:00","55763","2.359","201.8","5.063","169.7","1023.6519999999999","15.34","67.09","NAN","0.0"],
    [1544008,"2026-03-01 15:30:00","55764","2.5610000000000004","198.7","5.651","181.5","1023.552","15.01","68.76","NAN","0.0"],
    [1544009,"2026-03-01 15:40:00","55765","2.4219999999999997","192.4","5.063","176.2","1023.5269999999999","14.86","70.52","NAN","0.0"],
    [1544010,"2026-03-01 15:50:00","55766","2.336","203.7","5.031000000000001","215.3","1023.453","14.76","70.7","NAN","0.0"],
    [1544011,"2026-03-01 16:00:00","55767","2.576","206.7","5.39","179.5","1023.4","14.94","70.41","NAN","0.0"],
    [1544012,"2026-03-01 16:10:00","55768","2.126","202.7","4.638999999999999","183.4","1023.3330000000001","15.1","70.51","NAN","0.0"],
    [1544013,"2026-03-01 16:20:00","55769","2.378","206.0","4.965","209.7","1023.316","14.94","71.1","NAN","0.0"],
    [1544014,"2026-03-01 16:30:00","55770","2.233","198.8","4.867","179.2","1023.326","14.79","72.09","NAN","0.0"],
    [1544015,"2026-03-01 16:40:00","55771","2.439","199.0","5.586","197.3","1023.311","14.68","72.98","NAN","0.0"],
    [1544016,"2026-03-01 16:50:00","55772","1.93","205.3","4.9","198.5","1023.2760000000001","14.82","72.34","NAN","0.0"],
    [1544017,"2026-03-01 17:00:00","55773","2.5380000000000003","198.6","5.455","211.5","1023.288","14.57","73.61","NAN","0.0"],
    [1544018,"2026-03-01 17:10:00","55774","2.2119999999999997","203.1","4.9","196.2","1023.2610000000001","14.35","74.35","NAN","0.0"],
    [1544019,"2026-03-01 17:20:00","55775","1.608","205.5","3.234","207.6","1023.201","14.27","75.07","NAN","0.0"],
    [1544020,"2026-03-01 17:30:00","55776","1.546","199.5","3.6910000000000003","181.1","1023.169","14.15","76.01","NAN","0.0"],
    [1544021,"2026-03-01 17:40:00","55777","1.9","201.5","4.051","188.6","1023.171","13.94","77.81","NAN","0.0"],
    [1544022,"2026-03-01 17:50:00","55778","1.5090000000000001","202.1","3.7889999999999997","200.9","1023.177","13.88","77.98","NAN","0.0"],
    [1544023,"2026-03-01 18:00:00","55779","1.035","205.2","2.842","199.4","1023.243","13.81","78.7","NAN","0.0"],
    [1544024,"2026-03-01 18:10:00","55780","1.228","220.8","3.103","230.2","1023.4110000000001","13.72","79","NAN","0.0"],
    [1544025,"2026-03-01 18:20:00","55781","1.178","223.6","2.483","203.2","1023.48","13.7","79.45","NAN","0.0"],
    [1544026,"2026-03-01 18:30:00","55782","1.381","218.4","2.94","223.4","1023.488","13.59","80.5","NAN","0.0"],
    [1544027,"2026-03-01 18:40:00","55783","1.3319999999999999","228.1","2.875","226.6","1023.5889999999999","13.6","80.8","NAN","0.0"],
    [1544028,"2026-03-01 18:50:00","55784","1.459","228.1","2.613","227.5","1023.6139999999999","13.56","81.3","NAN","0.0"],
    [1544029,"2026-03-01 19:00:00","55785","1.035","220.6","2.254","228.7","1023.577","13.46","81.9","NAN","0.0"],
    [1544030,"2026-03-01 19:10:00","55786","0.8859999999999999","225.9","2.319","236.8","1023.5110000000001","13.39","82.5","NAN","0.0"],
    [1544031,"2026-03-01 19:20:00","55787","1.202","222.1","2.319","231.8","1023.549","13.34","82.9","NAN","0.0"],
    [1544032,"2026-03-01 19:30:00","55788","0.828","232.8","1.96","235.7","1023.6089999999999","13.36","83","NAN","0.0"],
    [1544033,"2026-03-01 19:40:00","55789","1.006","221.9","2.123","248.7","1023.607","13.38","82.9","NAN","0.0"],
    [1544034,"2026-03-01 19:50:00","55790","1.024","222.8","2.5810000000000004","217.4","1023.6039999999999","13.34","83.1","NAN","0.0"],
    [1544035,"2026-03-01 20:00:00","55791","0.982","223.7","2.0909999999999997","227.1","1023.6089999999999","13.33","83.2","NAN","0.0"],
    [1544036,"2026-03-01 20:10:00","55792","1.149","226.6","2.9730000000000003","233.2","1023.6189999999999","13.28","83.6","NAN","0.0"],
    [1544037,"2026-03-01 20:20:00","55793","1.0390000000000001","206.0","2.45","183.5","1023.701","13.17","84.3","NAN","0.0"],
    [1544038,"2026-03-01 20:30:00","55794","0.799","212.0","1.47","219.4","1023.7389999999999","13.09","84.7","NAN","0.0"],
    [1544039,"2026-03-01 20:40:00","55795","0.9229999999999999","206.2","2.156","237.6","1023.7389999999999","13","84.6","NAN","0.0"],
    [1544040,"2026-03-01 20:50:00","55796","0.9279999999999999","206.2","2.156","232.5","1023.674","12.89","84.9","NAN","0.0"],
    [1544041,"2026-03-01 21:00:00","55797","0.736","222.2","2.025","253.7","1023.628","13","82.8","NAN","0.0"],
    [1544042,"2026-03-01 21:10:00","55798","0.9179999999999999","198.6","1.633","210.9","1023.7239999999999","12.83","83.5","NAN","0.0"],
    [1544043,"2026-03-01 21:20:00","55799","0.996","190.1","1.4369999999999998","213.0","1023.7260000000001","12.63","84.4","NAN","0.0"],
    [1544044,"2026-03-01 21:30:00","55800","1.016","189.8","1.4369999999999998","192.6","1023.69","12.54","84.3","NAN","0.0"],
    [1544045,"2026-03-01 21:40:00","55801","1.037","204.9","1.829","199.5","1023.62","12.47","84","NAN","0.0"],
    [1544046,"2026-03-01 21:50:00","55802","1.008","212.6","1.9269999999999998","249.1","1023.6080000000001","12.41","82.8","NAN","0.0"],
    [1544047,"2026-03-01 22:00:00","55803","0.991","201.0","1.5030000000000001","198.2","1023.576","12.4","82","NAN","0.0"],
    [1544048,"2026-03-01 22:10:00","55804","0.9109999999999999","199.4","1.633","208.8","1023.503","12.3","82.7","NAN","0.0"],
    [1544049,"2026-03-01 22:20:00","55805","1.045","197.5","1.797","215.5","1023.5060000000001","12.32","82.3","NAN","0.0"],
    [1544050,"2026-03-01 22:30:00","55806","0.828","205.0","1.339","198.1","1023.475","12.24","82.2","NAN","0.0"],
    [1544051,"2026-03-01 22:40:00","55807","0.777","201.3","1.339","197.3","1023.3919999999999","12.24","82","NAN","0.0"],
    [1544052,"2026-03-01 22:50:00","55808","0.5670000000000001","220.0","1.2409999999999999","218.6","1023.37","12.3","81.1","NAN","0.0"],
    [1544053,"2026-03-01 23:00:00","55809","0.35700000000000004","240.4","1.47","341.5","1023.2819999999999","12.45","79.67","NAN","0.0"],
    [1544054,"2026-03-01 23:10:00","55810","0.725","245.5","1.405","217.7","1023.191","12.6","78.84","NAN","0.0"],
    [1544055,"2026-03-01 23:20:00","55811","0.35100000000000003","240.6","0.8490000000000001","196.8","1023.073","12.34","80.9","NAN","0.0"],
    [1544056,"2026-03-01 23:30:00","55812","0.195","269.9","1.176","272.9","1023.012","12.34","79.84","NAN","0.0"],
    [1544057,"2026-03-01 23:40:00","55813","0.594","188.4","0.9470000000000001","171.9","1022.9639999999999","12.25","81.1","NAN","0.0"],
    [1544058,"2026-03-01 23:50:00","55814","0.475","185.6","0.915","182.6","1022.8860000000001","11.84","85","NAN","0.0"],
    [1544059,"2026-03-02 00:00:00","55815","0.41200000000000003","192.6","0.6859999999999999","198.5","1022.812","11.6","86","NAN","0.0"],
    [1544060,"2026-03-02 00:10:00","55816","0.41","205.2","0.653","208.6","1022.78","11.59","86.7","NAN","0.0"],
    [1544061,"2026-03-02 00:20:00","55817","0.54","187.6","0.915","196.8","1022.75","11.59","86.7","NAN","0.0"],
    [1544062,"2026-03-02 00:30:00","55818","0.46799999999999997","204.4","0.7190000000000001","204.2","1022.687","11.52","86.7","NAN","0.0"],
    [1544063,"2026-03-02 00:40:00","55819","0.392","208.9","0.8170000000000001","217.9","1022.6339999999999","11.45","86.4","NAN","0.0"],
    [1544064,"2026-03-02 00:50:00","55820","0.152","196.8","0.49","207.0","1022.5360000000001","11.44","86.1","NAN","0.0"],
    [1544065,"2026-03-02 01:00:00","55821","0.187","206.2","0.7509999999999999","208.6","1022.44","11.37","85.7","NAN","0.0"],
    [1544066,"2026-03-02 01:10:00","55822","0.517","210.3","0.8490000000000001","219.0","1022.426","11.42","85.2","NAN","0.0"],
    [1544067,"2026-03-02 01:20:00","55823","0.507","229.7","1.111","237.0","1022.329","11.57","83.8","NAN","0.0"],
    [1544068,"2026-03-02 01:30:00","55824","0.478","241.5","1.4369999999999998","268.1","1022.301","11.72","82.2","NAN","0.0"],
    [1544069,"2026-03-02 01:40:00","55825","0.297","237.9","1.339","244.5","1022.217","11.91","81","NAN","0.0"],
    [1544070,"2026-03-02 01:50:00","55826","0.46399999999999997","55.39","0.882","46.71","1022.078","11.5","82.9","NAN","0.0"],
    [1544071,"2026-03-02 02:00:00","55827","0.586","51.95","0.7190000000000001","54.99","1021.919","11.23","84.6","NAN","0.0"],
    [1544072,"2026-03-02 02:10:00","55828","0.473","42.03","0.7509999999999999","43.71","1021.773","11.2","84.6","NAN","0.0"],
    [1544073,"2026-03-02 02:20:00","55829","0.489","29.35","0.9470000000000001","21.12","1021.6360000000001","11.02","85.5","NAN","0.0"],
    [1544074,"2026-03-02 02:30:00","55830","0.613","27.46","1.176","37.54","1021.555","11.05","85.3","NAN","0.0"],
    [1544075,"2026-03-02 02:40:00","55831","0.382","35.3","1.045","46.24","1021.428","10.99","85.1","NAN","0.0"],
    [1544076,"2026-03-02 02:50:00","55832","0.21600000000000003","30.79","0.784","30.38","1021.3560000000001","10.76","85.9","NAN","0.0"],
    [1544077,"2026-03-02 03:00:00","55833","0.0","0.0","0.0","0.0","1021.322","10.6","87.1","NAN","0.0"],
    [1544078,"2026-03-02 03:10:00","55834","0.336","32.92","0.6859999999999999","30.51","1021.306","10.53","87.6","NAN","0.0"],
    [1544079,"2026-03-02 03:20:00","55835","0.516","29.59","1.078","11.51","1021.154","10.53","87.3","NAN","0.0"],
    [1544080,"2026-03-02 03:30:00","55836","0.099","31.17","0.882","29.82","1021.072","10.5","86.5","NAN","0.0"],
    [1544081,"2026-03-02 03:40:00","55837","0.0","0.0","0.0","0.0","1021.07","10.28","87.4","NAN","0.0"],
    [1544082,"2026-03-02 03:50:00","55838","0.196","31.62","0.784","26.44","1021.07","10.35","87.5","NAN","0.0"],
    [1544083,"2026-03-02 04:00:00","55839","0.193","33.7","0.784","32.85","1021.07","10.3","87.2","NAN","0.0"],
    [1544084,"2026-03-02 04:10:00","55840","0.375","31.24","1.209","34.07","1021.07","10.2","87.2","NAN","0.0"],
    [1544085,"2026-03-02 04:20:00","55841","0.247","7.539","0.8490000000000001","9.41","1021.07","10.06","87.2","NAN","0.0"],
    [1544086,"2026-03-02 04:30:00","55842","0.5770000000000001","5.561","1.045","0.737","1021.049","10.19","86.6","NAN","0.0"],
    [1544087,"2026-03-02 04:40:00","55843","0.445","26.31","0.882","39.43","1021.03","10.25","85.3","NAN","0.0"],
    [1544088,"2026-03-02 04:50:00","55844","0.5589999999999999","19.14","1.568","33.04","1020.94","10.06","85.6","NAN","0.0"],
    [1544089,"2026-03-02 05:00:00","55845","0.382","21.6","1.045","19.85","1020.945","9.95","85.7","NAN","0.0"],
    [1544090,"2026-03-02 05:10:00","55846","0.42700000000000005","6.08","0.98","16.79","1020.9069999999999","9.96","85.6","NAN","0.0"],
    [1544091,"2026-03-02 05:20:00","55847","0.405","355.3","0.7509999999999999","357.7","1020.915","10.22","84","NAN","0.0"],
    [1544092,"2026-03-02 05:30:00","55848","0.177","28.57","0.6859999999999999","28.63","1020.885","10.01","84.1","NAN","0.0"],
    [1544093,"2026-03-02 05:40:00","55849","0.33899999999999997","19.32","0.784","21.39","1020.82","9.83","85.3","NAN","0.0"],
    [1544094,"2026-03-02 05:50:00","55850","0.47","22.61","1.045","11.84","1020.82","9.76","85.6","NAN","0.0"],
    [1544095,"2026-03-02 06:00:00","55851","0.815","7.343","1.5030000000000001","17.88","1020.82","9.97","83.8","NAN","0.0"],
    [1544096,"2026-03-02 06:10:00","55852","0.474","3.045","1.111","3.365","1020.82","10.04","83.1","NAN","0.0"],
    [1544097,"2026-03-02 06:20:00","55853","0.539","7.894","1.143","18.2","1020.813","9.87","83.7","NAN","0.0"],
    [1544098,"2026-03-02 06:30:00","55854","0.6559999999999999","3.677","1.143","7.211","1020.7260000000001","9.9","83.3","NAN","0.0"],
    [1544099,"2026-03-02 06:40:00","55855","0.376","8.6","1.013","352.2","1020.783","9.91","82.7","NAN","0.0"],
    [1544100,"2026-03-02 06:50:00","55856","0.44299999999999995","21.99","0.915","341.5","1020.82","9.78","83.5","NAN","0.0"],
    [1544101,"2026-03-02 07:00:00","55857","0.24","53.82","0.6859999999999999","50.92","1020.928","10.23","81.8","NAN","0.0"],
    [1544102,"2026-03-02 07:10:00","55858","0.38299999999999995","34.2","1.111","37.06","1021.06","10.57","79.98","NAN","0.0"],
    [1544103,"2026-03-02 07:20:00","55859","0.615","35.36","1.274","73.05","1021.064","10.79","78.37","NAN","0.0"],
    [1544104,"2026-03-02 07:30:00","55860","0.6990000000000001","50.88","1.274","58.88","1021.1469999999999","11","77.39","NAN","0.0"],
    [1544105,"2026-03-02 07:40:00","55861","0.787","45.71","1.8619999999999999","50.79","1021.1469999999999","11.42","75.66","NAN","0.0"],
    [1544106,"2026-03-02 07:50:00","55862","0.684","63.84","1.111","77.97","1021.243","11.63","74.81","NAN","0.0"],
    [1544107,"2026-03-02 08:00:00","55863","0.511","78.33","1.111","76.77","1021.319","12.23","72.51","NAN","0.0"],
    [1544108,"2026-03-02 08:10:00","55864","0.22899999999999998","105.5","0.784","90.1","1021.301","12.91","69.89","NAN","0.0"],
    [1544109,"2026-03-02 08:20:00","55865","0.26","117.8","0.8170000000000001","118.0","1021.427","13.36","68.67","NAN","0.0"],
    [1544110,"2026-03-02 08:30:00","55866","0.392","115.7","0.98","142.2","1021.428","13.4","68.27","NAN","0.0"],
    [1544111,"2026-03-02 08:40:00","55867","0.652","113.0","1.176","107.9","1021.523","13.37","68.8","NAN","0.0"],
    [1544112,"2026-03-02 08:50:00","55868","0.5589999999999999","103.4","1.601","103.3","1021.55","13.82","66.55","NAN","0.0"],
    [1544113,"2026-03-02 09:00:00","55869","0.429","90.6","1.111","61.86","1021.62","14.31","65.47","NAN","0.0"],
    [1544114,"2026-03-02 09:10:00","55870","0.802","110.1","1.633","95.8","1021.747","14.85","65.19","NAN","0.0"],
    [1544115,"2026-03-02 09:20:00","55871","1.091","150.4","2.0580000000000003","161.6","1021.807","14.25","69.82","NAN","0.0"],
    [1544116,"2026-03-02 09:30:00","55872","1.143","132.3","2.025","163.3","1021.807","13.4","74.68","NAN","0.0"],
    [1544117,"2026-03-02 09:40:00","55873","1.165","132.6","2.025","140.0","1021.8939999999999","13.32","75.71","NAN","0.0"],
    [1544118,"2026-03-02 09:50:00","55874","1.024","126.8","1.666","118.8","1021.829","13.42","76.04","NAN","0.0"],
    [1544119,"2026-03-02 10:00:00","55875","1.05","137.4","1.8619999999999999","134.9","1021.804","13.41","76.43","NAN","0.0"],
    [1544120,"2026-03-02 10:10:00","55876","1.031","141.0","1.895","155.0","1021.834","13.4","76.58","NAN","0.0"],
    [1544121,"2026-03-02 10:20:00","55877","1.051","140.1","1.895","151.7","1021.921","13.41","76.46","NAN","0.0"],
    [1544122,"2026-03-02 10:30:00","55878","0.9","139.2","1.601","191.7","1021.936","13.46","76.85","NAN","0.0"],
    [1544123,"2026-03-02 10:40:00","55879","1.153","123.6","1.96","118.7","1022.033","13.49","77.16","NAN","0.0"],
    [1544124,"2026-03-02 10:50:00","55880","1.294","121.3","2.189","101.2","1021.9830000000001","13.41","78.47","NAN","0.0"],
    [1544125,"2026-03-02 11:00:00","55881","0.902","153.4","2.025","165.4","1021.926","13.58","77.31","NAN","0.0"],
    [1544126,"2026-03-02 11:10:00","55882","1.033","133.2","1.993","144.0","1021.924","13.69","77.02","NAN","0.0"],
    [1544127,"2026-03-02 11:20:00","55883","1.2409999999999999","136.7","2.221","162.3","1021.924","13.81","75.69","NAN","0.0"],
    [1544128,"2026-03-02 11:30:00","55884","1.422","129.0","2.7110000000000003","140.4","1021.791","13.95","75.2","NAN","0.0"],
    [1544129,"2026-03-02 11:40:00","55885","1.6369999999999998","104.5","3.6260000000000003","107.8","1021.6439999999999","14.21","74.86","NAN","0.0"],
    [1544130,"2026-03-02 11:50:00","55886","2.039","88.9","3.463","107.0","1021.44","14.49","73.24","NAN","0.0"],
    [1544131,"2026-03-02 12:00:00","55887","2.102","98.6","3.7889999999999997","108.0","1021.263","14.65","72.3","NAN","0.0"],
    [1544132,"2026-03-02 12:10:00","55888","2.439","116.5","3.855","110.4","1021.176","14.3","73.61","NAN","0.0"],
    [1544133,"2026-03-02 12:20:00","55889","2.717","112.0","4.377","94.7","1021.166","14.21","74.21","NAN","0.0"],
    [1544134,"2026-03-02 12:30:00","55890","2.061","106.3","3.985","107.2","1021.1060000000001","14.53","73.4","NAN","0.0"],
    [1544135,"2026-03-02 12:40:00","55891","2.189","107.2","4.312","107.8","1020.9689999999999","14.66","72.75","NAN","0.0"],
    [1544136,"2026-03-02 12:50:00","55892","2.0069999999999997","106.7","3.659","113.0","1020.927","14.53","73.21","NAN","0.0"],
    [1544137,"2026-03-02 13:00:00","55893","2.0340000000000003","108.4","3.6910000000000003","117.6","1020.852","14.62","73.24","NAN","0.0"],
    [1544138,"2026-03-02 13:10:00","55894","2.221","98.7","4.149","97.3","1020.686","14.72","73.07","NAN","0.0"],
    [1544139,"2026-03-02 13:20:00","55895","2.0580000000000003","104.2","3.6910000000000003","102.7","1020.6410000000001","14.7","72.74","NAN","0.0"],
    [1544140,"2026-03-02 13:30:00","55896","2.024","114.1","3.593","112.0","1020.551","14.78","72.75","NAN","0.0"],
    [1544141,"2026-03-02 13:40:00","55897","2.1630000000000003","127.3","3.593","113.1","1020.437","14.58","73.88","NAN","0.0"],
    [1544142,"2026-03-02 13:50:00","55898","2.023","127.1","3.136","153.6","1020.309","14.78","73.79","NAN","0.0"],
    [1544143,"2026-03-02 14:00:00","55899","2.151","130.1","4.018","128.3","1020.183","14.68","74.85","NAN","0.0"],
    [1544144,"2026-03-02 14:10:00","55900","1.8319999999999999","136.8","3.593","144.9","1020.18","14.65","75.41","NAN","0.0"],
    [1544145,"2026-03-02 14:20:00","55901","2.039","128.4","3.1689999999999996","135.8","1020.143","14.21","77.69","NAN","0.0"],
    [1544146,"2026-03-02 14:30:00","55902","2.032","124.9","3.528","128.4","1020.045","14.22","78.74","NAN","0.0"],
    [1544147,"2026-03-02 14:40:00","55903","2.165","123.8","3.887","113.6","1019.956","14.45","77.08","NAN","0.0"],
    [1544148,"2026-03-02 14:50:00","55904","2.002","123.3","3.1689999999999996","107.8","1019.966","14.38","77.92","NAN","0.0"],
    [1544149,"2026-03-02 15:00:00","55905","2.0269999999999997","122.6","3.593","116.8","1019.944","14.22","78.95","NAN","0.0"],
    [1544150,"2026-03-02 15:10:00","55906","1.8730000000000002","124.0","2.9730000000000003","112.4","1019.941","14.22","79.38","NAN","0.0"],
    [1544151,"2026-03-02 15:20:00","55907","1.913","123.2","3.822","112.0","1019.931","13.95","80.6","NAN","0.0"],
    [1544152,"2026-03-02 15:30:00","55908","1.875","123.0","3.136","107.1","1019.926","13.87","81.7","NAN","0.0"],
    [1544153,"2026-03-02 15:40:00","55909","2.062","129.5","3.528","136.0","1019.7289999999999","13.84","81.9","NAN","0.0"],
    [1544154,"2026-03-02 15:50:00","55910","2.0","129.2","3.365","141.9","1019.575","13.82","82.4","NAN","0.0"],
    [1544155,"2026-03-02 16:00:00","55911","1.625","130.8","3.103","149.2","1019.557","13.93","82.4","NAN","0.0"],
    [1544156,"2026-03-02 16:10:00","55912","1.689","133.0","2.875","123.6","1019.568","13.99","82.2","NAN","0.0"],
    [1544157,"2026-03-02 16:20:00","55913","1.444","132.3","2.613","114.2","1019.68","14","80.7","NAN","0.0"],
    [1544158,"2026-03-02 16:30:00","55914","1.436","128.0","2.7439999999999998","117.2","1019.68","13.94","81.6","NAN","0.0"],
    [1544159,"2026-03-02 16:40:00","55915","1.537","125.5","2.483","107.4","1019.645","13.88","81.9","NAN","0.0"],
    [1544160,"2026-03-02 16:50:00","55916","1.321","123.5","2.6460000000000004","134.0","1019.6569999999999","13.86","82.2","NAN","0.0"],
    [1544161,"2026-03-02 17:00:00","55917","1.4509999999999998","125.5","2.679","140.6","1019.659","13.84","83.3","NAN","0.0"],
    [1544162,"2026-03-02 17:10:00","55918","1.374","126.0","2.875","141.8","1019.5930000000001","13.78","83.2","NAN","0.0"],
    [1544163,"2026-03-02 17:20:00","55919","1.401","137.0","2.483","102.4","1019.674","13.73","81.6","NAN","0.0"],
    [1544164,"2026-03-02 17:30:00","55920","1.459","129.6","2.287","116.6","1019.747","13.69","81.9","NAN","0.0"],
    [1544165,"2026-03-02 17:40:00","55921","1.649","127.1","2.6460000000000004","137.0","1019.91","13.67","82.2","NAN","0.0"],
    [1544166,"2026-03-02 17:50:00","55922","1.693","125.3","2.875","138.3","1020.048","13.64","82.3","NAN","0.0"],
    [1544167,"2026-03-02 18:00:00","55923","1.399","122.4","2.679","133.6","1020.198","13.62","82.2","NAN","0.0"],
    [1544168,"2026-03-02 18:10:00","55924","1.515","134.2","2.6460000000000004","136.7","1020.204","13.62","82.2","NAN","0.0"],
    [1544169,"2026-03-02 18:20:00","55925","0.975","116.5","2.0909999999999997","122.7","1020.227","13.59","82.2","NAN","0.0"],
    [1544170,"2026-03-02 18:30:00","55926","1.514","121.5","2.7110000000000003","102.8","1020.28","13.64","83","NAN","0.0"],
    [1544171,"2026-03-02 18:40:00","55927","1.544","119.6","2.515","117.1","1020.3430000000001","13.61","82.8","NAN","0.0"],
    [1544172,"2026-03-02 18:50:00","55928","0.825","112.1","1.96","63.73","1020.346","13.57","83.2","NAN","0.0"],
    [1544173,"2026-03-02 19:00:00","55929","1.466","122.5","2.6460000000000004","114.9","1020.461","13.52","83.6","NAN","0.0"],
    [1544174,"2026-03-02 19:10:00","55930","1.4869999999999999","120.2","2.907","117.6","1020.472","13.51","83.7","NAN","0.0"],
    [1544175,"2026-03-02 19:20:00","55931","1.2890000000000001","128.4","2.417","120.2","1020.66","13.5","84.5","NAN","0.0"],
    [1544176,"2026-03-02 19:30:00","55932","1.15","117.2","2.875","128.4","1020.7239999999999","13.49","84.3","NAN","0.0"],
    [1544177,"2026-03-02 19:40:00","55933","1.2329999999999999","112.3","2.385","102.2","1020.732","13.5","83.9","NAN","0.0"],
    [1544178,"2026-03-02 19:50:00","55934","1.057","102.7","2.156","104.5","1020.737","13.5","83.2","NAN","0.0"],
    [1544179,"2026-03-02 20:00:00","55935","1.42","106.2","2.5810000000000004","117.0","1020.732","13.47","84","NAN","0.0"],
    [1544180,"2026-03-02 20:10:00","55936","1.537","88.3","2.7439999999999998","113.2","1020.743","13.47","84.7","NAN","0.0"],
    [1544181,"2026-03-02 20:20:00","55937","1.328","79.55","2.679","65.06","1020.798","13.47","84.5","NAN","0.0"],
    [1544182,"2026-03-02 20:30:00","55938","1.3519999999999999","75.93","3.0380000000000003","111.4","1020.8710000000001","13.45","84.4","NAN","0.0"],
    [1544183,"2026-03-02 20:40:00","55939","1.915","64.23","3.495","71.2","1020.91","13.43","84.6","NAN","0.0"],
    [1544184,"2026-03-02 20:50:00","55940","1.4480000000000002","74.09","3.103","80.4","1020.997","13.43","84.1","NAN","0.0"],
    [1544185,"2026-03-02 21:00:00","55941","1.871","77.07","3.822","76.91","1021.115","13.45","84.2","NAN","0.0"],
    [1544186,"2026-03-02 21:10:00","55942","1.485","72.56","3.822","69.55","1021.163","13.42","83.6","NAN","0.0"],
    [1544187,"2026-03-02 21:20:00","55943","1.939","74.97","4.149","68.73","1021.049","13.42","83.5","NAN","0.0"],
    [1544188,"2026-03-02 21:30:00","55944","2.116","72.04","3.6910000000000003","69.29","1021.064","13.42","83.4","NAN","0.0"],
    [1544189,"2026-03-02 21:40:00","55945","1.744","86.2","3.365","111.2","1021.247","13.42","84.2","NAN","0.0"],
    [1544190,"2026-03-02 21:50:00","55946","1.8559999999999999","68.46","3.7569999999999997","77.76","1021.2439999999999","13.39","83.4","NAN","0.0"],
    [1544191,"2026-03-02 22:00:00","55947","2.5","65.54","4.475","70.7","1021.242","13.38","83","NAN","0.0"],
    [1544192,"2026-03-02 22:10:00","55948","2.289","77.92","3.6910000000000003","70.11","1021.195","13.38","83.1","NAN","0.0"],
    [1544193,"2026-03-02 22:20:00","55949","2.387","72.64","4.475","69.74","1021.168","13.38","82.7","NAN","0.0"],
    [1544194,"2026-03-02 22:30:00","55950","2.276","75.95","4.508","81.5","1021.206","13.38","83","NAN","0.0"],
    [1544195,"2026-03-02 22:40:00","55951","1.8659999999999999","61.93","4.149","73.31","1021.1339999999999","13.38","83","NAN","0.0"],
    [1544196,"2026-03-02 22:50:00","55952","1.665","48.12","3.0380000000000003","45.12","1021.133","13.38","83.1","NAN","0.0"],
    [1544197,"2026-03-02 23:00:00","55953","1.929","47.38","4.1160000000000005","40.47","1021.043","13.37","83.1","NAN","0.0"],
    [1544198,"2026-03-02 23:10:00","55954","1.724","54.21","4.149","48.13","1021.095","13.35","82.7","NAN","0.0"],
    [1544199,"2026-03-02 23:20:00","55955","1.956","43.54","4.018","45.33","1021.0239999999999","13.36","83","NAN","0.0"],
    [1544200,"2026-03-02 23:30:00","55956","1.43","46.5","3.005","59.17","1021.155","13.27","83.1","NAN","0.0"],
    [1544201,"2026-03-02 23:40:00","55957","1.994","45.28","3.7569999999999997","59.29","1021.195","13.19","83.3","NAN","0.0"],
    [1544202,"2026-03-02 23:50:00","55958","1.673","47.54","3.528","26.31","1021.199","13.14","83.4","NAN","0.0"],
    [1544203,"2026-03-03 00:00:00","55959","1.704","43.46","2.907","43.78","1021.15","13.12","83.4","NAN","0.0"],
    [1544204,"2026-03-03 00:10:00","55960","1.767","46.84","3.659","57.9","1021.1030000000001","13.1","83.2","NAN","0.0"],
    [1544205,"2026-03-03 00:20:00","55961","1.796","39.53","3.365","33.06","1021.076","13.07","82.8","NAN","0.0"],
    [1544206,"2026-03-03 00:30:00","55962","1.236","44.3","2.7769999999999997","22.95","1021.133","13.07","82.7","NAN","0.0"],
    [1544207,"2026-03-03 00:40:00","55963","1.6119999999999999","41.79","3.5610000000000004","34.06","1021.24","13.05","82.5","NAN","0.0"],
    [1544208,"2026-03-03 00:50:00","55964","1.814","45.35","4.051","31.45","1021.247","13.06","82.3","NAN","0.0"],
    [1544209,"2026-03-03 01:00:00","55965","1.6130000000000002","42.15","3.0380000000000003","31.09","1021.18","13.06","82.4","NAN","0.0"],
    [1544210,"2026-03-03 01:10:00","55966","1.88","41.16","3.7889999999999997","25.32","1021.0210000000001","13.06","82.2","NAN","0.0"],
    [1544211,"2026-03-03 01:20:00","55967","1.6469999999999998","43.45","2.9730000000000003","13.47","1021.0010000000001","13.03","82.1","NAN","0.0"],
    [1544212,"2026-03-03 01:30:00","55968","1.067","35.54","3.5610000000000004","29.37","1020.998","12.99","81.2","NAN","0.0"],
    [1544213,"2026-03-03 01:40:00","55969","1.037","32.74","2.45","31.75","1021.0139999999999","12.96","80.4","NAN","0.0"],
    [1544214,"2026-03-03 01:50:00","55970","1.095","23.04","2.548","13.28","1021.028","12.94","79.09","NAN","0.0"],
    [1544215,"2026-03-03 02:00:00","55971","1.4080000000000001","37.02","2.94","25.5","1020.998","12.93","78.16","NAN","0.0"],
    [1544216,"2026-03-03 02:10:00","55972","0.915","26.32","2.548","8.8","1021.056","12.93","77.79","NAN","0.0"],
    [1544217,"2026-03-03 02:20:00","55973","1.083","56.06","2.515","88.2","1021.096","12.91","77.92","NAN","0.0"],
    [1544218,"2026-03-03 02:30:00","55974","0.8759999999999999","65.21","2.613","72.01","1021.188","13","78.22","NAN","0.0"],
    [1544219,"2026-03-03 02:40:00","55975","1.611","41.45","3.7569999999999997","37.84","1021.0110000000001","13.14","77.6","NAN","0.0"],
    [1544220,"2026-03-03 02:50:00","55976","0.853","20.34","1.9269999999999998","9.08","1020.9680000000001","13.13","76.66","NAN","0.0"],
    [1544221,"2026-03-03 03:00:00","55977","1.4969999999999999","7.392","3.136","32.11","1020.9580000000001","13.04","76.11","NAN","0.0"],
    [1544222,"2026-03-03 03:10:00","55978","1.474","15.67","3.201","28.85","1020.998","13.03","75.5","NAN","0.0"],
    [1544223,"2026-03-03 03:20:00","55979","1.08","22.03","2.7769999999999997","27.01","1020.998","13.08","74.88","NAN","0.0"],
    [1544224,"2026-03-03 03:30:00","55980","1.382","20.4","3.593","16.49","1020.982","13.15","74.72","NAN","0.0"],
    [1544225,"2026-03-03 03:40:00","55981","1.28","22.32","3.5610000000000004","13.35","1020.927","13.2","75.06","NAN","0.0"],
    [1544226,"2026-03-03 03:50:00","55982","1.511","22.68","3.528","16.36","1020.9989999999999","13.13","76.28","NAN","0.0"],
    [1544227,"2026-03-03 04:00:00","55983","1.17","33.86","3.005","39.8","1021.1560000000001","13.07","76.68","NAN","0.0"],
    [1544228,"2026-03-03 04:10:00","55984","1.53","26.2","3.103","25.73","1021.194","13.06","76.99","NAN","0.0"],
    [1544229,"2026-03-03 04:20:00","55985","1.27","32.3","3.659","37.91","1021.053","12.94","79.12","NAN","0.0"],
    [1544230,"2026-03-03 04:30:00","55986","1.483","31.61","3.299","66.74","1020.9580000000001","12.76","80.1","NAN","0.0"],
    [1544231,"2026-03-03 04:40:00","55987","1.3559999999999999","27.97","3.071","37.34","1020.9960000000001","12.72","80.2","NAN","0.0"],
    [1544232,"2026-03-03 04:50:00","55988","1.008","14.84","3.397","18.06","1021.0110000000001","12.74","80.1","NAN","0.0"],
    [1544233,"2026-03-03 05:00:00","55989","1.379","10.94","2.7439999999999998","358.6","1020.993","12.8","79.84","NAN","0.0"],
    [1544234,"2026-03-03 05:10:00","55990","1.1540000000000001","11.23","2.613","11.75","1021.066","12.83","79.28","NAN","0.0"],
    [1544235,"2026-03-03 05:20:00","55991","1.075","17.56","2.417","355.0","1021.165","12.81","79.1","NAN","0.0"],
    [1544236,"2026-03-03 05:30:00","55992","0.738","7.65","1.829","12.95","1021.21","12.91","78.52","NAN","0.0"],
    [1544237,"2026-03-03 05:40:00","55993","0.778","19.17","1.895","359.5","1021.1289999999999","12.97","77.56","NAN","0.0"],
    [1544238,"2026-03-03 05:50:00","55994","1.173","16.3","2.875","13.33","1021.135","12.97","77.2","NAN","0.0"],
    [1544239,"2026-03-03 06:00:00","55995","1.0590000000000002","19.09","2.515","345.4","1021.0939999999999","13.06","76.61","NAN","0.0"],
    [1544240,"2026-03-03 06:10:00","55996","1.1159999999999999","13.55","2.5810000000000004","15.18","1021.107","13.23","76.02","NAN","0.0"],
    [1544241,"2026-03-03 06:20:00","55997","1.161","25.73","3.267","8.46","1020.992","13.37","75.58","NAN","0.0"],
    [1544242,"2026-03-03 06:30:00","55998","0.8640000000000001","24.56","2.156","15.87","1020.933","13.46","75.31","NAN","0.0"],
    [1544243,"2026-03-03 06:40:00","55999","1.315","30.37","2.9730000000000003","52.05","1020.9","13.53","74.84","NAN","0.0"],
    [1544244,"2026-03-03 06:50:00","56000","1.402","36.72","3.136","37.47","1020.966","13.59","74.59","NAN","0.0"],
    [1544245,"2026-03-03 07:00:00","56001","1.3330000000000002","23.19","2.875","52.69","1020.948","13.66","74.3","NAN","0.0"],
    [1544246,"2026-03-03 07:10:00","56002","1.374","12.25","3.1689999999999996","9.65","1020.944","13.67","74.04","NAN","0.0"],
    [1544247,"2026-03-03 07:20:00","56003","1.273","16.51","3.267","6.888","1020.942","13.61","74.04","NAN","0.0"],
    [1544248,"2026-03-03 07:30:00","56004","1.199","32.52","2.7439999999999998","73.45","1020.8910000000001","13.72","73.76","NAN","0.0"],
    [1544249,"2026-03-03 07:40:00","56005","1.208","28.4","3.005","42.6","1020.8960000000001","13.87","73.22","NAN","0.0"],
    [1544250,"2026-03-03 07:50:00","56006","1.368","25.39","3.593","75.07","1020.915","14.04","72.43","NAN","0.0"],
    [1544251,"2026-03-03 08:00:00","56007","1.319","37.03","3.005","52.04","1021.0039999999999","14.11","72.07","NAN","0.0"],
    [1544252,"2026-03-03 08:10:00","56008","1.405","41.9","3.6910000000000003","52.11","1021.118","14.29","72.02","NAN","0.0"],
    [1544253,"2026-03-03 08:20:00","56009","2.003","38.38","3.7889999999999997","33.75","1021.174","14.52","71.56","NAN","0.0"],
    [1544254,"2026-03-03 08:30:00","56010","1.9","32.92","4.2139999999999995","46.24","1021.2639999999999","14.75","71.17","NAN","0.0"],
    [1544255,"2026-03-03 08:40:00","56011","2.6","42.55","5.521","34.14","1021.301","14.91","71.08","NAN","0.0"],
    [1544256,"2026-03-03 08:50:00","56012","1.943","60.59","5.7170000000000005","75.99","1021.4060000000001","15.18","72.14","NAN","0.0"],
    [1544257,"2026-03-03 09:00:00","56013","2.8789999999999996","71.22","6.893","78.68","1021.428","15.17","74.56","NAN","0.0"],
    [1544258,"2026-03-03 09:10:00","56014","2.248","64.87","4.541","71.54","1021.42","15.19","74.69","NAN","0.0"],
    [1544259,"2026-03-03 09:20:00","56015","2.965","45.5","5.521","53.98","1021.373","15.26","74.33","NAN","0.0"],
    [1544260,"2026-03-03 09:30:00","56016","2.4659999999999997","52.34","5.782","54.04","1021.418","15.44","73.32","NAN","0.0"],
    [1544261,"2026-03-03 09:40:00","56017","2.269","59.78","6.9910000000000005","66.27","1021.53","15.62","72.62","NAN","0.0"],
    [1544262,"2026-03-03 09:50:00","56018","3.283","76.54","7.317","71.39","1021.655","15.65","72.87","NAN","0.0"],
    [1544263,"2026-03-03 10:00:00","56019","4.148","75.9","7.611000000000001","77.94","1021.747","15.53","73.88","NAN","0.0"],
    [1544264,"2026-03-03 10:10:00","56020","4.803","74.45","8.33","59.92","1021.7689999999999","15.52","74.65","NAN","0.0"],
    [1544265,"2026-03-03 10:20:00","56021","4.821000000000001","75.79","8.33","69.2","1021.867","15.44","75.55","NAN","0.0"],
    [1544266,"2026-03-03 10:30:00","56022","6.155","73.45","11.07","65.04","1021.937","15.43","75","NAN","0.0"],
    [1544267,"2026-03-03 10:40:00","56023","5.008","74.56","9.57","88.5","1021.945","15.42","74.7","NAN","0.0"],
    [1544268,"2026-03-03 10:50:00","56024","4.463","71.73","9.57","92.8","1021.8969999999999","15.56","74.41","NAN","0.0"],
    [1544269,"2026-03-03 11:00:00","56025","4.269","65.41","8.95","73.64","1021.913","15.73","73.22","NAN","0.0"],
    [1544270,"2026-03-03 11:10:00","56026","2.872","64.3","6.239","62.34","1022.0260000000001","15.96","72.53","NAN","0.0"],
    [1544271,"2026-03-03 11:20:00","56027","4.14","74.7","8.3","66.92","1022.102","15.9","73.82","NAN","0.0"],
    [1544272,"2026-03-03 11:30:00","56028","3.095","66.68","8.46","78.87","1022.148","15.83","74.43","NAN","0.0"],
    [1544273,"2026-03-03 11:40:00","56029","2.9810000000000003","59.27","7.382999999999999","74.06","1022.168","16.06","73.26","NAN","0.0"],
    [1544274,"2026-03-03 11:50:00","56030","2.98","61.49","7.481","72.24","1022.168","15.92","74.21","NAN","0.0"],
    [1544275,"2026-03-03 12:00:00","56031","2.9560000000000004","63.76","7.382999999999999","47.43","1022.153","15.9","74.4","NAN","0.0"],
    [1544276,"2026-03-03 12:10:00","56032","2.3169999999999997","64.58","5.292000000000001","68.13","1022.065","16.2","73.36","NAN","0.0"],
    [1544277,"2026-03-03 12:20:00","56033","3.4419999999999997","56.67","8.17","53.71","1021.941","16.09","73.72","NAN","0.0"],
    [1544278,"2026-03-03 12:30:00","56034","3.262","49.49","6.9910000000000005","31.01","1021.7860000000001","16.11","73.56","NAN","0.0"],
    [1544279,"2026-03-03 12:40:00","56035","3.1630000000000003","50.64","6.566","77.3","1021.685","16.23","72.96","NAN","0.0"],
    [1544280,"2026-03-03 12:50:00","56036","4.243","52.99","7.84","64.9","1021.552","16.16","73.43","NAN","0.0"],
    [1544281,"2026-03-03 13:00:00","56037","3.355","49.3","7.709","52.84","1021.438","16.18","73.67","NAN","0.0"],
    [1544282,"2026-03-03 13:10:00","56038","3.8819999999999997","54.72","8.53","57.47","1021.2660000000001","16.14","73.83","NAN","0.0"],
    [1544283,"2026-03-03 13:20:00","56039","3.534","56.27","7.4479999999999995","72.12","1021.166","15.96","74.82","NAN","0.0"],
    [1544284,"2026-03-03 13:30:00","56040","3.385","47.54","7.35","31.21","1020.937","16.13","72.78","NAN","0.0"],
    [1544285,"2026-03-03 13:40:00","56041","3.592","51.42","7.6770000000000005","39.08","1020.847","16.57","69.03","NAN","0.0"],
    [1544286,"2026-03-03 13:50:00","56042","3.516","54.94","7.872999999999999","46.58","1020.715","16.91","66.98","NAN","0.0"],
    [1544287,"2026-03-03 14:00:00","56043","3.699","51.39","8.59","64.41","1020.579","16.88","65.7","NAN","0.0"],
    [1544288,"2026-03-03 14:10:00","56044","4.074","50.49","8.72","45.89","1020.556","17.21","63.97","NAN","0.0"],
    [1544289,"2026-03-03 14:20:00","56045","4.449","52.45","8.79","74.1","1020.4889999999999","17.1","64.62","NAN","0.0"],
    [1544290,"2026-03-03 14:30:00","56046","3.478","56.0","8.82","54.92","1020.487","17.13","65.89","NAN","0.0"],
    [1544291,"2026-03-03 14:40:00","56047","2.812","65.19","6.37","64.5","1020.444","17.13","66.3","NAN","0.0"],
    [1544292,"2026-03-03 14:50:00","56048","4.861000000000001","75.1","9.57","72.67","1020.4789999999999","16.37","71.04","NAN","0.0"],
    [1544293,"2026-03-03 15:00:00","56049","5.487","70.52","10.71","70.93","1020.5139999999999","15.96","71.08","NAN","0.0"],
    [1544294,"2026-03-03 15:10:00","56050","5.457000000000001","69.74","9.64","68.54","1020.424","15.91","72.13","NAN","0.0"],
    [1544295,"2026-03-03 15:20:00","56051","5.145","72.41","8.95","71.59","1020.362","15.9","72.06","NAN","0.0"],
    [1544296,"2026-03-03 15:30:00","56052","4.736000000000001","69.75","8.46","57.44","1020.3910000000001","15.84","73.75","NAN","0.0"],
    [1544297,"2026-03-03 15:40:00","56053","4.999","70.55","9.15","77.34","1020.245","15.79","74.25","NAN","0.0"],
    [1544298,"2026-03-03 15:50:00","56054","5.135","73.39","10.09","78.14","1020.153","15.87","73.69","NAN","0.0"],
    [1544299,"2026-03-03 16:00:00","56055","4.794","73.4","8.33","79.31","1020.048","15.86","74.19","NAN","0.0"],
    [1544300,"2026-03-03 16:10:00","56056","5.0360000000000005","73.87","9.93","77.27","1019.941","15.86","74.26","NAN","0.0"],
    [1544301,"2026-03-03 16:20:00","56057","4.678","73.7","8.23","64.91","1019.9010000000001","15.83","73.92","NAN","0.0"],
    [1544302,"2026-03-03 16:30:00","56058","4.987","71.57","8.1","72.25","1019.939","15.81","73.23","NAN","0.0"],
    [1544303,"2026-03-03 16:40:00","56059","3.028","72.15","8.17","79.03","1019.921","15.81","73.31","NAN","0.0"],
    [1544304,"2026-03-03 16:50:00","56060","2.6919999999999997","72.37","6.141","75.41","1019.961","15.82","74.51","NAN","0.0"],
    [1544305,"2026-03-03 17:00:00","56061","2.404","70.0","5.7170000000000005","75.99","1020.07","15.77","75.95","NAN","0.0"],
    [1544306,"2026-03-03 17:10:00","56062","3.389","70.46","8.3","80.7","1020.07","15.65","76.12","NAN","0.0"],
    [1544307,"2026-03-03 17:20:00","56063","1.659","57.29","3.6910000000000003","46.68","1020.168","15.68","75.61","NAN","0.0"],
    [1544308,"2026-03-03 17:30:00","56064","1.903","49.59","4.737","70.86","1020.185","15.72","74.43","NAN","0.0"],
    [1544309,"2026-03-03 17:40:00","56065","2.4419999999999997","57.09","5.684","47.08","1020.183","15.79","72.41","NAN","0.0"],
    [1544310,"2026-03-03 17:50:00","56066","2.753","45.85","6.664","46.76","1020.185","16.05","68.1","NAN","0.0"],
    [1544311,"2026-03-03 18:00:00","56067","2.983","46.38","6.337000000000001","67.95","1020.24","16.21","65.47","NAN","0.0"],
    [1544312,"2026-03-03 18:10:00","56068","3.175","46.79","7.644","57.9","1020.29","16.18","64.71","NAN","0.0"],
    [1544313,"2026-03-03 18:20:00","56069","3.378","42.76","7.84","63.28","1020.375","16.14","64.34","NAN","0.0"],
    [1544314,"2026-03-03 18:30:00","56070","2.394","54.13","5.063","22.71","1020.529","16.11","64.32","NAN","0.0"],
    [1544315,"2026-03-03 18:40:00","56071","2.773","53.13","6.925","53.24","1020.669","16.07","64.25","NAN","0.0"],
    [1544316,"2026-03-03 18:50:00","56072","2.165","64.77","4.606","55.48","1020.76","15.93","66.44","NAN","0.0"],
    [1544317,"2026-03-03 19:00:00","56073","3.2689999999999997","73.77","6.141","56.24","1020.85","15.59","71.29","NAN","0.0"],
    [1544318,"2026-03-03 19:10:00","56074","3.7539999999999996","71.77","6.795","80.0","1020.9580000000001","15.34","74.4","NAN","0.0"],
    [1544319,"2026-03-03 19:20:00","56075","5.156000000000001","72.23","8.62","76.42","1020.9839999999999","14.95","79.82","NAN","0.0"],
    [1544320,"2026-03-03 19:30:00","56076","5.109","68.43","8.79","74.38","1020.955","14.69","81.8","NAN","0.0"],
    [1544321,"2026-03-03 19:40:00","56077","5.042","68.25","9.51","85.2","1020.997","14.59","82.4","NAN","0.0"],
    [1544322,"2026-03-03 19:50:00","56078","5.681","69.37","10.03","60.92","1021.092","14.49","82.7","NAN","0.0"],
    [1544323,"2026-03-03 20:00:00","56079","5.141","66.75","10.22","63.4","1021.171","14.42","83.1","NAN","0.0"],
    [1544324,"2026-03-03 20:10:00","56080","5.334","68.38","10.06","56.73","1021.166","14.42","83.2","NAN","0.0"],
    [1544325,"2026-03-03 20:20:00","56081","4.8580000000000005","71.19","8.89","61.96","1021.2080000000001","14.48","82.2","NAN","0.0"],
    [1544326,"2026-03-03 20:30:00","56082","3.315","69.47","7.187","73.08","1021.2669999999999","14.57","81","NAN","0.0"],
    [1544327,"2026-03-03 20:40:00","56083","2.531","63.07","5.782","76.63","1021.315","14.67","79.23","NAN","0.0"],
    [1544328,"2026-03-03 20:50:00","56084","2.611","50.95","6.109","40.23","1021.398","14.74","78.18","NAN","0.0"],
    [1544329,"2026-03-03 21:00:00","56085","2.912","48.77","6.729","57.78","1021.427","14.78","78.09","NAN","0.0"],
    [1544330,"2026-03-03 21:10:00","56086","2.9589999999999996","47.38","6.272","26.51","1021.3989999999999","14.75","78.34","NAN","0.0"],
    [1544331,"2026-03-03 21:20:00","56087","2.681","46.71","6.664","28.98","1021.3889999999999","14.73","77.99","NAN","0.0"],
    [1544332,"2026-03-03 21:30:00","56088","2.303","52.45","5.553","72.59","1021.422","14.78","76.43","NAN","0.0"],
    [1544333,"2026-03-03 21:40:00","56089","2.4","52.63","4.508","67.03","1021.442","14.8","75.91","NAN","0.0"],
    [1544334,"2026-03-03 21:50:00","56090","2.595","52.16","5.88","62.09","1021.36","14.79","77.24","NAN","0.0"],
    [1544335,"2026-03-03 22:00:00","56091","2.194","50.24","4.769","51.55","1021.4119999999999","14.81","76.97","NAN","0.0"],
    [1544336,"2026-03-03 22:10:00","56092","2.3680000000000003","55.33","5.325","59.32","1021.43","14.82","76.76","NAN","0.0"],
    [1544337,"2026-03-03 22:20:00","56093","2.023","60.83","4.083","69.31","1021.438","14.84","77.02","NAN","0.0"],
    [1544338,"2026-03-03 22:30:00","56094","2.735","67.31","5.4879999999999995","95.5","1021.413","14.85","77.42","NAN","0.0"],
    [1544339,"2026-03-03 22:40:00","56095","2.248","64.05","4.933","47.49","1021.395","14.84","76.81","NAN","0.0"],
    [1544340,"2026-03-03 22:50:00","56096","1.986","62.5","3.659","62.97","1021.334","14.84","76.99","NAN","0.0"],
    [1544341,"2026-03-03 23:00:00","56097","1.91","51.5","4.541","18.18","1021.35","14.8","77.75","NAN","0.0"],
    [1544342,"2026-03-03 23:10:00","56098","2.003","58.0","4.638999999999999","62.06","1021.428","14.7","79.07","NAN","0.0"],
    [1544343,"2026-03-03 23:20:00","56099","1.6440000000000001","57.43","3.7889999999999997","64.41","1021.377","14.67","79.93","NAN","0.0"],
    [1544344,"2026-03-03 23:30:00","56100","2.1959999999999997","56.02","4.835","75.65","1021.252","14.69","79.1","NAN","0.0"],
    [1544345,"2026-03-03 23:40:00","56101","1.639","53.73","3.659","64.2","1021.187","14.75","78.03","NAN","0.0"],
    [1544346,"2026-03-03 23:50:00","56102","2.299","49.28","5.651","27.33","1021.172","14.7","78.57","NAN","0.0"],
    [1544347,"2026-03-04 00:00:00","56103","2.583","45.98","4.965","60.02","1021.1080000000001","14.68","78.62","NAN","0.0"],
    [1544348,"2026-03-04 00:10:00","56104","2.721","52.26","7.285","42.9","1021.0","14.68","78.09","NAN","0.0"],
    [1544349,"2026-03-04 00:20:00","56105","2.505","50.44","5.553","78.12","1020.898","14.71","76.98","NAN","0.0"],
    [1544350,"2026-03-04 00:30:00","56106","3.089","47.29","6.042999999999999","43.75","1020.77","14.76","75.57","NAN","0.0"],
    [1544351,"2026-03-04 00:40:00","56107","3.014","48.62","7.6770000000000005","54.58","1020.665","14.8","74.02","NAN","0.0"],
    [1544352,"2026-03-04 00:50:00","56108","2.844","50.94","8.49","52.09","1020.682","15","70.08","NAN","0.0"],
    [1544353,"2026-03-04 01:00:00","56109","2.793","48.72","5.325","64.47","1020.62","15.02","69.54","NAN","0.0"],
    [1544354,"2026-03-04 01:10:00","56110","2.46","41.59","6.0760000000000005","23.98","1020.47","15","69.79","NAN","0.0"],
    [1544355,"2026-03-04 01:20:00","56111","2.636","47.54","5.978","34.01","1020.3380000000001","14.92","70.41","NAN","0.0"],
    [1544356,"2026-03-04 01:30:00","56112","2.266","44.78","4.312","51.51","1020.279","14.87","70.5","NAN","0.0"],
    [1544357,"2026-03-04 01:40:00","56113","2.549","43.37","5.4879999999999995","45.53","1020.199","15.06","68.54","NAN","0.0"],
    [1544358,"2026-03-04 01:50:00","56114","2.063","41.27","3.7889999999999997","51.85","1020.1239999999999","15.03","67.29","NAN","0.0"],
    [1544359,"2026-03-04 02:00:00","56115","2.354","45.18","4.769","35.29","1020.107","15.05","66.54","NAN","0.0"],
    [1544360,"2026-03-04 02:10:00","56116","1.288","53.24","2.8089999999999997","61.03","1020.086","14.96","67.1","NAN","0.0"],
    [1544361,"2026-03-04 02:20:00","56117","2.11","51.88","5.684","61.88","1020.0010000000001","14.88","69.22","NAN","0.0"],
    [1544362,"2026-03-04 02:30:00","56118","3.665","73.41","9.08","71.91","1019.998","14.89","71.87","NAN","0.0"],
    [1544363,"2026-03-04 02:40:00","56119","2.68","56.05","6.37","57.85","1019.9639999999999","14.79","74.41","NAN","0.0"],
    [1544364,"2026-03-04 02:50:00","56120","3.359","51.07","7.579","50.08","1019.935","14.7","75.6","NAN","0.0"],
    [1544365,"2026-03-04 03:00:00","56121","2.765","51.27","6.0760000000000005","26.45","1019.982","14.7","75.2","NAN","0.0"],
    [1544366,"2026-03-04 03:10:00","56122","2.512","52.2","4.998","35.74","1019.951","14.82","74.4","NAN","0.0"],
    [1544367,"2026-03-04 03:20:00","56123","2.8960000000000004","55.18","6.729","65.82","1019.8910000000001","14.96","71.28","NAN","0.0"],
    [1544368,"2026-03-04 03:30:00","56124","2.7889999999999997","55.42","6.957999999999999","64.39","1019.841","15.09","71.17","NAN","0.0"],
    [1544369,"2026-03-04 03:40:00","56125","2.696","58.73","5.651","65.1","1019.916","15.05","72.3","NAN","0.0"],
    [1544370,"2026-03-04 03:50:00","56126","2.3569999999999998","52.88","6.0760000000000005","64.51","1019.916","14.96","73.73","NAN","0.0"],
    [1544371,"2026-03-04 04:00:00","56127","3.4160000000000004","47.85","7.023","62.34","1019.7860000000001","14.98","73.94","NAN","0.0"],
    [1544372,"2026-03-04 04:10:00","56128","4.601","50.65","11.11","49.83","1019.659","15.04","74.35","NAN","0.0"],
    [1544373,"2026-03-04 04:20:00","56129","3.9989999999999997","54.82","9.15","65.93","1019.732","15.07","74.5","NAN","0.0"],
    [1544374,"2026-03-04 04:30:00","56130","3.487","53.14","8.07","29.65","1019.805","15.07","74.87","NAN","0.0"],
    [1544375,"2026-03-04 04:40:00","56131","2.847","57.12","6.599","65.96","1019.939","15.07","75.27","NAN","0.0"],
    [1544376,"2026-03-04 04:50:00","56132","3.435","59.49","8.75","61.3","1019.944","15.06","75.62","NAN","0.0"],
    [1544377,"2026-03-04 05:00:00","56133","3.536","48.57","7.807","72.11","1019.8860000000001","15.01","75.89","NAN","0.0"],
    [1544378,"2026-03-04 05:10:00","56134","4.05","48.78","8.46","47.85","1019.779","14.97","75.63","NAN","0.0"],
    [1544379,"2026-03-04 05:20:00","56135","3.265","53.99","9.15","65.35","1019.742","14.87","76.55","NAN","0.0"],
    [1544380,"2026-03-04 05:30:00","56136","3.397","50.96","8.04","58.64","1019.674","14.74","77.6","NAN","0.0"],
    [1544381,"2026-03-04 05:40:00","56137","2.978","52.56","6.729","77.8","1019.784","14.71","77.46","NAN","0.0"],
    [1544382,"2026-03-04 05:50:00","56138","2.603","53.02","7.187","57.41","1019.904","14.75","77.27","NAN","0.0"],
    [1544383,"2026-03-04 06:00:00","56139","2.6430000000000002","57.7","6.1739999999999995","46.3","1019.9639999999999","14.74","78.35","NAN","0.0"],
    [1544384,"2026-03-04 06:10:00","56140","2.736","57.25","7.513","86.8","1020.074","14.72","78.72","NAN","0.0"],
    [1544385,"2026-03-04 06:20:00","56141","2.802","51.24","9.28","34.61","1020.085","14.72","79.24","NAN","0.0"],
    [1544386,"2026-03-04 06:30:00","56142","3.3569999999999998","43.72","6.957999999999999","52.11","1020.0060000000001","14.58","81.1","NAN","0.0"],
    [1544387,"2026-03-04 06:40:00","56143","3.241","48.66","6.403","28.58","1020.041","14.54","80.8","NAN","0.0"],
    [1544388,"2026-03-04 06:50:00","56144","2.8960000000000004","47.52","6.697","26.76","1020.0219999999999","14.55","80.8","NAN","0.0"],
    [1544389,"2026-03-04 07:00:00","56145","2.68","49.14","6.599","57.85","1020.0160000000001","14.57","80","NAN","0.0"],
    [1544390,"2026-03-04 07:10:00","56146","3.167","47.45","9.08","42.27","1020.041","14.77","76.9","NAN","0.0"],
    [1544391,"2026-03-04 07:20:00","56147","3.3739999999999997","52.04","7.285","50.73","1020.1519999999999","14.85","76.32","NAN","0.0"],
    [1544392,"2026-03-04 07:30:00","56148","2.9539999999999997","49.75","7.218999999999999","36.39","1020.18","14.91","75.97","NAN","0.0"],
    [1544393,"2026-03-04 07:40:00","56149","3.1189999999999998","52.78","5.7170000000000005","64.86","1020.29","14.99","76.16","NAN","0.0"],
    [1544394,"2026-03-04 07:50:00","56150","2.7939999999999996","52.76","6.566","49.55","1020.327","14.98","77.06","NAN","0.0"],
    [1544395,"2026-03-04 08:00:00","56151","2.772","57.38","8.2","59.73","1020.427","15.06","76.7","NAN","0.0"],
    [1544396,"2026-03-04 08:10:00","56152","3.3939999999999997","56.69","7.35","45.19","1020.4739999999999","15.11","76.87","NAN","0.0"],
    [1544397,"2026-03-04 08:20:00","56153","3.0869999999999997","56.43","7.513","39.52","1020.6089999999999","15.24","76.04","NAN","0.0"],
    [1544398,"2026-03-04 08:30:00","56154","3.08","54.13","7.644","30.62","1020.6510000000001","15.3","75.83","NAN","0.0"],
    [1544399,"2026-03-04 08:40:00","56155","2.9619999999999997","54.95","6.239","57.12","1020.681","15.38","75.42","NAN","0.0"],
    [1544400,"2026-03-04 08:50:00","56156","3.091","65.19","6.435","69.85","1020.671","15.42","75.71","NAN","0.0"],
    [1544401,"2026-03-04 09:00:00","56157","3.9139999999999997","71.84","7.84","93.7","1020.6439999999999","15.44","76.26","NAN","0.0"],
    [1544402,"2026-03-04 09:10:00","56158","4.03","72.26","8.0","70.63","1020.6110000000001","15.45","76.57","NAN","0.0"],
    [1544403,"2026-03-04 09:20:00","56159","3.7710000000000004","71.52","7.4479999999999995","77.64","1020.5360000000001","15.51","76.91","NAN","0.0"],
    [1544404,"2026-03-04 09:30:00","56160","2.75","63.8","5.945","53.74","1020.5039999999999","15.68","76.16","NAN","0.0"],
    [1544405,"2026-03-04 09:40:00","56161","2.819","66.01","6.893","72.93","1020.4810000000001","16","74.66","NAN","0.0"],
    [1544406,"2026-03-04 09:50:00","56162","3.235","71.12","7.415","72.99","1020.4910000000001","16.28","73.04","NAN","0.0"],
    [1544407,"2026-03-04 10:00:00","56163","3.927","69.72","7.611000000000001","84.3","1020.5210000000001","16.16","73.66","NAN","0.0"],
    [1544408,"2026-03-04 10:10:00","56164","3.21","67.98","8.17","72.41","1020.638","16.47","71.96","NAN","0.0"],
    [1544409,"2026-03-04 10:20:00","56165","3.478","70.58","6.468","85.0","1020.701","16.55","71.29","NAN","0.0"],
    [1544410,"2026-03-04 10:30:00","56166","4.33","73.05","7.84","68.69","1020.715","16.52","71.84","NAN","0.0"],
    [1544411,"2026-03-04 10:40:00","56167","5.651","73.49","10.58","77.51","1020.69","16.21","73.48","NAN","0.0"],
    [1544412,"2026-03-04 10:50:00","56168","4.644","72.13","8.69","65.74","1020.823","16.28","73.67","NAN","0.0"],
    [1544413,"2026-03-04 11:00:00","56169","5.662000000000001","75.46","10.16","73.72","1020.748","16.27","73.66","NAN","0.0"],
    [1544414,"2026-03-04 11:10:00","56170","5.331","73.3","11.86","67.9","1020.797","16.31","73.01","NAN","0.0"],
    [1544415,"2026-03-04 11:20:00","56171","4.8260000000000005","72.03","9.64","85.9","1020.755","16.58","71.66","NAN","0.0"],
    [1544416,"2026-03-04 11:30:00","56172","4.607","73.47","8.75","78.17","1020.676","16.36","72.87","NAN","0.0"],
    [1544417,"2026-03-04 11:40:00","56173","3.3510000000000004","70.83","7.709","77.36","1020.681","16.49","72.79","NAN","0.0"],
    [1544418,"2026-03-04 11:50:00","56174","3.8160000000000003","73.23","8.53","70.42","1020.671","16.66","72.3","NAN","0.0"],
    [1544419,"2026-03-04 12:00:00","56175","5.132000000000001","73.24","9.44","62.57","1020.553","16.33","74.46","NAN","0.0"],
    [1544420,"2026-03-04 12:10:00","56176","5.568","73.75","9.6","71.87","1020.334","16.24","76.54","NAN","0.0"],
    [1544421,"2026-03-04 12:20:00","56177","5.934","71.56","9.67","74.04","1020.311","15.93","79.99","NAN","0.0"],
    [1544422,"2026-03-04 12:30:00","56178","6.665","70.88","10.36","76.29","1020.183","15.85","79.98","NAN","0.0"],
    [1544423,"2026-03-04 12:40:00","56179","6.263999999999999","74.08","11.24","67.21","1020.127","15.88","79.05","NAN","0.0"],
    [1544424,"2026-03-04 12:50:00","56180","4.423","74.24","8.72","82.8","1020.073","16.04","77.67","NAN","0.0"],
    [1544425,"2026-03-04 13:00:00","56181","3.799","73.54","7.938","83.0","1019.945","16.1","77.35","NAN","0.0"],
    [1544426,"2026-03-04 13:10:00","56182","4.173","72.37","8.36","70.71","1019.846","16.07","77.9","NAN","0.0"],
    [1544427,"2026-03-04 13:20:00","56183","5.205","76.42","9.9","75.6","1019.711","15.76","79.66","NAN","0.0"],
    [1544428,"2026-03-04 13:30:00","56184","5.666","70.77","9.38","60.55","1019.602","15.55","80.7","NAN","0.0"],
    [1544429,"2026-03-04 13:40:00","56185","5.726","71.74","9.96","79.96","1019.5369999999999","15.63","79.19","NAN","0.0"],
    [1544430,"2026-03-04 13:50:00","56186","5.612","70.59","9.57","69.18","1019.415","15.62","78.21","NAN","0.0"],
    [1544431,"2026-03-04 14:00:00","56187","5.6370000000000005","69.17","9.87","63.49","1019.305","15.61","77.9","NAN","0.0"],
    [1544432,"2026-03-04 14:10:00","56188","5.263","69.58","9.41","73.89","1019.2410000000001","15.75","76.84","NAN","0.0"],
    [1544433,"2026-03-04 14:20:00","56189","5.234","69.36","9.8","65.42","1019.2439999999999","15.7","77.4","NAN","0.0"],
    [1544434,"2026-03-04 14:30:00","56190","5.119","68.54","9.96","73.23","1019.2760000000001","15.67","78.26","NAN","0.0"],
    [1544435,"2026-03-04 14:40:00","56191","4.647","64.29","8.13","61.97","1019.2280000000001","15.71","78.81","NAN","0.0"],
    [1544436,"2026-03-04 14:50:00","56192","5.961","69.21","10.36","58.22","1019.0210000000001","15.57","79.64","NAN","0.0"],
    [1544437,"2026-03-04 15:00:00","56193","5.934","69.22","10.45","63.83","1019.0880000000001","15.55","80","NAN","0.0"],
    [1544438,"2026-03-04 15:10:00","56194","6.015","67.69","9.51","67.45","1018.847","15.61","79.71","NAN","0.0"],
    [1544439,"2026-03-04 15:20:00","56195","5.9270000000000005","69.77","10.03","55.97","1018.903","15.71","78.87","NAN","0.0"],
    [1544440,"2026-03-04 15:30:00","56196","5.6979999999999995","68.7","10.42","57.38","1018.992","15.67","79.15","NAN","0.0"],
    [1544441,"2026-03-04 15:40:00","56197","5.875","66.52","9.73","56.15","1018.857","15.6","79.79","NAN","0.0"],
    [1544442,"2026-03-04 15:50:00","56198","5.274","67.69","8.66","69.52","1018.8480000000001","15.43","81.6","NAN","0.0"],
    [1544443,"2026-03-04 16:00:00","56199","5.6","69.41","10.55","82.6","1018.74","15.32","82.2","NAN","0.0"],
    [1544444,"2026-03-04 16:10:00","56200","5.263","71.7","9.11","83.2","1018.6360000000001","15.35","81.5","NAN","0.0"],
    [1544445,"2026-03-04 16:20:00","56201","4.96","71.01","9.34","68.01","1018.6360000000001","15.48","80.5","NAN","0.0"],
    [1544446,"2026-03-04 16:30:00","56202","5.452000000000001","73.77","9.6","52.7","1018.7280000000001","15.52","80.6","NAN","0.0"],
    [1544447,"2026-03-04 16:40:00","56203","5.489","71.16","8.89","69.58","1018.691","15.37","82","NAN","0.0"],
    [1544448,"2026-03-04 16:50:00","56204","5.058","68.67","10.06","63.06","1018.676","15.23","83.3","NAN","0.0"],
    [1544449,"2026-03-04 17:00:00","56205","5.937","68.66","10.13","59.45","1018.6610000000001","14.97","85.2","NAN","0.0"],
    [1544450,"2026-03-04 17:10:00","56206","6.13","68.83","11.11","57.06","1018.6419999999999","14.9","85.3","NAN","0.0"],
    [1544451,"2026-03-04 17:20:00","56207","5.7620000000000005","69.19","11.04","69.57","1018.633","14.88","85.9","NAN","0.0"],
    [1544452,"2026-03-04 17:30:00","56208","5.511","72.72","10.22","72.28","1018.497","14.93","84.4","NAN","0.0"],
    [1544453,"2026-03-04 17:40:00","56209","5.064","75.22","9.96","77.38","1018.6360000000001","15.12","83.2","NAN","0.0"],
    [1544454,"2026-03-04 17:50:00","56210","2.9330000000000003","64.8","7.121","67.39","1018.7280000000001","15.07","82.8","NAN","0.0"],
    [1544455,"2026-03-04 18:00:00","56211","2.719","55.07","5.88","36.33","1018.7180000000001","15.26","79.76","NAN","0.0"],
    [1544456,"2026-03-04 18:10:00","56212","3.73","72.74","8.07","73.14","1018.8969999999999","15.39","77.96","NAN","0.0"],
    [1544457,"2026-03-04 18:20:00","56213","2.7310000000000003","70.84","7.252000000000001","83.6","1018.927","15.36","77.63","NAN","0.0"],
    [1544458,"2026-03-04 18:30:00","56214","2.72","65.23","6.86","66.38","1018.9169999999999","15.39","76.89","NAN","0.0"],
    [1544459,"2026-03-04 18:40:00","56215","3.0180000000000002","68.6","6.599","85.9","1018.98","15.37","77.15","NAN","0.0"],
    [1544460,"2026-03-04 18:50:00","56216","3.605","73.58","7.154","75.62","1019.112","15.33","77.18","NAN","0.0"],
    [1544461,"2026-03-04 19:00:00","56217","4.197","74.8","8.43","82.1","1019.1410000000001","15.26","78.24","NAN","0.0"],
    [1544462,"2026-03-04 19:10:00","56218","2.787","54.38","7.121","65.64","1018.9580000000001","15.24","77.37","NAN","0.0"],
    [1544463,"2026-03-04 19:20:00","56219","3.8289999999999997","72.31","8.1","78.38","1019.1460000000001","15.26","76.58","NAN","0.0"],
    [1544464,"2026-03-04 19:30:00","56220","3.597","71.07","7.317","78.01","1019.2","15.25","76.87","NAN","0.0"],
    [1544465,"2026-03-04 19:40:00","56221","3.094","70.89","6.893","96.7","1019.388","15.23","76.98","NAN","0.0"],
    [1544466,"2026-03-04 19:50:00","56222","2.8989999999999996","68.33","5.945","83.2","1019.34","15.2","77.14","NAN","0.0"],
    [1544467,"2026-03-04 20:00:00","56223","2.235","55.71","5.684","70.61","1019.184","15.1","78.13","NAN","0.0"],
    [1544468,"2026-03-04 20:10:00","56224","2.15","53.97","5.096","81.3","1019.158","15.07","77.73","NAN","0.0"],
    [1544469,"2026-03-04 20:20:00","56225","2.5340000000000003","60.08","6.011","42.57","1019.0139999999999","15.07","77.33","NAN","0.0"],
    [1544470,"2026-03-04 20:30:00","56226","2.2640000000000002","51.96","5.521","37.41","1018.96","15.07","77.17","NAN","0.0"],
    [1544471,"2026-03-04 20:40:00","56227","2.476","48.5","7.4479999999999995","62.94","1019.1439999999999","15.14","76","NAN","0.0"],
    [1544472,"2026-03-04 20:50:00","56228","2.205","60.03","6.239","57.91","1019.322","15.22","74.68","NAN","0.0"],
    [1544473,"2026-03-04 21:00:00","56229","2.714","65.56","6.7620000000000005","70.9","1019.34","15.26","75.08","NAN","0.0"],
    [1544474,"2026-03-04 21:10:00","56230","2.279","69.47","6.729","88.4","1019.2589999999999","15.21","75.83","NAN","0.0"],
    [1544475,"2026-03-04 21:20:00","56231","3.957","72.73","8.07","63.82","1019.26","15.1","77.6","NAN","0.0"],
    [1544476,"2026-03-04 21:30:00","56232","2.6039999999999996","61.18","5.912999999999999","61.41","1019.301","14.98","78.85","NAN","0.0"],
    [1544477,"2026-03-04 21:40:00","56233","2.256","55.54","5.782","58.89","1019.301","14.94","78.58","NAN","0.0"],
    [1544478,"2026-03-04 21:50:00","56234","2.312","54.39","5.619","71.92","1019.194","14.95","78.31","NAN","0.0"],
    [1544479,"2026-03-04 22:00:00","56235","2.647","53.12","6.1739999999999995","55.78","1019.1080000000001","14.94","78.07","NAN","0.0"],
    [1544480,"2026-03-04 22:10:00","56236","2.799","52.38","6.566","67.02","1018.936","14.94","77.11","NAN","0.0"],
    [1544481,"2026-03-04 22:20:00","56237","2.895","45.11","5.978","35.91","1018.717","14.99","76.2","NAN","0.0"],
    [1544482,"2026-03-04 22:30:00","56238","3.2260000000000004","43.31","6.37","23.07","1018.53","15.08","74.63","NAN","0.0"],
    [1544483,"2026-03-04 22:40:00","56239","2.613","49.96","5.88","25.38","1018.438","15.18","73.51","NAN","0.0"],
    [1544484,"2026-03-04 22:50:00","56240","2.563","62.23","6.5329999999999995","61.59","1018.438","15.25","73.66","NAN","0.0"],
    [1544485,"2026-03-04 23:00:00","56241","2.4659999999999997","55.42","4.41","74.9","1018.308","15.22","75.48","NAN","0.0"],
    [1544486,"2026-03-04 23:10:00","56242","2.342","61.29","5.978","69.47","1018.198","15.2","75.87","NAN","0.0"],
    [1544487,"2026-03-04 23:20:00","56243","2.531","54.4","7.611000000000001","59.59","1018.159","15.21","75.64","NAN","0.0"],
    [1544488,"2026-03-04 23:30:00","56244","2.052","55.07","4.181","73.56","1018.096","15.08","77.25","NAN","0.0"],
    [1544489,"2026-03-04 23:40:00","56245","2.383","55.87","5.4879999999999995","55.25","1017.9630000000001","15.02","77.51","NAN","0.0"],
    [1544490,"2026-03-04 23:50:00","56246","1.999","60.33","4.4430000000000005","71.14","1017.946","14.96","77.98","NAN","0.0"],
    [1544491,"2026-03-05 00:00:00","56247","3.0410000000000004","71.38","7.579","71.46","1017.916","14.95","77.98","NAN","0.0"],
    [1544492,"2026-03-05 00:10:00","56248","3.802","72.58","8.43","73.78","1017.829","15.05","78.06","NAN","0.0"],
    [1544493,"2026-03-05 00:20:00","56249","4.136","74.6","7.546","91.6","1017.7310000000001","14.97","78.36","NAN","0.0"],
    [1544494,"2026-03-05 00:30:00","56250","3.0","65.83","6.141","61.95","1017.59","14.99","77.38","NAN","0.0"],
    [1544495,"2026-03-05 00:40:00","56251","2.508","65.19","5.7170000000000005","77.41","1017.431","15.09","76.87","NAN","0.0"],
    [1544496,"2026-03-05 00:50:00","56252","3.108","53.69","6.501","68.38","1017.222","15.16","76.84","NAN","0.0"],
    [1544497,"2026-03-05 01:00:00","56253","2.184","54.44","6.011","46.82","1017.077","15.13","77.18","NAN","0.0"],
    [1544498,"2026-03-05 01:10:00","56254","2.374","48.6","5.39","47.19","1016.7560000000001","15.07","77.8","NAN","0.0"],
    [1544499,"2026-03-05 01:20:00","56255","2.8569999999999998","49.09","7.644","54.22","1016.5369999999999","15.07","77.2","NAN","0.0"],
    [1544500,"2026-03-05 01:30:00","56256","3.4019999999999997","48.69","8.75","29.41","1016.3989999999999","15.19","75.21","NAN","0.0"],
    [1544501,"2026-03-05 01:40:00","56257","2.338","60.6","5.619","59.11","1016.29","15.15","75.22","NAN","0.0"],
    [1544502,"2026-03-05 01:50:00","56258","2.702","64.66","6.207000000000001","75.93","1016.404","15.2","74.91","NAN","0.0"],
    [1544503,"2026-03-05 02:00:00","56259","2.445","66.81","4.9","50.78","1016.6039999999999","15.06","76.59","NAN","0.0"],
    [1544504,"2026-03-05 02:10:00","56260","4.97","72.31","8.89","66.91","1017.04","15.13","76.5","NAN","0.0"],
    [1544505,"2026-03-05 02:20:00","56261","4.587","70.45","10.06","70.66","1017.159","15.22","76.63","NAN","0.0"],
    [1544506,"2026-03-05 02:30:00","56262","3.537","65.2","7.056","67.87","1017.0319999999999","15.2","77.38","NAN","0.0"],
    [1544507,"2026-03-05 02:40:00","56263","2.503","57.05","5.782","29.94","1016.788","15.15","75.82","NAN","0.0"],
    [1544508,"2026-03-05 02:50:00","56264","3.112","48.89","7.6770000000000005","64.55","1016.721","15.23","73.88","NAN","0.0"],
    [1544509,"2026-03-05 03:00:00","56265","2.905","57.54","6.664","35.12","1016.691","15.31","72.05","NAN","0.0"],
    [1544510,"2026-03-05 03:10:00","56266","3.457","54.57","6.631","60.22","1016.675","15.21","73.39","NAN","0.1"],
    [1544511,"2026-03-05 03:20:00","56267","2.958","57.01","6.272","52.75","1016.523","14.88","76.89","NAN","0.1"],
    [1544512,"2026-03-05 03:30:00","56268","2.775","58.5","6.272","70.06","1016.2289999999999","14.43","81.7","NAN","0.6"],
    [1544513,"2026-03-05 03:40:00","56269","2.32","56.81","5.521","63.57","1016.145","14.47","80.6","NAN","0.0"],
    [1544514,"2026-03-05 03:50:00","56270","2.372","57.29","7.938","68.95","1016.154","14.66","78.36","NAN","0.0"],
    [1544515,"2026-03-05 04:00:00","56271","2.9960000000000004","49.04","6.9910000000000005","57.05","1016.068","14.69","78.5","NAN","0.0"],
    [1544516,"2026-03-05 04:10:00","56272","3.31","49.44","6.697","67.52","1016.005","14.61","78.66","NAN","0.0"],
    [1544517,"2026-03-05 04:20:00","56273","3.714","50.27","7.611000000000001","49.12","1015.8389999999999","14.57","78.85","NAN","0.0"],
    [1544518,"2026-03-05 04:30:00","56274","3.227","47.32","7.513","29.18","1015.7489999999999","14.62","78.02","NAN","0.0"],
    [1544519,"2026-03-05 04:40:00","56275","3.068","53.67","9.15","47.66","1015.717","14.65","78.32","NAN","0.0"],
    [1544520,"2026-03-05 04:50:00","56276","2.947","50.83","5.978","30.61","1015.7589999999999","14.77","77.3","NAN","0.0"],
    [1544521,"2026-03-05 05:00:00","56277","3.3289999999999997","49.27","7.285","55.74","1015.865","14.99","75.04","NAN","0.0"],
    [1544522,"2026-03-05 05:10:00","56278","3.345","47.11","7.187","46.07","1015.7260000000001","15.05","74.8","NAN","0.0"],
    [1544523,"2026-03-05 05:20:00","56279","3.263","47.63","6.795","48.11","1015.5939999999999","14.97","75.48","NAN","0.0"],
    [1544524,"2026-03-05 05:30:00","56280","4.084","46.66","8.59","41.69","1015.472","14.98","75.97","NAN","0.0"],
    [1544525,"2026-03-05 05:40:00","56281","4.1819999999999995","42.0","8.07","42.96","1015.368","14.95","76.47","NAN","0.0"],
    [1544526,"2026-03-05 05:50:00","56282","4.078","46.53","8.1","36.36","1015.222","14.96","76.85","NAN","0.0"],
    [1544527,"2026-03-05 06:00:00","56283","3.53","42.15","7.187","31.37","1015.0889999999999","14.94","76.76","NAN","0.0"],
    [1544528,"2026-03-05 06:10:00","56284","3.142","44.49","6.109","17.35","1015.03","14.97","76.73","NAN","0.0"],
    [1544529,"2026-03-05 06:20:00","56285","2.525","46.31","5.063","28.49","1015.2489999999999","14.95","76.89","NAN","0.0"],
    [1544530,"2026-03-05 06:30:00","56286","3.4189999999999996","50.24","8.46","27.68","1015.4830000000001","14.94","77.51","NAN","0.0"],
    [1544531,"2026-03-05 06:40:00","56287","3.528","51.94","7.4479999999999995","57.33","1015.485","14.86","78.69","NAN","0.0"],
    [1544532,"2026-03-05 06:50:00","56288","2.884","45.33","6.141","37.07","1015.5219999999999","14.77","79.99","NAN","0.0"],
    [1544533,"2026-03-05 07:00:00","56289","2.9930000000000003","50.47","5.684","68.22","1015.51","14.68","82.2","NAN","0.0"],
    [1544534,"2026-03-05 07:10:00","56290","3.345","56.53","8.1","57.62","1015.595","14.58","84.1","NAN","0.0"],
    [1544535,"2026-03-05 07:20:00","56291","3.423","54.27","8.04","58.9","1015.637","14.52","85.2","NAN","0.0"],
    [1544536,"2026-03-05 07:30:00","56292","3.745","56.39","7.807","71.22","1015.5319999999999","14.49","85.4","NAN","0.0"],
    [1544537,"2026-03-05 07:40:00","56293","3.98","51.22","8.82","44.42","1015.291","14.56","84.4","NAN","0.0"],
    [1544538,"2026-03-05 07:50:00","56294","3.818","42.15","7.84","42.46","1015.039","14.67","83.1","NAN","0.0"],
    [1544539,"2026-03-05 08:00:00","56295","4.126","51.72","7.872999999999999","72.28","1014.882","14.86","81.4","NAN","0.0"],
    [1544540,"2026-03-05 08:10:00","56296","3.4810000000000003","48.13","9.11","67.19","1014.77","15.01","80","NAN","0.0"],
    [1544541,"2026-03-05 08:20:00","56297","2.997","54.41","6.697","42.96","1014.8480000000001","15.07","80.2","NAN","0.0"],
    [1544542,"2026-03-05 08:30:00","56298","3.22","54.93","9.51","56.08","1014.738","15.06","80.4","NAN","0.0"],
    [1544543,"2026-03-05 08:40:00","56299","2.884","64.08","6.9910000000000005","48.66","1014.96","15.15","80","NAN","0.0"],
    [1544544,"2026-03-05 08:50:00","56300","2.8939999999999997","65.55","7.481","60.28","1014.97","15.09","81.7","NAN","0.0"],
    [1544545,"2026-03-05 09:00:00","56301","2.509","59.55","8.04","85.0","1014.954","15.02","82.6","NAN","0.0"],
    [1544546,"2026-03-05 09:10:00","56302","3.426","51.33","7.317","65.17","1014.85","14.92","83.7","NAN","0.0"],
    [1544547,"2026-03-05 09:20:00","56303","2.103","50.49","5.455","55.48","1014.85","14.89","84.5","NAN","0.0"],
    [1544548,"2026-03-05 09:30:00","56304","4.035","70.37","9.34","80.1","1015.025","14.85","84.9","NAN","0.0"],
    [1544549,"2026-03-05 09:40:00","56305","5.4110000000000005","72.9","11.6","74.03","1015.186","14.71","85.7","NAN","0.0"],
    [1544550,"2026-03-05 09:50:00","56306","4.571000000000001","71.3","9.51","72.5","1015.2510000000001","14.6","86.7","NAN","0.1"],
    [1544551,"2026-03-05 10:00:00","56307","5.459","57.04","10.91","73.01","1015.2719999999999","14.23","90.5","NAN","1.4"],
    [1544552,"2026-03-05 10:10:00","56308","4.678","44.96","8.59","18.18","1014.966","13.81","94.6","NAN","1.9"],
    [1544553,"2026-03-05 10:20:00","56309","4.88","41.72","12.25","74.48","1014.545","13.6","96.2","NAN","1.1"],
    [1544554,"2026-03-05 10:30:00","56310","3.5789999999999997","46.85","7.513","32.2","1014.529","13.6","96.1","NAN","0.6"],
    [1544555,"2026-03-05 10:40:00","56311","2.6910000000000003","52.04","6.86","56.79","1014.6669999999999","13.61","96.2","NAN","1.1"],
    [1544556,"2026-03-05 10:50:00","56312","2.8760000000000003","52.11","5.88","66.35","1014.7180000000001","13.56","96.6","NAN","1.3"],
    [1544557,"2026-03-05 11:00:00","56313","3.03","37.66","6.729","15.87","1014.365","13.52","97.3","NAN","1.8"],
    [1544558,"2026-03-05 11:10:00","56314","3.5860000000000003","45.61","7.481","43.26","1014.097","13.47","97.8","NAN","0.4"],
    [1544559,"2026-03-05 11:20:00","56315","3.91","41.91","8.59","37.18","1013.814","13.53","97.4","NAN","0.3"],
    [1544560,"2026-03-05 11:30:00","56316","2.9210000000000003","43.0","6.0760000000000005","55.17","1013.7130000000001","13.65","97.1","NAN","0.1"],
    [1544561,"2026-03-05 11:40:00","56317","2.983","56.41","6.9910000000000005","57.26","1013.669","13.69","96.8","NAN","0.7"],
    [1544562,"2026-03-05 11:50:00","56318","2.841","50.93","5.553","50.42","1013.482","13.68","97.1","NAN","0.8"],
    [1544563,"2026-03-05 12:00:00","56319","3.572","48.93","9.44","53.97","1013.2439999999999","13.71","97.4","NAN","0.5"],
    [1544564,"2026-03-05 12:10:00","56320","4.175","48.27","11.34","79.75","1012.927","13.75","97.3","NAN","0.8"],
    [1544565,"2026-03-05 12:20:00","56321","3.886","50.9","7.938","54.44","1012.7080000000001","13.81","97.4","NAN","0.6"],
    [1544566,"2026-03-05 12:30:00","56322","3.648","59.95","9.73","85.4","1012.7330000000001","13.85","97.7","NAN","1.4"],
    [1544567,"2026-03-05 12:40:00","56323","4.109","67.67","8.62","89.3","1012.617","13.76","98.5","NAN","0.9"],
    [1544568,"2026-03-05 12:50:00","56324","5.98","73.02","11.11","78.86","1012.57","13.77","99.5","NAN","0.5"],
    [1544569,"2026-03-05 13:00:00","56325","4.712","67.89","10.65","77.09","1012.409","13.87","99.6","NAN","0.0"],
    [1544570,"2026-03-05 13:10:00","56326","4.8919999999999995","70.86","9.83","88.2","1012.3380000000001","13.9","99.4","NAN","0.0"],
    [1544571,"2026-03-05 13:20:00","56327","4.101","65.06","10.71","81.3","1012.299","13.97","98.9","NAN","0.0"],
    [1544572,"2026-03-05 13:30:00","56328","4.362","66.46","9.34","85.3","1012.29","14.01","98.5","NAN","0.0"],
    [1544573,"2026-03-05 13:40:00","56329","5.17","68.07","8.89","51.14","1012.252","14.04","98.1","NAN","0.0"],
    [1544574,"2026-03-05 13:50:00","56330","4.54","68.5","10.45","68.21","1012.1460000000001","14.08","98.3","NAN","0.0"],
    [1544575,"2026-03-05 14:00:00","56331","4.791","64.88","8.92","72.48","1012.186","14.31","98.2","NAN","0.0"],
    [1544576,"2026-03-05 14:10:00","56332","3.9989999999999997","66.39","7.546","61.37","1012.217","14.48","97.6","NAN","0.0"],
    [1544577,"2026-03-05 14:20:00","56333","3.773","63.9","8.59","53.29","1012.207","14.51","97.5","NAN","0.0"],
    [1544578,"2026-03-05 14:30:00","56334","4.044","64.34","7.285","57.97","1012.2410000000001","14.54","97.4","NAN","0.0"],
    [1544579,"2026-03-05 14:40:00","56335","2.491","69.51","5.521","69.45","1012.322","14.74","97","NAN","0.0"],
    [1544580,"2026-03-05 14:50:00","56336","4.221","64.25","9.18","89.6","1012.25","14.87","95.9","NAN","0.0"],
    [1544581,"2026-03-05 15:00:00","56337","4.21","63.07","8.0","73.47","1012.33","14.93","95.2","NAN","0.0"],
    [1544582,"2026-03-05 15:10:00","56338","3.944","70.46","6.664","67.98","1012.3389999999999","14.83","96","NAN","0.0"],
    [1544583,"2026-03-05 15:20:00","56339","3.389","66.69","6.664","77.8","1012.3439999999999","14.78","96.7","NAN","0.0"],
    [1544584,"2026-03-05 15:30:00","56340","2.013","41.5","3.92","51.36","1012.3539999999999","14.79","97.3","NAN","0.0"],
    [1544585,"2026-03-05 15:40:00","56341","2.543","40.81","4.835","81.7","1012.337","14.76","97.5","NAN","0.0"],
    [1544586,"2026-03-05 15:50:00","56342","1.926","50.08","4.541","45.11","1012.36","14.74","97.9","NAN","0.0"],
    [1544587,"2026-03-05 16:00:00","56343","3.366","68.06","7.611000000000001","71.98","1012.434","14.71","97.7","NAN","0.0"],
    [1544588,"2026-03-05 16:10:00","56344","3.45","68.21","8.2","82.1","1012.502","14.68","97.1","NAN","0.0"],
    [1544589,"2026-03-05 16:20:00","56345","3.9930000000000003","68.0","9.24","67.26","1012.6410000000001","14.68","97.4","NAN","0.0"],
    [1544590,"2026-03-05 16:30:00","56346","4.323","69.34","8.75","73.67","1012.7310000000001","14.49","98.5","NAN","0.0"],
    [1544591,"2026-03-05 16:40:00","56347","4.3389999999999995","66.92","7.382999999999999","64.41","1012.743","14.37","99.2","NAN","0.0"],
    [1544592,"2026-03-05 16:50:00","56348","3.662","68.08","7.481","75.41","1012.703","14.34","99.6","NAN","0.0"],
    [1544593,"2026-03-05 17:00:00","56349","3.447","63.72","7.546","67.0","1012.7130000000001","14.4","99.6","NAN","0.0"],
    [1544594,"2026-03-05 17:10:00","56350","4.874","70.86","7.807","70.3","1012.875","14.39","99.2","NAN","0.0"],
    [1544595,"2026-03-05 17:20:00","56351","4.83","64.78","8.92","52.32","1012.967","14.45","98.6","NAN","0.0"],
    [1544596,"2026-03-05 17:30:00","56352","4.045","67.05","7.481","76.7","1013.102","14.51","98.3","NAN","0.0"],
    [1544597,"2026-03-05 17:40:00","56353","4.435","64.62","7.579","63.0","1013.087","14.44","98.8","NAN","0.0"],
    [1544598,"2026-03-05 17:50:00","56354","4.067","65.21","8.0","70.85","1013.133","14.38","99","NAN","0.0"],
    [1544599,"2026-03-05 18:00:00","56355","4.188","66.18","8.4","67.93","1013.159","14.36","99.1","NAN","0.0"],
    [1544600,"2026-03-05 18:10:00","56356","4.817","66.55","8.2","62.6","1013.176","14.33","99","NAN","0.6"],
    [1544601,"2026-03-05 18:20:00","56357","3.905","62.69","7.6770000000000005","62.97","1013.198","14.29","99.4","NAN","0.2"],
    [1544602,"2026-03-05 18:30:00","56358","3.509","67.7","7.35","70.51","1013.232","14.29","99.4","NAN","0.0"],
    [1544603,"2026-03-05 18:40:00","56359","3.451","64.04","7.121","66.31","1013.299","14.29","99.4","NAN","0.0"],
    [1544604,"2026-03-05 18:50:00","56360","3.094","64.3","7.579","70.47","1013.325","14.29","99.4","NAN","0.0"],
    [1544605,"2026-03-05 19:00:00","56361","2.045","54.37","4.345","30.49","1013.327","14.26","99.6","NAN","0.1"],
    [1544606,"2026-03-05 19:10:00","56362","3.155","62.46","6.305","70.66","1013.3","14.19","99.8","NAN","0.9"],
    [1544607,"2026-03-05 19:20:00","56363","3.4419999999999997","70.01","7.872999999999999","68.77","1013.321","14.12","99.9","NAN","0.2"],
    [1544608,"2026-03-05 19:30:00","56364","4.948","71.71","8.85","68.45","1013.426","14.08","99.9","NAN","0.1"],
    [1544609,"2026-03-05 19:40:00","56365","3.932","71.8","7.546","82.1","1013.488","14.08","99.9","NAN","0.3"],
    [1544610,"2026-03-05 19:50:00","56366","2.395","51.72","5.7170000000000005","63.85","1013.54","14.09","99.9","NAN","0.5"],
    [1544611,"2026-03-05 20:00:00","56367","2.145","50.02","5.063","82.2","1013.547","14.08","99.9","NAN","0.2"],
    [1544612,"2026-03-05 20:10:00","56368","3.532","42.5","6.795","62.43","1013.424","14.06","99.9","NAN","0.0"],
    [1544613,"2026-03-05 20:20:00","56369","2.949","46.53","6.272","18.63","1013.513","14.04","99.9","NAN","0.0"],
    [1544614,"2026-03-05 20:30:00","56370","2.511","45.01","5.684","30.65","1013.56","14.03","99.9","NAN","0.0"],
    [1544615,"2026-03-05 20:40:00","56371","3.0","42.74","7.0889999999999995","31.24","1013.431","14.02","99.9","NAN","0.0"],
    [1544616,"2026-03-05 20:50:00","56372","3.07","46.52","7.187","55.81","1013.362","14.01","99.3","NAN","0.0"],
    [1544617,"2026-03-05 21:00:00","56373","3.054","45.38","7.023","48.25","1013.428","14.06","98.3","NAN","0.0"],
    [1544618,"2026-03-05 21:10:00","56374","3.475","52.34","9.18","58.1","1013.403","14.13","96.8","NAN","0.0"],
    [1544619,"2026-03-05 21:20:00","56375","2.511","52.02","6.141","37.77","1013.487","14.17","96","NAN","0.0"],
    [1544620,"2026-03-05 21:30:00","56376","3.235","48.22","6.468","49.66","1013.4910000000001","14.19","95.5","NAN","0.0"],
    [1544621,"2026-03-05 21:40:00","56377","3.014","46.07","6.7620000000000005","59.88","1013.438","14.24","94.7","NAN","0.0"],
    [1544622,"2026-03-05 21:50:00","56378","3.468","43.6","6.827000000000001","32.47","1013.441","14.27","93.8","NAN","0.0"],
    [1544623,"2026-03-05 22:00:00","56379","2.792","48.48","6.501","25.09","1013.434","14.32","92.6","NAN","0.0"],
    [1544624,"2026-03-05 22:10:00","56380","2.947","59.23","6.697","80.2","1013.4960000000001","14.38","91.9","NAN","0.0"],
    [1544625,"2026-03-05 22:20:00","56381","3.5039999999999996","66.06","8.53","69.3","1013.438","14.48","91.2","NAN","0.0"],
    [1544626,"2026-03-05 22:30:00","56382","2.927","59.63","6.501","37.58","1013.424","14.47","92.1","NAN","0.0"],
    [1544627,"2026-03-05 22:40:00","56383","3.3110000000000004","59.49","6.664","44.5","1013.365","14.36","93.6","NAN","0.0"],
    [1544628,"2026-03-05 22:50:00","56384","3.8310000000000004","66.67","7.6770000000000005","72.2","1013.284","14.35","93.8","NAN","0.0"],
    [1544629,"2026-03-05 23:00:00","56385","4.144","70.6","7.775","75.29","1013.112","14.36","93.5","NAN","0.0"],
    [1544630,"2026-03-05 23:10:00","56386","4.333","66.28","9.57","51.41","1013.059","14.38","93","NAN","0.0"],
    [1544631,"2026-03-05 23:20:00","56387","5.657","69.07","9.6","64.68","1012.987","14.4","92.7","NAN","0.1"],
    [1544632,"2026-03-05 23:30:00","56388","2.9330000000000003","59.51","7.317","75.07","1013.045","14.25","94.2","NAN","0.0"],
    [1544633,"2026-03-05 23:40:00","56389","2.012","51.62","4.802","80.3","1013.087","14.14","94.5","NAN","0.0"],
    [1544634,"2026-03-05 23:50:00","56390","2.481","58.9","6.305","72.3","1013.0060000000001","14.23","93.4","NAN","0.0"],
    [1544635,"2026-03-06 00:00:00","56391","2.9619999999999997","55.95","8.23","73.98","1012.9989999999999","14.42","91.6","NAN","0.0"],
    [1544636,"2026-03-06 00:10:00","56392","3.194","62.91","8.07","70.2","1012.965","14.5","91.3","NAN","0.0"],
    [1544637,"2026-03-06 00:20:00","56393","3.5439999999999996","62.67","9.83","83.7","1012.934","14.57","91.1","NAN","0.0"],
    [1544638,"2026-03-06 00:30:00","56394","3.17","59.55","7.546","79.82","1012.932","14.56","91.5","NAN","0.0"],
    [1544639,"2026-03-06 00:40:00","56395","3.35","62.87","7.252000000000001","79.31","1012.809","14.5","92.2","NAN","0.0"],
    [1544640,"2026-03-06 00:50:00","56396","3.6519999999999997","64.44","8.33","68.17","1012.7130000000001","14.45","92.2","NAN","0.0"],
    [1544641,"2026-03-06 01:00:00","56397","3.4760000000000004","62.04","6.957999999999999","52.77","1012.681","14.37","93.5","NAN","0.1"],
    [1544642,"2026-03-06 01:10:00","56398","4.481","66.79","9.38","82.2","1012.605","14.27","94.5","NAN","0.0"],
    [1544643,"2026-03-06 01:20:00","56399","3.307","65.8","7.154","68.02","1012.567","14.12","95.8","NAN","0.2"],
    [1544644,"2026-03-06 01:30:00","56400","2.608","55.23","7.121","69.37","1012.538","13.83","97.9","NAN","1.9"],
    [1544645,"2026-03-06 01:40:00","56401","2.935","56.74","6.599","30.54","1012.584","13.62","99.8","NAN","1.1"],
    [1544646,"2026-03-06 01:50:00","56402","3.045","52.74","6.305","69.54","1012.4119999999999","13.6","99.9","NAN","0.2"],
    [1544647,"2026-03-06 02:00:00","56403","3.0060000000000002","56.44","6.9910000000000005","80.0","1012.3489999999999","13.65","99.6","NAN","1.0"],
    [1544648,"2026-03-06 02:10:00","56404","3.411","50.42","8.17","48.71","1012.2689999999999","13.58","99.3","NAN","0.7"],
    [1544649,"2026-03-06 02:20:00","56405","4.015","51.48","9.15","61.41","1012.2239999999999","13.59","99","NAN","1.0"],
    [1544650,"2026-03-06 02:30:00","56406","3.667","48.64","8.2","49.21","1012.1439999999999","13.57","98.9","NAN","0.5"],
    [1544651,"2026-03-06 02:40:00","56407","3.5","47.84","7.775","58.41","1012.069","13.54","99.1","NAN","0.5"],
    [1544652,"2026-03-06 02:50:00","56408","3.281","50.07","6.697","37.8","1012.1519999999999","13.51","99.3","NAN","0.4"],
    [1544653,"2026-03-06 03:00:00","56409","3.117","55.17","8.72","75.39","1012.2339999999999","13.52","99.4","NAN","0.8"],
    [1544654,"2026-03-06 03:10:00","56410","4.6610000000000005","67.28","8.98","67.35","1012.1419999999999","13.42","99","NAN","0.6"],
    [1544655,"2026-03-06 03:20:00","56411","4.106","75.48","10.19","77.49","1012.038","13.53","98.4","NAN","0.3"],
    [1544656,"2026-03-06 03:30:00","56412","3.673","72.85","8.3","94.4","1012.015","13.56","98.6","NAN","0.6"],
    [1544657,"2026-03-06 03:40:00","56413","4.35","79.42","9.41","92.1","1011.9680000000001","13.49","99.2","NAN","0.3"],
    [1544658,"2026-03-06 03:50:00","56414","5.13","83.1","10.62","79.83","1011.945","13.5","98.9","NAN","0.0"],
    [1544659,"2026-03-06 04:00:00","56415","4.814","76.28","11.04","66.6","1011.898","13.58","98","NAN","0.0"],
    [1544660,"2026-03-06 04:10:00","56416","5.723","67.09","10.78","68.87","1011.7460000000001","13.65","97.5","NAN","0.0"],
    [1544661,"2026-03-06 04:20:00","56417","5.041","67.9","10.55","63.56","1011.814","13.72","97.5","NAN","0.0"],
    [1544662,"2026-03-06 04:30:00","56418","4.5760000000000005","68.01","10.06","80.0","1011.913","13.74","97.5","NAN","0.0"],
    [1544663,"2026-03-06 04:40:00","56419","5.612","68.63","10.55","66.84","1011.966","13.74","97.1","NAN","0.0"],
    [1544664,"2026-03-06 04:50:00","56420","6.983","69.45","13.39","75.59","1011.882","13.76","96.4","NAN","0.0"],
    [1544665,"2026-03-06 05:00:00","56421","4.646","59.38","10.81","65.99","1011.7710000000001","13.77","95.9","NAN","0.0"],
    [1544666,"2026-03-06 05:10:00","56422","3.9610000000000003","44.46","8.79","29.79","1011.632","13.7","96.3","NAN","0.0"],
    [1544667,"2026-03-06 05:20:00","56423","3.674","50.82","8.89","46.36","1011.7639999999999","13.62","96.5","NAN","0.0"],
    [1544668,"2026-03-06 05:30:00","56424","3.88","71.42","8.82","70.59","1012.5169999999999","13.6","96.1","NAN","0.0"],
    [1544669,"2026-03-06 05:40:00","56425","4.539","70.63","10.81","71.94","1012.745","13.75","93.9","NAN","0.0"],
    [1544670,"2026-03-06 05:50:00","56426","4.7410000000000005","70.63","9.77","70.15","1012.801","13.77","94.4","NAN","0.0"],
    [1544671,"2026-03-06 06:00:00","56427","4.631","73.2","12.18","90.6","1012.8389999999999","13.76","95.7","NAN","0.0"],
    [1544672,"2026-03-06 06:10:00","56428","6.242000000000001","68.6","11.27","69.63","1012.7610000000001","13.67","96.4","NAN","0.0"],
    [1544673,"2026-03-06 06:20:00","56429","5.586","71.6","11.24","75.24","1012.8489999999999","13.64","96.2","NAN","0.0"],
    [1544674,"2026-03-06 06:30:00","56430","5.561","71.45","9.54","64.95","1012.872","13.66","95","NAN","0.0"],
    [1544675,"2026-03-06 06:40:00","56431","5.0","70.17","11.01","73.5","1012.944","13.68","94.4","NAN","0.0"],
    [1544676,"2026-03-06 06:50:00","56432","5.767","69.74","10.85","68.82","1012.9639999999999","13.68","95.4","NAN","0.0"],
    [1544677,"2026-03-06 07:00:00","56433","5.234","68.08","9.21","69.67","1013.076","13.72","95.5","NAN","0.0"],
    [1544678,"2026-03-06 07:10:00","56434","4.439","68.71","8.89","62.95","1013.21","13.78","93.3","NAN","0.0"],
    [1544679,"2026-03-06 07:20:00","56435","4.559","68.92","9.6","62.96","1013.242","13.82","92.4","NAN","0.0"],
    [1544680,"2026-03-06 07:30:00","56436","6.729","69.55","11.56","66.02","1013.22","13.69","93.6","NAN","0.1"],
    [1544681,"2026-03-06 07:40:00","56437","5.359","69.07","10.26","66.52","1013.203","13.61","95.9","NAN","0.1"],
    [1544682,"2026-03-06 07:50:00","56438","3.9760000000000004","70.91","8.62","73.45","1013.34","13.39","97.2","NAN","0.1"],
    [1544683,"2026-03-06 08:00:00","56439","2.504","50.7","8.56","60.6","1013.284","13.29","97.7","NAN","0.0"],
    [1544684,"2026-03-06 08:10:00","56440","3.6519999999999997","47.36","7.709","69.08","1013.2139999999999","13.31","98.1","NAN","0.1"],
    [1544685,"2026-03-06 08:20:00","56441","2.7939999999999996","57.89","7.579","54.82","1013.2130000000001","13.39","98.5","NAN","0.0"],
    [1544686,"2026-03-06 08:30:00","56442","3.1289999999999996","53.95","6.827000000000001","35.15","1013.2139999999999","13.33","98.8","NAN","0.3"],
    [1544687,"2026-03-06 08:40:00","56443","3.298","51.7","8.59","53.66","1013.247","13.3","99","NAN","0.1"],
    [1544688,"2026-03-06 08:50:00","56444","3.8169999999999997","52.53","9.8","62.28","1013.24","13.32","98.8","NAN","0.2"],
    [1544689,"2026-03-06 09:00:00","56445","4.127","48.41","8.66","70.0","1013.2310000000001","13.34","98.2","NAN","0.0"],
    [1544690,"2026-03-06 09:10:00","56446","4.31","52.78","10.42","65.9","1013.2280000000001","13.34","97.6","NAN","0.4"],
    [1544691,"2026-03-06 09:20:00","56447","4.138","49.37","10.06","44.87","1013.2919999999999","13.34","97.8","NAN","0.2"],
    [1544692,"2026-03-06 09:30:00","56448","3.3939999999999997","58.45","8.17","73.2","1013.47","13.31","98.7","NAN","2.6"],
    [1544693,"2026-03-06 09:40:00","56449","2.6010000000000004","60.94","8.26","61.01","1013.4689999999999","13.14","99.9","NAN","1.6"],
    [1544694,"2026-03-06 09:50:00","56450","3.71","52.04","8.98","49.33","1013.313","13.12","99.9","NAN","2.6"],
    [1544695,"2026-03-06 10:00:00","56451","4.482","53.79","9.87","73.42","1013.221","13.1","99.9","NAN","0.6"],
    [1544696,"2026-03-06 10:10:00","56452","3.8960000000000004","56.89","9.44","69.89","1013.293","13.2","99.9","NAN","0.3"],
    [1544697,"2026-03-06 10:20:00","56453","5.792000000000001","70.2","12.77","71.65","1013.3660000000001","13.28","99.9","NAN","0.4"],
    [1544698,"2026-03-06 10:30:00","56454","5.617999999999999","72.74","10.65","87.5","1013.48","13.31","99.6","NAN","0.1"],
    [1544699,"2026-03-06 10:40:00","56455","5.317","72.36","10.71","76.66","1013.637","13.41","99.1","NAN","0.0"],
    [1544700,"2026-03-06 10:50:00","56456","7.242000000000001","70.7","12.97","73.51","1013.528","13.48","98.5","NAN","0.2"],
    [1544701,"2026-03-06 11:00:00","56457","6.4","69.39","12.32","56.09","1013.697","13.48","98.1","NAN","0.0"],
    [1544702,"2026-03-06 11:10:00","56458","5.81","67.67","11.34","52.77","1013.835","13.52","98.2","NAN","0.1"],
    [1544703,"2026-03-06 11:20:00","56459","5.159","69.76","9.64","65.72","1013.8439999999999","13.47","98.4","NAN","0.2"],
    [1544704,"2026-03-06 11:30:00","56460","4.317","70.12","9.18","66.64","1013.9889999999999","13.56","98.4","NAN","0.1"],
    [1544705,"2026-03-06 11:40:00","56461","4.883","74.96","9.47","55.79","1014.034","13.57","98.7","NAN","0.2"],
    [1544706,"2026-03-06 11:50:00","56462","4.1530000000000005","76.74","8.4","60.48","1014.086","13.59","98.8","NAN","0.0"],
    [1544707,"2026-03-06 12:00:00","56463","4.236000000000001","77.52","8.3","80.6","1014.04","13.69","98.8","NAN","0.0"],
    [1544708,"2026-03-06 12:10:00","56464","5.211","67.73","10.09","72.62","1013.938","13.76","98.5","NAN","0.0"],
    [1544709,"2026-03-06 12:20:00","56465","4.045","68.94","7.546","50.57","1013.993","13.83","98.1","NAN","0.0"],
    [1544710,"2026-03-06 12:30:00","56466","4.008","67.37","8.2","75.32","1013.887","13.82","97.7","NAN","0.0"],
    [1544711,"2026-03-06 12:40:00","56467","4.516","65.58","9.7","77.14","1013.819","14.05","96.1","NAN","0.0"],
    [1544712,"2026-03-06 12:50:00","56468","5.044","72.32","10.32","67.34","1013.8969999999999","13.98","95.4","NAN","0.0"],
    [1544713,"2026-03-06 13:00:00","56469","4.213","71.63","8.3","75.2","1013.895","13.95","95.4","NAN","0.0"],
    [1544714,"2026-03-06 13:10:00","56470","4.558","71.03","9.83","78.52","1013.8789999999999","13.94","95.5","NAN","0.0"],
    [1544715,"2026-03-06 13:20:00","56471","4.638","67.42","8.49","71.17","1013.87","13.9","95.8","NAN","0.0"],
    [1544716,"2026-03-06 13:30:00","56472","3.391","69.51","9.28","70.32","1013.7560000000001","13.99","95.5","NAN","0.0"],
    [1544717,"2026-03-06 13:40:00","56473","3.562","66.39","10.62","67.11","1013.707","14.14","95","NAN","0.0"],
    [1544718,"2026-03-06 13:50:00","56474","3.0180000000000002","64.38","6.7620000000000005","87.6","1013.7489999999999","14.09","95","NAN","0.0"],
    [1544719,"2026-03-06 14:00:00","56475","2.858","59.08","7.023","82.6","1013.7719999999999","14.08","95.5","NAN","0.0"],
    [1544720,"2026-03-06 14:10:00","56476","2.4730000000000003","58.58","5.357","74.96","1013.7289999999999","14.38","94.5","NAN","0.0"],
    [1544721,"2026-03-06 14:20:00","56477","3.807","68.99","7.775","78.94","1013.692","14.6","92.8","NAN","0.0"],
    [1544722,"2026-03-06 14:30:00","56478","2.778","51.58","5.749","35.42","1013.794","14.43","93.6","NAN","0.0"],
    [1544723,"2026-03-06 14:40:00","56479","2.237","51.15","5.749","74.69","1013.829","14.35","94.1","NAN","0.0"],
    [1544724,"2026-03-06 14:50:00","56480","2.095","57.39","5.684","25.54","1013.8589999999999","14.64","93.3","NAN","0.0"],
    [1544725,"2026-03-06 15:00:00","56481","3.377","71.52","7.742000000000001","75.41","1013.933","14.68","92.6","NAN","0.0"],
    [1544726,"2026-03-06 15:10:00","56482","5.03","71.41","10.26","71.63","1013.914","14.53","92.8","NAN","0.0"],
    [1544727,"2026-03-06 15:20:00","56483","4.45","73.47","8.33","85.0","1013.9910000000001","14.49","93.1","NAN","0.0"],
    [1544728,"2026-03-06 15:30:00","56484","3.4219999999999997","67.52","6.893","72.1","1014.0930000000001","14.49","93.5","NAN","0.0"],
    [1544729,"2026-03-06 15:40:00","56485","3.022","69.21","7.579","76.41","1014.056","14.43","94.5","NAN","0.0"],
    [1544730,"2026-03-06 15:50:00","56486","5.019","72.75","8.07","72.88","1014.0980000000001","14.34","94.2","NAN","0.0"],
    [1544731,"2026-03-06 16:00:00","56487","4.18","71.29","9.41","66.2","1014.023","14.32","93.4","NAN","0.0"],
    [1544732,"2026-03-06 16:10:00","56488","2.9419999999999997","51.38","6.207000000000001","52.16","1014.008","14.36","93.3","NAN","0.0"],
    [1544733,"2026-03-06 16:20:00","56489","2.525","56.25","6.468","77.51","1014.185","14.32","93.4","NAN","0.0"],
    [1544734,"2026-03-06 16:30:00","56490","2.807","71.79","6.403","74.76","1014.325","14.28","93.1","NAN","0.0"],
    [1544735,"2026-03-06 16:40:00","56491","3.45","69.16","7.317","79.5","1014.452","14.24","92.5","NAN","0.0"],
    [1544736,"2026-03-06 16:50:00","56492","3.055","60.18","8.26","59.76","1014.539","14.17","92.2","NAN","0.0"],
    [1544737,"2026-03-06 17:00:00","56493","2.805","54.03","5.815","60.42","1014.6039999999999","14.14","92.5","NAN","0.0"],
    [1544738,"2026-03-06 17:10:00","56494","2.333","57.94","4.998","34.01","1014.668","14.11","93.3","NAN","0.0"],
    [1544739,"2026-03-06 17:20:00","56495","3.553","71.19","7.742000000000001","75.88","1014.7360000000001","14.11","93.9","NAN","0.0"],
    [1544740,"2026-03-06 17:30:00","56496","5.111000000000001","70.67","9.47","74.47","1014.7330000000001","14.02","94.5","NAN","0.0"],
    [1544741,"2026-03-06 17:40:00","56497","5.007","68.14","9.9","79.71","1014.75","13.97","94.9","NAN","0.0"],
    [1544742,"2026-03-06 17:50:00","56498","5.461","71.3","10.0","71.46","1014.915","13.92","95.5","NAN","0.1"],
    [1544743,"2026-03-06 18:00:00","56499","4.78","75.58","8.92","67.22","1015.03","13.9","95.6","NAN","0.0"],
    [1544744,"2026-03-06 18:10:00","56500","6.39","69.28","10.26","72.64","1015.056","13.93","95.5","NAN","0.0"],
    [1544745,"2026-03-06 18:20:00","56501","5.68","67.54","9.31","78.56","1015.2489999999999","13.96","95.3","NAN","0.1"],
    [1544746,"2026-03-06 18:30:00","56502","3.5780000000000003","76.9","7.807","67.76","1015.45","14","96.4","NAN","0.0"],
    [1544747,"2026-03-06 18:40:00","56503","2.662","71.69","4.9","65.23","1015.505","13.96","96.7","NAN","0.0"],
    [1544748,"2026-03-06 18:50:00","56504","2.327","69.59","4.9","66.66","1015.689","13.94","96.3","NAN","0.0"],
    [1544749,"2026-03-06 19:00:00","56505","2.396","65.66","4.638999999999999","69.16","1015.742","13.93","95.5","NAN","0.0"],
    [1544750,"2026-03-06 19:10:00","56506","2.525","69.3","4.802","66.59","1015.987","13.95","94.9","NAN","0.0"],
    [1544751,"2026-03-06 19:20:00","56507","3.113","64.67","6.5329999999999995","70.43","1016.0980000000001","13.96","94.6","NAN","0.0"],
    [1544752,"2026-03-06 19:30:00","56508","3.4989999999999997","66.18","6.305","62.96","1016.209","13.97","94.4","NAN","0.0"],
    [1544753,"2026-03-06 19:40:00","56509","2.6689999999999996","65.87","4.9","68.97","1016.315","13.93","94.6","NAN","0.0"],
    [1544754,"2026-03-06 19:50:00","56510","3.7310000000000003","64.76","7.023","71.19","1016.415","13.96","92.4","NAN","0.0"],
    [1544755,"2026-03-06 20:00:00","56511","3.9810000000000003","67.95","6.501","60.15","1016.578","14.05","92.8","NAN","0.0"],
    [1544756,"2026-03-06 20:10:00","56512","3.873","69.28","7.0889999999999995","72.31","1016.64","14.01","94.6","NAN","0.1"],
    [1544757,"2026-03-06 20:20:00","56513","2.654","62.36","5.684","73.32","1016.698","13.91","92.7","NAN","0.0"],
    [1544758,"2026-03-06 20:30:00","56514","2.622","69.09","4.998","59.79","1016.76","13.98","93","NAN","0.1"],
    [1544759,"2026-03-06 20:40:00","56515","2.086","64.3","4.802","56.04","1016.852","14.01","93.6","NAN","0.0"],
    [1544760,"2026-03-06 20:50:00","56516","1.885","59.5","5.292000000000001","76.68","1016.921","14.05","95.1","NAN","0.0"],
    [1544761,"2026-03-06 21:00:00","56517","2.8369999999999997","67.11","6.305","58.96","1017.0","14.05","95.6","NAN","0.0"],
    [1544762,"2026-03-06 21:10:00","56518","2.4819999999999998","62.06","5.227","74.05","1017.054","13.95","96","NAN","0.1"],
    [1544763,"2026-03-06 21:20:00","56519","2.6639999999999997","59.99","6.9910000000000005","74.6","1017.045","13.84","95.2","NAN","0.0"],
    [1544764,"2026-03-06 21:30:00","56520","3.142","64.63","8.49","72.41","1017.11","13.95","94","NAN","0.0"],
    [1544765,"2026-03-06 21:40:00","56521","3.833","69.92","8.26","83.2","1017.118","14.04","94.6","NAN","0.0"],
    [1544766,"2026-03-06 21:50:00","56522","4.409","70.91","8.59","81.5","1017.091","14.03","94.1","NAN","0.0"],
    [1544767,"2026-03-06 22:00:00","56523","3.1489999999999996","72.22","6.207000000000001","74.8","1017.207","14.02","94.8","NAN","0.1"],
    [1544768,"2026-03-06 22:10:00","56524","3.457","67.29","8.13","62.47","1017.26","14","95.3","NAN","0.0"],
    [1544769,"2026-03-06 22:20:00","56525","3.721","64.26","7.546","68.03","1017.2339999999999","14.03","94.8","NAN","0.0"],
    [1544770,"2026-03-06 22:30:00","56526","4.322","70.17","8.56","83.0","1017.263","14.09","95.2","NAN","0.0"],
    [1544771,"2026-03-06 22:40:00","56527","5.008","72.75","9.6","95.1","1017.247","14.12","96.1","NAN","0.0"],
    [1544772,"2026-03-06 22:50:00","56528","5.632000000000001","68.26","10.32","72.54","1017.294","14.09","96.3","NAN","0.0"],
    [1544773,"2026-03-06 23:00:00","56529","5.178","68.48","9.08","73.41","1017.4060000000001","14.11","95.4","NAN","0.0"],
    [1544774,"2026-03-06 23:10:00","56530","5.189","68.57","8.85","63.64","1017.439","14.15","94","NAN","0.0"],
    [1544775,"2026-03-06 23:20:00","56531","4.995","63.98","8.85","71.11","1017.449","14.23","94","NAN","0.0"],
    [1544776,"2026-03-06 23:30:00","56532","5.428","69.35","9.64","78.86","1017.435","14.23","95","NAN","0.0"],
    [1544777,"2026-03-06 23:40:00","56533","4.7669999999999995","69.02","8.92","63.16","1017.419","14.2","96.4","NAN","0.0"],
    [1544778,"2026-03-06 23:50:00","56534","5.2","68.38","9.11","67.23","1017.445","14.16","96.7","NAN","0.0"],
    [1544779,"2026-03-07 00:00:00","56535","5.037","66.76","9.38","50.5","1017.452","14.16","96.2","NAN","0.0"],
    [1544780,"2026-03-07 00:10:00","56536","3.948","67.93","9.05","62.65","1017.4780000000001","14.21","96.1","NAN","0.0"],
    [1544781,"2026-03-07 00:20:00","56537","3.2560000000000002","72.34","6.729","66.99","1017.4860000000001","14.17","97.2","NAN","0.0"],
    [1544782,"2026-03-07 00:30:00","56538","3.514","84.7","8.26","74.59","1017.566","14.08","97.1","NAN","0.0"],
    [1544783,"2026-03-07 00:40:00","56539","2.949","88.9","5.782","104.5","1017.596","14.08","95","NAN","0.0"],
    [1544784,"2026-03-07 00:50:00","56540","2.524","93.1","6.272","98.3","1017.6619999999999","14.17","93.8","NAN","0.0"],
    [1544785,"2026-03-07 01:00:00","56541","2.7769999999999997","88.5","5.945","71.11","1017.686","14.17","93.9","NAN","0.0"],
    [1544786,"2026-03-07 01:10:00","56542","2.602","87.4","5.815","119.2","1017.7","14.12","93.7","NAN","0.0"],
    [1544787,"2026-03-07 01:20:00","56543","2.34","91.7","5.325","81.0","1017.682","14.1","93.4","NAN","0.0"],
    [1544788,"2026-03-07 01:30:00","56544","2.05","92.1","5.063","72.03","1017.69","14.08","93.1","NAN","0.1"],
    [1544789,"2026-03-07 01:40:00","56545","3.014","82.2","5.619","89.5","1017.623","14.03","93","NAN","0.0"],
    [1544790,"2026-03-07 01:50:00","56546","3.427","78.93","6.403","81.2","1017.592","13.99","93.2","NAN","0.0"],
    [1544791,"2026-03-07 02:00:00","56547","2.975","81.6","5.651","63.04","1017.6410000000001","13.99","93.7","NAN","0.0"],
    [1544792,"2026-03-07 02:10:00","56548","2.759","85.0","5.325","84.5","1017.691","13.96","94","NAN","0.0"],
    [1544793,"2026-03-07 02:20:00","56549","2.265","88.9","4.998","65.89","1017.62","13.92","93.5","NAN","0.0"],
    [1544794,"2026-03-07 02:30:00","56550","1.964","89.5","4.769","84.7","1017.581","13.9","93.5","NAN","0.0"],
    [1544795,"2026-03-07 02:40:00","56551","2.9419999999999997","82.4","5.521","61.68","1017.528","13.89","94.2","NAN","0.0"],
    [1544796,"2026-03-07 02:50:00","56552","2.6510000000000002","78.83","5.1610000000000005","63.15","1017.3889999999999","13.85","94.6","NAN","0.0"],
    [1544797,"2026-03-07 03:00:00","56553","2.168","66.58","4.933","81.9","1017.313","13.82","95","NAN","0.0"],
    [1544798,"2026-03-07 03:10:00","56554","2.129","73.13","4.4430000000000005","57.8","1017.319","13.77","94.9","NAN","0.0"],
    [1544799,"2026-03-07 03:20:00","56555","2.083","71.0","4.508","66.93","1017.2760000000001","13.77","94.7","NAN","0.0"],
    [1544800,"2026-03-07 03:30:00","56556","2.108","74.64","4.475","63.5","1017.3380000000001","13.78","94.6","NAN","0.0"],
    [1544801,"2026-03-07 03:40:00","56557","2.5180000000000002","71.9","5.912999999999999","73.49","1017.2610000000001","13.8","94.5","NAN","0.0"],
    [1544802,"2026-03-07 03:50:00","56558","3.176","70.55","5.912999999999999","73.49","1017.2739999999999","13.8","94.5","NAN","0.0"],
    [1544803,"2026-03-07 04:00:00","56559","2.65","69.7","5.945","62.09","1017.352","13.79","94.2","NAN","0.0"],
    [1544804,"2026-03-07 04:10:00","56560","3.053","72.71","5.455","71.59","1017.443","13.77","95","NAN","1.6"],
    [1544805,"2026-03-07 04:20:00","56561","2.867","109.0","6.435","94.7","1017.679","13.13","99","NAN","5.8"],
    [1544806,"2026-03-07 04:30:00","56562","3.483","119.0","6.337000000000001","111.5","1017.8539999999999","12.5","99.9","NAN","0.5"],
    [1544807,"2026-03-07 04:40:00","56563","3.188","141.9","6.664","116.4","1017.975","12.97","98.4","NAN","0.0"],
    [1544808,"2026-03-07 04:50:00","56564","2.85","151.5","4.867","169.7","1018.1410000000001","13.62","90.8","NAN","0.0"],
    [1544809,"2026-03-07 05:00:00","56565","2.5340000000000003","147.4","4.867","113.9","1018.2080000000001","13.69","89.2","NAN","0.0"],
    [1544810,"2026-03-07 05:10:00","56566","2.447","151.2","5.292000000000001","128.6","1018.283","13.67","88.1","NAN","0.0"],
    [1544811,"2026-03-07 05:20:00","56567","2.418","151.7","3.985","153.0","1018.373","13.63","86.8","NAN","0.0"],
    [1544812,"2026-03-07 05:30:00","56568","2.2680000000000002","154.9","4.704","156.8","1018.503","13.6","86.2","NAN","0.0"],
    [1544813,"2026-03-07 05:40:00","56569","2.4459999999999997","151.4","4.573","118.4","1018.545","13.52","85.3","NAN","0.0"],
    [1544814,"2026-03-07 05:50:00","56570","2.1919999999999997","151.4","3.985","141.5","1018.6669999999999","13.51","85.1","NAN","0.0"],
    [1544815,"2026-03-07 06:00:00","56571","1.284","141.8","2.9730000000000003","146.9","1018.826","13.47","86.2","NAN","0.0"],
    [1544816,"2026-03-07 06:10:00","56572","1.281","139.4","3.332","112.6","1018.943","13.29","87.1","NAN","0.0"],
    [1544817,"2026-03-07 06:20:00","56573","1.5430000000000001","133.1","2.875","144.6","1019.005","13.34","87.7","NAN","0.0"],
    [1544818,"2026-03-07 06:30:00","56574","1.344","136.4","2.7439999999999998","115.0","1019.13","13.39","88.2","NAN","0.0"],
    [1544819,"2026-03-07 06:40:00","56575","0.862","157.0","2.123","130.4","1019.252","13.39","89.1","NAN","0.0"],
    [1544820,"2026-03-07 06:50:00","56576","0.309","116.9","1.143","137.2","1019.295","13.5","89.2","NAN","0.0"],
    [1544821,"2026-03-07 07:00:00","56577","0.317","137.8","1.013","130.3","1019.409","13.72","88","NAN","0.0"],
    [1544822,"2026-03-07 07:10:00","56578","0.196","117.3","0.8490000000000001","127.2","1019.659","14.15","86.3","NAN","0.0"],
    [1544823,"2026-03-07 07:20:00","56579","0.5489999999999999","119.6","1.568","155.2","1019.89","14.4","84.5","NAN","0.0"],
    [1544824,"2026-03-07 07:30:00","56580","0.638","121.4","1.666","116.3","1020.0160000000001","14.03","85.4","NAN","0.0"],
    [1544825,"2026-03-07 07:40:00","56581","0.68","122.1","1.47","111.6","1020.069","14.04","85.9","NAN","0.0"],
    [1544826,"2026-03-07 07:50:00","56582","0.882","123.4","1.568","104.9","1020.158","14.1","86.3","NAN","0.0"],
    [1544827,"2026-03-07 08:00:00","56583","0.888","140.1","2.0909999999999997","137.3","1020.16","13.99","85.1","NAN","0.0"],
    [1544828,"2026-03-07 08:10:00","56584","0.893","123.5","1.96","110.2","1020.078","14.29","78.29","NAN","0.0"],
    [1544829,"2026-03-07 08:20:00","56585","0.6609999999999999","133.3","1.895","113.5","1020.18","14.29","79.32","NAN","0.0"],
    [1544830,"2026-03-07 08:30:00","56586","0.8420000000000001","119.4","1.764","101.9","1020.205","14.68","80.4","NAN","0.0"],
    [1544831,"2026-03-07 08:40:00","56587","1.159","115.3","1.9269999999999998","126.5","1020.237","14.59","82.4","NAN","0.0"],
    [1544832,"2026-03-07 08:50:00","56588","1.32","123.0","2.352","119.8","1020.305","14.67","82.4","NAN","0.0"],
    [1544833,"2026-03-07 09:00:00","56589","1.338","122.1","2.875","139.2","1020.427","15.07","79.66","NAN","0.0"],
    [1544834,"2026-03-07 09:10:00","56590","1.403","127.3","2.483","112.5","1020.554","14.83","79.48","NAN","0.0"],
    [1544835,"2026-03-07 09:20:00","56591","1.383","108.2","2.5810000000000004","106.5","1020.6560000000001","15.35","77.65","NAN","0.0"],
    [1544836,"2026-03-07 09:30:00","56592","1.527","121.8","2.6460000000000004","145.1","1020.576","15.18","77.25","NAN","0.0"],
    [1544837,"2026-03-07 09:40:00","56593","1.787","129.8","2.9730000000000003","146.4","1020.5310000000001","14.54","78.83","NAN","0.0"],
    [1544838,"2026-03-07 09:50:00","56594","1.51","123.1","2.907","118.0","1020.6110000000001","14.71","79.91","NAN","0.0"],
    [1544839,"2026-03-07 10:00:00","56595","1.463","121.8","3.0380000000000003","142.9","1020.678","15","78.73","NAN","0.0"],
    [1544840,"2026-03-07 10:10:00","56596","1.7109999999999999","120.8","3.0380000000000003","123.1","1020.711","14.77","78.88","NAN","0.0"],
    [1544841,"2026-03-07 10:20:00","56597","1.406","93.1","3.136","109.9","1020.7080000000001","15.38","75.95","NAN","0.0"],
    [1544842,"2026-03-07 10:30:00","56598","1.831","104.6","3.7569999999999997","108.7","1020.835","15.14","77.75","NAN","0.0"],
    [1544843,"2026-03-07 10:40:00","56599","1.9409999999999998","101.0","3.463","106.2","1020.8480000000001","14.73","79.49","NAN","0.0"],
    [1544844,"2026-03-07 10:50:00","56600","1.796","105.2","3.495","92.3","1020.87","15.31","77.95","NAN","0.0"],
    [1544845,"2026-03-07 11:00:00","56601","2.193","105.5","3.6910000000000003","109.4","1020.86","15.18","78.51","NAN","0.0"],
    [1544846,"2026-03-07 11:10:00","56602","2.073","103.3","3.5610000000000004","107.6","1020.865","15.14","77.38","NAN","0.0"],
    [1544847,"2026-03-07 11:20:00","56603","1.81","106.7","3.299","108.9","1020.9069999999999","15.34","76.06","NAN","0.0"],
    [1544848,"2026-03-07 11:30:00","56604","2.209","106.4","3.397","103.5","1020.99","14.79","77.62","NAN","0.0"],
    [1544849,"2026-03-07 11:40:00","56605","2.025","91.9","3.5610000000000004","57.67","1021.117","14.91","77.74","NAN","0.0"],
    [1544850,"2026-03-07 11:50:00","56606","1.7069999999999999","76.13","4.051","77.37","1021.067","14.89","78.42","NAN","0.0"],
    [1544851,"2026-03-07 12:00:00","56607","1.9380000000000002","88.3","3.659","71.72","1021.0269999999999","15.05","77.04","NAN","0.0"],
    [1544852,"2026-03-07 12:10:00","56608","2.235","109.6","4.475","105.2","1021.077","15.12","76.36","NAN","0.0"],
    [1544853,"2026-03-07 12:20:00","56609","2.003","106.2","4.149","106.7","1020.982","14.88","76.06","NAN","0.0"],
    [1544854,"2026-03-07 12:30:00","56610","1.527","83.1","3.1689999999999996","77.49","1020.922","14.93","75.57","NAN","0.0"],
    [1544855,"2026-03-07 12:40:00","56611","1.65","83.7","3.593","68.53","1020.753","14.88","73.23","NAN","0.0"],
    [1544856,"2026-03-07 12:50:00","56612","1.9","81.7","3.397","78.4","1020.666","14.93","73.26","NAN","0.0"],
    [1544857,"2026-03-07 13:00:00","56613","1.946","99.2","3.855","69.41","1020.571","15.02","73.23","NAN","0.0"],
    [1544858,"2026-03-07 13:10:00","56614","2.072","107.5","3.887","117.6","1020.432","14.81","74.84","NAN","0.0"],
    [1544859,"2026-03-07 13:20:00","56615","1.524","114.2","3.659","121.8","1020.4689999999999","14.79","73.98","NAN","0.0"],
    [1544860,"2026-03-07 13:30:00","56616","1.7169999999999999","108.3","3.234","110.5","1020.424","14.76","76.53","NAN","0.0"],
    [1544861,"2026-03-07 13:40:00","56617","1.506","100.3","3.7569999999999997","107.8","1020.439","14.9","76.63","NAN","0.0"],
    [1544862,"2026-03-07 13:50:00","56618","2.662","97.5","4.769","102.3","1020.529","14.69","75.39","NAN","0.0"],
    [1544863,"2026-03-07 14:00:00","56619","2.39","102.3","4.638999999999999","102.6","1020.447","14.67","75.24","NAN","0.0"],
    [1544864,"2026-03-07 14:10:00","56620","2.397","128.5","4.181","134.3","1020.6410000000001","14.59","77.04","NAN","0.0"],
    [1544865,"2026-03-07 14:20:00","56621","2.5639999999999996","145.4","4.769","156.8","1020.706","14.47","80.8","NAN","0.0"],
    [1544866,"2026-03-07 14:30:00","56622","2.2","149.4","4.051","155.2","1020.825","14.61","81.4","NAN","0.0"],
    [1544867,"2026-03-07 14:40:00","56623","2.3209999999999997","160.4","4.867","180.8","1020.815","14.45","83.3","NAN","0.0"],
    [1544868,"2026-03-07 14:50:00","56624","2.955","207.5","5.847","195.4","1020.86","13.5","85.8","NAN","0.0"],
    [1544869,"2026-03-07 15:00:00","56625","2.892","204.9","5.847","216.3","1020.975","12.76","85.4","NAN","0.0"],
    [1544870,"2026-03-07 15:10:00","56626","2.6830000000000003","218.5","4.802","195.9","1020.972","12.63","85.1","NAN","0.0"],
    [1544871,"2026-03-07 15:20:00","56627","2.291","216.8","6.011","222.4","1020.863","12.39","84","NAN","0.0"],
    [1544872,"2026-03-07 15:30:00","56628","1.4669999999999999","217.0","3.267","209.4","1020.73","12.36","84.3","NAN","0.0"],
    [1544873,"2026-03-07 15:40:00","56629","1.429","195.7","3.136","166.5","1020.742","12.33","85.5","NAN","0.0"],
    [1544874,"2026-03-07 15:50:00","56630","1.732","197.2","3.071","179.7","1020.7410000000001","12.25","86.1","NAN","0.0"],
    [1544875,"2026-03-07 16:00:00","56631","2.211","235.5","5.227","240.5","1020.699","12.25","86.2","NAN","0.0"],
    [1544876,"2026-03-07 16:10:00","56632","2.245","238.3","5.031000000000001","228.1","1020.7760000000001","12.15","86.8","NAN","0.0"],
    [1544877,"2026-03-07 16:20:00","56633","1.922","230.6","4.475","220.0","1020.836","12.14","86.9","NAN","0.0"],
    [1544878,"2026-03-07 16:30:00","56634","1.412","223.3","3.6260000000000003","244.4","1020.962","12.17","86.6","NAN","0.0"],
    [1544879,"2026-03-07 16:40:00","56635","1.02","231.1","2.385","200.2","1021.0889999999999","12.28","86.5","NAN","0.0"],
    [1544880,"2026-03-07 16:50:00","56636","0.563","234.6","1.764","215.1","1021.076","12.36","86.1","NAN","0.0"],
    [1544881,"2026-03-07 17:00:00","56637","0.845","249.2","2.9730000000000003","303.8","1020.99","12.38","85.6","NAN","0.0"],
    [1544882,"2026-03-07 17:10:00","56638","1.2","254.5","2.9730000000000003","258.0","1020.945","12.42","82.7","NAN","0.0"],
    [1544883,"2026-03-07 17:20:00","56639","0.8220000000000001","257.8","2.45","259.8","1020.995","12.54","81.9","NAN","0.0"],
    [1544884,"2026-03-07 17:30:00","56640","1.042","281.6","2.5810000000000004","255.2","1021.0360000000001","12.54","79.66","NAN","0.0"],
    [1544885,"2026-03-07 17:40:00","56641","0.6809999999999999","244.5","1.764","254.8","1021.159","12.68","79.52","NAN","0.0"],
    [1544886,"2026-03-07 17:50:00","56642","0.42100000000000004","252.8","1.339","239.7","1021.24","12.63","80","NAN","0.0"],
    [1544887,"2026-03-07 18:00:00","56643","0.204","254.8","1.209","233.5","1021.2360000000001","12.69","80.7","NAN","0.0"],
    [1544888,"2026-03-07 18:10:00","56644","1.105","237.1","2.221","235.9","1021.24","12.77","81.1","NAN","0.0"],
    [1544889,"2026-03-07 18:20:00","56645","0.57","53.25","1.8619999999999999","61.87","1021.3560000000001","12.79","81.8","NAN","0.0"],
    [1544890,"2026-03-07 18:30:00","56646","0.4","65.09","0.9470000000000001","68.41","1021.5089999999999","12.86","82","NAN","0.0"],
    [1544891,"2026-03-07 18:40:00","56647","0.5660000000000001","22.38","1.699","31.16","1021.612","12.96","83","NAN","0.0"],
    [1544892,"2026-03-07 18:50:00","56648","0.71","37.93","1.764","5.702999999999999","1021.613","13.03","83.1","NAN","0.0"],
    [1544893,"2026-03-07 19:00:00","56649","0.789","16.95","1.601","11.63","1021.597","13.07","83.2","NAN","0.0"],
    [1544894,"2026-03-07 19:10:00","56650","1.04","3.8739999999999997","2.254","345.5","1021.6160000000001","13.05","82.8","NAN","0.0"],
    [1544895,"2026-03-07 19:20:00","56651","0.758","4.355","1.829","16.79","1021.6039999999999","13.1","83.2","NAN","0.0"],
    [1544896,"2026-03-07 19:30:00","56652","0.8859999999999999","9.01","2.319","10.62","1021.6060000000001","13.14","83.5","NAN","0.0"],
    [1544897,"2026-03-07 19:40:00","56653","1.205","14.61","2.7110000000000003","2.694","1021.613","13.17","82.9","NAN","0.0"],
    [1544898,"2026-03-07 19:50:00","56654","1.145","11.8","2.123","28.97","1021.722","13.27","82","NAN","0.0"],
    [1544899,"2026-03-07 20:00:00","56655","0.934","359.6","1.829","39.89","1021.658","13.36","81.8","NAN","0.0"],
    [1544900,"2026-03-07 20:10:00","56656","1.436","6.643","3.495","359.4","1021.5939999999999","13.31","82.4","NAN","0.0"],
    [1544901,"2026-03-07 20:20:00","56657","1.436","29.44","3.397","22.7","1021.705","13.25","82.3","NAN","0.0"],
    [1544902,"2026-03-07 20:30:00","56658","0.84","38.53","2.6460000000000004","62.5","1021.85","13.15","83.3","NAN","0.0"],
    [1544903,"2026-03-07 20:40:00","56659","0.9620000000000001","42.33","2.254","21.9","1021.959","13.09","82.6","NAN","0.0"],
    [1544904,"2026-03-07 20:50:00","56660","0.7070000000000001","29.31","1.993","21.74","1021.995","13.07","81.7","NAN","0.0"],
    [1544905,"2026-03-07 21:00:00","56661","0.626","13.9","2.025","1.412","1022.015","13.06","81.5","NAN","0.0"],
    [1544906,"2026-03-07 21:10:00","56662","0.917","16.01","2.221","24.91","1021.997","13.06","81.2","NAN","0.0"],
    [1544907,"2026-03-07 21:20:00","56663","0.718","19.15","1.797","38.54","1021.9939999999999","13.05","81.7","NAN","0.0"],
    [1544908,"2026-03-07 21:30:00","56664","0.996","30.16","2.417","56.55","1021.9910000000001","13.01","82.6","NAN","0.0"],
    [1544909,"2026-03-07 21:40:00","56665","1.2919999999999998","33.82","2.875","33.97","1021.998","13","83.5","NAN","0.0"],
    [1544910,"2026-03-07 21:50:00","56666","1.4140000000000001","31.48","2.7110000000000003","24.56","1021.987","13.1","83.8","NAN","0.0"],
    [1544911,"2026-03-07 22:00:00","56667","1.272","35.77","2.123","57.26","1021.93","13.13","84.1","NAN","0.0"],
    [1544912,"2026-03-07 22:10:00","56668","0.885","22.15","2.123","59.49","1021.793","13.09","84.2","NAN","0.0"],
    [1544913,"2026-03-07 22:20:00","56669","0.56","23.74","1.601","350.0","1021.7410000000001","13.03","83.9","NAN","0.0"],
    [1544914,"2026-03-07 22:30:00","56670","0.9279999999999999","9.08","2.45","3.412","1021.668","13.01","82.8","NAN","0.0"],
    [1544915,"2026-03-07 22:40:00","56671","0.5529999999999999","25.67","1.4369999999999998","350.6","1021.6210000000001","13.06","81.8","NAN","0.0"],
    [1544916,"2026-03-07 22:50:00","56672","0.682","32.2","1.8619999999999999","68.39","1021.544","12.99","81.6","NAN","0.0"],
    [1544917,"2026-03-07 23:00:00","56673","0.972","10.95","2.221","20.17","1021.4889999999999","12.98","79.35","NAN","0.0"],
    [1544918,"2026-03-07 23:10:00","56674","0.774","10.64","2.156","12.59","1021.3789999999999","13.05","76.57","NAN","0.0"],
    [1544919,"2026-03-07 23:20:00","56675","0.966","19.69","2.319","352.8","1021.372","13.11","73.99","NAN","0.0"],
    [1544920,"2026-03-07 23:30:00","56676","0.961","47.34","1.699","57.4","1021.375","13.05","74.27","NAN","0.0"],
    [1544921,"2026-03-07 23:40:00","56677","1.064","35.57","2.0909999999999997","51.41","1021.37","12.99","75.77","NAN","0.0"],
    [1544922,"2026-03-07 23:50:00","56678","0.802","21.85","2.0909999999999997","20.93","1021.36","12.99","77.07","NAN","0.0"],
    [1544923,"2026-03-08 00:00:00","56679","0.489","8.58","1.633","10.53","1021.304","12.98","78.17","NAN","0.0"],
    [1544924,"2026-03-08 00:10:00","56680","0.523","18.82","2.189","11.57","1021.299","13.01","77.93","NAN","0.0"],
    [1544925,"2026-03-08 00:20:00","56681","0.58","10.58","1.3719999999999999","1.203","1021.2860000000001","13.03","76.48","NAN","0.0"],
    [1544926,"2026-03-08 00:30:00","56682","0.41200000000000003","21.24","2.123","33.16","1021.325","13.08","74.9","NAN","0.0"],
    [1544927,"2026-03-08 00:40:00","56683","0.804","31.36","1.895","38.32","1021.24","13.17","72.97","NAN","0.0"],
    [1544928,"2026-03-08 00:50:00","56684","0.299","44.08","1.143","70.28","1021.243","13.03","75.31","NAN","0.0"],
    [1544929,"2026-03-08 01:00:00","56685","0.546","10.71","1.2409999999999999","7.1610000000000005","1021.2339999999999","12.88","75.69","NAN","0.0"],
    [1544930,"2026-03-08 01:10:00","56686","0.6709999999999999","21.77","1.601","10.11","1021.222","12.95","74.56","NAN","0.0"],
    [1544931,"2026-03-08 01:20:00","56687","0.591","39.5","1.405","30.89","1021.122","12.86","75.49","NAN","0.0"],
    [1544932,"2026-03-08 01:30:00","56688","0.7659999999999999","29.64","1.829","33.21","1021.0169999999999","12.67","75.56","NAN","0.0"],
    [1544933,"2026-03-08 01:40:00","56689","1.051","35.93","2.0580000000000003","11.33","1020.99","12.64","75.15","NAN","0.0"],
    [1544934,"2026-03-08 01:50:00","56690","1.0859999999999999","29.7","2.352","26.64","1020.924","12.58","75.76","NAN","0.0"],
    [1544935,"2026-03-08 02:00:00","56691","1.156","33.9","2.156","42.47","1020.819","12.48","76.33","NAN","0.0"],
    [1544936,"2026-03-08 02:10:00","56692","0.759","37.32","1.764","28.08","1020.757","12.36","77.56","NAN","0.0"],
    [1544937,"2026-03-08 02:20:00","56693","0.868","30.53","2.254","9.58","1020.7439999999999","12.27","78.41","NAN","0.0"],
    [1544938,"2026-03-08 02:30:00","56694","0.774","27.06","2.0580000000000003","27.67","1020.7439999999999","12.11","79.43","NAN","0.0"],
    [1544939,"2026-03-08 02:40:00","56695","1.128","15.34","3.0380000000000003","3.765","1020.654","12.08","79.05","NAN","0.0"],
    [1544940,"2026-03-08 02:50:00","56696","1.094","14.01","2.156","12.11","1020.5260000000001","12.01","78.07","NAN","0.0"],
    [1544941,"2026-03-08 03:00:00","56697","0.958","17.53","2.156","16.95","1020.461","11.97","76.58","NAN","0.0"],
    [1544942,"2026-03-08 03:10:00","56698","0.873","7.9","2.385","15.81","1020.3910000000001","11.89","76.21","NAN","0.0"],
    [1544943,"2026-03-08 03:20:00","56699","0.7490000000000001","7.763","1.4369999999999998","24.28","1020.346","11.86","76.3","NAN","0.0"],
    [1544944,"2026-03-08 03:30:00","56700","0.934","6.005","1.993","14.39","1020.278","11.9","76.48","NAN","0.0"],
    [1544945,"2026-03-08 03:40:00","56701","0.305","352.4","0.9470000000000001","2.931","1020.332","11.97","77.19","NAN","0.0"],
    [1544946,"2026-03-08 03:50:00","56702","0.569","327.2","1.633","332.4","1020.2560000000001","12.09","77.65","NAN","0.0"],
    [1544947,"2026-03-08 04:00:00","56703","0.764","18.8","1.4369999999999998","18.74","1020.2610000000001","12.21","77.85","NAN","0.0"],
    [1544948,"2026-03-08 04:10:00","56704","0.41100000000000003","54.75","1.143","92.0","1020.3689999999999","12.15","78.78","NAN","0.0"],
    [1544949,"2026-03-08 04:20:00","56705","0.8759999999999999","32.72","1.764","52.34","1020.3810000000001","12.08","79.29","NAN","0.0"],
    [1544950,"2026-03-08 04:30:00","56706","0.935","15.29","2.156","8.12","1020.3960000000001","12.07","79.23","NAN","0.0"],
    [1544951,"2026-03-08 04:40:00","56707","0.665","26.41","1.633","30.84","1020.446","12.05","79.26","NAN","0.0"],
    [1544952,"2026-03-08 04:50:00","56708","0.6459999999999999","11.13","1.535","12.93","1020.5","12.07","79.53","NAN","0.0"],
    [1544953,"2026-03-08 05:00:00","56709","0.782","18.02","1.797","31.49","1020.5","12.1","79.2","NAN","0.0"],
    [1544954,"2026-03-08 05:10:00","56710","0.738","16.19","1.797","0.59","1020.528","12.11","79.34","NAN","0.0"],
    [1544955,"2026-03-08 05:20:00","56711","0.488","16.59","1.405","22.32","1020.585","12.12","79.36","NAN","0.0"],
    [1544956,"2026-03-08 05:30:00","56712","0.462","20.4","1.274","7.795","1020.605","12.14","79.49","NAN","0.0"],
    [1544957,"2026-03-08 05:40:00","56713","0.885","34.72","1.9269999999999998","15.38","1020.535","12.14","79.44","NAN","0.0"],
    [1544958,"2026-03-08 05:50:00","56714","0.718","20.65","1.633","18.55","1020.575","12.14","79.5","NAN","0.0"],
    [1544959,"2026-03-08 06:00:00","56715","0.731","9.35","2.0909999999999997","7.542999999999999","1020.63","12.11","79.54","NAN","0.0"],
    [1544960,"2026-03-08 06:10:00","56716","0.775","27.82","1.666","17.16","1020.6669999999999","12.1","79.8","NAN","0.0"],
    [1544961,"2026-03-08 06:20:00","56717","0.927","39.07","1.666","29.89","1020.725","12.05","80.3","NAN","0.0"],
    [1544962,"2026-03-08 06:30:00","56718","0.815","42.33","1.47","31.69","1020.747","12.01","80.3","NAN","0.0"],
    [1544963,"2026-03-08 06:40:00","56719","1.169","18.68","2.45","20.89","1020.837","12.01","79.91","NAN","0.0"],
    [1544964,"2026-03-08 06:50:00","56720","1.035","10.84","2.5810000000000004","9.31","1020.939","12.01","79.38","NAN","0.0"],
    [1544965,"2026-03-08 07:00:00","56721","0.8079999999999999","34.64","1.797","60.81","1021.084","12.07","78.81","NAN","0.0"],
    [1544966,"2026-03-08 07:10:00","56722","0.603","42.37","1.3719999999999999","52.41","1021.248","12.08","78.08","NAN","0.0"],
    [1544967,"2026-03-08 07:20:00","56723","0.875","32.46","2.352","18.26","1021.323","12.08","77.11","NAN","0.0"],
    [1544968,"2026-03-08 07:30:00","56724","0.8140000000000001","33.16","1.764","24.62","1021.365","12.11","76.98","NAN","0.0"],
    [1544969,"2026-03-08 07:40:00","56725","0.968","40.0","2.254","34.16","1021.515","12.16","76.78","NAN","0.0"],
    [1544970,"2026-03-08 07:50:00","56726","0.987","11.21","1.993","30.48","1021.7189999999999","12.2","76.32","NAN","0.0"],
    [1544971,"2026-03-08 08:00:00","56727","0.763","7.212999999999999","1.764","4.166","1021.818","12.28","76.58","NAN","0.0"],
    [1544972,"2026-03-08 08:10:00","56728","0.726","21.59","1.5030000000000001","45.07","1021.948","12.26","79.04","NAN","0.2"],
    [1544973,"2026-03-08 08:20:00","56729","0.759","12.14","1.666","2.323","1022.005","12.16","80.7","NAN","0.0"],
    [1544974,"2026-03-08 08:30:00","56730","0.5379999999999999","44.6","1.535","53.96","1022.115","12.25","82","NAN","0.0"],
    [1544975,"2026-03-08 08:40:00","56731","1.166","25.49","2.352","358.3","1022.2139999999999","12.2","81.9","NAN","0.1"],
    [1544976,"2026-03-08 08:50:00","56732","1.137","19.72","2.5810000000000004","6.521","1022.2339999999999","12.31","82.6","NAN","0.0"],
    [1544977,"2026-03-08 09:00:00","56733","1.175","4.1739999999999995","2.254","1.955","1022.2439999999999","12.41","82.1","NAN","0.0"],
    [1544978,"2026-03-08 09:10:00","56734","1.115","18.54","2.319","8.78","1022.2439999999999","12.61","81","NAN","0.1"],
    [1544979,"2026-03-08 09:20:00","56735","1.0390000000000001","20.06","2.156","53.26","1022.2610000000001","12.86","79.79","NAN","0.0"],
    [1544980,"2026-03-08 09:30:00","56736","0.789","26.92","2.287","57.17","1022.3530000000001","13.09","78.79","NAN","0.0"],
    [1544981,"2026-03-08 09:40:00","56737","0.993","28.2","2.0580000000000003","31.37","1022.449","13.23","77.99","NAN","0.0"],
    [1544982,"2026-03-08 09:50:00","56738","0.8959999999999999","22.32","2.287","33.71","1022.449","13.44","76.71","NAN","0.0"],
    [1544983,"2026-03-08 10:00:00","56739","0.9740000000000001","39.53","1.895","48.57","1022.447","13.61","76.25","NAN","0.0"],
    [1544984,"2026-03-08 10:10:00","56740","1.04","17.88","1.895","353.5","1022.5239999999999","13.76","75.74","NAN","0.0"],
    [1544985,"2026-03-08 10:20:00","56741","1.081","2.169","1.993","5.289","1022.6310000000001","13.77","74.26","NAN","0.0"],
    [1544986,"2026-03-08 10:30:00","56742","1.04","68.4","2.385","34.0","1022.666","14.5","72.12","NAN","0.0"],
    [1544987,"2026-03-08 10:40:00","56743","1.235","29.72","2.6460000000000004","57.12","1022.5980000000001","14.32","71.47","NAN","0.0"],
    [1544988,"2026-03-08 10:50:00","56744","1.004","28.71","3.103","8.86","1022.554","14.85","71.17","NAN","0.0"],
    [1544989,"2026-03-08 11:00:00","56745","1.422","67.17","3.43","103.1","1022.5260000000001","15.37","69.48","NAN","0.0"],
    [1544990,"2026-03-08 11:10:00","56746","2.08","88.5","4.345","90.6","1022.6039999999999","15.14","69.97","NAN","0.0"],
    [1544991,"2026-03-08 11:20:00","56747","1.794","95.2","3.495","96.4","1022.6030000000001","15.37","68.69","NAN","0.0"],
    [1544992,"2026-03-08 11:30:00","56748","1.716","97.3","2.907","88.4","1022.596","14.92","70.31","NAN","0.0"],
    [1544993,"2026-03-08 11:40:00","56749","1.953","107.0","4.051","101.4","1022.546","15.14","69.46","NAN","0.0"],
    [1544994,"2026-03-08 11:50:00","56750","2.11","103.6","3.593","120.5","1022.5089999999999","14.73","70.89","NAN","0.0"],
    [1544995,"2026-03-08 12:00:00","56751","1.919","110.9","3.1689999999999996","124.5","1022.444","14.73","71.43","NAN","0.0"],
    [1544996,"2026-03-08 12:10:00","56752","2.012","115.9","3.7239999999999998","104.9","1022.312","14.64","72.14","NAN","0.0"],
    [1544997,"2026-03-08 12:20:00","56753","2.258","102.0","4.835","122.8","1022.185","14.52","73.63","NAN","0.0"],
    [1544998,"2026-03-08 12:30:00","56754","2.315","100.9","4.573","107.7","1022.158","15.03","74.41","NAN","0.0"],
    [1544999,"2026-03-08 12:40:00","56755","2.742","83.0","5.063","84.3","1022.09","15.16","75.58","NAN","0.0"],
    [1545000,"2026-03-08 12:50:00","56756","2.8810000000000002","110.7","4.998","109.4","1021.988","14.82","78.25","NAN","0.0"],
    [1545001,"2026-03-08 13:00:00","56757","2.75","111.0","4.835","105.1","1021.9680000000001","14.48","80.6","NAN","0.0"],
    [1545002,"2026-03-08 13:10:00","56758","2.3569999999999998","109.6","5.586","107.3","1021.924","14.76","80.5","NAN","0.0"],
    [1545003,"2026-03-08 13:20:00","56759","2.783","102.3","4.671","87.2","1021.919","14.81","80.8","NAN","0.0"],
    [1545004,"2026-03-08 13:30:00","56760","2.677","109.5","4.606","118.1","1021.834","14.73","81.8","NAN","0.0"],
    [1545005,"2026-03-08 13:40:00","56761","2.498","94.8","5.1610000000000005","103.1","1021.737","14.95","81.9","NAN","0.0"],
    [1545006,"2026-03-08 13:50:00","56762","2.6319999999999997","82.1","5.586","70.48","1021.672","14.86","82.6","NAN","0.0"],
    [1545007,"2026-03-08 14:00:00","56763","2.5780000000000003","82.0","5.096","66.6","1021.6389999999999","15.03","83","NAN","0.0"],
    [1545008,"2026-03-08 14:10:00","56764","2.675","93.7","4.965","74.62","1021.552","15.07","83.3","NAN","0.0"],
    [1545009,"2026-03-08 14:20:00","56765","2.622","94.1","4.541","98.1","1021.5369999999999","15.22","83.2","NAN","0.0"],
    [1545010,"2026-03-08 14:30:00","56766","2.2840000000000003","85.6","4.051","111.9","1021.57","15.02","84.5","NAN","0.0"],
    [1545011,"2026-03-08 14:40:00","56767","2.454","92.0","4.247","94.1","1021.497","14.99","85.2","NAN","0.0"],
    [1545012,"2026-03-08 14:50:00","56768","2.9760000000000004","83.2","4.802","72.27","1021.433","14.92","85.4","NAN","0.0"],
    [1545013,"2026-03-08 15:00:00","56769","2.27","84.7","4.377","71.09","1021.3430000000001","14.85","86.4","NAN","0.0"],
    [1545014,"2026-03-08 15:10:00","56770","2.36","77.65","4.181","69.63","1021.326","14.98","85.3","NAN","0.0"],
    [1545015,"2026-03-08 15:20:00","56771","1.999","108.7","3.6260000000000003","115.1","1021.306","14.86","84.8","NAN","0.0"],
    [1545016,"2026-03-08 15:30:00","56772","1.73","110.6","3.528","101.5","1021.296","14.96","81.4","NAN","0.0"],
    [1545017,"2026-03-08 15:40:00","56773","1.71","107.1","2.907","120.6","1021.296","14.96","79.63","NAN","0.0"],
    [1545018,"2026-03-08 15:50:00","56774","1.594","129.7","2.679","139.9","1021.301","14.84","77.8","NAN","0.0"],
    [1545019,"2026-03-08 16:00:00","56775","1.624","130.2","2.7769999999999997","126.6","1021.301","14.87","79.96","NAN","0.0"],
    [1545020,"2026-03-08 16:10:00","56776","1.567","132.4","2.515","145.1","1021.301","14.66","80.9","NAN","0.0"],
    [1545021,"2026-03-08 16:20:00","56777","1.472","127.2","2.548","125.1","1021.321","14.71","81.4","NAN","0.0"],
    [1545022,"2026-03-08 16:30:00","56778","1.624","127.0","2.907","147.3","1021.363","14.49","82.4","NAN","0.0"],
    [1545023,"2026-03-08 16:40:00","56779","1.6540000000000001","124.3","2.679","110.1","1021.423","14.43","81.8","NAN","0.0"],
    [1545024,"2026-03-08 16:50:00","56780","1.4240000000000002","126.8","2.5810000000000004","138.0","1021.426","14.35","81.5","NAN","0.0"],
    [1545025,"2026-03-08 17:00:00","56781","1.439","123.5","2.45","141.1","1021.435","14.31","80.9","NAN","0.0"],
    [1545026,"2026-03-08 17:10:00","56782","1.546","130.3","2.5810000000000004","123.7","1021.538","14.28","79.71","NAN","0.0"],
    [1545027,"2026-03-08 17:20:00","56783","1.3130000000000002","128.5","2.417","103.1","1021.575","14.21","79.85","NAN","0.0"],
    [1545028,"2026-03-08 17:30:00","56784","1.204","136.3","2.254","141.4","1021.66","14.21","80.8","NAN","0.0"],
    [1545029,"2026-03-08 17:40:00","56785","1.306","129.2","2.417","116.8","1021.707","14.11","81.9","NAN","0.0"],
    [1545030,"2026-03-08 17:50:00","56786","1.157","141.7","2.515","156.3","1021.799","14.04","81.1","NAN","0.0"],
    [1545031,"2026-03-08 18:00:00","56787","1.182","137.2","2.613","147.2","1021.8910000000001","13.94","81","NAN","0.0"],
    [1545032,"2026-03-08 18:10:00","56788","1.1059999999999999","153.8","2.7439999999999998","179.4","1021.946","13.85","81.8","NAN","0.0"],
    [1545033,"2026-03-08 18:20:00","56789","1.0490000000000002","145.6","2.385","139.2","1022.008","13.82","82.1","NAN","0.0"],
    [1545034,"2026-03-08 18:30:00","56790","0.932","144.4","2.0580000000000003","171.0","1022.206","13.74","82.6","NAN","0.0"],
    [1545035,"2026-03-08 18:40:00","56791","1.097","151.5","2.319","159.9","1022.238","13.72","82.4","NAN","0.0"],
    [1545036,"2026-03-08 18:50:00","56792","0.8370000000000001","140.3","1.764","106.0","1022.283","13.72","83.1","NAN","0.0"],
    [1545037,"2026-03-08 19:00:00","56793","1.143","129.6","1.993","111.8","1022.3660000000001","13.63","83.8","NAN","0.0"],
    [1545038,"2026-03-08 19:10:00","56794","1.143","135.5","2.025","120.6","1022.488","13.64","83.4","NAN","0.0"],
    [1545039,"2026-03-08 19:20:00","56795","1.055","127.3","1.993","106.7","1022.615","13.68","83.5","NAN","0.0"],
    [1545040,"2026-03-08 19:30:00","56796","0.907","124.9","1.7309999999999999","106.6","1022.668","13.74","83.6","NAN","0.0"],
    [1545041,"2026-03-08 19:40:00","56797","0.865","146.6","1.8619999999999999","150.2","1022.742","13.74","84.1","NAN","0.0"],
    [1545042,"2026-03-08 19:50:00","56798","0.93","129.9","1.7309999999999999","144.3","1022.725","13.7","84.1","NAN","0.0"],
    [1545043,"2026-03-08 20:00:00","56799","0.735","131.0","1.339","142.8","1022.74","13.69","83.6","NAN","0.0"],
    [1545044,"2026-03-08 20:10:00","56800","0.7559999999999999","121.3","1.4369999999999998","111.7","1022.742","13.64","83.2","NAN","0.0"],
    [1545045,"2026-03-08 20:20:00","56801","0.213","98.1","1.568","106.9","1022.757","13.59","83.6","NAN","0.0"],
    [1545046,"2026-03-08 20:30:00","56802","0.168","164.2","0.8170000000000001","161.4","1022.822","13.49","84.4","NAN","0.0"],
    [1545047,"2026-03-08 20:40:00","56803","0.012","144.5","0.261","143.9","1022.75","13.22","84.5","NAN","0.0"],
    [1545048,"2026-03-08 20:50:00","56804","0.0","0.0","0.0","0.0","1022.742","12.95","85.6","NAN","0.0"],
    [1545049,"2026-03-08 21:00:00","56805","0.0","0.0","0.0","0.0","1022.6619999999999","13","85.9","NAN","0.0"],
    [1545050,"2026-03-08 21:10:00","56806","0.0","0.0","0.0","0.0","1022.555","12.93","85.9","NAN","0.0"],
    [1545051,"2026-03-08 21:20:00","56807","0.415","28.49","1.209","46.02","1022.421","13.08","85.2","NAN","0.0"],
    [1545052,"2026-03-08 21:30:00","56808","0.5760000000000001","32.89","1.339","359.9","1022.4060000000001","13.14","85.1","NAN","0.0"],
    [1545053,"2026-03-08 21:40:00","56809","0.649","34.49","1.633","48.66","1022.4730000000001","13.18","85","NAN","0.0"],
    [1545054,"2026-03-08 21:50:00","56810","0.526","38.41","1.013","57.75","1022.493","13.14","85.5","NAN","0.0"],
    [1545055,"2026-03-08 22:00:00","56811","0.49200000000000005","33.18","0.915","44.48","1022.493","13.03","86.1","NAN","0.0"],
    [1545056,"2026-03-08 22:10:00","56812","0.564","21.53","1.176","353.4","1022.493","12.96","86.7","NAN","0.0"],
    [1545057,"2026-03-08 22:20:00","56813","0.828","13.52","1.699","21.4","1022.466","12.93","86.8","NAN","0.0"],
    [1545058,"2026-03-08 22:30:00","56814","0.968","8.89","2.385","16.69","1022.433","12.92","86.7","NAN","0.0"],
    [1545059,"2026-03-08 22:40:00","56815","1.033","7.888","2.45","21.3","1022.4010000000001","12.94","85","NAN","0.0"],
    [1545060,"2026-03-08 22:50:00","56816","0.758","6.314","1.535","2.339","1022.429","12.95","84.4","NAN","0.0"],
    [1545061,"2026-03-08 23:00:00","56817","0.603","19.39","1.2409999999999999","351.6","1022.437","12.86","84.6","NAN","0.0"],
    [1545062,"2026-03-08 23:10:00","56818","0.615","27.13","1.4369999999999998","38.79","1022.3689999999999","12.73","85.5","NAN","0.0"],
    [1545063,"2026-03-08 23:20:00","56819","0.919","13.63","1.96","12.14","1022.3689999999999","12.55","86.3","NAN","0.0"],
    [1545064,"2026-03-08 23:30:00","56820","0.8340000000000001","4.21","1.568","1.9","1022.284","12.62","85.5","NAN","0.0"],
    [1545065,"2026-03-08 23:40:00","56821","0.525","22.76","1.111","32.0","1022.25","12.59","85.6","NAN","0.0"],
    [1545066,"2026-03-08 23:50:00","56822","0.513","39.02","1.078","15.19","1022.2660000000001","12.47","86.2","NAN","0.0"],
    [1545067,"2026-03-09 00:00:00","56823","0.8190000000000001","40.68","1.3719999999999999","11.31","1022.25","12.34","86.5","NAN","0.0"],
    [1545068,"2026-03-09 00:10:00","56824","0.82","17.53","1.764","22.78","1022.2539999999999","12.25","86.2","NAN","0.0"],
    [1545069,"2026-03-09 00:20:00","56825","0.9209999999999999","13.59","2.221","44.8","1022.2510000000001","12.3","84.7","NAN","0.0"],
    [1545070,"2026-03-09 00:30:00","56826","0.619","11.57","2.254","8.14","1022.247","12.31","84.3","NAN","0.0"],
    [1545071,"2026-03-09 00:40:00","56827","0.9540000000000001","9.67","2.025","7.272","1022.2460000000001","12.31","84.2","NAN","0.0"],
    [1545072,"2026-03-09 00:50:00","56828","0.77","9.02","1.9269999999999998","23.8","1022.2280000000001","12.37","84.1","NAN","0.0"],
    [1545073,"2026-03-09 01:00:00","56829","0.645","10.84","1.143","353.9","1022.06","12.35","84.2","NAN","0.0"],
    [1545074,"2026-03-09 01:10:00","56830","0.614","8.28","1.666","12.69","1022.0","12.4","83.9","NAN","0.0"],
    [1545075,"2026-03-09 01:20:00","56831","0.6970000000000001","11.53","1.601","28.37","1021.8380000000001","12.5","83.1","NAN","0.0"],
    [1545076,"2026-03-09 01:30:00","56832","0.877","16.09","2.45","345.0","1021.694","12.56","82.1","NAN","0.0"],
    [1545077,"2026-03-09 01:40:00","56833","0.92","18.8","2.221","42.84","1021.6239999999999","12.52","81.5","NAN","0.0"],
    [1545078,"2026-03-09 01:50:00","56834","0.993","17.15","2.679","12.02","1021.5260000000001","12.34","81.6","NAN","0.0"],
    [1545079,"2026-03-09 02:00:00","56835","1.155","12.72","2.287","17.67","1021.44","12.15","81.6","NAN","0.0"],
    [1545080,"2026-03-09 02:10:00","56836","0.93","8.88","1.96","0.8109999999999999","1021.279","12.11","82.3","NAN","0.0"],
    [1545081,"2026-03-09 02:20:00","56837","1.324","15.01","2.319","24.23","1021.096","12.16","82.3","NAN","0.0"],
    [1545082,"2026-03-09 02:30:00","56838","0.867","13.46","2.221","10.67","1020.9680000000001","12.1","82.3","NAN","0.0"],
    [1545083,"2026-03-09 02:40:00","56839","0.975","6.582000000000001","2.221","347.9","1020.794","12.05","82.1","NAN","0.0"],
    [1545084,"2026-03-09 02:50:00","56840","0.8270000000000001","10.53","1.7309999999999999","6.664","1020.702","12.1","81.4","NAN","0.0"],
    [1545085,"2026-03-09 03:00:00","56841","0.44799999999999995","9.59","1.307","28.58","1020.53","12.09","81.4","NAN","0.0"],
    [1545086,"2026-03-09 03:10:00","56842","0.226","7.369","0.882","308.1","1020.425","12.07","81.7","NAN","0.0"],
    [1545087,"2026-03-09 03:20:00","56843","0.552","323.0","1.666","302.4","1020.318","12.23","81.1","NAN","0.0"],
    [1545088,"2026-03-09 03:30:00","56844","0.525","291.6","1.339","304.7","1020.2510000000001","12.71","79.3","NAN","0.0"],
    [1545089,"2026-03-09 03:40:00","56845","0.621","253.0","1.568","256.7","1020.2719999999999","12.63","81.7","NAN","0.0"],
    [1545090,"2026-03-09 03:50:00","56846","0.6709999999999999","233.8","1.3719999999999999","250.4","1020.328","12.48","83","NAN","0.0"],
    [1545091,"2026-03-09 04:00:00","56847","0.562","247.4","1.895","237.4","1020.2660000000001","12.33","83.7","NAN","0.0"],
    [1545092,"2026-03-09 04:10:00","56848","0.07200000000000001","264.2","0.621","257.3","1020.2510000000001","12.12","84.8","NAN","0.0"],
    [1545093,"2026-03-09 04:20:00","56849","0.259","46.9","1.143","46.86","1020.304","11.93","86.1","NAN","0.0"],
    [1545094,"2026-03-09 04:30:00","56850","0.9990000000000001","47.86","1.601","43.46","1020.377","11.47","85.8","NAN","0.0"],
    [1545095,"2026-03-09 04:40:00","56851","0.79","34.99","1.339","1.5859999999999999","1020.378","11.19","85.8","NAN","0.0"],
    [1545096,"2026-03-09 04:50:00","56852","0.684","18.23","2.483","19.59","1020.3960000000001","11.1","85.5","NAN","0.0"],
    [1545097,"2026-03-09 05:00:00","56853","0.341","7.516","1.045","5.3020000000000005","1020.434","11.11","86","NAN","0.0"],
    [1545098,"2026-03-09 05:10:00","56854","0.98","2.127","1.7309999999999999","352.5","1020.3989999999999","11.22","85.3","NAN","0.0"],
    [1545099,"2026-03-09 05:20:00","56855","1.022","4.615","1.96","10.27","1020.4019999999999","11.15","85.4","NAN","0.0"],
    [1545100,"2026-03-09 05:30:00","56856","0.442","359.4","1.764","11.27","1020.434","11.16","85.7","NAN","0.0"],
    [1545101,"2026-03-09 05:40:00","56857","1.1520000000000001","1.666","2.189","8.74","1020.497","11.11","85.3","NAN","0.0"],
    [1545102,"2026-03-09 05:50:00","56858","1.021","4.414","1.9269999999999998","18.28","1020.415","11.02","85.5","NAN","0.0"],
    [1545103,"2026-03-09 06:00:00","56859","1.054","2.965","1.993","8.35","1020.387","11.02","85.6","NAN","0.0"],
    [1545104,"2026-03-09 06:10:00","56860","1.026","6.486000000000001","1.7309999999999999","351.2","1020.3989999999999","11.1","85.2","NAN","0.0"],
    [1545105,"2026-03-09 06:20:00","56861","0.76","12.03","1.5030000000000001","16.1","1020.4169999999999","11.2","84.4","NAN","0.0"],
    [1545106,"2026-03-09 06:30:00","56862","0.514","351.0","0.98","1.057","1020.425","11.28","83.8","NAN","0.0"],
    [1545107,"2026-03-09 06:40:00","56863","0.095","185.3","0.653","132.0","1020.4780000000001","11.37","83.9","NAN","0.0"],
    [1545108,"2026-03-09 06:50:00","56864","0.066","247.0","0.6859999999999999","226.1","1020.541","11.54","84.4","NAN","0.0"],
    [1545109,"2026-03-09 07:00:00","56865","0.442","217.1","1.176","221.7","1020.6030000000001","11.97","81.9","NAN","0.0"],
    [1545110,"2026-03-09 07:10:00","56866","0.32899999999999996","73.37","0.915","76.55","1020.7489999999999","12.49","79.68","NAN","0.0"],
    [1545111,"2026-03-09 07:20:00","56867","0.034","50.46","0.555","42.65","1020.7489999999999","12.28","80.7","NAN","0.0"],
    [1545112,"2026-03-09 07:30:00","56868","0.732","42.02","1.209","37.57","1020.7489999999999","12.22","79.77","NAN","0.0"],
    [1545113,"2026-03-09 07:40:00","56869","0.546","13.96","1.339","358.8","1020.7489999999999","12.22","79.43","NAN","0.0"],
    [1545114,"2026-03-09 07:50:00","56870","0.758","7.837999999999999","1.3719999999999999","6.694","1020.7610000000001","12.19","79.17","NAN","0.0"],
    [1545115,"2026-03-09 08:00:00","56871","0.945","32.67","2.156","45.44","1020.904","12.68","76.54","NAN","0.0"],
    [1545116,"2026-03-09 08:10:00","56872","1.186","41.66","2.189","48.36","1020.938","12.44","77.46","NAN","0.0"],
    [1545117,"2026-03-09 08:20:00","56873","0.8390000000000001","26.95","1.993","41.55","1020.9989999999999","12.4","77.32","NAN","0.0"],
    [1545118,"2026-03-09 08:30:00","56874","0.848","1.091","2.0580000000000003","25.82","1021.025","12.5","76.08","NAN","0.0"],
    [1545119,"2026-03-09 08:40:00","56875","0.992","27.65","2.5810000000000004","36.07","1021.044","12.79","74.37","NAN","0.0"],
    [1545120,"2026-03-09 08:50:00","56876","0.88","30.3","2.0580000000000003","11.31","1021.084","13.16","72.14","NAN","0.0"],
    [1545121,"2026-03-09 09:00:00","56877","1.34","50.01","2.352","61.03","1021.174","13.5","70.16","NAN","0.0"],
    [1545122,"2026-03-09 09:10:00","56878","1.158","49.73","2.613","55.44","1021.159","13.73","68.56","NAN","0.0"],
    [1545123,"2026-03-09 09:20:00","56879","0.44299999999999995","67.08","1.5030000000000001","69.07","1021.067","14.59","65.85","NAN","0.0"],
    [1545124,"2026-03-09 09:30:00","56880","0.36","146.1","1.3719999999999999","163.4","1021.052","15.22","63.09","NAN","0.0"],
    [1545125,"2026-03-09 09:40:00","56881","0.653","194.0","1.5030000000000001","209.8","1021.049","14.79","65.24","NAN","0.0"],
    [1545126,"2026-03-09 09:50:00","56882","0.905","179.8","1.7309999999999999","198.6","1021.057","14.75","66.82","NAN","0.0"],
    [1545127,"2026-03-09 10:00:00","56883","1.588","156.6","2.189","158.6","1021.084","14.52","67.05","NAN","0.0"],
    [1545128,"2026-03-09 10:10:00","56884","1.3530000000000002","179.0","2.156","184.4","1021.052","14.44","68.08","NAN","0.0"],
    [1545129,"2026-03-09 10:20:00","56885","1.466","180.4","2.5810000000000004","162.8","1021.0419999999999","14.88","67.41","NAN","0.0"],
    [1545130,"2026-03-09 10:30:00","56886","2.562","180.0","3.6910000000000003","189.2","1020.987","14.36","69.59","NAN","0.0"],
    [1545131,"2026-03-09 10:40:00","56887","2.121","175.8","3.267","184.6","1020.927","14.5","69.7","NAN","0.0"],
    [1545132,"2026-03-09 10:50:00","56888","2.22","183.2","3.365","177.7","1020.847","14.65","68.99","NAN","0.0"],
    [1545133,"2026-03-09 11:00:00","56889","2.801","181.3","3.985","179.8","1020.76","14.48","71.38","NAN","0.0"],
    [1545134,"2026-03-09 11:10:00","56890","2.467","178.5","3.659","179.2","1020.696","14.53","72.72","NAN","0.0"],
    [1545135,"2026-03-09 11:20:00","56891","2.733","179.3","4.018","181.0","1020.6560000000001","14.43","71.12","NAN","0.0"],
    [1545136,"2026-03-09 11:30:00","56892","2.645","176.0","4.083","158.6","1020.446","14.63","71.35","NAN","0.0"],
    [1545137,"2026-03-09 11:40:00","56893","2.937","176.2","4.835","183.7","1020.23","14.49","71.55","NAN","0.0"],
    [1545138,"2026-03-09 11:50:00","56894","3.153","175.2","4.867","177.1","1020.18","14.64","71.51","NAN","0.0"],
    [1545139,"2026-03-09 12:00:00","56895","3.1910000000000003","175.0","4.802","181.8","1020.0830000000001","14.74","70.96","NAN","0.0"],
    [1545140,"2026-03-09 12:10:00","56896","3.293","176.4","4.965","178.1","1019.8839999999999","14.74","70.65","NAN","0.0"],
    [1545141,"2026-03-09 12:20:00","56897","3.272","179.0","4.9","182.3","1019.694","14.69","69.85","NAN","0.0"],
    [1545142,"2026-03-09 12:30:00","56898","3.358","175.5","5.129","179.0","1019.572","14.69","70.25","NAN","0.0"],
    [1545143,"2026-03-09 12:40:00","56899","3.4","178.0","4.933","185.1","1019.495","14.74","70.79","NAN","0.0"],
    [1545144,"2026-03-09 12:50:00","56900","3.824","177.1","5.357","173.7","1019.44","14.66","70.17","NAN","0.0"],
    [1545145,"2026-03-09 13:00:00","56901","3.505","177.6","5.4879999999999995","169.2","1019.423","14.75","71.16","NAN","0.0"],
    [1545146,"2026-03-09 13:10:00","56902","3.5039999999999996","177.3","5.129","175.6","1019.2760000000001","14.87","70.39","NAN","0.0"],
    [1545147,"2026-03-09 13:20:00","56903","3.622","175.9","5.031000000000001","179.6","1019.184","14.7","71.81","NAN","0.0"],
    [1545148,"2026-03-09 13:30:00","56904","3.648","176.7","5.1610000000000005","171.7","1019.192","14.77","72.68","NAN","0.0"],
    [1545149,"2026-03-09 13:40:00","56905","3.508","175.3","5.455","180.4","1019.196","14.88","71.97","NAN","0.0"],
    [1545150,"2026-03-09 13:50:00","56906","3.3110000000000004","174.9","4.671","174.8","1019.184","14.91","71.61","NAN","0.0"],
    [1545151,"2026-03-09 14:00:00","56907","3.338","176.0","4.704","183.1","1019.184","14.89","72.61","NAN","0.0"],
    [1545152,"2026-03-09 14:10:00","56908","3.214","171.3","4.737","164.9","1019.184","15.11","73.31","NAN","0.0"],
    [1545153,"2026-03-09 14:20:00","56909","2.823","173.7","4.508","176.4","1019.184","15.08","72.55","NAN","0.0"],
    [1545154,"2026-03-09 14:30:00","56910","3.128","173.2","4.704","173.7","1019.1210000000001","15.19","72.55","NAN","0.0"],
    [1545155,"2026-03-09 14:40:00","56911","2.785","171.9","4.051","174.4","1019.052","15.15","72","NAN","0.0"],
    [1545156,"2026-03-09 14:50:00","56912","2.8","172.3","4.737","175.7","1018.937","15.21","72.02","NAN","0.0"],
    [1545157,"2026-03-09 15:00:00","56913","3.252","176.3","4.769","177.9","1018.935","14.94","72.81","NAN","0.0"],
    [1545158,"2026-03-09 15:10:00","56914","3.685","174.9","5.325","170.4","1018.9119999999999","14.72","73.91","NAN","0.0"],
    [1545159,"2026-03-09 15:20:00","56915","3.158","177.8","4.737","172.5","1018.87","14.72","72.77","NAN","0.0"],
    [1545160,"2026-03-09 15:30:00","56916","3.306","173.9","4.867","174.0","1018.842","14.84","71.94","NAN","0.0"],
    [1545161,"2026-03-09 15:40:00","56917","2.9330000000000003","178.0","5.096","173.9","1018.801","14.85","72.67","NAN","0.0"],
    [1545162,"2026-03-09 15:50:00","56918","2.271","184.4","4.41","173.7","1018.8","15.11","70.42","NAN","0.0"],
    [1545163,"2026-03-09 16:00:00","56919","2.052","195.4","4.4430000000000005","207.6","1018.76","15.17","70.08","NAN","0.0"],
    [1545164,"2026-03-09 16:10:00","56920","2.401","199.6","5.619","171.8","1018.785","15.27","70.08","NAN","0.0"],
    [1545165,"2026-03-09 16:20:00","56921","2.447","199.9","4.9","187.4","1018.743","15.11","69.43","NAN","0.0"],
    [1545166,"2026-03-09 16:30:00","56922","2.229","203.6","5.129","205.5","1018.686","14.92","70.89","NAN","0.0"],
    [1545167,"2026-03-09 16:40:00","56923","2.162","213.0","4.247","248.3","1018.686","15.02","70.43","NAN","0.0"],
    [1545168,"2026-03-09 16:50:00","56924","1.902","207.6","3.5610000000000004","209.5","1018.686","14.77","71.21","NAN","0.0"],
    [1545169,"2026-03-09 17:00:00","56925","1.59","219.9","3.528","204.6","1018.7560000000001","14.99","68.46","NAN","0.0"],
    [1545170,"2026-03-09 17:10:00","56926","1.7930000000000001","216.0","4.083","195.2","1018.815","14.84","69.18","NAN","0.0"],
    [1545171,"2026-03-09 17:20:00","56927","1.815","209.0","3.43","222.8","1018.825","14.51","72.15","NAN","0.0"],
    [1545172,"2026-03-09 17:30:00","56928","1.482","208.6","3.5610000000000004","196.3","1018.823","14.29","73.98","NAN","0.0"],
    [1545173,"2026-03-09 17:40:00","56929","1.244","210.2","2.907","193.3","1018.705","14.2","74.39","NAN","0.0"],
    [1545174,"2026-03-09 17:50:00","56930","1.175","203.0","2.287","217.8","1018.5980000000001","14.09","75.48","NAN","0.0"],
    [1545175,"2026-03-09 18:00:00","56931","1.011","208.0","2.254","222.6","1018.5419999999999","13.94","74.83","NAN","0.0"],
    [1545176,"2026-03-09 18:10:00","56932","1.162","212.2","2.189","197.5","1018.585","13.99","75.82","NAN","0.0"],
    [1545177,"2026-03-09 18:20:00","56933","1.035","200.2","2.0909999999999997","202.9","1018.699","13.98","76.66","NAN","0.0"],
    [1545178,"2026-03-09 18:30:00","56934","1.291","202.9","2.45","218.6","1018.7460000000001","13.8","79.12","NAN","0.0"],
    [1545179,"2026-03-09 18:40:00","56935","1.367","229.5","3.0380000000000003","225.2","1018.956","13.82","79.21","NAN","0.0"],
    [1545180,"2026-03-09 18:50:00","56936","1.249","223.3","2.417","242.8","1019.1210000000001","13.8","79.79","NAN","0.0"],
    [1545181,"2026-03-09 19:00:00","56937","0.903","208.3","2.352","199.0","1019.2130000000001","13.65","80.8","NAN","0.0"],
    [1545182,"2026-03-09 19:10:00","56938","0.733","213.0","1.96","238.9","1019.1489999999999","13.53","82.4","NAN","0.0"],
    [1545183,"2026-03-09 19:20:00","56939","0.765","226.3","1.96","238.3","1019.177","13.45","82.3","NAN","0.0"],
    [1545184,"2026-03-09 19:30:00","56940","0.7929999999999999","217.0","1.633","205.8","1019.245","13.56","80.7","NAN","0.0"],
    [1545185,"2026-03-09 19:40:00","56941","0.8","190.0","1.601","195.9","1019.2510000000001","13.38","82.2","NAN","0.0"],
    [1545186,"2026-03-09 19:50:00","56942","1.063","192.8","1.764","200.4","1019.32","13.2","82.9","NAN","0.0"],
    [1545187,"2026-03-09 20:00:00","56943","0.775","215.6","1.176","230.2","1019.3789999999999","13.16","82.2","NAN","0.0"],
    [1545188,"2026-03-09 20:10:00","56944","1.052","206.3","1.96","204.8","1019.4789999999999","13.18","81.1","NAN","0.0"],
    [1545189,"2026-03-09 20:20:00","56945","0.991","210.8","1.601","213.4","1019.569","13.19","81.6","NAN","0.0"],
    [1545190,"2026-03-09 20:30:00","56946","0.723","217.7","1.5030000000000001","219.2","1019.5139999999999","13.15","81.8","NAN","0.0"],
    [1545191,"2026-03-09 20:40:00","56947","0.9129999999999999","220.4","1.9269999999999998","215.4","1019.632","13.15","82","NAN","0.0"],
    [1545192,"2026-03-09 20:50:00","56948","0.575","217.9","1.535","228.7","1019.7539999999999","13.1","82","NAN","0.0"],
    [1545193,"2026-03-09 21:00:00","56949","0.555","218.7","1.535","228.7","1019.798","13.06","82.3","NAN","0.0"],
    [1545194,"2026-03-09 21:10:00","56950","0.5720000000000001","227.7","1.2409999999999999","229.8","1019.898","13.01","82.9","NAN","0.0"],
    [1545195,"2026-03-09 21:20:00","56951","0.545","225.6","2.123","248.9","1019.9","12.98","82.7","NAN","0.0"],
    [1545196,"2026-03-09 21:30:00","56952","0.768","226.4","1.568","235.6","1019.955","12.92","82.3","NAN","0.0"],
    [1545197,"2026-03-09 21:40:00","56953","0.7","238.3","1.829","216.8","1019.997","12.94","81.7","NAN","0.0"],
    [1545198,"2026-03-09 21:50:00","56954","0.825","239.5","1.993","232.7","1020.005","13.04","80.4","NAN","0.0"],
    [1545199,"2026-03-09 22:00:00","56955","0.556","252.4","1.8619999999999999","236.3","1019.9069999999999","13.07","79.7","NAN","0.0"],
    [1545200,"2026-03-09 22:10:00","56956","0.5379999999999999","256.3","1.47","293.1","1019.8530000000001","13.03","80.1","NAN","0.0"],
    [1545201,"2026-03-09 22:20:00","56957","0.33399999999999996","244.7","0.8170000000000001","286.8","1019.805","13","80.1","NAN","0.0"],
    [1545202,"2026-03-09 22:30:00","56958","0.449","254.3","1.535","281.5","1019.868","13.03","79.28","NAN","0.0"],
    [1545203,"2026-03-09 22:40:00","56959","0.644","260.0","1.307","258.5","1019.85","13.04","78.54","NAN","0.0"],
    [1545204,"2026-03-09 22:50:00","56960","0.49700000000000005","328.6","1.535","331.9","1019.753","13.15","76.17","NAN","0.0"],
    [1545205,"2026-03-09 23:00:00","56961","0.6679999999999999","21.27","1.47","51.99","1019.7330000000001","13.17","75.62","NAN","0.0"],
    [1545206,"2026-03-09 23:10:00","56962","1.27","40.4","2.221","29.69","1019.633","12.72","78.43","NAN","0.0"],
    [1545207,"2026-03-09 23:20:00","56963","0.39299999999999996","21.77","1.078","25.39","1019.633","12.49","80","NAN","0.0"],
    [1545208,"2026-03-09 23:30:00","56964","0.963","27.63","1.9269999999999998","8.8","1019.6339999999999","12.34","81.3","NAN","0.0"],
    [1545209,"2026-03-09 23:40:00","56965","0.591","38.96","1.568","35.02","1019.607","12.24","81.9","NAN","0.0"],
    [1545210,"2026-03-09 23:50:00","56966","0.541","14.18","1.143","14.87","1019.5889999999999","12.04","83.2","NAN","0.0"],
    [1545211,"2026-03-10 00:00:00","56967","0.20199999999999999","0.691","0.7190000000000001","354.9","1019.56","12.01","83.4","NAN","0.0"],
    [1545212,"2026-03-10 00:10:00","56968","0.08199999999999999","179.6","0.523","179.6","1019.582","11.86","84.4","NAN","0.0"],
    [1545213,"2026-03-10 00:20:00","56969","0.0","0.0","0.0","0.0","1019.541","11.54","86.4","NAN","0.0"],
    [1545214,"2026-03-10 00:30:00","56970","0.0","0.0","0.0","0.0","1019.535","11.49","87.1","NAN","0.0"],
    [1545215,"2026-03-10 00:40:00","56971","0.37200000000000005","188.1","0.6859999999999999","178.4","1019.6260000000001","11.43","87.5","NAN","0.0"],
    [1545216,"2026-03-10 00:50:00","56972","0.16","187.4","0.588","190.6","1019.68","11.4","89.7","NAN","0.0"],
    [1545217,"2026-03-10 01:00:00","56973","0.0","0.0","0.0","0.0","1019.685","11.31","90.5","NAN","0.0"],
    [1545218,"2026-03-10 01:10:00","56974","0.0","0.0","0.0","0.0","1019.684","11.24","90","NAN","0.0"],
    [1545219,"2026-03-10 01:20:00","56975","0.28","37.12","0.7509999999999999","38.39","1019.585","11.19","89.7","NAN","0.0"],
    [1545220,"2026-03-10 01:30:00","56976","0.6859999999999999","27.53","1.601","39.8","1019.447","11.52","87.4","NAN","0.0"],
    [1545221,"2026-03-10 01:40:00","56977","0.374","19.15","0.915","34.25","1019.457","11.59","86.2","NAN","0.0"],
    [1545222,"2026-03-10 01:50:00","56978","0.631","19.52","1.5030000000000001","32.96","1019.447","11.57","86.2","NAN","0.0"],
    [1545223,"2026-03-10 02:00:00","56979","0.6890000000000001","27.42","1.405","22.59","1019.405","11.54","85.7","NAN","0.0"],
    [1545224,"2026-03-10 02:10:00","56980","0.884","12.88","2.385","6.361000000000001","1019.315","11.42","86.1","NAN","0.0"],
    [1545225,"2026-03-10 02:20:00","56981","0.767","25.73","2.0580000000000003","27.35","1019.324","11.41","86.2","NAN","0.0"],
    [1545226,"2026-03-10 02:30:00","56982","0.872","17.52","1.829","9.58","1019.314","11.22","86.8","NAN","0.0"],
    [1545227,"2026-03-10 02:40:00","56983","0.841","22.63","1.601","38.44","1019.315","11.14","87.3","NAN","0.0"],
    [1545228,"2026-03-10 02:50:00","56984","0.695","35.11","1.47","26.4","1019.275","11.08","87.8","NAN","0.0"],
    [1545229,"2026-03-10 03:00:00","56985","0.773","23.45","1.666","47.83","1019.193","10.98","88.6","NAN","0.0"],
    [1545230,"2026-03-10 03:10:00","56986","0.794","20.07","2.221","17.9","1019.079","11.06","88.3","NAN","0.0"],
    [1545231,"2026-03-10 03:20:00","56987","1.117","8.5","2.385","8.6","1019.081","10.99","88.7","NAN","0.0"],
    [1545232,"2026-03-10 03:30:00","56988","0.8270000000000001","21.39","2.123","5.754","1019.086","10.9","89.2","NAN","0.0"],
    [1545233,"2026-03-10 03:40:00","56989","1.104","10.23","1.699","26.02","1019.0989999999999","10.86","89.4","NAN","0.0"],
    [1545234,"2026-03-10 03:50:00","56990","0.792","16.62","1.829","359.0","1019.189","10.91","88.9","NAN","0.0"],
    [1545235,"2026-03-10 04:00:00","56991","0.752","15.96","1.339","6.249","1019.296","10.91","88.8","NAN","0.0"],
    [1545236,"2026-03-10 04:10:00","56992","0.888","23.92","1.535","30.04","1019.31","10.94","88.7","NAN","0.0"],
    [1545237,"2026-03-10 04:20:00","56993","0.7979999999999999","3.282","1.568","14.34","1019.322","10.94","88.8","NAN","0.0"],
    [1545238,"2026-03-10 04:30:00","56994","0.43700000000000006","354.4","1.209","1.09","1019.323","10.98","88.3","NAN","0.0"],
    [1545239,"2026-03-10 04:40:00","56995","0.252","354.7","0.8490000000000001","1.6019999999999999","1019.32","11.01","88","NAN","0.0"],
    [1545240,"2026-03-10 04:50:00","56996","0.012","41.18","0.457","41.89","1019.325","10.75","88.7","NAN","0.0"],
    [1545241,"2026-03-10 05:00:00","56997","0.301","13.0","0.915","11.68","1019.203","10.59","89.7","NAN","0.0"],
    [1545242,"2026-03-10 05:10:00","56998","0.272","13.41","0.8170000000000001","12.71","1019.209","10.6","89.6","NAN","0.0"],
    [1545243,"2026-03-10 05:20:00","56999","0.418","359.4","1.013","345.9","1019.303","10.65","89.1","NAN","0.0"],
    [1545244,"2026-03-10 05:30:00","57000","0.479","6.736000000000001","0.9470000000000001","2.115","1019.326","10.69","88.3","NAN","0.0"],
    [1545245,"2026-03-10 05:40:00","57001","0.623","39.12","1.045","48.26","1019.3560000000001","10.54","88.1","NAN","0.0"],
    [1545246,"2026-03-10 05:50:00","57002","0.586","35.41","1.568","37.24","1019.45","10.22","89.6","NAN","0.0"],
    [1545247,"2026-03-10 06:00:00","57003","1.0590000000000002","10.0","2.156","14.14","1019.45","10.24","89.3","NAN","0.0"],
    [1545248,"2026-03-10 06:10:00","57004","0.8759999999999999","7.501","1.699","13.46","1019.45","10.3","88.3","NAN","0.0"],
    [1545249,"2026-03-10 06:20:00","57005","0.654","29.26","1.535","16.62","1019.4","10.17","88.4","NAN","0.0"],
    [1545250,"2026-03-10 06:30:00","57006","0.759","16.15","1.405","37.39","1019.383","10.14","88.7","NAN","0.0"],
    [1545251,"2026-03-10 06:40:00","57007","0.995","8.96","1.797","14.64","1019.453","10.34","87.3","NAN","0.0"],
    [1545252,"2026-03-10 06:50:00","57008","0.897","15.64","1.797","6.825","1019.545","10.56","85.9","NAN","0.0"],
    [1545253,"2026-03-10 07:00:00","57009","1.203","8.8","2.385","23.94","1019.669","10.7","84.1","NAN","0.0"],
    [1545254,"2026-03-10 07:10:00","57010","1.051","22.59","2.385","13.29","1019.737","10.99","82.1","NAN","0.0"],
    [1545255,"2026-03-10 07:20:00","57011","0.9209999999999999","19.53","2.483","25.6","1019.763","11.25","79.99","NAN","0.0"],
    [1545256,"2026-03-10 07:30:00","57012","0.823","20.51","2.189","352.0","1019.928","11.28","79.52","NAN","0.0"],
    [1545257,"2026-03-10 07:40:00","57013","0.8140000000000001","13.82","2.548","13.27","1020.002","11.34","79.34","NAN","0.0"],
    [1545258,"2026-03-10 07:50:00","57014","1.079","25.26","2.189","1.5859999999999999","1020.082","11.61","78.12","NAN","0.0"],
    [1545259,"2026-03-10 08:00:00","57015","1.393","9.7","2.417","22.65","1020.222","11.76","77.83","NAN","0.0"],
    [1545260,"2026-03-10 08:10:00","57016","0.966","31.09","2.156","29.5","1020.247","12.07","77.25","NAN","0.0"],
    [1545261,"2026-03-10 08:20:00","57017","1.0959999999999999","24.57","2.352","8.53","1020.312","12.33","76.23","NAN","0.0"],
    [1545262,"2026-03-10 08:30:00","57018","1.3619999999999999","30.39","3.463","20.77","1020.388","12.7","74.3","NAN","0.0"],
    [1545263,"2026-03-10 08:40:00","57019","1.501","13.44","3.397","6.76","1020.534","12.9","72","NAN","0.0"],
    [1545264,"2026-03-10 08:50:00","57020","1.3159999999999998","24.53","3.103","12.85","1020.664","13.22","70.76","NAN","0.0"],
    [1545265,"2026-03-10 09:00:00","57021","1.651","33.36","3.005","37.89","1020.676","13.51","69.91","NAN","0.0"],
    [1545266,"2026-03-10 09:10:00","57022","1.693","40.83","3.234","35.24","1020.7360000000001","13.77","68.73","NAN","0.0"],
    [1545267,"2026-03-10 09:20:00","57023","0.998","359.4","2.156","23.35","1020.9","13.97","67.87","NAN","0.0"],
    [1545268,"2026-03-10 09:30:00","57024","1.304","26.99","3.0380000000000003","72.69","1020.9119999999999","14.17","66.67","NAN","0.0"],
    [1545269,"2026-03-10 09:40:00","57025","0.748","16.65","1.993","71.3","1020.8480000000001","14.78","63.92","NAN","0.0"],
    [1545270,"2026-03-10 09:50:00","57026","1.048","78.82","1.96","60.11","1020.927","15.22","62.09","NAN","0.0"],
    [1545271,"2026-03-10 10:00:00","57027","0.802","96.1","1.895","117.7","1020.955","15.86","59.7","NAN","0.0"],
    [1545272,"2026-03-10 10:10:00","57028","1.629","120.3","2.548","118.2","1021.064","15.14","62.22","NAN","0.0"],
    [1545273,"2026-03-10 10:20:00","57029","1.511","112.3","3.0380000000000003","97.1","1021.1469999999999","15.27","63.42","NAN","0.0"],
    [1545274,"2026-03-10 10:30:00","57030","1.685","109.1","3.005","117.9","1021.186","15.08","63.82","NAN","0.0"],
    [1545275,"2026-03-10 10:40:00","57031","1.7269999999999999","105.0","3.0380000000000003","109.7","1021.181","15","65.27","NAN","0.0"],
    [1545276,"2026-03-10 10:50:00","57032","1.796","124.2","3.103","149.3","1021.221","14.9","65.89","NAN","0.0"],
    [1545277,"2026-03-10 11:00:00","57033","1.935","130.7","3.332","114.4","1021.301","14.58","68.61","NAN","0.0"],
    [1545278,"2026-03-10 11:10:00","57034","1.8530000000000002","119.4","3.593","106.2","1021.311","14.63","70.46","NAN","0.0"],
    [1545279,"2026-03-10 11:20:00","57035","1.855","117.0","3.201","107.4","1021.311","14.58","72.43","NAN","0.0"],
    [1545280,"2026-03-10 11:30:00","57036","2.08","126.1","3.136","123.8","1021.3530000000001","14.4","73.56","NAN","0.0"],
    [1545281,"2026-03-10 11:40:00","57037","2.2","121.7","3.7569999999999997","103.8","1021.428","14.24","74.18","NAN","0.0"],
    [1545282,"2026-03-10 11:50:00","57038","1.942","126.8","3.1689999999999996","141.6","1021.505","14.3","74.4","NAN","0.0"],
    [1545283,"2026-03-10 12:00:00","57039","2.124","133.0","3.0380000000000003","134.3","1021.53","14.12","75.31","NAN","0.0"],
    [1545284,"2026-03-10 12:10:00","57040","1.922","123.3","2.907","112.2","1021.545","14.1","76.26","NAN","0.0"],
    [1545285,"2026-03-10 12:20:00","57041","1.963","131.8","3.6910000000000003","137.1","1021.51","14.22","76.36","NAN","0.0"],
    [1545286,"2026-03-10 12:30:00","57042","1.786","133.0","2.7439999999999998","114.4","1021.43","14.53","76.54","NAN","0.0"],
    [1545287,"2026-03-10 12:40:00","57043","1.7180000000000002","128.6","2.7769999999999997","120.4","1021.3760000000001","14.48","78.03","NAN","0.0"],
    [1545288,"2026-03-10 12:50:00","57044","1.8130000000000002","130.5","3.0380000000000003","134.9","1021.283","14.2","79.22","NAN","0.0"],
    [1545289,"2026-03-10 13:00:00","57045","1.892","131.5","3.234","145.2","1021.174","14.17","80.2","NAN","0.0"],
    [1545290,"2026-03-10 13:10:00","57046","1.8530000000000002","127.5","3.1689999999999996","151.4","1021.174","14.32","78.53","NAN","0.0"],
    [1545291,"2026-03-10 13:20:00","57047","1.6030000000000002","124.7","2.875","120.8","1021.1310000000001","14.47","77.7","NAN","0.0"],
    [1545292,"2026-03-10 13:30:00","57048","1.535","102.3","3.136","105.3","1021.057","14.77","76.21","NAN","0.0"],
    [1545293,"2026-03-10 13:40:00","57049","1.7009999999999998","95.9","3.659","104.0","1021.0","14.49","76.56","NAN","0.0"],
    [1545294,"2026-03-10 13:50:00","57050","1.64","108.1","3.397","102.2","1021.052","14.69","75.65","NAN","0.0"],
    [1545295,"2026-03-10 14:00:00","57051","2.15","118.2","3.6260000000000003","113.3","1020.954","14.69","74.96","NAN","0.0"],
    [1545296,"2026-03-10 14:10:00","57052","1.722","106.7","3.365","99.1","1020.92","15.08","73.23","NAN","0.0"],
    [1545297,"2026-03-10 14:20:00","57053","1.594","124.3","3.1689999999999996","132.7","1020.915","15.22","73.05","NAN","0.0"],
    [1545298,"2026-03-10 14:30:00","57054","1.9040000000000001","113.9","3.528","105.2","1020.92","15.08","73.71","NAN","0.0"],
    [1545299,"2026-03-10 14:40:00","57055","1.682","118.0","3.136","106.4","1020.927","15.13","74.22","NAN","0.0"],
    [1545300,"2026-03-10 14:50:00","57056","2.062","104.0","3.7889999999999997","104.0","1020.927","15.13","74.44","NAN","0.0"],
    [1545301,"2026-03-10 15:00:00","57057","1.96","102.9","3.659","89.6","1020.835","14.95","74.61","NAN","0.0"],
    [1545302,"2026-03-10 15:10:00","57058","2.0780000000000003","102.3","3.822","116.5","1020.748","14.96","74.96","NAN","0.0"],
    [1545303,"2026-03-10 15:20:00","57059","1.719","115.1","3.0380000000000003","112.0","1020.711","14.73","76.41","NAN","0.0"],
    [1545304,"2026-03-10 15:30:00","57060","1.8159999999999998","115.8","3.267","115.5","1020.7260000000001","14.75","75.7","NAN","0.0"],
    [1545305,"2026-03-10 15:40:00","57061","1.9569999999999999","87.5","3.528","67.33","1020.678","14.6","76.91","NAN","0.0"],
    [1545306,"2026-03-10 15:50:00","57062","1.4609999999999999","93.8","2.9730000000000003","90.6","1020.678","14.72","76.73","NAN","0.0"],
    [1545307,"2026-03-10 16:00:00","57063","1.568","96.3","3.7569999999999997","98.8","1020.6310000000001","14.74","76.63","NAN","0.0"],
    [1545308,"2026-03-10 16:10:00","57064","1.985","112.3","3.234","108.9","1020.596","14.54","75.59","NAN","0.0"],
    [1545309,"2026-03-10 16:20:00","57065","2.0140000000000002","110.8","3.7239999999999998","112.5","1020.581","14.24","77.65","NAN","0.0"],
    [1545310,"2026-03-10 16:30:00","57066","1.505","99.8","2.679","147.8","1020.581","14.43","77.44","NAN","0.0"],
    [1545311,"2026-03-10 16:40:00","57067","1.827","104.7","3.071","98.4","1020.6260000000001","14.27","79.46","NAN","0.0"],
    [1545312,"2026-03-10 16:50:00","57068","1.7630000000000001","96.9","3.495","69.41","1020.6510000000001","14.18","80.1","NAN","0.0"],
    [1545313,"2026-03-10 17:00:00","57069","1.8219999999999998","94.2","3.332","94.2","1020.678","14.07","79.84","NAN","0.0"],
    [1545314,"2026-03-10 17:10:00","57070","1.695","77.47","3.1689999999999996","94.4","1020.678","14.06","79.51","NAN","0.0"],
    [1545315,"2026-03-10 17:20:00","57071","1.43","93.2","3.136","99.7","1020.793","14.12","79.49","NAN","0.0"],
    [1545316,"2026-03-10 17:30:00","57072","1.921","103.2","3.6260000000000003","106.4","1020.93","13.86","78.94","NAN","0.0"],
    [1545317,"2026-03-10 17:40:00","57073","1.608","98.7","2.8089999999999997","113.6","1021.054","13.76","77.89","NAN","0.0"],
    [1545318,"2026-03-10 17:50:00","57074","1.561","109.4","2.907","108.3","1021.184","13.73","77.85","NAN","0.0"],
    [1545319,"2026-03-10 18:00:00","57075","1.685","105.8","3.071","124.6","1021.322","13.69","78","NAN","0.0"],
    [1545320,"2026-03-10 18:10:00","57076","1.597","85.5","2.94","91.3","1021.4860000000001","13.7","78.24","NAN","0.0"],
    [1545321,"2026-03-10 18:20:00","57077","1.284","77.02","3.267","70.48","1021.612","13.7","78.97","NAN","0.0"],
    [1545322,"2026-03-10 18:30:00","57078","1.3259999999999998","71.93","2.907","61.16","1021.7260000000001","13.71","78.89","NAN","0.0"],
    [1545323,"2026-03-10 18:40:00","57079","1.6269999999999998","66.86","3.43","86.3","1021.852","13.72","78.7","NAN","0.0"],
    [1545324,"2026-03-10 18:50:00","57080","1.081","67.17","2.319","82.5","1022.06","13.71","79.29","NAN","0.0"],
    [1545325,"2026-03-10 19:00:00","57081","0.951","72.92","2.548","94.8","1022.2389999999999","13.69","79.28","NAN","0.0"],
    [1545326,"2026-03-10 19:10:00","57082","1.063","71.49","2.548","71.26","1022.3639999999999","13.64","78.7","NAN","0.0"],
    [1545327,"2026-03-10 19:20:00","57083","1.141","60.72","2.319","77.96","1022.4910000000001","13.64","79.28","NAN","0.0"],
    [1545328,"2026-03-10 19:30:00","57084","1.345","64.33","2.842","65.51","1022.533","13.62","80.3","NAN","0.0"],
    [1545329,"2026-03-10 19:40:00","57085","1.214","71.01","2.483","83.1","1022.683","13.67","80.9","NAN","0.0"],
    [1545330,"2026-03-10 19:50:00","57086","1.804","66.92","2.907","66.81","1022.722","13.73","82.7","NAN","0.0"],
    [1545331,"2026-03-10 20:00:00","57087","1.379","70.94","2.9730000000000003","73.07","1022.7719999999999","13.68","84","NAN","0.0"],
    [1545332,"2026-03-10 20:10:00","57088","0.978","44.19","2.0909999999999997","46.83","1022.895","13.67","84","NAN","0.0"],
    [1545333,"2026-03-10 20:20:00","57089","1.57","41.28","2.94","53.67","1023.0039999999999","13.63","84.2","NAN","0.0"],
    [1545334,"2026-03-10 20:30:00","57090","1.395","43.04","3.005","57.29","1023.096","13.55","83.8","NAN","0.0"],
    [1545335,"2026-03-10 20:40:00","57091","1.2990000000000002","43.55","2.842","22.14","1023.183","13.49","83.4","NAN","0.0"],
    [1545336,"2026-03-10 20:50:00","57092","1.224","43.59","2.287","30.13","1023.24","13.45","83.5","NAN","0.0"],
    [1545337,"2026-03-10 21:00:00","57093","1.05","44.55","2.548","30.33","1023.248","13.4","83.9","NAN","0.0"],
    [1545338,"2026-03-10 21:10:00","57094","1.131","41.56","1.895","60.78","1023.38","13.34","84.4","NAN","0.0"],
    [1545339,"2026-03-10 21:20:00","57095","0.887","39.59","1.96","35.23","1023.472","13.34","84.7","NAN","0.0"],
    [1545340,"2026-03-10 21:30:00","57096","0.8290000000000001","48.07","1.829","56.7","1023.502","13.23","84.8","NAN","0.0"],
    [1545341,"2026-03-10 21:40:00","57097","0.945","46.28","1.9269999999999998","71.68","1023.505","13.13","84.9","NAN","0.0"],
    [1545342,"2026-03-10 21:50:00","57098","0.9229999999999999","36.97","1.993","68.02","1023.5160000000001","13.08","84.9","NAN","0.0"],
    [1545343,"2026-03-10 22:00:00","57099","0.792","14.62","2.156","10.59","1023.618","13.06","84.6","NAN","0.0"],
    [1545344,"2026-03-10 22:10:00","57100","0.97","10.4","2.385","9.47","1023.709","13.05","83.6","NAN","0.0"],
    [1545345,"2026-03-10 22:20:00","57101","0.7829999999999999","24.3","1.699","18.98","1023.74","12.93","83.4","NAN","0.0"],
    [1545346,"2026-03-10 22:30:00","57102","1.1059999999999999","6.024","1.8619999999999999","8.47","1023.745","12.89","82.9","NAN","0.0"],
    [1545347,"2026-03-10 22:40:00","57103","1.109","7.921","2.679","358.8","1023.7389999999999","12.9","82.5","NAN","0.0"],
    [1545348,"2026-03-10 22:50:00","57104","0.905","11.6","1.895","5.479","1023.7560000000001","12.94","82.3","NAN","0.0"],
    [1545349,"2026-03-10 23:00:00","57105","0.932","10.34","1.764","3.188","1023.7539999999999","12.92","82.3","NAN","0.0"],
    [1545350,"2026-03-10 23:10:00","57106","0.778","13.83","1.797","359.9","1023.8639999999999","12.87","82.3","NAN","0.0"],
    [1545351,"2026-03-10 23:20:00","57107","0.927","11.25","1.797","5.864","1023.915","12.82","82.3","NAN","0.0"],
    [1545352,"2026-03-10 23:30:00","57108","0.866","34.04","1.601","21.84","1023.9989999999999","12.75","82.6","NAN","0.0"],
    [1545353,"2026-03-10 23:40:00","57109","1.11","14.23","2.221","7.434","1023.909","12.63","83.2","NAN","0.0"],
    [1545354,"2026-03-10 23:50:00","57110","1.425","10.44","2.907","7.419","1023.922","12.68","82.5","NAN","0.0"],
    [1545355,"2026-03-11 00:00:00","57111","0.993","8.34","2.515","8.22","1023.85","12.65","82.3","NAN","0.0"],
    [1545356,"2026-03-11 00:10:00","57112","1.406","14.86","3.593","15.31","1023.832","12.59","82.3","NAN","0.0"],
    [1545357,"2026-03-11 00:20:00","57113","1.444","11.96","3.0380000000000003","38.2","1023.8","12.39","82.9","NAN","0.0"],
    [1545358,"2026-03-11 00:30:00","57114","1.358","9.29","3.0380000000000003","4.598","1023.7539999999999","12.19","83.8","NAN","0.0"],
    [1545359,"2026-03-11 00:40:00","57115","1.2790000000000001","12.32","3.0380000000000003","10.96","1023.753","12.08","83.9","NAN","0.0"],
    [1545360,"2026-03-11 00:50:00","57116","1.141","11.69","2.613","10.89","1023.763","12","84","NAN","0.0"],
    [1545361,"2026-03-11 01:00:00","57117","1.136","11.05","2.287","10.38","1023.7739999999999","11.96","83.8","NAN","0.0"],
    [1545362,"2026-03-11 01:10:00","57118","0.7440000000000001","13.13","1.9269999999999998","15.01","1023.789","11.89","83.7","NAN","0.0"],
    [1545363,"2026-03-11 01:20:00","57119","0.9540000000000001","9.01","1.993","12.29","1023.799","11.82","83.8","NAN","0.0"],
    [1545364,"2026-03-11 01:30:00","57120","1.3330000000000002","9.58","2.613","20.93","1023.645","11.9","83.4","NAN","0.0"],
    [1545365,"2026-03-11 01:40:00","57121","0.9470000000000001","13.41","2.7769999999999997","30.89","1023.5010000000001","11.89","83.3","NAN","0.0"],
    [1545366,"2026-03-11 01:50:00","57122","0.625","15.32","2.025","22.72","1023.4060000000001","11.8","83.6","NAN","0.0"],
    [1545367,"2026-03-11 02:00:00","57123","0.775","26.7","1.797","10.29","1023.426","11.65","84","NAN","0.0"],
    [1545368,"2026-03-11 02:10:00","57124","0.728","28.63","1.4369999999999998","8.67","1023.418","11.75","83.1","NAN","0.0"],
    [1545369,"2026-03-11 02:20:00","57125","0.8320000000000001","24.18","2.025","4.166","1023.415","11.61","83.5","NAN","0.0"],
    [1545370,"2026-03-11 02:30:00","57126","1.275","9.62","2.5810000000000004","9.75","1023.312","11.68","82.6","NAN","0.0"],
    [1545371,"2026-03-11 02:40:00","57127","1.157","5.977","2.483","357.3","1023.303","11.69","82.3","NAN","0.0"],
    [1545372,"2026-03-11 02:50:00","57128","0.915","8.52","2.0909999999999997","8.64","1023.327","11.59","82.2","NAN","0.0"],
    [1545373,"2026-03-11 03:00:00","57129","0.948","8.7","1.96","8.68","1023.4119999999999","11.5","82.4","NAN","0.0"],
    [1545374,"2026-03-11 03:10:00","57130","0.9129999999999999","14.41","1.96","35.11","1023.4789999999999","11.51","82.5","NAN","0.0"],
    [1545375,"2026-03-11 03:20:00","57131","0.457","32.0","1.2409999999999999","46.33","1023.5210000000001","11.39","83.1","NAN","0.0"],
    [1545376,"2026-03-11 03:30:00","57132","0.5870000000000001","17.75","1.176","11.41","1023.584","11.28","84.2","NAN","0.0"],
    [1545377,"2026-03-11 03:40:00","57133","0.657","23.28","1.2409999999999999","4.882","1023.653","11.28","84.4","NAN","0.0"],
    [1545378,"2026-03-11 03:50:00","57134","0.54","15.13","1.111","351.6","1023.691","11.17","85.2","NAN","0.0"],
    [1545379,"2026-03-11 04:00:00","57135","0.581","8.12","0.915","14.65","1023.691","11.24","85.2","NAN","0.0"],
    [1545380,"2026-03-11 04:10:00","57136","0.5820000000000001","9.31","1.045","14.12","1023.682","11.25","85.3","NAN","0.0"],
    [1545381,"2026-03-11 04:20:00","57137","0.602","8.26","1.176","7.499","1023.622","11.21","85.6","NAN","0.0"],
    [1545382,"2026-03-11 04:30:00","57138","0.038","328.7","0.588","353.2","1023.643","11.25","85.8","NAN","0.0"],
    [1545383,"2026-03-11 04:40:00","57139","0.043","303.0","0.588","326.6","1023.507","11.35","85.6","NAN","0.0"],
    [1545384,"2026-03-11 04:50:00","57140","0.0","0.0","0.0","0.0","1023.423","11.2","85.8","NAN","0.0"],
    [1545385,"2026-03-11 05:00:00","57141","0.6","3.8960000000000004","1.339","4.1819999999999995","1023.404","11.12","86","NAN","0.0"],
    [1545386,"2026-03-11 05:10:00","57142","0.904","4.333","1.405","4.8389999999999995","1023.446","11.09","85.2","NAN","0.0"],
    [1545387,"2026-03-11 05:20:00","57143","0.638","19.52","1.2409999999999999","12.55","1023.482","10.87","85.4","NAN","0.0"],
    [1545388,"2026-03-11 05:30:00","57144","1.495","4.947","2.8089999999999997","13.81","1023.6610000000001","10.63","85.8","NAN","0.0"],
    [1545389,"2026-03-11 05:40:00","57145","1.4580000000000002","8.09","2.679","7.547000000000001","1023.703","10.6","84.9","NAN","0.0"],
    [1545390,"2026-03-11 05:50:00","57146","1.22","3.846","2.189","9.11","1023.701","10.5","85.1","NAN","0.0"],
    [1545391,"2026-03-11 06:00:00","57147","0.8809999999999999","0.583","1.405","353.3","1023.686","10.6","84.9","NAN","0.0"],
    [1545392,"2026-03-11 06:10:00","57148","1.0170000000000001","4.437","1.829","2.931","1023.686","10.72","84.3","NAN","0.0"],
    [1545393,"2026-03-11 06:20:00","57149","0.6409999999999999","357.7","1.339","2.484","1023.688","10.74","84.4","NAN","0.0"],
    [1545394,"2026-03-11 06:30:00","57150","0.8","11.6","1.601","15.73","1023.688","10.73","84.5","NAN","0.0"],
    [1545395,"2026-03-11 06:40:00","57151","0.14300000000000002","354.1","1.013","7.195","1023.721","10.93","84.2","NAN","0.0"],
    [1545396,"2026-03-11 06:50:00","57152","0.138","35.35","0.49","35.28","1023.81","11.66","80.8","NAN","0.0"],
    [1545397,"2026-03-11 07:00:00","57153","0.12","88.2","0.49","82.1","1023.8510000000001","12.29","77.82","NAN","0.0"],
    [1545398,"2026-03-11 07:10:00","57154","0.212","34.53","1.013","28.84","1023.954","12.92","74.34","NAN","0.0"],
    [1545399,"2026-03-11 07:20:00","57155","0.7","355.1","1.535","342.3","1024.174","12.33","75.96","NAN","0.0"],
    [1545400,"2026-03-11 07:30:00","57156","0.39399999999999996","78.02","1.013","93.7","1024.228","12.7","75.62","NAN","0.0"],
    [1545401,"2026-03-11 07:40:00","57157","0.473","72.3","0.8490000000000001","79.28","1024.3310000000001","13.29","72.67","NAN","0.0"],
    [1545402,"2026-03-11 07:50:00","57158","0.27","88.7","0.7190000000000001","70.34","1024.44","13.92","69.87","NAN","0.0"],
    [1545403,"2026-03-11 08:00:00","57159","0.287","69.29","0.8490000000000001","38.27","1024.626","14.14","69.63","NAN","0.0"],
    [1545404,"2026-03-11 08:10:00","57160","0.43200000000000005","99.1","0.8490000000000001","117.3","1024.616","14.45","67.94","NAN","0.0"],
    [1545405,"2026-03-11 08:20:00","57161","0.597","127.2","1.274","165.9","1024.636","14.23","68.99","NAN","0.0"],
    [1545406,"2026-03-11 08:30:00","57162","0.9470000000000001","165.4","1.535","161.9","1024.663","14.07","69.19","NAN","0.0"],
    [1545407,"2026-03-11 08:40:00","57163","0.847","107.3","1.5030000000000001","100.6","1024.6680000000001","14.26","70.85","NAN","0.0"],
    [1545408,"2026-03-11 08:50:00","57164","0.8059999999999999","136.2","1.535","143.9","1024.758","14.3","70.64","NAN","0.0"],
    [1545409,"2026-03-11 09:00:00","57165","0.8690000000000001","145.9","1.4369999999999998","156.6","1024.788","14.4","69.89","NAN","0.0"],
    [1545410,"2026-03-11 09:10:00","57166","0.983","135.8","1.535","118.7","1024.7930000000001","14.41","70.02","NAN","0.0"],
    [1545411,"2026-03-11 09:20:00","57167","1.091","144.1","1.797","195.0","1024.681","14.61","69.07","NAN","0.0"],
    [1545412,"2026-03-11 09:30:00","57168","1.359","162.7","2.189","156.4","1024.7160000000001","14.27","69.53","NAN","0.0"],
    [1545413,"2026-03-11 09:40:00","57169","1.1","130.2","2.025","129.4","1024.6660000000002","14.55","69.82","NAN","0.0"],
    [1545414,"2026-03-11 09:50:00","57170","1.554","164.3","3.005","175.7","1024.728","14.7","69.15","NAN","0.0"],
    [1545415,"2026-03-11 10:00:00","57171","1.247","150.6","2.156","156.5","1024.708","14.87","68.85","NAN","0.0"],
    [1545416,"2026-03-11 10:10:00","57172","1.2830000000000001","126.9","2.45","120.4","1024.701","15.14","70.23","NAN","0.0"],
    [1545417,"2026-03-11 10:20:00","57173","1.456","110.3","2.613","107.0","1024.6660000000002","15.5","68.71","NAN","0.0"],
    [1545418,"2026-03-11 10:30:00","57174","1.472","113.8","2.7769999999999997","147.1","1024.643","16.43","61.85","NAN","0.0"],
    [1545419,"2026-03-11 10:40:00","57175","1.7480000000000002","206.3","3.0380000000000003","192.5","1024.499","17.14","52.63","NAN","0.0"],
    [1545420,"2026-03-11 10:50:00","57176","1.8330000000000002","190.0","4.083","213.2","1024.3319999999999","17.14","56.25","NAN","0.0"],
    [1545421,"2026-03-11 11:00:00","57177","1.639","211.9","3.397","188.8","1024.335","17.48","53.42","NAN","0.0"],
    [1545422,"2026-03-11 11:10:00","57178","1.5130000000000001","196.3","3.071","167.9","1024.417","17.33","58.45","NAN","0.0"],
    [1545423,"2026-03-11 11:20:00","57179","1.621","191.6","3.6260000000000003","182.7","1024.463","17.11","60.04","NAN","0.0"],
    [1545424,"2026-03-11 11:30:00","57180","2.496","183.5","4.737","187.0","1024.5339999999999","16.62","62.54","NAN","0.0"],
    [1545425,"2026-03-11 11:40:00","57181","2.76","180.9","5.586","175.2","1024.4160000000002","16.57","62.99","NAN","0.0"],
    [1545426,"2026-03-11 11:50:00","57182","3.13","178.0","5.357","175.7","1024.3319999999999","16.32","64.56","NAN","0.0"],
    [1545427,"2026-03-11 12:00:00","57183","3.68","171.4","5.684","172.8","1024.205","16.3","64.47","NAN","0.0"],
    [1545428,"2026-03-11 12:10:00","57184","2.609","188.3","4.965","175.1","1024.162","16.34","65.51","NAN","0.0"],
    [1545429,"2026-03-11 12:20:00","57185","3.083","184.2","5.2589999999999995","178.0","1024.113","16.11","67","NAN","0.0"],
    [1545430,"2026-03-11 12:30:00","57186","2.8680000000000003","192.2","4.638999999999999","210.3","1023.9730000000001","16.24","66.76","NAN","0.0"],
    [1545431,"2026-03-11 12:40:00","57187","3.127","192.4","5.7170000000000005","186.2","1023.868","16.34","65","NAN","0.0"],
    [1545432,"2026-03-11 12:50:00","57188","3.735","188.6","6.37","188.6","1023.7189999999999","16.06","64.67","NAN","0.0"],
    [1545433,"2026-03-11 13:00:00","57189","3.278","190.8","5.88","182.4","1023.6669999999999","16.22","63.16","NAN","0.0"],
    [1545434,"2026-03-11 13:10:00","57190","2.719","197.2","5.422999999999999","192.7","1023.5889999999999","16.42","62.25","NAN","0.0"],
    [1545435,"2026-03-11 13:20:00","57191","2.439","202.2","5.325","173.7","1023.525","16.55","60.76","NAN","0.0"],
    [1545436,"2026-03-11 13:30:00","57192","2.331","207.4","5.194","181.8","1023.447","17.06","56.52","NAN","0.0"],
    [1545437,"2026-03-11 13:40:00","57193","2.35","198.1","4.312","183.4","1023.335","16.9","58.59","NAN","0.0"],
    [1545438,"2026-03-11 13:50:00","57194","2.569","196.9","4.2139999999999995","187.7","1023.293","16.88","59.83","NAN","0.0"],
    [1545439,"2026-03-11 14:00:00","57195","2.6710000000000003","180.0","4.018","198.1","1023.293","16.48","62.46","NAN","0.0"],
    [1545440,"2026-03-11 14:10:00","57196","2.662","180.8","4.541","178.9","1023.296","16.32","64.2","NAN","0.0"],
    [1545441,"2026-03-11 14:20:00","57197","2.897","191.3","5.227","198.3","1023.3430000000001","16.06","63.87","NAN","0.0"],
    [1545442,"2026-03-11 14:30:00","57198","2.613","192.8","5.2589999999999995","199.9","1023.32","16.13","63.28","NAN","0.0"],
    [1545443,"2026-03-11 14:40:00","57199","2.9360000000000004","186.2","5.063","193.1","1023.253","15.69","67.28","NAN","0.0"],
    [1545444,"2026-03-11 14:50:00","57200","2.528","187.0","4.475","200.0","1023.169","15.7","69.5","NAN","0.0"],
    [1545445,"2026-03-11 15:00:00","57201","2.263","177.3","5.063","198.0","1023.169","15.83","70.13","NAN","0.0"],
    [1545446,"2026-03-11 15:10:00","57202","1.985","193.5","4.4430000000000005","208.5","1023.1310000000001","15.93","68.82","NAN","0.0"],
    [1545447,"2026-03-11 15:20:00","57203","2.456","197.6","4.802","221.8","1023.081","15.9","67.33","NAN","0.0"],
    [1545448,"2026-03-11 15:30:00","57204","2.0140000000000002","201.5","3.822","207.9","1023.074","16.12","67.22","NAN","0.0"],
    [1545449,"2026-03-11 15:40:00","57205","1.4880000000000002","205.5","3.1689999999999996","205.6","1023.166","16.07","67.71","NAN","0.0"],
    [1545450,"2026-03-11 15:50:00","57206","1.5430000000000001","231.2","4.41","251.4","1023.1389999999999","16.09","65.13","NAN","0.0"],
    [1545451,"2026-03-11 16:00:00","57207","1.469","227.3","4.1160000000000005","247.9","1023.0939999999999","16.23","64.66","NAN","0.0"],
    [1545452,"2026-03-11 16:10:00","57208","2.391","225.4","5.096","210.8","1023.096","16.04","64.5","NAN","0.0"],
    [1545453,"2026-03-11 16:20:00","57209","2.296","230.8","4.671","221.5","1023.1339999999999","15.83","67.88","NAN","0.0"],
    [1545454,"2026-03-11 16:30:00","57210","1.902","220.9","4.475","230.3","1023.044","15.76","65.93","NAN","0.0"],
    [1545455,"2026-03-11 16:40:00","57211","1.7830000000000001","225.7","3.7889999999999997","223.2","1022.954","15.94","61.6","NAN","0.0"],
    [1545456,"2026-03-11 16:50:00","57212","1.405","229.1","4.051","228.2","1022.92","16.04","58.6","NAN","0.0"],
    [1545457,"2026-03-11 17:00:00","57213","1.725","228.6","4.1160000000000005","258.5","1022.92","16.13","56.78","NAN","0.0"],
    [1545458,"2026-03-11 17:10:00","57214","1.84","216.4","3.659","224.6","1022.932","16.06","54.61","NAN","0.0"],
    [1545459,"2026-03-11 17:20:00","57215","1.867","224.9","4.606","231.0","1023.044","15.96","53.68","NAN","0.0"],
    [1545460,"2026-03-11 17:30:00","57216","2.392","238.8","5.422999999999999","216.5","1023.2589999999999","15.88","54.95","NAN","0.0"],
    [1545461,"2026-03-11 17:40:00","57217","2.353","227.5","4.475","244.1","1023.323","15.73","58.31","NAN","0.0"],
    [1545462,"2026-03-11 17:50:00","57218","2.27","239.5","4.541","251.2","1023.378","15.59","60.1","NAN","0.0"],
    [1545463,"2026-03-11 18:00:00","57219","1.9380000000000002","236.6","4.377","235.2","1023.47","15.39","62.41","NAN","0.0"],
    [1545464,"2026-03-11 18:10:00","57220","1.7819999999999998","245.7","4.4430000000000005","254.1","1023.53","15.33","63.78","NAN","0.0"],
    [1545465,"2026-03-11 18:20:00","57221","1.286","237.8","3.071","257.9","1023.55","15.31","64.58","NAN","0.0"],
    [1545466,"2026-03-11 18:30:00","57222","2.057","238.5","4.475","237.6","1023.6469999999999","15.2","66.13","NAN","0.0"],
    [1545467,"2026-03-11 18:40:00","57223","1.785","241.2","3.92","240.0","1023.674","15.12","67.74","NAN","0.0"],
    [1545468,"2026-03-11 18:50:00","57224","1.41","240.1","2.9730000000000003","238.6","1023.684","15.1","68.78","NAN","0.0"],
    [1545469,"2026-03-11 19:00:00","57225","1.102","234.9","2.907","247.7","1023.7230000000001","15.19","69.14","NAN","0.0"],
    [1545470,"2026-03-11 19:10:00","57226","1.216","230.9","2.94","228.4","1023.8489999999999","15.17","70.24","NAN","0.0"],
    [1545471,"2026-03-11 19:20:00","57227","1.794","234.8","3.299","225.9","1023.93","15","71.47","NAN","0.0"],
    [1545472,"2026-03-11 19:30:00","57228","0.851","208.1","1.829","191.0","1023.9939999999999","14.94","72.15","NAN","0.0"],
    [1545473,"2026-03-11 19:40:00","57229","0.946","186.0","1.666","209.5","1024.057","14.71","73.68","NAN","0.0"],
    [1545474,"2026-03-11 19:50:00","57230","1.219","178.3","2.515","178.9","1024.1","14.61","73.95","NAN","0.0"],
    [1545475,"2026-03-11 20:00:00","57231","1.193","206.5","2.189","177.9","1024.11","14.64","72.98","NAN","0.0"],
    [1545476,"2026-03-11 20:10:00","57232","1.088","215.8","2.5810000000000004","198.8","1024.093","14.61","72.31","NAN","0.0"],
    [1545477,"2026-03-11 20:20:00","57233","1.3330000000000002","209.3","2.385","201.0","1024.101","14.5","72.22","NAN","0.0"],
    [1545478,"2026-03-11 20:30:00","57234","1.565","204.3","2.7439999999999998","185.6","1024.151","14.49","72.78","NAN","0.0"],
    [1545479,"2026-03-11 20:40:00","57235","1.1909999999999998","197.2","2.156","211.4","1024.234","14.23","74.94","NAN","0.0"],
    [1545480,"2026-03-11 20:50:00","57236","0.754","184.3","1.405","188.4","1024.228","14.15","75.51","NAN","0.0"],
    [1545481,"2026-03-11 21:00:00","57237","1.031","213.1","1.764","209.1","1024.234","14.12","74.2","NAN","0.0"],
    [1545482,"2026-03-11 21:10:00","57238","1.043","230.7","2.287","239.3","1024.236","14.34","71","NAN","0.0"],
    [1545483,"2026-03-11 21:20:00","57239","1.334","242.5","2.7110000000000003","241.8","1024.317","14.93","66.89","NAN","0.0"],
    [1545484,"2026-03-11 21:30:00","57240","1.246","245.6","2.156","238.6","1024.4289999999999","14.79","67.89","NAN","0.0"],
    [1545485,"2026-03-11 21:40:00","57241","0.8140000000000001","244.1","2.417","258.7","1024.486","14.71","68.5","NAN","0.0"],
    [1545486,"2026-03-11 21:50:00","57242","1.253","237.5","2.0580000000000003","235.3","1024.5410000000002","14.68","68.65","NAN","0.0"],
    [1545487,"2026-03-11 22:00:00","57243","0.462","247.5","1.993","239.5","1024.661","14.65","68.96","NAN","0.0"],
    [1545488,"2026-03-11 22:10:00","57244","0.18","318.6","1.078","266.8","1024.735","14.57","69.57","NAN","0.0"],
    [1545489,"2026-03-11 22:20:00","57245","0.626","298.4","1.209","293.0","1024.85","14.67","69.05","NAN","0.0"],
    [1545490,"2026-03-11 22:30:00","57246","0.484","258.4","1.535","251.7","1024.82","14.73","69.01","NAN","0.0"],
    [1545491,"2026-03-11 22:40:00","57247","0.268","60.74","0.6859999999999999","47.1","1024.955","14.29","71.16","NAN","0.0"],
    [1545492,"2026-03-11 22:50:00","57248","0.586","16.76","1.013","55.51","1025.109","14.04","72.59","NAN","0.0"],
    [1545493,"2026-03-11 23:00:00","57249","0.423","337.1","1.405","338.1","1025.1989999999998","14.22","71.26","NAN","0.0"],
    [1545494,"2026-03-11 23:10:00","57250","1.314","9.3","5.422999999999999","53.54","1025.236","14.37","69.79","NAN","0.0"],
    [1545495,"2026-03-11 23:20:00","57251","2.506","40.28","4.279","33.82","1025.276","13.64","72.21","NAN","0.0"],
    [1545496,"2026-03-11 23:30:00","57252","1.555","41.96","3.495","51.14","1025.266","13.52","73.93","NAN","0.0"],
    [1545497,"2026-03-11 23:40:00","57253","0.856","35.14","1.993","51.12","1025.249","13.44","75.28","NAN","0.0"],
    [1545498,"2026-03-11 23:50:00","57254","1.078","6.5920000000000005","1.9269999999999998","15.39","1025.255","13.45","76.69","NAN","0.0"],
    [1545499,"2026-03-12 00:00:00","57255","0.94","4.2139999999999995","2.156","14.65","1025.233","13.5","77.93","NAN","0.0"],
    [1545500,"2026-03-12 00:10:00","57256","0.698","3.383","1.7309999999999999","3.2680000000000002","1025.233","13.48","78.22","NAN","0.0"],
    [1545501,"2026-03-12 00:20:00","57257","0.542","8.73","1.209","3.345","1025.233","13.47","78.4","NAN","0.0"],
    [1545502,"2026-03-12 00:30:00","57258","0.696","1.187","1.666","343.5","1025.233","13.54","78.05","NAN","0.0"],
    [1545503,"2026-03-12 00:40:00","57259","0.753","15.55","1.535","17.64","1025.241","13.58","77.65","NAN","0.0"],
    [1545504,"2026-03-12 00:50:00","57260","0.484","357.8","1.2409999999999999","346.3","1025.305","13.56","77.75","NAN","0.0"],
    [1545505,"2026-03-12 01:00:00","57261","0.546","20.39","1.111","7.26","1025.266","13.59","77.4","NAN","0.0"],
    [1545506,"2026-03-12 01:10:00","57262","0.816","16.69","1.601","3.012","1025.237","13.5","77.82","NAN","0.0"],
    [1545507,"2026-03-12 01:20:00","57263","0.53","30.87","1.045","358.5","1025.246","13.55","77.48","NAN","0.0"],
    [1545508,"2026-03-12 01:30:00","57264","0.645","21.54","1.4369999999999998","14.87","1025.33","13.49","77.87","NAN","0.0"],
    [1545509,"2026-03-12 01:40:00","57265","0.8759999999999999","25.31","1.601","4.806","1025.233","13.5","77.65","NAN","0.0"],
    [1545510,"2026-03-12 01:50:00","57266","0.851","7.62","2.025","8.75","1025.237","13.53","77.52","NAN","0.0"],
    [1545511,"2026-03-12 02:00:00","57267","1.084","7.562","1.9269999999999998","23.32","1025.231","13.69","76.85","NAN","0.0"],
    [1545512,"2026-03-12 02:10:00","57268","0.895","4.649","2.287","20.17","1025.224","13.8","76.56","NAN","0.0"],
    [1545513,"2026-03-12 02:20:00","57269","0.8140000000000001","9.29","1.699","24.32","1025.226","13.94","76.23","NAN","0.0"],
    [1545514,"2026-03-12 02:30:00","57270","0.784","20.15","1.7309999999999999","40.06","1025.229","14.06","75.78","NAN","0.0"],
    [1545515,"2026-03-12 02:40:00","57271","0.784","22.78","1.895","18.94","1025.126","14.03","75.99","NAN","0.0"],
    [1545516,"2026-03-12 02:50:00","57272","0.9620000000000001","38.17","2.025","22.76","1024.961","13.96","76.2","NAN","0.0"],
    [1545517,"2026-03-12 03:00:00","57273","0.851","43.91","1.895","31.53","1024.965","13.79","77.12","NAN","0.0"],
    [1545518,"2026-03-12 03:10:00","57274","0.536","16.49","1.307","350.1","1024.976","13.66","77.81","NAN","0.0"],
    [1545519,"2026-03-12 03:20:00","57275","0.574","24.29","1.176","33.47","1024.887","13.58","78.26","NAN","0.0"],
    [1545520,"2026-03-12 03:30:00","57276","0.6409999999999999","9.63","1.47","10.83","1024.958","13.64","77.71","NAN","0.0"],
    [1545521,"2026-03-12 03:40:00","57277","0.49700000000000005","15.32","0.98","8.23","1024.952","13.69","77.64","NAN","0.0"],
    [1545522,"2026-03-12 03:50:00","57278","0.523","6.237","1.47","348.3","1025.056","13.77","77.23","NAN","0.0"],
    [1545523,"2026-03-12 04:00:00","57279","1.155","1.551","1.797","354.4","1025.106","13.89","76.37","NAN","0.0"],
    [1545524,"2026-03-12 04:10:00","57280","0.688","10.17","1.666","15.33","1025.144","14.01","75.9","NAN","0.0"],
    [1545525,"2026-03-12 04:20:00","57281","0.581","24.73","1.2409999999999999","47.29","1025.1789999999999","13.89","76.32","NAN","0.0"],
    [1545526,"2026-03-12 04:30:00","57282","0.727","7.492999999999999","1.307","5.03","1025.221","13.82","76.63","NAN","0.0"],
    [1545527,"2026-03-12 04:40:00","57283","0.831","10.1","1.5030000000000001","20.83","1025.208","13.8","76.87","NAN","0.0"],
    [1545528,"2026-03-12 04:50:00","57284","0.606","11.75","1.405","10.51","1025.142","13.75","76.93","NAN","0.0"],
    [1545529,"2026-03-12 05:00:00","57285","0.184","8.69","0.653","331.2","1024.945","13.58","77.51","NAN","0.0"],
    [1545530,"2026-03-12 05:10:00","57286","0.624","1.256","1.143","6.6","1024.915","13.58","77.63","NAN","0.0"],
    [1545531,"2026-03-12 05:20:00","57287","0.6829999999999999","2.975","1.111","6.247000000000001","1024.869","13.67","77.18","NAN","0.0"],
    [1545532,"2026-03-12 05:30:00","57288","0.557","5.237","1.176","5.96","1024.844","13.65","77.17","NAN","0.0"],
    [1545533,"2026-03-12 05:40:00","57289","0.6559999999999999","7.064","1.209","3.508","1024.836","13.67","77.39","NAN","0.0"],
    [1545534,"2026-03-12 05:50:00","57290","0.831","359.8","1.4369999999999998","3.188","1024.8239999999998","13.67","77.18","NAN","0.0"],
    [1545535,"2026-03-12 06:00:00","57291","0.87","4.252","1.405","6.649","1024.892","13.69","77.31","NAN","0.0"],
    [1545536,"2026-03-12 06:10:00","57292","0.6990000000000001","9.43","1.307","4.053","1024.86","13.72","77.22","NAN","0.0"],
    [1545537,"2026-03-12 06:20:00","57293","0.44","3.8560000000000003","0.98","14.26","1024.979","13.67","77.49","NAN","0.0"],
    [1545538,"2026-03-12 06:30:00","57294","0.525","55.93","0.9470000000000001","117.4","1025.0710000000001","13.74","77.06","NAN","0.0"],
    [1545539,"2026-03-12 06:40:00","57295","0.163","48.24","0.8170000000000001","94.9","1025.155","13.74","77.89","NAN","0.0"],
    [1545540,"2026-03-12 06:50:00","57296","0.07400000000000001","205.2","0.7190000000000001","223.6","1025.2060000000001","14.03","78.44","NAN","0.0"],
    [1545541,"2026-03-12 07:00:00","57297","0.624","185.4","1.274","203.8","1025.3","14.19","79.2","NAN","0.0"],
    [1545542,"2026-03-12 07:10:00","57298","0.93","183.7","1.633","175.9","1025.382","14.25","79.68","NAN","0.0"],
    [1545543,"2026-03-12 07:20:00","57299","1.083","198.1","2.613","203.7","1025.431","14.33","78.13","NAN","0.0"],
    [1545544,"2026-03-12 07:30:00","57300","1.146","190.1","2.0580000000000003","166.9","1025.5810000000001","14.35","78.04","NAN","0.0"],
    [1545545,"2026-03-12 07:40:00","57301","1.742","179.3","2.9730000000000003","168.2","1025.652","14.29","77.73","NAN","0.0"],
    [1545546,"2026-03-12 07:50:00","57302","1.4169999999999998","183.7","2.254","178.5","1025.769","14.35","77.35","NAN","0.0"],
    [1545547,"2026-03-12 08:00:00","57303","1.253","191.4","2.319","191.2","1025.819","14.35","76.84","NAN","0.0"],
    [1545548,"2026-03-12 08:10:00","57304","0.968","198.5","1.993","174.6","1025.904","14.5","76.06","NAN","0.0"],
    [1545549,"2026-03-12 08:20:00","57305","1.047","202.8","2.287","205.2","1025.906","14.91","73.92","NAN","0.0"],
    [1545550,"2026-03-12 08:30:00","57306","1.402","195.5","2.7769999999999997","205.6","1026.068","15.25","71.35","NAN","0.0"],
    [1545551,"2026-03-12 08:40:00","57307","1.361","196.8","2.7110000000000003","187.7","1026.1580000000001","15.29","71.19","NAN","0.0"],
    [1545552,"2026-03-12 08:50:00","57308","1.251","201.6","2.417","166.6","1026.193","15.32","70.84","NAN","0.0"],
    [1545553,"2026-03-12 09:00:00","57309","1.5030000000000001","200.1","3.071","209.3","1026.315","15.41","70.11","NAN","0.0"],
    [1545554,"2026-03-12 09:10:00","57310","1.6230000000000002","188.3","3.43","180.3","1026.407","15.26","70.64","NAN","0.0"],
    [1545555,"2026-03-12 09:20:00","57311","1.7480000000000002","178.5","3.1689999999999996","182.6","1026.414","15.18","70.97","NAN","0.0"],
    [1545556,"2026-03-12 09:30:00","57312","1.8230000000000002","178.7","3.071","205.6","1026.4089999999999","15.48","70.04","NAN","0.0"],
    [1545557,"2026-03-12 09:40:00","57313","1.5819999999999999","209.8","2.9730000000000003","194.3","1026.407","15.77","69.2","NAN","0.0"],
    [1545558,"2026-03-12 09:50:00","57314","2.69","184.1","4.737","165.9","1026.407","15.86","67.99","NAN","0.0"],
    [1545559,"2026-03-12 10:00:00","57315","2.114","193.3","4.377","176.1","1026.402","15.74","69.49","NAN","0.0"],
    [1545560,"2026-03-12 10:10:00","57316","2.146","177.1","3.7569999999999997","180.8","1026.319","15.79","69.65","NAN","0.0"],
    [1545561,"2026-03-12 10:20:00","57317","2.595","177.8","3.92","170.5","1026.285","15.55","71.32","NAN","0.0"],
    [1545562,"2026-03-12 10:30:00","57318","3.094","174.7","4.933","177.8","1026.232","15.31","73.71","NAN","0.0"],
    [1545563,"2026-03-12 10:40:00","57319","2.583","180.0","4.149","180.0","1026.143","15.35","74.4","NAN","0.0"],
    [1545564,"2026-03-12 10:50:00","57320","2.077","198.7","3.887","195.6","1026.038","15.47","74.54","NAN","0.0"],
    [1545565,"2026-03-12 11:00:00","57321","2.035","202.1","5.096","191.1","1025.968","15.95","73.24","NAN","0.0"],
    [1545566,"2026-03-12 11:10:00","57322","2.498","189.7","4.573","197.7","1025.844","16.27","72.23","NAN","0.0"],
    [1545567,"2026-03-12 11:20:00","57323","3.34","174.1","5.357","163.7","1025.6989999999998","15.99","74.48","NAN","0.0"],
    [1545568,"2026-03-12 11:30:00","57324","3.1689999999999996","181.6","5.325","155.5","1025.647","16.09","73.74","NAN","0.0"],
    [1545569,"2026-03-12 11:40:00","57325","3.241","184.5","6.1739999999999995","174.9","1025.473","16.15","73.99","NAN","0.0"],
    [1545570,"2026-03-12 11:50:00","57326","2.569","185.6","4.867","172.2","1025.2830000000001","16.4","73.08","NAN","0.0"],
    [1545571,"2026-03-12 12:00:00","57327","2.6919999999999997","205.0","5.978","211.6","1025.177","16.23","72.38","NAN","0.0"],
    [1545572,"2026-03-12 12:10:00","57328","3.431","185.5","6.827000000000001","181.9","1025.047","16.13","71.6","NAN","0.0"],
    [1545573,"2026-03-12 12:20:00","57329","3.6860000000000004","176.3","6.0760000000000005","172.9","1024.84","15.63","74.67","NAN","0.0"],
    [1545574,"2026-03-12 12:30:00","57330","3.466","177.9","6.141","174.5","1024.646","15.61","75.95","NAN","0.0"],
    [1545575,"2026-03-12 12:40:00","57331","3.3510000000000004","182.5","5.1610000000000005","179.6","1024.496","15.43","77.64","NAN","0.0"],
    [1545576,"2026-03-12 12:50:00","57332","2.616","193.2","4.802","176.2","1024.322","15.88","76.78","NAN","0.0"],
    [1545577,"2026-03-12 13:00:00","57333","3.302","179.4","5.422999999999999","159.5","1024.1680000000001","15.72","77.54","NAN","0.0"],
    [1545578,"2026-03-12 13:10:00","57334","2.82","182.2","4.737","171.2","1023.9730000000001","15.76","78.19","NAN","0.0"],
    [1545579,"2026-03-12 13:20:00","57335","3.193","184.7","5.619","179.2","1023.8639999999999","16.07","75.1","NAN","0.0"],
    [1545580,"2026-03-12 13:30:00","57336","2.678","191.8","4.312","172.1","1023.757","16","76.19","NAN","0.0"],
    [1545581,"2026-03-12 13:40:00","57337","3.7539999999999996","175.2","5.782","173.9","1023.622","15.75","78.05","NAN","0.0"],
    [1545582,"2026-03-12 13:50:00","57338","3.6519999999999997","176.3","5.912999999999999","188.8","1023.53","15.6","79.36","NAN","0.0"],
    [1545583,"2026-03-12 14:00:00","57339","3.65","175.4","5.978","184.5","1023.42","15.78","78.41","NAN","0.0"],
    [1545584,"2026-03-12 14:10:00","57340","3.687","177.8","5.978","180.6","1023.2389999999999","15.77","78.49","NAN","0.0"],
    [1545585,"2026-03-12 14:20:00","57341","2.4330000000000003","183.5","4.835","154.6","1023.1460000000001","16.08","77.78","NAN","0.0"],
    [1545586,"2026-03-12 14:30:00","57342","2.967","177.9","5.847","183.5","1023.054","16.04","77.06","NAN","0.0"],
    [1545587,"2026-03-12 14:40:00","57343","3.5669999999999997","179.2","5.749","166.3","1022.9939999999999","15.49","80","NAN","0.0"],
    [1545588,"2026-03-12 14:50:00","57344","2.419","187.7","5.7170000000000005","171.1","1022.9169999999999","15.62","80.9","NAN","0.0"],
    [1545589,"2026-03-12 15:00:00","57345","2.668","177.2","4.508","178.6","1022.92","15.37","82.1","NAN","0.0"],
    [1545590,"2026-03-12 15:10:00","57346","2.512","184.7","4.965","176.6","1022.89","15.27","81","NAN","0.0"],
    [1545591,"2026-03-12 15:20:00","57347","3.1180000000000003","175.1","4.835","183.6","1022.671","15.02","82.3","NAN","0.0"],
    [1545592,"2026-03-12 15:30:00","57348","2.226","180.9","4.1160000000000005","172.3","1022.618","15.39","79.27","NAN","0.0"],
    [1545593,"2026-03-12 15:40:00","57349","2.978","171.9","4.4430000000000005","154.1","1022.6089999999999","15.17","78.9","NAN","0.0"],
    [1545594,"2026-03-12 15:50:00","57350","2.574","174.8","3.985","181.0","1022.5889999999999","15.18","76.01","NAN","0.0"],
    [1545595,"2026-03-12 16:00:00","57351","2.89","179.4","4.083","173.8","1022.5830000000001","14.97","74.29","NAN","0.0"],
    [1545596,"2026-03-12 16:10:00","57352","2.77","179.7","4.2139999999999995","177.3","1022.3989999999999","14.81","72.63","NAN","0.0"],
    [1545597,"2026-03-12 16:20:00","57353","1.45","199.7","3.5610000000000004","180.6","1022.242","15.13","69.47","NAN","0.0"],
    [1545598,"2026-03-12 16:30:00","57354","1.8969999999999998","194.9","3.0380000000000003","189.2","1022.173","15.29","67.26","NAN","0.0"],
    [1545599,"2026-03-12 16:40:00","57355","1.841","187.6","3.071","170.6","1022.263","15.15","67.62","NAN","0.0"],
    [1545600,"2026-03-12 16:50:00","57356","1.6969999999999998","194.4","3.005","184.7","1022.295","15.02","69.98","NAN","0.0"],
    [1545601,"2026-03-12 17:00:00","57357","1.726","205.8","3.0380000000000003","194.9","1022.3","15","71.34","NAN","0.0"],
    [1545602,"2026-03-12 17:10:00","57358","1.6059999999999999","220.8","3.495","194.0","1022.395","15.22","67.92","NAN","0.0"],
    [1545603,"2026-03-12 17:20:00","57359","1.6880000000000002","207.9","3.92","238.7","1022.422","14.99","68.74","NAN","0.0"],
    [1545604,"2026-03-12 17:30:00","57360","1.42","209.5","3.071","184.6","1022.3439999999999","14.89","70.85","NAN","0.0"],
    [1545605,"2026-03-12 17:40:00","57361","1.239","213.7","2.8089999999999997","218.0","1022.2869999999999","14.83","72.32","NAN","0.0"],
    [1545606,"2026-03-12 17:50:00","57362","1.22","204.9","3.0380000000000003","193.7","1022.288","14.8","72.58","NAN","0.0"],
    [1545607,"2026-03-12 18:00:00","57363","1.119","206.6","3.005","198.6","1022.2410000000001","14.69","74.1","NAN","0.0"],
    [1545608,"2026-03-12 18:10:00","57364","1.146","204.0","2.613","197.8","1022.189","14.69","74.94","NAN","0.0"],
    [1545609,"2026-03-12 18:20:00","57365","1.022","191.1","2.7110000000000003","207.3","1022.243","14.57","75.67","NAN","0.0"],
    [1545610,"2026-03-12 18:30:00","57366","0.737","228.2","2.613","241.7","1022.326","14.55","75.83","NAN","0.0"],
    [1545611,"2026-03-12 18:40:00","57367","1.171","242.2","3.201","257.1","1022.444","14.74","74.48","NAN","0.0"],
    [1545612,"2026-03-12 18:50:00","57368","0.8240000000000001","237.1","1.7309999999999999","225.7","1022.66","14.74","74.61","NAN","0.0"],
    [1545613,"2026-03-12 19:00:00","57369","1.22","230.0","3.1689999999999996","243.8","1022.717","14.59","75.8","NAN","0.0"],
    [1545614,"2026-03-12 19:10:00","57370","0.9","210.0","2.287","236.5","1022.7410000000001","14.51","76.66","NAN","0.0"],
    [1545615,"2026-03-12 19:20:00","57371","0.402","98.4","1.2409999999999999","116.5","1022.8539999999999","14.24","78.35","NAN","0.0"],
    [1545616,"2026-03-12 19:30:00","57372","0.9109999999999999","256.2","2.7439999999999998","235.1","1022.809","14.11","78.43","NAN","0.0"],
    [1545617,"2026-03-12 19:40:00","57373","1.167","221.1","2.319","237.5","1022.742","14.29","77.2","NAN","0.0"],
    [1545618,"2026-03-12 19:50:00","57374","0.9840000000000001","204.4","2.123","235.4","1022.743","14.23","77.44","NAN","0.0"],
    [1545619,"2026-03-12 20:00:00","57375","1.3119999999999998","194.8","2.352","198.8","1022.779","13.86","79.72","NAN","0.0"],
    [1545620,"2026-03-12 20:10:00","57376","0.792","197.4","1.699","193.8","1022.7919999999999","13.74","80.2","NAN","0.0"],
    [1545621,"2026-03-12 20:20:00","57377","0.493","215.1","1.4369999999999998","228.2","1022.742","13.69","79.79","NAN","0.0"],
    [1545622,"2026-03-12 20:30:00","57378","0.867","214.0","2.156","221.9","1022.755","13.81","78.71","NAN","0.0"],
    [1545623,"2026-03-12 20:40:00","57379","0.633","222.1","1.96","238.2","1022.742","13.88","77.41","NAN","0.0"],
    [1545624,"2026-03-12 20:50:00","57380","0.7170000000000001","238.9","2.0580000000000003","244.9","1022.742","13.96","76.94","NAN","0.0"],
    [1545625,"2026-03-12 21:00:00","57381","1.4669999999999999","245.0","2.45","253.8","1022.745","14.13","75.74","NAN","0.0"],
    [1545626,"2026-03-12 21:10:00","57382","1.068","234.5","2.156","251.0","1022.84","14.09","75.49","NAN","0.0"],
    [1545627,"2026-03-12 21:20:00","57383","1.227","241.0","2.156","249.0","1022.7819999999999","13.91","76.07","NAN","0.0"],
    [1545628,"2026-03-12 21:30:00","57384","1.2009999999999998","240.6","2.385","233.0","1022.76","13.9","76.14","NAN","0.0"],
    [1545629,"2026-03-12 21:40:00","57385","0.932","221.9","2.483","217.3","1022.862","13.79","77.88","NAN","0.0"],
    [1545630,"2026-03-12 21:50:00","57386","1.087","247.7","2.515","273.9","1022.872","13.88","80.6","NAN","0.0"],
    [1545631,"2026-03-12 22:00:00","57387","0.835","210.5","2.287","210.5","1022.9639999999999","13.83","82.1","NAN","0.0"],
    [1545632,"2026-03-12 22:10:00","57388","0.746","231.5","1.993","254.6","1022.9910000000001","13.64","84.6","NAN","0.0"],
    [1545633,"2026-03-12 22:20:00","57389","0.736","256.1","1.3719999999999999","269.9","1022.8989999999999","13.78","84.2","NAN","0.0"],
    [1545634,"2026-03-12 22:30:00","57390","0.215","204.2","0.8490000000000001","244.8","1022.867","13.7","84.4","NAN","0.0"],
    [1545635,"2026-03-12 22:40:00","57391","0.444","202.9","1.339","207.2","1022.745","13.4","86.2","NAN","0.0"],
    [1545636,"2026-03-12 22:50:00","57392","0.5529999999999999","209.6","1.5030000000000001","189.4","1022.74","13.35","86.5","NAN","0.0"],
    [1545637,"2026-03-12 23:00:00","57393","0.262","43.32","1.143","73.05","1022.705","13.24","86.5","NAN","0.0"],
    [1545638,"2026-03-12 23:10:00","57394","0.321","91.4","0.98","78.18","1022.697","13.18","87","NAN","0.0"],
    [1545639,"2026-03-12 23:20:00","57395","0.32299999999999995","18.54","0.784","10.4","1022.56","12.91","86","NAN","0.0"],
    [1545640,"2026-03-12 23:30:00","57396","0.608","23.84","1.111","36.88","1022.493","13.02","83.8","NAN","0.0"],
    [1545641,"2026-03-12 23:40:00","57397","0.434","30.24","1.045","34.72","1022.373","13.01","82.2","NAN","0.0"],
    [1545642,"2026-03-12 23:50:00","57398","0.8170000000000001","35.73","1.601","45.26","1022.2439999999999","12.95","82.2","NAN","0.0"],
    [1545643,"2026-03-13 00:00:00","57399","0.735","29.44","1.7309999999999999","34.13","1022.204","12.88","82.4","NAN","0.0"],
    [1545644,"2026-03-13 00:10:00","57400","0.5539999999999999","33.56","1.143","32.97","1022.1460000000001","12.91","82.4","NAN","0.0"],
    [1545645,"2026-03-13 00:20:00","57401","0.465","19.28","1.307","30.36","1022.072","12.74","83.4","NAN","0.0"],
    [1545646,"2026-03-13 00:30:00","57402","0.5720000000000001","19.82","1.568","6.636","1022.05","12.76","83.7","NAN","0.0"],
    [1545647,"2026-03-13 00:40:00","57403","1.179","12.91","1.8619999999999999","20.34","1022.053","12.68","84.1","NAN","0.0"],
    [1545648,"2026-03-13 00:50:00","57404","0.762","24.55","2.025","27.02","1022.0239999999999","12.51","84.8","NAN","0.0"],
    [1545649,"2026-03-13 01:00:00","57405","0.9109999999999999","30.19","1.797","23.49","1022.0169999999999","12.42","85.2","NAN","0.0"],
    [1545650,"2026-03-13 01:10:00","57406","0.795","17.86","1.699","32.75","1022.003","12.41","85.4","NAN","0.0"],
    [1545651,"2026-03-13 01:20:00","57407","0.922","11.69","1.7309999999999999","12.38","1021.8560000000001","12.37","85.5","NAN","0.0"],
    [1545652,"2026-03-13 01:30:00","57408","1.081","10.39","2.0909999999999997","32.04","1021.7689999999999","12.35","85.3","NAN","0.0"],
    [1545653,"2026-03-13 01:40:00","57409","0.852","24.04","1.535","14.16","1021.7080000000001","12.28","85.2","NAN","0.0"],
    [1545654,"2026-03-13 01:50:00","57410","1.173","12.58","2.352","10.31","1021.6439999999999","12.1","85.5","NAN","0.0"],
    [1545655,"2026-03-13 02:00:00","57411","0.764","26.93","1.895","6.249","1021.534","12.05","85.6","NAN","0.0"],
    [1545656,"2026-03-13 02:10:00","57412","1.093","17.51","2.254","10.49","1021.4060000000001","11.98","85.9","NAN","0.0"],
    [1545657,"2026-03-13 02:20:00","57413","1.212","11.54","1.9269999999999998","4.479","1021.25","12.01","85.5","NAN","0.0"],
    [1545658,"2026-03-13 02:30:00","57414","0.396","32.99","1.2409999999999999","66.57","1021.066","11.94","85.5","NAN","0.0"],
    [1545659,"2026-03-13 02:40:00","57415","1.081","21.58","2.548","8.42","1020.893","11.85","85.7","NAN","0.0"],
    [1545660,"2026-03-13 02:50:00","57416","0.8859999999999999","13.46","1.96","18.38","1020.797","11.84","85","NAN","0.0"],
    [1545661,"2026-03-13 03:00:00","57417","1.044","10.84","1.993","3.301","1020.773","11.76","85.1","NAN","0.0"],
    [1545662,"2026-03-13 03:10:00","57418","1.024","15.1","2.352","17.56","1020.5980000000001","11.72","84.8","NAN","0.0"],
    [1545663,"2026-03-13 03:20:00","57419","0.769","36.2","1.829","359.5","1020.466","11.55","84.9","NAN","0.0"],
    [1545664,"2026-03-13 03:30:00","57420","1.056","23.13","1.993","19.77","1020.3380000000001","11.4","85","NAN","0.0"],
    [1545665,"2026-03-13 03:40:00","57421","1.168","13.17","2.875","8.22","1020.312","11.45","84.1","NAN","0.0"],
    [1545666,"2026-03-13 03:50:00","57422","1.077","13.98","2.0909999999999997","19.71","1020.316","11.4","83.8","NAN","0.0"],
    [1545667,"2026-03-13 04:00:00","57423","0.696","34.18","1.666","19.44","1020.2260000000001","11.36","83.6","NAN","0.0"],
    [1545668,"2026-03-13 04:10:00","57424","0.7020000000000001","30.05","1.601","11.53","1020.048","11.21","83.9","NAN","0.0"],
    [1545669,"2026-03-13 04:20:00","57425","0.687","21.96","1.601","359.1","1019.998","11.2","83.7","NAN","0.0"],
    [1545670,"2026-03-13 04:30:00","57426","0.8059999999999999","13.21","1.8619999999999999","19.48","1019.946","11.22","82.8","NAN","0.0"],
    [1545671,"2026-03-13 04:40:00","57427","0.8740000000000001","11.26","1.993","20.89","1019.954","11.31","81.7","NAN","0.0"],
    [1545672,"2026-03-13 04:50:00","57428","0.606","28.05","1.339","10.47","1019.9630000000001","11.31","81.5","NAN","0.0"],
    [1545673,"2026-03-13 05:00:00","57429","0.7490000000000001","27.32","1.47","44.0","1019.9580000000001","11.26","81.7","NAN","0.0"],
    [1545674,"2026-03-13 05:10:00","57430","0.831","28.88","1.829","9.74","1020.035","11.3","81.6","NAN","0.0"],
    [1545675,"2026-03-13 05:20:00","57431","1.01","16.43","1.829","6.65","1020.063","11.4","81.4","NAN","0.0"],
    [1545676,"2026-03-13 05:30:00","57432","0.7759999999999999","19.91","1.7309999999999999","11.82","1020.07","11.52","80.9","NAN","0.0"],
    [1545677,"2026-03-13 05:40:00","57433","0.7120000000000001","8.86","1.47","12.29","1020.053","11.41","81","NAN","0.0"],
    [1545678,"2026-03-13 05:50:00","57434","0.695","4.609","1.3719999999999999","8.51","1020.117","11.43","80.4","NAN","0.0"],
    [1545679,"2026-03-13 06:00:00","57435","0.643","8.31","1.4369999999999998","14.12","1020.2130000000001","11.57","79.82","NAN","0.0"],
    [1545680,"2026-03-13 06:10:00","57436","0.552","12.11","1.307","20.61","1020.186","11.57","79.6","NAN","0.0"],
    [1545681,"2026-03-13 06:20:00","57437","1.067","19.64","1.993","22.0","1020.0980000000001","11.51","79.88","NAN","0.0"],
    [1545682,"2026-03-13 06:30:00","57438","1.351","14.15","2.221","10.67","1020.04","11.41","80.1","NAN","0.0"],
    [1545683,"2026-03-13 06:40:00","57439","1.456","11.18","2.352","12.42","1020.025","11.37","80.5","NAN","0.0"],
    [1545684,"2026-03-13 06:50:00","57440","0.857","11.35","2.156","7.403","1020.018","11.45","80.4","NAN","0.0"],
    [1545685,"2026-03-13 07:00:00","57441","1.057","8.39","2.0909999999999997","4.06","1020.044","11.55","79.96","NAN","0.0"],
    [1545686,"2026-03-13 07:10:00","57442","1.159","17.37","2.613","17.08","1020.1260000000001","11.53","80.1","NAN","0.0"],
    [1545687,"2026-03-13 07:20:00","57443","0.687","15.5","1.797","26.42","1020.1610000000001","11.61","83","NAN","0.0"],
    [1545688,"2026-03-13 07:30:00","57444","0.935","42.18","1.993","16.67","1020.217","11.69","84.5","NAN","0.0"],
    [1545689,"2026-03-13 07:40:00","57445","0.74","28.29","2.156","5.117","1020.2389999999999","11.88","83.1","NAN","0.0"],
    [1545690,"2026-03-13 07:50:00","57446","1.2590000000000001","49.69","1.993","49.57","1020.2510000000001","12.03","81.6","NAN","0.0"],
    [1545691,"2026-03-13 08:00:00","57447","1.255","45.17","1.993","57.98","1020.2639999999999","12.24","80.5","NAN","0.0"],
    [1545692,"2026-03-13 08:10:00","57448","0.828","48.75","1.797","54.61","1020.368","12.68","79.4","NAN","0.0"],
    [1545693,"2026-03-13 08:20:00","57449","0.917","1.196","1.699","7.818","1020.332","12.87","79.7","NAN","0.0"],
    [1545694,"2026-03-13 08:30:00","57450","0.428","8.82","1.2409999999999999","326.2","1020.309","13.05","81.3","NAN","0.0"],
    [1545695,"2026-03-13 08:40:00","57451","0.628","23.75","1.209","57.52","1020.2919999999999","13.2","80.8","NAN","0.0"],
    [1545696,"2026-03-13 08:50:00","57452","0.5920000000000001","15.63","1.5030000000000001","51.11","1020.302","13.27","80.4","NAN","0.0"],
    [1545697,"2026-03-13 09:00:00","57453","0.631","76.45","2.025","35.43","1020.312","13.2","80.4","NAN","0.0"],
    [1545698,"2026-03-13 09:10:00","57454","0.6759999999999999","346.8","1.699","306.8","1020.315","13.39","80.1","NAN","0.0"],
    [1545699,"2026-03-13 09:20:00","57455","0.6809999999999999","350.5","1.307","7.432","1020.312","13.68","78.64","NAN","0.0"],
    [1545700,"2026-03-13 09:30:00","57456","0.485","86.8","1.045","276.8","1020.2819999999999","13.98","77.03","NAN","0.0"],
    [1545701,"2026-03-13 09:40:00","57457","0.529","191.0","1.111","183.4","1020.18","14.38","75.37","NAN","0.0"],
    [1545702,"2026-03-13 09:50:00","57458","0.753","96.8","1.797","111.8","1020.09","15.08","72.6","NAN","0.0"],
    [1545703,"2026-03-13 10:00:00","57459","1.444","107.0","2.548","110.6","1020.073","14.93","72.34","NAN","0.0"],
    [1545704,"2026-03-13 10:10:00","57460","1.252","97.3","2.221","117.0","1020.0110000000001","15.21","71.23","NAN","0.0"],
    [1545705,"2026-03-13 10:20:00","57461","1.413","127.1","2.875","110.3","1019.934","15.02","72.04","NAN","0.0"],
    [1545706,"2026-03-13 10:30:00","57462","1.3730000000000002","122.1","2.5810000000000004","132.6","1019.824","15.31","70.62","NAN","0.0"],
    [1545707,"2026-03-13 10:40:00","57463","1.463","130.6","2.679","100.6","1019.692","15.26","71.05","NAN","0.0"],
    [1545708,"2026-03-13 10:50:00","57464","1.83","127.5","3.071","121.6","1019.597","14.85","72.81","NAN","0.0"],
    [1545709,"2026-03-13 11:00:00","57465","1.8730000000000002","120.4","3.332","103.7","1019.455","14.9","73.21","NAN","0.0"],
    [1545710,"2026-03-13 11:10:00","57466","1.621","131.4","3.071","140.4","1019.393","14.94","72.6","NAN","0.0"],
    [1545711,"2026-03-13 11:20:00","57467","1.742","115.4","3.136","107.7","1019.273","14.88","73.78","NAN","0.0"],
    [1545712,"2026-03-13 11:30:00","57468","1.761","129.7","3.005","168.3","1019.186","15.12","72.66","NAN","0.0"],
    [1545713,"2026-03-13 11:40:00","57469","2.025","130.7","3.365","146.9","1019.059","14.95","73.65","NAN","0.0"],
    [1545714,"2026-03-13 11:50:00","57470","2.023","127.3","3.332","125.1","1018.93","14.96","73.91","NAN","0.0"],
    [1545715,"2026-03-13 12:00:00","57471","1.986","133.4","3.7569999999999997","147.6","1018.795","14.96","74.31","NAN","0.0"],
    [1545716,"2026-03-13 12:10:00","57472","2.005","130.3","3.267","112.9","1018.5880000000001","15.23","73.38","NAN","0.0"],
    [1545717,"2026-03-13 12:20:00","57473","2.032","144.4","3.593","155.2","1018.352","15.15","74.19","NAN","0.0"],
    [1545718,"2026-03-13 12:30:00","57474","2.126","179.9","3.92","162.9","1018.1419999999999","15.24","73.25","NAN","0.0"],
    [1545719,"2026-03-13 12:40:00","57475","2.438","178.2","3.855","178.0","1018.0160000000001","15.12","73.15","NAN","0.0"],
    [1545720,"2026-03-13 12:50:00","57476","2.419","179.7","3.7239999999999998","157.6","1017.8660000000001","14.85","75.04","NAN","0.0"],
    [1545721,"2026-03-13 13:00:00","57477","2.799","172.7","4.083","179.8","1017.679","14.92","74.85","NAN","0.0"],
    [1545722,"2026-03-13 13:10:00","57478","2.891","172.3","4.083","156.2","1017.4630000000001","14.88","75.77","NAN","0.0"],
    [1545723,"2026-03-13 13:20:00","57479","2.483","172.7","3.9530000000000003","153.1","1017.2710000000001","15.11","75.48","NAN","0.0"],
    [1545724,"2026-03-13 13:30:00","57480","2.641","175.5","3.92","181.5","1017.1039999999999","15.09","75.91","NAN","0.0"],
    [1545725,"2026-03-13 13:40:00","57481","3.057","178.8","4.508","181.3","1016.94","14.84","77.12","NAN","0.0"],
    [1545726,"2026-03-13 13:50:00","57482","2.878","178.9","4.312","177.5","1016.76","14.89","77.76","NAN","0.0"],
    [1545727,"2026-03-13 14:00:00","57483","2.8169999999999997","178.8","4.508","174.1","1016.556","14.95","77.95","NAN","0.0"],
    [1545728,"2026-03-13 14:10:00","57484","2.787","179.8","4.2139999999999995","183.1","1016.3739999999999","14.87","78.77","NAN","0.0"],
    [1545729,"2026-03-13 14:20:00","57485","2.806","177.6","4.1160000000000005","181.7","1016.193","14.92","78.88","NAN","0.0"],
    [1545730,"2026-03-13 14:30:00","57486","2.9610000000000003","171.5","4.312","152.2","1016.102","14.86","79.38","NAN","0.0"],
    [1545731,"2026-03-13 14:40:00","57487","3.056","178.6","4.475","164.5","1015.936","14.96","79.63","NAN","0.0"],
    [1545732,"2026-03-13 14:50:00","57488","3.3369999999999997","178.7","4.769","175.3","1015.7339999999999","14.77","80.7","NAN","0.0"],
    [1545733,"2026-03-13 15:00:00","57489","3.013","178.5","4.1160000000000005","177.4","1015.582","14.69","81.3","NAN","0.0"],
    [1545734,"2026-03-13 15:10:00","57490","2.8689999999999998","170.2","4.051","175.7","1015.44","14.94","80.6","NAN","0.0"],
    [1545735,"2026-03-13 15:20:00","57491","3.0869999999999997","172.4","4.541","169.7","1015.2360000000001","15.05","80.3","NAN","0.0"],
    [1545736,"2026-03-13 15:30:00","57492","2.8310000000000004","173.5","4.377","183.8","1015.1460000000001","14.94","81.5","NAN","0.0"],
    [1545737,"2026-03-13 15:40:00","57493","2.6210000000000004","177.4","4.279","175.4","1014.992","15.09","81.2","NAN","0.0"],
    [1545738,"2026-03-13 15:50:00","57494","2.371","180.3","4.737","175.7","1014.84","15.22","81","NAN","0.0"],
    [1545739,"2026-03-13 16:00:00","57495","3.0389999999999997","172.8","4.181","175.7","1014.69","15.06","81.8","NAN","0.0"],
    [1545740,"2026-03-13 16:10:00","57496","3.09","173.7","4.279","164.8","1014.454","14.79","84.2","NAN","0.0"],
    [1545741,"2026-03-13 16:20:00","57497","2.945","174.7","4.377","176.6","1014.322","14.83","84.9","NAN","0.0"],
    [1545742,"2026-03-13 16:30:00","57498","3.162","176.3","4.638999999999999","175.9","1014.24","14.86","85.4","NAN","0.0"],
    [1545743,"2026-03-13 16:40:00","57499","2.855","173.0","4.4430000000000005","179.5","1014.207","15.01","84.6","NAN","0.0"],
    [1545744,"2026-03-13 16:50:00","57500","2.356","186.3","3.9530000000000003","218.2","1014.188","15.21","81.8","NAN","0.0"],
    [1545745,"2026-03-13 17:00:00","57501","2.459","201.4","3.855","194.7","1013.993","15.52","77.21","NAN","0.0"],
    [1545746,"2026-03-13 17:10:00","57502","2.036","213.4","4.475","198.9","1013.9730000000001","15.24","79.59","NAN","0.0"],
    [1545747,"2026-03-13 17:20:00","57503","2.064","213.8","4.018","237.2","1013.933","15.21","79.59","NAN","0.0"],
    [1545748,"2026-03-13 17:30:00","57504","1.147","213.8","2.8089999999999997","200.6","1013.789","15","81","NAN","0.0"],
    [1545749,"2026-03-13 17:40:00","57505","1.712","209.2","3.332","240.9","1013.679","14.89","82","NAN","0.0"],
    [1545750,"2026-03-13 17:50:00","57506","2.25","223.5","4.312","229.8","1013.585","14.73","82.6","NAN","0.0"],
    [1545751,"2026-03-13 18:00:00","57507","1.963","224.8","4.181","222.8","1013.572","14.61","83.1","NAN","0.0"],
    [1545752,"2026-03-13 18:10:00","57508","1.068","223.6","2.94","261.2","1013.4989999999999","14.57","83.7","NAN","0.0"],
    [1545753,"2026-03-13 18:20:00","57509","1.7009999999999998","224.5","3.92","229.1","1013.455","14.47","84.8","NAN","0.0"],
    [1545754,"2026-03-13 18:30:00","57510","1.5630000000000002","228.6","3.43","237.1","1013.375","14.37","85.6","NAN","0.0"],
    [1545755,"2026-03-13 18:40:00","57511","1.395","217.0","3.299","225.8","1013.3560000000001","14.31","86.1","NAN","0.0"],
    [1545756,"2026-03-13 18:50:00","57512","1.218","210.5","3.071","236.1","1013.177","14.2","86.7","NAN","0.0"],
    [1545757,"2026-03-13 19:00:00","57513","1.314","225.8","3.234","247.5","1013.0010000000001","14.17","87","NAN","0.0"],
    [1545758,"2026-03-13 19:10:00","57514","1.225","227.0","2.613","234.2","1012.7460000000001","14.24","86.2","NAN","0.0"],
    [1545759,"2026-03-13 19:20:00","57515","0.826","236.1","2.515","234.1","1012.5310000000001","14.17","86.4","NAN","0.0"],
    [1545760,"2026-03-13 19:30:00","57516","1.229","240.8","3.103","244.7","1012.4060000000001","14.18","86.5","NAN","0.0"],
    [1545761,"2026-03-13 19:40:00","57517","1.301","225.8","2.94","236.1","1012.395","14.13","86.7","NAN","0.0"],
    [1545762,"2026-03-13 19:50:00","57518","1.5819999999999999","241.3","3.299","226.6","1012.404","14.07","86.9","NAN","0.0"],
    [1545763,"2026-03-13 20:00:00","57519","1.7109999999999999","241.8","3.299","234.4","1012.3639999999999","14.11","86.2","NAN","0.0"],
    [1545764,"2026-03-13 20:10:00","57520","1.351","235.4","3.267","240.6","1012.2819999999999","14.07","85.9","NAN","0.0"],
    [1545765,"2026-03-13 20:20:00","57521","1.25","212.9","2.548","179.2","1012.194","14","85.9","NAN","0.0"],
    [1545766,"2026-03-13 20:30:00","57522","1.158","215.0","2.8089999999999997","224.1","1012.172","13.91","85.7","NAN","0.0"],
    [1545767,"2026-03-13 20:40:00","57523","1.1179999999999999","220.5","2.483","244.0","1012.16","13.94","84.7","NAN","0.0"],
    [1545768,"2026-03-13 20:50:00","57524","0.6729999999999999","226.7","1.9269999999999998","228.0","1012.107","13.99","84","NAN","0.0"],
    [1545769,"2026-03-13 21:00:00","57525","1.043","213.3","2.515","213.0","1011.948","13.94","83.7","NAN","0.0"],
    [1545770,"2026-03-13 21:10:00","57526","1.038","210.8","2.7110000000000003","236.6","1011.7810000000001","13.97","85.1","NAN","0.0"],
    [1545771,"2026-03-13 21:20:00","57527","0.938","219.8","2.6460000000000004","211.5","1011.779","13.93","85.6","NAN","0.0"],
    [1545772,"2026-03-13 21:30:00","57528","1.26","208.5","3.43","209.5","1011.6469999999999","13.92","86.4","NAN","0.0"],
    [1545773,"2026-03-13 21:40:00","57529","1.45","215.6","3.071","210.1","1011.597","13.83","87.3","NAN","0.0"],
    [1545774,"2026-03-13 21:50:00","57530","1.2","214.4","3.332","219.6","1011.42","13.74","87.8","NAN","0.0"],
    [1545775,"2026-03-13 22:00:00","57531","1.484","216.0","3.267","214.4","1011.2860000000001","13.62","88.7","NAN","0.0"],
    [1545776,"2026-03-13 22:10:00","57532","1.0759999999999998","222.7","2.417","239.8","1011.2810000000001","13.57","88.9","NAN","0.0"],
    [1545777,"2026-03-13 22:20:00","57533","1.121","227.3","3.0380000000000003","245.9","1011.2810000000001","13.62","88.7","NAN","0.0"],
    [1545778,"2026-03-13 22:30:00","57534","1.1440000000000001","241.7","3.495","233.6","1011.248","13.68","88.5","NAN","0.0"],
    [1545779,"2026-03-13 22:40:00","57535","1.31","240.2","3.887","255.2","1011.076","13.76","87.5","NAN","0.0"],
    [1545780,"2026-03-13 22:50:00","57536","1.361","221.9","3.1689999999999996","226.5","1010.789","13.85","86.3","NAN","0.0"],
    [1545781,"2026-03-13 23:00:00","57537","1.311","230.5","3.365","215.1","1010.5260000000001","13.81","85.2","NAN","0.0"],
    [1545782,"2026-03-13 23:10:00","57538","1.0","225.2","3.201","237.7","1010.5160000000001","13.97","83","NAN","0.0"],
    [1545783,"2026-03-13 23:20:00","57539","1.124","237.0","2.6460000000000004","257.8","1010.27","13.9","83.7","NAN","0.0"],
    [1545784,"2026-03-13 23:30:00","57540","0.8640000000000001","241.0","2.287","256.0","1010.056","13.94","83.6","NAN","0.0"],
    [1545785,"2026-03-13 23:40:00","57541","0.626","243.0","1.8619999999999999","249.3","1009.753","13.91","83.5","NAN","0.0"],
    [1545786,"2026-03-13 23:50:00","57542","0.809","184.2","1.3719999999999999","167.7","1009.551","13.86","83.9","NAN","0.0"],
    [1545787,"2026-03-14 00:00:00","57543","0.521","189.1","1.111","169.4","1009.3580000000001","13.65","85.2","NAN","0.0"],
    [1545788,"2026-03-14 00:10:00","57544","0.13699999999999998","147.7","0.588","137.9","1009.195","13.56","85","NAN","0.0"],
    [1545789,"2026-03-14 00:20:00","57545","0.402","140.3","0.9470000000000001","200.7","1008.8710000000001","13.47","85.1","NAN","0.0"],
    [1545790,"2026-03-14 00:30:00","57546","0.23600000000000002","50.32","1.2409999999999999","45.13","1008.615","13.41","85.2","NAN","0.0"],
    [1545791,"2026-03-14 00:40:00","57547","0.613","55.51","1.2409999999999999","39.43","1008.368","13.49","84.9","NAN","0.0"],
    [1545792,"2026-03-14 00:50:00","57548","0.43","111.3","1.045","82.0","1008.2330000000001","13.51","84.8","NAN","0.0"],
    [1545793,"2026-03-14 01:00:00","57549","1.186","140.4","1.993","133.3","1007.925","13.53","85.6","NAN","0.0"],
    [1545794,"2026-03-14 01:10:00","57550","1.147","176.9","2.515","175.3","1007.76","13.54","87.5","NAN","0.0"],
    [1545795,"2026-03-14 01:20:00","57551","1.035","207.5","2.352","205.4","1007.566","13.62","86.8","NAN","0.0"],
    [1545796,"2026-03-14 01:30:00","57552","0.9209999999999999","208.1","3.7569999999999997","186.3","1007.319","13.62","85","NAN","0.0"],
    [1545797,"2026-03-14 01:40:00","57553","1.919","230.6","4.606","226.1","1007.202","13.75","85.6","NAN","0.0"],
    [1545798,"2026-03-14 01:50:00","57554","1.869","235.5","3.593","251.0","1006.953","13.77","85.8","NAN","0.0"],
    [1545799,"2026-03-14 02:00:00","57555","1.178","227.7","3.0380000000000003","239.8","1006.7189999999999","13.68","85.9","NAN","0.0"],
    [1545800,"2026-03-14 02:10:00","57556","0.162","234.6","1.2409999999999999","150.7","1006.427","13.58","86.8","NAN","0.0"],
    [1545801,"2026-03-14 02:20:00","57557","0.8059999999999999","225.0","2.189","232.8","1006.291","13.5","88.5","NAN","0.0"],
    [1545802,"2026-03-14 02:30:00","57558","0.898","249.6","3.005","235.6","1006.196","13.51","89.9","NAN","0.0"],
    [1545803,"2026-03-14 02:40:00","57559","1.078","248.7","2.94","231.8","1006.054","13.53","90.6","NAN","0.0"],
    [1545804,"2026-03-14 02:50:00","57560","1.149","228.2","2.7110000000000003","248.0","1005.837","13.5","91.4","NAN","0.0"],
    [1545805,"2026-03-14 03:00:00","57561","0.56","227.3","1.633","256.3","1005.5980000000001","13.45","92","NAN","0.0"],
    [1545806,"2026-03-14 03:10:00","57562","0.728","237.0","1.633","223.9","1005.436","13.38","92.4","NAN","0.0"],
    [1545807,"2026-03-14 03:20:00","57563","0.93","237.5","2.417","264.0","1005.296","13.41","92.2","NAN","0.0"],
    [1545808,"2026-03-14 03:30:00","57564","0.505","269.8","1.3719999999999999","289.9","1005.164","13.37","91.9","NAN","0.0"],
    [1545809,"2026-03-14 03:40:00","57565","0.8140000000000001","283.2","1.666","254.1","1005.059","13.39","90.7","NAN","0.0"],
    [1545810,"2026-03-14 03:50:00","57566","0.541","244.8","1.7309999999999999","230.1","1004.8760000000001","13.43","89.4","NAN","0.0"],
    [1545811,"2026-03-14 04:00:00","57567","0.385","205.2","1.3719999999999999","235.6","1004.699","13.38","89.2","NAN","0.0"],
    [1545812,"2026-03-14 04:10:00","57568","0.0","0.0","0.0","0.0","1004.597","13.26","89.7","NAN","0.0"],
    [1545813,"2026-03-14 04:20:00","57569","0.444","46.5","1.143","51.43","1004.4810000000001","13.14","90.2","NAN","0.0"],
    [1545814,"2026-03-14 04:30:00","57570","0.467","45.21","1.078","47.44","1004.454","13.06","89.5","NAN","0.0"],
    [1545815,"2026-03-14 04:40:00","57571","0.733","58.06","1.209","59.15","1004.39","12.98","88.4","NAN","0.0"],
    [1545816,"2026-03-14 04:50:00","57572","0.134","54.59","0.6859999999999999","44.92","1004.425","12.88","87.5","NAN","0.0"],
    [1545817,"2026-03-14 05:00:00","57573","0.0","0.0","0.0","0.0","1004.413","12.86","87.5","NAN","0.0"],
    [1545818,"2026-03-14 05:10:00","57574","0.16699999999999998","159.1","0.653","180.9","1004.31","12.9","87.8","NAN","0.0"],
    [1545819,"2026-03-14 05:20:00","57575","0.19699999999999998","150.7","0.555","149.7","1004.304","12.92","88.3","NAN","0.0"],
    [1545820,"2026-03-14 05:30:00","57576","0.19699999999999998","161.4","0.915","277.1","1004.2710000000001","12.98","89.2","NAN","0.0"],
    [1545821,"2026-03-14 05:40:00","57577","0.623","225.4","1.2409999999999999","181.6","1004.2080000000001","13.03","86.6","NAN","0.0"],
    [1545822,"2026-03-14 05:50:00","57578","0.688","195.5","1.601","194.6","1004.196","13.34","83.2","NAN","0.0"],
    [1545823,"2026-03-14 06:00:00","57579","0.484","217.8","1.274","226.0","1004.278","13.33","83.5","NAN","0.0"],
    [1545824,"2026-03-14 06:10:00","57580","0.898","212.0","2.254","226.1","1004.443","13.35","83.6","NAN","0.0"],
    [1545825,"2026-03-14 06:20:00","57581","0.147","126.5","0.8490000000000001","169.3","1004.363","13.22","85.7","NAN","0.0"],
    [1545826,"2026-03-14 06:30:00","57582","0.379","354.5","0.9470000000000001","298.9","1004.352","13.18","86.9","NAN","0.0"],
    [1545827,"2026-03-14 06:40:00","57583","0.205","172.4","0.915","173.5","1004.403","13.41","85.4","NAN","0.0"],
    [1545828,"2026-03-14 06:50:00","57584","0.433","106.3","1.111","77.24","1004.4839999999999","13.43","85.8","NAN","0.0"],
    [1545829,"2026-03-14 07:00:00","57585","0.226","66.41","0.8170000000000001","67.32","1004.55","13.4","87.9","NAN","0.1"],
    [1545830,"2026-03-14 07:10:00","57586","0.767","27.58","2.45","25.21","1004.431","13.35","88.5","NAN","0.1"],
    [1545831,"2026-03-14 07:20:00","57587","1.3030000000000002","19.25","3.201","8.46","1004.462","13.19","89.7","NAN","0.2"],
    [1545832,"2026-03-14 07:30:00","57588","1.156","31.05","2.287","14.37","1004.585","12.57","87.8","NAN","0.3"],
    [1545833,"2026-03-14 07:40:00","57589","0.08199999999999999","53.25","0.98","80.3","1004.682","12.45","89.4","NAN","0.5"],
    [1545834,"2026-03-14 07:50:00","57590","0.748","52.98","1.568","63.15","1004.694","12.49","92.4","NAN","0.7"],
    [1545835,"2026-03-14 08:00:00","57591","1.473","74.67","3.071","68.94","1004.6210000000001","12.54","94.8","NAN","0.9"],
    [1545836,"2026-03-14 08:10:00","57592","1.2009999999999998","68.56","3.005","69.15","1004.443","12.57","96.2","NAN","0.5"],
    [1545837,"2026-03-14 08:20:00","57593","0.7959999999999999","96.9","2.123","101.0","1004.46","12.6","96.5","NAN","0.3"],
    [1545838,"2026-03-14 08:30:00","57594","0.635","113.0","2.025","119.5","1004.505","12.46","95.2","NAN","0.2"],
    [1545839,"2026-03-14 08:40:00","57595","0.37200000000000005","159.2","1.045","171.7","1004.565","12.61","94.3","NAN","0.2"],
    [1545840,"2026-03-14 08:50:00","57596","0.384","148.7","1.3719999999999999","141.8","1004.5319999999999","12.66","93.9","NAN","0.1"],
    [1545841,"2026-03-14 09:00:00","57597","0.503","169.8","1.764","164.4","1004.465","12.73","93.3","NAN","0.1"],
    [1545842,"2026-03-14 09:10:00","57598","1.382","182.3","2.7110000000000003","193.6","1004.328","12.76","93.1","NAN","0.1"],
    [1545843,"2026-03-14 09:20:00","57599","1.393","194.0","2.515","203.2","1004.306","12.66","93.1","NAN","0.1"],
    [1545844,"2026-03-14 09:30:00","57600","0.8390000000000001","176.3","1.96","174.4","1004.211","12.7","93.2","NAN","0.1"],
    [1545845,"2026-03-14 09:40:00","57601","0.6920000000000001","183.3","1.829","181.6","1004.2860000000001","12.77","92.7","NAN","0.2"],
    [1545846,"2026-03-14 09:50:00","57602","0.33299999999999996","149.4","1.143","190.8","1004.186","12.76","92.1","NAN","0.0"],
    [1545847,"2026-03-14 10:00:00","57603","0.07400000000000001","132.4","0.8490000000000001","141.2","1004.181","12.95","91.6","NAN","0.1"],
    [1545848,"2026-03-14 10:10:00","57604","0.015","154.9","0.621","149.7","1004.1410000000001","12.98","91.7","NAN","0.1"],
    [1545849,"2026-03-14 10:20:00","57605","1.2919999999999998","148.8","3.7569999999999997","131.2","1004.073","12.97","91.9","NAN","0.1"],
    [1545850,"2026-03-14 10:30:00","57606","2.269","130.7","5.292000000000001","74.73","1004.058","12.67","93.9","NAN","0.1"],
    [1545851,"2026-03-14 10:40:00","57607","3.0860000000000003","78.5","6.337000000000001","77.91","1004.206","11.52","92.5","NAN","0.3"],
    [1545852,"2026-03-14 10:50:00","57608","1.271","30.22","3.136","74.45","1004.4","10.86","95.1","NAN","3.6"],
    [1545853,"2026-03-14 11:00:00","57609","3.4419999999999997","82.8","6.501","81.4","1004.41","10.35","98.3","NAN","3.4"],
    [1545854,"2026-03-14 11:10:00","57610","1.986","62.57","4.606","84.3","1004.52","10.22","99.8","NAN","0.6"],
    [1545855,"2026-03-14 11:20:00","57611","2.4330000000000003","82.1","4.279","86.7","1004.668","10.17","99.9","NAN","0.8"],
    [1545856,"2026-03-14 11:30:00","57612","3.489","108.7","6.435","100.8","1004.552","10.1","99.9","NAN","0.4"],
    [1545857,"2026-03-14 11:40:00","57613","3.008","92.3","5.4879999999999995","93.5","1004.395","10.1","99.9","NAN","0.1"],
    [1545858,"2026-03-14 11:50:00","57614","2.807","94.7","6.697","108.5","1004.3610000000001","10.26","99.7","NAN","0.1"],
    [1545859,"2026-03-14 12:00:00","57615","3.412","94.8","6.37","99.6","1004.416","10.11","98.6","NAN","0.1"],
    [1545860,"2026-03-14 12:10:00","57616","3.3989999999999996","84.2","6.729","76.19","1004.427","9.9","97.1","NAN","0.2"],
    [1545861,"2026-03-14 12:20:00","57617","2.863","91.2","6.239","73.28","1004.487","9.77","95.5","NAN","0.2"],
    [1545862,"2026-03-14 12:30:00","57618","2.972","85.4","6.109","102.1","1004.408","9.82","94.5","NAN","0.1"],
    [1545863,"2026-03-14 12:40:00","57619","2.832","95.8","6.305","125.7","1004.362","9.81","93.2","NAN","0.0"],
    [1545864,"2026-03-14 12:50:00","57620","2.0340000000000003","91.3","4.508","79.75","1004.346","9.95","91.3","NAN","0.0"],
    [1545865,"2026-03-14 13:00:00","57621","1.6380000000000001","89.5","3.7239999999999998","68.49","1004.2439999999999","10.23","91","NAN","0.0"],
    [1545866,"2026-03-14 13:10:00","57622","2.237","95.2","5.194","89.3","1004.192","10.31","90.4","NAN","0.0"],
    [1545867,"2026-03-14 13:20:00","57623","2.515","101.1","5.096","92.1","1004.02","10.29","90.2","NAN","0.0"],
    [1545868,"2026-03-14 13:30:00","57624","2.576","103.5","5.782","104.0","1003.78","10.24","89.2","NAN","0.0"],
    [1545869,"2026-03-14 13:40:00","57625","2.535","122.8","5.619","110.9","1003.57","10.31","86.5","NAN","0.0"],
    [1545870,"2026-03-14 13:50:00","57626","2.841","119.0","4.769","108.2","1003.559","10.28","85.2","NAN","0.0"],
    [1545871,"2026-03-14 14:00:00","57627","2.324","119.5","4.737","115.5","1003.75","10.26","84.4","NAN","0.0"],
    [1545872,"2026-03-14 14:10:00","57628","2.17","115.0","4.4430000000000005","152.5","1003.831","10.24","84.7","NAN","0.0"],
    [1545873,"2026-03-14 14:20:00","57629","1.875","79.29","4.541","77.01","1004.2560000000001","10.16","86","NAN","0.1"],
    [1545874,"2026-03-14 14:30:00","57630","2.822","127.9","6.042999999999999","109.0","1003.898","9.88","87","NAN","0.4"],
    [1545875,"2026-03-14 14:40:00","57631","1.358","214.1","3.985","185.4","1004.192","9.67","89.4","NAN","0.8"],
    [1545876,"2026-03-14 14:50:00","57632","1.6540000000000001","66.51","5.227","97.9","1004.368","9.6","91.6","NAN","0.3"],
    [1545877,"2026-03-14 15:00:00","57633","2.997","125.5","5.2589999999999995","119.4","1003.88","9.47","91.2","NAN","0.3"],
    [1545878,"2026-03-14 15:10:00","57634","2.555","112.4","4.769","89.8","1003.753","9.69","89.6","NAN","0.1"],
    [1545879,"2026-03-14 15:20:00","57635","2.226","111.5","4.671","103.8","1003.8580000000001","10.06","84.9","NAN","0.1"],
    [1545880,"2026-03-14 15:30:00","57636","2.372","105.7","4.802","92.4","1003.898","10.25","80.8","NAN","0.0"],
    [1545881,"2026-03-14 15:40:00","57637","2.443","96.6","5.88","70.2","1003.933","10.31","79.15","NAN","0.0"],
    [1545882,"2026-03-14 15:50:00","57638","2.827","88.8","5.455","71.03","1003.918","10.21","78.52","NAN","0.0"],
    [1545883,"2026-03-14 16:00:00","57639","2.6510000000000002","86.8","5.129","81.2","1003.7869999999999","10.05","80.1","NAN","0.0"],
    [1545884,"2026-03-14 16:10:00","57640","2.6910000000000003","88.5","5.227","98.1","1003.791","9.91","83.1","NAN","0.0"],
    [1545885,"2026-03-14 16:20:00","57641","2.344","73.57","4.737","67.4","1003.925","9.77","82.7","NAN","0.1"],
    [1545886,"2026-03-14 16:30:00","57642","2.6489999999999996","77.97","5.292000000000001","61.71","1004.046","9.53","82.1","NAN","0.8"],
    [1545887,"2026-03-14 16:40:00","57643","2.36","83.2","5.194","96.2","1004.404","9.21","89.3","NAN","0.5"],
    [1545888,"2026-03-14 16:50:00","57644","2.747","74.26","4.671","91.9","1004.678","8.95","90.1","NAN","0.6"],
    [1545889,"2026-03-14 17:00:00","57645","1.771","54.2","3.92","78.88","1004.86","8.85","91.1","NAN","0.6"],
    [1545890,"2026-03-14 17:10:00","57646","1.8430000000000002","68.73","4.2139999999999995","103.8","1005.79","29.72","108.4","NAN","1.0"],
    [1545891,"2026-03-14 17:20:00","57647","1.8780000000000001","85.1","4.149","54.45","1006.9960000000001","38.53","118","NAN","0.5"],
    [1545892,"2026-03-14 17:30:00","57648","1.547","47.63","4.312","65.72","1004.808","8.91","93.8","NAN","0.8"],
    [1545893,"2026-03-14 17:40:00","57649","1.463","53.09","3.397","85.5","1004.7819999999999","8.8","95.6","NAN","1.1"],
    [1545894,"2026-03-14 17:50:00","57650","0.293","43.92","1.895","58.66","1004.53","8.58","96","NAN","0.6"],
    [1545895,"2026-03-14 18:00:00","57651","1.003","210.6","2.156","177.3","1004.352","8.69","95.5","NAN","0.3"],
    [1545896,"2026-03-14 18:10:00","57652","1.192","254.5","2.548","239.9","1004.805","9.04","93.5","NAN","0.6"],
    [1545897,"2026-03-14 18:20:00","57653","2.85","230.7","8.92","277.7","1004.535","NAN","NAN","NAN","1.0"],
    [1545898,"2026-03-14 18:30:00","57654","2.6639999999999997","258.9","7.056","263.0","1005.575","NAN","NAN","NAN","1.1"],
    [1545899,"2026-03-14 18:40:00","57655","2.74","0.0","6.337000000000001","262.9","1003.6489999999999","53.05","118.6","NAN","2.7"],
    [1545900,"2026-03-14 18:50:00","57656","2.342","261.5","6.468","241.0","1004.405","7.745","95.1","NAN","1.2"],
    [1545901,"2026-03-14 19:00:00","57657","4.332","238.8","9.47","227.3","1004.227","8.26","96.8","NAN","1.0"],
    [1545902,"2026-03-14 19:10:00","57658","2.1319999999999997","260.5","5.129","243.5","1004.3560000000001","8.2","96.7","NAN","0.3"],
    [1545903,"2026-03-14 19:20:00","57659","0.9009999999999999","282.2","2.875","292.8","1004.2539999999999","8.25","90","NAN","0.0"],
    [1545904,"2026-03-14 19:30:00","57660","2.133","347.7","4.2139999999999995","322.9","1004.5319999999999","9.23","79.13","NAN","0.1"],
    [1545905,"2026-03-14 19:40:00","57661","1.3459999999999999","314.1","3.593","331.4","1004.85","9.13","83.8","NAN","0.0"],
    [1545906,"2026-03-14 19:50:00","57662","1.756","269.4","4.769","269.9","1004.875","8.75","88","NAN","0.0"],
    [1545907,"2026-03-14 20:00:00","57663","1.482","258.3","4.4430000000000005","249.4","1004.89","8.63","87.1","NAN","0.0"],
    [1545908,"2026-03-14 20:10:00","57664","1.0190000000000001","251.5","4.2139999999999995","245.7","1005.1389999999999","8.73","85.3","NAN","0.0"],
    [1545909,"2026-03-14 20:20:00","57665","0.873","233.5","2.0909999999999997","249.8","1005.368","8.7","84.7","NAN","0.0"],
    [1545910,"2026-03-14 20:30:00","57666","0.935","244.8","1.535","223.8","1005.385","8.67","85.6","NAN","0.0"],
    [1545911,"2026-03-14 20:40:00","57667","0.8140000000000001","302.4","1.96","314.8","1005.41","9.01","84.7","NAN","0.0"],
    [1545912,"2026-03-14 20:50:00","57668","0.18","335.0","1.3719999999999999","311.9","1005.436","9.2","84.8","NAN","0.0"],
    [1545913,"2026-03-14 21:00:00","57669","0.633","58.85","1.405","72.86","1005.578","8.85","86.9","NAN","0.0"],
    [1545914,"2026-03-14 21:10:00","57670","0.491","49.02","1.176","59.54","1005.685","8.43","89.4","NAN","0.0"],
    [1545915,"2026-03-14 21:20:00","57671","0.723","354.0","2.679","355.0","1005.7389999999999","8.59","89.3","NAN","0.0"],
    [1545916,"2026-03-14 21:30:00","57672","1.128","332.3","3.103","314.3","1005.822","9.42","82.2","NAN","0.0"],
    [1545917,"2026-03-14 21:40:00","57673","0.612","295.1","2.025","318.5","1005.836","9.44","81.1","NAN","0.0"],
    [1545918,"2026-03-14 21:50:00","57674","0.8959999999999999","284.7","2.613","288.6","1005.8710000000001","9.46","81.6","NAN","0.0"],
    [1545919,"2026-03-14 22:00:00","57675","0.986","302.2","3.332","299.2","1005.9060000000001","9.47","82.2","NAN","0.0"],
    [1545920,"2026-03-14 22:10:00","57676","1.064","309.5","3.332","299.1","1005.8710000000001","9.54","81.8","NAN","0.0"],
    [1545921,"2026-03-14 22:20:00","57677","1.06","282.8","3.201","285.6","1006.074","9.6","80.8","NAN","0.0"],
    [1545922,"2026-03-14 22:30:00","57678","1.74","273.7","4.083","298.8","1006.12","9.69","80.2","NAN","0.0"],
    [1545923,"2026-03-14 22:40:00","57679","2.0980000000000003","276.5","4.541","292.4","1005.953","9.61","80.7","NAN","0.0"],
    [1545924,"2026-03-14 22:50:00","57680","1.4269999999999998","262.0","3.299","260.9","1005.784","9.5","81.4","NAN","0.0"],
    [1545925,"2026-03-14 23:00:00","57681","1.619","301.2","3.659","265.8","1005.817","9.41","82.2","NAN","0.0"],
    [1545926,"2026-03-14 23:10:00","57682","0.991","307.0","3.267","313.0","1005.929","9.29","83.2","NAN","0.0"],
    [1545927,"2026-03-14 23:20:00","57683","1.062","301.9","2.8089999999999997","293.5","1006.1030000000001","9.28","82.8","NAN","0.0"],
    [1545928,"2026-03-14 23:30:00","57684","0.805","283.8","3.234","291.9","1006.0930000000001","9.24","82.5","NAN","0.0"],
    [1545929,"2026-03-14 23:40:00","57685","0.953","287.9","3.005","263.5","1006.113","9.23","81.9","NAN","0.0"],
    [1545930,"2026-03-14 23:50:00","57686","1.317","265.8","3.1689999999999996","282.7","1006.143","9.25","79.74","NAN","0.0"],
    [1545931,"2026-03-15 00:00:00","57687","0.775","275.9","2.123","284.6","1006.173","9.19","76.95","NAN","0.0"],
    [1545932,"2026-03-15 00:10:00","57688","0.5529999999999999","278.6","1.993","270.3","1006.262","9.19","70.77","NAN","0.0"],
    [1545933,"2026-03-15 00:20:00","57689","0.47100000000000003","308.0","2.025","357.8","1006.21","9.23","61.06","NAN","0.0"],
    [1545934,"2026-03-15 00:30:00","57690","1.02","255.6","2.7110000000000003","240.7","1006.181","9.45","54.43","NAN","0.0"],
    [1545935,"2026-03-15 00:40:00","57691","0.5589999999999999","87.8","2.0909999999999997","100.5","1006.335","9.11","55.66","NAN","0.0"],
    [1545936,"2026-03-15 00:50:00","57692","0.721","63.22","1.7309999999999999","106.6","1006.36","8.91","56.75","NAN","0.0"],
    [1545937,"2026-03-15 01:00:00","57693","0.24","65.91","1.013","72.7","1006.342","8.57","59.83","NAN","0.0"],
    [1545938,"2026-03-15 01:10:00","57694","0.47700000000000004","144.0","1.013","171.8","1006.345","8.19","62.35","NAN","0.0"],
    [1545939,"2026-03-15 01:20:00","57695","0.73","189.3","1.5030000000000001","189.7","1006.255","8.19","61.61","NAN","0.0"],
    [1545940,"2026-03-15 01:30:00","57696","1.024","167.7","2.9730000000000003","187.3","1006.1210000000001","8.43","56.22","NAN","0.0"],
    [1545941,"2026-03-15 01:40:00","57697","1.159","162.1","2.0580000000000003","157.8","1006.118","8.72","54.8","NAN","0.0"],
    [1545942,"2026-03-15 01:50:00","57698","0.8490000000000001","190.9","2.0909999999999997","176.9","1006.085","8.55","56.59","NAN","0.0"],
    [1545943,"2026-03-15 02:00:00","57699","0.474","184.3","1.274","153.9","1006.0060000000001","7.75","62.21","NAN","0.0"],
    [1545944,"2026-03-15 02:10:00","57700","0.342","81.0","1.013","166.1","1006.1510000000001","7.842","59.32","NAN","0.0"],
    [1545945,"2026-03-15 02:20:00","57701","0.506","185.9","0.98","186.5","1006.15","7.643","61.93","NAN","0.0"],
    [1545946,"2026-03-15 02:30:00","57702","0.669","42.56","1.176","42.94","1006.1080000000001","7.295","63.56","NAN","0.0"],
    [1545947,"2026-03-15 02:40:00","57703","0.809","6.598","1.7309999999999999","328.4","1006.0830000000001","7.548","62.11","NAN","0.0"],
    [1545948,"2026-03-15 02:50:00","57704","1.1440000000000001","328.5","3.299","37.03","1005.921","8.31","57.3","NAN","0.0"],
    [1545949,"2026-03-15 03:00:00","57705","1.4140000000000001","34.23","3.005","38.84","1005.9939999999999","7.657","63.68","NAN","0.0"],
    [1545950,"2026-03-15 03:10:00","57706","0.97","30.42","2.417","69.21","1006.056","7.227","66.18","NAN","0.0"],
    [1545951,"2026-03-15 03:20:00","57707","0.7659999999999999","326.6","1.764","313.2","1005.966","7.229","66.08","NAN","0.0"],
    [1545952,"2026-03-15 03:30:00","57708","1.3940000000000001","303.9","3.071","324.7","1005.8760000000001","7.708","62.62","NAN","0.0"],
    [1545953,"2026-03-15 03:40:00","57709","1.249","285.3","2.7110000000000003","316.8","1005.8689999999999","8.07","60.04","NAN","0.0"],
    [1545954,"2026-03-15 03:50:00","57710","0.726","258.5","2.287","257.6","1005.8810000000001","8.2","60.42","NAN","0.0"],
    [1545955,"2026-03-15 04:00:00","57711","0.336","201.6","1.47","110.3","1005.931","7.932","64.18","NAN","0.0"],
    [1545956,"2026-03-15 04:10:00","57712","0.382","93.9","1.176","121.5","1006.043","7.406","67.17","NAN","0.0"],
    [1545957,"2026-03-15 04:20:00","57713","0.23800000000000002","227.3","0.588","185.0","1006.0060000000001","7.252","68.94","NAN","0.0"],
    [1545958,"2026-03-15 04:30:00","57714","0.205","265.5","1.078","307.9","1006.1210000000001","7.432","66.39","NAN","0.0"],
    [1545959,"2026-03-15 04:40:00","57715","0.23399999999999999","237.9","0.915","233.2","1006.1360000000001","7.224","66.6","NAN","0.0"],
    [1545960,"2026-03-15 04:50:00","57716","0.49700000000000005","261.3","1.339","234.5","1006.15","7.421","64.6","NAN","0.0"],
    [1545961,"2026-03-15 05:00:00","57717","0.9990000000000001","314.0","2.417","302.1","1006.033","8.05","56.41","NAN","0.0"],
    [1545962,"2026-03-15 05:10:00","57718","1.5519999999999998","328.0","3.6910000000000003","316.2","1006.063","8.86","48.48","NAN","0.0"],
    [1545963,"2026-03-15 05:20:00","57719","1.6769999999999998","327.4","3.855","313.4","1006.1260000000001","9.13","45.81","NAN","0.0"],
    [1545964,"2026-03-15 05:30:00","57720","1.6480000000000001","322.1","4.312","316.0","1006.2","9.34","44.02","NAN","0.0"],
    [1545965,"2026-03-15 05:40:00","57721","1.06","296.5","3.92","277.7","1006.173","8.98","45.92","NAN","0.0"],
    [1545966,"2026-03-15 05:50:00","57722","0.833","293.4","2.842","301.9","1006.198","8.68","47.8","NAN","0.0"],
    [1545967,"2026-03-15 06:00:00","57723","1.459","291.9","4.345","295.7","1006.205","8.55","48.3","NAN","0.0"],
    [1545968,"2026-03-15 06:10:00","57724","1.482","287.0","5.945","294.0","1006.1260000000001","8.34","49.1","NAN","0.0"],
    [1545969,"2026-03-15 06:20:00","57725","2.02","279.2","5.031000000000001","289.9","1006.065","8.15","50.49","NAN","0.0"],
    [1545970,"2026-03-15 06:30:00","57726","1.415","320.8","3.855","265.5","1006.113","8.11","51.31","NAN","0.0"],
    [1545971,"2026-03-15 06:40:00","57727","1.507","284.0","4.867","280.6","1006.135","8.19","51.27","NAN","0.0"],
    [1545972,"2026-03-15 06:50:00","57728","1.794","283.1","4.835","299.9","1006.195","8.23","51.45","NAN","0.0"],
    [1545973,"2026-03-15 07:00:00","57729","1.5759999999999998","279.7","4.998","283.8","1006.275","8.35","51.32","NAN","0.0"],
    [1545974,"2026-03-15 07:10:00","57730","1.781","276.3","4.312","270.8","1006.284","8.54","50.98","NAN","0.0"],
    [1545975,"2026-03-15 07:20:00","57731","1.321","279.8","3.5610000000000004","351.4","1006.316","8.89","49.46","NAN","0.0"],
    [1545976,"2026-03-15 07:30:00","57732","1.4680000000000002","286.8","3.9530000000000003","241.2","1006.242","9.18","48.26","NAN","0.0"],
    [1545977,"2026-03-15 07:40:00","57733","1.115","304.6","3.136","317.3","1006.049","9.45","47.8","NAN","0.0"],
    [1545978,"2026-03-15 07:50:00","57734","1.504","284.2","4.508","270.8","1006.013","9.67","47.15","NAN","0.0"],
    [1545979,"2026-03-15 08:00:00","57735","1.517","281.4","4.018","279.6","1006.07","10.02","45.48","NAN","0.0"],
    [1545980,"2026-03-15 08:10:00","57736","1.433","276.9","3.6910000000000003","320.4","1006.1210000000001","10.45","43.44","NAN","0.0"],
    [1545981,"2026-03-15 08:20:00","57737","1.341","284.5","4.279","293.3","1006.0360000000001","10.94","41.87","NAN","0.0"],
    [1545982,"2026-03-15 08:30:00","57738","1.262","306.4","4.149","299.7","1005.926","11.41","40.35","NAN","0.0"],
    [1545983,"2026-03-15 08:40:00","57739","2.142","303.3","5.39","299.4","1005.826","11.33","40.48","NAN","0.0"],
    [1545984,"2026-03-15 08:50:00","57740","1.819","300.1","5.325","282.0","1005.9810000000001","11.57","40.1","NAN","0.0"],
    [1545985,"2026-03-15 09:00:00","57741","1.77","305.7","6.207000000000001","280.8","1006.0160000000001","12.03","37.98","NAN","0.0"],
    [1545986,"2026-03-15 09:10:00","57742","2.225","294.5","5.651","310.5","1005.993","12.4","36.12","NAN","0.0"],
    [1545987,"2026-03-15 09:20:00","57743","1.7180000000000002","294.9","4.769","270.0","1005.988","12.78","35.47","NAN","0.0"],
    [1545988,"2026-03-15 09:30:00","57744","2.281","306.3","5.4879999999999995","275.2","1005.926","13.15","34.69","NAN","0.0"],
    [1545989,"2026-03-15 09:40:00","57745","1.8430000000000002","296.6","4.9","317.7","1005.9780000000001","13.44","33.25","NAN","0.0"],
    [1545990,"2026-03-15 09:50:00","57746","1.798","285.6","5.129","347.8","1005.9830000000001","13.82","31.76","NAN","0.0"],
    [1545991,"2026-03-15 10:00:00","57747","1.922","288.3","4.573","265.6","1006.173","14.16","30.09","NAN","0.0"],
    [1545992,"2026-03-15 10:10:00","57748","1.775","292.5","5.063","274.4","1006.235","14.27","29.27","NAN","0.0"],
    [1545993,"2026-03-15 10:20:00","57749","1.929","295.9","5.096","292.6","1006.125","14.85","28.47","NAN","0.0"],
    [1545994,"2026-03-15 10:30:00","57750","1.675","265.9","4.4430000000000005","265.3","1006.1619999999999","15.19","27.42","NAN","0.0"],
    [1545995,"2026-03-15 10:40:00","57751","1.704","307.0","5.129","302.3","1006.2180000000001","15.51","25.59","NAN","0.0"],
    [1545996,"2026-03-15 10:50:00","57752","1.433","300.3","3.234","309.5","1006.202","16.2","23.14","NAN","0.0"],
    [1545997,"2026-03-15 11:00:00","57753","1.751","272.5","4.1160000000000005","261.3","1006.263","16.72","20.7","NAN","0.0"],
    [1545998,"2026-03-15 11:10:00","57754","1.3519999999999999","292.3","3.234","277.9","1006.352","16.63","18.77","NAN","0.0"],
    [1545999,"2026-03-15 11:20:00","57755","1.516","353.6","3.365","288.0","1006.337","17.13","17.13","NAN","0.0"],
    [1546000,"2026-03-15 11:30:00","57756","2.115","12.37","4.704","23.36","1006.32","17.21","15.52","NAN","0.0"],
    [1546001,"2026-03-15 11:40:00","57757","1.68","342.3","4.345","342.6","1006.383","17.32","13.01","NAN","0.0"],
    [1546002,"2026-03-15 11:50:00","57758","1.795","300.2","5.292000000000001","317.8","1006.447","17.68","12.06","NAN","0.0"],
    [1546003,"2026-03-15 12:00:00","57759","1.758","346.7","4.345","316.2","1006.367","17.8","12.51","NAN","0.0"],
    [1546004,"2026-03-15 12:10:00","57760","1.4269999999999998","2.405","3.887","298.1","1006.373","18.34","12.56","NAN","0.0"],
    [1546005,"2026-03-15 12:20:00","57761","1.465","18.84","3.365","0.337","1006.442","18.57","12.47","NAN","0.0"],
    [1546006,"2026-03-15 12:30:00","57762","1.4140000000000001","351.5","4.312","349.8","1006.467","18.54","11.99","NAN","0.0"],
    [1546007,"2026-03-15 12:40:00","57763","1.449","350.7","3.659","327.9","1006.6160000000001","18.91","11.92","NAN","0.0"],
    [1546008,"2026-03-15 12:50:00","57764","1.101","53.3","3.201","4.938","1006.676","18.79","12.08","NAN","0.0"],
    [1546009,"2026-03-15 13:00:00","57765","1.9140000000000001","76.3","5.063","88.3","1006.8330000000001","18.87","16.82","NAN","0.0"],
    [1546010,"2026-03-15 13:10:00","57766","2.5989999999999998","154.1","5.227","157.4","1006.942","17.21","25.1","NAN","0.0"],
    [1546011,"2026-03-15 13:20:00","57767","2.9930000000000003","151.8","6.435","162.7","1006.948","17.06","28","NAN","0.0"],
    [1546012,"2026-03-15 13:30:00","57768","2.778","172.7","5.553","148.1","1007.1610000000001","16.99","26.2","NAN","0.0"],
    [1546013,"2026-03-15 13:40:00","57769","2.2680000000000002","152.5","4.541","127.4","1007.216","17.07","28.58","NAN","0.0"],
    [1546014,"2026-03-15 13:50:00","57770","2.602","164.1","4.279","178.2","1007.215","16.88","26.08","NAN","0.0"],
    [1546015,"2026-03-15 14:00:00","57771","2.435","153.0","4.41","168.2","1007.316","16.47","24.06","NAN","0.0"],
    [1546016,"2026-03-15 14:10:00","57772","2.246","195.1","4.508","193.5","1007.43","16.21","29.41","NAN","0.0"],
    [1546017,"2026-03-15 14:20:00","57773","2.274","194.6","5.031000000000001","147.6","1007.472","16.46","33.74","NAN","0.0"],
    [1546018,"2026-03-15 14:30:00","57774","2.298","187.7","4.704","165.9","1007.587","16.58","35.37","NAN","0.0"],
    [1546019,"2026-03-15 14:40:00","57775","2.4859999999999998","188.4","5.063","183.0","1007.7260000000001","16.25","36.42","NAN","0.0"],
    [1546020,"2026-03-15 14:50:00","57776","2.78","188.6","4.933","182.7","1007.7860000000001","16.12","35.02","NAN","0.0"],
    [1546021,"2026-03-15 15:00:00","57777","2.338","190.6","3.9530000000000003","168.3","1007.913","16.04","35.74","NAN","0.0"],
    [1546022,"2026-03-15 15:10:00","57778","3.09","188.5","4.867","175.2","1007.9910000000001","15.85","36.66","NAN","0.0"],
    [1546023,"2026-03-15 15:20:00","57779","3.0069999999999997","186.4","5.031000000000001","172.9","1008.193","15.91","37.79","NAN","0.0"],
    [1546024,"2026-03-15 15:30:00","57780","2.8739999999999997","186.2","4.704","177.0","1008.3919999999999","15.98","39.72","NAN","0.0"],
    [1546025,"2026-03-15 15:40:00","57781","2.47","186.6","4.704","177.9","1008.579","15.78","39.93","NAN","0.0"],
    [1546026,"2026-03-15 15:50:00","57782","1.921","187.2","3.855","169.6","1008.86","15.8","41.22","NAN","0.0"],
    [1546027,"2026-03-15 16:00:00","57783","2.227","184.9","3.7889999999999997","173.9","1009.034","15.76","40.61","NAN","0.0"],
    [1546028,"2026-03-15 16:10:00","57784","1.891","176.9","3.822","165.4","1009.194","15.67","41.95","NAN","0.0"],
    [1546029,"2026-03-15 16:20:00","57785","1.8719999999999999","192.1","3.495","182.0","1009.313","15.62","43.3","NAN","0.0"],
    [1546030,"2026-03-15 16:30:00","57786","1.901","185.1","3.463","157.8","1009.505","15.54","46.27","NAN","0.0"],
    [1546031,"2026-03-15 16:40:00","57787","1.3159999999999998","180.0","2.515","153.0","1009.6389999999999","15.56","47.24","NAN","0.0"],
    [1546032,"2026-03-15 16:50:00","57788","1.351","180.0","3.495","153.5","1009.8560000000001","15.83","43.91","NAN","0.0"],
    [1546033,"2026-03-15 17:00:00","57789","1.3880000000000001","203.6","2.483","194.0","1010.153","15.86","45.18","NAN","0.0"],
    [1546034,"2026-03-15 17:10:00","57790","0.975","188.6","2.417","211.7","1010.2869999999999","15.62","47.01","NAN","0.0"],
    [1546035,"2026-03-15 17:20:00","57791","0.6759999999999999","160.0","1.535","154.2","1010.4119999999999","15.58","44.41","NAN","0.0"],
    [1546036,"2026-03-15 17:30:00","57792","0.94","223.1","1.829","203.2","1010.7080000000001","15.63","42.71","NAN","0.0"],
    [1546037,"2026-03-15 17:40:00","57793","0.8009999999999999","192.0","1.8619999999999999","192.6","1010.888","15.45","43.36","NAN","0.0"],
    [1546038,"2026-03-15 17:50:00","57794","0.9890000000000001","210.8","2.025","216.8","1011.169","15.36","43.26","NAN","0.0"],
    [1546039,"2026-03-15 18:00:00","57795","1.075","192.4","2.123","195.3","1011.298","15.36","43.47","NAN","0.0"],
    [1546040,"2026-03-15 18:10:00","57796","1.067","191.7","2.156","171.0","1011.438","15.34","42.95","NAN","0.0"],
    [1546041,"2026-03-15 18:20:00","57797","0.915","222.5","1.895","232.7","1011.694","15.49","38.79","NAN","0.0"],
    [1546042,"2026-03-15 18:30:00","57798","0.7859999999999999","232.2","1.764","240.1","1011.961","15.69","34.96","NAN","0.0"],
    [1546043,"2026-03-15 18:40:00","57799","0.9470000000000001","263.1","2.254","257.9","1012.242","15.73","34.86","NAN","0.0"],
    [1546044,"2026-03-15 18:50:00","57800","0.619","239.4","1.47","242.0","1012.422","15.7","36.94","NAN","0.0"],
    [1546045,"2026-03-15 19:00:00","57801","0.987","242.7","2.156","235.0","1012.671","15.75","37.07","NAN","0.0"],
    [1546046,"2026-03-15 19:10:00","57802","0.462","236.2","1.339","234.5","1012.763","15.62","37.76","NAN","0.0"],
    [1546047,"2026-03-15 19:20:00","57803","1.166","242.4","2.352","240.6","1013.0169999999999","15.62","37.83","NAN","0.0"],
    [1546048,"2026-03-15 19:30:00","57804","0.68","264.2","1.9269999999999998","261.2","1013.1289999999999","15.56","38.85","NAN","0.0"],
    [1546049,"2026-03-15 19:40:00","57805","1.196","244.1","2.254","241.4","1013.3860000000001","15.58","39.61","NAN","0.0"],
    [1546050,"2026-03-15 19:50:00","57806","0.6729999999999999","252.4","2.156","284.3","1013.48","15.58","39.46","NAN","0.0"],
    [1546051,"2026-03-15 20:00:00","57807","0.809","237.7","1.797","208.6","1013.722","15.59","39.34","NAN","0.0"],
    [1546052,"2026-03-15 20:10:00","57808","0.5760000000000001","279.3","2.221","288.1","1013.9010000000001","15.61","38.77","NAN","0.0"],
    [1546053,"2026-03-15 20:20:00","57809","0.44799999999999995","247.7","1.339","254.3","1014.117","15.59","38.41","NAN","0.0"],
    [1546054,"2026-03-15 20:30:00","57810","0.457","247.4","1.535","299.8","1014.23","15.53","38.24","NAN","0.0"],
    [1546055,"2026-03-15 20:40:00","57811","0.564","288.0","1.633","305.3","1014.4739999999999","15.6","36.5","NAN","0.0"],
    [1546056,"2026-03-15 20:50:00","57812","0.153","249.9","1.013","323.7","1014.676","15.53","36.04","NAN","0.0"],
    [1546057,"2026-03-15 21:00:00","57813","0.679","253.3","1.339","281.7","1014.703","15.56","34.43","NAN","0.0"],
    [1546058,"2026-03-15 21:10:00","57814","0.27","230.8","1.045","272.6","1014.806","15.55","34.48","NAN","0.0"],
    [1546059,"2026-03-15 21:20:00","57815","0.267","177.1","0.8170000000000001","166.9","1014.95","15.26","35.48","NAN","0.0"],
    [1546060,"2026-03-15 21:30:00","57816","0.266","188.1","0.6859999999999999","219.6","1015.1489999999999","15.03","36.83","NAN","0.0"],
    [1546061,"2026-03-15 21:40:00","57817","0.555","73.67","2.221","54.35","1015.2539999999999","14.71","36.87","NAN","0.0"],
    [1546062,"2026-03-15 21:50:00","57818","0.878","35.84","1.764","4.95","1015.427","14.59","36.94","NAN","0.0"],
    [1546063,"2026-03-15 22:00:00","57819","0.774","15.18","1.8619999999999999","21.5","1015.564","14.4","37.22","NAN","0.0"],
    [1546064,"2026-03-15 22:10:00","57820","0.335","346.5","1.47","29.09","1015.689","14.33","36.75","NAN","0.0"],
    [1546065,"2026-03-15 22:20:00","57821","0.39399999999999996","32.01","1.013","49.42","1015.696","14.09","36.91","NAN","0.0"],
    [1546066,"2026-03-15 22:30:00","57822","0.478","284.9","1.405","286.1","1015.6510000000001","14.14","37.15","NAN","0.0"],
    [1546067,"2026-03-15 22:40:00","57823","0.36700000000000005","264.7","0.8490000000000001","228.0","1015.7769999999999","14.14","37.54","NAN","0.0"],
    [1546068,"2026-03-15 22:50:00","57824","0.237","294.2","0.882","288.6","1015.8739999999999","13.82","37.37","NAN","0.0"],
    [1546069,"2026-03-15 23:00:00","57825","0.192","310.9","1.045","310.5","1015.8919999999999","13.64","36.54","NAN","0.0"],
    [1546070,"2026-03-15 23:10:00","57826","0.12","237.4","0.6859999999999999","267.9","1015.932","13.26","37.75","NAN","0.0"],
    [1546071,"2026-03-15 23:20:00","57827","0.033","131.1","0.392","212.8","1016.0189999999999","12.89","38.23","NAN","0.0"],
    [1546072,"2026-03-15 23:30:00","57828","0.0","0.0","0.0","0.0","1016.0169999999999","12.49","40.57","NAN","0.0"],
    [1546073,"2026-03-15 23:40:00","57829","0.228","279.2","1.078","295.9","1016.0010000000001","12.47","40.87","NAN","0.0"],
    [1546074,"2026-03-15 23:50:00","57830","0.222","187.7","0.588","83.4","1015.997","12.56","42.58","NAN","0.0"],
    [1546075,"2026-03-16 00:00:00","57831","0.444","270.4","1.2409999999999999","264.2","1016.039","12.38","38.12","NAN","0.0"],
    [1546076,"2026-03-16 00:10:00","57832","0.057999999999999996","280.6","0.588","265.1","1016.1239999999999","12.43","34.98","NAN","0.0"],
    [1546077,"2026-03-16 00:20:00","57833","0.32899999999999996","295.8","0.9470000000000001","301.0","1016.334","11.99","36.15","NAN","0.0"],
    [1546078,"2026-03-16 00:30:00","57834","0.644","265.1","1.3719999999999999","269.8","1016.425","12.49","31.63","NAN","0.0"],
    [1546079,"2026-03-16 00:40:00","57835","0.27899999999999997","280.0","0.915","242.5","1016.579","12.4","31.42","NAN","0.0"],
    [1546080,"2026-03-16 00:50:00","57836","0.439","4.378","1.764","3.9419999999999997","1016.697","11.86","35.65","NAN","0.0"],
    [1546081,"2026-03-16 01:00:00","57837","0.23600000000000002","355.2","1.143","289.2","1016.821","11.9","35.36","NAN","0.0"],
    [1546082,"2026-03-16 01:10:00","57838","0.065","296.4","0.8490000000000001","237.8","1016.832","11.45","38.8","NAN","0.0"],
    [1546083,"2026-03-16 01:20:00","57839","0.384","6.515","1.274","297.3","1016.934","11.39","37.41","NAN","0.0"],
    [1546084,"2026-03-16 01:30:00","57840","0.43200000000000005","330.8","1.993","335.8","1017.0830000000001","11.96","28.84","NAN","0.0"],
    [1546085,"2026-03-16 01:40:00","57841","0.226","202.3","0.653","217.9","1017.075","11.55","29.74","NAN","0.0"],
    [1546086,"2026-03-16 01:50:00","57842","0.45","239.5","1.47","278.1","1016.8810000000001","11.28","29.94","NAN","0.0"],
    [1546087,"2026-03-16 02:00:00","57843","0.484","66.47","1.176","49.62","1016.961","10.83","33.85","NAN","0.0"],
    [1546088,"2026-03-16 02:10:00","57844","0.28","4.699","0.8170000000000001","30.43","1017.07","10.67","33.09","NAN","0.0"],
    [1546089,"2026-03-16 02:20:00","57845","0.53","321.9","2.483","339.3","1017.043","10.74","31.34","NAN","0.0"],
    [1546090,"2026-03-16 02:30:00","57846","0.706","292.2","2.613","326.0","1017.175","11.6","28.07","NAN","0.0"],
    [1546091,"2026-03-16 02:40:00","57847","0.653","290.3","1.699","259.1","1017.1060000000001","11.42","28.35","NAN","0.0"],
    [1546092,"2026-03-16 02:50:00","57848","0.34700000000000003","280.5","1.5030000000000001","252.3","1017.178","11.16","28.3","NAN","0.0"],
    [1546093,"2026-03-16 03:00:00","57849","0.7","239.1","1.535","262.7","1017.2130000000001","11.01","28.62","NAN","0.0"],
    [1546094,"2026-03-16 03:10:00","57850","1.4340000000000002","262.3","2.9730000000000003","263.3","1017.378","11.01","29.92","NAN","0.0"],
    [1546095,"2026-03-16 03:20:00","57851","1.9240000000000002","261.4","3.9530000000000003","259.7","1017.285","11","29.59","NAN","0.0"],
    [1546096,"2026-03-16 03:30:00","57852","1.739","276.5","3.365","272.0","1017.332","10.79","31.14","NAN","0.0"],
    [1546097,"2026-03-16 03:40:00","57853","0.99","264.9","2.417","285.6","1017.297","10.72","32.18","NAN","0.0"],
    [1546098,"2026-03-16 03:50:00","57854","1.038","247.6","3.005","272.6","1017.215","10.59","32.97","NAN","0.0"],
    [1546099,"2026-03-16 04:00:00","57855","1.148","263.0","3.332","257.4","1017.335","10.54","33.94","NAN","0.0"],
    [1546100,"2026-03-16 04:10:00","57856","0.987","261.9","2.483","232.0","1017.22","10.27","35.63","NAN","0.0"],
    [1546101,"2026-03-16 04:20:00","57857","0.968","270.9","1.797","292.3","1017.1510000000001","10.35","36.14","NAN","0.0"],
    [1546102,"2026-03-16 04:30:00","57858","0.655","264.2","2.189","261.8","1017.118","10.36","36.6","NAN","0.0"],
    [1546103,"2026-03-16 04:40:00","57859","0.897","273.8","2.0580000000000003","293.4","1017.2130000000001","10.31","37.72","NAN","0.0"],
    [1546104,"2026-03-16 04:50:00","57860","0.619","315.5","1.633","318.2","1017.654","10.34","38.63","NAN","0.0"],
    [1546105,"2026-03-16 05:00:00","57861","0.672","310.2","1.633","319.7","1017.966","10.33","39","NAN","0.0"],
    [1546106,"2026-03-16 05:10:00","57862","0.161","210.2","0.8170000000000001","240.8","1018.105","10.01","40.52","NAN","0.0"],
    [1546107,"2026-03-16 05:20:00","57863","0.41100000000000003","222.4","1.633","248.1","1018.072","9.5","42.37","NAN","0.0"],
    [1546108,"2026-03-16 05:30:00","57864","0.7290000000000001","244.8","2.45","300.9","1018.097","10.06","40.54","NAN","0.0"],
    [1546109,"2026-03-16 05:40:00","57865","0.632","234.1","1.535","234.1","1018.13","9.87","42.51","NAN","0.0"],
    [1546110,"2026-03-16 05:50:00","57866","0.807","225.1","2.156","242.5","1018.172","9.74","43.23","NAN","0.0"],
    [1546111,"2026-03-16 06:00:00","57867","0.424","218.8","1.143","230.5","1018.082","9.6","42.8","NAN","0.0"],
    [1546112,"2026-03-16 06:10:00","57868","0.778","237.2","2.221","225.8","1018.13","9.53","43.06","NAN","0.0"],
    [1546113,"2026-03-16 06:20:00","57869","0.685","238.8","1.535","253.1","1018.3969999999999","9.9","41.61","NAN","0.0"],
    [1546114,"2026-03-16 06:30:00","57870","0.519","272.0","1.5030000000000001","261.0","1018.688","10.14","41.7","NAN","0.0"],
    [1546115,"2026-03-16 06:40:00","57871","0.64","235.3","1.829","241.0","1018.74","10.34","41.39","NAN","0.0"],
    [1546116,"2026-03-16 06:50:00","57872","1.236","223.8","3.0380000000000003","247.4","1018.81","10.4","41.4","NAN","0.0"],
    [1546117,"2026-03-16 07:00:00","57873","1.403","248.0","2.7110000000000003","244.7","1018.9839999999999","10.39","41.47","NAN","0.0"],
    [1546118,"2026-03-16 07:10:00","57874","0.667","228.1","1.339","233.7","1019.073","10.62","41.45","NAN","0.0"],
    [1546119,"2026-03-16 07:20:00","57875","0.27399999999999997","176.8","1.078","343.8","1019.216","11.33","39.52","NAN","0.0"],
    [1546120,"2026-03-16 07:30:00","57876","0.809","60.67","1.4369999999999998","145.2","1019.54","11.73","37.6","NAN","0.0"],
    [1546121,"2026-03-16 07:40:00","57877","0.9690000000000001","152.8","1.666","186.9","1019.296","11.49","39.63","NAN","0.0"],
    [1546122,"2026-03-16 07:50:00","57878","1.072","150.3","1.895","106.1","1019.4860000000001","11.66","41.55","NAN","0.0"],
    [1546123,"2026-03-16 08:00:00","57879","1.26","155.6","2.287","157.6","1019.56","11.86","39.56","NAN","0.0"],
    [1546124,"2026-03-16 08:10:00","57880","0.722","166.8","1.601","189.8","1019.55","12.23","36.71","NAN","0.0"],
    [1546125,"2026-03-16 08:20:00","57881","0.44299999999999995","109.5","1.3719999999999999","175.7","1019.6519999999999","12.83","35.59","NAN","0.0"],
    [1546126,"2026-03-16 08:30:00","57882","0.6970000000000001","104.4","1.895","75.16","1019.735","13.29","36.1","NAN","0.0"],
    [1546127,"2026-03-16 08:40:00","57883","0.532","105.5","1.895","121.1","1019.8960000000001","13.71","33.47","NAN","0.0"],
    [1546128,"2026-03-16 08:50:00","57884","1.013","89.6","1.96","72.39","1019.7819999999999","13.66","34.86","NAN","0.0"],
    [1546129,"2026-03-16 09:00:00","57885","0.557","66.88","1.3719999999999999","94.9","1020.049","13.97","34.51","NAN","0.0"],
    [1546130,"2026-03-16 09:10:00","57886","0.647","98.0","1.666","83.8","1020.19","14.26","34.36","NAN","0.0"],
    [1546131,"2026-03-16 09:20:00","57887","0.972","226.6","1.9269999999999998","283.5","1020.225","14.03","34.2","NAN","0.0"],
    [1546132,"2026-03-16 09:30:00","57888","0.754","183.0","1.601","223.7","1020.262","14.49","32.63","NAN","0.0"],
    [1546133,"2026-03-16 09:40:00","57889","1.208","116.7","2.189","124.4","1020.185","14.1","38.19","NAN","0.0"],
    [1546134,"2026-03-16 09:50:00","57890","1.056","113.0","1.96","97.8","1020.305","14.28","38.33","NAN","0.0"],
    [1546135,"2026-03-16 10:00:00","57891","0.8290000000000001","157.1","1.666","188.0","1020.424","14.56","36.32","NAN","0.0"],
    [1546136,"2026-03-16 10:10:00","57892","1.325","176.8","2.123","176.9","1020.492","14.94","35.32","NAN","0.0"],
    [1546137,"2026-03-16 10:20:00","57893","1.329","167.8","2.0580000000000003","177.6","1020.529","14.97","34.1","NAN","0.0"],
    [1546138,"2026-03-16 10:30:00","57894","1.195","144.1","2.156","93.8","1020.671","15.59","36.38","NAN","0.0"],
    [1546139,"2026-03-16 10:40:00","57895","1.456","134.0","2.417","143.5","1020.678","15.45","38.49","NAN","0.0"],
    [1546140,"2026-03-16 10:50:00","57896","1.492","136.2","2.613","154.1","1020.676","15.52","39.19","NAN","0.0"],
    [1546141,"2026-03-16 11:00:00","57897","1.119","126.8","1.7309999999999999","109.9","1020.678","15.62","39.14","NAN","0.0"],
    [1546142,"2026-03-16 11:10:00","57898","1.607","142.4","2.7110000000000003","152.1","1020.541","15.99","37.58","NAN","0.0"],
    [1546143,"2026-03-16 11:20:00","57899","1.068","160.2","2.0580000000000003","167.9","1020.5139999999999","16.54","36.82","NAN","0.0"],
    [1546144,"2026-03-16 11:30:00","57900","1.483","136.0","2.842","116.0","1020.432","16.72","36.06","NAN","0.0"],
    [1546145,"2026-03-16 11:40:00","57901","1.5019999999999998","137.9","2.7110000000000003","157.6","1020.434","16.74","35.51","NAN","0.0"],
    [1546146,"2026-03-16 11:50:00","57902","1.756","176.6","2.417","157.8","1020.382","16.51","37.94","NAN","0.0"],
    [1546147,"2026-03-16 12:00:00","57903","1.42","136.1","2.417","118.0","1020.305","16.9","39.38","NAN","0.0"],
    [1546148,"2026-03-16 12:10:00","57904","1.6840000000000002","183.1","3.0380000000000003","199.9","1020.205","16.82","38.11","NAN","0.0"],
    [1546149,"2026-03-16 12:20:00","57905","2.099","184.7","3.071","182.9","1020.18","16.36","41.98","NAN","0.0"],
    [1546150,"2026-03-16 12:30:00","57906","2.028","183.5","3.463","171.3","1020.128","16.51","42.19","NAN","0.0"],
    [1546151,"2026-03-16 12:40:00","57907","3.535","175.9","4.933","182.5","1019.938","16.08","41.3","NAN","0.0"],
    [1546152,"2026-03-16 12:50:00","57908","3.0780000000000003","171.6","4.835","176.0","1019.8510000000001","15.69","50.55","NAN","0.0"],
    [1546153,"2026-03-16 13:00:00","57909","3.5069999999999997","175.8","5.782","171.2","1019.7719999999999","15.55","51.59","NAN","0.0"],
    [1546154,"2026-03-16 13:10:00","57910","3.093","179.9","5.031000000000001","191.1","1019.7389999999999","15.52","50.59","NAN","0.0"],
    [1546155,"2026-03-16 13:20:00","57911","3.6839999999999997","175.6","5.521","172.9","1019.585","15.14","52.07","NAN","0.0"],
    [1546156,"2026-03-16 13:30:00","57912","3.265","176.3","4.606","174.5","1019.383","15.73","48.36","NAN","0.0"],
    [1546157,"2026-03-16 13:40:00","57913","2.543","180.9","5.1610000000000005","179.9","1019.308","16.32","44.84","NAN","0.0"],
    [1546158,"2026-03-16 13:50:00","57914","2.805","173.2","4.606","172.6","1019.283","16.49","44.77","NAN","0.0"],
    [1546159,"2026-03-16 14:00:00","57915","2.296","189.7","4.083","175.3","1019.184","16.76","44.42","NAN","0.0"],
    [1546160,"2026-03-16 14:10:00","57916","2.33","184.8","4.149","176.0","1019.1410000000001","17.31","41.45","NAN","0.0"],
    [1546161,"2026-03-16 14:20:00","57917","2.575","186.9","4.4430000000000005","165.7","1019.049","17.15","39.93","NAN","0.0"],
    [1546162,"2026-03-16 14:30:00","57918","2.583","195.0","5.39","167.5","1019.012","17.22","40.43","NAN","0.0"],
    [1546163,"2026-03-16 14:40:00","57919","2.436","195.9","4.181","177.1","1018.952","17.16","40.51","NAN","0.0"],
    [1546164,"2026-03-16 14:50:00","57920","2.286","195.2","4.312","188.5","1018.932","17.27","39.99","NAN","0.0"],
    [1546165,"2026-03-16 15:00:00","57921","2.36","202.1","4.2139999999999995","197.9","1018.82","17.43","40.16","NAN","0.0"],
    [1546166,"2026-03-16 15:10:00","57922","2.0","209.1","4.965","202.7","1018.808","17.66","40.34","NAN","0.0"],
    [1546167,"2026-03-16 15:20:00","57923","2.7939999999999996","200.7","4.802","199.7","1018.818","17.56","37.59","NAN","0.0"],
    [1546168,"2026-03-16 15:30:00","57924","1.9269999999999998","205.1","4.279","192.7","1018.763","17.7","39.38","NAN","0.0"],
    [1546169,"2026-03-16 15:40:00","57925","1.7719999999999998","196.9","3.005","207.7","1018.683","17.68","41.75","NAN","0.0"],
    [1546170,"2026-03-16 15:50:00","57926","2.057","198.4","4.181","234.5","1018.687","17.57","41.53","NAN","0.0"],
    [1546171,"2026-03-16 16:00:00","57927","1.962","224.7","4.933","224.5","1018.785","17.9","35.98","NAN","0.0"],
    [1546172,"2026-03-16 16:10:00","57928","2.206","207.0","4.638999999999999","205.6","1018.7719999999999","17.38","39.87","NAN","0.0"],
    [1546173,"2026-03-16 16:20:00","57929","2.21","201.7","4.018","204.6","1018.638","16.98","47.16","NAN","0.0"],
    [1546174,"2026-03-16 16:30:00","57930","2.024","208.3","4.181","201.6","1018.578","16.73","53.43","NAN","0.0"],
    [1546175,"2026-03-16 16:40:00","57931","1.933","204.3","3.985","181.7","1018.493","16.3","56.69","NAN","0.0"],
    [1546176,"2026-03-16 16:50:00","57932","1.426","194.9","2.842","187.2","1018.549","16.25","58.43","NAN","0.0"],
    [1546177,"2026-03-16 17:00:00","57933","0.975","197.8","2.352","162.3","1018.574","16.27","58.17","NAN","0.0"],
    [1546178,"2026-03-16 17:10:00","57934","0.9470000000000001","212.8","2.9730000000000003","197.4","1018.683","16.54","56.57","NAN","0.0"],
    [1546179,"2026-03-16 17:20:00","57935","0.82","213.9","1.829","187.6","1018.685","16.31","58.13","NAN","0.0"],
    [1546180,"2026-03-16 17:30:00","57936","0.9540000000000001","238.0","3.103","194.9","1018.683","16.3","58.12","NAN","0.0"],
    [1546181,"2026-03-16 17:40:00","57937","1.618","243.3","3.659","237.4","1018.7230000000001","16.4","57.86","NAN","0.0"],
    [1546182,"2026-03-16 17:50:00","57938","0.946","219.5","2.5810000000000004","245.3","1018.822","16.21","59.44","NAN","0.0"],
    [1546183,"2026-03-16 18:00:00","57939","1.1420000000000001","180.9","2.385","175.6","1018.895","15.98","61.68","NAN","0.0"],
    [1546184,"2026-03-16 18:10:00","57940","0.708","208.0","1.96","238.6","1018.955","15.54","64.28","NAN","0.0"],
    [1546185,"2026-03-16 18:20:00","57941","0.813","247.4","2.907","256.4","1019.074","15.62","63.42","NAN","0.0"],
    [1546186,"2026-03-16 18:30:00","57942","1.7730000000000001","245.0","3.332","230.0","1019.164","15.4","64.44","NAN","0.0"],
    [1546187,"2026-03-16 18:40:00","57943","1.3419999999999999","253.6","2.7110000000000003","253.8","1019.238","15.23","65.33","NAN","0.0"],
    [1546188,"2026-03-16 18:50:00","57944","1.517","258.8","3.071","263.0","1019.2339999999999","15.09","66.47","NAN","0.0"],
    [1546189,"2026-03-16 19:00:00","57945","1.3980000000000001","249.4","3.528","248.7","1019.257","14.87","67.76","NAN","0.0"],
    [1546190,"2026-03-16 19:10:00","57946","1.49","255.6","3.1689999999999996","252.6","1019.3480000000001","14.8","68.21","NAN","0.0"],
    [1546191,"2026-03-16 19:20:00","57947","1.056","274.5","2.7110000000000003","258.1","1019.3660000000001","14.92","67.83","NAN","0.0"],
    [1546192,"2026-03-16 19:30:00","57948","1.465","271.3","3.1689999999999996","285.8","1019.3910000000001","14.97","67.83","NAN","0.0"],
    [1546193,"2026-03-16 19:40:00","57949","1.1840000000000002","244.3","2.7110000000000003","231.4","1019.433","15","67.9","NAN","0.0"],
    [1546194,"2026-03-16 19:50:00","57950","1.781","248.3","3.201","258.2","1019.424","14.84","68.44","NAN","0.0"],
    [1546195,"2026-03-16 20:00:00","57951","1.287","257.5","2.94","261.0","1019.372","14.68","69.27","NAN","0.0"],
    [1546196,"2026-03-16 20:10:00","57952","1.636","257.8","3.7569999999999997","264.0","1019.2710000000001","14.6","69.81","NAN","0.0"],
    [1546197,"2026-03-16 20:20:00","57953","1.242","254.5","3.1689999999999996","261.0","1019.3510000000001","14.53","69.99","NAN","0.0"],
    [1546198,"2026-03-16 20:30:00","57954","1.301","259.6","3.332","258.8","1019.451","14.52","69.12","NAN","0.0"],
    [1546199,"2026-03-16 20:40:00","57955","1.429","247.9","2.842","242.7","1019.352","14.43","68.8","NAN","0.0"],
    [1546200,"2026-03-16 20:50:00","57956","1.7180000000000002","268.0","3.43","259.4","1019.265","14.35","68.4","NAN","0.0"],
    [1546201,"2026-03-16 21:00:00","57957","1.042","292.4","3.0380000000000003","295.6","1019.325","14.49","67.63","NAN","0.0"],
    [1546202,"2026-03-16 21:10:00","57958","0.684","236.3","2.613","255.3","1019.327","14.45","68.23","NAN","0.0"],
    [1546203,"2026-03-16 21:20:00","57959","0.408","239.9","1.078","262.7","1019.262","14.27","69.23","NAN","0.0"],
    [1546204,"2026-03-16 21:30:00","57960","0.455","239.8","1.111","273.6","1019.255","14.35","69.16","NAN","0.0"],
    [1546205,"2026-03-16 21:40:00","57961","0.83","264.0","1.4369999999999998","259.7","1019.255","14.39","69.19","NAN","0.0"],
    [1546206,"2026-03-16 21:50:00","57962","0.415","287.2","1.307","312.1","1019.205","14.48","68.99","NAN","0.0"],
    [1546207,"2026-03-16 22:00:00","57963","0.27399999999999997","242.9","0.915","280.3","1019.25","14.41","69.13","NAN","0.0"],
    [1546208,"2026-03-16 22:10:00","57964","0.47700000000000004","224.6","1.143","246.9","1019.237","14.2","69.9","NAN","0.0"],
    [1546209,"2026-03-16 22:20:00","57965","0.22","243.5","0.784","238.9","1019.237","14.14","69.2","NAN","0.0"],
    [1546210,"2026-03-16 22:30:00","57966","0.381","224.6","0.9470000000000001","223.5","1019.23","14.07","68.41","NAN","0.0"],
    [1546211,"2026-03-16 22:40:00","57967","0.24100000000000002","253.9","0.7509999999999999","267.1","1019.225","13.88","67.66","NAN","0.0"],
    [1546212,"2026-03-16 22:50:00","57968","0.33399999999999996","283.5","1.045","292.5","1019.15","14.2","65.04","NAN","0.0"],
    [1546213,"2026-03-16 23:00:00","57969","0.59","85.4","1.209","92.7","1019.105","13.85","68.67","NAN","0.0"],
    [1546214,"2026-03-16 23:10:00","57970","0.7979999999999999","78.16","1.9269999999999998","89.0","1019.133","13.48","72.62","NAN","0.0"],
    [1546215,"2026-03-16 23:20:00","57971","0.767","60.0","1.47","103.1","1019.053","13.45","75.12","NAN","0.0"],
    [1546216,"2026-03-16 23:30:00","57972","0.7120000000000001","22.59","1.601","31.38","1019.05","13.12","69.72","NAN","0.0"],
    [1546217,"2026-03-16 23:40:00","57973","0.6509999999999999","55.94","1.568","79.06","1019.018","12.89","66.63","NAN","0.0"],
    [1546218,"2026-03-16 23:50:00","57974","0.159","56.86","1.013","18.31","1018.9839999999999","12.56","66.99","NAN","0.0"],
    [1546219,"2026-03-17 00:00:00","57975","1.1320000000000001","41.64","2.254","49.87","1018.9069999999999","12.6","67.66","NAN","0.0"],
    [1546220,"2026-03-17 00:10:00","57976","1.051","30.93","1.829","31.44","1018.962","12.79","67.44","NAN","0.0"],
    [1546221,"2026-03-17 00:20:00","57977","0.995","350.9","1.9269999999999998","352.5","1018.832","12.98","66.6","NAN","0.0"],
    [1546222,"2026-03-17 00:30:00","57978","0.958","21.64","1.895","349.4","1018.773","13.16","65.24","NAN","0.0"],
    [1546223,"2026-03-17 00:40:00","57979","1.253","8.97","2.287","5.685","1018.7719999999999","12.99","65.54","NAN","0.0"],
    [1546224,"2026-03-17 00:50:00","57980","1.0859999999999999","28.5","1.96","47.65","1018.7739999999999","12.91","65.81","NAN","0.0"],
    [1546225,"2026-03-17 01:00:00","57981","1.2229999999999999","60.62","2.0580000000000003","59.46","1018.7660000000001","12.7","66.15","NAN","0.0"],
    [1546226,"2026-03-17 01:10:00","57982","1.104","47.86","2.0580000000000003","33.81","1018.688","12.54","66.11","NAN","0.0"],
    [1546227,"2026-03-17 01:20:00","57983","1.1179999999999999","23.95","2.287","30.86","1018.528","12.41","66.58","NAN","0.0"],
    [1546228,"2026-03-17 01:30:00","57984","1.1059999999999999","8.56","1.895","15.33","1018.4939999999999","12.48","66.91","NAN","0.0"],
    [1546229,"2026-03-17 01:40:00","57985","1.045","7.707999999999999","2.254","10.35","1018.419","12.49","67.71","NAN","0.0"],
    [1546230,"2026-03-17 01:50:00","57986","0.657","25.81","1.274","9.7","1018.308","12.37","68.66","NAN","0.0"],
    [1546231,"2026-03-17 02:00:00","57987","0.909","14.25","2.0909999999999997","5.656000000000001","1018.302","12.27","69.16","NAN","0.0"],
    [1546232,"2026-03-17 02:10:00","57988","0.65","36.21","1.274","358.5","1018.301","12.15","69.42","NAN","0.0"],
    [1546233,"2026-03-17 02:20:00","57989","0.8859999999999999","7.791","1.797","12.38","1018.2739999999999","12.12","68.82","NAN","0.0"],
    [1546234,"2026-03-17 02:30:00","57990","0.8370000000000001","6.65","1.895","8.2","1018.1510000000001","12.18","67.97","NAN","0.0"],
    [1546235,"2026-03-17 02:40:00","57991","0.6890000000000001","9.17","1.7309999999999999","358.9","1018.061","12.03","68.38","NAN","0.0"],
    [1546236,"2026-03-17 02:50:00","57992","1.081","7.979","1.895","5.7860000000000005","1017.8910000000001","12.21","67.72","NAN","0.0"],
    [1546237,"2026-03-17 03:00:00","57993","0.8290000000000001","11.82","1.9269999999999998","9.9","1017.7360000000001","12.05","67.5","NAN","0.0"],
    [1546238,"2026-03-17 03:10:00","57994","0.79","2.91","1.568","6.218999999999999","1017.679","11.99","66.89","NAN","0.0"],
    [1546239,"2026-03-17 03:20:00","57995","0.8079999999999999","7.622999999999999","1.535","5.367000000000001","1017.574","12.18","64.87","NAN","0.0"],
    [1546240,"2026-03-17 03:30:00","57996","0.7020000000000001","9.04","1.307","2.227","1017.554","12.19","63.81","NAN","0.0"],
    [1546241,"2026-03-17 03:40:00","57997","0.6559999999999999","30.61","1.633","33.67","1017.659","12.13","63.6","NAN","0.0"],
    [1546242,"2026-03-17 03:50:00","57998","0.76","42.35","1.111","41.9","1017.702","11.84","64.28","NAN","0.0"],
    [1546243,"2026-03-17 04:00:00","57999","0.605","27.95","1.078","45.96","1017.703","11.71","63.86","NAN","0.0"],
    [1546244,"2026-03-17 04:10:00","58000","0.807","23.37","1.47","13.65","1017.68","11.68","62.62","NAN","0.0"],
    [1546245,"2026-03-17 04:20:00","58001","0.821","21.62","1.797","1.9180000000000001","1017.643","11.79","61.52","NAN","0.0"],
    [1546246,"2026-03-17 04:30:00","58002","1.083","19.34","1.993","24.51","1017.638","11.78","61.21","NAN","0.0"],
    [1546247,"2026-03-17 04:40:00","58003","1.135","21.43","2.025","20.72","1017.56","11.73","61.32","NAN","0.0"],
    [1546248,"2026-03-17 04:50:00","58004","1.3659999999999999","8.99","2.156","19.77","1017.581","11.79","61.2","NAN","0.0"],
    [1546249,"2026-03-17 05:00:00","58005","1.1840000000000002","10.26","2.123","18.51","1017.612","11.71","61.96","NAN","0.0"],
    [1546250,"2026-03-17 05:10:00","58006","0.934","3.911","1.9269999999999998","11.17","1017.5989999999999","11.52","63.17","NAN","0.0"],
    [1546251,"2026-03-17 05:20:00","58007","0.977","10.07","1.829","30.86","1017.51","11.38","64.13","NAN","0.0"],
    [1546252,"2026-03-17 05:30:00","58008","1.301","5.559","2.0580000000000003","359.2","1017.367","11.14","65.06","NAN","0.0"],
    [1546253,"2026-03-17 05:40:00","58009","1.046","8.95","1.9269999999999998","352.8","1017.332","11.22","65.05","NAN","0.0"],
    [1546254,"2026-03-17 05:50:00","58010","1.3019999999999998","14.44","2.9730000000000003","24.53","1017.329","11.05","65.41","NAN","0.0"],
    [1546255,"2026-03-17 06:00:00","58011","1.4680000000000002","14.51","3.365","6.011","1017.404","11.08","65.31","NAN","0.0"],
    [1546256,"2026-03-17 06:10:00","58012","1.314","5.324","3.071","9.25","1017.502","11.03","65.63","NAN","0.0"],
    [1546257,"2026-03-17 06:20:00","58013","1.052","14.59","2.9730000000000003","11.85","1017.559","11.01","66.17","NAN","0.0"],
    [1546258,"2026-03-17 06:30:00","58014","0.987","20.21","2.0580000000000003","11.41","1017.566","10.95","66.82","NAN","0.0"],
    [1546259,"2026-03-17 06:40:00","58015","1.035","14.99","2.189","346.4","1017.577","11.06","66.61","NAN","0.0"],
    [1546260,"2026-03-17 06:50:00","58016","0.9890000000000001","19.51","2.319","13.91","1017.575","11.39","65.42","NAN","0.0"],
    [1546261,"2026-03-17 07:00:00","58017","1.1179999999999999","7.252000000000001","2.189","353.5","1017.5239999999999","11.82","63.69","NAN","0.0"],
    [1546262,"2026-03-17 07:10:00","58018","0.978","11.96","1.9269999999999998","8.19","1017.5160000000001","12.11","62.8","NAN","0.0"],
    [1546263,"2026-03-17 07:20:00","58019","1.268","17.4","3.1689999999999996","26.77","1017.63","12.56","61.01","NAN","0.0"],
    [1546264,"2026-03-17 07:30:00","58020","1.429","5.426","2.8089999999999997","4.805","1017.5830000000001","12.5","61.02","NAN","0.0"],
    [1546265,"2026-03-17 07:40:00","58021","1.138","26.57","2.7110000000000003","63.32","1017.569","12.95","59.87","NAN","0.0"],
    [1546266,"2026-03-17 07:50:00","58022","1.011","10.14","2.221","10.75","1017.555","13.33","58.48","NAN","0.0"],
    [1546267,"2026-03-17 08:00:00","58023","0.958","18.54","2.483","6.8629999999999995","1017.553","13.8","56.66","NAN","0.0"],
    [1546268,"2026-03-17 08:10:00","58024","1.1840000000000002","4.978","2.94","8.77","1017.565","14.11","55.98","NAN","0.0"],
    [1546269,"2026-03-17 08:20:00","58025","1.091","26.97","2.319","41.79","1017.672","14.51","57.01","NAN","0.0"],
    [1546270,"2026-03-17 08:30:00","58026","1.723","49.03","2.907","25.88","1017.689","14.69","57.27","NAN","0.0"],
    [1546271,"2026-03-17 08:40:00","58027","0.88","26.37","2.123","34.04","1017.692","14.71","57.22","NAN","0.0"],
    [1546272,"2026-03-17 08:50:00","58028","0.92","49.0","2.156","73.25","1017.684","15.4","57.16","NAN","0.0"],
    [1546273,"2026-03-17 09:00:00","58029","1.224","57.55","2.385","67.68","1017.68","15.63","55.05","NAN","0.0"],
    [1546274,"2026-03-17 09:10:00","58030","1.365","74.69","2.45","64.44","1017.59","15.99","53.88","NAN","0.0"],
    [1546275,"2026-03-17 09:20:00","58031","0.945","66.75","2.5810000000000004","88.6","1017.565","16.46","52.39","NAN","0.0"],
    [1546276,"2026-03-17 09:30:00","58032","1.09","93.8","2.189","96.7","1017.59","16.79","51.7","NAN","0.0"],
    [1546277,"2026-03-17 09:40:00","58033","1.621","130.5","2.679","136.4","1017.6489999999999","15.91","62.59","NAN","0.0"],
    [1546278,"2026-03-17 09:50:00","58034","1.5959999999999999","121.5","2.7110000000000003","110.3","1017.625","15.66","67.02","NAN","0.0"],
    [1546279,"2026-03-17 10:00:00","58035","1.4","129.9","2.221","115.8","1017.62","15.41","70.94","NAN","0.0"],
    [1546280,"2026-03-17 10:10:00","58036","1.702","129.3","2.907","128.4","1017.59","15.31","72.62","NAN","0.0"],
    [1546281,"2026-03-17 10:20:00","58037","1.7819999999999998","129.4","3.136","112.6","1017.6239999999999","15.17","71.55","NAN","0.0"],
    [1546282,"2026-03-17 10:30:00","58038","1.825","114.3","3.267","97.7","1017.617","15.49","71.05","NAN","0.0"],
    [1546283,"2026-03-17 10:40:00","58039","1.464","118.7","2.907","146.1","1017.62","15.74","70.74","NAN","0.0"],
    [1546284,"2026-03-17 10:50:00","58040","1.632","115.4","3.103","139.5","1017.677","15.5","73.29","NAN","0.0"],
    [1546285,"2026-03-17 11:00:00","58041","1.655","108.3","3.234","88.7","1017.59","15.8","73.56","NAN","0.0"],
    [1546286,"2026-03-17 11:10:00","58042","2.272","109.7","3.7569999999999997","113.3","1017.547","15.4","76.28","NAN","0.0"],
    [1546287,"2026-03-17 11:20:00","58043","2.311","108.5","3.7569999999999997","102.4","1017.466","15.42","78.22","NAN","0.0"],
    [1546288,"2026-03-17 11:30:00","58044","1.8519999999999999","99.6","3.365","108.1","1017.4169999999999","15.65","80.7","NAN","0.0"],
    [1546289,"2026-03-17 11:40:00","58045","2.129","109.0","3.985","107.2","1017.318","15.47","81.8","NAN","0.0"],
    [1546290,"2026-03-17 11:50:00","58046","1.6269999999999998","94.6","2.94","77.43","1017.2360000000001","15.72","81.2","NAN","0.0"],
    [1546291,"2026-03-17 12:00:00","58047","1.797","104.3","3.593","68.8","1017.186","16.11","79.48","NAN","0.0"],
    [1546292,"2026-03-17 12:10:00","58048","2.015","90.5","3.593","97.6","1017.076","15.91","80","NAN","0.0"],
    [1546293,"2026-03-17 12:20:00","58049","1.9469999999999998","91.9","3.593","67.4","1016.94","15.86","80.9","NAN","0.0"],
    [1546294,"2026-03-17 12:30:00","58050","1.992","88.9","3.7889999999999997","73.01","1016.85","15.96","80.8","NAN","0.0"],
    [1546295,"2026-03-17 12:40:00","58051","1.831","118.0","3.495","125.4","1016.681","15.97","79.71","NAN","0.0"],
    [1546296,"2026-03-17 12:50:00","58052","2.025","112.7","3.495","124.2","1016.563","15.74","80.2","NAN","0.0"],
    [1546297,"2026-03-17 13:00:00","58053","2.028","113.1","4.018","93.3","1016.3969999999999","15.66","81.6","NAN","0.0"],
    [1546298,"2026-03-17 13:10:00","58054","1.6480000000000001","109.7","3.495","110.2","1016.232","15.83","80.8","NAN","0.0"],
    [1546299,"2026-03-17 13:20:00","58055","1.891","119.1","3.365","120.2","1016.135","16.01","80","NAN","0.0"],
    [1546300,"2026-03-17 13:30:00","58056","2.47","111.7","4.149","111.5","1015.953","15.63","81.2","NAN","0.0"],
    [1546301,"2026-03-17 13:40:00","58057","2.185","116.5","3.6910000000000003","118.7","1015.7760000000001","15.51","81.2","NAN","0.0"],
    [1546302,"2026-03-17 13:50:00","58058","1.695","110.5","3.1689999999999996","110.9","1015.697","15.87","80.5","NAN","0.0"],
    [1546303,"2026-03-17 14:00:00","58059","1.801","129.0","3.103","128.3","1015.567","15.99","79.36","NAN","0.0"],
    [1546304,"2026-03-17 14:10:00","58060","1.851","144.2","3.299","141.1","1015.445","15.7","81.2","NAN","0.0"],
    [1546305,"2026-03-17 14:20:00","58061","1.895","132.8","3.397","143.4","1015.298","15.71","81.2","NAN","0.0"],
    [1546306,"2026-03-17 14:30:00","58062","1.9140000000000001","120.5","3.299","104.4","1015.201","15.57","82.1","NAN","0.0"],
    [1546307,"2026-03-17 14:40:00","58063","1.6569999999999998","131.5","2.8089999999999997","144.1","1015.012","15.48","81.9","NAN","0.0"],
    [1546308,"2026-03-17 14:50:00","58064","1.315","117.4","2.548","119.0","1014.93","15.84","79.59","NAN","0.0"],
    [1546309,"2026-03-17 15:00:00","58065","1.6219999999999999","119.0","2.875","99.1","1014.855","15.87","78.51","NAN","0.0"],
    [1546310,"2026-03-17 15:10:00","58066","1.6569999999999998","127.6","2.7769999999999997","111.1","1014.7130000000001","15.62","80.4","NAN","0.0"],
    [1546311,"2026-03-17 15:20:00","58067","1.479","121.0","2.45","147.2","1014.688","15.4","78.09","NAN","0.0"],
    [1546312,"2026-03-17 15:30:00","58068","1.421","125.0","2.7110000000000003","114.2","1014.6060000000001","15.89","77.34","NAN","0.0"],
    [1546313,"2026-03-17 15:40:00","58069","1.649","127.0","3.299","127.9","1014.4839999999999","15.42","80.1","NAN","0.0"],
    [1546314,"2026-03-17 15:50:00","58070","1.188","124.9","2.352","138.5","1014.352","15.38","81.3","NAN","0.0"],
    [1546315,"2026-03-17 16:00:00","58071","1.515","122.4","2.613","119.9","1014.232","15.27","81.9","NAN","0.0"],
    [1546316,"2026-03-17 16:10:00","58072","1.625","125.9","2.6460000000000004","139.7","1014.203","15.15","82.8","NAN","0.0"],
    [1546317,"2026-03-17 16:20:00","58073","1.679","118.2","2.875","105.1","1014.203","14.96","84","NAN","0.0"],
    [1546318,"2026-03-17 16:30:00","58074","1.3119999999999998","129.1","2.221","161.4","1014.195","14.98","83.7","NAN","0.0"],
    [1546319,"2026-03-17 16:40:00","58075","1.128","134.4","2.123","138.7","1014.198","14.78","84.4","NAN","0.0"],
    [1546320,"2026-03-17 16:50:00","58076","1.6580000000000001","154.9","2.515","168.7","1014.203","14.77","83.9","NAN","0.0"],
    [1546321,"2026-03-17 17:00:00","58077","1.376","151.4","2.45","154.5","1014.2","14.66","83.2","NAN","0.0"],
    [1546322,"2026-03-17 17:10:00","58078","1.008","161.7","1.699","171.0","1014.203","14.89","77.85","NAN","0.0"],
    [1546323,"2026-03-17 17:20:00","58079","1.3259999999999998","124.6","2.221","142.2","1014.203","14.75","79.77","NAN","0.0"],
    [1546324,"2026-03-17 17:30:00","58080","1.1840000000000002","129.0","1.829","144.6","1014.203","14.42","81.6","NAN","0.0"],
    [1546325,"2026-03-17 17:40:00","58081","1.1179999999999999","122.4","1.797","119.9","1014.203","14.29","83.8","NAN","0.0"],
    [1546326,"2026-03-17 17:50:00","58082","1.025","130.3","1.666","141.4","1014.203","14.22","85.6","NAN","0.0"],
    [1546327,"2026-03-17 18:00:00","58083","0.8809999999999999","121.1","1.3719999999999999","104.6","1014.215","14.05","86.1","NAN","0.0"],
    [1546328,"2026-03-17 18:10:00","58084","1.047","121.6","1.699","110.1","1014.24","14.04","85.8","NAN","0.0"],
    [1546329,"2026-03-17 18:20:00","58085","0.997","130.5","1.7309999999999999","144.6","1014.3589999999999","14.03","87.1","NAN","0.0"],
    [1546330,"2026-03-17 18:30:00","58086","0.833","129.5","1.5030000000000001","145.0","1014.307","13.99","88.2","NAN","0.0"],
    [1546331,"2026-03-17 18:40:00","58087","0.757","150.6","1.5030000000000001","171.9","1014.3989999999999","13.94","88.9","NAN","0.0"],
    [1546332,"2026-03-17 18:50:00","58088","0.67","144.3","1.5030000000000001","157.9","1014.5169999999999","13.98","89.4","NAN","0.0"],
    [1546333,"2026-03-17 19:00:00","58089","0.61","139.8","1.274","158.6","1014.5219999999999","13.88","89.8","NAN","0.0"],
    [1546334,"2026-03-17 19:10:00","58090","0.9990000000000001","113.1","1.797","102.6","1014.5219999999999","13.82","90.3","NAN","0.0"],
    [1546335,"2026-03-17 19:20:00","58091","0.8290000000000001","118.2","1.47","107.3","1014.561","13.77","90.4","NAN","0.0"],
    [1546336,"2026-03-17 19:30:00","58092","0.295","100.1","1.339","113.0","1014.612","13.72","91","NAN","0.0"],
    [1546337,"2026-03-17 19:40:00","58093","0.6409999999999999","56.38","1.274","59.44","1014.7560000000001","13.65","91.7","NAN","0.0"],
    [1546338,"2026-03-17 19:50:00","58094","0.391","68.34","1.307","44.31","1014.738","13.65","91.5","NAN","0.0"],
    [1546339,"2026-03-17 20:00:00","58095","0.292","116.3","1.3719999999999999","113.2","1014.7180000000001","13.54","91.7","NAN","0.0"],
    [1546340,"2026-03-17 20:10:00","58096","0.521","76.44","1.143","65.04","1014.613","13.52","92","NAN","0.0"],
    [1546341,"2026-03-17 20:20:00","58097","0.374","74.7","0.8490000000000001","55.35","1014.492","13.48","92","NAN","0.0"],
    [1546342,"2026-03-17 20:30:00","58098","0.496","78.6","1.176","89.5","1014.4069999999999","13.38","92.1","NAN","0.0"],
    [1546343,"2026-03-17 20:40:00","58099","0.8009999999999999","96.3","1.47","67.45","1014.3689999999999","13.38","91.9","NAN","0.0"],
    [1546344,"2026-03-17 20:50:00","58100","0.446","73.37","1.339","64.21","1014.275","13.42","92","NAN","0.0"],
    [1546345,"2026-03-17 21:00:00","58101","0.7440000000000001","56.64","1.307","49.44","1014.2769999999999","13.36","92.4","NAN","0.0"],
    [1546346,"2026-03-17 21:10:00","58102","0.667","74.51","1.47","92.7","1014.273","13.4","92.9","NAN","0.0"],
    [1546347,"2026-03-17 21:20:00","58103","0.579","60.78","1.078","56.87","1014.2080000000001","13.37","93.9","NAN","0.0"],
    [1546348,"2026-03-17 21:30:00","58104","0.774","43.89","1.5030000000000001","42.86","1014.0260000000001","13.3","94.1","NAN","0.0"],
    [1546349,"2026-03-17 21:40:00","58105","0.27399999999999997","57.8","1.045","45.21","1014.012","13.21","93.5","NAN","0.0"],
    [1546350,"2026-03-17 21:50:00","58106","0.455","67.58","1.2409999999999999","57.42","1014.0110000000001","13.18","93.8","NAN","0.0"],
    [1546351,"2026-03-17 22:00:00","58107","0.6970000000000001","61.13","1.405","45.37","1013.929","13.2","94.1","NAN","0.0"],
    [1546352,"2026-03-17 22:10:00","58108","0.265","74.91","1.2409999999999999","86.1","1013.797","13.16","93.9","NAN","0.0"],
    [1546353,"2026-03-17 22:20:00","58109","0.657","51.38","1.3719999999999999","54.14","1013.716","13.12","94","NAN","0.0"],
    [1546354,"2026-03-17 22:30:00","58110","0.971","59.72","1.96","77.6","1013.6569999999999","13.1","94","NAN","0.0"],
    [1546355,"2026-03-17 22:40:00","58111","0.501","60.47","1.3719999999999999","68.35","1013.5989999999999","13.07","93.8","NAN","0.0"],
    [1546356,"2026-03-17 22:50:00","58112","0.6","60.32","1.797","58.16","1013.533","13.01","94","NAN","0.0"],
    [1546357,"2026-03-17 23:00:00","58113","0.5329999999999999","59.5","1.601","54.07","1013.529","12.9","94.1","NAN","0.0"],
    [1546358,"2026-03-17 23:10:00","58114","0.031","27.27","0.457","0.929","1013.414","12.85","94.1","NAN","0.0"],
    [1546359,"2026-03-17 23:20:00","58115","0.419","59.35","0.8170000000000001","62.07","1013.329","12.73","93.8","NAN","0.0"],
    [1546360,"2026-03-17 23:30:00","58116","0.16699999999999998","73.6","0.784","68.77","1013.2919999999999","12.55","93.8","NAN","0.0"],
    [1546361,"2026-03-17 23:40:00","58117","0.099","61.0","0.555","69.82","1013.296","12.25","94","NAN","0.0"],
    [1546362,"2026-03-17 23:50:00","58118","0.188","49.63","0.523","49.73","1013.195","12.15","91.5","NAN","0.0"],
    [1546363,"2026-03-18 00:00:00","58119","0.0","0.0","0.0","0.0","1013.0939999999999","12.23","87.5","NAN","0.0"],
    [1546364,"2026-03-18 00:10:00","58120","0.0","0.0","0.0","0.0","1013.044","12.38","89.3","NAN","0.0"],
    [1546365,"2026-03-18 00:20:00","58121","0.0","0.0","0.0","0.0","1013.005","12.25","91.6","NAN","0.0"],
    [1546366,"2026-03-18 00:30:00","58122","0.08","141.6","0.523","150.6","1012.928","12.05","92.5","NAN","0.0"],
    [1546367,"2026-03-18 00:40:00","58123","0.0","0.0","0.0","0.0","1012.919","11.95","92","NAN","0.0"],
    [1546368,"2026-03-18 00:50:00","58124","0.055999999999999994","176.6","0.49","181.1","1012.8430000000001","11.98","91.8","NAN","0.0"],
    [1546369,"2026-03-18 01:00:00","58125","0.37","208.9","0.8490000000000001","214.0","1012.807","11.93","92.9","NAN","0.0"],
    [1546370,"2026-03-18 01:10:00","58126","0.46399999999999997","200.5","0.8170000000000001","207.1","1012.693","12.14","94.6","NAN","0.0"],
    [1546371,"2026-03-18 01:20:00","58127","0.17300000000000001","211.9","0.7509999999999999","216.6","1012.566","12.12","95.5","NAN","0.0"],
    [1546372,"2026-03-18 01:30:00","58128","0.133","279.8","0.6859999999999999","284.6","1012.4739999999999","12.04","96","NAN","0.0"],
    [1546373,"2026-03-18 01:40:00","58129","0.0","0.0","0.0","0.0","1012.4060000000001","11.97","96.4","NAN","0.0"],
    [1546374,"2026-03-18 01:50:00","58130","0.048","280.3","0.588","269.1","1012.3489999999999","11.93","96.8","NAN","0.0"],
    [1546375,"2026-03-18 02:00:00","58131","0.535","44.73","1.307","31.29","1012.222","11.69","96.4","NAN","0.0"],
    [1546376,"2026-03-18 02:10:00","58132","0.376","24.49","1.143","14.88","1012.117","11.27","94.2","NAN","0.0"],
    [1546377,"2026-03-18 02:20:00","58133","0.165","24.59","1.013","17.8","1012.0930000000001","11.29","90.6","NAN","0.0"],
    [1546378,"2026-03-18 02:30:00","58134","0.522","27.68","1.045","38.18","1011.94","11.32","88.3","NAN","0.0"],
    [1546379,"2026-03-18 02:40:00","58135","0.496","18.9","1.405","10.87","1011.8510000000001","11.36","86.9","NAN","0.0"],
    [1546380,"2026-03-18 02:50:00","58136","0.39399999999999996","49.88","0.98","59.88","1011.801","11.26","86.8","NAN","0.0"],
    [1546381,"2026-03-18 03:00:00","58137","0.778","33.35","1.3719999999999999","13.51","1011.6439999999999","11.15","87.6","NAN","0.0"],
    [1546382,"2026-03-18 03:10:00","58138","0.5920000000000001","22.77","1.111","36.9","1011.5889999999999","11.2","86.9","NAN","0.0"],
    [1546383,"2026-03-18 03:20:00","58139","0.691","53.78","1.143","61.58","1011.467","11.21","86.4","NAN","0.0"],
    [1546384,"2026-03-18 03:30:00","58140","0.46","27.98","1.5030000000000001","20.46","1011.375","10.96","87","NAN","0.0"],
    [1546385,"2026-03-18 03:40:00","58141","0.843","10.34","1.764","17.3","1011.355","10.85","87.8","NAN","0.0"],
    [1546386,"2026-03-18 03:50:00","58142","0.627","26.91","1.8619999999999999","357.1","1011.313","10.87","88.4","NAN","0.0"],
    [1546387,"2026-03-18 04:00:00","58143","0.805","29.81","1.9269999999999998","6.563","1011.2560000000001","10.77","90","NAN","0.0"],
    [1546388,"2026-03-18 04:10:00","58144","0.675","11.85","1.4369999999999998","355.4","1011.293","10.76","90.7","NAN","0.0"],
    [1546389,"2026-03-18 04:20:00","58145","0.614","20.07","2.189","16.7","1011.345","10.77","91.3","NAN","0.0"],
    [1546390,"2026-03-18 04:30:00","58146","0.917","21.18","2.0580000000000003","351.1","1011.283","10.84","90.6","NAN","0.0"],
    [1546391,"2026-03-18 04:40:00","58147","0.948","13.72","1.9269999999999998","27.71","1011.315","10.9","90.1","NAN","0.0"],
    [1546392,"2026-03-18 04:50:00","58148","0.807","21.86","1.7309999999999999","23.99","1011.1560000000001","10.98","90.6","NAN","0.0"],
    [1546393,"2026-03-18 05:00:00","58149","0.95","9.53","2.483","12.31","1011.166","10.99","90.7","NAN","0.0"],
    [1546394,"2026-03-18 05:10:00","58150","1.235","11.07","2.8089999999999997","3.71","1011.1410000000001","11.13","90.5","NAN","0.0"],
    [1546395,"2026-03-18 05:20:00","58151","1.331","17.76","2.613","3.8760000000000003","1011.191","11.17","91.6","NAN","0.0"],
    [1546396,"2026-03-18 05:30:00","58152","0.996","24.11","2.352","39.28","1011.216","11.07","93.5","NAN","0.0"],
    [1546397,"2026-03-18 05:40:00","58153","1.042","17.09","2.483","17.5","1011.221","10.79","94.3","NAN","0.0"],
    [1546398,"2026-03-18 05:50:00","58154","1.575","38.8","2.613","13.56","1011.2919999999999","10.48","95.2","NAN","0.0"],
    [1546399,"2026-03-18 06:00:00","58155","1.055","12.88","2.319","36.68","1011.285","10.35","96.3","NAN","0.0"],
    [1546400,"2026-03-18 06:10:00","58156","0.831","4.178999999999999","2.156","4.902","1011.307","10.4","96.3","NAN","0.0"],
    [1546401,"2026-03-18 06:20:00","58157","1.311","6.563","2.875","15.24","1011.35","10.34","95.3","NAN","0.0"],
    [1546402,"2026-03-18 06:30:00","58158","1.666","4.877","2.7439999999999998","3.028","1011.34","10.27","94.2","NAN","0.0"],
    [1546403,"2026-03-18 06:40:00","58159","0.853","34.63","1.8619999999999999","39.75","1011.355","10.38","93.7","NAN","0.0"],
    [1546404,"2026-03-18 06:50:00","58160","1.44","8.21","2.842","353.6","1011.442","10.48","93.1","NAN","0.0"],
    [1546405,"2026-03-18 07:00:00","58161","1.4280000000000002","3.1689999999999996","2.907","7.114","1011.5239999999999","10.34","93.4","NAN","0.0"],
    [1546406,"2026-03-18 07:10:00","58162","1.694","2.861","2.5810000000000004","358.5","1011.579","10.26","92.3","NAN","0.0"],
    [1546407,"2026-03-18 07:20:00","58163","1.47","13.0","2.515","8.84","1011.6189999999999","10.37","90.8","NAN","0.0"],
    [1546408,"2026-03-18 07:30:00","58164","1.188","359.7","1.993","12.26","1011.571","10.67","90.3","NAN","0.0"],
    [1546409,"2026-03-18 07:40:00","58165","0.743","13.96","2.189","14.8","1011.6469999999999","11.27","89.3","NAN","0.0"],
    [1546410,"2026-03-18 07:50:00","58166","0.38","8.47","1.209","275.2","1011.717","11.67","88.2","NAN","0.0"],
    [1546411,"2026-03-18 08:00:00","58167","0.33899999999999997","9.49","1.143","334.3","1011.768","11.9","86.7","NAN","0.0"],
    [1546412,"2026-03-18 08:10:00","58168","0.358","340.6","1.209","32.32","1011.75","12.54","84.3","NAN","0.0"],
    [1546413,"2026-03-18 08:20:00","58169","0.645","93.0","1.5030000000000001","125.8","1011.682","13.08","82.1","NAN","0.0"],
    [1546414,"2026-03-18 08:30:00","58170","1.16","134.0","2.025","159.1","1011.712","12.83","83","NAN","0.0"],
    [1546415,"2026-03-18 08:40:00","58171","1.1740000000000002","129.8","1.895","133.9","1011.712","12.56","85.9","NAN","0.0"],
    [1546416,"2026-03-18 08:50:00","58172","1.446","132.3","2.287","124.7","1011.7139999999999","12.25","88.1","NAN","0.0"],
    [1546417,"2026-03-18 09:00:00","58173","1.554","135.4","2.9730000000000003","132.3","1011.712","12.27","88.6","NAN","0.0"],
    [1546418,"2026-03-18 09:10:00","58174","0.915","148.5","2.385","158.0","1011.7589999999999","12.13","89.5","NAN","0.0"],
    [1546419,"2026-03-18 09:20:00","58175","0.9309999999999999","103.6","2.483","79.86","1011.834","12.4","88.6","NAN","0.0"],
    [1546420,"2026-03-18 09:30:00","58176","0.715","92.6","2.0580000000000003","80.8","1011.836","12.84","86.2","NAN","0.0"],
    [1546421,"2026-03-18 09:40:00","58177","1.1320000000000001","83.5","2.352","60.81","1011.834","13.2","83.9","NAN","0.0"],
    [1546422,"2026-03-18 09:50:00","58178","1.306","106.0","2.7439999999999998","99.0","1011.831","13.19","83.4","NAN","0.0"],
    [1546423,"2026-03-18 10:00:00","58179","0.868","59.76","1.9269999999999998","81.3","1011.721","13.44","82.1","NAN","0.0"],
    [1546424,"2026-03-18 10:10:00","58180","0.7959999999999999","87.2","1.9269999999999998","98.4","1011.712","13.96","80.2","NAN","0.0"],
    [1546425,"2026-03-18 10:20:00","58181","1.3559999999999999","96.8","3.7569999999999997","112.6","1011.669","14.14","78.71","NAN","0.0"],
    [1546426,"2026-03-18 10:30:00","58182","1.5530000000000002","59.37","3.005","67.56","1011.607","14.4","77.89","NAN","0.0"],
    [1546427,"2026-03-18 10:40:00","58183","1.3430000000000002","97.9","3.495","117.2","1011.587","14.63","76.13","NAN","0.0"],
    [1546428,"2026-03-18 10:50:00","58184","1.683","102.1","3.5610000000000004","90.2","1011.465","14.3","77.82","NAN","0.0"],
    [1546429,"2026-03-18 11:00:00","58185","1.179","88.7","2.254","79.85","1011.428","14.57","77.19","NAN","0.0"],
    [1546430,"2026-03-18 11:10:00","58186","1.541","68.87","3.6260000000000003","75.27","1011.403","14.85","76.35","NAN","0.0"],
    [1546431,"2026-03-18 11:20:00","58187","1.611","92.1","3.103","89.6","1011.321","14.55","78.1","NAN","0.0"],
    [1546432,"2026-03-18 11:30:00","58188","1.4040000000000001","134.9","3.071","135.6","1011.2360000000001","14.41","77.25","NAN","0.0"],
    [1546433,"2026-03-18 11:40:00","58189","1.62","146.4","2.6460000000000004","141.4","1011.216","14.22","78.49","NAN","0.0"],
    [1546434,"2026-03-18 11:50:00","58190","1.178","120.9","2.548","146.2","1011.2139999999999","14.79","77.63","NAN","0.0"],
    [1546435,"2026-03-18 12:00:00","58191","1.767","91.5","2.842","67.34","1011.164","14.79","76.64","NAN","0.0"],
    [1546436,"2026-03-18 12:10:00","58192","1.459","106.5","3.103","154.1","1011.066","15","75.74","NAN","0.0"],
    [1546437,"2026-03-18 12:20:00","58193","1.729","105.0","3.299","84.5","1010.95","15","75.54","NAN","0.0"],
    [1546438,"2026-03-18 12:30:00","58194","1.743","105.3","3.495","106.5","1010.77","14.78","76.46","NAN","0.0"],
    [1546439,"2026-03-18 12:40:00","58195","1.715","106.6","3.005","99.0","1010.7130000000001","14.98","75.26","NAN","0.0"],
    [1546440,"2026-03-18 12:50:00","58196","1.801","100.8","3.6910000000000003","107.3","1010.548","15.09","75.57","NAN","0.0"],
    [1546441,"2026-03-18 13:00:00","58197","2.445","119.6","4.41","105.5","1010.3389999999999","14.75","76.18","NAN","0.0"],
    [1546442,"2026-03-18 13:10:00","58198","2.609","97.6","4.018","76.26","1010.232","14.74","76.49","NAN","0.0"],
    [1546443,"2026-03-18 13:20:00","58199","3.0460000000000003","77.99","4.312","73.52","1010.202","14.72","77.19","NAN","0.0"],
    [1546444,"2026-03-18 13:30:00","58200","2.477","87.2","4.573","64.89","1010.21","14.98","75.94","NAN","0.0"],
    [1546445,"2026-03-18 13:40:00","58201","1.9609999999999999","95.1","3.92","73.6","1010.13","15.26","73.75","NAN","0.0"],
    [1546446,"2026-03-18 13:50:00","58202","2.862","78.96","4.671","60.28","1010.058","15.53","71.63","NAN","0.0"],
    [1546447,"2026-03-18 14:00:00","58203","2.7680000000000002","81.1","5.815","70.32","1010.1669999999999","15.13","73.76","NAN","0.0"],
    [1546448,"2026-03-18 14:10:00","58204","2.6889999999999996","88.6","6.1739999999999995","104.7","1010.237","15.39","71.27","NAN","0.0"],
    [1546449,"2026-03-18 14:20:00","58205","2.6439999999999997","85.0","5.422999999999999","107.1","1010.34","15.35","71.42","NAN","0.0"],
    [1546450,"2026-03-18 14:30:00","58206","2.492","89.8","5.749","96.3","1010.466","15.37","72.82","NAN","0.0"],
    [1546451,"2026-03-18 14:40:00","58207","2.543","82.2","5.2589999999999995","78.32","1010.554","15.16","73.42","NAN","0.0"],
    [1546452,"2026-03-18 14:50:00","58208","3.177","91.1","6.664","82.0","1010.574","14.82","74.94","NAN","0.0"],
    [1546453,"2026-03-18 15:00:00","58209","3.674","88.0","6.5329999999999995","76.09","1010.681","14.62","76.17","NAN","0.0"],
    [1546454,"2026-03-18 15:10:00","58210","3.359","83.6","6.697","89.7","1010.763","14.8","76.57","NAN","0.0"],
    [1546455,"2026-03-18 15:20:00","58211","2.952","89.0","6.664","86.4","1010.872","14.66","78.14","NAN","0.0"],
    [1546456,"2026-03-18 15:30:00","58212","3.0410000000000004","88.4","5.619","102.2","1010.92","14.83","78.32","NAN","0.0"],
    [1546457,"2026-03-18 15:40:00","58213","3.2460000000000004","83.8","6.109","71.47","1011.084","14.96","77.6","NAN","0.0"],
    [1546458,"2026-03-18 15:50:00","58214","2.7760000000000002","84.7","6.109","92.2","1011.169","14.88","77.43","NAN","0.0"],
    [1546459,"2026-03-18 16:00:00","58215","3.448","82.7","6.011","64.13","1011.206","14.81","78.15","NAN","0.0"],
    [1546460,"2026-03-18 16:10:00","58216","2.519","87.9","5.194","84.7","1011.3330000000001","14.97","77.99","NAN","0.0"],
    [1546461,"2026-03-18 16:20:00","58217","3.345","82.6","6.239","79.83","1011.3530000000001","15.07","79.09","NAN","0.0"],
    [1546462,"2026-03-18 16:30:00","58218","3.0580000000000003","83.7","6.795","99.2","1011.51","15.06","79.3","NAN","0.0"],
    [1546463,"2026-03-18 16:40:00","58219","3.9139999999999997","82.5","7.709","79.07","1011.685","14.89","78.22","NAN","0.0"],
    [1546464,"2026-03-18 16:50:00","58220","3.173","79.13","6.697","87.8","1011.9860000000001","14.75","79.33","NAN","0.0"],
    [1546465,"2026-03-18 17:00:00","58221","4.056","78.17","8.17","75.16","1012.073","14.54","79.59","NAN","0.0"],
    [1546466,"2026-03-18 17:10:00","58222","3.483","75.8","7.775","45.9","1012.071","14.41","80.7","NAN","0.0"],
    [1546467,"2026-03-18 17:20:00","58223","3.571","76.27","7.807","63.64","1012.078","14.45","80.5","NAN","0.0"],
    [1546468,"2026-03-18 17:30:00","58224","3.592","81.3","8.46","63.81","1012.253","14.39","82.1","NAN","0.0"],
    [1546469,"2026-03-18 17:40:00","58225","3.4","81.8","7.742000000000001","92.6","1012.49","14.33","83.7","NAN","0.0"],
    [1546470,"2026-03-18 17:50:00","58226","3.83","70.74","8.53","86.1","1012.7","14.26","84.2","NAN","0.0"],
    [1546471,"2026-03-18 18:00:00","58227","4.599","67.95","9.44","74.38","1012.768","14.23","84.5","NAN","0.0"],
    [1546472,"2026-03-18 18:10:00","58228","4.595","67.1","9.08","70.19","1012.85","14.26","85.6","NAN","0.0"],
    [1546473,"2026-03-18 18:20:00","58229","4.896","67.28","9.87","65.17","1012.941","14.17","86","NAN","0.0"],
    [1546474,"2026-03-18 18:30:00","58230","5.287999999999999","69.06","9.08","75.73","1013.013","14.15","86.1","NAN","0.0"],
    [1546475,"2026-03-18 18:40:00","58231","6.075","69.05","9.44","79.03","1012.9119999999999","14.13","85.6","NAN","0.0"],
    [1546476,"2026-03-18 18:50:00","58232","4.933","67.34","8.3","70.93","1013.1239999999999","14.12","84.6","NAN","0.0"],
    [1546477,"2026-03-18 19:00:00","58233","4.55","68.68","9.38","66.05","1013.2660000000001","14.14","84.6","NAN","0.0"],
    [1546478,"2026-03-18 19:10:00","58234","3.86","66.79","7.218999999999999","53.95","1013.4060000000001","14.15","84.3","NAN","0.0"],
    [1546479,"2026-03-18 19:20:00","58235","2.605","65.52","6.729","67.29","1013.717","14.21","84.7","NAN","0.0"],
    [1546480,"2026-03-18 19:30:00","58236","2.613","72.76","5.619","68.19","1013.816","14.25","85.3","NAN","0.0"],
    [1546481,"2026-03-18 19:40:00","58237","4.17","75.05","10.03","81.3","1013.9580000000001","14.05","84.9","NAN","0.0"],
    [1546482,"2026-03-18 19:50:00","58238","4.659","83.6","9.41","78.69","1014.105","13.97","83","NAN","0.0"],
    [1546483,"2026-03-18 20:00:00","58239","4.393","86.2","8.56","76.9","1014.382","13.97","82.3","NAN","0.0"],
    [1546484,"2026-03-18 20:10:00","58240","4.1739999999999995","80.8","9.51","68.37","1014.605","13.87","81.2","NAN","0.0"],
    [1546485,"2026-03-18 20:20:00","58241","4.5360000000000005","84.7","7.938","85.4","1014.743","13.8","80.7","NAN","0.0"],
    [1546486,"2026-03-18 20:30:00","58242","3.728","73.68","7.481","88.7","1014.806","13.73","81.8","NAN","0.0"],
    [1546487,"2026-03-18 20:40:00","58243","3.569","82.4","7.252000000000001","80.5","1014.941","13.69","81","NAN","0.0"],
    [1546488,"2026-03-18 20:50:00","58244","3.772","77.23","7.317","86.4","1014.949","13.67","81.2","NAN","0.0"],
    [1546489,"2026-03-18 21:00:00","58245","3.4339999999999997","77.11","7.775","90.6","1015.0060000000001","13.65","80.9","NAN","0.0"],
    [1546490,"2026-03-18 21:10:00","58246","3.887","68.36","7.807","62.46","1015.065","13.63","80.2","NAN","0.0"],
    [1546491,"2026-03-18 21:20:00","58247","4.408","67.94","9.18","61.04","1015.122","13.57","79.56","NAN","0.0"],
    [1546492,"2026-03-18 21:30:00","58248","3.4010000000000002","71.66","6.957999999999999","66.53","1015.296","13.56","79.75","NAN","0.0"],
    [1546493,"2026-03-18 21:40:00","58249","3.781","76.27","7.187","68.2","1015.393","13.58","78.26","NAN","0.0"],
    [1546494,"2026-03-18 21:50:00","58250","3.705","79.43","7.938","76.42","1015.54","13.63","76.31","NAN","0.0"],
    [1546495,"2026-03-18 22:00:00","58251","4.115","66.75","8.07","72.91","1015.543","13.61","73.99","NAN","0.0"],
    [1546496,"2026-03-18 22:10:00","58252","3.475","72.72","7.971","72.78","1015.628","13.61","73.42","NAN","0.0"],
    [1546497,"2026-03-18 22:20:00","58253","3.805","74.89","8.4","76.53","1015.679","13.62","72.97","NAN","0.0"],
    [1546498,"2026-03-18 22:30:00","58254","4.32","68.68","9.8","83.0","1015.73","13.56","72.28","NAN","0.0"],
    [1546499,"2026-03-18 22:40:00","58255","4.023","69.34","7.84","61.44","1015.814","13.53","72.72","NAN","0.0"],
    [1546500,"2026-03-18 22:50:00","58256","4.287","67.65","9.18","70.25","1015.8969999999999","13.47","74.1","NAN","0.0"],
    [1546501,"2026-03-18 23:00:00","58257","3.8819999999999997","73.0","7.579","90.5","1016.0360000000001","13.14","78.66","NAN","0.0"],
    [1546502,"2026-03-18 23:10:00","58258","3.97","78.55","8.46","97.5","1016.211","13.18","76.04","NAN","0.0"],
    [1546503,"2026-03-18 23:20:00","58259","3.7889999999999997","78.46","7.775","87.8","1016.25","13.28","73.65","NAN","0.0"],
    [1546504,"2026-03-18 23:30:00","58260","4.004","83.1","7.807","83.3","1016.265","13.32","72.17","NAN","0.0"],
    [1546505,"2026-03-18 23:40:00","58261","4.189","83.1","8.85","91.7","1016.298","13.35","69.7","NAN","0.0"],
    [1546506,"2026-03-18 23:50:00","58262","3.674","80.0","7.0889999999999995","78.52","1016.323","13.38","68.62","NAN","0.0"],
    [1546507,"2026-03-19 00:00:00","58263","4.507","83.3","8.07","91.4","1016.303","13.42","67.73","NAN","0.0"],
    [1546508,"2026-03-19 00:10:00","58264","4.258","81.5","8.4","84.1","1016.37","13.43","67.74","NAN","0.0"],
    [1546509,"2026-03-19 00:20:00","58265","3.5060000000000002","71.72","7.481","67.98","1016.425","13.41","67.59","NAN","0.0"],
    [1546510,"2026-03-19 00:30:00","58266","3.557","67.21","6.435","71.78","1016.5269999999999","13.4","66.78","NAN","0.0"],
    [1546511,"2026-03-19 00:40:00","58267","3.819","70.22","7.023","79.67","1016.707","13.41","67.08","NAN","0.0"],
    [1546512,"2026-03-19 00:50:00","58268","4.063","66.65","8.59","67.91","1016.7560000000001","13.41","67.49","NAN","0.0"],
    [1546513,"2026-03-19 01:00:00","58269","3.4010000000000002","76.92","7.154","76.69","1016.7810000000001","13.43","69.37","NAN","0.0"],
    [1546514,"2026-03-19 01:10:00","58270","3.946","66.17","8.23","67.08","1016.7660000000001","13.44","68.11","NAN","0.0"],
    [1546515,"2026-03-19 01:20:00","58271","3.1060000000000003","70.12","7.0889999999999995","78.6","1016.7610000000001","13.44","70.33","NAN","0.0"],
    [1546516,"2026-03-19 01:30:00","58272","4.255","67.82","8.82","76.27","1016.738","13.41","69.73","NAN","0.0"],
    [1546517,"2026-03-19 01:40:00","58273","2.81","69.36","6.697","68.3","1016.671","13.41","69.25","NAN","0.0"],
    [1546518,"2026-03-19 01:50:00","58274","3.3510000000000004","70.3","7.579","61.71","1016.6339999999999","13.39","69.41","NAN","0.0"],
    [1546519,"2026-03-19 02:00:00","58275","2.8280000000000003","72.93","6.7620000000000005","47.91","1016.659","13.39","68.47","NAN","0.0"],
    [1546520,"2026-03-19 02:10:00","58276","2.971","74.93","5.684","79.62","1016.6060000000001","13.41","69.47","NAN","0.0"],
    [1546521,"2026-03-19 02:20:00","58277","2.9960000000000004","77.4","6.239","83.5","1016.5269999999999","13.41","70.21","NAN","0.0"],
    [1546522,"2026-03-19 02:30:00","58278","2.764","76.1","5.4879999999999995","82.1","1016.3919999999999","13.39","70.82","NAN","0.0"],
    [1546523,"2026-03-19 02:40:00","58279","3.057","71.8","6.239","99.7","1016.37","13.38","70.18","NAN","0.0"],
    [1546524,"2026-03-19 02:50:00","58280","3.236","67.29","6.239","71.75","1016.3430000000001","13.38","69.52","NAN","0.0"],
    [1546525,"2026-03-19 03:00:00","58281","3.0380000000000003","77.16","6.468","72.03","1016.347","13.38","69.27","NAN","0.0"],
    [1546526,"2026-03-19 03:10:00","58282","2.886","68.14","5.619","43.86","1016.265","13.34","68.74","NAN","0.0"],
    [1546527,"2026-03-19 03:20:00","58283","2.6630000000000003","82.0","5.455","55.34","1016.283","13.35","69.68","NAN","0.0"],
    [1546528,"2026-03-19 03:30:00","58284","4.118","65.29","7.905","57.26","1016.27","13.18","69.53","NAN","0.0"],
    [1546529,"2026-03-19 03:40:00","58285","3.955","70.62","7.35","66.32","1016.23","13.17","69.94","NAN","0.0"],
    [1546530,"2026-03-19 03:50:00","58286","2.424","54.57","6.599","59.49","1016.2080000000001","13.3","69.85","NAN","0.0"],
    [1546531,"2026-03-19 04:00:00","58287","2.847","41.19","5.4879999999999995","69.06","1016.133","13.07","69.21","NAN","0.0"],
    [1546532,"2026-03-19 04:10:00","58288","2.4659999999999997","44.42","5.325","51.38","1016.143","13.01","69.12","NAN","0.0"],
    [1546533,"2026-03-19 04:20:00","58289","1.7819999999999998","52.15","4.018","32.38","1016.0160000000001","12.98","69.47","NAN","0.0"],
    [1546534,"2026-03-19 04:30:00","58290","2.374","65.2","4.9","65.72","1015.936","12.92","70.93","NAN","0.0"],
    [1546535,"2026-03-19 04:40:00","58291","2.4930000000000003","68.05","6.501","70.8","1015.8789999999999","12.91","70.1","NAN","0.0"],
    [1546536,"2026-03-19 04:50:00","58292","2.423","45.81","5.684","37.39","1015.927","12.84","69","NAN","0.0"],
    [1546537,"2026-03-19 05:00:00","58293","1.983","46.3","5.422999999999999","71.44","1016.0160000000001","12.71","68.72","NAN","0.0"],
    [1546538,"2026-03-19 05:10:00","58294","2.5580000000000003","40.82","5.422999999999999","30.15","1016.1089999999999","12.69","68.29","NAN","0.0"],
    [1546539,"2026-03-19 05:20:00","58295","2.6639999999999997","41.06","5.2589999999999995","30.85","1016.2260000000001","12.65","68.08","NAN","0.0"],
    [1546540,"2026-03-19 05:30:00","58296","2.248","45.96","4.247","49.41","1016.265","12.6","67.91","NAN","0.0"],
    [1546541,"2026-03-19 05:40:00","58297","1.4609999999999999","41.29","3.1689999999999996","15.62","1016.2689999999999","12.51","67.99","NAN","0.0"],
    [1546542,"2026-03-19 05:50:00","58298","1.9769999999999999","39.67","4.345","56.58","1016.2710000000001","12.45","67.54","NAN","0.0"],
    [1546543,"2026-03-19 06:00:00","58299","2.3080000000000003","35.75","4.998","62.4","1016.2739999999999","12.48","66.6","NAN","0.0"],
    [1546544,"2026-03-19 06:10:00","58300","1.671","37.07","3.6260000000000003","59.92","1016.3539999999999","12.43","66.19","NAN","0.0"],
    [1546545,"2026-03-19 06:20:00","58301","1.337","33.8","2.907","29.55","1016.4760000000001","12.31","66.2","NAN","0.0"],
    [1546546,"2026-03-19 06:30:00","58302","1.524","33.86","3.005","14.88","1016.648","12.34","65.61","NAN","0.0"],
    [1546547,"2026-03-19 06:40:00","58303","1.374","30.97","3.299","54.71","1016.688","12.51","64.79","NAN","0.0"],
    [1546548,"2026-03-19 06:50:00","58304","1.319","35.05","2.613","51.77","1016.752","12.76","63.84","NAN","0.0"],
    [1546549,"2026-03-19 07:00:00","58305","1.841","40.12","3.463","25.63","1016.821","12.92","63.7","NAN","0.0"],
    [1546550,"2026-03-19 07:10:00","58306","1.944","44.21","4.1160000000000005","49.47","1016.898","13.14","64.03","NAN","0.0"],
    [1546551,"2026-03-19 07:20:00","58307","1.8940000000000001","54.44","4.181","37.31","1016.9739999999999","13.54","64.2","NAN","0.0"],
    [1546552,"2026-03-19 07:30:00","58308","2.121","47.87","4.2139999999999995","48.47","1016.988","13.72","63.67","NAN","0.0"],
    [1546553,"2026-03-19 07:40:00","58309","2.439","51.46","4.933","61.2","1017.033","13.78","63.19","NAN","0.0"],
    [1546554,"2026-03-19 07:50:00","58310","2.819","52.87","6.0760000000000005","87.5","1017.199","13.95","62.43","NAN","0.0"],
    [1546555,"2026-03-19 08:00:00","58311","1.719","51.47","4.247","55.1","1017.409","14.15","60.88","NAN","0.0"],
    [1546556,"2026-03-19 08:10:00","58312","1.6909999999999998","41.67","3.495","48.84","1017.597","14.51","59.14","NAN","0.0"],
    [1546557,"2026-03-19 08:20:00","58313","2.76","58.29","6.042999999999999","74.32","1017.7439999999999","14.16","60.67","NAN","0.0"],
    [1546558,"2026-03-19 08:30:00","58314","2.115","46.75","4.638999999999999","27.06","1017.8689999999999","14.01","62.22","NAN","0.0"],
    [1546559,"2026-03-19 08:40:00","58315","2.335","52.12","5.227","59.6","1017.926","14.05","63.96","NAN","0.0"],
    [1546560,"2026-03-19 08:50:00","58316","2.359","53.76","5.1610000000000005","70.59","1017.941","14.11","65.38","NAN","0.0"],
    [1546561,"2026-03-19 09:00:00","58317","1.913","60.58","5.1610000000000005","61.79","1018.091","14.41","65.52","NAN","0.0"],
    [1546562,"2026-03-19 09:10:00","58318","2.623","65.22","6.0760000000000005","74.88","1018.173","14.69","65.48","NAN","0.0"],
    [1546563,"2026-03-19 09:20:00","58319","2.381","55.59","6.501","30.77","1018.19","14.18","66.9","NAN","0.0"],
    [1546564,"2026-03-19 09:30:00","58320","2.333","60.8","5.912999999999999","63.14","1018.19","13.5","70.44","NAN","0.0"],
    [1546565,"2026-03-19 09:40:00","58321","2.532","67.55","4.704","61.61","1018.17","13.45","70.59","NAN","0.0"],
    [1546566,"2026-03-19 09:50:00","58322","2.024","63.45","3.7889999999999997","51.72","1018.168","13.71","68.38","NAN","0.0"],
    [1546567,"2026-03-19 10:00:00","58323","1.892","63.05","4.149","85.3","1018.188","13.82","69.07","NAN","0.0"],
    [1546568,"2026-03-19 10:10:00","58324","3.0669999999999997","72.76","5.39","72.4","1018.183","13.73","70.23","NAN","0.0"],
    [1546569,"2026-03-19 10:20:00","58325","2.818","71.63","5.619","45.43","1018.188","13.83","69.92","NAN","0.0"],
    [1546570,"2026-03-19 10:30:00","58326","2.219","71.84","4.933","73.52","1018.188","14.03","70.03","NAN","0.0"],
    [1546571,"2026-03-19 10:40:00","58327","2.8789999999999996","75.96","5.553","68.6","1018.185","14.21","69.6","NAN","0.0"],
    [1546572,"2026-03-19 10:50:00","58328","3.1519999999999997","77.97","5.1610000000000005","85.9","1018.188","14.33","69.29","NAN","0.0"],
    [1546573,"2026-03-19 11:00:00","58329","2.792","77.38","5.684","68.25","1018.183","14.71","67.11","NAN","0.0"],
    [1546574,"2026-03-19 11:10:00","58330","3.221","77.69","6.795","69.54","1018.183","15.14","64.47","NAN","0.0"],
    [1546575,"2026-03-19 11:20:00","58331","3.74","78.89","6.37","74.61","1018.143","14.87","64.76","NAN","0.0"],
    [1546576,"2026-03-19 11:30:00","58332","3.3710000000000004","77.72","6.827000000000001","85.4","1018.175","14.84","64.68","NAN","0.0"],
    [1546577,"2026-03-19 11:40:00","58333","3.353","83.8","6.86","68.62","1018.21","15.55","61.18","NAN","0.0"],
    [1546578,"2026-03-19 11:50:00","58334","3.5210000000000004","79.28","6.0760000000000005","88.2","1018.188","15.07","62.83","NAN","0.0"],
    [1546579,"2026-03-19 12:00:00","58335","3.1069999999999998","80.6","5.651","73.49","1018.188","14.6","63.69","NAN","0.0"],
    [1546580,"2026-03-19 12:10:00","58336","3.055","79.91","5.063","87.6","1018.175","14.51","64.61","NAN","0.0"],
    [1546581,"2026-03-19 12:20:00","58337","2.573","73.95","5.422999999999999","74.01","1018.158","14.58","65.05","NAN","0.0"],
    [1546582,"2026-03-19 12:30:00","58338","1.788","56.31","4.508","49.92","1018.185","14.81","64.36","NAN","0.0"],
    [1546583,"2026-03-19 12:40:00","58339","2.306","74.99","4.9","85.4","1018.17","14.84","63.84","NAN","0.0"],
    [1546584,"2026-03-19 12:50:00","58340","2.074","70.67","4.998","71.09","1018.013","14.92","63.53","NAN","0.0"],
    [1546585,"2026-03-19 13:00:00","58341","2.043","78.78","4.149","85.2","1017.8430000000001","15.21","63.31","NAN","0.0"],
    [1546586,"2026-03-19 13:10:00","58342","2.46","76.0","4.835","58.85","1017.687","15.37","63.33","NAN","0.0"],
    [1546587,"2026-03-19 13:20:00","58343","3.377","79.79","6.141","80.1","1017.577","15","63.92","NAN","0.0"],
    [1546588,"2026-03-19 13:30:00","58344","2.2840000000000003","70.66","6.207000000000001","69.77","1017.485","14.61","65.61","NAN","0.0"],
    [1546589,"2026-03-19 13:40:00","58345","2.036","57.75","4.083","52.6","1017.44","14.57","65.08","NAN","0.0"],
    [1546590,"2026-03-19 13:50:00","58346","1.501","60.62","3.7569999999999997","68.08","1017.4","14.51","64.95","NAN","0.0"],
    [1546591,"2026-03-19 14:00:00","58347","2.129","48.51","4.638999999999999","29.8","1017.318","14.47","64.39","NAN","0.0"],
    [1546592,"2026-03-19 14:10:00","58348","2.523","57.21","5.096","62.15","1017.243","14.32","63.7","NAN","0.0"],
    [1546593,"2026-03-19 14:20:00","58349","1.8519999999999999","49.55","4.247","40.53","1017.201","14.31","63.87","NAN","0.0"],
    [1546594,"2026-03-19 14:30:00","58350","1.851","54.81","4.541","21.21","1017.191","14.41","63.71","NAN","0.0"],
    [1546595,"2026-03-19 14:40:00","58351","3.02","52.01","5.455","59.75","1017.0989999999999","14.26","63.93","NAN","0.0"],
    [1546596,"2026-03-19 14:50:00","58352","2.313","60.28","4.802","63.77","1016.945","14.34","64.12","NAN","0.0"],
    [1546597,"2026-03-19 15:00:00","58353","2.772","60.14","5.194","58.37","1016.885","14.41","63.99","NAN","0.0"],
    [1546598,"2026-03-19 15:10:00","58354","1.642","55.82","4.083","49.48","1016.795","14.59","63.55","NAN","0.0"],
    [1546599,"2026-03-19 15:20:00","58355","2.81","60.87","5.2589999999999995","69.38","1016.74","14.55","63.72","NAN","0.0"],
    [1546600,"2026-03-19 15:30:00","58356","2.3930000000000002","60.92","4.737","46.41","1016.69","14.5","64.43","NAN","0.0"],
    [1546601,"2026-03-19 15:40:00","58357","2.41","52.33","4.867","60.06","1016.669","14.63","63.77","NAN","0.0"],
    [1546602,"2026-03-19 15:50:00","58358","2.037","54.47","3.9530000000000003","52.44","1016.686","14.5","64.72","NAN","0.0"],
    [1546603,"2026-03-19 16:00:00","58359","2.082","53.37","4.671","73.33","1016.691","14.62","64.6","NAN","0.0"],
    [1546604,"2026-03-19 16:10:00","58360","1.825","59.17","4.541","68.3","1016.693","14.5","65.41","NAN","0.0"],
    [1546605,"2026-03-19 16:20:00","58361","2.392","58.11","4.933","59.72","1016.691","14.46","65.87","NAN","0.0"],
    [1546606,"2026-03-19 16:30:00","58362","2.217","54.08","4.638999999999999","37.64","1016.628","14.27","66.24","NAN","0.0"],
    [1546607,"2026-03-19 16:40:00","58363","2.202","47.0","4.083","45.03","1016.6039999999999","14.28","65.86","NAN","0.0"],
    [1546608,"2026-03-19 16:50:00","58364","1.7790000000000001","69.26","4.737","91.1","1016.6310000000001","14.52","65.53","NAN","0.0"],
    [1546609,"2026-03-19 17:00:00","58365","1.98","66.02","4.051","93.7","1016.6010000000001","14.39","65.88","NAN","0.0"],
    [1546610,"2026-03-19 17:10:00","58366","1.472","55.92","2.9730000000000003","34.18","1016.695","14.12","67.08","NAN","0.0"],
    [1546611,"2026-03-19 17:20:00","58367","2.2319999999999998","77.76","5.096","89.5","1016.785","14.06","68.56","NAN","0.0"],
    [1546612,"2026-03-19 17:30:00","58368","2.285","73.28","4.998","72.43","1016.93","14.01","68.37","NAN","0.0"],
    [1546613,"2026-03-19 17:40:00","58369","2.594","71.82","4.312","76.88","1016.949","13.95","68.82","NAN","0.0"],
    [1546614,"2026-03-19 17:50:00","58370","2.818","70.89","4.769","69.35","1016.962","13.9","68.3","NAN","0.0"],
    [1546615,"2026-03-19 18:00:00","58371","1.935","74.59","4.606","64.27","1016.987","13.88","69.14","NAN","0.0"],
    [1546616,"2026-03-19 18:10:00","58372","2.008","66.0","4.606","63.19","1017.066","13.84","69.46","NAN","0.0"],
    [1546617,"2026-03-19 18:20:00","58373","1.015","48.93","2.123","83.8","1017.163","13.77","69.36","NAN","0.0"],
    [1546618,"2026-03-19 18:30:00","58374","1.296","45.26","3.267","26.16","1017.2289999999999","13.71","68.79","NAN","0.0"],
    [1546619,"2026-03-19 18:40:00","58375","1.175","45.96","2.287","19.74","1017.2489999999999","13.65","68.31","NAN","0.0"],
    [1546620,"2026-03-19 18:50:00","58376","1.285","43.09","2.548","59.31","1017.262","13.6","67.47","NAN","0.0"],
    [1546621,"2026-03-19 19:00:00","58377","1.3230000000000002","38.79","3.005","46.01","1017.262","13.57","66.67","NAN","0.0"],
    [1546622,"2026-03-19 19:10:00","58378","1.396","46.74","2.417","40.05","1017.262","13.54","65.98","NAN","0.0"],
    [1546623,"2026-03-19 19:20:00","58379","0.9059999999999999","45.21","2.0580000000000003","71.61","1017.262","13.44","66.19","NAN","0.0"],
    [1546624,"2026-03-19 19:30:00","58380","1.135","42.47","2.287","33.13","1017.262","13.37","66.18","NAN","0.0"],
    [1546625,"2026-03-19 19:40:00","58381","1.177","43.38","2.254","18.81","1017.2639999999999","13.37","66.12","NAN","0.0"],
    [1546626,"2026-03-19 19:50:00","58382","0.812","38.78","1.568","41.4","1017.309","13.32","66.58","NAN","0.0"],
    [1546627,"2026-03-19 20:00:00","58383","0.6459999999999999","31.02","1.666","26.95","1017.3860000000001","13.25","66.54","NAN","0.0"],
    [1546628,"2026-03-19 20:10:00","58384","0.188","31.33","1.143","4.404","1017.449","13.12","67","NAN","0.0"],
    [1546629,"2026-03-19 20:20:00","58385","0.353","17.31","1.013","35.58","1017.5110000000001","13.02","67.22","NAN","0.0"],
    [1546630,"2026-03-19 20:30:00","58386","0.706","5.837000000000001","1.3719999999999999","2.98","1017.596","13.12","66.58","NAN","0.0"],
    [1546631,"2026-03-19 20:40:00","58387","0.58","25.08","1.274","13.45","1017.638","13.07","66.87","NAN","0.0"],
    [1546632,"2026-03-19 20:50:00","58388","0.518","39.97","1.078","2.98","1017.643","12.88","67.68","NAN","0.0"],
    [1546633,"2026-03-19 21:00:00","58389","0.795","38.68","1.8619999999999999","19.77","1017.6360000000001","12.78","68.05","NAN","0.0"],
    [1546634,"2026-03-19 21:10:00","58390","0.6859999999999999","33.56","1.895","16.8","1017.6489999999999","12.72","68.11","NAN","0.0"],
    [1546635,"2026-03-19 21:20:00","58391","0.833","19.66","2.319","15.59","1017.673","12.65","68.45","NAN","0.0"],
    [1546636,"2026-03-19 21:30:00","58392","0.547","15.83","1.666","22.38","1017.689","12.53","69.25","NAN","0.0"],
    [1546637,"2026-03-19 21:40:00","58393","0.718","17.64","2.0580000000000003","6.6160000000000005","1017.738","12.52","69.3","NAN","0.0"],
    [1546638,"2026-03-19 21:50:00","58394","1.025","15.55","2.45","13.88","1017.7689999999999","12.49","69.28","NAN","0.0"],
    [1546639,"2026-03-19 22:00:00","58395","0.792","16.14","2.156","12.26","1017.78","12.46","69.56","NAN","0.0"],
    [1546640,"2026-03-19 22:10:00","58396","0.773","24.16","1.895","8.73","1017.6519999999999","12.32","70.46","NAN","0.0"],
    [1546641,"2026-03-19 22:20:00","58397","0.8909999999999999","17.94","2.287","355.9","1017.612","12.14","71.4","NAN","0.0"],
    [1546642,"2026-03-19 22:30:00","58398","0.8490000000000001","43.83","1.829","9.98","1017.56","12.05","71.86","NAN","0.0"],
    [1546643,"2026-03-19 22:40:00","58399","1.244","18.87","3.071","8.83","1017.538","11.92","72.31","NAN","0.0"],
    [1546644,"2026-03-19 22:50:00","58400","1.6130000000000002","9.36","2.9730000000000003","17.02","1017.453","11.94","71.14","NAN","0.0"],
    [1546645,"2026-03-19 23:00:00","58401","1.042","12.38","2.221","3.68","1017.5360000000001","11.87","70.57","NAN","0.0"],
    [1546646,"2026-03-19 23:10:00","58402","1.112","16.01","2.613","13.18","1017.554","11.77","69.72","NAN","0.0"],
    [1546647,"2026-03-19 23:20:00","58403","1.006","16.7","2.221","4.454","1017.462","11.61","69.83","NAN","0.0"],
    [1546648,"2026-03-19 23:30:00","58404","1.2930000000000001","16.31","2.94","20.86","1017.4110000000001","11.54","69.72","NAN","0.0"],
    [1546649,"2026-03-19 23:40:00","58405","1.1840000000000002","18.6","2.842","358.9","1017.331","11.45","69.78","NAN","0.0"],
    [1546650,"2026-03-19 23:50:00","58406","1.005","27.37","2.8089999999999997","22.06","1017.279","11.21","70.31","NAN","0.0"],
    [1546651,"2026-03-20 00:00:00","58407","1.185","14.25","3.103","15.01","1017.135","11.09","70.25","NAN","0.0"],
    [1546652,"2026-03-20 00:10:00","58408","1.263","11.66","2.5810000000000004","9.37","1017.0830000000001","11.1","69.74","NAN","0.0"],
    [1546653,"2026-03-20 00:20:00","58409","1.13","20.23","2.025","22.99","1017.038","11.12","69.21","NAN","0.0"],
    [1546654,"2026-03-20 00:30:00","58410","1.167","22.15","2.842","28.44","1016.959","11.16","68.16","NAN","0.0"],
    [1546655,"2026-03-20 00:40:00","58411","1.11","10.45","2.385","25.23","1016.8660000000001","11.12","67.45","NAN","0.0"],
    [1546656,"2026-03-20 00:50:00","58412","1.1340000000000001","17.29","3.005","1.76","1016.834","11.15","66.38","NAN","0.0"],
    [1546657,"2026-03-20 01:00:00","58413","1.225","18.65","2.7110000000000003","16.36","1016.829","11","66.29","NAN","0.0"],
    [1546658,"2026-03-20 01:10:00","58414","1.649","9.3","3.136","6.388999999999999","1016.829","10.92","65.89","NAN","0.0"],
    [1546659,"2026-03-20 01:20:00","58415","1.5530000000000002","2.267","3.332","16.17","1016.7660000000001","10.83","65.8","NAN","0.0"],
    [1546660,"2026-03-20 01:30:00","58416","1.541","9.07","3.071","14.36","1016.62","10.79","64.78","NAN","0.0"],
    [1546661,"2026-03-20 01:40:00","58417","1.2990000000000002","3.932","3.0380000000000003","6.68","1016.585","10.83","62.9","NAN","0.0"],
    [1546662,"2026-03-20 01:50:00","58418","0.9740000000000001","7.877999999999999","2.8089999999999997","46.06","1016.5219999999999","10.78","62.42","NAN","0.0"],
    [1546663,"2026-03-20 02:00:00","58419","1.173","6.016","2.156","31.45","1016.388","10.66","61.99","NAN","0.0"],
    [1546664,"2026-03-20 02:10:00","58420","1.5590000000000002","9.47","2.94","11.2","1016.313","10.72","60.5","NAN","0.0"],
    [1546665,"2026-03-20 02:20:00","58421","1.2409999999999999","13.35","2.9730000000000003","36.12","1016.191","10.67","59.85","NAN","0.0"],
    [1546666,"2026-03-20 02:30:00","58422","1.214","12.59","2.875","16.16","1016.059","10.45","60.24","NAN","0.0"],
    [1546667,"2026-03-20 02:40:00","58423","1.462","11.36","3.0380000000000003","17.66","1016.012","10.45","59.62","NAN","0.0"],
    [1546668,"2026-03-20 02:50:00","58424","0.889","15.22","2.254","26.63","1015.924","10.38","59.56","NAN","0.0"],
    [1546669,"2026-03-20 03:00:00","58425","0.833","14.22","1.895","3.406","1015.8430000000001","10.22","59.96","NAN","0.0"],
    [1546670,"2026-03-20 03:10:00","58426","1.053","12.42","2.123","30.14","1015.954","10.27","59.52","NAN","0.0"],
    [1546671,"2026-03-20 03:20:00","58427","0.779","24.46","2.0580000000000003","7.319","1015.957","10.18","59.86","NAN","0.0"],
    [1546672,"2026-03-20 03:30:00","58428","0.963","23.44","1.8619999999999999","16.79","1015.937","10.12","59.7","NAN","0.0"],
    [1546673,"2026-03-20 03:40:00","58429","1.095","19.02","2.7439999999999998","342.0","1015.84","10.16","58.4","NAN","0.0"],
    [1546674,"2026-03-20 03:50:00","58430","1.16","11.91","2.483","5.881","1015.905","10.26","57.41","NAN","0.0"],
    [1546675,"2026-03-20 04:00:00","58431","1.329","10.67","2.548","2.122","1015.957","10.31","56.44","NAN","0.0"],
    [1546676,"2026-03-20 04:10:00","58432","1.3359999999999999","8.55","2.45","4.791","1015.9739999999999","10.29","56.55","NAN","0.0"],
    [1546677,"2026-03-20 04:20:00","58433","1.061","11.01","1.993","25.59","1015.977","10.28","56.38","NAN","0.0"],
    [1546678,"2026-03-20 04:30:00","58434","1.2409999999999999","14.22","2.907","13.03","1016.0239999999999","10.3","55.7","NAN","0.0"],
    [1546679,"2026-03-20 04:40:00","58435","1.113","22.51","2.907","358.1","1016.034","10.25","55.19","NAN","0.0"],
    [1546680,"2026-03-20 04:50:00","58436","0.938","17.93","2.5810000000000004","3.878","1016.079","10.21","54.93","NAN","0.0"],
    [1546681,"2026-03-20 05:00:00","58437","1.02","13.18","2.842","15.03","1016.086","10.15","54.51","NAN","0.0"],
    [1546682,"2026-03-20 05:10:00","58438","1.124","12.23","2.5810000000000004","32.51","1016.176","10.27","53.75","NAN","0.0"],
    [1546683,"2026-03-20 05:20:00","58439","0.996","25.94","2.352","8.97","1016.196","10.3","53.25","NAN","0.0"],
    [1546684,"2026-03-20 05:30:00","58440","0.8170000000000001","17.84","1.797","349.3","1016.221","10.06","54.07","NAN","0.0"],
    [1546685,"2026-03-20 05:40:00","58441","0.7959999999999999","12.71","1.666","357.1","1016.326","10.15","53.04","NAN","0.0"],
    [1546686,"2026-03-20 05:50:00","58442","1.08","23.78","1.96","43.68","1016.336","10.07","53.15","NAN","0.0"],
    [1546687,"2026-03-20 06:00:00","58443","1.058","16.57","2.385","24.86","1016.336","10.03","53","NAN","0.0"],
    [1546688,"2026-03-20 06:10:00","58444","0.997","18.62","1.993","357.9","1016.336","10.14","52.29","NAN","0.0"],
    [1546689,"2026-03-20 06:20:00","58445","1.075","18.07","2.679","9.21","1016.336","10.21","51.81","NAN","0.0"],
    [1546690,"2026-03-20 06:30:00","58446","1.506","9.97","2.7439999999999998","17.48","1016.336","10.52","50.37","NAN","0.0"],
    [1546691,"2026-03-20 06:40:00","58447","1.064","8.42","2.123","356.6","1016.378","10.77","49.38","NAN","0.0"],
    [1546692,"2026-03-20 06:50:00","58448","1.3869999999999998","12.02","2.254","5.847","1016.447","11.1","47.97","NAN","0.0"],
    [1546693,"2026-03-20 07:00:00","58449","1.227","6.93","2.189","32.21","1016.426","11.39","46.95","NAN","0.0"],
    [1546694,"2026-03-20 07:10:00","58450","1.2930000000000001","6.577000000000001","2.7769999999999997","15.19","1016.413","11.76","45.05","NAN","0.0"],
    [1546695,"2026-03-20 07:20:00","58451","0.841","21.47","2.123","7.162000000000001","1016.5089999999999","12.16","43.75","NAN","0.0"],
    [1546696,"2026-03-20 07:30:00","58452","0.988","25.37","3.005","19.93","1016.502","12.53","42.89","NAN","0.0"],
    [1546697,"2026-03-20 07:40:00","58453","1.035","31.83","2.5810000000000004","11.85","1016.58","12.86","41.88","NAN","0.0"],
    [1546698,"2026-03-20 07:50:00","58454","1.218","27.51","2.7439999999999998","5.415","1016.585","13.09","41.2","NAN","0.0"],
    [1546699,"2026-03-20 08:00:00","58455","1.14","11.25","2.287","25.08","1016.691","13.02","41.21","NAN","0.0"],
    [1546700,"2026-03-20 08:10:00","58456","1.072","8.99","2.025","335.4","1016.693","13.39","40.18","NAN","0.0"],
    [1546701,"2026-03-20 08:20:00","58457","1.284","39.56","2.483","54.64","1016.7360000000001","13.91","38.67","NAN","0.0"],
    [1546702,"2026-03-20 08:30:00","58458","1.4169999999999998","7.499","2.7769999999999997","7.255","1016.873","13.96","38.04","NAN","0.0"],
    [1546703,"2026-03-20 08:40:00","58459","1.217","18.61","2.287","28.42","1016.94","14.18","37.18","NAN","0.0"],
    [1546704,"2026-03-20 08:50:00","58460","1.032","53.97","2.287","63.77","1017.005","15.08","34.44","NAN","0.0"],
    [1546705,"2026-03-20 09:00:00","58461","0.743","18.38","2.0909999999999997","49.71","1017.172","15.35","34.93","NAN","0.0"],
    [1546706,"2026-03-20 09:10:00","58462","0.769","75.82","1.9269999999999998","68.81","1017.194","15.76","36.94","NAN","0.0"],
    [1546707,"2026-03-20 09:20:00","58463","1.5759999999999998","100.5","3.071","127.4","1017.2360000000001","15.63","39.7","NAN","0.0"],
    [1546708,"2026-03-20 09:30:00","58464","1.551","101.6","3.528","63.14","1017.2189999999999","15.6","40.71","NAN","0.0"],
    [1546709,"2026-03-20 09:40:00","58465","1.7530000000000001","95.2","3.528","90.4","1017.311","15.56","41","NAN","0.0"],
    [1546710,"2026-03-20 09:50:00","58466","1.7790000000000001","110.9","3.365","111.5","1017.341","15.77","40.51","NAN","0.0"],
    [1546711,"2026-03-20 10:00:00","58467","1.643","85.3","3.593","88.4","1017.413","15.87","39.57","NAN","0.0"],
    [1546712,"2026-03-20 10:10:00","58468","1.75","71.72","3.267","76.79","1017.395","15.92","38.88","NAN","0.0"],
    [1546713,"2026-03-20 10:20:00","58469","1.818","90.9","2.94","89.4","1017.428","15.93","38.78","NAN","0.0"],
    [1546714,"2026-03-20 10:30:00","58470","1.281","103.3","3.365","71.52","1017.45","16.13","40.68","NAN","0.0"],
    [1546715,"2026-03-20 10:40:00","58471","1.504","97.1","3.6260000000000003","62.45","1017.44","16.3","42.33","NAN","0.0"],
    [1546716,"2026-03-20 10:50:00","58472","1.6440000000000001","116.7","3.659","104.9","1017.428","15.86","44.88","NAN","0.0"],
    [1546717,"2026-03-20 11:00:00","58473","2.099","112.5","3.855","107.1","1017.388","15.75","47.19","NAN","0.0"],
    [1546718,"2026-03-20 11:10:00","58474","1.943","113.7","3.7889999999999997","110.4","1017.318","15.49","49.6","NAN","0.0"],
    [1546719,"2026-03-20 11:20:00","58475","1.9780000000000002","118.3","3.5610000000000004","107.2","1017.316","15.62","51.36","NAN","0.0"],
    [1546720,"2026-03-20 11:30:00","58476","2.227","96.4","4.051","106.7","1017.273","15.75","50.42","NAN","0.0"],
    [1546721,"2026-03-20 11:40:00","58477","2.145","92.0","4.573","101.9","1017.191","15.95","47.78","NAN","0.0"],
    [1546722,"2026-03-20 11:50:00","58478","2.217","72.75","4.508","73.44","1017.1239999999999","16.34","45.28","NAN","0.0"],
    [1546723,"2026-03-20 12:00:00","58479","2.167","88.7","4.573","119.9","1017.1310000000001","16.31","44.99","NAN","0.0"],
    [1546724,"2026-03-20 12:10:00","58480","2.097","84.1","5.031000000000001","81.8","1016.9739999999999","16.69","41.72","NAN","0.0"],
    [1546725,"2026-03-20 12:20:00","58481","2.095","73.1","4.279","66.89","1016.8969999999999","16.46","41.11","NAN","0.0"],
    [1546726,"2026-03-20 12:30:00","58482","1.974","76.69","4.312","71.38","1016.753","16.75","41.11","NAN","0.0"],
    [1546727,"2026-03-20 12:40:00","58483","2.763","71.12","5.194","67.36","1016.7","16.31","42.73","NAN","0.0"],
    [1546728,"2026-03-20 12:50:00","58484","2.208","67.07","4.1160000000000005","53.47","1016.693","16.34","44.94","NAN","0.0"],
    [1546729,"2026-03-20 13:00:00","58485","2.431","76.05","4.704","88.0","1016.561","16.44","46.84","NAN","0.0"],
    [1546730,"2026-03-20 13:10:00","58486","2.74","76.19","4.475","81.7","1016.312","16.25","48.24","NAN","0.0"],
    [1546731,"2026-03-20 13:20:00","58487","2.6","84.5","4.41","77.51","1016.198","16.17","49.46","NAN","0.0"],
    [1546732,"2026-03-20 13:30:00","58488","2.681","71.16","5.1610000000000005","70.5","1016.128","16.01","51.12","NAN","0.0"],
    [1546733,"2026-03-20 13:40:00","58489","2.785","59.02","5.422999999999999","66.27","1015.993","16.02","52.62","NAN","0.0"],
    [1546734,"2026-03-20 13:50:00","58490","2.345","78.8","4.279","86.2","1015.908","16.19","53.96","NAN","0.0"],
    [1546735,"2026-03-20 14:00:00","58491","2.805","67.81","5.422999999999999","69.02","1015.8589999999999","15.8","56.06","NAN","0.0"],
    [1546736,"2026-03-20 14:10:00","58492","2.333","65.79","4.638999999999999","60.61","1015.819","15.97","56.45","NAN","0.0"],
    [1546737,"2026-03-20 14:20:00","58493","1.943","96.5","4.4430000000000005","113.0","1015.712","16.07","57.95","NAN","0.0"],
    [1546738,"2026-03-20 14:30:00","58494","2.489","98.2","4.671","116.0","1015.679","15.57","61.15","NAN","0.0"],
    [1546739,"2026-03-20 14:40:00","58495","2.5610000000000004","87.2","4.933","91.9","1015.582","15.75","60.99","NAN","0.0"],
    [1546740,"2026-03-20 14:50:00","58496","2.59","96.6","4.737","108.1","1015.49","15.7","61.46","NAN","0.0"],
    [1546741,"2026-03-20 15:00:00","58497","2.305","93.2","4.573","74.53","1015.485","15.51","62.35","NAN","0.0"],
    [1546742,"2026-03-20 15:10:00","58498","2.1719999999999997","96.9","4.475","89.3","1015.327","15.4","62.59","NAN","0.0"],
    [1546743,"2026-03-20 15:20:00","58499","1.726","112.5","3.7239999999999998","107.6","1015.32","15.47","63.17","NAN","0.0"],
    [1546744,"2026-03-20 15:30:00","58500","1.9909999999999999","108.9","3.463","109.4","1015.3","15.33","62.98","NAN","0.0"],
    [1546745,"2026-03-20 15:40:00","58501","2.086","104.5","3.463","101.5","1015.158","15.22","64.08","NAN","0.0"],
    [1546746,"2026-03-20 15:50:00","58502","1.835","89.1","4.835","109.1","1015.044","15.19","64.27","NAN","0.0"],
    [1546747,"2026-03-20 16:00:00","58503","2.101","100.3","3.43","111.7","1014.954","14.96","65.17","NAN","0.0"],
    [1546748,"2026-03-20 16:10:00","58504","2.338","112.4","3.855","111.9","1014.949","14.89","66.11","NAN","0.0"],
    [1546749,"2026-03-20 16:20:00","58505","2.112","111.2","3.659","110.7","1014.847","14.73","66.48","NAN","0.0"],
    [1546750,"2026-03-20 16:30:00","58506","2.532","110.0","3.7889999999999997","107.1","1014.78","14.62","67.11","NAN","0.0"],
    [1546751,"2026-03-20 16:40:00","58507","1.827","111.3","3.495","120.0","1014.765","14.56","67.95","NAN","0.0"],
    [1546752,"2026-03-20 16:50:00","58508","1.46","100.3","3.1689999999999996","76.42","1014.825","14.47","68.86","NAN","0.0"],
    [1546753,"2026-03-20 17:00:00","58509","1.588","110.6","3.463","102.9","1014.768","14.39","69.36","NAN","0.0"],
    [1546754,"2026-03-20 17:10:00","58510","1.6680000000000001","89.3","2.907","84.5","1014.827","14.41","69.89","NAN","0.0"],
    [1546755,"2026-03-20 17:20:00","58511","1.52","89.3","2.9730000000000003","95.8","1014.8","14.23","70.97","NAN","0.0"],
    [1546756,"2026-03-20 17:30:00","58512","1.47","101.1","3.103","107.7","1014.857","14.16","71.54","NAN","0.0"],
    [1546757,"2026-03-20 17:40:00","58513","1.5530000000000002","90.6","2.7769999999999997","68.33","1014.944","14.02","72","NAN","0.0"],
    [1546758,"2026-03-20 17:50:00","58514","1.281","103.1","2.613","73.04","1014.955","14","72.68","NAN","0.0"],
    [1546759,"2026-03-20 18:00:00","58515","0.986","100.4","1.9269999999999998","92.3","1014.9889999999999","13.95","73.13","NAN","0.0"],
    [1546760,"2026-03-20 18:10:00","58516","1.295","112.4","2.613","113.8","1015.117","13.84","73.91","NAN","0.0"],
    [1546761,"2026-03-20 18:20:00","58517","0.754","91.7","1.96","101.8","1015.127","13.8","74.4","NAN","0.0"],
    [1546762,"2026-03-20 18:30:00","58518","0.977","96.0","2.352","112.6","1015.1489999999999","13.76","74.72","NAN","0.0"],
    [1546763,"2026-03-20 18:40:00","58519","1.228","76.85","2.613","73.49","1015.171","13.68","75.17","NAN","0.0"],
    [1546764,"2026-03-20 18:50:00","58520","0.7509999999999999","60.19","1.797","44.49","1015.072","13.58","76.05","NAN","0.0"],
    [1546765,"2026-03-20 19:00:00","58521","0.8109999999999999","88.4","1.7309999999999999","79.32","1015.1489999999999","13.57","75.98","NAN","0.0"],
    [1546766,"2026-03-20 19:10:00","58522","0.649","88.5","1.633","125.3","1015.2639999999999","13.47","76.59","NAN","0.0"],
    [1546767,"2026-03-20 19:20:00","58523","1.0270000000000001","77.35","1.993","80.4","1015.2689999999999","13.44","76.98","NAN","0.0"],
    [1546768,"2026-03-20 19:30:00","58524","1.255","68.19","2.515","90.9","1015.2689999999999","13.41","76.92","NAN","0.0"],
    [1546769,"2026-03-20 19:40:00","58525","1.15","60.31","2.0909999999999997","74.84","1015.2689999999999","13.42","77.24","NAN","0.0"],
    [1546770,"2026-03-20 19:50:00","58526","0.8240000000000001","70.62","1.764","92.2","1015.2710000000001","13.36","77.58","NAN","0.0"],
    [1546771,"2026-03-20 20:00:00","58527","0.996","98.1","1.829","117.0","1015.2769999999999","13.26","78.53","NAN","0.0"],
    [1546772,"2026-03-20 20:10:00","58528","0.955","99.5","1.666","107.0","1015.2810000000001","13.26","79.59","NAN","0.0"],
    [1546773,"2026-03-20 20:20:00","58529","0.868","49.32","1.47","60.21","1015.296","13.2","80.8","NAN","0.0"],
    [1546774,"2026-03-20 20:30:00","58530","0.94","51.94","1.601","68.36","1015.301","13.17","80.9","NAN","0.0"],
    [1546775,"2026-03-20 20:40:00","58531","0.8240000000000001","49.35","1.535","48.35","1015.2919999999999","13.12","81.3","NAN","0.0"],
    [1546776,"2026-03-20 20:50:00","58532","0.34299999999999997","12.61","1.274","41.83","1015.3380000000001","13.1","81.6","NAN","0.0"],
    [1546777,"2026-03-20 21:00:00","58533","0.718","50.16","1.3719999999999999","39.13","1015.4010000000001","13.11","81","NAN","0.0"],
    [1546778,"2026-03-20 21:10:00","58534","0.22399999999999998","40.41","0.9470000000000001","50.5","1015.426","13.07","80.6","NAN","0.0"],
    [1546779,"2026-03-20 21:20:00","58535","0.677","45.81","1.307","49.82","1015.3389999999999","13.01","80.5","NAN","0.0"],
    [1546780,"2026-03-20 21:30:00","58536","0.773","30.04","2.123","359.3","1015.312","12.99","79.9","NAN","0.0"],
    [1546781,"2026-03-20 21:40:00","58537","0.7959999999999999","28.39","1.895","39.54","1015.288","12.87","79.79","NAN","0.0"],
    [1546782,"2026-03-20 21:50:00","58538","0.6629999999999999","28.06","2.025","13.36","1015.295","12.78","79.64","NAN","0.0"],
    [1546783,"2026-03-20 22:00:00","58539","0.531","34.89","1.307","43.42","1015.305","12.62","79.84","NAN","0.0"],
    [1546784,"2026-03-20 22:10:00","58540","0.8959999999999999","36.23","1.829","24.72","1015.312","12.53","79.72","NAN","0.0"],
    [1546785,"2026-03-20 22:20:00","58541","0.8440000000000001","34.26","1.829","24.72","1015.31","12.44","78","NAN","0.0"],
    [1546786,"2026-03-20 22:30:00","58542","1.226","39.64","1.9269999999999998","40.07","1015.309","12.36","76.64","NAN","0.0"],
    [1546787,"2026-03-20 22:40:00","58543","0.733","26.08","2.0580000000000003","27.19","1015.23","12.25","75.93","NAN","0.0"],
    [1546788,"2026-03-20 22:50:00","58544","0.588","17.65","1.339","40.44","1015.201","12.18","74.91","NAN","0.0"],
    [1546789,"2026-03-20 23:00:00","58545","1.016","6.965","1.895","16.25","1015.205","12.16","73.36","NAN","0.0"],
    [1546790,"2026-03-20 23:10:00","58546","0.6609999999999999","26.07","1.699","13.35","1015.105","12.05","73.47","NAN","0.0"],
    [1546791,"2026-03-20 23:20:00","58547","1.078","17.65","2.0580000000000003","27.72","1015.0110000000001","11.95","73.82","NAN","0.0"],
    [1546792,"2026-03-20 23:30:00","58548","0.589","20.68","1.176","42.01","1014.86","11.93","73.73","NAN","0.0"],
    [1546793,"2026-03-20 23:40:00","58549","0.449","14.57","0.98","4.391","1014.832","11.78","74.34","NAN","0.0"],
    [1546794,"2026-03-20 23:50:00","58550","0.539","27.37","0.8490000000000001","26.25","1014.737","11.7","74.59","NAN","0.0"],
    [1546795,"2026-03-21 00:00:00","58551","0.46","38.83","1.339","31.95","1014.6039999999999","11.51","75.35","NAN","0.0"],
    [1546796,"2026-03-21 00:10:00","58552","0.727","36.37","1.568","13.94","1014.5989999999999","11.5","74.78","NAN","0.0"],
    [1546797,"2026-03-21 00:20:00","58553","0.7190000000000001","13.38","1.699","7.882000000000001","1014.444","11.47","74.32","NAN","0.0"],
    [1546798,"2026-03-21 00:30:00","58554","0.621","7.305","1.143","13.28","1014.35","11.36","74.31","NAN","0.0"],
    [1546799,"2026-03-21 00:40:00","58555","0.6859999999999999","11.01","1.895","14.36","1014.335","11.27","73.97","NAN","0.0"],
    [1546800,"2026-03-21 00:50:00","58556","0.469","13.11","0.915","15.29","1014.25","11","74.19","NAN","0.0"],
    [1546801,"2026-03-21 01:00:00","58557","0.022000000000000002","4.373","0.392","353.8","1014.1030000000001","10.81","74.24","NAN","0.0"],
    [1546802,"2026-03-21 01:10:00","58558","0.735","36.25","1.797","45.6","1013.9580000000001","10.78","73.87","NAN","0.0"],
    [1546803,"2026-03-21 01:20:00","58559","0.626","28.52","1.601","21.64","1013.847","10.81","72.66","NAN","0.0"],
    [1546804,"2026-03-21 01:30:00","58560","0.44299999999999995","22.79","1.2409999999999999","7.192","1013.797","10.57","74.32","NAN","0.0"],
    [1546805,"2026-03-21 01:40:00","58561","0.667","26.12","1.209","21.7","1013.72","10.46","75.27","NAN","0.0"],
    [1546806,"2026-03-21 01:50:00","58562","0.35","15.33","0.915","27.85","1013.635","10.28","76.18","NAN","0.0"],
    [1546807,"2026-03-21 02:00:00","58563","0.632","4.96","1.209","12.37","1013.62","10.17","76.25","NAN","0.0"],
    [1546808,"2026-03-21 02:10:00","58564","0.743","8.37","1.3719999999999999","6.425","1013.53","10.05","75.45","NAN","0.0"],
    [1546809,"2026-03-21 02:20:00","58565","0.813","6.207000000000001","1.568","7.403","1013.3760000000001","10.03","73.76","NAN","0.0"],
    [1546810,"2026-03-21 02:30:00","58566","0.649","14.58","1.339","354.3","1013.346","10","73.32","NAN","0.0"],
    [1546811,"2026-03-21 02:40:00","58567","0.503","22.01","1.143","40.08","1013.346","9.85","73.15","NAN","0.0"],
    [1546812,"2026-03-21 02:50:00","58568","0.51","28.34","1.143","24.95","1013.336","9.56","72.96","NAN","0.0"],
    [1546813,"2026-03-21 03:00:00","58569","0.638","22.42","1.274","30.64","1013.341","9.43","71.24","NAN","0.0"],
    [1546814,"2026-03-21 03:10:00","58570","0.36700000000000005","18.94","0.9470000000000001","37.85","1013.306","9.49","70.15","NAN","0.0"],
    [1546815,"2026-03-21 03:20:00","58571","0.601","20.85","1.176","18.88","1013.221","9.4","69.15","NAN","0.0"],
    [1546816,"2026-03-21 03:30:00","58572","0.693","12.31","1.4369999999999998","18.2","1013.2139999999999","9.44","68.14","NAN","0.0"],
    [1546817,"2026-03-21 03:40:00","58573","0.581","10.7","1.2409999999999999","14.5","1013.2239999999999","9.47","67.13","NAN","0.0"],
    [1546818,"2026-03-21 03:50:00","58574","0.588","18.66","1.339","0.272","1013.191","9.39","66.62","NAN","0.0"],
    [1546819,"2026-03-21 04:00:00","58575","0.5489999999999999","21.8","1.176","358.9","1013.1010000000001","9.33","66.02","NAN","0.0"],
    [1546820,"2026-03-21 04:10:00","58576","0.643","16.97","1.143","354.1","1013.097","9.22","65.84","NAN","0.0"],
    [1546821,"2026-03-21 04:20:00","58577","0.8859999999999999","7.479","1.535","10.56","1013.097","9.29","64.51","NAN","0.0"],
    [1546822,"2026-03-21 04:30:00","58578","1.0170000000000001","4.808","1.666","13.61","1013.057","9.37","62.97","NAN","0.0"],
    [1546823,"2026-03-21 04:40:00","58579","1.234","1.992","1.9269999999999998","349.5","1012.96","9.34","62.37","NAN","0.0"],
    [1546824,"2026-03-21 04:50:00","58580","0.855","10.3","1.633","18.34","1012.8969999999999","9.2","62.82","NAN","0.0"],
    [1546825,"2026-03-21 05:00:00","58581","0.897","10.31","2.025","8.59","1012.89","9.04","62.87","NAN","0.0"],
    [1546826,"2026-03-21 05:10:00","58582","0.9159999999999999","9.24","1.7309999999999999","9.82","1012.847","8.87","62.67","NAN","0.0"],
    [1546827,"2026-03-21 05:20:00","58583","1.075","2.385","1.96","9.55","1012.8430000000001","8.93","61.49","NAN","0.0"],
    [1546828,"2026-03-21 05:30:00","58584","0.695","10.16","1.601","9.47","1012.835","8.94","61.43","NAN","0.0"],
    [1546829,"2026-03-21 05:40:00","58585","0.629","1.735","1.274","1.1159999999999999","1012.808","8.78","61.8","NAN","0.0"],
    [1546830,"2026-03-21 05:50:00","58586","0.7909999999999999","0.18100000000000002","1.3719999999999999","333.6","1012.865","8.98","60.55","NAN","0.0"],
    [1546831,"2026-03-21 06:00:00","58587","0.732","16.16","1.4369999999999998","6.769","1012.99","9.12","60.11","NAN","0.0"],
    [1546832,"2026-03-21 06:10:00","58588","0.527","8.74","1.274","10.3","1013.074","9","60.84","NAN","0.0"],
    [1546833,"2026-03-21 06:20:00","58589","0.5760000000000001","10.64","1.143","2.7239999999999998","1013.039","9.09","60.31","NAN","0.0"],
    [1546834,"2026-03-21 06:30:00","58590","0.502","10.73","1.111","9.25","1013.085","9.35","59.61","NAN","0.0"],
    [1546835,"2026-03-21 06:40:00","58591","0.326","50.85","0.784","30.41","1013.2260000000001","9.79","58.3","NAN","0.0"],
    [1546836,"2026-03-21 06:50:00","58592","0.40700000000000003","34.99","0.8170000000000001","31.04","1013.279","10.08","57.01","NAN","0.0"],
    [1546837,"2026-03-21 07:00:00","58593","0.218","28.93","0.555","8.01","1013.3330000000001","10.49","55.72","NAN","0.0"],
    [1546838,"2026-03-21 07:10:00","58594","0.9159999999999999","44.79","1.405","30.53","1013.307","10.71","53.34","NAN","0.0"],
    [1546839,"2026-03-21 07:20:00","58595","0.677","31.13","1.535","62.02","1013.283","11.12","51.56","NAN","0.0"],
    [1546840,"2026-03-21 07:30:00","58596","0.469","21.43","1.47","11.25","1013.3910000000001","11.14","51.44","NAN","0.0"],
    [1546841,"2026-03-21 07:40:00","58597","0.341","43.93","1.078","56.33","1013.393","11.9","49.3","NAN","0.0"],
    [1546842,"2026-03-21 07:50:00","58598","0.18899999999999997","14.36","0.915","89.8","1013.452","12.76","46.96","NAN","0.0"],
    [1546843,"2026-03-21 08:00:00","58599","0.193","89.1","0.8170000000000001","55.97","1013.525","13.19","45.53","NAN","0.0"],
    [1546844,"2026-03-21 08:10:00","58600","0.37200000000000005","113.1","0.9470000000000001","61.25","1013.58","13.64","45.99","NAN","0.0"],
    [1546845,"2026-03-21 08:20:00","58601","0.557","161.1","1.143","152.7","1013.68","13.45","49.76","NAN","0.0"],
    [1546846,"2026-03-21 08:30:00","58602","0.606","151.6","1.111","158.2","1013.704","13.27","53.22","NAN","0.0"],
    [1546847,"2026-03-21 08:40:00","58603","0.701","168.8","1.176","169.0","1013.814","13.35","53.72","NAN","0.0"],
    [1546848,"2026-03-21 08:50:00","58604","0.6579999999999999","171.6","1.143","174.0","1013.831","13.43","53.66","NAN","0.0"],
    [1546849,"2026-03-21 09:00:00","58605","0.795","168.5","1.405","182.1","1013.821","13.6","54.28","NAN","0.0"],
    [1546850,"2026-03-21 09:10:00","58606","1.03","179.0","1.5030000000000001","178.7","1013.7589999999999","13.56","55.73","NAN","0.0"],
    [1546851,"2026-03-21 09:20:00","58607","0.775","169.1","1.307","157.7","1013.712","14.04","54.21","NAN","0.0"],
    [1546852,"2026-03-21 09:30:00","58608","1.043","152.1","1.601","164.7","1013.707","14.28","53.68","NAN","0.0"],
    [1546853,"2026-03-21 09:40:00","58609","1.143","124.7","1.699","107.8","1013.654","14.23","52.58","NAN","0.0"],
    [1546854,"2026-03-21 09:50:00","58610","0.9470000000000001","129.7","1.601","117.8","1013.5169999999999","14.12","52.65","NAN","0.0"],
    [1546855,"2026-03-21 10:00:00","58611","0.604","135.5","1.274","145.6","1013.355","14.94","46.17","NAN","0.0"],
    [1546856,"2026-03-21 10:10:00","58612","1.311","133.0","2.5810000000000004","143.3","1013.328","15.4","46.44","NAN","0.0"],
    [1546857,"2026-03-21 10:20:00","58613","1.4609999999999999","140.3","2.515","141.2","1013.3530000000001","14.59","48.22","NAN","0.0"],
    [1546858,"2026-03-21 10:30:00","58614","1.5630000000000002","164.8","2.613","158.8","1013.346","14.86","45.93","NAN","0.0"],
    [1546859,"2026-03-21 10:40:00","58615","1.8430000000000002","186.8","3.071","186.7","1013.415","14.78","50.18","NAN","0.0"],
    [1546860,"2026-03-21 10:50:00","58616","2.83","180.8","3.855","175.8","1013.373","13.98","54.37","NAN","0.0"],
    [1546861,"2026-03-21 11:00:00","58617","3.248","176.9","4.41","177.6","1013.373","13.56","56.75","NAN","0.0"],
    [1546862,"2026-03-21 11:10:00","58618","3.3160000000000003","174.6","4.573","177.1","1013.3330000000001","13.82","56.39","NAN","0.0"],
    [1546863,"2026-03-21 11:20:00","58619","3.27","176.0","4.345","180.2","1013.328","14","57.37","NAN","0.0"],
    [1546864,"2026-03-21 11:30:00","58620","3.54","177.8","4.573","177.8","1013.273","13.98","59.29","NAN","0.0"],
    [1546865,"2026-03-21 11:40:00","58621","3.681","174.8","5.1610000000000005","180.0","1013.211","14.22","58.28","NAN","0.0"],
    [1546866,"2026-03-21 11:50:00","58622","3.275","179.1","4.998","169.9","1013.2239999999999","14.75","52.28","NAN","0.0"],
    [1546867,"2026-03-21 12:00:00","58623","3.716","179.1","5.912999999999999","185.5","1013.206","15","47.52","NAN","0.0"],
    [1546868,"2026-03-21 12:10:00","58624","3.5","176.8","5.455","176.5","1013.189","15.18","44.27","NAN","0.0"],
    [1546869,"2026-03-21 12:20:00","58625","3.801","176.6","5.4879999999999995","173.6","1013.066","14.99","44.09","NAN","0.0"],
    [1546870,"2026-03-21 12:30:00","58626","4.042","179.3","5.684","178.3","1012.945","15.01","45.01","NAN","0.0"],
    [1546871,"2026-03-21 12:40:00","58627","3.707","176.3","5.7170000000000005","173.7","1012.832","14.95","47.22","NAN","0.0"],
    [1546872,"2026-03-21 12:50:00","58628","3.6","177.6","5.651","181.6","1012.7130000000001","15.16","46.73","NAN","0.0"],
    [1546873,"2026-03-21 13:00:00","58629","3.642","176.5","5.227","177.5","1012.628","15.1","47.39","NAN","0.0"],
    [1546874,"2026-03-21 13:10:00","58630","3.529","177.1","5.325","177.9","1012.5239999999999","15.01","48.34","NAN","0.0"],
    [1546875,"2026-03-21 13:20:00","58631","4.23","175.4","6.207000000000001","173.4","1012.454","15.05","49.13","NAN","0.0"],
    [1546876,"2026-03-21 13:30:00","58632","3.966","174.1","5.553","178.6","1012.3589999999999","14.92","49.65","NAN","0.0"],
    [1546877,"2026-03-21 13:40:00","58633","3.779","175.2","5.651","175.4","1012.265","15.08","49.2","NAN","0.0"],
    [1546878,"2026-03-21 13:50:00","58634","3.9339999999999997","172.2","5.782","185.0","1012.212","14.93","52.54","NAN","0.0"],
    [1546879,"2026-03-21 14:00:00","58635","3.9589999999999996","174.7","5.782","180.5","1012.1619999999999","14.9","53.17","NAN","0.0"],
    [1546880,"2026-03-21 14:10:00","58636","3.8080000000000003","174.3","5.815","180.7","1012.085","14.98","54.98","NAN","0.0"],
    [1546881,"2026-03-21 14:20:00","58637","3.897","172.3","5.455","188.2","1011.966","14.92","54.55","NAN","0.0"],
    [1546882,"2026-03-21 14:30:00","58638","3.235","173.1","4.835","182.7","1011.961","15","57.02","NAN","0.0"],
    [1546883,"2026-03-21 14:40:00","58639","2.827","181.9","5.1610000000000005","185.9","1011.956","15.26","54.95","NAN","0.0"],
    [1546884,"2026-03-21 14:50:00","58640","2.464","186.2","4.181","174.1","1011.8810000000001","15.23","55.57","NAN","0.0"],
    [1546885,"2026-03-21 15:00:00","58641","3.199","181.1","5.782","177.1","1011.7389999999999","15.24","55.31","NAN","0.0"],
    [1546886,"2026-03-21 15:10:00","58642","3.0180000000000002","175.8","4.606","173.4","1011.712","15.11","56.41","NAN","0.0"],
    [1546887,"2026-03-21 15:20:00","58643","3.1860000000000004","178.0","5.357","169.9","1011.712","15.09","54.97","NAN","0.0"],
    [1546888,"2026-03-21 15:30:00","58644","3.29","178.3","5.651","175.7","1011.712","15.06","59.1","NAN","0.0"],
    [1546889,"2026-03-21 15:40:00","58645","3.1630000000000003","173.5","4.998","166.6","1011.6489999999999","15.08","56.61","NAN","0.0"],
    [1546890,"2026-03-21 15:50:00","58646","2.9019999999999997","176.3","4.704","179.2","1011.6519999999999","15.01","57.91","NAN","0.0"],
    [1546891,"2026-03-21 16:00:00","58647","2.9389999999999996","181.5","4.835","186.4","1011.6289999999999","14.99","58.17","NAN","0.0"],
    [1546892,"2026-03-21 16:10:00","58648","2.3280000000000003","186.2","3.887","185.7","1011.535","14.99","59.07","NAN","0.0"],
    [1546893,"2026-03-21 16:20:00","58649","2.6010000000000004","194.4","4.475","193.9","1011.505","15.04","55.73","NAN","0.0"],
    [1546894,"2026-03-21 16:30:00","58650","2.305","196.3","4.312","211.3","1011.518","15.04","55.39","NAN","0.0"],
    [1546895,"2026-03-21 16:40:00","58651","2.224","195.6","4.1160000000000005","187.8","1011.5419999999999","14.99","53.15","NAN","0.0"],
    [1546896,"2026-03-21 16:50:00","58652","2.338","189.1","4.083","209.2","1011.545","14.7","55.71","NAN","0.0"],
    [1546897,"2026-03-21 17:00:00","58653","2.332","197.4","3.855","203.3","1011.585","14.74","56.3","NAN","0.0"],
    [1546898,"2026-03-21 17:10:00","58654","1.818","196.8","4.149","172.5","1011.632","14.66","59.15","NAN","0.0"],
    [1546899,"2026-03-21 17:20:00","58655","1.9240000000000002","206.7","4.1160000000000005","199.5","1011.702","14.6","61.22","NAN","0.0"],
    [1546900,"2026-03-21 17:30:00","58656","2.0709999999999997","207.9","3.92","200.2","1011.704","14.5","60.16","NAN","0.0"],
    [1546901,"2026-03-21 17:40:00","58657","1.6","218.4","3.9530000000000003","206.1","1011.828","14.4","56.34","NAN","0.0"],
    [1546902,"2026-03-21 17:50:00","58658","1.595","213.6","3.0380000000000003","205.2","1011.903","14.25","59.98","NAN","0.0"],
    [1546903,"2026-03-21 18:00:00","58659","1.5959999999999999","219.0","2.842","218.1","1011.883","14.19","60.21","NAN","0.0"],
    [1546904,"2026-03-21 18:10:00","58660","1.935","215.5","3.528","231.1","1011.9169999999999","14","62.99","NAN","0.0"],
    [1546905,"2026-03-21 18:20:00","58661","1.4980000000000002","210.0","2.94","227.7","1012.0189999999999","13.86","63.21","NAN","0.0"],
    [1546906,"2026-03-21 18:30:00","58662","1.4869999999999999","210.9","2.842","221.1","1012.0239999999999","13.77","63.66","NAN","0.0"],
    [1546907,"2026-03-21 18:40:00","58663","1.415","216.2","2.6460000000000004","191.1","1012.113","13.67","64.01","NAN","0.0"],
    [1546908,"2026-03-21 18:50:00","58664","1.35","209.0","2.842","201.0","1012.2130000000001","13.56","64.32","NAN","0.0"],
    [1546909,"2026-03-21 19:00:00","58665","1.3030000000000002","205.3","2.842","218.0","1012.279","13.47","65.21","NAN","0.0"],
    [1546910,"2026-03-21 19:10:00","58666","1.09","208.9","2.025","227.2","1012.3589999999999","13.46","65.96","NAN","0.0"],
    [1546911,"2026-03-21 19:20:00","58667","1.143","214.7","2.287","196.3","1012.456","13.4","65.87","NAN","0.0"],
    [1546912,"2026-03-21 19:30:00","58668","1.1909999999999998","211.8","2.0580000000000003","219.4","1012.451","13.32","67.36","NAN","0.0"],
    [1546913,"2026-03-21 19:40:00","58669","1.13","209.7","2.254","249.6","1012.4069999999999","13.25","67.05","NAN","0.0"],
    [1546914,"2026-03-21 19:50:00","58670","1.103","205.0","1.8619999999999999","218.8","1012.4119999999999","13.16","68.93","NAN","0.0"],
    [1546915,"2026-03-21 20:00:00","58671","0.8270000000000001","199.0","1.764","204.7","1012.452","13.06","69.72","NAN","0.0"],
    [1546916,"2026-03-21 20:10:00","58672","0.523","194.9","1.699","203.1","1012.591","13","70.89","NAN","0.0"],
    [1546917,"2026-03-21 20:20:00","58673","0.649","199.1","1.307","186.4","1012.695","13.01","70.52","NAN","0.0"],
    [1546918,"2026-03-21 20:30:00","58674","0.9440000000000001","218.3","2.025","205.1","1012.706","13.02","70.43","NAN","0.0"],
    [1546919,"2026-03-21 20:40:00","58675","0.976","222.1","2.7110000000000003","224.4","1012.674","13.02","69.9","NAN","0.0"],
    [1546920,"2026-03-21 20:50:00","58676","0.7290000000000001","213.4","1.8619999999999999","225.5","1012.675","12.94","70.12","NAN","0.0"],
    [1546921,"2026-03-21 21:00:00","58677","0.621","195.1","1.5030000000000001","205.6","1012.684","12.72","72.05","NAN","0.0"],
    [1546922,"2026-03-21 21:10:00","58678","0.8640000000000001","192.3","1.339","176.1","1012.704","12.63","71.94","NAN","0.0"],
    [1546923,"2026-03-21 21:20:00","58679","0.848","191.1","1.339","187.4","1012.679","12.55","72.09","NAN","0.0"],
    [1546924,"2026-03-21 21:30:00","58680","0.6859999999999999","186.2","1.2409999999999999","197.3","1012.696","12.47","70.99","NAN","0.0"],
    [1546925,"2026-03-21 21:40:00","58681","0.529","182.6","1.045","179.8","1012.691","12.41","71.36","NAN","0.0"],
    [1546926,"2026-03-21 21:50:00","58682","0.251","192.1","0.7509999999999999","200.5","1012.691","12.04","70.84","NAN","0.0"],
    [1546927,"2026-03-21 22:00:00","58683","0.606","188.8","1.209","186.2","1012.6139999999999","12.13","70.48","NAN","0.0"],
    [1546928,"2026-03-21 22:10:00","58684","0.638","185.7","0.98","186.2","1012.615","12.17","70.16","NAN","0.0"],
    [1546929,"2026-03-21 22:20:00","58685","0.713","188.5","1.111","188.7","1012.6419999999999","12.17","70.01","NAN","0.0"],
    [1546930,"2026-03-21 22:30:00","58686","0.162","305.3","0.784","342.1","1012.592","11.95","69.36","NAN","0.0"],
    [1546931,"2026-03-21 22:40:00","58687","0.244","29.49","0.915","75.25","1012.57","12.15","62.69","NAN","0.0"],
    [1546932,"2026-03-21 22:50:00","58688","0.505","36.14","1.307","25.94","1012.42","12.11","62","NAN","0.0"],
    [1546933,"2026-03-21 23:00:00","58689","0.10800000000000001","34.67","0.49","35.86","1012.301","12.12","61.79","NAN","0.0"],
    [1546934,"2026-03-21 23:10:00","58690","0.078","248.9","0.653","227.1","1012.158","11.92","63.98","NAN","0.0"],
    [1546935,"2026-03-21 23:20:00","58691","0.435","216.2","1.176","256.4","1012.1160000000001","11.9","65.94","NAN","0.0"],
    [1546936,"2026-03-21 23:30:00","58692","0.893","233.8","1.601","232.7","1012.0269999999999","12.24","64.22","NAN","0.0"],
    [1546937,"2026-03-21 23:40:00","58693","0.935","236.8","1.764","240.1","1011.888","12.29","64.15","NAN","0.0"],
    [1546938,"2026-03-21 23:50:00","58694","0.784","233.0","1.405","221.8","1011.7769999999999","12.24","64.04","NAN","0.0"],
    [1546939,"2026-03-22 00:00:00","58695","0.36","198.3","0.8170000000000001","266.7","1011.6289999999999","12.03","65.31","NAN","0.0"],
    [1546940,"2026-03-22 00:10:00","58696","0.21899999999999997","169.7","0.49","179.2","1011.6","11.55","68.34","NAN","0.0"],
    [1546941,"2026-03-22 00:20:00","58697","0.625","192.2","1.405","206.2","1011.507","11.42","70.07","NAN","0.0"],
    [1546942,"2026-03-22 00:30:00","58698","1.002","198.2","1.666","204.0","1011.422","11.4","69.6","NAN","0.0"],
    [1546943,"2026-03-22 00:40:00","58699","0.882","199.0","1.666","222.7","1011.355","11.51","68.03","NAN","0.0"],
    [1546944,"2026-03-22 00:50:00","58700","0.6920000000000001","179.9","1.4369999999999998","167.3","1011.295","11.56","68.66","NAN","0.0"],
    [1546945,"2026-03-22 01:00:00","58701","0.48200000000000004","197.1","1.535","220.8","1011.31","11.52","67.81","NAN","0.0"],
    [1546946,"2026-03-22 01:10:00","58702","0.633","246.2","1.764","226.5","1011.342","11.77","64.85","NAN","0.0"],
    [1546947,"2026-03-22 01:20:00","58703","0.6859999999999999","226.8","1.797","232.3","1011.194","11.91","61.77","NAN","0.0"],
    [1546948,"2026-03-22 01:30:00","58704","0.99","237.7","1.764","229.5","1011.095","11.98","58.77","NAN","0.0"],
    [1546949,"2026-03-22 01:40:00","58705","0.7909999999999999","216.2","1.797","242.7","1011.0889999999999","12.01","58.98","NAN","0.0"],
    [1546950,"2026-03-22 01:50:00","58706","0.598","217.6","1.111","223.0","1011.047","11.79","57.15","NAN","0.0"],
    [1546951,"2026-03-22 02:00:00","58707","0.669","231.5","1.3719999999999999","240.1","1010.927","11.91","55.9","NAN","0.0"],
    [1546952,"2026-03-22 02:10:00","58708","0.915","239.5","1.8619999999999999","258.5","1010.837","11.93","55.92","NAN","0.0"],
    [1546953,"2026-03-22 02:20:00","58709","1.053","240.0","1.895","225.8","1010.893","11.88","56.59","NAN","0.0"],
    [1546954,"2026-03-22 02:30:00","58710","1.006","244.9","1.829","218.1","1010.818","11.75","56.86","NAN","0.0"],
    [1546955,"2026-03-22 02:40:00","58711","1.022","238.9","1.96","232.2","1010.795","11.64","57.19","NAN","0.0"],
    [1546956,"2026-03-22 02:50:00","58712","1.1440000000000001","240.1","2.123","239.6","1010.706","11.51","57.34","NAN","0.0"],
    [1546957,"2026-03-22 03:00:00","58713","0.987","235.4","1.666","228.4","1010.725","11.5","57.18","NAN","0.0"],
    [1546958,"2026-03-22 03:10:00","58714","0.7340000000000001","227.1","1.5030000000000001","236.7","1010.7139999999999","11.38","57.66","NAN","0.0"],
    [1546959,"2026-03-22 03:20:00","58715","0.727","234.3","1.633","250.5","1010.707","11.36","57.62","NAN","0.0"],
    [1546960,"2026-03-22 03:30:00","58716","0.6","215.9","1.307","223.3","1010.6460000000001","11.22","58.33","NAN","0.0"],
    [1546961,"2026-03-22 03:40:00","58717","0.669","219.2","1.111","218.9","1010.605","11.04","59.19","NAN","0.0"],
    [1546962,"2026-03-22 03:50:00","58718","0.636","219.6","0.9470000000000001","240.6","1010.605","10.9","60.15","NAN","0.0"],
    [1546963,"2026-03-22 04:00:00","58719","0.638","213.3","1.274","205.6","1010.6","10.71","62.31","NAN","0.0"],
    [1546964,"2026-03-22 04:10:00","58720","0.664","200.0","1.013","191.4","1010.653","10.78","62.07","NAN","0.0"],
    [1546965,"2026-03-22 04:20:00","58721","0.325","240.7","1.111","299.6","1010.757","10.61","62.14","NAN","0.0"],
    [1546966,"2026-03-22 04:30:00","58722","0.188","195.5","0.653","172.2","1010.827","10.69","61.34","NAN","0.0"],
    [1546967,"2026-03-22 04:40:00","58723","0.196","273.1","0.9470000000000001","284.2","1010.8639999999999","10.29","64.19","NAN","0.0"],
    [1546968,"2026-03-22 04:50:00","58724","0.45899999999999996","263.0","1.2409999999999999","274.0","1010.957","11.16","54.89","NAN","0.0"],
    [1546969,"2026-03-22 05:00:00","58725","0.265","216.9","0.784","171.8","1010.909","11.33","56.78","NAN","0.0"],
    [1546970,"2026-03-22 05:10:00","58726","0.633","219.2","1.4369999999999998","212.5","1010.872","11.12","59.23","NAN","0.0"],
    [1546971,"2026-03-22 05:20:00","58727","0.909","223.0","1.535","234.5","1010.814","11.21","57.94","NAN","0.0"],
    [1546972,"2026-03-22 05:30:00","58728","0.884","212.2","1.633","199.1","1010.842","11.1","58.82","NAN","0.0"],
    [1546973,"2026-03-22 05:40:00","58729","0.767","215.5","2.025","240.9","1010.738","10.81","62.36","NAN","0.0"],
    [1546974,"2026-03-22 05:50:00","58730","1.177","230.6","2.287","245.5","1010.801","10.57","61.18","NAN","0.0"],
    [1546975,"2026-03-22 06:00:00","58731","0.695","218.5","1.764","273.6","1010.857","10.67","56.57","NAN","0.0"],
    [1546976,"2026-03-22 06:10:00","58732","0.9059999999999999","233.7","2.156","229.8","1010.852","10.66","53.62","NAN","0.0"],
    [1546977,"2026-03-22 06:20:00","58733","1.187","236.6","2.385","226.9","1011.047","10.94","50","NAN","0.0"],
    [1546978,"2026-03-22 06:30:00","58734","1.161","234.7","3.136","228.5","1011.1310000000001","11.16","48.37","NAN","0.0"],
    [1546979,"2026-03-22 06:40:00","58735","1.023","234.2","2.5810000000000004","230.6","1011.19","11.14","48.09","NAN","0.0"],
    [1546980,"2026-03-22 06:50:00","58736","1.025","233.6","1.993","248.4","1011.238","11.09","48.25","NAN","0.0"],
    [1546981,"2026-03-22 07:00:00","58737","0.63","229.2","1.797","267.0","1011.304","11.31","47.97","NAN","0.0"],
    [1546982,"2026-03-22 07:10:00","58738","0.29600000000000004","185.0","0.8490000000000001","191.6","1011.3330000000001","11.5","48.03","NAN","0.0"],
    [1546983,"2026-03-22 07:20:00","58739","0.20600000000000002","116.9","0.555","109.9","1011.237","11.67","48.41","NAN","0.0"],
    [1546984,"2026-03-22 07:30:00","58740","0.114","160.3","0.425","171.1","1011.169","11.74","47.83","NAN","0.0"],
    [1546985,"2026-03-22 07:40:00","58741","0.18","159.7","0.555","171.3","1011.1060000000001","12.06","46.86","NAN","0.0"],
    [1546986,"2026-03-22 07:50:00","58742","0.043","120.8","0.653","176.5","1011.034","12.78","45.29","NAN","0.0"],
    [1546987,"2026-03-22 08:00:00","58743","0.6509999999999999","166.0","1.143","155.4","1011.034","12.64","47.95","NAN","0.0"],
    [1546988,"2026-03-22 08:10:00","58744","0.665","179.2","1.274","208.4","1011.002","12.92","47.17","NAN","0.0"],
    [1546989,"2026-03-22 08:20:00","58745","0.982","182.2","1.601","173.3","1010.966","12.85","47.26","NAN","0.0"],
    [1546990,"2026-03-22 08:30:00","58746","1.1440000000000001","195.8","1.8619999999999999","200.9","1010.967","12.94","48.07","NAN","0.0"],
    [1546991,"2026-03-22 08:40:00","58747","1.4769999999999999","194.6","2.287","189.3","1011.0419999999999","12.98","48.69","NAN","0.0"],
    [1546992,"2026-03-22 08:50:00","58748","1.376","200.8","3.0380000000000003","199.3","1011.1389999999999","13.37","47.01","NAN","0.0"],
    [1546993,"2026-03-22 09:00:00","58749","1.831","230.5","4.2139999999999995","241.4","1011.1489999999999","13.93","40.9","NAN","0.0"],
    [1546994,"2026-03-22 09:10:00","58750","2.049","223.5","4.4430000000000005","248.6","1011.186","14.18","44.06","NAN","0.0"],
    [1546995,"2026-03-22 09:20:00","58751","2.33","228.8","4.279","232.1","1011.2139999999999","13.92","51.58","NAN","0.0"],
    [1546996,"2026-03-22 09:30:00","58752","2.265","224.2","4.671","214.7","1011.2139999999999","13.46","57.16","NAN","0.0"],
    [1546997,"2026-03-22 09:40:00","58753","2.45","217.6","5.39","223.9","1011.2310000000001","13.7","59.5","NAN","0.0"],
    [1546998,"2026-03-22 09:50:00","58754","2.556","224.2","5.782","240.0","1011.2139999999999","14.02","59.78","NAN","0.0"],
    [1546999,"2026-03-22 10:00:00","58755","2.324","217.7","5.455","248.7","1011.2139999999999","14.7","59.28","NAN","0.0"],
    [1547000,"2026-03-22 10:10:00","58756","2.679","217.4","5.292000000000001","218.8","1011.211","15.02","58.7","NAN","0.0"],
    [1547001,"2026-03-22 10:20:00","58757","2.171","222.0","4.737","225.5","1011.206","15.44","58.03","NAN","0.0"],
    [1547002,"2026-03-22 10:30:00","58758","2.7569999999999997","202.1","5.325","186.5","1011.164","15.18","60.33","NAN","0.0"],
    [1547003,"2026-03-22 10:40:00","58759","2.833","204.2","5.194","192.3","1011.0219999999999","15.33","60.53","NAN","0.0"],
    [1547004,"2026-03-22 10:50:00","58760","2.9760000000000004","198.5","5.096","201.3","1010.95","15.25","61.17","NAN","0.0"],
    [1547005,"2026-03-22 11:00:00","58761","3.1860000000000004","200.9","6.109","205.4","1010.862","15.38","61.31","NAN","0.0"],
    [1547006,"2026-03-22 11:10:00","58762","3.077","201.7","5.553","203.2","1010.716","15.33","60.52","NAN","0.0"],
    [1547007,"2026-03-22 11:20:00","58763","2.818","200.5","5.194","190.9","1010.678","15.69","59.66","NAN","0.0"],
    [1547008,"2026-03-22 11:30:00","58764","2.154","214.2","6.37","220.4","1010.6160000000001","16.29","56.72","NAN","0.0"],
    [1547009,"2026-03-22 11:40:00","58765","2.26","210.6","4.769","197.9","1010.5189999999999","16.36","56.74","NAN","0.0"],
    [1547010,"2026-03-22 11:50:00","58766","2.053","213.2","4.475","182.6","1010.459","16.61","55.07","NAN","0.0"],
    [1547011,"2026-03-22 12:00:00","58767","2.3209999999999997","204.5","4.9","201.9","1010.377","16.49","53.24","NAN","0.0"],
    [1547012,"2026-03-22 12:10:00","58768","2.6689999999999996","196.6","5.39","185.2","1010.27","16.66","52.57","NAN","0.0"],
    [1547013,"2026-03-22 12:20:00","58769","3.054","198.2","5.847","190.8","1010.145","16.09","51.04","NAN","0.0"],
    [1547014,"2026-03-22 12:30:00","58770","3.055","199.6","6.239","197.0","1009.956","16.11","54.21","NAN","0.0"],
    [1547015,"2026-03-22 12:40:00","58771","3.653","199.7","8.1","203.9","1009.8510000000001","16.19","55.4","NAN","0.0"],
    [1547016,"2026-03-22 12:50:00","58772","3.391","199.6","5.912999999999999","201.7","1009.7660000000001","16.05","57.32","NAN","0.0"],
    [1547017,"2026-03-22 13:00:00","58773","3.95","200.0","8.75","200.7","1009.5989999999999","15.84","58.2","NAN","0.0"],
    [1547018,"2026-03-22 13:10:00","58774","3.736","202.4","6.86","204.2","1009.4580000000001","15.84","58.26","NAN","0.0"],
    [1547019,"2026-03-22 13:20:00","58775","3.763","197.1","6.337000000000001","186.3","1009.34","15.76","60.73","NAN","0.0"],
    [1547020,"2026-03-22 13:30:00","58776","3.972","198.0","7.154","202.7","1009.253","15.68","60.16","NAN","0.0"],
    [1547021,"2026-03-22 13:40:00","58777","3.679","199.9","6.697","199.4","1009.159","15.69","62.81","NAN","0.0"],
    [1547022,"2026-03-22 13:50:00","58778","3.6710000000000003","200.8","6.893","212.9","1008.9889999999999","15.57","62.51","NAN","0.0"],
    [1547023,"2026-03-22 14:00:00","58779","4.191","198.5","7.938","209.9","1008.957","15.51","62.58","NAN","0.0"],
    [1547024,"2026-03-22 14:10:00","58780","3.873","203.8","8.36","186.8","1008.865","15.56","61.15","NAN","0.0"],
    [1547025,"2026-03-22 14:20:00","58781","3.755","204.3","8.36","212.7","1008.895","15.86","58.29","NAN","0.0"],
    [1547026,"2026-03-22 14:30:00","58782","3.378","207.6","7.154","202.5","1008.867","15.81","54.87","NAN","0.0"],
    [1547027,"2026-03-22 14:40:00","58783","2.7319999999999998","210.7","5.422999999999999","200.3","1008.835","16.32","53.25","NAN","0.0"],
    [1547028,"2026-03-22 14:50:00","58784","3.2239999999999998","203.5","6.239","196.7","1008.805","15.89","54.63","NAN","0.0"],
    [1547029,"2026-03-22 15:00:00","58785","3.918","198.0","6.729","187.8","1008.7310000000001","15.56","58.41","NAN","0.0"],
    [1547030,"2026-03-22 15:10:00","58786","2.8930000000000002","224.5","7.023","219.6","1008.8430000000001","15.98","56.31","NAN","0.0"],
    [1547031,"2026-03-22 15:20:00","58787","3.344","213.3","5.782","196.6","1008.797","16.05","56.25","NAN","0.0"],
    [1547032,"2026-03-22 15:30:00","58788","2.943","210.5","6.468","200.8","1008.721","15.7","60.77","NAN","0.0"],
    [1547033,"2026-03-22 15:40:00","58789","2.7110000000000003","208.7","5.912999999999999","207.0","1008.7230000000001","15.73","60.2","NAN","0.0"],
    [1547034,"2026-03-22 15:50:00","58790","2.781","207.4","6.86","212.0","1008.7230000000001","15.63","60.66","NAN","0.0"],
    [1547035,"2026-03-22 16:00:00","58791","3.1460000000000004","209.9","6.697","236.3","1008.748","15.48","60.16","NAN","0.0"],
    [1547036,"2026-03-22 16:10:00","58792","3.4960000000000004","217.3","6.5329999999999995","188.1","1008.788","15.58","58.58","NAN","0.0"],
    [1547037,"2026-03-22 16:20:00","58793","2.707","229.0","6.337000000000001","188.1","1008.92","15.72","56.98","NAN","0.0"],
    [1547038,"2026-03-22 16:30:00","58794","2.158","213.9","4.2139999999999995","216.1","1008.957","15.56","60.78","NAN","0.0"],
    [1547039,"2026-03-22 16:40:00","58795","3.4560000000000004","220.8","7.35","220.3","1009.0219999999999","15.23","62.01","NAN","0.0"],
    [1547040,"2026-03-22 16:50:00","58796","3.18","224.3","7.056","248.3","1009.164","15.06","61.96","NAN","0.0"],
    [1547041,"2026-03-22 17:00:00","58797","3.2310000000000003","220.6","6.697","256.4","1009.2289999999999","14.86","64.27","NAN","0.0"],
    [1547042,"2026-03-22 17:10:00","58798","2.6460000000000004","224.2","6.011","246.4","1009.3430000000001","14.86","65.32","NAN","0.0"],
    [1547043,"2026-03-22 17:20:00","58799","2.9189999999999996","227.4","5.978","256.0","1009.4730000000001","14.68","66.31","NAN","0.0"],
    [1547044,"2026-03-22 17:30:00","58800","2.972","222.1","6.37","257.8","1009.5980000000001","14.54","67.03","NAN","0.0"],
    [1547045,"2026-03-22 17:40:00","58801","2.384","216.5","4.965","219.5","1009.699","14.5","67.91","NAN","0.0"],
    [1547046,"2026-03-22 17:50:00","58802","2.633","219.4","5.88","233.1","1009.753","14.42","68.76","NAN","0.0"],
    [1547047,"2026-03-22 18:00:00","58803","2.696","218.2","5.4879999999999995","178.9","1009.828","14.29","70.63","NAN","0.0"],
    [1547048,"2026-03-22 18:10:00","58804","2.175","225.9","4.606","220.5","1009.924","14.31","70.88","NAN","0.0"],
    [1547049,"2026-03-22 18:20:00","58805","2.05","217.8","5.031000000000001","204.2","1010.012","14.32","71.4","NAN","0.0"],
    [1547050,"2026-03-22 18:30:00","58806","1.3780000000000001","222.6","3.103","195.5","1010.201","14.25","71.78","NAN","0.0"],
    [1547051,"2026-03-22 18:40:00","58807","1.347","214.1","3.332","196.1","1010.26","14.25","71.49","NAN","0.0"],
    [1547052,"2026-03-22 18:50:00","58808","1.297","214.0","2.385","205.7","1010.327","14.25","70.97","NAN","0.0"],
    [1547053,"2026-03-22 19:00:00","58809","1.379","212.4","2.9730000000000003","197.4","1010.398","14.32","69.39","NAN","0.0"],
    [1547054,"2026-03-22 19:10:00","58810","0.996","214.9","2.156","232.4","1010.6030000000001","14.27","68.79","NAN","0.0"],
    [1547055,"2026-03-22 19:20:00","58811","1.614","195.2","2.483","203.6","1010.617","14.15","69.58","NAN","0.0"],
    [1547056,"2026-03-22 19:30:00","58812","1.324","198.6","2.254","213.8","1010.696","14.1","68.69","NAN","0.0"],
    [1547057,"2026-03-22 19:40:00","58813","0.6629999999999999","226.3","1.47","227.2","1010.7560000000001","14.32","66.83","NAN","0.0"],
    [1547058,"2026-03-22 19:50:00","58814","0.501","198.4","1.013","263.9","1010.9110000000001","14.45","64.81","NAN","0.0"],
    [1547059,"2026-03-22 20:00:00","58815","0.235","189.1","0.7509999999999999","193.9","1011.081","14.41","65.33","NAN","0.0"],
    [1547060,"2026-03-22 20:10:00","58816","0.39399999999999996","247.5","1.829","289.2","1011.181","14.52","64.31","NAN","0.0"],
    [1547061,"2026-03-22 20:20:00","58817","1.308","9.57","3.005","4.724","1011.222","14.62","63.84","NAN","0.0"],
    [1547062,"2026-03-22 20:30:00","58818","1.069","17.45","2.385","6.881","1011.2510000000001","14.64","65.17","NAN","0.0"],
    [1547063,"2026-03-22 20:40:00","58819","1.337","13.17","3.0380000000000003","40.85","1011.245","14.61","66.82","NAN","0.0"],
    [1547064,"2026-03-22 20:50:00","58820","1.413","34.68","2.9730000000000003","45.16","1011.35","14.45","71.33","NAN","0.0"],
    [1547065,"2026-03-22 21:00:00","58821","1.9380000000000002","45.79","3.985","27.57","1011.421","14.3","74.38","NAN","0.0"],
    [1547066,"2026-03-22 21:10:00","58822","1.676","57.42","3.6260000000000003","50.67","1011.523","14.13","78","NAN","0.0"],
    [1547067,"2026-03-22 21:20:00","58823","1.574","52.59","3.6260000000000003","19.36","1011.6469999999999","13.92","81.4","NAN","0.1"],
    [1547068,"2026-03-22 21:30:00","58824","1.68","46.87","2.9730000000000003","22.57","1011.7610000000001","13.72","85.3","NAN","0.0"],
    [1547069,"2026-03-22 21:40:00","58825","2.077","48.64","4.606","60.32","1011.914","13.47","86.6","NAN","0.2"],
    [1547070,"2026-03-22 21:50:00","58826","1.567","50.43","3.528","63.36","1012.003","12.98","88.1","NAN","0.4"],
    [1547071,"2026-03-22 22:00:00","58827","1.229","62.62","3.071","99.7","1012.02","12.8","88.7","NAN","0.0"],
    [1547072,"2026-03-22 22:10:00","58828","1.89","74.23","4.377","66.06","1011.998","12.89","87.7","NAN","0.1"],
    [1547073,"2026-03-22 22:20:00","58829","2.8089999999999997","80.5","5.39","83.4","1012.497","NAN","NAN","NAN","0.1"],
    [1547074,"2026-03-22 22:30:00","58830","2.477","83.3","5.063","74.77","1011.561","NAN","NAN","NAN","0.0"],
    [1547075,"2026-03-22 22:40:00","58831","2.71","90.3","5.455","85.5","1012.1519999999999","NAN","NAN","NAN","0.0"],
    [1547076,"2026-03-22 22:50:00","58832","3.005","86.5","5.521","100.2","1014.1010000000001","NAN","NAN","NAN","0.0"],
    [1547077,"2026-03-22 23:00:00","58833","1.8119999999999998","95.9","3.6260000000000003","56.19","1010.273","NAN","NAN","NAN","0.0"],
    [1547078,"2026-03-22 23:10:00","58834","1.9880000000000002","96.4","4.181","85.7","1010.6489999999999","56.12","124.5","NAN","0.0"],
    [1547079,"2026-03-22 23:20:00","58835","2.259","89.9","4.638999999999999","90.7","1013.263","62.59","126.3","NAN","0.0"],
    [1547080,"2026-03-22 23:30:00","58836","2.612","81.8","4.4430000000000005","67.01","1015.16","56.49","118.9","NAN","0.0"],
    [1547081,"2026-03-22 23:40:00","58837","2.048","81.0","3.7239999999999998","125.7","1013.1619999999999","62.4","130.4","NAN","0.0"],
    [1547082,"2026-03-22 23:50:00","58838","2.434","85.5","4.41","92.5","1012.2130000000001","62.44","128.5","NAN","0.0"],
    [1547083,"2026-03-23 00:00:00","58839","2.086","78.21","4.475","76.94","1009.797","37.42","109.1","NAN","0.0"],
    [1547084,"2026-03-23 00:10:00","58840","2.7880000000000003","85.0","4.835","75.34","1010.687","50.65","118.3","NAN","0.0"],
    [1547085,"2026-03-23 00:20:00","58841","2.302","0.0","5.292000000000001","63.42","1013.32","53.6","116.6","NAN","0.0"],
    [1547086,"2026-03-23 00:30:00","58842","2.612","0.0","5.586","104.0","1013.446","45.33","111.8","NAN","0.0"],
    [1547087,"2026-03-23 00:40:00","58843","1.578","69.89","3.5610000000000004","70.85","1011.742","43.04","110.6","NAN","0.0"],
    [1547088,"2026-03-23 00:50:00","58844","3.5580000000000003","79.09","5.815","71.5","1011.926","27.59","95","NAN","0.0"],
    [1547089,"2026-03-23 01:00:00","58845","3.822","73.69","6.9910000000000005","76.86","1012.941","19.76","87","NAN","0.0"],
    [1547090,"2026-03-23 01:10:00","58846","2.583","79.92","4.998","74.58","1011.956","17.22","85.9","NAN","0.0"],
    [1547091,"2026-03-23 01:20:00","58847","3.395","74.99","6.1739999999999995","56.6","1012.567","16.93","85.1","NAN","0.0"],
    [1547092,"2026-03-23 01:30:00","58848","3.443","68.42","7.35","92.4","1012.834","14.22","82.3","NAN","0.0"],
    [1547093,"2026-03-23 01:40:00","58849","3.737","0.0","7.252000000000001","65.83","1012.938","14","81","NAN","0.0"],
    [1547094,"2026-03-23 01:50:00","58850","3.8789999999999996","80.8","7.579","76.96","1012.612","13.27","79.5","NAN","0.0"],
    [1547095,"2026-03-23 02:00:00","58851","4.093999999999999","72.7","7.0889999999999995","75.33","1012.73","13.23","79.66","NAN","0.0"],
    [1547096,"2026-03-23 02:10:00","58852","4.502","76.14","7.4479999999999995","67.98","1012.676","12.85","79.05","NAN","0.0"],
    [1547097,"2026-03-23 02:20:00","58853","4.73","74.84","8.0","70.16","1012.8689999999999","12.45","77.93","NAN","0.0"],
    [1547098,"2026-03-23 02:30:00","58854","3.0580000000000003","70.23","6.403","84.6","1012.7710000000001","12.35","78.41","NAN","0.0"],
    [1547099,"2026-03-23 02:40:00","58855","1.905","52.4","3.92","46.2","1012.747","12.27","79.18","NAN","0.0"],
    [1547100,"2026-03-23 02:50:00","58856","1.93","54.84","4.051","66.52","1012.929","12.18","77.93","NAN","0.0"],
    [1547101,"2026-03-23 03:00:00","58857","2.31","76.31","4.737","81.9","1012.814","12.23","77.18","NAN","0.0"],
    [1547102,"2026-03-23 03:10:00","58858","1.835","67.02","4.508","96.5","1013.0980000000001","12.22","77.13","NAN","0.0"],
    [1547103,"2026-03-23 03:20:00","58859","1.92","53.89","3.822","53.53","1012.975","12.15","73.93","NAN","0.0"],
    [1547104,"2026-03-23 03:30:00","58860","0.898","54.47","3.005","59.92","1012.903","12.2","72.7","NAN","0.0"],
    [1547105,"2026-03-23 03:40:00","58861","0.466","39.55","1.601","65.67","1012.945","12.27","73.66","NAN","0.0"],
    [1547106,"2026-03-23 03:50:00","58862","0.618","68.41","1.699","97.5","1013.072","12.31","73.94","NAN","0.0"],
    [1547107,"2026-03-23 04:00:00","58863","2.049","76.26","5.292000000000001","95.2","1013.253","12.51","74.33","NAN","0.0"],
    [1547108,"2026-03-23 04:10:00","58864","2.542","90.7","4.802","90.2","1013.247","12.2","77.01","NAN","0.0"],
    [1547109,"2026-03-23 04:20:00","58865","2.319","81.2","4.998","66.89","1013.29","12.25","74.66","NAN","0.0"],
    [1547110,"2026-03-23 04:30:00","58866","2.436","81.6","4.9","92.2","1013.3739999999999","12.3","74.63","NAN","0.0"],
    [1547111,"2026-03-23 04:40:00","58867","2.124","80.4","4.4430000000000005","96.2","1013.398","12.15","75.33","NAN","0.0"],
    [1547112,"2026-03-23 04:50:00","58868","2.966","78.86","5.357","70.67","1013.416","12.11","71.58","NAN","0.0"],
    [1547113,"2026-03-23 05:00:00","58869","1.745","68.77","4.4430000000000005","76.9","1013.51","12.16","68.78","NAN","0.0"],
    [1547114,"2026-03-23 05:10:00","58870","1.574","57.46","4.279","72.58","1013.578","12.14","66.77","NAN","0.0"],
    [1547115,"2026-03-23 05:20:00","58871","3.6180000000000003","69.6","7.84","67.08","1013.6460000000001","12.09","66.33","NAN","0.0"],
    [1547116,"2026-03-23 05:30:00","58872","3.653","71.47","7.6770000000000005","73.14","1013.819","11.94","65.77","NAN","0.0"],
    [1547117,"2026-03-23 05:40:00","58873","3.9619999999999997","70.04","7.971","81.1","1013.957","11.88","68.66","NAN","0.0"],
    [1547118,"2026-03-23 05:50:00","58874","4.247","77.73","7.513","101.4","1014.041","11.58","72.42","NAN","0.0"],
    [1547119,"2026-03-23 06:00:00","58875","4.118","84.5","8.04","72.35","1014.263","11.41","74.61","NAN","0.0"],
    [1547120,"2026-03-23 06:10:00","58876","3.9730000000000003","77.64","8.36","58.41","1014.415","11.33","75.42","NAN","0.0"],
    [1547121,"2026-03-23 06:20:00","58877","2.827","74.1","7.023","107.9","1014.5830000000001","11.18","75.45","NAN","0.0"],
    [1547122,"2026-03-23 06:30:00","58878","2.9389999999999996","80.3","6.337000000000001","95.5","1014.74","11.16","75.3","NAN","0.0"],
    [1547123,"2026-03-23 06:40:00","58879","3.1069999999999998","78.75","6.337000000000001","72.63","1014.938","11.21","73.91","NAN","0.0"],
    [1547124,"2026-03-23 06:50:00","58880","3.398","73.88","6.37","65.48","1015.076","11.46","71.18","NAN","0.0"],
    [1547125,"2026-03-23 07:00:00","58881","2.787","77.94","7.154","99.5","1015.102","11.59","71.66","NAN","0.0"],
    [1547126,"2026-03-23 07:10:00","58882","2.9730000000000003","80.3","6.109","94.8","1015.0269999999999","11.4","74.42","NAN","0.0"],
    [1547127,"2026-03-23 07:20:00","58883","3.343","73.76","5.521","64.53","1015.0239999999999","11.59","73.42","NAN","0.0"],
    [1547128,"2026-03-23 07:30:00","58884","2.9730000000000003","75.63","6.468","68.76","1015.205","11.73","70.84","NAN","0.0"],
    [1547129,"2026-03-23 07:40:00","58885","1.702","70.87","3.5610000000000004","83.8","1015.2919999999999","12.37","68.48","NAN","0.0"],
    [1547130,"2026-03-23 07:50:00","58886","1.2109999999999999","25.12","2.319","5.721","1015.378","12.4","67.09","NAN","0.0"],
    [1547131,"2026-03-23 08:00:00","58887","1.483","41.71","2.6460000000000004","34.0","1015.5060000000001","12.44","65.38","NAN","0.0"],
    [1547132,"2026-03-23 08:10:00","58888","2.289","90.6","4.9","96.3","1015.635","12.67","66.61","NAN","0.0"],
    [1547133,"2026-03-23 08:20:00","58889","2.5610000000000004","80.0","5.227","69.36","1015.699","12.49","67.86","NAN","0.0"],
    [1547134,"2026-03-23 08:30:00","58890","2.716","90.1","4.9","101.9","1015.722","12.47","68.53","NAN","0.0"],
    [1547135,"2026-03-23 08:40:00","58891","2.557","102.5","4.671","96.9","1015.9110000000001","12.4","68.3","NAN","0.0"],
    [1547136,"2026-03-23 08:50:00","58892","1.839","94.6","3.593","111.6","1016.0360000000001","12.82","66.75","NAN","0.0"],
    [1547137,"2026-03-23 09:00:00","58893","2.721","99.9","4.638999999999999","111.6","1016.1260000000001","12.87","66.37","NAN","0.0"],
    [1547138,"2026-03-23 09:10:00","58894","2.8689999999999998","90.0","4.9","90.5","1016.2","12.98","66.17","NAN","0.0"],
    [1547139,"2026-03-23 09:20:00","58895","2.316","97.7","4.573","105.7","1016.327","13.01","65.81","NAN","0.0"],
    [1547140,"2026-03-23 09:30:00","58896","2.123","103.7","3.822","88.0","1016.434","13.11","64.3","NAN","0.0"],
    [1547141,"2026-03-23 09:40:00","58897","2.01","95.1","3.887","82.0","1016.6160000000001","13.11","64.38","NAN","0.0"],
    [1547142,"2026-03-23 09:50:00","58898","2.4","101.5","4.181","62.52","1016.693","13.21","65.54","NAN","0.0"],
    [1547143,"2026-03-23 10:00:00","58899","2.8939999999999997","110.9","5.521","108.3","1016.693","13.02","66.18","NAN","0.0"],
    [1547144,"2026-03-23 10:10:00","58900","2.657","90.1","4.965","82.7","1016.696","13.25","64.47","NAN","0.0"],
    [1547145,"2026-03-23 10:20:00","58901","2.738","106.6","4.41","117.9","1016.721","13.14","65.46","NAN","0.0"],
    [1547146,"2026-03-23 10:30:00","58902","2.906","117.9","4.769","109.2","1016.796","13.25","64.69","NAN","0.0"],
    [1547147,"2026-03-23 10:40:00","58903","3.1210000000000004","111.6","4.933","110.5","1016.8480000000001","13.45","64.23","NAN","0.0"],
    [1547148,"2026-03-23 10:50:00","58904","2.9130000000000003","99.2","4.965","111.0","1016.905","13.79","62.33","NAN","0.0"],
    [1547149,"2026-03-23 11:00:00","58905","2.468","91.7","4.638999999999999","72.99","1016.977","14.09","61.12","NAN","0.0"],
    [1547150,"2026-03-23 11:10:00","58906","2.659","93.4","4.638999999999999","82.3","1017.1139999999999","14.14","60.66","NAN","0.0"],
    [1547151,"2026-03-23 11:20:00","58907","2.888","106.0","5.129","109.3","1017.186","14.48","59.88","NAN","0.0"],
    [1547152,"2026-03-23 11:30:00","58908","2.2","97.4","4.149","55.86","1017.206","14.46","59.66","NAN","0.0"],
    [1547153,"2026-03-23 11:40:00","58909","2.928","104.4","4.933","73.17","1017.2339999999999","14.53","58.64","NAN","0.0"],
    [1547154,"2026-03-23 11:50:00","58910","2.6710000000000003","92.1","4.606","109.1","1017.314","14.48","57.65","NAN","0.0"],
    [1547155,"2026-03-23 12:00:00","58911","2.6319999999999997","92.0","5.194","77.87","1017.42","14.78","56.95","NAN","0.0"],
    [1547156,"2026-03-23 12:10:00","58912","2.573","100.5","5.031000000000001","99.5","1017.46","15.14","56.67","NAN","0.0"],
    [1547157,"2026-03-23 12:20:00","58913","3.4789999999999996","91.2","5.422999999999999","71.73","1017.4680000000001","15.21","55.64","NAN","0.0"],
    [1547158,"2026-03-23 12:30:00","58914","3.089","91.3","5.945","79.96","1017.435","15.39","57.17","NAN","0.0"],
    [1547159,"2026-03-23 12:40:00","58915","2.4419999999999997","84.7","4.998","101.3","1017.408","15.9","57.39","NAN","0.0"],
    [1547160,"2026-03-23 12:50:00","58916","3.3810000000000002","86.7","6.239","103.1","1017.2860000000001","15.83","57.2","NAN","0.0"],
    [1547161,"2026-03-23 13:00:00","58917","2.798","89.7","4.867","76.72","1017.2810000000001","16.03","56.11","NAN","0.0"],
    [1547162,"2026-03-23 13:10:00","58918","2.784","90.3","6.042999999999999","96.4","1017.341","16.19","53.95","NAN","0.0"],
    [1547163,"2026-03-23 13:20:00","58919","2.4090000000000003","115.0","4.704","128.2","1017.408","16.26","56.95","NAN","0.0"],
    [1547164,"2026-03-23 13:30:00","58920","2.802","136.8","5.357","143.2","1017.466","15.22","64.81","NAN","0.0"],
    [1547165,"2026-03-23 13:40:00","58921","2.625","136.7","4.377","149.1","1017.493","14.74","68.53","NAN","0.0"],
    [1547166,"2026-03-23 13:50:00","58922","2.244","141.2","4.704","140.7","1017.51","14.92","66.09","NAN","0.0"],
    [1547167,"2026-03-23 14:00:00","58923","2.445","138.9","4.508","94.2","1017.44","15.11","65.04","NAN","0.0"],
    [1547168,"2026-03-23 14:10:00","58924","2.43","135.1","4.965","113.3","1017.523","15.08","66.28","NAN","0.0"],
    [1547169,"2026-03-23 14:20:00","58925","2.228","142.5","4.638999999999999","122.2","1017.597","14.61","69.17","NAN","0.0"],
    [1547170,"2026-03-23 14:30:00","58926","1.8430000000000002","143.0","3.7569999999999997","123.4","1017.705","15.04","67.79","NAN","0.0"],
    [1547171,"2026-03-23 14:40:00","58927","1.3219999999999998","181.5","3.528","152.3","1017.8660000000001","15.08","66.83","NAN","0.0"],
    [1547172,"2026-03-23 14:50:00","58928","1.287","191.3","3.659","165.1","1017.939","14.54","68.72","NAN","0.0"],
    [1547173,"2026-03-23 15:00:00","58929","1.181","184.2","2.385","139.6","1017.9689999999999","14.65","68.47","NAN","0.0"],
    [1547174,"2026-03-23 15:10:00","58930","1.2890000000000001","121.1","2.483","145.2","1018.13","14.41","69.47","NAN","0.0"],
    [1547175,"2026-03-23 15:20:00","58931","1.8940000000000001","123.6","3.43","116.9","1018.18","14.27","70.75","NAN","0.0"],
    [1547176,"2026-03-23 15:30:00","58932","2.3930000000000002","107.1","4.279","117.9","1018.188","14.2","69.12","NAN","0.0"],
    [1547177,"2026-03-23 15:40:00","58933","2.674","103.9","4.9","95.9","1018.19","14.37","66.99","NAN","0.0"],
    [1547178,"2026-03-23 15:50:00","58934","2.379","89.8","4.41","101.6","1018.193","14.32","66.23","NAN","0.0"],
    [1547179,"2026-03-23 16:00:00","58935","2.37","83.1","4.1160000000000005","75.73","1018.2","14.58","64.66","NAN","0.0"],
    [1547180,"2026-03-23 16:10:00","58936","2.509","77.31","4.4430000000000005","84.4","1018.322","14.53","65","NAN","0.0"],
    [1547181,"2026-03-23 16:20:00","58937","2.763","99.2","5.096","62.33","1018.3969999999999","14.57","63.75","NAN","0.0"],
    [1547182,"2026-03-23 16:30:00","58938","2.148","95.1","4.835","95.4","1018.551","14.59","61.14","NAN","0.0"],
    [1547183,"2026-03-23 16:40:00","58939","1.061","81.1","2.417","85.1","1018.669","14.71","61.21","NAN","0.0"],
    [1547184,"2026-03-23 16:50:00","58940","1.702","89.5","3.5610000000000004","83.4","1018.676","14.74","61.67","NAN","0.0"],
    [1547185,"2026-03-23 17:00:00","58941","1.008","74.29","2.483","75.81","1018.7710000000001","14.74","62.24","NAN","0.0"],
    [1547186,"2026-03-23 17:10:00","58942","1.5530000000000002","75.61","3.299","109.9","1018.97","14.77","61.55","NAN","0.0"],
    [1547187,"2026-03-23 17:20:00","58943","1.7109999999999999","80.5","3.5610000000000004","81.2","1019.154","14.66","62.06","NAN","0.0"],
    [1547188,"2026-03-23 17:30:00","58944","1.7269999999999999","90.3","3.7569999999999997","64.6","1019.181","14.4","63.05","NAN","0.0"],
    [1547189,"2026-03-23 17:40:00","58945","1.339","81.6","2.875","71.65","1019.2360000000001","14.38","62.78","NAN","0.0"],
    [1547190,"2026-03-23 17:50:00","58946","1.5819999999999999","101.6","3.332","103.4","1019.3960000000001","14.28","62.24","NAN","0.0"],
    [1547191,"2026-03-23 18:00:00","58947","1.506","95.5","3.103","68.77","1019.492","14.22","63.05","NAN","0.0"],
    [1547192,"2026-03-23 18:10:00","58948","1.329","88.5","2.875","89.6","1019.565","14.16","63.74","NAN","0.0"],
    [1547193,"2026-03-23 18:20:00","58949","1.893","89.8","3.5610000000000004","71.29","1019.618","14.07","62.98","NAN","0.0"],
    [1547194,"2026-03-23 18:30:00","58950","1.7080000000000002","98.8","3.201","64.24","1019.752","13.99","64.23","NAN","0.0"],
    [1547195,"2026-03-23 18:40:00","58951","1.3630000000000002","95.6","2.7769999999999997","109.6","1019.928","13.88","64.69","NAN","0.0"],
    [1547196,"2026-03-23 18:50:00","58952","1.459","107.1","2.7769999999999997","103.2","1020.049","13.86","66.42","NAN","0.0"],
    [1547197,"2026-03-23 19:00:00","58953","1.348","106.5","2.842","114.0","1020.2360000000001","13.82","66.2","NAN","0.0"],
    [1547198,"2026-03-23 19:10:00","58954","1.255","101.5","2.515","97.2","1020.3580000000001","13.86","66.22","NAN","0.0"],
    [1547199,"2026-03-23 19:20:00","58955","0.809","106.5","1.568","74.11","1020.503","13.81","66.71","NAN","0.0"],
    [1547200,"2026-03-23 19:30:00","58956","1.308","114.9","2.319","105.3","1020.72","13.77","66.58","NAN","0.0"],
    [1547201,"2026-03-23 19:40:00","58957","1.107","112.0","2.189","84.9","1020.7589999999999","13.75","66.64","NAN","0.0"],
    [1547202,"2026-03-23 19:50:00","58958","0.7929999999999999","120.4","1.405","148.4","1020.971","13.73","66.3","NAN","0.0"],
    [1547203,"2026-03-23 20:00:00","58959","0.998","124.5","2.025","109.2","1021.081","13.72","65.69","NAN","0.0"],
    [1547204,"2026-03-23 20:10:00","58960","0.564","114.8","1.209","118.8","1021.248","13.73","66.19","NAN","0.0"],
    [1547205,"2026-03-23 20:20:00","58961","0.376","163.8","1.2409999999999999","167.1","1021.375","13.69","67.57","NAN","0.0"],
    [1547206,"2026-03-23 20:30:00","58962","0.272","173.1","0.7509999999999999","178.5","1021.447","13.7","67.37","NAN","0.0"],
    [1547207,"2026-03-23 20:40:00","58963","0.48","170.0","0.915","157.9","1021.497","13.62","67.75","NAN","0.0"],
    [1547208,"2026-03-23 20:50:00","58964","0.41","184.3","0.882","179.9","1021.6139999999999","13.58","70.19","NAN","0.0"],
    [1547209,"2026-03-23 21:00:00","58965","0.621","193.0","1.111","196.5","1021.689","13.48","70.21","NAN","0.0"],
    [1547210,"2026-03-23 21:10:00","58966","0.858","214.3","1.47","214.4","1021.7460000000001","13.51","69.53","NAN","0.0"],
    [1547211,"2026-03-23 21:20:00","58967","0.852","242.1","1.568","229.6","1021.7460000000001","13.74","66.94","NAN","0.0"],
    [1547212,"2026-03-23 21:30:00","58968","0.49","223.9","1.633","269.0","1021.7460000000001","13.75","66.94","NAN","0.0"],
    [1547213,"2026-03-23 21:40:00","58969","0.47700000000000004","219.4","1.4369999999999998","267.1","1021.748","13.58","68.11","NAN","0.0"],
    [1547214,"2026-03-23 21:50:00","58970","0.665","201.3","1.176","194.2","1021.748","13.44","70.55","NAN","0.0"],
    [1547215,"2026-03-23 22:00:00","58971","0.826","216.1","2.123","236.5","1021.7510000000001","13.31","69.36","NAN","0.0"],
    [1547216,"2026-03-23 22:10:00","58972","0.7170000000000001","215.0","1.4369999999999998","245.5","1021.7460000000001","13.44","68.66","NAN","0.0"],
    [1547217,"2026-03-23 22:20:00","58973","0.7979999999999999","218.4","1.47","235.1","1021.743","13.25","69.47","NAN","0.0"],
    [1547218,"2026-03-23 22:30:00","58974","0.654","200.6","1.307","251.4","1021.801","13.23","70.32","NAN","0.0"],
    [1547219,"2026-03-23 22:40:00","58975","0.6990000000000001","203.2","1.47","253.1","1021.87","13.1","71.25","NAN","0.0"],
    [1547220,"2026-03-23 22:50:00","58976","0.43700000000000006","203.6","1.176","202.9","1021.883","13","71.86","NAN","0.0"],
    [1547221,"2026-03-23 23:00:00","58977","0.775","244.6","2.6460000000000004","260.1","1021.7860000000001","13.01","70.21","NAN","0.0"],
    [1547222,"2026-03-23 23:10:00","58978","0.8690000000000001","266.1","2.156","264.4","1021.785","13.41","66.43","NAN","0.0"],
    [1547223,"2026-03-23 23:20:00","58979","0.409","222.6","0.915","279.2","1021.755","13.39","67.27","NAN","0.0"],
    [1547224,"2026-03-23 23:30:00","58980","0.368","210.6","1.5030000000000001","252.2","1021.72","12.97","70.45","NAN","0.0"],
    [1547225,"2026-03-23 23:40:00","58981","0.113","222.0","0.621","176.0","1021.6389999999999","12.85","70.44","NAN","0.0"],
    [1547226,"2026-03-23 23:50:00","58982","0.579","265.0","1.535","243.4","1021.6360000000001","12.94","69.16","NAN","0.0"],
    [1547227,"2026-03-24 00:00:00","58983","0.132","258.7","1.535","292.0","1021.632","13.17","66.13","NAN","0.0"],
    [1547228,"2026-03-24 00:10:00","58984","0.85","327.2","1.9269999999999998","328.8","1021.654","13.23","64.57","NAN","0.0"],
    [1547229,"2026-03-24 00:20:00","58985","0.7759999999999999","329.3","2.417","300.0","1021.745","13.27","64.27","NAN","0.0"],
    [1547230,"2026-03-24 00:30:00","58986","1.022","289.3","2.45","268.7","1021.826","13.22","64.62","NAN","0.0"],
    [1547231,"2026-03-24 00:40:00","58987","0.711","273.2","2.025","256.8","1021.698","13.16","65.01","NAN","0.0"],
    [1547232,"2026-03-24 00:50:00","58988","0.7240000000000001","280.8","2.156","284.8","1021.763","13.12","65.32","NAN","0.0"],
    [1547233,"2026-03-24 01:00:00","58989","1.09","259.6","3.299","292.4","1021.762","13.13","65.4","NAN","0.0"],
    [1547234,"2026-03-24 01:10:00","58990","0.654","277.0","1.568","300.7","1021.757","13.04","65.85","NAN","0.0"],
    [1547235,"2026-03-24 01:20:00","58991","0.8640000000000001","262.2","2.0909999999999997","260.9","1021.679","13","66.16","NAN","0.0"],
    [1547236,"2026-03-24 01:30:00","58992","0.7959999999999999","267.9","2.613","231.0","1021.664","13.01","66.72","NAN","0.0"],
    [1547237,"2026-03-24 01:40:00","58993","0.662","260.5","1.797","285.4","1021.648","12.93","67.51","NAN","0.0"],
    [1547238,"2026-03-24 01:50:00","58994","0.7829999999999999","246.3","1.797","263.0","1021.64","12.9","68.01","NAN","0.0"],
    [1547239,"2026-03-24 02:00:00","58995","0.265","332.4","0.8170000000000001","307.5","1021.63","12.77","68.86","NAN","0.0"],
    [1547240,"2026-03-24 02:10:00","58996","0.318","85.4","0.8490000000000001","148.2","1021.572","12.3","71.62","NAN","0.0"],
    [1547241,"2026-03-24 02:20:00","58997","0.585","151.3","0.882","155.5","1021.505","12.15","72.3","NAN","0.0"],
    [1547242,"2026-03-24 02:30:00","58998","0.205","195.6","0.653","205.8","1021.422","12.26","72.57","NAN","0.0"],
    [1547243,"2026-03-24 02:40:00","58999","0.032","107.2","0.425","103.7","1021.326","11.9","73.92","NAN","0.0"],
    [1547244,"2026-03-24 02:50:00","59000","0.10400000000000001","186.7","0.457","164.0","1021.306","11.72","74.97","NAN","0.0"],
    [1547245,"2026-03-24 03:00:00","59001","0.115","218.3","0.49","223.7","1021.312","11.8","73.83","NAN","0.0"],
    [1547246,"2026-03-24 03:10:00","59002","0.408","238.1","1.045","246.4","1021.307","12.05","72.23","NAN","0.0"],
    [1547247,"2026-03-24 03:20:00","59003","0.638","246.9","1.601","230.1","1021.311","12.43","68.98","NAN","0.0"],
    [1547248,"2026-03-24 03:30:00","59004","0.16399999999999998","170.9","0.621","142.0","1021.31","12.38","68.46","NAN","0.0"],
    [1547249,"2026-03-24 03:40:00","59005","0.157","144.3","0.8170000000000001","249.0","1021.313","12.08","69.96","NAN","0.0"],
    [1547250,"2026-03-24 03:50:00","59006","0.406","251.8","1.633","266.8","1021.329","12.31","68.49","NAN","0.0"],
    [1547251,"2026-03-24 04:00:00","59007","0.242","147.3","0.784","155.7","1021.413","12.14","69.08","NAN","0.0"],
    [1547252,"2026-03-24 04:10:00","59008","0.046","161.6","0.523","160.2","1021.325","11.94","70.27","NAN","0.0"],
    [1547253,"2026-03-24 04:20:00","59009","0.0","0.0","0.0","0.0","1021.435","12.01","70.57","NAN","0.0"],
    [1547254,"2026-03-24 04:30:00","59010","0.077","70.55","0.523","64.99","1021.523","11.98","71.3","NAN","0.0"],
    [1547255,"2026-03-24 04:40:00","59011","0.62","102.0","1.4369999999999998","103.8","1021.576","12","71.92","NAN","0.0"],
    [1547256,"2026-03-24 04:50:00","59012","0.276","107.7","1.274","104.5","1021.57","12.21","74.71","NAN","0.0"],
    [1547257,"2026-03-24 05:00:00","59013","0.5920000000000001","76.02","1.143","79.33","1021.7289999999999","12.02","76.43","NAN","0.0"],
    [1547258,"2026-03-24 05:10:00","59014","0.5539999999999999","134.5","1.209","112.3","1021.813","12.07","75.98","NAN","0.0"],
    [1547259,"2026-03-24 05:20:00","59015","0.42700000000000005","170.0","0.9470000000000001","171.7","1021.81","12.03","76.66","NAN","0.0"],
    [1547260,"2026-03-24 05:30:00","59016","0.595","159.7","0.9470000000000001","157.1","1021.845","12","78.45","NAN","0.0"],
    [1547261,"2026-03-24 05:40:00","59017","0.26","93.6","1.111","50.49","1021.998","11.78","80","NAN","0.0"],
    [1547262,"2026-03-24 05:50:00","59018","0.038","51.74","0.392","37.79","1022.096","11.56","80.4","NAN","0.0"],
    [1547263,"2026-03-24 06:00:00","59019","0.23399999999999999","53.46","1.111","57.12","1022.375","11.6","79","NAN","0.0"],
    [1547264,"2026-03-24 06:10:00","59020","0.34600000000000003","50.35","0.6859999999999999","52.41","1022.6560000000001","11.7","77.53","NAN","0.0"],
    [1547265,"2026-03-24 06:20:00","59021","0.324","64.45","0.7190000000000001","51.69","1022.444","11.66","76.85","NAN","0.0"],
    [1547266,"2026-03-24 06:30:00","59022","0.632","36.63","1.633","43.91","1022.572","11.76","74.17","NAN","0.0"],
    [1547267,"2026-03-24 06:40:00","59023","1.207","21.39","2.319","45.06","1022.7180000000001","11.57","72.49","NAN","0.0"],
    [1547268,"2026-03-24 06:50:00","59024","0.892","6.954","1.568","3.1719999999999997","1022.768","11.5","72.46","NAN","0.0"],
    [1547269,"2026-03-24 07:00:00","59025","0.899","356.1","1.797","19.21","1022.83","11.72","70.93","NAN","0.0"],
    [1547270,"2026-03-24 07:10:00","59026","0.8340000000000001","7.689","1.96","4.982","1022.9689999999999","11.97","69.43","NAN","0.0"],
    [1547271,"2026-03-24 07:20:00","59027","0.727","20.01","1.274","358.7","1022.9810000000001","12.58","67.46","NAN","0.0"],
    [1547272,"2026-03-24 07:30:00","59028","0.451","349.8","1.111","9.32","1022.938","13.23","65.12","NAN","0.0"],
    [1547273,"2026-03-24 07:40:00","59029","0.191","69.47","0.7190000000000001","33.01","1023.0369999999999","14.35","61.05","NAN","0.0"],
    [1547274,"2026-03-24 07:50:00","59030","0.705","36.11","1.633","17.39","1023.039","15.23","56.76","NAN","0.0"],
    [1547275,"2026-03-24 08:00:00","59031","0.7390000000000001","39.44","1.633","11.93","1023.1139999999999","14.8","56.94","NAN","0.0"],
    [1547276,"2026-03-24 08:10:00","59032","0.976","169.2","1.5030000000000001","165.3","1023.209","14.78","61.3","NAN","0.0"],
    [1547277,"2026-03-24 08:20:00","59033","0.935","193.2","1.307","174.7","1023.3389999999999","14.71","62.78","NAN","0.0"],
    [1547278,"2026-03-24 08:30:00","59034","0.852","169.5","1.47","173.4","1023.461","15.01","62.02","NAN","0.0"],
    [1547279,"2026-03-24 08:40:00","59035","0.757","162.8","1.47","174.8","1023.535","15.39","59.96","NAN","0.0"],
    [1547280,"2026-03-24 08:50:00","59036","1.301","168.7","2.515","174.6","1023.557","15.35","59.88","NAN","0.0"],
    [1547281,"2026-03-24 09:00:00","59037","1.141","181.8","1.797","194.6","1023.552","15.58","59.63","NAN","0.0"],
    [1547282,"2026-03-24 09:10:00","59038","1.187","178.8","2.417","156.2","1023.5419999999999","15.94","58.65","NAN","0.0"],
    [1547283,"2026-03-24 09:20:00","59039","1.287","176.8","2.287","181.2","1023.548","15.74","58.18","NAN","0.0"],
    [1547284,"2026-03-24 09:30:00","59040","1.4580000000000002","180.0","2.548","181.1","1023.595","15.9","57.39","NAN","0.0"],
    [1547285,"2026-03-24 09:40:00","59041","1.361","171.4","2.352","183.3","1023.525","16.96","56.04","NAN","0.0"],
    [1547286,"2026-03-24 09:50:00","59042","1.348","170.3","2.6460000000000004","178.0","1024.089","27.69","65.04","NAN","0.0"],
    [1547287,"2026-03-24 10:00:00","59043","1.7619999999999998","178.8","2.6460000000000004","199.5","1024.22","40.29","76.62","NAN","0.5"],
    [1547288,"2026-03-24 10:10:00","59044","2.023","180.6","3.0380000000000003","176.7","1023.962","45.12","83.8","NAN","0.4"],
    [1547289,"2026-03-24 10:20:00","59045","2.205","188.9","3.071","183.6","1014.7610000000001","NAN","NAN","NAN","0.0"],
    [1547290,"2026-03-24 12:50:00","0","3.1519999999999997","177.2","5.651","174.0","1022.2610000000001","16.73","62.88","NAN","0.6"],
    [1547291,"2026-03-24 13:00:00","1","3.634","173.9","5.422999999999999","175.5","1022.232","16.28","65.73","NAN","0.0"],
    [1547292,"2026-03-24 13:10:00","2","3.4760000000000004","173.5","5.357","171.9","1022.185","16.41","65.97","NAN","0.2"],
    [1547293,"2026-03-24 13:20:00","3","4.164","174.6","5.912999999999999","173.2","1022.163","15.78","71.35","NAN","0.0"],
    [1547294,"2026-03-24 13:30:00","4","4.242","174.5","6.272","171.2","1022.058","15.65","71.48","NAN","0.0"],
    [1547295,"2026-03-24 13:40:00","5","3.7910000000000004","176.6","6.664","169.2","1021.913","15.98","71.46","NAN","0.0"],
    [1547296,"2026-03-24 13:50:00","6","4.206","174.2","6.011","179.6","1021.712","15.95","69.84","NAN","0.0"],
    [1547297,"2026-03-24 14:00:00","7","3.159","195.5","7.023","196.9","1021.565","17.36","54.37","NAN","0.0"],
    [1547298,"2026-03-24 14:10:00","8","2.738","205.0","6.337000000000001","199.9","1021.552","18.1","46.8","NAN","0.0"],
    [1547299,"2026-03-24 14:20:00","9","3.4389999999999996","203.7","6.468","211.9","1021.512","18.13","46.66","NAN","0.0"],
    [1547300,"2026-03-24 14:30:00","10","3.878","201.3","7.285","209.6","1021.436","17.59","48.7","NAN","0.0"],
    [1547301,"2026-03-24 14:40:00","11","3.511","200.8","6.5329999999999995","198.0","1021.4780000000001","17.45","48.38","NAN","0.0"],
    [1547302,"2026-03-24 14:50:00","12","3.31","208.7","7.056","207.8","1021.36","17.79","46.86","NAN","0.0"],
    [1547303,"2026-03-24 15:00:00","13","2.784","204.9","5.194","217.4","1021.291","17.51","50.09","NAN","0.0"],
    [1547304,"2026-03-24 15:10:00","14","3.012","206.6","6.0760000000000005","205.2","1021.284","17.47","51.74","NAN","0.0"],
    [1547305,"2026-03-24 15:20:00","15","3.216","209.6","6.042999999999999","203.8","1021.206","17.33","52.7","NAN","0.0"],
    [1547306,"2026-03-24 15:30:00","16","3.3339999999999996","209.4","6.435","219.9","1021.164","17.05","53.32","NAN","0.0"],
    [1547307,"2026-03-24 15:40:00","17","3.675","215.4","6.501","236.6","1021.166","17.08","52.81","NAN","0.0"],
    [1547308,"2026-03-24 15:50:00","18","3.123","221.4","6.042999999999999","185.3","1021.12","17.06","52.53","NAN","0.0"],
    [1547309,"2026-03-24 16:00:00","19","3.213","208.3","7.579","194.9","1021.041","16.81","55.13","NAN","0.0"],
    [1547310,"2026-03-24 16:10:00","20","2.694","220.7","6.337000000000001","219.1","1020.9889999999999","16.89","54.14","NAN","0.0"],
    [1547311,"2026-03-24 16:20:00","21","2.702","219.4","5.619","221.6","1020.93","16.78","55.26","NAN","0.0"],
    [1547312,"2026-03-24 16:30:00","22","2.4330000000000003","216.4","6.1739999999999995","200.3","1020.927","16.79","57.43","NAN","0.0"],
    [1547313,"2026-03-24 16:40:00","23","3.1189999999999998","222.1","6.042999999999999","224.9","1020.942","16.63","57.41","NAN","0.0"],
    [1547314,"2026-03-24 16:50:00","24","2.951","221.8","6.5329999999999995","224.7","1020.97","16.36","56.51","NAN","0.0"],
    [1547315,"2026-03-24 17:00:00","25","2.332","212.4","5.357","217.3","1020.987","16.42","55.13","NAN","0.0"],
    [1547316,"2026-03-24 17:10:00","26","2.386","220.1","5.978","239.7","1020.944","16.4","54.28","NAN","0.0"],
    [1547317,"2026-03-24 17:20:00","27","2.24","219.1","5.619","225.1","1020.942","16.17","56.16","NAN","0.0"],
    [1547318,"2026-03-24 17:30:00","28","2.147","219.6","5.422999999999999","214.0","1020.995","15.92","58.87","NAN","0.0"],
    [1547319,"2026-03-24 17:40:00","29","2.8680000000000003","222.7","5.978","226.8","1021.059","15.76","59.32","NAN","0.0"],
    [1547320,"2026-03-24 17:50:00","30","2.455","220.6","5.292000000000001","213.6","1021.044","15.58","59.62","NAN","0.0"],
    [1547321,"2026-03-24 18:00:00","31","2.508","222.3","5.357","214.2","1021.012","15.46","60.33","NAN","0.0"],
    [1547322,"2026-03-24 18:10:00","32","2.472","226.7","5.7170000000000005","229.5","1021.0419999999999","15.33","61.48","NAN","0.0"],
    [1547323,"2026-03-24 18:20:00","33","3.115","223.9","6.566","233.0","1021.1360000000001","15.14","62.81","NAN","0.0"],
    [1547324,"2026-03-24 18:30:00","34","2.66","223.5","5.88","219.5","1021.184","15","64.24","NAN","0.0"],
    [1547325,"2026-03-24 18:40:00","35","2.562","221.7","5.031000000000001","222.0","1021.2560000000001","14.92","65.17","NAN","0.0"],
    [1547326,"2026-03-24 18:50:00","36","1.996","226.1","4.312","243.6","1021.373","14.85","65.22","NAN","0.0"],
    [1547327,"2026-03-24 19:00:00","37","1.861","225.8","4.4430000000000005","214.5","1021.556","14.83","65.29","NAN","0.0"],
    [1547328,"2026-03-24 19:10:00","38","1.699","229.2","3.855","207.4","1021.716","14.77","65.22","NAN","0.0"],
    [1547329,"2026-03-24 19:20:00","39","1.419","226.8","3.6910000000000003","227.6","1021.804","14.73","64.64","NAN","0.0"],
    [1547330,"2026-03-24 19:30:00","40","1.492","222.7","3.6260000000000003","217.0","1021.9169999999999","14.65","64.75","NAN","0.0"],
    [1547331,"2026-03-24 19:40:00","41","1.41","231.0","3.528","237.9","1021.946","14.56","65.37","NAN","0.0"],
    [1547332,"2026-03-24 19:50:00","42","1.061","221.9","2.45","201.3","1022.076","14.57","65","NAN","0.0"],
    [1547333,"2026-03-24 20:00:00","43","1.706","219.8","3.495","235.7","1022.168","14.42","65.71","NAN","0.0"],
    [1547334,"2026-03-24 20:10:00","44","1.368","218.3","2.9730000000000003","216.3","1022.198","14.35","66.32","NAN","0.0"],
    [1547335,"2026-03-24 20:20:00","45","1.374","212.8","3.1689999999999996","226.3","1022.211","14.32","66.24","NAN","0.0"],
    [1547336,"2026-03-24 20:30:00","46","1.3840000000000001","214.0","3.005","236.9","1022.305","14.24","65.82","NAN","0.0"],
    [1547337,"2026-03-24 20:40:00","47","1.454","215.2","3.071","207.9","1022.383","14.17","65.25","NAN","0.0"],
    [1547338,"2026-03-24 20:50:00","48","1.2409999999999999","211.8","2.515","214.1","1022.451","14.13","64.87","NAN","0.0"],
    [1547339,"2026-03-24 21:00:00","49","1.2309999999999999","215.8","2.123","241.4","1022.5110000000001","14.09","64.35","NAN","0.0"],
    [1547340,"2026-03-24 21:10:00","50","1.258","213.5","2.352","221.3","1022.568","14.08","63.4","NAN","0.0"],
    [1547341,"2026-03-24 21:20:00","51","0.9309999999999999","215.6","2.189","194.5","1022.507","14.05","62.6","NAN","0.0"],
    [1547342,"2026-03-24 21:30:00","52","0.638","204.8","1.568","230.3","1022.4910000000001","14","63.06","NAN","0.0"],
    [1547343,"2026-03-24 21:40:00","53","0.643","206.6","1.5030000000000001","221.9","1022.4680000000001","13.88","63.35","NAN","0.0"],
    [1547344,"2026-03-24 21:50:00","54","0.846","212.9","2.0580000000000003","240.4","1022.4169999999999","13.93","61.5","NAN","0.0"],
    [1547345,"2026-03-24 22:00:00","55","1.052","214.6","2.287","218.4","1022.2710000000001","13.93","61.29","NAN","0.0"],
    [1547346,"2026-03-24 22:10:00","56","1.235","219.3","2.6460000000000004","232.7","1022.2180000000001","13.89","61.72","NAN","0.0"],
    [1547347,"2026-03-24 22:20:00","57","1.219","223.2","3.136","234.9","1022.1239999999999","13.86","62.64","NAN","0.0"],
    [1547348,"2026-03-24 22:30:00","58","0.9390000000000001","220.1","2.254","231.2","1022.084","13.81","63.98","NAN","0.0"],
    [1547349,"2026-03-24 22:40:00","59","0.496","206.5","1.045","184.2","1021.995","13.63","65.3","NAN","0.0"],
    [1547350,"2026-03-24 22:50:00","60","0.41600000000000004","208.2","1.176","217.5","1021.972","13.48","66.08","NAN","0.0"],
    [1547351,"2026-03-24 23:00:00","61","0.632","197.9","1.2409999999999999","203.2","1021.885","13.52","66.26","NAN","0.0"],
    [1547352,"2026-03-24 23:10:00","62","0.325","201.6","1.078","206.0","1021.87","13.46","66.46","NAN","0.0"],
    [1547353,"2026-03-24 23:20:00","63","0.26","227.4","1.4369999999999998","272.8","1021.87","13.4","66.74","NAN","0.0"],
    [1547354,"2026-03-24 23:30:00","64","0.753","233.7","2.0909999999999997","272.3","1021.793","13.65","65.46","NAN","0.0"],
    [1547355,"2026-03-24 23:40:00","65","0.28600000000000003","227.3","1.535","226.7","1021.7460000000001","13.39","67.04","NAN","0.0"],
    [1547356,"2026-03-24 23:50:00","66","0.514","242.3","1.535","254.8","1021.7460000000001","13.52","65.18","NAN","0.0"],
    [1547357,"2026-03-25 00:00:00","67","0.439","228.5","1.143","245.4","1021.7330000000001","13.49","64.97","NAN","0.0"],
    [1547358,"2026-03-25 00:10:00","68","0.406","261.3","0.7190000000000001","182.9","1021.711","13.45","65.36","NAN","0.0"],
    [1547359,"2026-03-25 00:20:00","69","0.445","43.01","0.98","43.54","1021.571","13.15","65.77","NAN","0.0"],
    [1547360,"2026-03-25 00:30:00","70","0.146","29.26","0.49","38.58","1021.582","12.81","64.83","NAN","0.0"],
    [1547361,"2026-03-25 00:40:00","71","0.012","64.23","0.22899999999999998","70.49","1021.546","12.59","64.11","NAN","0.0"],
    [1547362,"2026-03-25 00:50:00","72","0.0","0.0","0.0","0.0","1021.368","12.53","63.93","NAN","0.0"],
    [1547363,"2026-03-25 01:00:00","73","0.115","72.25","0.49","62.99","1021.248","12.65","63.66","NAN","0.0"],
    [1547364,"2026-03-25 01:10:00","74","0.053","84.4","0.392","84.0","1021.205","12.38","65.08","NAN","0.0"],
    [1547365,"2026-03-25 01:20:00","75","0.532","202.8","1.078","212.0","1020.9010000000001","12.37","69.29","NAN","0.0"],
    [1547366,"2026-03-25 01:30:00","76","0.23","186.5","0.7509999999999999","179.7","1020.7819999999999","12.28","71.44","NAN","0.0"],
    [1547367,"2026-03-25 01:40:00","77","0.341","221.8","1.176","257.9","1020.581","12.24","67.2","NAN","0.0"],
    [1547368,"2026-03-25 01:50:00","78","0.581","251.1","1.209","227.6","1020.3889999999999","12.59","62.74","NAN","0.0"],
    [1547369,"2026-03-25 02:00:00","79","0.585","253.5","1.274","261.9","1020.283","13.06","58.72","NAN","0.0"],
    [1547370,"2026-03-25 02:10:00","80","0.623","249.5","1.3719999999999999","256.1","1020.298","13.25","57.81","NAN","0.0"],
    [1547371,"2026-03-25 02:20:00","81","0.555","211.3","0.98","235.8","1020.145","13.02","60.54","NAN","0.0"],
    [1547372,"2026-03-25 02:30:00","82","0.15","230.1","1.045","247.1","1019.959","12.58","61.52","NAN","0.0"],
    [1547373,"2026-03-25 02:40:00","83","0.419","200.3","0.882","187.4","1019.7539999999999","12.54","59.8","NAN","0.0"],
    [1547374,"2026-03-25 02:50:00","84","0.5579999999999999","227.2","1.143","232.2","1019.69","12.61","56.74","NAN","0.0"],
    [1547375,"2026-03-25 03:00:00","85","0.657","208.6","2.417","233.9","1019.63","12.76","55.24","NAN","0.0"],
    [1547376,"2026-03-25 03:10:00","86","0.392","243.4","1.078","219.6","1019.592","12.58","55.91","NAN","0.0"],
    [1547377,"2026-03-25 03:20:00","87","0.386","245.6","1.339","223.5","1019.449","12.69","55.58","NAN","0.0"],
    [1547378,"2026-03-25 03:30:00","88","0.575","188.0","1.307","212.5","1019.3480000000001","12.51","57.33","NAN","0.0"],
    [1547379,"2026-03-25 03:40:00","89","0.581","187.6","1.339","214.5","1019.196","12.32","60","NAN","0.0"],
    [1547380,"2026-03-25 03:50:00","90","0.6709999999999999","210.5","1.209","201.4","1019.0160000000001","12.24","57.31","NAN","0.0"],
    [1547381,"2026-03-25 04:00:00","91","0.405","227.1","1.045","222.3","1019.034","12.4","54.06","NAN","0.0"],
    [1547382,"2026-03-25 04:10:00","92","0.171","198.9","0.8170000000000001","185.7","1019.0210000000001","12.55","53.87","NAN","0.0"],
    [1547383,"2026-03-25 04:20:00","93","0.307","186.7","1.045","216.1","1018.935","12.19","56.13","NAN","0.0"],
    [1547384,"2026-03-25 04:30:00","94","0.040999999999999995","189.9","0.425","198.5","1018.789","12.04","57.19","NAN","0.0"],
    [1547385,"2026-03-25 04:40:00","95","0.299","42.83","0.9470000000000001","45.71","1018.887","12.02","59.67","NAN","0.0"],
    [1547386,"2026-03-25 04:50:00","96","0.456","55.77","0.7509999999999999","64.39","1018.79","11.86","66.4","NAN","0.0"],
    [1547387,"2026-03-25 05:00:00","97","0.263","10.43","0.588","23.65","1018.7230000000001","11.83","67.46","NAN","0.0"],
    [1547388,"2026-03-25 05:10:00","98","0.021","139.5","0.327","140.0","1018.562","11.55","68.71","NAN","0.0"],
    [1547389,"2026-03-25 05:20:00","99","0.146","7.678999999999999","0.6859999999999999","353.3","1018.548","11.73","69.24","NAN","0.0"],
    [1547390,"2026-03-25 05:30:00","100","0.332","31.11","0.915","58.7","1018.561","11.51","70","NAN","0.0"],
    [1547391,"2026-03-25 05:40:00","101","0.42200000000000004","14.07","1.209","346.5","1018.633","11.55","69.17","NAN","0.0"],
    [1547392,"2026-03-25 05:50:00","102","0.792","8.61","1.797","6.212000000000001","1018.77","11.58","68.25","NAN","0.0"],
    [1547393,"2026-03-25 06:00:00","103","0.536","13.17","1.143","19.47","1018.7860000000001","11.42","68.38","NAN","0.0"],
    [1547394,"2026-03-25 06:10:00","104","0.373","29.05","1.111","39.31","1018.632","11.32","67.97","NAN","0.0"],
    [1547395,"2026-03-25 06:20:00","105","0.48200000000000004","357.0","1.339","5.767","1018.4910000000001","11.46","67.2","NAN","0.0"],
    [1547396,"2026-03-25 06:30:00","106","0.168","24.21","0.9470000000000001","2.419","1018.43","11.88","64.99","NAN","0.0"],
    [1547397,"2026-03-25 06:40:00","107","0.159","78.86","0.523","97.5","1018.617","12.71","61.42","NAN","0.0"],
    [1547398,"2026-03-25 06:50:00","108","0.441","134.3","0.6859999999999999","101.1","1018.752","12.9","60.83","NAN","0.0"],
    [1547399,"2026-03-25 07:00:00","109","0.59","112.0","0.9470000000000001","105.3","1018.697","13.17","61.37","NAN","0.0"],
    [1547400,"2026-03-25 07:10:00","110","0.102","74.05","0.49","78.31","1018.679","13.98","57.82","NAN","0.0"],
    [1547401,"2026-03-25 07:20:00","111","0.561","183.4","1.307","168.0","1018.523","14.23","55.69","NAN","0.0"],
    [1547402,"2026-03-25 07:30:00","112","0.889","200.6","2.5810000000000004","230.2","1018.414","14.39","51.26","NAN","0.0"],
    [1547403,"2026-03-25 07:40:00","113","1.1540000000000001","207.9","2.0580000000000003","195.9","1018.329","14.85","49.59","NAN","0.0"],
    [1547404,"2026-03-25 07:50:00","114","1.077","211.9","2.319","222.2","1018.317","15.08","48.43","NAN","0.0"],
    [1547405,"2026-03-25 08:00:00","115","0.9470000000000001","222.3","2.156","208.4","1018.409","15.51","46.89","NAN","0.0"],
    [1547406,"2026-03-25 08:10:00","116","1.35","234.8","2.5810000000000004","239.4","1018.569","15.52","46.65","NAN","0.0"],
    [1547407,"2026-03-25 08:20:00","117","1.463","236.7","2.875","233.8","1018.686","15.84","46.47","NAN","0.0"],
    [1547408,"2026-03-25 08:30:00","118","1.29","236.3","2.6460000000000004","245.0","1018.6460000000001","15.98","46.08","NAN","0.0"],
    [1547409,"2026-03-25 08:40:00","119","1.021","186.7","2.0909999999999997","179.8","1018.5369999999999","16.48","45.79","NAN","0.0"],
    [1547410,"2026-03-25 08:50:00","120","1.1079999999999999","170.2","2.45","188.3","1018.5419999999999","16.73","45.61","NAN","0.0"],
    [1547411,"2026-03-25 09:00:00","121","2.7439999999999998","174.1","4.149","177.5","1018.377","15.93","51.46","NAN","0.0"],
    [1547412,"2026-03-25 09:10:00","122","2.2880000000000003","188.3","4.083","174.8","1018.297","15.79","52.78","NAN","0.0"],
    [1547413,"2026-03-25 09:20:00","123","1.835","186.2","2.875","170.3","1018.297","16.26","52.84","NAN","0.0"],
    [1547414,"2026-03-25 09:30:00","124","1.682","199.1","3.7239999999999998","194.1","1018.225","16.86","52.19","NAN","0.0"],
    [1547415,"2026-03-25 09:40:00","125","1.7619999999999998","207.4","3.6260000000000003","227.7","1018.14","17.23","50.54","NAN","0.0"],
    [1547416,"2026-03-25 09:50:00","126","1.626","216.4","4.279","216.4","1017.93","17.72","49.14","NAN","0.0"],
    [1547417,"2026-03-25 10:00:00","127","1.89","220.1","3.659","263.0","1017.87","18.11","47.83","NAN","0.0"],
    [1547418,"2026-03-25 10:10:00","128","2.105","208.2","3.7889999999999997","234.2","1017.78","17.88","52.74","NAN","0.0"],
    [1547419,"2026-03-25 10:20:00","129","2.353","208.7","4.606","205.8","1017.669","17.8","53.23","NAN","0.0"],
    [1547420,"2026-03-25 10:30:00","130","2.602","203.2","4.965","196.5","1017.4789999999999","17.89","51.72","NAN","0.0"],
    [1547421,"2026-03-25 10:40:00","131","2.8960000000000004","197.0","4.638999999999999","198.3","1017.309","17.49","52.2","NAN","0.0"],
    [1547422,"2026-03-25 10:50:00","132","2.778","197.2","4.933","204.2","1017.189","17.45","52.94","NAN","0.0"],
    [1547423,"2026-03-25 11:00:00","133","2.722","196.7","4.867","200.1","1017.132","17.65","51.82","NAN","0.0"],
    [1547424,"2026-03-25 11:10:00","134","3.338","199.8","6.566","212.1","1017.1039999999999","17.35","51.93","NAN","0.0"],
    [1547425,"2026-03-25 11:20:00","135","2.401","209.0","6.042999999999999","207.5","1017.071","17.73","50.53","NAN","0.0"],
    [1547426,"2026-03-25 11:30:00","136","2.226","211.7","5.847","197.7","1016.9019999999999","18.14","50.56","NAN","0.0"],
    [1547427,"2026-03-25 11:40:00","137","2.918","203.3","5.619","193.7","1016.695","17.72","53","NAN","0.0"],
    [1547428,"2026-03-25 11:50:00","138","2.695","215.7","7.775","203.0","1016.5880000000001","17.82","53.09","NAN","0.0"],
    [1547429,"2026-03-25 12:00:00","139","2.273","232.0","5.553","223.0","1016.461","18.37","51.92","NAN","0.0"],
    [1547430,"2026-03-25 12:10:00","140","1.886","212.5","4.638999999999999","216.6","1016.284","18.61","52.91","NAN","0.0"],
    [1547431,"2026-03-25 12:20:00","141","2.551","210.4","5.815","243.8","1016.122","18.27","53.19","NAN","0.0"],
    [1547432,"2026-03-25 12:30:00","142","2.532","206.5","5.782","189.8","1015.872","18.5","51.11","NAN","0.0"],
    [1547433,"2026-03-25 12:40:00","143","2.98","203.0","5.129","199.8","1015.663","18.1","52.83","NAN","0.0"],
    [1547434,"2026-03-25 12:50:00","144","2.01","212.8","5.422999999999999","207.1","1015.682","18.64","51.94","NAN","0.0"],
    [1547435,"2026-03-25 13:00:00","145","2.56","211.4","6.697","227.0","1015.6089999999999","18.72","50.6","NAN","0.0"],
    [1547436,"2026-03-25 13:10:00","146","2.595","203.8","5.096","202.2","1015.444","18.4","51.7","NAN","0.0"],
    [1547437,"2026-03-25 13:20:00","147","2.385","206.8","4.769","200.8","1015.33","18.77","49.49","NAN","0.0"],
    [1547438,"2026-03-25 13:30:00","148","2.835","206.4","5.815","209.6","1015.193","18.62","49.97","NAN","0.0"],
    [1547439,"2026-03-25 13:40:00","149","2.7039999999999997","207.0","5.684","216.4","1015.0089999999999","18.94","49.33","NAN","0.0"],
    [1547440,"2026-03-25 13:50:00","150","3.502","200.0","6.37","216.6","1014.7719999999999","18.28","53.68","NAN","0.0"],
    [1547441,"2026-03-25 14:00:00","151","2.9139999999999997","207.4","6.1739999999999995","197.3","1014.451","18.35","54.59","NAN","0.0"],
    [1547442,"2026-03-25 14:10:00","152","3.103","219.2","6.9910000000000005","234.7","1014.445","18.81","54.81","NAN","0.0"],
    [1547443,"2026-03-25 14:20:00","153","2.4659999999999997","218.5","5.521","202.9","1014.367","19.14","52.34","NAN","0.0"],
    [1547444,"2026-03-25 14:30:00","154","2.299","216.7","4.704","198.2","1014.179","19.08","52.95","NAN","0.0"],
    [1547445,"2026-03-25 14:40:00","155","2.239","225.1","5.586","227.1","1014.08","19.23","53.82","NAN","0.0"],
    [1547446,"2026-03-25 14:50:00","156","2.696","213.6","6.207000000000001","189.6","1013.95","18.6","58.39","NAN","0.0"],
    [1547447,"2026-03-25 15:00:00","157","2.571","228.5","6.566","230.2","1013.893","18.43","59.58","NAN","0.0"],
    [1547448,"2026-03-25 15:10:00","158","2.47","227.7","6.042999999999999","262.2","1013.6569999999999","18.47","58.92","NAN","0.0"],
    [1547449,"2026-03-25 15:20:00","159","2.222","219.0","5.39","210.6","1013.452","18.56","59.96","NAN","0.0"],
    [1547450,"2026-03-25 15:30:00","160","2.136","213.7","5.096","188.5","1013.195","18.58","60","NAN","0.0"],
    [1547451,"2026-03-25 15:40:00","161","2.648","212.8","5.651","222.0","1012.9830000000001","18.59","56.42","NAN","0.0"],
    [1547452,"2026-03-25 15:50:00","162","2.5810000000000004","223.7","7.0889999999999995","204.0","1012.7669999999999","18.97","53.3","NAN","0.0"],
    [1547453,"2026-03-25 16:00:00","163","3.622","230.4","7.218999999999999","229.4","1012.715","18.33","55.55","NAN","0.0"],
    [1547454,"2026-03-25 16:10:00","164","3.39","228.0","7.317","233.8","1012.663","18.13","55.71","NAN","0.0"],
    [1547455,"2026-03-25 16:20:00","165","2.9","229.7","6.631","239.2","1012.518","18","54.81","NAN","0.0"],
    [1547456,"2026-03-25 16:30:00","166","2.3209999999999997","227.1","4.998","229.5","1012.539","18.1","56.34","NAN","0.0"],
    [1547457,"2026-03-25 16:40:00","167","2.917","234.7","7.056","237.8","1012.561","17.63","60.37","NAN","0.0"],
    [1547458,"2026-03-25 16:50:00","168","2.733","228.6","5.422999999999999","235.6","1012.493","17.45","62.63","NAN","0.0"],
    [1547459,"2026-03-25 17:00:00","169","2.479","238.6","6.566","263.8","1012.3739999999999","17.33","63.29","NAN","0.0"],
    [1547460,"2026-03-25 17:10:00","170","2.416","234.3","4.867","253.3","1012.307","17.27","63.38","NAN","0.0"],
    [1547461,"2026-03-25 17:20:00","171","2.334","228.5","4.704","231.9","1012.25","16.93","64.73","NAN","0.0"],
    [1547462,"2026-03-25 17:30:00","172","1.693","230.4","3.985","236.4","1012.317","16.79","65.7","NAN","0.0"],
    [1547463,"2026-03-25 17:40:00","173","1.452","232.9","4.312","234.3","1012.262","16.75","66.85","NAN","0.0"],
    [1547464,"2026-03-25 17:50:00","174","2.535","235.9","4.704","237.3","1012.1419999999999","16.48","68.66","NAN","0.0"],
    [1547465,"2026-03-25 18:00:00","175","1.629","219.9","4.41","230.4","1012.085","16.25","69.55","NAN","0.0"],
    [1547466,"2026-03-25 18:10:00","176","1.5330000000000001","236.9","4.247","263.6","1012.01","16.07","70.8","NAN","0.0"],
    [1547467,"2026-03-25 18:20:00","177","1.422","234.9","3.7569999999999997","245.1","1011.956","15.86","72.46","NAN","0.0"],
    [1547468,"2026-03-25 18:30:00","178","1.317","199.2","2.613","185.5","1011.875","15.59","73.94","NAN","0.0"],
    [1547469,"2026-03-25 18:40:00","179","0.8190000000000001","212.0","2.6460000000000004","195.8","1011.954","15.36","75.55","NAN","0.0"],
    [1547470,"2026-03-25 18:50:00","180","2.198","249.8","3.887","236.0","1012.005","15.37","76.97","NAN","0.0"],
    [1547471,"2026-03-25 19:00:00","181","1.859","241.9","4.1160000000000005","236.7","1012.21","15.3","78.11","NAN","0.0"],
    [1547472,"2026-03-25 19:10:00","182","2.287","239.5","4.247","231.7","1012.235","15.27","78.82","NAN","0.0"],
    [1547473,"2026-03-25 19:20:00","183","1.632","236.1","3.6910000000000003","245.1","1012.2389999999999","15.28","78.98","NAN","0.0"],
    [1547474,"2026-03-25 19:30:00","184","1.115","327.9","2.8089999999999997","246.7","1012.39","15.4","77.84","NAN","0.0"],
    [1547475,"2026-03-25 19:40:00","185","0.695","345.5","1.568","310.4","1012.623","15.68","74.96","NAN","0.0"],
    [1547476,"2026-03-25 19:50:00","186","1.59","31.1","3.7239999999999998","28.0","1012.7360000000001","15.92","72.98","NAN","0.0"],
    [1547477,"2026-03-25 20:00:00","187","2.333","36.23","5.4879999999999995","27.22","1012.937","15.63","76.07","NAN","0.0"],
    [1547478,"2026-03-25 20:10:00","188","2.813","47.18","6.435","48.92","1013.1439999999999","14.98","82.8","NAN","0.0"],
    [1547479,"2026-03-25 20:20:00","189","2.335","43.27","4.573","51.84","1013.18","14.64","85.8","NAN","0.0"],
    [1547480,"2026-03-25 20:30:00","190","2.174","43.76","4.671","49.25","1013.238","14.61","85.7","NAN","0.0"],
    [1547481,"2026-03-25 20:40:00","191","2.255","38.57","4.41","54.39","1013.2710000000001","14.59","86","NAN","0.0"],
    [1547482,"2026-03-25 20:50:00","192","2.7739999999999996","41.93","5.749","35.98","1013.2230000000001","14.53","86.7","NAN","0.0"],
    [1547483,"2026-03-25 21:00:00","193","2.585","40.18","4.377","56.07","1013.2860000000001","14.46","87.8","NAN","0.0"],
    [1547484,"2026-03-25 21:10:00","194","2.365","36.69","4.312","46.03","1013.457","14.5","88.4","NAN","0.0"],
    [1547485,"2026-03-25 21:20:00","195","2.329","48.6","4.835","52.82","1013.64","14.56","87.1","NAN","0.0"],
    [1547486,"2026-03-25 21:30:00","196","2.928","45.08","5.2589999999999995","26.62","1013.722","14.54","86.3","NAN","0.0"],
    [1547487,"2026-03-25 21:40:00","197","2.245","53.85","4.312","53.24","1013.8380000000001","14.6","85.9","NAN","0.0"],
    [1547488,"2026-03-25 21:50:00","198","2.454","51.31","4.704","25.35","1013.84","14.55","84.7","NAN","0.0"],
    [1547489,"2026-03-25 22:00:00","199","2.218","40.58","4.4430000000000005","59.58","1013.951","14.52","86.2","NAN","0.0"],
    [1547490,"2026-03-25 22:10:00","200","1.974","42.97","4.573","60.96","1013.928","14.54","87.1","NAN","0.0"],
    [1547491,"2026-03-25 22:20:00","201","1.74","47.81","3.528","33.98","1013.885","14.59","87","NAN","0.0"],
    [1547492,"2026-03-25 22:30:00","202","1.82","34.69","3.463","38.02","1013.834","14.64","87.1","NAN","0.0"],
    [1547493,"2026-03-25 22:40:00","203","1.8259999999999998","36.49","3.005","6.62","1013.834","14.62","88","NAN","0.0"],
    [1547494,"2026-03-25 22:50:00","204","1.545","33.65","2.9730000000000003","19.98","1013.8839999999999","14.6","89","NAN","0.0"],
    [1547495,"2026-03-25 23:00:00","205","1.411","40.66","2.7769999999999997","18.01","1013.982","14.58","89.6","NAN","0.0"],
    [1547496,"2026-03-25 23:10:00","206","1.885","73.18","4.149","67.89","1014.148","14.55","89.8","NAN","0.0"],
    [1547497,"2026-03-25 23:20:00","207","1.778","61.32","3.887","70.65","1014.112","14.45","90.2","NAN","0.0"],
    [1547498,"2026-03-25 23:30:00","208","1.273","79.27","2.352","76.5","1014.1030000000001","14.45","90","NAN","0.0"],
    [1547499,"2026-03-25 23:40:00","209","0.9209999999999999","200.8","3.822","270.5","1014.0","14.42","89.5","NAN","0.0"],
    [1547500,"2026-03-25 23:50:00","210","1.4369999999999998","273.0","3.7569999999999997","273.1","1013.945","13.53","70.69","NAN","0.0"],
    [1547501,"2026-03-26 00:00:00","211","0.638","8.46","2.0580000000000003","323.6","1014.047","13.02","69.97","NAN","0.2"],
    [1547502,"2026-03-26 00:10:00","212","0.835","284.3","1.7309999999999999","339.6","1014.1469999999999","12.98","69.22","NAN","0.0"],
    [1547503,"2026-03-26 00:20:00","213","0.628","273.1","1.764","285.6","1014.2719999999999","13.22","65.2","NAN","0.0"],
    [1547504,"2026-03-26 00:30:00","214","0.695","275.4","1.993","287.6","1014.265","13.33","58.93","NAN","0.0"],
    [1547505,"2026-03-26 00:40:00","215","0.251","292.9","1.666","252.1","1014.23","13.44","57.55","NAN","0.0"],
    [1547506,"2026-03-26 00:50:00","216","0.23","11.75","0.98","15.62","1014.2769999999999","13.48","57.63","NAN","0.0"],
    [1547507,"2026-03-26 01:00:00","217","0.392","248.5","1.111","289.6","1014.242","13.51","59.91","NAN","0.0"],
    [1547508,"2026-03-26 01:10:00","218","0.654","303.1","1.568","279.4","1014.18","13.63","58.71","NAN","0.0"],
    [1547509,"2026-03-26 01:20:00","219","0.765","299.0","2.7439999999999998","319.1","1013.938","13.59","49.81","NAN","0.0"],
    [1547510,"2026-03-26 01:30:00","220","1.162","272.2","2.0580000000000003","276.6","1013.7719999999999","13.63","49.05","NAN","0.0"],
    [1547511,"2026-03-26 01:40:00","221","1.079","284.5","2.7110000000000003","282.4","1013.702","13.61","48.56","NAN","0.0"],
    [1547512,"2026-03-26 01:50:00","222","1.4069999999999998","284.5","3.528","236.0","1013.7339999999999","13.41","47.31","NAN","0.0"],
    [1547513,"2026-03-26 02:00:00","223","1.67","265.5","3.528","235.0","1013.6460000000001","13.15","46.69","NAN","0.0"],
    [1547514,"2026-03-26 02:10:00","224","1.307","274.2","4.998","287.6","1013.595","13","46.02","NAN","0.0"],
    [1547515,"2026-03-26 02:20:00","225","1.48","294.4","3.985","266.5","1013.543","12.82","45.59","NAN","0.0"],
    [1547516,"2026-03-26 02:30:00","226","1.72","266.5","3.985","287.4","1013.455","12.52","45.45","NAN","0.0"],
    [1547517,"2026-03-26 02:40:00","227","2.458","268.9","5.096","292.6","1013.4730000000001","12.37","45.25","NAN","0.0"],
    [1547518,"2026-03-26 02:50:00","228","1.959","270.1","4.638999999999999","258.5","1013.58","12.26","45.08","NAN","0.0"],
    [1547519,"2026-03-26 03:00:00","229","1.8980000000000001","265.5","4.802","257.8","1013.448","12.09","44.8","NAN","0.0"],
    [1547520,"2026-03-26 03:10:00","230","1.59","256.1","4.018","286.9","1013.363","11.95","45.01","NAN","0.0"],
    [1547521,"2026-03-26 03:20:00","231","1.7280000000000002","264.1","4.998","292.7","1013.409","11.8","45.11","NAN","0.0"],
    [1547522,"2026-03-26 03:30:00","232","2.155","275.6","5.063","320.3","1013.5360000000001","11.59","45.01","NAN","0.0"],
    [1547523,"2026-03-26 03:40:00","233","2.338","284.2","5.227","247.2","1013.505","11.36","45.3","NAN","0.0"],
    [1547524,"2026-03-26 03:50:00","234","1.464","269.5","3.985","286.3","1013.5039999999999","11.25","45.59","NAN","0.0"],
    [1547525,"2026-03-26 04:00:00","235","2.326","272.0","5.553","283.6","1013.4810000000001","11.1","45.7","NAN","0.0"],
    [1547526,"2026-03-26 04:10:00","236","1.903","269.6","4.247","253.2","1013.421","11.02","45.94","NAN","0.0"],
    [1547527,"2026-03-26 04:20:00","237","1.784","278.4","5.847","259.0","1013.6210000000001","10.97","45.96","NAN","0.0"],
    [1547528,"2026-03-26 04:30:00","238","1.825","270.4","4.671","275.5","1013.773","10.88","45.89","NAN","0.0"],
    [1547529,"2026-03-26 04:40:00","239","1.903","285.6","5.1610000000000005","313.8","1013.784","10.77","46.03","NAN","0.0"],
    [1547530,"2026-03-26 04:50:00","240","2.129","319.5","4.541","322.4","1013.707","10.67","46.24","NAN","0.0"],
    [1547531,"2026-03-26 05:00:00","241","1.8940000000000001","315.9","4.867","300.3","1013.8789999999999","10.68","46.31","NAN","0.0"],
    [1547532,"2026-03-26 05:10:00","242","1.161","292.0","2.7769999999999997","262.3","1013.8839999999999","10.71","46.1","NAN","0.0"],
    [1547533,"2026-03-26 05:20:00","243","1.15","268.7","3.071","317.3","1013.997","10.74","45.71","NAN","0.0"],
    [1547534,"2026-03-26 05:30:00","244","1.0290000000000001","287.1","2.417","298.0","1014.176","10.76","45.21","NAN","0.0"],
    [1547535,"2026-03-26 05:40:00","245","1.375","287.6","3.365","258.5","1014.265","10.76","45.06","NAN","0.0"],
    [1547536,"2026-03-26 05:50:00","246","1.197","252.6","2.842","259.8","1014.3430000000001","10.78","45.23","NAN","0.0"],
    [1547537,"2026-03-26 06:00:00","247","1.486","261.7","3.887","252.6","1014.383","10.71","45.71","NAN","0.0"],
    [1547538,"2026-03-26 06:10:00","248","1.83","265.8","5.031000000000001","286.1","1014.507","10.59","46.24","NAN","0.0"],
    [1547539,"2026-03-26 06:20:00","249","1.8559999999999999","252.3","4.247","291.5","1014.6619999999999","10.65","46.03","NAN","0.0"],
    [1547540,"2026-03-26 06:30:00","250","1.463","265.6","3.7889999999999997","266.9","1014.831","10.71","45.88","NAN","0.0"],
    [1547541,"2026-03-26 06:40:00","251","1.0290000000000001","271.8","2.515","263.9","1014.883","10.94","45.46","NAN","0.0"],
    [1547542,"2026-03-26 06:50:00","252","0.551","293.0","1.797","240.0","1015.095","11.44","43.91","NAN","0.0"],
    [1547543,"2026-03-26 07:00:00","253","1.161","242.2","2.45","251.8","1015.2760000000001","11.73","43.02","NAN","0.0"],
    [1547544,"2026-03-26 07:10:00","254","0.6709999999999999","284.0","1.993","262.2","1015.3580000000001","11.87","42.7","NAN","0.0"],
    [1547545,"2026-03-26 07:20:00","255","2.039","92.5","4.181","102.6","1015.567","12.05","43.58","NAN","0.0"],
    [1547546,"2026-03-26 07:30:00","256","1.426","67.37","2.875","75.96","1015.7639999999999","12.11","43.5","NAN","0.0"],
    [1547547,"2026-03-26 07:40:00","257","1.253","60.1","2.417","41.55","1015.8689999999999","12.33","42.29","NAN","0.0"],
    [1547548,"2026-03-26 07:50:00","258","1.354","44.39","2.8089999999999997","31.92","1015.956","12.38","41.92","NAN","0.0"],
    [1547549,"2026-03-26 08:00:00","259","1.4609999999999999","22.01","3.495","53.8","1016.029","12.15","42.15","NAN","0.0"],
    [1547550,"2026-03-26 08:10:00","260","1.808","31.58","4.312","8.52","1016.203","12.52","42.35","NAN","0.0"],
    [1547551,"2026-03-26 08:20:00","261","1.584","1.974","3.234","4.069","1016.28","12.52","41.71","NAN","0.0"],
    [1547552,"2026-03-26 08:30:00","262","0.723","336.2","2.254","292.8","1016.3789999999999","13.02","40.2","NAN","0.0"],
    [1547553,"2026-03-26 08:40:00","263","1.2229999999999999","19.94","2.483","320.8","1016.3969999999999","13.29","39.41","NAN","0.0"],
    [1547554,"2026-03-26 08:50:00","264","1.194","73.4","2.7110000000000003","82.1","1016.3789999999999","13.42","39.33","NAN","0.0"],
    [1547555,"2026-03-26 09:00:00","265","1.44","129.1","2.7110000000000003","181.0","1016.462","13.29","41.51","NAN","0.0"],
    [1547556,"2026-03-26 09:10:00","266","1.9669999999999999","176.6","2.907","160.7","1016.5310000000001","12.64","44","NAN","0.0"],
    [1547557,"2026-03-26 09:20:00","267","2.352","181.2","3.463","178.4","1016.664","12.78","43.39","NAN","0.0"],
    [1547558,"2026-03-26 09:30:00","268","2.0709999999999997","183.3","3.1689999999999996","155.1","1016.681","12.64","44.08","NAN","0.0"],
    [1547559,"2026-03-26 09:40:00","269","1.901","183.4","3.593","186.4","1016.591","12.94","44.19","NAN","0.0"],
    [1547560,"2026-03-26 09:50:00","270","2.224","165.8","3.7889999999999997","179.6","1016.543","12.78","46.25","NAN","0.0"],
    [1547561,"2026-03-26 10:00:00","271","3.055","174.9","4.279","178.0","1016.3839999999999","12.69","47.74","NAN","0.0"],
    [1547562,"2026-03-26 10:10:00","272","3.273","176.2","4.835","162.9","1016.29","12.74","48.21","NAN","0.0"],
    [1547563,"2026-03-26 10:20:00","273","2.861","174.0","4.508","182.2","1016.317","12.87","48.49","NAN","0.0"],
    [1547564,"2026-03-26 10:30:00","274","3.537","179.1","4.835","184.8","1016.198","12.67","50.67","NAN","0.0"],
    [1547565,"2026-03-26 10:40:00","275","3.1180000000000003","183.3","4.737","165.8","1016.148","12.67","52.94","NAN","0.0"],
    [1547566,"2026-03-26 10:50:00","276","3.103","184.8","5.129","212.3","1016.12","12.89","52.8","NAN","0.0"],
    [1547567,"2026-03-26 11:00:00","277","3.069","186.7","4.835","176.4","1015.985","12.89","52.7","NAN","0.0"],
    [1547568,"2026-03-26 11:10:00","278","3.0469999999999997","184.6","4.9","173.7","1015.826","12.83","52.91","NAN","0.0"],
    [1547569,"2026-03-26 11:20:00","279","2.28","202.7","3.9530000000000003","208.0","1015.779","13.85","49.62","NAN","0.0"],
    [1547570,"2026-03-26 11:30:00","280","2.5989999999999998","193.1","4.312","198.4","1015.567","13.82","49.81","NAN","0.0"],
    [1547571,"2026-03-26 11:40:00","281","3.4730000000000003","183.1","7.775","174.9","1015.455","13.97","49.3","NAN","0.0"],
    [1547572,"2026-03-26 11:50:00","282","4.867","180.5","7.807","170.7","1015.47","13.03","54.77","NAN","0.0"],
    [1547573,"2026-03-26 12:00:00","283","3.967","182.2","7.709","176.5","1015.385","13.1","53.84","NAN","0.0"],
    [1547574,"2026-03-26 12:10:00","284","3.611","184.5","5.7170000000000005","172.2","1015.283","13.41","53.08","NAN","0.0"],
    [1547575,"2026-03-26 12:20:00","285","3.319","186.9","6.1739999999999995","172.4","1015.201","13.35","53.99","NAN","0.0"],
    [1547576,"2026-03-26 12:30:00","286","3.228","187.6","5.782","190.9","1015.199","13.6","53.67","NAN","0.0"],
    [1547577,"2026-03-26 12:40:00","287","4.611000000000001","178.3","8.13","176.0","1015.166","13.34","55.26","NAN","0.0"],
    [1547578,"2026-03-26 12:50:00","288","5.083","177.9","7.84","175.2","1015.054","13.2","57.65","NAN","0.0"],
    [1547579,"2026-03-26 13:00:00","289","5.164","178.3","7.971","172.3","1014.957","12.93","59.07","NAN","0.0"],
    [1547580,"2026-03-26 13:10:00","290","4.493","175.9","7.218999999999999","173.5","1014.875","13.1","58.76","NAN","0.0"],
    [1547581,"2026-03-26 13:20:00","291","3.819","182.0","6.957999999999999","170.5","1014.73","13.47","57.7","NAN","0.0"],
    [1547582,"2026-03-26 13:30:00","292","4.047","181.0","7.611000000000001","168.9","1014.655","13.52","59.04","NAN","0.0"],
    [1547583,"2026-03-26 13:40:00","293","4.425","180.7","7.84","177.1","1014.4760000000001","13.34","60.24","NAN","0.0"],
    [1547584,"2026-03-26 13:50:00","294","4.357","180.7","6.957999999999999","165.2","1014.347","13.18","61.13","NAN","0.0"],
    [1547585,"2026-03-26 14:00:00","295","4.638","178.2","7.481","170.8","1014.262","13.19","60.69","NAN","0.0"],
    [1547586,"2026-03-26 14:10:00","296","4.477","179.9","7.023","167.4","1014.18","13.14","59.84","NAN","0.0"],
    [1547587,"2026-03-26 14:20:00","297","4.352","177.8","6.599","180.6","1014.13","13.17","60.6","NAN","0.0"],
    [1547588,"2026-03-26 14:30:00","298","4.434","178.6","6.664","181.6","1014.0310000000001","13.05","63.56","NAN","0.0"],
    [1547589,"2026-03-26 14:40:00","299","3.861","177.0","6.403","171.5","1014.028","13.09","66.92","NAN","0.0"],
    [1547590,"2026-03-26 14:50:00","300","4.199","176.4","6.403","177.3","1013.936","13.03","67.7","NAN","0.0"],
    [1547591,"2026-03-26 15:00:00","301","4.109","181.6","6.501","173.7","1013.8389999999999","13","68.63","NAN","0.0"],
    [1547592,"2026-03-26 15:10:00","302","3.525","180.2","6.109","192.3","1013.7860000000001","12.76","70.36","NAN","0.0"],
    [1547593,"2026-03-26 15:20:00","303","3.142","170.2","6.0760000000000005","180.5","1013.684","12.81","69.81","NAN","0.0"],
    [1547594,"2026-03-26 15:30:00","304","2.715","171.3","6.042999999999999","176.6","1013.577","13.12","68.97","NAN","0.0"],
    [1547595,"2026-03-26 15:40:00","305","2.4019999999999997","152.9","5.063","163.4","1013.56","13.1","69.51","NAN","0.0"],
    [1547596,"2026-03-26 15:50:00","306","2.541","156.9","4.606","165.3","1013.6469999999999","12.96","69.86","NAN","0.0"],
    [1547597,"2026-03-26 16:00:00","307","2.2159999999999997","150.2","4.2139999999999995","165.7","1013.635","13.1","69.42","NAN","0.0"],
    [1547598,"2026-03-26 16:10:00","308","2.208","153.8","3.9530000000000003","172.6","1013.627","12.84","69.22","NAN","0.0"],
    [1547599,"2026-03-26 16:20:00","309","2.185","150.1","4.051","164.1","1013.602","12.79","69.54","NAN","0.0"],
    [1547600,"2026-03-26 16:30:00","310","2.571","126.1","5.1610000000000005","111.9","1013.607","12.78","70.3","NAN","0.0"],
    [1547601,"2026-03-26 16:40:00","311","2.137","130.8","4.2139999999999995","115.7","1013.538","12.87","69.62","NAN","0.0"],
    [1547602,"2026-03-26 16:50:00","312","3.02","125.9","5.586","111.6","1013.654","12.65","70.7","NAN","0.0"],
    [1547603,"2026-03-26 17:00:00","313","2.62","140.4","4.573","167.0","1013.715","12.54","70.36","NAN","0.0"],
    [1547604,"2026-03-26 17:10:00","314","2.759","125.7","4.933","110.5","1013.813","12.5","70.34","NAN","0.0"],
    [1547605,"2026-03-26 17:20:00","315","2.656","125.7","4.867","126.0","1013.93","12.46","70.17","NAN","0.0"],
    [1547606,"2026-03-26 17:30:00","316","2.6839999999999997","127.7","4.41","97.4","1013.9580000000001","12.42","70.38","NAN","0.0"],
    [1547607,"2026-03-26 17:40:00","317","2.859","126.1","5.031000000000001","113.6","1013.965","12.41","70.92","NAN","0.0"],
    [1547608,"2026-03-26 17:50:00","318","1.999","141.8","4.149","167.3","1014.0889999999999","12.51","70","NAN","0.0"],
    [1547609,"2026-03-26 18:00:00","319","2.182","141.4","4.1160000000000005","126.4","1014.273","12.46","69.87","NAN","0.0"],
    [1547610,"2026-03-26 18:10:00","320","2.26","139.9","5.129","120.4","1014.457","12.46","69.81","NAN","0.0"],
    [1547611,"2026-03-26 18:20:00","321","2.524","131.2","5.1610000000000005","111.8","1014.424","12.5","71.24","NAN","0.0"],
    [1547612,"2026-03-26 18:30:00","322","2.252","151.3","4.051","172.9","1014.377","12.39","71.21","NAN","0.0"],
    [1547613,"2026-03-26 18:40:00","323","1.9880000000000002","149.3","4.4430000000000005","174.3","1014.432","12.43","70.66","NAN","0.0"],
    [1547614,"2026-03-26 18:50:00","324","2.336","150.0","4.769","135.8","1014.6389999999999","12.47","71.21","NAN","0.0"],
    [1547615,"2026-03-26 19:00:00","325","2.351","157.7","4.312","159.9","1014.801","12.39","71.84","NAN","0.0"],
    [1547616,"2026-03-26 19:10:00","326","1.829","160.4","3.593","173.9","1014.942","12.41","72.13","NAN","0.0"],
    [1547617,"2026-03-26 19:20:00","327","2.336","155.0","4.802","164.0","1014.805","12.43","72.18","NAN","0.0"],
    [1547618,"2026-03-26 19:30:00","328","2.812","165.0","4.671","167.5","1014.9060000000001","12.35","71.8","NAN","0.0"],
    [1547619,"2026-03-26 19:40:00","329","2.198","162.3","4.508","172.0","1015.1619999999999","12.4","72.58","NAN","0.0"],
    [1547620,"2026-03-26 19:50:00","330","1.996","153.5","3.7569999999999997","175.4","1015.187","12.45","72.39","NAN","0.0"],
    [1547621,"2026-03-26 20:00:00","331","1.7719999999999998","165.4","3.365","184.3","1015.3539999999999","12.46","71.43","NAN","0.0"],
    [1547622,"2026-03-26 20:10:00","332","2.08","162.8","3.463","166.3","1015.513","12.51","71.28","NAN","0.0"],
    [1547623,"2026-03-26 20:20:00","333","1.483","160.2","3.234","174.8","1015.427","12.57","69.53","NAN","0.0"],
    [1547624,"2026-03-26 20:30:00","334","1.985","179.1","3.887","182.5","1015.618","12.64","70.56","NAN","0.0"],
    [1547625,"2026-03-26 20:40:00","335","1.754","170.3","3.0380000000000003","188.4","1015.703","12.68","71.73","NAN","0.0"],
    [1547626,"2026-03-26 20:50:00","336","1.76","167.1","3.071","170.2","1015.77","12.78","68.22","NAN","0.0"],
    [1547627,"2026-03-26 21:00:00","337","1.605","173.9","2.94","181.1","1015.7669999999999","12.95","65.42","NAN","0.0"],
    [1547628,"2026-03-26 21:10:00","338","1.151","158.2","2.417","131.1","1015.865","12.99","64.75","NAN","0.0"],
    [1547629,"2026-03-26 21:20:00","339","1.912","160.4","4.018","172.6","1015.9689999999999","13.05","62.89","NAN","0.0"],
    [1547630,"2026-03-26 21:30:00","340","1.673","161.7","3.299","150.2","1016.0160000000001","12.99","66.63","NAN","0.0"],
    [1547631,"2026-03-26 21:40:00","341","1.8530000000000002","165.5","3.9530000000000003","180.4","1016.0160000000001","12.99","67.51","NAN","0.0"],
    [1547632,"2026-03-26 21:50:00","342","2.0469999999999997","152.4","3.528","170.4","1016.059","13.01","66.38","NAN","0.0"],
    [1547633,"2026-03-26 22:00:00","343","2.31","160.3","3.887","130.9","1016.1439999999999","13.06","65.71","NAN","0.0"],
    [1547634,"2026-03-26 22:10:00","344","2.719","163.2","4.737","164.2","1016.188","13.14","64.6","NAN","0.0"],
    [1547635,"2026-03-26 22:20:00","345","3.194","165.1","5.4879999999999995","158.1","1016.2230000000001","13.17","64.84","NAN","0.0"],
    [1547636,"2026-03-26 22:30:00","346","2.935","169.5","8.04","181.5","1016.2360000000001","13.23","69.28","NAN","0.0"],
    [1547637,"2026-03-26 22:40:00","347","3.553","175.6","6.239","176.1","1016.173","13.26","71.23","NAN","0.0"],
    [1547638,"2026-03-26 22:50:00","348","4.256","180.7","7.807","166.8","1016.076","13.23","72.6","NAN","0.0"],
    [1547639,"2026-03-26 23:00:00","349","3.74","185.0","7.023","170.6","1015.9889999999999","13.27","72.8","NAN","0.0"],
    [1547640,"2026-03-26 23:10:00","350","4.263","180.6","7.415","179.7","1015.982","13.26","70.53","NAN","0.0"],
    [1547641,"2026-03-26 23:20:00","351","4.466","180.8","8.0","182.8","1015.91","13.32","71.26","NAN","0.0"],
    [1547642,"2026-03-26 23:30:00","352","5.395","180.8","8.72","179.6","1015.735","13.32","70.37","NAN","0.0"],
    [1547643,"2026-03-26 23:40:00","353","4.855","180.6","8.95","178.2","1015.573","13.34","70.51","NAN","0.0"],
    [1547644,"2026-03-26 23:50:00","354","5.983","181.7","10.65","177.7","1015.4","13.4","68.87","NAN","0.0"],
    [1547645,"2026-03-27 00:00:00","355","5.582000000000001","188.6","8.92","178.6","1015.36","13.47","68.02","NAN","0.0"],
    [1547646,"2026-03-27 00:10:00","356","4.475","182.8","8.23","176.7","1015.6010000000001","13.5","61.88","NAN","0.0"],
    [1547647,"2026-03-27 00:20:00","357","2.369","131.4","5.586","113.9","1015.796","13.31","59.91","NAN","0.0"],
    [1547648,"2026-03-27 00:30:00","358","1.504","71.26","4.181","68.42","1015.977","13.13","58.53","NAN","0.0"],
    [1547649,"2026-03-27 00:40:00","359","0.9940000000000001","52.9","2.352","67.62","1016.003","12.93","62.83","NAN","0.0"],
    [1547650,"2026-03-27 00:50:00","360","1.2919999999999998","88.8","2.483","64.07","1015.789","12.6","63.04","NAN","0.0"],
    [1547651,"2026-03-27 01:00:00","361","0.78","89.8","1.9269999999999998","63.62","1015.696","12.47","64.34","NAN","0.0"],
    [1547652,"2026-03-27 01:10:00","362","0.848","45.22","1.9269999999999998","40.5","1015.6419999999999","12.4","65.88","NAN","0.0"],
    [1547653,"2026-03-27 01:20:00","363","0.8","11.48","1.797","5.047","1015.5930000000001","12.41","67.03","NAN","0.0"],
    [1547654,"2026-03-27 01:30:00","364","0.8640000000000001","15.71","1.8619999999999999","11.86","1015.4730000000001","12.36","68.78","NAN","0.0"],
    [1547655,"2026-03-27 01:40:00","365","0.809","10.8","1.339","36.82","1015.3960000000001","12.44","65.35","NAN","0.0"],
    [1547656,"2026-03-27 01:50:00","366","0.54","38.6","1.829","36.14","1015.3589999999999","12.49","62.78","NAN","0.0"],
    [1547657,"2026-03-27 02:00:00","367","0.903","43.77","1.47","66.13","1015.306","12.28","69.5","NAN","0.0"],
    [1547658,"2026-03-27 02:10:00","368","0.18899999999999997","359.9","0.523","1.849","1015.2689999999999","12.09","68.55","NAN","0.0"],
    [1547659,"2026-03-27 02:20:00","369","0.624","355.6","1.633","50.37","1015.2260000000001","12.38","64.05","NAN","0.0"],
    [1547660,"2026-03-27 02:30:00","370","0.986","279.0","1.9269999999999998","286.1","1015.062","12.46","64.96","NAN","0.0"],
    [1547661,"2026-03-27 02:40:00","371","1.5390000000000001","256.8","3.659","271.5","1015.029","12.33","63.47","NAN","0.0"],
    [1547662,"2026-03-27 02:50:00","372","1.5530000000000002","243.7","3.1689999999999996","272.6","1015.0210000000001","11.78","64.09","NAN","0.0"],
    [1547663,"2026-03-27 03:00:00","373","1.8159999999999998","236.0","3.0380000000000003","237.2","1015.029","11.43","63.1","NAN","0.0"],
    [1547664,"2026-03-27 03:10:00","374","1.102","252.8","2.385","241.9","1015.188","11.4","58.55","NAN","0.0"],
    [1547665,"2026-03-27 03:20:00","375","0.833","285.2","3.005","246.8","1015.293","11.47","52.57","NAN","0.0"],
    [1547666,"2026-03-27 03:30:00","376","0.99","248.6","2.842","281.5","1015.302","11.48","47.86","NAN","0.0"],
    [1547667,"2026-03-27 03:40:00","377","0.33299999999999996","29.96","1.045","50.15","1015.304","11.21","47.62","NAN","0.0"],
    [1547668,"2026-03-27 03:50:00","378","0.6409999999999999","285.5","2.319","261.9","1015.225","11.11","48.11","NAN","0.0"],
    [1547669,"2026-03-27 04:00:00","379","0.7709999999999999","294.5","1.993","321.7","1015.2510000000001","11.12","47.56","NAN","0.0"],
    [1547670,"2026-03-27 04:10:00","380","0.853","285.1","2.0909999999999997","305.8","1015.325","11.13","45.93","NAN","0.0"],
    [1547671,"2026-03-27 04:20:00","381","1.113","269.6","2.907","283.0","1015.334","10.89","45.39","NAN","0.0"],
    [1547672,"2026-03-27 04:30:00","382","1.1840000000000002","242.8","2.679","278.0","1015.3489999999999","10.79","45.61","NAN","0.0"],
    [1547673,"2026-03-27 04:40:00","383","1.465","305.3","4.802","329.9","1015.3760000000001","10.74","43.73","NAN","0.0"],
    [1547674,"2026-03-27 04:50:00","384","1.198","320.0","3.365","307.1","1015.336","10.73","42.22","NAN","0.0"],
    [1547675,"2026-03-27 05:00:00","385","0.608","316.6","1.764","329.0","1015.3380000000001","10.52","43.91","NAN","0.0"],
    [1547676,"2026-03-27 05:10:00","386","1.037","346.9","2.483","262.3","1015.3389999999999","10.47","42.61","NAN","0.0"],
    [1547677,"2026-03-27 05:20:00","387","0.8009999999999999","299.7","3.005","313.2","1015.421","10.42","42.78","NAN","0.0"],
    [1547678,"2026-03-27 05:30:00","388","0.9840000000000001","295.4","1.993","325.3","1015.461","10.35","44.37","NAN","0.0"],
    [1547679,"2026-03-27 05:40:00","389","0.9470000000000001","299.5","1.96","297.6","1015.543","10.38","44.69","NAN","0.0"],
    [1547680,"2026-03-27 05:50:00","390","1.131","277.2","2.352","258.1","1015.549","10.13","45.07","NAN","0.0"],
    [1547681,"2026-03-27 06:00:00","391","0.504","302.9","1.535","337.3","1015.581","10","45.28","NAN","0.0"],
    [1547682,"2026-03-27 06:10:00","392","1.212","283.5","3.397","256.3","1015.6510000000001","9.95","45.18","NAN","0.0"],
    [1547683,"2026-03-27 06:20:00","393","0.887","342.8","2.319","339.4","1015.795","9.65","46.24","NAN","0.0"],
    [1547684,"2026-03-27 06:30:00","394","0.76","71.17","1.699","31.5","1015.9019999999999","9.57","47.26","NAN","0.0"],
    [1547685,"2026-03-27 06:40:00","395","0.875","41.63","2.123","37.09","1015.982","9.69","47.3","NAN","0.0"],
    [1547686,"2026-03-27 06:50:00","396","1.0590000000000002","34.19","2.189","55.63","1016.112","10.24","45.3","NAN","0.0"],
    [1547687,"2026-03-27 07:00:00","397","0.23","337.8","1.176","351.0","1016.168","10.63","43.85","NAN","0.0"],
    [1547688,"2026-03-27 07:10:00","398","1.218","317.7","3.299","330.2","1016.0239999999999","11.06","41.59","NAN","0.0"],
    [1547689,"2026-03-27 07:20:00","399","0.735","265.6","2.352","256.9","1015.822","11.26","40.96","NAN","0.0"],
    [1547690,"2026-03-27 07:30:00","400","0.7909999999999999","284.9","1.8619999999999999","242.1","1015.7669999999999","11.51","41.1","NAN","0.0"],
    [1547691,"2026-03-27 07:40:00","401","0.58","344.2","1.9269999999999998","324.6","1015.8939999999999","11.85","39.49","NAN","0.0"],
    [1547692,"2026-03-27 07:50:00","402","1.119","79.89","2.548","125.8","1016.07","12.29","37.96","NAN","0.0"],
    [1547693,"2026-03-27 08:00:00","403","1.6680000000000001","162.4","2.8089999999999997","175.5","1016.173","11.55","43.84","NAN","0.0"],
    [1547694,"2026-03-27 08:10:00","404","1.474","175.2","2.7439999999999998","180.0","1016.22","11.38","44.34","NAN","0.0"],
    [1547695,"2026-03-27 08:20:00","405","1.8530000000000002","180.3","3.1689999999999996","183.4","1016.3","11.53","44.21","NAN","0.0"],
    [1547696,"2026-03-27 08:30:00","406","1.422","202.9","2.907","176.0","1016.377","11.53","43.94","NAN","0.0"],
    [1547697,"2026-03-27 08:40:00","407","1.063","187.9","1.764","213.9","1016.357","12.05","42.25","NAN","0.0"],
    [1547698,"2026-03-27 08:50:00","408","0.643","229.7","1.633","210.8","1016.3689999999999","12.1","41.45","NAN","0.0"],
    [1547699,"2026-03-27 09:00:00","409","0.955","184.7","1.633","175.9","1016.215","12.5","40.86","NAN","0.0"],
    [1547700,"2026-03-27 09:10:00","410","0.879","173.4","1.405","166.4","1016.173","12.81","40.13","NAN","0.0"],
    [1547701,"2026-03-27 09:20:00","411","1.104","185.7","2.0580000000000003","169.9","1016.1","13.13","40.23","NAN","0.0"],
    [1547702,"2026-03-27 09:30:00","412","1.4769999999999999","187.5","3.201","181.0","1016.0319999999999","13.16","41.29","NAN","0.0"],
    [1547703,"2026-03-27 09:40:00","413","1.6059999999999999","179.1","2.7769999999999997","144.0","1015.9689999999999","13.13","41.35","NAN","0.0"],
    [1547704,"2026-03-27 09:50:00","414","1.244","179.2","2.613","177.1","1015.946","13.37","39.33","NAN","0.0"],
    [1547705,"2026-03-27 10:00:00","415","1.052","213.2","2.8089999999999997","236.0","1015.926","14.29","35.95","NAN","0.0"],
    [1547706,"2026-03-27 10:10:00","416","1.681","188.2","3.365","182.3","1015.819","14.46","34.59","NAN","0.0"],
    [1547707,"2026-03-27 10:20:00","417","2.187","131.1","4.083","177.4","1015.707","13.73","37.6","NAN","0.0"],
    [1547708,"2026-03-27 10:30:00","418","2.79","170.4","4.802","162.3","1015.7139999999999","14.08","36.38","NAN","0.0"],
    [1547709,"2026-03-27 10:40:00","419","2.637","176.0","4.835","157.0","1015.789","14.16","36.7","NAN","0.0"],
    [1547710,"2026-03-27 10:50:00","420","3.432","176.9","5.521","174.6","1015.804","13.64","41.48","NAN","0.0"],
    [1547711,"2026-03-27 11:00:00","421","3.391","174.5","5.684","180.0","1015.742","13.32","43.26","NAN","0.0"],
    [1547712,"2026-03-27 11:10:00","422","3.054","175.5","5.063","176.9","1015.809","13.38","44.43","NAN","0.0"],
    [1547713,"2026-03-27 11:20:00","423","3.865","179.3","5.4879999999999995","174.7","1015.677","13.19","46.1","NAN","0.0"],
    [1547714,"2026-03-27 11:30:00","424","3.1860000000000004","183.2","5.1610000000000005","168.8","1015.7689999999999","13.16","47.63","NAN","0.0"],
    [1547715,"2026-03-27 11:40:00","425","3.263","179.3","5.553","183.6","1015.62","13.16","48.25","NAN","0.0"],
    [1547716,"2026-03-27 11:50:00","426","3.1460000000000004","178.5","5.455","178.1","1015.5169999999999","13.34","47.29","NAN","0.0"],
    [1547717,"2026-03-27 12:00:00","427","3.352","176.9","5.553","186.4","1015.455","13.23","47.61","NAN","0.0"],
    [1547718,"2026-03-27 12:10:00","428","3.051","172.5","4.835","179.5","1015.4","13.23","46.85","NAN","0.0"],
    [1547719,"2026-03-27 12:20:00","429","3.333","178.2","5.325","181.2","1015.293","13.33","46.27","NAN","0.0"],
    [1547720,"2026-03-27 12:30:00","430","3.742","180.6","5.586","178.2","1015.2289999999999","13.18","47.08","NAN","0.0"],
    [1547721,"2026-03-27 12:40:00","431","3.3680000000000003","180.8","6.141","179.6","1015.2360000000001","13.32","47.38","NAN","0.0"],
    [1547722,"2026-03-27 12:50:00","432","3.5069999999999997","175.7","5.684","174.0","1015.204","13.28","48.63","NAN","0.0"],
    [1547723,"2026-03-27 13:00:00","433","3.6289999999999996","175.5","6.0760000000000005","170.7","1015.206","13.34","49.08","NAN","0.0"],
    [1547724,"2026-03-27 13:10:00","434","3.498","181.9","5.88","181.6","1015.199","13.27","49.91","NAN","0.0"],
    [1547725,"2026-03-27 13:20:00","435","3.8080000000000003","180.0","5.619","167.1","1015.1489999999999","13.2","51.15","NAN","0.0"],
    [1547726,"2026-03-27 13:30:00","436","3.315","174.7","5.357","177.7","1015.179","13.58","50.71","NAN","0.0"],
    [1547727,"2026-03-27 13:40:00","437","3.117","170.9","5.031000000000001","187.3","1015.086","13.55","50.6","NAN","0.0"],
    [1547728,"2026-03-27 13:50:00","438","3.5869999999999997","183.6","5.521","181.6","1015.0219999999999","13.49","51.07","NAN","0.0"],
    [1547729,"2026-03-27 14:00:00","439","3.18","188.6","4.933","182.4","1014.965","13.44","50.92","NAN","0.0"],
    [1547730,"2026-03-27 14:10:00","440","3.2910000000000004","180.9","4.802","178.2","1015.03","13.41","50.25","NAN","0.0"],
    [1547731,"2026-03-27 14:20:00","441","3.259","181.8","4.867","182.7","1015.064","13.53","49.41","NAN","0.0"],
    [1547732,"2026-03-27 14:30:00","442","3.509","177.4","5.684","182.0","1015.072","13.33","50.13","NAN","0.0"],
    [1547733,"2026-03-27 14:40:00","443","3.397","179.0","5.031000000000001","180.0","1015.077","13.54","47.34","NAN","0.0"],
    [1547734,"2026-03-27 14:50:00","444","2.8339999999999996","182.1","4.9","177.6","1014.987","13.57","52.29","NAN","0.0"],
    [1547735,"2026-03-27 15:00:00","445","3.014","176.9","4.802","180.7","1015.067","13.66","53.38","NAN","0.0"],
    [1547736,"2026-03-27 15:10:00","446","3.1830000000000003","173.5","5.521","163.9","1015.199","13.5","57.79","NAN","0.0"],
    [1547737,"2026-03-27 15:20:00","447","2.576","160.3","4.2139999999999995","166.2","1015.199","13.48","58.55","NAN","0.0"],
    [1547738,"2026-03-27 15:30:00","448","2.489","170.8","4.638999999999999","169.9","1015.211","13.53","59.34","NAN","0.0"],
    [1547739,"2026-03-27 15:40:00","449","3.0589999999999997","175.5","4.802","184.8","1015.216","13.48","59.01","NAN","0.0"],
    [1547740,"2026-03-27 15:50:00","450","2.8080000000000003","172.0","4.867","184.9","1015.311","13.53","59.04","NAN","0.0"],
    [1547741,"2026-03-27 16:00:00","451","2.9189999999999996","173.7","5.1610000000000005","181.7","1015.373","13.37","59.63","NAN","0.0"],
    [1547742,"2026-03-27 16:10:00","452","3.115","178.2","4.965","178.2","1015.3960000000001","13.42","59.16","NAN","0.0"],
    [1547743,"2026-03-27 16:20:00","453","3.2760000000000002","180.6","4.737","185.2","1015.488","13.45","58.75","NAN","0.0"],
    [1547744,"2026-03-27 16:30:00","454","2.7760000000000002","179.5","4.965","180.3","1015.555","13.52","59.54","NAN","0.0"],
    [1547745,"2026-03-27 16:40:00","455","2.332","157.3","4.083","164.4","1015.655","13.65","58.46","NAN","0.0"],
    [1547746,"2026-03-27 16:50:00","456","2.529","179.5","4.41","184.1","1015.697","13.51","61.14","NAN","0.0"],
    [1547747,"2026-03-27 17:00:00","457","2.4330000000000003","172.1","3.92","174.7","1015.699","13.41","59.75","NAN","0.0"],
    [1547748,"2026-03-27 17:10:00","458","2.255","188.1","4.051","183.0","1015.737","13.36","60.24","NAN","0.0"],
    [1547749,"2026-03-27 17:20:00","459","2.138","178.4","4.051","180.1","1015.92","13.22","60.28","NAN","0.0"],
    [1547750,"2026-03-27 17:30:00","460","2.5340000000000003","181.1","3.92","182.8","1015.9580000000001","13.12","60.22","NAN","0.0"],
    [1547751,"2026-03-27 17:40:00","461","2.296","184.8","3.985","172.4","1016.0880000000001","13.1","60.12","NAN","0.0"],
    [1547752,"2026-03-27 17:50:00","462","2.3080000000000003","175.5","3.495","171.1","1016.14","13.09","60.62","NAN","0.0"],
    [1547753,"2026-03-27 18:00:00","463","2.5660000000000003","183.7","4.638999999999999","173.4","1016.265","13.1","60.89","NAN","0.0"],
    [1547754,"2026-03-27 18:10:00","464","2.105","184.4","3.299","183.5","1016.325","13.14","63.77","NAN","0.0"],
    [1547755,"2026-03-27 18:20:00","465","1.855","194.7","3.7889999999999997","172.4","1016.442","13.07","63.51","NAN","0.0"],
    [1547756,"2026-03-27 18:30:00","466","1.8519999999999999","193.9","3.397","184.8","1016.612","13.05","63.07","NAN","0.0"],
    [1547757,"2026-03-27 18:40:00","467","1.6640000000000001","207.2","3.593","200.8","1016.7239999999999","13.14","61.16","NAN","0.0"],
    [1547758,"2026-03-27 18:50:00","468","1.382","199.0","2.385","196.1","1016.7639999999999","13.14","60.42","NAN","0.0"],
    [1547759,"2026-03-27 19:00:00","469","1.359","222.5","2.679","215.4","1016.8810000000001","13.16","58.3","NAN","0.0"],
    [1547760,"2026-03-27 19:10:00","470","1.626","223.1","3.136","217.6","1016.993","13.26","56.73","NAN","0.0"],
    [1547761,"2026-03-27 19:20:00","471","1.3780000000000001","229.4","2.8089999999999997","244.5","1017.102","13.24","57.39","NAN","0.0"],
    [1547762,"2026-03-27 19:30:00","472","1.212","234.2","3.201","256.2","1017.237","13.2","57.98","NAN","0.0"],
    [1547763,"2026-03-27 19:40:00","473","1.192","221.4","2.287","217.8","1017.289","13.12","58.83","NAN","0.0"],
    [1547764,"2026-03-27 19:50:00","474","1.5530000000000002","232.0","3.1689999999999996","242.8","1017.2739999999999","12.99","60.26","NAN","0.0"],
    [1547765,"2026-03-27 20:00:00","475","1.422","223.5","2.907","204.3","1017.3839999999999","12.94","61.69","NAN","0.0"],
    [1547766,"2026-03-27 20:10:00","476","1.4069999999999998","216.4","2.385","213.4","1017.4889999999999","12.82","62.49","NAN","0.0"],
    [1547767,"2026-03-27 20:20:00","477","1.3230000000000002","217.5","2.352","218.1","1017.582","12.75","62.77","NAN","0.0"],
    [1547768,"2026-03-27 20:30:00","478","1.237","227.9","2.8089999999999997","238.3","1017.6160000000001","12.81","62.52","NAN","0.0"],
    [1547769,"2026-03-27 20:40:00","479","1.2229999999999999","223.7","2.7439999999999998","232.1","1017.675","12.77","62.86","NAN","0.0"],
    [1547770,"2026-03-27 20:50:00","480","1.119","222.1","2.548","228.9","1017.686","12.73","63.03","NAN","0.0"],
    [1547771,"2026-03-27 21:00:00","481","1.045","226.5","2.123","220.8","1017.7810000000001","12.67","63.39","NAN","0.0"],
    [1547772,"2026-03-27 21:10:00","482","1.22","225.8","2.7439999999999998","252.0","1017.837","12.65","63.82","NAN","0.0"],
    [1547773,"2026-03-27 21:20:00","483","1.167","226.1","2.515","240.1","1017.944","12.65","63.85","NAN","0.0"],
    [1547774,"2026-03-27 21:30:00","484","1.092","222.0","2.515","201.1","1018.046","12.58","64.08","NAN","0.0"],
    [1547775,"2026-03-27 21:40:00","485","1.107","227.9","2.254","220.1","1018.074","12.58","63.7","NAN","0.0"],
    [1547776,"2026-03-27 21:50:00","486","0.868","226.9","1.829","209.2","1018.209","12.44","63.81","NAN","0.0"],
    [1547777,"2026-03-27 22:00:00","487","1.111","232.5","3.365","243.4","1018.27","12.44","63.01","NAN","0.0"],
    [1547778,"2026-03-27 22:10:00","488","0.9890000000000001","226.2","2.025","216.0","1018.2719999999999","12.48","62.32","NAN","0.0"],
    [1547779,"2026-03-27 22:20:00","489","1.008","215.4","2.254","230.9","1018.3380000000001","12.35","63.01","NAN","0.0"],
    [1547780,"2026-03-27 22:30:00","490","0.848","227.2","1.7309999999999999","254.1","1018.3910000000001","12.32","63.43","NAN","0.0"],
    [1547781,"2026-03-27 22:40:00","491","1.217","230.8","2.7769999999999997","234.3","1018.4010000000001","12.38","63.61","NAN","0.0"],
    [1547782,"2026-03-27 22:50:00","492","0.97","230.2","2.483","234.5","1018.3989999999999","12.39","64.41","NAN","0.0"],
    [1547783,"2026-03-27 23:00:00","493","1.3869999999999998","235.7","3.201","250.2","1018.395","12.43","64.53","NAN","0.0"],
    [1547784,"2026-03-27 23:10:00","494","1.161","220.2","2.548","259.9","1018.4860000000001","12.5","65.39","NAN","0.0"],
    [1547785,"2026-03-27 23:20:00","495","1.028","251.0","2.6460000000000004","229.4","1018.5060000000001","12.54","65.35","NAN","0.0"],
    [1547786,"2026-03-27 23:30:00","496","1.207","244.0","2.875","269.6","1018.405","12.55","65.72","NAN","0.0"],
    [1547787,"2026-03-27 23:40:00","497","1.1520000000000001","264.4","2.417","259.7","1018.3889999999999","12.58","65.75","NAN","0.0"],
    [1547788,"2026-03-27 23:50:00","498","1.122","237.5","2.319","246.7","1018.3839999999999","12.49","65.7","NAN","0.0"],
    [1547789,"2026-03-28 00:00:00","499","0.985","245.0","2.319","263.9","1018.3919999999999","12.5","65.44","NAN","0.0"],
    [1547790,"2026-03-28 00:10:00","500","1.071","240.4","2.875","303.7","1018.3919999999999","12.44","65.36","NAN","0.0"],
    [1547791,"2026-03-28 00:20:00","501","0.727","235.3","1.895","249.7","1018.3919999999999","12.42","65.43","NAN","0.0"],
    [1547792,"2026-03-28 00:30:00","502","0.7509999999999999","235.5","2.189","222.3","1018.341","12.35","65.75","NAN","0.0"],
    [1547793,"2026-03-28 00:40:00","503","0.778","214.0","1.568","181.0","1018.283","12.17","67.32","NAN","0.0"],
    [1547794,"2026-03-28 00:50:00","504","0.8690000000000001","224.1","2.025","278.9","1018.2660000000001","12.18","66.78","NAN","0.0"],
    [1547795,"2026-03-28 01:00:00","505","0.72","184.3","1.8619999999999999","239.4","1018.2769999999999","12.07","67.57","NAN","0.0"],
    [1547796,"2026-03-28 01:10:00","506","0.265","203.4","0.9470000000000001","174.2","1018.2919999999999","11.99","68.14","NAN","0.0"],
    [1547797,"2026-03-28 01:20:00","507","0.313","185.8","1.4369999999999998","195.6","1018.117","11.98","68.41","NAN","0.0"],
    [1547798,"2026-03-28 01:30:00","508","0.42100000000000004","198.7","0.98","212.8","1017.951","11.78","70.26","NAN","0.0"],
    [1547799,"2026-03-28 01:40:00","509","0.222","199.1","0.882","156.7","1017.785","11.74","69.69","NAN","0.0"],
    [1547800,"2026-03-28 01:50:00","510","0.159","193.6","0.621","211.7","1017.801","11.5","71.39","NAN","0.0"],
    [1547801,"2026-03-28 02:00:00","511","0.5660000000000001","302.2","1.7309999999999999","269.3","1017.794","11.72","70.08","NAN","0.0"],
    [1547802,"2026-03-28 02:10:00","512","0.43200000000000005","288.1","1.339","304.0","1017.805","12.34","67.13","NAN","0.0"],
    [1547803,"2026-03-28 02:20:00","513","0.225","179.4","0.7190000000000001","261.8","1017.865","11.95","68.84","NAN","0.0"],
    [1547804,"2026-03-28 02:30:00","514","0.303","198.2","1.307","197.6","1017.904","11.82","70.96","NAN","0.0"],
    [1547805,"2026-03-28 02:40:00","515","0.585","296.9","1.7309999999999999","316.5","1017.957","11.7","69.86","NAN","0.0"],
    [1547806,"2026-03-28 02:50:00","516","0.736","283.5","1.568","304.2","1017.9","12.02","67.84","NAN","0.0"],
    [1547807,"2026-03-28 03:00:00","517","0.466","251.5","1.7309999999999999","271.5","1017.807","12.1","65.5","NAN","0.0"],
    [1547808,"2026-03-28 03:10:00","518","1.037","257.8","2.94","309.2","1017.812","12.23","61.73","NAN","0.0"],
    [1547809,"2026-03-28 03:20:00","519","0.855","266.3","2.189","244.7","1017.803","12.28","60.93","NAN","0.0"],
    [1547810,"2026-03-28 03:30:00","520","1.063","304.4","2.679","293.7","1017.84","12.28","61","NAN","0.0"],
    [1547811,"2026-03-28 03:40:00","521","0.53","308.6","1.829","289.6","1017.885","12.1","62.28","NAN","0.0"],
    [1547812,"2026-03-28 03:50:00","522","0.87","331.1","2.123","314.3","1017.802","12","63.28","NAN","0.0"],
    [1547813,"2026-03-28 04:00:00","523","0.905","326.4","1.895","331.7","1017.7860000000001","11.87","65.87","NAN","0.0"],
    [1547814,"2026-03-28 04:10:00","524","0.32299999999999995","272.1","1.405","249.4","1017.7260000000001","11.67","67.51","NAN","0.0"],
    [1547815,"2026-03-28 04:20:00","525","0.455","268.4","1.274","282.3","1017.7819999999999","11.47","68.45","NAN","0.0"],
    [1547816,"2026-03-28 04:30:00","526","0.833","272.7","1.895","287.1","1017.707","11.7","67.46","NAN","0.0"],
    [1547817,"2026-03-28 04:40:00","527","0.818","260.6","1.699","261.6","1017.694","11.71","67.19","NAN","0.0"],
    [1547818,"2026-03-28 04:50:00","528","0.507","269.2","1.3719999999999999","281.4","1017.694","11.62","67.05","NAN","0.0"],
    [1547819,"2026-03-28 05:00:00","529","0.762","287.7","1.895","280.7","1017.7489999999999","11.56","67.01","NAN","0.0"],
    [1547820,"2026-03-28 05:10:00","530","1.127","283.6","1.96","287.1","1017.826","11.44","66.74","NAN","0.0"],
    [1547821,"2026-03-28 05:20:00","531","1.031","304.7","2.907","297.0","1017.9110000000001","11.35","65.9","NAN","0.0"],
    [1547822,"2026-03-28 05:30:00","532","0.733","316.3","2.9730000000000003","314.6","1017.965","11.44","63.92","NAN","0.0"],
    [1547823,"2026-03-28 05:40:00","533","0.972","321.6","2.0580000000000003","303.3","1018.1610000000001","11.4","63.6","NAN","0.0"],
    [1547824,"2026-03-28 05:50:00","534","0.7929999999999999","283.2","2.0580000000000003","281.9","1018.336","11.39","63.44","NAN","0.0"],
    [1547825,"2026-03-28 06:00:00","535","0.6579999999999999","275.3","1.5030000000000001","291.5","1018.422","11.17","64.6","NAN","0.0"],
    [1547826,"2026-03-28 06:10:00","536","0.7509999999999999","9.05","2.842","288.9","1018.444","11.1","64.08","NAN","0.0"],
    [1547827,"2026-03-28 06:20:00","537","0.45299999999999996","8.67","1.176","21.38","1018.5319999999999","11.11","63.24","NAN","0.0"],
    [1547828,"2026-03-28 06:30:00","538","1.006","263.4","2.417","228.1","1018.687","11.4","62.08","NAN","0.0"],
    [1547829,"2026-03-28 06:40:00","539","1.087","247.1","1.993","241.9","1018.7760000000001","11.24","63.35","NAN","0.0"],
    [1547830,"2026-03-28 06:50:00","540","0.735","303.2","1.895","21.8","1018.815","11.59","61.1","NAN","0.0"],
    [1547831,"2026-03-28 07:00:00","541","0.904","1.274","2.189","24.59","1018.823","11.75","55.6","NAN","0.0"],
    [1547832,"2026-03-28 07:10:00","542","0.9740000000000001","248.9","2.842","227.7","1018.94","11.91","54.65","NAN","0.0"],
    [1547833,"2026-03-28 07:20:00","543","1.238","239.6","2.483","244.4","1018.942","11.87","55.26","NAN","0.0"],
    [1547834,"2026-03-28 07:30:00","544","1.4809999999999999","253.2","3.136","251.7","1019.0319999999999","12.12","52.51","NAN","0.0"],
    [1547835,"2026-03-28 07:40:00","545","1.275","268.3","3.593","298.8","1019.0889999999999","12.05","51.4","NAN","0.0"],
    [1547836,"2026-03-28 07:50:00","546","1.351","248.2","3.1689999999999996","285.5","1019.1610000000001","12.36","50.35","NAN","0.0"],
    [1547837,"2026-03-28 08:00:00","547","1.682","263.0","3.299","253.9","1019.184","12.61","49.34","NAN","0.0"],
    [1547838,"2026-03-28 08:10:00","548","1.262","260.5","4.1160000000000005","274.1","1019.2539999999999","13.09","47.83","NAN","0.0"],
    [1547839,"2026-03-28 08:20:00","549","1.784","254.5","3.985","258.2","1019.206","13.25","46.44","NAN","0.0"],
    [1547840,"2026-03-28 08:30:00","550","1.3719999999999999","244.8","2.7110000000000003","230.3","1019.204","13.37","45.99","NAN","0.0"],
    [1547841,"2026-03-28 08:40:00","551","1.2209999999999999","255.2","2.483","264.7","1019.326","13.82","44.52","NAN","0.0"],
    [1547842,"2026-03-28 08:50:00","552","0.6809999999999999","215.2","1.8619999999999999","182.4","1019.43","14.56","42.78","NAN","0.0"],
    [1547843,"2026-03-28 09:00:00","553","1.544","212.2","2.613","240.0","1019.428","14.53","42.56","NAN","0.0"],
    [1547844,"2026-03-28 09:10:00","554","1.4480000000000002","215.1","2.875","203.8","1019.433","14.59","41.4","NAN","0.0"],
    [1547845,"2026-03-28 09:20:00","555","1.3319999999999999","228.5","2.842","250.6","1019.3530000000001","14.97","39.74","NAN","0.0"],
    [1547846,"2026-03-28 09:30:00","556","1.263","220.4","3.5610000000000004","227.6","1019.388","15.33","39.41","NAN","0.0"],
    [1547847,"2026-03-28 09:40:00","557","0.9440000000000001","266.0","2.417","304.6","1019.328","15.73","39.75","NAN","0.0"],
    [1547848,"2026-03-28 09:50:00","558","0.797","68.83","1.9269999999999998","77.53","1019.332","16.21","40.56","NAN","0.0"],
    [1547849,"2026-03-28 10:00:00","559","1.295","13.28","3.463","335.0","1019.285","15.94","41.22","NAN","0.0"],
    [1547850,"2026-03-28 10:10:00","560","1.392","33.24","3.43","162.3","1019.427","16.24","40.78","NAN","0.0"],
    [1547851,"2026-03-28 10:20:00","561","0.868","96.5","1.895","107.7","1019.393","16.74","39.58","NAN","0.0"],
    [1547852,"2026-03-28 10:30:00","562","1.045","156.4","1.895","309.7","1019.308","17.17","37.54","NAN","0.0"],
    [1547853,"2026-03-28 10:40:00","563","1.2819999999999998","145.8","2.679","91.5","1019.2","17.04","38.33","NAN","0.0"],
    [1547854,"2026-03-28 10:50:00","564","1.585","123.3","2.7439999999999998","102.0","1019.182","16.74","41.63","NAN","0.0"],
    [1547855,"2026-03-28 11:00:00","565","2.073","114.0","3.332","103.7","1019.125","16.47","41.58","NAN","0.0"],
    [1547856,"2026-03-28 11:10:00","566","1.465","157.5","3.1689999999999996","199.2","1018.939","17.39","36.56","NAN","0.0"],
    [1547857,"2026-03-28 11:20:00","567","1.5019999999999998","243.6","3.463","222.7","1018.86","17.88","31.52","NAN","0.0"],
    [1547858,"2026-03-28 11:30:00","568","2.322","216.5","4.312","232.8","1018.737","17.84","32.52","NAN","0.0"],
    [1547859,"2026-03-28 11:40:00","569","1.659","193.5","3.136","180.8","1018.628","17.83","36.23","NAN","0.0"],
    [1547860,"2026-03-28 11:50:00","570","2.336","177.7","3.92","166.1","1018.455","17.06","47.26","NAN","0.0"],
    [1547861,"2026-03-28 12:00:00","571","2.475","175.0","4.345","175.7","1018.314","16.77","50.25","NAN","0.0"],
    [1547862,"2026-03-28 12:10:00","572","2.9610000000000003","181.4","4.541","180.4","1018.2769999999999","16.77","48.71","NAN","0.0"],
    [1547863,"2026-03-28 12:20:00","573","2.364","181.3","4.018","157.7","1018.17","17.25","46.08","NAN","0.0"],
    [1547864,"2026-03-28 12:30:00","574","3.236","178.3","5.063","206.1","1018.003","17.34","44.18","NAN","0.0"],
    [1547865,"2026-03-28 12:40:00","575","4.006","176.0","5.945","179.2","1017.918","16.91","48.8","NAN","0.0"],
    [1547866,"2026-03-28 12:50:00","576","3.5260000000000002","181.2","5.782","173.3","1017.793","16.77","48.68","NAN","0.0"],
    [1547867,"2026-03-28 13:00:00","577","2.7460000000000004","191.3","5.227","177.7","1017.6439999999999","17.31","47.15","NAN","0.0"],
    [1547868,"2026-03-28 13:10:00","578","3.225","193.8","6.37","199.7","1017.477","17.5","45.62","NAN","0.0"],
    [1547869,"2026-03-28 13:20:00","579","3.758","200.1","6.599","183.2","1017.29","17.14","45.38","NAN","0.0"],
    [1547870,"2026-03-28 13:30:00","580","3.197","210.4","6.37","215.0","1017.2560000000001","17.52","44.05","NAN","0.0"],
    [1547871,"2026-03-28 13:40:00","581","2.313","212.8","5.619","196.2","1017.198","18.52","39.86","NAN","0.0"],
    [1547872,"2026-03-28 13:50:00","582","2.842","211.6","6.37","187.4","1017.176","18.19","39.89","NAN","0.0"],
    [1547873,"2026-03-28 14:00:00","583","2.6060000000000003","216.7","5.619","240.4","1017.123","18.24","39.34","NAN","0.0"],
    [1547874,"2026-03-28 14:10:00","584","2.6239999999999997","219.5","4.998","216.0","1016.8939999999999","18.39","38.45","NAN","0.0"],
    [1547875,"2026-03-28 14:20:00","585","2.748","222.8","6.239","247.7","1016.7180000000001","18.9","37.83","NAN","0.0"],
    [1547876,"2026-03-28 14:30:00","586","2.331","215.9","4.2139999999999995","232.6","1016.67","18.79","37.94","NAN","0.0"],
    [1547877,"2026-03-28 14:40:00","587","2.219","211.5","4.769","202.3","1016.578","18.48","40.47","NAN","0.0"],
    [1547878,"2026-03-28 14:50:00","588","2.44","198.0","4.4430000000000005","210.4","1016.471","18.13","42.55","NAN","0.0"],
    [1547879,"2026-03-28 15:00:00","589","2.755","206.3","5.88","206.2","1016.3939999999999","18.26","42.92","NAN","0.0"],
    [1547880,"2026-03-28 15:10:00","590","3.0980000000000003","196.3","6.599","195.5","1016.237","17.86","45.65","NAN","0.0"],
    [1547881,"2026-03-28 15:20:00","591","3.233","199.3","6.0760000000000005","171.6","1016.227","17.66","45.71","NAN","0.0"],
    [1547882,"2026-03-28 15:30:00","592","3.05","207.8","5.422999999999999","194.6","1016.2139999999999","18.04","44","NAN","0.0"],
    [1547883,"2026-03-28 15:40:00","593","2.839","219.9","5.325","208.2","1016.197","18","43.32","NAN","0.0"],
    [1547884,"2026-03-28 15:50:00","594","2.14","223.5","5.096","229.6","1016.195","18.1","42.38","NAN","0.0"],
    [1547885,"2026-03-28 16:00:00","595","2.083","224.1","4.573","231.5","1016.2","18.17","42.8","NAN","0.0"],
    [1547886,"2026-03-28 16:10:00","596","2.008","226.3","3.9530000000000003","228.9","1016.192","17.88","44.05","NAN","0.0"],
    [1547887,"2026-03-28 16:20:00","597","1.704","234.5","4.149","243.9","1016.215","17.91","45.35","NAN","0.0"],
    [1547888,"2026-03-28 16:30:00","598","1.896","226.4","3.92","197.8","1016.192","17.97","45.55","NAN","0.0"],
    [1547889,"2026-03-28 16:40:00","599","1.581","218.6","3.299","221.5","1016.195","18.05","44.76","NAN","0.0"],
    [1547890,"2026-03-28 16:50:00","600","1.584","220.1","3.593","226.3","1016.19","18.13","44.33","NAN","0.0"],
    [1547891,"2026-03-28 17:00:00","601","1.492","202.9","2.875","197.2","1016.1","18.01","46.42","NAN","0.0"],
    [1547892,"2026-03-28 17:10:00","602","1.821","221.6","4.018","217.3","1016.068","18.24","41.67","NAN","0.0"],
    [1547893,"2026-03-28 17:20:00","603","1.4180000000000001","249.1","3.528","242.4","1016.068","18.88","35.72","NAN","0.0"],
    [1547894,"2026-03-28 17:30:00","604","1.449","232.1","3.855","237.8","1016.168","19.02","34.83","NAN","0.0"],
    [1547895,"2026-03-28 17:40:00","605","1.5759999999999998","245.5","3.7569999999999997","295.8","1016.192","19.08","34.14","NAN","0.0"],
    [1547896,"2026-03-28 17:50:00","606","1.703","253.2","4.312","243.6","1016.25","19.04","33.73","NAN","0.0"],
    [1547897,"2026-03-28 18:00:00","607","1.631","228.5","3.397","256.1","1016.337","18.75","37.14","NAN","0.0"],
    [1547898,"2026-03-28 18:10:00","608","1.5830000000000002","210.7","2.907","210.3","1016.414","17.96","45.63","NAN","0.0"],
    [1547899,"2026-03-28 18:20:00","609","1.526","211.7","3.299","223.3","1016.4960000000001","17.32","51","NAN","0.0"],
    [1547900,"2026-03-28 18:30:00","610","1.325","230.3","3.071","232.4","1016.6139999999999","17.42","50.28","NAN","0.0"],
    [1547901,"2026-03-28 18:40:00","611","1.4980000000000002","248.8","3.887","238.8","1016.685","17.11","53.46","NAN","0.0"],
    [1547902,"2026-03-28 18:50:00","612","0.769","251.3","3.005","299.8","1016.818","17","56.09","NAN","0.0"],
    [1547903,"2026-03-28 19:00:00","613","1.689","166.5","3.822","104.4","1016.967","16.62","60.02","NAN","0.0"],
    [1547904,"2026-03-28 19:10:00","614","2.753","89.8","5.4879999999999995","101.3","1016.992","15.45","69.2","NAN","0.0"],
    [1547905,"2026-03-28 19:20:00","615","1.7719999999999998","43.96","4.149","26.65","1017.044","15.29","71.35","NAN","0.0"],
    [1547906,"2026-03-28 19:30:00","616","1.7","49.38","3.495","31.23","1016.9989999999999","15.27","72.48","NAN","0.0"],
    [1547907,"2026-03-28 19:40:00","617","2.088","40.06","3.7569999999999997","49.76","1017.159","15.13","73.28","NAN","0.0"],
    [1547908,"2026-03-28 19:50:00","618","1.2690000000000001","45.1","2.8089999999999997","60.57","1017.1339999999999","15","73.73","NAN","0.0"],
    [1547909,"2026-03-28 20:00:00","619","1.187","57.86","2.221","30.69","1017.1089999999999","15.13","73.66","NAN","0.0"],
    [1547910,"2026-03-28 20:10:00","620","0.755","58.26","1.7309999999999999","79.93","1017.125","15.09","73.16","NAN","0.0"],
    [1547911,"2026-03-28 20:20:00","621","0.598","50.14","1.764","64.37","1017.118","14.99","72.56","NAN","0.0"],
    [1547912,"2026-03-28 20:30:00","622","0.501","348.8","1.5030000000000001","28.61","1017.074","14.97","72.36","NAN","0.0"],
    [1547913,"2026-03-28 20:40:00","623","0.892","101.1","1.993","94.5","1016.938","15.1","72.11","NAN","0.0"],
    [1547914,"2026-03-28 20:50:00","624","1.199","117.5","2.483","120.0","1016.957","15.01","72.66","NAN","0.0"],
    [1547915,"2026-03-28 21:00:00","625","0.9259999999999999","146.5","2.189","116.6","1017.1239999999999","14.84","72.72","NAN","0.0"],
    [1547916,"2026-03-28 21:10:00","626","1.053","106.3","2.45","99.5","1017.135","14.86","74.26","NAN","0.0"],
    [1547917,"2026-03-28 21:20:00","627","1.2690000000000001","123.8","2.287","78.09","1017.096","14.67","76.46","NAN","0.0"],
    [1547918,"2026-03-28 21:30:00","628","1.268","120.8","2.221","75.64","1016.9839999999999","14.57","76.6","NAN","0.0"],
    [1547919,"2026-03-28 21:40:00","629","1.295","128.4","2.613","113.4","1016.972","14.5","77.39","NAN","0.0"],
    [1547920,"2026-03-28 21:50:00","630","0.715","136.9","1.633","107.0","1016.977","14.45","81","NAN","0.0"],
    [1547921,"2026-03-28 22:00:00","631","0.92","143.0","2.123","113.6","1017.0169999999999","14.41","82.3","NAN","0.0"],
    [1547922,"2026-03-28 22:10:00","632","1.121","114.3","2.0580000000000003","105.1","1017.21","14.34","81.9","NAN","0.0"],
    [1547923,"2026-03-28 22:20:00","633","1.361","88.7","2.9730000000000003","107.9","1017.2389999999999","14.31","82.6","NAN","0.0"],
    [1547924,"2026-03-28 22:30:00","634","2.126","79.46","4.181","74.69","1017.245","14.28","83.5","NAN","0.0"],
    [1547925,"2026-03-28 22:40:00","635","3.2539999999999996","72.48","5.39","65.41","1017.25","14.17","83.6","NAN","0.0"],
    [1547926,"2026-03-28 22:50:00","636","2.77","63.46","5.129","52.7","1017.4110000000001","14.16","83.8","NAN","0.0"],
    [1547927,"2026-03-28 23:00:00","637","2.79","74.47","6.468","100.8","1017.416","14.07","84.8","NAN","0.0"],
    [1547928,"2026-03-28 23:10:00","638","2.9339999999999997","81.6","6.1739999999999995","68.07","1017.253","13.68","82.4","NAN","0.1"],
    [1547929,"2026-03-28 23:20:00","639","3.04","76.91","6.042999999999999","92.8","1017.255","13.53","83.3","NAN","0.0"],
    [1547930,"2026-03-28 23:30:00","640","2.325","66.57","4.377","66.99","1017.2739999999999","13.4","79.03","NAN","0.0"],
    [1547931,"2026-03-28 23:40:00","641","1.084","62.95","3.005","99.4","1017.28","13.5","74.6","NAN","0.0"],
    [1547932,"2026-03-28 23:50:00","642","0.84","29.49","2.385","25.79","1017.2869999999999","13.58","75.45","NAN","0.0"],
    [1547933,"2026-03-29 00:00:00","643","0.392","354.8","1.078","355.0","1017.252","13.48","73.17","NAN","0.0"],
    [1547934,"2026-03-29 00:10:00","644","1.013","143.1","1.5030000000000001","173.2","1016.997","13.48","73.03","NAN","0.0"],
    [1547935,"2026-03-29 00:20:00","645","1.982","92.9","4.4430000000000005","71.61","1016.931","13.34","72.42","NAN","0.0"],
    [1547936,"2026-03-29 00:30:00","646","1.775","51.19","4.181","51.7","1017.003","13.09","74.79","NAN","0.0"],
    [1547937,"2026-03-29 00:40:00","647","2.142","70.2","4.1160000000000005","48.75","1017.0830000000001","12.97","78.18","NAN","0.0"],
    [1547938,"2026-03-29 00:50:00","648","1.9669999999999999","102.4","4.638999999999999","114.9","1017.198","12.84","78.16","NAN","0.0"],
    [1547939,"2026-03-29 01:00:00","649","2.536","130.5","4.606","120.2","1017.257","12.53","80.5","NAN","0.0"],
    [1547940,"2026-03-29 01:10:00","650","2.103","98.5","3.887","104.2","1017.19","12.25","80.9","NAN","0.0"],
    [1547941,"2026-03-29 01:20:00","651","2.051","83.3","4.181","61.06","1017.1460000000001","12.08","75.4","NAN","0.0"],
    [1547942,"2026-03-29 01:30:00","652","2.258","106.5","4.508","94.1","1016.904","12","68.04","NAN","0.0"],
    [1547943,"2026-03-29 01:40:00","653","1.8630000000000002","84.0","3.43","93.8","1016.818","11.97","64.96","NAN","0.0"],
    [1547944,"2026-03-29 01:50:00","654","1.111","86.3","2.679","96.4","1016.743","11.93","62.37","NAN","0.0"],
    [1547945,"2026-03-29 02:00:00","655","0.31","194.7","1.045","130.5","1016.76","11.91","61.22","NAN","0.0"],
    [1547946,"2026-03-29 02:10:00","656","0.721","224.5","1.568","200.5","1016.7560000000001","12.06","59.88","NAN","0.0"],
    [1547947,"2026-03-29 02:20:00","657","0.741","197.8","2.025","201.9","1016.6469999999999","12.09","60.72","NAN","0.0"],
    [1547948,"2026-03-29 02:30:00","658","0.885","216.5","1.8619999999999999","209.8","1016.538","12.09","60.43","NAN","0.0"],
    [1547949,"2026-03-29 02:40:00","659","0.84","260.2","2.025","231.2","1016.5060000000001","12.22","59.22","NAN","0.0"],
    [1547950,"2026-03-29 02:50:00","660","1.5659999999999998","255.7","3.103","253.3","1016.654","12.32","59.44","NAN","0.0"],
    [1547951,"2026-03-29 03:00:00","661","0.8340000000000001","269.7","2.679","243.2","1016.682","12.48","60.27","NAN","0.0"],
    [1547952,"2026-03-29 03:10:00","662","0.9009999999999999","320.5","2.6460000000000004","301.8","1016.7560000000001","12.64","58.08","NAN","0.0"],
    [1547953,"2026-03-29 03:20:00","663","1.798","336.8","5.325","334.5","1016.727","13.03","34.97","NAN","0.0"],
    [1547954,"2026-03-29 03:30:00","664","2.149","332.8","5.39","326.6","1016.791","13.09","29.77","NAN","0.0"],
    [1547955,"2026-03-29 03:40:00","665","1.909","328.6","7.6770000000000005","312.1","1016.7539999999999","12.89","26.69","NAN","0.0"],
    [1547956,"2026-03-29 03:50:00","666","2.198","339.8","5.129","309.8","1016.701","12.7","25.15","NAN","0.0"],
    [1547957,"2026-03-29 04:00:00","667","2.191","339.9","4.835","309.4","1016.567","12.45","24.93","NAN","0.0"],
    [1547958,"2026-03-29 04:10:00","668","1.7280000000000002","355.6","5.455","20.16","1016.436","12.26","24.88","NAN","0.0"],
    [1547959,"2026-03-29 04:20:00","669","2.112","6.399","4.933","14.66","1016.4760000000001","12.19","24.13","NAN","0.0"],
    [1547960,"2026-03-29 04:30:00","670","1.955","339.8","5.357","292.0","1016.6260000000001","12.07","24.64","NAN","0.0"],
    [1547961,"2026-03-29 04:40:00","671","1.99","331.1","3.659","317.0","1016.545","11.91","25.83","NAN","0.0"],
    [1547962,"2026-03-29 04:50:00","672","2.476","330.1","5.586","304.2","1016.431","11.72","27.18","NAN","0.0"],
    [1547963,"2026-03-29 05:00:00","673","2.678","330.3","7.546","316.9","1016.429","11.43","28.7","NAN","0.0"],
    [1547964,"2026-03-29 05:10:00","674","2.479","328.1","4.998","322.1","1016.4939999999999","11.21","29.69","NAN","0.0"],
    [1547965,"2026-03-29 05:20:00","675","2.287","325.3","4.606","322.2","1016.502","11.05","30.38","NAN","0.0"],
    [1547966,"2026-03-29 05:30:00","676","1.5430000000000001","319.2","4.181","312.8","1016.495","10.96","31.17","NAN","0.0"],
    [1547967,"2026-03-29 05:40:00","677","1.501","312.7","3.7889999999999997","338.3","1016.55","10.71","32.81","NAN","0.0"],
    [1547968,"2026-03-29 05:50:00","678","2.245","326.2","4.835","347.6","1016.535","10.55","33.23","NAN","0.0"],
    [1547969,"2026-03-29 06:00:00","679","2.373","330.5","5.194","310.2","1016.655","10.5","33.72","NAN","0.0"],
    [1547970,"2026-03-29 06:10:00","680","1.7480000000000002","333.6","4.345","303.9","1016.822","10.38","34.3","NAN","0.0"],
    [1547971,"2026-03-29 06:20:00","681","1.6480000000000001","333.4","6.011","323.4","1016.8389999999999","10.45","34.28","NAN","0.0"],
    [1547972,"2026-03-29 06:30:00","682","2.158","327.5","4.769","334.0","1017.0210000000001","10.64","33.15","NAN","0.0"],
    [1547973,"2026-03-29 06:40:00","683","2.6830000000000003","333.5","5.227","326.0","1017.092","10.85","31.24","NAN","0.0"],
    [1547974,"2026-03-29 06:50:00","684","2.112","346.1","5.912999999999999","332.6","1017.2289999999999","11.18","28.83","NAN","0.0"],
    [1547975,"2026-03-29 07:00:00","685","2.055","6.907","5.749","1.9609999999999999","1017.257","11.27","28.68","NAN","0.0"],
    [1547976,"2026-03-29 07:10:00","686","1.7890000000000001","27.59","5.227","37.95","1017.2719999999999","11.51","28.41","NAN","0.0"],
    [1547977,"2026-03-29 07:20:00","687","1.197","34.48","4.9","55.27","1017.3689999999999","11.74","28.01","NAN","0.0"],
    [1547978,"2026-03-29 07:30:00","688","1.355","48.19","4.1160000000000005","61.99","1017.416","11.94","27.96","NAN","0.0"],
    [1547979,"2026-03-29 07:40:00","689","1.636","56.7","3.201","58.07","1017.508","12.24","27.42","NAN","0.0"],
    [1547980,"2026-03-29 07:50:00","690","1.774","62.56","4.638999999999999","62.13","1017.5830000000001","12.31","26.73","NAN","0.0"],
    [1547981,"2026-03-29 08:00:00","691","2.0469999999999997","5.561","4.606","12.27","1017.692","12.72","21.61","NAN","0.0"],
    [1547982,"2026-03-29 08:10:00","692","2.119","357.1","6.011","19.99","1017.712","13.26","19.84","NAN","0.0"],
    [1547983,"2026-03-29 08:20:00","693","1.9580000000000002","349.7","6.893","306.4","1017.817","13.46","18.91","NAN","0.0"],
    [1547984,"2026-03-29 08:30:00","694","2.023","355.7","5.2589999999999995","349.9","1017.971","13.62","18.19","NAN","0.0"],
    [1547985,"2026-03-29 08:40:00","695","2.28","344.1","6.141","309.4","1018.1030000000001","13.74","17.64","NAN","0.0"],
    [1547986,"2026-03-29 08:50:00","696","2.235","346.7","5.586","308.4","1018.188","13.8","17.32","NAN","0.0"],
    [1547987,"2026-03-29 09:00:00","697","1.663","357.1","4.508","328.0","1018.258","14.18","16.7","NAN","0.0"],
    [1547988,"2026-03-29 09:10:00","698","1.8319999999999999","22.66","4.933","12.73","1018.285","14.33","15.61","NAN","0.0"],
    [1547989,"2026-03-29 09:20:00","699","1.374","357.6","3.201","15.33","1018.302","14.21","15.74","NAN","0.0"],
    [1547990,"2026-03-29 09:30:00","700","1.999","5.093","5.2589999999999995","315.6","1018.232","14.32","15.44","NAN","0.0"],
    [1547991,"2026-03-29 09:40:00","701","1.868","36.57","4.345","44.1","1018.21","14.5","15.74","NAN","0.0"],
    [1547992,"2026-03-29 09:50:00","702","1.756","1.6909999999999998","4.181","40.94","1018.1569999999999","14.52","15.81","NAN","0.0"],
    [1547993,"2026-03-29 10:00:00","703","1.645","351.2","4.051","306.0","1017.966","15.07","15.69","NAN","0.0"],
    [1547994,"2026-03-29 10:10:00","704","1.743","4.901","3.659","341.1","1017.993","15.08","15.14","NAN","0.0"],
    [1547995,"2026-03-29 10:20:00","705","1.189","345.4","4.149","50.94","1017.8539999999999","16.06","14.59","NAN","0.0"],
    [1547996,"2026-03-29 10:30:00","706","2.463","331.7","5.357","342.7","1017.9110000000001","15.55","13.33","NAN","0.0"],
    [1547997,"2026-03-29 10:40:00","707","1.65","353.8","4.4430000000000005","11.16","1017.9580000000001","15.82","12.73","NAN","0.0"],
    [1547998,"2026-03-29 10:50:00","708","2.3080000000000003","2.611","4.638999999999999","2.8","1018.051","15.93","12.55","NAN","0.0"],
    [1547999,"2026-03-29 11:00:00","709","1.89","13.8","4.1160000000000005","4.63","1018.155","15.82","12.67","NAN","0.0"],
    [1548000,"2026-03-29 11:10:00","710","2.209","20.23","6.566","10.25","1018.186","15.89","12.6","NAN","0.0"],
    [1548001,"2026-03-29 11:20:00","711","2.838","53.52","5.7170000000000005","45.28","1018.193","16.14","12.37","NAN","0.0"],
    [1548002,"2026-03-29 11:30:00","712","1.922","71.33","3.985","73.29","1018.365","16.69","12.41","NAN","0.0"],
    [1548003,"2026-03-29 11:40:00","713","1.7519999999999998","146.9","4.2139999999999995","119.9","1018.574","16.1","17.68","NAN","0.0"],
    [1548004,"2026-03-29 11:50:00","714","1.8559999999999999","140.5","3.6910000000000003","127.6","1018.696","15.3","21.27","NAN","0.0"],
    [1548005,"2026-03-29 12:00:00","715","3.033","134.7","5.227","139.8","1018.855","14.82","26.75","NAN","0.0"],
    [1548006,"2026-03-29 12:10:00","716","2.694","152.8","5.194","160.9","1018.995","14.42","26.61","NAN","0.0"],
    [1548007,"2026-03-29 12:20:00","717","2.761","157.6","5.063","168.3","1019.1039999999999","14.17","24.65","NAN","0.0"],
    [1548008,"2026-03-29 12:30:00","718","2.178","156.9","4.149","170.3","1019.2860000000001","14.27","26.08","NAN","0.0"],
    [1548009,"2026-03-29 12:40:00","719","2.5180000000000002","177.3","4.181","171.1","1019.313","14.32","25.25","NAN","0.0"],
    [1548010,"2026-03-29 12:50:00","720","2.779","181.8","4.737","197.4","1019.316","14.26","25.81","NAN","0.0"],
    [1548011,"2026-03-29 13:00:00","721","2.825","185.6","4.345","188.2","1019.428","14.51","26.29","NAN","0.0"],
    [1548012,"2026-03-29 13:10:00","722","2.273","187.5","3.822","176.0","1019.553","14.5","26.12","NAN","0.0"],
    [1548013,"2026-03-29 13:20:00","723","1.615","201.7","2.907","192.6","1019.6619999999999","15.03","26.15","NAN","0.0"],
    [1548014,"2026-03-29 13:30:00","724","1.625","207.4","2.7769999999999997","205.4","1019.687","15.55","24.59","NAN","0.0"],
    [1548015,"2026-03-29 13:40:00","725","1.271","186.3","3.136","168.8","1019.732","15.63","23.32","NAN","0.0"],
    [1548016,"2026-03-29 13:50:00","726","0.594","88.6","2.5810000000000004","70.26","1019.607","15.82","22.75","NAN","0.0"],
    [1548017,"2026-03-29 14:00:00","727","1.248","304.0","3.201","1.91","1019.552","16.45","21.12","NAN","0.0"],
    [1548018,"2026-03-29 14:10:00","728","1.922","337.0","4.1160000000000005","280.8","1019.533","16.56","20.8","NAN","0.0"],
    [1548019,"2026-03-29 14:20:00","729","1.508","9.63","3.985","38.78","1019.557","16.96","20.35","NAN","0.0"],
    [1548020,"2026-03-29 14:30:00","730","2.314","25.44","5.553","13.19","1019.513","17.05","20.28","NAN","0.0"],
    [1548021,"2026-03-29 14:40:00","731","1.965","9.31","4.638999999999999","71.64","1019.53","16.64","20.89","NAN","0.0"],
    [1548022,"2026-03-29 14:50:00","732","2.29","348.8","4.345","326.2","1019.525","16.53","20.99","NAN","0.0"],
    [1548023,"2026-03-29 15:00:00","733","2.016","32.45","4.181","69.3","1019.535","16.55","20.76","NAN","0.0"],
    [1548024,"2026-03-29 15:10:00","734","1.6680000000000001","49.94","4.2139999999999995","20.2","1019.645","16.72","20.33","NAN","0.0"],
    [1548025,"2026-03-29 15:20:00","735","1.661","27.18","4.018","60.61","1019.687","16.85","19.81","NAN","0.0"],
    [1548026,"2026-03-29 15:30:00","736","0.7929999999999999","3.946","2.0909999999999997","358.6","1019.6619999999999","16.96","19.21","NAN","0.0"],
    [1548027,"2026-03-29 15:40:00","737","1.359","345.9","4.312","11.66","1019.68","16.98","18.07","NAN","0.0"],
    [1548028,"2026-03-29 15:50:00","738","1.351","39.8","3.593","27.05","1019.7589999999999","17.09","17.63","NAN","0.0"],
    [1548029,"2026-03-29 16:00:00","739","1.506","134.3","3.299","156.5","1019.931","16.63","26.53","NAN","0.0"],
    [1548030,"2026-03-29 16:10:00","740","2.988","172.1","4.737","180.7","1020.0039999999999","15.45","36.74","NAN","0.0"],
    [1548031,"2026-03-29 16:20:00","741","3.245","175.6","4.9","178.6","1020.023","15","39.25","NAN","0.0"],
    [1548032,"2026-03-29 16:30:00","742","2.705","175.3","4.149","173.4","1020.17","15.14","40.38","NAN","0.0"],
    [1548033,"2026-03-29 16:40:00","743","3.4730000000000003","176.8","5.357","181.2","1020.237","14.75","40.25","NAN","0.0"],
    [1548034,"2026-03-29 16:50:00","744","2.35","181.6","4.638999999999999","178.5","1020.2819999999999","14.82","41.51","NAN","0.0"],
    [1548035,"2026-03-29 17:00:00","745","2.589","184.3","4.279","192.6","1020.4169999999999","14.8","42.18","NAN","0.0"],
    [1548036,"2026-03-29 17:10:00","746","2.276","177.4","4.018","172.7","1020.6460000000001","14.75","41","NAN","0.0"],
    [1548037,"2026-03-29 17:20:00","747","2.805","182.1","4.769","178.7","1020.8480000000001","14.59","40.9","NAN","0.0"],
    [1548038,"2026-03-29 17:30:00","748","2.522","182.2","4.867","169.4","1021.0219999999999","14.39","42.68","NAN","0.0"],
    [1548039,"2026-03-29 17:40:00","749","1.685","193.7","3.7239999999999998","170.8","1021.158","14.3","42.44","NAN","0.0"],
    [1548040,"2026-03-29 17:50:00","750","1.318","203.2","2.7439999999999998","181.3","1021.22","14.33","43.01","NAN","0.0"],
    [1548041,"2026-03-29 18:00:00","751","1.514","197.1","2.9730000000000003","196.5","1021.319","14.34","40.5","NAN","0.0"],
    [1548042,"2026-03-29 18:10:00","752","1.051","213.3","2.5810000000000004","228.3","1021.3560000000001","14.34","38.6","NAN","0.0"],
    [1548043,"2026-03-29 18:20:00","753","0.61","196.5","1.2409999999999999","196.9","1021.5260000000001","14.24","41.4","NAN","0.0"],
    [1548044,"2026-03-29 18:30:00","754","0.41100000000000003","212.5","1.209","207.2","1021.6510000000001","14.09","41.3","NAN","0.0"],
    [1548045,"2026-03-29 18:40:00","755","0.993","232.4","2.156","233.0","1021.793","14.1","40.13","NAN","0.0"],
    [1548046,"2026-03-29 18:50:00","756","0.528","226.0","1.7309999999999999","231.2","1021.998","14.19","38.71","NAN","0.0"],
    [1548047,"2026-03-29 19:00:00","757","0.16899999999999998","179.8","0.784","175.7","1022.299","13.92","40.78","NAN","0.0"],
    [1548048,"2026-03-29 19:10:00","758","0.83","181.4","1.307","173.9","1022.4730000000001","13.86","42.61","NAN","0.0"],
    [1548049,"2026-03-29 19:20:00","759","0.5870000000000001","195.9","1.2409999999999999","196.6","1022.6080000000001","13.67","45.88","NAN","0.0"],
    [1548050,"2026-03-29 19:30:00","760","0.6659999999999999","201.7","1.274","195.3","1022.7189999999999","13.63","45.53","NAN","0.0"],
    [1548051,"2026-03-29 19:40:00","761","0.88","239.5","1.96","252.8","1022.742","13.81","42.67","NAN","0.0"],
    [1548052,"2026-03-29 19:50:00","762","0.691","234.8","1.176","207.2","1022.7489999999999","13.85","42","NAN","0.0"],
    [1548053,"2026-03-29 20:00:00","763","0.642","198.1","1.176","206.7","1022.7710000000001","13.6","45.64","NAN","0.0"],
    [1548054,"2026-03-29 20:10:00","764","0.49700000000000005","191.4","1.176","189.5","1022.947","13.37","47.91","NAN","0.0"],
    [1548055,"2026-03-29 20:20:00","765","0.621","253.6","1.96","270.4","1023.171","13.34","46.58","NAN","0.0"],
    [1548056,"2026-03-29 20:30:00","766","0.747","254.8","1.666","242.8","1023.332","13.63","46.12","NAN","0.0"],
    [1548057,"2026-03-29 20:40:00","767","1.0","264.0","2.0909999999999997","234.7","1023.5219999999999","13.56","47.21","NAN","0.0"],
    [1548058,"2026-03-29 20:50:00","768","0.535","281.3","1.633","334.1","1023.627","13.6","48.02","NAN","0.0"],
    [1548059,"2026-03-29 21:00:00","769","0.282","199.5","0.882","205.5","1023.697","13.37","50.31","NAN","0.0"],
    [1548060,"2026-03-29 21:10:00","770","0.321","52.4","1.078","75.32","1023.796","12.93","48.41","NAN","0.0"],
    [1548061,"2026-03-29 21:20:00","771","0.9540000000000001","20.04","2.221","25.58","1023.893","13.17","34.77","NAN","0.0"],
    [1548062,"2026-03-29 21:30:00","772","0.873","3.305","2.9730000000000003","356.0","1023.91","13.35","28.43","NAN","0.0"],
    [1548063,"2026-03-29 21:40:00","773","0.8859999999999999","36.25","2.189","15.8","1023.8739999999999","13.22","26.23","NAN","0.0"],
    [1548064,"2026-03-29 21:50:00","774","0.546","43.13","1.339","47.13","1023.812","13.07","26.04","NAN","0.0"],
    [1548065,"2026-03-29 22:00:00","775","0.0","0.0","0.0","0.0","1023.828","12.72","27.15","NAN","0.0"],
    [1548066,"2026-03-29 22:10:00","776","0.129","57.23","0.621","58.58","1023.9839999999999","12.46","27.48","NAN","0.0"],
    [1548067,"2026-03-29 22:20:00","777","0.0","0.0","0.0","0.0","1024.0610000000001","12.45","26.67","NAN","0.0"],
    [1548068,"2026-03-29 22:30:00","778","0.27399999999999997","30.27","1.339","40.52","1024.1960000000001","12.52","25.21","NAN","0.0"],
    [1548069,"2026-03-29 22:40:00","779","0.838","347.0","2.221","287.6","1024.299","12.83","23.62","NAN","0.0"],
    [1548070,"2026-03-29 22:50:00","780","0.726","28.59","1.829","15.64","1024.312","12.81","24.12","NAN","0.0"],
    [1548071,"2026-03-29 23:00:00","781","0.802","38.94","1.7309999999999999","41.24","1024.305","12.6","24.64","NAN","0.0"],
    [1548072,"2026-03-29 23:10:00","782","0.66","17.0","1.5030000000000001","355.4","1024.337","12.44","25.02","NAN","0.0"],
    [1548073,"2026-03-29 23:20:00","783","0.45899999999999996","357.2","1.96","358.8","1024.308","12.35","25.47","NAN","0.0"],
    [1548074,"2026-03-29 23:30:00","784","0.9840000000000001","339.1","2.189","295.1","1024.3139999999999","12.57","24.33","NAN","0.0"],
    [1548075,"2026-03-29 23:40:00","785","0.84","332.7","2.254","11.31","1024.516","12.64","24.33","NAN","0.0"],
    [1548076,"2026-03-29 23:50:00","786","0.813","334.0","2.7439999999999998","308.5","1024.5639999999999","12.56","24.58","NAN","0.0"],
    [1548077,"2026-03-30 00:00:00","787","0.8370000000000001","348.2","2.319","303.6","1024.5","12.42","24.72","NAN","0.0"],
    [1548078,"2026-03-30 00:10:00","788","0.7290000000000001","344.0","1.797","340.5","1024.4360000000001","12.35","24.75","NAN","0.0"],
    [1548079,"2026-03-30 00:20:00","789","0.368","2.927","1.339","5.24","1024.39","11.99","25.43","NAN","0.0"],
    [1548080,"2026-03-30 00:30:00","790","0.89","239.2","3.7889999999999997","269.9","1024.36","11.83","26.68","NAN","0.0"],
    [1548081,"2026-03-30 00:40:00","791","1.3840000000000001","259.8","3.92","254.5","1024.458","11.64","27.24","NAN","0.0"],
    [1548082,"2026-03-30 00:50:00","792","1.109","248.7","2.254","238.6","1024.4560000000001","11.4","27.87","NAN","0.0"],
    [1548083,"2026-03-30 01:00:00","793","1.2670000000000001","265.7","3.071","257.0","1024.4160000000002","11.31","28.16","NAN","0.0"],
    [1548084,"2026-03-30 01:10:00","794","1.587","265.2","3.528","279.7","1024.433","11.2","28.31","NAN","0.0"],
    [1548085,"2026-03-30 01:20:00","795","1.419","254.0","2.875","232.4","1024.376","11.14","28.39","NAN","0.0"],
    [1548086,"2026-03-30 01:30:00","796","1.07","258.5","2.385","255.2","1024.318","11.05","28.51","NAN","0.0"],
    [1548087,"2026-03-30 01:40:00","797","0.711","267.7","1.568","260.1","1024.309","11.18","28.11","NAN","0.0"],
    [1548088,"2026-03-30 01:50:00","798","1.0859999999999999","253.6","2.679","270.2","1024.181","11.24","28.03","NAN","0.0"],
    [1548089,"2026-03-30 02:00:00","799","0.5760000000000001","262.8","1.8619999999999999","259.6","1024.134","10.94","28.79","NAN","0.0"],
    [1548090,"2026-03-30 02:10:00","800","1.143","246.5","2.352","245.6","1024.172","10.82","28.89","NAN","0.0"],
    [1548091,"2026-03-30 02:20:00","801","0.15","238.8","1.307","311.5","1024.3039999999999","10.53","29.76","NAN","0.0"],
    [1548092,"2026-03-30 02:30:00","802","0.33799999999999997","297.5","1.2409999999999999","294.1","1024.309","10.32","30.21","NAN","0.0"],
    [1548093,"2026-03-30 02:40:00","803","0.475","42.34","0.98","30.12","1024.2910000000002","9.97","33.73","NAN","0.0"],
    [1548094,"2026-03-30 02:50:00","804","0.183","222.8","1.3719999999999999","247.1","1024.204","9.69","33.77","NAN","0.0"],
    [1548095,"2026-03-30 03:00:00","805","0.725","240.2","1.633","220.8","1024.261","10.18","30.82","NAN","0.0"],
    [1548096,"2026-03-30 03:10:00","806","0.632","241.5","1.633","243.5","1024.259","10.27","30.46","NAN","0.0"],
    [1548097,"2026-03-30 03:20:00","807","0.982","242.1","1.895","246.3","1024.181","10.34","29.73","NAN","0.0"],
    [1548098,"2026-03-30 03:30:00","808","0.639","253.6","2.123","241.5","1024.0839999999998","10.17","30.05","NAN","0.0"],
    [1548099,"2026-03-30 03:40:00","809","0.8390000000000001","249.7","1.666","240.8","1023.972","10.13","30.32","NAN","0.0"],
    [1548100,"2026-03-30 03:50:00","810","1.091","260.5","2.515","262.0","1023.825","10.14","29.67","NAN","0.0"],
    [1548101,"2026-03-30 04:00:00","811","0.884","298.7","2.189","297.8","1024.032","10.26","29.16","NAN","0.0"],
    [1548102,"2026-03-30 04:10:00","812","0.615","14.62","1.829","26.86","1024.222","9.98","33.37","NAN","0.0"],
    [1548103,"2026-03-30 04:20:00","813","0.81","2.126","2.123","5.5120000000000005","1024.289","9.33","37.67","NAN","0.0"],
    [1548104,"2026-03-30 04:30:00","814","0.5770000000000001","23.21","1.176","29.45","1024.306","9.19","38.65","NAN","0.0"],
    [1548105,"2026-03-30 04:40:00","815","0.08900000000000001","243.5","0.653","359.9","1024.286","8.85","40.57","NAN","0.0"],
    [1548106,"2026-03-30 04:50:00","816","0.223","150.6","0.621","107.5","1024.309","8.66","41.83","NAN","0.0"],
    [1548107,"2026-03-30 05:00:00","817","0.6970000000000001","262.2","1.895","300.8","1024.309","9.21","36.12","NAN","0.0"],
    [1548108,"2026-03-30 05:10:00","818","0.606","264.3","2.287","293.3","1024.414","10","30.49","NAN","0.0"],
    [1548109,"2026-03-30 05:20:00","819","0.565","9.31","1.666","351.7","1024.603","9.66","34.9","NAN","0.0"],
    [1548110,"2026-03-30 05:30:00","820","0.43","22.85","1.2409999999999999","65.74","1024.693","8.9","38.69","NAN","0.0"],
    [1548111,"2026-03-30 05:40:00","821","0.462","225.3","1.078","102.8","1024.62","9.17","37.78","NAN","0.0"],
    [1548112,"2026-03-30 05:50:00","822","0.648","49.49","1.274","71.35","1024.757","8.95","37.95","NAN","0.0"],
    [1548113,"2026-03-30 06:00:00","823","0.085","86.8","0.523","123.8","1024.76","9.05","35.85","NAN","0.0"],
    [1548114,"2026-03-30 06:10:00","824","0.47700000000000004","70.45","0.882","105.0","1024.787","9.44","36.14","NAN","0.0"],
    [1548115,"2026-03-30 06:20:00","825","0.321","59.21","0.653","57.35","1024.752","9.97","35.57","NAN","0.0"],
    [1548116,"2026-03-30 06:30:00","826","0.43700000000000006","42.76","0.882","356.4","1024.77","10.32","33.21","NAN","0.0"],
    [1548117,"2026-03-30 06:40:00","827","0.156","3.4930000000000003","0.98","9.39","1024.806","10.49","32.47","NAN","0.0"],
    [1548118,"2026-03-30 06:50:00","828","1.3719999999999999","234.8","2.875","239.5","1024.55","10.94","30.27","NAN","0.0"],
    [1548119,"2026-03-30 07:00:00","829","1.7630000000000001","236.8","3.463","245.9","1024.3039999999999","10.79","30.22","NAN","0.0"],
    [1548120,"2026-03-30 07:10:00","830","1.244","270.1","3.332","303.1","1024.3410000000001","11.12","29.4","NAN","0.0"],
    [1548121,"2026-03-30 07:20:00","831","1.51","269.0","3.267","231.9","1024.354","11.67","28.39","NAN","0.0"],
    [1548122,"2026-03-30 07:30:00","832","2.259","262.4","4.2139999999999995","293.2","1024.516","11.86","27.96","NAN","0.0"],
    [1548123,"2026-03-30 07:40:00","833","2.154","254.0","4.377","245.3","1024.5439999999999","12.12","27.39","NAN","0.0"],
    [1548124,"2026-03-30 07:50:00","834","1.89","266.3","4.41","274.8","1024.663","12.33","27.04","NAN","0.0"],
    [1548125,"2026-03-30 08:00:00","835","2.449","262.8","4.541","265.8","1024.653","12.39","26.74","NAN","0.0"],
    [1548126,"2026-03-30 08:10:00","836","2.8339999999999996","260.0","5.422999999999999","252.7","1024.608","12.37","27.15","NAN","0.0"],
    [1548127,"2026-03-30 08:20:00","837","2.359","262.0","5.521","268.4","1024.317","12.66","27.02","NAN","0.0"],
    [1548128,"2026-03-30 08:30:00","838","2.2119999999999997","267.8","5.422999999999999","298.9","1024.113","13.17","26.39","NAN","0.0"],
    [1548129,"2026-03-30 08:40:00","839","2.718","278.6","6.109","248.3","1024.113","12.95","26.86","NAN","0.0"],
    [1548130,"2026-03-30 08:50:00","840","2.501","271.2","5.619","248.0","1024.163","13.16","26.84","NAN","0.0"],
    [1548131,"2026-03-30 09:00:00","841","2.7089999999999996","264.3","5.1610000000000005","298.1","1024.25","13.82","26.45","NAN","0.0"],
    [1548132,"2026-03-30 09:10:00","842","2.47","262.3","5.7170000000000005","266.1","1024.287","13.97","27.25","NAN","0.0"],
    [1548133,"2026-03-30 09:20:00","843","1.8869999999999998","301.2","4.867","335.6","1024.479","14.02","28.34","NAN","0.0"],
    [1548134,"2026-03-30 09:30:00","844","2.145","323.6","6.305","314.4","1024.596","14.3","28.78","NAN","0.0"],
    [1548135,"2026-03-30 09:40:00","845","2.057","308.6","5.815","321.6","1024.673","14.65","28.2","NAN","0.0"],
    [1548136,"2026-03-30 09:50:00","846","2.137","331.9","4.933","326.6","1024.618","15.12","27.62","NAN","0.0"],
    [1548137,"2026-03-30 10:00:00","847","1.9569999999999999","342.6","3.9530000000000003","304.6","1024.504","15.47","27.33","NAN","0.0"],
    [1548138,"2026-03-30 10:10:00","848","1.903","328.8","4.312","329.0","1024.553","15.85","27.2","NAN","0.0"],
    [1548139,"2026-03-30 10:20:00","849","1.976","281.6","4.2139999999999995","268.0","1024.2939999999999","15.77","27.35","NAN","0.0"],
    [1548140,"2026-03-30 10:30:00","850","1.4","273.6","3.6910000000000003","274.6","1024.133","16.2","26.66","NAN","0.0"],
    [1548141,"2026-03-30 10:40:00","851","1.921","297.6","4.4430000000000005","304.7","1023.9110000000001","16.78","26.05","NAN","0.0"],
    [1548142,"2026-03-30 10:50:00","852","1.8969999999999998","253.9","5.357","260.2","1023.814","16.89","26.37","NAN","0.0"],
    [1548143,"2026-03-30 11:00:00","853","2.344","244.2","5.7170000000000005","275.1","1023.67","17.09","26.04","NAN","0.0"],
    [1548144,"2026-03-30 11:10:00","854","1.51","277.0","3.7239999999999998","261.7","1023.705","17.25","25.98","NAN","0.0"],
    [1548145,"2026-03-30 11:20:00","855","1.6869999999999998","312.7","4.573","297.1","1023.6189999999999","17.36","26.25","NAN","0.0"],
    [1548146,"2026-03-30 11:30:00","856","1.962","233.8","3.7569999999999997","316.1","1023.53","17.42","29.35","NAN","0.0"],
    [1548147,"2026-03-30 11:40:00","857","1.52","202.2","3.332","204.9","1023.2860000000001","16.91","37.63","NAN","0.0"],
    [1548148,"2026-03-30 11:50:00","858","1.926","215.3","5.684","226.9","1023.066","17.5","32.65","NAN","0.0"],
    [1548149,"2026-03-30 12:00:00","859","2.384","215.4","4.867","240.2","1022.693","17.66","31.6","NAN","0.0"],
    [1548150,"2026-03-30 12:10:00","860","2.647","235.8","5.4879999999999995","230.2","1022.4789999999999","18.16","26.47","NAN","0.0"],
    [1548151,"2026-03-30 12:20:00","861","1.7830000000000001","265.4","3.887","227.3","1022.319","18.7","24.97","NAN","0.0"],
    [1548152,"2026-03-30 12:30:00","862","2.494","246.8","5.227","233.8","1022.183","19.09","24.61","NAN","0.0"],
    [1548153,"2026-03-30 12:40:00","863","3.2060000000000004","238.4","8.13","240.0","1022.158","19.12","24.41","NAN","0.0"],
    [1548154,"2026-03-30 12:50:00","864","2.656","231.4","6.305","237.1","1022.003","19.33","23.88","NAN","0.0"],
    [1548155,"2026-03-30 13:00:00","865","3.093","236.9","5.88","232.0","1021.674","19.62","23.23","NAN","0.0"],
    [1548156,"2026-03-30 13:10:00","866","2.22","240.4","5.096","226.7","1021.492","19.81","23.33","NAN","0.0"],
    [1548157,"2026-03-30 13:20:00","867","1.985","242.7","3.7569999999999997","241.9","1021.2860000000001","19.96","23.22","NAN","0.0"],
    [1548158,"2026-03-30 13:30:00","868","2.8339999999999996","233.0","5.2589999999999995","234.7","1020.975","20.27","23.03","NAN","0.0"],
    [1548159,"2026-03-30 13:40:00","869","1.755","255.7","5.422999999999999","231.3","1020.6310000000001","20.57","22.85","NAN","0.0"],
    [1548160,"2026-03-30 13:50:00","870","1.915","258.0","5.4879999999999995","228.8","1020.414","20.46","23.18","NAN","0.0"],
    [1548161,"2026-03-30 14:00:00","871","2.532","241.2","5.129","251.4","1020.18","20.54","23.44","NAN","0.0"],
    [1548162,"2026-03-30 14:10:00","872","2.539","242.9","6.239","237.6","1019.905","20.77","23.41","NAN","0.0"],
    [1548163,"2026-03-30 14:20:00","873","2.613","235.9","6.305","226.5","1019.7810000000001","21.12","23.08","NAN","0.0"],
    [1548164,"2026-03-30 14:30:00","874","2.4859999999999998","251.2","6.468","238.9","1019.735","21.08","23.6","NAN","0.0"],
    [1548165,"2026-03-30 14:40:00","875","2.519","265.5","5.7170000000000005","279.0","1019.539","21.16","23.92","NAN","0.0"],
    [1548166,"2026-03-30 14:50:00","876","1.847","223.1","5.521","272.7","1019.4","21.33","27.63","NAN","0.0"],
    [1548167,"2026-03-30 15:00:00","877","2.198","217.7","6.729","252.5","1019.215","20.71","29.01","NAN","0.0"],
    [1548168,"2026-03-30 15:10:00","878","2.305","248.7","5.651","249.5","1018.951","21.43","23.86","NAN","0.0"],
    [1548169,"2026-03-30 15:20:00","879","2.375","255.2","5.945","239.2","1018.7339999999999","21.41","24.14","NAN","0.0"],
    [1548170,"2026-03-30 15:30:00","880","2.386","245.7","5.2589999999999995","207.6","1018.54","21.66","24.43","NAN","0.0"],
    [1548171,"2026-03-30 15:40:00","881","2.09","242.4","5.619","255.1","1018.3939999999999","21.73","24.71","NAN","0.0"],
    [1548172,"2026-03-30 15:50:00","882","2.157","247.8","6.1739999999999995","237.7","1018.187","21.65","25.19","NAN","0.0"],
    [1548173,"2026-03-30 16:00:00","883","1.9909999999999999","243.3","5.7170000000000005","236.3","1018.008","21.79","25.18","NAN","0.0"],
    [1548174,"2026-03-30 16:10:00","884","1.544","246.1","4.345","310.4","1017.8860000000001","21.82","25.37","NAN","0.0"],
    [1548175,"2026-03-30 16:20:00","885","0.871","231.1","2.45","337.0","1017.873","21.46","31.3","NAN","0.0"],
    [1548176,"2026-03-30 16:30:00","886","1.713","244.5","4.573","317.4","1017.7560000000001","21.14","31.68","NAN","0.0"],
    [1548177,"2026-03-30 16:40:00","887","2.021","213.9","4.377","229.6","1017.687","20.26","40.47","NAN","0.0"],
    [1548178,"2026-03-30 16:50:00","888","2.1790000000000003","209.0","3.985","201.7","1017.622","19.49","46.45","NAN","0.0"],
    [1548179,"2026-03-30 17:00:00","889","2.031","201.2","4.835","207.0","1017.565","18.81","49.65","NAN","0.0"],
    [1548180,"2026-03-30 17:10:00","890","1.4509999999999998","205.3","3.267","217.3","1017.5369999999999","18.89","49.78","NAN","0.0"],
    [1548181,"2026-03-30 17:20:00","891","1.6369999999999998","198.6","2.842","189.6","1017.47","18.78","50.81","NAN","0.0"],
    [1548182,"2026-03-30 17:30:00","892","1.6909999999999998","183.5","2.7769999999999997","176.6","1017.438","18.72","50","NAN","0.0"],
    [1548183,"2026-03-30 17:40:00","893","1.7280000000000002","189.2","2.875","179.2","1017.39","18.55","51.42","NAN","0.0"],
    [1548184,"2026-03-30 17:50:00","894","1.06","208.5","2.45","177.1","1017.283","18.44","52.13","NAN","0.0"],
    [1548185,"2026-03-30 18:00:00","895","1.169","189.3","2.287","179.7","1017.191","18.34","53.54","NAN","0.0"],
    [1548186,"2026-03-30 18:10:00","896","0.38799999999999996","140.0","1.045","138.9","1017.201","17.48","61.45","NAN","0.0"],
    [1548187,"2026-03-30 18:20:00","897","0.503","177.0","1.568","111.2","1017.181","17.23","63.29","NAN","0.0"],
    [1548188,"2026-03-30 18:30:00","898","0.565","141.6","1.274","305.4","1017.1439999999999","17.66","58.05","NAN","0.0"],
    [1548189,"2026-03-30 18:40:00","899","0.9570000000000001","292.8","3.7239999999999998","297.8","1017.086","19.17","41.15","NAN","0.0"],
    [1548190,"2026-03-30 18:50:00","900","1.8359999999999999","267.6","3.9530000000000003","237.4","1016.977","19.75","37.83","NAN","0.0"],
    [1548191,"2026-03-30 19:00:00","901","1.176","264.5","3.495","255.3","1016.92","19.58","38.07","NAN","0.0"],
    [1548192,"2026-03-30 19:10:00","902","1.0090000000000001","290.4","3.1689999999999996","305.5","1016.947","19.44","38.43","NAN","0.0"],
    [1548193,"2026-03-30 19:20:00","903","1.505","308.0","5.455","318.7","1017.092","19.25","39.4","NAN","0.0"],
    [1548194,"2026-03-30 19:30:00","904","2.5669999999999997","318.9","6.599","316.1","1017.1260000000001","19.1","40.65","NAN","0.0"],
    [1548195,"2026-03-30 19:40:00","905","1.089","23.54","2.7439999999999998","260.2","1017.186","18.92","41.5","NAN","0.0"],
    [1548196,"2026-03-30 19:50:00","906","0.76","6.436","2.385","327.7","1017.2280000000001","18.71","42.21","NAN","0.0"],
    [1548197,"2026-03-30 20:00:00","907","1.242","289.6","3.234","254.2","1017.306","18.6","42.8","NAN","0.0"],
    [1548198,"2026-03-30 20:10:00","908","0.8009999999999999","233.2","2.548","311.8","1017.388","18.51","43.39","NAN","0.0"],
    [1548199,"2026-03-30 20:20:00","909","0.6940000000000001","152.9","2.287","198.1","1017.43","18.13","45.22","NAN","0.0"],
    [1548200,"2026-03-30 20:30:00","910","1.2930000000000001","192.8","3.0380000000000003","182.0","1017.515","18.12","45.49","NAN","0.0"],
    [1548201,"2026-03-30 20:40:00","911","1.304","242.9","2.875","239.2","1017.5880000000001","18.07","45.23","NAN","0.0"],
    [1548202,"2026-03-30 20:50:00","912","0.96","251.4","3.005","246.6","1017.556","18.15","44.48","NAN","0.0"],
    [1548203,"2026-03-30 21:00:00","913","1.113","278.7","2.123","253.1","1017.582","17.98","44.97","NAN","0.0"],
    [1548204,"2026-03-30 21:10:00","914","1.371","228.8","3.299","297.6","1017.635","17.93","45.68","NAN","0.0"],
    [1548205,"2026-03-30 21:20:00","915","2.983","101.3","6.5329999999999995","103.4","1017.6419999999999","15.58","67.99","NAN","0.0"],
    [1548206,"2026-03-30 21:30:00","916","1.8230000000000002","116.7","4.018","127.9","1017.801","15.18","71.23","NAN","0.0"],
    [1548207,"2026-03-30 21:40:00","917","2.523","79.34","4.933","83.0","1017.8989999999999","14.83","72.89","NAN","0.0"],
    [1548208,"2026-03-30 21:50:00","918","2.286","75.75","4.638999999999999","97.9","1018.0219999999999","14.81","73.32","NAN","0.0"],
    [1548209,"2026-03-30 22:00:00","919","1.0","60.45","2.483","56.95","1018.216","14.8","71.63","NAN","0.0"],
    [1548210,"2026-03-30 22:10:00","920","0.529","69.82","2.613","18.74","1018.154","14.91","68.76","NAN","0.0"],
    [1548211,"2026-03-30 22:20:00","921","0.823","56.8","2.025","36.74","1018.181","14.94","68.82","NAN","0.0"],
    [1548212,"2026-03-30 22:30:00","922","1.614","48.43","2.875","49.86","1018.195","14.89","69.01","NAN","0.0"],
    [1548213,"2026-03-30 22:40:00","923","1.311","32.27","3.1689999999999996","57.17","1018.191","15.01","64.73","NAN","0.0"],
    [1548214,"2026-03-30 22:50:00","924","1.541","28.03","2.7769999999999997","45.5","1018.1560000000001","14.96","63.21","NAN","0.0"],
    [1548215,"2026-03-30 23:00:00","925","1.521","38.87","3.136","33.46","1018.074","14.71","65.47","NAN","0.0"],
    [1548216,"2026-03-30 23:10:00","926","1.39","34.86","2.7110000000000003","20.49","1018.2389999999999","14.56","66.08","NAN","0.0"],
    [1548217,"2026-03-30 23:20:00","927","1.054","21.66","2.875","4.837","1018.262","14.47","64.85","NAN","0.0"],
    [1548218,"2026-03-30 23:30:00","928","1.38","20.7","3.1689999999999996","11.94","1018.258","14.49","63.06","NAN","0.0"],
    [1548219,"2026-03-30 23:40:00","929","1.026","38.96","2.7110000000000003","43.82","1018.328","14.41","62.41","NAN","0.0"],
    [1548220,"2026-03-30 23:50:00","930","1.214","20.62","3.0380000000000003","356.3","1018.291","14.33","61.85","NAN","0.0"],
    [1548221,"2026-03-31 00:00:00","931","1.436","12.37","2.842","11.51","1018.2589999999999","14.4","61.45","NAN","0.0"],
    [1548222,"2026-03-31 00:10:00","932","1.841","23.3","3.528","24.24","1018.258","14.46","61.53","NAN","0.0"],
    [1548223,"2026-03-31 00:20:00","933","1.629","19.32","4.018","25.92","1018.313","14.56","61.86","NAN","0.0"],
    [1548224,"2026-03-31 00:30:00","934","1.406","11.88","2.613","11.49","1018.4119999999999","14.61","61.95","NAN","0.0"],
    [1548225,"2026-03-31 00:40:00","935","0.843","29.7","1.797","13.43","1018.405","14.46","62.95","NAN","0.0"],
    [1548226,"2026-03-31 00:50:00","936","1.287","18.0","3.005","345.2","1018.5110000000001","14.42","63.61","NAN","0.0"],
    [1548227,"2026-03-31 01:00:00","937","1.056","25.74","1.8619999999999999","6.327999999999999","1018.387","14.43","63.78","NAN","0.0"],
    [1548228,"2026-03-31 01:10:00","938","1.238","36.71","1.797","18.65","1018.2660000000001","14.34","64.22","NAN","0.0"],
    [1548229,"2026-03-31 01:20:00","939","0.914","20.86","1.601","10.32","1018.268","14.31","64.91","NAN","0.0"],
    [1548230,"2026-03-31 01:30:00","940","0.652","8.79","1.633","2.5639999999999996","1018.265","14.39","65.77","NAN","0.0"],
    [1548231,"2026-03-31 01:40:00","941","0.758","18.4","1.633","22.24","1018.2539999999999","14.45","65.69","NAN","0.0"],
    [1548232,"2026-03-31 01:50:00","942","0.6409999999999999","4.218","1.209","4.133","1018.16","14.48","66.34","NAN","0.0"],
    [1548233,"2026-03-31 02:00:00","943","0.41600000000000004","359.6","0.882","351.3","1018.015","14.5","66.4","NAN","0.0"],
    [1548234,"2026-03-31 02:10:00","944","0.47700000000000004","355.0","1.143","4.118","1017.95","14.42","67.04","NAN","0.0"],
    [1548235,"2026-03-31 02:20:00","945","0.023","16.93","0.294","34.86","1017.737","14.28","67.55","NAN","0.0"],
    [1548236,"2026-03-31 02:30:00","946","0.304","273.0","1.045","178.7","1017.564","14.12","69.02","NAN","0.0"],
    [1548237,"2026-03-31 02:40:00","947","0.397","246.0","0.98","187.5","1017.55","14.01","71.12","NAN","0.0"],
    [1548238,"2026-03-31 02:50:00","948","0.72","240.6","2.189","254.4","1017.6239999999999","14.31","70.96","NAN","0.0"],
    [1548239,"2026-03-31 03:00:00","949","0.08","258.5","0.9470000000000001","233.6","1017.52","14.45","70.57","NAN","0.0"],
    [1548240,"2026-03-31 03:10:00","950","0.04","346.3","0.392","335.2","1017.518","14.08","72.14","NAN","0.0"],
    [1548241,"2026-03-31 03:20:00","951","0.23","16.54","1.274","30.31","1017.426","13.84","72.13","NAN","0.0"],
    [1548242,"2026-03-31 03:30:00","952","0.784","341.5","1.7309999999999999","2.281","1017.3919999999999","13.96","69.5","NAN","0.0"],
    [1548243,"2026-03-31 03:40:00","953","0.8540000000000001","356.6","1.8619999999999999","170.4","1017.2180000000001","13.93","68.98","NAN","0.0"],
    [1548244,"2026-03-31 03:50:00","954","0.535","56.82","1.3719999999999999","65.08","1017.15","13.97","70.75","NAN","0.0"],
    [1548245,"2026-03-31 04:00:00","955","0.39799999999999996","39.25","1.013","91.1","1017.0210000000001","13.77","71.2","NAN","0.0"],
    [1548246,"2026-03-31 04:10:00","956","0.57","40.51","1.535","57.04","1017.064","13.82","72.25","NAN","0.0"],
    [1548247,"2026-03-31 04:20:00","957","1.21","31.0","2.515","13.09","1017.26","13.78","71.41","NAN","0.0"],
    [1548248,"2026-03-31 04:30:00","958","1.16","22.21","2.385","30.63","1017.27","13.16","69.49","NAN","0.0"],
    [1548249,"2026-03-31 04:40:00","959","1.725","18.09","2.907","15.63","1017.318","13.02","69.33","NAN","0.0"],
    [1548250,"2026-03-31 04:50:00","960","1.714","15.89","3.365","5.267","1017.507","12.81","69.49","NAN","0.0"],
    [1548251,"2026-03-31 05:00:00","961","1.556","16.85","3.0380000000000003","21.71","1017.4810000000001","12.63","70.04","NAN","0.0"],
    [1548252,"2026-03-31 05:10:00","962","1.7080000000000002","11.9","3.234","10.75","1017.535","12.66","69.68","NAN","0.0"],
    [1548253,"2026-03-31 05:20:00","963","1.052","26.09","2.123","7.38","1017.459","12.6","69.13","NAN","0.0"],
    [1548254,"2026-03-31 05:30:00","964","0.976","21.23","1.8619999999999999","6.812","1017.62","12.57","69.64","NAN","0.0"],
    [1548255,"2026-03-31 05:40:00","965","1.111","9.33","2.254","6.666","1017.6519999999999","12.72","69.32","NAN","0.0"],
    [1548256,"2026-03-31 05:50:00","966","0.794","41.83","1.96","53.82","1017.623","12.93","68.51","NAN","0.0"],
    [1548257,"2026-03-31 06:00:00","967","1.015","36.39","2.6460000000000004","13.53","1017.7","13.04","67.92","NAN","0.0"],
    [1548258,"2026-03-31 06:10:00","968","0.882","31.96","2.123","349.7","1017.793","13.34","65.93","NAN","0.0"],
    [1548259,"2026-03-31 06:20:00","969","1.0979999999999999","35.61","2.319","46.99","1017.925","13.58","64.33","NAN","0.0"],
    [1548260,"2026-03-31 06:30:00","970","0.987","20.17","2.189","355.6","1018.0369999999999","13.88","63.18","NAN","0.0"],
    [1548261,"2026-03-31 06:40:00","971","1.6469999999999998","11.16","3.136","10.69","1018.041","13.87","64.68","NAN","0.0"],
    [1548262,"2026-03-31 06:50:00","972","1.61","6.789","2.7769999999999997","0.833","1018.194","13.66","67.7","NAN","0.0"],
    [1548263,"2026-03-31 07:00:00","973","1.585","16.76","3.495","2.53","1018.199","13.82","68.2","NAN","0.0"],
    [1548264,"2026-03-31 07:10:00","974","1.556","20.52","3.103","358.5","1018.188","14.12","68.97","NAN","0.0"],
    [1548265,"2026-03-31 07:20:00","975","1.281","27.9","3.103","2.242","1018.19","14.48","68.14","NAN","0.0"],
    [1548266,"2026-03-31 07:30:00","976","1.357","34.01","3.201","7.096","1018.3","14.62","68.31","NAN","0.0"],
    [1548267,"2026-03-31 07:40:00","977","1.44","34.1","3.43","1.4769999999999999","1018.462","14.84","67.76","NAN","0.0"],
    [1548268,"2026-03-31 07:50:00","978","1.669","36.14","3.234","67.7","1018.5419999999999","15.03","66.52","NAN","0.0"],
    [1548269,"2026-03-31 08:00:00","979","2.019","30.89","4.41","41.59","1018.7810000000001","15.33","67.09","NAN","0.0"],
    [1548270,"2026-03-31 08:10:00","980","2.045","60.85","4.345","72.23","1018.84","15.58","67.26","NAN","0.0"],
    [1548271,"2026-03-31 08:20:00","981","3.819","69.83","6.305","62.9","1018.998","14.96","68.55","NAN","0.0"],
    [1548272,"2026-03-31 08:30:00","982","4.105","69.45","6.631","81.3","1019.182","14.9","66.89","NAN","0.0"],
    [1548273,"2026-03-31 08:40:00","983","4.008","64.68","6.501","75.83","1019.2739999999999","14.91","66.54","NAN","0.0"],
    [1548274,"2026-03-31 08:50:00","984","2.826","62.67","5.455","70.35","1019.461","15.23","64.32","NAN","0.0"],
    [1548275,"2026-03-31 09:00:00","985","2.6660000000000004","70.57","5.292000000000001","54.74","1019.685","15.28","64.12","NAN","0.0"],
    [1548276,"2026-03-31 09:10:00","986","2.225","76.62","4.4430000000000005","103.9","1019.819","15.08","64.97","NAN","0.0"],
    [1548277,"2026-03-31 09:20:00","987","2.6289999999999996","77.07","5.521","108.4","1019.9839999999999","14.96","64.46","NAN","0.0"],
    [1548278,"2026-03-31 09:30:00","988","2.655","72.86","5.4879999999999995","78.79","1020.165","14.79","64.35","NAN","0.0"],
    [1548279,"2026-03-31 09:40:00","989","2.762","75.59","6.435","65.05","1020.16","14.69","64.7","NAN","0.0"],
    [1548280,"2026-03-31 09:50:00","990","2.11","113.3","4.279","102.5","1020.145","14.55","72.07","NAN","0.0"],
    [1548281,"2026-03-31 10:00:00","991","2.267","111.1","4.9","109.8","1020.1030000000001","14.83","72.48","NAN","0.0"],
    [1548282,"2026-03-31 10:10:00","992","2.173","112.9","4.802","116.7","1020.113","15.24","63.12","NAN","0.0"],
    [1548283,"2026-03-31 10:20:00","993","2.155","108.9","4.083","114.1","1020.11","15.49","59.54","NAN","0.0"],
    [1548284,"2026-03-31 10:30:00","994","1.656","119.8","3.985","107.9","1020.133","15.9","57.37","NAN","0.0"],
    [1548285,"2026-03-31 10:40:00","995","1.4969999999999999","102.6","3.528","112.1","1020.135","16.07","55","NAN","0.0"],
    [1548286,"2026-03-31 10:50:00","996","1.626","97.6","3.234","121.4","1020.163","16.1","54.61","NAN","0.0"],
    [1548287,"2026-03-31 11:00:00","997","1.835","113.1","2.9730000000000003","114.0","1020.04","15.89","55.36","NAN","0.0"],
    [1548288,"2026-03-31 11:10:00","998","1.564","121.2","2.94","144.7","1019.951","15.93","53.63","NAN","0.0"],
    [1548289,"2026-03-31 11:20:00","999","1.41","130.2","2.613","155.2","1019.8839999999999","16.12","53.81","NAN","0.0"],
    [1548290,"2026-03-31 11:30:00","1000","1.565","135.8","2.907","146.4","1019.7239999999999","15.82","53.74","NAN","0.0"],
    [1548291,"2026-03-31 11:40:00","1001","1.61","137.9","2.679","136.3","1019.682","15.75","52.86","NAN","0.0"],
    [1548292,"2026-03-31 11:50:00","1002","1.506","134.8","3.397","111.1","1019.572","16.28","51.69","NAN","0.0"],
    [1548293,"2026-03-31 12:00:00","1003","1.492","122.4","3.267","106.6","1019.53","16.17","52.84","NAN","0.0"],
    [1548294,"2026-03-31 12:10:00","1004","1.916","124.0","3.201","109.6","1019.557","16.14","53.7","NAN","0.0"],
    [1548295,"2026-03-31 12:20:00","1005","2.155","160.0","3.7889999999999997","201.0","1019.54","16.1","52.7","NAN","0.0"],
    [1548296,"2026-03-31 12:30:00","1006","2.2159999999999997","186.7","3.985","173.2","1019.438","16.31","51.63","NAN","0.0"],
    [1548297,"2026-03-31 12:40:00","1007","2.238","187.3","3.7239999999999998","173.3","1019.433","16.09","52.53","NAN","0.0"],
    [1548298,"2026-03-31 12:50:00","1008","2.039","184.2","3.332","164.6","1019.335","16.43","52.05","NAN","0.0"],
    [1548299,"2026-03-31 13:00:00","1009","2.301","182.4","3.92","169.1","1019.184","16.27","51.83","NAN","0.0"],
    [1548300,"2026-03-31 13:10:00","1010","2.585","171.6","4.4430000000000005","171.7","1019.171","16.08","53.34","NAN","0.0"],
    [1548301,"2026-03-31 13:20:00","1011","3.654","176.9","5.978","180.0","1019.0319999999999","15.7","54.56","NAN","0.0"],
    [1548302,"2026-03-31 13:30:00","1012","3.0980000000000003","183.7","5.586","177.3","1018.932","15.87","54.25","NAN","0.0"],
    [1548303,"2026-03-31 13:40:00","1013","2.8819999999999997","188.6","4.802","193.9","1018.9069999999999","16.17","54.3","NAN","0.0"],
    [1548304,"2026-03-31 13:50:00","1014","3.2119999999999997","177.4","4.704","187.1","1018.668","15.93","56.13","NAN","0.0"],
    [1548305,"2026-03-31 14:00:00","1015","3.048","195.5","5.096","181.2","1018.428","16.12","58.29","NAN","0.0"],
    [1548306,"2026-03-31 14:10:00","1016","3.9960000000000004","176.0","6.011","180.3","1018.302","15.71","60.21","NAN","0.0"],
    [1548307,"2026-03-31 14:20:00","1017","3.023","184.9","5.129","165.6","1018.304","15.81","59.47","NAN","0.0"],
    [1548308,"2026-03-31 14:30:00","1018","2.677","203.4","4.573","212.2","1018.19","15.59","58.34","NAN","0.0"],
    [1548309,"2026-03-31 14:40:00","1019","2.611","200.1","5.063","206.1","1018.0930000000001","15.79","57.65","NAN","0.0"],
    [1548310,"2026-03-31 14:50:00","1020","3.093","190.7","6.141","174.6","1017.8939999999999","15.64","58.69","NAN","0.0"],
    [1548311,"2026-03-31 15:00:00","1021","3.611","176.0","6.239","179.0","1017.8860000000001","15.42","58.57","NAN","0.0"],
    [1548312,"2026-03-31 15:10:00","1022","3.415","181.8","5.619","178.9","1017.809","15.49","59.49","NAN","0.0"],
    [1548313,"2026-03-31 15:20:00","1023","3.3560000000000003","181.4","5.227","176.6","1017.816","15.22","61.58","NAN","0.0"],
    [1548314,"2026-03-31 15:30:00","1024","2.928","179.6","5.227","165.0","1017.7639999999999","15.24","62.01","NAN","0.0"],
    [1548315,"2026-03-31 15:40:00","1025","2.887","183.5","4.867","181.3","1017.709","15.47","61.18","NAN","0.0"],
    [1548316,"2026-03-31 15:50:00","1026","3.259","175.6","5.2589999999999995","175.0","1017.6419999999999","15.25","63.34","NAN","0.0"],
    [1548317,"2026-03-31 16:00:00","1027","3.824","178.1","5.815","180.2","1017.659","15.05","65.17","NAN","0.0"],
    [1548318,"2026-03-31 16:10:00","1028","3.218","174.8","4.704","184.1","1017.567","15.25","64.8","NAN","0.0"],
    [1548319,"2026-03-31 16:20:00","1029","3.0669999999999997","177.6","4.638999999999999","176.8","1017.555","15.13","64.5","NAN","0.0"],
    [1548320,"2026-03-31 16:30:00","1030","2.509","190.2","4.149","178.3","1017.48","15.34","64.49","NAN","0.0"],
    [1548321,"2026-03-31 16:40:00","1031","2.9210000000000003","184.8","4.965","178.0","1017.585","15.18","64.31","NAN","0.0"],
    [1548322,"2026-03-31 16:50:00","1032","2.376","191.8","4.083","177.4","1017.689","15.21","64.56","NAN","0.0"],
    [1548323,"2026-03-31 17:00:00","1033","2.891","183.5","4.867","173.4","1017.645","15.17","64.89","NAN","0.0"],
    [1548324,"2026-03-31 17:10:00","1034","2.266","192.0","5.292000000000001","205.5","1017.677","15.07","65.09","NAN","0.0"],
    [1548325,"2026-03-31 17:20:00","1035","2.645","184.2","4.573","161.4","1017.762","14.96","65.52","NAN","0.0"],
    [1548326,"2026-03-31 17:30:00","1036","2.289","191.6","4.541","183.4","1017.932","14.82","66.66","NAN","0.0"],
    [1548327,"2026-03-31 17:40:00","1037","1.5659999999999998","200.7","2.94","190.8","1017.9689999999999","14.93","66.48","NAN","0.0"],
    [1548328,"2026-03-31 17:50:00","1038","1.9469999999999998","198.4","3.267","199.6","1018.174","14.9","65.74","NAN","0.0"],
    [1548329,"2026-03-31 18:00:00","1039","1.42","198.4","2.9730000000000003","197.8","1018.309","14.83","65.93","NAN","0.0"],
    [1548330,"2026-03-31 18:10:00","1040","1.452","217.2","2.7439999999999998","216.8","1018.372","14.84","66.07","NAN","0.0"],
    [1548331,"2026-03-31 18:20:00","1041","1.469","220.2","2.613","231.9","1018.385","14.83","66.27","NAN","0.0"],
    [1548332,"2026-03-31 18:30:00","1042","1.703","227.9","3.005","227.1","1018.38","14.7","67.12","NAN","0.0"],
    [1548333,"2026-03-31 18:40:00","1043","1.575","229.1","3.7239999999999998","234.9","1018.492","14.69","67.1","NAN","0.0"],
    [1548334,"2026-03-31 18:50:00","1044","1.6669999999999998","213.9","3.071","231.6","1018.485","14.58","68.14","NAN","0.0"],
    [1548335,"2026-03-31 19:00:00","1045","1.137","212.9","2.548","228.0","1018.692","14.48","69.32","NAN","0.0"],
    [1548336,"2026-03-31 19:10:00","1046","1.501","199.8","2.679","200.4","1018.7560000000001","14.38","69.54","NAN","0.0"],
    [1548337,"2026-03-31 19:20:00","1047","1.161","212.2","2.907","261.1","1018.7539999999999","14.28","70.92","NAN","0.0"],
    [1548338,"2026-03-31 19:30:00","1048","1.32","255.7","2.94","255.9","1018.7669999999999","14.53","68.7","NAN","0.0"],
    [1548339,"2026-03-31 19:40:00","1049","1.235","217.5","3.0380000000000003","239.1","1018.8960000000001","14.55","69","NAN","0.0"],
    [1548340,"2026-03-31 19:50:00","1050","1.495","203.3","2.94","176.9","1018.943","14.31","70.6","NAN","0.0"],
    [1548341,"2026-03-31 20:00:00","1051","1.237","197.8","2.613","204.6","1018.8610000000001","14.23","71.38","NAN","0.0"],
    [1548342,"2026-03-31 20:10:00","1052","1.004","196.3","1.9269999999999998","199.5","1018.998","14.14","72.62","NAN","0.0"],
    [1548343,"2026-03-31 20:20:00","1053","0.96","223.3","2.319","236.7","1019.1160000000001","14.12","72.67","NAN","0.0"],
    [1548344,"2026-03-31 20:30:00","1054","0.925","224.6","2.352","184.1","1019.076","14.25","71.78","NAN","0.0"],
    [1548345,"2026-03-31 20:40:00","1055","0.9059999999999999","227.6","2.8089999999999997","215.6","1018.985","14.16","72.31","NAN","0.0"],
    [1548346,"2026-03-31 20:50:00","1056","1.16","220.0","3.0380000000000003","193.1","1018.806","14.01","72.52","NAN","0.0"],
    [1548347,"2026-03-31 21:00:00","1057","0.633","224.8","1.47","289.3","1018.9780000000001","13.93","71.98","NAN","0.0"],
    [1548348,"2026-03-31 21:10:00","1058","0.9840000000000001","241.0","2.9730000000000003","230.0","1018.953","14.04","71.57","NAN","0.0"],
    [1548349,"2026-03-31 21:20:00","1059","1.3230000000000002","233.9","3.397","238.8","1018.953","14.17","70.28","NAN","0.0"],
    [1548350,"2026-03-31 21:30:00","1060","1.835","246.8","3.495","257.2","1018.9060000000001","14.23","69.98","NAN","0.0"],
    [1548351,"2026-03-31 21:40:00","1061","1.55","246.2","3.365","242.6","1018.83","14.23","69.93","NAN","0.0"],
    [1548352,"2026-03-31 21:50:00","1062","1.5190000000000001","237.5","3.136","234.6","1018.941","14.22","69.98","NAN","0.0"],
    [1548353,"2026-03-31 22:00:00","1063","1.006","235.9","2.8089999999999997","241.2","1018.97","14.15","70.02","NAN","0.0"],
    [1548354,"2026-03-31 22:10:00","1064","0.946","252.7","2.548","288.8","1018.9169999999999","14.04","70.39","NAN","0.0"],
    [1548355,"2026-03-31 22:20:00","1065","0.772","248.2","2.221","281.7","1018.877","14","70.63","NAN","0.0"],
    [1548356,"2026-03-31 22:30:00","1066","0.573","251.9","1.47","292.3","1019.007","13.76","71.66","NAN","0.0"],
    [1548357,"2026-03-31 22:40:00","1067","0.5529999999999999","162.1","1.111","219.7","1018.898","13.83","71.36","NAN","0.0"],
    [1548358,"2026-03-31 22:50:00","1068","0.516","142.7","0.915","127.0","1018.7919999999999","13.52","73.05","NAN","0.0"],
    [1548359,"2026-03-31 23:00:00","1069","0.574","150.8","1.078","145.8","1018.737","13.3","73.8","NAN","0.0"],
    [1548360,"2026-03-31 23:10:00","1070","0.265","198.5","0.8170000000000001","186.9","1018.6360000000001","13.24","74.54","NAN","0.0"],
    [1548361,"2026-03-31 23:20:00","1071","0.616","225.7","1.274","212.4","1018.503","13.25","73.85","NAN","0.0"],
    [1548362,"2026-03-31 23:30:00","1072","0.451","74.8","1.274","56.64","1018.52","13.29","72.95","NAN","0.0"],
    [1548363,"2026-03-31 23:40:00","1073","1.189","52.04","3.103","49.96","1018.57","13.18","73.53","NAN","0.0"],
    [1548364,"2026-03-31 23:50:00","1074","0.648","34.64","1.176","36.43","1018.3710000000001","12.96","74.41","NAN","0.0"],
    [1548365,"2026-04-01 00:00:00","1075","1.058","37.05","2.385","52.43","1018.362","12.97","74.36","NAN","0.0"],
    [1548366,"2026-04-01 00:10:00","1076","1.083","26.12","2.842","44.77","1018.315","12.84","74.75","NAN","0.0"],
    [1548367,"2026-04-01 00:20:00","1077","1.193","62.65","2.8089999999999997","47.8","1018.293","12.72","75.37","NAN","0.0"],
    [1548368,"2026-04-01 00:30:00","1078","0.6990000000000001","38.78","1.96","34.12","1018.243","12.64","76.16","NAN","0.0"],
    [1548369,"2026-04-01 00:40:00","1079","1.155","48.8","2.156","25.06","1018.1289999999999","12.62","77.02","NAN","0.0"],
    [1548370,"2026-04-01 00:50:00","1080","0.8220000000000001","21.19","1.8619999999999999","54.65","1018.068","12.65","77.26","NAN","0.0"],
    [1548371,"2026-04-01 01:00:00","1081","0.797","47.23","1.8619999999999999","167.6","1017.942","12.61","77.15","NAN","0.0"],
    [1548372,"2026-04-01 01:10:00","1082","0.597","327.0","1.797","170.6","1017.796","12.6","78.08","NAN","0.0"],
    [1548373,"2026-04-01 01:20:00","1083","0.355","12.53","1.111","28.97","1017.717","12.77","77.55","NAN","0.0"],
    [1548374,"2026-04-01 01:30:00","1084","0.5589999999999999","27.99","1.078","27.5","1017.762","12.7","78.24","NAN","0.0"],
    [1548375,"2026-04-01 01:40:00","1085","0.624","59.69","0.98","50.63","1017.6189999999999","12.67","78.97","NAN","0.0"],
    [1548376,"2026-04-01 01:50:00","1086","0.56","56.38","1.111","41.87","1017.576","12.62","79.18","NAN","0.0"],
    [1548377,"2026-04-01 02:00:00","1087","0.396","19.69","1.045","35.6","1017.538","12.63","78.87","NAN","0.0"],
    [1548378,"2026-04-01 02:10:00","1088","0.804","221.7","1.764","220.0","1017.337","12.86","79.32","NAN","0.0"],
    [1548379,"2026-04-01 02:20:00","1089","0.9079999999999999","271.6","1.797","288.6","1017.365","13.04","79.3","NAN","0.0"],
    [1548380,"2026-04-01 02:30:00","1090","0.565","190.9","1.111","206.3","1017.242","13.01","77.59","NAN","0.0"],
    [1548381,"2026-04-01 02:40:00","1091","0.794","263.3","1.797","241.7","1017.2660000000001","12.92","78.65","NAN","0.0"],
    [1548382,"2026-04-01 02:50:00","1092","1.185","245.3","1.895","245.5","1017.097","13.14","75.16","NAN","0.0"],
    [1548383,"2026-04-01 03:00:00","1093","1.095","233.0","2.483","242.9","1017.084","13.09","73.35","NAN","0.0"],
    [1548384,"2026-04-01 03:10:00","1094","0.8640000000000001","254.2","1.764","227.5","1017.2230000000001","12.91","74.18","NAN","0.0"],
    [1548385,"2026-04-01 03:20:00","1095","1.062","257.7","1.993","259.1","1017.153","12.96","74.21","NAN","0.0"],
    [1548386,"2026-04-01 03:30:00","1096","0.39299999999999996","227.7","1.3719999999999999","243.2","1017.053","12.76","75.9","NAN","0.0"],
    [1548387,"2026-04-01 03:40:00","1097","0.603","50.64","1.176","12.37","1017.025","12.03","76.94","NAN","0.0"],
    [1548388,"2026-04-01 03:50:00","1098","0.373","40.93","1.339","48.78","1017.05","11.59","78.99","NAN","0.0"],
    [1548389,"2026-04-01 04:00:00","1099","1.0090000000000001","54.62","2.123","58.39","1017.072","11.32","79.65","NAN","0.0"],
    [1548390,"2026-04-01 04:10:00","1100","1.151","25.15","2.0909999999999997","355.9","1017.081","11.13","79.88","NAN","0.0"],
    [1548391,"2026-04-01 04:20:00","1101","1.486","21.86","3.234","30.49","1016.928","11.25","78.88","NAN","0.0"],
    [1548392,"2026-04-01 04:30:00","1102","1.0","360.0","2.417","352.8","1016.865","11.38","78.22","NAN","0.0"],
    [1548393,"2026-04-01 04:40:00","1103","0.629","2.714","1.993","359.7","1016.8639999999999","11.45","77.15","NAN","0.0"],
    [1548394,"2026-04-01 04:50:00","1104","0.677","329.6","1.307","302.4","1016.834","11.64","76.28","NAN","0.0"],
    [1548395,"2026-04-01 05:00:00","1105","0.222","33.23","0.98","346.1","1016.821","11.62","75.98","NAN","0.0"],
    [1548396,"2026-04-01 05:10:00","1106","0.49700000000000005","40.62","1.47","50.66","1016.819","11.17","77.74","NAN","0.0"],
    [1548397,"2026-04-01 05:20:00","1107","1.058","8.17","2.156","15.22","1016.824","11.29","77.59","NAN","0.0"],
    [1548398,"2026-04-01 05:30:00","1108","1.036","3.2689999999999997","2.0580000000000003","56.93","1016.821","11.3","76.89","NAN","0.0"],
    [1548399,"2026-04-01 05:40:00","1109","1.158","237.1","2.8089999999999997","34.12","1016.8789999999999","11.53","76.68","NAN","0.0"],
    [1548400,"2026-04-01 05:50:00","1110","0.527","212.6","1.568","37.79","1016.9730000000001","11.22","77.24","NAN","0.0"],
    [1548401,"2026-04-01 06:00:00","1111","0.7909999999999999","88.3","1.274","73.47","1017.071","11.3","78.37","NAN","0.0"],
    [1548402,"2026-04-01 06:10:00","1112","1.285","96.2","3.005","75.33","1017.16","11.46","78.71","NAN","0.0"],
    [1548403,"2026-04-01 06:20:00","1113","1.301","71.38","2.548","81.4","1017.203","11.38","78.92","NAN","0.0"],
    [1548404,"2026-04-01 06:30:00","1114","1.135","38.73","2.5810000000000004","56.37","1017.279","11.58","76.41","NAN","0.0"],
    [1548405,"2026-04-01 06:40:00","1115","1.4980000000000002","23.78","3.0380000000000003","37.75","1017.405","11.27","74.87","NAN","0.0"],
    [1548406,"2026-04-01 06:50:00","1116","1.092","10.05","2.221","8.85","1017.341","11.43","73.37","NAN","0.0"],
    [1548407,"2026-04-01 07:00:00","1117","1.156","7.372999999999999","2.254","17.92","1017.3689999999999","11.63","72.17","NAN","0.0"],
    [1548408,"2026-04-01 07:10:00","1118","0.9620000000000001","13.37","1.8619999999999999","10.59","1017.3739999999999","11.79","71.52","NAN","0.0"],
    [1548409,"2026-04-01 07:20:00","1119","1.124","32.15","2.025","75.78","1017.4010000000001","12.13","71.18","NAN","0.0"],
    [1548410,"2026-04-01 07:30:00","1120","0.83","62.65","1.535","37.39","1017.257","12.54","68.71","NAN","0.0"],
    [1548411,"2026-04-01 07:40:00","1121","0.478","62.81","1.307","72.09","1017.24","12.94","65.54","NAN","0.0"],
    [1548412,"2026-04-01 07:50:00","1122","0.7020000000000001","102.8","2.0909999999999997","115.7","1017.2330000000001","13.15","55.4","NAN","0.0"],
    [1548413,"2026-04-01 08:00:00","1123","0.254","127.4","0.6859999999999999","116.4","1017.204","12.89","57.86","NAN","0.0"],
    [1548414,"2026-04-01 08:10:00","1124","0.716","122.7","1.307","130.5","1017.2460000000001","13","56.59","NAN","0.0"],
    [1548415,"2026-04-01 08:20:00","1125","0.562","127.1","1.4369999999999998","149.4","1017.199","13.94","55.54","NAN","0.0"],
    [1548416,"2026-04-01 08:30:00","1126","0.9329999999999999","156.7","1.535","126.1","1017.191","13.74","58.94","NAN","0.0"],
    [1548417,"2026-04-01 08:40:00","1127","0.893","126.1","1.568","134.4","1017.191","14.06","55.56","NAN","0.0"],
    [1548418,"2026-04-01 08:50:00","1128","1.053","156.9","1.9269999999999998","179.6","1017.186","14.35","54.51","NAN","0.0"],
    [1548419,"2026-04-01 09:00:00","1129","0.8740000000000001","181.9","1.7309999999999999","228.6","1017.091","14.57","55.85","NAN","0.0"],
    [1548420,"2026-04-01 09:10:00","1130","1.6130000000000002","125.0","2.842","113.8","1017.034","14.23","54.88","NAN","0.0"],
    [1548421,"2026-04-01 09:20:00","1131","1.827","160.7","3.234","183.6","1016.955","14.26","57.41","NAN","0.0"],
    [1548422,"2026-04-01 09:30:00","1132","2.326","175.1","3.7569999999999997","178.0","1016.818","13.96","59.62","NAN","0.0"],
    [1548423,"2026-04-01 09:40:00","1133","2.428","180.9","3.7239999999999998","191.7","1016.855","14.06","55.82","NAN","0.0"],
    [1548424,"2026-04-01 09:50:00","1134","2.93","180.2","4.638999999999999","177.0","1016.805","13.95","57.08","NAN","0.0"],
    [1548425,"2026-04-01 10:00:00","1135","3.657","175.5","5.357","179.6","1016.5980000000001","14","57.27","NAN","0.0"],
    [1548426,"2026-04-01 10:10:00","1136","3.753","179.6","6.729","175.7","1016.3860000000001","14.29","57.48","NAN","0.0"],
    [1548427,"2026-04-01 10:20:00","1137","3.359","178.8","6.011","179.1","1016.31","14.57","55.84","NAN","0.0"],
    [1548428,"2026-04-01 10:30:00","1138","3.5860000000000003","176.8","6.207000000000001","175.8","1016.427","14.58","55.09","NAN","0.0"],
    [1548429,"2026-04-01 10:40:00","1139","3.6260000000000003","178.8","6.697","176.1","1016.456","14.79","54.4","NAN","0.0"],
    [1548430,"2026-04-01 10:50:00","1140","3.5780000000000003","182.1","6.1739999999999995","180.3","1016.284","15.03","53.32","NAN","0.0"],
    [1548431,"2026-04-01 11:00:00","1141","3.0180000000000002","188.5","6.5329999999999995","182.8","1016.193","15.21","51.83","NAN","0.0"],
    [1548432,"2026-04-01 11:10:00","1142","3.3110000000000004","187.2","6.011","207.7","1016.205","15.17","51.92","NAN","0.0"],
    [1548433,"2026-04-01 11:20:00","1143","3.5189999999999997","187.4","6.239","175.6","1016.095","15.02","51.64","NAN","0.0"],
    [1548434,"2026-04-01 11:30:00","1144","3.6439999999999997","184.5","6.239","186.1","1015.9960000000001","14.81","52.64","NAN","0.0"],
    [1548435,"2026-04-01 11:40:00","1145","2.9539999999999997","182.1","5.455","180.8","1015.9830000000001","15.13","52.52","NAN","0.0"],
    [1548436,"2026-04-01 11:50:00","1146","3.984","183.0","6.729","178.9","1015.8389999999999","14.85","56.5","NAN","0.0"],
    [1548437,"2026-04-01 12:00:00","1147","4.336","185.2","7.513","188.7","1015.7510000000001","14.61","60.22","NAN","0.0"],
    [1548438,"2026-04-01 12:10:00","1148","4.131","180.0","6.468","173.2","1015.689","14.35","61.36","NAN","0.0"],
    [1548439,"2026-04-01 12:20:00","1149","3.677","183.9","6.0760000000000005","184.1","1015.682","14.17","61.43","NAN","0.0"],
    [1548440,"2026-04-01 12:30:00","1150","4.183","183.5","7.382999999999999","178.0","1015.622","14.05","62.35","NAN","0.0"],
    [1548441,"2026-04-01 12:40:00","1151","3.4810000000000003","179.2","6.435","172.7","1015.635","14","63.16","NAN","0.0"],
    [1548442,"2026-04-01 12:50:00","1152","2.7110000000000003","184.5","4.41","183.3","1015.6469999999999","14.14","62.93","NAN","0.0"],
    [1548443,"2026-04-01 13:00:00","1153","2.787","193.9","5.1610000000000005","193.5","1015.557","14.34","59.95","NAN","0.0"],
    [1548444,"2026-04-01 13:10:00","1154","2.864","191.3","4.965","180.1","1015.4","14.37","61.59","NAN","0.0"],
    [1548445,"2026-04-01 13:20:00","1155","2.681","180.8","4.671","175.2","1015.293","14.39","62.9","NAN","0.0"],
    [1548446,"2026-04-01 13:30:00","1156","2.114","190.1","4.1160000000000005","177.2","1015.206","14.53","64.24","NAN","0.0"],
    [1548447,"2026-04-01 13:40:00","1157","3.074","185.5","5.88","169.5","1014.982","14.52","64.96","NAN","0.0"],
    [1548448,"2026-04-01 13:50:00","1158","3.361","179.9","5.357","178.0","1014.738","14.4","64.19","NAN","0.0"],
    [1548449,"2026-04-01 14:00:00","1159","2.8560000000000003","182.5","5.194","192.1","1014.4630000000001","14.62","63.6","NAN","0.0"],
    [1548450,"2026-04-01 14:10:00","1160","3.455","174.9","5.945","175.2","1014.305","14.56","63.29","NAN","0.0"],
    [1548451,"2026-04-01 14:20:00","1161","2.68","179.4","5.4879999999999995","179.3","1014.2919999999999","14.72","63.88","NAN","0.0"],
    [1548452,"2026-04-01 14:30:00","1162","3.221","179.7","5.194","171.5","1014.143","14.97","63.15","NAN","0.0"],
    [1548453,"2026-04-01 14:40:00","1163","3.022","181.9","5.7170000000000005","176.3","1014.053","15.09","62.65","NAN","0.0"],
    [1548454,"2026-04-01 14:50:00","1164","2.252","193.7","5.39","210.2","1013.898","15.75","60.4","NAN","0.0"],
    [1548455,"2026-04-01 15:00:00","1165","2.553","203.6","5.031000000000001","179.6","1013.706","16.17","58.24","NAN","0.0"],
    [1548456,"2026-04-01 15:10:00","1166","2.623","197.5","5.1610000000000005","206.0","1013.61","16.65","55.77","NAN","0.0"],
    [1548457,"2026-04-01 15:20:00","1167","2.853","197.0","4.998","184.0","1013.58","16.18","56.42","NAN","0.0"],
    [1548458,"2026-04-01 15:30:00","1168","2.455","193.6","5.2589999999999995","176.5","1013.567","16.11","56.35","NAN","0.0"],
    [1548459,"2026-04-01 15:40:00","1169","2.681","210.7","5.292000000000001","199.5","1013.405","16.07","55.26","NAN","0.0"],
    [1548460,"2026-04-01 15:50:00","1170","2.303","203.8","4.573","199.7","1013.363","15.81","55.49","NAN","0.0"],
    [1548461,"2026-04-01 16:00:00","1171","2.319","208.9","4.2139999999999995","207.9","1013.221","16.03","53.99","NAN","0.0"],
    [1548462,"2026-04-01 16:10:00","1172","2.07","226.7","4.312","211.6","1013.1489999999999","16.11","52.7","NAN","0.0"],
    [1548463,"2026-04-01 16:20:00","1173","2.38","219.2","4.279","229.9","1013.177","16.22","52.53","NAN","0.0"],
    [1548464,"2026-04-01 16:30:00","1174","2.365","223.3","4.933","219.9","1013.1560000000001","15.98","54.08","NAN","0.0"],
    [1548465,"2026-04-01 16:40:00","1175","1.912","227.2","4.247","267.8","1013.1339999999999","16.08","54.6","NAN","0.0"],
    [1548466,"2026-04-01 16:50:00","1176","1.96","227.9","4.247","264.7","1013.046","15.95","53.23","NAN","0.0"],
    [1548467,"2026-04-01 17:00:00","1177","2.6519999999999997","240.2","5.521","233.9","1013.064","15.68","55.89","NAN","0.0"],
    [1548468,"2026-04-01 17:10:00","1178","2.444","228.9","5.4879999999999995","242.1","1013.1039999999999","15.51","57.23","NAN","0.0"],
    [1548469,"2026-04-01 17:20:00","1179","2.536","236.8","6.1739999999999995","241.5","1013.107","15.43","59.33","NAN","0.0"],
    [1548470,"2026-04-01 17:30:00","1180","1.275","221.7","2.94","218.5","1013.169","15.34","61.04","NAN","0.0"],
    [1548471,"2026-04-01 17:40:00","1181","1.432","216.1","3.9530000000000003","214.4","1013.052","15.14","63.3","NAN","0.0"],
    [1548472,"2026-04-01 17:50:00","1182","1.591","233.3","4.41","227.2","1013.133","15.04","64.03","NAN","0.0"],
    [1548473,"2026-04-01 18:00:00","1183","1.557","195.2","4.1160000000000005","219.7","1013.296","14.87","65.91","NAN","0.0"],
    [1548474,"2026-04-01 18:10:00","1184","1.089","135.4","2.319","181.0","1013.454","14.74","68.94","NAN","0.0"],
    [1548475,"2026-04-01 18:20:00","1185","1.32","194.2","2.352","177.4","1013.456","14.68","70.31","NAN","0.0"],
    [1548476,"2026-04-01 18:30:00","1186","1.238","275.9","2.548","30.02","1013.44","14.71","69.79","NAN","0.0"],
    [1548477,"2026-04-01 18:40:00","1187","0.6990000000000001","254.0","2.254","194.4","1013.632","14.69","69.51","NAN","0.0"],
    [1548478,"2026-04-01 18:50:00","1188","0.9390000000000001","114.2","2.45","131.5","1013.7239999999999","14.55","70.56","NAN","0.0"],
    [1548479,"2026-04-01 19:00:00","1189","0.655","282.5","2.025","304.1","1013.737","14.55","72.3","NAN","0.0"],
    [1548480,"2026-04-01 19:10:00","1190","1.486","302.2","3.7569999999999997","276.6","1013.697","14.63","74.48","NAN","0.0"],
    [1548481,"2026-04-01 19:20:00","1191","1.77","280.0","4.018","295.0","1013.77","14.62","75.21","NAN","0.0"],
    [1548482,"2026-04-01 19:30:00","1192","2.097","242.0","4.671","302.1","1013.956","14.57","76.14","NAN","0.0"],
    [1548483,"2026-04-01 19:40:00","1193","1.868","221.9","4.1160000000000005","222.7","1014.1080000000001","14.58","76.49","NAN","0.0"],
    [1548484,"2026-04-01 19:50:00","1194","1.935","225.2","4.835","251.7","1013.998","14.53","76.56","NAN","0.0"],
    [1548485,"2026-04-01 20:00:00","1195","1.905","223.1","5.357","217.4","1014.018","14.39","77.54","NAN","0.0"],
    [1548486,"2026-04-01 20:10:00","1196","1.555","222.6","4.475","224.0","1014.148","14.18","78.8","NAN","0.0"],
    [1548487,"2026-04-01 20:20:00","1197","0.9079999999999999","196.8","2.221","243.3","1014.183","14.04","79.29","NAN","0.0"],
    [1548488,"2026-04-01 20:30:00","1198","0.789","164.6","2.45","206.7","1014.253","13.89","79.5","NAN","0.0"],
    [1548489,"2026-04-01 20:40:00","1199","0.349","146.0","2.319","179.8","1014.35","13.77","79.53","NAN","0.0"],
    [1548490,"2026-04-01 20:50:00","1200","1.208","188.7","2.6460000000000004","219.7","1014.322","13.77","79","NAN","0.0"],
    [1548491,"2026-04-01 21:00:00","1201","1.026","221.8","2.515","246.9","1014.312","13.81","77.4","NAN","0.0"],
    [1548492,"2026-04-01 21:10:00","1202","1.409","179.1","3.234","184.8","1014.3","13.74","77.71","NAN","0.0"],
    [1548493,"2026-04-01 21:20:00","1203","1.3880000000000001","226.3","3.365","242.2","1014.439","13.77","76.59","NAN","0.0"],
    [1548494,"2026-04-01 21:30:00","1204","1.3090000000000002","231.9","2.94","250.5","1014.502","13.88","75.44","NAN","0.0"],
    [1548495,"2026-04-01 21:40:00","1205","0.986","213.0","3.0380000000000003","207.3","1014.3539999999999","13.86","75.72","NAN","0.0"],
    [1548496,"2026-04-01 21:50:00","1206","1.3719999999999999","194.0","3.299","181.7","1014.21","13.96","76.4","NAN","0.0"],
    [1548497,"2026-04-01 22:00:00","1207","1.124","227.0","2.45","224.1","1014.0260000000001","13.96","76.91","NAN","0.0"],
    [1548498,"2026-04-01 22:10:00","1208","1.4769999999999999","220.6","2.875","216.2","1013.9830000000001","13.98","76.39","NAN","0.0"],
    [1548499,"2026-04-01 22:20:00","1209","0.838","206.0","2.417","206.8","1013.831","13.91","76.91","NAN","0.0"],
    [1548500,"2026-04-01 22:30:00","1210","0.937","193.0","1.797","198.7","1013.7539999999999","13.92","78.06","NAN","0.0"],
    [1548501,"2026-04-01 22:40:00","1211","0.9179999999999999","234.3","2.613","236.5","1013.7239999999999","13.91","77.51","NAN","0.0"],
    [1548502,"2026-04-01 22:50:00","1212","1.396","223.8","2.7769999999999997","229.3","1013.709","13.92","77.37","NAN","0.0"],
    [1548503,"2026-04-01 23:00:00","1213","1.506","222.8","3.397","228.9","1013.602","13.82","77.9","NAN","0.0"],
    [1548504,"2026-04-01 23:10:00","1214","1.166","216.8","2.7769999999999997","252.9","1013.46","13.77","78.24","NAN","0.0"],
    [1548505,"2026-04-01 23:20:00","1215","1.13","217.0","3.136","199.0","1013.4","13.74","78.59","NAN","0.0"],
    [1548506,"2026-04-01 23:30:00","1216","1.7519999999999998","225.2","3.299","221.6","1013.306","13.77","78.46","NAN","0.0"],
    [1548507,"2026-04-01 23:40:00","1217","1.351","217.9","3.103","239.0","1013.2310000000001","13.77","78.38","NAN","0.0"],
    [1548508,"2026-04-01 23:50:00","1218","0.637","212.3","1.339","226.5","1013.1410000000001","13.7","78.58","NAN","0.0"],
    [1548509,"2026-04-02 00:00:00","1219","1.1440000000000001","215.3","2.189","190.2","1013.107","13.68","78.51","NAN","0.0"],
    [1548510,"2026-04-02 00:10:00","1220","1.47","224.4","2.7439999999999998","218.9","1013.2289999999999","13.71","77.68","NAN","0.0"],
    [1548511,"2026-04-02 00:20:00","1221","1.399","229.4","2.94","234.5","1013.188","13.8","77.42","NAN","0.0"],
    [1548512,"2026-04-02 00:30:00","1222","1.65","226.2","3.463","237.3","1013.0189999999999","13.78","78.24","NAN","0.0"],
    [1548513,"2026-04-02 00:40:00","1223","1.369","229.2","3.103","205.7","1012.929","13.67","78.95","NAN","0.0"],
    [1548514,"2026-04-02 00:50:00","1224","1.5859999999999999","224.7","2.6460000000000004","225.7","1012.775","13.49","80.3","NAN","0.0"],
    [1548515,"2026-04-02 01:00:00","1225","1.757","189.8","3.6260000000000003","132.3","1012.758","13.43","79.98","NAN","0.0"],
    [1548516,"2026-04-02 01:10:00","1226","2.28","120.2","5.129","111.0","1012.76","12.71","73.1","NAN","0.0"],
    [1548517,"2026-04-02 01:20:00","1227","3.1830000000000003","96.0","5.455","62.98","1012.753","12.4","72.53","NAN","0.0"],
    [1548518,"2026-04-02 01:30:00","1228","2.7969999999999997","85.2","5.684","78.07","1012.77","12.11","73.53","NAN","0.0"],
    [1548519,"2026-04-02 01:40:00","1229","1.5930000000000002","81.5","3.267","66.7","1012.757","12.26","72.58","NAN","0.0"],
    [1548520,"2026-04-02 01:50:00","1230","1.913","81.5","4.704","65.32","1012.513","12.37","70.24","NAN","0.0"],
    [1548521,"2026-04-02 02:00:00","1231","1.043","71.97","2.0580000000000003","112.7","1012.475","12.44","69.11","NAN","0.0"],
    [1548522,"2026-04-02 02:10:00","1232","0.654","55.29","1.307","65.4","1012.2819999999999","12.47","68.56","NAN","0.0"],
    [1548523,"2026-04-02 02:20:00","1233","0.23600000000000002","88.8","1.045","70.07","1012.29","12.45","68.9","NAN","0.0"],
    [1548524,"2026-04-02 02:30:00","1234","0.55","105.1","1.764","114.6","1012.253","12.42","69.7","NAN","0.0"],
    [1548525,"2026-04-02 02:40:00","1235","1.3159999999999998","70.88","2.679","66.09","1012.1030000000001","12.37","71.19","NAN","0.0"],
    [1548526,"2026-04-02 02:50:00","1236","1.186","52.09","1.666","36.24","1012.041","12.34","71.09","NAN","0.0"],
    [1548527,"2026-04-02 03:00:00","1237","0.755","59.13","1.3719999999999999","83.4","1012.01","12.34","70.57","NAN","0.0"],
    [1548528,"2026-04-02 03:10:00","1238","0.621","35.57","2.319","36.03","1011.8710000000001","12.15","71.14","NAN","0.0"],
    [1548529,"2026-04-02 03:20:00","1239","1.744","43.35","2.875","49.16","1012.125","11.91","70.9","NAN","0.0"],
    [1548530,"2026-04-02 03:30:00","1240","1.579","19.66","3.365","7.867000000000001","1012.304","11.69","70.6","NAN","0.0"],
    [1548531,"2026-04-02 03:40:00","1241","1.271","359.3","3.071","18.99","1012.291","11.71","69.95","NAN","0.0"],
    [1548532,"2026-04-02 03:50:00","1242","0.816","342.1","2.025","302.3","1012.0889999999999","11.85","69.73","NAN","0.0"],
    [1548533,"2026-04-02 04:00:00","1243","0.72","25.13","2.254","348.4","1011.8430000000001","11.9","69.52","NAN","0.0"],
    [1548534,"2026-04-02 04:10:00","1244","0.754","357.3","1.797","27.64","1011.961","11.76","69.67","NAN","0.0"],
    [1548535,"2026-04-02 04:20:00","1245","0.474","48.41","0.98","6.314","1011.966","11.73","70.06","NAN","0.0"],
    [1548536,"2026-04-02 04:30:00","1246","0.418","179.6","1.013","214.6","1012.059","11.61","71.48","NAN","0.0"],
    [1548537,"2026-04-02 04:40:00","1247","0.648","213.0","1.339","234.4","1012.0260000000001","11.66","74.67","NAN","0.0"],
    [1548538,"2026-04-02 04:50:00","1248","1.155","208.3","2.0580000000000003","209.1","1012.11","11.7","75.47","NAN","0.0"],
    [1548539,"2026-04-02 05:00:00","1249","1.214","211.9","2.385","223.8","1012.0989999999999","11.53","74.58","NAN","0.0"],
    [1548540,"2026-04-02 05:10:00","1250","1.16","208.0","2.548","205.5","1012.11","11.43","74.79","NAN","0.0"],
    [1548541,"2026-04-02 05:20:00","1251","1.129","235.1","2.287","255.0","1012.0989999999999","11.48","73.11","NAN","0.0"],
    [1548542,"2026-04-02 05:30:00","1252","0.758","225.8","2.0580000000000003","247.2","1012.2130000000001","11.57","72.96","NAN","0.0"],
    [1548543,"2026-04-02 05:40:00","1253","1.05","232.4","2.221","218.0","1012.3439999999999","11.61","72.74","NAN","0.0"],
    [1548544,"2026-04-02 05:50:00","1254","0.825","233.5","1.829","239.8","1012.387","11.68","72.11","NAN","0.0"],
    [1548545,"2026-04-02 06:00:00","1255","1.244","244.3","2.483","265.4","1012.551","11.63","71.8","NAN","0.0"],
    [1548546,"2026-04-02 06:10:00","1256","0.752","247.0","2.123","248.0","1012.696","11.66","72.08","NAN","0.0"],
    [1548547,"2026-04-02 06:20:00","1257","1.416","244.6","3.299","251.4","1012.805","11.65","72","NAN","0.0"],
    [1548548,"2026-04-02 06:30:00","1258","1.105","225.7","2.7769999999999997","228.7","1012.7360000000001","11.69","72.01","NAN","0.0"],
    [1548549,"2026-04-02 06:40:00","1259","1.2919999999999998","240.3","3.201","232.7","1012.745","11.68","72.41","NAN","0.0"],
    [1548550,"2026-04-02 06:50:00","1260","1.75","244.5","3.267","242.7","1012.694","11.89","71.98","NAN","0.0"],
    [1548551,"2026-04-02 07:00:00","1261","1.696","242.1","4.1160000000000005","247.6","1012.783","12.18","71.17","NAN","0.0"],
    [1548552,"2026-04-02 07:10:00","1262","1.6480000000000001","246.1","3.234","251.6","1012.803","12.46","70.21","NAN","0.0"],
    [1548553,"2026-04-02 07:20:00","1263","1.32","217.7","3.495","185.7","1012.7460000000001","12.96","68.68","NAN","0.0"],
    [1548554,"2026-04-02 07:30:00","1264","2.271","205.1","4.4430000000000005","189.3","1012.715","13.29","67.25","NAN","0.0"],
    [1548555,"2026-04-02 07:40:00","1265","2.432","205.3","4.181","195.8","1012.7080000000001","13.47","66.84","NAN","0.0"],
    [1548556,"2026-04-02 07:50:00","1266","2.205","208.2","4.018","200.9","1012.7310000000001","13.76","65.46","NAN","0.0"],
    [1548557,"2026-04-02 08:00:00","1267","2.715","199.6","5.651","184.0","1012.845","13.9","64.96","NAN","0.0"],
    [1548558,"2026-04-02 08:10:00","1268","2.296","200.2","5.1610000000000005","178.5","1012.947","14.03","63.71","NAN","0.0"],
    [1548559,"2026-04-02 08:20:00","1269","2.7510000000000003","201.4","5.292000000000001","196.7","1012.957","14.24","61.13","NAN","0.0"],
    [1548560,"2026-04-02 08:30:00","1270","2.7439999999999998","196.7","5.063","188.8","1012.955","14.19","60.38","NAN","0.0"],
    [1548561,"2026-04-02 08:40:00","1271","2.475","197.3","4.802","217.6","1013.087","14.47","60.54","NAN","0.0"],
    [1548562,"2026-04-02 08:50:00","1272","2.184","190.1","4.573","170.8","1013.1610000000001","14.71","60.38","NAN","0.0"],
    [1548563,"2026-04-02 09:00:00","1273","3.12","180.1","5.194","177.0","1013.097","14.4","61.81","NAN","0.0"],
    [1548564,"2026-04-02 09:10:00","1274","3.585","181.8","6.0760000000000005","178.1","1013.194","14.26","62.18","NAN","0.0"],
    [1548565,"2026-04-02 09:20:00","1275","3.1289999999999996","182.0","5.619","183.3","1013.196","14.3","63.24","NAN","0.0"],
    [1548566,"2026-04-02 09:30:00","1276","3.3789999999999996","180.0","5.422999999999999","176.6","1013.154","14.53","61.25","NAN","0.0"],
    [1548567,"2026-04-02 09:40:00","1277","2.833","187.4","5.586","174.3","1012.992","15.08","57.6","NAN","0.0"],
    [1548568,"2026-04-02 09:50:00","1278","2.149","198.7","4.671","181.4","1013.002","15.58","53.96","NAN","0.0"],
    [1548569,"2026-04-02 10:00:00","1279","2.47","182.1","5.325","180.2","1012.942","14.94","54.23","NAN","0.0"],
    [1548570,"2026-04-02 10:10:00","1280","3.5839999999999996","189.2","6.305","175.5","1012.957","14.62","54.25","NAN","0.0"],
    [1548571,"2026-04-02 10:20:00","1281","3.0180000000000002","204.5","5.586","187.2","1012.83","14.96","51.52","NAN","0.0"],
    [1548572,"2026-04-02 10:30:00","1282","3.455","202.1","6.5329999999999995","199.4","1012.895","15.01","54.74","NAN","0.0"],
    [1548573,"2026-04-02 10:40:00","1283","2.5610000000000004","203.2","5.619","199.8","1012.867","15.44","51.31","NAN","0.0"],
    [1548574,"2026-04-02 10:50:00","1284","2.78","207.0","5.39","215.2","1012.716","15.78","47.34","NAN","0.0"],
    [1548575,"2026-04-02 11:00:00","1285","3.657","201.2","7.938","176.1","1012.7080000000001","15.84","52.37","NAN","0.0"],
    [1548576,"2026-04-02 11:10:00","1286","3.392","199.0","7.579","169.8","1012.628","15.4","57.44","NAN","0.0"],
    [1548577,"2026-04-02 11:20:00","1287","2.928","198.0","6.011","190.9","1012.4739999999999","15.61","54.26","NAN","0.0"],
    [1548578,"2026-04-02 11:30:00","1288","2.823","193.6","5.357","174.6","1012.3860000000001","15.66","53.31","NAN","0.0"],
    [1548579,"2026-04-02 11:40:00","1289","3.503","189.2","6.1739999999999995","175.8","1012.207","15.54","54.8","NAN","0.0"],
    [1548580,"2026-04-02 11:50:00","1290","3.4139999999999997","188.0","6.795","196.7","1012.107","15.51","54.99","NAN","0.0"],
    [1548581,"2026-04-02 12:00:00","1291","2.736","195.4","6.435","216.0","1011.918","15.66","53.19","NAN","0.0"],
    [1548582,"2026-04-02 12:10:00","1292","3.609","194.3","6.37","197.1","1011.846","15.84","54.04","NAN","0.0"],
    [1548583,"2026-04-02 12:20:00","1293","3.375","193.9","6.305","202.7","1011.924","15.72","55.41","NAN","0.0"],
    [1548584,"2026-04-02 12:30:00","1294","3.0789999999999997","191.5","6.0760000000000005","171.7","1011.9580000000001","15.61","55.34","NAN","0.0"],
    [1548585,"2026-04-02 12:40:00","1295","3.395","196.9","5.88","205.8","1011.8580000000001","15.87","51.82","NAN","0.0"],
    [1548586,"2026-04-02 12:50:00","1296","2.448","207.5","5.325","177.9","1011.6469999999999","16.1","49.87","NAN","0.0"],
    [1548587,"2026-04-02 13:00:00","1297","2.6210000000000004","211.8","6.5329999999999995","206.1","1011.433","16.45","47","NAN","0.0"],
    [1548588,"2026-04-02 13:10:00","1298","2.654","209.4","5.619","198.9","1011.2810000000001","16.23","50.28","NAN","0.0"],
    [1548589,"2026-04-02 13:20:00","1299","2.384","225.4","4.965","249.6","1011.148","16.85","45.66","NAN","0.0"],
    [1548590,"2026-04-02 13:30:00","1300","2.452","219.5","4.671","227.2","1010.9639999999999","17.08","44.51","NAN","0.0"],
    [1548591,"2026-04-02 13:40:00","1301","1.913","218.9","4.4430000000000005","232.4","1010.832","17.43","44.19","NAN","0.0"],
    [1548592,"2026-04-02 13:50:00","1302","2.5980000000000003","198.8","4.867","202.9","1010.71","17.28","48.42","NAN","0.0"],
    [1548593,"2026-04-02 14:00:00","1303","2.9219999999999997","186.0","4.802","186.3","1010.578","16.72","53.96","NAN","0.0"],
    [1548594,"2026-04-02 14:10:00","1304","2.242","195.9","4.018","229.6","1010.4010000000001","17.09","53.26","NAN","0.0"],
    [1548595,"2026-04-02 14:20:00","1305","1.902","205.3","4.704","180.7","1010.302","17.29","55.78","NAN","0.0"],
    [1548596,"2026-04-02 14:30:00","1306","0.92","242.6","2.5810000000000004","235.8","1010.222","18.02","49.15","NAN","0.0"],
    [1548597,"2026-04-02 14:40:00","1307","1.9980000000000002","284.9","5.847","291.4","1010.1419999999999","19.55","29.15","NAN","0.0"],
    [1548598,"2026-04-02 14:50:00","1308","1.621","302.2","3.6260000000000003","255.2","1010.003","19.9","26.79","NAN","0.0"],
    [1548599,"2026-04-02 15:00:00","1309","2.001","295.6","4.312","273.9","1009.956","19.99","25.41","NAN","0.0"],
    [1548600,"2026-04-02 15:10:00","1310","1.579","299.9","3.92","301.8","1009.9060000000001","20.25","23.41","NAN","0.0"],
    [1548601,"2026-04-02 15:20:00","1311","1.236","310.4","3.365","341.1","1009.8739999999999","20.62","22.55","NAN","0.0"],
    [1548602,"2026-04-02 15:30:00","1312","1.735","351.1","4.41","24.46","1009.834","21.03","21.55","NAN","0.0"],
    [1548603,"2026-04-02 15:40:00","1313","1.611","18.16","3.887","17.31","1009.8739999999999","21.16","21.15","NAN","0.0"],
    [1548604,"2026-04-02 15:50:00","1314","2.645","65.35","6.0760000000000005","89.5","1009.9630000000001","19.79","38.74","NAN","0.0"],
    [1548605,"2026-04-02 16:00:00","1315","3.0610000000000004","55.04","5.292000000000001","42.43","1010.0980000000001","17.1","54.77","NAN","0.0"],
    [1548606,"2026-04-02 16:10:00","1316","2.95","60.47","5.063","56.25","1010.232","16.54","60.61","NAN","0.0"],
    [1548607,"2026-04-02 16:20:00","1317","2.636","65.58","4.9","60.37","1010.437","16.12","66.55","NAN","0.0"],
    [1548608,"2026-04-02 16:30:00","1318","3.0439999999999996","78.43","5.455","89.1","1010.698","15.55","71","NAN","0.0"],
    [1548609,"2026-04-02 16:40:00","1319","2.883","71.12","5.912999999999999","81.0","1010.783","15.09","73.8","NAN","0.0"],
    [1548610,"2026-04-02 16:50:00","1320","2.7960000000000003","64.59","4.638999999999999","82.2","1010.927","15.02","73.8","NAN","0.0"],
    [1548611,"2026-04-02 17:00:00","1321","2.6489999999999996","79.98","4.541","88.2","1011.074","15","73.58","NAN","0.0"],
    [1548612,"2026-04-02 17:10:00","1322","2.343","53.12","4.247","72.48","1011.206","14.99","72.75","NAN","0.0"],
    [1548613,"2026-04-02 17:20:00","1323","1.869","52.39","4.312","56.38","1011.311","15.05","71.75","NAN","0.0"],
    [1548614,"2026-04-02 17:30:00","1324","2.198","70.61","4.41","73.12","1011.543","14.98","72.64","NAN","0.0"],
    [1548615,"2026-04-02 17:40:00","1325","2.639","81.5","4.998","94.5","1011.705","14.68","74.72","NAN","0.0"],
    [1548616,"2026-04-02 17:50:00","1326","2.0469999999999997","73.46","3.92","96.8","1011.8839999999999","14.62","75.17","NAN","0.0"],
    [1548617,"2026-04-02 18:00:00","1327","1.61","69.7","3.7569999999999997","81.2","1012.137","14.56","74.42","NAN","0.0"],
    [1548618,"2026-04-02 18:10:00","1328","1.3659999999999999","59.23","2.5810000000000004","80.2","1012.2610000000001","14.58","74.02","NAN","0.0"],
    [1548619,"2026-04-02 18:20:00","1329","1.683","49.06","3.267","35.25","1012.347","14.54","74.62","NAN","0.0"],
    [1548620,"2026-04-02 18:30:00","1330","1.6640000000000001","59.62","4.149","66.53","1012.544","14.47","75.6","NAN","0.0"],
    [1548621,"2026-04-02 18:40:00","1331","2.313","70.12","4.279","81.6","1012.696","14.29","76.89","NAN","0.0"],
    [1548622,"2026-04-02 18:50:00","1332","1.7480000000000002","79.26","3.136","73.2","1012.8539999999999","14.23","77.86","NAN","0.0"],
    [1548623,"2026-04-02 19:00:00","1333","1.722","79.9","3.0380000000000003","57.77","1013.1239999999999","14.2","77.27","NAN","0.0"],
    [1548624,"2026-04-02 19:10:00","1334","1.599","83.9","2.94","72.81","1013.2760000000001","14.16","77.21","NAN","0.0"],
    [1548625,"2026-04-02 19:20:00","1335","0.915","72.54","2.254","100.9","1013.466","14.15","76.77","NAN","0.0"],
    [1548626,"2026-04-02 19:30:00","1336","1.024","69.98","1.699","72.25","1013.687","14.07","76.88","NAN","0.0"],
    [1548627,"2026-04-02 19:40:00","1337","0.7490000000000001","75.43","1.7309999999999999","42.21","1013.922","14.06","77.21","NAN","0.0"],
    [1548628,"2026-04-02 19:50:00","1338","0.633","56.81","1.274","45.1","1014.1410000000001","14.02","77.58","NAN","0.0"],
    [1548629,"2026-04-02 20:00:00","1339","0.723","81.9","1.405","67.85","1014.2719999999999","13.97","77.07","NAN","0.0"],
    [1548630,"2026-04-02 20:10:00","1340","0.42100000000000004","33.02","1.339","31.61","1014.3560000000001","13.94","76.79","NAN","0.0"],
    [1548631,"2026-04-02 20:20:00","1341","0.75","42.61","1.307","66.73","1014.54","13.93","77.13","NAN","0.0"],
    [1548632,"2026-04-02 20:30:00","1342","0.8640000000000001","33.03","1.601","51.75","1014.758","14.07","76.57","NAN","0.0"],
    [1548633,"2026-04-02 20:40:00","1343","0.374","56.59","1.339","59.37","1014.775","13.98","76.62","NAN","0.0"],
    [1548634,"2026-04-02 20:50:00","1344","0.75","63.25","1.4369999999999998","105.4","1014.785","13.89","77.22","NAN","0.0"],
    [1548635,"2026-04-02 21:00:00","1345","0.513","25.51","1.045","10.35","1014.817","13.95","76.85","NAN","0.0"],
    [1548636,"2026-04-02 21:10:00","1346","0.29600000000000004","72.11","0.653","110.0","1014.8789999999999","13.86","77.11","NAN","0.0"],
    [1548637,"2026-04-02 21:20:00","1347","0.295","49.04","0.9470000000000001","64.77","1014.919","13.8","77.15","NAN","0.0"],
    [1548638,"2026-04-02 21:30:00","1348","0.115","58.56","0.98","72.19","1014.918","13.7","76.75","NAN","0.0"],
    [1548639,"2026-04-02 21:40:00","1349","0.44799999999999995","49.87","0.98","4.23","1015.073","13.58","77.58","NAN","0.0"],
    [1548640,"2026-04-02 21:50:00","1350","0.373","39.93","1.045","51.82","1015.1669999999999","13.81","75.26","NAN","0.0"],
    [1548641,"2026-04-02 22:00:00","1351","0.462","25.65","0.9470000000000001","18.65","1015.279","13.91","73.76","NAN","0.0"],
    [1548642,"2026-04-02 22:10:00","1352","0.23199999999999998","355.5","0.7190000000000001","12.43","1015.29","13.85","73.76","NAN","0.0"],
    [1548643,"2026-04-02 22:20:00","1353","0.09300000000000001","320.7","0.588","326.0","1015.309","13.92","72.08","NAN","0.0"],
    [1548644,"2026-04-02 22:30:00","1354","0.057999999999999996","190.0","0.425","331.4","1015.4060000000001","13.76","72.53","NAN","0.0"],
    [1548645,"2026-04-02 22:40:00","1355","0.428","214.1","1.111","258.0","1015.4680000000001","13.59","74.89","NAN","0.0"],
    [1548646,"2026-04-02 22:50:00","1356","0.867","255.5","1.601","254.4","1015.533","13.93","70.82","NAN","0.0"],
    [1548647,"2026-04-02 23:00:00","1357","0.647","256.5","1.47","236.2","1015.559","14.12","68.48","NAN","0.0"],
    [1548648,"2026-04-02 23:10:00","1358","0.61","243.5","1.209","257.4","1015.658","14.09","67.93","NAN","0.0"],
    [1548649,"2026-04-02 23:20:00","1359","0.40299999999999997","199.0","1.045","231.4","1015.676","13.76","68.12","NAN","0.0"],
    [1548650,"2026-04-02 23:30:00","1360","0.081","208.3","0.523","206.1","1015.673","13.25","68.11","NAN","0.0"],
    [1548651,"2026-04-02 23:40:00","1361","0.0","0.0","0.0","0.0","1015.566","13.17","67.2","NAN","0.0"],
    [1548652,"2026-04-02 23:50:00","1362","0.026000000000000002","336.7","0.457","331.8","1015.571","13.36","68.45","NAN","0.0"],
    [1548653,"2026-04-03 00:00:00","1363","0.095","183.0","0.621","177.9","1015.567","12.98","69.85","NAN","0.0"],
    [1548654,"2026-04-03 00:10:00","1364","0.0","0.0","0.0","0.0","1015.65","12.83","68.32","NAN","0.0"],
    [1548655,"2026-04-03 00:20:00","1365","0.085","219.5","0.9470000000000001","208.0","1015.71","13.05","64.99","NAN","0.0"],
    [1548656,"2026-04-03 00:30:00","1366","0.562","266.6","1.699","271.1","1015.654","13.24","59.96","NAN","0.0"],
    [1548657,"2026-04-03 00:40:00","1367","0.7909999999999999","305.6","1.568","321.7","1015.543","14.12","44.47","NAN","0.0"],
    [1548658,"2026-04-03 00:50:00","1368","0.9420000000000001","319.8","2.45","305.2","1015.382","14.79","37","NAN","0.0"],
    [1548659,"2026-04-03 01:00:00","1369","0.632","44.65","1.307","42.72","1015.3710000000001","14.63","36.79","NAN","0.0"],
    [1548660,"2026-04-03 01:10:00","1370","0.21600000000000003","80.4","0.653","57.91","1015.459","13.71","42.27","NAN","0.0"],
    [1548661,"2026-04-03 01:20:00","1371","0.008","148.0","0.294","163.3","1015.575","13.12","45.52","NAN","0.0"],
    [1548662,"2026-04-03 01:30:00","1372","0.008","146.0","0.294","134.4","1015.705","12.97","46.7","NAN","0.0"],
    [1548663,"2026-04-03 01:40:00","1373","0.154","232.4","0.8170000000000001","257.3","1015.7869999999999","12.87","45.2","NAN","0.0"],
    [1548664,"2026-04-03 01:50:00","1374","0.185","276.4","0.8170000000000001","238.9","1015.712","13.08","42.95","NAN","0.0"],
    [1548665,"2026-04-03 02:00:00","1375","0.792","287.0","1.666","302.3","1015.5989999999999","13.53","40.26","NAN","0.0"],
    [1548666,"2026-04-03 02:10:00","1376","0.259","274.6","1.5030000000000001","286.8","1015.63","13.58","40.1","NAN","0.0"],
    [1548667,"2026-04-03 02:20:00","1377","0.42700000000000005","269.6","1.829","264.8","1015.6610000000001","13.66","38.69","NAN","0.0"],
    [1548668,"2026-04-03 02:30:00","1378","0.196","243.9","0.9470000000000001","300.7","1015.64","13.2","40.38","NAN","0.0"],
    [1548669,"2026-04-03 02:40:00","1379","0.584","273.0","1.339","260.0","1015.568","13.42","39.82","NAN","0.0"],
    [1548670,"2026-04-03 02:50:00","1380","0.36","249.8","1.339","253.4","1015.612","13.37","40.19","NAN","0.0"],
    [1548671,"2026-04-03 03:00:00","1381","0.41200000000000003","327.4","1.176","320.6","1015.685","12.8","43.62","NAN","0.0"],
    [1548672,"2026-04-03 03:10:00","1382","0.469","310.5","0.915","269.0","1015.66","13.43","39.96","NAN","0.0"],
    [1548673,"2026-04-03 03:20:00","1383","0.375","6.236000000000001","1.078","305.9","1015.7539999999999","13.25","41.99","NAN","0.0"],
    [1548674,"2026-04-03 03:30:00","1384","0.436","8.35","0.8170000000000001","2.2430000000000003","1015.831","12.61","46.18","NAN","0.0"],
    [1548675,"2026-04-03 03:40:00","1385","0.127","323.4","0.588","329.1","1015.835","12.56","47.15","NAN","0.0"],
    [1548676,"2026-04-03 03:50:00","1386","0.054000000000000006","7.351","0.621","6.185","1015.935","12.46","47.49","NAN","0.0"],
    [1548677,"2026-04-03 04:00:00","1387","0.534","323.7","1.405","310.6","1016.1260000000001","12.67","45.75","NAN","0.0"],
    [1548678,"2026-04-03 04:10:00","1388","0.37","306.8","0.9470000000000001","295.2","1016.237","12.97","43.12","NAN","0.0"],
    [1548679,"2026-04-03 04:20:00","1389","0.405","268.0","1.307","297.7","1016.3530000000001","12.94","42.46","NAN","0.0"],
    [1548680,"2026-04-03 04:30:00","1390","0.297","303.9","1.274","321.0","1016.4630000000001","12.77","43.22","NAN","0.0"],
    [1548681,"2026-04-03 04:40:00","1391","0.545","300.1","1.405","277.6","1016.465","12.73","43.31","NAN","0.0"],
    [1548682,"2026-04-03 04:50:00","1392","0.8029999999999999","270.9","1.993","262.0","1016.513","12.99","41.26","NAN","0.0"],
    [1548683,"2026-04-03 05:00:00","1393","0.7909999999999999","252.4","1.764","232.3","1016.555","12.94","40.79","NAN","0.0"],
    [1548684,"2026-04-03 05:10:00","1394","1.419","272.7","3.1689999999999996","262.5","1016.577","12.84","40.74","NAN","0.0"],
    [1548685,"2026-04-03 05:20:00","1395","1.055","258.6","2.842","297.0","1016.682","12.55","42.3","NAN","0.0"],
    [1548686,"2026-04-03 05:30:00","1396","1.255","260.5","2.613","281.5","1016.829","12.33","43.8","NAN","0.0"],
    [1548687,"2026-04-03 05:40:00","1397","1.198","266.7","2.679","292.6","1016.878","12.22","45.12","NAN","0.0"],
    [1548688,"2026-04-03 05:50:00","1398","1.123","269.4","2.483","293.4","1017.1360000000001","12.19","46.2","NAN","0.0"],
    [1548689,"2026-04-03 06:00:00","1399","1.215","263.3","2.417","242.7","1017.313","12.3","46.28","NAN","0.0"],
    [1548690,"2026-04-03 06:10:00","1400","0.96","263.1","2.0909999999999997","263.9","1017.357","12.41","46.53","NAN","0.0"],
    [1548691,"2026-04-03 06:20:00","1401","0.74","264.3","2.221","257.0","1017.587","12.67","46.1","NAN","0.0"],
    [1548692,"2026-04-03 06:30:00","1402","0.642","281.5","1.895","270.7","1017.7230000000001","12.92","45.17","NAN","0.0"],
    [1548693,"2026-04-03 06:40:00","1403","0.193","292.2","0.915","307.2","1017.865","13.38","44.04","NAN","0.0"],
    [1548694,"2026-04-03 06:50:00","1404","0.831","230.8","1.535","239.0","1018.034","13.45","44.05","NAN","0.0"],
    [1548695,"2026-04-03 07:00:00","1405","0.892","228.7","1.993","237.8","1018.183","13.47","43.9","NAN","0.0"],
    [1548696,"2026-04-03 07:10:00","1406","0.353","225.1","1.176","214.8","1018.2919999999999","13.83","42.87","NAN","0.0"],
    [1548697,"2026-04-03 07:20:00","1407","0.32799999999999996","195.3","1.274","232.6","1018.312","14.49","41.88","NAN","0.0"],
    [1548698,"2026-04-03 07:30:00","1408","0.7829999999999999","207.2","1.699","197.3","1018.4019999999999","14.8","40.82","NAN","0.0"],
    [1548699,"2026-04-03 07:40:00","1409","0.7829999999999999","202.6","1.405","191.2","1018.5219999999999","14.84","39.48","NAN","0.0"],
    [1548700,"2026-04-03 07:50:00","1410","1.227","181.5","1.895","177.4","1018.686","15.04","40.55","NAN","0.0"],
    [1548701,"2026-04-03 08:00:00","1411","1.271","114.4","2.156","118.6","1018.82","14.81","45.9","NAN","0.0"],
    [1548702,"2026-04-03 08:10:00","1412","1.252","112.7","1.96","94.4","1018.935","15.09","44.88","NAN","0.0"],
    [1548703,"2026-04-03 08:20:00","1413","0.775","151.1","1.405","118.6","1019.107","15.66","40.86","NAN","0.0"],
    [1548704,"2026-04-03 08:30:00","1414","1.34","129.4","2.319","130.4","1019.184","15.72","42.8","NAN","0.0"],
    [1548705,"2026-04-03 08:40:00","1415","1.755","126.3","2.907","112.4","1019.2460000000001","15.22","46.31","NAN","0.0"],
    [1548706,"2026-04-03 08:50:00","1416","1.446","152.0","2.221","170.2","1019.363","15.42","44.46","NAN","0.0"],
    [1548707,"2026-04-03 09:00:00","1417","1.433","149.9","2.483","166.0","1019.6080000000001","15.46","43.5","NAN","0.0"],
    [1548708,"2026-04-03 09:10:00","1418","1.197","143.6","2.515","168.9","1019.68","15.7","42.72","NAN","0.0"],
    [1548709,"2026-04-03 09:20:00","1419","1.7109999999999999","116.8","2.907","115.8","1019.685","16.14","43.28","NAN","0.0"],
    [1548710,"2026-04-03 09:30:00","1420","1.626","123.4","2.385","111.5","1019.692","16.22","42.22","NAN","0.0"],
    [1548711,"2026-04-03 09:40:00","1421","1.784","121.3","2.9730000000000003","112.4","1019.682","16.24","40.78","NAN","0.0"],
    [1548712,"2026-04-03 09:50:00","1422","1.929","121.8","3.005","109.0","1019.697","16.28","40.78","NAN","0.0"],
    [1548713,"2026-04-03 10:00:00","1423","2.099","120.6","3.528","112.3","1019.807","16.39","37.09","NAN","0.0"],
    [1548714,"2026-04-03 10:10:00","1424","1.982","119.8","3.234","110.6","1019.8889999999999","16.27","40.67","NAN","0.0"],
    [1548715,"2026-04-03 10:20:00","1425","1.79","129.9","3.071","114.3","1019.936","16.54","43.36","NAN","0.0"],
    [1548716,"2026-04-03 10:30:00","1426","1.767","126.5","4.018","110.0","1019.931","16.93","49.12","NAN","0.0"],
    [1548717,"2026-04-03 10:40:00","1427","2.853","174.4","4.508","179.9","1019.931","16.46","50.85","NAN","0.0"],
    [1548718,"2026-04-03 10:50:00","1428","2.858","175.0","4.638999999999999","171.6","1019.8510000000001","15.88","53.37","NAN","0.0"],
    [1548719,"2026-04-03 11:00:00","1429","3.225","176.9","4.802","179.6","1019.687","15.84","52.54","NAN","0.0"],
    [1548720,"2026-04-03 11:10:00","1430","3.838","176.3","5.4879999999999995","184.2","1019.664","15.76","53.42","NAN","0.0"],
    [1548721,"2026-04-03 11:20:00","1431","3.634","175.4","5.4879999999999995","178.9","1019.68","15.86","53.07","NAN","0.0"],
    [1548722,"2026-04-03 11:30:00","1432","3.762","172.8","5.553","183.9","1019.682","16.08","49.41","NAN","0.0"],
    [1548723,"2026-04-03 11:40:00","1433","3.588","173.2","5.684","162.1","1019.68","16.43","46.69","NAN","0.0"],
    [1548724,"2026-04-03 11:50:00","1434","2.594","181.7","4.933","172.8","1019.677","17.11","42.18","NAN","0.0"],
    [1548725,"2026-04-03 12:00:00","1435","3.428","173.5","5.063","167.8","1019.6669999999999","16.87","44.54","NAN","0.0"],
    [1548726,"2026-04-03 12:10:00","1436","3.536","173.2","5.292000000000001","169.0","1019.6469999999999","16.1","52.7","NAN","0.0"],
    [1548727,"2026-04-03 12:20:00","1437","4.119","178.0","6.0760000000000005","180.5","1019.5419999999999","15.89","50.72","NAN","0.0"],
    [1548728,"2026-04-03 12:30:00","1438","4.013","171.9","5.945","174.4","1019.3610000000001","16.08","50.15","NAN","0.0"],
    [1548729,"2026-04-03 12:40:00","1439","4.013999999999999","174.8","6.1739999999999995","176.7","1019.2760000000001","16","49.64","NAN","0.0"],
    [1548730,"2026-04-03 12:50:00","1440","4.234","175.6","6.141","175.2","1019.2260000000001","15.99","48.36","NAN","0.0"],
    [1548731,"2026-04-03 13:00:00","1441","3.9610000000000003","172.8","5.978","177.0","1019.194","16.14","48.02","NAN","0.0"],
    [1548732,"2026-04-03 13:10:00","1442","4.1160000000000005","176.4","6.109","172.2","1019.184","15.89","49.13","NAN","0.0"],
    [1548733,"2026-04-03 13:20:00","1443","3.67","174.4","5.063","176.4","1019.127","16.07","46.16","NAN","0.0"],
    [1548734,"2026-04-03 13:30:00","1444","3.908","173.4","6.0760000000000005","179.2","1019.012","15.95","49.33","NAN","0.0"],
    [1548735,"2026-04-03 13:40:00","1445","3.6239999999999997","174.1","5.357","182.0","1018.944","15.82","52.11","NAN","0.0"],
    [1548736,"2026-04-03 13:50:00","1446","3.755","175.4","5.129","181.6","1018.935","15.69","54.88","NAN","0.0"],
    [1548737,"2026-04-03 14:00:00","1447","3.312","171.6","4.671","163.7","1018.935","15.88","56.82","NAN","0.0"],
    [1548738,"2026-04-03 14:10:00","1448","3.633","172.0","4.998","172.1","1018.932","15.93","59.86","NAN","0.0"],
    [1548739,"2026-04-03 14:20:00","1449","3.7239999999999998","176.2","5.031000000000001","178.0","1018.935","16.02","57.71","NAN","0.0"],
    [1548740,"2026-04-03 14:30:00","1450","3.483","175.1","4.737","176.0","1018.8919999999999","16.04","55.57","NAN","0.0"],
    [1548741,"2026-04-03 14:40:00","1451","2.8760000000000003","173.4","4.345","164.7","1018.78","16","57.81","NAN","0.0"],
    [1548742,"2026-04-03 14:50:00","1452","2.377","169.7","3.855","186.5","1018.69","16.36","55.75","NAN","0.0"],
    [1548743,"2026-04-03 15:00:00","1453","2.364","171.2","3.985","167.7","1018.7360000000001","16.47","53.75","NAN","0.0"],
    [1548744,"2026-04-03 15:10:00","1454","2.394","172.9","3.7569999999999997","179.5","1018.696","16.37","54.1","NAN","0.0"],
    [1548745,"2026-04-03 15:20:00","1455","2.106","163.3","3.822","171.9","1018.778","16.59","56.13","NAN","0.0"],
    [1548746,"2026-04-03 15:30:00","1456","1.8940000000000001","147.9","3.7239999999999998","158.2","1018.855","16.69","56.97","NAN","0.0"],
    [1548747,"2026-04-03 15:40:00","1457","1.976","141.0","3.528","114.6","1018.86","16.55","60.64","NAN","0.0"],
    [1548748,"2026-04-03 15:50:00","1458","2.077","127.4","4.377","112.2","1018.93","16.49","63.05","NAN","0.0"],
    [1548749,"2026-04-03 16:00:00","1459","2.391","122.5","4.1160000000000005","110.6","1018.935","16.13","65.89","NAN","0.0"],
    [1548750,"2026-04-03 16:10:00","1460","1.761","147.4","3.855","163.2","1019.0369999999999","16.2","65.31","NAN","0.0"],
    [1548751,"2026-04-03 16:20:00","1461","1.64","145.2","4.051","177.2","1019.169","16.33","65.95","NAN","0.0"],
    [1548752,"2026-04-03 16:30:00","1462","1.8159999999999998","150.9","3.103","168.5","1019.2660000000001","16.02","67.41","NAN","0.0"],
    [1548753,"2026-04-03 16:40:00","1463","2.173","119.1","4.181","108.5","1019.393","15.97","68.17","NAN","0.0"],
    [1548754,"2026-04-03 16:50:00","1464","1.767","125.5","3.234","137.7","1019.508","15.9","70.16","NAN","0.0"],
    [1548755,"2026-04-03 17:00:00","1465","2.137","120.6","3.6260000000000003","117.8","1019.5930000000001","15.59","72.36","NAN","0.0"],
    [1548756,"2026-04-03 17:10:00","1466","1.633","134.7","3.0380000000000003","170.3","1019.722","15.75","71.73","NAN","0.0"],
    [1548757,"2026-04-03 17:20:00","1467","1.821","130.1","3.528","113.4","1019.954","15.59","73.69","NAN","0.0"],
    [1548758,"2026-04-03 17:30:00","1468","1.493","145.5","3.0380000000000003","158.4","1020.163","15.6","73.64","NAN","0.0"],
    [1548759,"2026-04-03 17:40:00","1469","1.66","134.9","2.875","119.6","1020.255","15.45","75.01","NAN","0.0"],
    [1548760,"2026-04-03 17:50:00","1470","1.288","159.1","2.7110000000000003","165.5","1020.367","15.41","75.68","NAN","0.0"],
    [1548761,"2026-04-03 18:00:00","1471","1.584","180.3","3.103","176.1","1020.459","15.31","74.37","NAN","0.0"],
    [1548762,"2026-04-03 18:10:00","1472","1.795","179.4","3.6260000000000003","182.6","1020.613","15.19","76.16","NAN","0.0"],
    [1548763,"2026-04-03 18:20:00","1473","1.9880000000000002","177.7","3.528","176.0","1020.694","15.02","76.32","NAN","0.0"],
    [1548764,"2026-04-03 18:30:00","1474","2.262","181.6","3.528","175.4","1020.715","14.98","76.7","NAN","0.0"],
    [1548765,"2026-04-03 18:40:00","1475","2.469","180.0","3.822","176.4","1020.74","14.94","78.28","NAN","0.0"],
    [1548766,"2026-04-03 18:50:00","1476","2.133","195.5","4.312","185.4","1020.809","14.98","75.69","NAN","0.0"],
    [1548767,"2026-04-03 19:00:00","1477","1.7690000000000001","211.9","3.659","204.8","1020.9739999999999","15.04","72.07","NAN","0.0"],
    [1548768,"2026-04-03 19:10:00","1478","1.409","211.2","3.7889999999999997","202.2","1021.091","15.13","70","NAN","0.0"],
    [1548769,"2026-04-03 19:20:00","1479","1.66","207.6","4.377","207.3","1021.2","15.03","70.55","NAN","0.0"],
    [1548770,"2026-04-03 19:30:00","1480","1.808","229.0","3.7239999999999998","221.0","1021.275","15.02","70","NAN","0.0"],
    [1548771,"2026-04-03 19:40:00","1481","1.621","222.5","3.659","236.3","1021.42","14.98","70.88","NAN","0.0"],
    [1548772,"2026-04-03 19:50:00","1482","1.672","221.9","4.149","205.2","1021.567","14.98","70.99","NAN","0.0"],
    [1548773,"2026-04-03 20:00:00","1483","1.926","222.8","3.985","236.2","1021.6210000000001","14.88","72.23","NAN","0.0"],
    [1548774,"2026-04-03 20:10:00","1484","1.426","220.7","3.365","234.2","1021.7310000000001","14.8","73.09","NAN","0.0"],
    [1548775,"2026-04-03 20:20:00","1485","1.629","224.0","3.365","224.4","1021.8660000000001","14.74","73.73","NAN","0.0"],
    [1548776,"2026-04-03 20:30:00","1486","1.557","219.8","3.659","237.5","1021.992","14.71","74.21","NAN","0.0"],
    [1548777,"2026-04-03 20:40:00","1487","1.244","221.7","2.515","241.9","1022.0880000000001","14.65","74.92","NAN","0.0"],
    [1548778,"2026-04-03 20:50:00","1488","1.401","224.9","2.7110000000000003","247.4","1022.243","14.53","75.81","NAN","0.0"],
    [1548779,"2026-04-03 21:00:00","1489","1.385","212.0","2.7769999999999997","221.3","1022.242","14.51","76.67","NAN","0.0"],
    [1548780,"2026-04-03 21:10:00","1490","0.9990000000000001","212.7","2.254","200.8","1022.243","14.45","78.31","NAN","0.0"],
    [1548781,"2026-04-03 21:20:00","1491","1.004","212.8","2.287","204.4","1022.252","14.43","79.42","NAN","0.0"],
    [1548782,"2026-04-03 21:30:00","1492","1.143","214.6","2.94","186.3","1022.2439999999999","14.38","79.63","NAN","0.0"],
    [1548783,"2026-04-03 21:40:00","1493","0.951","217.4","2.287","246.9","1022.2289999999999","14.32","79.9","NAN","0.0"],
    [1548784,"2026-04-03 21:50:00","1494","0.888","202.9","2.254","205.9","1022.3689999999999","14.29","79.7","NAN","0.0"],
    [1548785,"2026-04-03 22:00:00","1495","0.94","205.3","2.254","197.4","1022.498","14.29","79.93","NAN","0.0"],
    [1548786,"2026-04-03 22:10:00","1496","0.895","211.1","1.895","201.3","1022.515","14.26","80.7","NAN","0.0"],
    [1548787,"2026-04-03 22:20:00","1497","0.961","207.8","2.025","207.7","1022.4939999999999","14.27","81.2","NAN","0.0"],
    [1548788,"2026-04-03 22:30:00","1498","0.935","217.0","2.417","219.2","1022.4939999999999","14.24","82.3","NAN","0.0"],
    [1548789,"2026-04-03 22:40:00","1499","0.748","190.4","1.47","175.4","1022.613","14.08","83.4","NAN","0.0"],
    [1548790,"2026-04-03 22:50:00","1500","0.672","175.8","1.797","174.9","1022.688","13.97","83","NAN","0.0"],
    [1548791,"2026-04-03 23:00:00","1501","0.51","187.8","1.078","213.5","1022.7360000000001","13.91","82.7","NAN","0.0"],
    [1548792,"2026-04-03 23:10:00","1502","0.4","158.0","0.8490000000000001","160.2","1022.742","13.79","82.8","NAN","0.0"],
    [1548793,"2026-04-03 23:20:00","1503","0.285","155.8","0.882","178.6","1022.706","13.68","83.1","NAN","0.0"],
    [1548794,"2026-04-03 23:30:00","1504","0.426","22.69","1.2409999999999999","2.397","1022.7389999999999","13.64","82.9","NAN","0.0"],
    [1548795,"2026-04-03 23:40:00","1505","0.66","53.47","1.4369999999999998","79.51","1022.743","13.75","81.4","NAN","0.0"],
    [1548796,"2026-04-03 23:50:00","1506","0.8490000000000001","48.84","1.895","38.16","1022.7539999999999","13.78","80.3","NAN","0.0"],
    [1548797,"2026-04-04 00:00:00","1507","0.732","52.64","1.47","25.15","1022.7510000000001","13.85","79.55","NAN","0.0"],
    [1548798,"2026-04-04 00:10:00","1508","0.47","48.64","0.98","13.84","1022.757","13.74","79.86","NAN","0.0"],
    [1548799,"2026-04-04 00:20:00","1509","0.48200000000000004","42.82","1.209","16.04","1022.757","13.7","80","NAN","0.0"],
    [1548800,"2026-04-04 00:30:00","1510","0.511","24.08","1.111","55.28","1022.743","13.7","79.81","NAN","0.0"],
    [1548801,"2026-04-04 00:40:00","1511","0.33899999999999997","157.2","0.8490000000000001","57.68","1022.638","13.6","80.1","NAN","0.0"],
    [1548802,"2026-04-04 00:50:00","1512","0.152","169.1","0.882","167.2","1022.515","13.35","82","NAN","0.0"],
    [1548803,"2026-04-04 01:00:00","1513","0.15","177.0","0.6859999999999999","184.0","1022.548","13.32","82.8","NAN","0.0"],
    [1548804,"2026-04-04 01:10:00","1514","0.027999999999999997","160.2","0.359","160.0","1022.587","13.11","83.9","NAN","0.0"],
    [1548805,"2026-04-04 01:20:00","1515","0.0","0.0","0.0","0.0","1022.53","13.02","83.2","NAN","0.0"],
    [1548806,"2026-04-04 01:30:00","1516","0.958","39.31","1.633","29.82","1022.5210000000001","12.96","81","NAN","0.0"],
    [1548807,"2026-04-04 01:40:00","1517","0.8690000000000001","28.87","1.535","33.47","1022.539","13.06","77.3","NAN","0.0"],
    [1548808,"2026-04-04 01:50:00","1518","0.5479999999999999","23.54","1.339","28.54","1022.528","13.12","76.8","NAN","0.0"],
    [1548809,"2026-04-04 02:00:00","1519","0.779","25.75","2.123","13.36","1022.4989999999999","13.09","76.61","NAN","0.0"],
    [1548810,"2026-04-04 02:10:00","1520","0.831","21.33","1.829","358.4","1022.398","13.11","76.07","NAN","0.0"],
    [1548811,"2026-04-04 02:20:00","1521","0.622","358.2","1.535","11.91","1022.323","13.08","75.99","NAN","0.0"],
    [1548812,"2026-04-04 02:30:00","1522","0.696","18.28","1.274","29.08","1022.44","13.16","75.25","NAN","0.0"],
    [1548813,"2026-04-04 02:40:00","1523","0.9279999999999999","22.31","2.319","11.33","1022.4689999999999","12.99","75.09","NAN","0.0"],
    [1548814,"2026-04-04 02:50:00","1524","0.588","359.6","1.666","7.53","1022.36","12.93","76.32","NAN","0.0"],
    [1548815,"2026-04-04 03:00:00","1525","0.36700000000000005","344.8","1.274","348.0","1022.324","12.9","76.76","NAN","0.0"],
    [1548816,"2026-04-04 03:10:00","1526","0.242","358.0","0.653","2.448","1022.252","12.85","76.69","NAN","0.0"],
    [1548817,"2026-04-04 03:20:00","1527","0.078","124.4","0.392","131.8","1022.168","12.67","77.45","NAN","0.0"],
    [1548818,"2026-04-04 03:30:00","1528","0.0","0.0","0.0","0.0","1022.071","12.4","78.66","NAN","0.0"],
    [1548819,"2026-04-04 03:40:00","1529","0.601","24.6","1.5030000000000001","18.28","1022.055","12.34","78.71","NAN","0.0"],
    [1548820,"2026-04-04 03:50:00","1530","0.9159999999999999","37.47","1.797","35.07","1022.049","12.37","77.68","NAN","0.0"],
    [1548821,"2026-04-04 04:00:00","1531","0.759","37.87","1.176","54.19","1022.1139999999999","12.22","78.44","NAN","0.0"],
    [1548822,"2026-04-04 04:10:00","1532","1.084","22.59","2.483","29.63","1022.177","12.17","78.29","NAN","0.0"],
    [1548823,"2026-04-04 04:20:00","1533","0.7390000000000001","32.19","1.339","18.33","1022.053","12.08","78.21","NAN","0.0"],
    [1548824,"2026-04-04 04:30:00","1534","0.657","34.56","2.025","32.25","1022.07","12.05","77.2","NAN","0.0"],
    [1548825,"2026-04-04 04:40:00","1535","0.032","47.43","0.49","31.34","1022.105","11.9","77","NAN","0.0"],
    [1548826,"2026-04-04 04:50:00","1536","0.0","0.0","0.0","0.0","1022.31","11.89","77.63","NAN","0.0"],
    [1548827,"2026-04-04 05:00:00","1537","0.336","176.5","0.784","174.0","1022.435","11.88","78.97","NAN","0.0"],
    [1548828,"2026-04-04 05:10:00","1538","0.4","155.1","0.98","162.4","1022.41","11.99","81.9","NAN","0.0"],
    [1548829,"2026-04-04 05:20:00","1539","0.691","168.6","1.3719999999999999","154.8","1022.587","12.29","84.2","NAN","0.0"],
    [1548830,"2026-04-04 05:30:00","1540","0.483","172.3","1.797","173.0","1022.6289999999999","12.51","85.6","NAN","0.0"],
    [1548831,"2026-04-04 05:40:00","1541","0.633","143.0","1.2409999999999999","112.3","1022.8430000000001","12.46","86.7","NAN","0.0"],
    [1548832,"2026-04-04 05:50:00","1542","0.635","123.9","1.2409999999999999","137.5","1022.932","12.53","86.9","NAN","0.0"],
    [1548833,"2026-04-04 06:00:00","1543","0.603","78.35","1.143","91.3","1022.9639999999999","12.39","83.9","NAN","0.0"],
    [1548834,"2026-04-04 06:10:00","1544","0.16","98.0","0.882","114.3","1023.132","12.65","80.2","NAN","0.0"],
    [1548835,"2026-04-04 06:20:00","1545","0.342","37.91","1.209","44.29","1023.2810000000001","12.94","76.92","NAN","0.0"],
    [1548836,"2026-04-04 06:30:00","1546","0.17300000000000001","74.49","0.7190000000000001","55.72","1023.2560000000001","13.37","73.93","NAN","0.0"],
    [1548837,"2026-04-04 06:40:00","1547","0.225","48.63","1.307","53.65","1023.3910000000001","13.64","74.18","NAN","0.0"],
    [1548838,"2026-04-04 06:50:00","1548","0.956","32.82","1.633","39.71","1023.475","13.33","68.81","NAN","0.0"],
    [1548839,"2026-04-04 07:00:00","1549","1.07","4.117","1.666","6.727","1023.605","13.16","67.57","NAN","0.0"],
    [1548840,"2026-04-04 07:10:00","1550","0.898","19.27","1.8619999999999999","35.27","1023.6569999999999","13.58","65.34","NAN","0.0"],
    [1548841,"2026-04-04 07:20:00","1551","0.645","32.89","1.633","60.69","1023.727","14.06","64.89","NAN","0.0"],
    [1548842,"2026-04-04 07:30:00","1552","0.419","120.5","1.209","108.6","1023.8539999999999","15.13","64.32","NAN","0.0"],
    [1548843,"2026-04-04 07:40:00","1553","0.53","138.2","0.915","131.6","1023.8710000000001","15.24","66.61","NAN","0.0"],
    [1548844,"2026-04-04 07:50:00","1554","0.8370000000000001","140.6","1.4369999999999998","130.9","1023.914","15.35","64.94","NAN","0.0"],
    [1548845,"2026-04-04 08:00:00","1555","0.95","139.9","1.601","110.7","1023.956","15.47","61.76","NAN","0.0"],
    [1548846,"2026-04-04 08:10:00","1556","1.05","132.6","1.699","116.3","1024.0710000000001","15.54","56.98","NAN","0.0"],
    [1548847,"2026-04-04 08:20:00","1557","1.19","122.0","2.156","113.7","1024.146","15.57","57.09","NAN","0.0"],
    [1548848,"2026-04-04 08:30:00","1558","1.0170000000000001","103.1","1.993","117.7","1024.165","15.81","59.03","NAN","0.0"],
    [1548849,"2026-04-04 08:40:00","1559","0.9229999999999999","115.7","3.365","142.2","1024.163","16.64","56.87","NAN","0.0"],
    [1548850,"2026-04-04 08:50:00","1560","1.452","126.4","3.495","123.3","1024.165","15.62","64.51","NAN","0.0"],
    [1548851,"2026-04-04 09:00:00","1561","0.769","160.6","1.601","167.9","1024.165","16.16","59.33","NAN","0.0"],
    [1548852,"2026-04-04 09:10:00","1562","1.17","144.5","2.0580000000000003","127.8","1024.173","16.35","59.6","NAN","0.0"],
    [1548853,"2026-04-04 09:20:00","1563","1.317","161.7","2.319","114.7","1024.165","16.2","62.32","NAN","0.0"],
    [1548854,"2026-04-04 09:30:00","1564","1.69","172.3","2.6460000000000004","177.9","1024.178","16.18","63.24","NAN","0.0"],
    [1548855,"2026-04-04 09:40:00","1565","1.7830000000000001","169.1","2.548","164.0","1024.165","16.13","62.72","NAN","0.0"],
    [1548856,"2026-04-04 09:50:00","1566","1.829","177.6","2.94","193.3","1024.098","16.34","61.14","NAN","0.0"],
    [1548857,"2026-04-04 10:00:00","1567","2.541","171.2","4.279","164.1","1024.0510000000002","15.87","67.95","NAN","0.0"],
    [1548858,"2026-04-04 10:10:00","1568","2.082","169.4","3.332","179.5","1024.028","16.35","68.28","NAN","0.0"],
    [1548859,"2026-04-04 10:20:00","1569","2.8","176.4","4.2139999999999995","185.0","1023.961","16.29","68.47","NAN","0.0"],
    [1548860,"2026-04-04 10:30:00","1570","2.8510000000000004","177.1","4.279","174.0","1023.914","16.45","69.74","NAN","0.0"],
    [1548861,"2026-04-04 10:40:00","1571","3.491","176.9","5.651","175.6","1023.914","16.36","70.5","NAN","0.0"],
    [1548862,"2026-04-04 10:50:00","1572","2.987","172.2","4.965","177.7","1023.9110000000001","16.7","69.51","NAN","0.0"],
    [1548863,"2026-04-04 11:00:00","1573","3.201","175.3","4.835","175.5","1023.822","16.63","72.64","NAN","0.0"],
    [1548864,"2026-04-04 11:10:00","1574","2.214","191.2","4.051","169.7","1023.7489999999999","18.19","61.38","NAN","0.0"],
    [1548865,"2026-04-04 11:20:00","1575","3.043","176.1","4.573","183.2","1023.7869999999999","18.08","62.44","NAN","0.0"],
    [1548866,"2026-04-04 11:30:00","1576","2.737","179.0","5.031000000000001","174.8","1023.7860000000001","17.62","65.62","NAN","0.0"],
    [1548867,"2026-04-04 11:40:00","1577","3.4339999999999997","175.8","4.965","182.9","1023.752","17.67","68.08","NAN","0.0"],
    [1548868,"2026-04-04 11:50:00","1578","2.7239999999999998","174.3","4.377","170.4","1023.67","18.01","63.81","NAN","0.0"],
    [1548869,"2026-04-04 12:00:00","1579","2.365","180.8","3.822","171.9","1023.6669999999999","18.63","58.2","NAN","0.0"],
    [1548870,"2026-04-04 12:10:00","1580","2.611","186.1","4.018","174.1","1023.622","19.22","53.29","NAN","0.0"],
    [1548871,"2026-04-04 12:20:00","1581","2.488","167.5","4.2139999999999995","158.5","1023.5269999999999","18.74","57.1","NAN","0.0"],
    [1548872,"2026-04-04 12:30:00","1582","2.7760000000000002","169.0","3.985","159.9","1023.466","18.63","56.91","NAN","0.0"],
    [1548873,"2026-04-04 12:40:00","1583","2.823","179.8","4.4430000000000005","185.9","1023.435","18.92","53.59","NAN","0.0"],
    [1548874,"2026-04-04 12:50:00","1584","2.705","179.0","4.345","171.2","1023.301","18.89","50.7","NAN","0.0"],
    [1548875,"2026-04-04 13:00:00","1585","2.74","175.3","4.638999999999999","158.1","1023.2560000000001","19.13","48.03","NAN","0.0"],
    [1548876,"2026-04-04 13:10:00","1586","2.925","174.5","4.965","161.8","1023.184","18.8","49.21","NAN","0.0"],
    [1548877,"2026-04-04 13:20:00","1587","2.6430000000000002","173.7","3.9530000000000003","160.6","1023.1089999999999","18.91","48.94","NAN","0.0"],
    [1548878,"2026-04-04 13:30:00","1588","3.161","167.8","4.475","181.4","1022.94","18.48","51.26","NAN","0.0"],
    [1548879,"2026-04-04 13:40:00","1589","2.517","169.6","4.018","168.5","1022.9119999999999","18.55","53.24","NAN","0.0"],
    [1548880,"2026-04-04 13:50:00","1590","2.9339999999999997","166.5","4.279","162.4","1022.81","18.77","53.5","NAN","0.0"],
    [1548881,"2026-04-04 14:00:00","1591","3.332","167.6","5.063","165.5","1022.681","18.02","60.37","NAN","0.0"],
    [1548882,"2026-04-04 14:10:00","1592","3.53","168.2","5.1610000000000005","166.2","1022.668","17.45","64","NAN","0.0"],
    [1548883,"2026-04-04 14:20:00","1593","2.924","169.9","4.573","162.8","1022.613","17.58","61.72","NAN","0.0"],
    [1548884,"2026-04-04 14:30:00","1594","2.7910000000000004","164.9","4.606","182.0","1022.5239999999999","18.36","56.34","NAN","0.0"],
    [1548885,"2026-04-04 14:40:00","1595","3.062","163.5","4.573","165.8","1022.427","18.2","56.73","NAN","0.0"],
    [1548886,"2026-04-04 14:50:00","1596","3.1010000000000004","170.6","4.965","166.1","1022.387","17.84","57.5","NAN","0.0"],
    [1548887,"2026-04-04 15:00:00","1597","3.207","167.4","4.9","159.4","1022.302","18.34","53.24","NAN","0.0"],
    [1548888,"2026-04-04 15:10:00","1598","2.862","169.4","4.279","170.5","1022.262","17.99","54.7","NAN","0.0"],
    [1548889,"2026-04-04 15:20:00","1599","2.504","176.4","4.051","213.4","1022.257","18.63","50.29","NAN","0.0"],
    [1548890,"2026-04-04 15:30:00","1600","2.36","182.5","3.985","170.1","1022.297","18.81","50.1","NAN","0.0"],
    [1548891,"2026-04-04 15:40:00","1601","2.845","193.8","5.357","171.5","1022.285","18.89","47.88","NAN","0.0"],
    [1548892,"2026-04-04 15:50:00","1602","2.63","194.6","4.835","202.1","1022.217","18.88","46.22","NAN","0.0"],
    [1548893,"2026-04-04 16:00:00","1603","2.5789999999999997","197.7","7.218999999999999","178.9","1022.18","19.15","43.55","NAN","0.0"],
    [1548894,"2026-04-04 16:10:00","1604","2.199","218.3","4.965","232.0","1022.175","19.51","41.98","NAN","0.0"],
    [1548895,"2026-04-04 16:20:00","1605","2.248","204.8","5.815","263.8","1022.175","19.47","43.71","NAN","0.0"],
    [1548896,"2026-04-04 16:30:00","1606","1.94","217.5","4.965","221.1","1022.173","19.54","43.75","NAN","0.0"],
    [1548897,"2026-04-04 16:40:00","1607","1.77","219.6","3.855","272.6","1022.173","19.39","44.55","NAN","0.0"],
    [1548898,"2026-04-04 16:50:00","1608","1.9609999999999999","214.9","4.279","222.9","1022.175","19.59","42.62","NAN","0.0"],
    [1548899,"2026-04-04 17:00:00","1609","1.614","205.3","3.92","186.9","1022.173","19.31","44.59","NAN","0.0"],
    [1548900,"2026-04-04 17:10:00","1610","1.9780000000000002","191.0","3.7889999999999997","206.0","1022.2130000000001","18.98","45.74","NAN","0.0"],
    [1548901,"2026-04-04 17:20:00","1611","1.672","187.7","3.0380000000000003","184.1","1022.2719999999999","18.8","45.74","NAN","0.0"],
    [1548902,"2026-04-04 17:30:00","1612","1.755","183.9","3.1689999999999996","201.2","1022.175","18.37","48.12","NAN","0.0"],
    [1548903,"2026-04-04 17:40:00","1613","2.03","186.7","3.9530000000000003","194.0","1022.245","18.09","49.84","NAN","0.0"],
    [1548904,"2026-04-04 17:50:00","1614","1.1079999999999999","183.7","2.123","205.7","1022.297","17.82","51.34","NAN","0.0"],
    [1548905,"2026-04-04 18:00:00","1615","0.601","163.3","1.568","138.2","1022.297","17.9","51.05","NAN","0.0"],
    [1548906,"2026-04-04 18:10:00","1616","0.826","176.3","2.385","227.0","1022.322","17.76","51.39","NAN","0.0"],
    [1548907,"2026-04-04 18:20:00","1617","0.968","184.0","1.699","180.2","1022.3689999999999","17.6","51.66","NAN","0.0"],
    [1548908,"2026-04-04 18:30:00","1618","1.203","238.8","3.463","222.8","1022.39","17.56","50.88","NAN","0.0"],
    [1548909,"2026-04-04 18:40:00","1619","0.8340000000000001","211.2","2.319","203.7","1022.419","17.45","50.9","NAN","0.0"],
    [1548910,"2026-04-04 18:50:00","1620","0.775","196.9","1.339","209.2","1022.5260000000001","17.31","51.57","NAN","0.0"],
    [1548911,"2026-04-04 19:00:00","1621","0.838","243.5","2.548","227.3","1022.654","17.42","49.82","NAN","0.0"],
    [1548912,"2026-04-04 19:10:00","1622","0.5870000000000001","210.7","1.405","218.1","1022.7330000000001","17.31","50.72","NAN","0.0"],
    [1548913,"2026-04-04 19:20:00","1623","0.644","208.8","1.666","196.4","1022.928","17.07","52.32","NAN","0.0"],
    [1548914,"2026-04-04 19:30:00","1624","0.635","196.0","1.666","189.8","1023.0110000000001","16.89","53.56","NAN","0.0"],
    [1548915,"2026-04-04 19:40:00","1625","0.515","174.7","1.3719999999999999","184.6","1023.115","16.65","55.41","NAN","0.0"],
    [1548916,"2026-04-04 19:50:00","1626","0.848","52.13","1.797","43.28","1023.2139999999999","16.67","62.48","NAN","0.0"],
    [1548917,"2026-04-04 20:00:00","1627","0.716","43.09","1.829","64.88","1023.37","16.62","66.04","NAN","0.0"],
    [1548918,"2026-04-04 20:10:00","1628","0.8240000000000001","48.66","1.797","59.44","1023.435","16.37","68.31","NAN","0.0"],
    [1548919,"2026-04-04 20:20:00","1629","0.785","33.83","1.601","52.5","1023.5880000000001","16.24","69.7","NAN","0.0"],
    [1548920,"2026-04-04 20:30:00","1630","0.48","27.39","1.339","35.43","1023.617","16.09","70.89","NAN","0.0"],
    [1548921,"2026-04-04 20:40:00","1631","0.573","51.27","1.339","83.5","1023.696","16.01","71.5","NAN","0.0"],
    [1548922,"2026-04-04 20:50:00","1632","0.255","100.5","0.784","91.9","1023.7389999999999","15.89","72.4","NAN","0.0"],
    [1548923,"2026-04-04 21:00:00","1633","0.693","181.7","1.111","184.9","1023.7389999999999","15.79","74.64","NAN","0.0"],
    [1548924,"2026-04-04 21:10:00","1634","0.542","190.5","1.013","176.6","1023.689","15.48","79.33","NAN","0.0"],
    [1548925,"2026-04-04 21:20:00","1635","0.527","204.2","1.078","200.0","1023.711","15.28","83.7","NAN","0.0"],
    [1548926,"2026-04-04 21:30:00","1636","0.966","197.0","1.993","176.6","1023.696","15.05","82.4","NAN","0.0"],
    [1548927,"2026-04-04 21:40:00","1637","0.846","226.1","1.568","218.7","1023.6139999999999","15.23","67.43","NAN","0.0"],
    [1548928,"2026-04-04 21:50:00","1638","0.784","188.9","1.274","199.7","1023.622","15.44","68.33","NAN","0.0"],
    [1548929,"2026-04-04 22:00:00","1639","0.48200000000000004","182.1","0.882","166.3","1023.617","15.28","69.32","NAN","0.0"],
    [1548930,"2026-04-04 22:10:00","1640","0.374","172.2","0.7509999999999999","189.2","1023.567","15.18","71.35","NAN","0.0"],
    [1548931,"2026-04-04 22:20:00","1641","0.483","205.5","0.915","196.1","1023.534","15.02","71.52","NAN","0.0"],
    [1548932,"2026-04-04 22:30:00","1642","0.6809999999999999","229.0","1.829","239.0","1023.618","15.12","71.53","NAN","0.0"],
    [1548933,"2026-04-04 22:40:00","1643","0.9390000000000001","242.4","1.993","237.1","1023.5189999999999","15.44","69.23","NAN","0.0"],
    [1548934,"2026-04-04 22:50:00","1644","1.365","237.4","2.287","234.4","1023.5","15.44","67.43","NAN","0.0"],
    [1548935,"2026-04-04 23:00:00","1645","1.0590000000000002","238.6","2.385","231.9","1023.49","15.43","66.01","NAN","0.0"],
    [1548936,"2026-04-04 23:10:00","1646","0.369","247.9","1.111","279.1","1023.49","15.44","65.29","NAN","0.0"],
    [1548937,"2026-04-04 23:20:00","1647","0.765","250.6","1.568","241.8","1023.49","15.5","65.4","NAN","0.0"],
    [1548938,"2026-04-04 23:30:00","1648","0.589","255.6","1.9269999999999998","289.9","1023.453","15.54","63.91","NAN","0.0"],
    [1548939,"2026-04-04 23:40:00","1649","0.997","230.5","1.7309999999999999","238.7","1023.3739999999999","15.52","62.68","NAN","0.0"],
    [1548940,"2026-04-04 23:50:00","1650","0.8759999999999999","237.4","1.699","245.0","1023.367","15.48","61.23","NAN","0.0"],
    [1548941,"2026-04-05 00:00:00","1651","0.755","234.4","1.666","239.2","1023.365","15.42","60.47","NAN","0.0"],
    [1548942,"2026-04-05 00:10:00","1652","0.807","233.1","1.764","227.6","1023.36","15.39","60.82","NAN","0.0"],
    [1548943,"2026-04-05 00:20:00","1653","0.18899999999999997","209.8","0.8490000000000001","297.3","1023.355","14.84","64.95","NAN","0.0"],
    [1548944,"2026-04-05 00:30:00","1654","0.449","170.9","0.915","169.4","1023.367","14.25","68.17","NAN","0.0"],
    [1548945,"2026-04-05 00:40:00","1655","0.336","185.5","0.8170000000000001","178.6","1023.3560000000001","14.02","69.05","NAN","0.0"],
    [1548946,"2026-04-05 00:50:00","1656","0.415","193.3","0.7190000000000001","207.7","1023.27","13.79","69.3","NAN","0.0"],
    [1548947,"2026-04-05 01:00:00","1657","0.078","183.7","0.555","183.1","1023.2460000000001","13.55","68.33","NAN","0.0"],
    [1548948,"2026-04-05 01:10:00","1658","0.376","243.2","1.405","267.8","1023.245","13.67","66.85","NAN","0.0"],
    [1548949,"2026-04-05 01:20:00","1659","0.6679999999999999","124.3","1.405","267.8","1023.245","14.01","65.83","NAN","0.0"],
    [1548950,"2026-04-05 01:30:00","1660","0.52","211.0","1.274","243.6","1023.2360000000001","13.7","67.08","NAN","0.0"],
    [1548951,"2026-04-05 01:40:00","1661","0.436","220.2","0.9470000000000001","253.1","1023.1389999999999","14.17","60.65","NAN","0.0"],
    [1548952,"2026-04-05 01:50:00","1662","0.634","247.1","1.535","261.4","1023.138","14.35","59.25","NAN","0.0"],
    [1548953,"2026-04-05 02:00:00","1663","0.429","196.2","0.8170000000000001","185.2","1023.087","14.25","63.11","NAN","0.0"],
    [1548954,"2026-04-05 02:10:00","1664","0.366","182.2","0.882","186.0","1023.033","13.53","69.45","NAN","0.0"],
    [1548955,"2026-04-05 02:20:00","1665","0.23800000000000002","161.9","0.6859999999999999","163.0","1023.0169999999999","13.29","70.01","NAN","0.0"],
    [1548956,"2026-04-05 02:30:00","1666","0.09","191.7","0.555","214.2","1022.95","13.23","71.5","NAN","0.0"],
    [1548957,"2026-04-05 02:40:00","1667","0.375","186.8","0.653","209.9","1022.857","13.17","71.98","NAN","0.0"],
    [1548958,"2026-04-05 02:50:00","1668","0.008","178.8","0.327","177.2","1022.904","13.1","72.61","NAN","0.0"],
    [1548959,"2026-04-05 03:00:00","1669","0.19899999999999998","300.4","1.013","283.1","1022.8539999999999","12.99","72.05","NAN","0.0"],
    [1548960,"2026-04-05 03:10:00","1670","0.32","307.0","1.143","316.1","1022.818","14.01","61.01","NAN","0.0"],
    [1548961,"2026-04-05 03:20:00","1671","0.068","296.8","0.8490000000000001","322.7","1022.883","13.93","62.1","NAN","0.0"],
    [1548962,"2026-04-05 03:30:00","1672","0.24600000000000002","212.7","1.078","178.8","1022.898","13.94","63.29","NAN","0.0"],
    [1548963,"2026-04-05 03:40:00","1673","0.332","189.1","0.8490000000000001","178.3","1022.865","13.6","73.11","NAN","0.0"],
    [1548964,"2026-04-05 03:50:00","1674","0.012","178.0","0.294","178.8","1022.808","13.32","74.71","NAN","0.0"],
    [1548965,"2026-04-05 04:00:00","1675","0.019","99.1","0.294","93.0","1022.824","13.18","75.62","NAN","0.0"],
    [1548966,"2026-04-05 04:10:00","1676","0.0","0.0","0.0","0.0","1022.827","13.04","75.85","NAN","0.0"],
    [1548967,"2026-04-05 04:20:00","1677","0.0","0.0","0.0","0.0","1022.8939999999999","13.02","75.61","NAN","0.0"],
    [1548968,"2026-04-05 04:30:00","1678","0.0","0.0","0.0","0.0","1022.826","12.96","76.63","NAN","0.0"],
    [1548969,"2026-04-05 04:40:00","1679","0.0","0.0","0.0","0.0","1022.893","12.7","76.97","NAN","0.0"],
    [1548970,"2026-04-05 04:50:00","1680","0.0","0.0","0.0","0.0","1022.932","12.81","77.6","NAN","0.0"],
    [1548971,"2026-04-05 05:00:00","1681","0.302","173.5","0.588","166.9","1023.0039999999999","12.74","78.26","NAN","0.0"],
    [1548972,"2026-04-05 05:10:00","1682","0.19699999999999998","180.9","0.6859999999999999","179.3","1022.987","12.69","78.11","NAN","0.0"],
    [1548973,"2026-04-05 05:20:00","1683","0.07400000000000001","193.2","0.7190000000000001","180.4","1023.049","12.49","76.39","NAN","0.0"],
    [1548974,"2026-04-05 05:30:00","1684","0.0","0.0","0.0","0.0","1023.061","12.43","75.12","NAN","0.0"],
    [1548975,"2026-04-05 05:40:00","1685","0.0","0.0","0.0","0.0","1023.222","12.35","75.24","NAN","0.0"],
    [1548976,"2026-04-05 05:50:00","1686","0.057999999999999996","149.2","0.425","148.6","1023.302","12.34","75.15","NAN","0.0"],
    [1548977,"2026-04-05 06:00:00","1687","0.065","173.9","0.425","172.5","1023.312","12.65","72.76","NAN","0.0"],
    [1548978,"2026-04-05 06:10:00","1688","0.113","160.7","0.523","167.8","1023.312","12.91","72.65","NAN","0.0"],
    [1548979,"2026-04-05 06:20:00","1689","0.11800000000000001","136.6","0.653","130.4","1023.414","13.23","70.91","NAN","0.0"],
    [1548980,"2026-04-05 06:30:00","1690","0.37200000000000005","163.3","0.8170000000000001","182.9","1023.529","13.48","70.68","NAN","0.0"],
    [1548981,"2026-04-05 06:40:00","1691","0.735","193.3","1.176","194.5","1023.6669999999999","13.45","70.17","NAN","0.0"],
    [1548982,"2026-04-05 06:50:00","1692","0.534","182.7","1.111","203.8","1023.703","13.57","68.32","NAN","0.0"],
    [1548983,"2026-04-05 07:00:00","1693","0.636","184.1","1.013","192.2","1023.794","13.64","66.9","NAN","0.0"],
    [1548984,"2026-04-05 07:10:00","1694","0.307","111.0","0.7509999999999999","119.7","1023.872","14.12","64.61","NAN","0.0"],
    [1548985,"2026-04-05 07:20:00","1695","1.028","251.2","2.515","282.0","1023.956","15.05","59.75","NAN","0.0"],
    [1548986,"2026-04-05 07:30:00","1696","0.8740000000000001","211.7","3.463","245.2","1024.031","15.08","59.96","NAN","0.0"],
    [1548987,"2026-04-05 07:40:00","1697","1.925","253.1","3.659","249.3","1024.028","15.67","54.49","NAN","0.0"],
    [1548988,"2026-04-05 07:50:00","1698","1.854","238.5","4.1160000000000005","229.4","1024.156","16.07","54.61","NAN","0.0"],
    [1548989,"2026-04-05 08:00:00","1699","1.5730000000000002","220.1","3.463","231.3","1024.165","16.57","58.36","NAN","0.0"],
    [1548990,"2026-04-05 08:10:00","1700","1.9269999999999998","225.1","4.149","249.8","1024.282","16.71","61.25","NAN","0.0"],
    [1548991,"2026-04-05 08:20:00","1701","1.915","228.5","4.018","246.5","1024.395","16.87","61.47","NAN","0.0"],
    [1548992,"2026-04-05 08:30:00","1702","2.006","227.7","3.659","250.1","1024.489","17.02","64.18","NAN","0.0"],
    [1548993,"2026-04-05 08:40:00","1703","1.8719999999999999","219.1","3.855","220.8","1024.629","17.36","64.67","NAN","0.0"],
    [1548994,"2026-04-05 08:50:00","1704","1.3730000000000002","228.4","3.43","233.8","1024.6580000000001","17.55","64.11","NAN","0.0"],
    [1548995,"2026-04-05 09:00:00","1705","1.405","198.8","2.94","195.5","1024.7160000000001","17.77","66.02","NAN","0.0"],
    [1548996,"2026-04-05 09:10:00","1706","1.614","209.6","3.5610000000000004","205.8","1024.88","18.16","66.14","NAN","0.0"],
    [1548997,"2026-04-05 09:20:00","1707","1.712","205.7","3.6260000000000003","204.9","1024.912","18.53","65.78","NAN","0.0"],
    [1548998,"2026-04-05 09:30:00","1708","1.858","199.2","3.528","200.9","1024.913","18.84","62.23","NAN","0.0"],
    [1548999,"2026-04-05 09:40:00","1709","2.115","188.8","3.299","188.5","1025.045","18.46","65.36","NAN","0.0"],
    [1549000,"2026-04-05 09:50:00","1710","2.5540000000000003","176.1","4.018","173.8","1025.162","17.86","70.49","NAN","0.0"],
    [1549001,"2026-04-05 10:00:00","1711","2.9139999999999997","176.5","4.998","187.5","1025.162","17.32","74.92","NAN","0.0"],
    [1549002,"2026-04-05 10:10:00","1712","2.9330000000000003","179.4","4.802","166.1","1025.162","17.22","75.39","NAN","0.0"],
    [1549003,"2026-04-05 10:20:00","1713","3.5789999999999997","176.6","5.521","179.0","1025.167","16.78","78.96","NAN","0.0"],
    [1549004,"2026-04-05 10:30:00","1714","3.4160000000000004","176.4","5.063","175.2","1025.167","16.69","79.71","NAN","0.0"],
    [1549005,"2026-04-05 10:40:00","1715","3.592","175.3","4.671","175.7","1025.174","16.75","79.31","NAN","0.0"],
    [1549006,"2026-04-05 10:50:00","1716","3.293","176.7","5.194","175.8","1025.177","16.88","78.97","NAN","0.0"],
    [1549007,"2026-04-05 11:00:00","1717","3.739","172.7","5.129","179.2","1025.221","16.94","78.41","NAN","0.0"],
    [1549008,"2026-04-05 11:10:00","1718","3.907","172.3","5.422999999999999","180.0","1025.184","16.69","79.57","NAN","0.0"],
    [1549009,"2026-04-05 11:20:00","1719","3.1510000000000002","177.2","5.325","176.2","1025.162","17.24","75.83","NAN","0.0"],
    [1549010,"2026-04-05 11:30:00","1720","2.8960000000000004","176.6","4.704","163.7","1025.162","17.71","71.66","NAN","0.0"],
    [1549011,"2026-04-05 11:40:00","1721","2.9730000000000003","178.6","4.638999999999999","206.9","1025.1589999999999","18.04","70.61","NAN","0.0"],
    [1549012,"2026-04-05 11:50:00","1722","2.781","175.4","4.377","166.4","1025.147","18.02","71.04","NAN","0.0"],
    [1549013,"2026-04-05 12:00:00","1723","2.885","186.7","5.619","180.4","1025.094","18.16","70.18","NAN","0.0"],
    [1549014,"2026-04-05 12:10:00","1724","3.0789999999999997","179.4","4.508","191.4","1025.0439999999999","18.27","69.36","NAN","0.0"],
    [1549015,"2026-04-05 12:20:00","1725","3.037","181.7","5.194","199.0","1025.027","18.38","68.99","NAN","0.0"],
    [1549016,"2026-04-05 12:30:00","1726","3.3360000000000003","183.1","5.651","186.0","1025.03","18.4","68.4","NAN","0.0"],
    [1549017,"2026-04-05 12:40:00","1727","3.3489999999999998","190.4","5.292000000000001","181.1","1025.007","18.47","67.43","NAN","0.0"],
    [1549018,"2026-04-05 12:50:00","1728","3.213","185.4","5.063","161.8","1024.915","18.42","67.48","NAN","0.0"],
    [1549019,"2026-04-05 13:00:00","1729","2.861","191.5","5.2589999999999995","203.5","1024.912","18.91","65.69","NAN","0.0"],
    [1549020,"2026-04-05 13:10:00","1730","2.9810000000000003","190.9","4.867","189.0","1024.885","18.98","65.31","NAN","0.0"],
    [1549021,"2026-04-05 13:20:00","1731","3.4589999999999996","194.5","5.455","201.3","1024.798","18.97","64.57","NAN","0.0"],
    [1549022,"2026-04-05 13:30:00","1732","2.991","188.0","5.4879999999999995","179.5","1024.798","19.07","64.86","NAN","0.0"],
    [1549023,"2026-04-05 13:40:00","1733","3.091","190.9","5.782","174.9","1024.7830000000001","18.66","66.54","NAN","0.0"],
    [1549024,"2026-04-05 13:50:00","1734","3.6310000000000002","194.9","6.403","175.7","1024.715","18.46","67.64","NAN","0.0"],
    [1549025,"2026-04-05 14:00:00","1735","3.6510000000000002","196.4","5.749","192.4","1024.661","18.35","68.57","NAN","0.0"],
    [1549026,"2026-04-05 14:10:00","1736","3.367","194.6","6.272","195.1","1024.661","18.31","68.77","NAN","0.0"],
    [1549027,"2026-04-05 14:20:00","1737","3.467","196.4","6.109","179.5","1024.623","18.31","68.69","NAN","0.0"],
    [1549028,"2026-04-05 14:30:00","1738","3.123","205.2","6.468","198.6","1024.539","18.91","66.1","NAN","0.0"],
    [1549029,"2026-04-05 14:40:00","1739","3.3939999999999997","204.2","6.0760000000000005","184.6","1024.4360000000001","18.88","65.95","NAN","0.0"],
    [1549030,"2026-04-05 14:50:00","1740","3.403","198.5","7.023","213.6","1024.404","18.43","68.39","NAN","0.0"],
    [1549031,"2026-04-05 15:00:00","1741","3.446","199.1","6.1739999999999995","177.1","1024.3519999999999","18.36","69.06","NAN","0.0"],
    [1549032,"2026-04-05 15:10:00","1742","3.59","206.0","7.121","203.3","1024.265","18.35","68.79","NAN","0.0"],
    [1549033,"2026-04-05 15:20:00","1743","3.6919999999999997","205.5","7.4479999999999995","201.1","1024.183","18.48","67.75","NAN","0.0"],
    [1549034,"2026-04-05 15:30:00","1744","2.687","209.7","5.749","213.9","1024.17","18.59","65.32","NAN","0.0"],
    [1549035,"2026-04-05 15:40:00","1745","2.763","212.3","5.455","218.5","1024.195","18.93","64.28","NAN","0.0"],
    [1549036,"2026-04-05 15:50:00","1746","3.2089999999999996","235.2","6.729","253.9","1024.215","18.59","65.09","NAN","0.0"],
    [1549037,"2026-04-05 16:00:00","1747","2.7689999999999997","224.0","6.5329999999999995","196.7","1024.2269999999999","18.65","65.02","NAN","0.0"],
    [1549038,"2026-04-05 16:10:00","1748","2.833","206.0","7.154","192.1","1024.1680000000001","18.17","67.64","NAN","0.0"],
    [1549039,"2026-04-05 16:20:00","1749","2.377","208.2","4.802","197.4","1024.165","18.36","66.35","NAN","0.0"],
    [1549040,"2026-04-05 16:30:00","1750","2.4930000000000003","218.5","7.317","242.4","1024.133","18.69","61.57","NAN","0.0"],
    [1549041,"2026-04-05 16:40:00","1751","2.004","215.6","5.586","201.3","1024.088","18.79","60.28","NAN","0.0"],
    [1549042,"2026-04-05 16:50:00","1752","2.535","210.1","5.978","201.3","1024.088","18.48","60.28","NAN","0.0"],
    [1549043,"2026-04-05 17:00:00","1753","2.06","217.0","5.2589999999999995","245.8","1024.153","18.51","58.8","NAN","0.0"],
    [1549044,"2026-04-05 17:10:00","1754","1.9180000000000001","214.1","4.638999999999999","232.4","1024.163","18.42","59","NAN","0.0"],
    [1549045,"2026-04-05 17:20:00","1755","2.435","222.3","6.7620000000000005","200.5","1024.093","18.3","56.51","NAN","0.0"],
    [1549046,"2026-04-05 17:30:00","1756","2.6639999999999997","224.0","6.305","250.7","1024.053","18.33","53.35","NAN","0.0"],
    [1549047,"2026-04-05 17:40:00","1757","2.249","212.8","5.521","220.2","1024.068","18.25","51.75","NAN","0.0"],
    [1549048,"2026-04-05 17:50:00","1758","1.79","209.0","3.7889999999999997","193.4","1024.088","18","53.09","NAN","0.0"],
    [1549049,"2026-04-05 18:00:00","1759","1.1420000000000001","212.0","2.842","199.7","1024.14","17.93","53.43","NAN","0.0"],
    [1549050,"2026-04-05 18:10:00","1760","1.403","228.3","3.234","242.4","1024.153","18.02","50.61","NAN","0.0"],
    [1549051,"2026-04-05 18:20:00","1761","0.9620000000000001","212.7","2.515","254.1","1024.165","17.98","49.35","NAN","0.0"],
    [1549052,"2026-04-05 18:30:00","1762","1.232","213.8","2.94","200.2","1024.165","17.84","48.2","NAN","0.0"],
    [1549053,"2026-04-05 18:40:00","1763","1.147","208.7","2.45","188.7","1024.1889999999999","17.67","47.8","NAN","0.0"],
    [1549054,"2026-04-05 18:50:00","1764","1.508","217.1","3.593","188.4","1024.318","17.46","47.1","NAN","0.0"],
    [1549055,"2026-04-05 19:00:00","1765","1.5759999999999998","218.9","3.1689999999999996","208.1","1024.425","17.37","47.13","NAN","0.0"],
    [1549056,"2026-04-05 19:10:00","1766","1.401","231.7","3.1689999999999996","237.5","1024.625","17.33","46.39","NAN","0.0"],
    [1549057,"2026-04-05 19:20:00","1767","1.4080000000000001","227.4","3.234","222.3","1024.755","17.42","44.93","NAN","0.0"],
    [1549058,"2026-04-05 19:30:00","1768","1.449","216.6","2.875","213.5","1024.84","17.33","44.09","NAN","0.0"],
    [1549059,"2026-04-05 19:40:00","1769","1.556","216.7","3.136","222.6","1024.9080000000001","17.21","43.16","NAN","0.0"],
    [1549060,"2026-04-05 19:50:00","1770","1.3330000000000002","218.0","3.103","211.4","1024.973","17.13","42.41","NAN","0.0"],
    [1549061,"2026-04-05 20:00:00","1771","1.515","216.0","2.94","190.0","1024.998","17.1","42.33","NAN","0.0"],
    [1549062,"2026-04-05 20:10:00","1772","1.219","212.5","2.221","211.5","1025.2","16.98","42.81","NAN","0.0"],
    [1549063,"2026-04-05 20:20:00","1773","1.436","228.7","2.548","238.8","1025.233","16.98","42.57","NAN","0.0"],
    [1549064,"2026-04-05 20:30:00","1774","1.148","232.2","2.515","248.7","1025.222","17.1","41.71","NAN","0.0"],
    [1549065,"2026-04-05 20:40:00","1775","0.8540000000000001","244.5","2.483","233.3","1025.34","17.05","43.56","NAN","0.0"],
    [1549066,"2026-04-05 20:50:00","1776","0.83","241.1","2.0909999999999997","256.0","1025.354","16.84","47.31","NAN","0.0"],
    [1549067,"2026-04-05 21:00:00","1777","1.585","240.1","3.332","229.5","1025.402","16.58","52.03","NAN","0.0"],
    [1549068,"2026-04-05 21:10:00","1778","1.349","250.0","3.299","252.2","1025.562","16.38","55.59","NAN","0.0"],
    [1549069,"2026-04-05 21:20:00","1779","1.3969999999999998","241.4","2.9730000000000003","213.9","1025.604","16.33","56.58","NAN","0.0"],
    [1549070,"2026-04-05 21:30:00","1780","1.439","235.7","2.9730000000000003","241.5","1025.595","16.27","57.82","NAN","0.0"],
    [1549071,"2026-04-05 21:40:00","1781","0.778","217.3","1.699","231.1","1025.607","16.17","59.16","NAN","0.0"],
    [1549072,"2026-04-05 21:50:00","1782","0.8220000000000001","214.3","1.339","214.2","1025.615","15.88","62.52","NAN","0.0"],
    [1549073,"2026-04-05 22:00:00","1783","0.564","216.8","1.176","206.4","1025.654","15.78","61.68","NAN","0.0"],
    [1549074,"2026-04-05 22:10:00","1784","0.46299999999999997","213.8","1.535","225.4","1025.684","15.72","62.4","NAN","0.0"],
    [1549075,"2026-04-05 22:20:00","1785","0.379","195.9","0.98","196.0","1025.672","15.46","65.56","NAN","0.0"],
    [1549076,"2026-04-05 22:30:00","1786","0.631","205.0","1.3719999999999999","239.4","1025.729","15.33","66.17","NAN","0.0"],
    [1549077,"2026-04-05 22:40:00","1787","0.818","236.7","1.7309999999999999","255.4","1025.733","15.34","65","NAN","0.0"],
    [1549078,"2026-04-05 22:50:00","1788","0.9640000000000001","236.3","2.548","244.6","1025.734","15.62","62.8","NAN","0.0"],
    [1549079,"2026-04-05 23:00:00","1789","0.56","213.0","1.405","268.9","1025.738","15.43","63.76","NAN","0.0"],
    [1549080,"2026-04-05 23:10:00","1790","0.327","219.9","1.176","249.5","1025.736","15.18","64.84","NAN","0.0"],
    [1549081,"2026-04-05 23:20:00","1791","0.667","176.9","1.111","202.6","1025.757","15.11","65.14","NAN","0.0"],
    [1549082,"2026-04-05 23:30:00","1792","0.419","208.2","0.7190000000000001","198.8","1025.739","14.98","66.35","NAN","0.0"],
    [1549083,"2026-04-05 23:40:00","1793","0.308","177.6","0.653","160.9","1025.786","14.75","68.9","NAN","0.0"],
    [1549084,"2026-04-05 23:50:00","1794","0.036000000000000004","188.2","0.359","181.3","1025.9289999999999","14.48","67.87","NAN","0.0"],
    [1549085,"2026-04-06 00:00:00","1795","0.316","287.5","1.111","255.3","1025.999","14.54","64.48","NAN","0.0"],
    [1549086,"2026-04-06 00:10:00","1796","0.312","232.9","0.9470000000000001","239.9","1025.955","15.04","62.26","NAN","0.0"],
    [1549087,"2026-04-06 00:20:00","1797","0.638","210.0","1.176","197.5","1025.882","14.82","65.72","NAN","0.0"],
    [1549088,"2026-04-06 00:30:00","1798","0.935","196.3","1.209","199.7","1025.816","14.54","67.51","NAN","0.0"],
    [1549089,"2026-04-06 00:40:00","1799","0.509","206.7","1.143","201.4","1025.765","14.37","66.33","NAN","0.0"],
    [1549090,"2026-04-06 00:50:00","1800","0.516","188.3","0.784","181.9","1025.759","14.46","64.56","NAN","0.0"],
    [1549091,"2026-04-06 01:00:00","1801","0.5329999999999999","191.8","0.8490000000000001","185.0","1025.704","14.26","65.38","NAN","0.0"],
    [1549092,"2026-04-06 01:10:00","1802","0.517","183.9","0.784","177.5","1025.655","14.1","67.5","NAN","0.0"],
    [1549093,"2026-04-06 01:20:00","1803","0.275","188.3","0.523","193.5","1025.637","13.92","66.14","NAN","0.0"],
    [1549094,"2026-04-06 01:30:00","1804","0.462","190.6","0.8490000000000001","183.5","1025.546","13.89","66.62","NAN","0.0"],
    [1549095,"2026-04-06 01:40:00","1805","0.297","187.1","0.8170000000000001","193.0","1025.5439999999999","13.75","66.56","NAN","0.0"],
    [1549096,"2026-04-06 01:50:00","1806","0.47","188.3","0.8170000000000001","186.3","1025.518","13.67","66.4","NAN","0.0"],
    [1549097,"2026-04-06 02:00:00","1807","0.08199999999999999","187.2","0.588","191.4","1025.424","13.68","65.85","NAN","0.0"],
    [1549098,"2026-04-06 02:10:00","1808","0.235","189.8","0.588","183.1","1025.318","13.68","65.34","NAN","0.0"],
    [1549099,"2026-04-06 02:20:00","1809","0.27","208.6","0.915","220.0","1025.298","13.56","65.88","NAN","0.0"],
    [1549100,"2026-04-06 02:30:00","1810","0.628","193.1","0.98","180.1","1025.225","13.44","64.84","NAN","0.0"],
    [1549101,"2026-04-06 02:40:00","1811","0.21100000000000002","210.3","0.555","200.9","1025.1580000000001","13.1","65.6","NAN","0.0"],
    [1549102,"2026-04-06 02:50:00","1812","0.0","0.0","0.0","0.0","1025.172","12.85","66.4","NAN","0.0"],
    [1549103,"2026-04-06 03:00:00","1813","0.0","0.0","0.0","0.0","1025.098","12.71","67.46","NAN","0.0"],
    [1549104,"2026-04-06 03:10:00","1814","0.0","0.0","0.0","0.0","1025.066","12.73","69.57","NAN","0.0"],
    [1549105,"2026-04-06 03:20:00","1815","0.22","191.1","0.6859999999999999","194.8","1025.056","12.74","68.97","NAN","0.0"],
    [1549106,"2026-04-06 03:30:00","1816","0.14400000000000002","200.8","0.7190000000000001","204.2","1024.972","12.65","68.54","NAN","0.0"],
    [1549107,"2026-04-06 03:40:00","1817","0.06","159.4","0.523","183.0","1024.943","12.42","69.52","NAN","0.0"],
    [1549108,"2026-04-06 03:50:00","1818","0.124","217.1","0.6859999999999999","224.2","1024.932","12.25","69.55","NAN","0.0"],
    [1549109,"2026-04-06 04:00:00","1819","0.285","202.5","0.621","202.0","1024.923","12.61","68.61","NAN","0.0"],
    [1549110,"2026-04-06 04:10:00","1820","0.109","190.1","0.588","186.0","1024.822","12.6","69.74","NAN","0.0"],
    [1549111,"2026-04-06 04:20:00","1821","0.231","192.0","0.523","209.4","1024.807","12.51","69.77","NAN","0.0"],
    [1549112,"2026-04-06 04:30:00","1822","0.397","184.4","0.882","187.3","1024.807","12.49","71.14","NAN","0.0"],
    [1549113,"2026-04-06 04:40:00","1823","0.61","203.8","1.143","190.2","1024.807","12.44","71.86","NAN","0.0"],
    [1549114,"2026-04-06 04:50:00","1824","0.5539999999999999","197.8","1.045","207.7","1024.807","12.44","72.79","NAN","0.0"],
    [1549115,"2026-04-06 05:00:00","1825","0.5","199.6","0.882","204.1","1024.807","12.26","72.09","NAN","0.0"],
    [1549116,"2026-04-06 05:10:00","1826","0.667","200.5","1.045","208.3","1024.807","12.27","71.95","NAN","0.0"],
    [1549117,"2026-04-06 05:20:00","1827","0.293","181.0","0.621","191.1","1024.867","12.25","71.81","NAN","0.0"],
    [1549118,"2026-04-06 05:30:00","1828","0.562","198.9","1.895","252.4","1024.933","12.29","72.14","NAN","0.0"],
    [1549119,"2026-04-06 05:40:00","1829","0.7859999999999999","247.6","2.123","238.3","1025.026","13.25","65.5","NAN","0.0"],
    [1549120,"2026-04-06 05:50:00","1830","0.955","246.0","1.8619999999999999","246.6","1025.053","13.93","61.34","NAN","0.0"],
    [1549121,"2026-04-06 06:00:00","1831","1.002","248.1","1.829","251.4","1025.057","14.19","59.84","NAN","0.0"],
    [1549122,"2026-04-06 06:10:00","1832","0.67","220.2","1.993","234.6","1025.1580000000001","14.51","59.06","NAN","0.0"],
    [1549123,"2026-04-06 06:20:00","1833","0.401","198.6","1.013","202.2","1025.231","14.42","63.16","NAN","0.0"],
    [1549124,"2026-04-06 06:30:00","1834","0.703","198.4","1.274","198.9","1025.278","14.18","63.76","NAN","0.0"],
    [1549125,"2026-04-06 06:40:00","1835","0.7959999999999999","191.0","1.307","188.3","1025.333","13.74","65.87","NAN","0.0"],
    [1549126,"2026-04-06 06:50:00","1836","0.691","182.2","0.98","173.6","1025.397","13.93","64.87","NAN","0.0"],
    [1549127,"2026-04-06 07:00:00","1837","0.594","188.4","1.111","175.8","1025.4189999999999","14.49","62.43","NAN","0.0"],
    [1549128,"2026-04-06 07:10:00","1838","0.787","190.3","1.111","181.3","1025.441","14.91","60.91","NAN","0.0"],
    [1549129,"2026-04-06 07:20:00","1839","0.894","185.9","1.47","186.4","1025.493","15.48","58.27","NAN","0.0"],
    [1549130,"2026-04-06 07:30:00","1840","1.196","191.5","2.0580000000000003","189.2","1025.54","15.71","57.69","NAN","0.0"],
    [1549131,"2026-04-06 07:40:00","1841","1.274","196.4","2.319","258.1","1025.575","15.97","56.94","NAN","0.0"],
    [1549132,"2026-04-06 07:50:00","1842","0.992","218.4","2.679","249.9","1025.595","16.75","53.65","NAN","0.0"],
    [1549133,"2026-04-06 08:00:00","1843","1.287","237.4","3.5610000000000004","233.6","1025.647","17.27","51.11","NAN","0.0"],
    [1549134,"2026-04-06 08:10:00","1844","1.281","220.5","3.593","220.9","1025.657","17.5","51.62","NAN","0.0"],
    [1549135,"2026-04-06 08:20:00","1845","1.53","212.7","3.234","205.4","1025.655","17.74","52.63","NAN","0.0"],
    [1549136,"2026-04-06 08:30:00","1846","1.798","216.5","3.332","227.5","1025.652","17.91","52.72","NAN","0.0"],
    [1549137,"2026-04-06 08:40:00","1847","1.298","221.8","3.528","221.2","1025.645","18.12","54.39","NAN","0.0"],
    [1549138,"2026-04-06 08:50:00","1848","1.4409999999999998","221.6","3.201","226.4","1025.64","18.43","53.67","NAN","0.0"],
    [1549139,"2026-04-06 09:00:00","1849","2.0069999999999997","227.8","3.6260000000000003","226.0","1025.607","18.56","53.03","NAN","0.0"],
    [1549140,"2026-04-06 09:10:00","1850","2.234","228.1","4.312","240.6","1025.595","18.79","52.39","NAN","0.0"],
    [1549141,"2026-04-06 09:20:00","1851","1.5119999999999998","216.5","2.875","177.7","1025.66","19.38","52.49","NAN","0.0"],
    [1549142,"2026-04-06 09:30:00","1852","1.53","183.8","2.515","165.8","1025.66","19.2","57.31","NAN","0.0"],
    [1549143,"2026-04-06 09:40:00","1853","2.313","175.1","3.332","165.1","1025.657","19.21","56.12","NAN","0.0"],
    [1549144,"2026-04-06 09:50:00","1854","2.676","173.0","3.985","181.8","1025.66","18.76","59.34","NAN","0.0"],
    [1549145,"2026-04-06 10:00:00","1855","2.67","171.5","4.181","180.3","1025.637","18.54","60.46","NAN","0.0"],
    [1549146,"2026-04-06 10:10:00","1856","2.8310000000000004","174.3","4.835","172.4","1025.5330000000001","18.44","61.21","NAN","0.0"],
    [1549147,"2026-04-06 10:20:00","1857","2.935","176.3","4.508","187.4","1025.528","18.66","60.25","NAN","0.0"],
    [1549148,"2026-04-06 10:30:00","1858","2.662","179.1","4.573","181.3","1025.535","18.29","62.82","NAN","0.0"],
    [1549149,"2026-04-06 10:40:00","1859","2.162","182.1","3.822","170.6","1025.478","18.99","59.71","NAN","0.0"],
    [1549150,"2026-04-06 10:50:00","1860","2.45","174.8","4.2139999999999995","177.0","1025.385","19.14","57.69","NAN","0.0"],
    [1549151,"2026-04-06 11:00:00","1861","2.8510000000000004","172.5","4.573","163.3","1025.326","19.36","55.64","NAN","0.0"],
    [1549152,"2026-04-06 11:10:00","1862","3.265","171.1","4.638999999999999","176.7","1025.326","18.8","58.73","NAN","0.0"],
    [1549153,"2026-04-06 11:20:00","1863","2.92","176.4","6.599","181.1","1025.279","19.14","56.02","NAN","0.0"],
    [1549154,"2026-04-06 11:30:00","1864","2.823","178.1","5.422999999999999","177.3","1025.2060000000001","19.71","52.64","NAN","0.0"],
    [1549155,"2026-04-06 11:40:00","1865","2.682","189.3","4.704","194.9","1025.162","20.3","47.53","NAN","0.0"],
    [1549156,"2026-04-06 11:50:00","1866","3.1","190.6","5.651","178.0","1025.157","20.55","44.36","NAN","0.0"],
    [1549157,"2026-04-06 12:00:00","1867","2.9189999999999996","194.6","5.815","182.3","1025.114","20.83","42.53","NAN","0.0"],
    [1549158,"2026-04-06 12:10:00","1868","2.924","196.8","5.063","182.2","1025.049","21.22","40.52","NAN","0.0"],
    [1549159,"2026-04-06 12:20:00","1869","2.786","193.3","5.194","181.7","1024.922","21.2","40.9","NAN","0.0"],
    [1549160,"2026-04-06 12:30:00","1870","2.972","190.2","5.096","169.6","1024.85","21.17","40.56","NAN","0.0"],
    [1549161,"2026-04-06 12:40:00","1871","3.155","186.2","5.422999999999999","179.5","1024.8","21.14","40.95","NAN","0.0"],
    [1549162,"2026-04-06 12:50:00","1872","3.22","190.4","6.272","190.9","1024.738","21","41.14","NAN","0.0"],
    [1549163,"2026-04-06 13:00:00","1873","3.17","190.8","5.782","172.1","1024.598","21.07","40.37","NAN","0.0"],
    [1549164,"2026-04-06 13:10:00","1874","3.178","192.6","5.651","185.6","1024.422","21.16","39.46","NAN","0.0"],
    [1549165,"2026-04-06 13:20:00","1875","3.05","190.4","5.7170000000000005","169.1","1024.299","21.16","40.16","NAN","0.0"],
    [1549166,"2026-04-06 13:30:00","1876","3.0180000000000002","190.9","5.978","188.0","1024.192","21.06","41.31","NAN","0.0"],
    [1549167,"2026-04-06 13:40:00","1877","3.71","191.2","6.5329999999999995","197.0","1024.162","20.75","42.6","NAN","0.0"],
    [1549168,"2026-04-06 13:50:00","1878","3.616","194.2","6.501","177.0","1024.135","20.68","41.88","NAN","0.0"],
    [1549169,"2026-04-06 14:00:00","1879","3.449","192.9","5.651","195.2","1024.025","20.67","41.83","NAN","0.0"],
    [1549170,"2026-04-06 14:10:00","1880","3.01","190.1","5.88","191.3","1023.939","20.57","43.22","NAN","0.0"],
    [1549171,"2026-04-06 14:20:00","1881","3.241","182.4","6.207000000000001","181.2","1023.919","20.36","44.93","NAN","0.0"],
    [1549172,"2026-04-06 14:30:00","1882","3.362","174.1","5.455","173.9","1023.8939999999999","19.51","49.9","NAN","0.0"],
    [1549173,"2026-04-06 14:40:00","1883","3.533","173.5","6.011","174.7","1023.804","19.32","50.93","NAN","0.0"],
    [1549174,"2026-04-06 14:50:00","1884","2.6189999999999998","183.6","5.031000000000001","180.1","1023.7689999999999","19.63","49.49","NAN","0.0"],
    [1549175,"2026-04-06 15:00:00","1885","3.1639999999999997","173.2","4.638999999999999","171.1","1023.672","19.42","50.42","NAN","0.0"],
    [1549176,"2026-04-06 15:10:00","1886","3.364","171.4","4.802","179.7","1023.6439999999999","19.03","52.8","NAN","0.0"],
    [1549177,"2026-04-06 15:20:00","1887","2.7539999999999996","178.0","4.737","185.9","1023.545","19.09","51.56","NAN","0.0"],
    [1549178,"2026-04-06 15:30:00","1888","2.509","174.4","3.985","171.1","1023.43","19.44","49.45","NAN","0.0"],
    [1549179,"2026-04-06 15:40:00","1889","2.414","179.8","3.822","185.5","1023.403","19.46","48.76","NAN","0.0"],
    [1549180,"2026-04-06 15:50:00","1890","2.6660000000000004","176.1","4.704","179.1","1023.303","19.41","49.51","NAN","0.0"],
    [1549181,"2026-04-06 16:00:00","1891","3.0","173.7","4.41","173.1","1023.2660000000001","18.78","53.48","NAN","0.0"],
    [1549182,"2026-04-06 16:10:00","1892","2.847","170.2","4.377","188.4","1023.2339999999999","18.74","53.24","NAN","0.0"],
    [1549183,"2026-04-06 16:20:00","1893","2.681","170.4","4.41","166.3","1023.189","18.16","57.8","NAN","0.0"],
    [1549184,"2026-04-06 16:30:00","1894","2.146","177.4","3.1689999999999996","167.3","1023.169","18.26","56.06","NAN","0.0"],
    [1549185,"2026-04-06 16:40:00","1895","2.0980000000000003","187.4","3.9530000000000003","185.3","1023.172","18.53","52.97","NAN","0.0"],
    [1549186,"2026-04-06 16:50:00","1896","2.15","195.2","3.92","176.2","1023.204","18.53","52.72","NAN","0.0"],
    [1549187,"2026-04-06 17:00:00","1897","2.735","192.5","5.357","201.4","1023.169","18.27","52.44","NAN","0.0"],
    [1549188,"2026-04-06 17:10:00","1898","2.094","192.3","4.4430000000000005","184.9","1023.171","18.18","52.01","NAN","0.0"],
    [1549189,"2026-04-06 17:20:00","1899","2.21","179.8","3.887","184.5","1023.176","18.03","54.31","NAN","0.0"],
    [1549190,"2026-04-06 17:30:00","1900","2.352","173.4","3.528","168.2","1023.169","17.55","59.3","NAN","0.0"],
    [1549191,"2026-04-06 17:40:00","1901","2.101","172.1","3.103","170.3","1023.171","17.07","63.16","NAN","0.0"],
    [1549192,"2026-04-06 17:50:00","1902","1.607","189.4","2.613","202.5","1023.169","17.22","58.31","NAN","0.0"],
    [1549193,"2026-04-06 18:00:00","1903","1.594","188.4","3.005","178.7","1023.1469999999999","17.23","57.21","NAN","0.0"],
    [1549194,"2026-04-06 18:10:00","1904","1.494","188.6","2.515","181.1","1023.107","17.18","55.95","NAN","0.0"],
    [1549195,"2026-04-06 18:20:00","1905","1.136","185.8","2.875","167.7","1023.164","17.07","56.81","NAN","0.0"],
    [1549196,"2026-04-06 18:30:00","1906","1.3159999999999998","194.6","2.385","206.5","1023.221","16.88","57.4","NAN","0.0"],
    [1549197,"2026-04-06 18:40:00","1907","1.426","207.1","2.875","196.0","1023.24","16.82","56.02","NAN","0.0"],
    [1549198,"2026-04-06 18:50:00","1908","1.739","209.9","3.365","219.0","1023.2389999999999","16.84","54.2","NAN","0.0"],
    [1549199,"2026-04-06 19:00:00","1909","1.635","203.2","2.613","214.4","1023.29","16.74","53.39","NAN","0.0"],
    [1549200,"2026-04-06 19:10:00","1910","1.459","199.3","2.7439999999999998","203.0","1023.3330000000001","16.6","54.35","NAN","0.0"],
    [1549201,"2026-04-06 19:20:00","1911","1.268","204.1","2.319","187.3","1023.447","16.51","54.82","NAN","0.0"],
    [1549202,"2026-04-06 19:30:00","1912","0.614","212.7","1.307","211.2","1023.5169999999999","16.37","56.22","NAN","0.0"],
    [1549203,"2026-04-06 19:40:00","1913","1.34","248.6","2.7439999999999998","243.2","1023.592","16.47","54.23","NAN","0.0"],
    [1549204,"2026-04-06 19:50:00","1914","1.3869999999999998","248.5","2.123","249.1","1023.6569999999999","16.5","56.81","NAN","0.0"],
    [1549205,"2026-04-06 20:00:00","1915","1.272","243.0","2.5810000000000004","242.5","1023.721","16.45","58.06","NAN","0.0"],
    [1549206,"2026-04-06 20:10:00","1916","0.626","225.3","1.699","267.7","1023.7389999999999","16.47","57.48","NAN","0.0"],
    [1549207,"2026-04-06 20:20:00","1917","0.39799999999999996","211.4","0.8170000000000001","213.9","1023.742","16.21","58.46","NAN","0.0"],
    [1549208,"2026-04-06 20:30:00","1918","0.38","226.9","1.176","229.7","1023.7389999999999","16.23","58.31","NAN","0.0"],
    [1549209,"2026-04-06 20:40:00","1919","0.361","170.5","0.8170000000000001","247.6","1023.7239999999999","16.18","58.26","NAN","0.0"],
    [1549210,"2026-04-06 20:50:00","1920","0.5820000000000001","190.1","1.176","243.4","1023.659","15.98","58.9","NAN","0.0"],
    [1549211,"2026-04-06 21:00:00","1921","0.747","224.4","1.47","228.1","1023.655","15.93","60.43","NAN","0.0"],
    [1549212,"2026-04-06 21:10:00","1922","0.586","210.2","0.9470000000000001","251.4","1023.623","15.78","61.99","NAN","0.0"],
    [1549213,"2026-04-06 21:20:00","1923","0.77","231.3","1.47","236.8","1023.623","15.77","62.55","NAN","0.0"],
    [1549214,"2026-04-06 21:30:00","1924","0.397","228.0","1.045","230.2","1023.63","15.95","60.68","NAN","0.0"],
    [1549215,"2026-04-06 21:40:00","1925","0.23199999999999998","193.4","0.7190000000000001","203.4","1023.7230000000001","15.65","62.41","NAN","0.0"],
    [1549216,"2026-04-06 21:50:00","1926","0.45","211.7","0.8490000000000001","211.4","1023.7810000000001","15.48","62.04","NAN","0.0"],
    [1549217,"2026-04-06 22:00:00","1927","0.013000000000000001","245.2","0.261","249.9","1023.783","15.34","61.3","NAN","0.0"],
    [1549218,"2026-04-06 22:10:00","1928","0.122","179.6","0.425","174.7","1023.803","15.31","60.62","NAN","0.0"],
    [1549219,"2026-04-06 22:20:00","1929","0.09300000000000001","93.3","0.49","91.5","1023.762","15.23","60.81","NAN","0.0"],
    [1549220,"2026-04-06 22:30:00","1930","0.33399999999999996","115.2","0.98","114.2","1023.7139999999999","15.07","64.13","NAN","0.0"],
    [1549221,"2026-04-06 22:40:00","1931","0.245","104.0","0.588","112.9","1023.753","15.04","67.22","NAN","0.0"],
    [1549222,"2026-04-06 22:50:00","1932","0.27","104.4","0.7509999999999999","91.6","1023.7760000000001","15.03","72.25","NAN","0.0"],
    [1549223,"2026-04-06 23:00:00","1933","0.292","122.1","0.588","121.5","1023.868","14.94","74.52","NAN","0.0"],
    [1549224,"2026-04-06 23:10:00","1934","0.07","121.0","0.49","115.5","1023.8439999999999","14.79","75.59","NAN","0.0"],
    [1549225,"2026-04-06 23:20:00","1935","0.073","184.0","0.392","183.5","1023.783","14.64","79.87","NAN","0.0"],
    [1549226,"2026-04-06 23:30:00","1936","0.0","0.0","0.0","0.0","1023.798","14.39","83.9","NAN","0.0"],
    [1549227,"2026-04-06 23:40:00","1937","0.0","0.0","0.0","0.0","1023.77","14.28","83.7","NAN","0.0"],
    [1549228,"2026-04-06 23:50:00","1938","0.068","240.3","0.392","231.6","1023.7260000000001","14.17","83.7","NAN","0.0"],
    [1549229,"2026-04-07 00:00:00","1939","0.0","0.0","0.0","0.0","1023.7510000000001","14.18","83.7","NAN","0.0"],
    [1549230,"2026-04-07 00:10:00","1940","0.183","55.65","0.523","56.69","1023.632","13.8","79.23","NAN","0.0"],
    [1549231,"2026-04-07 00:20:00","1941","0.068","55.34","0.588","45.92","1023.554","13.65","66.75","NAN","0.0"],
    [1549232,"2026-04-07 00:30:00","1942","0.0","0.0","0.0","0.0","1023.4639999999999","13.94","66.41","NAN","0.0"],
    [1549233,"2026-04-07 00:40:00","1943","0.39799999999999996","195.7","0.653","199.8","1023.437","14.15","73.35","NAN","0.0"],
    [1549234,"2026-04-07 00:50:00","1944","0.154","184.9","0.392","180.6","1023.431","13.81","73.17","NAN","0.0"],
    [1549235,"2026-04-07 01:00:00","1945","0.0","0.0","0.0","0.0","1023.325","13.39","71.75","NAN","0.0"],
    [1549236,"2026-04-07 01:10:00","1946","0.312","72.37","0.784","65.57","1023.202","13.6","66.22","NAN","0.0"],
    [1549237,"2026-04-07 01:20:00","1947","0.307","68.0","0.6859999999999999","84.3","1023.052","13.63","61.87","NAN","0.0"],
    [1549238,"2026-04-07 01:30:00","1948","0.5670000000000001","60.95","0.882","57.14","1022.8960000000001","13.61","60.1","NAN","0.0"],
    [1549239,"2026-04-07 01:40:00","1949","0.515","35.75","1.3719999999999999","28.07","1022.742","13.57","59.87","NAN","0.0"],
    [1549240,"2026-04-07 01:50:00","1950","0.735","24.55","1.5030000000000001","15.06","1022.5189999999999","13.87","58.07","NAN","0.0"],
    [1549241,"2026-04-07 02:00:00","1951","1.036","11.39","2.45","19.47","1022.434","14.04","56.63","NAN","0.0"],
    [1549242,"2026-04-07 02:10:00","1952","1.248","6.85","2.189","4.438","1022.428","14.1","55.66","NAN","0.0"],
    [1549243,"2026-04-07 02:20:00","1953","1.238","6.397","2.352","32.61","1022.37","14.01","55.19","NAN","0.0"],
    [1549244,"2026-04-07 02:30:00","1954","1.3119999999999998","4.466","2.254","358.7","1022.318","14.01","54.92","NAN","0.0"],
    [1549245,"2026-04-07 02:40:00","1955","1.544","1.954","2.45","11.6","1022.2330000000001","13.84","55.37","NAN","0.0"],
    [1549246,"2026-04-07 02:50:00","1956","1.645","5.143","2.842","16.02","1022.069","13.63","56.19","NAN","0.0"],
    [1549247,"2026-04-07 03:00:00","1957","1.7830000000000001","8.81","2.94","8.11","1021.867","13.48","56.56","NAN","0.0"],
    [1549248,"2026-04-07 03:10:00","1958","1.6480000000000001","4.5280000000000005","2.7439999999999998","353.3","1021.757","13.43","56.25","NAN","0.0"],
    [1549249,"2026-04-07 03:20:00","1959","1.574","6.6","2.842","3.653","1021.6469999999999","13.48","55.65","NAN","0.0"],
    [1549250,"2026-04-07 03:30:00","1960","1.151","357.9","2.7110000000000003","1.554","1021.563","13.47","55.4","NAN","0.0"],
    [1549251,"2026-04-07 03:40:00","1961","0.873","354.3","2.189","29.96","1021.545","13.42","55.35","NAN","0.0"],
    [1549252,"2026-04-07 03:50:00","1962","0.941","0.284","1.666","4.084","1021.5","13.49","55","NAN","0.0"],
    [1549253,"2026-04-07 04:00:00","1963","0.9640000000000001","2.392","1.5030000000000001","0.785","1021.443","13.58","54.89","NAN","0.0"],
    [1549254,"2026-04-07 04:10:00","1964","0.9109999999999999","5.999","1.666","356.2","1021.443","13.56","54.84","NAN","0.0"],
    [1549255,"2026-04-07 04:20:00","1965","0.402","7.921","0.9470000000000001","3.4610000000000003","1021.3580000000001","13.45","55.2","NAN","0.0"],
    [1549256,"2026-04-07 04:30:00","1966","0.27399999999999997","34.25","0.915","5.608","1021.3439999999999","13.12","55.93","NAN","0.0"],
    [1549257,"2026-04-07 04:40:00","1967","0.17","261.1","0.653","337.9","1021.438","12.78","58.49","NAN","0.0"],
    [1549258,"2026-04-07 04:50:00","1968","0.006999999999999999","60.19","0.261","47.81","1021.443","12.62","60.71","NAN","0.0"],
    [1549259,"2026-04-07 05:00:00","1969","0.031","25.26","0.7509999999999999","22.24","1021.4810000000001","12.56","63.03","NAN","0.0"],
    [1549260,"2026-04-07 05:10:00","1970","0.5760000000000001","358.2","1.3719999999999999","13.08","1021.565","12.8","56.47","NAN","0.0"],
    [1549261,"2026-04-07 05:20:00","1971","0.8240000000000001","7.087999999999999","1.47","15.08","1021.67","12.86","55.09","NAN","0.0"],
    [1549262,"2026-04-07 05:30:00","1972","0.741","28.88","1.797","27.89","1021.725","12.57","56.34","NAN","0.0"],
    [1549263,"2026-04-07 05:40:00","1973","0.7490000000000001","13.51","1.8619999999999999","28.25","1021.827","12.39","56.62","NAN","0.0"],
    [1549264,"2026-04-07 05:50:00","1974","1.0270000000000001","2.242","1.666","352.2","1022.0269999999999","12.43","56.05","NAN","0.0"],
    [1549265,"2026-04-07 06:00:00","1975","0.733","1.479","1.535","347.9","1022.079","12.57","55.38","NAN","0.0"],
    [1549266,"2026-04-07 06:10:00","1976","0.982","3.4810000000000003","1.4369999999999998","3.077","1022.196","12.71","54.91","NAN","0.0"],
    [1549267,"2026-04-07 06:20:00","1977","0.715","18.92","1.176","26.96","1022.301","13.08","54.43","NAN","0.0"],
    [1549268,"2026-04-07 06:30:00","1978","0.665","29.62","1.143","23.76","1022.301","13.53","52.94","NAN","0.0"],
    [1549269,"2026-04-07 06:40:00","1979","1.0290000000000001","16.66","1.797","349.2","1022.3330000000001","13.7","51.76","NAN","0.0"],
    [1549270,"2026-04-07 06:50:00","1980","1.1909999999999998","5.989","2.156","355.2","1022.335","13.97","50.21","NAN","0.0"],
    [1549271,"2026-04-07 07:00:00","1981","1.177","359.9","2.0909999999999997","13.73","1022.327","14.21","49.25","NAN","0.0"],
    [1549272,"2026-04-07 07:10:00","1982","1.072","32.39","2.352","14.48","1022.3","14.91","46.42","NAN","0.0"],
    [1549273,"2026-04-07 07:20:00","1983","1.216","45.27","2.0909999999999997","49.25","1022.312","15.35","45.54","NAN","0.0"],
    [1549274,"2026-04-07 07:30:00","1984","1.319","50.74","2.189","45.41","1022.414","15.92","43.22","NAN","0.0"],
    [1549275,"2026-04-07 07:40:00","1985","1.604","50.12","2.385","68.91","1022.435","16.13","42.38","NAN","0.0"],
    [1549276,"2026-04-07 07:50:00","1986","1.5330000000000001","48.01","2.515","20.93","1022.541","16.4","41.02","NAN","0.0"],
    [1549277,"2026-04-07 08:00:00","1987","1.4080000000000001","51.87","2.221","72.1","1022.564","16.8","40.67","NAN","0.0"],
    [1549278,"2026-04-07 08:10:00","1988","1.246","49.89","2.483","39.38","1022.668","17","41.05","NAN","0.0"],
    [1549279,"2026-04-07 08:20:00","1989","1.479","85.2","3.267","69.34","1022.676","17.52","41.46","NAN","0.0"],
    [1549280,"2026-04-07 08:30:00","1990","2.335","88.1","3.5610000000000004","73.38","1022.676","17.23","46.48","NAN","0.0"],
    [1549281,"2026-04-07 08:40:00","1991","2.04","86.8","3.463","71.66","1022.701","16.98","50.99","NAN","0.0"],
    [1549282,"2026-04-07 08:50:00","1992","2.312","88.1","3.528","93.0","1022.73","16.84","53.25","NAN","0.0"],
    [1549283,"2026-04-07 09:00:00","1993","2.077","86.2","3.5610000000000004","82.0","1022.698","17.01","55.73","NAN","0.0"],
    [1549284,"2026-04-07 09:10:00","1994","2.28","93.3","3.985","94.4","1022.743","16.82","57.53","NAN","0.0"],
    [1549285,"2026-04-07 09:20:00","1995","2.248","89.5","4.051","93.2","1022.803","16.72","58.96","NAN","0.0"],
    [1549286,"2026-04-07 09:30:00","1996","2.434","88.4","3.92","104.3","1022.8580000000001","16.58","60.79","NAN","0.0"],
    [1549287,"2026-04-07 09:40:00","1997","2.457","83.6","3.7569999999999997","93.3","1022.873","16.54","63.19","NAN","0.0"],
    [1549288,"2026-04-07 09:50:00","1998","2.025","78.5","3.7569999999999997","93.8","1022.88","16.69","65.31","NAN","0.0"],
    [1549289,"2026-04-07 10:00:00","1999","2.68","78.89","4.1160000000000005","72.21","1022.773","16.47","68.15","NAN","0.0"],
    [1549290,"2026-04-07 10:10:00","2000","2.34","96.0","4.247","112.8","1022.673","16.63","69.8","NAN","0.0"],
    [1549291,"2026-04-07 10:20:00","2001","2.193","85.5","3.6910000000000003","74.3","1022.668","16.7","69.74","NAN","0.0"],
    [1549292,"2026-04-07 10:30:00","2002","1.8319999999999999","95.4","3.887","105.8","1022.643","17.16","71.13","NAN","0.0"],
    [1549293,"2026-04-07 10:40:00","2003","2.447","95.5","3.855","95.8","1022.6210000000001","16.66","72.39","NAN","0.0"],
    [1549294,"2026-04-07 10:50:00","2004","2.602","94.6","4.573","107.7","1022.466","16.58","73.41","NAN","0.0"],
    [1549295,"2026-04-07 11:00:00","2005","2.378","87.1","4.41","75.59","1022.2669999999999","16.76","73.84","NAN","0.0"],
    [1549296,"2026-04-07 11:10:00","2006","2.2159999999999997","88.1","4.279","104.4","1022.173","16.86","73.23","NAN","0.0"],
    [1549297,"2026-04-07 11:20:00","2007","2.026","83.3","3.822","73.62","1022.165","17.02","73.47","NAN","0.0"],
    [1549298,"2026-04-07 11:30:00","2008","2.5869999999999997","86.1","4.181","72.08","1021.9730000000001","16.7","75.78","NAN","0.0"],
    [1549299,"2026-04-07 11:40:00","2009","2.176","86.0","3.659","70.88","1021.924","16.97","74.64","NAN","0.0"],
    [1549300,"2026-04-07 11:50:00","2010","1.886","91.6","3.267","73.65","1021.8739999999999","17.14","74.33","NAN","0.0"],
    [1549301,"2026-04-07 12:00:00","2011","1.989","90.6","3.855","70.11","1021.7689999999999","17.49","72.86","NAN","0.0"],
    [1549302,"2026-04-07 12:10:00","2012","2.301","96.0","4.41","115.4","1021.702","17.22","74.54","NAN","0.0"],
    [1549303,"2026-04-07 12:20:00","2013","2.4219999999999997","113.0","4.051","121.7","1021.675","16.62","79","NAN","0.0"],
    [1549304,"2026-04-07 12:30:00","2014","2.283","115.8","3.855","108.1","1021.675","16.72","78.88","NAN","0.0"],
    [1549305,"2026-04-07 12:40:00","2015","2.5180000000000002","115.0","4.2139999999999995","117.9","1021.665","16.59","79.75","NAN","0.0"],
    [1549306,"2026-04-07 12:50:00","2016","2.282","110.2","4.018","120.0","1021.597","16.72","79.45","NAN","0.0"],
    [1549307,"2026-04-07 13:00:00","2017","2.313","111.1","3.985","113.7","1021.56","16.9","78.26","NAN","0.0"],
    [1549308,"2026-04-07 13:10:00","2018","2.01","108.3","3.887","115.0","1021.443","17.03","76.25","NAN","0.0"],
    [1549309,"2026-04-07 13:20:00","2019","2.063","93.8","3.463","89.0","1021.326","17.46","72.13","NAN","0.0"],
    [1549310,"2026-04-07 13:30:00","2020","2.49","90.3","3.855","69.87","1021.199","17.28","69.65","NAN","0.0"],
    [1549311,"2026-04-07 13:40:00","2021","2.391","80.9","3.7889999999999997","65.13","1021.154","17.34","69.33","NAN","0.0"],
    [1549312,"2026-04-07 13:50:00","2022","2.411","79.05","4.573","72.31","1020.9639999999999","17.39","66.4","NAN","0.0"],
    [1549313,"2026-04-07 14:00:00","2023","2.678","79.99","3.9530000000000003","84.7","1020.9169999999999","17.39","66.84","NAN","0.0"],
    [1549314,"2026-04-07 14:10:00","2024","2.8930000000000002","74.65","4.475","73.55","1020.78","17.07","70.76","NAN","0.0"],
    [1549315,"2026-04-07 14:20:00","2025","2.162","98.1","4.181","114.8","1020.778","17.29","73.52","NAN","0.0"],
    [1549316,"2026-04-07 14:30:00","2026","2.155","92.4","3.822","78.65","1020.678","17.17","74.06","NAN","0.0"],
    [1549317,"2026-04-07 14:40:00","2027","1.745","112.4","3.495","117.0","1020.668","17.2","74.73","NAN","0.0"],
    [1549318,"2026-04-07 14:50:00","2028","2.073","113.7","3.6910000000000003","106.9","1020.586","17.05","74.48","NAN","0.0"],
    [1549319,"2026-04-07 15:00:00","2029","1.804","120.7","3.495","118.1","1020.4839999999999","17.05","74.41","NAN","0.0"],
    [1549320,"2026-04-07 15:10:00","2030","1.8969999999999998","112.9","3.5610000000000004","111.0","1020.414","16.91","74.78","NAN","0.0"],
    [1549321,"2026-04-07 15:20:00","2031","2.006","117.5","3.5610000000000004","122.4","1020.342","17","72.57","NAN","0.0"],
    [1549322,"2026-04-07 15:30:00","2032","1.6740000000000002","89.4","3.071","77.72","1020.222","17.2","68.98","NAN","0.0"],
    [1549323,"2026-04-07 15:40:00","2033","2.069","77.86","3.267","70.99","1020.183","17.26","66.07","NAN","0.0"],
    [1549324,"2026-04-07 15:50:00","2034","2.181","97.1","3.463","88.8","1020.0980000000001","17.09","67.18","NAN","0.0"],
    [1549325,"2026-04-07 16:00:00","2035","2.335","84.4","3.593","119.2","1020.0060000000001","17.08","66.31","NAN","0.0"],
    [1549326,"2026-04-07 16:10:00","2036","2.263","82.7","3.659","73.89","1019.923","17.11","68.52","NAN","0.0"],
    [1549327,"2026-04-07 16:20:00","2037","2.281","94.7","3.9530000000000003","90.9","1019.841","16.93","69.99","NAN","0.0"],
    [1549328,"2026-04-07 16:30:00","2038","2.053","100.3","3.7569999999999997","115.5","1019.809","17.01","71.14","NAN","0.0"],
    [1549329,"2026-04-07 16:40:00","2039","1.97","91.7","3.855","88.4","1019.812","16.99","71.52","NAN","0.0"],
    [1549330,"2026-04-07 16:50:00","2040","2.022","84.7","3.9530000000000003","77.6","1019.7610000000001","16.9","72.44","NAN","0.0"],
    [1549331,"2026-04-07 17:00:00","2041","1.97","80.9","3.92","74.66","1019.72","16.65","73.77","NAN","0.0"],
    [1549332,"2026-04-07 17:10:00","2042","1.639","93.8","3.5610000000000004","100.9","1019.8439999999999","16.61","77.6","NAN","0.0"],
    [1549333,"2026-04-07 17:20:00","2043","1.415","95.9","3.267","111.0","1019.9010000000001","16.37","83.1","NAN","0.0"],
    [1549334,"2026-04-07 17:30:00","2044","1.876","107.9","2.94","107.1","1019.929","16.14","84.6","NAN","0.0"],
    [1549335,"2026-04-07 17:40:00","2045","1.915","90.5","3.1689999999999996","80.1","1019.8510000000001","15.97","86.2","NAN","0.0"],
    [1549336,"2026-04-07 17:50:00","2046","2.085","78.14","3.332","73.3","1019.677","15.82","88","NAN","0.0"],
    [1549337,"2026-04-07 18:00:00","2047","1.587","70.2","3.005","67.2","1019.673","15.81","88.3","NAN","0.0"],
    [1549338,"2026-04-07 18:10:00","2048","1.577","92.0","2.679","90.4","1019.727","15.76","88.7","NAN","0.0"],
    [1549339,"2026-04-07 18:20:00","2049","0.997","83.2","2.7439999999999998","75.59","1019.748","15.76","89","NAN","0.0"],
    [1549340,"2026-04-07 18:30:00","2050","1.07","93.9","2.025","90.0","1019.875","15.75","89.4","NAN","0.0"],
    [1549341,"2026-04-07 18:40:00","2051","1.2830000000000001","70.26","2.352","96.7","1019.88","15.64","89.4","NAN","0.0"],
    [1549342,"2026-04-07 18:50:00","2052","1.092","47.18","2.123","37.92","1019.7869999999999","15.74","88.3","NAN","0.0"],
    [1549343,"2026-04-07 19:00:00","2053","1.195","47.38","1.9269999999999998","36.98","1019.788","15.76","88.7","NAN","0.0"],
    [1549344,"2026-04-07 19:10:00","2054","1.183","40.36","2.385","38.18","1019.927","15.72","89.1","NAN","0.0"],
    [1549345,"2026-04-07 19:20:00","2055","1.656","45.33","3.005","52.0","1020.012","15.61","89.9","NAN","0.0"],
    [1549346,"2026-04-07 19:30:00","2056","1.304","54.76","2.45","70.07","1020.1339999999999","15.52","89.7","NAN","0.0"],
    [1549347,"2026-04-07 19:40:00","2057","1.2770000000000001","56.52","3.201","52.93","1020.25","15.59","88.7","NAN","0.0"],
    [1549348,"2026-04-07 19:50:00","2058","1.679","60.72","2.6460000000000004","66.76","1020.257","15.62","87.7","NAN","0.0"],
    [1549349,"2026-04-07 20:00:00","2059","1.344","61.24","2.7769999999999997","70.16","1020.3610000000001","15.58","88.3","NAN","0.0"],
    [1549350,"2026-04-07 20:10:00","2060","1.5190000000000001","57.28","2.7110000000000003","45.87","1020.3960000000001","15.57","88.7","NAN","0.0"],
    [1549351,"2026-04-07 20:20:00","2061","0.945","54.99","1.993","33.28","1020.503","15.56","89.7","NAN","0.0"],
    [1549352,"2026-04-07 20:30:00","2062","1.296","42.32","2.221","54.68","1020.523","15.51","90.5","NAN","0.0"],
    [1549353,"2026-04-07 20:40:00","2063","1.47","42.5","2.613","39.0","1020.5239999999999","15.41","92","NAN","0.0"],
    [1549354,"2026-04-07 20:50:00","2064","1.4080000000000001","44.27","2.5810000000000004","34.73","1020.552","15.3","92.9","NAN","0.0"],
    [1549355,"2026-04-07 21:00:00","2065","1.911","47.01","2.94","50.46","1020.5210000000001","15.22","93.2","NAN","0.0"],
    [1549356,"2026-04-07 21:10:00","2066","1.383","48.62","2.483","76.85","1020.5010000000001","15.17","93.3","NAN","0.0"],
    [1549357,"2026-04-07 21:20:00","2067","1.25","52.13","2.613","47.72","1020.5039999999999","15.14","93.1","NAN","0.0"],
    [1549358,"2026-04-07 21:30:00","2068","1.58","59.06","3.234","72.41","1020.3939999999999","15.16","92.8","NAN","0.0"],
    [1549359,"2026-04-07 21:40:00","2069","1.47","54.13","2.8089999999999997","74.43","1020.3389999999999","15.11","93","NAN","0.0"],
    [1549360,"2026-04-07 21:50:00","2070","1.247","51.79","2.842","56.54","1020.328","15.05","93.1","NAN","0.0"],
    [1549361,"2026-04-07 22:00:00","2071","1.251","54.69","2.417","32.9","1020.334","14.99","92.8","NAN","0.0"],
    [1549362,"2026-04-07 22:10:00","2072","1.09","47.45","2.352","71.0","1020.2739999999999","14.95","92.7","NAN","0.0"],
    [1549363,"2026-04-07 22:20:00","2073","1.19","47.91","2.9730000000000003","28.6","1020.368","14.9","92.7","NAN","0.0"],
    [1549364,"2026-04-07 22:30:00","2074","1.514","42.35","2.875","35.28","1020.2719999999999","14.85","92.7","NAN","0.0"],
    [1549365,"2026-04-07 22:40:00","2075","1.482","48.91","3.005","35.49","1020.2769999999999","14.82","92.3","NAN","0.0"],
    [1549366,"2026-04-07 22:50:00","2076","1.749","45.6","2.8089999999999997","35.82","1020.2239999999999","14.8","91.9","NAN","0.0"],
    [1549367,"2026-04-07 23:00:00","2077","1.547","43.45","2.907","57.05","1020.17","14.77","91.7","NAN","0.0"],
    [1549368,"2026-04-07 23:10:00","2078","0.9209999999999999","28.75","1.8619999999999999","1.3619999999999999","1020.24","14.73","91","NAN","0.0"],
    [1549369,"2026-04-07 23:20:00","2079","1.281","40.03","2.7769999999999997","37.17","1020.1160000000001","14.72","90.4","NAN","0.0"],
    [1549370,"2026-04-07 23:30:00","2080","0.77","29.52","2.189","45.47","1020.079","14.68","90.1","NAN","0.0"],
    [1549371,"2026-04-07 23:40:00","2081","0.713","22.06","1.666","46.81","1020.13","14.65","89.3","NAN","0.0"],
    [1549372,"2026-04-07 23:50:00","2082","0.631","16.85","1.666","32.03","1020.165","14.65","88.3","NAN","0.0"],
    [1549373,"2026-04-08 00:00:00","2083","0.579","27.14","1.307","5.176","1020.263","14.6","87.9","NAN","0.0"],
    [1549374,"2026-04-08 00:10:00","2084","1.146","42.94","2.221","29.03","1020.1489999999999","14.58","86.9","NAN","0.0"],
    [1549375,"2026-04-08 00:20:00","2085","0.851","50.27","1.829","50.11","1020.054","14.59","85","NAN","0.0"],
    [1549376,"2026-04-08 00:30:00","2086","0.715","46.02","1.895","44.17","1020.087","14.48","83.8","NAN","0.0"],
    [1549377,"2026-04-08 00:40:00","2087","0.914","42.3","1.797","50.37","1020.065","14.46","81.2","NAN","0.0"],
    [1549378,"2026-04-08 00:50:00","2088","0.8959999999999999","39.58","1.9269999999999998","37.01","1020.04","14.36","78.93","NAN","0.0"],
    [1549379,"2026-04-08 01:00:00","2089","0.508","36.64","1.2409999999999999","44.83","1020.0419999999999","14.3","77.36","NAN","0.0"],
    [1549380,"2026-04-08 01:10:00","2090","0.418","36.02","1.143","42.71","1019.92","14.22","76.78","NAN","0.0"],
    [1549381,"2026-04-08 01:20:00","2091","0.276","24.05","1.143","35.15","1019.875","14.08","77.06","NAN","0.0"],
    [1549382,"2026-04-08 01:30:00","2092","0.51","29.75","1.47","15.57","1019.789","14.21","76.45","NAN","0.0"],
    [1549383,"2026-04-08 01:40:00","2093","0.8420000000000001","16.46","1.797","358.3","1019.699","14.38","74.83","NAN","0.0"],
    [1549384,"2026-04-08 01:50:00","2094","1.204","8.08","2.287","11.36","1019.612","14.59","72.6","NAN","0.0"],
    [1549385,"2026-04-08 02:00:00","2095","0.922","22.36","2.319","19.14","1019.4910000000001","14.57","71.74","NAN","0.0"],
    [1549386,"2026-04-08 02:10:00","2096","0.797","23.45","1.7309999999999999","357.4","1019.5419999999999","14.43","70.95","NAN","0.0"],
    [1549387,"2026-04-08 02:20:00","2097","0.809","31.08","2.0909999999999997","7.016","1019.5219999999999","14.43","69.66","NAN","0.0"],
    [1549388,"2026-04-08 02:30:00","2098","0.529","358.7","1.339","13.8","1019.434","14.48","68.63","NAN","0.0"],
    [1549389,"2026-04-08 02:40:00","2099","0.53","15.56","0.98","2.968","1019.334","14.47","68.43","NAN","0.0"],
    [1549390,"2026-04-08 02:50:00","2100","0.483","25.83","0.915","34.51","1019.295","14.39","68.66","NAN","0.0"],
    [1549391,"2026-04-08 03:00:00","2101","0.6409999999999999","23.88","1.633","13.97","1019.288","14.4","68.11","NAN","0.0"],
    [1549392,"2026-04-08 03:10:00","2102","0.743","25.94","1.4369999999999998","30.58","1019.185","14.55","66.64","NAN","0.0"],
    [1549393,"2026-04-08 03:20:00","2103","0.46299999999999997","24.94","1.2409999999999999","36.9","1019.211","14.4","67.33","NAN","0.0"],
    [1549394,"2026-04-08 03:30:00","2104","0.243","357.0","1.209","29.75","1019.196","14.28","67.27","NAN","0.0"],
    [1549395,"2026-04-08 03:40:00","2105","0.0","0.0","0.0","0.0","1019.291","14","68.78","NAN","0.0"],
    [1549396,"2026-04-08 03:50:00","2106","0.204","35.51","1.045","29.87","1019.31","13.78","70.11","NAN","0.0"],
    [1549397,"2026-04-08 04:00:00","2107","0.613","18.72","1.601","11.42","1019.27","14.03","67.94","NAN","0.0"],
    [1549398,"2026-04-08 04:10:00","2108","0.706","26.0","1.4369999999999998","35.95","1019.283","14.05","67.57","NAN","0.0"],
    [1549399,"2026-04-08 04:20:00","2109","1.143","12.32","2.123","348.1","1019.289","13.87","67.94","NAN","0.0"],
    [1549400,"2026-04-08 04:30:00","2110","1.127","10.53","1.764","13.11","1019.296","13.73","67.43","NAN","0.0"],
    [1549401,"2026-04-08 04:40:00","2111","1.284","7.835","2.123","22.64","1019.309","13.64","66.5","NAN","0.0"],
    [1549402,"2026-04-08 04:50:00","2112","1.111","10.09","2.025","23.87","1019.4060000000001","13.64","66.43","NAN","0.0"],
    [1549403,"2026-04-08 05:00:00","2113","0.8","10.15","1.568","23.39","1019.518","13.62","66.19","NAN","0.0"],
    [1549404,"2026-04-08 05:10:00","2114","0.675","10.61","1.274","27.69","1019.633","13.41","66.62","NAN","0.0"],
    [1549405,"2026-04-08 05:20:00","2115","0.8490000000000001","17.78","1.764","6.6339999999999995","1019.699","13.25","66.49","NAN","0.0"],
    [1549406,"2026-04-08 05:30:00","2116","0.7609999999999999","27.89","1.4369999999999998","62.04","1019.7410000000001","13.17","66.04","NAN","0.0"],
    [1549407,"2026-04-08 05:40:00","2117","1.0390000000000001","6.75","1.797","356.7","1019.8739999999999","13.27","65.22","NAN","0.0"],
    [1549408,"2026-04-08 05:50:00","2118","0.9159999999999999","6.722","1.666","8.86","1020.041","13.57","64.05","NAN","0.0"],
    [1549409,"2026-04-08 06:00:00","2119","0.848","11.74","1.5030000000000001","359.7","1020.158","13.75","63.4","NAN","0.0"],
    [1549410,"2026-04-08 06:10:00","2120","0.608","13.02","1.47","2.085","1020.2610000000001","13.88","63.19","NAN","0.0"],
    [1549411,"2026-04-08 06:20:00","2121","0.736","13.18","1.3719999999999999","0.48100000000000004","1020.29","14.05","62.59","NAN","0.0"],
    [1549412,"2026-04-08 06:30:00","2122","0.7909999999999999","29.11","1.568","26.93","1020.3689999999999","14.23","62.28","NAN","0.0"],
    [1549413,"2026-04-08 06:40:00","2123","0.7609999999999999","74.43","2.025","101.2","1020.48","14.66","63.1","NAN","0.0"],
    [1549414,"2026-04-08 06:50:00","2124","1.6369999999999998","120.3","2.6460000000000004","114.8","1020.566","14.48","75.82","NAN","0.0"],
    [1549415,"2026-04-08 07:00:00","2125","1.5090000000000001","89.7","2.417","97.2","1020.579","14.42","74.3","NAN","0.0"],
    [1549416,"2026-04-08 07:10:00","2126","1.67","92.4","3.365","93.1","1020.538","14.64","77.2","NAN","0.0"],
    [1549417,"2026-04-08 07:20:00","2127","1.9909999999999999","94.9","3.855","89.3","1020.582","14.51","77.91","NAN","0.0"],
    [1549418,"2026-04-08 07:30:00","2128","2.2119999999999997","83.6","3.855","89.3","1020.556","14.18","82.9","NAN","0.0"],
    [1549419,"2026-04-08 07:40:00","2129","1.659","92.2","3.463","66.9","1020.574","14.01","87.8","NAN","0.0"],
    [1549420,"2026-04-08 07:50:00","2130","1.848","89.3","3.495","82.7","1020.566","14.09","87.6","NAN","0.0"],
    [1549421,"2026-04-08 08:00:00","2131","1.755","87.0","2.7769999999999997","76.26","1020.566","13.85","88.6","NAN","0.0"],
    [1549422,"2026-04-08 08:10:00","2132","1.949","92.3","3.299","110.3","1020.6610000000001","13.94","88.6","NAN","0.0"],
    [1549423,"2026-04-08 08:20:00","2133","1.811","89.5","3.463","93.1","1020.673","14.41","86.3","NAN","0.0"],
    [1549424,"2026-04-08 08:30:00","2134","1.874","74.96","4.181","58.08","1020.688","14.66","84.7","NAN","0.0"],
    [1549425,"2026-04-08 08:40:00","2135","2.0709999999999997","86.0","3.528","108.8","1020.798","14.78","83.7","NAN","0.0"],
    [1549426,"2026-04-08 08:50:00","2136","1.796","103.8","3.822","89.1","1020.905","14.51","85.5","NAN","0.0"],
    [1549427,"2026-04-08 09:00:00","2137","1.716","112.6","3.495","123.0","1020.935","14.85","84.3","NAN","0.0"],
    [1549428,"2026-04-08 09:10:00","2138","1.974","106.1","3.7239999999999998","117.4","1021.059","15.03","83.5","NAN","0.0"],
    [1549429,"2026-04-08 09:20:00","2139","2.023","101.4","3.985","107.4","1021.1419999999999","15.08","82.5","NAN","0.0"],
    [1549430,"2026-04-08 09:30:00","2140","2.134","86.5","3.6910000000000003","92.9","1021.159","15.28","81.7","NAN","0.0"],
    [1549431,"2026-04-08 09:40:00","2141","2.019","82.5","4.312","93.2","1021.049","15.76","79.8","NAN","0.0"],
    [1549432,"2026-04-08 09:50:00","2142","2.085","78.82","3.7569999999999997","96.4","1021.0139999999999","15.6","81","NAN","0.0"],
    [1549433,"2026-04-08 10:00:00","2143","2.4019999999999997","91.7","4.345","79.53","1021.012","15.68","81.2","NAN","0.0"],
    [1549434,"2026-04-08 10:10:00","2144","2.7539999999999996","84.8","4.41","67.01","1020.997","15.67","81","NAN","0.0"],
    [1549435,"2026-04-08 10:20:00","2145","2.593","76.3","5.063","65.55","1020.915","15.67","80.5","NAN","0.0"],
    [1549436,"2026-04-08 10:30:00","2146","2.737","79.14","4.835","101.7","1020.813","15.57","80.7","NAN","0.0"],
    [1549437,"2026-04-08 10:40:00","2147","3.235","77.91","5.096","74.77","1020.691","15.46","81.3","NAN","0.0"],
    [1549438,"2026-04-08 10:50:00","2148","2.372","80.5","5.325","72.42","1020.7080000000001","16.1","78.86","NAN","0.0"],
    [1549439,"2026-04-08 11:00:00","2149","3.0839999999999996","78.94","5.227","93.1","1020.701","15.9","80.1","NAN","0.0"],
    [1549440,"2026-04-08 11:10:00","2150","2.784","86.8","4.835","95.0","1020.686","15.82","81.4","NAN","0.0"],
    [1549441,"2026-04-08 11:20:00","2151","2.565","83.0","4.638999999999999","89.6","1020.698","15.99","80.2","NAN","0.0"],
    [1549442,"2026-04-08 11:30:00","2152","2.909","81.8","4.737","69.91","1020.676","15.9","81.2","NAN","0.0"],
    [1549443,"2026-04-08 11:40:00","2153","2.8810000000000002","77.81","4.965","97.1","1020.671","16.07","81.3","NAN","0.0"],
    [1549444,"2026-04-08 11:50:00","2154","2.764","92.2","4.508","91.8","1020.6510000000001","16.37","79.68","NAN","0.0"],
    [1549445,"2026-04-08 12:00:00","2155","2.9189999999999996","90.2","5.063","99.7","1020.6510000000001","16.07","81.6","NAN","0.0"],
    [1549446,"2026-04-08 12:10:00","2156","3.095","68.45","4.802","74.58","1020.561","16.26","79.93","NAN","0.0"],
    [1549447,"2026-04-08 12:20:00","2157","2.891","81.9","5.2589999999999995","85.5","1020.434","16.08","81.6","NAN","0.0"],
    [1549448,"2026-04-08 12:30:00","2158","3.116","89.9","5.1610000000000005","82.2","1020.307","16.1","81.7","NAN","0.0"],
    [1549449,"2026-04-08 12:40:00","2159","2.39","85.9","4.1160000000000005","92.7","1020.325","16.49","80.1","NAN","0.0"],
    [1549450,"2026-04-08 12:50:00","2160","2.719","72.51","4.671","70.14","1020.297","16.39","80.3","NAN","0.0"],
    [1549451,"2026-04-08 13:00:00","2161","2.8539999999999996","72.0","5.063","101.2","1020.31","16.3","80.9","NAN","0.0"],
    [1549452,"2026-04-08 13:10:00","2162","3.197","77.84","5.063","70.03","1020.302","16.17","81.2","NAN","0.0"],
    [1549453,"2026-04-08 13:20:00","2163","3.1830000000000003","84.7","4.802","91.8","1020.24","16.23","81.4","NAN","0.0"],
    [1549454,"2026-04-08 13:30:00","2164","3.0439999999999996","74.46","5.521","68.22","1020.243","16.16","82.3","NAN","0.0"],
    [1549455,"2026-04-08 13:40:00","2165","2.822","71.63","5.1610000000000005","89.9","1020.19","16.4","81.8","NAN","0.0"],
    [1549456,"2026-04-08 13:50:00","2166","2.7889999999999997","76.91","4.606","69.79","1020.1669999999999","16.43","81.2","NAN","0.0"],
    [1549457,"2026-04-08 14:00:00","2167","2.859","82.2","5.325","85.2","1020.04","16.39","82","NAN","0.0"],
    [1549458,"2026-04-08 14:10:00","2168","2.915","90.0","5.292000000000001","101.1","1019.966","16.5","82.2","NAN","0.0"],
    [1549459,"2026-04-08 14:20:00","2169","3.009","84.6","5.553","96.8","1019.946","16.54","81.4","NAN","0.0"],
    [1549460,"2026-04-08 14:30:00","2170","2.855","69.82","4.9","60.95","1019.8689999999999","16.57","81","NAN","0.0"],
    [1549461,"2026-04-08 14:40:00","2171","2.681","87.8","5.815","91.9","1019.7589999999999","16.37","83","NAN","0.0"],
    [1549462,"2026-04-08 14:50:00","2172","2.852","90.7","5.325","62.25","1019.68","16.32","83.4","NAN","0.0"],
    [1549463,"2026-04-08 15:00:00","2173","2.9619999999999997","78.98","5.2589999999999995","82.4","1019.6469999999999","16.48","82.3","NAN","0.0"],
    [1549464,"2026-04-08 15:10:00","2174","3.3169999999999997","84.3","5.2589999999999995","79.4","1019.565","16.12","84.5","NAN","0.0"],
    [1549465,"2026-04-08 15:20:00","2175","2.827","92.1","5.455","63.43","1019.5319999999999","16.42","83.9","NAN","0.0"],
    [1549466,"2026-04-08 15:30:00","2176","3.1630000000000003","82.9","5.357","97.1","1019.572","16.18","84.7","NAN","0.0"],
    [1549467,"2026-04-08 15:40:00","2177","2.866","78.12","4.802","82.9","1019.648","16.17","84.9","NAN","0.0"],
    [1549468,"2026-04-08 15:50:00","2178","2.271","83.8","4.41","63.54","1019.7539999999999","16.26","84.9","NAN","0.0"],
    [1549469,"2026-04-08 16:00:00","2179","2.38","87.7","4.149","64.65","1019.7739999999999","16.21","85.1","NAN","0.0"],
    [1549470,"2026-04-08 16:10:00","2180","2.2880000000000003","78.68","4.083","78.73","1019.807","16.12","86.3","NAN","0.0"],
    [1549471,"2026-04-08 16:20:00","2181","2.22","85.9","3.92","86.5","1019.904","16.06","86.3","NAN","0.0"],
    [1549472,"2026-04-08 16:30:00","2182","2.204","79.43","4.051","74.06","1019.931","16.05","86.4","NAN","0.0"],
    [1549473,"2026-04-08 16:40:00","2183","2.1590000000000003","91.0","3.92","96.4","1020.0160000000001","15.9","87","NAN","0.0"],
    [1549474,"2026-04-08 16:50:00","2184","2.499","89.9","3.6260000000000003","85.4","1020.038","15.89","86.5","NAN","0.0"],
    [1549475,"2026-04-08 17:00:00","2185","2.259","82.8","3.7569999999999997","102.4","1020.0060000000001","15.76","87.9","NAN","0.0"],
    [1549476,"2026-04-08 17:10:00","2186","2.164","91.0","3.7889999999999997","104.5","1019.9860000000001","15.65","88.4","NAN","0.0"],
    [1549477,"2026-04-08 17:20:00","2187","2.319","83.6","4.41","97.2","1019.8960000000001","15.73","88.2","NAN","0.0"],
    [1549478,"2026-04-08 17:30:00","2188","2.344","90.8","4.018","111.2","1019.8960000000001","15.61","88.7","NAN","0.0"],
    [1549479,"2026-04-08 17:40:00","2189","1.7169999999999999","93.2","3.103","95.8","1020.0260000000001","15.54","89","NAN","0.0"],
    [1549480,"2026-04-08 17:50:00","2190","1.379","94.6","3.397","117.2","1020.091","15.45","89.8","NAN","0.0"],
    [1549481,"2026-04-08 18:00:00","2191","2.015","72.37","3.495","63.48","1019.9680000000001","15.33","89.9","NAN","0.0"],
    [1549482,"2026-04-08 18:10:00","2192","1.459","93.1","2.7110000000000003","89.2","1020.0169999999999","15.16","90.7","NAN","0.0"],
    [1549483,"2026-04-08 18:20:00","2193","1.5219999999999998","78.48","3.332","81.3","1019.9639999999999","15.08","91.3","NAN","0.0"],
    [1549484,"2026-04-08 18:30:00","2194","1.669","73.17","3.005","70.77","1020.023","14.97","91.6","NAN","0.0"],
    [1549485,"2026-04-08 18:40:00","2195","1.724","77.18","3.5610000000000004","76.57","1020.0010000000001","14.96","92","NAN","0.0"],
    [1549486,"2026-04-08 18:50:00","2196","1.162","59.62","2.679","68.81","1020.117","14.92","91.7","NAN","0.0"],
    [1549487,"2026-04-08 19:00:00","2197","1.818","72.11","3.7239999999999998","70.01","1020.023","14.96","91.5","NAN","0.0"],
    [1549488,"2026-04-08 19:10:00","2198","1.906","57.4","3.6260000000000003","63.85","1020.1669999999999","14.88","91.2","NAN","0.0"],
    [1549489,"2026-04-08 19:20:00","2199","1.344","71.82","2.6460000000000004","68.38","1020.2510000000001","14.98","90.9","NAN","0.0"],
    [1549490,"2026-04-08 19:30:00","2200","1.339","66.36","2.613","95.4","1020.289","14.98","90.5","NAN","0.0"],
    [1549491,"2026-04-08 19:40:00","2201","1.199","67.53","2.417","111.6","1020.4780000000001","14.88","90.9","NAN","0.0"],
    [1549492,"2026-04-08 19:50:00","2202","0.9740000000000001","55.72","2.0909999999999997","75.87","1020.5","14.88","90.9","NAN","0.0"],
    [1549493,"2026-04-08 20:00:00","2203","1.072","52.11","1.895","29.14","1020.5","14.87","91.1","NAN","0.0"],
    [1549494,"2026-04-08 20:10:00","2204","1.067","58.82","2.189","47.55","1020.4739999999999","14.83","91.1","NAN","0.0"],
    [1549495,"2026-04-08 20:20:00","2205","1.167","58.34","2.287","37.44","1020.3860000000001","14.79","91.5","NAN","0.0"],
    [1549496,"2026-04-08 20:30:00","2206","1.306","48.07","2.7110000000000003","59.45","1020.309","14.76","91.7","NAN","0.0"],
    [1549497,"2026-04-08 20:40:00","2207","0.627","67.91","1.633","64.76","1020.29","14.74","91.6","NAN","0.0"],
    [1549498,"2026-04-08 20:50:00","2208","0.32799999999999996","80.4","1.307","67.85","1020.33","14.68","91.8","NAN","0.0"],
    [1549499,"2026-04-08 21:00:00","2209","1.022","101.0","1.9269999999999998","73.6","1020.382","14.61","92.5","NAN","0.0"],
    [1549500,"2026-04-08 21:10:00","2210","1.069","105.1","2.156","61.23","1020.265","14.56","93.2","NAN","0.0"],
    [1549501,"2026-04-08 21:20:00","2211","0.9640000000000001","89.2","2.0909999999999997","86.6","1020.279","14.51","93.9","NAN","0.0"],
    [1549502,"2026-04-08 21:30:00","2212","0.982","90.2","1.993","101.0","1020.163","14.49","94.5","NAN","0.0"],
    [1549503,"2026-04-08 21:40:00","2213","0.61","109.3","1.699","114.7","1020.1360000000001","14.46","94.9","NAN","0.0"],
    [1549504,"2026-04-08 21:50:00","2214","0.35200000000000004","85.1","1.111","95.5","1020.177","14.4","95.5","NAN","0.0"],
    [1549505,"2026-04-08 22:00:00","2215","0.0","0.0","0.0","0.0","1020.2689999999999","14.38","95.7","NAN","0.0"],
    [1549506,"2026-04-08 22:10:00","2216","0.139","158.0","0.49","166.1","1020.2660000000001","14.4","96","NAN","0.0"],
    [1549507,"2026-04-08 22:20:00","2217","0.426","173.6","1.045","172.7","1020.28","14.36","96.2","NAN","0.0"],
    [1549508,"2026-04-08 22:30:00","2218","0.304","169.5","0.8490000000000001","176.0","1020.303","14.33","96.5","NAN","0.0"],
    [1549509,"2026-04-08 22:40:00","2219","0.534","179.7","1.111","184.0","1020.345","14.29","96.7","NAN","0.0"],
    [1549510,"2026-04-08 22:50:00","2220","0.151","185.5","0.6859999999999999","171.9","1020.311","14.24","96.9","NAN","0.0"],
    [1549511,"2026-04-08 23:00:00","2221","0.0","0.0","0.0","0.0","1020.257","14.1","97","NAN","0.0"],
    [1549512,"2026-04-08 23:10:00","2222","0.0","0.0","0.0","0.0","1020.13","14.09","97.3","NAN","0.0"],
    [1549513,"2026-04-08 23:20:00","2223","0.0","0.0","0.0","0.0","1020.056","14.07","97.5","NAN","0.0"],
    [1549514,"2026-04-08 23:30:00","2224","0.0","0.0","0.0","0.0","1020.033","14.05","97.6","NAN","0.0"],
    [1549515,"2026-04-08 23:40:00","2225","0.34700000000000003","142.9","0.882","139.6","1019.949","13.95","97.8","NAN","0.0"],
    [1549516,"2026-04-08 23:50:00","2226","0.525","118.1","0.9470000000000001","156.2","1019.925","13.68","98.1","NAN","0.0"],
    [1549517,"2026-04-09 00:00:00","2227","0.47100000000000003","103.9","0.9470000000000001","118.5","1019.809","13.55","98.7","NAN","0.0"],
    [1549518,"2026-04-09 00:10:00","2228","0.062","99.9","0.555","109.0","1019.804","13.38","98.9","NAN","0.0"],
    [1549519,"2026-04-09 00:20:00","2229","0.162","171.7","0.555","173.0","1019.7389999999999","13.28","99.3","NAN","0.0"],
    [1549520,"2026-04-09 00:30:00","2230","0.615","202.2","1.078","202.8","1019.7769999999999","13.22","99.6","NAN","0.0"],
    [1549521,"2026-04-09 00:40:00","2231","0.6579999999999999","188.7","1.078","198.0","1019.821","13","99.8","NAN","0.0"],
    [1549522,"2026-04-09 00:50:00","2232","0.18899999999999997","162.3","0.9470000000000001","204.8","1019.692","12.95","99.9","NAN","0.0"],
    [1549523,"2026-04-09 01:00:00","2233","0.281","180.3","0.915","190.2","1019.585","12.82","99.9","NAN","0.0"],
    [1549524,"2026-04-09 01:10:00","2234","0.0","0.0","0.0","0.0","1019.434","12.72","99.9","NAN","0.0"],
    [1549525,"2026-04-09 01:20:00","2235","0.0","0.0","0.0","0.0","1019.4119999999999","12.67","99.9","NAN","0.0"],
    [1549526,"2026-04-09 01:30:00","2236","0.0","0.0","0.0","0.0","1019.295","12.54","99.9","NAN","0.0"],
    [1549527,"2026-04-09 01:40:00","2237","0.0","0.0","0.0","0.0","1019.2560000000001","12.4","99.9","NAN","0.0"],
    [1549528,"2026-04-09 01:50:00","2238","0.057999999999999996","178.7","0.523","168.4","1019.15","12.44","99.9","NAN","0.0"],
    [1549529,"2026-04-09 02:00:00","2239","0.611","191.3","1.176","179.1","1019.063","12.48","99.9","NAN","0.0"],
    [1549530,"2026-04-09 02:10:00","2240","0.56","193.8","1.111","172.1","1019.058","12.38","99.9","NAN","0.0"],
    [1549531,"2026-04-09 02:20:00","2241","0.218","204.9","0.6859999999999999","206.2","1019.0260000000001","12.32","100","NAN","0.0"],
    [1549532,"2026-04-09 02:30:00","2242","0.511","180.8","0.915","171.2","1018.967","12.11","100","NAN","0.0"],
    [1549533,"2026-04-09 02:40:00","2243","0.376","174.9","0.8170000000000001","171.0","1018.826","12","99.9","NAN","0.0"],
    [1549534,"2026-04-09 02:50:00","2244","0.0","0.0","0.0","0.0","1018.816","11.96","99.9","NAN","0.0"],
    [1549535,"2026-04-09 03:00:00","2245","0.0","0.0","0.0","0.0","1018.7230000000001","11.93","100","NAN","0.0"],
    [1549536,"2026-04-09 03:10:00","2246","0.364","185.4","1.143","183.4","1018.7289999999999","11.86","99.9","NAN","0.0"],
    [1549537,"2026-04-09 03:20:00","2247","0.7340000000000001","178.1","1.078","185.0","1018.705","11.82","99.9","NAN","0.0"],
    [1549538,"2026-04-09 03:30:00","2248","0.303","170.0","0.98","184.1","1018.541","11.69","100","NAN","0.0"],
    [1549539,"2026-04-09 03:40:00","2249","0.285","163.6","0.8170000000000001","184.0","1018.4860000000001","11.62","99.9","NAN","0.1"],
    [1549540,"2026-04-09 03:50:00","2250","0.11","173.2","0.7190000000000001","173.3","1018.451","11.71","99.9","NAN","0.0"],
    [1549541,"2026-04-09 04:00:00","2251","0.532","189.0","0.9470000000000001","178.8","1018.445","11.74","99.9","NAN","0.0"],
    [1549542,"2026-04-09 04:10:00","2252","0.11699999999999999","175.4","0.6859999999999999","183.3","1018.382","11.67","100","NAN","0.0"],
    [1549543,"2026-04-09 04:20:00","2253","0.273","165.6","0.7509999999999999","167.9","1018.421","11.63","99.9","NAN","0.0"],
    [1549544,"2026-04-09 04:30:00","2254","0.402","173.1","0.8490000000000001","181.0","1018.449","11.71","99.9","NAN","0.0"],
    [1549545,"2026-04-09 04:40:00","2255","0.22399999999999998","177.3","0.8170000000000001","173.1","1018.4839999999999","11.81","99.9","NAN","0.0"],
    [1549546,"2026-04-09 04:50:00","2256","0.0","0.0","0.0","0.0","1018.445","11.72","99.9","NAN","0.0"],
    [1549547,"2026-04-09 05:00:00","2257","0.311","51.59","0.6859999999999999","71.24","1018.428","11.68","99.9","NAN","0.0"],
    [1549548,"2026-04-09 05:10:00","2258","0.359","50.1","0.915","62.71","1018.44","11.76","99.9","NAN","0.0"],
    [1549549,"2026-04-09 05:20:00","2259","0.2","98.8","0.7509999999999999","133.1","1018.5219999999999","11.68","99.9","NAN","0.0"],
    [1549550,"2026-04-09 05:30:00","2260","0.526","165.2","0.9470000000000001","173.3","1018.7289999999999","11.71","99.9","NAN","0.0"],
    [1549551,"2026-04-09 05:40:00","2261","0.52","146.1","1.045","135.5","1018.934","11.66","99.9","NAN","0.0"],
    [1549552,"2026-04-09 05:50:00","2262","0.013000000000000001","69.89","0.392","59.67","1018.967","11.62","99.9","NAN","0.0"],
    [1549553,"2026-04-09 06:00:00","2263","0.55","71.2","2.0580000000000003","70.49","1019.096","11.46","99.9","NAN","0.0"],
    [1549554,"2026-04-09 06:10:00","2264","0.8109999999999999","61.42","1.699","78.27","1019.2860000000001","10.68","99.9","NAN","0.0"],
    [1549555,"2026-04-09 06:20:00","2265","0.9390000000000001","62.88","1.568","69.77","1019.3330000000001","10.93","99.9","NAN","0.0"],
    [1549556,"2026-04-09 06:30:00","2266","1.3359999999999999","60.46","1.96","85.7","1019.448","11.62","97.3","NAN","0.0"],
    [1549557,"2026-04-09 06:40:00","2267","1.1540000000000001","53.33","2.254","29.1","1019.493","12.49","84.2","NAN","0.0"],
    [1549558,"2026-04-09 06:50:00","2268","1.531","52.95","2.613","53.57","1019.505","12.99","75.92","NAN","0.0"],
    [1549559,"2026-04-09 07:00:00","2269","1.072","38.95","2.221","45.82","1019.5169999999999","13.1","78.81","NAN","0.0"],
    [1549560,"2026-04-09 07:10:00","2270","0.55","89.4","1.339","62.34","1019.61","13.38","82.5","NAN","0.0"],
    [1549561,"2026-04-09 07:20:00","2271","0.995","110.7","1.699","108.5","1019.551","13.28","88.1","NAN","0.0"],
    [1549562,"2026-04-09 07:30:00","2272","1.046","105.0","1.895","101.8","1019.503","13.31","88.5","NAN","0.0"],
    [1549563,"2026-04-09 07:40:00","2273","1.075","113.6","1.829","151.5","1019.559","13.47","87.7","NAN","0.0"],
    [1549564,"2026-04-09 07:50:00","2274","1.001","131.1","1.568","115.7","1019.706","13.5","88.3","NAN","0.0"],
    [1549565,"2026-04-09 08:00:00","2275","0.769","123.5","1.307","120.3","1019.615","13.74","87.4","NAN","0.0"],
    [1549566,"2026-04-09 08:10:00","2276","1.018","131.1","1.568","140.9","1019.7","14.17","84.5","NAN","0.0"],
    [1549567,"2026-04-09 08:20:00","2277","0.953","129.0","1.568","122.2","1019.7660000000001","14.4","85.3","NAN","0.0"],
    [1549568,"2026-04-09 08:30:00","2278","1.045","131.3","1.633","146.3","1019.867","14.63","84.9","NAN","0.0"],
    [1549569,"2026-04-09 08:40:00","2279","1.1079999999999999","139.0","1.9269999999999998","149.0","1020.039","15.05","82.3","NAN","0.0"],
    [1549570,"2026-04-09 08:50:00","2280","1.047","120.8","1.829","113.3","1020.175","15.07","82.5","NAN","0.0"],
    [1549571,"2026-04-09 09:00:00","2281","1.1640000000000001","129.1","1.9269999999999998","128.5","1020.13","15.2","81.8","NAN","0.0"],
    [1549572,"2026-04-09 09:10:00","2282","1.3969999999999998","132.1","2.025","146.1","1020.066","15.25","82.5","NAN","0.0"],
    [1549573,"2026-04-09 09:20:00","2283","1.41","132.6","2.45","119.8","1020.18","15.37","80.7","NAN","0.0"],
    [1549574,"2026-04-09 09:30:00","2284","1.3619999999999999","136.3","2.156","166.6","1020.18","15","82.9","NAN","0.0"],
    [1549575,"2026-04-09 09:40:00","2285","1.3459999999999999","138.8","2.189","111.7","1020.183","15.33","81.8","NAN","0.0"],
    [1549576,"2026-04-09 09:50:00","2286","1.3659999999999999","120.6","2.025","116.4","1020.172","15.56","80.5","NAN","0.0"],
    [1549577,"2026-04-09 10:00:00","2287","1.208","134.2","2.319","110.4","1020.158","15.97","79.28","NAN","0.0"],
    [1549578,"2026-04-09 10:10:00","2288","1.239","128.5","2.189","125.4","1020.056","16.01","78.84","NAN","0.0"],
    [1549579,"2026-04-09 10:20:00","2289","1.287","129.4","1.8619999999999999","128.8","1020.003","16.2","77.67","NAN","0.0"],
    [1549580,"2026-04-09 10:30:00","2290","1.138","127.3","1.895","147.6","1019.8860000000001","16.26","77.42","NAN","0.0"],
    [1549581,"2026-04-09 10:40:00","2291","1.659","145.2","2.483","112.0","1019.824","16.38","76.88","NAN","0.0"],
    [1549582,"2026-04-09 10:50:00","2292","1.7469999999999999","151.8","2.8089999999999997","175.6","1019.9060000000001","16.08","78.22","NAN","0.0"],
    [1549583,"2026-04-09 11:00:00","2293","1.841","169.2","2.7769999999999997","181.6","1019.816","16.19","78.38","NAN","0.0"],
    [1549584,"2026-04-09 11:10:00","2294","1.601","176.4","3.0380000000000003","180.7","1019.7439999999999","16.51","77.55","NAN","0.0"],
    [1549585,"2026-04-09 11:20:00","2295","1.81","176.1","2.7439999999999998","183.8","1019.605","16.91","75.55","NAN","0.0"],
    [1549586,"2026-04-09 11:30:00","2296","2.074","182.1","3.201","188.7","1019.4580000000001","16.9","73.56","NAN","0.0"],
    [1549587,"2026-04-09 11:40:00","2297","2.114","177.0","3.1689999999999996","179.2","1019.325","16.68","73.63","NAN","0.0"],
    [1549588,"2026-04-09 11:50:00","2298","2.162","184.4","3.593","184.9","1019.2610000000001","17.11","72.9","NAN","0.0"],
    [1549589,"2026-04-09 12:00:00","2299","2.443","181.0","3.9530000000000003","178.0","1019.209","16.84","77.65","NAN","0.0"],
    [1549590,"2026-04-09 12:10:00","2300","2.156","176.4","3.463","161.0","1019.184","16.89","81.7","NAN","0.0"],
    [1549591,"2026-04-09 12:20:00","2301","1.996","176.4","3.43","184.3","1019.137","17.5","78.76","NAN","0.0"],
    [1549592,"2026-04-09 12:30:00","2302","1.7180000000000002","185.5","2.8089999999999997","180.1","1018.972","17.81","75.98","NAN","0.0"],
    [1549593,"2026-04-09 12:40:00","2303","1.6340000000000001","176.1","2.875","160.9","1018.915","18.45","71.67","NAN","0.0"],
    [1549594,"2026-04-09 12:50:00","2304","1.976","184.8","3.593","188.8","1018.935","18.59","71.43","NAN","0.0"],
    [1549595,"2026-04-09 13:00:00","2305","2.6180000000000003","177.1","4.312","183.0","1018.872","17.44","75.45","NAN","0.0"],
    [1549596,"2026-04-09 13:10:00","2306","2.375","170.3","3.593","176.2","1018.705","17.44","74.36","NAN","0.0"],
    [1549597,"2026-04-09 13:20:00","2307","2.7110000000000003","178.0","4.867","176.7","1018.668","17.26","77.95","NAN","0.0"],
    [1549598,"2026-04-09 13:30:00","2308","2.5989999999999998","180.2","3.7569999999999997","180.0","1018.5110000000001","17.4","76.06","NAN","0.0"],
    [1549599,"2026-04-09 13:40:00","2309","2.793","174.2","4.181","174.7","1018.421","18.09","73","NAN","0.0"],
    [1549600,"2026-04-09 13:50:00","2310","2.7430000000000003","170.3","3.855","168.8","1018.315","18.34","71.41","NAN","0.0"],
    [1549601,"2026-04-09 14:00:00","2311","2.678","171.7","3.7569999999999997","170.5","1018.217","18.19","73.38","NAN","0.0"],
    [1549602,"2026-04-09 14:10:00","2312","2.3409999999999997","169.4","3.6910000000000003","171.6","1018.145","18.4","71.51","NAN","0.0"],
    [1549603,"2026-04-09 14:20:00","2313","2.275","172.3","3.528","177.2","1018.053","18.03","74.08","NAN","0.0"],
    [1549604,"2026-04-09 14:30:00","2314","2.15","175.0","3.528","172.1","1017.939","18.23","72.39","NAN","0.0"],
    [1549605,"2026-04-09 14:40:00","2315","2.069","182.1","3.887","180.5","1017.809","18.31","71.55","NAN","0.0"],
    [1549606,"2026-04-09 14:50:00","2316","1.692","192.6","3.103","199.2","1017.689","18.87","69.98","NAN","0.0"],
    [1549607,"2026-04-09 15:00:00","2317","1.6580000000000001","196.7","2.7110000000000003","194.7","1017.6439999999999","19.02","69.96","NAN","0.0"],
    [1549608,"2026-04-09 15:10:00","2318","2.38","184.4","3.659","189.1","1017.545","18.52","72.03","NAN","0.0"],
    [1549609,"2026-04-09 15:20:00","2319","2.261","182.5","3.365","177.8","1017.445","18.46","70.55","NAN","0.0"],
    [1549610,"2026-04-09 15:30:00","2320","2.07","184.4","3.365","177.1","1017.316","18.74","67.29","NAN","0.0"],
    [1549611,"2026-04-09 15:40:00","2321","1.963","179.8","2.8089999999999997","176.5","1017.2260000000001","18.85","66.34","NAN","0.0"],
    [1549612,"2026-04-09 15:50:00","2322","1.663","166.0","2.7110000000000003","174.4","1017.191","19.55","59.29","NAN","0.0"],
    [1549613,"2026-04-09 16:00:00","2323","1.145","162.3","2.221","168.0","1017.189","20.59","51.48","NAN","0.0"],
    [1549614,"2026-04-09 16:10:00","2324","1.244","171.2","2.221","175.1","1017.189","20.84","48.46","NAN","0.0"],
    [1549615,"2026-04-09 16:20:00","2325","1.449","172.7","2.417","162.1","1017.1110000000001","20.72","49.86","NAN","0.0"],
    [1549616,"2026-04-09 16:30:00","2326","1.719","175.7","2.385","180.2","1017.002","20.6","49.74","NAN","0.0"],
    [1549617,"2026-04-09 16:40:00","2327","1.7069999999999999","180.0","2.7439999999999998","175.7","1016.942","20.3","54.03","NAN","0.0"],
    [1549618,"2026-04-09 16:50:00","2328","1.584","181.0","2.613","170.1","1016.942","19.55","59.07","NAN","0.0"],
    [1549619,"2026-04-09 17:00:00","2329","1.5730000000000002","174.9","2.6460000000000004","162.0","1016.942","19.52","57.91","NAN","0.0"],
    [1549620,"2026-04-09 17:10:00","2330","0.99","194.4","2.189","176.5","1016.942","19.72","57.81","NAN","0.0"],
    [1549621,"2026-04-09 17:20:00","2331","1.4080000000000001","192.0","2.287","187.9","1016.942","19.18","62.46","NAN","0.0"],
    [1549622,"2026-04-09 17:30:00","2332","1.4040000000000001","192.2","2.189","202.4","1016.845","19.2","61.21","NAN","0.0"],
    [1549623,"2026-04-09 17:40:00","2333","1.4280000000000002","201.8","2.842","189.1","1016.83","19.94","52.02","NAN","0.0"],
    [1549624,"2026-04-09 17:50:00","2334","1.341","194.7","2.319","198.4","1016.893","19.76","55.52","NAN","0.0"],
    [1549625,"2026-04-09 18:00:00","2335","1.3319999999999999","192.9","2.0909999999999997","186.9","1016.932","19.5","55.35","NAN","0.0"],
    [1549626,"2026-04-09 18:10:00","2336","1.574","189.8","2.319","199.4","1016.942","19.44","54.43","NAN","0.0"],
    [1549627,"2026-04-09 18:20:00","2337","0.938","202.7","2.025","176.6","1016.942","19.54","52.73","NAN","0.0"],
    [1549628,"2026-04-09 18:30:00","2338","1.212","192.3","1.895","200.0","1016.98","19.4","53.32","NAN","0.0"],
    [1549629,"2026-04-09 18:40:00","2339","0.9740000000000001","195.2","1.601","192.8","1017.012","19.1","55.46","NAN","0.0"],
    [1549630,"2026-04-09 18:50:00","2340","1.0659999999999998","189.7","1.4369999999999998","206.5","1017.181","18.86","56.59","NAN","0.0"],
    [1549631,"2026-04-09 19:00:00","2341","0.841","193.6","1.535","199.9","1017.192","18.87","56.25","NAN","0.0"],
    [1549632,"2026-04-09 19:10:00","2342","0.588","192.8","1.045","197.8","1017.294","18.71","58.34","NAN","0.0"],
    [1549633,"2026-04-09 19:20:00","2343","0.733","193.6","1.339","203.9","1017.321","18.59","58.64","NAN","0.0"],
    [1549634,"2026-04-09 19:30:00","2344","0.909","251.0","1.96","269.8","1017.4","18.9","56.18","NAN","0.0"],
    [1549635,"2026-04-09 19:40:00","2345","0.8420000000000001","239.6","2.45","253.1","1017.55","19.28","55.16","NAN","0.0"],
    [1549636,"2026-04-09 19:50:00","2346","0.358","211.3","0.98","209.5","1017.562","18.92","57.45","NAN","0.0"],
    [1549637,"2026-04-09 20:00:00","2347","0.569","223.7","1.111","219.2","1017.653","18.85","58.97","NAN","0.0"],
    [1549638,"2026-04-09 20:10:00","2348","0.27699999999999997","207.6","0.882","215.2","1017.71","18.79","59.6","NAN","0.0"],
    [1549639,"2026-04-09 20:20:00","2349","0.132","144.6","0.653","166.0","1017.758","18.4","62.01","NAN","0.0"],
    [1549640,"2026-04-09 20:30:00","2350","0.677","98.5","1.405","91.6","1017.83","17.93","67.78","NAN","0.0"],
    [1549641,"2026-04-09 20:40:00","2351","1.182","78.85","1.797","100.4","1017.929","17.63","72.77","NAN","0.0"],
    [1549642,"2026-04-09 20:50:00","2352","0.374","99.7","1.111","71.93","1017.977","17.36","75.62","NAN","0.0"],
    [1549643,"2026-04-09 21:00:00","2353","0.615","99.4","1.307","73.65","1017.995","17.11","76.68","NAN","0.0"],
    [1549644,"2026-04-09 21:10:00","2354","0.528","92.4","1.176","91.3","1017.975","16.97","79.33","NAN","0.0"],
    [1549645,"2026-04-09 21:20:00","2355","0.11199999999999999","120.2","0.7509999999999999","110.7","1017.8969999999999","16.73","81.7","NAN","0.0"],
    [1549646,"2026-04-09 21:30:00","2356","0.33399999999999996","110.3","0.784","114.7","1017.9119999999999","16.73","82.4","NAN","0.0"],
    [1549647,"2026-04-09 21:40:00","2357","0.146","180.5","0.588","181.0","1017.887","16.72","82.7","NAN","0.0"],
    [1549648,"2026-04-09 21:50:00","2358","0.525","200.9","1.078","211.9","1017.82","16.62","83.7","NAN","0.0"],
    [1549649,"2026-04-09 22:00:00","2359","0.298","182.0","0.7190000000000001","181.3","1017.9069999999999","16.47","84","NAN","0.0"],
    [1549650,"2026-04-09 22:10:00","2360","0.0","0.0","0.0","0.0","1017.8839999999999","16.44","83.3","NAN","0.0"],
    [1549651,"2026-04-09 22:20:00","2361","0.0","0.0","0.0","0.0","1017.982","16.37","83.1","NAN","0.0"],
    [1549652,"2026-04-09 22:30:00","2362","0.28800000000000003","184.3","0.7190000000000001","182.5","1017.942","16.45","81.5","NAN","0.0"],
    [1549653,"2026-04-09 22:40:00","2363","0.244","197.9","1.111","202.3","1018.007","16.4","80.4","NAN","0.0"],
    [1549654,"2026-04-09 22:50:00","2364","0.5489999999999999","192.4","1.176","199.2","1017.987","16.41","80.3","NAN","0.0"],
    [1549655,"2026-04-09 23:00:00","2365","0.563","186.8","0.98","192.2","1018.007","16.23","80.3","NAN","0.0"],
    [1549656,"2026-04-09 23:10:00","2366","0.6629999999999999","200.6","0.882","188.9","1018.072","16.22","78.62","NAN","0.0"],
    [1549657,"2026-04-09 23:20:00","2367","0.001","271.8","0.196","269.6","1018.069","16.07","78.33","NAN","0.0"],
    [1549658,"2026-04-09 23:30:00","2368","0.0","0.0","0.0","0.0","1018.0169999999999","16.1","78.55","NAN","0.0"],
    [1549659,"2026-04-09 23:40:00","2369","0.0","0.0","0.0","0.0","1018.0089999999999","16.1","79.67","NAN","0.0"],
    [1549660,"2026-04-09 23:50:00","2370","0.307","190.4","0.784","191.4","1018.0089999999999","16.03","80.9","NAN","0.0"],
    [1549661,"2026-04-10 00:00:00","2371","0.0","0.0","0.0","0.0","1017.944","15.7","78.81","NAN","0.0"],
    [1549662,"2026-04-10 00:10:00","2372","0.0","0.0","0.0","0.0","1017.8889999999999","15.65","76.11","NAN","0.0"],
    [1549663,"2026-04-10 00:20:00","2373","0.0","0.0","0.0","0.0","1017.805","15.84","74.79","NAN","0.0"],
    [1549664,"2026-04-10 00:30:00","2374","0.087","189.7","0.6859999999999999","193.2","1017.7669999999999","15.84","75.25","NAN","0.0"],
    [1549665,"2026-04-10 00:40:00","2375","0.062","71.22","0.49","44.38","1017.7719999999999","15.7","76.04","NAN","0.0"],
    [1549666,"2026-04-10 00:50:00","2376","0.028999999999999998","132.9","0.359","130.3","1017.743","15.91","76.45","NAN","0.0"],
    [1549667,"2026-04-10 01:00:00","2377","0.44799999999999995","206.0","0.784","186.2","1017.555","15.72","77.79","NAN","0.0"],
    [1549668,"2026-04-10 01:10:00","2378","0.153","203.0","0.653","196.4","1017.52","15.61","77.91","NAN","0.0"],
    [1549669,"2026-04-10 01:20:00","2379","0.14300000000000002","176.0","0.653","176.4","1017.548","15.36","73.78","NAN","0.0"],
    [1549670,"2026-04-10 01:30:00","2380","0.141","207.2","0.653","206.9","1017.5139999999999","15.31","72.41","NAN","0.0"],
    [1549671,"2026-04-10 01:40:00","2381","0.0","0.0","0.0","0.0","1017.4680000000001","15.44","72.88","NAN","0.0"],
    [1549672,"2026-04-10 01:50:00","2382","0.27899999999999997","194.8","0.915","179.1","1017.302","15.49","76.79","NAN","0.0"],
    [1549673,"2026-04-10 02:00:00","2383","0.20600000000000002","191.1","0.621","204.9","1017.2310000000001","15.23","78.67","NAN","0.0"],
    [1549674,"2026-04-10 02:10:00","2384","0.11599999999999999","185.1","0.555","181.9","1017.118","15.12","78.01","NAN","0.0"],
    [1549675,"2026-04-10 02:20:00","2385","0.024","19.74","0.7190000000000001","37.2","1017.138","15.14","77.87","NAN","0.0"],
    [1549676,"2026-04-10 02:30:00","2386","0.14","34.66","0.915","31.67","1017.062","15.33","78.32","NAN","0.0"],
    [1549677,"2026-04-10 02:40:00","2387","0.0","0.0","0.0","0.0","1017.0269999999999","15.26","79.76","NAN","0.0"],
    [1549678,"2026-04-10 02:50:00","2388","0.033","187.7","0.621","187.4","1016.9860000000001","14.81","80.7","NAN","0.0"],
    [1549679,"2026-04-10 03:00:00","2389","0.48100000000000004","201.1","0.9470000000000001","183.6","1016.9780000000001","14.9","80.7","NAN","0.0"],
    [1549680,"2026-04-10 03:10:00","2390","0.26","170.6","0.882","200.0","1017.085","14.81","80.7","NAN","0.0"],
    [1549681,"2026-04-10 03:20:00","2391","0.025","105.1","0.327","104.2","1016.9780000000001","14.58","80.1","NAN","0.0"],
    [1549682,"2026-04-10 03:30:00","2392","0.303","30.34","0.98","33.1","1017.0360000000001","14.93","76.83","NAN","0.0"],
    [1549683,"2026-04-10 03:40:00","2393","0.46299999999999997","37.39","1.176","40.28","1016.97","15.02","67.21","NAN","0.0"],
    [1549684,"2026-04-10 03:50:00","2394","0.086","61.59","0.6859999999999999","62.31","1016.808","15.24","60.47","NAN","0.0"],
    [1549685,"2026-04-10 04:00:00","2395","0.0","0.0","0.0","0.0","1016.7860000000001","15.21","60.39","NAN","0.0"],
    [1549686,"2026-04-10 04:10:00","2396","0.02","34.39","0.555","58.03","1016.79","15.2","60.66","NAN","0.0"],
    [1549687,"2026-04-10 04:20:00","2397","0.287","5.579","0.7509999999999999","3.345","1016.7769999999999","15.15","61.49","NAN","0.0"],
    [1549688,"2026-04-10 04:30:00","2398","0.0","0.0","0.0","0.0","1016.7310000000001","15.33","60.4","NAN","0.0"],
    [1549689,"2026-04-10 04:40:00","2399","0.147","27.84","0.7509999999999999","46.11","1016.682","15.32","60.8","NAN","0.0"],
    [1549690,"2026-04-10 04:50:00","2400","0.247","227.5","0.7190000000000001","262.6","1016.768","15.42","61.1","NAN","0.0"],
    [1549691,"2026-04-10 05:00:00","2401","0.235","170.2","0.6859999999999999","166.3","1016.7860000000001","15.01","68.51","NAN","0.0"],
    [1549692,"2026-04-10 05:10:00","2402","0.095","188.5","0.49","116.6","1016.7819999999999","14.66","66.93","NAN","0.0"],
    [1549693,"2026-04-10 05:20:00","2403","0.204","189.2","0.621","208.9","1016.78","14.84","66.98","NAN","0.0"],
    [1549694,"2026-04-10 05:30:00","2404","0.24600000000000002","48.55","0.6859999999999999","48.39","1016.796","14.65","70.1","NAN","0.0"],
    [1549695,"2026-04-10 05:40:00","2405","0.501","0.84","0.9470000000000001","9.44","1016.8689999999999","15.09","62.85","NAN","0.0"],
    [1549696,"2026-04-10 05:50:00","2406","0.245","13.02","0.653","15.48","1016.807","15.55","59.13","NAN","0.0"],
    [1549697,"2026-04-10 06:00:00","2407","0.122","19.51","0.621","34.83","1016.818","15.74","58.98","NAN","0.0"],
    [1549698,"2026-04-10 06:10:00","2408","0.27399999999999997","28.51","0.882","6.327999999999999","1016.9580000000001","16.02","57.49","NAN","0.0"],
    [1549699,"2026-04-10 06:20:00","2409","0.409","94.7","0.7509999999999999","95.9","1017.0110000000001","16.27","56.12","NAN","0.0"],
    [1549700,"2026-04-10 06:30:00","2410","0.534","141.0","1.2409999999999999","116.5","1017.221","16.51","56.51","NAN","0.0"],
    [1549701,"2026-04-10 06:40:00","2411","0.8690000000000001","196.3","1.4369999999999998","195.6","1017.325","16.23","62.12","NAN","0.0"],
    [1549702,"2026-04-10 06:50:00","2412","0.6809999999999999","170.4","1.5030000000000001","202.5","1017.317","16.35","63.45","NAN","0.0"],
    [1549703,"2026-04-10 07:00:00","2413","0.303","171.9","0.9470000000000001","190.5","1017.418","17.02","62.1","NAN","0.0"],
    [1549704,"2026-04-10 07:10:00","2414","0.6890000000000001","112.0","1.176","109.7","1017.645","17.7","58.73","NAN","0.0"],
    [1549705,"2026-04-10 07:20:00","2415","0.28300000000000003","162.1","0.8170000000000001","202.2","1017.7719999999999","18.01","55.9","NAN","0.0"],
    [1549706,"2026-04-10 07:30:00","2416","0.657","239.6","2.483","254.1","1017.904","18.35","51.74","NAN","0.0"],
    [1549707,"2026-04-10 07:40:00","2417","1.465","246.0","3.6910000000000003","246.8","1017.936","18.9","45.77","NAN","0.0"],
    [1549708,"2026-04-10 07:50:00","2418","1.365","272.4","2.7769999999999997","302.3","1017.908","18.93","45.12","NAN","0.0"],
    [1549709,"2026-04-10 08:00:00","2419","1.5119999999999998","267.7","3.071","257.6","1017.7739999999999","19.6","43.11","NAN","0.0"],
    [1549710,"2026-04-10 08:10:00","2420","1.38","245.5","2.417","224.9","1017.822","20","41.96","NAN","0.0"],
    [1549711,"2026-04-10 08:20:00","2421","1.369","248.7","2.7110000000000003","225.0","1017.9010000000001","20.42","40.64","NAN","0.0"],
    [1549712,"2026-04-10 08:30:00","2422","2.0540000000000003","239.9","3.855","244.3","1017.929","20.69","39.76","NAN","0.0"],
    [1549713,"2026-04-10 08:40:00","2423","1.932","247.8","3.365","243.4","1017.921","21.12","38.59","NAN","0.0"],
    [1549714,"2026-04-10 08:50:00","2424","1.1","218.1","2.7439999999999998","253.9","1017.9810000000001","21.96","37.28","NAN","0.0"],
    [1549715,"2026-04-10 09:00:00","2425","1.594","231.7","3.234","237.2","1018.1389999999999","22.53","35.69","NAN","0.0"],
    [1549716,"2026-04-10 09:10:00","2426","1.3769999999999998","233.6","2.483","232.9","1018.16","22.84","34.36","NAN","0.0"],
    [1549717,"2026-04-10 09:20:00","2427","1.617","169.6","2.679","180.0","1018.143","21.85","50.75","NAN","0.0"],
    [1549718,"2026-04-10 09:30:00","2428","1.97","167.2","3.0380000000000003","179.5","1018.0830000000001","20.48","60.71","NAN","0.0"],
    [1549719,"2026-04-10 09:40:00","2429","2.42","173.1","3.332","163.2","1018.14","19.42","67.48","NAN","0.0"],
    [1549720,"2026-04-10 09:50:00","2430","2.509","178.9","3.593","175.1","1018.08","18.67","73.82","NAN","0.0"],
    [1549721,"2026-04-10 10:00:00","2431","2.5789999999999997","183.7","4.41","176.0","1018.025","18.21","76.86","NAN","0.0"],
    [1549722,"2026-04-10 10:10:00","2432","2.7110000000000003","181.2","4.704","179.6","1017.938","18","80.3","NAN","0.0"],
    [1549723,"2026-04-10 10:20:00","2433","2.049","173.6","4.018","172.5","1017.918","17.92","82.5","NAN","0.0"],
    [1549724,"2026-04-10 10:30:00","2434","2.116","169.9","3.7569999999999997","185.7","1017.8760000000001","18.31","79.17","NAN","0.0"],
    [1549725,"2026-04-10 10:40:00","2435","2.128","172.8","3.528","173.3","1017.721","18.35","77.52","NAN","0.0"],
    [1549726,"2026-04-10 10:50:00","2436","2.281","173.8","3.201","176.6","1017.687","18.43","74.48","NAN","0.0"],
    [1549727,"2026-04-10 11:00:00","2437","2.419","172.1","3.9530000000000003","165.6","1017.612","18.43","73.73","NAN","0.0"],
    [1549728,"2026-04-10 11:10:00","2438","1.9969999999999999","164.1","3.365","174.3","1017.539","18.81","72.8","NAN","0.0"],
    [1549729,"2026-04-10 11:20:00","2439","2.374","168.8","3.463","175.8","1017.43","18.77","72.39","NAN","0.0"],
    [1549730,"2026-04-10 11:30:00","2440","1.591","167.6","3.0380000000000003","182.6","1017.325","19.31","71.79","NAN","0.0"],
    [1549731,"2026-04-10 11:40:00","2441","2.051","170.9","2.9730000000000003","170.7","1017.216","19.75","71.11","NAN","0.0"],
    [1549732,"2026-04-10 11:50:00","2442","1.834","165.7","2.613","168.1","1017.171","20.05","69.29","NAN","0.0"],
    [1549733,"2026-04-10 12:00:00","2443","1.8","173.7","2.842","170.4","1016.9839999999999","20.84","64.65","NAN","0.0"],
    [1549734,"2026-04-10 12:10:00","2444","1.365","197.9","2.319","211.0","1016.8839999999999","22.17","56.86","NAN","0.0"],
    [1549735,"2026-04-10 12:20:00","2445","2.217","188.4","4.377","178.6","1016.752","23.02","44.23","NAN","0.0"],
    [1549736,"2026-04-10 12:30:00","2446","2.233","188.2","3.7889999999999997","165.9","1016.69","23.71","38.44","NAN","0.0"],
    [1549737,"2026-04-10 12:40:00","2447","1.599","186.1","2.515","172.9","1016.551","24.27","38.56","NAN","0.0"],
    [1549738,"2026-04-10 12:50:00","2448","2.023","175.4","3.103","174.7","1016.421","24.4","37.94","NAN","0.0"],
    [1549739,"2026-04-10 13:00:00","2449","2.575","170.1","3.659","176.3","1016.3739999999999","23.59","41.11","NAN","0.0"],
    [1549740,"2026-04-10 13:10:00","2450","2.9019999999999997","167.4","3.9530000000000003","161.5","1016.3389999999999","22.73","46.19","NAN","0.0"],
    [1549741,"2026-04-10 13:20:00","2451","3.12","170.8","4.606","176.7","1016.2919999999999","22.04","47.79","NAN","0.0"],
    [1549742,"2026-04-10 13:30:00","2452","2.376","175.6","3.267","183.3","1016.197","22.48","45.79","NAN","0.0"],
    [1549743,"2026-04-10 13:40:00","2453","2.823","179.8","4.606","188.9","1016.192","23.46","39.22","NAN","0.0"],
    [1549744,"2026-04-10 13:50:00","2454","2.764","187.1","4.965","170.6","1016.09","23.87","36.52","NAN","0.0"],
    [1549745,"2026-04-10 14:00:00","2455","2.9530000000000003","189.9","5.325","177.3","1015.9630000000001","23.91","35.9","NAN","0.0"],
    [1549746,"2026-04-10 14:10:00","2456","2.781","196.4","5.586","172.9","1015.885","24.48","34.18","NAN","0.0"],
    [1549747,"2026-04-10 14:20:00","2457","3.5860000000000003","192.4","6.664","194.4","1015.689","24.28","32.77","NAN","0.0"],
    [1549748,"2026-04-10 14:30:00","2458","3.023","190.4","5.945","173.2","1015.6489999999999","23.98","34.6","NAN","0.0"],
    [1549749,"2026-04-10 14:40:00","2459","3.2039999999999997","196.5","6.7620000000000005","202.8","1015.462","24.23","32.09","NAN","0.0"],
    [1549750,"2026-04-10 14:50:00","2460","2.679","197.4","6.042999999999999","196.2","1015.278","24.14","34.04","NAN","0.0"],
    [1549751,"2026-04-10 15:00:00","2461","2.7969999999999997","199.7","5.227","225.1","1015.198","24.03","35.84","NAN","0.0"],
    [1549752,"2026-04-10 15:10:00","2462","2.609","196.9","4.867","176.6","1015.1460000000001","23.95","34.8","NAN","0.0"],
    [1549753,"2026-04-10 15:20:00","2463","1.9509999999999998","206.2","3.9530000000000003","211.0","1015.0039999999999","24.44","33","NAN","0.0"],
    [1549754,"2026-04-10 15:30:00","2464","1.959","214.6","4.475","187.0","1014.927","25.32","28.23","NAN","0.0"],
    [1549755,"2026-04-10 15:40:00","2465","2.352","218.4","5.521","232.5","1014.812","25.34","27.01","NAN","0.0"],
    [1549756,"2026-04-10 15:50:00","2466","2.766","222.1","6.0760000000000005","219.8","1014.69","25.29","24.84","NAN","0.0"],
    [1549757,"2026-04-10 16:00:00","2467","3.0439999999999996","224.5","5.847","246.2","1014.568","25.26","24.37","NAN","0.0"],
    [1549758,"2026-04-10 16:10:00","2468","3.1660000000000004","222.2","6.1739999999999995","223.9","1014.508","24.92","25.23","NAN","0.0"],
    [1549759,"2026-04-10 16:20:00","2469","2.634","214.4","6.5329999999999995","230.8","1014.441","24.69","26.76","NAN","0.0"],
    [1549760,"2026-04-10 16:30:00","2470","2.3040000000000003","205.1","4.247","198.8","1014.329","23.89","29.29","NAN","0.0"],
    [1549761,"2026-04-10 16:40:00","2471","2.524","206.8","4.737","208.2","1014.322","23.83","27.63","NAN","0.0"],
    [1549762,"2026-04-10 16:50:00","2472","2.125","216.2","4.802","239.1","1014.297","23.89","25.69","NAN","0.0"],
    [1549763,"2026-04-10 17:00:00","2473","1.834","223.4","4.965","226.8","1014.2439999999999","24.19","24.49","NAN","0.0"],
    [1549764,"2026-04-10 17:10:00","2474","2.396","226.4","5.88","236.7","1014.202","23.86","23.65","NAN","0.0"],
    [1549765,"2026-04-10 17:20:00","2475","2.4459999999999997","223.5","5.815","226.7","1014.19","23.85","23.48","NAN","0.0"],
    [1549766,"2026-04-10 17:30:00","2476","2.582","226.9","6.0760000000000005","227.2","1014.187","23.79","23.23","NAN","0.0"],
    [1549767,"2026-04-10 17:40:00","2477","2.35","234.5","4.998","254.1","1014.18","23.79","22.77","NAN","0.0"],
    [1549768,"2026-04-10 17:50:00","2478","2.4819999999999998","227.1","5.422999999999999","199.9","1014.165","23.68","22.44","NAN","0.0"],
    [1549769,"2026-04-10 18:00:00","2479","2.6260000000000003","220.8","5.194","201.5","1014.187","23.56","22.65","NAN","0.0"],
    [1549770,"2026-04-10 18:10:00","2480","2.276","217.6","4.573","234.9","1014.2","23.38","23.11","NAN","0.0"],
    [1549771,"2026-04-10 18:20:00","2481","2.1390000000000002","219.4","5.39","205.2","1014.222","23.22","23.62","NAN","0.0"],
    [1549772,"2026-04-10 18:30:00","2482","1.35","223.6","3.103","213.6","1014.317","23.06","24.12","NAN","0.0"],
    [1549773,"2026-04-10 18:40:00","2483","0.769","240.3","2.254","252.8","1014.357","22.95","24.45","NAN","0.0"],
    [1549774,"2026-04-10 18:50:00","2484","0.196","207.8","0.9470000000000001","184.6","1014.4639999999999","22.61","26.01","NAN","0.0"],
    [1549775,"2026-04-10 19:00:00","2485","0.8809999999999999","224.1","2.123","238.6","1014.573","22.46","26.61","NAN","0.0"],
    [1549776,"2026-04-10 19:10:00","2486","0.428","199.1","1.209","200.9","1014.628","21.85","29.78","NAN","0.0"],
    [1549777,"2026-04-10 19:20:00","2487","0.951","191.4","1.535","199.3","1014.7","21.47","31.13","NAN","0.0"],
    [1549778,"2026-04-10 19:30:00","2488","0.01","202.4","0.261","202.3","1014.77","21.33","31.25","NAN","0.0"],
    [1549779,"2026-04-10 19:40:00","2489","0.136","176.0","0.588","183.0","1014.8539999999999","21.15","31.95","NAN","0.0"],
    [1549780,"2026-04-10 19:50:00","2490","0.002","139.4","0.131","139.6","1014.957","21","33.48","NAN","0.0"],
    [1549781,"2026-04-10 20:00:00","2491","0.142","238.1","0.9470000000000001","233.4","1014.9630000000001","20.66","34.04","NAN","0.0"],
    [1549782,"2026-04-10 20:10:00","2492","0.257","227.0","1.2409999999999999","242.0","1014.962","20.9","32.7","NAN","0.0"],
    [1549783,"2026-04-10 20:20:00","2493","0.49200000000000005","204.5","1.143","234.8","1014.96","21.08","32.64","NAN","0.0"],
    [1549784,"2026-04-10 20:30:00","2494","0.604","168.7","1.307","167.5","1015.023","20.44","37.59","NAN","0.0"],
    [1549785,"2026-04-10 20:40:00","2495","0.175","177.7","0.7509999999999999","171.1","1015.055","19.85","42.38","NAN","0.0"],
    [1549786,"2026-04-10 20:50:00","2496","0.479","192.9","0.915","186.3","1015.0089999999999","19.47","46.02","NAN","0.0"],
    [1549787,"2026-04-10 21:00:00","2497","0.235","156.6","0.7190000000000001","184.9","1014.9860000000001","19.03","51.17","NAN","0.0"],
    [1549788,"2026-04-10 21:10:00","2498","0.011000000000000001","74.21","0.425","91.2","1014.93","18.85","53.29","NAN","0.0"],
    [1549789,"2026-04-10 21:20:00","2499","0.168","99.4","0.457","105.3","1014.908","18.85","51.51","NAN","0.0"],
    [1549790,"2026-04-10 21:30:00","2500","0.163","166.8","0.621","141.2","1014.835","19.04","47.83","NAN","0.0"],
    [1549791,"2026-04-10 21:40:00","2501","0.006","200.5","0.294","182.0","1014.8439999999999","19.05","47.58","NAN","0.0"],
    [1549792,"2026-04-10 21:50:00","2502","0.33799999999999997","193.1","0.9470000000000001","186.4","1014.823","19.09","46.79","NAN","0.0"],
    [1549793,"2026-04-10 22:00:00","2503","0.319","173.5","0.7509999999999999","195.9","1014.773","18.89","49.37","NAN","0.0"],
    [1549794,"2026-04-10 22:10:00","2504","0.0","0.0","0.0","0.0","1014.748","18.57","50.26","NAN","0.0"],
    [1549795,"2026-04-10 22:20:00","2505","0.0","0.0","0.0","0.0","1014.7310000000001","18.44","51.07","NAN","0.0"],
    [1549796,"2026-04-10 22:30:00","2506","0.084","143.6","0.425","145.4","1014.7080000000001","18.43","51.17","NAN","0.0"],
    [1549797,"2026-04-10 22:40:00","2507","0.0","0.0","0.0","0.0","1014.541","18.36","52.38","NAN","0.0"],
    [1549798,"2026-04-10 22:50:00","2508","0.10400000000000001","133.4","0.49","133.6","1014.5269999999999","18.26","53.4","NAN","0.0"],
    [1549799,"2026-04-10 23:00:00","2509","0.371","183.6","1.176","188.6","1014.54","18.21","54.13","NAN","0.0"],
    [1549800,"2026-04-10 23:10:00","2510","0.375","167.5","1.078","172.7","1014.424","17.89","58.34","NAN","0.0"],
    [1549801,"2026-04-10 23:20:00","2511","0.129","165.8","0.621","200.3","1014.3919999999999","17.6","61.37","NAN","0.0"],
    [1549802,"2026-04-10 23:30:00","2512","0.0","0.0","0.0","0.0","1014.2819999999999","17.38","61.8","NAN","0.0"],
    [1549803,"2026-04-10 23:40:00","2513","0.0","0.0","0.0","0.0","1014.2139999999999","17.6","60.17","NAN","0.0"],
    [1549804,"2026-04-10 23:50:00","2514","0.154","139.5","0.555","89.2","1014.05","17.57","60.34","NAN","0.0"],
    [1549805,"2026-04-11 00:00:00","2515","0.146","178.2","0.49","183.7","1014.015","17.3","62.23","NAN","0.0"],
    [1549806,"2026-04-11 00:10:00","2516","0.0","0.0","0.0","0.0","1013.9","17.05","61.89","NAN","0.0"],
    [1549807,"2026-04-11 00:20:00","2517","0.037000000000000005","161.5","0.327","161.4","1013.8330000000001","17.03","63.62","NAN","0.0"],
    [1549808,"2026-04-11 00:30:00","2518","0.337","16.84","0.915","35.44","1013.72","17.1","62.67","NAN","0.0"],
    [1549809,"2026-04-11 00:40:00","2519","0.26","34.94","1.078","54.23","1013.6030000000001","17.54","59.1","NAN","0.0"],
    [1549810,"2026-04-11 00:50:00","2520","0.23199999999999998","46.8","0.8170000000000001","48.7","1013.564","17.47","55.47","NAN","0.0"],
    [1549811,"2026-04-11 01:00:00","2521","0.185","40.12","0.7509999999999999","36.62","1013.403","17.45","51.49","NAN","0.0"],
    [1549812,"2026-04-11 01:10:00","2522","0.11199999999999999","42.49","0.7509999999999999","37.07","1013.2410000000001","17.38","51.14","NAN","0.0"],
    [1549813,"2026-04-11 01:20:00","2523","0.039","164.2","0.49","164.2","1013.177","17.04","56.61","NAN","0.0"],
    [1549814,"2026-04-11 01:30:00","2524","0.563","189.3","0.7509999999999999","204.0","1013.046","16.71","58.7","NAN","0.0"],
    [1549815,"2026-04-11 01:40:00","2525","0.28800000000000003","209.7","0.621","198.1","1012.921","16.55","63","NAN","0.0"],
    [1549816,"2026-04-11 01:50:00","2526","0.622","194.9","0.8490000000000001","201.7","1012.945","16.53","64.89","NAN","0.0"],
    [1549817,"2026-04-11 02:00:00","2527","0.021","166.7","0.457","166.7","1012.948","16.36","65.61","NAN","0.0"],
    [1549818,"2026-04-11 02:10:00","2528","0.0","0.0","0.0","0.0","1012.918","16.37","65.88","NAN","0.0"],
    [1549819,"2026-04-11 02:20:00","2529","0.0","0.0","0.0","0.0","1012.821","16.19","64.75","NAN","0.0"],
    [1549820,"2026-04-11 02:30:00","2530","0.134","180.2","0.523","177.4","1012.812","16.23","64.03","NAN","0.0"],
    [1549821,"2026-04-11 02:40:00","2531","0.39799999999999996","178.7","1.045","184.1","1012.7660000000001","16.02","66.61","NAN","0.0"],
    [1549822,"2026-04-11 02:50:00","2532","0.28","185.4","0.784","180.7","1012.703","15.9","63.07","NAN","0.0"],
    [1549823,"2026-04-11 03:00:00","2533","0.151","237.6","1.307","260.8","1012.58","15.82","56.85","NAN","0.0"],
    [1549824,"2026-04-11 03:10:00","2534","0.754","239.3","1.601","203.3","1012.568","16.86","50.21","NAN","0.0"],
    [1549825,"2026-04-11 03:20:00","2535","0.536","263.9","1.699","277.1","1012.557","16.44","51.13","NAN","0.0"],
    [1549826,"2026-04-11 03:30:00","2536","1.041","263.0","2.352","253.9","1012.4839999999999","17.96","39.3","NAN","0.0"],
    [1549827,"2026-04-11 03:40:00","2537","0.93","265.4","1.9269999999999998","242.5","1012.3910000000001","18.23","38.27","NAN","0.0"],
    [1549828,"2026-04-11 03:50:00","2538","0.823","269.2","1.7309999999999999","261.0","1012.302","18.18","38.42","NAN","0.0"],
    [1549829,"2026-04-11 04:00:00","2539","0.5670000000000001","261.0","1.633","260.7","1012.297","18.17","38.88","NAN","0.0"],
    [1549830,"2026-04-11 04:10:00","2540","0.369","273.8","1.47","252.4","1012.22","17.49","42.4","NAN","0.0"],
    [1549831,"2026-04-11 04:20:00","2541","0.852","288.1","1.47","252.4","1012.1080000000001","18.1","39.06","NAN","0.0"],
    [1549832,"2026-04-11 04:30:00","2542","1.014","288.1","2.221","300.3","1012.0089999999999","18.2","38.63","NAN","0.0"],
    [1549833,"2026-04-11 04:40:00","2543","0.7170000000000001","271.5","1.7309999999999999","248.2","1011.836","18.24","38.96","NAN","0.0"],
    [1549834,"2026-04-11 04:50:00","2544","0.465","259.8","1.209","264.1","1011.841","18.31","39.67","NAN","0.0"],
    [1549835,"2026-04-11 05:00:00","2545","0.449","181.9","0.784","174.1","1011.898","17.44","44.55","NAN","0.0"],
    [1549836,"2026-04-11 05:10:00","2546","0.0","0.0","0.0","0.0","1011.794","16.99","46.02","NAN","0.0"],
    [1549837,"2026-04-11 05:20:00","2547","0.0","0.0","0.0","0.0","1011.7739999999999","17.22","45.56","NAN","0.0"],
    [1549838,"2026-04-11 05:30:00","2548","0.06","329.7","0.98","330.8","1011.7339999999999","17.18","45.71","NAN","0.0"],
    [1549839,"2026-04-11 05:40:00","2549","0.49200000000000005","337.5","1.111","335.5","1011.577","17.62","43.37","NAN","0.0"],
    [1549840,"2026-04-11 05:50:00","2550","0.547","346.8","1.111","312.7","1011.66","17.94","43.23","NAN","0.0"],
    [1549841,"2026-04-11 06:00:00","2551","0.222","55.77","0.7509999999999999","354.9","1011.8810000000001","17.62","45.04","NAN","0.0"],
    [1549842,"2026-04-11 06:10:00","2552","0.24","162.4","0.915","180.1","1012.023","17.2","48.93","NAN","0.0"],
    [1549843,"2026-04-11 06:20:00","2553","0.172","335.0","0.6859999999999999","323.6","1011.7510000000001","17.03","50.2","NAN","0.0"],
    [1549844,"2026-04-11 06:30:00","2554","0.314","352.1","0.8490000000000001","11.66","1011.5989999999999","17.66","45.47","NAN","0.0"],
    [1549845,"2026-04-11 06:40:00","2555","0.044000000000000004","0.674","0.588","356.0","1011.627","18.12","44.47","NAN","0.0"],
    [1549846,"2026-04-11 06:50:00","2556","0.0","0.0","0.0","0.0","1011.552","18.43","43.59","NAN","0.0"],
    [1549847,"2026-04-11 07:00:00","2557","0.474","183.9","1.274","169.8","1011.546","18.61","44.29","NAN","0.0"],
    [1549848,"2026-04-11 07:10:00","2558","0.7020000000000001","192.8","1.405","194.7","1011.485","18.17","51.96","NAN","0.0"],
    [1549849,"2026-04-11 07:20:00","2559","0.45299999999999996","170.3","1.045","185.6","1011.4810000000001","17.72","55.5","NAN","0.0"],
    [1549850,"2026-04-11 07:30:00","2560","0.525","166.8","1.078","171.1","1011.4630000000001","18.01","48.87","NAN","0.0"],
    [1549851,"2026-04-11 07:40:00","2561","0.622","142.3","1.3719999999999999","112.2","1011.573","18.43","49.35","NAN","0.0"],
    [1549852,"2026-04-11 07:50:00","2562","0.52","129.8","1.045","121.9","1011.585","18.76","46.78","NAN","0.0"],
    [1549853,"2026-04-11 08:00:00","2563","0.129","126.0","0.7509999999999999","149.7","1011.585","19.64","43.2","NAN","0.0"],
    [1549854,"2026-04-11 08:10:00","2564","0.371","112.1","0.915","81.8","1011.5830000000001","19.96","43.13","NAN","0.0"],
    [1549855,"2026-04-11 08:20:00","2565","0.38","145.5","0.784","118.7","1011.697","20.44","41.82","NAN","0.0"],
    [1549856,"2026-04-11 08:30:00","2566","0.47","90.0","1.7309999999999999","272.1","1011.687","21.24","38.87","NAN","0.0"],
    [1549857,"2026-04-11 08:40:00","2567","1.095","193.0","3.267","212.9","1011.704","22.45","33.25","NAN","0.0"],
    [1549858,"2026-04-11 08:50:00","2568","1.304","237.7","3.463","253.5","1011.7769999999999","22.9","27.68","NAN","0.0"],
    [1549859,"2026-04-11 09:00:00","2569","1.224","241.8","3.005","221.0","1011.816","23.19","26.58","NAN","0.0"],
    [1549860,"2026-04-11 09:10:00","2570","1.778","244.1","3.332","248.4","1011.8610000000001","23.31","25.96","NAN","0.0"],
    [1549861,"2026-04-11 09:20:00","2571","1.45","231.8","3.495","267.8","1011.956","23.5","25.82","NAN","0.0"],
    [1549862,"2026-04-11 09:30:00","2572","1.694","221.1","3.43","220.2","1012.0260000000001","23.56","26.27","NAN","0.0"],
    [1549863,"2026-04-11 09:40:00","2573","1.966","232.7","4.051","234.0","1011.966","23.19","27.75","NAN","0.0"],
    [1549864,"2026-04-11 09:50:00","2574","1.805","242.5","3.463","231.7","1011.961","23.02","29.1","NAN","0.0"],
    [1549865,"2026-04-11 10:00:00","2575","1.7719999999999998","237.7","3.463","233.7","1011.9860000000001","23.04","29.63","NAN","0.0"],
    [1549866,"2026-04-11 10:10:00","2576","1.84","235.8","3.495","250.6","1011.953","22.97","30.38","NAN","0.0"],
    [1549867,"2026-04-11 10:20:00","2577","1.423","182.9","3.1689999999999996","228.1","1011.961","22.78","36.63","NAN","0.0"],
    [1549868,"2026-04-11 10:30:00","2578","1.014","176.3","1.5030000000000001","168.4","1011.7810000000001","22.69","40.56","NAN","0.0"],
    [1549869,"2026-04-11 10:40:00","2579","1.571","185.2","2.189","178.4","1011.664","21.73","50.29","NAN","0.0"],
    [1549870,"2026-04-11 10:50:00","2580","1.685","175.7","2.417","168.6","1011.612","20.4","57.56","NAN","0.0"],
    [1549871,"2026-04-11 11:00:00","2581","1.4180000000000001","186.0","2.875","180.9","1011.465","19.99","59.92","NAN","0.0"],
    [1549872,"2026-04-11 11:10:00","2582","1.8659999999999999","180.8","2.8089999999999997","173.0","1011.2560000000001","19.62","61.63","NAN","0.0"],
    [1549873,"2026-04-11 11:20:00","2583","1.86","184.1","3.201","184.9","1011.211","19.87","60.82","NAN","0.0"],
    [1549874,"2026-04-11 11:30:00","2584","1.655","185.5","2.875","176.7","1011.079","19.92","57.07","NAN","0.0"],
    [1549875,"2026-04-11 11:40:00","2585","1.2329999999999999","170.9","2.907","162.7","1010.935","20.57","54.86","NAN","0.0"],
    [1549876,"2026-04-11 11:50:00","2586","1.3159999999999998","173.8","2.45","181.4","1010.765","20.67","51.58","NAN","0.0"],
    [1549877,"2026-04-11 12:00:00","2587","1.651","163.1","3.463","163.5","1010.795","20.68","50.85","NAN","0.0"],
    [1549878,"2026-04-11 12:10:00","2588","1.197","143.0","3.463","177.4","1010.72","20.79","55.79","NAN","0.0"],
    [1549879,"2026-04-11 12:20:00","2589","1.922","176.4","3.593","178.0","1010.778","20.28","49.94","NAN","0.0"],
    [1549880,"2026-04-11 12:30:00","2590","2.017","181.1","3.5610000000000004","182.6","1010.7130000000001","20.17","48.5","NAN","0.0"],
    [1549881,"2026-04-11 12:40:00","2591","1.385","177.4","2.7769999999999997","181.4","1010.68","20.19","51.52","NAN","0.0"],
    [1549882,"2026-04-11 12:50:00","2592","1.661","181.2","3.201","163.7","1010.561","20.12","50.13","NAN","0.0"],
    [1549883,"2026-04-11 13:00:00","2593","1.426","180.5","3.201","169.0","1010.566","20.04","55.46","NAN","0.0"],
    [1549884,"2026-04-11 13:10:00","2594","1.6440000000000001","169.5","3.6910000000000003","161.2","1010.4739999999999","20.64","55.03","NAN","0.0"],
    [1549885,"2026-04-11 13:20:00","2595","2.324","182.0","3.822","174.5","1010.5830000000001","20.24","56.44","NAN","0.0"],
    [1549886,"2026-04-11 13:30:00","2596","2.613","178.8","4.541","183.6","1010.554","19.48","61.27","NAN","0.0"],
    [1549887,"2026-04-11 13:40:00","2597","2.144","178.4","3.985","181.2","1010.533","19.68","58","NAN","0.0"],
    [1549888,"2026-04-11 13:50:00","2598","1.422","167.0","2.352","173.4","1010.357","20.52","50.28","NAN","0.0"],
    [1549889,"2026-04-11 14:00:00","2599","1.4980000000000002","186.2","2.515","163.6","1010.331","20.84","47.76","NAN","0.0"],
    [1549890,"2026-04-11 14:10:00","2600","1.485","141.9","2.7110000000000003","128.6","1010.2669999999999","21.01","46.48","NAN","0.0"],
    [1549891,"2026-04-11 14:20:00","2601","1.419","127.3","2.7110000000000003","124.9","1010.409","20.43","49.51","NAN","0.0"],
    [1549892,"2026-04-11 14:30:00","2602","1.5530000000000002","128.7","2.7110000000000003","121.9","1010.3589999999999","20.57","49.6","NAN","0.0"],
    [1549893,"2026-04-11 14:40:00","2603","1.145","124.7","2.7110000000000003","113.4","1010.347","20.46","52.19","NAN","0.0"],
    [1549894,"2026-04-11 14:50:00","2604","0.44","147.6","1.535","101.2","1010.23","20.87","48.81","NAN","0.0"],
    [1549895,"2026-04-11 15:00:00","2605","0.972","123.3","1.7309999999999999","119.6","1010.175","20.76","47.42","NAN","0.0"],
    [1549896,"2026-04-11 15:10:00","2606","0.986","89.4","2.319","78.86","1009.943","21.01","45.83","NAN","0.0"],
    [1549897,"2026-04-11 15:20:00","2607","1.262","88.9","2.483","77.24","1009.7689999999999","21.33","38.46","NAN","0.0"],
    [1549898,"2026-04-11 15:30:00","2608","1.5930000000000002","92.5","2.8089999999999997","70.93","1009.7189999999999","21.42","38.41","NAN","0.0"],
    [1549899,"2026-04-11 15:40:00","2609","1.682","85.8","2.7439999999999998","79.45","1009.784","21.22","38.46","NAN","0.0"],
    [1549900,"2026-04-11 15:50:00","2610","1.2329999999999999","99.7","2.7110000000000003","93.5","1009.998","21.12","39.75","NAN","0.0"],
    [1549901,"2026-04-11 16:00:00","2611","1.8019999999999998","85.0","3.071","97.5","1009.971","20.95","39.32","NAN","0.0"],
    [1549902,"2026-04-11 16:10:00","2612","2.302","76.47","4.181","76.76","1009.9860000000001","20.85","37.92","NAN","0.0"],
    [1549903,"2026-04-11 16:20:00","2613","1.963","78.61","3.43","102.5","1009.936","20.81","39.14","NAN","0.0"],
    [1549904,"2026-04-11 16:30:00","2614","1.5959999999999999","103.0","2.613","103.3","1010.27","20.62","42.77","NAN","0.0"],
    [1549905,"2026-04-11 16:40:00","2615","2.411","78.35","4.312","89.4","1010.247","20.12","48.34","NAN","0.0"],
    [1549906,"2026-04-11 16:50:00","2616","2.344","76.9","4.149","92.7","1010.207","20.04","48.61","NAN","0.0"],
    [1549907,"2026-04-11 17:00:00","2617","2.1590000000000003","65.04","4.573","60.26","1010.028","20.15","47.42","NAN","0.0"],
    [1549908,"2026-04-11 17:10:00","2618","2.918","68.78","5.651","78.21","1010.0260000000001","19.87","50.14","NAN","0.0"],
    [1549909,"2026-04-11 17:20:00","2619","2.7260000000000004","69.8","6.011","93.3","1010.191","19.29","59.43","NAN","0.0"],
    [1549910,"2026-04-11 17:30:00","2620","4.489","70.04","8.62","71.26","1010.6460000000001","18.28","65.47","NAN","0.0"],
    [1549911,"2026-04-11 17:40:00","2621","3.569","69.04","7.0889999999999995","59.8","1010.834","18.17","64.83","NAN","0.0"],
    [1549912,"2026-04-11 17:50:00","2622","2.864","67.22","6.272","58.83","1011.007","18.16","65.59","NAN","0.0"],
    [1549913,"2026-04-11 18:00:00","2623","3.78","65.33","6.435","69.29","1011.1360000000001","18.06","65.74","NAN","0.0"],
    [1549914,"2026-04-11 18:10:00","2624","3.2680000000000002","74.04","5.815","77.81","1011.174","17.96","67.16","NAN","0.0"],
    [1549915,"2026-04-11 18:20:00","2625","2.07","62.08","4.247","49.39","1011.283","17.97","68.3","NAN","0.0"],
    [1549916,"2026-04-11 18:30:00","2626","2.1390000000000002","48.87","4.998","33.25","1011.388","17.99","69.2","NAN","0.0"],
    [1549917,"2026-04-11 18:40:00","2627","2.553","46.89","4.671","30.24","1011.318","17.93","70.98","NAN","0.0"],
    [1549918,"2026-04-11 18:50:00","2628","3.2039999999999997","41.59","6.109","46.66","1011.263","17.83","72.88","NAN","0.0"],
    [1549919,"2026-04-11 19:00:00","2629","3.585","42.85","6.925","30.12","1011.16","17.73","74.04","NAN","0.0"],
    [1549920,"2026-04-11 19:10:00","2630","3.7460000000000004","38.97","7.4479999999999995","32.62","1011.052","17.64","74.98","NAN","0.0"],
    [1549921,"2026-04-11 19:20:00","2631","3.5239999999999996","42.05","7.6770000000000005","24.88","1011.0889999999999","17.61","74.92","NAN","0.0"],
    [1549922,"2026-04-11 19:30:00","2632","3.341","45.29","6.925","37.36","1011.1489999999999","17.52","76.02","NAN","0.0"],
    [1549923,"2026-04-11 19:40:00","2633","3.082","46.95","6.042999999999999","57.4","1011.2389999999999","17.28","78.61","NAN","0.0"],
    [1549924,"2026-04-11 19:50:00","2634","2.511","54.2","6.1739999999999995","62.79","1011.3739999999999","17.1","81.9","NAN","0.0"],
    [1549925,"2026-04-11 20:00:00","2635","2.011","48.91","4.247","44.7","1011.712","17.04","83.3","NAN","0.0"],
    [1549926,"2026-04-11 20:10:00","2636","3.196","66.42","7.0889999999999995","55.41","1012.005","16.95","84.2","NAN","0.0"],
    [1549927,"2026-04-11 20:20:00","2637","2.935","67.82","6.599","59.45","1011.9019999999999","16.88","84.9","NAN","0.0"],
    [1549928,"2026-04-11 20:30:00","2638","1.774","64.6","4.998","78.06","1011.942","16.92","85","NAN","0.0"],
    [1549929,"2026-04-11 20:40:00","2639","2.202","36.75","4.41","14.31","1012.041","16.96","84.8","NAN","0.0"],
    [1549930,"2026-04-11 20:50:00","2640","2.057","42.37","4.671","51.49","1012.023","16.91","85.3","NAN","0.0"],
    [1549931,"2026-04-11 21:00:00","2641","2.563","43.71","4.573","27.76","1011.88","16.88","85.8","NAN","0.0"],
    [1549932,"2026-04-11 21:10:00","2642","2.315","51.8","4.769","47.74","1011.827","16.87","85.9","NAN","0.0"],
    [1549933,"2026-04-11 21:20:00","2643","1.801","41.74","3.659","27.09","1011.822","16.87","85.9","NAN","0.0"],
    [1549934,"2026-04-11 21:30:00","2644","2.066","45.59","4.312","37.08","1011.687","16.79","86.3","NAN","0.0"],
    [1549935,"2026-04-11 21:40:00","2645","2.218","56.22","4.279","72.24","1011.534","16.74","86.6","NAN","0.0"],
    [1549936,"2026-04-11 21:50:00","2646","1.8459999999999999","44.29","3.7569999999999997","40.75","1011.3860000000001","16.74","86.5","NAN","0.0"],
    [1549937,"2026-04-11 22:00:00","2647","1.706","39.69","3.659","31.96","1011.242","16.74","86.4","NAN","0.0"],
    [1549938,"2026-04-11 22:10:00","2648","2.166","41.86","3.5610000000000004","63.87","1011.1","16.65","87.1","NAN","0.0"],
    [1549939,"2026-04-11 22:20:00","2649","1.527","47.69","3.7239999999999998","81.4","1010.982","16.64","87.4","NAN","0.0"],
    [1549940,"2026-04-11 22:30:00","2650","1.115","43.39","3.103","67.11","1010.931","16.69","87.1","NAN","0.0"],
    [1549941,"2026-04-11 22:40:00","2651","1.327","47.36","2.8089999999999997","43.8","1010.8389999999999","16.73","86.9","NAN","0.0"],
    [1549942,"2026-04-11 22:50:00","2652","1.4369999999999998","36.89","2.7439999999999998","25.04","1010.7719999999999","16.68","86.8","NAN","0.0"],
    [1549943,"2026-04-11 23:00:00","2653","1.29","44.0","3.103","41.74","1010.698","16.75","86","NAN","0.0"],
    [1549944,"2026-04-11 23:10:00","2654","1.4509999999999998","38.6","2.875","33.74","1010.5210000000001","16.84","84.8","NAN","0.0"],
    [1549945,"2026-04-11 23:20:00","2655","1.2009999999999998","41.53","2.7439999999999998","28.04","1010.5010000000001","17","83.4","NAN","0.0"],
    [1549946,"2026-04-11 23:30:00","2656","1.3","52.3","2.123","52.62","1010.452","17.09","82.2","NAN","0.0"],
    [1549947,"2026-04-11 23:40:00","2657","0.585","64.81","1.96","102.8","1010.3760000000001","17.15","81.8","NAN","0.0"],
    [1549948,"2026-04-11 23:50:00","2658","1.005","47.83","1.7309999999999999","46.36","1010.304","17.23","81","NAN","0.0"],
    [1549949,"2026-04-12 00:00:00","2659","0.41600000000000004","24.27","1.405","74.24","1010.2919999999999","17.26","80.6","NAN","0.0"],
    [1549950,"2026-04-12 00:10:00","2660","0.725","181.7","1.176","176.8","1010.413","17.29","80.6","NAN","0.0"],
    [1549951,"2026-04-12 00:20:00","2661","0.345","147.0","0.8490000000000001","127.3","1010.321","17.17","81.2","NAN","0.0"],
    [1549952,"2026-04-12 00:30:00","2662","0.46799999999999997","191.9","0.98","184.6","1010.2869999999999","17.07","82.3","NAN","0.0"],
    [1549953,"2026-04-12 00:40:00","2663","0.81","156.8","1.2409999999999999","162.8","1010.2869999999999","16.94","83.2","NAN","0.0"],
    [1549954,"2026-04-12 00:50:00","2664","0.621","153.4","1.2409999999999999","141.1","1010.209","16.95","82.7","NAN","0.0"],
    [1549955,"2026-04-12 01:00:00","2665","0.546","153.4","1.47","186.1","1010.012","16.87","83.3","NAN","0.0"],
    [1549956,"2026-04-12 01:10:00","2666","0.43799999999999994","168.9","1.209","127.5","1009.789","16.76","83.6","NAN","0.0"],
    [1549957,"2026-04-12 01:20:00","2667","0.59","187.6","0.98","180.3","1009.83","16.69","83.7","NAN","0.0"],
    [1549958,"2026-04-12 01:30:00","2668","0.499","194.3","1.013","204.4","1009.8810000000001","16.59","84.2","NAN","0.0"],
    [1549959,"2026-04-12 01:40:00","2669","0.52","202.3","0.98","197.2","1009.823","16.56","84.1","NAN","0.0"],
    [1549960,"2026-04-12 01:50:00","2670","0.175","91.4","1.045","89.6","1009.5239999999999","16.56","83","NAN","0.0"],
    [1549961,"2026-04-12 02:00:00","2671","0.441","84.8","1.339","91.7","1009.4069999999999","16.68","80.4","NAN","0.0"],
    [1549962,"2026-04-12 02:10:00","2672","0.73","177.4","1.568","168.6","1009.61","16.7","79.7","NAN","0.0"],
    [1549963,"2026-04-12 02:20:00","2673","0.802","154.8","1.176","174.2","1009.659","16.66","79.47","NAN","0.0"],
    [1549964,"2026-04-12 02:30:00","2674","0.41700000000000004","171.2","1.307","166.9","1009.617","16.65","79.61","NAN","0.0"],
    [1549965,"2026-04-12 02:40:00","2675","0.64","206.7","1.4369999999999998","213.4","1009.6610000000001","16.6","79.92","NAN","0.0"],
    [1549966,"2026-04-12 02:50:00","2676","0.42100000000000004","200.8","1.176","199.9","1009.653","16.61","80.1","NAN","0.0"],
    [1549967,"2026-04-12 03:00:00","2677","0.152","199.0","0.49","182.6","1009.534","16.53","79.77","NAN","0.0"],
    [1549968,"2026-04-12 03:10:00","2678","0.33","164.5","1.209","174.3","1009.4960000000001","16.56","79.07","NAN","0.0"],
    [1549969,"2026-04-12 03:20:00","2679","0.828","193.4","1.535","175.0","1009.8439999999999","16.51","80.3","NAN","0.0"],
    [1549970,"2026-04-12 03:30:00","2680","0.11599999999999999","188.6","0.882","201.3","1009.6110000000001","16.49","79.46","NAN","0.0"],
    [1549971,"2026-04-12 03:40:00","2681","0.272","58.98","1.111","67.98","1009.345","16.54","79.18","NAN","0.0"],
    [1549972,"2026-04-12 03:50:00","2682","0.306","74.65","0.784","57.84","1009.4","16.73","78.2","NAN","0.0"],
    [1549973,"2026-04-12 04:00:00","2683","0.856","193.0","1.3719999999999999","193.5","1009.584","16.69","79.27","NAN","0.0"],
    [1549974,"2026-04-12 04:10:00","2684","0.163","124.5","0.9470000000000001","224.4","1009.317","16.57","79.35","NAN","0.0"],
    [1549975,"2026-04-12 04:20:00","2685","0.597","89.1","1.013","106.1","1009.1239999999999","16.63","78.87","NAN","0.0"],
    [1549976,"2026-04-12 04:30:00","2686","0.25","81.7","0.7190000000000001","78.31","1008.9960000000001","16.69","78.49","NAN","0.0"],
    [1549977,"2026-04-12 04:40:00","2687","0.243","189.9","0.915","192.9","1008.797","16.74","78.75","NAN","0.0"],
    [1549978,"2026-04-12 04:50:00","2688","0.727","190.7","1.633","192.7","1008.852","16.5","81.1","NAN","0.0"],
    [1549979,"2026-04-12 05:00:00","2689","0.9520000000000001","181.0","1.5030000000000001","198.8","1009.154","16.44","80.9","NAN","0.0"],
    [1549980,"2026-04-12 05:10:00","2690","0.662","173.7","1.339","170.6","1009.288","16.55","80.6","NAN","0.0"],
    [1549981,"2026-04-12 05:20:00","2691","0.6709999999999999","146.5","1.274","133.8","1009.283","16.38","81.5","NAN","0.0"],
    [1549982,"2026-04-12 05:30:00","2692","0.34700000000000003","138.0","1.176","171.1","1009.315","16.34","82.2","NAN","0.0"],
    [1549983,"2026-04-12 05:40:00","2693","1.305","187.2","2.7439999999999998","178.9","1009.56","16.26","83.1","NAN","0.0"],
    [1549984,"2026-04-12 05:50:00","2694","0.941","186.2","2.352","180.2","1009.665","16.12","81.6","NAN","0.0"],
    [1549985,"2026-04-12 06:00:00","2695","0.149","152.8","1.176","180.8","1009.607","16.09","79.77","NAN","0.0"],
    [1549986,"2026-04-12 06:10:00","2696","0.9129999999999999","179.6","1.666","179.0","1009.819","16.16","79.56","NAN","0.0"],
    [1549987,"2026-04-12 06:20:00","2697","0.466","207.0","1.078","192.1","1009.798","16.17","79","NAN","0.0"],
    [1549988,"2026-04-12 06:30:00","2698","0.608","174.9","0.915","154.4","1009.8330000000001","16.29","78.33","NAN","0.0"],
    [1549989,"2026-04-12 06:40:00","2699","0.15","168.3","0.588","162.0","1009.8539999999999","16.35","78.55","NAN","0.0"],
    [1549990,"2026-04-12 06:50:00","2700","0.217","83.5","1.2409999999999999","73.11","1009.913","16.46","76.64","NAN","0.0"],
    [1549991,"2026-04-12 07:00:00","2701","0.504","101.5","1.633","101.0","1009.8430000000001","16.46","73.23","NAN","0.0"],
    [1549992,"2026-04-12 07:10:00","2702","0.963","117.6","1.7309999999999999","121.1","1009.8589999999999","16.56","71.15","NAN","0.0"],
    [1549993,"2026-04-12 07:20:00","2703","0.7509999999999999","135.2","1.307","117.3","1009.926","16.55","70.93","NAN","0.0"],
    [1549994,"2026-04-12 07:30:00","2704","0.527","166.9","1.601","115.9","1009.813","16.51","69.98","NAN","0.0"],
    [1549995,"2026-04-12 07:40:00","2705","0.868","181.5","1.2409999999999999","178.1","1009.7689999999999","16.49","70.3","NAN","0.0"],
    [1549996,"2026-04-12 07:50:00","2706","0.5760000000000001","180.6","1.143","206.9","1009.7439999999999","16.45","70.01","NAN","0.0"],
    [1549997,"2026-04-12 08:00:00","2707","0.662","213.4","2.45","225.1","1009.707","16.61","70.03","NAN","0.0"],
    [1549998,"2026-04-12 08:10:00","2708","0.722","209.3","1.699","244.2","1009.789","16.98","69.23","NAN","0.0"],
    [1549999,"2026-04-12 08:20:00","2709","0.556","248.6","1.4369999999999998","229.9","1009.7510000000001","17.01","68.25","NAN","0.0"],
    [1550000,"2026-04-12 08:30:00","2710","0.61","339.7","1.666","319.3","1009.791","17.24","61.22","NAN","0.0"],
    [1550001,"2026-04-12 08:40:00","2711","1.087","79.25","2.156","59.29","1009.757","17.25","66.39","NAN","0.0"],
    [1550002,"2026-04-12 08:50:00","2712","1.601","25.82","4.051","49.37","1009.5369999999999","17.26","60.9","NAN","0.0"],
    [1550003,"2026-04-12 09:00:00","2713","1.155","17.81","2.679","3.93","1009.2560000000001","17.61","57.27","NAN","0.0"],
    [1550004,"2026-04-12 09:10:00","2714","2.149","6.2","4.606","13.83","1008.685","17.69","56.89","NAN","0.0"],
    [1550005,"2026-04-12 09:20:00","2715","2.057","37.48","4.508","13.52","1009.115","17.6","57.2","NAN","0.0"],
    [1550006,"2026-04-12 09:30:00","2716","0.643","40.51","2.5810000000000004","23.68","1009.9760000000001","17.36","57.78","NAN","0.0"],
    [1550007,"2026-04-12 09:40:00","2717","0.851","40.91","2.025","0.449","1010.1519999999999","17.51","57.53","NAN","0.0"],
    [1550008,"2026-04-12 09:50:00","2718","0.5760000000000001","21.54","1.405","10.11","1010.0060000000001","17.96","56.28","NAN","0.0"],
    [1550009,"2026-04-12 10:00:00","2719","0.735","17.7","1.829","352.0","1009.8589999999999","18.19","55.38","NAN","0.0"],
    [1550010,"2026-04-12 10:10:00","2720","1.097","62.28","2.94","75.81","1009.803","18.14","55.25","NAN","0.0"],
    [1550011,"2026-04-12 10:20:00","2721","0.922","198.6","2.385","198.3","1009.721","17.88","61.76","NAN","0.0"],
    [1550012,"2026-04-12 10:30:00","2722","1.547","194.6","2.7110000000000003","204.1","1009.5939999999999","17.29","67.34","NAN","0.0"],
    [1550013,"2026-04-12 10:40:00","2723","1.571","181.6","2.352","183.2","1009.337","17.18","66.04","NAN","0.0"],
    [1550014,"2026-04-12 10:50:00","2724","1.284","189.8","2.385","192.0","1009.2239999999999","17.39","65.66","NAN","0.0"],
    [1550015,"2026-04-12 11:00:00","2725","1.244","192.5","2.515","201.3","1009.188","17.45","64.28","NAN","0.0"],
    [1550016,"2026-04-12 11:10:00","2726","1.347","182.7","2.189","184.8","1008.937","17.67","61.97","NAN","0.0"],
    [1550017,"2026-04-12 11:20:00","2727","1.516","185.7","2.8089999999999997","189.2","1008.748","17.9","59.66","NAN","0.0"],
    [1550018,"2026-04-12 11:30:00","2728","1.605","172.8","3.1689999999999996","184.1","1008.648","18.03","57.66","NAN","0.0"],
    [1550019,"2026-04-12 11:40:00","2729","1.5319999999999998","241.0","4.998","246.9","1008.543","18.46","54.19","NAN","0.0"],
    [1550020,"2026-04-12 11:50:00","2730","1.3769999999999998","327.4","2.8089999999999997","300.7","1008.4910000000001","18.91","52.01","NAN","0.0"],
    [1550021,"2026-04-12 12:00:00","2731","1.597","328.0","4.1160000000000005","318.1","1008.3810000000001","18.73","51.69","NAN","0.0"],
    [1550022,"2026-04-12 12:10:00","2732","1.8719999999999999","280.0","4.018","286.9","1008.265","18.55","51.49","NAN","0.0"],
    [1550023,"2026-04-12 12:20:00","2733","1.795","291.9","4.933","285.6","1008.252","18.33","51.99","NAN","0.0"],
    [1550024,"2026-04-12 12:30:00","2734","1.7469999999999999","275.3","3.7569999999999997","255.8","1008.2239999999999","18.1","52.71","NAN","0.0"],
    [1550025,"2026-04-12 12:40:00","2735","2.08","262.9","5.227","246.6","1008.1","18.16","52.66","NAN","0.0"],
    [1550026,"2026-04-12 12:50:00","2736","1.952","280.5","4.279","270.3","1007.993","18","53.2","NAN","0.0"],
    [1550027,"2026-04-12 13:00:00","2737","1.9669999999999999","297.7","4.606","284.5","1007.8660000000001","17.9","53.56","NAN","0.0"],
    [1550028,"2026-04-12 13:10:00","2738","1.381","282.7","3.397","289.7","1007.7510000000001","17.89","53.45","NAN","0.0"],
    [1550029,"2026-04-12 13:20:00","2739","1.485","263.8","3.463","231.9","1007.727","17.96","53.32","NAN","0.0"],
    [1550030,"2026-04-12 13:30:00","2740","1.138","296.5","3.136","319.5","1007.6619999999999","18.05","53.29","NAN","0.0"],
    [1550031,"2026-04-12 13:40:00","2741","1.265","325.2","3.0380000000000003","316.7","1007.602","18.19","53.04","NAN","0.0"],
    [1550032,"2026-04-12 13:50:00","2742","1.173","343.2","2.515","306.3","1007.6619999999999","18.12","53.28","NAN","0.0"],
    [1550033,"2026-04-12 14:00:00","2743","1.558","322.8","2.94","317.3","1007.7289999999999","17.85","54","NAN","0.0"],
    [1550034,"2026-04-12 14:10:00","2744","0.6890000000000001","357.9","1.9269999999999998","344.2","1007.727","17.87","54.16","NAN","0.0"],
    [1550035,"2026-04-12 14:20:00","2745","0.7490000000000001","328.7","1.829","262.1","1007.7339999999999","17.81","54.5","NAN","0.0"],
    [1550036,"2026-04-12 14:30:00","2746","1.186","266.7","3.267","268.6","1007.725","17.68","55.29","NAN","0.0"],
    [1550037,"2026-04-12 14:40:00","2747","1.365","275.0","3.005","300.3","1007.676","17.44","56.41","NAN","0.0"],
    [1550038,"2026-04-12 14:50:00","2748","0.95","270.8","2.417","275.3","1007.585","17.56","56.76","NAN","0.0"],
    [1550039,"2026-04-12 15:00:00","2749","1.7480000000000002","235.4","3.1689999999999996","234.8","1007.553","17.19","58.75","NAN","0.0"],
    [1550040,"2026-04-12 15:10:00","2750","1.946","237.5","4.181","226.4","1007.492","16.9","60.14","NAN","0.0"],
    [1550041,"2026-04-12 15:20:00","2751","1.6669999999999998","261.4","3.299","253.8","1007.456","16.88","60.68","NAN","0.0"],
    [1550042,"2026-04-12 15:30:00","2752","1.361","266.1","2.7769999999999997","243.7","1007.398","17.01","61","NAN","0.0"],
    [1550043,"2026-04-12 15:40:00","2753","1.2819999999999998","284.6","3.6910000000000003","293.7","1007.427","16.89","62.3","NAN","0.0"],
    [1550044,"2026-04-12 15:50:00","2754","1.74","307.3","3.92","307.5","1007.434","16.69","62.99","NAN","0.0"],
    [1550045,"2026-04-12 16:00:00","2755","1.889","328.2","5.292000000000001","318.3","1007.4760000000001","16.21","67.04","NAN","0.0"],
    [1550046,"2026-04-12 16:10:00","2756","1.11","326.8","3.1689999999999996","341.3","1007.613","15.71","71.2","NAN","0.0"],
    [1550047,"2026-04-12 16:20:00","2757","1.3559999999999999","325.2","3.887","335.8","1007.7130000000001","15.49","72.23","NAN","0.1"],
    [1550048,"2026-04-12 16:30:00","2758","1.385","310.5","4.1160000000000005","331.5","1007.743","15.21","74.76","NAN","0.5"],
    [1550049,"2026-04-12 16:40:00","2759","1.4","274.5","3.0380000000000003","307.5","1007.81","14.95","78.12","NAN","0.1"],
    [1550050,"2026-04-12 16:50:00","2760","1.5590000000000002","273.6","3.9530000000000003","297.0","1007.827","14.84","78.05","NAN","0.0"],
    [1550051,"2026-04-12 17:00:00","2761","1.213","306.3","3.234","312.9","1007.8639999999999","14.93","77.02","NAN","0.0"],
    [1550052,"2026-04-12 17:10:00","2762","1.5","330.4","4.181","295.9","1007.872","15","75.73","NAN","0.0"],
    [1550053,"2026-04-12 17:20:00","2763","2.0469999999999997","327.2","4.606","324.8","1007.862","14.88","75.86","NAN","0.0"],
    [1550054,"2026-04-12 17:30:00","2764","1.064","316.1","2.907","299.9","1007.8580000000001","14.89","77.28","NAN","0.0"],
    [1550055,"2026-04-12 17:40:00","2765","1.25","302.8","2.679","268.7","1007.8580000000001","14.8","78.82","NAN","0.0"],
    [1550056,"2026-04-12 17:50:00","2766","1.584","304.5","4.867","308.5","1007.8610000000001","14.58","80.7","NAN","0.3"],
    [1550057,"2026-04-12 18:00:00","2767","1.4980000000000002","319.9","3.234","307.4","1007.8610000000001","14.24","84.2","NAN","0.2"],
    [1550058,"2026-04-12 18:10:00","2768","1.158","334.6","2.94","322.5","1007.8639999999999","14.13","86.3","NAN","0.2"],
    [1550059,"2026-04-12 18:20:00","2769","1.367","329.6","3.267","313.9","1007.929","13.96","87.5","NAN","0.5"],
    [1550060,"2026-04-12 18:30:00","2770","0.86","337.5","2.7439999999999998","310.8","1008.061","13.82","88.7","NAN","0.3"],
    [1550061,"2026-04-12 18:40:00","2771","0.5760000000000001","351.4","2.515","333.8","1008.1139999999999","13.83","88.6","NAN","0.2"],
    [1550062,"2026-04-12 18:50:00","2772","0.873","4.7","2.8089999999999997","36.03","1008.176","13.88","88.3","NAN","0.3"],
    [1550063,"2026-04-12 19:00:00","2773","1.063","31.8","3.071","23.02","1008.2710000000001","13.82","89.1","NAN","0.2"],
    [1550064,"2026-04-12 19:10:00","2774","1.271","11.07","2.613","15.97","1008.345","13.66","90.3","NAN","0.2"],
    [1550065,"2026-04-12 19:20:00","2775","0.8","5.274","2.254","16.39","1008.33","13.68","90.4","NAN","0.3"],
    [1550066,"2026-04-12 19:30:00","2776","0.924","43.58","1.895","7.849","1008.363","13.63","90.8","NAN","0.3"],
    [1550067,"2026-04-12 19:40:00","2777","1.0959999999999999","48.59","2.221","34.11","1008.365","13.44","91.9","NAN","0.3"],
    [1550068,"2026-04-12 19:50:00","2778","0.588","41.51","2.156","10.54","1008.46","13.36","92.8","NAN","0.4"],
    [1550069,"2026-04-12 20:00:00","2779","0.35","35.5","2.254","41.76","1008.487","13.34","93.3","NAN","0.3"],
    [1550070,"2026-04-12 20:10:00","2780","0.6","0.19399999999999998","2.319","18.12","1008.445","13.26","93.5","NAN","0.4"],
    [1550071,"2026-04-12 20:20:00","2781","0.7170000000000001","332.5","1.666","327.7","1008.363","13.39","93.1","NAN","0.3"],
    [1550072,"2026-04-12 20:30:00","2782","1.4340000000000002","319.0","3.43","308.5","1008.305","13.41","91.9","NAN","0.5"],
    [1550073,"2026-04-12 20:40:00","2783","0.9840000000000001","299.4","2.7769999999999997","292.9","1008.153","13.56","91.6","NAN","0.2"],
    [1550074,"2026-04-12 20:50:00","2784","0.9670000000000001","266.8","2.6460000000000004","277.0","1008.0189999999999","13.57","92","NAN","0.2"],
    [1550075,"2026-04-12 21:00:00","2785","1.423","264.3","2.613","263.1","1007.8589999999999","13.46","91.2","NAN","0.1"],
    [1550076,"2026-04-12 21:10:00","2786","1.263","263.2","2.613","256.5","1007.755","13.46","89.8","NAN","0.1"],
    [1550077,"2026-04-12 21:20:00","2787","0.755","261.7","2.025","280.2","1007.68","13.46","89.9","NAN","0.2"],
    [1550078,"2026-04-12 21:30:00","2788","0.603","358.0","1.9269999999999998","23.08","1007.618","13.5","89.7","NAN","0.2"],
    [1550079,"2026-04-12 21:40:00","2789","0.597","280.0","2.254","310.5","1007.508","13.56","89.9","NAN","0.3"],
    [1550080,"2026-04-12 21:50:00","2790","0.9259999999999999","304.5","2.7769999999999997","321.4","1007.383","13.49","88.7","NAN","0.4"],
    [1550081,"2026-04-12 22:00:00","2791","0.735","292.3","1.96","280.0","1007.289","13.4","87.9","NAN","0.2"],
    [1550082,"2026-04-12 22:10:00","2792","1.189","274.8","3.0380000000000003","300.0","1007.1610000000001","13.37","86.6","NAN","0.1"],
    [1550083,"2026-04-12 22:20:00","2793","1.08","256.2","2.7769999999999997","255.9","1007.005","13.25","87.7","NAN","0.3"],
    [1550084,"2026-04-12 22:30:00","2794","0.892","260.8","3.201","242.3","1006.98","13.17","88","NAN","0.0"],
    [1550085,"2026-04-12 22:40:00","2795","0.696","269.4","1.829","309.4","1006.952","13.21","87.3","NAN","0.1"],
    [1550086,"2026-04-12 22:50:00","2796","0.711","276.1","2.221","297.0","1006.88","13.26","86.2","NAN","0.1"],
    [1550087,"2026-04-12 23:00:00","2797","0.589","280.5","2.483","17.43","1006.868","13.3","85.5","NAN","0.1"],
    [1550088,"2026-04-12 23:10:00","2798","0.539","258.4","1.7309999999999999","280.9","1006.868","13.34","84.7","NAN","0.1"],
    [1550089,"2026-04-12 23:20:00","2799","1.057","264.6","2.907","235.6","1006.8530000000001","13.25","85.4","NAN","0.1"],
    [1550090,"2026-04-12 23:30:00","2800","0.831","270.6","2.156","294.9","1006.773","13.23","84.5","NAN","0.0"],
    [1550091,"2026-04-12 23:40:00","2801","1.047","283.5","2.907","317.6","1006.7280000000001","13.23","83.1","NAN","0.0"],
    [1550092,"2026-04-12 23:50:00","2802","1.5919999999999999","281.9","3.0380000000000003","292.1","1006.643","13.16","82.7","NAN","0.2"],
    [1550093,"2026-04-13 00:00:00","2803","0.8370000000000001","287.9","1.797","275.3","1006.574","13.1","84.2","NAN","0.1"],
    [1550094,"2026-04-13 00:10:00","2804","0.987","293.3","2.5810000000000004","319.7","1006.4939999999999","13.03","83.9","NAN","0.1"],
    [1550095,"2026-04-13 00:20:00","2805","0.298","325.1","1.045","255.8","1006.4939999999999","13.03","85.1","NAN","0.1"],
    [1550096,"2026-04-13 00:30:00","2806","0.645","170.3","1.4369999999999998","181.3","1006.437","12.83","86.3","NAN","0.4"],
    [1550097,"2026-04-13 00:40:00","2807","0.621","171.7","1.601","187.1","1006.425","12.62","88.1","NAN","0.4"],
    [1550098,"2026-04-13 00:50:00","2808","0.606","225.3","1.699","215.3","1006.4019999999999","12.48","89.3","NAN","0.6"],
    [1550099,"2026-04-13 01:00:00","2809","0.858","281.4","2.548","290.2","1006.367","12.44","87.4","NAN","0.4"],
    [1550100,"2026-04-13 01:10:00","2810","0.629","298.9","2.287","311.2","1006.279","12.47","85.9","NAN","0.1"],
    [1550101,"2026-04-13 01:20:00","2811","0.693","298.8","2.254","312.7","1006.12","12.56","84.6","NAN","0.1"],
    [1550102,"2026-04-13 01:30:00","2812","0.907","271.9","2.417","264.0","1006.0160000000001","12.64","83.9","NAN","0.1"],
    [1550103,"2026-04-13 01:40:00","2813","0.735","266.0","1.7309999999999999","259.1","1005.936","12.49","84.9","NAN","0.1"],
    [1550104,"2026-04-13 01:50:00","2814","0.7490000000000001","267.8","2.189","250.2","1005.8710000000001","12.4","85.8","NAN","0.0"],
    [1550105,"2026-04-13 02:00:00","2815","0.799","287.0","2.025","305.2","1005.8710000000001","12.39","86.1","NAN","0.0"],
    [1550106,"2026-04-13 02:10:00","2816","0.7509999999999999","294.8","2.221","264.8","1005.8639999999999","12.39","84.7","NAN","0.0"],
    [1550107,"2026-04-13 02:20:00","2817","0.85","318.0","2.0909999999999997","301.7","1005.789","12.35","84.3","NAN","0.2"],
    [1550108,"2026-04-13 02:30:00","2818","0.912","271.6","1.895","294.0","1005.7489999999999","12.4","84.4","NAN","0.0"],
    [1550109,"2026-04-13 02:40:00","2819","0.648","273.3","1.8619999999999999","249.5","1005.7489999999999","12.29","85.7","NAN","0.1"],
    [1550110,"2026-04-13 02:50:00","2820","0.747","314.7","2.515","259.4","1005.717","12.25","84.7","NAN","0.1"],
    [1550111,"2026-04-13 03:00:00","2821","0.506","199.4","1.4369999999999998","282.6","1005.727","12.22","85.5","NAN","0.1"],
    [1550112,"2026-04-13 03:10:00","2822","0.402","268.4","1.2409999999999999","224.1","1005.682","12.04","87.3","NAN","0.1"],
    [1550113,"2026-04-13 03:20:00","2823","0.565","137.5","2.123","19.4","1005.732","11.98","86.2","NAN","0.0"],
    [1550114,"2026-04-13 03:30:00","2824","0.945","162.8","1.993","170.4","1005.7639999999999","11.69","87.4","NAN","0.0"],
    [1550115,"2026-04-13 03:40:00","2825","0.773","200.6","1.666","179.0","1005.819","11.57","87.3","NAN","0.0"],
    [1550116,"2026-04-13 03:50:00","2826","0.439","237.6","1.699","239.4","1005.8660000000001","11.6","88.1","NAN","0.0"],
    [1550117,"2026-04-13 04:00:00","2827","0.44","230.9","1.5030000000000001","243.6","1005.8439999999999","11.6","88.1","NAN","0.0"],
    [1550118,"2026-04-13 04:10:00","2828","1.307","236.7","4.41","240.2","1005.7610000000001","11.58","87.3","NAN","0.0"],
    [1550119,"2026-04-13 04:20:00","2829","1.865","243.1","3.855","254.2","1005.747","11.45","85.8","NAN","0.0"],
    [1550120,"2026-04-13 04:30:00","2830","1.817","261.2","3.5610000000000004","285.9","1005.794","11.39","85.5","NAN","0.0"],
    [1550121,"2026-04-13 04:40:00","2831","1.253","267.1","3.267","272.1","1005.8939999999999","11.42","84.1","NAN","0.0"],
    [1550122,"2026-04-13 04:50:00","2832","1.29","258.3","3.103","260.8","1006.0060000000001","11.42","83.8","NAN","0.0"],
    [1550123,"2026-04-13 05:00:00","2833","1.156","225.8","2.0909999999999997","224.9","1006.1010000000001","11.35","83.7","NAN","0.0"],
    [1550124,"2026-04-13 05:10:00","2834","1.284","239.7","2.319","247.9","1006.2230000000001","11.33","83.9","NAN","0.0"],
    [1550125,"2026-04-13 05:20:00","2835","0.8690000000000001","248.8","2.254","244.5","1006.307","11.35","83.9","NAN","0.1"],
    [1550126,"2026-04-13 05:30:00","2836","0.324","210.4","1.307","242.9","1006.37","11.43","85.1","NAN","0.0"],
    [1550127,"2026-04-13 05:40:00","2837","0.721","217.1","1.7309999999999999","262.7","1006.37","11.33","85.5","NAN","0.0"],
    [1550128,"2026-04-13 05:50:00","2838","0.9309999999999999","225.5","1.9269999999999998","267.8","1006.3939999999999","11.34","85","NAN","0.0"],
    [1550129,"2026-04-13 06:00:00","2839","1.012","261.6","2.548","261.0","1006.477","11.58","82","NAN","0.0"],
    [1550130,"2026-04-13 06:10:00","2840","0.882","270.3","1.666","286.6","1006.5889999999999","11.85","80.5","NAN","0.0"],
    [1550131,"2026-04-13 06:20:00","2841","0.665","246.8","1.8619999999999999","257.8","1006.7289999999999","11.96","79.78","NAN","0.0"],
    [1550132,"2026-04-13 06:30:00","2842","0.89","253.2","2.287","230.9","1006.8530000000001","11.98","79.91","NAN","0.0"],
    [1550133,"2026-04-13 06:40:00","2843","1.319","256.8","2.613","266.5","1006.955","11.98","77.76","NAN","0.0"],
    [1550134,"2026-04-13 06:50:00","2844","1.188","236.1","2.45","237.9","1007.06","11.84","77.56","NAN","0.0"],
    [1550135,"2026-04-13 07:00:00","2845","1.786","239.1","2.6460000000000004","232.2","1007.117","11.62","77.35","NAN","0.0"],
    [1550136,"2026-04-13 07:10:00","2846","0.9540000000000001","234.8","1.797","245.4","1007.2389999999999","11.74","77.39","NAN","0.0"],
    [1550137,"2026-04-13 07:20:00","2847","0.7879999999999999","226.6","1.633","216.2","1007.341","11.96","77.72","NAN","0.0"],
    [1550138,"2026-04-13 07:30:00","2848","0.764","231.2","1.8619999999999999","256.4","1007.3910000000001","11.96","77.35","NAN","0.0"],
    [1550139,"2026-04-13 07:40:00","2849","0.7659999999999999","206.2","1.666","247.9","1007.4780000000001","12.06","76.66","NAN","0.0"],
    [1550140,"2026-04-13 07:50:00","2850","0.909","167.2","1.699","189.0","1007.578","11.97","76.41","NAN","0.0"],
    [1550141,"2026-04-13 08:00:00","2851","0.988","170.4","1.601","198.9","1007.7339999999999","12","75.53","NAN","0.0"],
    [1550142,"2026-04-13 08:10:00","2852","1.1340000000000001","184.1","1.568","181.9","1007.85","11.97","75.13","NAN","0.0"],
    [1550143,"2026-04-13 08:20:00","2853","1.155","188.5","1.7309999999999999","180.3","1007.95","11.88","76.32","NAN","0.0"],
    [1550144,"2026-04-13 08:30:00","2854","0.893","205.1","1.633","213.4","1008.0989999999999","11.94","76.17","NAN","0.0"],
    [1550145,"2026-04-13 08:40:00","2855","0.79","214.3","1.7309999999999999","221.3","1008.2510000000001","12.04","75.77","NAN","0.0"],
    [1550146,"2026-04-13 08:50:00","2856","0.909","196.7","1.4369999999999998","197.7","1008.3439999999999","12.11","73.43","NAN","0.0"],
    [1550147,"2026-04-13 09:00:00","2857","0.929","177.5","1.601","172.2","1008.3789999999999","12.1","73.32","NAN","0.0"],
    [1550148,"2026-04-13 09:10:00","2858","0.8959999999999999","213.7","1.829","228.1","1008.456","12.23","73.87","NAN","0.0"],
    [1550149,"2026-04-13 09:20:00","2859","1.054","219.2","1.96","217.6","1008.535","12.23","72.78","NAN","0.0"],
    [1550150,"2026-04-13 09:30:00","2860","0.8109999999999999","215.1","1.764","189.3","1008.684","12.34","72.04","NAN","0.0"],
    [1550151,"2026-04-13 09:40:00","2861","1.24","194.3","2.0580000000000003","188.1","1008.564","12.29","72.26","NAN","0.0"],
    [1550152,"2026-04-13 09:50:00","2862","1.3019999999999998","193.0","2.548","206.0","1008.595","12.49","71.41","NAN","0.0"],
    [1550153,"2026-04-13 10:00:00","2863","1.128","218.4","2.548","223.8","1008.7560000000001","12.75","69.37","NAN","0.0"],
    [1550154,"2026-04-13 10:10:00","2864","0.9690000000000001","250.4","3.0380000000000003","252.8","1008.791","13.11","67.04","NAN","0.0"],
    [1550155,"2026-04-13 10:20:00","2865","1.127","236.3","2.123","241.2","1008.785","13.43","65.04","NAN","0.0"],
    [1550156,"2026-04-13 10:30:00","2866","1.0","193.5","1.895","224.4","1008.7819999999999","13.71","63.44","NAN","0.0"],
    [1550157,"2026-04-13 10:40:00","2867","0.924","190.5","2.189","175.3","1008.788","14.19","60.96","NAN","0.0"],
    [1550158,"2026-04-13 10:50:00","2868","1.218","186.4","2.221","240.1","1008.7769999999999","14.61","58.98","NAN","0.0"],
    [1550159,"2026-04-13 11:00:00","2869","1.091","203.8","2.9730000000000003","199.9","1008.7280000000001","14.88","57.03","NAN","0.0"],
    [1550160,"2026-04-13 11:10:00","2870","1.919","195.7","3.332","183.1","1008.7330000000001","15.15","58.06","NAN","0.0"],
    [1550161,"2026-04-13 11:20:00","2871","2.103","176.1","3.201","169.9","1008.7260000000001","14.73","61.91","NAN","0.0"],
    [1550162,"2026-04-13 11:30:00","2872","2.103","159.8","3.463","175.1","1008.68","14.92","61.52","NAN","0.0"],
    [1550163,"2026-04-13 11:40:00","2873","2.412","163.9","3.985","193.7","1008.566","15.53","58.31","NAN","0.0"],
    [1550164,"2026-04-13 11:50:00","2874","1.8530000000000002","200.2","3.332","220.2","1008.563","16.14","55.68","NAN","0.0"],
    [1550165,"2026-04-13 12:00:00","2875","2.355","195.1","4.737","188.2","1008.4739999999999","16.49","57.23","NAN","0.0"],
    [1550166,"2026-04-13 12:10:00","2876","2.9810000000000003","180.3","4.835","172.9","1008.444","15.75","66.21","NAN","0.0"],
    [1550167,"2026-04-13 12:20:00","2877","3.323","176.0","5.815","179.2","1008.4960000000001","15.33","68.6","NAN","0.0"],
    [1550168,"2026-04-13 12:30:00","2878","3.642","173.5","6.5329999999999995","179.4","1008.584","15.07","71.48","NAN","0.0"],
    [1550169,"2026-04-13 12:40:00","2879","3.872","172.3","6.207000000000001","181.2","1008.574","14.47","76.84","NAN","0.0"],
    [1550170,"2026-04-13 12:50:00","2880","4.1080000000000005","176.2","6.827000000000001","178.4","1008.663","14.53","76.34","NAN","0.0"],
    [1550171,"2026-04-13 13:00:00","2881","4.202","176.1","6.042999999999999","177.1","1008.668","14.49","76.27","NAN","0.0"],
    [1550172,"2026-04-13 13:10:00","2882","4.297","173.9","6.631","173.7","1008.721","14.69","74.91","NAN","0.0"],
    [1550173,"2026-04-13 13:20:00","2883","4.436","176.9","6.7620000000000005","185.8","1008.725","14.57","74.95","NAN","0.0"],
    [1550174,"2026-04-13 13:30:00","2884","3.4419999999999997","181.6","5.422999999999999","176.4","1008.727","15.06","72.69","NAN","0.0"],
    [1550175,"2026-04-13 13:40:00","2885","3.74","178.5","6.893","180.7","1008.743","15.08","70.53","NAN","0.0"],
    [1550176,"2026-04-13 13:50:00","2886","3.9360000000000004","179.2","6.042999999999999","175.2","1008.7330000000001","15.05","69.8","NAN","0.0"],
    [1550177,"2026-04-13 14:00:00","2887","3.759","180.2","6.501","172.9","1008.852","14.88","70.34","NAN","0.0"],
    [1550178,"2026-04-13 14:10:00","2888","3.64","181.2","5.815","181.4","1008.855","14.98","70.7","NAN","0.0"],
    [1550179,"2026-04-13 14:20:00","2889","4.255","177.4","6.827000000000001","183.2","1008.882","14.74","71.21","NAN","0.0"],
    [1550180,"2026-04-13 14:30:00","2890","3.5869999999999997","176.4","5.4879999999999995","175.6","1008.872","14.82","70.24","NAN","0.0"],
    [1550181,"2026-04-13 14:40:00","2891","3.7030000000000003","174.6","5.325","183.0","1008.952","14.69","69.14","NAN","0.0"],
    [1550182,"2026-04-13 14:50:00","2892","3.5869999999999997","176.8","5.553","184.9","1008.982","14.72","68.45","NAN","0.0"],
    [1550183,"2026-04-13 15:00:00","2893","3.02","175.2","4.965","167.9","1009.0889999999999","14.82","67.77","NAN","0.0"],
    [1550184,"2026-04-13 15:10:00","2894","3.036","178.0","4.541","171.9","1009.189","15.01","66.42","NAN","0.0"],
    [1550185,"2026-04-13 15:20:00","2895","2.677","171.8","4.704","163.0","1009.211","15.08","63.33","NAN","0.0"],
    [1550186,"2026-04-13 15:30:00","2896","2.497","175.3","3.855","182.1","1009.221","14.75","64.06","NAN","0.0"],
    [1550187,"2026-04-13 15:40:00","2897","1.8","176.6","3.234","183.0","1009.2639999999999","14.76","64.98","NAN","0.0"],
    [1550188,"2026-04-13 15:50:00","2898","1.482","151.5","2.875","143.0","1009.3539999999999","14.74","66.33","NAN","0.0"],
    [1550189,"2026-04-13 16:00:00","2899","1.5759999999999998","146.7","3.593","99.0","1009.488","14.8","66.82","NAN","0.0"],
    [1550190,"2026-04-13 16:10:00","2900","1.482","148.7","3.0380000000000003","166.4","1009.6260000000001","14.88","66.18","NAN","0.0"],
    [1550191,"2026-04-13 16:20:00","2901","1.629","132.3","3.43","103.9","1009.672","14.84","65.93","NAN","0.0"],
    [1550192,"2026-04-13 16:30:00","2902","1.78","136.2","3.1689999999999996","114.1","1009.7280000000001","15.02","65.71","NAN","0.0"],
    [1550193,"2026-04-13 16:40:00","2903","2.14","118.7","3.463","96.9","1009.885","14.89","67.17","NAN","0.0"],
    [1550194,"2026-04-13 16:50:00","2904","1.99","124.5","3.005","102.7","1009.992","14.56","68.83","NAN","0.0"],
    [1550195,"2026-04-13 17:00:00","2905","1.942","119.7","3.7239999999999998","113.8","1010.1310000000001","14.52","69.49","NAN","0.0"],
    [1550196,"2026-04-13 17:10:00","2906","1.659","128.1","3.267","130.1","1010.2310000000001","14.42","69.4","NAN","0.0"],
    [1550197,"2026-04-13 17:20:00","2907","1.5190000000000001","120.6","2.94","125.2","1010.299","14.43","70.76","NAN","0.0"],
    [1550198,"2026-04-13 17:30:00","2908","1.546","125.6","2.875","112.0","1010.421","14.36","70.84","NAN","0.0"],
    [1550199,"2026-04-13 17:40:00","2909","1.386","124.2","3.1689999999999996","126.0","1010.552","14.39","71.31","NAN","0.0"],
    [1550200,"2026-04-13 17:50:00","2910","1.405","111.1","3.1689999999999996","111.6","1010.655","14.36","73.25","NAN","0.0"],
    [1550201,"2026-04-13 18:00:00","2911","1.376","105.3","3.365","109.9","1010.7410000000001","14.3","75.46","NAN","0.0"],
    [1550202,"2026-04-13 18:10:00","2912","1.545","103.2","3.299","110.8","1010.823","14.25","76.72","NAN","0.0"],
    [1550203,"2026-04-13 18:20:00","2913","1.2990000000000002","110.4","2.548","113.8","1010.95","14.25","77.43","NAN","0.0"],
    [1550204,"2026-04-13 18:30:00","2914","1.32","121.0","3.136","111.6","1011.062","14.19","77.83","NAN","0.0"],
    [1550205,"2026-04-13 18:40:00","2915","1.2819999999999998","111.9","2.6460000000000004","108.2","1011.2460000000001","14.22","77.93","NAN","0.0"],
    [1550206,"2026-04-13 18:50:00","2916","1.222","116.3","2.0909999999999997","107.0","1011.457","14.28","76.96","NAN","0.0"],
    [1550207,"2026-04-13 19:00:00","2917","1.262","124.7","2.417","109.3","1011.659","14.35","75.25","NAN","0.0"],
    [1550208,"2026-04-13 19:10:00","2918","1.034","114.8","2.189","119.5","1011.815","14.43","73.62","NAN","0.0"],
    [1550209,"2026-04-13 19:20:00","2919","1.27","127.4","2.548","117.3","1011.987","14.44","73.79","NAN","0.0"],
    [1550210,"2026-04-13 19:30:00","2920","1.166","133.4","1.895","122.3","1012.15","14.4","74.99","NAN","0.0"],
    [1550211,"2026-04-13 19:40:00","2921","0.855","144.8","1.96","119.3","1012.301","14.41","75.54","NAN","0.0"],
    [1550212,"2026-04-13 19:50:00","2922","1.067","145.5","2.0909999999999997","156.6","1012.342","14.46","75.68","NAN","0.0"],
    [1550213,"2026-04-13 20:00:00","2923","1.239","147.8","2.6460000000000004","132.0","1012.4789999999999","14.5","79.05","NAN","0.0"],
    [1550214,"2026-04-13 20:10:00","2924","1.3969999999999998","148.0","2.907","148.0","1012.6619999999999","14.4","78.28","NAN","0.0"],
    [1550215,"2026-04-13 20:20:00","2925","1.155","146.7","2.385","171.8","1012.813","14.47","77.03","NAN","0.0"],
    [1550216,"2026-04-13 20:30:00","2926","1.1520000000000001","153.6","2.352","149.4","1012.927","14.54","75.6","NAN","0.0"],
    [1550217,"2026-04-13 20:40:00","2927","1.193","147.3","2.515","181.7","1013.0880000000001","14.59","75.27","NAN","0.0"],
    [1550218,"2026-04-13 20:50:00","2928","1.516","163.4","3.005","171.3","1013.166","14.63","72.57","NAN","0.0"],
    [1550219,"2026-04-13 21:00:00","2929","1.548","168.8","3.332","183.4","1013.268","14.69","70.28","NAN","0.0"],
    [1550220,"2026-04-13 21:10:00","2930","1.27","152.0","2.483","182.6","1013.298","14.7","70.74","NAN","0.0"],
    [1550221,"2026-04-13 21:20:00","2931","1.258","155.1","2.45","170.4","1013.398","14.67","71.32","NAN","0.0"],
    [1550222,"2026-04-13 21:30:00","2932","0.594","158.2","1.535","155.3","1013.4","14.61","71.67","NAN","0.0"],
    [1550223,"2026-04-13 21:40:00","2933","0.606","165.9","1.633","176.8","1013.4169999999999","14.57","72.11","NAN","0.0"],
    [1550224,"2026-04-13 21:50:00","2934","0.727","174.9","1.666","182.0","1013.5010000000001","14.52","72.15","NAN","0.0"],
    [1550225,"2026-04-13 22:00:00","2935","1.442","186.2","2.45","181.6","1013.63","14.58","69.24","NAN","0.0"],
    [1550226,"2026-04-13 22:10:00","2936","1.031","199.3","2.515","223.0","1013.688","14.65","69.32","NAN","0.0"],
    [1550227,"2026-04-13 22:20:00","2937","0.6809999999999999","220.1","1.666","230.7","1013.7180000000001","14.58","70.15","NAN","0.0"],
    [1550228,"2026-04-13 22:30:00","2938","0.9159999999999999","199.0","2.352","195.4","1013.793","14.48","70.64","NAN","0.0"],
    [1550229,"2026-04-13 22:40:00","2939","0.879","198.7","2.0580000000000003","179.5","1013.8","14.51","70.38","NAN","0.0"],
    [1550230,"2026-04-13 22:50:00","2940","0.523","202.2","1.307","189.0","1013.797","14.44","70.69","NAN","0.0"],
    [1550231,"2026-04-13 23:00:00","2941","0.489","244.5","1.405","246.3","1013.909","14.44","70.11","NAN","0.0"],
    [1550232,"2026-04-13 23:10:00","2942","0.617","235.4","1.078","200.4","1014.0360000000001","14.44","69.79","NAN","0.0"],
    [1550233,"2026-04-13 23:20:00","2943","0.165","256.4","0.882","218.6","1014.005","14.37","70.29","NAN","0.0"],
    [1550234,"2026-04-13 23:30:00","2944","0.086","182.4","0.588","170.9","1013.9789999999999","14.08","72.05","NAN","0.0"],
    [1550235,"2026-04-13 23:40:00","2945","0.557","162.4","1.96","178.5","1013.966","14","72.3","NAN","0.0"],
    [1550236,"2026-04-13 23:50:00","2946","1.002","188.5","2.679","151.2","1014.0010000000001","14.3","71.24","NAN","0.0"],
    [1550237,"2026-04-14 00:00:00","2947","1.249","187.2","3.397","182.1","1014.063","14.47","69.69","NAN","0.0"],
    [1550238,"2026-04-14 00:10:00","2948","0.47600000000000003","168.6","1.568","157.1","1014.0889999999999","14.4","69.84","NAN","0.0"],
    [1550239,"2026-04-14 00:20:00","2949","0.462","67.04","1.405","76.21","1014.079","14.09","71.58","NAN","0.0"],
    [1550240,"2026-04-14 00:30:00","2950","0.897","13.0","1.601","30.16","1014.0889999999999","13.74","76.19","NAN","0.0"],
    [1550241,"2026-04-14 00:40:00","2951","0.759","14.44","1.699","9.7","1014.069","13.61","77.12","NAN","0.0"],
    [1550242,"2026-04-14 00:50:00","2952","0.99","10.61","2.156","353.5","1014.09","13.58","76.8","NAN","0.0"],
    [1550243,"2026-04-14 01:00:00","2953","0.915","16.48","1.829","6.204","1014.0889999999999","13.59","76.7","NAN","0.0"],
    [1550244,"2026-04-14 01:10:00","2954","1.186","8.94","2.417","8.48","1014.0930000000001","13.43","77.57","NAN","0.0"],
    [1550245,"2026-04-14 01:20:00","2955","0.862","10.98","1.764","6.0889999999999995","1014.0930000000001","13.43","77.61","NAN","0.0"],
    [1550246,"2026-04-14 01:30:00","2956","0.493","41.56","1.143","51.0","1014.0930000000001","13.26","78.52","NAN","0.0"],
    [1550247,"2026-04-14 01:40:00","2957","0.479","35.48","1.111","38.12","1014.0830000000001","13.21","78.85","NAN","0.0"],
    [1550248,"2026-04-14 01:50:00","2958","0.35100000000000003","25.5","1.307","32.46","1014.0830000000001","13.08","79.45","NAN","0.0"],
    [1550249,"2026-04-14 02:00:00","2959","0.248","35.9","0.7509999999999999","39.92","1014.0930000000001","13.09","79.32","NAN","0.0"],
    [1550250,"2026-04-14 02:10:00","2960","0.665","34.79","1.568","30.91","1014.0930000000001","13.03","79.53","NAN","0.0"],
    [1550251,"2026-04-14 02:20:00","2961","0.568","30.88","1.339","25.35","1014.096","13.04","79.62","NAN","0.0"],
    [1550252,"2026-04-14 02:30:00","2962","0.047","35.98","0.6859999999999999","41.18","1014.0930000000001","12.92","79.75","NAN","0.0"],
    [1550253,"2026-04-14 02:40:00","2963","0.07","326.2","0.392","340.6","1014.096","12.88","80.5","NAN","0.0"],
    [1550254,"2026-04-14 02:50:00","2964","0.009000000000000001","5.438","0.457","24.2","1014.1469999999999","12.94","79.6","NAN","0.0"],
    [1550255,"2026-04-14 03:00:00","2965","0.11900000000000001","4.935","0.653","23.76","1014.2230000000001","13.02","79.68","NAN","0.0"],
    [1550256,"2026-04-14 03:10:00","2966","0.32799999999999996","295.1","1.2409999999999999","240.0","1014.27","13.12","79.35","NAN","0.0"],
    [1550257,"2026-04-14 03:20:00","2967","1.121","259.0","2.385","241.7","1014.29","13.51","76.63","NAN","0.0"],
    [1550258,"2026-04-14 03:30:00","2968","0.929","256.6","1.829","243.1","1014.341","13.56","75.93","NAN","0.0"],
    [1550259,"2026-04-14 03:40:00","2969","0.915","245.9","1.568","226.8","1014.341","13.43","75.81","NAN","0.0"],
    [1550260,"2026-04-14 03:50:00","2970","0.45899999999999996","252.1","1.3719999999999999","229.2","1014.3430000000001","13.24","75.81","NAN","0.0"],
    [1550261,"2026-04-14 04:00:00","2971","0.349","322.1","1.666","326.4","1014.3430000000001","13.15","76.42","NAN","0.0"],
    [1550262,"2026-04-14 04:10:00","2972","0.795","310.9","1.601","318.2","1014.3430000000001","13.38","73.43","NAN","0.0"],
    [1550263,"2026-04-14 04:20:00","2973","0.252","329.7","0.653","345.7","1014.347","13.32","69.06","NAN","0.0"],
    [1550264,"2026-04-14 04:30:00","2974","0.644","354.5","1.339","5.336","1014.368","13.15","64.9","NAN","0.0"],
    [1550265,"2026-04-14 04:40:00","2975","0.823","8.14","2.0580000000000003","14.0","1014.47","12.9","67.07","NAN","0.0"],
    [1550266,"2026-04-14 04:50:00","2976","0.98","335.2","2.679","287.2","1014.562","12.91","68.23","NAN","0.0"],
    [1550267,"2026-04-14 05:00:00","2977","0.6579999999999999","341.1","2.156","304.4","1014.63","12.91","68.15","NAN","0.0"],
    [1550268,"2026-04-14 05:10:00","2978","0.8959999999999999","355.4","2.0909999999999997","312.1","1014.716","12.7","68.07","NAN","0.0"],
    [1550269,"2026-04-14 05:20:00","2979","0.618","343.8","1.4369999999999998","297.0","1014.816","12.67","66.78","NAN","0.0"],
    [1550270,"2026-04-14 05:30:00","2980","1.122","324.1","2.483","330.4","1014.841","12.78","65.27","NAN","0.0"],
    [1550271,"2026-04-14 05:40:00","2981","1.044","326.8","2.7769999999999997","315.5","1014.908","12.94","62.57","NAN","0.0"],
    [1550272,"2026-04-14 05:50:00","2982","0.738","344.1","1.797","298.9","1015.0830000000001","12.86","60.81","NAN","0.0"],
    [1550273,"2026-04-14 06:00:00","2983","0.735","339.3","2.189","315.6","1015.185","13.02","60.45","NAN","0.0"],
    [1550274,"2026-04-14 06:10:00","2984","1.379","7.596","2.842","0.831","1015.3330000000001","13.12","61.26","NAN","0.0"],
    [1550275,"2026-04-14 06:20:00","2985","1.328","1.729","2.613","354.9","1015.298","13.2","59.67","NAN","0.0"],
    [1550276,"2026-04-14 06:30:00","2986","0.978","353.3","2.7439999999999998","340.7","1015.373","13.38","57.06","NAN","0.0"],
    [1550277,"2026-04-14 06:40:00","2987","1.193","15.76","2.875","19.1","1015.5160000000001","13.57","56.15","NAN","0.0"],
    [1550278,"2026-04-14 06:50:00","2988","1.594","9.29","2.9730000000000003","4.508","1015.5989999999999","13.73","55.72","NAN","0.0"],
    [1550279,"2026-04-14 07:00:00","2989","1.732","14.2","3.6260000000000003","8.41","1015.622","13.79","54.58","NAN","0.0"],
    [1550280,"2026-04-14 07:10:00","2990","1.49","21.01","3.7889999999999997","10.57","1015.696","14.02","53.67","NAN","0.0"],
    [1550281,"2026-04-14 07:20:00","2991","1.588","13.93","3.9530000000000003","31.57","1015.694","14.05","54.33","NAN","0.0"],
    [1550282,"2026-04-14 07:30:00","2992","1.12","7.79","2.7110000000000003","359.6","1015.699","14.45","53.31","NAN","0.0"],
    [1550283,"2026-04-14 07:40:00","2993","1.3969999999999998","1.845","3.397","11.14","1015.7289999999999","14.76","51.28","NAN","0.0"],
    [1550284,"2026-04-14 07:50:00","2994","1.1840000000000002","348.2","2.287","3.3160000000000003","1015.7739999999999","14.86","49.66","NAN","0.0"],
    [1550285,"2026-04-14 08:00:00","2995","1.9","18.37","3.9530000000000003","23.88","1015.8889999999999","15.15","48.68","NAN","0.0"],
    [1550286,"2026-04-14 08:10:00","2996","1.768","22.94","3.43","6.8229999999999995","1015.946","15.38","48.51","NAN","0.0"],
    [1550287,"2026-04-14 08:20:00","2997","1.213","41.02","2.613","26.85","1015.953","16.03","47.74","NAN","0.0"],
    [1550288,"2026-04-14 08:30:00","2998","1.031","29.96","2.352","9.55","1015.956","16.44","46.61","NAN","0.0"],
    [1550289,"2026-04-14 08:40:00","2999","1.225","49.11","2.94","53.26","1015.946","16.69","46.73","NAN","0.0"],
    [1550290,"2026-04-14 08:50:00","3000","0.677","93.7","1.895","116.1","1015.9989999999999","17.25","45.66","NAN","0.0"],
    [1550291,"2026-04-14 09:00:00","3001","0.8340000000000001","173.1","1.633","151.8","1016.178","17.69","45.33","NAN","0.0"],
    [1550292,"2026-04-14 09:10:00","3002","1.189","186.9","2.0580000000000003","178.9","1016.27","17.11","47.85","NAN","0.0"],
    [1550293,"2026-04-14 09:20:00","3003","1.16","170.6","2.417","169.2","1016.436","17.21","47.94","NAN","0.0"],
    [1550294,"2026-04-14 09:30:00","3004","1.3559999999999999","118.1","2.8089999999999997","111.6","1016.332","16.76","50.21","NAN","0.0"],
    [1550295,"2026-04-14 09:40:00","3005","1.9569999999999999","126.5","3.495","114.3","1016.334","16.67","51.01","NAN","0.0"],
    [1550296,"2026-04-14 09:50:00","3006","1.8330000000000002","120.5","3.332","108.7","1016.319","16.66","52.88","NAN","0.0"],
    [1550297,"2026-04-14 10:00:00","3007","1.536","169.9","2.5810000000000004","169.1","1016.319","17.01","50.73","NAN","0.0"],
    [1550298,"2026-04-14 10:10:00","3008","1.996","162.1","3.43","137.3","1016.375","16.9","52","NAN","0.0"],
    [1550299,"2026-04-14 10:20:00","3009","1.956","141.7","3.985","126.6","1016.3739999999999","16.88","54.33","NAN","0.0"],
    [1550300,"2026-04-14 10:30:00","3010","2.234","176.2","3.855","182.9","1016.434","17.04","54.1","NAN","0.0"],
    [1550301,"2026-04-14 10:40:00","3011","3.051","176.2","4.541","183.5","1016.497","16.48","57.13","NAN","0.0"],
    [1550302,"2026-04-14 10:50:00","3012","3.0010000000000003","181.1","4.769","186.5","1016.5889999999999","16.54","56.68","NAN","0.0"],
    [1550303,"2026-04-14 11:00:00","3013","2.752","182.0","4.671","180.0","1016.539","16.5","58.4","NAN","0.0"],
    [1550304,"2026-04-14 11:10:00","3014","3.2910000000000004","180.2","4.769","186.8","1016.459","16.38","59.39","NAN","0.0"],
    [1550305,"2026-04-14 11:20:00","3015","3.207","178.9","4.769","179.7","1016.434","16.2","60.1","NAN","0.0"],
    [1550306,"2026-04-14 11:30:00","3016","3.7310000000000003","179.7","5.2589999999999995","176.3","1016.337","16.19","60.05","NAN","0.0"],
    [1550307,"2026-04-14 11:40:00","3017","3.5380000000000003","182.3","5.88","179.5","1016.327","16.14","60.95","NAN","0.0"],
    [1550308,"2026-04-14 11:50:00","3018","3.4619999999999997","179.2","5.1610000000000005","169.1","1016.319","16.27","60.87","NAN","0.0"],
    [1550309,"2026-04-14 12:00:00","3019","3.917","177.2","6.37","179.3","1016.305","16.19","60.93","NAN","0.0"],
    [1550310,"2026-04-14 12:10:00","3020","4.248","178.3","7.218999999999999","179.4","1016.237","16.2","60.48","NAN","0.0"],
    [1550311,"2026-04-14 12:20:00","3021","4.357","180.5","6.729","177.4","1016.1","16.19","60.91","NAN","0.0"],
    [1550312,"2026-04-14 12:30:00","3022","4.426","179.4","7.187","183.7","1016.095","16.15","61.17","NAN","0.0"],
    [1550313,"2026-04-14 12:40:00","3023","4.9","178.9","7.121","190.7","1016.086","16.07","62.01","NAN","0.0"],
    [1550314,"2026-04-14 12:50:00","3024","4.173","174.2","6.86","177.8","1016.143","16.27","60.84","NAN","0.0"],
    [1550315,"2026-04-14 13:00:00","3025","3.1910000000000003","191.9","6.011","174.3","1016.179","16.66","60.18","NAN","0.0"],
    [1550316,"2026-04-14 13:10:00","3026","2.758","193.2","5.422999999999999","199.5","1016.199","16.93","59.07","NAN","0.0"],
    [1550317,"2026-04-14 13:20:00","3027","2.73","190.6","5.651","175.3","1016.185","17.08","59.26","NAN","0.0"],
    [1550318,"2026-04-14 13:30:00","3028","2.6639999999999997","191.4","4.9","211.6","1016.195","17.27","58.83","NAN","0.0"],
    [1550319,"2026-04-14 13:40:00","3029","2.739","195.1","4.573","191.9","1016.255","17.08","59.48","NAN","0.0"],
    [1550320,"2026-04-14 13:50:00","3030","3.503","185.2","5.912999999999999","172.7","1016.2","16.96","59.91","NAN","0.0"],
    [1550321,"2026-04-14 14:00:00","3031","3.0860000000000003","194.5","6.0760000000000005","184.4","1016.193","16.82","60.76","NAN","0.0"],
    [1550322,"2026-04-14 14:10:00","3032","3.492","184.5","7.481","174.6","1016.18","16.7","61.42","NAN","0.0"],
    [1550323,"2026-04-14 14:20:00","3033","3.178","191.1","5.39","179.6","1016.155","16.89","61.15","NAN","0.0"],
    [1550324,"2026-04-14 14:30:00","3034","2.915","191.3","4.998","195.8","1016.073","16.95","61.28","NAN","0.0"],
    [1550325,"2026-04-14 14:40:00","3035","2.903","195.2","5.031000000000001","178.8","1016.068","16.94","61","NAN","0.0"],
    [1550326,"2026-04-14 14:50:00","3036","3.3560000000000003","186.4","5.912999999999999","173.0","1015.9830000000001","16.55","62.39","NAN","0.0"],
    [1550327,"2026-04-14 15:00:00","3037","2.758","194.8","6.0760000000000005","181.2","1015.951","16.73","62.11","NAN","0.0"],
    [1550328,"2026-04-14 15:10:00","3038","2.947","191.7","5.651","181.5","1015.9739999999999","16.8","61.59","NAN","0.0"],
    [1550329,"2026-04-14 15:20:00","3039","2.897","189.1","5.782","177.4","1016.068","16.48","63.39","NAN","0.0"],
    [1550330,"2026-04-14 15:30:00","3040","2.807","194.7","4.541","173.5","1016.073","16.66","63.38","NAN","0.0"],
    [1550331,"2026-04-14 15:40:00","3041","2.5860000000000003","190.1","4.573","176.1","1016.133","16.59","64.02","NAN","0.0"],
    [1550332,"2026-04-14 15:50:00","3042","2.85","185.1","5.782","172.5","1016.198","16.53","65.4","NAN","0.0"],
    [1550333,"2026-04-14 16:00:00","3043","2.824","184.6","4.573","184.9","1016.305","16.38","66.15","NAN","0.0"],
    [1550334,"2026-04-14 16:10:00","3044","3.08","180.1","5.063","180.8","1016.347","16.17","68.2","NAN","0.0"],
    [1550335,"2026-04-14 16:20:00","3045","2.9619999999999997","178.8","4.475","168.7","1016.442","16.11","68.43","NAN","0.0"],
    [1550336,"2026-04-14 16:30:00","3046","2.97","180.5","5.39","181.8","1016.4689999999999","16.06","69.21","NAN","0.0"],
    [1550337,"2026-04-14 16:40:00","3047","2.639","181.8","4.345","186.6","1016.6160000000001","16.09","68.93","NAN","0.0"],
    [1550338,"2026-04-14 16:50:00","3048","1.943","196.8","3.659","182.6","1016.693","16.25","68.4","NAN","0.0"],
    [1550339,"2026-04-14 17:00:00","3049","2.062","190.8","3.855","171.4","1016.699","16.25","67.4","NAN","0.0"],
    [1550340,"2026-04-14 17:10:00","3050","1.841","204.8","3.332","189.5","1016.702","16.32","67.08","NAN","0.0"],
    [1550341,"2026-04-14 17:20:00","3051","2.114","181.6","4.475","182.3","1016.804","16.43","66.93","NAN","0.0"],
    [1550342,"2026-04-14 17:30:00","3052","2.233","179.6","3.7569999999999997","165.4","1016.855","16.01","69.52","NAN","0.0"],
    [1550343,"2026-04-14 17:40:00","3053","1.689","200.3","3.267","180.7","1016.9830000000001","16.03","69.5","NAN","0.0"],
    [1550344,"2026-04-14 17:50:00","3054","1.558","214.4","3.5610000000000004","238.2","1017.0980000000001","16.26","66.02","NAN","0.0"],
    [1550345,"2026-04-14 18:00:00","3055","1.475","215.3","2.5810000000000004","187.6","1017.2489999999999","16.04","66.74","NAN","0.0"],
    [1550346,"2026-04-14 18:10:00","3056","1.5619999999999998","210.0","3.267","210.4","1017.262","15.87","67.41","NAN","0.0"],
    [1550347,"2026-04-14 18:20:00","3057","1.515","204.1","3.005","208.5","1017.2869999999999","15.74","68.83","NAN","0.0"],
    [1550348,"2026-04-14 18:30:00","3058","1.251","212.6","2.907","204.7","1017.3910000000001","15.65","68.86","NAN","0.0"],
    [1550349,"2026-04-14 18:40:00","3059","1.5859999999999999","223.3","2.679","237.7","1017.4889999999999","15.68","68.42","NAN","0.0"],
    [1550350,"2026-04-14 18:50:00","3060","1.736","220.7","3.071","213.1","1017.673","15.63","68.99","NAN","0.0"],
    [1550351,"2026-04-14 19:00:00","3061","1.4240000000000002","216.2","2.7110000000000003","219.3","1017.824","15.53","69.92","NAN","0.0"],
    [1550352,"2026-04-14 19:10:00","3062","1.653","238.5","3.659","236.4","1017.9839999999999","15.51","70.17","NAN","0.0"],
    [1550353,"2026-04-14 19:20:00","3063","2.076","238.3","3.6260000000000003","244.4","1018.043","15.59","69.51","NAN","0.0"],
    [1550354,"2026-04-14 19:30:00","3064","1.463","236.5","3.0380000000000003","268.6","1018.212","15.62","69.79","NAN","0.0"],
    [1550355,"2026-04-14 19:40:00","3065","1.755","235.7","3.1689999999999996","246.6","1018.3530000000001","15.62","69.29","NAN","0.0"],
    [1550356,"2026-04-14 19:50:00","3066","1.778","240.6","3.136","247.0","1018.48","15.55","66.7","NAN","0.0"],
    [1550357,"2026-04-14 20:00:00","3067","1.6030000000000002","235.8","3.005","231.8","1018.637","15.54","67.55","NAN","0.0"],
    [1550358,"2026-04-14 20:10:00","3068","0.9840000000000001","237.6","2.7439999999999998","250.3","1018.794","15.49","69.19","NAN","0.0"],
    [1550359,"2026-04-14 20:20:00","3069","1.068","247.8","2.221","234.7","1018.818","15.42","69.44","NAN","0.0"],
    [1550360,"2026-04-14 20:30:00","3070","1.0","235.3","2.319","237.2","1019.0010000000001","15.43","70.03","NAN","0.0"],
    [1550361,"2026-04-14 20:40:00","3071","1.117","240.5","2.025","242.6","1019.112","15.35","70.53","NAN","0.0"],
    [1550362,"2026-04-14 20:50:00","3072","1.166","229.6","2.483","225.6","1019.2410000000001","15.21","71.39","NAN","0.0"],
    [1550363,"2026-04-14 21:00:00","3073","1.197","232.6","2.5810000000000004","232.8","1019.293","15.21","71.04","NAN","0.0"],
    [1550364,"2026-04-14 21:10:00","3074","1.2309999999999999","232.0","2.6460000000000004","257.1","1019.3","15.22","71.99","NAN","0.0"],
    [1550365,"2026-04-14 21:20:00","3075","0.7559999999999999","213.7","1.7309999999999999","254.1","1019.302","15.06","72.56","NAN","0.0"],
    [1550366,"2026-04-14 21:30:00","3076","0.736","197.7","1.209","283.8","1019.301","14.87","74.04","NAN","0.0"],
    [1550367,"2026-04-14 21:40:00","3077","0.795","204.6","1.307","238.0","1019.312","14.67","74.5","NAN","0.0"],
    [1550368,"2026-04-14 21:50:00","3078","0.948","200.4","1.4369999999999998","217.9","1019.315","14.46","75.44","NAN","0.0"],
    [1550369,"2026-04-14 22:00:00","3079","0.42700000000000005","219.2","1.013","230.1","1019.322","14.41","72.62","NAN","0.0"],
    [1550370,"2026-04-14 22:10:00","3080","0.363","220.6","1.078","218.2","1019.322","14.38","70.82","NAN","0.0"],
    [1550371,"2026-04-14 22:20:00","3081","0.5660000000000001","253.2","1.339","274.3","1019.319","14.6","68.23","NAN","0.0"],
    [1550372,"2026-04-14 22:30:00","3082","0.685","287.4","1.47","292.8","1019.323","14.88","66.76","NAN","0.0"],
    [1550373,"2026-04-14 22:40:00","3083","0.635","270.5","1.535","261.3","1019.3589999999999","14.99","66.1","NAN","0.0"],
    [1550374,"2026-04-14 22:50:00","3084","0.295","5.3020000000000005","0.8490000000000001","25.57","1019.45","14.9","66.52","NAN","0.0"],
    [1550375,"2026-04-14 23:00:00","3085","0.42700000000000005","62.32","0.915","69.8","1019.453","14.51","68.56","NAN","0.0"],
    [1550376,"2026-04-14 23:10:00","3086","0.062","37.92","0.523","81.4","1019.432","14.18","67.55","NAN","0.0"],
    [1550377,"2026-04-14 23:20:00","3087","0.027000000000000003","71.24","0.49","53.49","1019.319","14.04","67.14","NAN","0.0"],
    [1550378,"2026-04-14 23:30:00","3088","0.14400000000000002","70.0","0.523","81.2","1019.323","13.86","66.23","NAN","0.0"],
    [1550379,"2026-04-14 23:40:00","3089","0.037000000000000005","87.3","0.327","86.8","1019.318","13.72","64.89","NAN","0.0"],
    [1550380,"2026-04-14 23:50:00","3090","0.11599999999999999","37.02","0.49","46.18","1019.2460000000001","13.5","62.88","NAN","0.0"],
    [1550381,"2026-04-15 00:00:00","3091","0.0","0.0","0.0","0.0","1019.1060000000001","13.68","60.69","NAN","0.0"],
    [1550382,"2026-04-15 00:10:00","3092","0.077","84.1","0.457","88.8","1019.076","13.62","60.8","NAN","0.0"],
    [1550383,"2026-04-15 00:20:00","3093","0.018000000000000002","94.4","0.392","106.3","1019.076","13.4","63.61","NAN","0.0"],
    [1550384,"2026-04-15 00:30:00","3094","0.177","61.86","0.555","65.12","1019.076","13.39","64.87","NAN","0.0"],
    [1550385,"2026-04-15 00:40:00","3095","0.0","0.0","0.0","0.0","1019.079","13.34","65.25","NAN","0.0"],
    [1550386,"2026-04-15 00:50:00","3096","0.025","84.0","0.261","88.6","1019.096","13.22","66.19","NAN","0.0"],
    [1550387,"2026-04-15 01:00:00","3097","0.071","90.9","0.8170000000000001","91.0","1019.076","13.07","67.4","NAN","0.0"],
    [1550388,"2026-04-15 01:10:00","3098","0.42","124.0","0.98","97.2","1019.064","13.26","66.95","NAN","0.0"],
    [1550389,"2026-04-15 01:20:00","3099","0.057","106.2","0.425","112.8","1019.0189999999999","13.3","67.04","NAN","0.0"],
    [1550390,"2026-04-15 01:30:00","3100","0.455","32.57","1.307","41.64","1018.927","13.24","67.73","NAN","0.0"],
    [1550391,"2026-04-15 01:40:00","3101","0.6579999999999999","29.88","1.666","36.42","1018.827","13.4","67.34","NAN","0.0"],
    [1550392,"2026-04-15 01:50:00","3102","0.7170000000000001","28.09","1.405","28.89","1018.89","13.3","67.91","NAN","0.0"],
    [1550393,"2026-04-15 02:00:00","3103","0.589","38.58","1.209","28.32","1018.952","13.13","68.44","NAN","0.0"],
    [1550394,"2026-04-15 02:10:00","3104","0.7490000000000001","22.59","1.96","16.15","1018.8989999999999","12.96","69","NAN","0.0"],
    [1550395,"2026-04-15 02:20:00","3105","0.851","357.4","1.568","348.9","1018.827","13.03","68.61","NAN","0.0"],
    [1550396,"2026-04-15 02:30:00","3106","0.731","357.8","1.339","1.5859999999999999","1018.827","13.11","67.77","NAN","0.0"],
    [1550397,"2026-04-15 02:40:00","3107","0.221","8.54","0.784","359.6","1018.822","13.06","68.11","NAN","0.0"],
    [1550398,"2026-04-15 02:50:00","3108","0.243","102.4","0.7509999999999999","77.91","1018.825","12.81","69.52","NAN","0.0"],
    [1550399,"2026-04-15 03:00:00","3109","0.0","0.0","0.0","0.0","1018.827","12.6","71.59","NAN","0.0"],
    [1550400,"2026-04-15 03:10:00","3110","0.023","143.9","0.392","146.5","1018.827","12.63","71.93","NAN","0.0"],
    [1550401,"2026-04-15 03:20:00","3111","0.263","67.41","1.143","47.61","1018.802","12.46","72.73","NAN","0.0"],
    [1550402,"2026-04-15 03:30:00","3112","0.23600000000000002","32.47","0.98","47.19","1018.7819999999999","12.35","71.62","NAN","0.0"],
    [1550403,"2026-04-15 03:40:00","3113","0.203","19.86","1.111","36.36","1018.7080000000001","12.32","71.38","NAN","0.0"],
    [1550404,"2026-04-15 03:50:00","3114","0.32899999999999996","17.89","0.9470000000000001","39.21","1018.7819999999999","12.43","70.65","NAN","0.0"],
    [1550405,"2026-04-15 04:00:00","3115","0.718","39.01","1.5030000000000001","39.5","1018.822","12.38","70.63","NAN","0.0"],
    [1550406,"2026-04-15 04:10:00","3116","0.7609999999999999","10.16","1.764","1.666","1018.817","12.34","68.14","NAN","0.0"],
    [1550407,"2026-04-15 04:20:00","3117","0.628","9.58","1.405","9.77","1018.822","12.33","67.3","NAN","0.0"],
    [1550408,"2026-04-15 04:30:00","3118","0.78","20.72","1.405","21.15","1018.825","12.31","65.55","NAN","0.0"],
    [1550409,"2026-04-15 04:40:00","3119","1.085","9.86","1.8619999999999999","353.4","1018.7919999999999","12.03","65.52","NAN","0.0"],
    [1550410,"2026-04-15 04:50:00","3120","0.6940000000000001","16.17","1.307","3.91","1018.8","11.98","65.79","NAN","0.0"],
    [1550411,"2026-04-15 05:00:00","3121","0.501","35.46","1.111","37.72","1018.827","11.95","66.25","NAN","0.0"],
    [1550412,"2026-04-15 05:10:00","3122","0.703","23.88","1.797","31.61","1018.882","11.88","66.91","NAN","0.0"],
    [1550413,"2026-04-15 05:20:00","3123","1.0959999999999999","14.36","2.156","354.7","1018.957","12.06","67.19","NAN","0.0"],
    [1550414,"2026-04-15 05:30:00","3124","0.904","23.94","2.319","18.73","1018.9989999999999","12.08","66.75","NAN","0.0"],
    [1550415,"2026-04-15 05:40:00","3125","1.27","9.57","2.123","19.03","1019.074","12.06","65.35","NAN","0.0"],
    [1550416,"2026-04-15 05:50:00","3126","1.1079999999999999","13.88","2.221","20.19","1019.171","12.1","65.04","NAN","0.0"],
    [1550417,"2026-04-15 06:00:00","3127","1.252","4.387","2.352","9.73","1019.291","12.33","63.42","NAN","0.0"],
    [1550418,"2026-04-15 06:10:00","3128","0.95","25.33","2.221","21.41","1019.388","12.78","61.43","NAN","0.0"],
    [1550419,"2026-04-15 06:20:00","3129","1.422","9.39","2.548","34.13","1019.5060000000001","12.83","60.99","NAN","0.0"],
    [1550420,"2026-04-15 06:30:00","3130","1.5330000000000001","8.67","2.548","354.4","1019.6669999999999","12.85","60.84","NAN","0.0"],
    [1550421,"2026-04-15 06:40:00","3131","0.929","4.001","1.993","15.28","1019.745","13.22","60.1","NAN","0.0"],
    [1550422,"2026-04-15 06:50:00","3132","1.071","14.22","1.895","11.69","1019.7869999999999","14.04","54.52","NAN","0.0"],
    [1550423,"2026-04-15 07:00:00","3133","0.91","47.47","2.156","52.79","1019.7769999999999","14.54","53.5","NAN","0.0"],
    [1550424,"2026-04-15 07:10:00","3134","1.149","70.75","2.123","53.34","1019.788","15.18","50.48","NAN","0.0"],
    [1550425,"2026-04-15 07:20:00","3135","0.774","36.37","1.7309999999999999","54.03","1019.961","15.35","48.2","NAN","0.0"],
    [1550426,"2026-04-15 07:30:00","3136","1.4709999999999999","51.98","2.679","44.53","1020.133","15.56","45.88","NAN","0.0"],
    [1550427,"2026-04-15 07:40:00","3137","0.9390000000000001","30.21","2.352","48.32","1020.285","15.64","45.85","NAN","0.0"],
    [1550428,"2026-04-15 07:50:00","3138","1.234","2.698","3.267","11.48","1020.4019999999999","15.84","44.3","NAN","0.0"],
    [1550429,"2026-04-15 08:00:00","3139","0.9329999999999999","37.31","2.0909999999999997","36.04","1020.507","16.08","43.11","NAN","0.0"],
    [1550430,"2026-04-15 08:10:00","3140","1.002","6.417000000000001","2.221","49.53","1020.574","16.41","42.38","NAN","0.0"],
    [1550431,"2026-04-15 08:20:00","3141","0.9179999999999999","175.5","1.699","195.5","1020.671","16.26","50.16","NAN","0.0"],
    [1550432,"2026-04-15 08:30:00","3142","1.65","168.6","2.679","180.1","1020.6260000000001","15.8","54.67","NAN","0.0"],
    [1550433,"2026-04-15 08:40:00","3143","1.716","193.0","2.7769999999999997","192.5","1020.6389999999999","15.71","52.73","NAN","0.0"],
    [1550434,"2026-04-15 08:50:00","3144","1.115","209.6","2.352","222.4","1020.678","16.66","49.26","NAN","0.0"],
    [1550435,"2026-04-15 09:00:00","3145","1.73","136.6","3.5610000000000004","103.3","1020.678","16.68","47.51","NAN","0.0"],
    [1550436,"2026-04-15 09:10:00","3146","2.271","123.3","3.985","113.1","1020.681","16.24","49.7","NAN","0.0"],
    [1550437,"2026-04-15 09:20:00","3147","2.158","114.1","4.279","115.2","1020.7260000000001","16.49","49.85","NAN","0.0"],
    [1550438,"2026-04-15 09:30:00","3148","2.101","105.2","3.5610000000000004","116.5","1020.778","16.33","51.44","NAN","0.0"],
    [1550439,"2026-04-15 09:40:00","3149","2.441","92.8","4.051","69.46","1020.758","16.45","50.93","NAN","0.0"],
    [1550440,"2026-04-15 09:50:00","3150","2.36","115.2","4.312","114.9","1020.883","16.47","54.09","NAN","0.0"],
    [1550441,"2026-04-15 10:00:00","3151","2.494","121.5","4.149","110.6","1020.857","16.15","55.68","NAN","0.0"],
    [1550442,"2026-04-15 10:10:00","3152","2.305","119.5","4.606","119.0","1020.778","16.3","55.15","NAN","0.0"],
    [1550443,"2026-04-15 10:20:00","3153","2.184","118.5","4.1160000000000005","107.7","1020.778","16.32","53.5","NAN","0.0"],
    [1550444,"2026-04-15 10:30:00","3154","2.2640000000000002","131.5","3.332","135.6","1020.8","15.99","56.23","NAN","0.0"],
    [1550445,"2026-04-15 10:40:00","3155","2.38","127.5","3.6910000000000003","113.3","1020.7330000000001","15.76","58.36","NAN","0.0"],
    [1550446,"2026-04-15 10:50:00","3156","2.3819999999999997","126.4","4.051","112.6","1020.678","15.77","58.38","NAN","0.0"],
    [1550447,"2026-04-15 11:00:00","3157","1.7790000000000001","131.7","3.071","112.8","1020.676","16.15","56.35","NAN","0.0"],
    [1550448,"2026-04-15 11:10:00","3158","1.754","127.9","3.267","118.7","1020.671","16.19","53.81","NAN","0.0"],
    [1550449,"2026-04-15 11:20:00","3159","1.9369999999999998","140.2","3.5610000000000004","165.1","1020.628","16.24","55.52","NAN","0.0"],
    [1550450,"2026-04-15 11:30:00","3160","1.99","147.3","3.495","108.5","1020.5039999999999","16.14","57.47","NAN","0.0"],
    [1550451,"2026-04-15 11:40:00","3161","1.7690000000000001","146.8","2.907","106.3","1020.329","16.42","59.59","NAN","0.0"],
    [1550452,"2026-04-15 11:50:00","3162","1.79","142.9","3.0380000000000003","185.8","1020.247","16.45","57.04","NAN","0.0"],
    [1550453,"2026-04-15 12:00:00","3163","2.0380000000000003","167.8","3.1689999999999996","173.6","1020.18","16.75","60.82","NAN","0.0"],
    [1550454,"2026-04-15 12:10:00","3164","2.36","185.2","4.247","177.7","1020.18","16.57","62.54","NAN","0.0"],
    [1550455,"2026-04-15 12:20:00","3165","2.6260000000000003","176.7","3.7239999999999998","186.1","1020.175","16.14","64.04","NAN","0.0"],
    [1550456,"2026-04-15 12:30:00","3166","2.5","174.3","3.855","181.6","1020.128","16.48","62.68","NAN","0.0"],
    [1550457,"2026-04-15 12:40:00","3167","2.8930000000000002","175.6","4.149","182.6","1020.081","16.36","57.85","NAN","0.0"],
    [1550458,"2026-04-15 12:50:00","3168","3.112","181.3","4.769","179.8","1020.1","16.71","55.05","NAN","0.0"],
    [1550459,"2026-04-15 13:00:00","3169","3.173","178.4","4.704","177.6","1020.115","16.58","57.5","NAN","0.0"],
    [1550460,"2026-04-15 13:10:00","3170","3.278","175.6","5.357","186.2","1020.08","16.92","57.94","NAN","0.0"],
    [1550461,"2026-04-15 13:20:00","3171","3.792","176.5","5.619","182.7","1019.931","16.46","64.22","NAN","0.0"],
    [1550462,"2026-04-15 13:30:00","3172","3.873","175.6","5.422999999999999","177.7","1019.836","16.57","65.9","NAN","0.0"],
    [1550463,"2026-04-15 13:40:00","3173","3.8810000000000002","176.5","5.847","180.1","1019.7189999999999","16.52","67.81","NAN","0.0"],
    [1550464,"2026-04-15 13:50:00","3174","3.7310000000000003","174.7","5.096","175.5","1019.682","16.48","68.56","NAN","0.0"],
    [1550465,"2026-04-15 14:00:00","3175","3.739","177.8","5.194","180.9","1019.6389999999999","16.32","69.82","NAN","0.0"],
    [1550466,"2026-04-15 14:10:00","3176","3.6639999999999997","177.9","4.835","182.4","1019.5319999999999","16.4","70.17","NAN","0.0"],
    [1550467,"2026-04-15 14:20:00","3177","3.487","177.5","5.194","178.0","1019.428","16.44","69.13","NAN","0.0"],
    [1550468,"2026-04-15 14:30:00","3178","3.245","176.1","4.998","176.7","1019.373","16.63","68.74","NAN","0.0"],
    [1550469,"2026-04-15 14:40:00","3179","3.2569999999999997","175.2","5.227","180.5","1019.238","16.76","68.09","NAN","0.0"],
    [1550470,"2026-04-15 14:50:00","3180","2.998","173.3","4.41","180.6","1019.184","16.98","67.24","NAN","0.0"],
    [1550471,"2026-04-15 15:00:00","3181","3.5210000000000004","176.3","5.031000000000001","175.9","1019.184","16.87","67.06","NAN","0.0"],
    [1550472,"2026-04-15 15:10:00","3182","3.313","176.5","4.606","172.4","1019.176","16.73","69.96","NAN","0.0"],
    [1550473,"2026-04-15 15:20:00","3183","3.141","174.8","4.475","174.7","1019.181","16.74","69.62","NAN","0.0"],
    [1550474,"2026-04-15 15:30:00","3184","3.133","173.7","4.345","172.1","1019.1439999999999","16.67","69.48","NAN","0.0"],
    [1550475,"2026-04-15 15:40:00","3185","2.832","176.0","4.279","183.0","1018.9839999999999","16.86","68.03","NAN","0.0"],
    [1550476,"2026-04-15 15:50:00","3186","2.819","177.6","4.1160000000000005","181.1","1019.007","16.71","71.25","NAN","0.0"],
    [1550477,"2026-04-15 16:00:00","3187","2.764","181.5","4.1160000000000005","177.9","1018.9789999999999","16.73","68.51","NAN","0.0"],
    [1550478,"2026-04-15 16:10:00","3188","2.889","180.6","4.149","180.9","1018.945","16.61","72.92","NAN","0.0"],
    [1550479,"2026-04-15 16:20:00","3189","2.685","180.7","3.9530000000000003","181.0","1018.92","16.55","74.36","NAN","0.0"],
    [1550480,"2026-04-15 16:30:00","3190","2.55","176.1","3.855","175.8","1018.987","16.54","73.99","NAN","0.0"],
    [1550481,"2026-04-15 16:40:00","3191","2.6889999999999996","171.2","4.1160000000000005","180.3","1019.0419999999999","16.65","74.65","NAN","0.0"],
    [1550482,"2026-04-15 16:50:00","3192","2.7260000000000004","171.2","4.4430000000000005","180.3","1019.137","16.57","75.49","NAN","0.0"],
    [1550483,"2026-04-15 17:00:00","3193","2.84","169.1","4.704","164.4","1019.1210000000001","16.7","75.23","NAN","0.0"],
    [1550484,"2026-04-15 17:10:00","3194","3.0389999999999997","172.1","4.998","179.5","1019.063","16.84","75.21","NAN","0.0"],
    [1550485,"2026-04-15 17:20:00","3195","2.86","177.3","4.965","182.6","1019.165","16.68","76.82","NAN","0.0"],
    [1550486,"2026-04-15 17:30:00","3196","2.845","171.1","4.247","168.0","1019.184","16.94","77.83","NAN","0.0"],
    [1550487,"2026-04-15 17:40:00","3197","2.892","170.9","4.704","186.6","1019.169","16.94","77.1","NAN","0.0"],
    [1550488,"2026-04-15 17:50:00","3198","2.173","190.6","3.365","190.5","1019.222","17.04","75.14","NAN","0.0"],
    [1550489,"2026-04-15 18:00:00","3199","2.004","199.1","3.659","198.9","1019.2280000000001","17.13","75.3","NAN","0.0"],
    [1550490,"2026-04-15 18:10:00","3200","1.695","191.9","2.94","205.7","1019.2769999999999","17.15","75.82","NAN","0.0"],
    [1550491,"2026-04-15 18:20:00","3201","1.506","198.1","3.1689999999999996","198.8","1019.363","17.09","75.22","NAN","0.0"],
    [1550492,"2026-04-15 18:30:00","3202","1.536","209.0","2.94","209.4","1019.502","17.17","73.62","NAN","0.0"],
    [1550493,"2026-04-15 18:40:00","3203","1.196","204.3","2.6460000000000004","205.5","1019.6569999999999","17.14","73.9","NAN","0.0"],
    [1550494,"2026-04-15 18:50:00","3204","1.594","207.2","2.94","203.4","1019.7539999999999","16.84","74.71","NAN","0.0"],
    [1550495,"2026-04-15 19:00:00","3205","1.385","225.8","2.5810000000000004","246.3","1019.913","16.96","72.87","NAN","0.0"],
    [1550496,"2026-04-15 19:10:00","3206","1.209","216.6","2.221","212.3","1020.0269999999999","16.82","73.53","NAN","0.0"],
    [1550497,"2026-04-15 19:20:00","3207","0.992","203.0","1.764","196.6","1020.2139999999999","16.69","74.14","NAN","0.0"],
    [1550498,"2026-04-15 19:30:00","3208","1.25","211.0","2.221","202.3","1020.2510000000001","16.58","74.27","NAN","0.0"],
    [1550499,"2026-04-15 19:40:00","3209","1.278","204.9","2.221","219.5","1020.2539999999999","16.66","73.32","NAN","0.0"],
    [1550500,"2026-04-15 19:50:00","3210","1.2429999999999999","207.7","2.45","195.8","1020.416","16.6","71.81","NAN","0.0"],
    [1550501,"2026-04-15 20:00:00","3211","0.897","201.0","1.797","179.7","1020.4939999999999","16.72","71.5","NAN","0.0"],
    [1550502,"2026-04-15 20:10:00","3212","1.0959999999999999","198.5","1.9269999999999998","179.7","1020.56","16.56","72.35","NAN","0.0"],
    [1550503,"2026-04-15 20:20:00","3213","0.7240000000000001","213.0","1.5030000000000001","210.7","1020.625","16.53","71.59","NAN","0.0"],
    [1550504,"2026-04-15 20:30:00","3214","1.297","215.2","2.417","195.7","1020.62","16.63","69.25","NAN","0.0"],
    [1550505,"2026-04-15 20:40:00","3215","1.069","217.7","2.221","201.9","1020.6419999999999","16.61","69","NAN","0.0"],
    [1550506,"2026-04-15 20:50:00","3216","1.5730000000000002","238.2","2.94","240.1","1020.64","16.74","68.61","NAN","0.0"],
    [1550507,"2026-04-15 21:00:00","3217","1.4680000000000002","245.9","3.005","254.6","1020.742","16.69","69.53","NAN","0.0"],
    [1550508,"2026-04-15 21:10:00","3218","1.128","243.7","2.352","255.5","1020.7669999999999","16.67","69.34","NAN","0.0"],
    [1550509,"2026-04-15 21:20:00","3219","1.62","245.2","2.7110000000000003","246.1","1020.957","16.72","68.51","NAN","0.0"],
    [1550510,"2026-04-15 21:30:00","3220","1.075","241.4","2.907","242.2","1021.028","16.63","69.34","NAN","0.0"],
    [1550511,"2026-04-15 21:40:00","3221","1.258","242.8","2.254","242.0","1021.143","16.63","68.82","NAN","0.0"],
    [1550512,"2026-04-15 21:50:00","3222","1.153","256.7","2.6460000000000004","242.6","1021.128","16.57","69.5","NAN","0.0"],
    [1550513,"2026-04-15 22:00:00","3223","0.8140000000000001","254.1","1.895","265.6","1021.1110000000001","16.5","69.37","NAN","0.0"],
    [1550514,"2026-04-15 22:10:00","3224","0.331","269.8","1.405","243.0","1021.063","16.56","69.99","NAN","0.0"],
    [1550515,"2026-04-15 22:20:00","3225","0.622","221.3","1.3719999999999999","221.5","1021.084","16.6","70.34","NAN","0.0"],
    [1550516,"2026-04-15 22:30:00","3226","0.8190000000000001","244.2","1.633","250.3","1021.0010000000001","16.53","70.24","NAN","0.0"],
    [1550517,"2026-04-15 22:40:00","3227","0.436","237.8","1.307","259.5","1021.1039999999999","16.62","69.75","NAN","0.0"],
    [1550518,"2026-04-15 22:50:00","3228","0.077","185.9","0.555","229.7","1021.1210000000001","16.46","70.7","NAN","0.0"],
    [1550519,"2026-04-15 23:00:00","3229","0.031","157.0","0.327","157.5","1021.2139999999999","16.28","71.74","NAN","0.0"],
    [1550520,"2026-04-15 23:10:00","3230","0.718","113.8","1.143","94.8","1021.21","16.2","72.81","NAN","0.0"],
    [1550521,"2026-04-15 23:20:00","3231","0.6659999999999999","125.5","1.176","115.4","1021.078","16.22","76.05","NAN","0.0"],
    [1550522,"2026-04-15 23:30:00","3232","0.259","109.5","1.045","91.8","1021.1510000000001","16.06","81.3","NAN","0.0"],
    [1550523,"2026-04-15 23:40:00","3233","0.301","127.3","0.6859999999999999","119.1","1021.2389999999999","15.83","84.9","NAN","0.0"],
    [1550524,"2026-04-15 23:50:00","3234","0.14800000000000002","136.0","0.523","116.6","1021.2610000000001","15.68","86.7","NAN","0.0"],
    [1550525,"2026-04-16 00:00:00","3235","0.452","139.0","0.882","145.7","1021.2539999999999","15.53","89","NAN","0.0"],
    [1550526,"2026-04-16 00:10:00","3236","0.087","153.2","0.523","164.4","1021.26","15.37","88.8","NAN","0.0"],
    [1550527,"2026-04-16 00:20:00","3237","0.0","0.0","0.0","0.0","1021.2660000000001","15.23","88.4","NAN","0.0"],
    [1550528,"2026-04-16 00:30:00","3238","0.165","97.9","0.7509999999999999","23.22","1021.262","15.32","87.2","NAN","0.0"],
    [1550529,"2026-04-16 00:40:00","3239","0.17800000000000002","184.8","0.49","189.8","1021.1160000000001","15.33","87.7","NAN","0.0"],
    [1550530,"2026-04-16 00:50:00","3240","0.0","0.0","0.0","0.0","1021.0169999999999","15.21","88.4","NAN","0.0"],
    [1550531,"2026-04-16 01:00:00","3241","0.0","0.0","0.0","0.0","1020.944","15","88.7","NAN","0.0"],
    [1550532,"2026-04-16 01:10:00","3242","0.0","0.0","0.0","0.0","1020.995","15.01","88.5","NAN","0.0"],
    [1550533,"2026-04-16 01:20:00","3243","0.061","174.0","0.7190000000000001","174.0","1020.8969999999999","15.07","88.9","NAN","0.0"],
    [1550534,"2026-04-16 01:30:00","3244","0.136","182.1","0.588","171.8","1020.88","14.97","89.3","NAN","0.0"],
    [1550535,"2026-04-16 01:40:00","3245","0.0","0.0","0.0","0.0","1020.7819999999999","14.8","89.4","NAN","0.0"],
    [1550536,"2026-04-16 01:50:00","3246","0.22699999999999998","163.5","0.98","167.4","1020.797","14.84","88.9","NAN","0.0"],
    [1550537,"2026-04-16 02:00:00","3247","0.247","196.0","0.621","204.2","1020.7760000000001","14.8","88.1","NAN","0.0"],
    [1550538,"2026-04-16 02:10:00","3248","0.303","166.2","0.882","157.3","1020.77","14.85","89.6","NAN","0.0"],
    [1550539,"2026-04-16 02:20:00","3249","0.107","194.6","0.588","192.3","1020.793","14.69","90.6","NAN","0.0"],
    [1550540,"2026-04-16 02:30:00","3250","0.0","0.0","0.0","0.0","1020.762","14.44","90.5","NAN","0.0"],
    [1550541,"2026-04-16 02:40:00","3251","0.0","0.0","0.0","0.0","1020.67","14.37","90","NAN","0.0"],
    [1550542,"2026-04-16 02:50:00","3252","0.0","0.0","0.0","0.0","1020.653","14.42","89.7","NAN","0.0"],
    [1550543,"2026-04-16 03:00:00","3253","0.0","0.0","0.0","0.0","1020.549","14.33","89.5","NAN","0.0"],
    [1550544,"2026-04-16 03:10:00","3254","0.0","0.0","0.0","0.0","1020.5010000000001","14.44","88.8","NAN","0.0"],
    [1550545,"2026-04-16 03:20:00","3255","0.0","0.0","0.0","0.0","1020.439","14.34","88.3","NAN","0.0"],
    [1550546,"2026-04-16 03:30:00","3256","0.156","265.9","0.8170000000000001","270.0","1020.434","14.29","88.2","NAN","0.0"],
    [1550547,"2026-04-16 03:40:00","3257","0.061","75.63","0.523","71.51","1020.3560000000001","14.55","86.3","NAN","0.0"],
    [1550548,"2026-04-16 03:50:00","3258","0.0","0.0","0.0","0.0","1020.314","14.48","85.1","NAN","0.0"],
    [1550549,"2026-04-16 04:00:00","3259","0.028999999999999998","269.3","0.621","254.8","1020.318","14.37","83.9","NAN","0.0"],
    [1550550,"2026-04-16 04:10:00","3260","0.485","304.8","1.274","294.4","1020.3539999999999","14.81","81.9","NAN","0.0"],
    [1550551,"2026-04-16 04:20:00","3261","0.341","311.6","1.7309999999999999","324.1","1020.328","15.45","77.51","NAN","0.0"],
    [1550552,"2026-04-16 04:30:00","3262","0.166","81.1","0.457","103.2","1020.3810000000001","15.15","77.65","NAN","0.0"],
    [1550553,"2026-04-16 04:40:00","3263","0.478","3.736","1.013","7.755","1020.434","14.92","77.04","NAN","0.0"],
    [1550554,"2026-04-16 04:50:00","3264","0.251","355.5","1.111","4.0969999999999995","1020.4069999999999","14.95","75.63","NAN","0.0"],
    [1550555,"2026-04-16 05:00:00","3265","0.41200000000000003","343.0","0.915","7.336","1020.408","15.01","74.63","NAN","0.0"],
    [1550556,"2026-04-16 05:10:00","3266","0.09","277.1","0.523","248.9","1020.454","15.25","73.81","NAN","0.0"],
    [1550557,"2026-04-16 05:20:00","3267","0.0","0.0","0.0","0.0","1020.549","14.77","75.18","NAN","0.0"],
    [1550558,"2026-04-16 05:30:00","3268","0.168","135.0","0.588","149.1","1020.5980000000001","14.54","78.7","NAN","0.0"],
    [1550559,"2026-04-16 05:40:00","3269","0.0","0.0","0.0","0.0","1020.712","14.56","80.8","NAN","0.0"],
    [1550560,"2026-04-16 05:50:00","3270","0.027000000000000003","69.82","0.6859999999999999","69.02","1020.794","14.77","79.85","NAN","0.0"],
    [1550561,"2026-04-16 06:00:00","3271","0.302","69.16","0.6859999999999999","73.69","1020.785","14.84","78.63","NAN","0.0"],
    [1550562,"2026-04-16 06:10:00","3272","0.349","59.64","0.882","59.22","1020.794","14.88","75.21","NAN","0.0"],
    [1550563,"2026-04-16 06:20:00","3273","0.511","173.8","1.176","170.8","1020.937","14.98","77.77","NAN","0.0"],
    [1550564,"2026-04-16 06:30:00","3274","0.401","160.6","0.8170000000000001","147.4","1021.1260000000001","14.94","80.4","NAN","0.0"],
    [1550565,"2026-04-16 06:40:00","3275","0.38","172.6","0.6859999999999999","167.9","1021.191","15.1","81","NAN","0.0"],
    [1550566,"2026-04-16 06:50:00","3276","0.006","195.2","0.196","195.1","1021.2230000000001","15.25","81","NAN","0.0"],
    [1550567,"2026-04-16 07:00:00","3277","0.08900000000000001","102.1","0.588","108.8","1021.232","15.64","79.69","NAN","0.0"],
    [1550568,"2026-04-16 07:10:00","3278","0.49700000000000005","80.3","1.274","354.8","1021.24","15.91","77.23","NAN","0.0"],
    [1550569,"2026-04-16 07:20:00","3279","0.369","30.53","1.078","350.4","1021.255","16.2","69.73","NAN","0.0"],
    [1550570,"2026-04-16 07:30:00","3280","0.63","85.9","1.797","60.66","1021.3710000000001","16.96","66.78","NAN","0.0"],
    [1550571,"2026-04-16 07:40:00","3281","0.804","110.2","1.993","61.16","1021.405","17.39","66.05","NAN","0.0"],
    [1550572,"2026-04-16 07:50:00","3282","0.772","136.8","1.209","115.9","1021.316","17.23","69.19","NAN","0.0"],
    [1550573,"2026-04-16 08:00:00","3283","0.9490000000000001","132.4","1.601","110.8","1021.3710000000001","17.25","68.32","NAN","0.0"],
    [1550574,"2026-04-16 08:10:00","3284","0.991","128.4","1.633","135.2","1021.426","17.51","65.33","NAN","0.0"],
    [1550575,"2026-04-16 08:20:00","3285","0.85","145.2","1.666","175.8","1021.428","18.06","63.04","NAN","0.0"],
    [1550576,"2026-04-16 08:30:00","3286","0.9059999999999999","179.5","1.274","178.4","1021.508","18.47","61.55","NAN","0.0"],
    [1550577,"2026-04-16 08:40:00","3287","0.8","161.3","1.47","113.3","1021.4830000000001","19.49","56.19","NAN","0.0"],
    [1550578,"2026-04-16 08:50:00","3288","1.2009999999999998","129.7","2.0580000000000003","110.1","1021.547","19.7","53.74","NAN","0.0"],
    [1550579,"2026-04-16 09:00:00","3289","1.284","127.8","1.993","120.7","1021.445","19.58","53.97","NAN","0.0"],
    [1550580,"2026-04-16 09:10:00","3290","1.506","134.3","2.254","122.7","1021.538","19.55","54.89","NAN","0.0"],
    [1550581,"2026-04-16 09:20:00","3291","1.4080000000000001","130.2","2.6460000000000004","107.6","1021.5930000000001","19.22","54.42","NAN","0.0"],
    [1550582,"2026-04-16 09:30:00","3292","1.5030000000000001","113.2","2.6460000000000004","114.9","1021.675","18.86","61.33","NAN","0.0"],
    [1550583,"2026-04-16 09:40:00","3293","1.821","117.8","3.005","120.9","1021.687","18.31","65.55","NAN","0.0"],
    [1550584,"2026-04-16 09:50:00","3294","1.776","123.9","2.907","114.1","1021.684","18.23","65.41","NAN","0.0"],
    [1550585,"2026-04-16 10:00:00","3295","1.639","131.8","2.6460000000000004","134.2","1021.709","18.14","65.06","NAN","0.0"],
    [1550586,"2026-04-16 10:10:00","3296","1.8330000000000002","126.8","3.005","117.3","1021.784","18.09","66.26","NAN","0.0"],
    [1550587,"2026-04-16 10:20:00","3297","2.069","116.2","3.234","106.1","1021.7189999999999","17.83","69.46","NAN","0.0"],
    [1550588,"2026-04-16 10:30:00","3298","1.62","147.2","3.267","185.4","1021.672","18","70.28","NAN","0.0"],
    [1550589,"2026-04-16 10:40:00","3299","2.305","186.7","3.365","181.4","1021.677","18.05","67.74","NAN","0.0"],
    [1550590,"2026-04-16 10:50:00","3300","2.141","178.1","3.201","174.1","1021.672","17.82","63.21","NAN","0.0"],
    [1550591,"2026-04-16 11:00:00","3301","2.365","179.9","3.299","167.2","1021.627","17.99","64.1","NAN","0.0"],
    [1550592,"2026-04-16 11:10:00","3302","2.177","173.7","3.593","174.7","1021.547","18.01","68.73","NAN","0.0"],
    [1550593,"2026-04-16 11:20:00","3303","2.7460000000000004","174.4","4.018","178.0","1021.435","18.16","67.23","NAN","0.0"],
    [1550594,"2026-04-16 11:30:00","3304","2.863","170.5","4.345","183.4","1021.403","17.94","70.09","NAN","0.0"],
    [1550595,"2026-04-16 11:40:00","3305","3.234","175.5","4.933","182.4","1021.289","17.68","73.43","NAN","0.0"],
    [1550596,"2026-04-16 11:50:00","3306","3.464","176.4","5.292000000000001","181.1","1021.196","17.53","77.72","NAN","0.0"],
    [1550597,"2026-04-16 12:00:00","3307","3.5180000000000002","175.6","5.7170000000000005","180.5","1021.0889999999999","17.54","79.41","NAN","0.0"],
    [1550598,"2026-04-16 12:10:00","3308","3.455","171.2","5.194","170.5","1020.9169999999999","17.99","74.1","NAN","0.0"],
    [1550599,"2026-04-16 12:20:00","3309","3.523","169.4","5.749","170.5","1020.828","18.5","71.34","NAN","0.0"],
    [1550600,"2026-04-16 12:30:00","3310","3.7739999999999996","171.6","5.553","166.7","1020.785","18.54","70.66","NAN","0.0"],
    [1550601,"2026-04-16 12:40:00","3311","3.908","170.7","5.88","172.8","1020.678","18.76","65.73","NAN","0.0"],
    [1550602,"2026-04-16 12:50:00","3312","3.373","181.8","5.227","172.5","1020.678","19.22","62.63","NAN","0.0"],
    [1550603,"2026-04-16 13:00:00","3313","2.675","188.6","4.638999999999999","175.0","1020.668","20","60.22","NAN","0.0"],
    [1550604,"2026-04-16 13:10:00","3314","3.71","172.5","6.011","178.4","1020.4939999999999","19.91","62.05","NAN","0.0"],
    [1550605,"2026-04-16 13:20:00","3315","3.8110000000000004","173.3","6.207000000000001","174.2","1020.357","19.36","65.79","NAN","0.0"],
    [1550606,"2026-04-16 13:30:00","3316","2.858","192.0","5.521","169.9","1020.2919999999999","20.35","57.12","NAN","0.0"],
    [1550607,"2026-04-16 13:40:00","3317","2.969","201.2","6.5329999999999995","210.1","1020.185","21","50.98","NAN","0.0"],
    [1550608,"2026-04-16 13:50:00","3318","2.988","204.7","6.305","230.8","1020.065","21.17","50.22","NAN","0.0"],
    [1550609,"2026-04-16 14:00:00","3319","3.2560000000000002","199.1","6.272","210.8","1019.8839999999999","20.91","49.7","NAN","0.0"],
    [1550610,"2026-04-16 14:10:00","3320","2.695","202.0","6.925","186.9","1019.7610000000001","21.18","48.9","NAN","0.0"],
    [1550611,"2026-04-16 14:20:00","3321","2.533","204.1","5.782","195.7","1019.682","21.49","45.38","NAN","0.0"],
    [1550612,"2026-04-16 14:30:00","3322","3.404","192.7","6.305","170.6","1019.6039999999999","21.01","47.26","NAN","0.0"],
    [1550613,"2026-04-16 14:40:00","3323","3.41","201.0","5.619","189.4","1019.448","20.81","45.89","NAN","0.0"],
    [1550614,"2026-04-16 14:50:00","3324","3.642","203.4","7.644","200.0","1019.3380000000001","20.86","45.57","NAN","0.0"],
    [1550615,"2026-04-16 15:00:00","3325","3.2039999999999997","203.4","5.4879999999999995","192.8","1019.2710000000001","20.97","46.42","NAN","0.0"],
    [1550616,"2026-04-16 15:10:00","3326","2.852","201.2","5.39","181.3","1019.194","20.87","46.89","NAN","0.0"],
    [1550617,"2026-04-16 15:20:00","3327","2.891","208.0","5.39","180.4","1019.1439999999999","21.3","44.82","NAN","0.0"],
    [1550618,"2026-04-16 15:30:00","3328","2.7710000000000004","213.7","6.435","210.1","1019.002","21.44","45.52","NAN","0.0"],
    [1550619,"2026-04-16 15:40:00","3329","3.008","214.0","6.37","236.1","1018.927","21.75","44.18","NAN","0.0"],
    [1550620,"2026-04-16 15:50:00","3330","3.201","221.9","6.109","229.0","1018.9119999999999","21.84","41.75","NAN","0.0"],
    [1550621,"2026-04-16 16:00:00","3331","4.095","226.1","8.17","236.2","1018.813","22.01","39.29","NAN","0.0"],
    [1550622,"2026-04-16 16:10:00","3332","3.195","224.4","8.26","230.4","1018.73","22.15","38.22","NAN","0.0"],
    [1550623,"2026-04-16 16:20:00","3333","3.6630000000000003","224.9","8.46","229.8","1018.7280000000001","22.23","37.49","NAN","0.0"],
    [1550624,"2026-04-16 16:30:00","3334","3.115","225.4","7.382999999999999","235.4","1018.698","22.32","37.03","NAN","0.0"],
    [1550625,"2026-04-16 16:40:00","3335","3.2489999999999997","216.8","6.893","203.9","1018.753","22.13","37.67","NAN","0.0"],
    [1550626,"2026-04-16 16:50:00","3336","4.078","227.8","8.23","208.8","1018.73","21.84","37.27","NAN","0.0"],
    [1550627,"2026-04-16 17:00:00","3337","3.682","222.2","7.415","211.4","1018.5930000000001","21.65","36.92","NAN","0.0"],
    [1550628,"2026-04-16 17:10:00","3338","3.364","221.5","8.17","226.4","1018.5939999999999","21.7","37.36","NAN","0.0"],
    [1550629,"2026-04-16 17:20:00","3339","3.062","222.1","7.905","227.9","1018.666","21.67","38.08","NAN","0.0"],
    [1550630,"2026-04-16 17:30:00","3340","3.378","220.2","6.795","232.7","1018.693","21.39","39.1","NAN","0.0"],
    [1550631,"2026-04-16 17:40:00","3341","3.1860000000000004","225.9","8.56","218.0","1018.686","21.23","39.01","NAN","0.0"],
    [1550632,"2026-04-16 17:50:00","3342","2.316","209.6","5.031000000000001","219.7","1018.8610000000001","21.01","40.18","NAN","0.0"],
    [1550633,"2026-04-16 18:00:00","3343","2.276","218.2","5.7170000000000005","191.6","1018.89","20.9","39.46","NAN","0.0"],
    [1550634,"2026-04-16 18:10:00","3344","2.294","191.1","4.737","206.3","1018.932","20.19","48.44","NAN","0.0"],
    [1550635,"2026-04-16 18:20:00","3345","1.903","193.1","3.234","172.8","1018.932","18.21","67.23","NAN","0.0"],
    [1550636,"2026-04-16 18:30:00","3346","1.661","201.4","3.365","210.3","1018.94","18.54","60.98","NAN","0.0"],
    [1550637,"2026-04-16 18:40:00","3347","1.774","213.3","4.018","203.9","1019.0360000000001","19.15","53.61","NAN","0.0"],
    [1550638,"2026-04-16 18:50:00","3348","1.9969999999999999","216.9","4.2139999999999995","221.2","1019.123","19.39","49.35","NAN","0.0"],
    [1550639,"2026-04-16 19:00:00","3349","1.5030000000000001","219.1","3.201","219.7","1019.2330000000001","19.16","50.86","NAN","0.0"],
    [1550640,"2026-04-16 19:10:00","3350","2.1180000000000003","220.8","3.822","227.9","1019.341","19.29","46.03","NAN","0.0"],
    [1550641,"2026-04-16 19:20:00","3351","1.716","217.3","3.234","223.1","1019.4580000000001","19.26","45.42","NAN","0.0"],
    [1550642,"2026-04-16 19:30:00","3352","1.3019999999999998","217.8","2.483","217.1","1019.622","19.23","44.95","NAN","0.0"],
    [1550643,"2026-04-16 19:40:00","3353","1.234","211.5","2.548","227.4","1019.7410000000001","19.06","45.5","NAN","0.0"],
    [1550644,"2026-04-16 19:50:00","3354","0.898","206.7","2.0909999999999997","215.1","1019.865","18.96","44.9","NAN","0.0"],
    [1550645,"2026-04-16 20:00:00","3355","0.565","166.7","0.915","170.1","1020.044","18.78","45.38","NAN","0.0"],
    [1550646,"2026-04-16 20:10:00","3356","0.607","198.7","1.176","195.1","1020.132","18.78","44.28","NAN","0.0"],
    [1550647,"2026-04-16 20:20:00","3357","0.75","191.5","1.5030000000000001","199.6","1020.2410000000001","18.8","43.97","NAN","0.0"],
    [1550648,"2026-04-16 20:30:00","3358","0.125","164.6","0.621","183.0","1020.306","18.57","45.41","NAN","0.0"],
    [1550649,"2026-04-16 20:40:00","3359","0.669","198.9","1.045","209.9","1020.3710000000001","18.43","46.03","NAN","0.0"],
    [1550650,"2026-04-16 20:50:00","3360","0.555","213.1","1.013","215.1","1020.3760000000001","18.17","48.93","NAN","0.0"],
    [1550651,"2026-04-16 21:00:00","3361","0.708","237.7","1.699","253.9","1020.383","18.44","45.22","NAN","0.0"],
    [1550652,"2026-04-16 21:10:00","3362","0.353","256.7","0.915","268.2","1020.3860000000001","18.82","43.29","NAN","0.0"],
    [1550653,"2026-04-16 21:20:00","3363","0.555","178.2","0.882","172.8","1020.378","18.25","46.35","NAN","0.0"],
    [1550654,"2026-04-16 21:30:00","3364","0.136","197.6","0.588","194.5","1020.3760000000001","17.95","46.59","NAN","0.0"],
    [1550655,"2026-04-16 21:40:00","3365","0.18899999999999997","183.5","0.8490000000000001","176.8","1020.3710000000001","17.8","46.63","NAN","0.0"],
    [1550656,"2026-04-16 21:50:00","3366","0.7979999999999999","190.0","1.143","189.5","1020.368","17.81","49.71","NAN","0.0"],
    [1550657,"2026-04-16 22:00:00","3367","0.7140000000000001","195.6","1.2409999999999999","196.6","1020.373","17.37","55.38","NAN","0.0"],
    [1550658,"2026-04-16 22:10:00","3368","0.175","183.1","0.555","174.9","1020.3760000000001","17.22","56","NAN","0.0"],
    [1550659,"2026-04-16 22:20:00","3369","0.7809999999999999","194.6","1.5030000000000001","202.6","1020.363","17.13","60.2","NAN","0.0"],
    [1550660,"2026-04-16 22:30:00","3370","0.5539999999999999","201.0","1.339","219.1","1020.336","17.18","58.03","NAN","0.0"],
    [1550661,"2026-04-16 22:40:00","3371","0.528","192.1","1.143","197.6","1020.3760000000001","17.14","59.02","NAN","0.0"],
    [1550662,"2026-04-16 22:50:00","3372","0.45","213.1","0.784","220.2","1020.3710000000001","17.01","61.25","NAN","0.0"],
    [1550663,"2026-04-16 23:00:00","3373","0.354","226.6","1.078","236.3","1020.2819999999999","17.03","61.05","NAN","0.0"],
    [1550664,"2026-04-16 23:10:00","3374","0.8320000000000001","247.3","1.666","212.6","1020.257","17.28","56.27","NAN","0.0"],
    [1550665,"2026-04-16 23:20:00","3375","0.8690000000000001","239.2","1.8619999999999999","220.5","1020.262","17.43","56.72","NAN","0.0"],
    [1550666,"2026-04-16 23:30:00","3376","1.1440000000000001","242.2","2.254","257.4","1020.245","17.32","56.09","NAN","0.0"],
    [1550667,"2026-04-16 23:40:00","3377","0.861","249.2","1.666","256.1","1020.2389999999999","17.23","55.58","NAN","0.0"],
    [1550668,"2026-04-16 23:50:00","3378","0.924","266.1","1.535","270.3","1020.171","17.19","56.41","NAN","0.0"],
    [1550669,"2026-04-17 00:00:00","3379","1.109","257.9","2.0580000000000003","258.9","1020.24","17.2","58.87","NAN","0.0"],
    [1550670,"2026-04-17 00:10:00","3380","0.6859999999999999","248.1","1.568","287.3","1020.207","17.1","61.21","NAN","0.0"],
    [1550671,"2026-04-17 00:20:00","3381","0.5710000000000001","206.2","0.9470000000000001","195.9","1020.169","16.68","64.34","NAN","0.0"],
    [1550672,"2026-04-17 00:30:00","3382","0.10300000000000001","183.7","0.8170000000000001","180.0","1020.087","16.23","66.18","NAN","0.0"],
    [1550673,"2026-04-17 00:40:00","3383","0.055999999999999994","159.9","0.523","165.8","1020.007","16.01","67.34","NAN","0.0"],
    [1550674,"2026-04-17 00:50:00","3384","0.087","297.1","0.8170000000000001","335.0","1019.9","16.11","67.73","NAN","0.0"],
    [1550675,"2026-04-17 01:00:00","3385","0.466","120.1","0.784","108.5","1019.8610000000001","16.13","69.45","NAN","0.0"],
    [1550676,"2026-04-17 01:10:00","3386","0.15","179.2","0.425","223.5","1019.7719999999999","15.93","70.34","NAN","0.0"],
    [1550677,"2026-04-17 01:20:00","3387","0.0","0.0","0.0","0.0","1019.779","15.91","71.83","NAN","0.0"],
    [1550678,"2026-04-17 01:30:00","3388","0.0","0.0","0.0","0.0","1019.7719999999999","15.8","73.65","NAN","0.0"],
    [1550679,"2026-04-17 01:40:00","3389","0.004","147.6","0.196","147.5","1019.7639999999999","15.74","75.93","NAN","0.0"],
    [1550680,"2026-04-17 01:50:00","3390","0.0","0.0","0.0","0.0","1019.6610000000001","15.59","78.7","NAN","0.0"],
    [1550681,"2026-04-17 02:00:00","3391","0.304","86.5","0.621","73.53","1019.6419999999999","15.44","80.3","NAN","0.0"],
    [1550682,"2026-04-17 02:10:00","3392","0.272","79.11","0.882","69.03","1019.625","15.36","71.63","NAN","0.0"],
    [1550683,"2026-04-17 02:20:00","3393","0.45299999999999996","76.47","1.176","92.2","1019.5419999999999","15.51","67.74","NAN","0.0"],
    [1550684,"2026-04-17 02:30:00","3394","0.322","89.6","0.8170000000000001","76.38","1019.545","15.51","64.77","NAN","0.0"],
    [1550685,"2026-04-17 02:40:00","3395","0.27399999999999997","103.9","0.9470000000000001","84.1","1019.5219999999999","15.5","61.65","NAN","0.0"],
    [1550686,"2026-04-17 02:50:00","3396","0.0","0.0","0.0","0.0","1019.425","15.4","60.34","NAN","0.0"],
    [1550687,"2026-04-17 03:00:00","3397","0.054000000000000006","105.0","0.425","102.8","1019.416","15.4","60.6","NAN","0.0"],
    [1550688,"2026-04-17 03:10:00","3398","0.0","0.0","0.0","0.0","1019.321","15.33","63.64","NAN","0.0"],
    [1550689,"2026-04-17 03:20:00","3399","0.32799999999999996","185.4","0.784","186.2","1019.302","15.22","67.66","NAN","0.0"],
    [1550690,"2026-04-17 03:30:00","3400","0.0","0.0","0.0","0.0","1019.313","14.98","68.44","NAN","0.0"],
    [1550691,"2026-04-17 03:40:00","3401","0.0","0.0","0.0","0.0","1019.3480000000001","14.78","67.57","NAN","0.0"],
    [1550692,"2026-04-17 03:50:00","3402","0.22899999999999998","201.2","0.653","194.5","1019.316","14.91","67.44","NAN","0.0"],
    [1550693,"2026-04-17 04:00:00","3403","0.664","197.2","0.784","194.5","1019.31","14.99","70.07","NAN","0.0"],
    [1550694,"2026-04-17 04:10:00","3404","0.596","191.6","0.8490000000000001","202.2","1019.318","14.97","71.97","NAN","0.0"],
    [1550695,"2026-04-17 04:20:00","3405","0.285","201.7","0.8170000000000001","200.9","1019.321","14.83","72.82","NAN","0.0"],
    [1550696,"2026-04-17 04:30:00","3406","0.0","0.0","0.0","0.0","1019.325","14.6","73.58","NAN","0.0"],
    [1550697,"2026-04-17 04:40:00","3407","0.23800000000000002","171.6","0.588","172.9","1019.323","14.54","73.05","NAN","0.0"],
    [1550698,"2026-04-17 04:50:00","3408","0.568","196.1","0.98","207.0","1019.32","14.65","70.83","NAN","0.0"],
    [1550699,"2026-04-17 05:00:00","3409","0.585","184.0","0.8490000000000001","187.7","1019.322","14.68","70.69","NAN","0.0"],
    [1550700,"2026-04-17 05:10:00","3410","0.496","215.8","1.993","253.2","1019.327","14.76","68.97","NAN","0.0"],
    [1550701,"2026-04-17 05:20:00","3411","1.015","251.3","2.5810000000000004","251.6","1019.32","15.1","60.02","NAN","0.0"],
    [1550702,"2026-04-17 05:30:00","3412","0.9990000000000001","248.4","2.319","254.7","1019.345","15.19","58.97","NAN","0.0"],
    [1550703,"2026-04-17 05:40:00","3413","0.7859999999999999","263.5","1.7309999999999999","256.9","1019.44","15.16","59.14","NAN","0.0"],
    [1550704,"2026-04-17 05:50:00","3414","0.938","275.0","2.352","279.1","1019.459","15.31","59.06","NAN","0.0"],
    [1550705,"2026-04-17 06:00:00","3415","0.7759999999999999","262.7","1.7309999999999999","269.4","1019.566","15.43","59.14","NAN","0.0"],
    [1550706,"2026-04-17 06:10:00","3416","1.008","270.9","2.254","296.5","1019.6210000000001","15.53","58.76","NAN","0.0"],
    [1550707,"2026-04-17 06:20:00","3417","0.8079999999999999","271.6","2.123","293.6","1019.65","15.73","57.96","NAN","0.0"],
    [1550708,"2026-04-17 06:30:00","3418","1.315","272.3","2.5810000000000004","292.6","1019.702","15.89","57.41","NAN","0.0"],
    [1550709,"2026-04-17 06:40:00","3419","1.013","256.0","1.7309999999999999","247.4","1019.737","16.26","56.34","NAN","0.0"],
    [1550710,"2026-04-17 06:50:00","3420","0.526","220.4","1.2409999999999999","258.7","1019.705","16.81","55.12","NAN","0.0"],
    [1550711,"2026-04-17 07:00:00","3421","0.614","197.2","1.209","244.1","1019.682","17.22","54.41","NAN","0.0"],
    [1550712,"2026-04-17 07:10:00","3422","0.9279999999999999","125.7","1.405","113.3","1019.682","17.32","55.86","NAN","0.0"],
    [1550713,"2026-04-17 07:20:00","3423","1.015","126.9","1.633","125.9","1019.7489999999999","16.76","60.07","NAN","0.0"],
    [1550714,"2026-04-17 07:30:00","3424","1.057","125.7","1.535","127.9","1019.802","16.94","59.05","NAN","0.0"],
    [1550715,"2026-04-17 07:40:00","3425","1.083","168.0","1.633","169.9","1019.857","16.9","58.36","NAN","0.0"],
    [1550716,"2026-04-17 07:50:00","3426","0.907","129.6","1.535","112.8","1019.916","17.18","58.33","NAN","0.0"],
    [1550717,"2026-04-17 08:00:00","3427","0.715","161.4","1.2409999999999999","166.9","1019.931","17.72","56.99","NAN","0.0"],
    [1550718,"2026-04-17 08:10:00","3428","0.65","136.3","1.111","125.1","1019.931","18.45","54.94","NAN","0.0"],
    [1550719,"2026-04-17 08:20:00","3429","0.9690000000000001","150.2","1.7309999999999999","108.2","1019.9839999999999","18.68","52.08","NAN","0.0"],
    [1550720,"2026-04-17 08:30:00","3430","0.871","80.9","1.4369999999999998","144.9","1020.1080000000001","19.23","52.07","NAN","0.0"],
    [1550721,"2026-04-17 08:40:00","3431","0.991","112.3","2.189","114.6","1020.178","19.65","49.9","NAN","0.0"],
    [1550722,"2026-04-17 08:50:00","3432","1.607","105.2","2.613","94.9","1020.18","19.54","48.05","NAN","0.0"],
    [1550723,"2026-04-17 09:00:00","3433","1.476","116.5","2.45","113.6","1020.18","19.37","47.29","NAN","0.0"],
    [1550724,"2026-04-17 09:10:00","3434","1.6340000000000001","105.3","2.875","98.2","1020.243","19.49","49.39","NAN","0.0"],
    [1550725,"2026-04-17 09:20:00","3435","1.969","105.7","3.103","107.8","1020.32","18.95","56.76","NAN","0.0"],
    [1550726,"2026-04-17 09:30:00","3436","1.4409999999999998","111.0","2.319","97.1","1020.3919999999999","18.99","58.42","NAN","0.0"],
    [1550727,"2026-04-17 09:40:00","3437","1.212","131.2","1.993","143.0","1020.4019999999999","19.21","56.72","NAN","0.0"],
    [1550728,"2026-04-17 09:50:00","3438","1.298","166.0","2.417","186.5","1020.4169999999999","19.75","55.93","NAN","0.0"],
    [1550729,"2026-04-17 10:00:00","3439","1.673","193.0","2.515","179.4","1020.327","19.63","61.19","NAN","0.0"],
    [1550730,"2026-04-17 10:10:00","3440","1.1909999999999998","192.2","2.221","178.1","1020.28","19.93","59.38","NAN","0.0"],
    [1550731,"2026-04-17 10:20:00","3441","1.607","180.6","2.417","196.5","1020.252","20.12","58.84","NAN","0.0"],
    [1550732,"2026-04-17 10:30:00","3442","1.818","171.3","2.613","177.3","1020.297","19.96","61.47","NAN","0.0"],
    [1550733,"2026-04-17 10:40:00","3443","1.4380000000000002","154.0","2.287","183.7","1020.2669999999999","20.32","56.06","NAN","0.0"],
    [1550734,"2026-04-17 10:50:00","3444","1.6380000000000001","156.5","3.0380000000000003","122.6","1020.183","20.88","49.24","NAN","0.0"],
    [1550735,"2026-04-17 11:00:00","3445","1.814","111.2","4.1160000000000005","122.8","1020.18","21.11","42.17","NAN","0.0"],
    [1550736,"2026-04-17 11:10:00","3446","1.925","109.1","3.659","118.0","1020.18","21.31","40.65","NAN","0.0"],
    [1550737,"2026-04-17 11:20:00","3447","1.661","128.9","3.593","118.5","1020.18","21.11","45.58","NAN","0.0"],
    [1550738,"2026-04-17 11:30:00","3448","1.639","149.6","3.1689999999999996","173.3","1020.118","20.84","51.23","NAN","0.0"],
    [1550739,"2026-04-17 11:40:00","3449","2.085","169.5","3.136","169.4","1020.053","19.87","61.26","NAN","0.0"],
    [1550740,"2026-04-17 11:50:00","3450","2.0340000000000003","170.0","3.1689999999999996","164.9","1019.9630000000001","19.78","61.52","NAN","0.0"],
    [1550741,"2026-04-17 12:00:00","3451","1.659","166.0","2.6460000000000004","172.3","1019.8710000000001","20.17","59.2","NAN","0.0"],
    [1550742,"2026-04-17 12:10:00","3452","1.954","166.6","2.7769999999999997","167.1","1019.7539999999999","19.92","59.42","NAN","0.0"],
    [1550743,"2026-04-17 12:20:00","3453","2.115","172.8","3.005","177.0","1019.689","19.8","59.85","NAN","0.0"],
    [1550744,"2026-04-17 12:30:00","3454","2.246","179.2","3.5610000000000004","118.4","1019.682","19.86","58.68","NAN","0.0"],
    [1550745,"2026-04-17 12:40:00","3455","2.497","110.6","4.671","109.7","1019.682","19.29","69.5","NAN","0.0"],
    [1550746,"2026-04-17 12:50:00","3456","2.424","108.7","4.377","102.2","1019.68","18.52","74.28","NAN","0.0"],
    [1550747,"2026-04-17 13:00:00","3457","2.688","118.6","4.018","111.7","1019.655","18.29","76.64","NAN","0.0"],
    [1550748,"2026-04-17 13:10:00","3458","1.891","125.7","3.659","118.2","1019.57","18.45","77.18","NAN","0.0"],
    [1550749,"2026-04-17 13:20:00","3459","2.23","125.2","3.887","128.5","1019.505","18.5","77.01","NAN","0.0"],
    [1550750,"2026-04-17 13:30:00","3460","1.939","131.8","3.234","104.4","1019.433","18.65","75.13","NAN","0.0"],
    [1550751,"2026-04-17 13:40:00","3461","1.905","127.1","3.136","122.7","1019.3910000000001","18.76","75.72","NAN","0.0"],
    [1550752,"2026-04-17 13:50:00","3462","2.195","171.4","3.593","179.7","1019.308","18.58","72.88","NAN","0.0"],
    [1550753,"2026-04-17 14:00:00","3463","1.944","167.2","3.071","166.7","1019.189","18.85","71.02","NAN","0.0"],
    [1550754,"2026-04-17 14:10:00","3464","1.9240000000000002","163.6","3.267","169.1","1019.184","19.22","68.46","NAN","0.0"],
    [1550755,"2026-04-17 14:20:00","3465","2.528","181.1","3.528","185.8","1019.0939999999999","18.89","66.14","NAN","0.0"],
    [1550756,"2026-04-17 14:30:00","3466","2.49","186.8","3.985","182.2","1018.954","18.64","71.56","NAN","0.0"],
    [1550757,"2026-04-17 14:40:00","3467","1.901","166.0","3.332","178.6","1018.922","18.99","71.16","NAN","0.0"],
    [1550758,"2026-04-17 14:50:00","3468","2.3480000000000003","181.6","3.855","179.7","1018.815","18.9","69.38","NAN","0.0"],
    [1550759,"2026-04-17 15:00:00","3469","2.432","175.6","3.6910000000000003","184.9","1018.696","18.59","68.14","NAN","0.0"],
    [1550760,"2026-04-17 15:10:00","3470","2.77","176.8","4.149","181.9","1018.686","18.57","66.66","NAN","0.0"],
    [1550761,"2026-04-17 15:20:00","3471","2.661","181.0","4.181","187.8","1018.686","18.44","68.52","NAN","0.0"],
    [1550762,"2026-04-17 15:30:00","3472","2.675","184.2","4.181","172.1","1018.686","18.42","69.49","NAN","0.0"],
    [1550763,"2026-04-17 15:40:00","3473","2.6630000000000003","176.1","4.181","171.5","1018.686","18.37","70.43","NAN","0.0"],
    [1550764,"2026-04-17 15:50:00","3474","2.8169999999999997","173.1","4.377","182.9","1018.686","18.26","72.64","NAN","0.0"],
    [1550765,"2026-04-17 16:00:00","3475","2.9139999999999997","174.3","4.671","175.0","1018.683","18.22","74.43","NAN","0.0"],
    [1550766,"2026-04-17 16:10:00","3476","3.2060000000000004","173.3","4.541","183.3","1018.693","18.21","73.72","NAN","0.0"],
    [1550767,"2026-04-17 16:20:00","3477","3.167","172.2","4.933","178.7","1018.7260000000001","18.1","74","NAN","0.0"],
    [1550768,"2026-04-17 16:30:00","3478","2.6830000000000003","174.8","4.638999999999999","182.4","1018.803","18.43","72.52","NAN","0.0"],
    [1550769,"2026-04-17 16:40:00","3479","2.883","172.8","4.41","179.8","1018.755","18.34","73.63","NAN","0.0"],
    [1550770,"2026-04-17 16:50:00","3480","2.26","180.8","3.299","178.8","1018.686","18.56","72.5","NAN","0.0"],
    [1550771,"2026-04-17 17:00:00","3481","2.358","175.9","4.2139999999999995","172.9","1018.686","18.66","69.07","NAN","0.0"],
    [1550772,"2026-04-17 17:10:00","3482","2.14","178.3","3.7239999999999998","176.3","1018.698","18.83","67.65","NAN","0.0"],
    [1550773,"2026-04-17 17:20:00","3483","2.266","180.7","3.985","169.0","1018.7410000000001","18.61","67.41","NAN","0.0"],
    [1550774,"2026-04-17 17:30:00","3484","2.332","170.0","3.267","168.3","1018.811","18.7","69.58","NAN","0.0"],
    [1550775,"2026-04-17 17:40:00","3485","2.414","168.3","3.299","163.1","1018.808","18.28","75.55","NAN","0.0"],
    [1550776,"2026-04-17 17:50:00","3486","2.612","170.2","3.9530000000000003","172.4","1018.795","17.95","77.24","NAN","0.0"],
    [1550777,"2026-04-17 18:00:00","3487","2.2030000000000003","179.6","3.7889999999999997","177.0","1018.755","18.04","73.71","NAN","0.0"],
    [1550778,"2026-04-17 18:10:00","3488","1.597","200.2","3.43","192.6","1018.9760000000001","18.28","70.49","NAN","0.0"],
    [1550779,"2026-04-17 18:20:00","3489","1.9280000000000002","204.0","3.1689999999999996","203.2","1019.057","18.41","65.49","NAN","0.0"],
    [1550780,"2026-04-17 18:30:00","3490","1.88","207.6","3.299","207.9","1019.196","18.36","65.4","NAN","0.0"],
    [1550781,"2026-04-17 18:40:00","3491","1.8619999999999999","209.2","3.365","207.0","1019.2510000000001","18.29","65.94","NAN","0.0"],
    [1550782,"2026-04-17 18:50:00","3492","1.591","206.4","2.7110000000000003","195.3","1019.2860000000001","18.15","67.81","NAN","0.0"],
    [1550783,"2026-04-17 19:00:00","3493","1.546","202.4","3.136","209.2","1019.352","18.03","68.96","NAN","0.0"],
    [1550784,"2026-04-17 19:10:00","3494","1.66","207.8","3.071","199.0","1019.3919999999999","17.92","68.86","NAN","0.0"],
    [1550785,"2026-04-17 19:20:00","3495","1.514","199.7","2.7110000000000003","201.3","1019.5160000000001","17.78","69.96","NAN","0.0"],
    [1550786,"2026-04-17 19:30:00","3496","1.604","192.8","2.842","205.7","1019.5139999999999","17.66","72.07","NAN","0.0"],
    [1550787,"2026-04-17 19:40:00","3497","1.327","195.9","2.189","180.1","1019.5189999999999","17.59","73.65","NAN","0.0"],
    [1550788,"2026-04-17 19:50:00","3498","1.5019999999999998","201.9","2.9730000000000003","194.2","1019.576","17.58","74.25","NAN","0.0"],
    [1550789,"2026-04-17 20:00:00","3499","1.443","207.2","2.842","209.6","1019.633","17.57","74.16","NAN","0.0"],
    [1550790,"2026-04-17 20:10:00","3500","1.2209999999999999","201.9","2.189","200.6","1019.6489999999999","17.57","75","NAN","0.0"],
    [1550791,"2026-04-17 20:20:00","3501","1.16","204.8","2.385","200.8","1019.783","17.53","75.34","NAN","0.0"],
    [1550792,"2026-04-17 20:30:00","3502","1.237","203.8","2.189","201.4","1019.893","17.49","76.2","NAN","0.0"],
    [1550793,"2026-04-17 20:40:00","3503","1.23","210.8","2.483","224.1","1019.99","17.52","74.72","NAN","0.0"],
    [1550794,"2026-04-17 20:50:00","3504","1.51","212.8","2.613","219.6","1020.0039999999999","17.48","74.74","NAN","0.0"],
    [1550795,"2026-04-17 21:00:00","3505","0.9209999999999999","211.4","1.993","202.2","1020.012","17.41","76.4","NAN","0.0"],
    [1550796,"2026-04-17 21:10:00","3506","0.887","220.4","2.189","256.5","1019.985","17.21","77.89","NAN","0.0"],
    [1550797,"2026-04-17 21:20:00","3507","1.107","208.1","2.515","225.8","1019.926","17.3","78.01","NAN","0.0"],
    [1550798,"2026-04-17 21:30:00","3508","0.8079999999999999","211.8","2.0909999999999997","213.8","1019.995","17.18","79.92","NAN","0.0"],
    [1550799,"2026-04-17 21:40:00","3509","0.982","202.6","1.601","210.8","1019.9989999999999","16.97","83.9","NAN","0.0"],
    [1550800,"2026-04-17 21:50:00","3510","0.866","214.9","2.221","200.5","1019.885","17.02","83.6","NAN","0.0"],
    [1550801,"2026-04-17 22:00:00","3511","1.195","230.0","2.7110000000000003","223.4","1019.8860000000001","17.05","83.1","NAN","0.0"],
    [1550802,"2026-04-17 22:10:00","3512","0.799","227.8","2.45","260.7","1019.8839999999999","17.22","81.4","NAN","0.0"],
    [1550803,"2026-04-17 22:20:00","3513","1.115","233.1","2.319","253.6","1019.9060000000001","17.17","81.4","NAN","0.0"],
    [1550804,"2026-04-17 22:30:00","3514","1.29","240.2","2.7769999999999997","253.4","1019.828","17.11","81","NAN","0.0"],
    [1550805,"2026-04-17 22:40:00","3515","1.1840000000000002","230.9","2.548","223.1","1019.7560000000001","17.14","80.1","NAN","0.0"],
    [1550806,"2026-04-17 22:50:00","3516","1.429","236.7","2.907","231.3","1019.7339999999999","17.07","79.42","NAN","0.0"],
    [1550807,"2026-04-17 23:00:00","3517","1.507","240.5","3.136","232.4","1019.716","17.05","77.14","NAN","0.0"],
    [1550808,"2026-04-17 23:10:00","3518","1.433","241.5","2.417","236.7","1019.757","17.08","76.46","NAN","0.0"],
    [1550809,"2026-04-17 23:20:00","3519","1.0","245.8","2.5810000000000004","261.0","1019.7639999999999","17.12","75.8","NAN","0.0"],
    [1550810,"2026-04-17 23:30:00","3520","1.396","238.7","3.0380000000000003","231.5","1019.707","17.01","75.31","NAN","0.0"],
    [1550811,"2026-04-17 23:40:00","3521","1.81","238.0","3.0869999999999997","233.8","1019.6389999999999","16.93","74.64","NAN","0.0"],
    [1550812,"2026-04-17 23:50:00","3522","1.47","239.0","2.548","243.8","1019.595","16.83","73.56","NAN","0.0"],
    [1550813,"2026-04-18 00:00:00","3523","1.3230000000000002","238.4","2.515","237.0","1019.52","16.74","72.99","NAN","0.0"],
    [1550814,"2026-04-18 00:10:00","3524","1.128","257.3","2.515","263.9","1019.44","16.7","72.09","NAN","0.0"],
    [1550815,"2026-04-18 00:20:00","3525","1.129","251.4","2.0909999999999997","233.6","1019.327","16.69","71.06","NAN","0.0"],
    [1550816,"2026-04-18 00:30:00","3526","0.831","266.7","1.764","299.3","1019.2589999999999","16.74","70.75","NAN","0.0"],
    [1550817,"2026-04-18 00:40:00","3527","0.946","239.4","1.7309999999999999","214.3","1019.159","16.74","70.71","NAN","0.0"],
    [1550818,"2026-04-18 00:50:00","3528","0.895","250.5","1.96","262.8","1019.018","16.69","70.57","NAN","0.0"],
    [1550819,"2026-04-18 01:00:00","3529","1.082","236.1","2.025","266.9","1018.9069999999999","16.81","69.33","NAN","0.0"],
    [1550820,"2026-04-18 01:10:00","3530","0.7659999999999999","247.5","1.96","234.3","1018.773","16.81","69.54","NAN","0.0"],
    [1550821,"2026-04-18 01:20:00","3531","0.40399999999999997","189.7","0.8490000000000001","189.2","1018.768","16.7","70.54","NAN","0.0"],
    [1550822,"2026-04-18 01:30:00","3532","0.039","106.6","0.327","106.9","1018.716","16.43","71.37","NAN","0.0"],
    [1550823,"2026-04-18 01:40:00","3533","0.287","137.1","0.7509999999999999","234.1","1018.655","16.36","71.57","NAN","0.0"],
    [1550824,"2026-04-18 01:50:00","3534","0.644","92.7","1.699","63.96","1018.665","16.38","72.72","NAN","0.0"],
    [1550825,"2026-04-18 02:00:00","3535","0.44299999999999995","37.21","1.2409999999999999","33.45","1018.6489999999999","16.38","73.8","NAN","0.0"],
    [1550826,"2026-04-18 02:10:00","3536","0.233","81.1","0.9470000000000001","78.95","1018.6569999999999","16.27","74.25","NAN","0.0"],
    [1550827,"2026-04-18 02:20:00","3537","0.275","89.8","0.588","81.4","1018.6519999999999","16.12","74.66","NAN","0.0"],
    [1550828,"2026-04-18 02:30:00","3538","0.142","114.3","0.425","147.1","1018.607","16.07","75.44","NAN","0.0"],
    [1550829,"2026-04-18 02:40:00","3539","0.0","0.0","0.0","0.0","1018.567","15.91","76.5","NAN","0.0"],
    [1550830,"2026-04-18 02:50:00","3540","0.0","0.0","0.0","0.0","1018.571","15.89","77.36","NAN","0.0"],
    [1550831,"2026-04-18 03:00:00","3541","0.0","0.0","0.0","0.0","1018.472","15.82","78.69","NAN","0.0"],
    [1550832,"2026-04-18 03:10:00","3542","0.135","171.0","0.523","184.1","1018.419","15.75","80.5","NAN","0.0"],
    [1550833,"2026-04-18 03:20:00","3543","0.11","185.2","0.392","168.8","1018.4169999999999","15.64","80.9","NAN","0.0"],
    [1550834,"2026-04-18 03:30:00","3544","0.005","192.7","0.22899999999999998","192.7","1018.4","15.6","81.4","NAN","0.0"],
    [1550835,"2026-04-18 03:40:00","3545","0.049","174.6","0.327","174.5","1018.304","15.59","81.8","NAN","0.0"],
    [1550836,"2026-04-18 03:50:00","3546","0.0","0.0","0.0","0.0","1018.314","15.48","81.7","NAN","0.0"],
    [1550837,"2026-04-18 04:00:00","3547","0.0","0.0","0.0","0.0","1018.312","15.47","81.6","NAN","0.0"],
    [1550838,"2026-04-18 04:10:00","3548","0.02","191.4","0.261","191.4","1018.31","15.41","80.8","NAN","0.0"],
    [1550839,"2026-04-18 04:20:00","3549","0.13699999999999998","189.8","0.49","170.1","1018.313","15.51","82.4","NAN","0.0"],
    [1550840,"2026-04-18 04:30:00","3550","0.001","211.2","0.196","211.1","1018.313","15.35","83.6","NAN","0.0"],
    [1550841,"2026-04-18 04:40:00","3551","0.036000000000000004","70.41","0.392","62.23","1018.325","15.26","82.6","NAN","0.0"],
    [1550842,"2026-04-18 04:50:00","3552","0.0","0.0","0.0","0.0","1018.431","15.3","81.9","NAN","0.0"],
    [1550843,"2026-04-18 05:00:00","3553","0.0","0.0","0.0","0.0","1018.558","15.39","82.1","NAN","0.0"],
    [1550844,"2026-04-18 05:10:00","3554","0.0","0.0","0.0","0.0","1018.645","15.36","84.1","NAN","0.0"],
    [1550845,"2026-04-18 05:20:00","3555","0.0","0.0","0.0","0.0","1018.757","15.24","82.4","NAN","0.0"],
    [1550846,"2026-04-18 05:30:00","3556","0.061","189.1","0.621","186.7","1018.81","15.35","79.86","NAN","0.0"],
    [1550847,"2026-04-18 05:40:00","3557","0.287","192.4","0.6859999999999999","203.5","1018.823","15.58","79.19","NAN","0.0"],
    [1550848,"2026-04-18 05:50:00","3558","0.08199999999999999","210.0","0.555","274.3","1018.836","15.85","75.54","NAN","0.0"],
    [1550849,"2026-04-18 06:00:00","3559","0.342","113.6","1.045","270.7","1018.935","16.44","73.27","NAN","0.0"],
    [1550850,"2026-04-18 06:10:00","3560","0.467","278.0","1.111","295.2","1018.936","17.1","69.63","NAN","0.0"],
    [1550851,"2026-04-18 06:20:00","3561","0.27","185.2","1.078","217.6","1019.0169999999999","17.93","65.38","NAN","0.0"],
    [1550852,"2026-04-18 06:30:00","3562","0.092","126.3","0.425","108.8","1019.04","18.32","63.63","NAN","0.0"],
    [1550853,"2026-04-18 06:40:00","3563","0.261","108.4","0.915","112.4","1019.069","18.88","61.74","NAN","0.0"],
    [1550854,"2026-04-18 06:50:00","3564","0.364","113.9","0.7190000000000001","106.6","1019.1619999999999","19.23","59.79","NAN","0.0"],
    [1550855,"2026-04-18 07:00:00","3565","0.46399999999999997","130.7","1.013","104.9","1019.186","19.29","59.62","NAN","0.0"],
    [1550856,"2026-04-18 07:10:00","3566","0.86","185.6","1.601","188.0","1019.304","18.92","62.9","NAN","0.0"],
    [1550857,"2026-04-18 07:20:00","3567","0.843","132.5","1.5030000000000001","115.9","1019.433","18.23","62.94","NAN","0.0"],
    [1550858,"2026-04-18 07:30:00","3568","1.012","127.1","1.601","118.0","1019.557","18.4","60.3","NAN","0.0"],
    [1550859,"2026-04-18 07:40:00","3569","0.843","137.8","1.535","174.4","1019.6519999999999","18.61","59.32","NAN","0.0"],
    [1550860,"2026-04-18 07:50:00","3570","0.914","181.5","1.5030000000000001","170.8","1019.682","18.75","58.92","NAN","0.0"],
    [1550861,"2026-04-18 08:00:00","3571","1.055","184.5","1.535","181.6","1019.682","19","57.91","NAN","0.0"],
    [1550862,"2026-04-18 08:10:00","3572","0.985","195.2","1.8619999999999999","210.0","1019.7819999999999","19.39","58.53","NAN","0.0"],
    [1550863,"2026-04-18 08:20:00","3573","1.238","196.3","2.319","178.7","1019.8939999999999","19.19","57.48","NAN","0.0"],
    [1550864,"2026-04-18 08:30:00","3574","1.5319999999999998","187.4","2.515","186.9","1019.946","18.82","57.71","NAN","0.0"],
    [1550865,"2026-04-18 08:40:00","3575","1.57","119.8","2.483","108.2","1020.038","18.78","58.73","NAN","0.0"],
    [1550866,"2026-04-18 08:50:00","3576","1.143","110.8","1.993","113.2","1020.003","18.99","58.9","NAN","0.0"],
    [1550867,"2026-04-18 09:00:00","3577","0.685","141.5","1.405","120.1","1020.048","19.95","56.08","NAN","0.0"],
    [1550868,"2026-04-18 09:10:00","3578","0.8370000000000001","153.3","1.47","109.9","1020.056","20.1","55.06","NAN","0.0"],
    [1550869,"2026-04-18 09:20:00","3579","1.204","134.2","2.483","106.9","1020.051","19.94","56.56","NAN","0.0"],
    [1550870,"2026-04-18 09:30:00","3580","1.399","122.6","2.156","113.8","1020.058","19.45","59.99","NAN","0.0"],
    [1550871,"2026-04-18 09:40:00","3581","1.215","129.4","1.993","130.3","1020.056","19.32","60.46","NAN","0.0"],
    [1550872,"2026-04-18 09:50:00","3582","1.295","119.7","2.123","109.4","1020.058","19.86","57.86","NAN","0.0"],
    [1550873,"2026-04-18 10:00:00","3583","1.226","168.7","1.895","161.7","1020.063","20.28","57.69","NAN","0.0"],
    [1550874,"2026-04-18 10:10:00","3584","1.3659999999999999","168.6","1.993","172.2","1020.16","20.4","59.57","NAN","0.0"],
    [1550875,"2026-04-18 10:20:00","3585","1.5430000000000001","180.0","2.156","183.5","1020.168","20.42","59.96","NAN","0.0"],
    [1550876,"2026-04-18 10:30:00","3586","1.5859999999999999","182.5","2.0909999999999997","175.0","1020.17","20.09","59.85","NAN","0.0"],
    [1550877,"2026-04-18 10:40:00","3587","1.6219999999999999","179.8","2.385","188.2","1020.175","20.38","58.36","NAN","0.0"],
    [1550878,"2026-04-18 10:50:00","3588","1.7","182.8","2.385","183.2","1020.0930000000001","20.56","58.53","NAN","0.0"],
    [1550879,"2026-04-18 11:00:00","3589","1.9340000000000002","186.1","2.548","183.9","1020.046","20.41","58.89","NAN","0.0"],
    [1550880,"2026-04-18 11:10:00","3590","1.729","184.6","2.548","186.8","1020.043","20.54","58.43","NAN","0.0"],
    [1550881,"2026-04-18 11:20:00","3591","1.943","187.2","2.907","178.7","1019.961","20.84","55.79","NAN","0.0"],
    [1550882,"2026-04-18 11:30:00","3592","2.029","186.0","2.94","184.0","1019.931","20.9","54.76","NAN","0.0"],
    [1550883,"2026-04-18 11:40:00","3593","2.4090000000000003","183.4","3.299","182.5","1019.9060000000001","20.2","58.67","NAN","0.0"],
    [1550884,"2026-04-18 11:50:00","3594","1.86","173.9","3.0380000000000003","175.5","1019.926","20.31","57.11","NAN","0.0"],
    [1550885,"2026-04-18 12:00:00","3595","1.7309999999999999","175.1","2.5810000000000004","174.1","1019.8860000000001","20.62","56.57","NAN","0.0"],
    [1550886,"2026-04-18 12:10:00","3596","1.729","171.1","2.907","150.8","1019.7560000000001","20.88","56.74","NAN","0.0"],
    [1550887,"2026-04-18 12:20:00","3597","1.8880000000000001","169.0","2.679","156.7","1019.727","20.56","59.03","NAN","0.0"],
    [1550888,"2026-04-18 12:30:00","3598","1.736","167.3","2.548","173.7","1019.685","20.64","61.55","NAN","0.0"],
    [1550889,"2026-04-18 12:40:00","3599","1.485","168.4","2.319","164.5","1019.682","20.88","59.65","NAN","0.0"],
    [1550890,"2026-04-18 12:50:00","3600","1.6540000000000001","164.3","2.548","164.4","1019.682","21.09","55.4","NAN","0.0"],
    [1550891,"2026-04-18 13:00:00","3601","1.824","172.4","2.8089999999999997","188.6","1019.68","21.07","57.4","NAN","0.0"],
    [1550892,"2026-04-18 13:10:00","3602","1.989","170.2","2.94","176.0","1019.6439999999999","21.19","49.8","NAN","0.0"],
    [1550893,"2026-04-18 13:20:00","3603","1.94","169.8","2.8089999999999997","165.9","1019.56","21.63","49.35","NAN","0.0"],
    [1550894,"2026-04-18 13:30:00","3604","2.05","171.6","2.875","171.8","1019.445","21.39","52","NAN","0.0"],
    [1550895,"2026-04-18 13:40:00","3605","2.142","171.4","2.842","165.0","1019.4","20.6","63.55","NAN","0.0"],
    [1550896,"2026-04-18 13:50:00","3606","2.193","165.4","3.103","169.3","1019.311","20.19","66.29","NAN","0.0"],
    [1550897,"2026-04-18 14:00:00","3607","2.287","162.8","3.7569999999999997","167.4","1019.209","19.62","71.06","NAN","0.0"],
    [1550898,"2026-04-18 14:10:00","3608","2.526","160.3","3.7239999999999998","163.1","1019.1510000000001","19.53","71.98","NAN","0.0"],
    [1550899,"2026-04-18 14:20:00","3609","2.165","162.3","3.332","164.4","1019.012","19.41","75.43","NAN","0.0"],
    [1550900,"2026-04-18 14:30:00","3610","1.605","168.5","2.7110000000000003","178.5","1018.935","19.18","80.7","NAN","0.0"],
    [1550901,"2026-04-18 14:40:00","3611","1.8780000000000001","169.1","2.842","176.1","1018.87","19.05","81.8","NAN","0.0"],
    [1550902,"2026-04-18 14:50:00","3612","2.0540000000000003","170.5","3.136","183.0","1018.778","19.21","80.8","NAN","0.0"],
    [1550903,"2026-04-18 15:00:00","3613","2.6060000000000003","176.3","4.083","179.2","1018.686","19.03","79.95","NAN","0.0"],
    [1550904,"2026-04-18 15:10:00","3614","2.456","172.8","3.659","186.1","1018.686","19.2","76.45","NAN","0.0"],
    [1550905,"2026-04-18 15:20:00","3615","2.448","171.4","3.397","175.8","1018.643","19.68","71.57","NAN","0.0"],
    [1550906,"2026-04-18 15:30:00","3616","2.1430000000000002","175.0","3.103","177.2","1018.638","19.86","68.93","NAN","0.0"],
    [1550907,"2026-04-18 15:40:00","3617","1.851","186.7","3.332","178.8","1018.574","20.34","61.35","NAN","0.0"],
    [1550908,"2026-04-18 15:50:00","3618","2.167","201.6","4.083","205.0","1018.571","21.12","52.18","NAN","0.0"],
    [1550909,"2026-04-18 16:00:00","3619","2.084","194.8","3.463","191.2","1018.569","21.32","49.63","NAN","0.0"],
    [1550910,"2026-04-18 16:10:00","3620","1.742","197.9","3.136","198.0","1018.551","21.35","48.94","NAN","0.0"],
    [1550911,"2026-04-18 16:20:00","3621","1.7519999999999998","199.1","3.7239999999999998","192.5","1018.546","21.33","48.53","NAN","0.0"],
    [1550912,"2026-04-18 16:30:00","3622","1.949","194.9","3.234","172.5","1018.5310000000001","21.28","49.68","NAN","0.0"],
    [1550913,"2026-04-18 16:40:00","3623","1.757","194.5","3.1689999999999996","194.5","1018.541","21.38","47.68","NAN","0.0"],
    [1550914,"2026-04-18 16:50:00","3624","1.867","197.7","3.267","188.4","1018.534","21.75","46.52","NAN","0.0"],
    [1550915,"2026-04-18 17:00:00","3625","2.083","181.8","3.267","174.4","1018.444","21.56","47.2","NAN","0.0"],
    [1550916,"2026-04-18 17:10:00","3626","1.9569999999999999","183.7","3.659","177.0","1018.432","21.41","46.73","NAN","0.0"],
    [1550917,"2026-04-18 17:20:00","3627","1.733","192.0","3.299","202.5","1018.3839999999999","21.58","45.62","NAN","0.0"],
    [1550918,"2026-04-18 17:30:00","3628","2.162","193.7","3.985","183.9","1018.32","21.47","45.38","NAN","0.0"],
    [1550919,"2026-04-18 17:40:00","3629","2.043","198.2","3.855","201.1","1018.312","21.31","44.75","NAN","0.0"],
    [1550920,"2026-04-18 17:50:00","3630","1.723","199.7","3.365","210.0","1018.26","21.13","44.64","NAN","0.0"],
    [1550921,"2026-04-18 18:00:00","3631","1.651","193.2","2.9730000000000003","194.2","1018.279","20.89","45.72","NAN","0.0"],
    [1550922,"2026-04-18 18:10:00","3632","1.4","194.3","2.515","191.1","1018.295","20.65","46.32","NAN","0.0"],
    [1550923,"2026-04-18 18:20:00","3633","1.383","201.3","2.45","197.6","1018.312","20.45","46.55","NAN","0.0"],
    [1550924,"2026-04-18 18:30:00","3634","1.391","210.5","2.515","195.9","1018.324","20.34","46.14","NAN","0.0"],
    [1550925,"2026-04-18 18:40:00","3635","1.7690000000000001","216.3","2.9730000000000003","228.5","1018.427","20.2","45.74","NAN","0.0"],
    [1550926,"2026-04-18 18:50:00","3636","1.246","225.5","2.417","230.5","1018.6080000000001","20.23","45.39","NAN","0.0"],
    [1550927,"2026-04-18 19:00:00","3637","1.141","205.8","2.45","242.9","1018.717","20","47.2","NAN","0.0"],
    [1550928,"2026-04-18 19:10:00","3638","1.168","220.3","2.907","225.9","1018.805","20.06","46.52","NAN","0.0"],
    [1550929,"2026-04-18 19:20:00","3639","1.091","207.5","1.993","232.5","1018.914","19.89","47.58","NAN","0.0"],
    [1550930,"2026-04-18 19:30:00","3640","1.114","200.8","2.319","220.8","1018.9989999999999","19.72","48.23","NAN","0.0"],
    [1550931,"2026-04-18 19:40:00","3641","0.48200000000000004","186.8","1.078","175.3","1018.9989999999999","19.36","52.51","NAN","0.0"],
    [1550932,"2026-04-18 19:50:00","3642","0.594","182.6","1.176","190.8","1019.025","19.22","53.2","NAN","0.0"],
    [1550933,"2026-04-18 20:00:00","3643","0.511","195.3","1.143","182.5","1019.115","19.16","54.5","NAN","0.0"],
    [1550934,"2026-04-18 20:10:00","3644","1.534","223.6","3.136","244.3","1019.185","19.44","49.92","NAN","0.0"],
    [1550935,"2026-04-18 20:20:00","3645","0.8540000000000001","227.6","2.025","261.8","1019.25","19.67","48.57","NAN","0.0"],
    [1550936,"2026-04-18 20:30:00","3646","1.197","235.7","2.7110000000000003","243.4","1019.2610000000001","19.72","48.95","NAN","0.0"],
    [1550937,"2026-04-18 20:40:00","3647","0.42","230.9","1.2409999999999999","255.5","1019.257","19.58","51.24","NAN","0.0"],
    [1550938,"2026-04-18 20:50:00","3648","0.718","229.3","1.568","238.9","1019.255","19.21","52.78","NAN","0.0"],
    [1550939,"2026-04-18 21:00:00","3649","0.9159999999999999","238.1","1.8619999999999999","235.7","1019.257","19.41","50.9","NAN","0.0"],
    [1550940,"2026-04-18 21:10:00","3650","0.6859999999999999","235.5","1.699","257.4","1019.257","19.52","50.16","NAN","0.0"],
    [1550941,"2026-04-18 21:20:00","3651","0.804","220.3","1.5030000000000001","213.5","1019.257","19.41","51.47","NAN","0.0"],
    [1550942,"2026-04-18 21:30:00","3652","0.635","208.9","1.045","199.6","1019.2610000000001","18.84","56.29","NAN","0.0"],
    [1550943,"2026-04-18 21:40:00","3653","0.977","202.1","1.633","231.9","1019.258","18.57","58.58","NAN","0.0"],
    [1550944,"2026-04-18 21:50:00","3654","0.252","201.0","1.045","200.2","1019.252","18.42","60.07","NAN","0.0"],
    [1550945,"2026-04-18 22:00:00","3655","0.725","221.5","1.4369999999999998","264.2","1019.225","18.56","58.13","NAN","0.0"],
    [1550946,"2026-04-18 22:10:00","3656","0.728","192.6","1.045","191.1","1019.145","18.37","60.27","NAN","0.0"],
    [1550947,"2026-04-18 22:20:00","3657","0.9259999999999999","200.2","1.339","201.4","1019.07","18.09","63.26","NAN","0.0"],
    [1550948,"2026-04-18 22:30:00","3658","1.012","199.6","1.307","192.6","1019.007","17.93","62.74","NAN","0.0"],
    [1550949,"2026-04-18 22:40:00","3659","0.5579999999999999","189.7","1.143","214.0","1018.8489999999999","17.97","62.5","NAN","0.0"],
    [1550950,"2026-04-18 22:50:00","3660","0.191","215.7","0.621","220.1","1018.763","17.85","62.07","NAN","0.0"],
    [1550951,"2026-04-18 23:00:00","3661","0.08900000000000001","121.1","0.588","100.6","1018.763","17.68","63.83","NAN","0.0"],
    [1550952,"2026-04-18 23:10:00","3662","0.294","189.2","1.176","189.2","1018.763","17.51","65.28","NAN","0.0"],
    [1550953,"2026-04-18 23:20:00","3663","0.311","169.6","0.882","170.9","1018.7669999999999","17.08","64.12","NAN","0.0"],
    [1550954,"2026-04-18 23:30:00","3664","0.0","0.0","0.0","0.0","1018.758","16.91","60.62","NAN","0.0"],
    [1550955,"2026-04-18 23:40:00","3665","0.171","183.7","0.555","177.6","1018.7389999999999","16.95","61.37","NAN","0.0"],
    [1550956,"2026-04-18 23:50:00","3666","0.466","185.2","1.078","199.1","1018.663","16.85","61.56","NAN","0.0"],
    [1550957,"2026-04-19 00:00:00","3667","0.6","241.1","2.254","260.6","1018.561","17.15","58.27","NAN","0.0"],
    [1550958,"2026-04-19 00:10:00","3668","0.898","258.4","2.0580000000000003","264.5","1018.462","18.13","50.8","NAN","0.0"],
    [1550959,"2026-04-19 00:20:00","3669","0.408","276.9","1.274","276.3","1018.332","18.26","51.3","NAN","0.0"],
    [1550960,"2026-04-19 00:30:00","3670","0.449","275.5","1.176","310.3","1018.2669999999999","18.22","51.65","NAN","0.0"],
    [1550961,"2026-04-19 00:40:00","3671","1.258","262.2","2.483","260.6","1018.222","18.19","51.18","NAN","0.0"],
    [1550962,"2026-04-19 00:50:00","3672","1.122","269.5","2.0909999999999997","285.9","1018.09","18.21","49.51","NAN","0.0"],
    [1550963,"2026-04-19 01:00:00","3673","0.649","269.8","1.601","280.8","1017.9069999999999","18.28","49.43","NAN","0.0"],
    [1550964,"2026-04-19 01:10:00","3674","0.504","274.7","1.2409999999999999","287.3","1017.7639999999999","18.27","50.01","NAN","0.0"],
    [1550965,"2026-04-19 01:20:00","3675","0.36700000000000005","232.7","0.882","222.2","1017.65","18.17","50.27","NAN","0.0"],
    [1550966,"2026-04-19 01:30:00","3676","0.509","259.8","1.209","248.5","1017.5210000000001","18.26","49.55","NAN","0.0"],
    [1550967,"2026-04-19 01:40:00","3677","0.616","261.3","1.4369999999999998","260.0","1017.4060000000001","18.37","48.3","NAN","0.0"],
    [1550968,"2026-04-19 01:50:00","3678","0.41600000000000004","294.1","1.5030000000000001","259.6","1017.3739999999999","18.63","47.28","NAN","0.0"],
    [1550969,"2026-04-19 02:00:00","3679","0.086","335.0","0.6859999999999999","329.3","1017.2660000000001","18.35","48.99","NAN","0.0"],
    [1550970,"2026-04-19 02:10:00","3680","0.6729999999999999","271.6","1.568","286.6","1017.262","18.39","48.05","NAN","0.0"],
    [1550971,"2026-04-19 02:20:00","3681","0.316","344.0","1.045","314.1","1017.2719999999999","18.4","48.44","NAN","0.0"],
    [1550972,"2026-04-19 02:30:00","3682","0.10300000000000001","31.96","0.621","0.192","1017.217","17.77","52.95","NAN","0.0"],
    [1550973,"2026-04-19 02:40:00","3683","0.591","40.33","1.307","35.5","1017.135","17.41","56.38","NAN","0.0"],
    [1550974,"2026-04-19 02:50:00","3684","0.21600000000000003","66.9","0.6859999999999999","59.53","1017.0360000000001","17.26","57.26","NAN","0.0"],
    [1550975,"2026-04-19 03:00:00","3685","0.654","38.93","1.3719999999999999","47.97","1016.943","17.12","56.87","NAN","0.0"],
    [1550976,"2026-04-19 03:10:00","3686","0.111","90.6","0.784","96.9","1016.784","17.12","56.75","NAN","0.0"],
    [1550977,"2026-04-19 03:20:00","3687","0.168","175.8","0.915","223.4","1016.799","16.87","58.59","NAN","0.0"],
    [1550978,"2026-04-19 03:30:00","3688","0.6659999999999999","211.6","1.3719999999999999","204.6","1016.834","16.67","66.47","NAN","0.0"],
    [1550979,"2026-04-19 03:40:00","3689","0.154","220.9","1.045","212.8","1016.7719999999999","16.42","69.09","NAN","0.0"],
    [1550980,"2026-04-19 03:50:00","3690","0.0","0.0","0.0","0.0","1016.7360000000001","16.05","70.43","NAN","0.0"],
    [1550981,"2026-04-19 04:00:00","3691","0.0","0.0","0.0","0.0","1016.653","16.25","68.89","NAN","0.0"],
    [1550982,"2026-04-19 04:10:00","3692","0.08199999999999999","17.75","0.7190000000000001","0.705","1016.56","16.36","67.87","NAN","0.0"],
    [1550983,"2026-04-19 04:20:00","3693","0.657","23.13","1.535","13.26","1016.592","16.7","58.03","NAN","0.0"],
    [1550984,"2026-04-19 04:30:00","3694","0.221","9.97","0.8170000000000001","356.0","1016.665","16.86","54.45","NAN","0.0"],
    [1550985,"2026-04-19 04:40:00","3695","0.324","71.2","0.8490000000000001","51.21","1016.678","16.66","55.27","NAN","0.0"],
    [1550986,"2026-04-19 04:50:00","3696","0.243","47.26","0.8170000000000001","23.57","1016.732","16.56","55.23","NAN","0.0"],
    [1550987,"2026-04-19 05:00:00","3697","0.426","12.06","1.797","10.94","1016.827","16.46","55.68","NAN","0.0"],
    [1550988,"2026-04-19 05:10:00","3698","0.5","33.75","1.7309999999999999","6.457000000000001","1016.9680000000001","16.43","55.98","NAN","0.0"],
    [1550989,"2026-04-19 05:20:00","3699","0.485","356.7","1.045","15.46","1017.102","16.3","56.67","NAN","0.0"],
    [1550990,"2026-04-19 05:30:00","3700","0.665","44.73","1.143","71.46","1017.183","16.42","56.77","NAN","0.0"],
    [1550991,"2026-04-19 05:40:00","3701","0.898","53.19","1.568","36.77","1017.222","16.37","57.17","NAN","0.0"],
    [1550992,"2026-04-19 05:50:00","3702","0.588","20.72","1.339","54.22","1017.265","16.41","57.01","NAN","0.0"],
    [1550993,"2026-04-19 06:00:00","3703","0.581","8.89","1.111","349.7","1017.285","16.51","56.99","NAN","0.0"],
    [1550994,"2026-04-19 06:10:00","3704","0.359","233.7","0.8490000000000001","234.0","1017.3969999999999","17.01","56.56","NAN","0.0"],
    [1550995,"2026-04-19 06:20:00","3705","0.527","207.8","0.9470000000000001","191.1","1017.5139999999999","17.22","57.7","NAN","0.0"],
    [1550996,"2026-04-19 06:30:00","3706","0.8","188.6","1.405","207.0","1017.549","16.92","59.66","NAN","0.0"],
    [1550997,"2026-04-19 06:40:00","3707","0.74","189.8","1.078","195.4","1017.689","17.02","61.74","NAN","0.0"],
    [1550998,"2026-04-19 06:50:00","3708","0.8340000000000001","193.0","1.339","195.9","1017.758","17.58","60.46","NAN","0.0"],
    [1550999,"2026-04-19 07:00:00","3709","1.1840000000000002","238.5","1.96","244.2","1017.807","18.31","53.01","NAN","0.0"],
    [1551000,"2026-04-19 07:10:00","3710","0.5760000000000001","131.3","1.274","118.7","1017.827","18.95","51.7","NAN","0.0"],
    [1551001,"2026-04-19 07:20:00","3711","0.718","91.4","0.9470000000000001","94.3","1017.924","19.48","49.89","NAN","0.0"],
    [1551002,"2026-04-19 07:30:00","3712","0.5660000000000001","127.0","1.209","169.1","1017.931","19.74","47.82","NAN","0.0"],
    [1551003,"2026-04-19 07:40:00","3713","1.026","128.3","1.797","111.5","1017.931","19.42","52.73","NAN","0.0"],
    [1551004,"2026-04-19 07:50:00","3714","0.951","112.4","1.535","124.2","1017.934","19.18","55.82","NAN","0.0"],
    [1551005,"2026-04-19 08:00:00","3715","0.71","112.5","1.209","99.9","1017.953","19.46","52.79","NAN","0.0"],
    [1551006,"2026-04-19 08:10:00","3716","0.8190000000000001","95.7","1.568","64.46","1017.944","20.07","49.83","NAN","0.0"],
    [1551007,"2026-04-19 08:20:00","3717","0.8340000000000001","105.6","1.4369999999999998","119.3","1018.0160000000001","20.82","47.24","NAN","0.0"],
    [1551008,"2026-04-19 08:30:00","3718","0.6859999999999999","124.5","1.143","124.0","1018.034","20.58","46.59","NAN","0.0"],
    [1551009,"2026-04-19 08:40:00","3719","0.9790000000000001","139.3","1.96","106.7","1018.188","21.22","45.12","NAN","0.0"],
    [1551010,"2026-04-19 08:50:00","3720","1.389","153.1","2.0909999999999997","161.3","1018.19","21.11","49.14","NAN","0.0"],
    [1551011,"2026-04-19 09:00:00","3721","1.936","166.9","3.5610000000000004","163.6","1018.257","20.16","58.24","NAN","0.0"],
    [1551012,"2026-04-19 09:10:00","3722","1.8940000000000001","172.5","2.842","175.7","1018.315","19.13","70.5","NAN","0.0"],
    [1551013,"2026-04-19 09:20:00","3723","1.651","175.2","2.9730000000000003","170.1","1018.422","19.46","71.52","NAN","0.0"],
    [1551014,"2026-04-19 09:30:00","3724","2.128","178.0","3.593","177.7","1018.554","19.4","70.81","NAN","0.0"],
    [1551015,"2026-04-19 09:40:00","3725","2.667","179.0","4.377","177.4","1018.683","18.49","73.87","NAN","0.0"],
    [1551016,"2026-04-19 09:50:00","3726","2.358","180.6","3.985","183.1","1018.683","18.79","74.1","NAN","0.0"],
    [1551017,"2026-04-19 10:00:00","3727","3.017","176.9","5.129","180.1","1018.686","18.83","75.57","NAN","0.0"],
    [1551018,"2026-04-19 10:10:00","3728","3.528","171.2","4.998","174.5","1018.6460000000001","18.4","82.4","NAN","0.0"],
    [1551019,"2026-04-19 10:20:00","3729","3.583","173.8","5.4879999999999995","180.7","1018.554","18.13","85.5","NAN","0.0"],
    [1551020,"2026-04-19 10:30:00","3730","2.928","177.1","4.541","172.8","1018.4989999999999","18.15","86","NAN","0.0"],
    [1551021,"2026-04-19 10:40:00","3731","3.318","175.1","4.704","177.4","1018.442","18.19","85","NAN","0.0"],
    [1551022,"2026-04-19 10:50:00","3732","2.98","172.1","4.2139999999999995","175.3","1018.3789999999999","18.31","82.4","NAN","0.0"],
    [1551023,"2026-04-19 11:00:00","3733","2.935","171.2","4.051","174.3","1018.27","19.15","74.27","NAN","0.0"],
    [1551024,"2026-04-19 11:10:00","3734","2.653","177.1","3.985","180.4","1018.194","19.31","72.43","NAN","0.0"],
    [1551025,"2026-04-19 11:20:00","3735","3.176","177.0","4.573","179.6","1018.155","19.31","70.41","NAN","0.0"],
    [1551026,"2026-04-19 11:30:00","3736","3.3810000000000002","174.2","5.4879999999999995","186.4","1017.9860000000001","19.24","67.92","NAN","0.0"],
    [1551027,"2026-04-19 11:40:00","3737","4.121","174.9","5.847","173.9","1017.8760000000001","19","69.88","NAN","0.0"],
    [1551028,"2026-04-19 11:50:00","3738","3.878","173.2","5.292000000000001","174.4","1017.7189999999999","19.28","67.72","NAN","0.0"],
    [1551029,"2026-04-19 12:00:00","3739","3.344","172.5","5.422999999999999","174.9","1017.637","19.86","63.4","NAN","0.0"],
    [1551030,"2026-04-19 12:10:00","3740","3.103","168.6","4.247","163.9","1017.535","20.3","60.92","NAN","0.0"],
    [1551031,"2026-04-19 12:20:00","3741","2.7969999999999997","168.8","4.051","179.0","1017.453","20.66","57.75","NAN","0.0"],
    [1551032,"2026-04-19 12:30:00","3742","2.748","165.1","4.345","178.7","1017.4580000000001","20.76","58.97","NAN","0.0"],
    [1551033,"2026-04-19 12:40:00","3743","2.491","164.4","3.593","173.2","1017.44","20.6","60.94","NAN","0.0"],
    [1551034,"2026-04-19 12:50:00","3744","2.615","168.0","3.593","173.0","1017.385","20.24","64.4","NAN","0.0"],
    [1551035,"2026-04-19 13:00:00","3745","2.8739999999999997","170.7","4.1160000000000005","172.2","1017.2610000000001","19.89","66.72","NAN","0.0"],
    [1551036,"2026-04-19 13:10:00","3746","2.585","169.4","3.92","161.1","1017.191","19.82","68.75","NAN","0.0"],
    [1551037,"2026-04-19 13:20:00","3747","3.0180000000000002","169.6","4.345","171.7","1017.191","19.43","71.7","NAN","0.0"],
    [1551038,"2026-04-19 13:30:00","3748","2.778","173.8","4.083","175.4","1017.189","19.31","74.54","NAN","0.0"],
    [1551039,"2026-04-19 13:40:00","3749","2.966","171.8","4.541","176.0","1017.086","18.97","79.56","NAN","0.0"],
    [1551040,"2026-04-19 13:50:00","3750","3.089","169.7","4.345","171.6","1016.942","18.48","83.4","NAN","0.0"],
    [1551041,"2026-04-19 14:00:00","3751","3.0439999999999996","173.4","4.573","164.3","1016.92","18.37","84.4","NAN","0.0"],
    [1551042,"2026-04-19 14:10:00","3752","3.0","172.5","4.9","166.1","1016.93","18.3","84.8","NAN","0.0"],
    [1551043,"2026-04-19 14:20:00","3753","2.957","172.7","4.4430000000000005","177.8","1016.81","18.37","82.7","NAN","0.0"],
    [1551044,"2026-04-19 14:30:00","3754","2.725","167.8","4.247","177.0","1016.695","18.79","78.86","NAN","0.0"],
    [1551045,"2026-04-19 14:40:00","3755","2.551","166.0","4.2139999999999995","164.2","1016.701","19.16","74.34","NAN","0.0"],
    [1551046,"2026-04-19 14:50:00","3756","2.555","165.1","4.279","172.4","1016.6410000000001","19.68","68.4","NAN","0.0"],
    [1551047,"2026-04-19 15:00:00","3757","2.7769999999999997","170.1","4.377","169.8","1016.4810000000001","19.85","65.71","NAN","0.0"],
    [1551048,"2026-04-19 15:10:00","3758","2.5810000000000004","170.2","3.887","171.4","1016.4739999999999","19.84","67.52","NAN","0.0"],
    [1551049,"2026-04-19 15:20:00","3759","2.552","167.2","4.149","162.3","1016.5310000000001","19.37","72.57","NAN","0.0"],
    [1551050,"2026-04-19 15:30:00","3760","2.682","167.3","4.083","170.9","1016.6439999999999","19.27","72.66","NAN","0.0"],
    [1551051,"2026-04-19 15:40:00","3761","2.96","167.4","4.083","167.5","1016.6310000000001","19.21","72.75","NAN","0.0"],
    [1551052,"2026-04-19 15:50:00","3762","2.8689999999999998","168.8","4.247","179.3","1016.6260000000001","19.28","72.32","NAN","0.0"],
    [1551053,"2026-04-19 16:00:00","3763","3.195","172.3","4.704","175.7","1016.5160000000001","19.11","72.62","NAN","0.0"],
    [1551054,"2026-04-19 16:10:00","3764","3.48","172.7","4.606","175.8","1016.329","18.77","74.35","NAN","0.0"],
    [1551055,"2026-04-19 16:20:00","3765","3.2910000000000004","175.3","5.2589999999999995","181.7","1016.198","18.71","75.42","NAN","0.0"],
    [1551056,"2026-04-19 16:30:00","3766","2.639","176.4","3.985","173.3","1016.253","18.96","74.32","NAN","0.0"],
    [1551057,"2026-04-19 16:40:00","3767","2.476","168.3","3.6910000000000003","177.0","1016.4169999999999","18.94","75","NAN","0.0"],
    [1551058,"2026-04-19 16:50:00","3768","2.728","169.4","3.6910000000000003","177.7","1016.669","18.96","75.61","NAN","0.0"],
    [1551059,"2026-04-19 17:00:00","3769","2.752","174.5","3.887","172.1","1016.693","18.91","76.55","NAN","0.0"],
    [1551060,"2026-04-19 17:10:00","3770","3.0380000000000003","177.8","4.345","177.6","1016.6260000000001","18.74","78.57","NAN","0.0"],
    [1551061,"2026-04-19 17:20:00","3771","2.642","170.7","3.855","178.8","1016.689","18.49","80.8","NAN","0.0"],
    [1551062,"2026-04-19 17:30:00","3772","2.1719999999999997","174.4","3.234","179.0","1016.695","18.34","83","NAN","0.0"],
    [1551063,"2026-04-19 17:40:00","3773","2.053","172.8","3.201","179.5","1016.623","18.2","84.7","NAN","0.0"],
    [1551064,"2026-04-19 17:50:00","3774","2.228","181.0","3.593","182.9","1016.607","18.08","86.2","NAN","0.0"],
    [1551065,"2026-04-19 18:00:00","3775","1.58","180.0","2.679","181.8","1016.545","18.02","88.2","NAN","0.0"],
    [1551066,"2026-04-19 18:10:00","3776","2.156","176.9","4.083","172.8","1016.689","17.86","89","NAN","0.0"],
    [1551067,"2026-04-19 18:20:00","3777","1.7009999999999998","187.4","2.7110000000000003","193.9","1016.7310000000001","17.56","91","NAN","0.0"],
    [1551068,"2026-04-19 18:30:00","3778","1.6469999999999998","176.8","3.005","171.6","1016.694","17.51","91.1","NAN","0.0"],
    [1551069,"2026-04-19 18:40:00","3779","1.985","168.6","3.299","173.5","1016.752","17.4","91.3","NAN","0.0"],
    [1551070,"2026-04-19 18:50:00","3780","1.261","186.4","2.7769999999999997","168.3","1016.6439999999999","17.37","91.6","NAN","0.0"],
    [1551071,"2026-04-19 19:00:00","3781","1.07","199.7","1.666","191.4","1016.684","17.55","90","NAN","0.0"],
    [1551072,"2026-04-19 19:10:00","3782","1.199","201.4","2.123","188.2","1016.592","17.58","89.6","NAN","0.0"],
    [1551073,"2026-04-19 19:20:00","3783","1.136","207.0","1.797","197.5","1016.681","17.66","88.9","NAN","0.0"],
    [1551074,"2026-04-19 19:30:00","3784","0.8740000000000001","207.0","1.633","235.7","1016.7689999999999","17.98","86.2","NAN","0.0"],
    [1551075,"2026-04-19 19:40:00","3785","1.232","207.9","2.352","207.1","1016.835","18.14","84.7","NAN","0.0"],
    [1551076,"2026-04-19 19:50:00","3786","1.1079999999999999","208.0","2.287","202.4","1016.949","17.88","85.3","NAN","0.0"],
    [1551077,"2026-04-19 20:00:00","3787","1.105","222.2","1.993","230.0","1017.013","18.25","79.58","NAN","0.0"],
    [1551078,"2026-04-19 20:10:00","3788","0.96","209.6","1.9269999999999998","218.5","1017.0160000000001","18.39","79.76","NAN","0.0"],
    [1551079,"2026-04-19 20:20:00","3789","0.758","195.0","1.2409999999999999","189.2","1017.008","18.25","81.4","NAN","0.0"],
    [1551080,"2026-04-19 20:30:00","3790","0.838","216.6","2.0580000000000003","233.7","1016.806","18.21","82.3","NAN","0.0"],
    [1551081,"2026-04-19 20:40:00","3791","1.505","236.4","2.7110000000000003","242.8","1016.7639999999999","18.63","79.37","NAN","0.0"],
    [1551082,"2026-04-19 20:50:00","3792","1.04","228.0","2.123","216.2","1016.784","18.7","79.28","NAN","0.0"],
    [1551083,"2026-04-19 21:00:00","3793","1.238","231.0","2.287","259.2","1016.7660000000001","18.85","78.91","NAN","0.0"],
    [1551084,"2026-04-19 21:10:00","3794","1.225","243.5","2.45","234.2","1016.7639999999999","18.85","79.14","NAN","0.0"],
    [1551085,"2026-04-19 21:20:00","3795","1.483","247.0","3.1689999999999996","235.6","1016.681","18.87","78.48","NAN","0.0"],
    [1551086,"2026-04-19 21:30:00","3796","1.744","241.1","3.365","237.6","1016.487","18.82","77.52","NAN","0.0"],
    [1551087,"2026-04-19 21:40:00","3797","1.722","237.8","3.593","236.6","1016.329","19.06","74.14","NAN","0.0"],
    [1551088,"2026-04-19 21:50:00","3798","0.857","233.4","1.9269999999999998","223.5","1016.186","19.33","70.13","NAN","0.0"],
    [1551089,"2026-04-19 22:00:00","3799","1.93","241.4","3.9530000000000003","244.5","1016.048","19.54","68.98","NAN","0.0"],
    [1551090,"2026-04-19 22:10:00","3800","2.467","238.7","4.377","241.2","1015.832","19.56","69.23","NAN","0.0"],
    [1551091,"2026-04-19 22:20:00","3801","1.972","244.8","4.2139999999999995","263.8","1015.8989999999999","19.63","68.6","NAN","0.0"],
    [1551092,"2026-04-19 22:30:00","3802","2.459","233.0","5.063","239.7","1015.799","19.63","67.41","NAN","0.0"],
    [1551093,"2026-04-19 22:40:00","3803","2.38","234.2","4.737","228.1","1015.7669999999999","19.63","66.02","NAN","0.0"],
    [1551094,"2026-04-19 22:50:00","3804","1.139","244.1","2.9730000000000003","231.6","1015.7539999999999","19.81","63.72","NAN","0.0"],
    [1551095,"2026-04-19 23:00:00","3805","0.991","212.2","2.679","173.0","1015.442","19.84","63.18","NAN","0.0"],
    [1551096,"2026-04-19 23:10:00","3806","1.436","224.5","3.7239999999999998","269.9","1015.2180000000001","19.67","62.06","NAN","0.0"],
    [1551097,"2026-04-19 23:20:00","3807","1.6880000000000002","232.7","4.279","241.2","1015.102","19.56","60.33","NAN","0.0"],
    [1551098,"2026-04-19 23:30:00","3808","1.527","284.4","3.5610000000000004","251.8","1015.102","19.35","60.55","NAN","0.0"],
    [1551099,"2026-04-19 23:40:00","3809","1.037","264.6","2.613","267.2","1015.295","19.34","61.86","NAN","0.0"],
    [1551100,"2026-04-19 23:50:00","3810","0.972","228.3","1.96","245.4","1015.262","19.44","60.04","NAN","0.0"],
    [1551101,"2026-04-20 00:00:00","3811","0.462","223.7","1.666","192.8","1015.073","19.18","60.68","NAN","0.0"],
    [1551102,"2026-04-20 00:10:00","3812","0.429","271.8","1.274","288.7","1015.127","19.42","58.17","NAN","0.0"],
    [1551103,"2026-04-20 00:20:00","3813","0.312","92.5","0.9470000000000001","103.0","1015.018","19.24","59.31","NAN","0.0"],
    [1551104,"2026-04-20 00:30:00","3814","0.308","122.2","0.882","90.3","1014.972","18.97","60.46","NAN","0.0"],
    [1551105,"2026-04-20 00:40:00","3815","0.807","197.8","1.3719999999999999","205.4","1014.944","18.74","62.94","NAN","0.0"],
    [1551106,"2026-04-20 00:50:00","3816","0.706","202.4","1.3719999999999999","195.2","1014.822","18.16","66.38","NAN","0.0"],
    [1551107,"2026-04-20 01:00:00","3817","0.499","189.3","1.176","167.5","1014.705","17.96","68.13","NAN","0.0"],
    [1551108,"2026-04-20 01:10:00","3818","0.835","187.8","1.3719999999999999","184.7","1014.4760000000001","17.82","68.82","NAN","0.0"],
    [1551109,"2026-04-20 01:20:00","3819","0.733","188.2","1.274","197.2","1014.3969999999999","17.62","71.25","NAN","0.0"],
    [1551110,"2026-04-20 01:30:00","3820","0.789","183.0","1.176","182.9","1014.387","17.66","71.2","NAN","0.0"],
    [1551111,"2026-04-20 01:40:00","3821","0.664","186.6","1.078","179.8","1014.3539999999999","17.63","73.15","NAN","0.0"],
    [1551112,"2026-04-20 01:50:00","3822","0.295","132.4","0.882","93.6","1014.278","17.52","74.49","NAN","0.0"],
    [1551113,"2026-04-20 02:00:00","3823","0.037000000000000005","56.18","0.425","49.87","1014.26","17.66","74.84","NAN","0.0"],
    [1551114,"2026-04-20 02:10:00","3824","0.015","211.1","0.359","211.3","1014.252","17.66","74.97","NAN","0.0"],
    [1551115,"2026-04-20 02:20:00","3825","0.773","191.7","1.47","205.6","1014.198","17.43","76.54","NAN","0.0"],
    [1551116,"2026-04-20 02:30:00","3826","0.902","198.8","1.764","211.4","1014.044","17.31","76.96","NAN","0.0"],
    [1551117,"2026-04-20 02:40:00","3827","0.67","199.4","1.699","207.9","1014.029","17.34","76.54","NAN","0.0"],
    [1551118,"2026-04-20 02:50:00","3828","0.743","221.1","1.5030000000000001","248.9","1013.913","17.37","75.26","NAN","0.0"],
    [1551119,"2026-04-20 03:00:00","3829","0.982","237.2","1.993","234.9","1013.785","17.84","71.3","NAN","0.0"],
    [1551120,"2026-04-20 03:10:00","3830","0.774","288.9","2.417","268.0","1013.78","17.93","71.53","NAN","0.0"],
    [1551121,"2026-04-20 03:20:00","3831","0.726","308.7","1.4369999999999998","355.8","1013.683","17.89","72.08","NAN","0.0"],
    [1551122,"2026-04-20 03:30:00","3832","0.483","218.6","0.98","278.7","1013.615","17.92","72","NAN","0.0"],
    [1551123,"2026-04-20 03:40:00","3833","0.337","171.1","0.915","203.1","1013.508","17.43","74.46","NAN","0.0"],
    [1551124,"2026-04-20 03:50:00","3834","0.7040000000000001","206.8","1.339","205.0","1013.472","17.06","77.44","NAN","0.0"],
    [1551125,"2026-04-20 04:00:00","3835","0.515","189.9","0.8490000000000001","197.3","1013.525","16.85","78.68","NAN","0.0"],
    [1551126,"2026-04-20 04:10:00","3836","0.57","203.2","1.013","177.2","1013.508","16.69","80.4","NAN","0.0"],
    [1551127,"2026-04-20 04:20:00","3837","0.348","183.4","0.8490000000000001","163.0","1013.408","16.56","81.4","NAN","0.0"],
    [1551128,"2026-04-20 04:30:00","3838","0.11599999999999999","165.8","0.588","167.8","1013.295","16.36","82.9","NAN","0.0"],
    [1551129,"2026-04-20 04:40:00","3839","0.556","207.3","1.176","200.8","1013.265","16.29","84","NAN","0.0"],
    [1551130,"2026-04-20 04:50:00","3840","0.64","193.5","1.2409999999999999","204.7","1013.243","16.28","83.9","NAN","0.0"],
    [1551131,"2026-04-20 05:00:00","3841","0.40700000000000003","184.7","1.078","196.3","1013.242","16.23","82.8","NAN","0.0"],
    [1551132,"2026-04-20 05:10:00","3842","0.578","191.7","1.176","199.4","1013.2660000000001","16.27","82.2","NAN","0.0"],
    [1551133,"2026-04-20 05:20:00","3843","0.512","174.5","1.078","185.9","1013.245","16.25","81.4","NAN","0.0"],
    [1551134,"2026-04-20 05:30:00","3844","0.15","175.2","0.784","173.5","1013.312","16.13","81.3","NAN","0.0"],
    [1551135,"2026-04-20 05:40:00","3845","0.389","185.9","1.143","182.5","1013.311","16.22","80.2","NAN","0.0"],
    [1551136,"2026-04-20 05:50:00","3846","0.349","187.2","1.405","197.1","1013.367","16.53","78.52","NAN","0.0"],
    [1551137,"2026-04-20 06:00:00","3847","0.295","128.0","0.8170000000000001","147.5","1013.426","16.89","75.35","NAN","0.0"],
    [1551138,"2026-04-20 06:10:00","3848","0.177","163.3","0.8170000000000001","167.6","1013.439","17.37","72.4","NAN","0.0"],
    [1551139,"2026-04-20 06:20:00","3849","0.758","154.3","1.47","166.4","1013.4680000000001","17.56","71.54","NAN","0.0"],
    [1551140,"2026-04-20 06:30:00","3850","0.3","119.1","0.98","119.8","1013.5189999999999","17.82","70.83","NAN","0.0"],
    [1551141,"2026-04-20 06:40:00","3851","0.37799999999999995","141.9","0.915","158.2","1013.495","18.16","68.63","NAN","0.0"],
    [1551142,"2026-04-20 06:50:00","3852","0.782","167.5","1.2409999999999999","167.2","1013.4730000000001","18.01","68.17","NAN","0.0"],
    [1551143,"2026-04-20 07:00:00","3853","0.802","169.9","1.339","184.6","1013.4730000000001","18.24","67.66","NAN","0.0"],
    [1551144,"2026-04-20 07:10:00","3854","1.157","186.0","1.601","188.0","1013.465","18.36","66.61","NAN","0.0"],
    [1551145,"2026-04-20 07:20:00","3855","0.657","181.4","1.535","201.4","1013.488","18.85","64.65","NAN","0.0"],
    [1551146,"2026-04-20 07:30:00","3856","0.9690000000000001","173.9","1.829","186.2","1013.582","19.31","63.04","NAN","0.0"],
    [1551147,"2026-04-20 07:40:00","3857","1.031","172.0","1.9269999999999998","164.8","1013.58","19.53","62.92","NAN","0.0"],
    [1551148,"2026-04-20 07:50:00","3858","0.9079999999999999","173.0","1.96","170.8","1013.58","20.1","61.66","NAN","0.0"],
    [1551149,"2026-04-20 08:00:00","3859","1.198","203.8","2.221","193.3","1013.587","20.39","59.83","NAN","0.0"],
    [1551150,"2026-04-20 08:10:00","3860","1.5619999999999998","233.5","2.907","217.6","1013.595","20.77","56.32","NAN","0.0"],
    [1551151,"2026-04-20 08:20:00","3861","1.425","213.9","2.7769999999999997","220.3","1013.582","21.05","54.72","NAN","0.0"],
    [1551152,"2026-04-20 08:30:00","3862","1.595","216.7","3.071","229.8","1013.607","21.49","53.07","NAN","0.0"],
    [1551153,"2026-04-20 08:40:00","3863","1.6669999999999998","193.7","2.842","172.9","1013.664","20.88","60.41","NAN","0.0"],
    [1551154,"2026-04-20 08:50:00","3864","2.17","185.9","3.463","181.3","1013.625","20.24","65.58","NAN","0.0"],
    [1551155,"2026-04-20 09:00:00","3865","1.953","182.7","3.005","163.6","1013.704","20.55","64.5","NAN","0.0"],
    [1551156,"2026-04-20 09:10:00","3866","1.91","171.2","3.005","184.8","1013.704","20.58","64.47","NAN","0.0"],
    [1551157,"2026-04-20 09:20:00","3867","1.89","170.7","3.071","178.3","1013.707","20.94","63.29","NAN","0.0"],
    [1551158,"2026-04-20 09:30:00","3868","2.741","177.5","4.247","185.4","1013.7489999999999","20.69","64.8","NAN","0.0"],
    [1551159,"2026-04-20 09:40:00","3869","2.6039999999999996","181.0","4.508","175.6","1013.7639999999999","20.53","67.86","NAN","0.0"],
    [1551160,"2026-04-20 09:50:00","3870","2.705","177.5","4.573","180.9","1013.699","20.76","65.61","NAN","0.0"],
    [1551161,"2026-04-20 10:00:00","3871","2.22","186.2","3.7239999999999998","171.2","1013.704","21.09","62.59","NAN","0.0"],
    [1551162,"2026-04-20 10:10:00","3872","1.945","189.7","3.6260000000000003","182.9","1013.692","21.67","60.43","NAN","0.0"],
    [1551163,"2026-04-20 10:20:00","3873","2.687","171.6","4.312","179.8","1013.6439999999999","20.83","65.16","NAN","0.0"],
    [1551164,"2026-04-20 10:30:00","3874","2.611","175.8","4.475","180.2","1013.572","20.86","65.35","NAN","0.0"],
    [1551165,"2026-04-20 10:40:00","3875","2.657","173.4","4.018","178.4","1013.47","20.82","64.27","NAN","0.0"],
    [1551166,"2026-04-20 10:50:00","3876","2.211","176.4","3.659","178.7","1013.455","21.63","58.57","NAN","0.0"],
    [1551167,"2026-04-20 11:00:00","3877","2.9930000000000003","173.1","4.769","160.8","1013.418","21.26","60.69","NAN","0.0"],
    [1551168,"2026-04-20 11:10:00","3878","3.198","167.2","4.998","172.8","1013.2660000000001","21.32","58.83","NAN","0.0"],
    [1551169,"2026-04-20 11:20:00","3879","2.7060000000000004","176.2","4.737","171.5","1013.206","21.79","55.49","NAN","0.0"],
    [1551170,"2026-04-20 11:30:00","3880","2.415","177.3","4.704","193.5","1013.1560000000001","21.86","54.99","NAN","0.0"],
    [1551171,"2026-04-20 11:40:00","3881","2.195","177.0","4.737","202.4","1013.0139999999999","22.19","53.46","NAN","0.0"],
    [1551172,"2026-04-20 11:50:00","3882","2.609","174.5","4.638999999999999","179.3","1012.957","21.86","54.52","NAN","0.0"],
    [1551173,"2026-04-20 12:00:00","3883","2.747","179.2","5.88","170.2","1012.94","22.12","53.35","NAN","0.0"],
    [1551174,"2026-04-20 12:10:00","3884","2.9389999999999996","168.7","5.129","163.8","1012.932","21.64","56.02","NAN","0.0"],
    [1551175,"2026-04-20 12:20:00","3885","2.8810000000000002","169.7","5.357","177.4","1012.842","21.67","56.4","NAN","0.0"],
    [1551176,"2026-04-20 12:30:00","3886","3.032","168.7","5.422999999999999","163.4","1012.797","20.96","61.57","NAN","0.0"],
    [1551177,"2026-04-20 12:40:00","3887","3.516","164.6","5.39","159.8","1012.716","20.68","63.85","NAN","0.0"],
    [1551178,"2026-04-20 12:50:00","3888","3.4130000000000003","161.5","5.422999999999999","159.5","1012.7080000000001","20.5","65.07","NAN","0.0"],
    [1551179,"2026-04-20 13:00:00","3889","3.332","166.6","5.194","171.0","1012.623","20.8","62.13","NAN","0.0"],
    [1551180,"2026-04-20 13:10:00","3890","3.125","171.2","5.063","164.4","1012.419","21","60.29","NAN","0.0"],
    [1551181,"2026-04-20 13:20:00","3891","2.951","189.7","4.933","165.4","1012.334","21.55","56.6","NAN","0.0"],
    [1551182,"2026-04-20 13:30:00","3892","3.008","186.4","5.586","201.4","1012.324","21.83","54.62","NAN","0.0"],
    [1551183,"2026-04-20 13:40:00","3893","2.7060000000000004","174.5","4.083","186.6","1012.227","21.73","55.32","NAN","0.0"],
    [1551184,"2026-04-20 13:50:00","3894","2.741","174.6","4.181","216.3","1012.212","21.59","56.02","NAN","0.0"],
    [1551185,"2026-04-20 14:00:00","3895","3.082","181.5","5.7170000000000005","182.4","1012.207","21.67","54.25","NAN","0.0"],
    [1551186,"2026-04-20 14:10:00","3896","2.375","197.9","5.553","178.0","1012.205","22.2","52.18","NAN","0.0"],
    [1551187,"2026-04-20 14:20:00","3897","2.6239999999999997","199.1","5.357","179.5","1012.122","22.38","50.87","NAN","0.0"],
    [1551188,"2026-04-20 14:30:00","3898","2.91","204.4","6.337000000000001","190.7","1011.961","22.41","49.9","NAN","0.0"],
    [1551189,"2026-04-20 14:40:00","3899","3.023","205.1","6.141","196.9","1011.8439999999999","22.32","49.89","NAN","0.0"],
    [1551190,"2026-04-20 14:50:00","3900","2.516","202.2","5.063","198.1","1011.7660000000001","22.28","51.18","NAN","0.0"],
    [1551191,"2026-04-20 15:00:00","3901","2.593","203.8","5.422999999999999","205.1","1011.712","22.12","50.69","NAN","0.0"],
    [1551192,"2026-04-20 15:10:00","3902","2.194","213.1","5.586","200.6","1011.679","22.37","50.01","NAN","0.0"],
    [1551193,"2026-04-20 15:20:00","3903","2.577","217.5","6.566","240.6","1011.51","22.3","48.9","NAN","0.0"],
    [1551194,"2026-04-20 15:30:00","3904","3.1180000000000003","212.4","7.023","238.8","1011.38","21.64","50.37","NAN","0.0"],
    [1551195,"2026-04-20 15:40:00","3905","2.397","216.7","5.455","240.9","1011.431","21.5","51.28","NAN","0.0"],
    [1551196,"2026-04-20 15:50:00","3906","2.926","229.8","5.553","244.0","1011.503","21.59","49.78","NAN","0.0"],
    [1551197,"2026-04-20 16:00:00","3907","1.692","208.6","3.7889999999999997","197.7","1011.712","21.49","51.6","NAN","0.0"],
    [1551198,"2026-04-20 16:10:00","3908","1.915","185.7","4.181","162.0","1011.931","20.73","54.66","NAN","0.0"],
    [1551199,"2026-04-20 16:20:00","3909","2.1430000000000002","171.4","3.267","151.8","1012.056","19.92","59.88","NAN","0.0"],
    [1551200,"2026-04-20 16:30:00","3910","2.115","170.8","3.6260000000000003","177.0","1012.2080000000001","19.66","62.97","NAN","0.0"],
    [1551201,"2026-04-20 16:40:00","3911","2.208","148.3","4.2139999999999995","138.7","1012.205","19.37","69.93","NAN","0.0"],
    [1551202,"2026-04-20 16:50:00","3912","1.95","151.8","4.345","154.7","1012.128","19.14","71.67","NAN","0.0"],
    [1551203,"2026-04-20 17:00:00","3913","1.725","127.7","3.1689999999999996","96.3","1012.297","18.89","72.03","NAN","0.0"],
    [1551204,"2026-04-20 17:10:00","3914","2.496","97.8","5.129","86.5","1012.7239999999999","18.87","72.05","NAN","0.0"],
    [1551205,"2026-04-20 17:20:00","3915","2.4","90.8","4.312","78.6","1012.94","18.63","78.01","NAN","0.0"],
    [1551206,"2026-04-20 17:30:00","3916","2.781","97.8","4.965","111.1","1012.765","18.19","81.8","NAN","0.0"],
    [1551207,"2026-04-20 17:40:00","3917","2.147","80.9","4.2139999999999995","67.14","1012.812","18.14","81.6","NAN","0.0"],
    [1551208,"2026-04-20 17:50:00","3918","1.7180000000000002","113.6","3.234","74.54","1012.6560000000001","18.22","80.5","NAN","0.0"],
    [1551209,"2026-04-20 18:00:00","3919","1.379","89.2","2.352","113.4","1012.691","18.13","81.2","NAN","0.0"],
    [1551210,"2026-04-20 18:10:00","3920","2.013","84.2","3.071","69.05","1012.684","18.16","80.4","NAN","0.0"],
    [1551211,"2026-04-20 18:20:00","3921","1.605","111.7","2.7439999999999998","121.6","1012.71","17.98","83.2","NAN","0.0"],
    [1551212,"2026-04-20 18:30:00","3922","1.345","140.7","2.385","117.4","1012.541","17.83","83.8","NAN","0.0"],
    [1551213,"2026-04-20 18:40:00","3923","1.101","147.8","2.385","146.1","1012.5830000000001","17.83","83.3","NAN","0.0"],
    [1551214,"2026-04-20 18:50:00","3924","1.578","152.6","2.7439999999999998","156.7","1012.435","17.81","83.5","NAN","0.0"],
    [1551215,"2026-04-20 19:00:00","3925","1.0759999999999998","150.6","2.875","152.7","1012.475","17.67","85.2","NAN","0.0"],
    [1551216,"2026-04-20 19:10:00","3926","1.0859999999999999","182.1","2.0909999999999997","185.3","1012.387","17.69","85.3","NAN","0.0"],
    [1551217,"2026-04-20 19:20:00","3927","1.465","200.2","2.7110000000000003","189.6","1012.2919999999999","17.47","88","NAN","0.0"],
    [1551218,"2026-04-20 19:30:00","3928","1.801","216.1","4.018","202.8","1012.327","17.6","85.6","NAN","0.0"],
    [1551219,"2026-04-20 19:40:00","3929","1.775","224.6","3.5610000000000004","218.7","1012.487","17.99","79","NAN","0.0"],
    [1551220,"2026-04-20 19:50:00","3930","1.415","215.8","2.9730000000000003","216.2","1012.6560000000001","18.16","77.35","NAN","0.0"],
    [1551221,"2026-04-20 20:00:00","3931","0.602","193.9","1.601","160.2","1012.7389999999999","18.08","77.44","NAN","0.0"],
    [1551222,"2026-04-20 20:10:00","3932","0.578","209.7","1.7309999999999999","221.9","1012.793","18.07","76.42","NAN","0.0"],
    [1551223,"2026-04-20 20:20:00","3933","0.693","235.8","1.699","284.4","1012.938","18.36","73.72","NAN","0.0"],
    [1551224,"2026-04-20 20:30:00","3934","1.3119999999999998","241.5","2.417","202.8","1012.995","18.49","72.79","NAN","0.0"],
    [1551225,"2026-04-20 20:40:00","3935","0.621","232.3","1.47","233.7","1012.9119999999999","18.43","73.88","NAN","0.0"],
    [1551226,"2026-04-20 20:50:00","3936","1.2770000000000001","238.8","2.6460000000000004","257.7","1012.919","18.41","73.64","NAN","0.0"],
    [1551227,"2026-04-20 21:00:00","3937","1.6","240.9","3.365","236.2","1012.8580000000001","18.54","72.25","NAN","0.0"],
    [1551228,"2026-04-20 21:10:00","3938","1.2590000000000001","250.9","2.7110000000000003","254.1","1013.028","18.57","70.94","NAN","0.0"],
    [1551229,"2026-04-20 21:20:00","3939","1.3769999999999998","247.4","2.7439999999999998","250.1","1012.949","18.61","71.07","NAN","0.0"],
    [1551230,"2026-04-20 21:30:00","3940","1.585","238.7","4.4430000000000005","231.5","1012.801","18.49","70.89","NAN","0.0"],
    [1551231,"2026-04-20 21:40:00","3941","1.097","224.2","2.6460000000000004","237.7","1012.732","18.39","71.96","NAN","0.0"],
    [1551232,"2026-04-20 21:50:00","3942","1.315","223.6","3.0380000000000003","225.5","1012.648","18.28","72.72","NAN","0.0"],
    [1551233,"2026-04-20 22:00:00","3943","1.4780000000000002","231.7","3.005","228.2","1012.533","18.12","73.8","NAN","0.0"],
    [1551234,"2026-04-20 22:10:00","3944","1.757","240.5","3.6260000000000003","254.3","1012.705","18.24","72.95","NAN","0.0"],
    [1551235,"2026-04-20 22:20:00","3945","1.72","235.9","3.43","239.0","1012.523","18.29","72.69","NAN","0.0"],
    [1551236,"2026-04-20 22:30:00","3946","1.578","238.0","2.875","236.6","1012.3589999999999","18.37","71.92","NAN","0.0"],
    [1551237,"2026-04-20 22:40:00","3947","1.4240000000000002","232.2","3.005","242.6","1012.2869999999999","18.31","72.1","NAN","0.0"],
    [1551238,"2026-04-20 22:50:00","3948","0.9840000000000001","235.6","2.6460000000000004","235.3","1012.258","18.18","72.16","NAN","0.0"],
    [1551239,"2026-04-20 23:00:00","3949","1.215","227.3","3.005","227.1","1012.1080000000001","18.12","72.52","NAN","0.0"],
    [1551240,"2026-04-20 23:10:00","3950","1.699","236.0","3.299","248.0","1012.1289999999999","18.1","72.29","NAN","0.0"],
    [1551241,"2026-04-20 23:20:00","3951","1.485","234.7","3.201","221.8","1012.2560000000001","18.12","72","NAN","0.0"],
    [1551242,"2026-04-20 23:30:00","3952","1.771","238.0","3.234","244.9","1012.297","18.03","72.36","NAN","0.0"],
    [1551243,"2026-04-20 23:40:00","3953","1.528","245.0","2.842","237.1","1012.2739999999999","18","71.83","NAN","0.0"],
    [1551244,"2026-04-20 23:50:00","3954","1.344","241.1","2.483","236.3","1012.2669999999999","18.09","71.15","NAN","0.0"],
    [1551245,"2026-04-21 00:00:00","3955","1.531","236.9","2.875","236.9","1012.275","18.13","70.79","NAN","0.0"],
    [1551246,"2026-04-21 00:10:00","3956","1.107","254.1","2.842","233.0","1012.158","18.11","70.14","NAN","0.0"],
    [1551247,"2026-04-21 00:20:00","3957","0.41","244.1","1.895","230.2","1012.045","18.14","70.04","NAN","0.0"],
    [1551248,"2026-04-21 00:30:00","3958","1.042","237.5","1.993","238.9","1012.01","18.22","69.32","NAN","0.0"],
    [1551249,"2026-04-21 00:40:00","3959","1.073","234.9","2.0580000000000003","248.2","1011.87","18.15","69.9","NAN","0.0"],
    [1551250,"2026-04-21 00:50:00","3960","0.866","232.8","1.699","242.7","1011.795","18.14","69.95","NAN","0.0"],
    [1551251,"2026-04-21 01:00:00","3961","0.354","229.6","1.176","250.7","1011.789","17.85","71.89","NAN","0.0"],
    [1551252,"2026-04-21 01:10:00","3962","0.27899999999999997","182.7","0.6859999999999999","184.2","1011.68","17.57","73.56","NAN","0.0"],
    [1551253,"2026-04-21 01:20:00","3963","0.449","222.0","1.405","239.1","1011.548","17.38","74.13","NAN","0.0"],
    [1551254,"2026-04-21 01:30:00","3964","0.721","217.5","1.5030000000000001","230.7","1011.4780000000001","17.53","73.45","NAN","0.0"],
    [1551255,"2026-04-21 01:40:00","3965","0.386","223.0","0.9470000000000001","248.1","1011.362","17.59","71.94","NAN","0.0"],
    [1551256,"2026-04-21 01:50:00","3966","0.857","228.5","2.254","235.5","1011.298","17.94","69.34","NAN","0.0"],
    [1551257,"2026-04-21 02:00:00","3967","0.883","223.4","2.189","233.3","1011.28","18","68.92","NAN","0.0"],
    [1551258,"2026-04-21 02:10:00","3968","0.212","227.1","0.915","207.1","1011.2","17.68","70.68","NAN","0.0"],
    [1551259,"2026-04-21 02:20:00","3969","0.429","244.2","1.078","249.9","1011.054","17.51","71.1","NAN","0.0"],
    [1551260,"2026-04-21 02:30:00","3970","0.506","224.9","1.045","222.8","1010.951","17.51","70.38","NAN","0.0"],
    [1551261,"2026-04-21 02:40:00","3971","0.687","204.7","1.078","196.7","1010.938","17.19","73.55","NAN","0.0"],
    [1551262,"2026-04-21 02:50:00","3972","0.586","191.1","1.078","196.7","1010.832","16.97","74.85","NAN","0.0"],
    [1551263,"2026-04-21 03:00:00","3973","0.084","179.1","0.6859999999999999","188.1","1010.824","16.8","75.32","NAN","0.0"],
    [1551264,"2026-04-21 03:10:00","3974","0.051","66.3","0.457","64.12","1010.829","16.68","76.92","NAN","0.0"],
    [1551265,"2026-04-21 03:20:00","3975","0.306","200.6","0.784","159.9","1010.82","16.66","75.61","NAN","0.0"],
    [1551266,"2026-04-21 03:30:00","3976","0.11599999999999999","177.4","0.8170000000000001","178.4","1010.799","16.55","76.55","NAN","0.0"],
    [1551267,"2026-04-21 03:40:00","3977","0.166","124.2","0.555","124.5","1010.8","16.52","77.33","NAN","0.0"],
    [1551268,"2026-04-21 03:50:00","3978","0.092","147.0","0.8170000000000001","101.2","1010.715","16.46","77.17","NAN","0.0"],
    [1551269,"2026-04-21 04:00:00","3979","0.258","129.3","0.8170000000000001","101.2","1010.684","16.35","80","NAN","0.0"],
    [1551270,"2026-04-21 04:10:00","3980","0.16699999999999998","163.9","0.555","163.7","1010.666","16.2","81.2","NAN","0.0"],
    [1551271,"2026-04-21 04:20:00","3981","0.01","130.5","0.22899999999999998","130.5","1010.692","16.04","81.8","NAN","0.0"],
    [1551272,"2026-04-21 04:30:00","3982","0.125","189.7","0.49","190.9","1010.72","15.96","82.7","NAN","0.0"],
    [1551273,"2026-04-21 04:40:00","3983","0.11800000000000001","181.4","0.49","175.0","1010.742","15.91","84.2","NAN","0.0"],
    [1551274,"2026-04-21 04:50:00","3984","0.0","0.0","0.0","0.0","1010.7919999999999","15.66","84.1","NAN","0.0"],
    [1551275,"2026-04-21 05:00:00","3985","0.0","0.0","0.0","0.0","1010.7589999999999","15.76","83.3","NAN","0.0"],
    [1551276,"2026-04-21 05:10:00","3986","0.102","188.6","0.555","184.8","1010.8480000000001","15.84","81.9","NAN","0.0"],
    [1551277,"2026-04-21 05:20:00","3987","0.485","178.3","1.143","170.9","1010.8510000000001","15.98","81","NAN","0.0"],
    [1551278,"2026-04-21 05:30:00","3988","0.314","176.3","0.915","171.7","1010.971","15.93","79.66","NAN","0.0"],
    [1551279,"2026-04-21 05:40:00","3989","0.011000000000000001","158.4","0.523","114.2","1011.135","15.9","79.52","NAN","0.0"],
    [1551280,"2026-04-21 05:50:00","3990","0.8220000000000001","108.4","1.699","108.3","1011.2280000000001","15.92","79.32","NAN","0.0"],
    [1551281,"2026-04-21 06:00:00","3991","1.1320000000000001","93.1","1.96","85.8","1011.34","16.15","79.18","NAN","0.0"],
    [1551282,"2026-04-21 06:10:00","3992","0.8759999999999999","80.2","1.535","100.5","1011.3580000000001","16.56","77.26","NAN","0.0"],
    [1551283,"2026-04-21 06:20:00","3993","0.9670000000000001","65.6","2.025","21.13","1011.416","17.07","73.35","NAN","0.0"],
    [1551284,"2026-04-21 06:30:00","3994","1.075","60.1","2.0580000000000003","67.96","1011.431","17.11","71.61","NAN","0.0"],
    [1551285,"2026-04-21 06:40:00","3995","1.075","36.7","2.483","37.7","1011.545","17.06","71.31","NAN","0.0"],
    [1551286,"2026-04-21 06:50:00","3996","1.4769999999999999","43.75","2.875","40.51","1011.5939999999999","17.42","69.66","NAN","0.0"],
    [1551287,"2026-04-21 07:00:00","3997","1.345","49.07","2.221","28.1","1011.63","17.72","68.73","NAN","0.0"],
    [1551288,"2026-04-21 07:10:00","3998","1.097","43.61","2.417","58.47","1011.7130000000001","18.19","67.32","NAN","0.0"],
    [1551289,"2026-04-21 07:20:00","3999","1.043","11.95","2.156","7.3839999999999995","1011.802","18.58","66.09","NAN","0.0"],
    [1551290,"2026-04-21 07:30:00","4000","0.8909999999999999","75.82","2.189","90.4","1011.824","19.31","64.35","NAN","0.0"],
    [1551291,"2026-04-21 07:40:00","4001","1.514","70.63","2.9730000000000003","68.45","1011.816","19.35","64.85","NAN","0.0"],
    [1551292,"2026-04-21 07:50:00","4002","1.168","67.83","2.515","95.0","1011.831","19.5","61.93","NAN","0.0"],
    [1551293,"2026-04-21 08:00:00","4003","1.183","101.2","1.8619999999999999","89.3","1011.8539999999999","19.68","61.89","NAN","0.0"],
    [1551294,"2026-04-21 08:10:00","4004","1.589","123.3","2.45","104.5","1011.8610000000001","19.09","65.43","NAN","0.0"],
    [1551295,"2026-04-21 08:20:00","4005","2.039","115.1","2.8089999999999997","113.7","1011.8839999999999","18.71","67.44","NAN","0.0"],
    [1551296,"2026-04-21 08:30:00","4006","1.916","104.3","2.907","113.9","1011.946","18.95","66.63","NAN","0.0"],
    [1551297,"2026-04-21 08:40:00","4007","1.906","91.0","3.1689999999999996","68.44","1011.961","19.51","64.21","NAN","0.0"],
    [1551298,"2026-04-21 08:50:00","4008","2.166","87.2","4.4430000000000005","73.96","1012.013","19.69","62.77","NAN","0.0"],
    [1551299,"2026-04-21 09:00:00","4009","2.608","83.4","3.985","71.07","1012.08","19.08","65.78","NAN","0.0"],
    [1551300,"2026-04-21 09:10:00","4010","2.8169999999999997","83.2","4.2139999999999995","85.7","1012.07","18.89","67.56","NAN","0.0"],
    [1551301,"2026-04-21 09:20:00","4011","2.5839999999999996","92.3","4.312","73.23","1012.0930000000001","19.13","67.27","NAN","0.0"],
    [1551302,"2026-04-21 09:30:00","4012","2.7739999999999996","105.9","4.41","107.6","1012.17","18.49","70.63","NAN","0.0"],
    [1551303,"2026-04-21 09:40:00","4013","2.184","109.6","3.593","112.4","1012.17","18.21","73.18","NAN","0.0"],
    [1551304,"2026-04-21 09:50:00","4014","1.6219999999999999","119.6","3.136","142.4","1012.173","18.38","73.3","NAN","0.0"],
    [1551305,"2026-04-21 10:00:00","4015","1.7109999999999999","122.0","2.7439999999999998","114.1","1012.14","18.65","73.39","NAN","0.0"],
    [1551306,"2026-04-21 10:10:00","4016","1.745","127.0","3.267","98.5","1012.09","18.46","73.24","NAN","0.0"],
    [1551307,"2026-04-21 10:20:00","4017","1.7530000000000001","126.0","2.8089999999999997","124.6","1012.068","18.3","74.58","NAN","0.0"],
    [1551308,"2026-04-21 10:30:00","4018","1.743","114.5","2.483","111.1","1011.966","18.25","74.75","NAN","0.0"],
    [1551309,"2026-04-21 10:40:00","4019","1.4769999999999999","126.6","2.45","118.9","1011.8860000000001","18.61","72.38","NAN","0.0"],
    [1551310,"2026-04-21 10:50:00","4020","1.671","118.3","2.548","105.8","1011.7669999999999","18.87","72.72","NAN","0.0"],
    [1551311,"2026-04-21 11:00:00","4021","1.6280000000000001","109.5","2.5810000000000004","110.1","1011.7239999999999","19.28","71.01","NAN","0.0"],
    [1551312,"2026-04-21 11:10:00","4022","1.825","113.5","2.6460000000000004","115.3","1011.712","19.58","69.07","NAN","0.0"],
    [1551313,"2026-04-21 11:20:00","4023","1.68","94.7","2.907","69.21","1011.692","19.88","66.86","NAN","0.0"],
    [1551314,"2026-04-21 11:30:00","4024","2.167","115.4","3.103","114.6","1011.58","19.91","65.58","NAN","0.0"],
    [1551315,"2026-04-21 11:40:00","4025","2.41","111.6","3.234","106.5","1011.4780000000001","19.26","70.23","NAN","0.0"],
    [1551316,"2026-04-21 11:50:00","4026","2.287","107.0","3.397","104.4","1011.465","18.82","73.34","NAN","0.0"],
    [1551317,"2026-04-21 12:00:00","4027","2.205","109.5","3.0380000000000003","111.6","1011.3580000000001","18.98","71.91","NAN","0.0"],
    [1551318,"2026-04-21 12:10:00","4028","2.1390000000000002","113.9","3.136","106.1","1011.298","18.83","73.83","NAN","0.0"],
    [1551319,"2026-04-21 12:20:00","4029","1.86","106.0","3.005","104.3","1011.211","19.27","74.04","NAN","0.0"],
    [1551320,"2026-04-21 12:30:00","4030","2.051","107.9","2.7110000000000003","111.5","1011.1339999999999","19.13","73.01","NAN","0.0"],
    [1551321,"2026-04-21 12:40:00","4031","1.8559999999999999","123.3","3.234","107.4","1011.1419999999999","19.18","74","NAN","0.0"],
    [1551322,"2026-04-21 12:50:00","4032","1.618","120.9","2.679","105.5","1011.1210000000001","19.26","72.75","NAN","0.0"],
    [1551323,"2026-04-21 13:00:00","4033","1.7","115.7","2.842","146.1","1011.0939999999999","19.52","72.28","NAN","0.0"],
    [1551324,"2026-04-21 13:10:00","4034","1.6640000000000001","116.9","2.8089999999999997","104.4","1011.056","19.43","72.84","NAN","0.0"],
    [1551325,"2026-04-21 13:20:00","4035","1.7630000000000001","115.6","2.842","104.2","1010.952","19.56","73.28","NAN","0.0"],
    [1551326,"2026-04-21 13:30:00","4036","1.766","111.3","2.875","100.8","1010.875","19.4","74.6","NAN","0.0"],
    [1551327,"2026-04-21 13:40:00","4037","1.675","114.2","2.7769999999999997","114.0","1010.92","19.47","74.95","NAN","0.0"],
    [1551328,"2026-04-21 13:50:00","4038","1.662","125.4","2.9730000000000003","115.5","1010.855","19.46","75.06","NAN","0.0"],
    [1551329,"2026-04-21 14:00:00","4039","1.547","125.9","2.7769999999999997","122.7","1010.86","19.43","75.59","NAN","0.0"],
    [1551330,"2026-04-21 14:10:00","4040","1.5519999999999998","118.4","2.875","145.6","1010.81","19.52","75.6","NAN","0.0"],
    [1551331,"2026-04-21 14:20:00","4041","1.973","111.8","2.8089999999999997","108.6","1010.7180000000001","19.64","75.22","NAN","0.0"],
    [1551332,"2026-04-21 14:30:00","4042","2.201","124.0","3.332","146.2","1010.665","19.18","78.13","NAN","0.0"],
    [1551333,"2026-04-21 14:40:00","4043","2.106","120.4","3.234","112.6","1010.5089999999999","19.2","81.1","NAN","0.0"],
    [1551334,"2026-04-21 14:50:00","4044","1.944","128.0","3.0380000000000003","110.8","1010.4689999999999","19.38","80.9","NAN","0.0"],
    [1551335,"2026-04-21 15:00:00","4045","2.6289999999999996","116.3","4.1160000000000005","104.3","1010.319","19.2","82.9","NAN","0.0"],
    [1551336,"2026-04-21 15:10:00","4046","2.0909999999999997","172.0","3.6910000000000003","186.7","1010.227","19.41","81.5","NAN","0.0"],
    [1551337,"2026-04-21 15:20:00","4047","2.187","182.4","3.593","185.2","1010.185","19.26","82.2","NAN","0.0"],
    [1551338,"2026-04-21 15:30:00","4048","2.262","159.9","3.528","165.3","1010.05","19.28","82","NAN","0.0"],
    [1551339,"2026-04-21 15:40:00","4049","2.242","168.9","3.332","147.2","1010.1310000000001","19.32","79.37","NAN","0.0"],
    [1551340,"2026-04-21 15:50:00","4050","2.438","173.0","3.299","178.5","1010.12","19.39","72.84","NAN","0.0"],
    [1551341,"2026-04-21 16:00:00","4051","2.7560000000000002","174.2","3.822","182.7","1010.155","19.25","75.3","NAN","0.0"],
    [1551342,"2026-04-21 16:10:00","4052","2.745","175.5","4.083","177.9","1010.1030000000001","19.16","74.91","NAN","0.0"],
    [1551343,"2026-04-21 16:20:00","4053","2.657","173.0","4.083","181.3","1010.063","19.11","73.85","NAN","0.0"],
    [1551344,"2026-04-21 16:30:00","4054","2.245","169.1","3.234","174.5","1010.08","19.26","75.29","NAN","0.0"],
    [1551345,"2026-04-21 16:40:00","4055","2.33","172.4","3.365","168.2","1010.155","19.38","74.63","NAN","0.0"],
    [1551346,"2026-04-21 16:50:00","4056","2.499","176.7","3.528","179.6","1010.043","19.15","80","NAN","0.0"],
    [1551347,"2026-04-21 17:00:00","4057","2.965","177.4","4.4430000000000005","182.2","1009.971","18.84","83.1","NAN","0.0"],
    [1551348,"2026-04-21 17:10:00","4058","2.293","172.5","3.6910000000000003","176.4","1009.9680000000001","18.95","81.5","NAN","0.0"],
    [1551349,"2026-04-21 17:20:00","4059","2.298","174.7","3.43","182.0","1009.988","19.1","79.16","NAN","0.0"],
    [1551350,"2026-04-21 17:30:00","4060","2.042","172.6","2.9730000000000003","169.1","1010.193","19.08","79.05","NAN","0.0"],
    [1551351,"2026-04-21 17:40:00","4061","2.2640000000000002","179.2","3.397","182.3","1010.227","19.07","77.98","NAN","0.0"],
    [1551352,"2026-04-21 17:50:00","4062","2.2680000000000002","180.7","3.365","180.9","1010.2389999999999","18.93","80.1","NAN","0.0"],
    [1551353,"2026-04-21 18:00:00","4063","1.9509999999999998","174.2","3.136","183.7","1010.307","18.71","81.4","NAN","0.0"],
    [1551354,"2026-04-21 18:10:00","4064","2.313","177.4","3.365","181.4","1010.453","18.54","82.5","NAN","0.0"],
    [1551355,"2026-04-21 18:20:00","4065","2.193","178.7","3.397","180.0","1010.561","18.36","83.8","NAN","0.0"],
    [1551356,"2026-04-21 18:30:00","4066","1.9169999999999998","168.6","2.907","162.2","1010.591","18.35","84.4","NAN","0.0"],
    [1551357,"2026-04-21 18:40:00","4067","1.848","173.8","3.201","183.9","1010.668","18.23","85.8","NAN","0.0"],
    [1551358,"2026-04-21 18:50:00","4068","2.127","174.5","3.365","191.4","1010.65","18.1","86.8","NAN","0.0"],
    [1551359,"2026-04-21 19:00:00","4069","1.609","193.3","3.1689999999999996","168.8","1010.5360000000001","18.04","87.2","NAN","0.0"],
    [1551360,"2026-04-21 19:10:00","4070","1.327","199.0","2.45","207.6","1010.664","18.23","83","NAN","0.0"],
    [1551361,"2026-04-21 19:20:00","4071","1.6269999999999998","207.2","2.9730000000000003","217.6","1010.789","18.56","78.97","NAN","0.0"],
    [1551362,"2026-04-21 19:30:00","4072","1.4880000000000002","211.0","2.7110000000000003","217.0","1010.789","18.93","77.16","NAN","0.0"],
    [1551363,"2026-04-21 19:40:00","4073","0.922","208.8","2.0580000000000003","205.1","1010.785","18.78","79.51","NAN","0.0"],
    [1551364,"2026-04-21 19:50:00","4074","1.16","209.1","2.254","198.3","1010.821","18.6","80.9","NAN","0.0"],
    [1551365,"2026-04-21 20:00:00","4075","1.339","220.3","2.7110000000000003","243.6","1010.9010000000001","18.61","80.4","NAN","0.0"],
    [1551366,"2026-04-21 20:10:00","4076","1.318","216.8","2.7110000000000003","227.1","1010.91","18.63","79.36","NAN","0.0"],
    [1551367,"2026-04-21 20:20:00","4077","1.7380000000000002","215.8","3.332","214.7","1010.9169999999999","18.64","79.92","NAN","0.0"],
    [1551368,"2026-04-21 20:30:00","4078","1.501","206.2","2.7110000000000003","204.6","1010.9119999999999","18.51","81.2","NAN","0.0"],
    [1551369,"2026-04-21 20:40:00","4079","1.147","224.9","3.103","223.7","1010.8610000000001","18.47","81.9","NAN","0.0"],
    [1551370,"2026-04-21 20:50:00","4080","1.45","228.6","3.6260000000000003","245.3","1010.893","18.58","81.1","NAN","0.0"],
    [1551371,"2026-04-21 21:00:00","4081","1.25","225.7","3.103","226.7","1010.841","18.55","81.5","NAN","0.0"],
    [1551372,"2026-04-21 21:10:00","4082","1.715","234.8","3.528","234.8","1010.942","18.65","80.5","NAN","0.0"],
    [1551373,"2026-04-21 21:20:00","4083","2.117","243.9","3.9530000000000003","238.7","1010.99","18.56","80.4","NAN","0.0"],
    [1551374,"2026-04-21 21:30:00","4084","1.702","236.0","3.855","255.4","1010.91","18.62","78.71","NAN","0.0"],
    [1551375,"2026-04-21 21:40:00","4085","1.694","242.5","3.495","224.7","1010.923","18.63","77.82","NAN","0.0"],
    [1551376,"2026-04-21 21:50:00","4086","1.26","234.9","2.94","236.0","1010.93","18.59","78.38","NAN","0.0"],
    [1551377,"2026-04-21 22:00:00","4087","1.068","232.9","2.9730000000000003","234.6","1010.965","18.54","79.32","NAN","0.0"],
    [1551378,"2026-04-21 22:10:00","4088","1.5290000000000001","225.8","3.234","255.0","1010.9830000000001","18.44","77.97","NAN","0.0"],
    [1551379,"2026-04-21 22:20:00","4089","2.14","241.2","4.018","219.3","1011.074","18.33","78.33","NAN","0.0"],
    [1551380,"2026-04-21 22:30:00","4090","2.1430000000000002","238.6","3.887","230.9","1011.209","18.25","75.94","NAN","0.0"],
    [1551381,"2026-04-21 22:40:00","4091","2.169","244.2","3.659","237.2","1011.2919999999999","18.26","72.71","NAN","0.0"],
    [1551382,"2026-04-21 22:50:00","4092","2.185","240.6","3.528","218.4","1011.2769999999999","18.32","68.95","NAN","0.0"],
    [1551383,"2026-04-21 23:00:00","4093","2.285","239.0","3.855","242.5","1011.2719999999999","18.29","66.52","NAN","0.0"],
    [1551384,"2026-04-21 23:10:00","4094","1.712","238.3","3.299","221.9","1011.201","18.23","65.24","NAN","0.0"],
    [1551385,"2026-04-21 23:20:00","4095","1.251","244.9","2.679","242.6","1011.1460000000001","18.23","63.58","NAN","0.0"],
    [1551386,"2026-04-21 23:30:00","4096","1.168","250.2","2.45","230.3","1011.16","18.26","62.16","NAN","0.0"],
    [1551387,"2026-04-21 23:40:00","4097","1.156","239.6","2.221","290.8","1011.1569999999999","18.2","60.67","NAN","0.0"],
    [1551388,"2026-04-21 23:50:00","4098","0.927","228.4","2.156","224.0","1011.183","18.17","58.64","NAN","0.0"],
    [1551389,"2026-04-22 00:00:00","4099","1.0170000000000001","216.2","2.123","230.8","1011.2739999999999","18.08","55.38","NAN","0.0"],
    [1551390,"2026-04-22 00:10:00","4100","0.594","218.1","1.307","253.2","1011.3389999999999","18.21","52","NAN","0.0"],
    [1551391,"2026-04-22 00:20:00","4101","1.22","235.8","3.071","241.6","1011.427","18.26","54.12","NAN","0.0"],
    [1551392,"2026-04-22 00:30:00","4102","1.4909999999999999","242.4","3.593","214.4","1011.367","18.12","58.42","NAN","0.0"],
    [1551393,"2026-04-22 00:40:00","4103","1.213","244.2","2.9730000000000003","236.7","1011.297","18.04","58.77","NAN","0.0"],
    [1551394,"2026-04-22 00:50:00","4104","1.909","241.1","3.365","232.8","1011.295","17.98","56.68","NAN","0.0"],
    [1551395,"2026-04-22 01:00:00","4105","1.354","226.8","2.9730000000000003","244.0","1011.196","18","55.28","NAN","0.0"],
    [1551396,"2026-04-22 01:10:00","4106","0.35","177.9","0.915","183.9","1010.8330000000001","17.72","57.64","NAN","0.0"],
    [1551397,"2026-04-22 01:20:00","4107","0.013999999999999999","257.8","0.327","264.1","1010.669","17.46","57.08","NAN","0.0"],
    [1551398,"2026-04-22 01:30:00","4108","0.5760000000000001","194.2","0.98","180.3","1010.538","17.49","58.05","NAN","0.0"],
    [1551399,"2026-04-22 01:40:00","4109","0.513","196.7","1.045","174.7","1010.318","17.43","57.68","NAN","0.0"],
    [1551400,"2026-04-22 01:50:00","4110","0.431","223.3","1.143","201.7","1010.32","17.65","53.63","NAN","0.0"],
    [1551401,"2026-04-22 02:00:00","4111","0.599","186.3","0.9470000000000001","206.5","1010.318","17.27","63.45","NAN","0.0"],
    [1551402,"2026-04-22 02:10:00","4112","0.35","111.0","0.653","111.7","1010.321","16.93","62.96","NAN","0.0"],
    [1551403,"2026-04-22 02:20:00","4113","0.001","145.6","0.131","162.3","1010.332","16.9","63.33","NAN","0.0"],
    [1551404,"2026-04-22 02:30:00","4114","0.20600000000000002","110.3","0.784","111.5","1010.31","16.79","66.32","NAN","0.0"],
    [1551405,"2026-04-22 02:40:00","4115","0.359","199.5","0.6859999999999999","202.9","1010.2289999999999","16.79","67.75","NAN","0.0"],
    [1551406,"2026-04-22 02:50:00","4116","0.061","168.6","0.49","168.8","1010.2239999999999","16.6","70.6","NAN","0.0"],
    [1551407,"2026-04-22 03:00:00","4117","0.0","0.0","0.0","0.0","1010.107","16.33","69.26","NAN","0.0"],
    [1551408,"2026-04-22 03:10:00","4118","0.039","148.1","0.425","147.7","1010.091","16.43","67.35","NAN","0.0"],
    [1551409,"2026-04-22 03:20:00","4119","0.023","148.2","0.392","147.7","1010.077","16.44","65.05","NAN","0.0"],
    [1551410,"2026-04-22 03:30:00","4120","0.29","165.6","0.8170000000000001","147.6","1010.078","16.41","67.61","NAN","0.0"],
    [1551411,"2026-04-22 03:40:00","4121","0.6509999999999999","235.2","1.895","237.4","1010.023","16.77","58.88","NAN","0.0"],
    [1551412,"2026-04-22 03:50:00","4122","1.091","245.6","2.0909999999999997","238.2","1009.8610000000001","17.51","50.95","NAN","0.0"],
    [1551413,"2026-04-22 04:00:00","4123","1.315","242.8","2.613","242.8","1010.0239999999999","17.57","51.98","NAN","0.0"],
    [1551414,"2026-04-22 04:10:00","4124","1.58","242.2","3.397","218.5","1010.181","17.64","53.11","NAN","0.0"],
    [1551415,"2026-04-22 04:20:00","4125","1.153","223.9","2.6460000000000004","224.2","1010.312","17.45","57.94","NAN","0.0"],
    [1551416,"2026-04-22 04:30:00","4126","1.102","222.8","2.613","254.1","1010.334","17.08","63.84","NAN","0.0"],
    [1551417,"2026-04-22 04:40:00","4127","1.199","207.5","3.201","240.5","1010.329","16.73","69.38","NAN","0.0"],
    [1551418,"2026-04-22 04:50:00","4128","1.7480000000000002","220.7","4.2139999999999995","237.6","1010.3539999999999","16.54","73.22","NAN","0.0"],
    [1551419,"2026-04-22 05:00:00","4129","2.012","233.6","4.018","260.7","1010.492","16.47","76.62","NAN","0.0"],
    [1551420,"2026-04-22 05:10:00","4130","1.91","229.9","3.7889999999999997","219.9","1010.6030000000001","16.28","82","NAN","0.0"],
    [1551421,"2026-04-22 05:20:00","4131","1.675","235.5","3.299","244.9","1010.7660000000001","16.2","85","NAN","0.0"],
    [1551422,"2026-04-22 05:30:00","4132","1.123","233.4","3.332","264.5","1010.89","16.25","83.9","NAN","0.0"],
    [1551423,"2026-04-22 05:40:00","4133","1.141","245.7","2.5810000000000004","264.0","1011.1410000000001","16.48","80.9","NAN","0.0"],
    [1551424,"2026-04-22 05:50:00","4134","1.304","251.4","2.483","236.4","1011.335","16.91","78.45","NAN","0.0"],
    [1551425,"2026-04-22 06:00:00","4135","1.3659999999999999","236.9","3.1689999999999996","240.7","1011.47","17.08","77.44","NAN","0.0"],
    [1551426,"2026-04-22 06:10:00","4136","1.194","251.3","2.515","222.8","1011.426","17.28","77.23","NAN","0.0"],
    [1551427,"2026-04-22 06:20:00","4137","0.878","223.6","2.0580000000000003","232.5","1011.425","17.55","75.24","NAN","0.0"],
    [1551428,"2026-04-22 06:30:00","4138","0.917","208.3","1.7309999999999999","243.7","1011.61","17.65","73.49","NAN","0.0"],
    [1551429,"2026-04-22 06:40:00","4139","0.691","173.1","1.666","171.5","1011.745","17.82","72.37","NAN","0.0"],
    [1551430,"2026-04-22 06:50:00","4140","1.0","181.5","1.601","159.6","1011.9989999999999","17.84","70.53","NAN","0.0"],
    [1551431,"2026-04-22 07:00:00","4141","0.9440000000000001","152.1","1.3719999999999999","156.9","1011.9989999999999","17.93","68.61","NAN","0.0"],
    [1551432,"2026-04-22 07:10:00","4142","0.9390000000000001","111.7","1.699","97.3","1012.207","18.05","71","NAN","0.0"],
    [1551433,"2026-04-22 07:20:00","4143","1.5","91.7","2.417","83.1","1012.2639999999999","17.83","72.82","NAN","0.0"],
    [1551434,"2026-04-22 07:30:00","4144","1.138","120.3","2.025","110.2","1012.302","17.64","74.3","NAN","0.0"],
    [1551435,"2026-04-22 07:40:00","4145","1.0979999999999999","111.5","2.025","119.0","1012.4760000000001","18.05","72.87","NAN","0.0"],
    [1551436,"2026-04-22 07:50:00","4146","1.311","127.5","2.254","121.6","1012.671","17.83","73.11","NAN","0.0"],
    [1551437,"2026-04-22 08:00:00","4147","1.175","129.7","1.993","117.1","1012.7080000000001","17.56","73.13","NAN","0.0"],
    [1551438,"2026-04-22 08:10:00","4148","1.115","128.4","1.993","112.9","1012.7","18.03","70.82","NAN","0.0"],
    [1551439,"2026-04-22 08:20:00","4149","1.3869999999999998","126.9","2.123","115.1","1012.686","18","69.36","NAN","0.0"],
    [1551440,"2026-04-22 08:30:00","4150","1.253","127.5","1.764","115.7","1012.801","18.05","68.35","NAN","0.0"],
    [1551441,"2026-04-22 08:40:00","4151","1.093","132.1","1.699","125.6","1012.997","18.59","66.44","NAN","0.0"],
    [1551442,"2026-04-22 08:50:00","4152","1.2329999999999999","132.2","1.9269999999999998","111.1","1012.96","19.11","61.27","NAN","0.0"],
    [1551443,"2026-04-22 09:00:00","4153","1.2570000000000001","113.0","1.96","95.7","1012.995","19.53","57.65","NAN","0.0"],
    [1551444,"2026-04-22 09:10:00","4154","1.4240000000000002","115.2","2.254","92.5","1013.0219999999999","19.78","56.18","NAN","0.0"],
    [1551445,"2026-04-22 09:20:00","4155","1.5759999999999998","116.9","2.319","105.6","1013.154","19.44","60.54","NAN","0.0"],
    [1551446,"2026-04-22 09:30:00","4156","1.617","111.4","2.417","107.2","1013.166","19.53","63.31","NAN","0.0"],
    [1551447,"2026-04-22 09:40:00","4157","1.693","118.9","2.94","99.4","1013.189","19.4","65.89","NAN","0.0"],
    [1551448,"2026-04-22 09:50:00","4158","1.807","106.5","2.8089999999999997","109.9","1013.2139999999999","19.12","68.95","NAN","0.0"],
    [1551449,"2026-04-22 10:00:00","4159","1.86","115.7","3.136","103.0","1013.2860000000001","18.82","71.85","NAN","0.0"],
    [1551450,"2026-04-22 10:10:00","4160","2.116","100.7","3.071","104.3","1013.3710000000001","18.76","73.08","NAN","0.0"],
    [1551451,"2026-04-22 10:20:00","4161","2.103","90.0","3.365","83.0","1013.3510000000001","19.09","72.21","NAN","0.0"],
    [1551452,"2026-04-22 10:30:00","4162","2.363","94.7","3.887","84.5","1013.398","19.16","72.08","NAN","0.0"],
    [1551453,"2026-04-22 10:40:00","4163","2.474","98.0","4.247","64.33","1013.37","19.12","73.49","NAN","0.0"],
    [1551454,"2026-04-22 10:50:00","4164","2.742","84.7","3.985","70.29","1013.318","18.94","75.48","NAN","0.0"],
    [1551455,"2026-04-22 11:00:00","4165","2.9539999999999997","104.8","4.802","106.6","1013.3330000000001","18.85","79.38","NAN","0.0"],
    [1551456,"2026-04-22 11:10:00","4166","3.187","80.8","4.867","88.1","1013.341","18.78","81.5","NAN","0.0"],
    [1551457,"2026-04-22 11:20:00","4167","2.642","86.4","4.737","79.48","1013.4580000000001","18.72","82.8","NAN","0.0"],
    [1551458,"2026-04-22 11:30:00","4168","2.8810000000000002","102.4","5.422999999999999","101.8","1013.413","18.9","81.3","NAN","0.0"],
    [1551459,"2026-04-22 11:40:00","4169","3.275","108.6","5.194","109.2","1013.388","18.4","84.1","NAN","0.0"],
    [1551460,"2026-04-22 11:50:00","4170","3.145","107.4","4.737","104.4","1013.543","18.27","85.6","NAN","0.0"],
    [1551461,"2026-04-22 12:00:00","4171","2.589","99.4","4.247","107.3","1013.6469999999999","18.7","84.8","NAN","0.0"],
    [1551462,"2026-04-22 12:10:00","4172","3.16","106.5","5.227","112.0","1013.607","18.45","85.6","NAN","0.0"],
    [1551463,"2026-04-22 12:20:00","4173","2.949","106.5","5.129","105.7","1013.615","18.74","84.4","NAN","0.0"],
    [1551464,"2026-04-22 12:30:00","4174","2.906","105.4","4.802","106.3","1013.6439999999999","18.81","84.1","NAN","0.0"],
    [1551465,"2026-04-22 12:40:00","4175","3.111","104.1","5.422999999999999","109.6","1013.7669999999999","18.84","84","NAN","0.0"],
    [1551466,"2026-04-22 12:50:00","4176","3.117","99.2","4.802","95.6","1013.8789999999999","18.86","84.5","NAN","0.0"],
    [1551467,"2026-04-22 13:00:00","4177","3.343","111.5","5.1610000000000005","113.1","1013.909","18.89","84.9","NAN","0.0"],
    [1551468,"2026-04-22 13:10:00","4178","3.7319999999999998","104.6","6.109","99.6","1013.926","18.51","86.8","NAN","0.0"],
    [1551469,"2026-04-22 13:20:00","4179","3.32","89.9","5.651","98.9","1013.993","18.36","85.1","NAN","0.0"],
    [1551470,"2026-04-22 13:30:00","4180","3.528","91.4","6.239","85.3","1013.883","18.35","78.62","NAN","0.0"],
    [1551471,"2026-04-22 13:40:00","4181","3.595","97.5","6.109","91.1","1013.827","18.34","77.8","NAN","0.0"],
    [1551472,"2026-04-22 13:50:00","4182","3.11","90.7","5.129","101.1","1013.883","18.45","77.07","NAN","0.0"],
    [1551473,"2026-04-22 14:00:00","4183","2.792","80.7","4.933","74.18","1013.7739999999999","18.56","77.51","NAN","0.0"],
    [1551474,"2026-04-22 14:10:00","4184","3.048","89.5","5.2589999999999995","92.0","1013.8860000000001","18.56","77.04","NAN","0.0"],
    [1551475,"2026-04-22 14:20:00","4185","3.033","81.0","5.194","78.9","1013.8939999999999","18.77","75.07","NAN","0.0"],
    [1551476,"2026-04-22 14:30:00","4186","2.718","86.5","4.965","46.33","1014.0930000000001","18.96","74.14","NAN","0.0"],
    [1551477,"2026-04-22 14:40:00","4187","2.745","70.1","4.933","81.1","1014.172","18.49","78.14","NAN","0.0"],
    [1551478,"2026-04-22 14:50:00","4188","2.615","84.6","4.083","62.43","1014.0260000000001","18.49","79.01","NAN","0.0"],
    [1551479,"2026-04-22 15:00:00","4189","2.71","82.9","4.41","90.5","1014.096","18.31","79.84","NAN","0.0"],
    [1551480,"2026-04-22 15:10:00","4190","2.898","74.07","4.769","69.18","1014.185","18.24","80.6","NAN","0.0"],
    [1551481,"2026-04-22 15:20:00","4191","2.367","71.6","4.508","67.47","1014.33","18.32","81.2","NAN","0.0"],
    [1551482,"2026-04-22 15:30:00","4192","2.7739999999999996","64.14","4.508","58.77","1014.4019999999999","17.97","82.9","NAN","0.0"],
    [1551483,"2026-04-22 15:40:00","4193","2.779","64.0","5.586","72.07","1014.5189999999999","17.87","84","NAN","0.0"],
    [1551484,"2026-04-22 15:50:00","4194","3.737","87.3","5.815","92.0","1014.597","17.8","84.6","NAN","0.0"],
    [1551485,"2026-04-22 16:00:00","4195","3.6180000000000003","80.9","6.042999999999999","88.1","1014.725","18.04","83.8","NAN","0.0"],
    [1551486,"2026-04-22 16:10:00","4196","3.6069999999999998","82.3","6.631","77.5","1014.788","18.11","82.5","NAN","0.0"],
    [1551487,"2026-04-22 16:20:00","4197","4.087","78.39","6.827000000000001","66.24","1014.7239999999999","17.67","83","NAN","0.0"],
    [1551488,"2026-04-22 16:30:00","4198","3.7289999999999996","85.7","5.749","87.9","1014.76","17.73","82.8","NAN","0.0"],
    [1551489,"2026-04-22 16:40:00","4199","3.359","80.7","5.553","77.79","1014.738","17.85","82.1","NAN","0.0"],
    [1551490,"2026-04-22 16:50:00","4200","2.855","71.56","6.5329999999999995","109.4","1014.669","17.72","81.9","NAN","0.0"],
    [1551491,"2026-04-22 17:00:00","4201","2.673","75.48","4.606","70.21","1014.675","17.99","79.38","NAN","0.0"],
    [1551492,"2026-04-22 17:10:00","4202","2.802","74.71","5.292000000000001","56.33","1014.487","17.79","80.1","NAN","0.0"],
    [1551493,"2026-04-22 17:20:00","4203","2.752","74.11","5.455","93.2","1014.6060000000001","17.8","80.6","NAN","0.0"],
    [1551494,"2026-04-22 17:30:00","4204","2.457","68.38","4.508","105.9","1014.87","17.57","82.9","NAN","0.0"],
    [1551495,"2026-04-22 17:40:00","4205","2.2","80.4","4.018","87.1","1015.143","17.65","83.8","NAN","0.0"],
    [1551496,"2026-04-22 17:50:00","4206","2.126","97.1","4.475","90.0","1015.682","17.29","86.7","NAN","0.0"],
    [1551497,"2026-04-22 18:00:00","4207","2.2230000000000003","79.55","3.7239999999999998","69.7","1015.846","17.1","88.5","NAN","0.0"],
    [1551498,"2026-04-22 18:10:00","4208","1.455","80.4","2.9730000000000003","58.42","1015.939","17.2","88.6","NAN","0.0"],
    [1551499,"2026-04-22 18:20:00","4209","2.237","84.6","3.887","92.3","1015.931","17.3","88.5","NAN","0.0"],
    [1551500,"2026-04-22 18:30:00","4210","2.347","69.48","3.7889999999999997","63.89","1015.9860000000001","17.21","89.3","NAN","0.0"],
    [1551501,"2026-04-22 18:40:00","4211","1.726","79.13","4.475","80.4","1016.1310000000001","17.17","89.8","NAN","0.0"],
    [1551502,"2026-04-22 18:50:00","4212","1.9469999999999998","93.6","4.377","105.6","1016.309","17.29","89.7","NAN","0.0"],
    [1551503,"2026-04-22 19:00:00","4213","2.406","74.07","4.508","67.21","1016.331","17.36","89.8","NAN","0.0"],
    [1551504,"2026-04-22 19:10:00","4214","3.201","81.8","7.154","104.4","1016.2639999999999","17.2","89.9","NAN","0.0"],
    [1551505,"2026-04-22 19:20:00","4215","3.7510000000000003","83.7","7.807","83.8","1016.173","17.12","89.5","NAN","0.0"],
    [1551506,"2026-04-22 19:30:00","4216","3.605","83.0","6.7620000000000005","82.8","1016.375","17.02","90.2","NAN","0.0"],
    [1551507,"2026-04-22 19:40:00","4217","2.9810000000000003","70.23","5.782","73.41","1016.555","16.99","90.4","NAN","0.0"],
    [1551508,"2026-04-22 19:50:00","4218","3.656","65.4","7.807","73.81","1016.692","16.94","89.4","NAN","0.0"],
    [1551509,"2026-04-22 20:00:00","4219","3.505","70.94","8.66","59.95","1016.8480000000001","17.05","87.7","NAN","0.0"],
    [1551510,"2026-04-22 20:10:00","4220","3.594","69.76","7.742000000000001","73.12","1016.948","17.15","86","NAN","0.0"],
    [1551511,"2026-04-22 20:20:00","4221","4.406000000000001","68.9","8.82","76.6","1017.1260000000001","17.1","85.8","NAN","0.0"],
    [1551512,"2026-04-22 20:30:00","4222","4.434","67.61","7.742000000000001","65.51","1017.316","17.09","85.3","NAN","0.0"],
    [1551513,"2026-04-22 20:40:00","4223","3.5980000000000003","68.98","6.599","74.05","1017.498","17.09","84.5","NAN","0.0"],
    [1551514,"2026-04-22 20:50:00","4224","3.571","76.03","7.546","71.97","1017.623","17.09","83.8","NAN","0.0"],
    [1551515,"2026-04-22 21:00:00","4225","3.6210000000000004","72.97","6.403","65.5","1017.66","17.09","83.4","NAN","0.0"],
    [1551516,"2026-04-22 21:10:00","4226","3.787","69.15","6.468","64.77","1017.682","17.12","83.3","NAN","0.0"],
    [1551517,"2026-04-22 21:20:00","4227","3.985","70.81","7.35","75.85","1017.805","17.1","83","NAN","0.0"],
    [1551518,"2026-04-22 21:30:00","4228","4.163","71.34","8.0","78.73","1017.9069999999999","17.07","83.2","NAN","0.0"],
    [1551519,"2026-04-22 21:40:00","4229","3.8710000000000004","66.89","7.023","67.36","1018.166","17.07","83.7","NAN","0.0"],
    [1551520,"2026-04-22 21:50:00","4230","2.991","80.2","6.468","95.6","1018.4810000000001","17.17","84.2","NAN","0.0"],
    [1551521,"2026-04-22 22:00:00","4231","3.839","77.14","7.317","74.63","1018.69","17.05","86.7","NAN","0.0"],
    [1551522,"2026-04-22 22:10:00","4232","4.099","71.23","8.33","64.64","1018.7180000000001","16.88","88.4","NAN","0.0"],
    [1551523,"2026-04-22 22:20:00","4233","3.4530000000000003","69.85","7.742000000000001","63.91","1018.7710000000001","16.8","89.2","NAN","0.0"],
    [1551524,"2026-04-22 22:30:00","4234","3.1310000000000002","72.27","8.59","84.6","1018.8760000000001","16.79","89.5","NAN","0.0"],
    [1551525,"2026-04-22 22:40:00","4235","4.105","70.32","8.07","67.06","1018.8","16.76","89.6","NAN","0.0"],
    [1551526,"2026-04-22 22:50:00","4236","4.874","67.26","8.23","57.04","1018.571","16.63","90.2","NAN","0.0"],
    [1551527,"2026-04-22 23:00:00","4237","4.9510000000000005","68.5","8.43","71.63","1018.3969999999999","16.55","90.8","NAN","0.0"],
    [1551528,"2026-04-22 23:10:00","4238","5.575","71.63","10.22","76.83","1018.357","16.5","90.6","NAN","0.0"],
    [1551529,"2026-04-22 23:20:00","4239","5.562","74.38","8.46","51.38","1018.211","16.45","90.3","NAN","0.0"],
    [1551530,"2026-04-22 23:30:00","4240","3.991","71.4","8.82","66.3","1018.409","16.48","89.7","NAN","0.0"],
    [1551531,"2026-04-22 23:40:00","4241","4.325","78.09","8.07","95.2","1018.472","16.46","88.9","NAN","0.0"],
    [1551532,"2026-04-22 23:50:00","4242","4.92","70.0","9.67","70.11","1018.566","16.4","88.4","NAN","0.0"],
    [1551533,"2026-04-23 00:00:00","4243","4.687","69.89","7.742000000000001","83.7","1018.6289999999999","16.37","88.1","NAN","0.0"],
    [1551534,"2026-04-23 00:10:00","4244","4.776","71.68","7.971","56.8","1018.592","16.35","87.8","NAN","0.0"],
    [1551535,"2026-04-23 00:20:00","4245","4.564","71.35","8.23","56.72","1018.6339999999999","16.31","87.4","NAN","0.0"],
    [1551536,"2026-04-23 00:30:00","4246","4.173","69.46","8.43","61.94","1018.5989999999999","16.3","86.8","NAN","0.0"],
    [1551537,"2026-04-23 00:40:00","4247","4.681","71.53","9.67","71.11","1018.6089999999999","16.25","86.5","NAN","0.0"],
    [1551538,"2026-04-23 00:50:00","4248","4.325","70.1","7.742000000000001","39.96","1018.64","16.28","85.9","NAN","0.0"],
    [1551539,"2026-04-23 01:00:00","4249","4.426","68.86","8.07","80.5","1018.7589999999999","16.28","85.7","NAN","0.0"],
    [1551540,"2026-04-23 01:10:00","4250","4.527","72.45","8.46","74.57","1018.7410000000001","16.28","85.1","NAN","0.0"],
    [1551541,"2026-04-23 01:20:00","4251","4.763999999999999","74.93","8.4","68.15","1018.681","16.31","83.6","NAN","0.0"],
    [1551542,"2026-04-23 01:30:00","4252","4.968","73.24","9.47","80.3","1018.796","16.38","81.9","NAN","0.0"],
    [1551543,"2026-04-23 01:40:00","4253","4.821000000000001","71.61","8.23","68.4","1018.822","16.31","82.1","NAN","0.0"],
    [1551544,"2026-04-23 01:50:00","4254","4.14","68.88","7.546","75.36","1018.811","16.23","83.2","NAN","0.0"],
    [1551545,"2026-04-23 02:00:00","4255","3.1260000000000003","72.18","7.317","64.48","1018.857","16.16","84.2","NAN","0.0"],
    [1551546,"2026-04-23 02:10:00","4256","4.496","74.43","7.905","64.34","1018.905","16.12","83.9","NAN","0.0"],
    [1551547,"2026-04-23 02:20:00","4257","3.7","74.65","7.285","64.24","1018.9739999999999","16.1","84.1","NAN","0.0"],
    [1551548,"2026-04-23 02:30:00","4258","3.2310000000000003","71.14","6.109","84.4","1018.945","16.08","84.4","NAN","0.0"],
    [1551549,"2026-04-23 02:40:00","4259","3.8569999999999998","70.85","6.925","78.6","1018.9069999999999","16.02","84.5","NAN","0.0"],
    [1551550,"2026-04-23 02:50:00","4260","3.534","73.58","7.056","81.6","1018.956","16.02","85.2","NAN","0.0"],
    [1551551,"2026-04-23 03:00:00","4261","3.477","72.9","5.651","83.1","1018.9110000000001","16","84.9","NAN","0.0"],
    [1551552,"2026-04-23 03:10:00","4262","3.315","74.29","6.37","86.0","1018.961","15.99","85.4","NAN","0.0"],
    [1551553,"2026-04-23 03:20:00","4263","3.6060000000000003","75.86","6.042999999999999","54.98","1018.916","15.95","85.9","NAN","0.0"],
    [1551554,"2026-04-23 03:30:00","4264","3.219","68.31","5.749","83.4","1018.951","15.89","86.2","NAN","0.0"],
    [1551555,"2026-04-23 03:40:00","4265","3.085","69.36","5.521","51.96","1019.06","15.88","86.3","NAN","0.0"],
    [1551556,"2026-04-23 03:50:00","4266","3.321","72.46","6.337000000000001","70.64","1019.065","15.84","86.8","NAN","0.0"],
    [1551557,"2026-04-23 04:00:00","4267","3.8539999999999996","69.86","7.317","71.77","1019.034","15.83","85.7","NAN","0.0"],
    [1551558,"2026-04-23 04:10:00","4268","2.065","64.79","4.508","83.7","1019.073","15.94","84.2","NAN","0.0"],
    [1551559,"2026-04-23 04:20:00","4269","1.955","72.97","4.312","81.2","1019.058","16.11","82.7","NAN","0.0"],
    [1551560,"2026-04-23 04:30:00","4270","2.242","69.76","5.651","82.4","1019.053","16.19","81.5","NAN","0.0"],
    [1551561,"2026-04-23 04:40:00","4271","2.5989999999999998","78.59","5.422999999999999","96.6","1019.1210000000001","16.22","80.9","NAN","0.0"],
    [1551562,"2026-04-23 04:50:00","4272","2.2319999999999998","67.57","4.835","73.85","1019.24","16.26","79.89","NAN","0.0"],
    [1551563,"2026-04-23 05:00:00","4273","2.285","52.69","4.769","55.45","1019.289","16.28","79.11","NAN","0.0"],
    [1551564,"2026-04-23 05:10:00","4274","1.85","49.84","4.279","36.06","1019.334","16.25","77.04","NAN","0.0"],
    [1551565,"2026-04-23 05:20:00","4275","2.031","42.06","4.998","40.38","1019.467","16.26","76.14","NAN","0.0"],
    [1551566,"2026-04-23 05:30:00","4276","2.7439999999999998","42.31","5.455","24.69","1019.378","16.19","75.69","NAN","0.0"],
    [1551567,"2026-04-23 05:40:00","4277","2.441","48.43","4.835","44.4","1019.4910000000001","16.22","74.95","NAN","0.0"],
    [1551568,"2026-04-23 05:50:00","4278","2.502","49.59","4.9","32.95","1019.571","16.26","74.56","NAN","0.0"],
    [1551569,"2026-04-23 06:00:00","4279","2.352","53.75","4.737","63.1","1019.7289999999999","16.42","73.24","NAN","0.0"],
    [1551570,"2026-04-23 06:10:00","4280","1.89","53.15","3.6260000000000003","65.1","1019.789","16.48","72.69","NAN","0.0"],
    [1551571,"2026-04-23 06:20:00","4281","2.597","61.28","4.638999999999999","57.35","1019.89","16.56","71.16","NAN","0.0"],
    [1551572,"2026-04-23 06:30:00","4282","2.305","63.8","4.345","67.13","1020.051","16.83","69.98","NAN","0.0"],
    [1551573,"2026-04-23 06:40:00","4283","2.045","64.31","4.377","26.07","1020.2310000000001","16.8","70.39","NAN","0.0"],
    [1551574,"2026-04-23 06:50:00","4284","2.379","74.35","6.141","86.8","1020.2360000000001","16.99","70.64","NAN","0.0"],
    [1551575,"2026-04-23 07:00:00","4285","3.7969999999999997","84.0","7.938","90.5","1020.336","17","71.18","NAN","0.0"],
    [1551576,"2026-04-23 07:10:00","4286","4.683","77.13","9.05","87.1","1020.433","16.88","72.79","NAN","0.0"],
    [1551577,"2026-04-23 07:20:00","4287","4.571000000000001","75.8","9.57","73.9","1020.539","16.76","73.97","NAN","0.0"],
    [1551578,"2026-04-23 07:30:00","4288","4.4239999999999995","75.87","8.17","76.81","1020.5889999999999","16.85","73.66","NAN","0.0"],
    [1551579,"2026-04-23 07:40:00","4289","4.9319999999999995","78.54","8.89","74.26","1020.716","17.03","72.51","NAN","0.0"],
    [1551580,"2026-04-23 07:50:00","4290","4.3260000000000005","79.34","7.742000000000001","74.23","1020.7719999999999","17.26","71.24","NAN","0.0"],
    [1551581,"2026-04-23 08:00:00","4291","4.9030000000000005","81.2","7.807","63.26","1020.867","17.41","70.53","NAN","0.0"],
    [1551582,"2026-04-23 08:10:00","4292","4.9639999999999995","80.2","10.13","67.98","1020.9169999999999","17.48","70.82","NAN","0.0"],
    [1551583,"2026-04-23 08:20:00","4293","5.542000000000001","79.72","9.31","75.09","1020.914","17.46","71.31","NAN","0.0"],
    [1551584,"2026-04-23 08:30:00","4294","4.848","76.9","8.49","70.91","1021.0089999999999","17.53","71.27","NAN","0.0"],
    [1551585,"2026-04-23 08:40:00","4295","4.453","78.66","9.08","69.71","1021.0939999999999","17.87","70.34","NAN","0.0"],
    [1551586,"2026-04-23 08:50:00","4296","5.535","76.62","9.28","71.1","1021.1519999999999","17.64","70.68","NAN","0.0"],
    [1551587,"2026-04-23 09:00:00","4297","5.104","79.48","7.971","72.98","1021.209","17.82","70.75","NAN","0.0"],
    [1551588,"2026-04-23 09:10:00","4298","4.982","80.6","8.26","92.6","1021.279","17.98","70.21","NAN","0.0"],
    [1551589,"2026-04-23 09:20:00","4299","4.933","78.45","8.82","76.38","1021.341","17.99","70.14","NAN","0.0"],
    [1551590,"2026-04-23 09:30:00","4300","4.699","75.86","9.18","69.66","1021.385","18.14","69.51","NAN","0.0"],
    [1551591,"2026-04-23 09:40:00","4301","5.044","77.68","8.72","74.88","1021.429","18.28","68.12","NAN","0.0"],
    [1551592,"2026-04-23 09:50:00","4302","5.0889999999999995","75.54","8.79","68.02","1021.512","18.33","67.6","NAN","0.0"],
    [1551593,"2026-04-23 10:00:00","4303","4.711","70.67","8.62","67.13","1021.535","18.51","64.89","NAN","0.0"],
    [1551594,"2026-04-23 10:10:00","4304","4.406000000000001","70.18","7.611000000000001","74.85","1021.58","18.87","61.45","NAN","0.0"],
    [1551595,"2026-04-23 10:20:00","4305","4.254","68.48","8.2","73.41","1021.57","18.72","58.86","NAN","0.0"],
    [1551596,"2026-04-23 10:30:00","4306","4.956","70.89","8.98","74.75","1021.48","18.63","57.54","NAN","0.0"],
    [1551597,"2026-04-23 10:40:00","4307","4.414","70.38","8.49","70.69","1021.52","18.76","57.66","NAN","0.0"],
    [1551598,"2026-04-23 10:50:00","4308","4.192","69.9","8.56","63.38","1021.4780000000001","18.73","59.14","NAN","0.0"],
    [1551599,"2026-04-23 11:00:00","4309","3.8710000000000004","72.63","7.807","58.74","1021.39","18.87","58.99","NAN","0.0"],
    [1551600,"2026-04-23 11:10:00","4310","3.7880000000000003","68.3","6.795","42.77","1021.3380000000001","18.9","59.8","NAN","0.0"],
    [1551601,"2026-04-23 11:20:00","4311","3.568","69.51","8.43","68.54","1021.303","18.93","59.96","NAN","0.0"],
    [1551602,"2026-04-23 11:30:00","4312","3.484","72.21","6.957999999999999","84.0","1021.2439999999999","18.97","59.85","NAN","0.0"],
    [1551603,"2026-04-23 11:40:00","4313","4.408","90.5","9.31","91.8","1021.206","18.99","58.01","NAN","0.0"],
    [1551604,"2026-04-23 11:50:00","4314","5.085","88.1","8.95","93.9","1021.1410000000001","18.62","55.93","NAN","0.0"],
    [1551605,"2026-04-23 12:00:00","4315","4.872","87.6","8.04","70.61","1021.1039999999999","18.65","55","NAN","0.0"],
    [1551606,"2026-04-23 12:10:00","4316","4.099","89.7","7.187","99.6","1021.087","18.95","55.59","NAN","0.0"],
    [1551607,"2026-04-23 12:20:00","4317","3.924","65.66","7.905","61.12","1021.062","18.86","54.88","NAN","0.0"],
    [1551608,"2026-04-23 12:30:00","4318","4.0889999999999995","63.12","7.938","65.16","1021.1089999999999","18.77","54.24","NAN","0.0"],
    [1551609,"2026-04-23 12:40:00","4319","4.052","60.76","7.611000000000001","67.77","1021.159","18.9","54.68","NAN","0.0"],
    [1551610,"2026-04-23 12:50:00","4320","4.188","59.21","7.121","47.86","1021.171","18.61","55.62","NAN","0.0"],
    [1551611,"2026-04-23 13:00:00","4321","4.362","66.3","7.709","73.09","1021.159","18.42","57.55","NAN","0.0"],
    [1551612,"2026-04-23 13:10:00","4322","3.866","65.89","7.938","70.61","1021.166","18.53","57.13","NAN","0.0"],
    [1551613,"2026-04-23 13:20:00","4323","4.336","64.87","7.285","71.83","1021.122","18.45","59.47","NAN","0.0"],
    [1551614,"2026-04-23 13:30:00","4324","3.8989999999999996","57.67","6.403","61.3","1021.0239999999999","18.29","59.82","NAN","0.0"],
    [1551615,"2026-04-23 13:40:00","4325","3.017","68.51","5.815","112.9","1020.9119999999999","18.87","57.22","NAN","0.0"],
    [1551616,"2026-04-23 13:50:00","4326","4.635","62.94","8.33","63.78","1020.857","18.27","61.13","NAN","0.0"],
    [1551617,"2026-04-23 14:00:00","4327","4.638999999999999","67.0","7.971","89.4","1020.758","17.93","62.27","NAN","0.0"],
    [1551618,"2026-04-23 14:10:00","4328","4.3180000000000005","71.09","8.17","71.34","1020.716","18.05","60.27","NAN","0.0"],
    [1551619,"2026-04-23 14:20:00","4329","4.306","67.28","8.04","64.73","1020.678","17.92","64.18","NAN","0.0"],
    [1551620,"2026-04-23 14:30:00","4330","4.55","71.98","8.07","70.7","1020.6010000000001","17.61","65.05","NAN","0.0"],
    [1551621,"2026-04-23 14:40:00","4331","4.191","72.18","7.611000000000001","61.28","1020.5010000000001","17.79","63.69","NAN","0.0"],
    [1551622,"2026-04-23 14:50:00","4332","4.501","68.49","8.0","69.21","1020.3910000000001","17.88","63.39","NAN","0.0"],
    [1551623,"2026-04-23 15:00:00","4333","4.815","73.35","8.98","107.6","1020.2919999999999","17.63","66.16","NAN","0.0"],
    [1551624,"2026-04-23 15:10:00","4334","4.2410000000000005","66.63","7.0889999999999995","73.69","1020.2869999999999","17.72","66.58","NAN","0.0"],
    [1551625,"2026-04-23 15:20:00","4335","4.195","68.5","7.775","71.84","1020.257","17.61","68.12","NAN","0.0"],
    [1551626,"2026-04-23 15:30:00","4336","4.772","71.14","7.775","68.83","1020.184","17.53","69.3","NAN","0.0"],
    [1551627,"2026-04-23 15:40:00","4337","4.071000000000001","74.01","7.709","69.57","1020.138","17.6","70.5","NAN","0.0"],
    [1551628,"2026-04-23 15:50:00","4338","4.298","71.9","8.26","68.54","1020.138","17.65","72.07","NAN","0.0"],
    [1551629,"2026-04-23 16:00:00","4339","4.301","69.78","8.33","76.32","1020.1210000000001","17.45","74.08","NAN","0.0"],
    [1551630,"2026-04-23 16:10:00","4340","4.643","70.89","7.742000000000001","73.46","1019.9960000000001","17.36","74.24","NAN","0.0"],
    [1551631,"2026-04-23 16:20:00","4341","4.3660000000000005","72.55","7.382999999999999","77.58","1019.9010000000001","17.26","75.17","NAN","0.0"],
    [1551632,"2026-04-23 16:30:00","4342","4.046","66.8","7.285","63.85","1019.8789999999999","17.29","75.65","NAN","0.0"],
    [1551633,"2026-04-23 16:40:00","4343","3.8789999999999996","68.49","8.72","58.98","1019.825","17.29","76.16","NAN","0.0"],
    [1551634,"2026-04-23 16:50:00","4344","3.983","65.83","8.82","73.78","1019.7560000000001","17.19","76.99","NAN","0.0"],
    [1551635,"2026-04-23 17:00:00","4345","4.065","68.46","7.742000000000001","45.61","1019.7719999999999","17.09","77.16","NAN","0.0"],
    [1551636,"2026-04-23 17:10:00","4346","4.258","66.76","8.53","66.45","1019.71","17.04","76.45","NAN","0.0"],
    [1551637,"2026-04-23 17:20:00","4347","4.238","68.54","8.1","65.19","1019.693","17.04","74.79","NAN","0.0"],
    [1551638,"2026-04-23 17:30:00","4348","4.573","66.76","8.75","71.66","1019.6469999999999","16.95","72.55","NAN","0.0"],
    [1551639,"2026-04-23 17:40:00","4349","4.853","68.67","9.28","67.43","1019.5360000000001","16.92","71.07","NAN","0.0"],
    [1551640,"2026-04-23 17:50:00","4350","4.656000000000001","73.63","8.07","62.75","1019.4780000000001","16.9","69.99","NAN","0.0"],
    [1551641,"2026-04-23 18:00:00","4351","4.937","75.09","8.33","62.57","1019.5039999999999","16.9","69.33","NAN","0.0"],
    [1551642,"2026-04-23 18:10:00","4352","4.802","73.55","8.43","73.01","1019.574","16.87","69.26","NAN","0.0"],
    [1551643,"2026-04-23 18:20:00","4353","4.864","71.96","8.49","66.94","1019.545","16.83","68.72","NAN","0.0"],
    [1551644,"2026-04-23 18:30:00","4354","5.033","71.01","9.54","74.84","1019.575","16.75","67.73","NAN","0.0"],
    [1551645,"2026-04-23 18:40:00","4355","4.7780000000000005","76.65","7.971","80.9","1019.577","16.77","67.08","NAN","0.0"],
    [1551646,"2026-04-23 18:50:00","4356","4.262","70.6","7.611000000000001","70.3","1019.6189999999999","16.8","65.84","NAN","0.0"],
    [1551647,"2026-04-23 19:00:00","4357","4.918","70.58","8.17","63.06","1019.612","16.81","64.91","NAN","0.0"],
    [1551648,"2026-04-23 19:10:00","4358","4.243","66.48","7.807","75.04","1019.7","16.74","65.33","NAN","0.0"],
    [1551649,"2026-04-23 19:20:00","4359","4.448","70.99","7.285","82.8","1019.711","16.66","67.41","NAN","0.0"],
    [1551650,"2026-04-23 19:30:00","4360","3.76","74.9","7.252000000000001","74.69","1019.8330000000001","16.61","68.89","NAN","0.0"],
    [1551651,"2026-04-23 19:40:00","4361","2.917","76.02","6.1739999999999995","88.2","1019.938","16.62","69.34","NAN","0.0"],
    [1551652,"2026-04-23 19:50:00","4362","1.6230000000000002","63.01","3.267","95.1","1020.054","16.66","69.54","NAN","0.0"],
    [1551653,"2026-04-23 20:00:00","4363","1.778","60.37","4.377","61.03","1020.1669999999999","16.61","70.15","NAN","0.0"],
    [1551654,"2026-04-23 20:10:00","4364","1.839","72.32","4.573","82.5","1020.2810000000001","16.58","71.2","NAN","0.0"],
    [1551655,"2026-04-23 20:20:00","4365","1.705","58.08","3.463","54.39","1020.296","16.57","69.8","NAN","0.0"],
    [1551656,"2026-04-23 20:30:00","4366","1.6980000000000002","53.13","3.136","51.5","1020.3530000000001","16.52","70.24","NAN","0.0"],
    [1551657,"2026-04-23 20:40:00","4367","1.8730000000000002","58.63","3.5610000000000004","55.15","1020.3380000000001","16.53","69.83","NAN","0.0"],
    [1551658,"2026-04-23 20:50:00","4368","2.092","49.99","4.638999999999999","61.24","1020.302","16.53","69.22","NAN","0.0"],
    [1551659,"2026-04-23 21:00:00","4369","1.986","51.97","3.7889999999999997","48.47","1020.263","16.47","70.04","NAN","0.0"],
    [1551660,"2026-04-23 21:10:00","4370","2.175","48.38","5.129","36.19","1020.184","16.47","69.55","NAN","0.0"],
    [1551661,"2026-04-23 21:20:00","4371","1.984","47.08","3.92","37.04","1020.179","16.44","69.05","NAN","0.0"],
    [1551662,"2026-04-23 21:30:00","4372","1.8","47.37","3.7239999999999998","48.67","1020.2919999999999","16.49","66.64","NAN","0.0"],
    [1551663,"2026-04-23 21:40:00","4373","2.229","40.96","3.7569999999999997","7.497000000000001","1020.2860000000001","16.46","65.44","NAN","0.0"],
    [1551664,"2026-04-23 21:50:00","4374","1.796","50.28","3.6910000000000003","35.93","1020.288","16.45","64.98","NAN","0.0"],
    [1551665,"2026-04-23 22:00:00","4375","1.8119999999999998","39.81","4.4430000000000005","35.95","1020.2810000000001","16.44","63.47","NAN","0.0"],
    [1551666,"2026-04-23 22:10:00","4376","1.609","44.45","3.365","38.79","1020.288","16.44","63.09","NAN","0.0"],
    [1551667,"2026-04-23 22:20:00","4377","1.474","46.99","2.7110000000000003","56.56","1020.2639999999999","16.42","63.67","NAN","0.0"],
    [1551668,"2026-04-23 22:30:00","4378","1.3219999999999998","46.48","2.7110000000000003","28.69","1020.201","16.36","64.52","NAN","0.0"],
    [1551669,"2026-04-23 22:40:00","4379","1.275","54.6","2.515","30.97","1020.112","16.32","66.1","NAN","0.0"],
    [1551670,"2026-04-23 22:50:00","4380","1.5590000000000002","44.45","3.201","42.1","1020.1310000000001","16.24","65.93","NAN","0.0"],
    [1551671,"2026-04-23 23:00:00","4381","1.72","45.37","3.365","46.97","1020.097","16.19","65.3","NAN","0.0"],
    [1551672,"2026-04-23 23:10:00","4382","1.547","50.81","2.875","33.23","1020.0269999999999","16.22","64.87","NAN","0.0"],
    [1551673,"2026-04-23 23:20:00","4383","1.494","43.49","3.201","39.78","1019.936","16.22","65","NAN","0.0"],
    [1551674,"2026-04-23 23:30:00","4384","1.6","53.18","3.332","66.86","1019.873","16.23","65.11","NAN","0.0"],
    [1551675,"2026-04-23 23:40:00","4385","1.3869999999999998","55.94","3.136","35.68","1019.8710000000001","16.3","64.42","NAN","0.0"],
    [1551676,"2026-04-23 23:50:00","4386","1.189","67.8","2.45","66.79","1019.8689999999999","16.32","64.52","NAN","0.0"],
    [1551677,"2026-04-24 00:00:00","4387","0.825","35.33","1.7309999999999999","63.43","1019.81","16.41","62.34","NAN","0.0"],
    [1551678,"2026-04-24 00:10:00","4388","0.871","27.51","1.568","14.61","1019.7360000000001","16.46","58.1","NAN","0.0"],
    [1551679,"2026-04-24 00:20:00","4389","0.912","39.57","1.9269999999999998","351.5","1019.605","16.46","56.13","NAN","0.0"],
    [1551680,"2026-04-24 00:30:00","4390","1.077","46.27","1.829","58.46","1019.4989999999999","16.43","55.68","NAN","0.0"],
    [1551681,"2026-04-24 00:40:00","4391","0.8809999999999999","54.13","1.9269999999999998","56.84","1019.4860000000001","16.43","55.14","NAN","0.0"],
    [1551682,"2026-04-24 00:50:00","4392","0.932","60.77","1.764","60.06","1019.393","16.44","55.19","NAN","0.0"],
    [1551683,"2026-04-24 01:00:00","4393","0.799","69.6","1.4369999999999998","71.16","1019.382","16.44","54.91","NAN","0.0"],
    [1551684,"2026-04-24 01:10:00","4394","1.111","60.74","1.829","69.62","1019.304","16.47","54.64","NAN","0.0"],
    [1551685,"2026-04-24 01:20:00","4395","0.7240000000000001","48.11","1.633","9.2","1019.2560000000001","16.44","54.6","NAN","0.0"],
    [1551686,"2026-04-24 01:30:00","4396","0.789","48.0","1.633","9.2","1019.245","16.45","54.25","NAN","0.0"],
    [1551687,"2026-04-24 01:40:00","4397","0.946","41.83","1.829","41.99","1019.207","16.36","54.78","NAN","0.0"],
    [1551688,"2026-04-24 01:50:00","4398","0.659","40.44","1.339","39.84","1019.035","16.27","55.23","NAN","0.0"],
    [1551689,"2026-04-24 02:00:00","4399","0.769","13.34","1.9269999999999998","16.23","1019.0169999999999","16.18","55.8","NAN","0.0"],
    [1551690,"2026-04-24 02:10:00","4400","0.7659999999999999","43.01","1.5030000000000001","31.08","1018.9630000000001","16.05","56.8","NAN","0.0"],
    [1551691,"2026-04-24 02:20:00","4401","0.7759999999999999","43.67","1.47","39.17","1018.904","15.88","57.82","NAN","0.0"],
    [1551692,"2026-04-24 02:30:00","4402","0.737","25.72","1.764","45.31","1018.932","15.75","58.38","NAN","0.0"],
    [1551693,"2026-04-24 02:40:00","4403","0.655","33.87","1.4369999999999998","18.67","1018.9169999999999","15.71","58.18","NAN","0.0"],
    [1551694,"2026-04-24 02:50:00","4404","0.657","35.06","1.5030000000000001","25.86","1018.916","15.58","58.46","NAN","0.0"],
    [1551695,"2026-04-24 03:00:00","4405","0.932","20.1","1.797","3.698","1018.954","15.53","58.16","NAN","0.0"],
    [1551696,"2026-04-24 03:10:00","4406","0.892","18.98","1.797","359.0","1018.9739999999999","15.62","57.14","NAN","0.0"],
    [1551697,"2026-04-24 03:20:00","4407","1.0190000000000001","42.62","2.025","26.76","1018.8510000000001","15.72","56.59","NAN","0.0"],
    [1551698,"2026-04-24 03:30:00","4408","1.298","39.09","2.287","42.04","1018.809","15.58","56.75","NAN","0.0"],
    [1551699,"2026-04-24 03:40:00","4409","0.953","27.58","2.319","13.43","1018.806","15.48","56.71","NAN","0.0"],
    [1551700,"2026-04-24 03:50:00","4410","1.2590000000000001","24.87","2.352","3.75","1018.815","15.37","56.39","NAN","0.0"],
    [1551701,"2026-04-24 04:00:00","4411","0.961","16.37","2.221","35.64","1018.826","15.15","57.33","NAN","0.0"],
    [1551702,"2026-04-24 04:10:00","4412","0.996","22.8","2.156","12.24","1018.8439999999999","15.07","57.75","NAN","0.0"],
    [1551703,"2026-04-24 04:20:00","4413","0.708","44.29","2.025","8.41","1018.948","14.99","57.81","NAN","0.0"],
    [1551704,"2026-04-24 04:30:00","4414","0.688","33.26","1.307","35.03","1018.948","14.96","57.71","NAN","0.0"],
    [1551705,"2026-04-24 04:40:00","4415","0.653","40.0","1.47","33.6","1018.924","15","57.43","NAN","0.0"],
    [1551706,"2026-04-24 04:50:00","4416","0.956","39.1","2.385","20.46","1018.9019999999999","14.98","57.34","NAN","0.0"],
    [1551707,"2026-04-24 05:00:00","4417","0.8170000000000001","35.47","1.3719999999999999","47.75","1018.952","14.93","57.56","NAN","0.0"],
    [1551708,"2026-04-24 05:10:00","4418","0.934","37.58","1.895","33.37","1018.977","14.9","57.69","NAN","0.0"],
    [1551709,"2026-04-24 05:20:00","4419","0.758","24.21","1.7309999999999999","17.39","1019.071","14.88","58.07","NAN","0.0"],
    [1551710,"2026-04-24 05:30:00","4420","0.83","14.24","1.666","36.12","1019.194","14.88","58.4","NAN","0.0"],
    [1551711,"2026-04-24 05:40:00","4421","0.8190000000000001","14.92","1.633","14.71","1019.315","14.91","58.49","NAN","0.0"],
    [1551712,"2026-04-24 05:50:00","4422","0.9740000000000001","17.38","2.254","7.643","1019.419","15.06","57.97","NAN","0.0"],
    [1551713,"2026-04-24 06:00:00","4423","1.037","22.71","2.0580000000000003","33.44","1019.47","15.22","57.64","NAN","0.0"],
    [1551714,"2026-04-24 06:10:00","4424","0.857","36.2","1.568","44.9","1019.567","15.38","57.16","NAN","0.0"],
    [1551715,"2026-04-24 06:20:00","4425","0.759","47.67","1.535","44.09","1019.5989999999999","15.84","55.94","NAN","0.0"],
    [1551716,"2026-04-24 06:30:00","4426","0.9009999999999999","57.45","1.568","46.27","1019.613","16.29","54.78","NAN","0.0"],
    [1551717,"2026-04-24 06:40:00","4427","1.1079999999999999","53.89","1.797","50.45","1019.577","16.53","53.85","NAN","0.0"],
    [1551718,"2026-04-24 06:50:00","4428","0.885","52.67","1.666","75.8","1019.4939999999999","16.99","52.7","NAN","0.0"],
    [1551719,"2026-04-24 07:00:00","4429","1.045","33.15","2.319","27.58","1019.462","17.44","50.78","NAN","0.0"],
    [1551720,"2026-04-24 07:10:00","4430","1.1","32.76","2.319","27.44","1019.4110000000001","17.62","50.46","NAN","0.0"],
    [1551721,"2026-04-24 07:20:00","4431","1.355","47.84","2.483","41.85","1019.303","17.74","50.66","NAN","0.0"],
    [1551722,"2026-04-24 07:30:00","4432","1.3530000000000002","43.0","2.875","43.01","1019.2330000000001","17.92","51.33","NAN","0.0"],
    [1551723,"2026-04-24 07:40:00","4433","1.3659999999999999","36.68","2.94","58.69","1019.294","18.21","51.39","NAN","0.0"],
    [1551724,"2026-04-24 07:50:00","4434","1.5530000000000002","65.05","2.9730000000000003","76.11","1019.2330000000001","18.48","50.68","NAN","0.0"],
    [1551725,"2026-04-24 08:00:00","4435","1.205","56.54","2.287","76.61","1019.184","18.94","50.1","NAN","0.0"],
    [1551726,"2026-04-24 08:10:00","4436","1.409","82.3","2.385","88.7","1019.184","19.38","48.25","NAN","0.0"],
    [1551727,"2026-04-24 08:20:00","4437","2.18","86.4","3.365","86.6","1019.174","19.19","49.09","NAN","0.0"],
    [1551728,"2026-04-24 08:30:00","4438","2.2840000000000003","72.17","4.247","37.79","1019.166","19.38","49.44","NAN","0.0"],
    [1551729,"2026-04-24 08:40:00","4439","3.4619999999999997","93.9","5.619","112.6","1019.211","18.27","52.33","NAN","0.0"],
    [1551730,"2026-04-24 08:50:00","4440","3.054","106.2","4.671","108.0","1019.263","17.03","60.42","NAN","0.0"],
    [1551731,"2026-04-24 09:00:00","4441","2.9960000000000004","98.0","4.998","100.5","1019.189","16.97","64.05","NAN","0.0"],
    [1551732,"2026-04-24 09:10:00","4442","3.198","107.9","5.586","112.3","1019.174","16.82","69.12","NAN","0.0"],
    [1551733,"2026-04-24 09:20:00","4443","3.139","107.7","5.096","110.5","1019.2610000000001","16.64","69.61","NAN","0.0"],
    [1551734,"2026-04-24 09:30:00","4444","2.6489999999999996","115.0","4.312","107.9","1019.316","16.79","69.94","NAN","0.0"],
    [1551735,"2026-04-24 09:40:00","4445","2.449","106.5","4.4430000000000005","113.2","1019.438","16.88","71.85","NAN","0.0"],
    [1551736,"2026-04-24 09:50:00","4446","2.82","101.0","4.933","109.8","1019.515","16.99","72.46","NAN","0.0"],
    [1551737,"2026-04-24 10:00:00","4447","2.7039999999999997","103.6","5.1610000000000005","102.3","1019.57","17.25","71.05","NAN","0.0"],
    [1551738,"2026-04-24 10:10:00","4448","3.255","102.2","5.4879999999999995","98.8","1019.6469999999999","16.85","73.67","NAN","0.0"],
    [1551739,"2026-04-24 10:20:00","4449","2.698","115.9","4.149","107.6","1019.725","17.04","75.28","NAN","0.0"],
    [1551740,"2026-04-24 10:30:00","4450","2.9219999999999997","127.1","4.4430000000000005","130.6","1019.8860000000001","16.85","78.37","NAN","0.0"],
    [1551741,"2026-04-24 10:40:00","4451","2.6010000000000004","122.1","4.541","114.1","1019.913","16.89","79.8","NAN","0.0"],
    [1551742,"2026-04-24 10:50:00","4452","2.987","128.3","4.671","112.2","1019.818","16.95","79.63","NAN","0.0"],
    [1551743,"2026-04-24 11:00:00","4453","2.787","117.4","4.835","107.0","1019.696","16.93","81.3","NAN","0.0"],
    [1551744,"2026-04-24 11:10:00","4454","1.999","115.9","3.659","149.8","1019.672","17.4","80.1","NAN","0.0"],
    [1551745,"2026-04-24 11:20:00","4455","2.615","117.9","4.1160000000000005","142.3","1019.655","17.38","79.23","NAN","0.0"],
    [1551746,"2026-04-24 11:30:00","4456","2.7110000000000003","126.9","4.606","111.9","1019.6260000000001","17.15","79.91","NAN","0.0"],
    [1551747,"2026-04-24 11:40:00","4457","2.718","128.4","4.573","113.8","1019.5419999999999","17.16","79.02","NAN","0.0"],
    [1551748,"2026-04-24 11:50:00","4458","2.8","127.6","4.475","141.2","1019.525","17.05","79.51","NAN","0.0"],
    [1551749,"2026-04-24 12:00:00","4459","2.623","126.5","4.2139999999999995","108.4","1019.568","17.22","77.04","NAN","0.0"],
    [1551750,"2026-04-24 12:10:00","4460","2.9210000000000003","127.1","5.129","110.6","1019.4939999999999","17.31","74.27","NAN","0.0"],
    [1551751,"2026-04-24 12:20:00","4461","2.545","126.0","4.051","138.6","1019.555","17.59","73.39","NAN","0.0"],
    [1551752,"2026-04-24 12:30:00","4462","2.7739999999999996","127.0","4.377","110.0","1019.585","17.41","74.13","NAN","0.0"],
    [1551753,"2026-04-24 12:40:00","4463","2.9130000000000003","121.5","4.573","122.1","1019.682","17.4","73.92","NAN","0.0"],
    [1551754,"2026-04-24 12:50:00","4464","2.451","129.9","4.671","109.4","1019.73","17.78","71.68","NAN","0.0"],
    [1551755,"2026-04-24 13:00:00","4465","2.971","148.2","4.638999999999999","156.5","1019.773","17.46","72.53","NAN","0.0"],
    [1551756,"2026-04-24 13:10:00","4466","2.67","145.6","4.573","157.7","1019.7139999999999","17.55","71.7","NAN","0.0"],
    [1551757,"2026-04-24 13:20:00","4467","2.085","157.8","4.083","148.5","1019.627","17.6","71.42","NAN","0.0"],
    [1551758,"2026-04-24 13:30:00","4468","2.7030000000000003","132.5","4.181","111.8","1019.4680000000001","17.38","70.8","NAN","0.0"],
    [1551759,"2026-04-24 13:40:00","4469","2.411","126.4","4.181","108.3","1019.39","17.46","69.42","NAN","0.0"],
    [1551760,"2026-04-24 13:50:00","4470","2.148","162.2","3.495","125.2","1019.308","17.48","69.83","NAN","0.0"],
    [1551761,"2026-04-24 14:00:00","4471","2.593","158.9","4.2139999999999995","165.4","1019.2860000000001","17.43","67.87","NAN","0.0"],
    [1551762,"2026-04-24 14:10:00","4472","2.285","137.1","3.92","97.9","1019.221","17.58","67.34","NAN","0.0"],
    [1551763,"2026-04-24 14:20:00","4473","2.012","129.0","3.332","94.3","1019.181","17.67","67.63","NAN","0.0"],
    [1551764,"2026-04-24 14:30:00","4474","2.1919999999999997","132.5","3.6260000000000003","155.7","1019.051","17.58","66.36","NAN","0.0"],
    [1551765,"2026-04-24 14:40:00","4475","2.2769999999999997","112.3","3.7889999999999997","110.3","1018.932","17.65","65.22","NAN","0.0"],
    [1551766,"2026-04-24 14:50:00","4476","1.911","136.4","3.6260000000000003","97.6","1018.86","17.48","65.45","NAN","0.0"],
    [1551767,"2026-04-24 15:00:00","4477","2.06","158.9","3.855","157.0","1018.823","17.6","64.47","NAN","0.0"],
    [1551768,"2026-04-24 15:10:00","4478","1.868","165.0","3.7569999999999997","139.6","1018.7330000000001","17.41","66.21","NAN","0.0"],
    [1551769,"2026-04-24 15:20:00","4479","1.506","182.8","2.483","183.2","1018.668","17.72","63.94","NAN","0.0"],
    [1551770,"2026-04-24 15:30:00","4480","1.579","175.7","2.7769999999999997","102.9","1018.5360000000001","17.81","61.79","NAN","0.0"],
    [1551771,"2026-04-24 15:40:00","4481","1.754","137.9","3.495","112.5","1018.432","17.48","63.85","NAN","0.0"],
    [1551772,"2026-04-24 15:50:00","4482","1.703","147.0","3.136","136.2","1018.434","17.43","65.24","NAN","0.0"],
    [1551773,"2026-04-24 16:00:00","4483","1.8940000000000001","159.7","3.6910000000000003","111.9","1018.324","17.25","66.85","NAN","0.0"],
    [1551774,"2026-04-24 16:10:00","4484","1.598","132.8","3.103","103.4","1018.31","17.28","63.93","NAN","0.0"],
    [1551775,"2026-04-24 16:20:00","4485","1.5619999999999998","122.9","2.7769999999999997","137.8","1018.31","17.22","65.85","NAN","0.0"],
    [1551776,"2026-04-24 16:30:00","4486","1.53","127.1","2.679","139.3","1018.2719999999999","17.05","65.5","NAN","0.0"],
    [1551777,"2026-04-24 16:40:00","4487","1.75","129.7","2.679","115.7","1018.188","17.1","65.67","NAN","0.0"],
    [1551778,"2026-04-24 16:50:00","4488","1.6640000000000001","136.8","3.136","128.7","1018.133","17.03","65.21","NAN","0.0"],
    [1551779,"2026-04-24 17:00:00","4489","1.641","126.1","2.875","101.2","1018.028","16.88","65.51","NAN","0.0"],
    [1551780,"2026-04-24 17:10:00","4490","1.7209999999999999","112.4","3.071","112.2","1018.063","16.86","66.58","NAN","0.0"],
    [1551781,"2026-04-24 17:20:00","4491","1.514","117.2","3.0380000000000003","108.7","1018.057","16.85","67.2","NAN","0.0"],
    [1551782,"2026-04-24 17:30:00","4492","1.395","125.4","2.7439999999999998","143.0","1017.96","16.84","67.49","NAN","0.0"],
    [1551783,"2026-04-24 17:40:00","4493","1.238","99.5","2.0909999999999997","63.07","1017.8589999999999","16.89","66.21","NAN","0.0"],
    [1551784,"2026-04-24 17:50:00","4494","1.195","114.6","2.0909999999999997","137.1","1017.855","16.94","66.24","NAN","0.0"],
    [1551785,"2026-04-24 18:00:00","4495","1.22","136.0","2.385","172.1","1017.8510000000001","16.61","68.62","NAN","0.0"],
    [1551786,"2026-04-24 18:10:00","4496","1.146","123.4","1.8619999999999999","116.1","1017.817","16.44","69.16","NAN","0.0"],
    [1551787,"2026-04-24 18:20:00","4497","1.16","120.7","1.699","139.5","1017.9069999999999","16.29","70.17","NAN","0.0"],
    [1551788,"2026-04-24 18:30:00","4498","1.014","132.1","1.666","146.9","1017.887","16.28","70.4","NAN","0.0"],
    [1551789,"2026-04-24 18:40:00","4499","1.151","112.5","1.895","116.5","1017.9019999999999","16.22","71.18","NAN","0.0"],
    [1551790,"2026-04-24 18:50:00","4500","1.0490000000000002","124.4","1.8619999999999999","147.6","1017.944","16.25","71.62","NAN","0.0"],
    [1551791,"2026-04-24 19:00:00","4501","0.938","129.1","1.568","106.9","1018.0110000000001","16.25","71.79","NAN","0.0"],
    [1551792,"2026-04-24 19:10:00","4502","0.943","150.3","1.666","168.3","1018.03","16.16","72.75","NAN","0.0"],
    [1551793,"2026-04-24 19:20:00","4503","0.748","139.6","1.895","110.1","1018.056","16.16","73.14","NAN","0.0"],
    [1551794,"2026-04-24 19:30:00","4504","0.9840000000000001","124.0","1.797","109.8","1018.2080000000001","16.14","73.59","NAN","0.0"],
    [1551795,"2026-04-24 19:40:00","4505","0.746","139.9","1.535","152.5","1018.2869999999999","16.09","74.35","NAN","0.0"],
    [1551796,"2026-04-24 19:50:00","4506","1.037","125.0","1.797","113.9","1018.3539999999999","16.1","74.67","NAN","0.0"],
    [1551797,"2026-04-24 20:00:00","4507","1.005","133.5","1.666","155.2","1018.449","16.04","75.05","NAN","0.0"],
    [1551798,"2026-04-24 20:10:00","4508","0.9079999999999999","159.7","1.601","167.4","1018.4580000000001","16.01","75.41","NAN","0.0"],
    [1551799,"2026-04-24 20:20:00","4509","0.87","150.4","1.3719999999999999","168.2","1018.5419999999999","16.02","75.6","NAN","0.0"],
    [1551800,"2026-04-24 20:30:00","4510","0.8079999999999999","178.6","1.5030000000000001","179.8","1018.563","16.04","75.9","NAN","0.0"],
    [1551801,"2026-04-24 20:40:00","4511","0.985","157.6","1.568","109.1","1018.569","15.99","76","NAN","0.0"],
    [1551802,"2026-04-24 20:50:00","4512","0.8170000000000001","137.4","1.47","109.0","1018.573","15.96","76.83","NAN","0.0"],
    [1551803,"2026-04-24 21:00:00","4513","1.08","126.7","1.7309999999999999","114.8","1018.666","15.91","77.03","NAN","0.0"],
    [1551804,"2026-04-24 21:10:00","4514","1.127","128.7","1.633","113.7","1018.809","15.86","77.47","NAN","0.0"],
    [1551805,"2026-04-24 21:20:00","4515","1.046","131.1","1.666","130.1","1018.805","15.85","77.85","NAN","0.0"],
    [1551806,"2026-04-24 21:30:00","4516","0.882","133.6","1.4369999999999998","108.1","1018.821","15.83","78.18","NAN","0.0"],
    [1551807,"2026-04-24 21:40:00","4517","1.003","128.6","1.47","112.2","1018.925","15.84","78.16","NAN","0.0"],
    [1551808,"2026-04-24 21:50:00","4518","0.805","133.4","1.4369999999999998","131.1","1018.9960000000001","15.82","78.72","NAN","0.0"],
    [1551809,"2026-04-24 22:00:00","4519","0.5670000000000001","132.0","1.045","120.2","1018.88","15.77","78.73","NAN","0.0"],
    [1551810,"2026-04-24 22:10:00","4520","0.64","133.9","1.078","113.9","1018.951","15.76","79.11","NAN","0.0"],
    [1551811,"2026-04-24 22:20:00","4521","0.405","159.2","1.013","172.6","1018.938","15.73","79.54","NAN","0.0"],
    [1551812,"2026-04-24 22:30:00","4522","0.606","183.0","1.111","180.5","1018.949","15.76","80.6","NAN","0.0"],
    [1551813,"2026-04-24 22:40:00","4523","0.5379999999999999","155.9","0.9470000000000001","179.1","1018.9019999999999","15.68","80.9","NAN","0.0"],
    [1551814,"2026-04-24 22:50:00","4524","0.381","151.3","0.882","181.9","1018.865","15.68","81.2","NAN","0.0"],
    [1551815,"2026-04-24 23:00:00","4525","0.46299999999999997","155.4","0.882","150.8","1018.852","15.67","81.6","NAN","0.0"],
    [1551816,"2026-04-24 23:10:00","4526","0.733","160.7","1.2409999999999999","154.4","1018.831","15.66","82.1","NAN","0.0"],
    [1551817,"2026-04-24 23:20:00","4527","0.8240000000000001","171.4","1.3719999999999999","181.2","1018.821","15.66","82.6","NAN","0.0"],
    [1551818,"2026-04-24 23:30:00","4528","0.825","178.8","1.307","178.0","1018.805","15.64","83.4","NAN","0.0"],
    [1551819,"2026-04-24 23:40:00","4529","0.499","188.1","0.915","200.5","1018.74","15.61","83.6","NAN","0.0"],
    [1551820,"2026-04-24 23:50:00","4530","0.555","188.0","0.8170000000000001","206.4","1018.692","15.58","83.4","NAN","0.0"],
    [1551821,"2026-04-25 00:00:00","4531","0.485","185.9","0.8490000000000001","184.8","1018.5360000000001","15.57","83.7","NAN","0.0"],
    [1551822,"2026-04-25 00:10:00","4532","0.46299999999999997","219.6","1.111","237.7","1018.428","15.56","83","NAN","0.0"],
    [1551823,"2026-04-25 00:20:00","4533","0.41200000000000003","187.1","1.045","204.2","1018.33","15.57","82.3","NAN","0.0"],
    [1551824,"2026-04-25 00:30:00","4534","0.39799999999999996","155.4","0.9470000000000001","170.9","1018.1239999999999","15.51","82.9","NAN","0.0"],
    [1551825,"2026-04-25 00:40:00","4535","0.311","183.6","1.045","177.2","1018.1030000000001","15.37","83.7","NAN","0.0"],
    [1551826,"2026-04-25 00:50:00","4536","0.011000000000000001","60.69","0.523","61.27","1017.9010000000001","15.26","83.4","NAN","0.0"],
    [1551827,"2026-04-25 01:00:00","4537","0.71","35.42","1.8619999999999999","10.99","1017.799","15.21","82.7","NAN","0.0"],
    [1551828,"2026-04-25 01:10:00","4538","0.732","47.69","1.307","35.6","1017.7860000000001","15.21","81.9","NAN","0.0"],
    [1551829,"2026-04-25 01:20:00","4539","0.9540000000000001","54.57","1.4369999999999998","63.66","1017.6339999999999","15.19","82","NAN","0.0"],
    [1551830,"2026-04-25 01:30:00","4540","0.887","45.39","1.5030000000000001","40.97","1017.4789999999999","15.13","80.8","NAN","0.0"],
    [1551831,"2026-04-25 01:40:00","4541","0.5579999999999999","50.21","1.045","58.82","1017.459","15.16","80.2","NAN","0.0"],
    [1551832,"2026-04-25 01:50:00","4542","0.433","61.06","0.8490000000000001","52.32","1017.457","15.11","80.8","NAN","0.0"],
    [1551833,"2026-04-25 02:00:00","4543","0.653","62.46","0.915","47.81","1017.3760000000001","15.03","80.7","NAN","0.0"],
    [1551834,"2026-04-25 02:10:00","4544","0.654","59.48","1.045","54.53","1017.447","14.95","79.48","NAN","0.0"],
    [1551835,"2026-04-25 02:20:00","4545","0.47","49.82","0.882","50.87","1017.572","14.88","78.74","NAN","0.0"],
    [1551836,"2026-04-25 02:30:00","4546","0.14","150.6","0.8490000000000001","157.4","1017.581","14.8","79.73","NAN","0.0"],
    [1551837,"2026-04-25 02:40:00","4547","0.551","147.9","0.8490000000000001","149.7","1017.5989999999999","14.97","83.2","NAN","0.0"],
    [1551838,"2026-04-25 02:50:00","4548","0.449","158.6","1.013","155.6","1017.699","14.91","82.5","NAN","0.0"],
    [1551839,"2026-04-25 03:00:00","4549","0.691","179.2","1.176","170.9","1017.706","14.85","81.7","NAN","0.0"],
    [1551840,"2026-04-25 03:10:00","4550","0.418","187.5","1.307","179.0","1017.6460000000001","14.87","82.7","NAN","0.0"],
    [1551841,"2026-04-25 03:20:00","4551","0.608","197.9","1.013","214.0","1017.5989999999999","14.77","83.9","NAN","0.0"],
    [1551842,"2026-04-25 03:30:00","4552","0.441","190.9","0.8490000000000001","224.7","1017.584","14.78","84.6","NAN","0.0"],
    [1551843,"2026-04-25 03:40:00","4553","0.373","194.1","0.9470000000000001","196.1","1017.569","14.82","85.2","NAN","0.0"],
    [1551844,"2026-04-25 03:50:00","4554","0.311","179.4","1.013","193.8","1017.584","14.82","85.5","NAN","0.0"],
    [1551845,"2026-04-25 04:00:00","4555","0.39899999999999997","185.8","0.8170000000000001","183.6","1017.6210000000001","14.73","86.1","NAN","0.0"],
    [1551846,"2026-04-25 04:10:00","4556","0.43200000000000005","151.5","0.9470000000000001","176.3","1017.706","14.81","86.5","NAN","0.0"],
    [1551847,"2026-04-25 04:20:00","4557","0.113","164.1","0.555","160.3","1017.709","14.73","86.4","NAN","0.0"],
    [1551848,"2026-04-25 04:30:00","4558","0.507","61.79","1.993","37.83","1017.706","14.61","86.7","NAN","0.0"],
    [1551849,"2026-04-25 04:40:00","4559","1.187","9.6","2.025","14.28","1017.709","14.25","79.17","NAN","0.0"],
    [1551850,"2026-04-25 04:50:00","4560","0.792","22.01","1.764","0.945","1017.721","14.23","75.43","NAN","0.0"],
    [1551851,"2026-04-25 05:00:00","4561","0.8340000000000001","29.42","1.535","23.52","1017.7310000000001","14.24","74.89","NAN","0.0"],
    [1551852,"2026-04-25 05:10:00","4562","0.932","36.16","1.764","27.11","1017.803","14.3","74.29","NAN","0.0"],
    [1551853,"2026-04-25 05:20:00","4563","1.071","33.77","2.025","33.97","1017.831","14.36","74.37","NAN","0.0"],
    [1551854,"2026-04-25 05:30:00","4564","0.6659999999999999","36.65","1.5030000000000001","0.20199999999999999","1017.908","14.44","73.79","NAN","0.0"],
    [1551855,"2026-04-25 05:40:00","4565","0.664","26.55","1.405","60.95","1018.013","14.52","72.55","NAN","0.0"],
    [1551856,"2026-04-25 05:50:00","4566","0.9159999999999999","17.87","2.025","11.14","1018.015","14.56","70.56","NAN","0.0"],
    [1551857,"2026-04-25 06:00:00","4567","1.273","7.867000000000001","2.319","6.7620000000000005","1018.077","14.62","67.71","NAN","0.0"],
    [1551858,"2026-04-25 06:10:00","4568","0.5920000000000001","14.45","1.601","7.066","1018.1619999999999","14.87","65.9","NAN","0.0"],
    [1551859,"2026-04-25 06:20:00","4569","1.018","37.05","2.123","52.6","1018.258","15.12","64.01","NAN","0.0"],
    [1551860,"2026-04-25 06:30:00","4570","0.7390000000000001","12.89","1.633","35.17","1018.268","15.26","63.4","NAN","0.0"],
    [1551861,"2026-04-25 06:40:00","4571","0.637","56.81","1.209","61.86","1018.258","15.79","61.88","NAN","0.0"],
    [1551862,"2026-04-25 06:50:00","4572","0.428","114.2","0.8170000000000001","112.7","1018.323","16.32","60.37","NAN","0.0"],
    [1551863,"2026-04-25 07:00:00","4573","0.498","173.1","1.209","192.2","1018.395","16.62","60","NAN","0.0"],
    [1551864,"2026-04-25 07:10:00","4574","1.25","160.9","2.0909999999999997","170.0","1018.507","16.44","61.21","NAN","0.0"],
    [1551865,"2026-04-25 07:20:00","4575","1.4969999999999999","176.4","2.352","184.6","1018.6060000000001","16.27","64.21","NAN","0.0"],
    [1551866,"2026-04-25 07:30:00","4576","2.0469999999999997","180.2","2.9730000000000003","182.3","1018.691","16.3","65.82","NAN","0.0"],
    [1551867,"2026-04-25 07:40:00","4577","1.824","184.5","2.5810000000000004","174.1","1018.745","16.24","70.19","NAN","0.0"],
    [1551868,"2026-04-25 07:50:00","4578","1.5130000000000001","178.4","2.287","182.9","1018.686","16.57","71.74","NAN","0.0"],
    [1551869,"2026-04-25 08:00:00","4579","1.7","172.9","2.7110000000000003","183.6","1018.7660000000001","16.65","74.09","NAN","0.0"],
    [1551870,"2026-04-25 08:10:00","4580","1.954","167.7","2.875","170.4","1018.738","16.44","78.12","NAN","0.0"],
    [1551871,"2026-04-25 08:20:00","4581","2.082","158.0","2.9730000000000003","157.9","1018.688","16.51","77.26","NAN","0.0"],
    [1551872,"2026-04-25 08:30:00","4582","1.655","172.7","3.103","121.6","1018.791","16.7","76.4","NAN","0.0"],
    [1551873,"2026-04-25 08:40:00","4583","1.944","128.0","3.1689999999999996","106.2","1018.932","16.82","73.68","NAN","0.0"],
    [1551874,"2026-04-25 08:50:00","4584","2.379","111.2","3.365","106.8","1018.957","16.66","72.65","NAN","0.0"],
    [1551875,"2026-04-25 09:00:00","4585","1.9469999999999998","124.7","3.463","116.1","1018.945","17.11","70.82","NAN","0.0"],
    [1551876,"2026-04-25 09:10:00","4586","2.088","127.3","3.267","116.3","1018.947","17","73.01","NAN","0.0"],
    [1551877,"2026-04-25 09:20:00","4587","2.149","123.4","3.7239999999999998","124.3","1018.952","16.95","75.5","NAN","0.0"],
    [1551878,"2026-04-25 09:30:00","4588","2.174","126.4","3.6260000000000003","112.2","1018.94","17.11","75.1","NAN","0.0"],
    [1551879,"2026-04-25 09:40:00","4589","2.231","137.0","3.7569999999999997","163.8","1018.935","17.07","76.77","NAN","0.0"],
    [1551880,"2026-04-25 09:50:00","4590","2.334","114.0","3.855","113.9","1018.813","17.1","77.98","NAN","0.0"],
    [1551881,"2026-04-25 10:00:00","4591","1.972","123.1","3.1689999999999996","127.7","1018.773","17.02","78.81","NAN","0.0"],
    [1551882,"2026-04-25 10:10:00","4592","1.94","123.4","3.103","117.2","1018.7360000000001","17.01","79.62","NAN","0.0"],
    [1551883,"2026-04-25 10:20:00","4593","1.86","129.4","2.8089999999999997","130.4","1018.686","16.98","79.95","NAN","0.0"],
    [1551884,"2026-04-25 10:30:00","4594","1.824","128.4","3.593","145.0","1018.686","17.13","79.33","NAN","0.0"],
    [1551885,"2026-04-25 10:40:00","4595","2.063","120.4","3.267","109.7","1018.6610000000001","17.35","75.99","NAN","0.0"],
    [1551886,"2026-04-25 10:50:00","4596","1.8769999999999998","126.5","3.136","111.0","1018.566","17.95","69.27","NAN","0.0"],
    [1551887,"2026-04-25 11:00:00","4597","1.848","149.8","2.842","174.3","1018.544","18.26","63.31","NAN","0.0"],
    [1551888,"2026-04-25 11:10:00","4598","1.837","171.4","2.515","139.4","1018.5060000000001","18.36","60.79","NAN","0.0"],
    [1551889,"2026-04-25 11:20:00","4599","1.911","182.7","3.1689999999999996","173.7","1018.325","18.6","60.76","NAN","0.0"],
    [1551890,"2026-04-25 11:30:00","4600","2.194","187.7","3.6910000000000003","181.6","1018.2769999999999","18.38","61.07","NAN","0.0"],
    [1551891,"2026-04-25 11:40:00","4601","1.891","199.8","3.071","176.4","1018.188","18.97","59.91","NAN","0.0"],
    [1551892,"2026-04-25 11:50:00","4602","2.764","178.1","3.855","177.3","1018.188","18.04","63.52","NAN","0.0"],
    [1551893,"2026-04-25 12:00:00","4603","2.755","177.2","4.181","161.0","1018.1669999999999","17.92","67.37","NAN","0.0"],
    [1551894,"2026-04-25 12:10:00","4604","2.583","171.2","3.985","168.9","1017.9910000000001","18.17","64.03","NAN","0.0"],
    [1551895,"2026-04-25 12:20:00","4605","2.657","177.0","3.92","187.1","1017.928","18.09","67.36","NAN","0.0"],
    [1551896,"2026-04-25 12:30:00","4606","2.6289999999999996","179.4","3.855","185.4","1017.779","18.27","67.35","NAN","0.0"],
    [1551897,"2026-04-25 12:40:00","4607","2.612","188.7","3.985","183.9","1017.7189999999999","18.25","69.57","NAN","0.0"],
    [1551898,"2026-04-25 12:50:00","4608","2.449","188.4","3.855","197.7","1017.7639999999999","18.44","72.11","NAN","0.0"],
    [1551899,"2026-04-25 13:00:00","4609","2.406","189.1","3.9530000000000003","192.1","1017.7189999999999","18.46","73.99","NAN","0.0"],
    [1551900,"2026-04-25 13:10:00","4610","2.625","182.0","4.279","177.9","1017.689","18.15","74.01","NAN","0.0"],
    [1551901,"2026-04-25 13:20:00","4611","2.696","182.3","4.312","178.8","1017.689","18.25","73.53","NAN","0.0"],
    [1551902,"2026-04-25 13:30:00","4612","2.818","183.1","4.2139999999999995","175.6","1017.6339999999999","18.18","75.2","NAN","0.0"],
    [1551903,"2026-04-25 13:40:00","4613","2.839","182.4","4.4430000000000005","179.5","1017.6469999999999","18.13","74.02","NAN","0.0"],
    [1551904,"2026-04-25 13:50:00","4614","2.946","183.3","4.475","169.9","1017.57","18.15","71.84","NAN","0.0"],
    [1551905,"2026-04-25 14:00:00","4615","3.133","174.8","4.835","178.6","1017.513","18.07","75.5","NAN","0.0"],
    [1551906,"2026-04-25 14:10:00","4616","3.1310000000000002","174.5","4.508","187.4","1017.472","18","78.22","NAN","0.0"],
    [1551907,"2026-04-25 14:20:00","4617","3.261","179.6","4.671","175.9","1017.375","17.82","78.24","NAN","0.0"],
    [1551908,"2026-04-25 14:30:00","4618","2.827","178.5","4.181","177.6","1017.326","18.1","76.65","NAN","0.0"],
    [1551909,"2026-04-25 14:40:00","4619","2.8489999999999998","179.7","4.1160000000000005","171.0","1017.323","17.93","77.8","NAN","0.0"],
    [1551910,"2026-04-25 14:50:00","4620","3.0439999999999996","178.2","4.508","173.1","1017.318","17.92","78.2","NAN","0.0"],
    [1551911,"2026-04-25 15:00:00","4621","2.821","182.7","4.508","183.9","1017.303","17.87","79.38","NAN","0.0"],
    [1551912,"2026-04-25 15:10:00","4622","2.685","179.5","3.887","177.1","1017.2280000000001","18.01","78.6","NAN","0.0"],
    [1551913,"2026-04-25 15:20:00","4623","2.617","171.1","3.7889999999999997","165.0","1017.191","17.76","79.59","NAN","0.0"],
    [1551914,"2026-04-25 15:30:00","4624","2.694","177.4","3.887","185.6","1017.194","17.76","80.4","NAN","0.0"],
    [1551915,"2026-04-25 15:40:00","4625","2.5","173.9","4.051","147.0","1017.199","17.87","80.6","NAN","0.0"],
    [1551916,"2026-04-25 15:50:00","4626","2.411","172.8","3.7239999999999998","182.3","1017.2510000000001","17.94","80.4","NAN","0.0"],
    [1551917,"2026-04-25 16:00:00","4627","2.702","171.6","4.018","160.3","1017.201","17.88","80.6","NAN","0.0"],
    [1551918,"2026-04-25 16:10:00","4628","2.863","176.9","3.9530000000000003","180.9","1017.194","17.67","82","NAN","0.0"],
    [1551919,"2026-04-25 16:20:00","4629","2.932","178.2","4.2139999999999995","182.7","1017.191","17.56","83","NAN","0.0"],
    [1551920,"2026-04-25 16:30:00","4630","2.559","175.9","3.887","179.8","1017.2610000000001","17.56","82.8","NAN","0.0"],
    [1551921,"2026-04-25 16:40:00","4631","2.654","175.2","3.887","189.0","1017.309","17.55","82.9","NAN","0.0"],
    [1551922,"2026-04-25 16:50:00","4632","2.513","176.9","4.018","160.1","1017.328","17.58","82.9","NAN","0.0"],
    [1551923,"2026-04-25 17:00:00","4633","2.487","170.8","3.7569999999999997","174.8","1017.263","17.61","83.2","NAN","0.0"],
    [1551924,"2026-04-25 17:10:00","4634","2.48","174.9","3.7889999999999997","178.4","1017.2230000000001","17.57","83.7","NAN","0.0"],
    [1551925,"2026-04-25 17:20:00","4635","2.391","171.3","3.6260000000000003","178.4","1017.158","17.5","84.3","NAN","0.0"],
    [1551926,"2026-04-25 17:30:00","4636","2.354","172.5","3.92","185.3","1017.1160000000001","17.6","83.6","NAN","0.0"],
    [1551927,"2026-04-25 17:40:00","4637","2.47","172.7","3.6910000000000003","173.4","1017.118","17.58","83.3","NAN","0.0"],
    [1551928,"2026-04-25 17:50:00","4638","3.01","173.7","4.247","175.3","1017.1039999999999","17.39","84.1","NAN","0.0"],
    [1551929,"2026-04-25 18:00:00","4639","2.563","172.2","3.822","180.1","1017.0110000000001","17.39","84.5","NAN","0.0"],
    [1551930,"2026-04-25 18:10:00","4640","2.359","171.9","3.463","178.5","1017.013","17.43","83.9","NAN","0.0"],
    [1551931,"2026-04-25 18:20:00","4641","2.3209999999999997","171.9","3.528","180.8","1017.01","17.46","83.4","NAN","0.0"],
    [1551932,"2026-04-25 18:30:00","4642","2.133","169.1","3.136","176.7","1017.025","17.45","83.4","NAN","0.0"],
    [1551933,"2026-04-25 18:40:00","4643","1.69","175.5","2.679","170.7","1017.137","17.55","80.7","NAN","0.0"],
    [1551934,"2026-04-25 18:50:00","4644","1.258","203.8","2.417","208.8","1017.132","17.9","73.31","NAN","0.0"],
    [1551935,"2026-04-25 19:00:00","4645","0.9540000000000001","215.3","1.797","172.5","1017.2739999999999","18.31","68.85","NAN","0.0"],
    [1551936,"2026-04-25 19:10:00","4646","1.4180000000000001","212.5","2.9730000000000003","204.1","1017.4689999999999","18.29","70.2","NAN","0.0"],
    [1551937,"2026-04-25 19:20:00","4647","1.365","205.2","2.94","197.1","1017.538","18.19","70.92","NAN","0.0"],
    [1551938,"2026-04-25 19:30:00","4648","1.36","203.0","2.548","202.8","1017.623","18.04","72.39","NAN","0.0"],
    [1551939,"2026-04-25 19:40:00","4649","1.3359999999999999","205.6","2.352","180.4","1017.7130000000001","17.92","73.79","NAN","0.0"],
    [1551940,"2026-04-25 19:50:00","4650","1.479","206.9","2.7769999999999997","198.6","1017.88","17.87","73.83","NAN","0.0"],
    [1551941,"2026-04-25 20:00:00","4651","1.3880000000000001","219.6","2.417","228.0","1017.982","17.87","68.46","NAN","0.0"],
    [1551942,"2026-04-25 20:10:00","4652","1.0979999999999999","204.3","2.352","206.0","1018.0089999999999","17.84","64.45","NAN","0.0"],
    [1551943,"2026-04-25 20:20:00","4653","1.038","209.9","2.189","201.3","1018.01","17.73","62.78","NAN","0.0"],
    [1551944,"2026-04-25 20:30:00","4654","1.172","206.0","1.993","202.7","1018.015","17.79","62.53","NAN","0.0"],
    [1551945,"2026-04-25 20:40:00","4655","1.168","214.8","2.483","232.8","1017.93","17.68","64.84","NAN","0.0"],
    [1551946,"2026-04-25 20:50:00","4656","1.02","203.1","1.797","203.5","1017.887","17.72","66.63","NAN","0.0"],
    [1551947,"2026-04-25 21:00:00","4657","1.036","204.7","1.895","200.7","1017.947","17.53","70.04","NAN","0.0"],
    [1551948,"2026-04-25 21:10:00","4658","1.067","221.6","2.0909999999999997","262.6","1018.007","17.54","69.73","NAN","0.0"],
    [1551949,"2026-04-25 21:20:00","4659","1.1520000000000001","232.6","2.679","244.9","1017.977","17.65","69.27","NAN","0.0"],
    [1551950,"2026-04-25 21:30:00","4660","1.2819999999999998","235.6","2.7769999999999997","238.8","1017.863","17.62","70.01","NAN","0.0"],
    [1551951,"2026-04-25 21:40:00","4661","0.961","218.9","2.0909999999999997","233.5","1017.9010000000001","17.63","70.76","NAN","0.0"],
    [1551952,"2026-04-25 21:50:00","4662","0.991","210.9","2.123","227.1","1017.887","17.42","72.32","NAN","0.0"],
    [1551953,"2026-04-25 22:00:00","4663","0.9329999999999999","218.5","1.993","215.0","1017.8480000000001","17.47","72.85","NAN","0.0"],
    [1551954,"2026-04-25 22:10:00","4664","0.937","242.5","2.287","236.4","1017.775","17.46","72.99","NAN","0.0"],
    [1551955,"2026-04-25 22:20:00","4665","0.335","189.5","1.045","169.9","1017.7639999999999","17.42","73.66","NAN","0.0"],
    [1551956,"2026-04-25 22:30:00","4666","0.5770000000000001","186.5","1.274","184.9","1017.7610000000001","17.23","76.04","NAN","0.0"],
    [1551957,"2026-04-25 22:40:00","4667","0.49","230.5","1.8619999999999999","248.8","1017.743","17.17","76.53","NAN","0.0"],
    [1551958,"2026-04-25 22:50:00","4668","1.7369999999999999","242.5","2.94","248.2","1017.7669999999999","17.26","76.94","NAN","0.0"],
    [1551959,"2026-04-25 23:00:00","4669","1.3630000000000002","232.5","2.352","237.3","1017.77","17.19","77.95","NAN","0.0"],
    [1551960,"2026-04-25 23:10:00","4670","1.247","218.7","2.123","219.0","1017.76","17.17","78.29","NAN","0.0"],
    [1551961,"2026-04-25 23:20:00","4671","1.5319999999999998","242.4","2.875","252.5","1017.742","17.11","78.58","NAN","0.0"],
    [1551962,"2026-04-25 23:30:00","4672","1.104","225.9","2.515","219.4","1017.7489999999999","17.06","79.02","NAN","0.0"],
    [1551963,"2026-04-25 23:40:00","4673","1.202","239.2","2.548","244.9","1017.6489999999999","17.06","78.13","NAN","0.0"],
    [1551964,"2026-04-25 23:50:00","4674","1.496","241.2","2.842","242.6","1017.587","17.05","76.85","NAN","0.0"],
    [1551965,"2026-04-26 00:00:00","4675","1.4080000000000001","236.3","2.7110000000000003","238.3","1017.505","17.04","75.97","NAN","0.0"],
    [1551966,"2026-04-26 00:10:00","4676","0.621","212.2","1.47","238.2","1017.3810000000001","16.92","76.46","NAN","0.0"],
    [1551967,"2026-04-26 00:20:00","4677","0.629","204.4","1.111","207.8","1017.2869999999999","16.73","78.04","NAN","0.0"],
    [1551968,"2026-04-26 00:30:00","4678","0.618","186.4","0.9470000000000001","199.5","1017.2719999999999","16.63","77.63","NAN","0.0"],
    [1551969,"2026-04-26 00:40:00","4679","0.753","187.6","1.111","200.3","1017.197","16.53","78.66","NAN","0.0"],
    [1551970,"2026-04-26 00:50:00","4680","0.61","203.1","1.143","200.1","1017.2760000000001","16.51","77.71","NAN","0.0"],
    [1551971,"2026-04-26 01:00:00","4681","0.687","203.7","1.405","203.9","1017.2769999999999","16.61","76.25","NAN","0.0"],
    [1551972,"2026-04-26 01:10:00","4682","0.20199999999999999","160.7","0.7190000000000001","175.5","1017.28","16.62","76.7","NAN","0.0"],
    [1551973,"2026-04-26 01:20:00","4683","0.053","85.5","0.49","94.4","1017.178","16.41","77.93","NAN","0.0"],
    [1551974,"2026-04-26 01:30:00","4684","0.057","78.45","0.7509999999999999","69.95","1017.2339999999999","16.38","78.17","NAN","0.0"],
    [1551975,"2026-04-26 01:40:00","4685","0.805","51.53","1.47","47.03","1017.297","16.58","77.11","NAN","0.0"],
    [1551976,"2026-04-26 01:50:00","4686","1.112","101.0","2.254","73.88","1017.298","16.81","76.6","NAN","0.0"],
    [1551977,"2026-04-26 02:00:00","4687","1.1320000000000001","100.3","1.699","99.2","1017.29","16.44","73.52","NAN","0.0"],
    [1551978,"2026-04-26 02:10:00","4688","0.965","86.2","1.633","91.8","1017.336","16.36","69.19","NAN","0.0"],
    [1551979,"2026-04-26 02:20:00","4689","0.7340000000000001","84.5","1.535","95.3","1017.3330000000001","16.24","68.13","NAN","0.0"],
    [1551980,"2026-04-26 02:30:00","4690","1.023","57.16","2.319","57.85","1017.393","16.11","66.82","NAN","0.0"],
    [1551981,"2026-04-26 02:40:00","4691","1.459","48.87","2.679","52.92","1017.503","15.96","67.16","NAN","0.0"],
    [1551982,"2026-04-26 02:50:00","4692","1.594","45.28","3.528","49.7","1017.51","15.96","68.77","NAN","0.0"],
    [1551983,"2026-04-26 03:00:00","4693","1.113","49.26","2.0580000000000003","52.76","1017.555","16.01","70.11","NAN","0.0"],
    [1551984,"2026-04-26 03:10:00","4694","0.915","43.7","1.895","28.06","1017.567","16.05","71.3","NAN","0.0"],
    [1551985,"2026-04-26 03:20:00","4695","0.6659999999999999","10.6","1.405","40.73","1017.507","16.06","72.21","NAN","0.0"],
    [1551986,"2026-04-26 03:30:00","4696","0.9840000000000001","12.91","2.221","359.9","1017.562","16.15","75.2","NAN","0.0"],
    [1551987,"2026-04-26 03:40:00","4697","1.31","6.54","2.45","9.65","1017.565","16.19","78.58","NAN","0.0"],
    [1551988,"2026-04-26 03:50:00","4698","0.7609999999999999","18.92","1.829","357.7","1017.648","16.11","81.3","NAN","0.0"],
    [1551989,"2026-04-26 04:00:00","4699","0.696","46.57","2.0580000000000003","32.11","1017.752","16","83.1","NAN","0.0"],
    [1551990,"2026-04-26 04:10:00","4700","0.8859999999999999","51.12","2.025","65.59","1017.8589999999999","15.93","84.4","NAN","0.0"],
    [1551991,"2026-04-26 04:20:00","4701","1.185","36.66","2.417","42.05","1017.938","15.92","85.6","NAN","0.0"],
    [1551992,"2026-04-26 04:30:00","4702","1.005","35.99","1.601","20.48","1017.93","15.95","86.1","NAN","0.0"],
    [1551993,"2026-04-26 04:40:00","4703","0.973","28.51","1.8619999999999999","24.19","1017.9780000000001","15.95","86.9","NAN","0.0"],
    [1551994,"2026-04-26 04:50:00","4704","0.943","22.76","1.8619999999999999","32.36","1018.049","15.96","87.6","NAN","0.0"],
    [1551995,"2026-04-26 05:00:00","4705","1.178","6.693","1.895","21.94","1018.061","15.98","87.5","NAN","0.0"],
    [1551996,"2026-04-26 05:10:00","4706","0.753","14.1","1.895","8.75","1018.184","16.1","87","NAN","0.0"],
    [1551997,"2026-04-26 05:20:00","4707","0.84","37.29","1.666","50.6","1018.232","16.16","86.7","NAN","0.0"],
    [1551998,"2026-04-26 05:30:00","4708","0.6920000000000001","30.57","1.535","49.35","1018.279","16.26","87","NAN","0.0"],
    [1551999,"2026-04-26 05:40:00","4709","0.85","61.89","1.568","53.48","1018.302","16.41","86.8","NAN","0.0"],
    [1552000,"2026-04-26 05:50:00","4710","0.662","37.91","1.666","54.84","1018.4010000000001","16.66","86.2","NAN","0.0"],
    [1552001,"2026-04-26 06:00:00","4711","0.935","36.38","1.764","58.28","1018.561","16.75","86.6","NAN","0.0"],
    [1552002,"2026-04-26 06:10:00","4712","1.041","46.59","1.47","16.55","1018.692","16.86","86.2","NAN","0.0"],
    [1552003,"2026-04-26 06:20:00","4713","0.57","32.65","1.2409999999999999","53.24","1018.768","17.02","86.3","NAN","0.0"],
    [1552004,"2026-04-26 06:30:00","4714","0.88","64.51","1.5030000000000001","35.85","1018.8919999999999","17.2","85.1","NAN","0.0"],
    [1552005,"2026-04-26 06:40:00","4715","0.7709999999999999","16.75","1.535","11.5","1018.942","17.33","83.7","NAN","0.0"],
    [1552006,"2026-04-26 06:50:00","4716","0.509","74.65","1.209","89.5","1018.919","18.01","80.1","NAN","0.0"],
    [1552007,"2026-04-26 07:00:00","4717","0.813","111.6","1.3719999999999999","98.1","1018.8919999999999","17.92","79.1","NAN","0.0"],
    [1552008,"2026-04-26 07:10:00","4718","1.306","120.1","2.123","110.4","1018.93","17.99","79.87","NAN","0.0"],
    [1552009,"2026-04-26 07:20:00","4719","1.5319999999999998","119.9","2.352","114.3","1018.935","17.7","81.8","NAN","0.0"],
    [1552010,"2026-04-26 07:30:00","4720","1.493","118.4","2.254","111.5","1018.935","17.67","81.7","NAN","0.0"],
    [1552011,"2026-04-26 07:40:00","4721","1.089","130.7","1.764","138.6","1018.935","17.96","80.1","NAN","0.0"],
    [1552012,"2026-04-26 07:50:00","4722","1.25","116.9","1.9269999999999998","109.6","1018.982","18.45","77.84","NAN","0.0"],
    [1552013,"2026-04-26 08:00:00","4723","1.165","120.3","1.699","118.9","1019.102","18.73","76.87","NAN","0.0"],
    [1552014,"2026-04-26 08:10:00","4724","1.268","144.7","1.8619999999999999","154.2","1019.171","18.86","76.29","NAN","0.0"],
    [1552015,"2026-04-26 08:20:00","4725","0.9670000000000001","140.7","1.829","111.5","1019.184","18.98","75.64","NAN","0.0"],
    [1552016,"2026-04-26 08:30:00","4726","1.081","142.0","1.829","117.9","1019.2310000000001","19.55","72.22","NAN","0.0"],
    [1552017,"2026-04-26 08:40:00","4727","1.3980000000000001","131.2","2.45","143.9","1019.2510000000001","19.59","70.97","NAN","0.0"],
    [1552018,"2026-04-26 08:50:00","4728","1.4140000000000001","149.7","1.993","163.8","1019.303","19.43","72.83","NAN","0.0"],
    [1552019,"2026-04-26 09:00:00","4729","1.32","162.5","2.0909999999999997","177.4","1019.311","19.51","73.77","NAN","0.0"],
    [1552020,"2026-04-26 09:10:00","4730","1.385","141.1","2.156","140.2","1019.321","19.55","72.58","NAN","0.0"],
    [1552021,"2026-04-26 09:20:00","4731","1.6119999999999999","161.1","2.417","178.1","1019.433","19.49","74.98","NAN","0.0"],
    [1552022,"2026-04-26 09:30:00","4732","1.548","193.1","2.613","198.3","1019.43","19.33","76.98","NAN","0.0"],
    [1552023,"2026-04-26 09:40:00","4733","1.585","187.4","2.45","188.2","1019.3860000000001","19.19","77.35","NAN","0.0"],
    [1552024,"2026-04-26 09:50:00","4734","1.535","190.6","2.417","178.2","1019.43","19.38","77.07","NAN","0.0"],
    [1552025,"2026-04-26 10:00:00","4735","1.506","196.2","2.7439999999999998","182.2","1019.46","19.67","75.44","NAN","0.0"],
    [1552026,"2026-04-26 10:10:00","4736","1.399","194.6","2.6460000000000004","190.3","1019.465","19.71","73.43","NAN","0.0"],
    [1552027,"2026-04-26 10:20:00","4737","1.351","139.8","1.993","98.4","1019.498","19.89","71.47","NAN","0.0"],
    [1552028,"2026-04-26 10:30:00","4738","1.5530000000000002","116.8","2.254","119.7","1019.557","19.96","69.95","NAN","0.0"],
    [1552029,"2026-04-26 10:40:00","4739","1.504","133.8","2.5810000000000004","119.0","1019.557","19.7","71.23","NAN","0.0"],
    [1552030,"2026-04-26 10:50:00","4740","1.4509999999999998","130.8","2.483","109.3","1019.56","19.92","72.48","NAN","0.0"],
    [1552031,"2026-04-26 11:00:00","4741","1.646","140.1","2.5810000000000004","138.3","1019.562","20.13","71.9","NAN","0.0"],
    [1552032,"2026-04-26 11:10:00","4742","1.77","157.4","2.7110000000000003","168.7","1019.557","19.86","71.13","NAN","0.0"],
    [1552033,"2026-04-26 11:20:00","4743","1.6909999999999998","145.9","2.8089999999999997","136.8","1019.453","19.9","69.33","NAN","0.0"],
    [1552034,"2026-04-26 11:30:00","4744","1.614","130.7","2.5810000000000004","137.8","1019.38","20.24","67.26","NAN","0.0"],
    [1552035,"2026-04-26 11:40:00","4745","1.699","134.1","2.613","152.3","1019.268","20.45","67.19","NAN","0.0"],
    [1552036,"2026-04-26 11:50:00","4746","1.662","173.0","2.7439999999999998","113.2","1019.184","20.94","66.48","NAN","0.0"],
    [1552037,"2026-04-26 12:00:00","4747","1.883","170.8","2.548","179.0","1019.179","20.42","65.81","NAN","0.0"],
    [1552038,"2026-04-26 12:10:00","4748","2.023","175.7","3.0380000000000003","157.3","1019.1289999999999","20.43","66.04","NAN","0.0"],
    [1552039,"2026-04-26 12:20:00","4749","1.9469999999999998","177.5","2.842","177.4","1019.0939999999999","20.36","64.95","NAN","0.0"],
    [1552040,"2026-04-26 12:30:00","4750","1.989","186.5","3.201","177.8","1019.097","20.54","68.92","NAN","0.0"],
    [1552041,"2026-04-26 12:40:00","4751","2.594","183.1","3.855","173.3","1019.1089999999999","19.6","73.54","NAN","0.0"],
    [1552042,"2026-04-26 12:50:00","4752","2.275","187.7","3.43","181.6","1019.052","19.88","72.83","NAN","0.0"],
    [1552043,"2026-04-26 13:00:00","4753","2.739","185.5","4.1160000000000005","179.9","1018.987","19.84","72.55","NAN","0.0"],
    [1552044,"2026-04-26 13:10:00","4754","3.2760000000000002","182.5","4.475","182.8","1018.937","19.31","76.02","NAN","0.0"],
    [1552045,"2026-04-26 13:20:00","4755","2.765","175.5","3.855","162.8","1018.8969999999999","19.47","73.98","NAN","0.0"],
    [1552046,"2026-04-26 13:30:00","4756","2.524","169.5","3.7239999999999998","171.2","1018.84","19.75","70.17","NAN","0.0"],
    [1552047,"2026-04-26 13:40:00","4757","2.5469999999999997","168.4","3.985","155.3","1018.813","20.01","63.72","NAN","0.0"],
    [1552048,"2026-04-26 13:50:00","4758","2.734","174.6","4.1160000000000005","175.0","1018.695","20.17","62.2","NAN","0.0"],
    [1552049,"2026-04-26 14:00:00","4759","2.6289999999999996","172.0","3.855","183.6","1018.581","20.07","68.92","NAN","0.0"],
    [1552050,"2026-04-26 14:10:00","4760","2.346","172.6","3.43","176.2","1018.4839999999999","20.13","71.61","NAN","0.0"],
    [1552051,"2026-04-26 14:20:00","4761","2.501","170.5","3.6260000000000003","174.7","1018.442","20.29","72.95","NAN","0.0"],
    [1552052,"2026-04-26 14:30:00","4762","2.373","171.9","3.299","181.5","1018.444","20.25","71.88","NAN","0.0"],
    [1552053,"2026-04-26 14:40:00","4763","2.447","172.1","3.299","186.0","1018.437","20.16","71.09","NAN","0.0"],
    [1552054,"2026-04-26 14:50:00","4764","2.572","173.9","3.822","176.1","1018.382","20.07","71.82","NAN","0.0"],
    [1552055,"2026-04-26 15:00:00","4765","2.867","174.2","4.181","190.5","1018.437","19.66","74.37","NAN","0.0"],
    [1552056,"2026-04-26 15:10:00","4766","3.102","173.8","4.1160000000000005","184.9","1018.3789999999999","19.34","78.42","NAN","0.0"],
    [1552057,"2026-04-26 15:20:00","4767","2.645","169.2","3.985","175.5","1018.3969999999999","19.4","78.03","NAN","0.0"],
    [1552058,"2026-04-26 15:30:00","4768","2.495","168.6","3.7239999999999998","168.4","1018.434","19.6","77.56","NAN","0.0"],
    [1552059,"2026-04-26 15:40:00","4769","2.397","170.1","3.5610000000000004","176.7","1018.3739999999999","19.8","72.06","NAN","0.0"],
    [1552060,"2026-04-26 15:50:00","4770","2.033","180.1","3.365","177.6","1018.312","20.72","57.94","NAN","0.0"],
    [1552061,"2026-04-26 16:00:00","4771","1.912","189.8","3.201","157.0","1018.235","21.07","55.68","NAN","0.0"],
    [1552062,"2026-04-26 16:10:00","4772","1.649","196.0","3.463","162.9","1018.25","21.38","53.38","NAN","0.0"],
    [1552063,"2026-04-26 16:20:00","4773","1.4969999999999999","173.0","2.5810000000000004","179.2","1018.315","21.31","53.55","NAN","0.0"],
    [1552064,"2026-04-26 16:30:00","4774","0.981","183.0","2.319","163.9","1018.317","21.46","52.9","NAN","0.0"],
    [1552065,"2026-04-26 16:40:00","4775","1.056","204.8","1.8619999999999999","215.0","1018.2669999999999","21.85","50.64","NAN","0.0"],
    [1552066,"2026-04-26 16:50:00","4776","1.386","185.6","2.94","139.9","1018.175","21.57","51.78","NAN","0.0"],
    [1552067,"2026-04-26 17:00:00","4777","1.3780000000000001","170.8","2.6460000000000004","182.2","1018.188","21.49","52.15","NAN","0.0"],
    [1552068,"2026-04-26 17:10:00","4778","1.6840000000000002","170.3","2.45","182.2","1018.163","21.18","52.87","NAN","0.0"],
    [1552069,"2026-04-26 17:20:00","4779","1.445","173.6","2.123","178.9","1018.12","21","53.51","NAN","0.0"],
    [1552070,"2026-04-26 17:30:00","4780","1.4169999999999998","184.8","2.7110000000000003","180.7","1017.948","21.22","53.11","NAN","0.0"],
    [1552071,"2026-04-26 17:40:00","4781","1.604","185.9","2.483","182.9","1017.9760000000001","21.08","52.47","NAN","0.0"],
    [1552072,"2026-04-26 17:50:00","4782","1.534","177.5","2.417","178.2","1018.091","21.02","51.75","NAN","0.0"],
    [1552073,"2026-04-26 18:00:00","4783","1.3559999999999999","155.3","2.025","160.9","1018.165","21.01","51.35","NAN","0.0"],
    [1552074,"2026-04-26 18:10:00","4784","1.422","157.0","2.352","159.7","1018.138","20.72","51.08","NAN","0.0"],
    [1552075,"2026-04-26 18:20:00","4785","1.517","164.7","2.221","181.5","1018.1080000000001","20.36","53.22","NAN","0.0"],
    [1552076,"2026-04-26 18:30:00","4786","1.604","176.2","2.483","176.5","1018.1619999999999","20.14","49.53","NAN","0.0"],
    [1552077,"2026-04-26 18:40:00","4787","1.085","177.0","1.764","184.2","1018.203","20.06","48.84","NAN","0.0"],
    [1552078,"2026-04-26 18:50:00","4788","1.824","169.8","2.679","159.1","1018.335","19.93","49.12","NAN","0.0"],
    [1552079,"2026-04-26 19:00:00","4789","1.296","169.5","2.123","170.9","1018.4639999999999","19.65","55.61","NAN","0.0"],
    [1552080,"2026-04-26 19:10:00","4790","1.8030000000000002","174.3","2.613","184.3","1018.597","19.47","53.12","NAN","0.0"],
    [1552081,"2026-04-26 19:20:00","4791","1.87","176.1","2.842","185.5","1018.627","19.23","60.46","NAN","0.0"],
    [1552082,"2026-04-26 19:30:00","4792","1.426","178.1","2.319","177.6","1018.6460000000001","18.89","68.77","NAN","0.0"],
    [1552083,"2026-04-26 19:40:00","4793","0.895","189.2","1.5030000000000001","174.7","1018.7539999999999","18.79","67.58","NAN","0.0"],
    [1552084,"2026-04-26 19:50:00","4794","0.9540000000000001","212.9","2.515","219.0","1018.8939999999999","19.12","56.77","NAN","0.0"],
    [1552085,"2026-04-26 20:00:00","4795","1.09","239.4","2.5810000000000004","240.9","1018.988","19.6","53.02","NAN","0.0"],
    [1552086,"2026-04-26 20:10:00","4796","1.035","195.6","2.123","200.9","1019.058","19.35","61.62","NAN","0.0"],
    [1552087,"2026-04-26 20:20:00","4797","1.234","204.2","2.385","204.9","1019.005","18.96","70.16","NAN","0.0"],
    [1552088,"2026-04-26 20:30:00","4798","1.219","192.8","1.9269999999999998","197.5","1019.0210000000001","19.07","71.08","NAN","0.0"],
    [1552089,"2026-04-26 20:40:00","4799","0.9520000000000001","202.0","1.633","207.7","1019.052","18.95","72.62","NAN","0.0"],
    [1552090,"2026-04-26 20:50:00","4800","1.4409999999999998","202.8","2.483","201.0","1019.154","18.91","68.19","NAN","0.0"],
    [1552091,"2026-04-26 21:00:00","4801","1.078","228.0","2.385","235.6","1019.2230000000001","19.17","66.33","NAN","0.0"],
    [1552092,"2026-04-26 21:10:00","4802","1.236","206.4","2.0909999999999997","241.0","1019.2310000000001","19.1","64.14","NAN","0.0"],
    [1552093,"2026-04-26 21:20:00","4803","0.95","204.6","2.352","202.2","1019.232","19.02","65.05","NAN","0.0"],
    [1552094,"2026-04-26 21:30:00","4804","1.178","210.9","2.287","201.3","1019.255","19.04","70.89","NAN","0.0"],
    [1552095,"2026-04-26 21:40:00","4805","0.973","200.0","2.0909999999999997","219.6","1019.255","18.83","74.06","NAN","0.0"],
    [1552096,"2026-04-26 21:50:00","4806","1.317","207.5","2.548","231.8","1019.255","18.6","77.01","NAN","0.0"],
    [1552097,"2026-04-26 22:00:00","4807","1.393","221.0","3.136","221.0","1019.252","18.65","77.34","NAN","0.0"],
    [1552098,"2026-04-26 22:10:00","4808","1.4040000000000001","210.6","2.352","201.5","1019.2410000000001","18.54","78.3","NAN","0.0"],
    [1552099,"2026-04-26 22:20:00","4809","1.074","214.5","2.156","215.0","1019.164","18.56","77.72","NAN","0.0"],
    [1552100,"2026-04-26 22:30:00","4810","1.173","223.7","2.45","245.7","1019.0419999999999","18.47","78.44","NAN","0.0"],
    [1552101,"2026-04-26 22:40:00","4811","1.2570000000000001","240.3","2.515","244.7","1019.003","18.44","79.04","NAN","0.0"],
    [1552102,"2026-04-26 22:50:00","4812","1.463","237.6","2.385","248.9","1018.9960000000001","18.51","77.89","NAN","0.0"],
    [1552103,"2026-04-26 23:00:00","4813","0.937","225.0","1.8619999999999999","238.6","1018.971","18.68","76.06","NAN","0.0"],
    [1552104,"2026-04-26 23:10:00","4814","0.762","219.8","1.535","242.4","1018.883","18.69","76.27","NAN","0.0"],
    [1552105,"2026-04-26 23:20:00","4815","0.78","217.2","1.895","234.7","1018.797","18.56","77.96","NAN","0.0"],
    [1552106,"2026-04-26 23:30:00","4816","0.757","193.8","1.274","185.3","1018.801","18.3","80.4","NAN","0.0"],
    [1552107,"2026-04-26 23:40:00","4817","0.667","203.0","1.339","202.3","1018.758","18.19","80.1","NAN","0.0"],
    [1552108,"2026-04-26 23:50:00","4818","0.667","192.1","1.143","178.5","1018.7639999999999","18.23","78.76","NAN","0.0"],
    [1552109,"2026-04-27 00:00:00","4819","0.501","185.3","1.013","178.5","1018.7539999999999","18.14","79.54","NAN","0.0"],
    [1552110,"2026-04-27 00:10:00","4820","0.154","204.2","0.653","200.6","1018.577","18.19","79.04","NAN","0.0"],
    [1552111,"2026-04-27 00:20:00","4821","0.204","226.8","1.045","247.2","1018.497","18.29","78.1","NAN","0.0"],
    [1552112,"2026-04-27 00:30:00","4822","0.44","239.8","1.2409999999999999","293.1","1018.4169999999999","18.77","76.13","NAN","0.0"],
    [1552113,"2026-04-27 00:40:00","4823","0.33","229.3","1.111","242.7","1018.312","18.88","75.5","NAN","0.0"],
    [1552114,"2026-04-27 00:50:00","4824","0.539","200.2","0.98","182.9","1018.2310000000001","18.66","75.99","NAN","0.0"],
    [1552115,"2026-04-27 01:00:00","4825","0.5579999999999999","176.0","0.882","186.6","1018.075","18.18","78.09","NAN","0.0"],
    [1552116,"2026-04-27 01:10:00","4826","0.7070000000000001","195.5","1.111","199.3","1018.0160000000001","18.02","78.84","NAN","0.0"],
    [1552117,"2026-04-27 01:20:00","4827","0.46299999999999997","196.6","0.8490000000000001","205.2","1017.93","17.91","79.35","NAN","0.0"],
    [1552118,"2026-04-27 01:30:00","4828","0.364","186.6","0.784","181.1","1017.796","17.8","79.81","NAN","0.0"],
    [1552119,"2026-04-27 01:40:00","4829","0.574","190.2","1.111","216.6","1017.76","17.68","78.06","NAN","0.0"],
    [1552120,"2026-04-27 01:50:00","4830","0.565","179.5","0.98","179.9","1017.76","17.71","73.01","NAN","0.0"],
    [1552121,"2026-04-27 02:00:00","4831","0.49700000000000005","195.4","1.013","202.8","1017.7239999999999","17.6","67.57","NAN","0.0"],
    [1552122,"2026-04-27 02:10:00","4832","0.494","180.2","0.9470000000000001","177.4","1017.755","17.48","64.55","NAN","0.0"],
    [1552123,"2026-04-27 02:20:00","4833","0.271","135.0","0.555","134.5","1017.752","17.57","61.78","NAN","0.0"],
    [1552124,"2026-04-27 02:30:00","4834","0.11699999999999999","95.7","0.6859999999999999","111.6","1017.7639999999999","17.74","62.66","NAN","0.0"],
    [1552125,"2026-04-27 02:40:00","4835","0.171","115.5","0.588","103.4","1017.7639999999999","17.8","61.6","NAN","0.0"],
    [1552126,"2026-04-27 02:50:00","4836","0.023","195.1","0.392","195.1","1017.76","17.65","59.5","NAN","0.0"],
    [1552127,"2026-04-27 03:00:00","4837","0.129","184.5","0.392","195.1","1017.748","17.6","62.31","NAN","0.0"],
    [1552128,"2026-04-27 03:10:00","4838","0.139","150.1","0.49","166.0","1017.663","17.56","62.35","NAN","0.0"],
    [1552129,"2026-04-27 03:20:00","4839","0.6729999999999999","193.3","1.143","198.0","1017.638","17.63","63.06","NAN","0.0"],
    [1552130,"2026-04-27 03:30:00","4840","0.773","205.5","1.339","201.8","1017.648","17.7","61.46","NAN","0.0"],
    [1552131,"2026-04-27 03:40:00","4841","0.55","202.1","1.013","218.6","1017.693","17.75","57.81","NAN","0.0"],
    [1552132,"2026-04-27 03:50:00","4842","0.191","201.2","0.49","163.6","1017.753","17.75","57.31","NAN","0.0"],
    [1552133,"2026-04-27 04:00:00","4843","0.257","164.6","0.6859999999999999","168.3","1017.76","17.79","57.75","NAN","0.0"],
    [1552134,"2026-04-27 04:10:00","4844","0.662","191.7","1.045","197.5","1017.758","17.82","58.53","NAN","0.0"],
    [1552135,"2026-04-27 04:20:00","4845","0.515","199.7","1.045","188.9","1017.76","17.87","58.99","NAN","0.0"],
    [1552136,"2026-04-27 04:30:00","4846","0.52","179.6","0.9470000000000001","176.9","1017.76","17.89","59.06","NAN","0.0"],
    [1552137,"2026-04-27 04:40:00","4847","0.14400000000000002","199.8","0.6859999999999999","192.2","1017.91","17.91","58.56","NAN","0.0"],
    [1552138,"2026-04-27 04:50:00","4848","0.14","194.4","0.49","178.0","1018.0089999999999","18","58.53","NAN","0.0"],
    [1552139,"2026-04-27 05:00:00","4849","0.09699999999999999","175.7","0.457","178.1","1018.0089999999999","17.92","59.34","NAN","0.0"],
    [1552140,"2026-04-27 05:10:00","4850","0.20600000000000002","73.05","0.6859999999999999","52.0","1018.007","18.03","61.08","NAN","0.0"],
    [1552141,"2026-04-27 05:20:00","4851","0.532","51.99","1.3719999999999999","44.54","1018.013","18.32","60.74","NAN","0.0"],
    [1552142,"2026-04-27 05:30:00","4852","0.7190000000000001","47.99","1.274","49.9","1018.107","18.64","60.12","NAN","0.0"],
    [1552143,"2026-04-27 05:40:00","4853","0.552","75.15","1.078","10.32","1018.2260000000001","18.79","60.59","NAN","0.0"],
    [1552144,"2026-04-27 05:50:00","4854","0.5770000000000001","63.34","1.209","30.18","1018.2610000000001","18.87","60.83","NAN","0.0"],
    [1552145,"2026-04-27 06:00:00","4855","0.7290000000000001","105.0","1.2409999999999999","95.7","1018.408","18.87","60.85","NAN","0.0"],
    [1552146,"2026-04-27 06:10:00","4856","0.863","186.5","1.274","175.2","1018.5169999999999","18.54","64.33","NAN","0.0"],
    [1552147,"2026-04-27 06:20:00","4857","0.466","191.8","1.045","196.4","1018.577","18.44","66.71","NAN","0.0"],
    [1552148,"2026-04-27 06:30:00","4858","0.613","198.8","1.143","179.5","1018.663","18.7","69.39","NAN","0.0"],
    [1552149,"2026-04-27 06:40:00","4859","0.722","196.0","1.209","186.3","1018.698","18.85","71.72","NAN","0.0"],
    [1552150,"2026-04-27 06:50:00","4860","0.782","139.6","1.4369999999999998","90.7","1018.701","18.77","73.67","NAN","0.0"],
    [1552151,"2026-04-27 07:00:00","4861","1.148","118.8","1.666","113.0","1018.707","18.68","73.43","NAN","0.0"],
    [1552152,"2026-04-27 07:10:00","4862","1.485","110.4","2.287","108.4","1018.7189999999999","18.74","73.97","NAN","0.0"],
    [1552153,"2026-04-27 07:20:00","4863","1.82","112.2","2.7110000000000003","111.3","1018.806","19.08","73.1","NAN","0.0"],
    [1552154,"2026-04-27 07:30:00","4864","2.418","110.5","3.0380000000000003","110.7","1018.796","19.02","73.54","NAN","0.0"],
    [1552155,"2026-04-27 07:40:00","4865","2.415","91.8","3.6910000000000003","87.4","1018.793","19.17","72.24","NAN","0.0"],
    [1552156,"2026-04-27 07:50:00","4866","2.278","97.2","3.7569999999999997","89.6","1018.805","19.53","70.85","NAN","0.0"],
    [1552157,"2026-04-27 08:00:00","4867","2.468","93.4","3.659","87.8","1018.785","19.57","71.39","NAN","0.0"],
    [1552158,"2026-04-27 08:10:00","4868","2.8","90.0","4.279","78.3","1018.778","19.5","70.75","NAN","0.0"],
    [1552159,"2026-04-27 08:20:00","4869","3.145","83.7","5.096","69.81","1018.826","19.25","75.56","NAN","0.0"],
    [1552160,"2026-04-27 08:30:00","4870","2.924","83.0","5.422999999999999","66.38","1018.952","18.98","76.52","NAN","0.0"],
    [1552161,"2026-04-27 08:40:00","4871","2.1959999999999997","86.7","3.593","98.1","1019.052","19.63","73.65","NAN","0.0"],
    [1552162,"2026-04-27 08:50:00","4872","2.6189999999999998","96.9","3.7239999999999998","103.3","1019.034","19.33","75.03","NAN","0.0"],
    [1552163,"2026-04-27 09:00:00","4873","2.0580000000000003","95.2","3.234","115.5","1019.039","19.29","76.63","NAN","0.0"],
    [1552164,"2026-04-27 09:10:00","4874","2.273","90.4","3.6910000000000003","101.0","1019.0089999999999","19.56","74.15","NAN","0.0"],
    [1552165,"2026-04-27 09:20:00","4875","2.379","90.2","4.018","93.8","1018.952","19.98","71.74","NAN","0.0"],
    [1552166,"2026-04-27 09:30:00","4876","1.909","85.2","3.659","111.1","1018.957","20.55","68.71","NAN","0.0"],
    [1552167,"2026-04-27 09:40:00","4877","2.7089999999999996","89.8","4.475","95.0","1018.935","20.2","66.7","NAN","0.0"],
    [1552168,"2026-04-27 09:50:00","4878","2.714","89.8","4.508","66.41","1018.952","20.02","67.88","NAN","0.0"],
    [1552169,"2026-04-27 10:00:00","4879","2.4530000000000003","94.8","4.149","102.9","1018.935","20.09","66.94","NAN","0.0"],
    [1552170,"2026-04-27 10:10:00","4880","2.6260000000000003","101.6","4.1160000000000005","117.6","1018.935","20.16","61.81","NAN","0.0"],
    [1552171,"2026-04-27 10:20:00","4881","2.5869999999999997","87.3","4.345","94.5","1018.927","20.01","62.9","NAN","0.0"],
    [1552172,"2026-04-27 10:30:00","4882","2.2880000000000003","100.8","4.247","67.41","1018.93","20.15","64.18","NAN","0.0"],
    [1552173,"2026-04-27 10:40:00","4883","3.091","103.5","4.279","106.7","1018.932","19.77","61.43","NAN","0.0"],
    [1552174,"2026-04-27 10:50:00","4884","2.103","102.9","3.5610000000000004","117.8","1019.015","20.18","58.19","NAN","0.0"],
    [1552175,"2026-04-27 11:00:00","4885","1.96","96.8","3.5610000000000004","119.5","1019.064","19.86","64.2","NAN","0.0"],
    [1552176,"2026-04-27 11:10:00","4886","2.214","108.0","3.332","102.1","1018.922","19.65","62.47","NAN","0.0"],
    [1552177,"2026-04-27 11:20:00","4887","2.311","114.7","3.365","102.1","1018.835","19.79","59.8","NAN","0.0"],
    [1552178,"2026-04-27 11:30:00","4888","1.755","111.5","2.8089999999999997","101.5","1018.71","19.84","66.28","NAN","0.0"],
    [1552179,"2026-04-27 11:40:00","4889","1.86","102.3","2.907","111.6","1018.683","19.53","69.51","NAN","0.0"],
    [1552180,"2026-04-27 11:50:00","4890","2.227","112.4","2.907","114.5","1018.5980000000001","19.56","66.48","NAN","0.0"],
    [1552181,"2026-04-27 12:00:00","4891","2.615","112.9","3.463","112.4","1018.449","19.38","70.63","NAN","0.0"],
    [1552182,"2026-04-27 12:10:00","4892","2.353","104.5","3.365","111.4","1018.3689999999999","19.54","71.73","NAN","0.0"],
    [1552183,"2026-04-27 12:20:00","4893","2.0980000000000003","101.4","3.267","113.9","1018.302","19.7","71.13","NAN","0.0"],
    [1552184,"2026-04-27 12:30:00","4894","1.97","108.8","3.1689999999999996","106.6","1018.198","19.82","71.76","NAN","0.0"],
    [1552185,"2026-04-27 12:40:00","4895","2.15","125.1","3.365","137.1","1018.185","19.89","72","NAN","0.0"],
    [1552186,"2026-04-27 12:50:00","4896","1.5959999999999999","129.9","2.9730000000000003","110.8","1018.168","19.93","71.76","NAN","0.0"],
    [1552187,"2026-04-27 13:00:00","4897","1.811","128.7","2.875","114.3","1018.168","19.59","69.79","NAN","0.0"],
    [1552188,"2026-04-27 13:10:00","4898","1.7919999999999998","122.6","3.071","110.3","1018.188","19.43","73.89","NAN","0.0"],
    [1552189,"2026-04-27 13:20:00","4899","1.7530000000000001","117.0","3.136","100.4","1018.17","19.85","73.82","NAN","0.0"],
    [1552190,"2026-04-27 13:30:00","4900","1.726","181.7","2.875","184.7","1018.048","20.14","70.86","NAN","0.0"],
    [1552191,"2026-04-27 13:40:00","4901","1.6780000000000002","194.2","2.613","192.1","1017.939","20.21","68.9","NAN","0.0"],
    [1552192,"2026-04-27 13:50:00","4902","1.867","179.2","3.0380000000000003","182.7","1017.8939999999999","20.08","70.1","NAN","0.0"],
    [1552193,"2026-04-27 14:00:00","4903","2.097","178.4","3.103","183.9","1017.682","19.98","70.93","NAN","0.0"],
    [1552194,"2026-04-27 14:10:00","4904","2.227","182.6","3.332","183.5","1017.495","19.73","72.98","NAN","0.0"],
    [1552195,"2026-04-27 14:20:00","4905","1.916","178.0","3.234","182.8","1017.303","19.57","68.86","NAN","0.0"],
    [1552196,"2026-04-27 14:30:00","4906","2.079","175.1","3.1689999999999996","162.1","1017.196","19.86","66.78","NAN","0.0"],
    [1552197,"2026-04-27 14:40:00","4907","1.945","171.0","3.201","157.7","1017.191","20.08","65.6","NAN","0.0"],
    [1552198,"2026-04-27 14:50:00","4908","2.175","160.4","3.43","171.7","1017.199","20.17","62.87","NAN","0.0"],
    [1552199,"2026-04-27 15:00:00","4909","2.15","152.9","3.495","154.8","1017.2689999999999","20.08","63.93","NAN","0.0"],
    [1552200,"2026-04-27 15:10:00","4910","2.246","166.1","3.43","154.6","1017.313","20","64.95","NAN","0.0"],
    [1552201,"2026-04-27 15:20:00","4911","2.798","177.7","4.1160000000000005","179.5","1017.316","19.5","69.94","NAN","0.0"],
    [1552202,"2026-04-27 15:30:00","4912","2.573","179.5","3.7569999999999997","172.0","1017.2280000000001","19.23","74.14","NAN","0.0"],
    [1552203,"2026-04-27 15:40:00","4913","2.495","183.8","3.822","186.3","1017.1089999999999","19.24","74.95","NAN","0.0"],
    [1552204,"2026-04-27 15:50:00","4914","2.467","177.1","3.7889999999999997","177.6","1017.1669999999999","19.1","76.92","NAN","0.0"],
    [1552205,"2026-04-27 16:00:00","4915","1.9340000000000002","171.8","3.234","181.8","1017.191","19.06","76.73","NAN","0.0"],
    [1552206,"2026-04-27 16:10:00","4916","1.669","177.2","2.45","159.5","1017.2310000000001","19.18","72.03","NAN","0.0"],
    [1552207,"2026-04-27 16:20:00","4917","1.6640000000000001","179.7","2.319","157.5","1017.201","19.36","67.3","NAN","0.0"],
    [1552208,"2026-04-27 16:30:00","4918","1.8459999999999999","182.4","3.005","178.8","1017.091","19.4","68.04","NAN","0.0"],
    [1552209,"2026-04-27 16:40:00","4919","1.6269999999999998","173.4","2.7110000000000003","179.7","1017.064","19.36","67.9","NAN","0.0"],
    [1552210,"2026-04-27 16:50:00","4920","1.432","184.3","2.287","158.4","1017.0219999999999","19.6","68.89","NAN","0.0"],
    [1552211,"2026-04-27 17:00:00","4921","1.7369999999999999","187.4","3.1689999999999996","172.5","1016.947","19.36","67.42","NAN","0.0"],
    [1552212,"2026-04-27 17:10:00","4922","1.307","169.8","2.45","144.9","1016.882","19.33","69.95","NAN","0.0"],
    [1552213,"2026-04-27 17:20:00","4923","1.374","120.7","2.221","130.7","1016.86","19.16","71.71","NAN","0.0"],
    [1552214,"2026-04-27 17:30:00","4924","1.52","135.0","2.515","186.1","1016.784","18.91","72.02","NAN","0.0"],
    [1552215,"2026-04-27 17:40:00","4925","1.611","161.1","2.352","109.9","1016.818","18.83","75.87","NAN","0.0"],
    [1552216,"2026-04-27 17:50:00","4926","1.3219999999999998","183.3","2.123","170.6","1016.765","18.9","74.87","NAN","0.0"],
    [1552217,"2026-04-27 18:00:00","4927","1.714","175.4","2.5810000000000004","173.7","1016.846","18.75","77.69","NAN","0.0"],
    [1552218,"2026-04-27 18:10:00","4928","1.723","175.6","2.515","185.1","1016.8960000000001","18.61","79","NAN","0.0"],
    [1552219,"2026-04-27 18:20:00","4929","1.9880000000000002","178.8","3.136","183.4","1016.934","18.46","78.97","NAN","0.0"],
    [1552220,"2026-04-27 18:30:00","4930","1.828","176.2","3.005","184.5","1016.993","18.49","76.67","NAN","0.0"],
    [1552221,"2026-04-27 18:40:00","4931","1.685","171.5","2.907","184.3","1017.02","18.55","76.8","NAN","0.0"],
    [1552222,"2026-04-27 18:50:00","4932","1.454","206.8","3.071","227.8","1017.0219999999999","18.69","70.7","NAN","0.0"],
    [1552223,"2026-04-27 19:00:00","4933","1.666","226.1","3.332","238.4","1017.02","19.11","61.46","NAN","0.0"],
    [1552224,"2026-04-27 19:10:00","4934","1.311","214.9","2.45","236.1","1017.0889999999999","19.1","62.24","NAN","0.0"],
    [1552225,"2026-04-27 19:20:00","4935","1.028","200.0","2.0909999999999997","206.8","1017.1360000000001","18.93","65.04","NAN","0.0"],
    [1552226,"2026-04-27 19:30:00","4936","1.0590000000000002","188.7","1.7309999999999999","195.9","1017.1489999999999","18.77","68.94","NAN","0.0"],
    [1552227,"2026-04-27 19:40:00","4937","0.925","188.5","1.47","196.9","1017.2489999999999","18.65","69.97","NAN","0.0"],
    [1552228,"2026-04-27 19:50:00","4938","1.047","187.8","1.7309999999999999","177.0","1017.263","18.66","69.62","NAN","0.0"],
    [1552229,"2026-04-27 20:00:00","4939","1.2770000000000001","176.0","2.385","178.6","1017.2639999999999","18.66","72.07","NAN","0.0"],
    [1552230,"2026-04-27 20:10:00","4940","1.2830000000000001","178.0","1.764","176.4","1017.2810000000001","18.41","76.28","NAN","0.0"],
    [1552231,"2026-04-27 20:20:00","4941","1.18","177.8","2.025","178.2","1017.284","18.19","78.39","NAN","0.0"],
    [1552232,"2026-04-27 20:30:00","4942","1.053","192.9","1.764","179.1","1017.283","18.12","79.91","NAN","0.0"],
    [1552233,"2026-04-27 20:40:00","4943","0.613","197.4","1.568","175.1","1017.279","18.03","79.82","NAN","0.0"],
    [1552234,"2026-04-27 20:50:00","4944","0.7809999999999999","189.0","1.47","183.0","1017.2669999999999","18.09","78.88","NAN","0.0"],
    [1552235,"2026-04-27 21:00:00","4945","0.853","184.2","1.209","184.6","1017.1569999999999","18.16","78","NAN","0.0"],
    [1552236,"2026-04-27 21:10:00","4946","0.981","189.5","1.568","182.8","1017.117","18.14","77.98","NAN","0.0"],
    [1552237,"2026-04-27 21:20:00","4947","0.8290000000000001","197.4","1.3719999999999999","200.9","1017.033","18.15","77.09","NAN","0.0"],
    [1552238,"2026-04-27 21:30:00","4948","0.8220000000000001","187.5","1.3719999999999999","175.1","1017.015","18.22","76.6","NAN","0.0"],
    [1552239,"2026-04-27 21:40:00","4949","0.919","192.0","1.405","203.7","1016.9119999999999","18.29","77.09","NAN","0.0"],
    [1552240,"2026-04-27 21:50:00","4950","1.025","195.5","1.699","174.2","1016.9010000000001","18.27","75.04","NAN","0.0"],
    [1552241,"2026-04-27 22:00:00","4951","1.294","215.7","2.45","208.3","1016.857","18.51","70.2","NAN","0.0"],
    [1552242,"2026-04-27 22:10:00","4952","0.96","231.5","1.993","207.2","1016.7760000000001","18.65","68.78","NAN","0.0"],
    [1552243,"2026-04-27 22:20:00","4953","1.1320000000000001","217.7","2.025","215.1","1016.7669999999999","18.62","69.49","NAN","0.0"],
    [1552244,"2026-04-27 22:30:00","4954","1.158","222.9","2.385","243.7","1016.763","18.44","72.46","NAN","0.0"],
    [1552245,"2026-04-27 22:40:00","4955","1.328","249.3","2.287","234.0","1016.7410000000001","18.38","74.64","NAN","0.0"],
    [1552246,"2026-04-27 22:50:00","4956","0.578","206.9","1.111","183.1","1016.63","18.25","75.94","NAN","0.0"],
    [1552247,"2026-04-27 23:00:00","4957","0.77","190.4","1.274","181.1","1016.523","18.08","77.52","NAN","0.0"],
    [1552248,"2026-04-27 23:10:00","4958","0.98","202.7","1.666","193.9","1016.503","17.86","78.62","NAN","0.0"],
    [1552249,"2026-04-27 23:20:00","4959","0.914","210.3","1.699","197.3","1016.408","18.04","75.23","NAN","0.0"],
    [1552250,"2026-04-27 23:30:00","4960","0.654","191.8","1.013","201.8","1016.318","17.87","76.7","NAN","0.0"],
    [1552251,"2026-04-27 23:40:00","4961","0.6759999999999999","196.8","1.111","193.7","1016.284","17.73","76.71","NAN","0.0"],
    [1552252,"2026-04-27 23:50:00","4962","0.451","223.9","1.535","238.6","1016.2330000000001","17.73","75","NAN","0.0"],
    [1552253,"2026-04-28 00:00:00","4963","0.35100000000000003","207.9","1.111","262.6","1016.071","17.84","71.62","NAN","0.0"],
    [1552254,"2026-04-28 00:10:00","4964","0.8340000000000001","216.0","1.895","251.8","1015.9910000000001","17.84","68.78","NAN","0.0"],
    [1552255,"2026-04-28 00:20:00","4965","0.828","200.9","1.274","224.7","1015.918","17.74","67.16","NAN","0.0"],
    [1552256,"2026-04-28 00:30:00","4966","0.609","193.5","0.98","189.0","1015.922","17.45","67.7","NAN","0.0"],
    [1552257,"2026-04-28 00:40:00","4967","0.568","188.2","1.013","181.9","1015.824","17.19","65.18","NAN","0.0"],
    [1552258,"2026-04-28 00:50:00","4968","0.722","200.3","1.078","191.5","1015.7860000000001","17.03","64.03","NAN","0.0"],
    [1552259,"2026-04-28 01:00:00","4969","0.802","232.7","2.417","258.7","1015.6519999999999","16.98","60.45","NAN","0.0"],
    [1552260,"2026-04-28 01:10:00","4970","1.286","252.3","2.548","258.4","1015.4860000000001","17.51","55.44","NAN","0.0"],
    [1552261,"2026-04-28 01:20:00","4971","1.105","258.6","2.6460000000000004","245.8","1015.362","17.62","53.27","NAN","0.0"],
    [1552262,"2026-04-28 01:30:00","4972","0.835","248.5","1.96","266.9","1015.247","17.77","54.57","NAN","0.0"],
    [1552263,"2026-04-28 01:40:00","4973","1.025","231.6","2.025","243.0","1015.097","17.63","56.02","NAN","0.0"],
    [1552264,"2026-04-28 01:50:00","4974","0.795","241.9","1.633","217.6","1015.072","17.56","56.73","NAN","0.0"],
    [1552265,"2026-04-28 02:00:00","4975","0.489","247.0","1.7309999999999999","234.0","1014.9839999999999","17.62","57.11","NAN","0.0"],
    [1552266,"2026-04-28 02:10:00","4976","0.233","213.8","0.784","221.9","1014.887","17.39","57.43","NAN","0.0"],
    [1552267,"2026-04-28 02:20:00","4977","0.507","198.1","1.078","228.2","1014.808","17.53","57.29","NAN","0.0"],
    [1552268,"2026-04-28 02:30:00","4978","0.41","200.4","0.8170000000000001","191.4","1014.825","17.22","61.84","NAN","0.0"],
    [1552269,"2026-04-28 02:40:00","4979","0.016","179.0","0.294","179.0","1014.821","16.91","66","NAN","0.0"],
    [1552270,"2026-04-28 02:50:00","4980","0.012","177.6","0.22899999999999998","174.1","1014.7139999999999","16.81","69.13","NAN","0.0"],
    [1552271,"2026-04-28 03:00:00","4981","0.013999999999999999","113.9","0.359","112.0","1014.61","16.59","70.01","NAN","0.0"],
    [1552272,"2026-04-28 03:10:00","4982","0.026000000000000002","155.6","0.22899999999999998","105.6","1014.475","16.47","68.28","NAN","0.0"],
    [1552273,"2026-04-28 03:20:00","4983","0.259","26.76","1.111","28.38","1014.465","16.39","68","NAN","0.0"],
    [1552274,"2026-04-28 03:30:00","4984","0.6890000000000001","28.58","1.5030000000000001","56.31","1014.4639999999999","16.73","64.25","NAN","0.0"],
    [1552275,"2026-04-28 03:40:00","4985","0.586","37.49","1.5030000000000001","52.52","1014.3439999999999","16.9","60.38","NAN","0.0"],
    [1552276,"2026-04-28 03:50:00","4986","0.797","47.34","1.2409999999999999","65.86","1014.322","16.82","60.12","NAN","0.0"],
    [1552277,"2026-04-28 04:00:00","4987","0.7140000000000001","43.65","1.339","27.78","1014.189","16.83","60.06","NAN","0.0"],
    [1552278,"2026-04-28 04:10:00","4988","0.391","26.11","0.98","21.28","1014.092","16.76","60.63","NAN","0.0"],
    [1552279,"2026-04-28 04:20:00","4989","0.33899999999999997","37.0","0.7509999999999999","53.81","1013.99","16.61","61.49","NAN","0.0"],
    [1552280,"2026-04-28 04:30:00","4990","0.23","45.98","0.588","58.74","1013.955","16.54","62.26","NAN","0.0"],
    [1552281,"2026-04-28 04:40:00","4991","0.24100000000000002","22.94","0.9470000000000001","13.75","1013.96","16.51","62.95","NAN","0.0"],
    [1552282,"2026-04-28 04:50:00","4992","0.413","36.24","1.143","10.3","1013.9019999999999","16.53","63.5","NAN","0.0"],
    [1552283,"2026-04-28 05:00:00","4993","0.493","11.18","1.143","354.9","1013.868","16.48","64.62","NAN","0.0"],
    [1552284,"2026-04-28 05:10:00","4994","0.284","32.85","0.915","43.07","1013.928","16.44","66.35","NAN","0.0"],
    [1552285,"2026-04-28 05:20:00","4995","0.16899999999999998","100.6","0.621","89.8","1014.029","16.24","68.76","NAN","0.0"],
    [1552286,"2026-04-28 05:30:00","4996","0.34","95.6","0.555","87.9","1014.092","16.33","69.29","NAN","0.0"],
    [1552287,"2026-04-28 05:40:00","4997","0.6559999999999999","85.4","0.98","61.8","1014.1080000000001","16.5","68.75","NAN","0.0"],
    [1552288,"2026-04-28 05:50:00","4998","0.504","53.31","1.013","62.01","1014.242","16.66","67.64","NAN","0.0"],
    [1552289,"2026-04-28 06:00:00","4999","0.818","7.504","1.666","16.82","1014.313","16.96","66.05","NAN","0.0"],
    [1552290,"2026-04-28 06:10:00","5000","0.938","42.19","1.666","43.26","1014.3","17.22","65.2","NAN","0.0"],
    [1552291,"2026-04-28 06:20:00","5001","0.8640000000000001","69.04","1.5030000000000001","52.52","1014.2760000000001","17.68","64","NAN","0.0"],
    [1552292,"2026-04-28 06:30:00","5002","0.929","139.7","1.535","164.5","1014.422","17.86","63.66","NAN","0.0"],
    [1552293,"2026-04-28 06:40:00","5003","1.025","188.2","1.633","178.7","1014.4730000000001","17.5","65.64","NAN","0.0"],
    [1552294,"2026-04-28 06:50:00","5004","0.68","183.7","1.47","202.3","1014.438","17.71","64.76","NAN","0.0"],
    [1552295,"2026-04-28 07:00:00","5005","0.872","44.87","2.352","29.98","1014.439","18.26","62.93","NAN","0.0"],
    [1552296,"2026-04-28 07:10:00","5006","1.386","55.29","2.352","72.74","1014.449","18.63","62.35","NAN","0.0"],
    [1552297,"2026-04-28 07:20:00","5007","1.4380000000000002","49.82","3.005","33.32","1014.436","18.68","63.12","NAN","0.0"],
    [1552298,"2026-04-28 07:30:00","5008","1.845","47.96","3.463","52.2","1014.3439999999999","18.9","60.76","NAN","0.0"],
    [1552299,"2026-04-28 07:40:00","5009","1.4669999999999999","66.17","3.822","88.5","1014.3969999999999","19.32","60.41","NAN","0.0"],
    [1552300,"2026-04-28 07:50:00","5010","2.582","86.9","3.659","88.3","1014.4889999999999","18.85","69.15","NAN","0.0"],
    [1552301,"2026-04-28 08:00:00","5011","2.6510000000000002","87.6","3.92","81.0","1014.5039999999999","18.7","69.75","NAN","0.0"],
    [1552302,"2026-04-28 08:10:00","5012","2.6689999999999996","99.5","4.377","106.8","1014.5989999999999","18.72","71.71","NAN","0.0"],
    [1552303,"2026-04-28 08:20:00","5013","2.303","88.3","3.92","82.9","1014.686","18.66","72.07","NAN","0.0"],
    [1552304,"2026-04-28 08:30:00","5014","2.1790000000000003","92.5","3.463","88.9","1014.7260000000001","18.9","73.77","NAN","0.0"],
    [1552305,"2026-04-28 08:40:00","5015","2.536","94.0","4.181","116.6","1014.818","18.64","76.53","NAN","0.0"],
    [1552306,"2026-04-28 08:50:00","5016","2.294","102.6","4.018","115.6","1014.945","18.78","74.05","NAN","0.0"],
    [1552307,"2026-04-28 09:00:00","5017","1.945","120.7","3.071","105.6","1015.0369999999999","18.76","69.6","NAN","0.0"],
    [1552308,"2026-04-28 09:10:00","5018","1.9280000000000002","156.4","3.071","156.9","1015.0189999999999","18.73","69.81","NAN","0.0"],
    [1552309,"2026-04-28 09:20:00","5019","1.814","130.9","2.8089999999999997","127.4","1014.952","18.98","67.85","NAN","0.0"],
    [1552310,"2026-04-28 09:30:00","5020","1.775","176.1","2.5810000000000004","169.0","1015.0369999999999","19.39","66.48","NAN","0.0"],
    [1552311,"2026-04-28 09:40:00","5021","2.202","178.1","3.267","182.6","1015.194","19.25","65.9","NAN","0.0"],
    [1552312,"2026-04-28 09:50:00","5022","2.496","173.2","4.083","159.4","1015.191","19.34","65.87","NAN","0.0"],
    [1552313,"2026-04-28 10:00:00","5023","2.697","163.9","4.4430000000000005","153.9","1015.0889999999999","19.32","66.95","NAN","0.0"],
    [1552314,"2026-04-28 10:10:00","5024","2.498","187.9","4.345","183.7","1015.0889999999999","19.29","70.15","NAN","0.0"],
    [1552315,"2026-04-28 10:20:00","5025","2.4419999999999997","186.8","3.855","169.1","1015.0319999999999","19.33","69.53","NAN","0.0"],
    [1552316,"2026-04-28 10:30:00","5026","2.217","170.0","4.149","155.8","1014.992","19.48","69.63","NAN","0.0"],
    [1552317,"2026-04-28 10:40:00","5027","2.585","176.6","4.312","186.7","1014.985","19.44","71.93","NAN","0.0"],
    [1552318,"2026-04-28 10:50:00","5028","2.6630000000000003","174.1","4.018","179.8","1014.885","19.13","73.85","NAN","0.0"],
    [1552319,"2026-04-28 11:00:00","5029","2.577","173.5","4.345","156.2","1014.725","19.17","73.54","NAN","0.0"],
    [1552320,"2026-04-28 11:10:00","5030","2.519","181.3","4.1160000000000005","181.6","1014.658","19.5","70.79","NAN","0.0"],
    [1552321,"2026-04-28 11:20:00","5031","2.677","183.0","4.247","201.9","1014.561","19.4","74.87","NAN","0.0"],
    [1552322,"2026-04-28 11:30:00","5032","2.6069999999999998","178.7","3.7889999999999997","183.6","1014.4639999999999","19.12","77.1","NAN","0.0"],
    [1552323,"2026-04-28 11:40:00","5033","2.642","178.2","3.659","180.5","1014.327","19.14","75.64","NAN","0.0"],
    [1552324,"2026-04-28 11:50:00","5034","2.585","173.7","3.7889999999999997","175.0","1014.22","19.36","74.55","NAN","0.0"],
    [1552325,"2026-04-28 12:00:00","5035","2.3819999999999997","184.6","3.5610000000000004","187.7","1014.177","19.68","71.04","NAN","0.0"],
    [1552326,"2026-04-28 12:10:00","5036","2.6639999999999997","186.9","4.181","175.5","1014.125","19.57","70.13","NAN","0.0"],
    [1552327,"2026-04-28 12:20:00","5037","2.387","170.7","4.1160000000000005","161.2","1013.971","19.83","64.45","NAN","0.0"],
    [1552328,"2026-04-28 12:30:00","5038","2.062","167.4","3.332","149.1","1013.816","20.24","58","NAN","0.0"],
    [1552329,"2026-04-28 12:40:00","5039","2.131","151.2","3.299","158.5","1013.699","20.54","63.87","NAN","0.0"],
    [1552330,"2026-04-28 12:50:00","5040","2.21","141.7","3.7569999999999997","110.6","1013.582","20.43","68.02","NAN","0.0"],
    [1552331,"2026-04-28 13:00:00","5041","2.476","144.5","3.7239999999999998","162.5","1013.562","19.9","72.84","NAN","0.0"],
    [1552332,"2026-04-28 13:10:00","5042","2.546","143.8","4.181","169.9","1013.482","19.53","74.03","NAN","0.0"],
    [1552333,"2026-04-28 13:20:00","5043","2.181","143.5","3.822","149.8","1013.46","19.96","73.14","NAN","0.0"],
    [1552334,"2026-04-28 13:30:00","5044","2.425","144.3","3.887","148.9","1013.425","19.57","74.39","NAN","0.0"],
    [1552335,"2026-04-28 13:40:00","5045","2.391","146.2","3.855","157.8","1013.298","19.85","74.09","NAN","0.0"],
    [1552336,"2026-04-28 13:50:00","5046","2.2119999999999997","148.1","3.6260000000000003","124.9","1013.191","19.78","73.4","NAN","0.0"],
    [1552337,"2026-04-28 14:00:00","5047","1.935","150.9","3.7889999999999997","114.3","1013.1139999999999","20.22","70.32","NAN","0.0"],
    [1552338,"2026-04-28 14:10:00","5048","1.9980000000000002","154.4","3.5610000000000004","145.3","1013.137","20.19","70.75","NAN","0.0"],
    [1552339,"2026-04-28 14:20:00","5049","2.135","184.7","3.593","191.9","1013.179","20.26","69.92","NAN","0.0"],
    [1552340,"2026-04-28 14:30:00","5050","2.314","184.1","4.149","193.6","1012.9989999999999","20.06","72.19","NAN","0.0"],
    [1552341,"2026-04-28 14:40:00","5051","1.966","192.6","3.234","191.8","1012.89","20.22","71.15","NAN","0.0"],
    [1552342,"2026-04-28 14:50:00","5052","2.086","177.6","3.201","179.0","1012.802","20.16","70.44","NAN","0.0"],
    [1552343,"2026-04-28 15:00:00","5053","1.986","172.1","3.365","143.6","1012.7310000000001","19.72","70.16","NAN","0.0"],
    [1552344,"2026-04-28 15:10:00","5054","1.9709999999999999","174.6","3.43","172.6","1012.703","19.88","67.89","NAN","0.0"],
    [1552345,"2026-04-28 15:20:00","5055","1.97","179.4","3.659","174.7","1012.6060000000001","19.78","67.89","NAN","0.0"],
    [1552346,"2026-04-28 15:30:00","5056","2.032","178.7","3.7239999999999998","185.4","1012.534","19.75","66.77","NAN","0.0"],
    [1552347,"2026-04-28 15:40:00","5057","2.144","186.3","3.7569999999999997","187.1","1012.4060000000001","19.97","65.84","NAN","0.0"],
    [1552348,"2026-04-28 15:50:00","5058","1.86","186.3","3.103","174.9","1012.337","20.12","65.25","NAN","0.0"],
    [1552349,"2026-04-28 16:00:00","5059","1.821","186.9","3.201","192.9","1012.227","19.6","66.18","NAN","0.0"],
    [1552350,"2026-04-28 16:10:00","5060","2.036","186.8","3.267","186.4","1012.212","19.59","67.59","NAN","0.0"],
    [1552351,"2026-04-28 16:20:00","5061","2.0180000000000002","189.6","3.7889999999999997","184.4","1012.21","19.55","70.57","NAN","0.0"],
    [1552352,"2026-04-28 16:30:00","5062","1.983","189.4","3.201","184.2","1012.21","19.68","72.82","NAN","0.0"],
    [1552353,"2026-04-28 16:40:00","5063","2.325","180.7","3.528","179.3","1012.212","19.46","72.25","NAN","0.0"],
    [1552354,"2026-04-28 16:50:00","5064","1.905","192.3","3.201","177.3","1012.222","19.61","69.85","NAN","0.0"],
    [1552355,"2026-04-28 17:00:00","5065","1.705","159.9","3.397","183.1","1012.193","19.52","69.89","NAN","0.0"],
    [1552356,"2026-04-28 17:10:00","5066","1.6569999999999998","139.8","2.7439999999999998","132.1","1012.128","19.7","67.74","NAN","0.0"],
    [1552357,"2026-04-28 17:20:00","5067","1.6030000000000002","119.5","2.7110000000000003","111.2","1012.102","19.46","70.4","NAN","0.0"],
    [1552358,"2026-04-28 17:30:00","5068","1.8159999999999998","133.1","2.907","145.0","1011.971","19.1","73.5","NAN","0.0"],
    [1552359,"2026-04-28 17:40:00","5069","1.636","125.6","2.483","130.7","1011.967","19.06","74.55","NAN","0.0"],
    [1552360,"2026-04-28 17:50:00","5070","1.53","129.9","2.417","128.5","1011.8739999999999","19.05","73.98","NAN","0.0"],
    [1552361,"2026-04-28 18:00:00","5071","1.52","124.6","2.352","126.1","1011.737","18.91","74.03","NAN","0.0"],
    [1552362,"2026-04-28 18:10:00","5072","1.681","108.5","2.5810000000000004","115.1","1011.666","18.92","73.59","NAN","0.0"],
    [1552363,"2026-04-28 18:20:00","5073","1.6440000000000001","109.3","2.94","119.2","1011.554","18.89","72.98","NAN","0.0"],
    [1552364,"2026-04-28 18:30:00","5074","1.6740000000000002","95.5","2.94","79.27","1011.3839999999999","18.91","73.24","NAN","0.0"],
    [1552365,"2026-04-28 18:40:00","5075","1.87","71.1","3.397","71.45","1011.238","18.93","74.64","NAN","0.0"],
    [1552366,"2026-04-28 18:50:00","5076","2.279","81.4","3.7239999999999998","91.0","1011.171","18.77","74.46","NAN","0.0"],
    [1552367,"2026-04-28 19:00:00","5077","2.218","80.8","3.659","69.93","1011.112","18.69","75.24","NAN","0.0"],
    [1552368,"2026-04-28 19:10:00","5078","1.5930000000000002","87.4","2.94","97.9","1011.2460000000001","18.71","75.67","NAN","0.0"],
    [1552369,"2026-04-28 19:20:00","5079","1.6580000000000001","72.54","4.018","75.2","1011.2819999999999","18.72","75.63","NAN","0.0"],
    [1552370,"2026-04-28 19:30:00","5080","2.0340000000000003","71.51","4.1160000000000005","80.1","1011.317","18.59","74.88","NAN","0.0"],
    [1552371,"2026-04-28 19:40:00","5081","2.392","78.96","4.345","80.4","1011.311","18.56","75.12","NAN","0.0"],
    [1552372,"2026-04-28 19:50:00","5082","2.0069999999999997","74.18","4.279","76.37","1011.5110000000001","18.52","75.07","NAN","0.0"],
    [1552373,"2026-04-28 20:00:00","5083","2.09","74.99","3.7239999999999998","85.2","1011.747","18.52","75.37","NAN","0.0"],
    [1552374,"2026-04-28 20:10:00","5084","2.4090000000000003","79.76","4.149","66.71","1011.8710000000001","18.48","77.84","NAN","0.0"],
    [1552375,"2026-04-28 20:20:00","5085","2.1069999999999998","74.7","4.541","73.2","1012.038","18.42","78.6","NAN","0.0"],
    [1552376,"2026-04-28 20:30:00","5086","1.9669999999999999","75.7","3.593","67.42","1012.1410000000001","18.42","79.74","NAN","0.0"],
    [1552377,"2026-04-28 20:40:00","5087","1.8769999999999998","87.1","3.495","87.5","1012.204","18.37","79.9","NAN","0.0"],
    [1552378,"2026-04-28 20:50:00","5088","1.9240000000000002","93.0","3.365","97.8","1012.275","18.29","79.42","NAN","0.0"],
    [1552379,"2026-04-28 21:00:00","5089","2.339","86.9","3.528","85.2","1012.2539999999999","18.26","80.2","NAN","0.0"],
    [1552380,"2026-04-28 21:10:00","5090","2.176","87.0","3.495","87.4","1012.278","18.21","81.9","NAN","0.0"],
    [1552381,"2026-04-28 21:20:00","5091","1.589","87.9","3.332","93.5","1012.4639999999999","18.18","82.8","NAN","0.0"],
    [1552382,"2026-04-28 21:30:00","5092","2.083","87.6","4.051","81.8","1012.658","18.13","83","NAN","0.0"],
    [1552383,"2026-04-28 21:40:00","5093","2.222","90.6","3.365","92.2","1012.7869999999999","18.19","83","NAN","0.0"],
    [1552384,"2026-04-28 21:50:00","5094","2.066","99.9","4.279","108.5","1012.9910000000001","18.26","83.7","NAN","0.0"],
    [1552385,"2026-04-28 22:00:00","5095","1.495","94.4","3.7239999999999998","107.9","1013.133","18.21","84.1","NAN","0.0"],
    [1552386,"2026-04-28 22:10:00","5096","1.925","85.3","3.267","94.4","1013.23","18.25","83.8","NAN","0.0"],
    [1552387,"2026-04-28 22:20:00","5097","2.207","105.9","3.985","112.5","1013.373","18.21","84","NAN","0.0"],
    [1552388,"2026-04-28 22:30:00","5098","2.301","92.7","3.659","87.1","1013.304","18.21","84","NAN","0.0"],
    [1552389,"2026-04-28 22:40:00","5099","2.1719999999999997","90.6","3.7889999999999997","86.1","1013.319","18.27","83.3","NAN","0.0"],
    [1552390,"2026-04-28 22:50:00","5100","2.397","102.2","4.051","106.3","1013.52","18.2","83.7","NAN","0.0"],
    [1552391,"2026-04-28 23:00:00","5101","2.309","104.5","4.2139999999999995","100.8","1013.46","18.19","84.4","NAN","0.0"],
    [1552392,"2026-04-28 23:10:00","5102","2.137","86.6","3.985","68.74","1013.4789999999999","18.17","84.2","NAN","0.0"],
    [1552393,"2026-04-28 23:20:00","5103","1.9609999999999999","89.5","3.855","80.8","1013.564","18.2","84.3","NAN","0.0"],
    [1552394,"2026-04-28 23:30:00","5104","2.53","86.8","3.7569999999999997","96.6","1013.448","18.19","84.8","NAN","0.0"],
    [1552395,"2026-04-28 23:40:00","5105","2.5639999999999996","86.2","3.887","107.9","1013.4010000000001","18.11","85.8","NAN","0.0"],
    [1552396,"2026-04-28 23:50:00","5106","1.91","88.8","3.005","77.63","1013.336","18.05","85.4","NAN","0.0"],
    [1552397,"2026-04-29 00:00:00","5107","1.761","85.3","3.822","73.61","1013.255","18.02","85.2","NAN","0.0"],
    [1552398,"2026-04-29 00:10:00","5108","1.495","79.74","2.9730000000000003","79.06","1013.2610000000001","18.09","84.5","NAN","0.0"],
    [1552399,"2026-04-29 00:20:00","5109","2.19","87.5","4.181","78.07","1013.1310000000001","18.12","83.3","NAN","0.0"],
    [1552400,"2026-04-29 00:30:00","5110","2.5989999999999998","90.5","4.345","104.6","1013.0369999999999","18.08","84.1","NAN","0.0"],
    [1552401,"2026-04-29 00:40:00","5111","2.09","74.17","3.5610000000000004","78.2","1012.9639999999999","18.09","85.1","NAN","0.0"],
    [1552402,"2026-04-29 00:50:00","5112","2.3169999999999997","89.0","4.1160000000000005","90.5","1012.8580000000001","18.05","85.5","NAN","0.0"],
    [1552403,"2026-04-29 01:00:00","5113","2.623","88.5","4.247","77.72","1012.789","18.01","86.4","NAN","0.0"],
    [1552404,"2026-04-29 01:10:00","5114","2.617","88.4","4.312","104.6","1012.847","18","86.3","NAN","0.0"],
    [1552405,"2026-04-29 01:20:00","5115","2.395","88.5","4.4430000000000005","91.6","1012.74","18.01","86.1","NAN","0.0"],
    [1552406,"2026-04-29 01:30:00","5116","1.972","83.3","3.463","70.56","1012.571","18.07","85.5","NAN","0.0"],
    [1552407,"2026-04-29 01:40:00","5117","2.276","77.22","4.998","82.8","1012.441","18.05","85.5","NAN","0.0"],
    [1552408,"2026-04-29 01:50:00","5118","2.5","74.36","4.867","68.91","1012.377","17.98","86.2","NAN","0.0"],
    [1552409,"2026-04-29 02:00:00","5119","2.313","87.8","4.769","79.42","1012.4169999999999","17.98","86.7","NAN","0.0"],
    [1552410,"2026-04-29 02:10:00","5120","2.235","74.35","4.9","70.14","1012.298","17.98","86.2","NAN","0.0"],
    [1552411,"2026-04-29 02:20:00","5121","2.79","73.92","4.769","87.5","1012.168","17.9","86.6","NAN","0.0"],
    [1552412,"2026-04-29 02:30:00","5122","2.463","74.99","5.129","63.54","1012.122","17.87","87.2","NAN","0.0"],
    [1552413,"2026-04-29 02:40:00","5123","2.438","70.6","4.638999999999999","63.35","1012.135","17.84","87","NAN","0.0"],
    [1552414,"2026-04-29 02:50:00","5124","2.877","72.09","4.638999999999999","73.18","1012.056","17.81","86.4","NAN","0.0"],
    [1552415,"2026-04-29 03:00:00","5125","2.6889999999999996","79.09","4.737","65.61","1011.922","17.79","86.9","NAN","0.0"],
    [1552416,"2026-04-29 03:10:00","5126","2.9410000000000003","73.09","5.063","71.33","1011.8560000000001","17.77","86.8","NAN","0.0"],
    [1552417,"2026-04-29 03:20:00","5127","2.338","78.26","3.855","66.76","1011.9830000000001","17.77","86.5","NAN","0.0"],
    [1552418,"2026-04-29 03:30:00","5128","2.411","42.57","5.194","29.96","1011.7810000000001","17.73","86","NAN","0.0"],
    [1552419,"2026-04-29 03:40:00","5129","2.077","52.67","4.541","56.67","1011.654","17.65","86.7","NAN","0.1"],
    [1552420,"2026-04-29 03:50:00","5130","2.206","45.26","4.4430000000000005","27.62","1011.586","17.45","88","NAN","0.0"],
    [1552421,"2026-04-29 04:00:00","5131","2.1959999999999997","45.61","4.2139999999999995","25.31","1011.422","17.35","88.1","NAN","0.0"],
    [1552422,"2026-04-29 04:10:00","5132","2.605","59.33","5.88","54.94","1011.4010000000001","17.33","87.6","NAN","0.0"],
    [1552423,"2026-04-29 04:20:00","5133","1.923","49.46","4.051","67.6","1011.498","17.31","87.6","NAN","0.1"],
    [1552424,"2026-04-29 04:30:00","5134","1.8530000000000002","45.63","3.332","63.91","1011.5160000000001","17.2","88.8","NAN","0.1"],
    [1552425,"2026-04-29 04:40:00","5135","2.543","54.72","4.312","56.5","1011.456","17.14","88.6","NAN","0.0"],
    [1552426,"2026-04-29 04:50:00","5136","2.4530000000000003","49.56","5.88","35.7","1011.332","17.22","88.1","NAN","0.0"],
    [1552427,"2026-04-29 05:00:00","5137","2.366","52.96","5.063","52.64","1011.332","17.16","88.4","NAN","0.0"],
    [1552428,"2026-04-29 05:10:00","5138","2.258","44.94","4.181","69.27","1011.334","17.07","89.1","NAN","0.0"],
    [1552429,"2026-04-29 05:20:00","5139","2.2","51.68","4.606","57.33","1011.405","17.06","88.5","NAN","0.0"],
    [1552430,"2026-04-29 05:30:00","5140","2.345","49.21","4.573","26.83","1011.415","17.11","87.3","NAN","0.0"],
    [1552431,"2026-04-29 05:40:00","5141","2.478","46.27","4.998","57.54","1011.395","17.13","86.8","NAN","0.0"],
    [1552432,"2026-04-29 05:50:00","5142","3.048","39.59","5.553","32.33","1011.327","17.12","85.7","NAN","0.0"],
    [1552433,"2026-04-29 06:00:00","5143","2.494","47.21","4.704","69.53","1011.362","17.17","85.5","NAN","0.0"],
    [1552434,"2026-04-29 06:10:00","5144","2.27","54.75","3.985","47.62","1011.326","17.26","85.4","NAN","0.0"],
    [1552435,"2026-04-29 06:20:00","5145","2.647","70.42","5.978","88.9","1011.462","17.32","85.4","NAN","0.0"],
    [1552436,"2026-04-29 06:30:00","5146","2.1180000000000003","64.83","4.1160000000000005","55.93","1011.6089999999999","17.28","85.7","NAN","0.0"],
    [1552437,"2026-04-29 06:40:00","5147","3.398","77.15","6.109","76.2","1011.5369999999999","17.34","85.4","NAN","0.0"],
    [1552438,"2026-04-29 06:50:00","5148","3.665","78.7","7.285","100.8","1011.7230000000001","17.44","84.1","NAN","0.0"],
    [1552439,"2026-04-29 07:00:00","5149","3.238","71.01","6.272","78.71","1011.8989999999999","17.57","83.6","NAN","0.0"],
    [1552440,"2026-04-29 07:10:00","5150","2.5380000000000003","76.05","5.357","82.9","1012.056","17.8","82.7","NAN","0.0"],
    [1552441,"2026-04-29 07:20:00","5151","2.938","73.46","5.1610000000000005","62.89","1012.107","17.84","82.2","NAN","0.0"],
    [1552442,"2026-04-29 07:30:00","5152","3.0460000000000003","83.2","5.651","71.61","1012.172","17.85","82.2","NAN","0.0"],
    [1552443,"2026-04-29 07:40:00","5153","4.217","91.4","7.023","104.7","1012.2639999999999","17.8","82.6","NAN","0.0"],
    [1552444,"2026-04-29 07:50:00","5154","4.232","87.9","6.9910000000000005","75.64","1012.393","17.84","82.2","NAN","0.0"],
    [1552445,"2026-04-29 08:00:00","5155","4.137","90.9","7.742000000000001","75.46","1012.45","18.12","81.4","NAN","0.0"],
    [1552446,"2026-04-29 08:10:00","5156","4.2139999999999995","91.3","8.17","103.1","1012.427","18.16","80.6","NAN","0.0"],
    [1552447,"2026-04-29 08:20:00","5157","4.81","88.7","7.709","94.0","1012.6010000000001","18.15","80.7","NAN","0.0"],
    [1552448,"2026-04-29 08:30:00","5158","4.569","86.0","7.938","80.6","1012.664","18.12","81.3","NAN","0.0"],
    [1552449,"2026-04-29 08:40:00","5159","4.644","89.4","7.481","88.9","1012.696","18.17","81.8","NAN","0.0"],
    [1552450,"2026-04-29 08:50:00","5160","4.672","86.9","7.382999999999999","86.7","1012.835","18.2","81.1","NAN","0.0"],
    [1552451,"2026-04-29 09:00:00","5161","3.495","83.5","7.742000000000001","81.6","1012.815","18.21","81.5","NAN","0.0"],
    [1552452,"2026-04-29 09:10:00","5162","4.033","85.1","6.042999999999999","88.7","1012.941","18.18","82.2","NAN","0.0"],
    [1552453,"2026-04-29 09:20:00","5163","4.115","86.3","7.35","105.8","1013.058","18.12","82.3","NAN","0.0"],
    [1552454,"2026-04-29 09:30:00","5164","3.437","100.1","5.945","103.4","1013.191","18.55","80.3","NAN","0.0"],
    [1552455,"2026-04-29 09:40:00","5165","3.486","103.2","6.566","114.7","1013.198","18.61","79.92","NAN","0.0"],
    [1552456,"2026-04-29 09:50:00","5166","3.387","102.5","6.566","108.7","1013.248","18.58","80.5","NAN","0.0"],
    [1552457,"2026-04-29 10:00:00","5167","3.7969999999999997","103.3","6.272","108.0","1013.2919999999999","18.81","78.81","NAN","0.0"],
    [1552458,"2026-04-29 10:10:00","5168","4.14","103.2","7.742000000000001","106.9","1013.3660000000001","18.68","79.9","NAN","0.0"],
    [1552459,"2026-04-29 10:20:00","5169","3.3510000000000004","100.3","6.207000000000001","106.4","1013.523","18.9","79.51","NAN","0.0"],
    [1552460,"2026-04-29 10:30:00","5170","3.512","89.9","6.957999999999999","99.8","1013.452","18.96","78.78","NAN","0.0"],
    [1552461,"2026-04-29 10:40:00","5171","2.842","100.7","5.815","112.2","1013.533","19.08","79.17","NAN","0.0"],
    [1552462,"2026-04-29 10:50:00","5172","3.545","94.7","6.925","100.2","1013.572","19.12","77.59","NAN","0.0"],
    [1552463,"2026-04-29 11:00:00","5173","3.6289999999999996","103.4","7.056","111.6","1013.525","18.94","78.31","NAN","0.0"],
    [1552464,"2026-04-29 11:10:00","5174","3.3939999999999997","97.6","7.872999999999999","115.0","1013.535","19.06","78.4","NAN","0.0"],
    [1552465,"2026-04-29 11:20:00","5175","3.37","93.4","6.566","110.9","1013.577","19.46","76.16","NAN","0.0"],
    [1552466,"2026-04-29 11:30:00","5176","3.565","96.3","7.023","91.8","1013.5219999999999","19.25","77.2","NAN","0.0"],
    [1552467,"2026-04-29 11:40:00","5177","3.397","93.8","6.403","102.8","1013.54","19.48","75.88","NAN","0.0"],
    [1552468,"2026-04-29 11:50:00","5178","3.188","76.23","5.978","55.17","1013.378","19.79","74.7","NAN","0.0"],
    [1552469,"2026-04-29 12:00:00","5179","4.331","82.7","6.86","84.3","1013.216","19.34","76.02","NAN","0.0"],
    [1552470,"2026-04-29 12:10:00","5180","4.4319999999999995","84.5","7.546","79.48","1013.1310000000001","19.34","76.66","NAN","0.0"],
    [1552471,"2026-04-29 12:20:00","5181","3.2880000000000003","71.57","6.403","89.9","1013.1439999999999","19.58","75.62","NAN","0.0"],
    [1552472,"2026-04-29 12:30:00","5182","2.826","62.79","6.403","99.4","1013.064","19.78","74.79","NAN","0.0"],
    [1552473,"2026-04-29 12:40:00","5183","3.852","78.66","7.546","88.0","1012.945","19.56","74.96","NAN","0.0"],
    [1552474,"2026-04-29 12:50:00","5184","3.673","80.7","6.1739999999999995","74.53","1013.047","19.52","76.07","NAN","0.0"],
    [1552475,"2026-04-29 13:00:00","5185","3.592","76.76","6.1739999999999995","66.15","1013.084","19.37","76.82","NAN","0.0"],
    [1552476,"2026-04-29 13:10:00","5186","4.002","80.4","6.925","82.6","1013.055","19.14","77.62","NAN","0.0"],
    [1552477,"2026-04-29 13:20:00","5187","3.377","81.2","6.207000000000001","79.91","1013.1439999999999","19.38","76.87","NAN","0.0"],
    [1552478,"2026-04-29 13:30:00","5188","3.1069999999999998","70.27","5.096","86.7","1013.201","19.43","76.92","NAN","0.0"],
    [1552479,"2026-04-29 13:40:00","5189","3.125","90.3","5.7170000000000005","110.8","1013.186","19.67","76.31","NAN","0.0"],
    [1552480,"2026-04-29 13:50:00","5190","2.481","79.57","4.9","70.99","1013.1139999999999","19.65","76.86","NAN","0.0"],
    [1552481,"2026-04-29 14:00:00","5191","2.9419999999999997","71.39","6.37","51.55","1012.99","19.58","77.22","NAN","0.0"],
    [1552482,"2026-04-29 14:10:00","5192","3.4419999999999997","74.44","5.684","89.5","1012.885","19.48","77.58","NAN","0.0"],
    [1552483,"2026-04-29 14:20:00","5193","4.114","84.6","6.207000000000001","86.9","1012.7130000000001","18.96","80.3","NAN","0.0"],
    [1552484,"2026-04-29 14:30:00","5194","3.65","64.61","5.945","61.66","1012.6060000000001","19.18","79.56","NAN","0.0"],
    [1552485,"2026-04-29 14:40:00","5195","4.605","83.0","7.121","85.0","1012.4939999999999","18.97","80.3","NAN","0.0"],
    [1552486,"2026-04-29 14:50:00","5196","3.7489999999999997","84.7","6.599","83.8","1012.534","19.04","81.4","NAN","0.0"],
    [1552487,"2026-04-29 15:00:00","5197","2.753","71.57","5.651","49.34","1012.4639999999999","19.32","79.83","NAN","0.0"],
    [1552488,"2026-04-29 15:10:00","5198","3.5380000000000003","79.33","5.782","98.0","1012.372","18.74","81.5","NAN","0.0"],
    [1552489,"2026-04-29 15:20:00","5199","3.208","74.36","5.782","59.89","1012.3739999999999","18.78","80.7","NAN","0.0"],
    [1552490,"2026-04-29 15:30:00","5200","3.6260000000000003","69.39","6.435","57.35","1012.237","18.92","79.46","NAN","0.0"],
    [1552491,"2026-04-29 15:40:00","5201","4.135","69.12","6.403","66.28","1012.207","18.8","80.5","NAN","0.0"],
    [1552492,"2026-04-29 15:50:00","5202","3.792","86.0","6.042999999999999","79.71","1012.247","18.63","80.9","NAN","0.0"],
    [1552493,"2026-04-29 16:00:00","5203","3.488","76.61","6.337000000000001","85.9","1012.2","18.67","81","NAN","0.0"],
    [1552494,"2026-04-29 16:10:00","5204","3.076","77.76","6.109","63.93","1012.205","18.88","80.2","NAN","0.0"],
    [1552495,"2026-04-29 16:20:00","5205","3.275","79.5","5.4879999999999995","80.6","1012.2860000000001","18.68","81.3","NAN","0.0"],
    [1552496,"2026-04-29 16:30:00","5206","3.3939999999999997","83.2","6.042999999999999","91.8","1012.315","18.56","82.4","NAN","0.0"],
    [1552497,"2026-04-29 16:40:00","5207","3.688","83.6","5.227","88.8","1012.2289999999999","18.47","83.2","NAN","0.0"],
    [1552498,"2026-04-29 16:50:00","5208","2.846","81.7","4.9","95.0","1012.225","18.5","83.5","NAN","0.0"],
    [1552499,"2026-04-29 17:00:00","5209","3.38","88.3","5.422999999999999","86.0","1012.2230000000001","18.63","82.2","NAN","0.0"],
    [1552500,"2026-04-29 17:10:00","5210","2.271","77.76","4.508","104.4","1012.243","18.72","82.9","NAN","0.0"],
    [1552501,"2026-04-29 17:20:00","5211","2.745","83.2","5.129","84.5","1012.2289999999999","18.76","82.4","NAN","0.0"],
    [1552502,"2026-04-29 17:30:00","5212","3.362","86.3","5.194","93.1","1012.199","18.43","84.2","NAN","0.0"],
    [1552503,"2026-04-29 17:40:00","5213","2.9139999999999997","85.3","5.325","89.2","1012.245","18.4","84.5","NAN","0.0"],
    [1552504,"2026-04-29 17:50:00","5214","1.7480000000000002","74.05","4.018","85.9","1012.301","18.55","84","NAN","0.0"],
    [1552505,"2026-04-29 18:00:00","5215","2.181","82.2","4.279","91.3","1012.3480000000001","18.48","84.4","NAN","0.0"],
    [1552506,"2026-04-29 18:10:00","5216","2.388","83.9","5.194","108.6","1012.422","18.32","85.5","NAN","0.0"],
    [1552507,"2026-04-29 18:20:00","5217","2.5980000000000003","78.66","4.606","74.16","1012.432","18.09","86.7","NAN","0.0"],
    [1552508,"2026-04-29 18:30:00","5218","2.78","82.2","4.671","87.1","1012.666","17.9","87.9","NAN","0.0"],
    [1552509,"2026-04-29 18:40:00","5219","1.814","73.54","3.43","74.06","1012.9580000000001","17.91","88.7","NAN","0.0"],
    [1552510,"2026-04-29 18:50:00","5220","2.456","90.4","4.704","105.6","1013.1469999999999","18.01","88.7","NAN","0.0"],
    [1552511,"2026-04-29 19:00:00","5221","2.116","75.21","3.7889999999999997","95.9","1013.243","17.9","90","NAN","0.0"],
    [1552512,"2026-04-29 19:10:00","5222","2.228","82.3","4.2139999999999995","80.4","1013.296","17.93","90","NAN","0.0"],
    [1552513,"2026-04-29 19:20:00","5223","1.8719999999999999","74.64","3.136","94.9","1013.432","17.9","90.1","NAN","0.0"],
    [1552514,"2026-04-29 19:30:00","5224","2.474","72.52","4.998","74.58","1013.596","17.87","90","NAN","0.0"],
    [1552515,"2026-04-29 19:40:00","5225","2.515","70.48","4.018","69.42","1013.74","17.87","90","NAN","0.0"],
    [1552516,"2026-04-29 19:50:00","5226","2.309","79.22","4.475","74.68","1013.9110000000001","17.84","90.7","NAN","0.0"],
    [1552517,"2026-04-29 20:00:00","5227","2.235","81.4","4.018","93.1","1014.0239999999999","17.89","90.3","NAN","0.0"],
    [1552518,"2026-04-29 20:10:00","5228","2.858","75.98","4.867","83.2","1014.0369999999999","17.84","90.1","NAN","0.0"],
    [1552519,"2026-04-29 20:20:00","5229","2.824","77.16","5.88","82.0","1014.216","17.81","89.7","NAN","0.0"],
    [1552520,"2026-04-29 20:30:00","5230","3.1630000000000003","80.1","6.305","76.97","1014.248","17.87","89.2","NAN","0.0"],
    [1552521,"2026-04-29 20:40:00","5231","3.219","73.29","5.521","82.7","1014.32","17.82","89.1","NAN","0.0"],
    [1552522,"2026-04-29 20:50:00","5232","3.3739999999999997","72.02","5.847","70.97","1014.393","17.77","89.3","NAN","0.0"],
    [1552523,"2026-04-29 21:00:00","5233","2.918","76.64","6.0760000000000005","71.39","1014.375","17.76","89.6","NAN","0.0"],
    [1552524,"2026-04-29 21:10:00","5234","3.074","78.64","5.749","74.18","1014.533","17.76","89.6","NAN","0.0"],
    [1552525,"2026-04-29 21:20:00","5235","3.0210000000000004","77.27","6.1739999999999995","71.39","1014.701","17.75","89.5","NAN","0.0"],
    [1552526,"2026-04-29 21:30:00","5236","2.9339999999999997","76.86","5.129","82.4","1014.7510000000001","17.71","89.6","NAN","0.0"],
    [1552527,"2026-04-29 21:40:00","5237","2.64","82.1","4.802","74.34","1014.678","17.74","90.1","NAN","0.0"],
    [1552528,"2026-04-29 21:50:00","5238","2.61","81.0","4.802","91.1","1014.706","17.7","90.5","NAN","0.0"],
    [1552529,"2026-04-29 22:00:00","5239","2.872","76.23","5.847","70.96","1014.568","17.67","90.8","NAN","0.0"],
    [1552530,"2026-04-29 22:10:00","5240","1.722","69.47","3.0380000000000003","46.8","1014.752","17.69","90.9","NAN","0.0"],
    [1552531,"2026-04-29 22:20:00","5241","2.0180000000000002","81.1","4.312","78.41","1014.7810000000001","17.72","90.6","NAN","0.0"],
    [1552532,"2026-04-29 22:30:00","5242","2.39","78.87","4.965","89.6","1014.7589999999999","17.68","90.9","NAN","0.0"],
    [1552533,"2026-04-29 22:40:00","5243","2.3409999999999997","82.8","4.083","76.71","1014.7139999999999","17.68","90.9","NAN","0.0"],
    [1552534,"2026-04-29 22:50:00","5244","1.844","63.49","4.638999999999999","58.43","1014.747","17.7","90.8","NAN","0.0"],
    [1552535,"2026-04-29 23:00:00","5245","2.153","53.83","4.181","57.37","1014.7360000000001","17.66","90.5","NAN","0.0"],
    [1552536,"2026-04-29 23:10:00","5246","2.2230000000000003","77.63","3.9530000000000003","72.89","1014.732","17.63","90.3","NAN","0.0"],
    [1552537,"2026-04-29 23:20:00","5247","2.463","72.16","4.345","58.4","1014.778","17.64","90.4","NAN","0.0"],
    [1552538,"2026-04-29 23:30:00","5248","2.526","76.8","4.508","79.43","1014.7869999999999","17.57","90.8","NAN","0.0"],
    [1552539,"2026-04-29 23:40:00","5249","1.6380000000000001","81.4","3.267","88.6","1014.893","17.54","90.3","NAN","0.0"],
    [1552540,"2026-04-29 23:50:00","5250","1.848","76.68","3.299","100.1","1014.828","17.6","89.9","NAN","0.0"],
    [1552541,"2026-04-30 00:00:00","5251","1.567","57.62","3.495","104.9","1014.7439999999999","17.59","90.7","NAN","0.0"],
    [1552542,"2026-04-30 00:10:00","5252","1.371","44.39","2.7110000000000003","65.72","1014.785","17.54","90.9","NAN","0.0"],
    [1552543,"2026-04-30 00:20:00","5253","1.429","44.88","3.136","37.97","1014.85","17.43","91.1","NAN","0.0"],
    [1552544,"2026-04-30 00:30:00","5254","1.827","38.19","3.201","40.62","1014.789","17.38","90.4","NAN","0.0"],
    [1552545,"2026-04-30 00:40:00","5255","1.493","55.38","2.515","59.51","1014.791","17.4","90","NAN","0.0"],
    [1552546,"2026-04-30 00:50:00","5256","1.3319999999999999","59.91","2.5810000000000004","55.8","1014.654","17.41","90.3","NAN","0.0"],
    [1552547,"2026-04-30 01:00:00","5257","1.598","60.54","2.875","61.3","1014.503","17.35","89.9","NAN","0.0"],
    [1552548,"2026-04-30 01:10:00","5258","1.16","49.48","2.0909999999999997","50.58","1014.477","17.35","89.4","NAN","0.0"],
    [1552549,"2026-04-30 01:20:00","5259","1.3840000000000001","46.71","2.548","36.32","1014.39","17.31","88.8","NAN","0.0"],
    [1552550,"2026-04-30 01:30:00","5260","0.746","29.1","1.7309999999999999","44.41","1014.291","17.37","87.9","NAN","0.0"],
    [1552551,"2026-04-30 01:40:00","5261","0.77","45.79","1.633","49.11","1014.3489999999999","17.42","87.1","NAN","0.0"],
    [1552552,"2026-04-30 01:50:00","5262","1.2209999999999999","41.79","2.189","31.24","1014.302","17.39","85.7","NAN","0.0"],
    [1552553,"2026-04-30 02:00:00","5263","1.016","41.07","2.385","352.4","1014.289","17.41","83.8","NAN","0.0"],
    [1552554,"2026-04-30 02:10:00","5264","1.06","30.35","2.8089999999999997","27.75","1014.2819999999999","17.46","80.3","NAN","0.0"],
    [1552555,"2026-04-30 02:20:00","5265","0.765","36.2","1.764","18.98","1014.289","17.5","79.97","NAN","0.0"],
    [1552556,"2026-04-30 02:30:00","5266","0.778","41.59","1.96","40.01","1014.289","17.45","80.8","NAN","0.0"],
    [1552557,"2026-04-30 02:40:00","5267","0.91","38.99","2.221","36.72","1014.294","17.39","80.9","NAN","0.0"],
    [1552558,"2026-04-30 02:50:00","5268","0.833","25.68","2.352","350.5","1014.2860000000001","17.37","80.6","NAN","0.0"],
    [1552559,"2026-04-30 03:00:00","5269","0.9","19.93","1.797","351.6","1014.291","17.41","79.7","NAN","0.0"],
    [1552560,"2026-04-30 03:10:00","5270","1.1440000000000001","9.39","2.515","15.89","1014.2660000000001","17.39","78.66","NAN","0.0"],
    [1552561,"2026-04-30 03:20:00","5271","1.0759999999999998","6.3","2.189","8.95","1014.174","17.44","77.05","NAN","0.0"],
    [1552562,"2026-04-30 03:30:00","5272","1.0759999999999998","10.9","2.0909999999999997","30.76","1014.299","17.46","75.68","NAN","0.0"],
    [1552563,"2026-04-30 03:40:00","5273","0.643","29.91","1.96","353.4","1014.2860000000001","17.47","74.7","NAN","0.0"],
    [1552564,"2026-04-30 03:50:00","5274","0.662","8.99","1.764","353.6","1014.284","17.39","74.09","NAN","0.0"],
    [1552565,"2026-04-30 04:00:00","5275","0.932","17.4","1.993","19.92","1014.303","17.43","73.8","NAN","0.0"],
    [1552566,"2026-04-30 04:10:00","5276","0.862","15.84","1.895","15.87","1014.304","17.41","73.92","NAN","0.0"],
    [1552567,"2026-04-30 04:20:00","5277","0.54","35.41","1.307","21.42","1014.299","17.22","74.77","NAN","0.0"],
    [1552568,"2026-04-30 04:30:00","5278","0.672","351.5","1.666","21.36","1014.3480000000001","17.17","74.31","NAN","0.0"],
    [1552569,"2026-04-30 04:40:00","5279","1.0090000000000001","359.7","2.221","9.0","1014.538","17.32","72.89","NAN","0.0"],
    [1552570,"2026-04-30 04:50:00","5280","0.706","8.35","1.5030000000000001","10.14","1014.637","17.32","72.4","NAN","0.0"],
    [1552571,"2026-04-30 05:00:00","5281","0.6990000000000001","19.84","1.3719999999999999","37.35","1014.7660000000001","17.27","72.46","NAN","0.0"],
    [1552572,"2026-04-30 05:10:00","5282","0.973","36.41","1.633","55.32","1014.796","17.25","72.53","NAN","0.0"],
    [1552573,"2026-04-30 05:20:00","5283","0.6829999999999999","20.66","1.47","6.585","1014.977","17.33","71.4","NAN","0.0"],
    [1552574,"2026-04-30 05:30:00","5284","0.905","16.73","1.568","30.07","1015.067","17.54","70.36","NAN","0.0"],
    [1552575,"2026-04-30 05:40:00","5285","0.556","20.89","1.111","354.9","1015.19","17.7","70.11","NAN","0.0"],
    [1552576,"2026-04-30 05:50:00","5286","0.711","41.67","1.666","55.9","1015.293","17.72","70.96","NAN","0.0"],
    [1552577,"2026-04-30 06:00:00","5287","0.752","54.6","1.405","52.53","1015.5189999999999","17.68","72.16","NAN","0.0"],
    [1552578,"2026-04-30 06:10:00","5288","0.8","85.0","1.9269999999999998","75.49","1015.715","17.79","73.19","NAN","0.0"],
    [1552579,"2026-04-30 06:20:00","5289","1.1420000000000001","86.0","2.123","84.4","1015.655","18.06","74.03","NAN","0.0"],
    [1552580,"2026-04-30 06:30:00","5290","1.575","93.2","2.7769999999999997","112.2","1015.688","17.77","76.98","NAN","0.0"],
    [1552581,"2026-04-30 06:40:00","5291","1.273","90.0","2.352","70.65","1015.75","17.58","78.3","NAN","0.0"],
    [1552582,"2026-04-30 06:50:00","5292","1.194","83.4","2.156","96.5","1015.6569999999999","17.85","77.59","NAN","0.0"],
    [1552583,"2026-04-30 07:00:00","5293","1.736","61.84","3.267","70.86","1015.638","17.92","77.63","NAN","0.0"],
    [1552584,"2026-04-30 07:10:00","5294","1.8630000000000002","72.42","3.0380000000000003","70.67","1015.704","18.21","77.75","NAN","0.0"],
    [1552585,"2026-04-30 07:20:00","5295","2.165","73.06","3.92","65.26","1015.705","18.18","79.72","NAN","0.0"],
    [1552586,"2026-04-30 07:30:00","5296","2.102","62.21","4.051","73.12","1015.697","18.24","82.2","NAN","0.0"],
    [1552587,"2026-04-30 07:40:00","5297","1.905","79.22","4.083","81.2","1015.705","18.04","82.9","NAN","0.0"],
    [1552588,"2026-04-30 07:50:00","5298","1.598","84.9","3.659","94.5","1015.904","18.18","80.6","NAN","0.0"],
    [1552589,"2026-04-30 08:00:00","5299","2.136","83.5","3.528","91.2","1015.916","18.34","78.29","NAN","0.0"],
    [1552590,"2026-04-30 08:10:00","5300","1.69","76.91","3.1689999999999996","95.7","1015.941","18.55","75.42","NAN","0.0"],
    [1552591,"2026-04-30 08:20:00","5301","1.515","66.25","3.593","64.47","1016.173","19.42","68.76","NAN","0.0"],
    [1552592,"2026-04-30 08:30:00","5302","2.227","77.67","4.1160000000000005","74.45","1016.26","19.48","67.97","NAN","0.0"],
    [1552593,"2026-04-30 08:40:00","5303","1.893","74.36","4.638999999999999","61.27","1016.347","19.22","68.34","NAN","0.0"],
    [1552594,"2026-04-30 08:50:00","5304","2.006","112.8","3.397","68.36","1016.5310000000001","18.54","72.35","NAN","0.0"],
    [1552595,"2026-04-30 09:00:00","5305","1.78","104.4","3.5610000000000004","101.2","1016.696","18.56","72.62","NAN","0.0"],
    [1552596,"2026-04-30 09:10:00","5306","1.817","110.6","3.463","104.5","1016.895","18.54","72.36","NAN","0.0"],
    [1552597,"2026-04-30 09:20:00","5307","1.72","109.2","3.495","116.6","1017.012","18.81","71.45","NAN","0.0"],
    [1552598,"2026-04-30 09:30:00","5308","2.4090000000000003","106.8","3.7239999999999998","99.3","1016.942","19.26","69.47","NAN","0.0"],
    [1552599,"2026-04-30 09:40:00","5309","2.9989999999999997","108.4","5.357","105.4","1016.992","19.09","69.77","NAN","0.0"],
    [1552600,"2026-04-30 09:50:00","5310","3.112","101.5","4.867","93.0","1017.1439999999999","19.44","69.88","NAN","0.0"],
    [1552601,"2026-04-30 10:00:00","5311","3.283","110.2","5.292000000000001","115.9","1017.2339999999999","19.1","73.97","NAN","0.0"],
    [1552602,"2026-04-30 10:10:00","5312","2.793","91.1","4.835","88.4","1017.299","19.6","72.52","NAN","0.0"],
    [1552603,"2026-04-30 10:20:00","5313","2.48","73.87","4.541","96.4","1017.3660000000001","19.59","73.96","NAN","0.0"],
    [1552604,"2026-04-30 10:30:00","5314","2.588","71.72","4.606","69.32","1017.435","19.74","74.84","NAN","0.0"],
    [1552605,"2026-04-30 10:40:00","5315","2.0469999999999997","86.1","4.345","82.7","1017.435","20.11","74.57","NAN","0.0"],
    [1552606,"2026-04-30 10:50:00","5316","2.62","90.4","4.704","112.1","1017.435","20.14","75.65","NAN","0.0"],
    [1552607,"2026-04-30 11:00:00","5317","2.786","90.3","4.835","59.94","1017.368","19.91","77.64","NAN","0.0"],
    [1552608,"2026-04-30 11:10:00","5318","2.984","83.2","5.553","60.13","1017.298","20.08","77.28","NAN","0.0"],
    [1552609,"2026-04-30 11:20:00","5319","3.2569999999999997","76.65","5.815","59.35","1017.204","19.95","77.44","NAN","0.0"],
    [1552610,"2026-04-30 11:30:00","5320","3.1260000000000003","79.05","5.815","68.57","1017.181","19.76","78.41","NAN","0.0"],
    [1552611,"2026-04-30 11:40:00","5321","3.303","78.13","5.945","59.52","1017.181","19.51","79.57","NAN","0.0"],
    [1552612,"2026-04-30 11:50:00","5322","3.388","77.24","5.749","74.28","1017.1610000000001","19.76","78.48","NAN","0.0"],
    [1552613,"2026-04-30 12:00:00","5323","3.449","86.1","6.86","85.8","1017.1210000000001","19.92","77.35","NAN","0.0"],
    [1552614,"2026-04-30 12:10:00","5324","3.36","79.1","5.325","65.74","1016.965","19.88","77.13","NAN","0.0"],
    [1552615,"2026-04-30 12:20:00","5325","2.6430000000000002","72.93","6.109","90.8","1016.92","19.95","76.9","NAN","0.0"],
    [1552616,"2026-04-30 12:30:00","5326","3.1189999999999998","84.6","5.651","98.7","1016.835","19.94","77.9","NAN","0.0"],
    [1552617,"2026-04-30 12:40:00","5327","3.595","84.1","6.697","82.4","1016.793","19.59","80.6","NAN","0.0"],
    [1552618,"2026-04-30 12:50:00","5328","3.28","78.51","5.619","70.5","1016.8530000000001","19.62","81.5","NAN","0.0"],
    [1552619,"2026-04-30 13:00:00","5329","3.187","59.75","6.305","66.7","1016.935","19.74","81.1","NAN","0.0"],
    [1552620,"2026-04-30 13:10:00","5330","3.035","67.17","5.031000000000001","62.92","1016.935","19.87","81.1","NAN","0.0"],
    [1552621,"2026-04-30 13:20:00","5331","4.3180000000000005","97.4","6.468","120.9","1016.887","19.91","80.9","NAN","0.0"],
    [1552622,"2026-04-30 13:30:00","5332","4.093999999999999","86.9","6.141","94.5","1016.8969999999999","19.69","82","NAN","0.0"],
    [1552623,"2026-04-30 13:40:00","5333","4.2330000000000005","87.9","7.154","87.0","1016.84","19.81","81.6","NAN","0.0"],
    [1552624,"2026-04-30 13:50:00","5334","4.334","93.3","6.925","101.4","1016.873","19.7","82.6","NAN","0.0"],
    [1552625,"2026-04-30 14:00:00","5335","3.139","86.5","6.109","108.8","1016.947","20.03","81","NAN","0.0"],
    [1552626,"2026-04-30 14:10:00","5336","3.1239999999999997","62.56","6.925","57.39","1016.942","20.09","79.61","NAN","0.0"],
    [1552627,"2026-04-30 14:20:00","5337","3.4019999999999997","72.42","5.782","88.8","1016.867","19.88","80.3","NAN","0.0"],
    [1552628,"2026-04-30 14:30:00","5338","3.615","76.18","6.37","59.23","1016.703","19.83","80.2","NAN","0.0"],
    [1552629,"2026-04-30 14:40:00","5339","3.491","69.5","6.697","69.08","1016.691","19.91","79.94","NAN","0.0"],
    [1552630,"2026-04-30 14:50:00","5340","3.7","73.17","6.957999999999999","66.92","1016.681","19.6","81.2","NAN","0.0"],
    [1552631,"2026-04-30 15:00:00","5341","3.0260000000000002","85.9","5.651","107.5","1016.673","19.94","79.61","NAN","0.0"],
    [1552632,"2026-04-30 15:10:00","5342","3.2319999999999998","67.24","5.684","70.22","1016.678","19.82","78.63","NAN","0.0"],
    [1552633,"2026-04-30 15:20:00","5343","2.977","61.74","5.782","57.54","1016.698","20","77.72","NAN","0.0"],
    [1552634,"2026-04-30 15:30:00","5344","3.345","81.9","5.684","71.01","1016.691","19.78","78.08","NAN","0.0"],
    [1552635,"2026-04-30 15:40:00","5345","3.089","72.27","6.403","75.57","1016.683","19.87","77.09","NAN","0.0"],
    [1552636,"2026-04-30 15:50:00","5346","3.9130000000000003","85.3","5.88","87.8","1016.633","19.48","79.05","NAN","0.0"],
    [1552637,"2026-04-30 16:00:00","5347","3.575","87.9","6.109","89.7","1016.664","19.62","79.2","NAN","0.0"],
    [1552638,"2026-04-30 16:10:00","5348","3.903","88.2","5.749","99.3","1016.716","19.6","78.43","NAN","0.0"],
    [1552639,"2026-04-30 16:20:00","5349","4.095","87.2","6.5329999999999995","84.6","1016.7230000000001","19.32","77.6","NAN","0.0"],
    [1552640,"2026-04-30 16:30:00","5350","3.7969999999999997","85.4","6.435","63.46","1016.7130000000001","19.31","77.81","NAN","0.0"],
    [1552641,"2026-04-30 16:40:00","5351","3.555","84.0","5.619","97.3","1016.698","19.2","80.1","NAN","0.0"],
    [1552642,"2026-04-30 16:50:00","5352","3.486","78.57","6.272","91.3","1016.698","19.01","82","NAN","0.0"],
    [1552643,"2026-04-30 17:00:00","5353","3.719","85.5","6.5329999999999995","98.9","1016.671","18.95","82.9","NAN","0.0"],
    [1552644,"2026-04-30 17:10:00","5354","3.822","84.4","6.827000000000001","77.54","1016.6669999999999","18.91","83.5","NAN","0.0"],
    [1552645,"2026-04-30 17:20:00","5355","3.339","79.74","6.011","116.9","1016.678","18.85","83.4","NAN","0.0"],
    [1552646,"2026-04-30 17:30:00","5356","3.492","84.7","6.272","94.1","1016.7080000000001","18.76","83.4","NAN","0.0"],
    [1552647,"2026-04-30 17:40:00","5357","3.02","85.2","4.965","83.9","1016.747","18.77","83.6","NAN","0.0"],
    [1552648,"2026-04-30 17:50:00","5358","3.3360000000000003","85.0","6.1739999999999995","119.3","1016.7489999999999","18.64","83.8","NAN","0.0"],
    [1552649,"2026-04-30 18:00:00","5359","3.3369999999999997","79.26","6.207000000000001","86.1","1016.812","18.54","83.8","NAN","0.0"],
    [1552650,"2026-04-30 18:10:00","5360","3.1319999999999997","76.37","5.553","78.31","1016.9","18.51","83.4","NAN","0.0"],
    [1552651,"2026-04-30 18:20:00","5361","3.897","78.59","6.925","66.57","1016.937","18.44","83.4","NAN","0.0"],
    [1552652,"2026-04-30 18:30:00","5362","3.105","80.2","5.325","84.2","1016.988","18.35","84.7","NAN","0.0"],
    [1552653,"2026-04-30 18:40:00","5363","2.635","80.5","5.1610000000000005","91.9","1017.207","18.41","84.4","NAN","0.0"],
    [1552654,"2026-04-30 18:50:00","5364","3.197","83.2","5.357","79.03","1017.263","18.32","84.7","NAN","0.0"],
    [1552655,"2026-04-30 19:00:00","5365","3.707","76.01","6.501","64.07","1017.29","18.23","85.3","NAN","0.0"],
    [1552656,"2026-04-30 19:10:00","5366","3.497","77.35","6.827000000000001","76.12","1017.429","18.18","85.8","NAN","0.0"],
    [1552657,"2026-04-30 19:20:00","5367","3.5660000000000003","74.98","5.847","49.58","1017.6189999999999","18.08","87.1","NAN","0.0"],
    [1552658,"2026-04-30 19:30:00","5368","3.33","75.22","5.684","87.1","1017.7339999999999","18.06","88.4","NAN","0.0"],
    [1552659,"2026-04-30 19:40:00","5369","3.4389999999999996","74.52","6.207000000000001","77.62","1017.815","18","89.1","NAN","0.0"],
    [1552660,"2026-04-30 19:50:00","5370","3.284","74.94","6.109","70.51","1017.9960000000001","18","89.3","NAN","0.0"],
    [1552661,"2026-04-30 20:00:00","5371","3.505","77.35","5.782","84.0","1018.072","18.03","89.4","NAN","0.0"],
    [1552662,"2026-04-30 20:10:00","5372","3.2569999999999997","63.96","7.905","70.25","1018.1569999999999","18.02","89.9","NAN","0.0"],
    [1552663,"2026-04-30 20:20:00","5373","2.687","73.76","6.729","96.9","1018.263","18.03","89.6","NAN","0.0"],
    [1552664,"2026-04-30 20:30:00","5374","2.755","83.0","5.4879999999999995","67.55","1018.329","18.04","90","NAN","0.0"],
    [1552665,"2026-04-30 20:40:00","5375","2.8710000000000004","86.0","6.1739999999999995","107.6","1018.502","18.03","90","NAN","0.0"],
    [1552666,"2026-04-30 20:50:00","5376","2.8369999999999997","85.1","5.912999999999999","108.4","1018.737","18.04","89.9","NAN","0.0"],
    [1552667,"2026-04-30 21:00:00","5377","3.5189999999999997","86.4","6.37","91.4","1018.763","18.01","90.4","NAN","0.0"],
    [1552668,"2026-04-30 21:10:00","5378","3.02","83.5","5.455","81.2","1018.807","17.94","90.8","NAN","0.0"],
    [1552669,"2026-04-30 21:20:00","5379","3.56","88.6","6.337000000000001","62.25","1018.8710000000001","17.9","91.1","NAN","0.0"],
    [1552670,"2026-04-30 21:30:00","5380","3.1189999999999998","83.2","5.847","88.7","1018.9839999999999","17.85","90.7","NAN","0.0"],
    [1552671,"2026-04-30 21:40:00","5381","2.5810000000000004","77.56","4.998","110.4","1019.034","17.87","89.6","NAN","0.0"],
    [1552672,"2026-04-30 21:50:00","5382","2.237","75.82","4.1160000000000005","71.92","1019.0360000000001","17.89","88.7","NAN","0.0"],
    [1552673,"2026-04-30 22:00:00","5383","2.678","70.97","5.455","56.0","1019.034","17.86","87.4","NAN","0.0"],
    [1552674,"2026-04-30 22:10:00","5384","2.969","68.54","6.435","73.43","1019.029","17.87","85.8","NAN","0.0"],
    [1552675,"2026-04-30 22:20:00","5385","3.426","67.98","8.0","70.19","1019.018","17.92","84.7","NAN","0.0"],
    [1552676,"2026-04-30 22:30:00","5386","3.554","73.99","6.305","64.23","1019.051","18.04","82.7","NAN","0.0"],
    [1552677,"2026-04-30 22:40:00","5387","2.725","88.5","5.912999999999999","89.4","1019.155","18.09","83.6","NAN","0.0"],
    [1552678,"2026-04-30 22:50:00","5388","2.8810000000000002","87.3","6.042999999999999","103.9","1019.2539999999999","18.04","83.6","NAN","0.0"],
    [1552679,"2026-04-30 23:00:00","5389","1.932","78.88","4.867","100.0","1019.279","18.02","83.6","NAN","0.0"],
    [1552680,"2026-04-30 23:10:00","5390","2.8339999999999996","74.75","5.227","80.4","1019.3660000000001","18.08","80.5","NAN","0.0"],
    [1552681,"2026-04-30 23:20:00","5391","2.39","83.6","5.619","108.0","1019.495","18.15","80.5","NAN","0.0"],
    [1552682,"2026-04-30 23:30:00","5392","2.6919999999999997","85.6","5.945","108.1","1019.6460000000001","18.07","82.1","NAN","0.0"],
    [1552683,"2026-04-30 23:40:00","5393","2.5069999999999997","85.7","4.149","108.5","1019.809","18.03","83","NAN","0.0"],
    [1552684,"2026-04-30 23:50:00","5394","2.303","72.19","5.1610000000000005","63.3","1019.873","17.99","83.7","NAN","0.0"],
    [1552685,"2026-05-01 00:00:00","5395","2.405","81.2","4.312","111.8","1019.943","17.97","83.6","NAN","0.0"],
    [1552686,"2026-05-01 00:10:00","5396","1.995","77.12","4.149","79.64","1020.067","17.94","83.5","NAN","0.0"],
    [1552687,"2026-05-01 00:20:00","5397","2.875","86.0","5.521","81.1","1020.038","17.92","83.9","NAN","0.0"],
    [1552688,"2026-05-01 00:30:00","5398","2.61","78.52","4.704","77.1","1020.0110000000001","17.89","85","NAN","0.0"],
    [1552689,"2026-05-01 00:40:00","5399","2.815","75.96","7.023","85.3","1020.0189999999999","17.91","84.3","NAN","0.0"],
    [1552690,"2026-05-01 00:50:00","5400","3.063","77.52","6.501","65.57","1020.007","17.98","82.2","NAN","0.0"],
    [1552691,"2026-05-01 01:00:00","5401","3.333","74.96","7.218999999999999","70.69","1019.872","18.16","79.33","NAN","0.0"],
    [1552692,"2026-05-01 01:10:00","5402","2.1180000000000003","50.84","4.9","25.52","1019.765","18.31","76.71","NAN","0.0"],
    [1552693,"2026-05-01 01:20:00","5403","2.041","60.96","3.855","82.3","1019.692","18.22","79.9","NAN","0.0"],
    [1552694,"2026-05-01 01:30:00","5404","1.746","74.62","3.92","110.2","1019.68","18.03","82.2","NAN","0.0"],
    [1552695,"2026-05-01 01:40:00","5405","2.8369999999999997","79.35","5.063","66.64","1019.564","17.85","84.6","NAN","0.0"],
    [1552696,"2026-05-01 01:50:00","5406","2.556","78.74","4.606","63.28","1019.674","17.63","87.2","NAN","0.0"],
    [1552697,"2026-05-01 02:00:00","5407","2.511","81.1","4.9","72.16","1019.735","17.5","88.3","NAN","0.0"],
    [1552698,"2026-05-01 02:10:00","5408","2.24","69.26","4.867","57.76","1019.747","17.4","88.8","NAN","0.0"],
    [1552699,"2026-05-01 02:20:00","5409","3.063","79.59","5.749","83.7","1019.757","17.35","88.5","NAN","0.0"],
    [1552700,"2026-05-01 02:30:00","5410","3.275","73.68","5.88","53.67","1019.7710000000001","17.28","88.1","NAN","0.0"],
    [1552701,"2026-05-01 02:40:00","5411","3.556","70.16","6.599","54.99","1019.7239999999999","17.2","87.8","NAN","0.0"],
    [1552702,"2026-05-01 02:50:00","5412","3.759","70.05","8.17","62.18","1019.7460000000001","17.18","87.2","NAN","0.0"],
    [1552703,"2026-05-01 03:00:00","5413","3.822","77.65","6.86","90.6","1019.722","17.18","86.8","NAN","0.0"],
    [1552704,"2026-05-01 03:10:00","5414","1.7590000000000001","67.79","4.312","68.15","1019.7819999999999","17.29","84.3","NAN","0.0"],
    [1552705,"2026-05-01 03:20:00","5415","1.704","58.68","4.41","61.3","1019.79","17.32","82.9","NAN","0.0"],
    [1552706,"2026-05-01 03:30:00","5416","1.945","66.81","4.606","64.02","1019.809","17.35","83.1","NAN","0.0"],
    [1552707,"2026-05-01 03:40:00","5417","1.885","42.03","3.92","41.34","1019.929","17.33","83.5","NAN","0.0"],
    [1552708,"2026-05-01 03:50:00","5418","1.922","46.56","4.312","58.35","1019.915","17.28","83.5","NAN","0.0"],
    [1552709,"2026-05-01 04:00:00","5419","1.567","46.41","2.842","86.3","1019.8510000000001","17.14","83.7","NAN","0.0"],
    [1552710,"2026-05-01 04:10:00","5420","1.585","46.75","3.103","33.06","1019.785","17.03","83.7","NAN","0.0"],
    [1552711,"2026-05-01 04:20:00","5421","1.102","37.2","2.254","44.85","1019.873","16.97","82.9","NAN","0.0"],
    [1552712,"2026-05-01 04:30:00","5422","1.018","26.6","2.156","40.53","1019.8760000000001","16.9","82","NAN","0.0"],
    [1552713,"2026-05-01 04:40:00","5423","1.074","41.75","2.0909999999999997","40.36","1019.914","16.9","80.9","NAN","0.0"],
    [1552714,"2026-05-01 04:50:00","5424","0.818","36.53","1.9269999999999998","33.84","1020.0060000000001","16.93","79.49","NAN","0.0"],
    [1552715,"2026-05-01 05:00:00","5425","1.153","47.08","2.0909999999999997","34.74","1020.148","16.91","78.37","NAN","0.0"],
    [1552716,"2026-05-01 05:10:00","5426","0.752","34.63","2.254","355.9","1020.17","16.92","77.8","NAN","0.0"],
    [1552717,"2026-05-01 05:20:00","5427","0.731","21.79","1.7309999999999999","47.54","1020.243","16.99","77.31","NAN","0.0"],
    [1552718,"2026-05-01 05:30:00","5428","0.971","14.21","2.515","3.9619999999999997","1020.325","17.08","76.22","NAN","0.0"],
    [1552719,"2026-05-01 05:40:00","5429","0.737","24.02","2.0909999999999997","6.206","1020.398","17.14","75.43","NAN","0.0"],
    [1552720,"2026-05-01 05:50:00","5430","1.0659999999999998","18.5","2.94","10.95","1020.413","17.26","74.48","NAN","0.0"],
    [1552721,"2026-05-01 06:00:00","5431","0.986","19.61","2.417","11.83","1020.507","17.41","73.73","NAN","0.0"],
    [1552722,"2026-05-01 06:10:00","5432","0.847","25.29","2.352","17.58","1020.569","17.69","72.65","NAN","0.0"],
    [1552723,"2026-05-01 06:20:00","5433","0.727","33.94","2.319","24.03","1020.732","17.96","71.47","NAN","0.0"],
    [1552724,"2026-05-01 06:30:00","5434","1.248","41.86","2.94","23.99","1020.7489999999999","18.07","70.83","NAN","0.0"],
    [1552725,"2026-05-01 06:40:00","5435","1.446","40.71","3.005","25.23","1020.757","18.17","70.42","NAN","0.0"],
    [1552726,"2026-05-01 06:50:00","5436","1.67","44.17","3.43","28.05","1020.826","18.26","70.35","NAN","0.0"],
    [1552727,"2026-05-01 07:00:00","5437","1.794","55.72","3.365","67.14","1020.8960000000001","18.52","70.24","NAN","0.0"],
    [1552728,"2026-05-01 07:10:00","5438","2.355","63.64","4.573","86.3","1020.944","18.74","69.6","NAN","0.0"],
    [1552729,"2026-05-01 07:20:00","5439","2.292","59.34","4.737","59.0","1020.9689999999999","18.82","68.82","NAN","0.0"],
    [1552730,"2026-05-01 07:30:00","5440","3.122","54.29","6.5329999999999995","55.63","1020.934","19.03","68.05","NAN","0.0"],
    [1552731,"2026-05-01 07:40:00","5441","2.072","64.81","4.051","70.88","1020.975","19.61","65.77","NAN","0.0"],
    [1552732,"2026-05-01 07:50:00","5442","2.892","74.39","5.88","78.42","1021.1569999999999","19.66","64.72","NAN","0.0"],
    [1552733,"2026-05-01 08:00:00","5443","2.952","82.9","5.2589999999999995","63.83","1021.2710000000001","19.61","67.02","NAN","0.0"],
    [1552734,"2026-05-01 08:10:00","5444","2.8339999999999996","78.54","5.521","91.8","1021.4760000000001","19.63","69.25","NAN","0.0"],
    [1552735,"2026-05-01 08:20:00","5445","3.722","91.1","5.7170000000000005","92.3","1021.597","19.51","71.7","NAN","0.0"],
    [1552736,"2026-05-01 08:30:00","5446","3.424","92.6","5.325","95.5","1021.6519999999999","19.36","73.79","NAN","0.0"],
    [1552737,"2026-05-01 08:40:00","5447","2.8080000000000003","80.7","5.292000000000001","98.0","1021.677","19.56","72.73","NAN","0.0"],
    [1552738,"2026-05-01 08:50:00","5448","3.06","87.1","5.521","56.87","1021.7589999999999","19.6","72.49","NAN","0.0"],
    [1552739,"2026-05-01 09:00:00","5449","3.8489999999999998","88.5","6.403","86.2","1021.847","19.44","73.23","NAN","0.0"],
    [1552740,"2026-05-01 09:10:00","5450","2.633","81.8","6.1739999999999995","89.6","1021.939","19.45","73.87","NAN","0.0"],
    [1552741,"2026-05-01 09:20:00","5451","3.0260000000000002","84.5","5.7170000000000005","109.5","1022.0160000000001","19.63","72.69","NAN","0.0"],
    [1552742,"2026-05-01 09:30:00","5452","4.365","91.8","7.252000000000001","91.4","1021.9839999999999","19.46","74.09","NAN","0.0"],
    [1552743,"2026-05-01 09:40:00","5453","4.315","87.6","6.827000000000001","68.96","1022.0880000000001","19.23","75.56","NAN","0.0"],
    [1552744,"2026-05-01 09:50:00","5454","4.942","89.3","8.36","75.22","1022.1510000000001","19.15","75.96","NAN","0.0"],
    [1552745,"2026-05-01 10:00:00","5455","4.171","87.6","7.546","85.2","1022.193","19.25","74.11","NAN","0.0"],
    [1552746,"2026-05-01 10:10:00","5456","4.418","86.4","6.957999999999999","112.1","1022.153","19.62","71.44","NAN","0.0"],
    [1552747,"2026-05-01 10:20:00","5457","4.245","89.5","6.925","68.48","1022.165","19.75","70.11","NAN","0.0"],
    [1552748,"2026-05-01 10:30:00","5458","4.587","88.7","8.1","92.0","1022.18","19.85","68.79","NAN","0.0"],
    [1552749,"2026-05-01 10:40:00","5459","4.873","91.0","8.13","89.7","1022.2080000000001","19.88","67.55","NAN","0.0"],
    [1552750,"2026-05-01 10:50:00","5460","4.97","89.1","8.85","95.7","1022.26","20.04","67.17","NAN","0.0"],
    [1552751,"2026-05-01 11:00:00","5461","3.904","86.4","7.382999999999999","99.4","1022.262","20.15","68.12","NAN","0.0"],
    [1552752,"2026-05-01 11:10:00","5462","3.775","76.37","7.382999999999999","65.6","1022.285","20.15","67.76","NAN","0.0"],
    [1552753,"2026-05-01 11:20:00","5463","3.6060000000000003","72.34","8.43","65.23","1022.27","20.12","68.85","NAN","0.0"],
    [1552754,"2026-05-01 11:30:00","5464","4.926","64.99","8.75","66.94","1022.202","19.75","70.14","NAN","0.0"],
    [1552755,"2026-05-01 11:40:00","5465","4.423","67.62","8.23","60.1","1022.2180000000001","19.66","70.63","NAN","0.0"],
    [1552756,"2026-05-01 11:50:00","5466","3.903","65.6","8.36","67.5","1022.2869999999999","19.94","69.73","NAN","0.0"],
    [1552757,"2026-05-01 12:00:00","5467","4.137","68.23","7.285","64.91","1022.245","19.75","70.26","NAN","0.0"],
    [1552758,"2026-05-01 12:10:00","5468","3.468","78.44","6.86","75.65","1022.252","20.01","68.36","NAN","0.0"],
    [1552759,"2026-05-01 12:20:00","5469","3.7960000000000003","69.95","8.69","67.43","1022.1619999999999","19.93","68.21","NAN","0.0"],
    [1552760,"2026-05-01 12:30:00","5470","4.6739999999999995","90.6","9.57","98.5","1022.1160000000001","19.83","68.24","NAN","0.0"],
    [1552761,"2026-05-01 12:40:00","5471","4.457","90.9","9.67","97.2","1022.173","19.76","67.81","NAN","0.0"],
    [1552762,"2026-05-01 12:50:00","5472","4.897","88.1","7.84","81.9","1022.205","19.79","66.86","NAN","0.0"],
    [1552763,"2026-05-01 13:00:00","5473","5.099","84.6","8.26","74.4","1022.255","19.54","67.35","NAN","0.0"],
    [1552764,"2026-05-01 13:10:00","5474","4.644","85.9","7.872999999999999","87.5","1022.322","19.57","66.7","NAN","0.0"],
    [1552765,"2026-05-01 13:20:00","5475","4.247","85.6","7.317","93.2","1022.335","19.47","67.08","NAN","0.0"],
    [1552766,"2026-05-01 13:30:00","5476","3.4589999999999996","89.3","7.285","89.0","1022.382","19.65","66.2","NAN","0.0"],
    [1552767,"2026-05-01 13:40:00","5477","4.075","87.8","7.971","72.16","1022.3489999999999","19.32","66.16","NAN","0.0"],
    [1552768,"2026-05-01 13:50:00","5478","4.11","86.6","7.513","79.77","1022.315","19.33","66.66","NAN","0.0"],
    [1552769,"2026-05-01 14:00:00","5479","4.144","82.8","8.07","78.28","1022.235","19.08","67.2","NAN","0.0"],
    [1552770,"2026-05-01 14:10:00","5480","4.111000000000001","85.1","7.513","94.9","1022.172","19.18","67","NAN","0.0"],
    [1552771,"2026-05-01 14:20:00","5481","4.12","86.9","7.872999999999999","93.5","1022.158","19.18","67.65","NAN","0.0"],
    [1552772,"2026-05-01 14:30:00","5482","3.6460000000000004","88.2","7.35","86.7","1022.178","19.28","68.59","NAN","0.0"],
    [1552773,"2026-05-01 14:40:00","5483","3.388","74.1","6.435","71.11","1022.2180000000001","19.41","67.03","NAN","0.0"],
    [1552774,"2026-05-01 14:50:00","5484","3.9219999999999997","72.24","6.729","53.95","1022.225","19.22","67.79","NAN","0.0"],
    [1552775,"2026-05-01 15:00:00","5485","4.186","73.31","6.893","62.89","1022.178","19.08","68.27","NAN","0.0"],
    [1552776,"2026-05-01 15:10:00","5486","3.747","75.5","5.88","77.38","1022.19","18.95","69.05","NAN","0.0"],
    [1552777,"2026-05-01 15:20:00","5487","3.654","70.83","7.218999999999999","69.26","1022.185","18.88","69.58","NAN","0.0"],
    [1552778,"2026-05-01 15:30:00","5488","3.5669999999999997","74.11","6.7620000000000005","70.62","1022.135","18.92","69.73","NAN","0.0"],
    [1552779,"2026-05-01 15:40:00","5489","3.529","70.38","6.795","67.43","1022.165","18.73","70.79","NAN","0.0"],
    [1552780,"2026-05-01 15:50:00","5490","3.5610000000000004","79.52","6.337000000000001","80.3","1022.176","18.72","71.75","NAN","0.0"],
    [1552781,"2026-05-01 16:00:00","5491","3.858","71.05","6.566","61.08","1022.179","18.58","72.68","NAN","0.0"],
    [1552782,"2026-05-01 16:10:00","5492","3.734","78.07","6.305","74.25","1022.193","18.42","74.19","NAN","0.0"],
    [1552783,"2026-05-01 16:20:00","5493","3.523","74.43","5.847","65.78","1022.222","18.39","75.09","NAN","0.0"],
    [1552784,"2026-05-01 16:30:00","5494","3.115","76.71","6.141","80.3","1022.212","18.39","75.96","NAN","0.0"],
    [1552785,"2026-05-01 16:40:00","5495","3.471","82.1","6.042999999999999","62.85","1022.2280000000001","18.39","76.82","NAN","0.0"],
    [1552786,"2026-05-01 16:50:00","5496","3.615","81.8","6.5329999999999995","75.55","1022.222","18.29","78.07","NAN","0.0"],
    [1552787,"2026-05-01 17:00:00","5497","3.59","75.38","6.239","45.1","1022.235","18.11","79.82","NAN","0.0"],
    [1552788,"2026-05-01 17:10:00","5498","3.819","77.67","7.023","59.95","1022.2539999999999","18.05","80.1","NAN","0.0"],
    [1552789,"2026-05-01 17:20:00","5499","3.721","70.75","7.317","72.06","1022.329","18.01","80.6","NAN","0.0"],
    [1552790,"2026-05-01 17:30:00","5500","3.5780000000000003","73.37","5.749","81.6","1022.414","17.93","81.4","NAN","0.0"],
    [1552791,"2026-05-01 17:40:00","5501","2.722","71.57","5.325","62.31","1022.477","18.04","81.5","NAN","0.0"],
    [1552792,"2026-05-01 17:50:00","5502","2.9389999999999996","71.14","5.815","58.23","1022.4889999999999","18.09","81.7","NAN","0.0"],
    [1552793,"2026-05-01 18:00:00","5503","3.071","74.93","5.684","83.3","1022.6339999999999","17.94","82.9","NAN","0.0"],
    [1552794,"2026-05-01 18:10:00","5504","3.074","72.58","5.2589999999999995","61.37","1022.747","17.93","83.6","NAN","0.0"],
    [1552795,"2026-05-01 18:20:00","5505","3.162","69.64","5.227","67.64","1022.758","17.84","84.8","NAN","0.0"],
    [1552796,"2026-05-01 18:30:00","5506","3.032","67.53","5.553","69.68","1022.938","17.88","85.5","NAN","0.0"],
    [1552797,"2026-05-01 18:40:00","5507","3.114","64.06","4.933","69.63","1023.066","17.85","85.9","NAN","0.0"],
    [1552798,"2026-05-01 18:50:00","5508","2.181","67.7","4.41","62.66","1023.201","17.88","86.3","NAN","0.0"],
    [1552799,"2026-05-01 19:00:00","5509","2.615","61.64","4.867","68.24","1023.24","17.82","86.8","NAN","0.0"],
    [1552800,"2026-05-01 19:10:00","5510","2.147","61.03","4.018","55.87","1023.2460000000001","17.84","86.5","NAN","0.0"],
    [1552801,"2026-05-01 19:20:00","5511","1.965","82.0","3.5610000000000004","52.96","1023.305","17.85","87.1","NAN","0.0"],
    [1552802,"2026-05-01 19:30:00","5512","2.318","91.3","4.2139999999999995","80.5","1023.444","17.86","87.4","NAN","0.0"],
    [1552803,"2026-05-01 19:40:00","5513","2.09","87.1","3.92","87.1","1023.548","17.78","88.4","NAN","0.0"],
    [1552804,"2026-05-01 19:50:00","5514","1.9909999999999999","71.2","4.051","76.55","1023.6189999999999","17.8","88.6","NAN","0.0"],
    [1552805,"2026-05-01 20:00:00","5515","2.102","63.86","4.2139999999999995","49.69","1023.702","17.79","88.6","NAN","0.0"],
    [1552806,"2026-05-01 20:10:00","5516","2.043","59.82","4.377","63.99","1023.773","17.78","88.5","NAN","0.0"],
    [1552807,"2026-05-01 20:20:00","5517","1.5819999999999999","61.97","3.593","59.85","1023.908","17.87","88.1","NAN","0.0"],
    [1552808,"2026-05-01 20:30:00","5518","2.165","59.98","4.704","67.62","1023.988","17.89","87.4","NAN","0.0"],
    [1552809,"2026-05-01 20:40:00","5519","2.572","75.65","4.9","70.8","1023.988","17.88","86.7","NAN","0.0"],
    [1552810,"2026-05-01 20:50:00","5520","1.6469999999999998","47.18","2.842","33.34","1024.027","18.01","86.7","NAN","0.0"],
    [1552811,"2026-05-01 21:00:00","5521","2.383","44.54","4.4430000000000005","24.84","1023.998","17.96","85.4","NAN","0.0"],
    [1552812,"2026-05-01 21:10:00","5522","2.021","43.06","3.332","37.19","1023.988","17.95","86.1","NAN","0.0"],
    [1552813,"2026-05-01 21:20:00","5523","1.443","57.26","3.528","49.47","1024.008","17.94","86.3","NAN","0.0"],
    [1552814,"2026-05-01 21:30:00","5524","2.377","43.22","4.1160000000000005","35.24","1024.08","17.92","85.8","NAN","0.0"],
    [1552815,"2026-05-01 21:40:00","5525","1.7280000000000002","69.09","3.7889999999999997","64.09","1024.125","17.91","85.9","NAN","0.0"],
    [1552816,"2026-05-01 21:50:00","5526","2.09","76.0","4.508","70.08","1024.04","18.03","85.9","NAN","0.0"],
    [1552817,"2026-05-01 22:00:00","5527","2.6319999999999997","72.8","4.638999999999999","67.27","1023.998","17.92","86.8","NAN","0.0"],
    [1552818,"2026-05-01 22:10:00","5528","2.373","81.8","4.573","90.8","1023.962","17.86","87.6","NAN","0.0"],
    [1552819,"2026-05-01 22:20:00","5529","2.362","83.3","4.475","88.5","1023.9939999999999","17.81","87.8","NAN","0.0"],
    [1552820,"2026-05-01 22:30:00","5530","2.08","79.73","4.345","71.1","1024.005","17.8","88.1","NAN","0.0"],
    [1552821,"2026-05-01 22:40:00","5531","2.305","84.5","3.92","78.31","1023.9830000000001","17.86","88.2","NAN","0.0"],
    [1552822,"2026-05-01 22:50:00","5532","2.147","79.91","4.279","91.4","1024.003","17.9","87.9","NAN","0.0"],
    [1552823,"2026-05-01 23:00:00","5533","2.209","82.4","3.7239999999999998","68.33","1024.078","17.9","87.8","NAN","0.0"],
    [1552824,"2026-05-01 23:10:00","5534","2.384","73.42","4.1160000000000005","75.97","1024.117","17.87","87.5","NAN","0.0"],
    [1552825,"2026-05-01 23:20:00","5535","2.727","75.4","4.312","71.34","1024.105","17.81","87.1","NAN","0.0"],
    [1552826,"2026-05-01 23:30:00","5536","2.536","78.49","4.279","82.1","1024.105","17.81","87.8","NAN","0.0"],
    [1552827,"2026-05-01 23:40:00","5537","2.4859999999999998","67.52","4.737","68.81","1024.095","17.8","88.2","NAN","0.0"],
    [1552828,"2026-05-01 23:50:00","5538","2.057","69.41","4.279","63.91","1024.006","17.82","88.2","NAN","0.0"],
    [1552829,"2026-05-02 00:00:00","5539","2.154","72.15","3.92","70.45","1023.957","17.82","87.3","NAN","0.0"],
    [1552830,"2026-05-02 00:10:00","5540","2.29","77.36","3.855","74.7","1023.7510000000001","17.87","85.6","NAN","0.0"],
    [1552831,"2026-05-02 00:20:00","5541","1.607","84.7","2.842","92.6","1023.711","17.85","85.8","NAN","0.0"],
    [1552832,"2026-05-02 00:30:00","5542","1.857","71.12","3.6910000000000003","90.1","1023.6139999999999","17.87","83.4","NAN","0.0"],
    [1552833,"2026-05-02 00:40:00","5543","1.578","61.52","3.332","69.13","1023.485","17.94","82.5","NAN","0.0"],
    [1552834,"2026-05-02 00:50:00","5544","1.521","57.7","3.299","70.06","1023.305","17.96","81.1","NAN","0.0"],
    [1552835,"2026-05-02 01:00:00","5545","2.344","73.95","4.638999999999999","63.04","1023.235","17.94","79.65","NAN","0.0"],
    [1552836,"2026-05-02 01:10:00","5546","2.526","72.63","4.965","74.91","1023.166","17.9","80.6","NAN","0.0"],
    [1552837,"2026-05-02 01:20:00","5547","2.2840000000000003","75.11","4.704","79.3","1023.079","17.84","82.1","NAN","0.0"],
    [1552838,"2026-05-02 01:30:00","5548","1.936","76.01","3.822","61.26","1022.992","17.86","82.7","NAN","0.0"],
    [1552839,"2026-05-02 01:40:00","5549","2.026","70.7","3.92","74.4","1023.007","17.82","83.5","NAN","0.0"],
    [1552840,"2026-05-02 01:50:00","5550","2.024","77.58","3.659","77.32","1022.998","17.83","83.5","NAN","0.0"],
    [1552841,"2026-05-02 02:00:00","5551","2.3680000000000003","76.81","4.051","74.96","1023.003","17.83","83","NAN","0.0"],
    [1552842,"2026-05-02 02:10:00","5552","1.7930000000000001","71.34","3.495","89.4","1022.918","17.87","83.3","NAN","0.0"],
    [1552843,"2026-05-02 02:20:00","5553","2.5469999999999997","68.47","4.671","69.4","1022.922","17.85","82.2","NAN","0.0"],
    [1552844,"2026-05-02 02:30:00","5554","2.568","71.38","4.377","77.89","1022.9119999999999","17.84","82.3","NAN","0.0"],
    [1552845,"2026-05-02 02:40:00","5555","2.532","75.42","4.4430000000000005","79.62","1022.99","17.84","82.8","NAN","0.0"],
    [1552846,"2026-05-02 02:50:00","5556","2.819","74.36","4.606","69.21","1022.9680000000001","17.79","83","NAN","0.0"],
    [1552847,"2026-05-02 03:00:00","5557","2.8369999999999997","71.98","5.2589999999999995","77.55","1022.842","17.76","83.4","NAN","0.0"],
    [1552848,"2026-05-02 03:10:00","5558","3.105","76.47","5.455","80.2","1022.74","17.7","84.4","NAN","0.0"],
    [1552849,"2026-05-02 03:20:00","5559","2.716","76.73","4.737","89.5","1022.73","17.67","85.2","NAN","0.0"],
    [1552850,"2026-05-02 03:30:00","5560","2.928","76.28","5.357","85.1","1022.65","17.62","86.1","NAN","0.0"],
    [1552851,"2026-05-02 03:40:00","5561","3.062","68.79","4.933","54.45","1022.633","17.57","86.7","NAN","0.0"],
    [1552852,"2026-05-02 03:50:00","5562","2.878","64.86","4.573","78.25","1022.6610000000001","17.53","86.6","NAN","0.0"],
    [1552853,"2026-05-02 04:00:00","5563","2.571","67.64","4.638999999999999","73.79","1022.6","17.57","86.4","NAN","0.0"],
    [1552854,"2026-05-02 04:10:00","5564","2.7119999999999997","71.88","4.965","65.65","1022.579","17.6","86.1","NAN","0.0"],
    [1552855,"2026-05-02 04:20:00","5565","2.958","67.74","4.9","74.22","1022.613","17.55","86.3","NAN","0.0"],
    [1552856,"2026-05-02 04:30:00","5566","2.522","73.31","4.247","67.9","1022.687","17.55","86.2","NAN","0.0"],
    [1552857,"2026-05-02 04:40:00","5567","2.29","72.56","4.083","74.83","1022.7330000000001","17.55","86.2","NAN","0.0"],
    [1552858,"2026-05-02 04:50:00","5568","2.28","70.34","4.018","58.81","1022.732","17.55","86.1","NAN","0.0"],
    [1552859,"2026-05-02 05:00:00","5569","2.278","73.23","4.933","70.78","1022.7360000000001","17.54","86.3","NAN","0.0"],
    [1552860,"2026-05-02 05:10:00","5570","2.281","76.51","4.1160000000000005","81.5","1022.7310000000001","17.49","86.4","NAN","0.0"],
    [1552861,"2026-05-02 05:20:00","5571","2.479","70.36","4.573","89.8","1022.755","17.48","86.1","NAN","0.0"],
    [1552862,"2026-05-02 05:30:00","5572","2.318","83.2","4.051","77.56","1022.7589999999999","17.48","85.8","NAN","0.0"],
    [1552863,"2026-05-02 05:40:00","5573","1.3459999999999999","60.21","2.907","90.4","1022.827","17.55","85.2","NAN","0.0"],
    [1552864,"2026-05-02 05:50:00","5574","1.629","73.97","3.593","94.9","1022.872","17.63","84.5","NAN","0.0"],
    [1552865,"2026-05-02 06:00:00","5575","2.165","71.56","4.051","56.35","1022.949","17.57","84.5","NAN","0.0"],
    [1552866,"2026-05-02 06:10:00","5576","2.085","77.46","3.5610000000000004","124.3","1023.1060000000001","17.56","84.3","NAN","0.0"],
    [1552867,"2026-05-02 06:20:00","5577","2.189","86.4","3.299","88.1","1023.1089999999999","17.59","84.4","NAN","0.0"],
    [1552868,"2026-05-02 06:30:00","5578","2.0709999999999997","72.03","4.018","69.69","1023.064","17.61","84.3","NAN","0.0"],
    [1552869,"2026-05-02 06:40:00","5579","2.305","75.9","4.345","83.1","1023.1460000000001","17.59","84","NAN","0.0"],
    [1552870,"2026-05-02 06:50:00","5580","2.095","90.2","3.267","83.8","1023.2410000000001","17.67","83.8","NAN","0.0"],
    [1552871,"2026-05-02 07:00:00","5581","2.015","81.2","3.855","89.5","1023.2460000000001","17.64","84.1","NAN","0.0"],
    [1552872,"2026-05-02 07:10:00","5582","1.9269999999999998","81.7","3.332","78.56","1023.2410000000001","17.73","83.8","NAN","0.0"],
    [1552873,"2026-05-02 07:20:00","5583","2.0580000000000003","83.4","3.593","112.0","1023.238","17.73","83.4","NAN","0.0"],
    [1552874,"2026-05-02 07:30:00","5584","2.133","85.3","3.267","87.5","1023.133","17.79","82.3","NAN","0.0"],
    [1552875,"2026-05-02 07:40:00","5585","2.217","79.11","3.822","73.71","1023.0360000000001","17.83","81.8","NAN","0.0"],
    [1552876,"2026-05-02 07:50:00","5586","1.6869999999999998","70.91","3.463","64.48","1023.079","17.93","81.1","NAN","0.0"],
    [1552877,"2026-05-02 08:00:00","5587","1.4380000000000002","74.75","2.6460000000000004","89.7","1023.169","17.97","80.7","NAN","0.0"],
    [1552878,"2026-05-02 08:10:00","5588","1.138","63.38","2.221","60.0","1023.2410000000001","17.97","80.6","NAN","0.0"],
    [1552879,"2026-05-02 08:20:00","5589","1.682","79.19","2.613","80.7","1023.237","18.1","80.6","NAN","0.0"],
    [1552880,"2026-05-02 08:30:00","5590","1.656","71.76","2.9730000000000003","105.8","1023.221","18.05","81.3","NAN","0.0"],
    [1552881,"2026-05-02 08:40:00","5591","1.72","46.43","3.593","40.0","1023.186","18.16","80.6","NAN","0.0"],
    [1552882,"2026-05-02 08:50:00","5592","1.91","83.6","3.0380000000000003","89.2","1023.1089999999999","18.3","80.1","NAN","0.0"],
    [1552883,"2026-05-02 09:00:00","5593","2.076","78.17","3.365","84.1","1023.1439999999999","18.28","80.4","NAN","0.0"],
    [1552884,"2026-05-02 09:10:00","5594","2.01","87.5","3.365","97.0","1023.1189999999999","18.42","79.48","NAN","0.0"],
    [1552885,"2026-05-02 09:20:00","5595","2.267","88.5","4.312","99.2","1022.9739999999999","18.43","79.73","NAN","0.0"],
    [1552886,"2026-05-02 09:30:00","5596","2.164","62.85","3.495","56.16","1022.931","18.59","78.24","NAN","0.0"],
    [1552887,"2026-05-02 09:40:00","5597","1.496","81.0","2.94","102.0","1023.046","18.92","76.92","NAN","0.0"],
    [1552888,"2026-05-02 09:50:00","5598","2.423","91.6","4.051","102.4","1022.923","18.88","77.69","NAN","0.0"],
    [1552889,"2026-05-02 10:00:00","5599","2.58","90.0","3.822","88.7","1022.822","18.77","78.17","NAN","0.0"],
    [1552890,"2026-05-02 10:10:00","5600","2.478","82.2","4.247","80.5","1022.7310000000001","19.05","75.55","NAN","0.0"],
    [1552891,"2026-05-02 10:20:00","5601","2.6189999999999998","95.5","3.9530000000000003","95.5","1022.815","18.86","78","NAN","0.0"],
    [1552892,"2026-05-02 10:30:00","5602","2.759","89.9","4.377","77.33","1022.88","18.63","80.1","NAN","0.0"],
    [1552893,"2026-05-02 10:40:00","5603","2.443","98.3","4.475","110.6","1022.887","18.57","82","NAN","0.0"],
    [1552894,"2026-05-02 10:50:00","5604","3.048","102.4","5.2589999999999995","108.3","1022.686","18.55","81.6","NAN","0.0"],
    [1552895,"2026-05-02 11:00:00","5605","3.488","106.7","5.782","106.7","1022.5","18.09","84.3","NAN","0.0"],
    [1552896,"2026-05-02 11:10:00","5606","3.1","105.1","5.292000000000001","107.0","1022.451","18.15","85.1","NAN","0.0"],
    [1552897,"2026-05-02 11:20:00","5607","3.114","105.1","5.2589999999999995","103.3","1022.47","18.09","85.5","NAN","0.0"],
    [1552898,"2026-05-02 11:30:00","5608","3.612","109.3","5.815","107.4","1022.433","18.02","86.7","NAN","0.0"],
    [1552899,"2026-05-02 11:40:00","5609","2.8510000000000004","100.0","5.063","107.3","1022.421","18.17","86.1","NAN","0.0"],
    [1552900,"2026-05-02 11:50:00","5610","3.72","111.1","5.455","106.7","1022.28","18.01","85.4","NAN","0.0"],
    [1552901,"2026-05-02 12:00:00","5611","2.55","99.4","4.867","104.6","1022.253","18.41","84.7","NAN","0.0"],
    [1552902,"2026-05-02 12:10:00","5612","2.508","90.1","3.7889999999999997","84.3","1022.183","18.81","82.3","NAN","0.0"],
    [1552903,"2026-05-02 12:20:00","5613","2.924","104.8","4.835","116.3","1022.29","18.56","82","NAN","0.0"],
    [1552904,"2026-05-02 12:30:00","5614","2.986","104.3","4.541","112.2","1022.297","18.11","83.4","NAN","0.0"],
    [1552905,"2026-05-02 12:40:00","5615","2.93","104.0","4.377","104.0","1022.22","18.15","82.9","NAN","0.0"],
    [1552906,"2026-05-02 12:50:00","5616","2.695","105.3","4.475","108.6","1022.173","18.21","81.9","NAN","0.0"],
    [1552907,"2026-05-02 13:00:00","5617","2.8680000000000003","103.8","5.1610000000000005","118.0","1022.075","18.56","80.7","NAN","0.0"],
    [1552908,"2026-05-02 13:10:00","5618","2.775","102.1","4.835","106.4","1021.954","18.51","80.7","NAN","0.0"],
    [1552909,"2026-05-02 13:20:00","5619","2.81","99.0","4.867","114.9","1021.959","18.67","79.7","NAN","0.0"],
    [1552910,"2026-05-02 13:30:00","5620","2.211","100.4","3.985","90.1","1021.944","18.7","79.43","NAN","0.0"],
    [1552911,"2026-05-02 13:40:00","5621","2.448","98.3","4.671","106.8","1021.7710000000001","19.01","77.14","NAN","0.0"],
    [1552912,"2026-05-02 13:50:00","5622","2.662","101.1","4.247","91.6","1021.7239999999999","18.7","78.43","NAN","0.0"],
    [1552913,"2026-05-02 14:00:00","5623","2.362","102.9","4.377","112.3","1021.655","18.59","79.75","NAN","0.0"],
    [1552914,"2026-05-02 14:10:00","5624","2.479","102.1","4.181","108.4","1021.492","18.7","79.45","NAN","0.0"],
    [1552915,"2026-05-02 14:20:00","5625","3.0260000000000002","110.2","5.455","106.3","1021.2260000000001","18.74","79.03","NAN","0.0"],
    [1552916,"2026-05-02 14:30:00","5626","2.935","109.5","5.194","112.6","1021.169","18.57","80","NAN","0.0"],
    [1552917,"2026-05-02 14:40:00","5627","2.531","108.6","4.737","108.1","1020.97","18.67","79.7","NAN","0.0"],
    [1552918,"2026-05-02 14:50:00","5628","2.805","105.0","4.9","104.5","1020.85","18.63","79.06","NAN","0.0"],
    [1552919,"2026-05-02 15:00:00","5629","2.7460000000000004","106.2","4.769","112.0","1020.7180000000001","18.66","79.17","NAN","0.0"],
    [1552920,"2026-05-02 15:10:00","5630","2.87","110.0","4.573","111.2","1020.666","18.37","80.4","NAN","0.0"],
    [1552921,"2026-05-02 15:20:00","5631","2.475","109.8","4.181","107.7","1020.673","18.58","79.99","NAN","0.0"],
    [1552922,"2026-05-02 15:30:00","5632","2.492","105.5","4.1160000000000005","99.2","1020.571","18.63","78.63","NAN","0.0"],
    [1552923,"2026-05-02 15:40:00","5633","2.261","120.3","3.855","125.5","1020.4739999999999","18.48","79.33","NAN","0.0"],
    [1552924,"2026-05-02 15:50:00","5634","2.589","108.3","3.92","94.0","1020.3969999999999","18.21","81","NAN","0.0"],
    [1552925,"2026-05-02 16:00:00","5635","2.218","99.6","3.495","103.1","1020.385","18.3","80.6","NAN","0.0"],
    [1552926,"2026-05-02 16:10:00","5636","2.219","102.5","3.9530000000000003","106.4","1020.215","18.37","79.52","NAN","0.0"],
    [1552927,"2026-05-02 16:20:00","5637","2.494","104.9","3.7889999999999997","114.0","1020.166","18.16","81.4","NAN","0.0"],
    [1552928,"2026-05-02 16:30:00","5638","2.478","96.4","3.92","101.9","1020.033","18.12","81.7","NAN","0.0"],
    [1552929,"2026-05-02 16:40:00","5639","2.535","87.1","3.92","71.08","1019.921","18.12","82.1","NAN","0.0"],
    [1552930,"2026-05-02 16:50:00","5640","2.4019999999999997","115.4","3.6260000000000003","117.9","1020.02","17.96","82.6","NAN","0.0"],
    [1552931,"2026-05-02 17:00:00","5641","2.21","92.2","3.43","89.8","1019.814","18.03","82.4","NAN","0.0"],
    [1552932,"2026-05-02 17:10:00","5642","2.221","96.4","3.855","88.5","1019.555","18.16","81.3","NAN","0.0"],
    [1552933,"2026-05-02 17:20:00","5643","2.847","86.4","3.9530000000000003","80.1","1019.4739999999999","18.02","81.4","NAN","0.0"],
    [1552934,"2026-05-02 17:30:00","5644","2.867","87.5","4.247","92.3","1019.3530000000001","17.93","82.8","NAN","0.0"],
    [1552935,"2026-05-02 17:40:00","5645","2.009","71.55","4.051","59.28","1019.2439999999999","18.08","82","NAN","0.0"],
    [1552936,"2026-05-02 17:50:00","5646","2.137","84.1","4.051","72.1","1019.199","18.11","81.6","NAN","0.0"],
    [1552937,"2026-05-02 18:00:00","5647","2.2230000000000003","87.5","3.7239999999999998","82.0","1019.187","17.94","82.2","NAN","0.0"],
    [1552938,"2026-05-02 18:10:00","5648","1.706","85.7","2.907","85.4","1019.245","18.04","81.9","NAN","0.0"],
    [1552939,"2026-05-02 18:20:00","5649","1.2309999999999999","76.22","2.515","64.07","1019.2819999999999","18.08","82.5","NAN","0.0"],
    [1552940,"2026-05-02 18:30:00","5650","1.608","90.1","2.907","72.78","1019.294","17.99","82.2","NAN","0.0"],
    [1552941,"2026-05-02 18:40:00","5651","1.86","81.1","3.6910000000000003","71.97","1019.1260000000001","18","81.7","NAN","0.0"],
    [1552942,"2026-05-02 18:50:00","5652","1.493","81.8","2.45","95.6","1019.257","17.98","82.8","NAN","0.0"],
    [1552943,"2026-05-02 19:00:00","5653","2.1630000000000003","85.7","3.201","87.7","1019.28","17.8","83.6","NAN","0.0"],
    [1552944,"2026-05-02 19:10:00","5654","1.858","77.12","3.267","92.5","1019.177","17.76","84.4","NAN","0.0"],
    [1552945,"2026-05-02 19:20:00","5655","2.354","74.04","4.1160000000000005","65.21","1019.033","17.79","84.7","NAN","0.0"],
    [1552946,"2026-05-02 19:30:00","5656","1.943","49.0","3.5610000000000004","55.17","1019.0210000000001","17.72","85.1","NAN","0.0"],
    [1552947,"2026-05-02 19:40:00","5657","1.879","47.45","3.1689999999999996","25.65","1019.1039999999999","17.7","84.8","NAN","0.0"],
    [1552948,"2026-05-02 19:50:00","5658","1.7080000000000002","37.9","3.1689999999999996","33.76","1019.2360000000001","17.68","84.5","NAN","0.0"],
    [1552949,"2026-05-02 20:00:00","5659","1.625","65.38","2.907","34.62","1019.258","17.72","84","NAN","0.0"],
    [1552950,"2026-05-02 20:10:00","5660","1.965","73.13","3.365","76.02","1019.257","17.8","83.9","NAN","0.0"],
    [1552951,"2026-05-02 20:20:00","5661","2.1","78.92","3.855","96.6","1019.3580000000001","17.81","84.3","NAN","0.0"],
    [1552952,"2026-05-02 20:30:00","5662","1.483","54.26","2.907","51.31","1019.544","17.87","84.3","NAN","0.0"],
    [1552953,"2026-05-02 20:40:00","5663","1.76","87.4","3.234","77.35","1019.658","17.94","84.1","NAN","0.0"],
    [1552954,"2026-05-02 20:50:00","5664","1.262","64.36","3.299","31.99","1019.6310000000001","18","84.1","NAN","0.0"],
    [1552955,"2026-05-02 21:00:00","5665","2.215","87.9","3.822","91.7","1019.587","18","84.3","NAN","0.0"],
    [1552956,"2026-05-02 21:10:00","5666","1.895","81.4","3.6910000000000003","107.9","1019.6080000000001","17.87","85.2","NAN","0.0"],
    [1552957,"2026-05-02 21:20:00","5667","2.326","84.6","4.1160000000000005","93.9","1019.5310000000001","17.86","85.2","NAN","0.0"],
    [1552958,"2026-05-02 21:30:00","5668","2.5140000000000002","78.55","4.149","82.8","1019.5239999999999","17.85","85.1","NAN","0.0"],
    [1552959,"2026-05-02 21:40:00","5669","2.7039999999999997","72.77","4.083","65.09","1019.3789999999999","17.81","85.4","NAN","0.0"],
    [1552960,"2026-05-02 21:50:00","5670","2.59","74.14","4.573","79.01","1019.255","17.85","85.6","NAN","0.0"],
    [1552961,"2026-05-02 22:00:00","5671","2.044","75.1","4.083","68.76","1019.312","17.86","86.2","NAN","0.0"],
    [1552962,"2026-05-02 22:10:00","5672","1.761","76.19","3.593","81.6","1019.2660000000001","17.9","86.5","NAN","0.0"],
    [1552963,"2026-05-02 22:20:00","5673","2.115","68.14","4.083","63.72","1019.168","17.92","86.9","NAN","0.0"],
    [1552964,"2026-05-02 22:30:00","5674","1.902","67.31","3.92","70.7","1019.013","17.87","88.3","NAN","0.0"],
    [1552965,"2026-05-02 22:40:00","5675","1.975","91.6","3.593","96.8","1018.993","17.86","89.2","NAN","0.0"],
    [1552966,"2026-05-02 22:50:00","5676","1.922","84.5","3.201","79.88","1018.936","17.79","90.1","NAN","0.0"],
    [1552967,"2026-05-02 23:00:00","5677","1.494","112.3","2.679","115.8","1018.962","17.72","89.9","NAN","0.0"],
    [1552968,"2026-05-02 23:10:00","5678","1.055","127.0","2.45","109.1","1019.0060000000001","17.65","88.8","NAN","0.0"],
    [1552969,"2026-05-02 23:20:00","5679","0.915","121.9","1.764","113.0","1019.0010000000001","17.68","88.2","NAN","0.0"],
    [1552970,"2026-05-02 23:30:00","5680","1.074","130.0","2.025","144.1","1018.862","17.68","88.2","NAN","0.0"],
    [1552971,"2026-05-02 23:40:00","5681","1.141","129.5","1.993","115.0","1018.7669999999999","17.61","87.1","NAN","0.0"],
    [1552972,"2026-05-02 23:50:00","5682","0.899","113.9","1.666","120.5","1018.757","17.68","86.7","NAN","0.0"],
    [1552973,"2026-05-03 00:00:00","5683","1.075","122.9","1.666","112.4","1018.755","17.67","85.7","NAN","0.0"],
    [1552974,"2026-05-03 00:10:00","5684","1.444","126.6","2.254","144.4","1018.53","17.68","84.9","NAN","0.0"],
    [1552975,"2026-05-03 00:20:00","5685","1.0070000000000001","137.6","1.96","140.4","1018.385","17.65","83.5","NAN","0.0"],
    [1552976,"2026-05-03 00:30:00","5686","0.9620000000000001","128.7","1.764","149.2","1018.278","17.7","83.7","NAN","0.0"],
    [1552977,"2026-05-03 00:40:00","5687","1.137","116.6","1.96","111.0","1018.257","17.69","84.2","NAN","0.0"],
    [1552978,"2026-05-03 00:50:00","5688","0.75","125.9","1.5030000000000001","117.6","1018.1239999999999","17.64","84","NAN","0.0"],
    [1552979,"2026-05-03 01:00:00","5689","0.764","129.5","1.633","117.0","1018.1139999999999","17.65","83.7","NAN","0.0"],
    [1552980,"2026-05-03 01:10:00","5690","1.187","120.3","2.0580000000000003","118.9","1017.8939999999999","17.63","83.4","NAN","0.0"],
    [1552981,"2026-05-03 01:20:00","5691","1.339","124.9","2.025","113.8","1017.705","17.62","83.5","NAN","0.0"],
    [1552982,"2026-05-03 01:30:00","5692","1.4069999999999998","123.7","2.515","104.4","1017.5930000000001","17.57","83.6","NAN","0.0"],
    [1552983,"2026-05-03 01:40:00","5693","1.462","129.7","2.45","111.0","1017.4760000000001","17.58","83.8","NAN","0.0"],
    [1552984,"2026-05-03 01:50:00","5694","1.649","119.6","2.9730000000000003","109.8","1017.3839999999999","17.56","83.8","NAN","0.0"],
    [1552985,"2026-05-03 02:00:00","5695","1.6280000000000001","118.9","2.94","116.9","1017.3489999999999","17.57","84.7","NAN","0.0"],
    [1552986,"2026-05-03 02:10:00","5696","1.242","113.5","2.319","112.8","1017.2719999999999","17.54","84.7","NAN","0.0"],
    [1552987,"2026-05-03 02:20:00","5697","1.4780000000000002","121.3","2.613","150.4","1017.265","17.52","84.3","NAN","0.0"],
    [1552988,"2026-05-03 02:30:00","5698","1.3780000000000001","109.8","2.221","114.1","1017.2330000000001","17.54","83.7","NAN","0.0"],
    [1552989,"2026-05-03 02:40:00","5699","1.597","105.2","2.515","106.1","1017.257","17.55","84.1","NAN","0.0"],
    [1552990,"2026-05-03 02:50:00","5700","1.663","102.6","2.875","114.7","1017.2489999999999","17.5","84.6","NAN","0.0"],
    [1552991,"2026-05-03 03:00:00","5701","1.242","94.2","2.189","70.81","1017.138","17.51","84.8","NAN","0.0"],
    [1552992,"2026-05-03 03:10:00","5702","1.382","101.0","2.156","118.4","1017.058","17.51","85.2","NAN","0.0"],
    [1552993,"2026-05-03 03:20:00","5703","1.32","93.4","2.613","85.2","1017.0010000000001","17.5","85.3","NAN","0.0"],
    [1552994,"2026-05-03 03:30:00","5704","1.3719999999999999","99.1","2.319","89.5","1016.795","17.44","83.2","NAN","0.0"],
    [1552995,"2026-05-03 03:40:00","5705","1.9969999999999999","113.1","3.0380000000000003","102.1","1016.7589999999999","17.45","82.9","NAN","0.0"],
    [1552996,"2026-05-03 03:50:00","5706","1.6580000000000001","105.9","2.9730000000000003","104.9","1016.748","17.43","83.1","NAN","0.0"],
    [1552997,"2026-05-03 04:00:00","5707","1.567","105.9","3.1689999999999996","109.6","1016.623","17.43","82.2","NAN","0.0"],
    [1552998,"2026-05-03 04:10:00","5708","1.7009999999999998","94.6","2.842","110.7","1016.617","17.41","81","NAN","0.0"],
    [1552999,"2026-05-03 04:20:00","5709","1.266","98.1","2.7439999999999998","107.3","1016.5319999999999","17.42","79.3","NAN","0.0"],
    [1553000,"2026-05-03 04:30:00","5710","1.6030000000000002","99.1","2.7110000000000003","110.0","1016.52","17.45","79.34","NAN","0.0"],
    [1553001,"2026-05-03 04:40:00","5711","1.7209999999999999","100.2","2.875","113.6","1016.625","17.41","79.1","NAN","0.0"],
    [1553002,"2026-05-03 04:50:00","5712","1.379","83.2","2.417","93.2","1016.615","17.43","78.7","NAN","0.0"],
    [1553003,"2026-05-03 05:00:00","5713","1.85","86.4","3.593","66.9","1016.5369999999999","17.4","79.29","NAN","0.0"],
    [1553004,"2026-05-03 05:10:00","5714","1.406","94.2","2.7769999999999997","65.27","1016.515","17.35","79.4","NAN","0.0"],
    [1553005,"2026-05-03 05:20:00","5715","1.4869999999999999","96.2","2.907","95.9","1016.612","17.35","79.29","NAN","0.0"],
    [1553006,"2026-05-03 05:30:00","5716","1.379","108.3","2.417","110.4","1016.753","17.35","80.1","NAN","0.0"],
    [1553007,"2026-05-03 05:40:00","5717","1.729","104.0","3.201","114.5","1016.712","17.38","80.2","NAN","0.0"],
    [1553008,"2026-05-03 05:50:00","5718","1.989","102.2","3.495","115.4","1016.561","17.41","79.14","NAN","0.0"],
    [1553009,"2026-05-03 06:00:00","5719","1.725","93.2","3.201","94.6","1016.495","17.47","78.92","NAN","0.0"],
    [1553010,"2026-05-03 06:10:00","5720","1.814","93.2","3.43","94.6","1016.618","17.51","78.34","NAN","0.0"],
    [1553011,"2026-05-03 06:20:00","5721","2.096","84.1","3.593","94.0","1016.702","17.57","78.73","NAN","0.0"],
    [1553012,"2026-05-03 06:30:00","5722","2.373","84.2","3.92","84.9","1016.596","17.6","78.69","NAN","0.0"],
    [1553013,"2026-05-03 06:40:00","5723","2.1319999999999997","89.5","3.463","82.5","1016.52","17.64","78.07","NAN","0.0"],
    [1553014,"2026-05-03 06:50:00","5724","2.7910000000000004","84.5","5.031000000000001","85.5","1016.552","17.71","77.06","NAN","0.0"],
    [1553015,"2026-05-03 07:00:00","5725","2.5469999999999997","87.5","4.671","86.5","1016.716","17.71","76.35","NAN","0.0"],
    [1553016,"2026-05-03 07:10:00","5726","2.416","91.3","4.181","87.0","1016.7360000000001","17.84","76.2","NAN","0.0"],
    [1553017,"2026-05-03 07:20:00","5727","2.6210000000000004","71.68","4.737","67.27","1016.508","17.87","75.8","NAN","0.0"],
    [1553018,"2026-05-03 07:30:00","5728","2.0140000000000002","69.98","3.7889999999999997","70.92","1016.5310000000001","17.9","75.07","NAN","0.0"],
    [1553019,"2026-05-03 07:40:00","5729","2.1959999999999997","80.6","4.835","85.9","1016.6339999999999","18.14","73.8","NAN","0.0"],
    [1553020,"2026-05-03 07:50:00","5730","2.589","91.0","4.541","70.19","1016.669","18.03","73.96","NAN","0.0"],
    [1553021,"2026-05-03 08:00:00","5731","2.403","102.0","5.031000000000001","113.6","1016.67","18.14","75.12","NAN","0.0"],
    [1553022,"2026-05-03 08:10:00","5732","2.562","100.2","4.475","110.2","1016.6519999999999","18.01","75.62","NAN","0.0"],
    [1553023,"2026-05-03 08:20:00","5733","2.435","102.1","4.181","98.5","1016.635","18.12","74.48","NAN","0.0"],
    [1553024,"2026-05-03 08:30:00","5734","2.408","106.8","4.051","115.8","1016.633","18.17","74.35","NAN","0.0"],
    [1553025,"2026-05-03 08:40:00","5735","2.186","101.0","3.6910000000000003","113.4","1016.693","18.14","74.14","NAN","0.0"],
    [1553026,"2026-05-03 08:50:00","5736","1.75","108.5","3.43","105.8","1016.768","18.31","73.69","NAN","0.0"],
    [1553027,"2026-05-03 09:00:00","5737","2.108","119.3","3.7239999999999998","94.0","1016.893","18.2","74.21","NAN","0.0"],
    [1553028,"2026-05-03 09:10:00","5738","2.079","104.5","4.083","105.5","1016.8580000000001","18.24","74.71","NAN","0.0"],
    [1553029,"2026-05-03 09:20:00","5739","2.25","100.3","3.822","106.4","1016.904","18.28","73.79","NAN","0.0"],
    [1553030,"2026-05-03 09:30:00","5740","2.079","117.7","3.7569999999999997","113.9","1016.945","18.24","75.01","NAN","0.0"],
    [1553031,"2026-05-03 09:40:00","5741","2.056","124.1","3.5610000000000004","112.8","1016.995","18.25","76.32","NAN","0.0"],
    [1553032,"2026-05-03 09:50:00","5742","2.63","116.0","4.149","111.4","1016.9069999999999","18.3","76.57","NAN","0.0"],
    [1553033,"2026-05-03 10:00:00","5743","2.58","99.3","4.312","102.1","1016.715","18.37","76.22","NAN","0.0"],
    [1553034,"2026-05-03 10:10:00","5744","2.443","110.5","3.7239999999999998","114.0","1016.915","18.46","76.31","NAN","0.0"],
    [1553035,"2026-05-03 10:20:00","5745","2.5789999999999997","107.4","3.9530000000000003","101.8","1016.909","18.38","77.24","NAN","0.0"],
    [1553036,"2026-05-03 10:30:00","5746","2.338","105.9","4.083","114.7","1016.895","18.57","76.74","NAN","0.0"],
    [1553037,"2026-05-03 10:40:00","5747","2.6489999999999996","106.8","4.377","106.2","1016.805","18.49","76.94","NAN","0.0"],
    [1553038,"2026-05-03 10:50:00","5748","2.494","91.1","4.541","100.8","1016.715","18.65","76.08","NAN","0.0"],
    [1553039,"2026-05-03 11:00:00","5749","2.476","99.4","4.4430000000000005","97.8","1016.688","18.92","75.44","NAN","0.0"],
    [1553040,"2026-05-03 11:10:00","5750","2.55","101.0","4.279","110.4","1016.6389999999999","18.87","75","NAN","0.0"],
    [1553041,"2026-05-03 11:20:00","5751","2.605","100.9","4.508","105.2","1016.668","18.81","75.69","NAN","0.0"],
    [1553042,"2026-05-03 11:30:00","5752","2.365","91.2","4.4430000000000005","82.6","1016.566","18.94","74.82","NAN","0.0"],
    [1553043,"2026-05-03 11:40:00","5753","2.406","91.5","3.887","100.1","1016.3610000000001","18.9","74.69","NAN","0.0"],
    [1553044,"2026-05-03 11:50:00","5754","2.9810000000000003","86.5","5.1610000000000005","112.2","1016.09","18.97","74.62","NAN","0.0"],
    [1553045,"2026-05-03 12:00:00","5755","3.395","92.3","5.031000000000001","101.8","1015.941","18.84","75.75","NAN","0.0"],
    [1553046,"2026-05-03 12:10:00","5756","3.174","94.6","5.455","113.9","1015.951","18.63","77.59","NAN","0.0"],
    [1553047,"2026-05-03 12:20:00","5757","3.3560000000000003","112.1","5.292000000000001","112.8","1015.898","18.42","78.85","NAN","0.0"],
    [1553048,"2026-05-03 12:30:00","5758","3.008","100.7","5.945","107.7","1015.8789999999999","18.49","79.17","NAN","0.0"],
    [1553049,"2026-05-03 12:40:00","5759","2.503","110.9","4.704","106.8","1016.034","18.32","79.86","NAN","0.0"],
    [1553050,"2026-05-03 12:50:00","5760","1.7819999999999998","94.2","3.528","115.5","1016.041","18.53","78.78","NAN","0.0"],
    [1553051,"2026-05-03 13:00:00","5761","2.795","109.7","4.475","108.5","1015.877","18.55","77.92","NAN","0.0"],
    [1553052,"2026-05-03 13:10:00","5762","2.465","100.0","3.887","94.1","1015.742","18.57","77.83","NAN","0.0"],
    [1553053,"2026-05-03 13:20:00","5763","2.403","102.0","4.377","107.2","1015.6519999999999","18.71","76.81","NAN","0.0"],
    [1553054,"2026-05-03 13:30:00","5764","2.2119999999999997","96.5","3.7569999999999997","113.5","1015.512","18.51","77.9","NAN","0.0"],
    [1553055,"2026-05-03 13:40:00","5765","2.511","96.4","4.4430000000000005","83.7","1015.263","18.61","76.08","NAN","0.0"],
    [1553056,"2026-05-03 13:50:00","5766","2.519","94.6","4.769","66.6","1015.1569999999999","18.68","74.4","NAN","0.0"],
    [1553057,"2026-05-03 14:00:00","5767","2.6660000000000004","88.5","4.2139999999999995","91.4","1014.888","18.62","73.81","NAN","0.0"],
    [1553058,"2026-05-03 14:10:00","5768","2.8739999999999997","88.2","4.704","80.0","1014.628","18.59","74.2","NAN","0.0"],
    [1553059,"2026-05-03 14:20:00","5769","3.0460000000000003","101.5","4.802","111.0","1014.319","18.24","80.5","NAN","0.0"],
    [1553060,"2026-05-03 14:30:00","5770","2.9810000000000003","104.5","5.096","111.5","1014.2330000000001","17.69","83.4","NAN","0.0"],
    [1553061,"2026-05-03 14:40:00","5771","2.5","106.8","3.822","107.5","1014.2189999999999","17.74","78.21","NAN","0.0"],
    [1553062,"2026-05-03 14:50:00","5772","2.7230000000000003","99.7","4.573","107.1","1014.135","17.82","70.91","NAN","0.0"],
    [1553063,"2026-05-03 15:00:00","5773","2.9939999999999998","104.9","5.521","95.1","1014.16","17.76","68.88","NAN","0.0"],
    [1553064,"2026-05-03 15:10:00","5774","2.799","124.3","4.965","140.8","1014.273","17.6","69.04","NAN","0.0"],
    [1553065,"2026-05-03 15:20:00","5775","2.6710000000000003","122.4","5.292000000000001","118.6","1014.327","17.52","71.86","NAN","0.0"],
    [1553066,"2026-05-03 15:30:00","5776","2.121","111.6","3.887","96.7","1014.2860000000001","17.81","71.49","NAN","0.0"],
    [1553067,"2026-05-03 15:40:00","5777","2.675","105.7","4.704","106.9","1014.253","17.74","71.15","NAN","0.0"],
    [1553068,"2026-05-03 15:50:00","5778","1.739","106.8","3.1689999999999996","81.7","1014.278","17.8","68.64","NAN","0.0"],
    [1553069,"2026-05-03 16:00:00","5779","1.818","105.4","3.267","114.0","1014.345","17.88","70.29","NAN","0.0"],
    [1553070,"2026-05-03 16:10:00","5780","2.302","105.7","3.887","98.5","1014.2760000000001","17.72","72.15","NAN","0.0"],
    [1553071,"2026-05-03 16:20:00","5781","2.694","94.9","4.835","62.01","1014.1189999999999","17.64","73.66","NAN","0.0"],
    [1553072,"2026-05-03 16:30:00","5782","2.517","88.0","4.965","66.15","1014.023","17.65","74.54","NAN","0.0"],
    [1553073,"2026-05-03 16:40:00","5783","2.8160000000000003","84.8","5.1610000000000005","86.1","1014.0319999999999","17.62","76.14","NAN","0.0"],
    [1553074,"2026-05-03 16:50:00","5784","2.8339999999999996","89.2","4.802","98.1","1013.918","17.52","78.64","NAN","0.0"],
    [1553075,"2026-05-03 17:00:00","5785","2.568","84.8","5.227","88.7","1013.831","17.5","81.7","NAN","0.0"],
    [1553076,"2026-05-03 17:10:00","5786","3.2030000000000003","90.4","5.194","89.8","1013.674","17.33","84.2","NAN","0.0"],
    [1553077,"2026-05-03 17:20:00","5787","2.385","73.02","5.749","96.1","1013.6419999999999","17.27","85.1","NAN","0.0"],
    [1553078,"2026-05-03 17:30:00","5788","2.603","71.25","4.802","68.68","1013.7139999999999","17.28","84.6","NAN","0.0"],
    [1553079,"2026-05-03 17:40:00","5789","1.847","61.41","3.299","106.7","1013.872","17.28","84.9","NAN","0.0"],
    [1553080,"2026-05-03 17:50:00","5790","1.7630000000000001","33.85","3.201","41.65","1014.074","17.26","85.1","NAN","0.0"],
    [1553081,"2026-05-03 18:00:00","5791","1.733","40.11","3.5610000000000004","64.35","1014.158","17.28","84.5","NAN","0.0"],
    [1553082,"2026-05-03 18:10:00","5792","1.444","57.49","2.94","35.37","1014.079","17.33","83.9","NAN","0.0"],
    [1553083,"2026-05-03 18:20:00","5793","2.095","89.0","3.299","72.14","1014.238","17.35","83.8","NAN","0.0"],
    [1553084,"2026-05-03 18:30:00","5794","1.979","88.6","3.299","88.2","1014.273","17.32","84.6","NAN","0.0"],
    [1553085,"2026-05-03 18:40:00","5795","1.278","70.28","3.43","83.1","1014.273","17.45","84.1","NAN","0.0"],
    [1553086,"2026-05-03 18:50:00","5796","2.0380000000000003","74.57","3.985","93.0","1014.08","17.48","84.3","NAN","0.0"],
    [1553087,"2026-05-03 19:00:00","5797","1.9880000000000002","85.2","3.6910000000000003","91.9","1013.943","17.28","88.1","NAN","0.2"],
    [1553088,"2026-05-03 19:10:00","5798","2.033","79.77","3.43","111.2","1014.04","16.97","91.3","NAN","0.2"],
    [1553089,"2026-05-03 19:20:00","5799","1.619","85.0","2.7110000000000003","66.65","1014.19","16.88","92.7","NAN","0.0"],
    [1553090,"2026-05-03 19:30:00","5800","1.186","78.7","2.287","89.6","1014.302","16.94","93.2","NAN","0.0"],
    [1553091,"2026-05-03 19:40:00","5801","1.466","40.47","3.071","34.23","1014.31","16.89","92.6","NAN","0.0"],
    [1553092,"2026-05-03 19:50:00","5802","1.643","75.54","3.234","89.2","1014.426","16.91","93","NAN","0.1"],
    [1553093,"2026-05-03 20:00:00","5803","1.396","75.42","3.43","115.5","1014.529","16.79","94","NAN","0.5"],
    [1553094,"2026-05-03 20:10:00","5804","0.331","37.68","2.0909999999999997","49.67","1014.6260000000001","16.57","95.9","NAN","0.1"],
    [1553095,"2026-05-03 20:20:00","5805","0.639","41.14","1.47","42.99","1014.682","16.57","96.5","NAN","0.0"],
    [1553096,"2026-05-03 20:30:00","5806","0.838","31.79","2.254","31.42","1014.596","16.64","96.3","NAN","0.0"],
    [1553097,"2026-05-03 20:40:00","5807","0.733","23.07","1.829","9.66","1014.5889999999999","16.73","95.4","NAN","0.0"],
    [1553098,"2026-05-03 20:50:00","5808","0.893","25.23","2.025","14.43","1014.454","16.81","94.8","NAN","0.0"],
    [1553099,"2026-05-03 21:00:00","5809","0.843","14.48","2.0909999999999997","17.99","1014.553","16.86","94.5","NAN","0.0"],
    [1553100,"2026-05-03 21:10:00","5810","0.971","30.63","1.993","38.36","1014.441","16.86","94.1","NAN","0.0"],
    [1553101,"2026-05-03 21:20:00","5811","1.757","41.4","3.0380000000000003","30.1","1014.227","16.76","93.4","NAN","0.0"],
    [1553102,"2026-05-03 21:30:00","5812","1.258","27.22","2.94","44.73","1014.263","16.6","92.8","NAN","0.0"],
    [1553103,"2026-05-03 21:40:00","5813","1.052","22.41","2.94","14.15","1014.31","16.57","92.1","NAN","0.0"],
    [1553104,"2026-05-03 21:50:00","5814","0.8809999999999999","43.59","2.254","34.39","1014.301","16.61","91.4","NAN","0.0"],
    [1553105,"2026-05-03 22:00:00","5815","0.87","26.61","2.156","350.3","1014.2739999999999","16.54","90.9","NAN","0.0"],
    [1553106,"2026-05-03 22:10:00","5816","0.873","5.744","2.156","5.2139999999999995","1014.319","16.53","90.3","NAN","0.0"],
    [1553107,"2026-05-03 22:20:00","5817","0.9059999999999999","34.36","2.352","4.742","1014.325","16.59","89.2","NAN","0.0"],
    [1553108,"2026-05-03 22:30:00","5818","0.5710000000000001","40.74","1.405","67.04","1014.304","16.61","89.1","NAN","0.0"],
    [1553109,"2026-05-03 22:40:00","5819","0.6509999999999999","34.61","1.4369999999999998","13.86","1014.305","16.57","89.3","NAN","0.0"],
    [1553110,"2026-05-03 22:50:00","5820","1.341","9.8","2.385","34.64","1014.2919999999999","16.55","88.7","NAN","0.0"],
    [1553111,"2026-05-03 23:00:00","5821","0.987","31.53","2.352","40.74","1014.1560000000001","16.55","88.4","NAN","0.0"],
    [1553112,"2026-05-03 23:10:00","5822","1.222","6.24","2.875","358.3","1014.1289999999999","16.51","88.5","NAN","0.0"],
    [1553113,"2026-05-03 23:20:00","5823","0.99","16.94","2.417","17.74","1014.1030000000001","16.51","88.7","NAN","0.0"],
    [1553114,"2026-05-03 23:30:00","5824","0.8290000000000001","17.86","1.96","351.5","1014.08","16.47","88.8","NAN","0.0"],
    [1553115,"2026-05-03 23:40:00","5825","0.805","20.06","1.829","0.935","1014.003","16.53","88.9","NAN","0.0"],
    [1553116,"2026-05-03 23:50:00","5826","0.612","24.89","1.96","15.6","1013.806","16.56","88.9","NAN","0.0"],
    [1553117,"2026-05-04 00:00:00","5827","1.34","12.05","2.6460000000000004","22.46","1013.799","16.48","88.9","NAN","0.0"],
    [1553118,"2026-05-04 00:10:00","5828","1.3159999999999998","7.977","2.94","1.003","1013.804","16.53","88.9","NAN","0.0"],
    [1553119,"2026-05-04 00:20:00","5829","0.9640000000000001","25.79","2.025","16.42","1013.8839999999999","16.64","88.7","NAN","0.0"],
    [1553120,"2026-05-04 00:30:00","5830","0.813","36.17","1.535","50.79","1013.768","16.68","88.7","NAN","0.0"],
    [1553121,"2026-05-04 00:40:00","5831","1.3330000000000002","16.55","2.8089999999999997","14.87","1013.693","16.7","88.7","NAN","0.0"],
    [1553122,"2026-05-04 00:50:00","5832","1.311","5.461","2.7110000000000003","10.16","1013.591","16.66","88","NAN","0.0"],
    [1553123,"2026-05-04 01:00:00","5833","0.76","18.94","2.221","358.7","1013.466","16.66","87.8","NAN","0.0"],
    [1553124,"2026-05-04 01:10:00","5834","0.856","40.9","2.025","24.27","1013.44","16.67","87.7","NAN","0.0"],
    [1553125,"2026-05-04 01:20:00","5835","0.9540000000000001","4.542","2.025","16.08","1013.41","16.67","87.5","NAN","0.0"],
    [1553126,"2026-05-04 01:30:00","5836","0.8190000000000001","12.43","2.156","19.02","1013.291","16.75","86.9","NAN","0.0"],
    [1553127,"2026-05-04 01:40:00","5837","0.977","34.87","2.123","29.13","1013.248","16.81","86","NAN","0.0"],
    [1553128,"2026-05-04 01:50:00","5838","0.848","48.18","1.633","32.84","1013.202","16.78","85.5","NAN","0.0"],
    [1553129,"2026-05-04 02:00:00","5839","0.728","40.67","1.535","42.17","1013.211","16.78","85.5","NAN","0.0"],
    [1553130,"2026-05-04 02:10:00","5840","0.98","47.07","1.8619999999999999","55.31","1013.1519999999999","16.78","85.4","NAN","0.0"],
    [1553131,"2026-05-04 02:20:00","5841","0.603","46.66","1.143","55.98","1013.069","16.79","85.4","NAN","0.0"],
    [1553132,"2026-05-04 02:30:00","5842","0.575","28.5","1.764","42.02","1012.972","16.83","85","NAN","0.0"],
    [1553133,"2026-05-04 02:40:00","5843","0.431","53.8","1.078","47.39","1013.0010000000001","16.86","84.9","NAN","0.0"],
    [1553134,"2026-05-04 02:50:00","5844","0.249","74.87","0.882","64.66","1013.062","16.86","85.2","NAN","0.0"],
    [1553135,"2026-05-04 03:00:00","5845","0.446","68.26","0.9470000000000001","61.15","1013.2589999999999","16.86","85.3","NAN","0.0"],
    [1553136,"2026-05-04 03:10:00","5846","0.314","74.37","1.013","67.75","1013.2760000000001","16.89","85.2","NAN","0.0"],
    [1553137,"2026-05-04 03:20:00","5847","0.568","45.48","1.143","41.43","1013.2760000000001","16.93","84.1","NAN","0.0"],
    [1553138,"2026-05-04 03:30:00","5848","0.775","57.41","1.2409999999999999","64.14","1013.118","17.06","82.8","NAN","0.0"],
    [1553139,"2026-05-04 03:40:00","5849","0.9390000000000001","79.44","1.405","88.8","1012.935","17.15","81.9","NAN","0.0"],
    [1553140,"2026-05-04 03:50:00","5850","0.475","87.8","1.045","84.6","1012.923","17.18","82.9","NAN","0.0"],
    [1553141,"2026-05-04 04:00:00","5851","0.254","92.9","0.8490000000000001","110.1","1013.0089999999999","17.1","83.2","NAN","0.0"],
    [1553142,"2026-05-04 04:10:00","5852","0.258","74.05","0.98","53.17","1012.8380000000001","17.06","83.9","NAN","0.0"],
    [1553143,"2026-05-04 04:20:00","5853","0.2","51.6","0.8170000000000001","53.48","1012.778","17.04","84.3","NAN","0.0"],
    [1553144,"2026-05-04 04:30:00","5854","0.21600000000000003","91.4","0.7190000000000001","82.4","1012.773","17.05","84.9","NAN","0.0"],
    [1553145,"2026-05-04 04:40:00","5855","0.0","0.0","0.0","0.0","1012.743","17.01","84.9","NAN","0.0"],
    [1553146,"2026-05-04 04:50:00","5856","0.35700000000000004","130.3","0.653","146.5","1012.71","17.02","85.1","NAN","0.0"],
    [1553147,"2026-05-04 05:00:00","5857","0.201","129.3","0.555","139.5","1012.706","17.06","85.3","NAN","0.0"],
    [1553148,"2026-05-04 05:10:00","5858","0.157","166.6","0.425","169.9","1012.778","17.11","85.4","NAN","0.0"],
    [1553149,"2026-05-04 05:20:00","5859","0.32899999999999996","139.3","0.6859999999999999","141.4","1012.778","17.14","85.4","NAN","0.0"],
    [1553150,"2026-05-04 05:30:00","5860","0.395","162.3","0.8490000000000001","158.7","1012.778","17.16","85.5","NAN","0.0"],
    [1553151,"2026-05-04 05:40:00","5861","0.634","146.7","1.2409999999999999","157.7","1012.7769999999999","17.22","84.9","NAN","0.0"],
    [1553152,"2026-05-04 05:50:00","5862","0.6609999999999999","154.9","1.209","162.0","1012.77","17.29","84.8","NAN","0.0"],
    [1553153,"2026-05-04 06:00:00","5863","0.728","124.5","1.405","122.6","1012.738","17.42","85.3","NAN","0.0"],
    [1553154,"2026-05-04 06:10:00","5864","0.812","122.7","1.2409999999999999","111.7","1012.773","17.49","85.2","NAN","0.0"],
    [1553155,"2026-05-04 06:20:00","5865","0.597","150.3","1.209","152.8","1012.763","17.56","84.8","NAN","0.0"],
    [1553156,"2026-05-04 06:30:00","5866","0.28800000000000003","173.8","0.8490000000000001","142.8","1012.73","17.57","85.5","NAN","0.0"],
    [1553157,"2026-05-04 06:40:00","5867","0.314","162.3","0.8170000000000001","143.5","1012.684","17.91","83.3","NAN","0.0"],
    [1553158,"2026-05-04 06:50:00","5868","0.741","327.4","1.8619999999999999","321.1","1012.627","18.15","81.2","NAN","0.0"],
    [1553159,"2026-05-04 07:00:00","5869","0.715","304.1","1.764","283.6","1012.544","18.72","77.5","NAN","0.0"],
    [1553160,"2026-05-04 07:10:00","5870","0.726","259.5","1.633","294.9","1012.691","18.91","75.56","NAN","0.0"],
    [1553161,"2026-05-04 07:20:00","5871","0.424","120.7","1.568","141.8","1012.695","19.36","72.93","NAN","0.0"],
    [1553162,"2026-05-04 07:30:00","5872","1.4169999999999998","146.2","2.613","110.4","1012.671","18.97","77.62","NAN","0.0"],
    [1553163,"2026-05-04 07:40:00","5873","1.591","126.5","2.319","107.7","1012.5189999999999","18.56","80.8","NAN","0.0"],
    [1553164,"2026-05-04 07:50:00","5874","1.661","126.2","2.287","119.1","1012.382","18.93","78.82","NAN","0.0"],
    [1553165,"2026-05-04 08:00:00","5875","1.534","139.5","2.156","169.3","1012.3939999999999","19.13","77","NAN","0.0"],
    [1553166,"2026-05-04 08:10:00","5876","1.6340000000000001","163.7","2.875","158.5","1012.327","18.99","75.36","NAN","0.0"],
    [1553167,"2026-05-04 08:20:00","5877","1.419","173.2","2.352","152.4","1012.23","19.27","73.54","NAN","0.0"],
    [1553168,"2026-05-04 08:30:00","5878","1.53","182.2","2.515","188.6","1012.2","19.21","74.2","NAN","0.0"],
    [1553169,"2026-05-04 08:40:00","5879","2.181","185.2","3.528","178.9","1012.25","18.62","79.43","NAN","0.0"],
    [1553170,"2026-05-04 08:50:00","5880","2.041","178.0","2.9730000000000003","161.5","1012.21","18.37","80.8","NAN","0.0"],
    [1553171,"2026-05-04 09:00:00","5881","2.19","163.9","3.397","159.3","1012.135","18.39","81.7","NAN","0.0"],
    [1553172,"2026-05-04 09:10:00","5882","2.45","186.0","3.7569999999999997","188.0","1012.085","18.38","83.1","NAN","0.0"],
    [1553173,"2026-05-04 09:20:00","5883","2.826","177.7","4.541","180.6","1012.0110000000001","18.36","82.6","NAN","0.0"],
    [1553174,"2026-05-04 09:30:00","5884","3.057","175.5","4.802","177.0","1012.19","18.53","83.6","NAN","0.0"],
    [1553175,"2026-05-04 09:40:00","5885","2.9160000000000004","173.5","4.835","164.9","1012.153","18.86","82.4","NAN","0.0"],
    [1553176,"2026-05-04 09:50:00","5886","3.6260000000000003","173.2","5.521","177.5","1012.21","18.92","80.9","NAN","0.0"],
    [1553177,"2026-05-04 10:00:00","5887","3.458","177.7","5.782","168.9","1012.21","18.68","82.9","NAN","0.0"],
    [1553178,"2026-05-04 10:10:00","5888","2.8480000000000003","186.8","5.684","178.1","1012.217","18.52","84.6","NAN","0.0"],
    [1553179,"2026-05-04 10:20:00","5889","2.405","198.5","4.638999999999999","175.3","1012.207","18.83","82.3","NAN","0.0"],
    [1553180,"2026-05-04 10:30:00","5890","1.686","194.0","3.7239999999999998","163.7","1012.177","18.94","80.7","NAN","0.0"],
    [1553181,"2026-05-04 10:40:00","5891","1.446","193.1","2.9730000000000003","195.2","1012.138","19.14","78.32","NAN","0.0"],
    [1553182,"2026-05-04 10:50:00","5892","2.648","171.7","4.573","177.5","1012.05","18.89","78.78","NAN","0.0"],
    [1553183,"2026-05-04 11:00:00","5893","3.639","178.5","5.422999999999999","174.7","1012.043","18.04","88.5","NAN","0.4"],
    [1553184,"2026-05-04 11:10:00","5894","2.655","187.2","5.39","182.9","1011.904","17.44","94.3","NAN","0.1"],
    [1553185,"2026-05-04 11:20:00","5895","3.333","184.3","5.815","176.3","1011.992","17.38","94.8","NAN","0.2"],
    [1553186,"2026-05-04 11:30:00","5896","2.571","186.0","4.541","180.1","1011.8839999999999","17.33","94.1","NAN","0.0"],
    [1553187,"2026-05-04 11:40:00","5897","2.426","189.9","4.149","177.7","1011.9910000000001","17.59","92.4","NAN","0.0"],
    [1553188,"2026-05-04 11:50:00","5898","2.101","188.0","3.7569999999999997","164.3","1012.03","18.02","89.7","NAN","0.0"],
    [1553189,"2026-05-04 12:00:00","5899","2.62","184.4","4.835","173.8","1012.003","17.96","89.1","NAN","0.0"],
    [1553190,"2026-05-04 12:10:00","5900","1.96","205.8","3.7239999999999998","215.1","1011.8739999999999","18.27","90.3","NAN","0.0"],
    [1553191,"2026-05-04 12:20:00","5901","2.178","179.0","3.5610000000000004","178.0","1011.7810000000001","18.24","88.4","NAN","0.0"],
    [1553192,"2026-05-04 12:30:00","5902","2.036","184.1","3.397","180.8","1011.758","18.44","86.7","NAN","0.0"],
    [1553193,"2026-05-04 12:40:00","5903","1.5759999999999998","192.5","3.1689999999999996","162.0","1011.671","18.49","87.7","NAN","0.0"],
    [1553194,"2026-05-04 12:50:00","5904","1.78","195.5","4.345","213.9","1011.5110000000001","18.57","86","NAN","0.0"],
    [1553195,"2026-05-04 13:00:00","5905","1.662","191.2","3.005","189.6","1011.503","18.66","84.2","NAN","0.0"],
    [1553196,"2026-05-04 13:10:00","5906","1.449","210.1","3.397","215.4","1011.558","19.01","81.3","NAN","0.0"],
    [1553197,"2026-05-04 13:20:00","5907","2.245","198.8","4.1160000000000005","185.2","1011.597","19.36","78.11","NAN","0.0"],
    [1553198,"2026-05-04 13:30:00","5908","2.259","196.0","3.6910000000000003","205.3","1011.6030000000001","19.15","78.84","NAN","0.0"],
    [1553199,"2026-05-04 13:40:00","5909","2.0540000000000003","188.1","3.5610000000000004","177.2","1011.575","19.01","79.59","NAN","0.1"],
    [1553200,"2026-05-04 13:50:00","5910","1.4669999999999999","202.9","3.7239999999999998","181.1","1011.6030000000001","18.76","82","NAN","0.1"],
    [1553201,"2026-05-04 14:00:00","5911","1.179","217.2","2.94","261.9","1011.578","18.64","83.1","NAN","0.0"],
    [1553202,"2026-05-04 14:10:00","5912","1.251","238.7","2.679","193.3","1011.3789999999999","18.52","81.3","NAN","0.0"],
    [1553203,"2026-05-04 14:20:00","5913","1.4080000000000001","203.4","3.7889999999999997","207.6","1011.2710000000001","18.39","81.3","NAN","0.0"],
    [1553204,"2026-05-04 14:30:00","5914","1.278","207.8","2.7769999999999997","224.8","1011.309","18.36","81.2","NAN","0.0"],
    [1553205,"2026-05-04 14:40:00","5915","1.672","208.0","2.94","187.9","1011.2819999999999","18.29","83","NAN","0.3"],
    [1553206,"2026-05-04 14:50:00","5916","1.577","216.5","3.6910000000000003","210.3","1011.2189999999999","17.9","85.5","NAN","0.0"],
    [1553207,"2026-05-04 15:00:00","5917","1.215","215.3","2.613","227.2","1011.08","17.91","84.8","NAN","0.0"],
    [1553208,"2026-05-04 15:10:00","5918","1.669","211.3","2.7769999999999997","227.9","1010.971","17.78","86","NAN","0.1"],
    [1553209,"2026-05-04 15:20:00","5919","1.881","235.0","3.463","226.5","1010.931","17.7","87.8","NAN","0.1"],
    [1553210,"2026-05-04 15:30:00","5920","1.531","244.1","3.267","256.6","1010.903","17.45","87","NAN","0.8"],
    [1553211,"2026-05-04 15:40:00","5921","1.166","243.6","2.842","232.8","1010.793","17.13","85.8","NAN","0.4"],
    [1553212,"2026-05-04 15:50:00","5922","0.513","182.1","1.045","175.1","1010.898","17.21","88","NAN","0.3"],
    [1553213,"2026-05-04 16:00:00","5923","0.731","218.0","1.993","245.9","1011.038","17.22","90.9","NAN","0.1"],
    [1553214,"2026-05-04 16:10:00","5924","0.708","234.5","1.9269999999999998","265.5","1011.1419999999999","17.32","91.9","NAN","0.2"],
    [1553215,"2026-05-04 16:20:00","5925","0.57","186.8","1.143","192.5","1010.946","16.97","92.2","NAN","0.2"],
    [1553216,"2026-05-04 16:30:00","5926","0.212","178.1","0.7509999999999999","179.2","1010.835","16.9","92.5","NAN","0.2"],
    [1553217,"2026-05-04 16:40:00","5927","0.14400000000000002","118.8","0.6859999999999999","89.5","1010.7080000000001","17.15","92.4","NAN","0.1"],
    [1553218,"2026-05-04 16:50:00","5928","0.188","149.1","0.882","173.2","1010.578","17.15","92.1","NAN","0.0"],
    [1553219,"2026-05-04 17:00:00","5929","0.359","173.8","1.078","197.8","1010.495","17.28","91.9","NAN","0.0"],
    [1553220,"2026-05-04 17:10:00","5930","0.335","199.8","0.8170000000000001","198.0","1010.432","17.21","92.6","NAN","0.0"],
    [1553221,"2026-05-04 17:20:00","5931","0.8690000000000001","180.5","1.307","183.8","1010.435","17.2","92.3","NAN","0.0"],
    [1553222,"2026-05-04 17:30:00","5932","0.711","174.2","1.307","161.8","1010.495","17.19","92.5","NAN","0.0"],
    [1553223,"2026-05-04 17:40:00","5933","0.38","181.5","0.882","176.8","1010.427","17.27","92.4","NAN","0.0"],
    [1553224,"2026-05-04 17:50:00","5934","0.696","183.2","1.209","184.6","1010.409","17.34","91.9","NAN","0.0"],
    [1553225,"2026-05-04 18:00:00","5935","0.652","197.2","1.535","196.0","1010.4010000000001","17.38","91.9","NAN","0.0"],
    [1553226,"2026-05-04 18:10:00","5936","0.813","188.2","1.699","222.0","1010.2869999999999","17.33","90.2","NAN","0.0"],
    [1553227,"2026-05-04 18:20:00","5937","0.927","220.1","2.254","261.7","1010.422","17.43","90.4","NAN","0.0"],
    [1553228,"2026-05-04 18:30:00","5938","1.3030000000000002","221.9","2.7769999999999997","242.0","1010.7130000000001","17.42","89.5","NAN","0.0"],
    [1553229,"2026-05-04 18:40:00","5939","1.1520000000000001","227.6","2.548","222.6","1010.78","17.37","89.1","NAN","0.0"],
    [1553230,"2026-05-04 18:50:00","5940","1.1159999999999999","216.1","2.319","226.8","1010.81","17.25","89.8","NAN","0.0"],
    [1553231,"2026-05-04 19:00:00","5941","0.715","209.7","2.0580000000000003","201.4","1010.867","17.11","91","NAN","0.0"],
    [1553232,"2026-05-04 19:10:00","5942","1.018","216.6","2.0580000000000003","226.7","1010.9639999999999","16.97","91.8","NAN","0.0"],
    [1553233,"2026-05-04 19:20:00","5943","1.375","235.4","3.397","246.9","1011.079","16.97","91.3","NAN","0.0"],
    [1553234,"2026-05-04 19:30:00","5944","1.402","234.0","3.43","251.3","1011.1669999999999","17.04","87.6","NAN","0.0"],
    [1553235,"2026-05-04 19:40:00","5945","1.6440000000000001","227.8","3.397","254.0","1011.225","16.94","87.6","NAN","0.0"],
    [1553236,"2026-05-04 19:50:00","5946","1.601","245.7","3.234","242.2","1011.4810000000001","16.96","87.9","NAN","0.0"],
    [1553237,"2026-05-04 20:00:00","5947","1.662","244.4","3.495","237.3","1011.74","16.98","88.8","NAN","0.0"],
    [1553238,"2026-05-04 20:10:00","5948","1.1740000000000002","265.8","2.7439999999999998","244.8","1011.99","17.11","88.4","NAN","0.0"],
    [1553239,"2026-05-04 20:20:00","5949","1.715","314.7","5.2589999999999995","311.1","1011.913","17.45","81.1","NAN","0.0"],
    [1553240,"2026-05-04 20:30:00","5950","2.204","322.9","5.2589999999999995","311.1","1011.7460000000001","17.18","74.06","NAN","0.0"],
    [1553241,"2026-05-04 20:40:00","5951","1.493","285.4","3.6260000000000003","318.6","1011.7289999999999","16.76","74.54","NAN","0.0"],
    [1553242,"2026-05-04 20:50:00","5952","0.7090000000000001","15.88","2.319","20.38","1011.701","16.85","74.7","NAN","0.0"],
    [1553243,"2026-05-04 21:00:00","5953","1.014","326.2","2.45","344.4","1011.7239999999999","16.99","72.25","NAN","0.0"],
    [1553244,"2026-05-04 21:10:00","5954","0.9420000000000001","2.397","2.156","5.622999999999999","1011.72","16.91","71.96","NAN","0.0"],
    [1553245,"2026-05-04 21:20:00","5955","0.063","359.6","0.653","307.5","1011.691","16.73","72.79","NAN","0.0"],
    [1553246,"2026-05-04 21:30:00","5956","0.43","24.0","2.287","4.645","1011.576","16.74","71.09","NAN","0.0"],
    [1553247,"2026-05-04 21:40:00","5957","0.441","258.7","0.9470000000000001","278.1","1011.5419999999999","16.76","71.48","NAN","0.0"],
    [1553248,"2026-05-04 21:50:00","5958","0.6629999999999999","193.7","1.7309999999999999","190.9","1011.448","16.62","75.92","NAN","0.0"],
    [1553249,"2026-05-04 22:00:00","5959","0.8420000000000001","200.2","2.025","205.9","1011.313","16.28","78.91","NAN","0.0"],
    [1553250,"2026-05-04 22:10:00","5960","0.6459999999999999","225.1","1.666","236.9","1011.37","15.96","80.2","NAN","0.0"],
    [1553251,"2026-05-04 22:20:00","5961","1.364","252.7","2.7110000000000003","238.6","1011.43","16","79.42","NAN","0.0"],
    [1553252,"2026-05-04 22:30:00","5962","0.8540000000000001","254.3","1.7309999999999999","255.1","1011.382","15.83","81.2","NAN","0.0"],
    [1553253,"2026-05-04 22:40:00","5963","1.252","248.7","2.45","236.1","1011.42","15.78","81.8","NAN","0.0"],
    [1553254,"2026-05-04 22:50:00","5964","1.109","234.0","2.189","223.9","1011.554","15.66","82.1","NAN","0.0"],
    [1553255,"2026-05-04 23:00:00","5965","1.105","240.1","2.352","230.0","1011.57","15.62","82","NAN","0.0"],
    [1553256,"2026-05-04 23:10:00","5966","1.281","258.8","2.842","295.7","1011.6010000000001","15.83","78.8","NAN","0.0"],
    [1553257,"2026-05-04 23:20:00","5967","1.119","271.5","2.6460000000000004","268.8","1011.695","16.11","75.85","NAN","0.0"],
    [1553258,"2026-05-04 23:30:00","5968","0.9009999999999999","258.0","2.7110000000000003","242.8","1011.722","15.98","76.65","NAN","0.0"],
    [1553259,"2026-05-04 23:40:00","5969","0.8809999999999999","277.3","2.352","284.1","1011.7289999999999","16.03","74.92","NAN","0.0"],
    [1553260,"2026-05-04 23:50:00","5970","0.754","239.1","2.45","261.4","1011.7260000000001","16.08","74.34","NAN","0.0"],
    [1553261,"2026-05-05 00:00:00","5971","0.9890000000000001","230.8","1.96","253.5","1011.7239999999999","16.06","73.84","NAN","0.0"],
    [1553262,"2026-05-05 00:10:00","5972","0.36700000000000005","239.5","1.633","244.9","1011.721","16.02","73.43","NAN","0.0"],
    [1553263,"2026-05-05 00:20:00","5973","0.002","0.457","0.196","0.449","1011.711","15.84","74.4","NAN","0.0"],
    [1553264,"2026-05-05 00:30:00","5974","0.46299999999999997","52.39","1.307","32.09","1011.605","15.5","75.36","NAN","0.0"],
    [1553265,"2026-05-05 00:40:00","5975","0.39399999999999996","358.6","0.784","57.11","1011.5989999999999","15.66","72.28","NAN","0.0"],
    [1553266,"2026-05-05 00:50:00","5976","0.544","351.8","1.3719999999999999","360.0","1011.602","15.89","70.02","NAN","0.0"],
    [1553267,"2026-05-05 01:00:00","5977","0.5489999999999999","12.96","1.3719999999999999","7.4670000000000005","1011.643","15.87","69.1","NAN","0.0"],
    [1553268,"2026-05-05 01:10:00","5978","0.37200000000000005","352.7","1.339","308.5","1011.543","15.78","69.35","NAN","0.0"],
    [1553269,"2026-05-05 01:20:00","5979","0.39","301.5","1.568","303.0","1011.457","15.87","69.59","NAN","0.0"],
    [1553270,"2026-05-05 01:30:00","5980","0.591","247.8","1.176","266.6","1011.462","15.85","69.54","NAN","0.0"],
    [1553271,"2026-05-05 01:40:00","5981","0.66","283.2","1.601","299.7","1011.4739999999999","16.14","67","NAN","0.0"],
    [1553272,"2026-05-05 01:50:00","5982","1.104","316.6","2.875","310.7","1011.414","16.17","67.12","NAN","0.0"],
    [1553273,"2026-05-05 02:00:00","5983","1.349","265.9","3.7569999999999997","286.2","1011.477","16.21","66.66","NAN","0.0"],
    [1553274,"2026-05-05 02:10:00","5984","1.665","260.2","3.365","287.8","1011.475","16.25","66.1","NAN","0.0"],
    [1553275,"2026-05-05 02:20:00","5985","1.579","256.5","3.267","254.9","1011.4739999999999","16.18","66.67","NAN","0.0"],
    [1553276,"2026-05-05 02:30:00","5986","1.584","258.1","3.7569999999999997","261.5","1011.497","16.12","67.13","NAN","0.0"],
    [1553277,"2026-05-05 02:40:00","5987","1.5530000000000002","247.9","3.201","269.2","1011.53","16.05","67.72","NAN","0.0"],
    [1553278,"2026-05-05 02:50:00","5988","1.064","251.2","2.9730000000000003","251.2","1011.51","15.75","69.5","NAN","0.0"],
    [1553279,"2026-05-05 03:00:00","5989","1.265","248.8","3.299","260.0","1011.5089999999999","15.68","69.72","NAN","0.0"],
    [1553280,"2026-05-05 03:10:00","5990","1.5019999999999998","248.0","3.397","298.1","1011.4830000000001","15.66","69.55","NAN","0.0"],
    [1553281,"2026-05-05 03:20:00","5991","1.399","237.2","2.8089999999999997","244.3","1011.4789999999999","15.44","71.22","NAN","0.0"],
    [1553282,"2026-05-05 03:30:00","5992","1.8219999999999998","232.4","3.7239999999999998","246.4","1011.414","15.06","73.09","NAN","0.0"],
    [1553283,"2026-05-05 03:40:00","5993","1.7409999999999999","240.1","3.365","240.6","1011.3580000000001","15.02","73.13","NAN","0.0"],
    [1553284,"2026-05-05 03:50:00","5994","1.7269999999999999","237.6","3.822","232.8","1011.447","14.85","74.24","NAN","0.0"],
    [1553285,"2026-05-05 04:00:00","5995","1.57","245.5","3.299","236.5","1011.42","14.77","74.6","NAN","0.0"],
    [1553286,"2026-05-05 04:10:00","5996","1.262","242.1","2.7439999999999998","246.5","1011.367","14.72","75.05","NAN","0.0"],
    [1553287,"2026-05-05 04:20:00","5997","0.6890000000000001","241.7","1.764","250.8","1011.427","14.76","74.92","NAN","0.0"],
    [1553288,"2026-05-05 04:30:00","5998","0.483","292.2","1.895","306.3","1011.357","14.83","74.13","NAN","0.0"],
    [1553289,"2026-05-05 04:40:00","5999","0.374","297.9","1.4369999999999998","326.8","1011.3480000000001","14.87","73.23","NAN","0.0"],
    [1553290,"2026-05-05 04:50:00","6000","0.136","54.23","0.882","69.37","1011.3480000000001","14.69","74.18","NAN","0.0"],
    [1553291,"2026-05-05 05:00:00","6001","0.32","223.1","1.143","229.9","1011.34","14.6","75.08","NAN","0.0"],
    [1553292,"2026-05-05 05:10:00","6002","0.204","185.4","0.784","241.7","1011.238","14.68","75.48","NAN","0.0"],
    [1553293,"2026-05-05 05:20:00","6003","0.122","70.89","0.621","69.96","1011.153","14.7","76.37","NAN","0.0"],
    [1553294,"2026-05-05 05:30:00","6004","0.235","137.6","0.6859999999999999","180.3","1011.238","14.81","76.76","NAN","0.0"],
    [1553295,"2026-05-05 05:40:00","6005","1.044","234.9","2.189","255.9","1011.365","15.04","73.03","NAN","0.0"],
    [1553296,"2026-05-05 05:50:00","6006","1.228","235.3","2.45","251.7","1011.41","15.38","70.04","NAN","0.0"],
    [1553297,"2026-05-05 06:00:00","6007","0.8270000000000001","248.2","1.96","272.2","1011.378","15.56","68.59","NAN","0.0"],
    [1553298,"2026-05-05 06:10:00","6008","0.758","252.6","1.9269999999999998","249.8","1011.4760000000001","15.94","67.2","NAN","0.0"],
    [1553299,"2026-05-05 06:20:00","6009","0.9390000000000001","238.0","2.156","236.5","1011.4689999999999","16.02","66.6","NAN","0.0"],
    [1553300,"2026-05-05 06:30:00","6010","0.23600000000000002","295.2","1.013","239.7","1011.429","16.37","65.47","NAN","0.0"],
    [1553301,"2026-05-05 06:40:00","6011","0.718","41.52","1.829","7.001","1011.387","17.23","61.97","NAN","0.0"],
    [1553302,"2026-05-05 06:50:00","6012","0.6970000000000001","40.33","1.568","11.2","1011.422","17","61.78","NAN","0.0"],
    [1553303,"2026-05-05 07:00:00","6013","1.048","191.5","1.993","187.3","1011.378","17.27","62.61","NAN","0.0"],
    [1553304,"2026-05-05 07:10:00","6014","0.732","221.3","1.7309999999999999","240.8","1011.3489999999999","17.23","62.56","NAN","0.0"],
    [1553305,"2026-05-05 07:20:00","6015","0.759","151.9","1.8619999999999999","119.5","1011.498","17.84","60.08","NAN","0.0"],
    [1553306,"2026-05-05 07:30:00","6016","1.151","44.22","3.6260000000000003","60.17","1011.475","17.76","60.79","NAN","0.0"],
    [1553307,"2026-05-05 07:40:00","6017","1.328","37.66","3.365","36.84","1011.485","17.73","61.21","NAN","0.0"],
    [1553308,"2026-05-05 07:50:00","6018","1.724","26.99","4.671","30.35","1011.448","17.71","60.94","NAN","0.0"],
    [1553309,"2026-05-05 08:00:00","6019","1.4080000000000001","26.04","2.907","24.13","1011.323","18.06","57.67","NAN","0.0"],
    [1553310,"2026-05-05 08:10:00","6020","1.263","40.33","3.103","70.42","1011.3430000000001","17.96","57.8","NAN","0.0"],
    [1553311,"2026-05-05 08:20:00","6021","0.5920000000000001","19.79","1.405","75.5","1011.54","18.25","57.54","NAN","0.0"],
    [1553312,"2026-05-05 08:30:00","6022","1.165","188.7","2.842","185.6","1011.687","18.08","59.41","NAN","0.0"],
    [1553313,"2026-05-05 08:40:00","6023","1.5919999999999999","189.0","3.267","205.8","1011.732","17.29","64.76","NAN","0.0"],
    [1553314,"2026-05-05 08:50:00","6024","1.0490000000000002","188.2","3.495","214.3","1011.6110000000001","17.68","63.85","NAN","0.0"],
    [1553315,"2026-05-05 09:00:00","6025","1.105","125.4","2.156","107.9","1011.1560000000001","18.55","59.72","NAN","0.0"],
    [1553316,"2026-05-05 09:10:00","6026","1.71","140.5","2.7769999999999997","157.0","1011.296","18.43","59.93","NAN","0.0"],
    [1553317,"2026-05-05 09:20:00","6027","1.953","162.6","3.103","160.8","1011.428","18.44","60.33","NAN","0.0"],
    [1553318,"2026-05-05 09:30:00","6028","1.761","133.0","3.397","106.5","1011.341","18.81","59.12","NAN","0.0"],
    [1553319,"2026-05-05 09:40:00","6029","2.084","143.3","3.593","161.5","1011.58","18.31","62.55","NAN","0.0"],
    [1553320,"2026-05-05 09:50:00","6030","1.91","157.5","3.397","111.1","1011.931","17.92","64.17","NAN","0.0"],
    [1553321,"2026-05-05 10:00:00","6031","1.7530000000000001","147.9","3.6910000000000003","180.2","1011.7860000000001","17.69","65","NAN","0.0"],
    [1553322,"2026-05-05 10:10:00","6032","1.175","129.8","2.254","144.2","1011.712","17.56","65.27","NAN","0.0"],
    [1553323,"2026-05-05 10:20:00","6033","1.136","97.9","2.123","114.3","1011.577","17.6","65.25","NAN","0.0"],
    [1553324,"2026-05-05 10:30:00","6034","1.49","93.7","2.417","89.5","1011.48","18.19","61.99","NAN","0.0"],
    [1553325,"2026-05-05 10:40:00","6035","2.049","96.4","3.43","81.3","1011.535","18","61.92","NAN","0.0"],
    [1553326,"2026-05-05 10:50:00","6036","2.228","107.4","3.267","114.0","1011.582","18.12","62.94","NAN","0.0"],
    [1553327,"2026-05-05 11:00:00","6037","2.095","100.0","3.6260000000000003","97.1","1011.53","18.78","63.14","NAN","0.0"],
    [1553328,"2026-05-05 11:10:00","6038","1.9269999999999998","116.1","3.855","108.2","1011.465","18.73","61.92","NAN","0.0"],
    [1553329,"2026-05-05 11:20:00","6039","2.864","119.0","4.2139999999999995","108.1","1011.345","18.41","64.8","NAN","0.0"],
    [1553330,"2026-05-05 11:30:00","6040","2.741","117.0","4.279","108.9","1011.2460000000001","18.33","59.96","NAN","0.0"],
    [1553331,"2026-05-05 11:40:00","6041","2.3280000000000003","111.5","4.051","119.7","1011.2860000000001","18.32","62.44","NAN","0.0"],
    [1553332,"2026-05-05 11:50:00","6042","2.572","120.7","3.7569999999999997","108.0","1011.331","17.99","65.1","NAN","0.0"],
    [1553333,"2026-05-05 12:00:00","6043","2.49","130.1","3.822","144.8","1011.2139999999999","17.81","66.23","NAN","0.0"],
    [1553334,"2026-05-05 12:10:00","6044","2.64","126.2","4.247","118.5","1011.159","17.9","67.87","NAN","0.0"],
    [1553335,"2026-05-05 12:20:00","6045","2.096","139.7","4.2139999999999995","156.3","1011.064","18.54","66.71","NAN","0.0"],
    [1553336,"2026-05-05 12:30:00","6046","2.162","123.9","3.397","147.5","1010.9739999999999","18.39","67.46","NAN","0.0"],
    [1553337,"2026-05-05 12:40:00","6047","2.305","122.8","3.7239999999999998","106.1","1010.954","18.14","67.97","NAN","0.0"],
    [1553338,"2026-05-05 12:50:00","6048","2.24","117.4","3.7569999999999997","106.8","1010.88","18.67","67.24","NAN","0.0"],
    [1553339,"2026-05-05 13:00:00","6049","2.29","130.9","3.659","115.9","1010.86","18.25","66.15","NAN","0.0"],
    [1553340,"2026-05-05 13:10:00","6050","2.677","126.5","4.704","163.1","1010.852","18.27","63.68","NAN","0.0"],
    [1553341,"2026-05-05 13:20:00","6051","2.747","154.7","4.247","162.4","1010.85","17.82","70.39","NAN","0.0"],
    [1553342,"2026-05-05 13:30:00","6052","2.783","136.1","4.965","159.7","1010.735","17.75","70.63","NAN","0.0"],
    [1553343,"2026-05-05 13:40:00","6053","2.822","152.8","4.377","151.1","1010.706","17.75","70.37","NAN","0.0"],
    [1553344,"2026-05-05 13:50:00","6054","2.451","154.9","4.1160000000000005","147.0","1010.695","17.65","69.57","NAN","0.0"],
    [1553345,"2026-05-05 14:00:00","6055","1.859","138.8","3.365","106.7","1010.581","18.14","64.16","NAN","0.0"],
    [1553346,"2026-05-05 14:10:00","6056","1.892","132.9","3.887","153.5","1010.446","18.41","64.67","NAN","0.0"],
    [1553347,"2026-05-05 14:20:00","6057","2.548","149.6","3.985","156.9","1010.352","17.95","68.91","NAN","0.0"],
    [1553348,"2026-05-05 14:30:00","6058","2.3890000000000002","127.4","3.855","115.9","1010.217","17.77","69.3","NAN","0.0"],
    [1553349,"2026-05-05 14:40:00","6059","2.6039999999999996","157.2","3.659","164.4","1010.085","17.74","70.78","NAN","0.0"],
    [1553350,"2026-05-05 14:50:00","6060","2.025","139.1","3.0380000000000003","150.7","1009.9960000000001","17.97","71.74","NAN","0.0"],
    [1553351,"2026-05-05 15:00:00","6061","1.906","137.3","3.332","120.8","1009.9630000000001","18.14","72.34","NAN","0.0"],
    [1553352,"2026-05-05 15:10:00","6062","2.059","120.3","3.397","112.8","1009.988","18.09","72.84","NAN","0.0"],
    [1553353,"2026-05-05 15:20:00","6063","2.104","132.4","3.6260000000000003","93.6","1010.03","18.25","72.35","NAN","0.0"],
    [1553354,"2026-05-05 15:30:00","6064","1.893","121.8","3.0380000000000003","115.3","1010.0160000000001","17.8","74.95","NAN","0.0"],
    [1553355,"2026-05-05 15:40:00","6065","1.7009999999999998","136.8","3.234","105.4","1010.078","17.99","74.69","NAN","0.0"],
    [1553356,"2026-05-05 15:50:00","6066","1.5019999999999998","156.3","2.613","150.0","1010.185","17.83","74.84","NAN","0.0"],
    [1553357,"2026-05-05 16:00:00","6067","1.47","150.6","2.417","182.1","1010.095","17.85","75.58","NAN","0.0"],
    [1553358,"2026-05-05 16:10:00","6068","1.755","149.3","3.299","143.6","1009.966","18.12","74.91","NAN","0.0"],
    [1553359,"2026-05-05 16:20:00","6069","1.3319999999999999","151.4","2.6460000000000004","166.3","1010.013","17.91","75.53","NAN","0.0"],
    [1553360,"2026-05-05 16:30:00","6070","0.792","179.7","1.699","201.0","1010.205","18.23","73.06","NAN","0.0"],
    [1553361,"2026-05-05 16:40:00","6071","0.95","164.1","1.9269999999999998","178.4","1010.195","18.4","71.05","NAN","0.0"],
    [1553362,"2026-05-05 16:50:00","6072","1.186","123.9","2.025","116.4","1010.225","18.46","71.86","NAN","0.0"],
    [1553363,"2026-05-05 17:00:00","6073","1.2229999999999999","133.6","2.0909999999999997","142.3","1010.217","18.18","75.2","NAN","0.0"],
    [1553364,"2026-05-05 17:10:00","6074","1.089","93.0","2.0580000000000003","70.21","1010.221","18.23","74.02","NAN","0.0"],
    [1553365,"2026-05-05 17:20:00","6075","1.636","60.31","3.365","60.56","1010.221","18.59","62.61","NAN","0.0"],
    [1553366,"2026-05-05 17:30:00","6076","1.761","53.04","4.606","58.15","1010.212","18.99","53.5","NAN","0.0"],
    [1553367,"2026-05-05 17:40:00","6077","1.3219999999999998","332.8","3.463","260.9","1010.2719999999999","19.09","49.32","NAN","0.0"],
    [1553368,"2026-05-05 17:50:00","6078","1.422","230.4","3.463","320.5","1010.047","19.31","52.31","NAN","0.0"],
    [1553369,"2026-05-05 18:00:00","6079","1.442","194.8","3.234","187.3","1010.132","18.87","56.65","NAN","0.0"],
    [1553370,"2026-05-05 18:10:00","6080","1.874","189.9","3.1689999999999996","185.3","1010.113","18.68","62.75","NAN","0.0"],
    [1553371,"2026-05-05 18:20:00","6081","2.03","182.5","3.0380000000000003","184.5","1009.949","18.08","69.73","NAN","0.0"],
    [1553372,"2026-05-05 18:30:00","6082","2.021","183.9","3.299","181.1","1009.7689999999999","18.09","71.39","NAN","0.0"],
    [1553373,"2026-05-05 18:40:00","6083","1.9569999999999999","185.0","3.43","182.1","1009.585","18.04","73.44","NAN","0.0"],
    [1553374,"2026-05-05 18:50:00","6084","2.214","184.7","3.7889999999999997","176.5","1009.432","17.81","77.55","NAN","0.0"],
    [1553375,"2026-05-05 19:00:00","6085","1.4509999999999998","187.5","3.1689999999999996","183.6","1009.572","17.77","79.19","NAN","0.0"],
    [1553376,"2026-05-05 19:10:00","6086","1.6840000000000002","180.7","3.005","176.9","1009.716","17.64","80.8","NAN","0.0"],
    [1553377,"2026-05-05 19:20:00","6087","0.774","198.8","1.7309999999999999","180.5","1009.8430000000001","17.61","80.5","NAN","0.0"],
    [1553378,"2026-05-05 19:30:00","6088","1.5230000000000001","56.77","4.508","1.919","1009.855","17.4","72.74","NAN","0.0"],
    [1553379,"2026-05-05 19:40:00","6089","2.003","14.67","3.9530000000000003","3.5389999999999997","1010.0830000000001","16.91","62.73","NAN","0.0"],
    [1553380,"2026-05-05 19:50:00","6090","1.8980000000000001","3.591","3.985","7.933","1010.3560000000001","16.91","62.07","NAN","0.0"],
    [1553381,"2026-05-05 20:00:00","6091","1.037","331.3","3.463","312.7","1010.569","16.94","61.39","NAN","0.0"],
    [1553382,"2026-05-05 20:10:00","6092","0.955","328.0","2.189","347.1","1010.7760000000001","17.1","60.13","NAN","0.0"],
    [1553383,"2026-05-05 20:20:00","6093","1.074","328.8","2.483","309.7","1010.793","17.41","58.17","NAN","0.0"],
    [1553384,"2026-05-05 20:30:00","6094","0.614","286.2","1.535","323.5","1010.797","17.76","56.98","NAN","0.0"],
    [1553385,"2026-05-05 20:40:00","6095","0.607","258.6","1.5030000000000001","258.1","1010.827","17.9","55.95","NAN","0.0"],
    [1553386,"2026-05-05 20:50:00","6096","0.922","211.4","1.7309999999999999","264.1","1010.915","17.99","55.59","NAN","0.0"],
    [1553387,"2026-05-05 21:00:00","6097","0.903","194.3","1.7309999999999999","212.8","1010.83","17.72","58.82","NAN","0.0"],
    [1553388,"2026-05-05 21:10:00","6098","1.208","221.4","2.45","227.6","1010.9860000000001","17.76","58.03","NAN","0.0"],
    [1553389,"2026-05-05 21:20:00","6099","0.95","215.9","1.601","216.7","1011.184","17.73","57.7","NAN","0.0"],
    [1553390,"2026-05-05 21:30:00","6100","1.0290000000000001","246.5","2.0909999999999997","239.5","1011.221","17.73","56.78","NAN","0.0"],
    [1553391,"2026-05-05 21:40:00","6101","0.799","273.6","2.319","291.9","1011.3330000000001","17.79","55.6","NAN","0.0"],
    [1553392,"2026-05-05 21:50:00","6102","0.723","347.2","1.9269999999999998","10.06","1011.393","17.88","54.06","NAN","0.0"],
    [1553393,"2026-05-05 22:00:00","6103","0.674","314.3","1.601","325.5","1011.3","17.84","54.11","NAN","0.0"],
    [1553394,"2026-05-05 22:10:00","6104","0.934","334.4","2.352","311.9","1011.188","17.78","54.93","NAN","0.0"],
    [1553395,"2026-05-05 22:20:00","6105","0.914","279.1","1.797","266.3","1011.1360000000001","17.78","55.8","NAN","0.0"],
    [1553396,"2026-05-05 22:30:00","6106","1.0979999999999999","288.2","2.287","293.2","1011.1080000000001","17.73","57.17","NAN","0.0"],
    [1553397,"2026-05-05 22:40:00","6107","0.812","303.0","2.123","304.3","1010.9069999999999","17.59","58.83","NAN","0.0"],
    [1553398,"2026-05-05 22:50:00","6108","0.746","293.8","2.0909999999999997","304.2","1010.775","17.65","59.68","NAN","0.0"],
    [1553399,"2026-05-05 23:00:00","6109","0.518","307.2","2.254","260.8","1010.586","17.62","60.18","NAN","0.0"],
    [1553400,"2026-05-05 23:10:00","6110","0.584","241.9","1.601","238.3","1010.443","17.53","61.5","NAN","0.0"],
    [1553401,"2026-05-05 23:20:00","6111","0.248","125.2","0.8490000000000001","122.3","1010.505","17.36","62.47","NAN","0.0"],
    [1553402,"2026-05-05 23:30:00","6112","1.1520000000000001","53.71","3.005","27.06","1010.757","17.07","63.61","NAN","0.0"],
    [1553403,"2026-05-05 23:40:00","6113","1.1320000000000001","20.78","2.385","18.3","1010.9110000000001","16.65","65.73","NAN","0.0"],
    [1553404,"2026-05-05 23:50:00","6114","1.272","16.12","2.9730000000000003","358.8","1010.827","16.17","69.48","NAN","0.0"],
    [1553405,"2026-05-06 00:00:00","6115","1.375","12.78","3.5610000000000004","28.68","1010.8589999999999","15.9","70.96","NAN","0.0"],
    [1553406,"2026-05-06 00:10:00","6116","1.171","15.84","3.463","12.51","1010.8810000000001","15.72","71.72","NAN","0.0"],
    [1553407,"2026-05-06 00:20:00","6117","1.3259999999999998","10.48","3.201","358.0","1010.8839999999999","15.53","72.15","NAN","0.0"],
    [1553408,"2026-05-06 00:30:00","6118","1.723","6.069","3.136","38.36","1010.8430000000001","15.39","72.12","NAN","0.0"],
    [1553409,"2026-05-06 00:40:00","6119","1.173","358.7","2.254","356.9","1010.831","15.36","71.73","NAN","0.0"],
    [1553410,"2026-05-06 00:50:00","6120","0.6509999999999999","356.5","2.123","346.5","1010.813","15.43","71.13","NAN","0.0"],
    [1553411,"2026-05-06 01:00:00","6121","0.276","4.747","0.8170000000000001","40.28","1010.745","15.53","70.39","NAN","0.0"],
    [1553412,"2026-05-06 01:10:00","6122","0.836","37.89","1.535","4.2219999999999995","1010.622","15.58","69.78","NAN","0.0"],
    [1553413,"2026-05-06 01:20:00","6123","0.115","10.71","0.653","340.7","1010.5980000000001","15.56","69.03","NAN","0.0"],
    [1553414,"2026-05-06 01:30:00","6124","0.07400000000000001","302.8","0.6859999999999999","282.8","1010.605","15.35","69.49","NAN","0.0"],
    [1553415,"2026-05-06 01:40:00","6125","0.6809999999999999","60.81","1.633","26.44","1010.573","15.38","69.17","NAN","0.0"],
    [1553416,"2026-05-06 01:50:00","6126","0.579","40.34","1.5030000000000001","26.05","1010.75","15.09","69.92","NAN","0.0"],
    [1553417,"2026-05-06 02:00:00","6127","0.374","11.14","1.111","73.79","1010.712","14.87","71.23","NAN","0.0"],
    [1553418,"2026-05-06 02:10:00","6128","0.621","358.9","1.3719999999999999","5.587000000000001","1010.752","14.98","71","NAN","0.0"],
    [1553419,"2026-05-06 02:20:00","6129","0.267","284.0","0.9470000000000001","288.1","1010.79","15.29","69.63","NAN","0.0"],
    [1553420,"2026-05-06 02:30:00","6130","0.727","67.84","1.535","64.19","1010.8539999999999","15.17","70.33","NAN","0.0"],
    [1553421,"2026-05-06 02:40:00","6131","0.8009999999999999","56.16","1.535","56.61","1010.8489999999999","14.78","72.58","NAN","0.0"],
    [1553422,"2026-05-06 02:50:00","6132","0.25","44.9","0.6859999999999999","58.81","1010.852","14.77","72.37","NAN","0.0"],
    [1553423,"2026-05-06 03:00:00","6133","0.6990000000000001","41.49","1.339","30.96","1010.8439999999999","14.85","71.46","NAN","0.0"],
    [1553424,"2026-05-06 03:10:00","6134","0.345","16.34","1.143","38.66","1010.8489999999999","14.84","71.51","NAN","0.0"],
    [1553425,"2026-05-06 03:20:00","6135","0.239","19.02","0.7509999999999999","22.85","1010.837","14.81","71.67","NAN","0.0"],
    [1553426,"2026-05-06 03:30:00","6136","0.13699999999999998","295.6","0.8170000000000001","277.2","1010.847","14.85","71.68","NAN","0.0"],
    [1553427,"2026-05-06 03:40:00","6137","0.201","175.1","0.7190000000000001","127.8","1010.8539999999999","14.93","68.96","NAN","0.0"],
    [1553428,"2026-05-06 03:50:00","6138","0.615","42.15","1.274","359.9","1010.8539999999999","14.94","69.28","NAN","0.0"],
    [1553429,"2026-05-06 04:00:00","6139","0.233","287.1","1.078","287.9","1010.8889999999999","14.76","69.51","NAN","0.0"],
    [1553430,"2026-05-06 04:10:00","6140","1.105","242.4","2.7439999999999998","258.9","1010.9889999999999","14.9","64.06","NAN","0.0"],
    [1553431,"2026-05-06 04:20:00","6141","1.107","236.8","2.123","255.4","1010.949","14.97","62.43","NAN","0.0"],
    [1553432,"2026-05-06 04:30:00","6142","0.885","261.1","2.45","257.8","1010.9839999999999","14.91","61.72","NAN","0.0"],
    [1553433,"2026-05-06 04:40:00","6143","0.938","271.8","2.123","283.4","1011.079","15.07","60.41","NAN","0.0"],
    [1553434,"2026-05-06 04:50:00","6144","0.764","268.7","2.0909999999999997","303.8","1011.091","15.14","59.54","NAN","0.0"],
    [1553435,"2026-05-06 05:00:00","6145","0.691","340.0","1.535","7.825","1011.2330000000001","15.05","62.94","NAN","0.0"],
    [1553436,"2026-05-06 05:10:00","6146","0.544","26.84","1.633","14.12","1011.34","14.52","67.8","NAN","0.0"],
    [1553437,"2026-05-06 05:20:00","6147","0.6","44.98","1.47","26.42","1011.44","14.58","64.89","NAN","0.0"],
    [1553438,"2026-05-06 05:30:00","6148","0.8490000000000001","50.57","1.7309999999999999","48.28","1011.477","14.82","63.43","NAN","0.0"],
    [1553439,"2026-05-06 05:40:00","6149","0.7829999999999999","21.59","1.764","41.71","1011.57","14.62","63.57","NAN","0.0"],
    [1553440,"2026-05-06 05:50:00","6150","0.943","3.02","2.221","310.4","1011.6039999999999","14.88","60.05","NAN","0.0"],
    [1553441,"2026-05-06 06:00:00","6151","1.2930000000000001","316.3","4.1160000000000005","303.6","1011.6039999999999","15.69","54.63","NAN","0.0"],
    [1553442,"2026-05-06 06:10:00","6152","1.133","337.7","2.6460000000000004","299.6","1011.5989999999999","15.82","53.08","NAN","0.0"],
    [1553443,"2026-05-06 06:20:00","6153","0.977","347.7","2.7439999999999998","307.0","1011.653","16.02","52.2","NAN","0.0"],
    [1553444,"2026-05-06 06:30:00","6154","1.072","357.1","2.548","27.59","1011.672","16.01","52.38","NAN","0.0"],
    [1553445,"2026-05-06 06:40:00","6155","1.58","15.18","3.299","359.2","1011.7289999999999","16.07","52.5","NAN","0.0"],
    [1553446,"2026-05-06 06:50:00","6156","1.84","30.87","3.659","5.276","1011.883","15.76","53.64","NAN","0.0"],
    [1553447,"2026-05-06 07:00:00","6157","1.4480000000000002","33.87","3.495","66.32","1012.0139999999999","16.03","53.74","NAN","0.0"],
    [1553448,"2026-05-06 07:10:00","6158","1.705","26.14","3.92","34.25","1012.018","16.04","55.72","NAN","0.0"],
    [1553449,"2026-05-06 07:20:00","6159","1.921","45.33","3.855","73.94","1012.178","15.9","57.61","NAN","0.0"],
    [1553450,"2026-05-06 07:30:00","6160","1.545","41.73","3.463","53.68","1012.212","15.64","58.91","NAN","0.0"],
    [1553451,"2026-05-06 07:40:00","6161","1.151","111.2","2.0580000000000003","97.8","1012.362","15.89","57.79","NAN","0.0"],
    [1553452,"2026-05-06 07:50:00","6162","0.8540000000000001","45.47","1.9269999999999998","18.21","1012.459","16.53","54.53","NAN","0.0"],
    [1553453,"2026-05-06 08:00:00","6163","0.9620000000000001","127.7","2.254","93.7","1012.561","16.83","53.55","NAN","0.0"],
    [1553454,"2026-05-06 08:10:00","6164","0.97","132.9","2.45","111.5","1012.4760000000001","16.76","54.69","NAN","0.0"],
    [1553455,"2026-05-06 08:20:00","6165","1.347","109.4","2.7769999999999997","111.9","1012.461","17.2","52.97","NAN","0.0"],
    [1553456,"2026-05-06 08:30:00","6166","0.8059999999999999","130.8","1.96","93.6","1012.569","17.81","50.43","NAN","0.0"],
    [1553457,"2026-05-06 08:40:00","6167","1.7380000000000002","146.4","3.234","113.6","1012.698","17.44","51.19","NAN","0.0"],
    [1553458,"2026-05-06 08:50:00","6168","1.712","150.5","3.201","99.4","1012.698","17.28","51.6","NAN","0.0"],
    [1553459,"2026-05-06 09:00:00","6169","2.009","112.6","3.6910000000000003","104.5","1012.623","17.62","50.22","NAN","0.0"],
    [1553460,"2026-05-06 09:10:00","6170","1.008","114.0","3.005","150.1","1012.6439999999999","18.33","46.76","NAN","0.0"],
    [1553461,"2026-05-06 09:20:00","6171","1.3130000000000002","238.1","3.6910000000000003","273.5","1012.701","18.82","43.85","NAN","0.0"],
    [1553462,"2026-05-06 09:30:00","6172","2.492","247.5","5.227","257.1","1012.701","19.23","40.86","NAN","0.0"],
    [1553463,"2026-05-06 09:40:00","6173","1.607","267.4","3.7569999999999997","252.8","1012.7080000000001","19.36","40.94","NAN","0.0"],
    [1553464,"2026-05-06 09:50:00","6174","1.475","261.7","3.234","315.8","1012.703","19.52","39.38","NAN","0.0"],
    [1553465,"2026-05-06 10:00:00","6175","1.8519999999999999","296.5","3.9530000000000003","280.3","1012.5980000000001","19.46","39.68","NAN","0.0"],
    [1553466,"2026-05-06 10:10:00","6176","0.963","347.0","2.7110000000000003","19.41","1012.414","19.75","39.82","NAN","0.0"],
    [1553467,"2026-05-06 10:20:00","6177","1.077","262.5","2.45","276.6","1012.377","20.18","39.43","NAN","0.0"],
    [1553468,"2026-05-06 10:30:00","6178","1.483","157.9","3.985","112.1","1012.466","20.07","41.54","NAN","0.0"],
    [1553469,"2026-05-06 10:40:00","6179","2.387","188.0","4.573","180.9","1012.334","19.38","43.32","NAN","0.0"],
    [1553470,"2026-05-06 10:50:00","6180","3.134","182.8","4.998","176.8","1012.21","18.48","45.58","NAN","0.0"],
    [1553471,"2026-05-06 11:00:00","6181","2.747","185.8","4.312","181.4","1012.21","19.04","44.4","NAN","0.0"],
    [1553472,"2026-05-06 11:10:00","6182","3.134","173.2","5.684","181.1","1012.177","19.01","42.81","NAN","0.0"],
    [1553473,"2026-05-06 11:20:00","6183","3.492","180.9","5.847","177.4","1012.068","18.63","45.47","NAN","0.0"],
    [1553474,"2026-05-06 11:30:00","6184","3.364","180.2","5.521","181.0","1012.0010000000001","18.53","48.25","NAN","0.0"],
    [1553475,"2026-05-06 11:40:00","6185","3.2910000000000004","184.3","5.227","176.2","1011.9630000000001","18.47","48.36","NAN","0.0"],
    [1553476,"2026-05-06 11:50:00","6186","2.533","194.0","4.4430000000000005","187.3","1011.961","18.95","45.54","NAN","0.0"],
    [1553477,"2026-05-06 12:00:00","6187","3.1489999999999996","179.1","4.737","180.3","1011.943","18.8","46.26","NAN","0.0"],
    [1553478,"2026-05-06 12:10:00","6188","3.345","178.3","5.292000000000001","180.2","1011.955","18.59","48.05","NAN","0.0"],
    [1553479,"2026-05-06 12:20:00","6189","3.665","178.1","5.749","176.2","1011.95","18.87","45.49","NAN","0.0"],
    [1553480,"2026-05-06 12:30:00","6190","4.052","176.7","5.684","171.1","1011.909","18.12","49.26","NAN","0.0"],
    [1553481,"2026-05-06 12:40:00","6191","3.727","179.8","5.978","178.9","1011.961","18.2","48.61","NAN","0.0"],
    [1553482,"2026-05-06 12:50:00","6192","3.573","177.7","5.455","186.7","1011.873","18.25","49.08","NAN","0.0"],
    [1553483,"2026-05-06 13:00:00","6193","3.695","180.7","5.7170000000000005","179.1","1011.799","18.05","51.06","NAN","0.0"],
    [1553484,"2026-05-06 13:10:00","6194","3.5980000000000003","182.6","5.586","179.6","1011.758","18.16","51.03","NAN","0.0"],
    [1553485,"2026-05-06 13:20:00","6195","3.622","180.4","5.194","188.3","1011.717","18.05","52.18","NAN","0.0"],
    [1553486,"2026-05-06 13:30:00","6196","3.142","182.1","5.129","185.5","1011.6610000000001","18.5","52.14","NAN","0.0"],
    [1553487,"2026-05-06 13:40:00","6197","3.475","181.3","5.4879999999999995","184.1","1011.587","18.35","52.68","NAN","0.0"],
    [1553488,"2026-05-06 13:50:00","6198","3.497","179.5","4.998","190.2","1011.46","18.42","51.99","NAN","0.0"],
    [1553489,"2026-05-06 14:00:00","6199","3.734","177.7","5.2589999999999995","174.7","1011.418","18.24","53.15","NAN","0.0"],
    [1553490,"2026-05-06 14:10:00","6200","3.6860000000000004","180.6","5.7170000000000005","179.8","1011.336","18.4","54.03","NAN","0.0"],
    [1553491,"2026-05-06 14:20:00","6201","3.0439999999999996","180.6","4.769","173.4","1011.313","18.56","53.56","NAN","0.0"],
    [1553492,"2026-05-06 14:30:00","6202","3.659","182.5","5.684","183.4","1011.2310000000001","18.54","53.36","NAN","0.0"],
    [1553493,"2026-05-06 14:40:00","6203","3.648","182.7","5.2589999999999995","188.0","1011.194","18.36","53.41","NAN","0.0"],
    [1553494,"2026-05-06 14:50:00","6204","3.727","178.1","6.011","178.0","1011.082","18.33","54.58","NAN","0.0"],
    [1553495,"2026-05-06 15:00:00","6205","3.306","179.8","5.455","182.4","1011.079","18.48","53.59","NAN","0.0"],
    [1553496,"2026-05-06 15:10:00","6206","3.285","183.8","5.194","183.6","1010.977","18.52","52.37","NAN","0.0"],
    [1553497,"2026-05-06 15:20:00","6207","3.12","176.3","5.422999999999999","162.3","1010.962","18.63","52.69","NAN","0.0"],
    [1553498,"2026-05-06 15:30:00","6208","2.839","185.6","5.1610000000000005","181.3","1010.8969999999999","18.6","54.36","NAN","0.0"],
    [1553499,"2026-05-06 15:40:00","6209","2.569","177.7","4.573","177.8","1010.84","18.81","53.14","NAN","0.0"],
    [1553500,"2026-05-06 15:50:00","6210","2.681","186.5","4.279","177.5","1010.78","18.8","52.64","NAN","0.0"],
    [1553501,"2026-05-06 16:00:00","6211","2.8289999999999997","180.6","4.671","177.5","1010.7280000000001","18.69","54.33","NAN","0.0"],
    [1553502,"2026-05-06 16:10:00","6212","2.0669999999999997","195.0","3.855","202.6","1010.745","18.97","54.31","NAN","0.0"],
    [1553503,"2026-05-06 16:20:00","6213","2.363","188.6","4.312","178.6","1010.738","18.77","55.74","NAN","0.0"],
    [1553504,"2026-05-06 16:30:00","6214","1.965","188.7","3.495","181.9","1010.716","18.52","58.05","NAN","0.0"],
    [1553505,"2026-05-06 16:40:00","6215","2.303","186.7","4.018","174.6","1010.7189999999999","18.56","59.86","NAN","0.0"],
    [1553506,"2026-05-06 16:50:00","6216","2.298","176.6","3.593","144.5","1010.721","18.31","62.91","NAN","0.0"],
    [1553507,"2026-05-06 17:00:00","6217","1.952","177.9","3.365","178.1","1010.773","18.22","64.15","NAN","0.0"],
    [1553508,"2026-05-06 17:10:00","6218","2.186","185.1","4.018","168.6","1010.877","18.2","63.69","NAN","0.0"],
    [1553509,"2026-05-06 17:20:00","6219","1.979","173.6","3.201","171.8","1010.982","18.19","62.44","NAN","0.0"],
    [1553510,"2026-05-06 17:30:00","6220","1.906","182.8","3.201","174.4","1010.9680000000001","18.29","61.52","NAN","0.0"],
    [1553511,"2026-05-06 17:40:00","6221","2.208","178.3","3.365","187.7","1011.075","18.08","61.26","NAN","0.0"],
    [1553512,"2026-05-06 17:50:00","6222","2.059","180.1","3.365","180.6","1011.23","18.07","61.86","NAN","0.0"],
    [1553513,"2026-05-06 18:00:00","6223","2.244","182.0","3.495","174.0","1011.2280000000001","18.09","62.16","NAN","0.0"],
    [1553514,"2026-05-06 18:10:00","6224","2.023","180.2","3.6910000000000003","184.9","1011.317","17.96","62.23","NAN","0.0"],
    [1553515,"2026-05-06 18:20:00","6225","2.0909999999999997","181.6","3.332","178.0","1011.395","17.83","62.48","NAN","0.0"],
    [1553516,"2026-05-06 18:30:00","6226","1.611","169.4","2.8089999999999997","150.6","1011.4889999999999","17.87","62.64","NAN","0.0"],
    [1553517,"2026-05-06 18:40:00","6227","1.525","183.5","3.0380000000000003","179.7","1011.55","17.8","62.19","NAN","0.0"],
    [1553518,"2026-05-06 18:50:00","6228","1.037","176.9","1.7309999999999999","169.9","1011.73","17.81","61.7","NAN","0.0"],
    [1553519,"2026-05-06 19:00:00","6229","0.978","181.3","2.0909999999999997","183.8","1011.7819999999999","17.76","62.53","NAN","0.0"],
    [1553520,"2026-05-06 19:10:00","6230","1.325","180.7","2.483","183.5","1011.883","17.64","63.01","NAN","0.0"],
    [1553521,"2026-05-06 19:20:00","6231","0.8540000000000001","208.8","1.535","210.3","1012.018","17.77","62.01","NAN","0.0"],
    [1553522,"2026-05-06 19:30:00","6232","0.722","162.6","1.797","147.1","1012.0930000000001","17.74","62.92","NAN","0.0"],
    [1553523,"2026-05-06 19:40:00","6233","0.8959999999999999","174.3","1.699","150.6","1012.222","17.67","63.43","NAN","0.0"],
    [1553524,"2026-05-06 19:50:00","6234","0.78","169.5","1.307","191.4","1012.3960000000001","17.62","63.79","NAN","0.0"],
    [1553525,"2026-05-06 20:00:00","6235","0.7","206.8","1.4369999999999998","208.6","1012.535","17.7","64.46","NAN","0.0"],
    [1553526,"2026-05-06 20:10:00","6236","0.307","164.3","0.9470000000000001","178.1","1012.6569999999999","17.63","65.73","NAN","0.0"],
    [1553527,"2026-05-06 20:20:00","6237","0.316","229.3","1.013","247.7","1012.818","17.54","66.27","NAN","0.0"],
    [1553528,"2026-05-06 20:30:00","6238","0.35100000000000003","222.9","0.915","216.0","1013.074","17.53","67.03","NAN","0.0"],
    [1553529,"2026-05-06 20:40:00","6239","0.5579999999999999","198.1","1.078","203.0","1013.2310000000001","17.56","68.17","NAN","0.0"],
    [1553530,"2026-05-06 20:50:00","6240","0.27399999999999997","208.3","0.6859999999999999","204.7","1013.298","17.52","69.21","NAN","0.0"],
    [1553531,"2026-05-06 21:00:00","6241","0.384","195.8","0.653","193.7","1013.304","17.47","69.25","NAN","0.0"],
    [1553532,"2026-05-06 21:10:00","6242","0.091","209.7","0.6859999999999999","211.4","1013.41","17.47","70.04","NAN","0.0"],
    [1553533,"2026-05-06 21:20:00","6243","0.522","190.6","1.078","200.1","1013.435","17.45","71","NAN","0.0"],
    [1553534,"2026-05-06 21:30:00","6244","0.499","227.2","1.143","244.4","1013.375","17.54","71.12","NAN","0.0"],
    [1553535,"2026-05-06 21:40:00","6245","0.42100000000000004","212.0","1.2409999999999999","185.5","1013.334","17.61","70.34","NAN","0.0"],
    [1553536,"2026-05-06 21:50:00","6246","0.377","181.6","1.078","174.3","1013.437","17.55","71.03","NAN","0.0"],
    [1553537,"2026-05-06 22:00:00","6247","0.281","151.2","0.8490000000000001","156.9","1013.4060000000001","17.48","71.17","NAN","0.0"],
    [1553538,"2026-05-06 22:10:00","6248","0.154","192.7","0.7190000000000001","206.7","1013.426","17.46","70.85","NAN","0.0"],
    [1553539,"2026-05-06 22:20:00","6249","0.242","173.2","0.784","160.6","1013.432","17.56","71.09","NAN","0.0"],
    [1553540,"2026-05-06 22:30:00","6250","0.349","98.5","1.045","92.5","1013.3839999999999","17.45","70.75","NAN","0.0"],
    [1553541,"2026-05-06 22:40:00","6251","0.861","73.35","1.8619999999999999","58.19","1013.409","17.5","72.11","NAN","0.0"],
    [1553542,"2026-05-06 22:50:00","6252","1.197","48.99","2.7439999999999998","37.64","1013.441","17.36","71.9","NAN","0.0"],
    [1553543,"2026-05-06 23:00:00","6253","0.696","30.54","1.8619999999999999","357.5","1013.449","17.13","70.97","NAN","0.0"],
    [1553544,"2026-05-06 23:10:00","6254","1.099","47.22","2.548","16.86","1013.557","17.06","70.26","NAN","0.0"],
    [1553545,"2026-05-06 23:20:00","6255","0.8590000000000001","32.22","1.9269999999999998","14.0","1013.573","17.02","70.21","NAN","0.0"],
    [1553546,"2026-05-06 23:30:00","6256","0.961","29.63","2.385","358.5","1013.46","16.99","70.5","NAN","0.0"],
    [1553547,"2026-05-06 23:40:00","6257","1.768","41.63","3.6260000000000003","37.8","1013.6410000000001","16.96","71.47","NAN","0.0"],
    [1553548,"2026-05-06 23:50:00","6258","1.7180000000000002","46.99","3.463","27.53","1013.645","16.78","74.5","NAN","0.0"],
    [1553549,"2026-05-07 00:00:00","6259","2.114","55.46","4.606","69.62","1013.633","16.63","76.08","NAN","0.0"],
    [1553550,"2026-05-07 00:10:00","6260","2.144","57.42","4.671","69.49","1013.6339999999999","16.64","77.39","NAN","0.0"],
    [1553551,"2026-05-07 00:20:00","6261","1.709","60.74","3.887","40.99","1013.553","16.56","79.48","NAN","0.0"],
    [1553552,"2026-05-07 00:30:00","6262","2.059","50.77","4.475","39.6","1013.454","16.44","77.3","NAN","0.0"],
    [1553553,"2026-05-07 00:40:00","6263","1.4569999999999999","52.65","3.659","66.51","1013.435","16.45","75.1","NAN","0.0"],
    [1553554,"2026-05-07 00:50:00","6264","1.517","59.2","3.463","63.74","1013.437","16.46","75.52","NAN","0.0"],
    [1553555,"2026-05-07 01:00:00","6265","1.71","56.1","4.279","72.01","1013.37","16.45","77.23","NAN","0.0"],
    [1553556,"2026-05-07 01:10:00","6266","1.921","73.48","3.136","75.61","1013.329","16.45","80.6","NAN","0.0"],
    [1553557,"2026-05-07 01:20:00","6267","1.53","66.57","3.071","72.87","1013.318","16.35","82.2","NAN","0.0"],
    [1553558,"2026-05-07 01:30:00","6268","1.7930000000000001","43.11","3.136","31.66","1013.327","16.24","81.4","NAN","0.0"],
    [1553559,"2026-05-07 01:40:00","6269","1.55","42.49","2.875","56.71","1013.308","16.13","81.6","NAN","0.0"],
    [1553560,"2026-05-07 01:50:00","6270","1.01","34.64","2.0909999999999997","53.2","1013.252","16.04","80.8","NAN","0.0"],
    [1553561,"2026-05-07 02:00:00","6271","0.746","16.98","2.254","13.34","1013.18","15.98","79.64","NAN","0.0"],
    [1553562,"2026-05-07 02:10:00","6272","0.997","33.2","2.156","8.31","1013.09","15.88","79.06","NAN","0.0"],
    [1553563,"2026-05-07 02:20:00","6273","0.8220000000000001","23.78","1.829","59.12","1013.082","15.76","78.82","NAN","0.0"],
    [1553564,"2026-05-07 02:30:00","6274","0.653","35.75","1.568","55.52","1013.115","15.69","78.64","NAN","0.0"],
    [1553565,"2026-05-07 02:40:00","6275","0.496","30.99","1.764","350.8","1013.0989999999999","15.69","78.36","NAN","0.0"],
    [1553566,"2026-05-07 02:50:00","6276","0.628","10.93","1.4369999999999998","356.4","1013.207","15.71","77.38","NAN","0.0"],
    [1553567,"2026-05-07 03:00:00","6277","1.067","17.35","2.156","9.57","1013.221","15.76","76.22","NAN","0.0"],
    [1553568,"2026-05-07 03:10:00","6278","0.8540000000000001","42.09","1.764","45.79","1013.2130000000001","15.74","76.12","NAN","0.0"],
    [1553569,"2026-05-07 03:20:00","6279","0.621","14.81","1.274","348.8","1013.238","15.66","76.33","NAN","0.0"],
    [1553570,"2026-05-07 03:30:00","6280","0.7120000000000001","8.9","1.5030000000000001","19.58","1013.137","15.64","76.35","NAN","0.0"],
    [1553571,"2026-05-07 03:40:00","6281","0.77","14.12","2.221","18.6","1013.0880000000001","15.59","76.34","NAN","0.0"],
    [1553572,"2026-05-07 03:50:00","6282","0.7040000000000001","18.41","1.764","14.12","1013.0060000000001","15.55","76.52","NAN","0.0"],
    [1553573,"2026-05-07 04:00:00","6283","0.34700000000000003","26.5","0.9470000000000001","9.56","1013.077","15.52","76.6","NAN","0.0"],
    [1553574,"2026-05-07 04:10:00","6284","0.7020000000000001","35.19","1.5030000000000001","37.03","1013.092","15.45","76.95","NAN","0.0"],
    [1553575,"2026-05-07 04:20:00","6285","0.722","31.15","2.189","24.47","1013.097","15.38","77.39","NAN","0.0"],
    [1553576,"2026-05-07 04:30:00","6286","0.71","23.43","2.189","359.8","1013.091","15.32","77.53","NAN","0.0"],
    [1553577,"2026-05-07 04:40:00","6287","0.821","19.32","2.123","37.72","1013.095","15.32","77.49","NAN","0.0"],
    [1553578,"2026-05-07 04:50:00","6288","0.867","29.95","2.123","60.63","1013.0419999999999","15.21","78.1","NAN","0.0"],
    [1553579,"2026-05-07 05:00:00","6289","1.07","13.04","3.332","24.07","1013.0319999999999","15.21","78.19","NAN","0.0"],
    [1553580,"2026-05-07 05:10:00","6290","0.826","15.68","1.993","10.63","1013.127","15.15","78.41","NAN","0.0"],
    [1553581,"2026-05-07 05:20:00","6291","0.7390000000000001","40.79","1.47","53.47","1013.331","15.26","78.07","NAN","0.0"],
    [1553582,"2026-05-07 05:30:00","6292","0.8290000000000001","21.88","2.0580000000000003","0.079","1013.441","15.35","77.62","NAN","0.0"],
    [1553583,"2026-05-07 05:40:00","6293","0.925","30.61","2.123","24.98","1013.4","15.39","77.21","NAN","0.0"],
    [1553584,"2026-05-07 05:50:00","6294","1.094","4.505","2.417","7.984","1013.492","15.6","76.35","NAN","0.0"],
    [1553585,"2026-05-07 06:00:00","6295","0.75","20.12","2.254","8.97","1013.597","15.79","75.31","NAN","0.0"],
    [1553586,"2026-05-07 06:10:00","6296","0.7020000000000001","19.58","1.829","9.31","1013.699","15.97","74.51","NAN","0.0"],
    [1553587,"2026-05-07 06:20:00","6297","0.932","17.96","1.993","22.85","1013.7539999999999","16.18","73.48","NAN","0.0"],
    [1553588,"2026-05-07 06:30:00","6298","1.036","40.53","2.319","53.36","1013.79","16.2","73.73","NAN","0.0"],
    [1553589,"2026-05-07 06:40:00","6299","1.392","58.37","3.528","51.94","1013.97","16.62","73.33","NAN","0.0"],
    [1553590,"2026-05-07 06:50:00","6300","1.6569999999999998","44.96","2.94","34.09","1014.0239999999999","16.85","72.61","NAN","0.0"],
    [1553591,"2026-05-07 07:00:00","6301","1.375","42.63","2.483","30.07","1014.189","16.8","73.1","NAN","0.0"],
    [1553592,"2026-05-07 07:10:00","6302","1.3130000000000002","58.62","2.613","59.93","1014.2330000000001","16.86","74","NAN","0.0"],
    [1553593,"2026-05-07 07:20:00","6303","1.446","53.34","2.679","51.41","1014.258","16.81","74.32","NAN","0.0"],
    [1553594,"2026-05-07 07:30:00","6304","1.6119999999999999","70.42","3.463","57.3","1014.313","16.91","75.35","NAN","0.0"],
    [1553595,"2026-05-07 07:40:00","6305","1.73","83.6","3.0380000000000003","94.5","1014.2660000000001","16.82","76.61","NAN","0.0"],
    [1553596,"2026-05-07 07:50:00","6306","2.148","90.8","3.985","84.6","1014.3330000000001","16.72","77.45","NAN","0.0"],
    [1553597,"2026-05-07 08:00:00","6307","2.62","92.9","4.2139999999999995","67.39","1014.337","16.57","77.48","NAN","0.0"],
    [1553598,"2026-05-07 08:10:00","6308","2.438","91.3","4.2139999999999995","67.03","1014.2719999999999","17.2","72.45","NAN","0.0"],
    [1553599,"2026-05-07 08:20:00","6309","2.573","83.3","4.541","73.75","1014.262","17.39","72.25","NAN","0.0"],
    [1553600,"2026-05-07 08:30:00","6310","2.479","84.3","3.855","67.94","1014.2819999999999","17.28","72.32","NAN","0.0"],
    [1553601,"2026-05-07 08:40:00","6311","2.656","89.3","4.802","69.17","1014.293","17.45","70.54","NAN","0.0"],
    [1553602,"2026-05-07 08:50:00","6312","3.088","101.1","5.684","113.8","1014.211","17.87","67.81","NAN","0.0"],
    [1553603,"2026-05-07 09:00:00","6313","3.478","101.8","5.422999999999999","106.8","1014.2610000000001","17.81","67.74","NAN","0.0"],
    [1553604,"2026-05-07 09:10:00","6314","3.117","105.5","5.325","105.5","1014.4","17.97","67.13","NAN","0.0"],
    [1553605,"2026-05-07 09:20:00","6315","2.721","102.3","5.031000000000001","116.5","1014.4889999999999","18.18","66.33","NAN","0.0"],
    [1553606,"2026-05-07 09:30:00","6316","3.569","101.9","5.847","112.6","1014.534","17.84","66","NAN","0.0"],
    [1553607,"2026-05-07 09:40:00","6317","3.074","103.4","4.933","111.9","1014.5989999999999","17.94","64.82","NAN","0.0"],
    [1553608,"2026-05-07 09:50:00","6318","3.2889999999999997","109.5","5.292000000000001","117.6","1014.6260000000001","17.88","65.52","NAN","0.0"],
    [1553609,"2026-05-07 10:00:00","6319","2.775","104.3","5.619","113.1","1014.688","18.05","65.95","NAN","0.0"],
    [1553610,"2026-05-07 10:10:00","6320","2.912","108.9","4.638999999999999","115.5","1014.6210000000001","18.15","65.48","NAN","0.0"],
    [1553611,"2026-05-07 10:20:00","6321","2.6239999999999997","103.9","5.129","77.35","1014.566","18.24","65.52","NAN","0.0"],
    [1553612,"2026-05-07 10:30:00","6322","3.136","108.7","5.521","103.8","1014.461","18.16","65.4","NAN","0.0"],
    [1553613,"2026-05-07 10:40:00","6323","3.4560000000000004","105.2","6.042999999999999","114.7","1014.2919999999999","17.97","65.91","NAN","0.0"],
    [1553614,"2026-05-07 10:50:00","6324","3.2119999999999997","107.8","5.1610000000000005","110.1","1014.21","17.88","66.43","NAN","0.0"],
    [1553615,"2026-05-07 11:00:00","6325","3.095","103.2","6.1739999999999995","103.4","1014.198","18.02","66.6","NAN","0.0"],
    [1553616,"2026-05-07 11:10:00","6326","2.7119999999999997","99.2","4.508","118.7","1014.068","18.06","65.55","NAN","0.0"],
    [1553617,"2026-05-07 11:20:00","6327","2.81","108.6","5.1610000000000005","118.2","1013.9810000000001","18.09","65.59","NAN","0.0"],
    [1553618,"2026-05-07 11:30:00","6328","2.835","116.7","4.638999999999999","93.2","1014.048","17.87","65.48","NAN","0.0"],
    [1553619,"2026-05-07 11:40:00","6329","2.5469999999999997","125.4","4.933","130.1","1013.953","18.12","65.67","NAN","0.0"],
    [1553620,"2026-05-07 11:50:00","6330","2.5810000000000004","132.8","4.083","142.4","1014.046","18.01","65.46","NAN","0.0"],
    [1553621,"2026-05-07 12:00:00","6331","2.67","121.0","4.638999999999999","103.7","1013.9680000000001","18.06","66.41","NAN","0.0"],
    [1553622,"2026-05-07 12:10:00","6332","3.0269999999999997","125.0","5.815","109.4","1013.943","17.95","66.75","NAN","0.0"],
    [1553623,"2026-05-07 12:20:00","6333","2.3890000000000002","130.8","4.247","131.0","1013.831","18.22","65.77","NAN","0.0"],
    [1553624,"2026-05-07 12:30:00","6334","2.747","120.4","4.377","112.5","1013.7819999999999","18.04","65.78","NAN","0.0"],
    [1553625,"2026-05-07 12:40:00","6335","2.58","124.3","5.129","103.3","1013.7510000000001","18.31","65.1","NAN","0.0"],
    [1553626,"2026-05-07 12:50:00","6336","2.765","136.0","4.769","120.5","1013.692","18.13","63.01","NAN","0.0"],
    [1553627,"2026-05-07 13:00:00","6337","2.4330000000000003","118.9","4.4430000000000005","101.6","1013.495","18.18","62.98","NAN","0.0"],
    [1553628,"2026-05-07 13:10:00","6338","2.88","122.5","4.638999999999999","116.7","1013.373","17.96","62.89","NAN","0.0"],
    [1553629,"2026-05-07 13:20:00","6339","2.8789999999999996","115.3","5.031000000000001","113.2","1013.2710000000001","18.14","61.25","NAN","0.0"],
    [1553630,"2026-05-07 13:30:00","6340","2.635","118.4","5.2589999999999995","99.3","1013.194","18.1","61.25","NAN","0.0"],
    [1553631,"2026-05-07 13:40:00","6341","2.742","109.6","5.031000000000001","111.7","1013.201","17.99","61.95","NAN","0.0"],
    [1553632,"2026-05-07 13:50:00","6342","2.713","100.1","4.835","116.5","1013.046","18.09","62.79","NAN","0.0"],
    [1553633,"2026-05-07 14:00:00","6343","2.9160000000000004","105.7","4.802","112.9","1012.74","18.17","63.04","NAN","0.0"],
    [1553634,"2026-05-07 14:10:00","6344","3.056","107.6","5.2589999999999995","109.4","1012.72","17.71","64.94","NAN","0.0"],
    [1553635,"2026-05-07 14:20:00","6345","2.85","96.9","5.194","114.5","1012.591","18.16","64.08","NAN","0.0"],
    [1553636,"2026-05-07 14:30:00","6346","2.372","104.4","4.279","116.6","1012.546","18.18","64.16","NAN","0.0"],
    [1553637,"2026-05-07 14:40:00","6347","2.633","91.2","4.867","61.72","1012.471","18.18","64.35","NAN","0.0"],
    [1553638,"2026-05-07 14:50:00","6348","2.503","107.0","3.92","108.0","1012.6439999999999","18.04","65.08","NAN","0.0"],
    [1553639,"2026-05-07 15:00:00","6349","3.375","113.7","5.553","94.8","1012.461","17.74","66.64","NAN","0.0"],
    [1553640,"2026-05-07 15:10:00","6350","2.367","103.8","5.096","119.4","1012.462","17.92","67.02","NAN","0.0"],
    [1553641,"2026-05-07 15:20:00","6351","3.057","123.2","5.063","113.1","1012.454","17.66","68.22","NAN","0.0"],
    [1553642,"2026-05-07 15:30:00","6352","2.523","110.8","3.9530000000000003","85.3","1012.362","17.65","69.06","NAN","0.0"],
    [1553643,"2026-05-07 15:40:00","6353","2.273","98.2","4.312","93.6","1012.187","18.01","68.58","NAN","0.0"],
    [1553644,"2026-05-07 15:50:00","6354","3.036","102.6","4.998","106.9","1012.07","17.9","69.22","NAN","0.0"],
    [1553645,"2026-05-07 16:00:00","6355","2.575","98.2","4.312","107.2","1011.951","17.86","69.85","NAN","0.0"],
    [1553646,"2026-05-07 16:10:00","6356","3.1319999999999997","104.8","5.031000000000001","104.5","1011.919","17.72","70.24","NAN","0.0"],
    [1553647,"2026-05-07 16:20:00","6357","2.977","107.0","5.292000000000001","106.3","1011.825","17.58","71","NAN","0.0"],
    [1553648,"2026-05-07 16:30:00","6358","2.62","90.3","4.4430000000000005","85.4","1011.8489999999999","17.87","69.96","NAN","0.0"],
    [1553649,"2026-05-07 16:40:00","6359","2.175","98.9","3.92","106.8","1012.005","17.85","70.5","NAN","0.0"],
    [1553650,"2026-05-07 16:50:00","6360","2.5810000000000004","93.7","4.508","118.0","1012.0830000000001","17.59","71.77","NAN","0.0"],
    [1553651,"2026-05-07 17:00:00","6361","2.5989999999999998","90.9","5.325","88.2","1012.1039999999999","17.71","71.04","NAN","0.0"],
    [1553652,"2026-05-07 17:10:00","6362","2.555","102.8","4.606","101.6","1012.211","17.69","71.51","NAN","0.0"],
    [1553653,"2026-05-07 17:20:00","6363","1.95","101.2","3.855","91.0","1012.334","17.62","72.1","NAN","0.0"],
    [1553654,"2026-05-07 17:30:00","6364","2.39","110.4","4.41","117.8","1012.31","17.55","72.55","NAN","0.0"],
    [1553655,"2026-05-07 17:40:00","6365","2.275","90.3","4.181","103.1","1012.26","17.36","72.88","NAN","0.0"],
    [1553656,"2026-05-07 17:50:00","6366","2.15","79.26","3.6260000000000003","103.1","1012.2339999999999","17.52","72.4","NAN","0.0"],
    [1553657,"2026-05-07 18:00:00","6367","1.646","73.85","3.463","58.38","1012.295","17.57","72.37","NAN","0.0"],
    [1553658,"2026-05-07 18:10:00","6368","2.065","85.0","4.018","78.44","1012.387","17.6","72.41","NAN","0.0"],
    [1553659,"2026-05-07 18:20:00","6369","2.1430000000000002","85.1","3.7569999999999997","75.39","1012.4110000000001","17.46","72.65","NAN","0.0"],
    [1553660,"2026-05-07 18:30:00","6370","1.671","98.8","2.907","97.9","1012.523","17.37","74.06","NAN","0.0"],
    [1553661,"2026-05-07 18:40:00","6371","2.12","87.4","3.365","92.1","1012.5989999999999","17.4","74.23","NAN","0.0"],
    [1553662,"2026-05-07 18:50:00","6372","2.017","83.6","3.495","76.39","1012.763","17.29","74.75","NAN","0.0"],
    [1553663,"2026-05-07 19:00:00","6373","1.538","66.83","2.8089999999999997","68.14","1012.778","17.36","74.63","NAN","0.0"],
    [1553664,"2026-05-07 19:10:00","6374","1.466","81.8","3.071","76.18","1012.823","17.31","74.68","NAN","0.0"],
    [1553665,"2026-05-07 19:20:00","6375","1.47","60.5","2.907","63.93","1013.007","17.26","74.64","NAN","0.0"],
    [1553666,"2026-05-07 19:30:00","6376","1.588","69.46","2.907","69.52","1013.159","17.22","75.27","NAN","0.0"],
    [1553667,"2026-05-07 19:40:00","6377","1.6340000000000001","81.2","2.7439999999999998","76.13","1013.2739999999999","17.24","75.04","NAN","0.0"],
    [1553668,"2026-05-07 19:50:00","6378","1.217","73.52","2.385","90.9","1013.342","17.21","75.09","NAN","0.0"],
    [1553669,"2026-05-07 20:00:00","6379","1.42","60.76","2.6460000000000004","54.14","1013.413","17.19","74.91","NAN","0.0"],
    [1553670,"2026-05-07 20:10:00","6380","1.526","46.7","2.7439999999999998","36.38","1013.573","17.1","74.07","NAN","0.0"],
    [1553671,"2026-05-07 20:20:00","6381","1.67","72.99","2.7769999999999997","86.1","1013.7330000000001","17.11","75.26","NAN","0.0"],
    [1553672,"2026-05-07 20:30:00","6382","1.338","75.97","2.6460000000000004","96.0","1013.883","17.2","75.59","NAN","0.0"],
    [1553673,"2026-05-07 20:40:00","6383","1.8780000000000001","95.7","3.267","106.3","1014.029","17.19","75.93","NAN","0.0"],
    [1553674,"2026-05-07 20:50:00","6384","1.5919999999999999","85.8","2.8089999999999997","75.49","1014.039","17.16","76.11","NAN","0.0"],
    [1553675,"2026-05-07 21:00:00","6385","1.4880000000000002","78.77","2.842","103.0","1014.0060000000001","17.18","75.76","NAN","0.0"],
    [1553676,"2026-05-07 21:10:00","6386","1.2009999999999998","85.8","2.287","91.3","1014.023","17.14","76.12","NAN","0.0"],
    [1553677,"2026-05-07 21:20:00","6387","1.485","87.5","2.515","85.0","1014.035","17.09","76.89","NAN","0.0"],
    [1553678,"2026-05-07 21:30:00","6388","1.454","89.8","2.319","72.03","1014.0269999999999","17.04","76.74","NAN","0.0"],
    [1553679,"2026-05-07 21:40:00","6389","1.4069999999999998","77.51","2.5810000000000004","68.96","1014.04","16.99","76.83","NAN","0.0"],
    [1553680,"2026-05-07 21:50:00","6390","1.034","83.5","1.993","78.07","1014.043","17.02","76.65","NAN","0.0"],
    [1553681,"2026-05-07 22:00:00","6391","1.0090000000000001","60.07","1.96","28.01","1013.993","17.05","76.83","NAN","0.0"],
    [1553682,"2026-05-07 22:10:00","6392","0.93","56.41","1.764","77.75","1013.922","17","76.74","NAN","0.0"],
    [1553683,"2026-05-07 22:20:00","6393","1.067","45.58","1.9269999999999998","37.57","1013.9010000000001","16.97","76.77","NAN","0.0"],
    [1553684,"2026-05-07 22:30:00","6394","0.645","48.2","1.339","56.3","1013.785","16.94","76.45","NAN","0.0"],
    [1553685,"2026-05-07 22:40:00","6395","0.727","46.93","1.601","29.52","1013.806","16.95","76.82","NAN","0.0"],
    [1553686,"2026-05-07 22:50:00","6396","0.8","60.46","1.3719999999999999","64.74","1013.7660000000001","16.98","76.49","NAN","0.0"],
    [1553687,"2026-05-07 23:00:00","6397","0.909","61.25","1.666","67.22","1013.669","16.99","76.45","NAN","0.0"],
    [1553688,"2026-05-07 23:10:00","6398","0.742","49.47","2.0580000000000003","66.98","1013.566","16.98","76.17","NAN","0.0"],
    [1553689,"2026-05-07 23:20:00","6399","0.852","67.31","2.0580000000000003","66.98","1013.513","16.95","75.8","NAN","0.0"],
    [1553690,"2026-05-07 23:30:00","6400","0.555","66.09","1.078","52.9","1013.433","16.87","75.88","NAN","0.0"],
    [1553691,"2026-05-07 23:40:00","6401","0.48100000000000004","63.64","0.8490000000000001","78.65","1013.382","16.83","75.75","NAN","0.0"],
    [1553692,"2026-05-07 23:50:00","6402","0.677","35.48","1.078","38.13","1013.373","16.81","75.57","NAN","0.0"],
    [1553693,"2026-05-08 00:00:00","6403","0.5870000000000001","56.73","1.143","51.8","1013.325","16.82","75.46","NAN","0.0"],
    [1553694,"2026-05-08 00:10:00","6404","0.867","50.84","1.535","58.89","1013.2439999999999","16.82","75.05","NAN","0.0"],
    [1553695,"2026-05-08 00:20:00","6405","0.561","67.52","1.339","63.65","1013.186","16.8","74.7","NAN","0.0"],
    [1553696,"2026-05-08 00:30:00","6406","0.888","50.31","1.535","60.82","1013.133","16.77","74.26","NAN","0.0"],
    [1553697,"2026-05-08 00:40:00","6407","0.8540000000000001","44.82","1.699","17.71","1013.0369999999999","16.8","72.9","NAN","0.0"],
    [1553698,"2026-05-08 00:50:00","6408","0.665","46.33","1.339","40.25","1012.937","16.82","72.22","NAN","0.0"],
    [1553699,"2026-05-08 01:00:00","6409","0.8","48.55","1.339","22.13","1012.909","16.76","72.36","NAN","0.0"],
    [1553700,"2026-05-08 01:10:00","6410","0.893","52.56","1.3719999999999999","54.43","1012.791","16.72","72.78","NAN","0.0"],
    [1553701,"2026-05-08 01:20:00","6411","0.539","54.43","1.3719999999999999","50.34","1012.684","16.66","72.72","NAN","0.0"],
    [1553702,"2026-05-08 01:30:00","6412","0.081","300.3","0.7509999999999999","3.284","1012.6189999999999","16.8","71.73","NAN","0.0"],
    [1553703,"2026-05-08 01:40:00","6413","0.24600000000000002","169.4","0.6859999999999999","160.9","1012.546","16.91","71.78","NAN","0.0"],
    [1553704,"2026-05-08 01:50:00","6414","0.133","137.7","0.621","147.6","1012.533","16.78","73.77","NAN","0.0"],
    [1553705,"2026-05-08 02:00:00","6415","0.09300000000000001","82.0","0.392","148.2","1012.427","16.73","73.53","NAN","0.0"],
    [1553706,"2026-05-08 02:10:00","6416","0.38299999999999995","32.29","0.7509999999999999","53.06","1012.317","16.69","73.58","NAN","0.0"],
    [1553707,"2026-05-08 02:20:00","6417","0.768","46.81","1.405","34.29","1012.299","16.54","73.93","NAN","0.0"],
    [1553708,"2026-05-08 02:30:00","6418","0.23600000000000002","68.41","0.7190000000000001","81.0","1012.308","16.39","74.26","NAN","0.0"],
    [1553709,"2026-05-08 02:40:00","6419","0.188","69.93","0.8490000000000001","71.25","1012.25","16.36","74.07","NAN","0.0"],
    [1553710,"2026-05-08 02:50:00","6420","0.152","59.14","0.7190000000000001","56.09","1012.1489999999999","16.21","74","NAN","0.0"],
    [1553711,"2026-05-08 03:00:00","6421","0.35200000000000004","51.27","0.882","59.71","1012.102","16.19","73.58","NAN","0.0"],
    [1553712,"2026-05-08 03:10:00","6422","0.002","25.31","0.196","25.01","1012.096","16","74.48","NAN","0.0"],
    [1553713,"2026-05-08 03:20:00","6423","0.092","30.51","0.915","24.56","1012.085","15.86","75.68","NAN","0.0"],
    [1553714,"2026-05-08 03:30:00","6424","0.5660000000000001","44.87","1.209","57.41","1012.0139999999999","15.88","75.93","NAN","0.0"],
    [1553715,"2026-05-08 03:40:00","6425","0.516","36.56","1.078","354.4","1012.008","15.89","75.47","NAN","0.0"],
    [1553716,"2026-05-08 03:50:00","6426","0.753","22.2","1.7309999999999999","14.26","1011.9760000000001","15.81","76.07","NAN","0.0"],
    [1553717,"2026-05-08 04:00:00","6427","0.588","41.12","0.9470000000000001","53.48","1012.096","15.63","75.95","NAN","0.0"],
    [1553718,"2026-05-08 04:10:00","6428","0.48200000000000004","6.975","0.98","354.3","1012.1","15.56","75.72","NAN","0.0"],
    [1553719,"2026-05-08 04:20:00","6429","1.124","1.629","1.895","8.43","1012.1","15.67","73.79","NAN","0.0"],
    [1553720,"2026-05-08 04:30:00","6430","0.585","15.76","1.143","355.5","1012.125","15.53","74.38","NAN","0.0"],
    [1553721,"2026-05-08 04:40:00","6431","0.32799999999999996","46.18","0.7190000000000001","54.22","1012.294","15.36","75.13","NAN","0.0"],
    [1553722,"2026-05-08 04:50:00","6432","0.376","38.1","0.653","16.18","1012.34","15.21","75.87","NAN","0.0"],
    [1553723,"2026-05-08 05:00:00","6433","0.486","38.44","0.882","39.35","1012.345","15.4","74.91","NAN","0.0"],
    [1553724,"2026-05-08 05:10:00","6434","0.5329999999999999","47.98","0.915","26.89","1012.4989999999999","15.51","73.99","NAN","0.0"],
    [1553725,"2026-05-08 05:20:00","6435","0.631","23.21","1.143","36.84","1012.597","15.7","72.97","NAN","0.0"],
    [1553726,"2026-05-08 05:30:00","6436","0.434","43.6","0.915","36.0","1012.7330000000001","15.71","72.87","NAN","0.0"],
    [1553727,"2026-05-08 05:40:00","6437","0.721","11.61","1.3719999999999999","12.26","1012.824","15.82","71.58","NAN","0.0"],
    [1553728,"2026-05-08 05:50:00","6438","0.904","24.96","1.764","32.68","1012.822","16.03","70.63","NAN","0.0"],
    [1553729,"2026-05-08 06:00:00","6439","0.7559999999999999","29.93","1.535","38.98","1012.82","16.02","70.67","NAN","0.0"],
    [1553730,"2026-05-08 06:10:00","6440","0.9109999999999999","44.56","1.633","26.66","1012.801","16.2","69.26","NAN","0.0"],
    [1553731,"2026-05-08 06:20:00","6441","1.0979999999999999","23.63","2.287","8.04","1012.828","16.15","67.99","NAN","0.0"],
    [1553732,"2026-05-08 06:30:00","6442","0.902","33.13","2.254","35.98","1012.85","16.34","67.37","NAN","0.0"],
    [1553733,"2026-05-08 06:40:00","6443","1.3319999999999999","42.95","2.515","60.33","1012.9169999999999","16.33","66.77","NAN","0.0"],
    [1553734,"2026-05-08 06:50:00","6444","0.716","24.05","1.895","17.29","1012.988","16.49","65.94","NAN","0.0"],
    [1553735,"2026-05-08 07:00:00","6445","1.2770000000000001","45.53","2.352","55.49","1013.055","17.01","63.71","NAN","0.0"],
    [1553736,"2026-05-08 07:10:00","6446","0.7659999999999999","37.14","1.9269999999999998","65.99","1013.2289999999999","17.43","62.37","NAN","0.0"],
    [1553737,"2026-05-08 07:20:00","6447","0.9179999999999999","58.22","1.7309999999999999","52.66","1013.316","17.85","62.31","NAN","0.0"],
    [1553738,"2026-05-08 07:30:00","6448","0.963","59.47","2.0909999999999997","59.56","1013.454","18.3","62.55","NAN","0.0"],
    [1553739,"2026-05-08 07:40:00","6449","1.349","71.91","2.7439999999999998","77.77","1013.465","18.44","61.44","NAN","0.0"],
    [1553740,"2026-05-08 07:50:00","6450","1.307","47.93","2.8089999999999997","59.5","1013.553","18.49","59.28","NAN","0.0"],
    [1553741,"2026-05-08 08:00:00","6451","1.465","72.63","2.613","33.11","1013.665","18.49","60.22","NAN","0.0"],
    [1553742,"2026-05-08 08:10:00","6452","1.483","90.6","2.7769999999999997","102.5","1013.7539999999999","18.38","66.11","NAN","0.0"],
    [1553743,"2026-05-08 08:20:00","6453","1.355","89.1","2.5810000000000004","114.6","1013.934","18.23","68.02","NAN","0.0"],
    [1553744,"2026-05-08 08:30:00","6454","1.3780000000000001","107.3","3.136","112.4","1014.0880000000001","18.21","70.04","NAN","0.0"],
    [1553745,"2026-05-08 08:40:00","6455","1.4669999999999999","120.6","2.515","118.3","1014.2","17.9","71.98","NAN","0.0"],
    [1553746,"2026-05-08 08:50:00","6456","1.215","98.7","2.254","108.1","1014.24","18.11","71.63","NAN","0.0"],
    [1553747,"2026-05-08 09:00:00","6457","1.443","107.5","2.7439999999999998","112.8","1014.3939999999999","18.3","71.77","NAN","0.0"],
    [1553748,"2026-05-08 09:10:00","6458","1.2819999999999998","128.8","2.221","160.6","1014.562","18.6","70.57","NAN","0.0"],
    [1553749,"2026-05-08 09:20:00","6459","1.565","132.4","2.5810000000000004","104.3","1014.696","18.27","71.87","NAN","0.0"],
    [1553750,"2026-05-08 09:30:00","6460","1.209","107.4","2.156","89.2","1014.688","18.71","70.95","NAN","0.0"],
    [1553751,"2026-05-08 09:40:00","6461","1.6119999999999999","106.7","3.43","114.6","1014.701","18.87","69.41","NAN","0.0"],
    [1553752,"2026-05-08 09:50:00","6462","1.788","103.4","3.659","107.5","1014.701","18.88","69.65","NAN","0.0"],
    [1553753,"2026-05-08 10:00:00","6463","1.7819999999999998","106.7","2.94","95.4","1014.8430000000001","18.6","71.26","NAN","0.0"],
    [1553754,"2026-05-08 10:10:00","6464","1.81","98.9","3.397","113.0","1014.81","18.56","72.39","NAN","0.0"],
    [1553755,"2026-05-08 10:20:00","6465","1.996","97.6","3.397","117.0","1014.6310000000001","18.64","71.8","NAN","0.0"],
    [1553756,"2026-05-08 10:30:00","6466","1.931","108.2","3.397","95.6","1014.591","18.74","71.37","NAN","0.0"],
    [1553757,"2026-05-08 10:40:00","6467","1.9969999999999999","107.6","3.528","109.3","1014.439","18.73","71.48","NAN","0.0"],
    [1553758,"2026-05-08 10:50:00","6468","1.899","115.0","3.332","117.1","1014.409","18.65","71.41","NAN","0.0"],
    [1553759,"2026-05-08 11:00:00","6469","1.5230000000000001","111.9","2.875","119.5","1014.3919999999999","18.55","71.49","NAN","0.0"],
    [1553760,"2026-05-08 11:10:00","6470","1.295","143.9","2.45","143.1","1014.441","18.79","66.6","NAN","0.0"],
    [1553761,"2026-05-08 11:20:00","6471","1.868","137.3","3.201","174.0","1014.3919999999999","18.55","66.38","NAN","0.0"],
    [1553762,"2026-05-08 11:30:00","6472","1.73","154.8","3.201","136.2","1014.563","18.83","64.8","NAN","0.0"],
    [1553763,"2026-05-08 11:40:00","6473","1.587","140.4","3.103","138.9","1014.462","18.79","64.05","NAN","0.0"],
    [1553764,"2026-05-08 11:50:00","6474","1.865","125.7","3.299","116.3","1014.6160000000001","18.73","64.93","NAN","0.0"],
    [1553765,"2026-05-08 12:00:00","6475","1.9869999999999999","150.0","3.495","152.2","1014.613","18.95","64.57","NAN","0.0"],
    [1553766,"2026-05-08 12:10:00","6476","2.066","123.0","3.332","108.3","1014.5089999999999","19.42","64.66","NAN","0.0"],
    [1553767,"2026-05-08 12:20:00","6477","2.0909999999999997","145.8","3.822","112.4","1014.5160000000001","19.46","65.35","NAN","0.0"],
    [1553768,"2026-05-08 12:30:00","6478","2.371","117.7","3.7239999999999998","98.5","1014.452","19.38","65.46","NAN","0.0"],
    [1553769,"2026-05-08 12:40:00","6479","2.401","124.9","3.887","118.0","1014.467","18.96","67.33","NAN","0.0"],
    [1553770,"2026-05-08 12:50:00","6480","1.97","124.4","3.43","106.9","1014.4010000000001","18.85","68.39","NAN","0.0"],
    [1553771,"2026-05-08 13:00:00","6481","1.661","133.3","2.94","146.4","1014.439","18.63","69.54","NAN","0.0"],
    [1553772,"2026-05-08 13:10:00","6482","1.93","120.8","3.332","110.0","1014.4960000000001","18.6","69.76","NAN","0.0"],
    [1553773,"2026-05-08 13:20:00","6483","1.443","111.1","2.875","85.2","1014.3889999999999","18.67","70.05","NAN","0.0"],
    [1553774,"2026-05-08 13:30:00","6484","2.023","89.4","3.5610000000000004","75.99","1014.222","19.05","69.21","NAN","0.0"],
    [1553775,"2026-05-08 13:40:00","6485","2.305","109.9","3.985","74.72","1014.2230000000001","19.01","69.56","NAN","0.0"],
    [1553776,"2026-05-08 13:50:00","6486","2.4730000000000003","121.5","4.377","112.6","1014.279","18.88","71.14","NAN","0.0"],
    [1553777,"2026-05-08 14:00:00","6487","2.653","126.2","4.279","120.9","1014.2","18.97","70.71","NAN","0.0"],
    [1553778,"2026-05-08 14:10:00","6488","2.551","120.7","4.312","107.9","1014.085","18.94","70.92","NAN","0.0"],
    [1553779,"2026-05-08 14:20:00","6489","2.8930000000000002","107.1","4.606","110.0","1013.938","18.76","71.28","NAN","0.0"],
    [1553780,"2026-05-08 14:30:00","6490","2.234","124.1","4.345","110.1","1013.821","18.77","72.74","NAN","0.0"],
    [1553781,"2026-05-08 14:40:00","6491","2.092","136.2","3.1689999999999996","107.0","1013.7439999999999","18.91","71.43","NAN","0.0"],
    [1553782,"2026-05-08 14:50:00","6492","2.05","134.3","3.463","93.1","1013.791","18.92","70.19","NAN","0.0"],
    [1553783,"2026-05-08 15:00:00","6493","2.392","135.7","4.149","110.3","1013.8660000000001","18.53","70.08","NAN","0.0"],
    [1553784,"2026-05-08 15:10:00","6494","2.479","144.3","4.573","154.8","1013.971","18.79","68.58","NAN","0.0"],
    [1553785,"2026-05-08 15:20:00","6495","2.083","145.5","3.463","116.1","1013.956","18.97","67.99","NAN","0.0"],
    [1553786,"2026-05-08 15:30:00","6496","1.975","154.9","4.1160000000000005","167.7","1013.928","19.11","66.66","NAN","0.0"],
    [1553787,"2026-05-08 15:40:00","6497","2.237","129.9","4.2139999999999995","112.8","1013.814","19.21","66.16","NAN","0.0"],
    [1553788,"2026-05-08 15:50:00","6498","2.495","143.2","4.345","115.2","1013.712","19","67.44","NAN","0.0"],
    [1553789,"2026-05-08 16:00:00","6499","2.428","150.7","4.1160000000000005","158.0","1013.704","18.78","69.32","NAN","0.0"],
    [1553790,"2026-05-08 16:10:00","6500","2.322","145.2","3.495","144.2","1013.6189999999999","18.77","70.05","NAN","0.0"],
    [1553791,"2026-05-08 16:20:00","6501","2.64","152.2","4.965","149.8","1013.49","18.81","70.87","NAN","0.0"],
    [1553792,"2026-05-08 16:30:00","6502","2.326","151.8","3.887","152.7","1013.602","18.58","71.75","NAN","0.0"],
    [1553793,"2026-05-08 16:40:00","6503","2.36","150.6","3.92","154.9","1013.6039999999999","18.65","71.1","NAN","0.0"],
    [1553794,"2026-05-08 16:50:00","6504","2.306","152.8","3.659","150.8","1013.687","18.58","71.12","NAN","0.0"],
    [1553795,"2026-05-08 17:00:00","6505","2.06","137.5","4.377","123.4","1013.702","18.61","71.55","NAN","0.0"],
    [1553796,"2026-05-08 17:10:00","6506","1.902","141.8","3.332","163.6","1013.704","18.67","71.78","NAN","0.0"],
    [1553797,"2026-05-08 17:20:00","6507","1.661","145.2","3.365","153.0","1013.732","18.49","72.36","NAN","0.0"],
    [1553798,"2026-05-08 17:30:00","6508","1.868","127.0","3.071","109.8","1013.721","18.63","71.7","NAN","0.0"],
    [1553799,"2026-05-08 17:40:00","6509","1.661","135.3","2.8089999999999997","112.6","1013.757","18.55","70.87","NAN","0.0"],
    [1553800,"2026-05-08 17:50:00","6510","1.249","124.6","2.515","110.8","1013.747","18.35","71.46","NAN","0.0"],
    [1553801,"2026-05-08 18:00:00","6511","0.695","189.6","1.633","175.6","1013.717","18.38","70.46","NAN","0.0"],
    [1553802,"2026-05-08 18:10:00","6512","0.9690000000000001","161.0","2.156","118.3","1013.715","18.5","68.88","NAN","0.0"],
    [1553803,"2026-05-08 18:20:00","6513","0.9640000000000001","125.8","1.7309999999999999","123.0","1013.783","18.13","70.97","NAN","0.0"],
    [1553804,"2026-05-08 18:30:00","6514","0.629","145.6","1.274","183.4","1014.0210000000001","18.08","70.17","NAN","0.0"],
    [1553805,"2026-05-08 18:40:00","6515","1.443","118.3","2.287","116.9","1014.2130000000001","18.1","71.94","NAN","0.0"],
    [1553806,"2026-05-08 18:50:00","6516","1.287","117.2","1.96","120.4","1014.2689999999999","18","71.99","NAN","0.0"],
    [1553807,"2026-05-08 19:00:00","6517","1.496","122.5","2.6460000000000004","113.6","1014.2719999999999","17.95","73.1","NAN","0.0"],
    [1553808,"2026-05-08 19:10:00","6518","1.406","127.9","2.385","106.7","1014.327","17.91","74.32","NAN","0.0"],
    [1553809,"2026-05-08 19:20:00","6519","1.3869999999999998","120.9","2.319","109.2","1014.429","17.87","75.41","NAN","0.0"],
    [1553810,"2026-05-08 19:30:00","6520","1.443","118.3","2.319","96.7","1014.578","17.82","76.44","NAN","0.0"],
    [1553811,"2026-05-08 19:40:00","6521","1.74","115.9","2.7769999999999997","102.8","1014.643","17.74","76.63","NAN","0.0"],
    [1553812,"2026-05-08 19:50:00","6522","1.6340000000000001","102.5","2.7110000000000003","115.8","1014.694","17.78","76.36","NAN","0.0"],
    [1553813,"2026-05-08 20:00:00","6523","1.5419999999999998","109.8","2.907","95.5","1014.7739999999999","17.82","76.66","NAN","0.0"],
    [1553814,"2026-05-08 20:10:00","6524","1.556","113.4","3.0380000000000003","114.8","1014.81","17.79","77.56","NAN","0.0"],
    [1553815,"2026-05-08 20:20:00","6525","1.331","111.4","2.875","115.3","1014.992","17.78","78.51","NAN","0.0"],
    [1553816,"2026-05-08 20:30:00","6526","1.3519999999999999","116.4","2.483","112.5","1015.0369999999999","17.79","79.11","NAN","0.0"],
    [1553817,"2026-05-08 20:40:00","6527","1.3940000000000001","118.3","2.352","126.9","1015.197","17.74","79.96","NAN","0.0"],
    [1553818,"2026-05-08 20:50:00","6528","1.5430000000000001","113.7","3.005","116.0","1015.293","17.74","80.4","NAN","0.0"],
    [1553819,"2026-05-08 21:00:00","6529","1.177","112.5","1.96","100.2","1015.304","17.74","81.1","NAN","0.0"],
    [1553820,"2026-05-08 21:10:00","6530","1.168","90.8","1.96","74.93","1015.29","17.75","81.1","NAN","0.0"],
    [1553821,"2026-05-08 21:20:00","6531","1.412","106.7","2.7110000000000003","107.6","1015.336","17.81","81.1","NAN","0.0"],
    [1553822,"2026-05-08 21:30:00","6532","1.489","108.0","2.7439999999999998","106.8","1015.289","17.83","82.1","NAN","0.0"],
    [1553823,"2026-05-08 21:40:00","6533","1.578","103.8","2.842","94.3","1015.284","17.8","82.8","NAN","0.0"],
    [1553824,"2026-05-08 21:50:00","6534","1.631","85.0","2.94","86.3","1015.169","17.84","82.4","NAN","0.0"],
    [1553825,"2026-05-08 22:00:00","6535","2.09","105.1","3.332","115.4","1015.27","17.82","82","NAN","0.0"],
    [1553826,"2026-05-08 22:10:00","6536","1.4240000000000002","92.8","2.679","86.8","1015.2639999999999","17.88","81.8","NAN","0.0"],
    [1553827,"2026-05-08 22:20:00","6537","1.7469999999999999","108.7","3.071","115.1","1015.2739999999999","17.91","82.3","NAN","0.0"],
    [1553828,"2026-05-08 22:30:00","6538","1.85","110.3","3.234","93.1","1015.255","17.9","82.7","NAN","0.0"],
    [1553829,"2026-05-08 22:40:00","6539","1.845","95.0","3.201","91.9","1015.199","17.87","83","NAN","0.0"],
    [1553830,"2026-05-08 22:50:00","6540","1.669","108.9","3.071","92.3","1015.1189999999999","17.87","81.6","NAN","0.0"],
    [1553831,"2026-05-08 23:00:00","6541","1.71","113.2","3.071","115.8","1015.045","17.89","80.9","NAN","0.0"],
    [1553832,"2026-05-08 23:10:00","6542","1.249","108.9","2.679","110.7","1015.025","17.95","80.4","NAN","0.0"],
    [1553833,"2026-05-08 23:20:00","6543","1.704","105.9","2.679","112.4","1015.02","17.95","80.5","NAN","0.0"],
    [1553834,"2026-05-08 23:30:00","6544","1.814","101.1","3.397","67.43","1015.01","17.91","80.5","NAN","0.0"],
    [1553835,"2026-05-08 23:40:00","6545","1.635","80.3","2.352","91.9","1015.002","17.9","80.2","NAN","0.0"],
    [1553836,"2026-05-08 23:50:00","6546","1.825","83.8","3.234","75.25","1014.98","17.9","80.7","NAN","0.0"],
    [1553837,"2026-05-09 00:00:00","6547","1.75","70.81","3.365","74.8","1014.823","17.86","83.7","NAN","0.0"],
    [1553838,"2026-05-09 00:10:00","6548","1.348","67.01","2.515","49.58","1014.7710000000001","17.66","85.8","NAN","0.0"],
    [1553839,"2026-05-09 00:20:00","6549","1.554","56.94","3.071","71.44","1014.763","17.61","85.3","NAN","0.0"],
    [1553840,"2026-05-09 00:30:00","6550","1.359","71.0","2.385","28.36","1014.7710000000001","17.62","85.2","NAN","0.2"],
    [1553841,"2026-05-09 00:40:00","6551","0.991","74.92","2.548","82.0","1014.7710000000001","17.59","85.8","NAN","0.0"],
    [1553842,"2026-05-09 00:50:00","6552","1.337","73.55","2.7769999999999997","71.62","1014.748","17.58","87","NAN","0.0"],
    [1553843,"2026-05-09 01:00:00","6553","1.4140000000000001","50.41","2.385","69.72","1014.6089999999999","17.45","85.8","NAN","0.0"],
    [1553844,"2026-05-09 01:10:00","6554","1.435","52.13","2.875","59.92","1014.4060000000001","17.4","84","NAN","0.0"],
    [1553845,"2026-05-09 01:20:00","6555","1.168","63.77","1.9269999999999998","65.49","1014.467","17.34","83.8","NAN","0.0"],
    [1553846,"2026-05-09 01:30:00","6556","0.85","59.2","1.9269999999999998","46.83","1014.461","17.29","84.3","NAN","0.0"],
    [1553847,"2026-05-09 01:40:00","6557","0.958","32.47","1.7309999999999999","21.44","1014.28","17.34","84.2","NAN","0.0"],
    [1553848,"2026-05-09 01:50:00","6558","1.3730000000000002","14.97","2.679","16.9","1014.1","17.26","83.7","NAN","0.0"],
    [1553849,"2026-05-09 02:00:00","6559","0.99","2.012","2.7439999999999998","12.11","1014.033","17.15","83.7","NAN","0.0"],
    [1553850,"2026-05-09 02:10:00","6560","0.8490000000000001","38.0","1.9269999999999998","12.35","1013.862","17.14","84.1","NAN","0.0"],
    [1553851,"2026-05-09 02:20:00","6561","1.0","16.18","2.189","5.142","1013.811","17.12","84.1","NAN","0.0"],
    [1553852,"2026-05-09 02:30:00","6562","0.6679999999999999","355.3","1.601","29.14","1013.78","17.09","84.3","NAN","0.0"],
    [1553853,"2026-05-09 02:40:00","6563","0.669","6.441","1.829","353.2","1013.655","17.11","84.2","NAN","0.0"],
    [1553854,"2026-05-09 02:50:00","6564","1.232","5.407","2.352","10.27","1013.653","17.1","84.2","NAN","0.0"],
    [1553855,"2026-05-09 03:00:00","6565","0.8959999999999999","359.7","2.352","14.63","1013.69","17.1","84.1","NAN","0.0"],
    [1553856,"2026-05-09 03:10:00","6566","0.755","32.28","1.7309999999999999","7.899","1013.665","17.23","83.4","NAN","0.0"],
    [1553857,"2026-05-09 03:20:00","6567","0.688","27.25","1.601","49.25","1013.71","17.22","82.8","NAN","0.0"],
    [1553858,"2026-05-09 03:30:00","6568","0.6809999999999999","57.39","2.0580000000000003","41.51","1013.6030000000001","17.22","83.3","NAN","0.0"],
    [1553859,"2026-05-09 03:40:00","6569","0.71","53.68","2.189","11.7","1013.543","17.23","83.8","NAN","0.0"],
    [1553860,"2026-05-09 03:50:00","6570","1.032","35.18","2.0909999999999997","8.9","1013.5060000000001","17.15","83.8","NAN","0.0"],
    [1553861,"2026-05-09 04:00:00","6571","1.075","38.3","2.319","32.91","1013.419","17.19","83.6","NAN","0.0"],
    [1553862,"2026-05-09 04:10:00","6572","1.077","69.5","2.221","69.76","1013.505","17.23","83.3","NAN","0.0"],
    [1553863,"2026-05-09 04:20:00","6573","1.535","74.45","4.1160000000000005","67.61","1013.454","17.45","83.9","NAN","0.0"],
    [1553864,"2026-05-09 04:30:00","6574","1.9969999999999999","93.8","4.279","81.5","1013.453","17.7","83.9","NAN","0.0"],
    [1553865,"2026-05-09 04:40:00","6575","2.16","88.4","3.7569999999999997","81.4","1013.346","17.7","84.6","NAN","0.0"],
    [1553866,"2026-05-09 04:50:00","6576","1.903","92.2","4.149","107.6","1013.408","17.7","84.8","NAN","0.0"],
    [1553867,"2026-05-09 05:00:00","6577","2.27","79.58","3.855","71.98","1013.382","17.7","85.4","NAN","0.0"],
    [1553868,"2026-05-09 05:10:00","6578","2.483","72.31","4.149","66.82","1013.2310000000001","17.66","85.3","NAN","0.0"],
    [1553869,"2026-05-09 05:20:00","6579","2.188","79.19","3.7239999999999998","81.8","1013.258","17.67","84.7","NAN","0.0"],
    [1553870,"2026-05-09 05:30:00","6580","1.5090000000000001","44.45","3.9530000000000003","80.7","1013.158","17.68","84.2","NAN","0.0"],
    [1553871,"2026-05-09 05:40:00","6581","1.392","9.46","2.679","5.143","1013.2489999999999","17.48","82.9","NAN","0.0"],
    [1553872,"2026-05-09 05:50:00","6582","1.405","13.12","2.515","34.67","1013.2760000000001","17.39","83.5","NAN","0.0"],
    [1553873,"2026-05-09 06:00:00","6583","1.107","21.13","2.189","35.26","1013.3580000000001","17.44","83.8","NAN","0.0"],
    [1553874,"2026-05-09 06:10:00","6584","1.455","11.73","3.855","24.27","1013.291","17.41","84.3","NAN","0.0"],
    [1553875,"2026-05-09 06:20:00","6585","1.5230000000000001","30.54","3.397","21.31","1013.2689999999999","17.36","85","NAN","0.0"],
    [1553876,"2026-05-09 06:30:00","6586","1.6780000000000002","59.34","3.1689999999999996","42.23","1013.363","17.37","84.6","NAN","0.0"],
    [1553877,"2026-05-09 06:40:00","6587","2.515","78.12","5.39","88.2","1013.314","17.72","85.2","NAN","0.0"],
    [1553878,"2026-05-09 06:50:00","6588","1.837","75.48","4.1160000000000005","94.3","1013.303","17.91","84.8","NAN","0.0"],
    [1553879,"2026-05-09 07:00:00","6589","1.996","86.6","3.7889999999999997","103.4","1013.311","18.09","81.4","NAN","0.0"],
    [1553880,"2026-05-09 07:10:00","6590","2.551","90.0","4.1160000000000005","74.75","1013.262","18.3","79.6","NAN","0.0"],
    [1553881,"2026-05-09 07:20:00","6591","2.235","80.7","3.6910000000000003","103.4","1013.112","18.32","79.16","NAN","0.0"],
    [1553882,"2026-05-09 07:30:00","6592","2.741","81.2","4.4430000000000005","82.7","1012.895","18.32","77.94","NAN","0.0"],
    [1553883,"2026-05-09 07:40:00","6593","2.661","86.5","4.998","102.5","1012.7760000000001","18.23","80.1","NAN","0.0"],
    [1553884,"2026-05-09 07:50:00","6594","3.801","78.2","7.187","70.25","1012.7460000000001","18.12","84.9","NAN","0.0"],
    [1553885,"2026-05-09 08:00:00","6595","3.605","79.83","6.729","70.26","1012.686","18.06","84.9","NAN","0.0"],
    [1553886,"2026-05-09 08:10:00","6596","3.911","70.07","6.697","60.79","1012.559","17.9","84.9","NAN","0.0"],
    [1553887,"2026-05-09 08:20:00","6597","3.787","69.68","7.218999999999999","61.08","1012.5930000000001","17.91","84.9","NAN","0.0"],
    [1553888,"2026-05-09 08:30:00","6598","3.873","72.52","6.7620000000000005","65.25","1012.654","17.95","85.2","NAN","0.0"],
    [1553889,"2026-05-09 08:40:00","6599","3.839","77.44","6.86","84.9","1012.574","18.08","83.8","NAN","0.0"],
    [1553890,"2026-05-09 08:50:00","6600","2.969","78.98","5.7170000000000005","84.5","1012.7360000000001","18.37","82.4","NAN","0.0"],
    [1553891,"2026-05-09 09:00:00","6601","3.9210000000000003","81.8","6.37","76.95","1012.7760000000001","18.55","80.6","NAN","0.0"],
    [1553892,"2026-05-09 09:10:00","6602","3.483","74.36","7.023","93.9","1012.8989999999999","18.7","79.69","NAN","0.0"],
    [1553893,"2026-05-09 09:20:00","6603","3.435","72.27","5.945","62.29","1013.11","18.61","80.1","NAN","0.0"],
    [1553894,"2026-05-09 09:30:00","6604","3.9360000000000004","77.07","6.9910000000000005","86.6","1013.052","18.54","80.4","NAN","0.0"],
    [1553895,"2026-05-09 09:40:00","6605","3.47","82.1","5.749","91.1","1013.194","18.6","80.4","NAN","0.0"],
    [1553896,"2026-05-09 09:50:00","6606","3.675","76.13","6.305","65.77","1013.418","18.5","80.6","NAN","0.0"],
    [1553897,"2026-05-09 10:00:00","6607","2.978","79.0","5.325","77.45","1013.485","18.6","80.2","NAN","0.0"],
    [1553898,"2026-05-09 10:10:00","6608","2.929","77.58","5.39","69.9","1013.6","18.72","80.5","NAN","0.0"],
    [1553899,"2026-05-09 10:20:00","6609","3.505","83.2","6.207000000000001","83.2","1013.77","18.72","80.1","NAN","0.0"],
    [1553900,"2026-05-09 10:30:00","6610","3.438","89.8","5.619","79.88","1013.748","18.67","79.36","NAN","0.0"],
    [1553901,"2026-05-09 10:40:00","6611","3.7510000000000003","91.2","6.109","88.0","1013.549","18.78","78.48","NAN","0.0"],
    [1553902,"2026-05-09 10:50:00","6612","2.971","65.12","6.011","63.59","1013.3739999999999","19.03","76.72","NAN","0.0"],
    [1553903,"2026-05-09 11:00:00","6613","3.338","71.25","6.207000000000001","62.88","1013.346","18.83","78.01","NAN","0.0"],
    [1553904,"2026-05-09 11:10:00","6614","3.927","90.5","6.272","100.3","1013.6","18.7","79.59","NAN","0.0"],
    [1553905,"2026-05-09 11:20:00","6615","3.7969999999999997","85.2","6.337000000000001","89.2","1013.7389999999999","17.86","84.5","NAN","0.1"],
    [1553906,"2026-05-09 11:30:00","6616","1.781","62.13","4.573","77.94","1013.6439999999999","17.25","89.4","NAN","1.1"],
    [1553907,"2026-05-09 11:40:00","6617","2.457","68.03","5.521","65.2","1013.455","17.37","90","NAN","0.0"],
    [1553908,"2026-05-09 11:50:00","6618","3.412","72.73","5.912999999999999","84.1","1013.1210000000001","17.87","84.4","NAN","0.0"],
    [1553909,"2026-05-09 12:00:00","6619","3.7560000000000002","74.43","6.272","69.35","1012.615","18.01","82.7","NAN","0.0"],
    [1553910,"2026-05-09 12:10:00","6620","2.34","56.36","4.4430000000000005","35.35","1012.2289999999999","18.09","82.9","NAN","0.0"],
    [1553911,"2026-05-09 12:20:00","6621","2.6210000000000004","56.19","5.063","24.99","1011.801","18.1","82.5","NAN","0.0"],
    [1553912,"2026-05-09 12:30:00","6622","2.85","76.58","5.586","84.3","1011.5210000000001","18.1","82.4","NAN","0.0"],
    [1553913,"2026-05-09 12:40:00","6623","3.3560000000000003","77.39","7.6770000000000005","75.63","1011.169","18.09","82.3","NAN","0.0"],
    [1553914,"2026-05-09 12:50:00","6624","2.86","65.38","6.5329999999999995","59.37","1010.942","18.12","80.5","NAN","0.0"],
    [1553915,"2026-05-09 13:00:00","6625","2.7230000000000003","53.48","6.468","28.58","1011.202","18.11","81.3","NAN","0.0"],
    [1553916,"2026-05-09 13:10:00","6626","1.5219999999999998","57.36","3.365","35.89","1012.0419999999999","18.15","82.7","NAN","0.0"],
    [1553917,"2026-05-09 13:20:00","6627","1.5959999999999999","57.75","4.247","18.74","1012.442","18.05","84.2","NAN","0.1"],
    [1553918,"2026-05-09 13:30:00","6628","1.858","83.0","4.181","73.57","1012.8330000000001","17.76","85.2","NAN","0.2"],
    [1553919,"2026-05-09 13:40:00","6629","2.289","95.8","3.822","98.8","1013.0089999999999","17.57","85.9","NAN","0.6"],
    [1553920,"2026-05-09 13:50:00","6630","2.488","102.2","4.083","100.7","1012.862","17.33","87.1","NAN","0.7"],
    [1553921,"2026-05-09 14:00:00","6631","3.032","91.6","7.121","96.5","1012.447","17.31","88","NAN","0.7"],
    [1553922,"2026-05-09 14:10:00","6632","4.375","87.1","8.62","87.8","1012.1610000000001","17.09","86.1","NAN","0.3"],
    [1553923,"2026-05-09 14:20:00","6633","4.292","75.74","7.4479999999999995","99.5","1011.2639999999999","17","88","NAN","0.6"],
    [1553924,"2026-05-09 14:30:00","6634","5.721","68.86","10.29","60.23","1010.14","16.57","89.1","NAN","1.4"],
    [1553925,"2026-05-09 14:40:00","6635","4.1080000000000005","67.22","10.0","78.94","1009.525","16.46","90.6","NAN","0.8"],
    [1553926,"2026-05-09 14:50:00","6636","3.475","41.97","6.435","42.47","1009.285","16.49","92","NAN","0.3"],
    [1553927,"2026-05-09 15:00:00","6637","3.036","50.07","7.121","7.227","1009.4760000000001","16.41","93","NAN","0.2"],
    [1553928,"2026-05-09 15:10:00","6638","2.7569999999999997","84.8","7.415","79.7","1011.43","16.45","90.9","NAN","0.2"],
    [1553929,"2026-05-09 15:20:00","6639","2.719","98.3","6.011","112.0","1012.3969999999999","16.69","82.7","NAN","0.2"],
    [1553930,"2026-05-09 15:30:00","6640","1.9809999999999999","102.7","4.083","67.59","1012.7","16.47","79.1","NAN","0.5"],
    [1553931,"2026-05-09 15:40:00","6641","1.6580000000000001","124.4","3.659","110.3","1013.203","16.22","81.4","NAN","0.7"],
    [1553932,"2026-05-09 15:50:00","6642","1.511","109.5","3.463","99.5","1013.059","15.94","86","NAN","1.0"],
    [1553933,"2026-05-09 16:00:00","6643","2.089","103.9","3.593","101.1","1012.89","15.63","87.1","NAN","0.6"],
    [1553934,"2026-05-09 16:10:00","6644","1.911","94.0","3.234","74.4","1012.56","15.19","86.4","NAN","1.4"],
    [1553935,"2026-05-09 16:20:00","6645","1.263","62.51","2.94","69.49","1012.247","14.98","91.3","NAN","1.3"],
    [1553936,"2026-05-09 16:30:00","6646","1.4809999999999999","45.68","2.7769999999999997","54.48","1011.855","14.92","94.2","NAN","0.6"],
    [1553937,"2026-05-09 16:40:00","6647","2.1","43.12","5.063","31.65","1011.304","14.99","95.1","NAN","0.6"],
    [1553938,"2026-05-09 16:50:00","6648","2.843","46.55","5.553","20.78","1010.704","14.77","95.2","NAN","0.2"],
    [1553939,"2026-05-09 17:00:00","6649","1.702","42.03","4.377","36.1","1010.306","14.84","95.4","NAN","0.2"],
    [1553940,"2026-05-09 17:10:00","6650","1.8969999999999998","46.11","4.508","42.28","1010.363","14.89","95.7","NAN","0.1"],
    [1553941,"2026-05-09 17:20:00","6651","1.652","44.95","3.887","17.1","1010.2689999999999","14.92","95.8","NAN","0.0"],
    [1553942,"2026-05-09 17:30:00","6652","0.809","9.87","2.45","12.13","1010.3560000000001","15.01","95.7","NAN","0.0"],
    [1553943,"2026-05-09 17:40:00","6653","0.685","50.16","2.189","1.198","1010.383","15.07","95.4","NAN","0.0"],
    [1553944,"2026-05-09 17:50:00","6654","0.488","51.38","1.666","49.27","1010.3560000000001","15.06","94.8","NAN","0.0"],
    [1553945,"2026-05-09 18:00:00","6655","0.44","14.78","1.3719999999999999","3.397","1010.3560000000001","15.2","94","NAN","0.0"],
    [1553946,"2026-05-09 18:10:00","6656","0.591","352.2","1.797","35.79","1010.434","15.32","93.3","NAN","0.0"],
    [1553947,"2026-05-09 18:20:00","6657","0.14","19.16","0.882","318.3","1010.6560000000001","15.47","92.9","NAN","0.1"],
    [1553948,"2026-05-09 18:30:00","6658","0.016","70.73","0.457","73.96","1010.677","15.38","91.7","NAN","0.0"],
    [1553949,"2026-05-09 18:40:00","6659","0.27","158.7","0.653","154.7","1010.8589999999999","15.49","91","NAN","0.0"],
    [1553950,"2026-05-09 18:50:00","6660","0.345","202.0","1.2409999999999999","220.0","1010.962","15.61","91.5","NAN","0.0"],
    [1553951,"2026-05-09 19:00:00","6661","0.7979999999999999","217.6","1.535","228.4","1011.2739999999999","15.65","92.8","NAN","0.0"],
    [1553952,"2026-05-09 19:10:00","6662","0.473","202.0","1.307","197.2","1011.4680000000001","15.66","93","NAN","0.0"],
    [1553953,"2026-05-09 19:20:00","6663","0.7440000000000001","207.0","1.797","232.9","1011.63","15.63","93","NAN","0.0"],
    [1553954,"2026-05-09 19:30:00","6664","0.43","234.9","1.4369999999999998","267.8","1011.7280000000001","15.8","92.7","NAN","0.0"],
    [1553955,"2026-05-09 19:40:00","6665","0.986","250.5","1.764","240.9","1011.752","15.84","92.2","NAN","0.0"],
    [1553956,"2026-05-09 19:50:00","6666","1.23","242.9","2.156","235.3","1011.865","15.82","92.2","NAN","0.0"],
    [1553957,"2026-05-09 20:00:00","6667","1.371","243.1","2.254","238.4","1012.076","15.84","92.3","NAN","0.0"],
    [1553958,"2026-05-09 20:10:00","6668","0.872","244.4","1.8619999999999999","244.4","1012.2180000000001","15.93","92.5","NAN","0.0"],
    [1553959,"2026-05-09 20:20:00","6669","0.9490000000000001","239.7","1.764","240.4","1012.3530000000001","15.96","92.5","NAN","0.0"],
    [1553960,"2026-05-09 20:30:00","6670","1.249","243.4","2.385","238.9","1012.582","15.97","92.2","NAN","0.0"],
    [1553961,"2026-05-09 20:40:00","6671","1.521","242.1","2.94","253.6","1012.791","15.97","91.6","NAN","0.0"],
    [1553962,"2026-05-09 20:50:00","6672","1.216","243.7","2.025","230.5","1012.828","16.02","90.7","NAN","0.0"],
    [1553963,"2026-05-09 21:00:00","6673","1.032","242.0","1.764","225.2","1012.977","16.14","90.2","NAN","0.0"],
    [1553964,"2026-05-09 21:10:00","6674","1.0070000000000001","239.0","1.8619999999999999","241.6","1013.044","16.17","89.7","NAN","0.0"],
    [1553965,"2026-05-09 21:20:00","6675","0.474","232.3","1.209","257.3","1012.9739999999999","16.19","89.5","NAN","0.0"],
    [1553966,"2026-05-09 21:30:00","6676","0.16899999999999998","236.7","0.8170000000000001","236.3","1013.034","16.1","90.2","NAN","0.0"],
    [1553967,"2026-05-09 21:40:00","6677","0.099","174.4","0.7190000000000001","226.2","1013.081","16","90.9","NAN","0.0"],
    [1553968,"2026-05-09 21:50:00","6678","0.061","208.1","0.49","243.0","1013.2260000000001","15.95","90.5","NAN","0.0"],
    [1553969,"2026-05-09 22:00:00","6679","0.83","243.0","1.633","242.5","1013.2739999999999","16.14","90.3","NAN","0.0"],
    [1553970,"2026-05-09 22:10:00","6680","1.046","233.3","1.633","249.4","1013.194","16.2","89.3","NAN","0.0"],
    [1553971,"2026-05-09 22:20:00","6681","0.774","234.8","1.5030000000000001","248.9","1013.1389999999999","16.2","88.7","NAN","0.0"],
    [1553972,"2026-05-09 22:30:00","6682","0.239","243.1","0.8490000000000001","225.7","1013.153","16.19","88.6","NAN","0.0"],
    [1553973,"2026-05-09 22:40:00","6683","0.514","4.837","1.2409999999999999","359.9","1013.054","16","87.1","NAN","0.0"],
    [1553974,"2026-05-09 22:50:00","6684","0.45","324.4","1.307","1.141","1013.055","15.93","84.2","NAN","0.0"],
    [1553975,"2026-05-09 23:00:00","6685","0.703","242.9","1.96","249.1","1013.1389999999999","16.29","85","NAN","0.0"],
    [1553976,"2026-05-09 23:10:00","6686","1.16","241.3","1.993","207.7","1013.207","16.14","86.6","NAN","0.0"],
    [1553977,"2026-05-09 23:20:00","6687","1.041","230.6","2.0909999999999997","244.3","1013.2610000000001","16","87.4","NAN","0.0"],
    [1553978,"2026-05-09 23:30:00","6688","0.753","276.5","2.123","310.1","1013.133","15.91","86.9","NAN","0.0"],
    [1553979,"2026-05-09 23:40:00","6689","0.446","259.8","1.8619999999999999","243.9","1013.075","15.86","86","NAN","0.0"],
    [1553980,"2026-05-09 23:50:00","6690","0.792","256.7","1.633","300.5","1012.9839999999999","15.86","85.8","NAN","0.0"],
    [1553981,"2026-05-10 00:00:00","6691","0.88","247.8","1.9269999999999998","263.7","1012.99","15.8","85.9","NAN","0.0"],
    [1553982,"2026-05-10 00:10:00","6692","0.62","278.1","1.9269999999999998","261.0","1012.835","15.68","85.6","NAN","0.0"],
    [1553983,"2026-05-10 00:20:00","6693","0.452","310.5","1.339","312.1","1012.57","15.68","85","NAN","0.0"],
    [1553984,"2026-05-10 00:30:00","6694","0.402","282.6","1.797","316.1","1012.4760000000001","15.71","84.7","NAN","0.0"],
    [1553985,"2026-05-10 00:40:00","6695","0.069","241.2","0.621","226.4","1012.443","15.56","85.6","NAN","0.0"],
    [1553986,"2026-05-10 00:50:00","6696","0.052000000000000005","278.2","0.6859999999999999","267.1","1012.313","15.31","87.5","NAN","0.0"],
    [1553987,"2026-05-10 01:00:00","6697","0.153","276.7","0.784","309.8","1012.1569999999999","15.17","88.2","NAN","0.0"],
    [1553988,"2026-05-10 01:10:00","6698","0.13","275.4","0.7190000000000001","271.9","1012.095","15.15","89.6","NAN","0.0"],
    [1553989,"2026-05-10 01:20:00","6699","0.098","280.7","0.7509999999999999","261.2","1012.1","15.03","89.8","NAN","0.0"],
    [1553990,"2026-05-10 01:30:00","6700","0.52","236.0","1.2409999999999999","229.3","1012.097","15.06","90.1","NAN","0.0"],
    [1553991,"2026-05-10 01:40:00","6701","0.491","242.8","1.143","238.7","1012.11","15.22","88.7","NAN","0.0"],
    [1553992,"2026-05-10 01:50:00","6702","0.505","243.4","1.339","244.4","1012.212","15.26","87.2","NAN","0.0"],
    [1553993,"2026-05-10 02:00:00","6703","1.0290000000000001","247.2","2.156","228.0","1012.21","15.42","86.7","NAN","0.0"],
    [1553994,"2026-05-10 02:10:00","6704","1.072","242.8","1.895","242.5","1012.3389999999999","15.29","86.3","NAN","0.0"],
    [1553995,"2026-05-10 02:20:00","6705","0.9390000000000001","254.8","2.254","258.5","1012.3889999999999","15.21","85.7","NAN","0.0"],
    [1553996,"2026-05-10 02:30:00","6706","1.189","248.5","2.45","264.1","1012.382","15.18","85.2","NAN","0.0"],
    [1553997,"2026-05-10 02:40:00","6707","0.395","257.9","1.47","283.8","1012.341","15.08","85.3","NAN","0.0"],
    [1553998,"2026-05-10 02:50:00","6708","0.616","243.0","1.568","265.8","1012.216","15.03","86.1","NAN","0.0"],
    [1553999,"2026-05-10 03:00:00","6709","0.611","242.5","1.176","228.8","1012.117","15.02","86.1","NAN","0.0"],
    [1554000,"2026-05-10 03:10:00","6710","0.431","228.9","0.98","234.8","1012.0980000000001","14.91","86.6","NAN","0.0"],
    [1554001,"2026-05-10 03:20:00","6711","0.754","254.2","1.895","292.8","1012.079","14.9","86.2","NAN","0.0"],
    [1554002,"2026-05-10 03:30:00","6712","0.65","260.8","1.8619999999999999","264.0","1011.972","15.01","85.2","NAN","0.0"],
    [1554003,"2026-05-10 03:40:00","6713","1.072","270.3","2.483","254.7","1011.946","15.05","84.9","NAN","0.0"],
    [1554004,"2026-05-10 03:50:00","6714","0.9359999999999999","248.4","1.9269999999999998","255.3","1011.988","15.19","83.9","NAN","0.0"],
    [1554005,"2026-05-10 04:00:00","6715","0.6709999999999999","256.6","1.568","237.0","1011.9789999999999","15.11","83.9","NAN","0.0"],
    [1554006,"2026-05-10 04:10:00","6716","0.917","252.0","1.601","257.2","1011.9760000000001","15.09","83.9","NAN","0.0"],
    [1554007,"2026-05-10 04:20:00","6717","0.36700000000000005","234.2","1.307","249.3","1012.0930000000001","14.97","84.3","NAN","0.0"],
    [1554008,"2026-05-10 04:30:00","6718","0.775","221.0","2.221","223.0","1012.0989999999999","14.64","85.7","NAN","0.0"],
    [1554009,"2026-05-10 04:40:00","6719","1.01","211.4","1.96","225.6","1012.003","14.72","85","NAN","0.0"],
    [1554010,"2026-05-10 04:50:00","6720","0.981","220.9","2.123","217.7","1011.9780000000001","14.73","84.3","NAN","0.0"],
    [1554011,"2026-05-10 05:00:00","6721","0.867","228.9","1.7309999999999999","275.7","1011.9060000000001","14.62","84.4","NAN","0.0"],
    [1554012,"2026-05-10 05:10:00","6722","0.988","229.3","2.0909999999999997","241.2","1011.925","14.67","84.3","NAN","0.0"],
    [1554013,"2026-05-10 05:20:00","6723","0.7759999999999999","218.9","1.96","247.6","1011.8510000000001","14.8","83.9","NAN","0.0"],
    [1554014,"2026-05-10 05:30:00","6724","0.444","196.2","1.4369999999999998","222.0","1011.8510000000001","14.89","84","NAN","0.0"],
    [1554015,"2026-05-10 05:40:00","6725","0.35","179.5","1.176","333.9","1011.925","14.91","84.2","NAN","0.0"],
    [1554016,"2026-05-10 05:50:00","6726","0.981","191.7","2.025","173.7","1011.9639999999999","15.04","84.4","NAN","0.0"],
    [1554017,"2026-05-10 06:00:00","6727","0.539","199.9","1.405","213.8","1011.959","15.36","83.2","NAN","0.0"],
    [1554018,"2026-05-10 06:10:00","6728","0.6659999999999999","188.6","1.339","150.8","1012.0310000000001","15.65","81.7","NAN","0.0"],
    [1554019,"2026-05-10 06:20:00","6729","0.89","183.2","1.764","283.6","1012.057","15.85","80.5","NAN","0.0"],
    [1554020,"2026-05-10 06:30:00","6730","1.402","242.1","3.365","257.6","1012.095","16.28","78.66","NAN","0.0"],
    [1554021,"2026-05-10 06:40:00","6731","1.198","244.8","2.7110000000000003","234.2","1012.1419999999999","16.57","77.45","NAN","0.0"],
    [1554022,"2026-05-10 06:50:00","6732","1.396","237.0","3.201","234.8","1012.1260000000001","16.75","77.43","NAN","0.0"],
    [1554023,"2026-05-10 07:00:00","6733","1.808","240.2","4.018","231.2","1012.205","16.8","77.52","NAN","0.0"],
    [1554024,"2026-05-10 07:10:00","6734","2.315","235.5","4.2139999999999995","227.8","1012.2130000000001","16.91","77.41","NAN","0.0"],
    [1554025,"2026-05-10 07:20:00","6735","1.22","228.6","3.201","238.4","1012.21","17.32","76.67","NAN","0.0"],
    [1554026,"2026-05-10 07:30:00","6736","0.9009999999999999","233.8","2.0580000000000003","228.9","1012.212","17.85","74.87","NAN","0.0"],
    [1554027,"2026-05-10 07:40:00","6737","1.806","238.6","3.822","244.8","1012.24","18.04","74.33","NAN","0.0"],
    [1554028,"2026-05-10 07:50:00","6738","1.591","241.5","4.312","240.5","1012.332","18.05","74.06","NAN","0.0"],
    [1554029,"2026-05-10 08:00:00","6739","1.641","224.3","3.855","241.3","1012.3969999999999","18.28","74.01","NAN","0.0"],
    [1554030,"2026-05-10 08:10:00","6740","2.088","230.8","5.194","246.3","1012.442","18.55","72.76","NAN","0.0"],
    [1554031,"2026-05-10 08:20:00","6741","2.911","240.3","5.4879999999999995","235.5","1012.447","18.58","72.47","NAN","0.0"],
    [1554032,"2026-05-10 08:30:00","6742","2.274","245.6","5.129","229.3","1012.444","18.96","71.09","NAN","0.0"],
    [1554033,"2026-05-10 08:40:00","6743","2.475","240.8","6.7620000000000005","231.0","1012.3839999999999","19.29","70.26","NAN","0.0"],
    [1554034,"2026-05-10 08:50:00","6744","2.306","237.1","5.1610000000000005","239.0","1012.332","19.71","69.92","NAN","0.0"],
    [1554035,"2026-05-10 09:00:00","6745","2.53","247.7","5.651","299.7","1012.332","19.86","67.14","NAN","0.0"],
    [1554036,"2026-05-10 09:10:00","6746","2.3080000000000003","249.4","5.455","253.7","1012.3839999999999","20.13","64.56","NAN","0.0"],
    [1554037,"2026-05-10 09:20:00","6747","2.347","239.6","5.39","236.8","1012.409","20.46","62.9","NAN","0.0"],
    [1554038,"2026-05-10 09:30:00","6748","3.073","234.0","6.566","238.3","1012.324","20.49","63.16","NAN","0.0"],
    [1554039,"2026-05-10 09:40:00","6749","3.272","229.4","6.0760000000000005","192.1","1012.2769999999999","20.59","67.96","NAN","0.0"],
    [1554040,"2026-05-10 09:50:00","6750","2.67","222.8","5.847","224.2","1012.307","20.88","67.89","NAN","0.0"],
    [1554041,"2026-05-10 10:00:00","6751","3.285","232.3","6.729","240.2","1012.31","20.9","67.3","NAN","0.0"],
    [1554042,"2026-05-10 10:10:00","6752","2.835","230.4","5.978","231.2","1012.222","21.17","65.92","NAN","0.0"],
    [1554043,"2026-05-10 10:20:00","6753","2.681","220.1","6.403","222.1","1012.21","21.41","65.43","NAN","0.0"],
    [1554044,"2026-05-10 10:30:00","6754","2.8169999999999997","228.6","6.729","219.2","1012.19","21.57","65.87","NAN","0.0"],
    [1554045,"2026-05-10 10:40:00","6755","2.86","227.1","5.815","232.7","1012.113","21.75","64.32","NAN","0.0"],
    [1554046,"2026-05-10 10:50:00","6756","3.3539999999999996","219.1","7.579","226.0","1012.063","21.5","65.64","NAN","0.0"],
    [1554047,"2026-05-10 11:00:00","6757","2.602","220.3","5.651","204.6","1011.9910000000001","21.56","65.18","NAN","0.0"],
    [1554048,"2026-05-10 11:10:00","6758","3.016","217.3","6.925","203.0","1011.938","21.68","63.66","NAN","0.0"],
    [1554049,"2026-05-10 11:20:00","6759","3.326","212.2","6.566","200.4","1011.8739999999999","21.52","64.68","NAN","0.0"],
    [1554050,"2026-05-10 11:30:00","6760","3.0469999999999997","206.3","6.37","194.2","1011.819","21.45","66.19","NAN","0.0"],
    [1554051,"2026-05-10 11:40:00","6761","3.707","203.4","9.02","203.4","1011.7510000000001","21.39","65.8","NAN","0.0"],
    [1554052,"2026-05-10 11:50:00","6762","3.08","208.7","6.468","210.9","1011.677","21.58","65.61","NAN","0.0"],
    [1554053,"2026-05-10 12:00:00","6763","3.1710000000000003","209.1","6.86","191.3","1011.562","21.89","64.02","NAN","0.0"],
    [1554054,"2026-05-10 12:10:00","6764","2.7319999999999998","212.0","6.37","235.4","1011.418","22.31","61.69","NAN","0.0"],
    [1554055,"2026-05-10 12:20:00","6765","2.701","214.4","5.651","203.5","1011.341","22.4","60.35","NAN","0.0"],
    [1554056,"2026-05-10 12:30:00","6766","3.335","201.5","6.272","188.4","1011.196","22.08","61.58","NAN","0.0"],
    [1554057,"2026-05-10 12:40:00","6767","3.7739999999999996","210.8","7.807","197.0","1011.102","21.87","60.12","NAN","0.0"],
    [1554058,"2026-05-10 12:50:00","6768","3.513","209.1","6.7620000000000005","195.9","1010.997","22.32","54.47","NAN","0.0"],
    [1554059,"2026-05-10 13:00:00","6769","3.489","208.7","7.187","202.0","1010.942","22.45","52.23","NAN","0.0"],
    [1554060,"2026-05-10 13:10:00","6770","3.889","206.4","7.513","207.9","1010.905","22.7","48.83","NAN","0.0"],
    [1554061,"2026-05-10 13:20:00","6771","3.141","209.1","6.599","185.1","1010.885","22.73","51.23","NAN","0.0"],
    [1554062,"2026-05-10 13:30:00","6772","3.865","198.8","7.807","193.4","1010.748","22.53","52.19","NAN","0.0"],
    [1554063,"2026-05-10 13:40:00","6773","3.536","200.1","6.631","204.4","1010.7180000000001","22.31","53.29","NAN","0.0"],
    [1554064,"2026-05-10 13:50:00","6774","3.58","201.8","7.4479999999999995","217.0","1010.576","22.56","51.78","NAN","0.0"],
    [1554065,"2026-05-10 14:00:00","6775","3.6260000000000003","204.6","7.481","197.8","1010.416","22.87","46.61","NAN","0.0"],
    [1554066,"2026-05-10 14:10:00","6776","3.7089999999999996","208.4","7.317","208.1","1010.31","23.07","46.65","NAN","0.0"],
    [1554067,"2026-05-10 14:20:00","6777","3.7689999999999997","204.7","8.79","204.9","1010.242","22.94","49.04","NAN","0.0"],
    [1554068,"2026-05-10 14:30:00","6778","3.4189999999999996","202.9","6.86","219.3","1010.188","22.71","47.23","NAN","0.0"],
    [1554069,"2026-05-10 14:40:00","6779","3.7510000000000003","204.6","7.579","224.3","1010.02","22.8","47.02","NAN","0.0"],
    [1554070,"2026-05-10 14:50:00","6780","3.08","210.8","7.252000000000001","204.4","1009.9810000000001","22.91","47.06","NAN","0.0"],
    [1554071,"2026-05-10 15:00:00","6781","3.568","223.2","8.2","241.0","1009.943","22.84","47.46","NAN","0.0"],
    [1554072,"2026-05-10 15:10:00","6782","3.4739999999999998","223.5","7.187","209.4","1009.789","22.79","49.02","NAN","0.0"],
    [1554073,"2026-05-10 15:20:00","6783","2.935","211.2","6.827000000000001","231.6","1009.7489999999999","23.02","48.35","NAN","0.0"],
    [1554074,"2026-05-10 15:30:00","6784","2.957","216.5","6.239","226.4","1009.7389999999999","23","49.05","NAN","0.0"],
    [1554075,"2026-05-10 15:40:00","6785","2.762","222.6","6.795","213.9","1009.7289999999999","22.94","45.75","NAN","0.0"],
    [1554076,"2026-05-10 15:50:00","6786","3.023","219.7","7.4479999999999995","245.5","1009.687","22.68","48.67","NAN","0.0"],
    [1554077,"2026-05-10 16:00:00","6787","2.841","220.8","5.684","197.3","1009.699","22.61","47.75","NAN","0.0"],
    [1554078,"2026-05-10 16:10:00","6788","2.911","211.5","8.69","232.6","1009.712","22.21","52.67","NAN","0.0"],
    [1554079,"2026-05-10 16:20:00","6789","2.555","214.8","6.5329999999999995","192.0","1009.6610000000001","22.04","54.73","NAN","0.0"],
    [1554080,"2026-05-10 16:30:00","6790","2.352","215.5","5.455","238.6","1009.465","22","50.3","NAN","0.0"],
    [1554081,"2026-05-10 16:40:00","6791","2.306","224.3","6.697","243.0","1009.368","22.18","49.05","NAN","0.0"],
    [1554082,"2026-05-10 16:50:00","6792","3.23","224.4","6.042999999999999","232.4","1009.3810000000001","21.95","49.81","NAN","0.0"],
    [1554083,"2026-05-10 17:00:00","6793","3.267","230.0","7.644","243.1","1009.523","21.85","48.06","NAN","0.0"],
    [1554084,"2026-05-10 17:10:00","6794","2.935","230.7","6.37","223.9","1009.578","21.83","48.5","NAN","0.0"],
    [1554085,"2026-05-10 17:20:00","6795","3.702","225.9","6.566","211.2","1009.562","21.54","50.94","NAN","0.0"],
    [1554086,"2026-05-10 17:30:00","6796","3.407","230.2","8.53","235.3","1009.622","21.28","52.46","NAN","0.0"],
    [1554087,"2026-05-10 17:40:00","6797","2.952","231.7","5.684","237.2","1009.699","21.35","52.48","NAN","0.0"],
    [1554088,"2026-05-10 17:50:00","6798","2.5580000000000003","221.0","6.957999999999999","229.2","1009.727","21.22","57.35","NAN","0.0"],
    [1554089,"2026-05-10 18:00:00","6799","3.173","224.4","8.33","221.8","1009.887","20.66","58.53","NAN","0.0"],
    [1554090,"2026-05-10 18:10:00","6800","3.069","224.7","6.631","258.3","1009.9789999999999","20.47","58.87","NAN","0.0"],
    [1554091,"2026-05-10 18:20:00","6801","3.3689999999999998","230.2","7.644","247.8","1010.187","20.25","59.98","NAN","0.0"],
    [1554092,"2026-05-10 18:30:00","6802","2.702","228.0","5.194","242.0","1010.2919999999999","20.05","61.02","NAN","0.0"],
    [1554093,"2026-05-10 18:40:00","6803","2.077","231.6","5.651","242.0","1010.581","20.07","61.18","NAN","0.0"],
    [1554094,"2026-05-10 18:50:00","6804","2.4619999999999997","236.8","5.945","243.4","1010.665","20.07","60.76","NAN","0.0"],
    [1554095,"2026-05-10 19:00:00","6805","2.229","238.8","4.998","273.4","1010.7669999999999","20.01","60.41","NAN","0.0"],
    [1554096,"2026-05-10 19:10:00","6806","2.2","232.8","5.553","216.9","1010.7739999999999","20.05","59.84","NAN","0.0"],
    [1554097,"2026-05-10 19:20:00","6807","1.9469999999999998","236.4","4.965","247.4","1010.7819999999999","19.98","60.47","NAN","0.0"],
    [1554098,"2026-05-10 19:30:00","6808","3.082","236.7","6.468","223.0","1010.77","19.98","60.56","NAN","0.0"],
    [1554099,"2026-05-10 19:40:00","6809","2.249","231.1","6.042999999999999","244.1","1010.783","20.15","59.4","NAN","0.0"],
    [1554100,"2026-05-10 19:50:00","6810","2.096","233.9","5.096","232.1","1010.79","20.26","58.52","NAN","0.0"],
    [1554101,"2026-05-10 20:00:00","6811","3.0869999999999997","240.6","5.847","235.3","1010.7819999999999","20.37","56.19","NAN","0.0"],
    [1554102,"2026-05-10 20:10:00","6812","3.588","237.7","6.337000000000001","225.5","1010.83","20.38","54.77","NAN","0.0"],
    [1554103,"2026-05-10 20:20:00","6813","1.6980000000000002","258.3","3.887","264.4","1011.062","20.38","55.39","NAN","0.0"],
    [1554104,"2026-05-10 20:30:00","6814","1.3230000000000002","272.0","3.1689999999999996","341.3","1011.0260000000001","20.3","56.89","NAN","0.0"],
    [1554105,"2026-05-10 20:40:00","6815","1.7930000000000001","273.1","3.6260000000000003","257.1","1011.1210000000001","20.16","58.49","NAN","0.0"],
    [1554106,"2026-05-10 20:50:00","6816","1.195","251.5","3.071","278.8","1011.2260000000001","20.14","59.39","NAN","0.0"],
    [1554107,"2026-05-10 21:00:00","6817","1.224","250.8","3.071","261.6","1011.322","20.06","59.96","NAN","0.0"],
    [1554108,"2026-05-10 21:10:00","6818","1.621","276.9","2.9730000000000003","243.1","1011.4","19.99","59.65","NAN","0.0"],
    [1554109,"2026-05-10 21:20:00","6819","1.2209999999999999","338.2","3.855","313.4","1011.198","20.13","56.5","NAN","0.0"],
    [1554110,"2026-05-10 21:30:00","6820","1.7619999999999998","310.0","5.7170000000000005","305.9","1011.0930000000001","19.94","55.73","NAN","0.0"],
    [1554111,"2026-05-10 21:40:00","6821","1.534","310.7","4.704","293.1","1010.873","19.7","56.28","NAN","0.0"],
    [1554112,"2026-05-10 21:50:00","6822","0.5329999999999999","353.2","1.9269999999999998","352.3","1010.7819999999999","19.66","56.46","NAN","0.0"],
    [1554113,"2026-05-10 22:00:00","6823","1.054","31.24","2.0909999999999997","23.17","1010.742","19.44","57.14","NAN","0.0"],
    [1554114,"2026-05-10 22:10:00","6824","0.872","346.4","2.189","11.74","1010.61","19.29","57.35","NAN","0.0"],
    [1554115,"2026-05-10 22:20:00","6825","0.8340000000000001","321.4","1.993","277.7","1010.548","19.36","56.95","NAN","0.0"],
    [1554116,"2026-05-10 22:30:00","6826","0.789","269.3","1.9269999999999998","300.8","1010.6510000000001","19.31","57.24","NAN","0.0"],
    [1554117,"2026-05-10 22:40:00","6827","0.973","256.5","2.254","287.9","1010.668","19.13","58.56","NAN","0.0"],
    [1554118,"2026-05-10 22:50:00","6828","1.146","277.4","2.0580000000000003","287.4","1010.684","19.01","58.21","NAN","0.0"],
    [1554119,"2026-05-10 23:00:00","6829","1.093","257.2","2.5810000000000004","297.1","1010.689","18.98","58.05","NAN","0.0"],
    [1554120,"2026-05-10 23:10:00","6830","1.126","255.5","2.907","254.8","1010.5980000000001","18.92","57.42","NAN","0.0"],
    [1554121,"2026-05-10 23:20:00","6831","1.391","249.9","2.9730000000000003","302.6","1010.709","18.84","58.43","NAN","0.0"],
    [1554122,"2026-05-10 23:30:00","6832","1.3519999999999999","245.1","2.907","245.0","1010.789","18.43","61.66","NAN","0.0"],
    [1554123,"2026-05-10 23:40:00","6833","0.9420000000000001","256.6","2.483","226.2","1010.682","18.28","62.13","NAN","0.0"],
    [1554124,"2026-05-10 23:50:00","6834","0.605","326.9","1.9269999999999998","313.6","1010.605","18.36","61.24","NAN","0.0"],
    [1554125,"2026-05-11 00:00:00","6835","0.588","293.0","1.339","308.4","1010.692","18.58","59.05","NAN","0.0"],
    [1554126,"2026-05-11 00:10:00","6836","0.9740000000000001","203.7","1.601","179.0","1010.76","18.36","62.39","NAN","0.0"],
    [1554127,"2026-05-11 00:20:00","6837","0.745","212.6","1.895","236.6","1010.822","18.19","60.58","NAN","0.0"],
    [1554128,"2026-05-11 00:30:00","6838","1.159","191.9","1.8619999999999999","180.1","1010.668","18.09","61.95","NAN","0.0"],
    [1554129,"2026-05-11 00:40:00","6839","0.986","203.6","2.287","204.2","1010.762","17.99","62.78","NAN","0.0"],
    [1554130,"2026-05-11 00:50:00","6840","0.585","190.1","1.4369999999999998","168.6","1010.752","18.02","62.86","NAN","0.0"],
    [1554131,"2026-05-11 01:00:00","6841","0.626","191.9","1.274","177.0","1010.808","17.93","63.03","NAN","0.0"],
    [1554132,"2026-05-11 01:10:00","6842","0.139","73.0","0.784","102.4","1010.7869999999999","17.79","62.66","NAN","0.0"],
    [1554133,"2026-05-11 01:20:00","6843","0.446","356.3","1.47","297.5","1010.7339999999999","17.87","60.94","NAN","0.0"],
    [1554134,"2026-05-11 01:30:00","6844","0.365","320.3","1.143","337.9","1010.6619999999999","18.29","58.45","NAN","0.0"],
    [1554135,"2026-05-11 01:40:00","6845","0.648","10.02","1.633","30.46","1010.55","18.11","58.86","NAN","0.0"],
    [1554136,"2026-05-11 01:50:00","6846","0.48200000000000004","172.4","1.274","154.1","1010.6610000000001","17.95","59.71","NAN","0.0"],
    [1554137,"2026-05-11 02:00:00","6847","0.461","87.7","1.535","109.9","1010.7660000000001","17.9","59.4","NAN","0.0"],
    [1554138,"2026-05-11 02:10:00","6848","0.619","205.1","2.548","230.1","1010.78","18.31","54.85","NAN","0.0"],
    [1554139,"2026-05-11 02:20:00","6849","0.6629999999999999","198.0","2.0909999999999997","240.0","1010.82","18.05","58.19","NAN","0.0"],
    [1554140,"2026-05-11 02:30:00","6850","0.565","230.0","1.829","240.8","1010.808","18.02","56.2","NAN","0.0"],
    [1554141,"2026-05-11 02:40:00","6851","0.883","208.1","1.699","189.9","1010.693","17.8","58.65","NAN","0.0"],
    [1554142,"2026-05-11 02:50:00","6852","0.505","205.7","1.307","209.3","1010.705","17.54","60.05","NAN","0.0"],
    [1554143,"2026-05-11 03:00:00","6853","0.6709999999999999","201.7","1.4369999999999998","249.5","1010.627","17.44","59.99","NAN","0.0"],
    [1554144,"2026-05-11 03:10:00","6854","0.67","225.1","1.633","244.7","1010.4839999999999","17.5","58.05","NAN","0.0"],
    [1554145,"2026-05-11 03:20:00","6855","0.647","226.1","1.7309999999999999","219.8","1010.534","17.53","57.15","NAN","0.0"],
    [1554146,"2026-05-11 03:30:00","6856","0.9470000000000001","216.6","2.7439999999999998","234.3","1010.6089999999999","17.49","57.35","NAN","0.0"],
    [1554147,"2026-05-11 03:40:00","6857","1.272","220.7","3.5610000000000004","235.3","1010.5880000000001","17.53","56.77","NAN","0.0"],
    [1554148,"2026-05-11 03:50:00","6858","1.504","221.0","3.7569999999999997","250.7","1010.67","17.55","56.22","NAN","0.0"],
    [1554149,"2026-05-11 04:00:00","6859","1.2830000000000001","220.2","3.5610000000000004","231.6","1010.7189999999999","17.43","56.83","NAN","0.0"],
    [1554150,"2026-05-11 04:10:00","6860","1.443","224.6","3.267","244.7","1010.796","17.41","57.06","NAN","0.0"],
    [1554151,"2026-05-11 04:20:00","6861","0.687","228.0","1.993","250.4","1010.84","17.36","57.38","NAN","0.0"],
    [1554152,"2026-05-11 04:30:00","6862","0.857","221.1","3.103","248.8","1010.8439999999999","17.25","58.46","NAN","0.0"],
    [1554153,"2026-05-11 04:40:00","6863","0.946","236.7","2.189","224.2","1010.8480000000001","17.16","58.75","NAN","0.0"],
    [1554154,"2026-05-11 04:50:00","6864","1.3359999999999999","243.0","2.613","224.8","1010.887","17.23","58.18","NAN","0.0"],
    [1554155,"2026-05-11 05:00:00","6865","1.476","246.7","3.103","238.0","1011.038","17.31","57.96","NAN","0.0"],
    [1554156,"2026-05-11 05:10:00","6866","1.295","251.1","2.613","225.3","1011.16","17.39","57.73","NAN","0.0"],
    [1554157,"2026-05-11 05:20:00","6867","1.76","241.7","3.299","235.5","1011.313","17.51","57.26","NAN","0.0"],
    [1554158,"2026-05-11 05:30:00","6868","1.5019999999999998","243.2","2.7769999999999997","228.3","1011.3739999999999","17.63","56.92","NAN","0.0"],
    [1554159,"2026-05-11 05:40:00","6869","1.902","239.3","4.181","240.5","1011.525","17.75","56.71","NAN","0.0"],
    [1554160,"2026-05-11 05:50:00","6870","1.8980000000000001","244.9","3.43","235.4","1011.577","17.83","56.44","NAN","0.0"],
    [1554161,"2026-05-11 06:00:00","6871","1.5490000000000002","251.9","3.6260000000000003","300.8","1011.677","18.19","55.68","NAN","0.0"],
    [1554162,"2026-05-11 06:10:00","6872","1.6280000000000001","249.6","4.083","293.8","1011.796","18.42","54.94","NAN","0.0"],
    [1554163,"2026-05-11 06:20:00","6873","1.306","268.0","3.299","293.9","1011.904","18.51","54.83","NAN","0.0"],
    [1554164,"2026-05-11 06:30:00","6874","1.505","265.9","3.92","258.4","1012.034","18.82","53.83","NAN","0.0"],
    [1554165,"2026-05-11 06:40:00","6875","1.88","263.6","4.475","253.8","1012.1030000000001","18.85","53.93","NAN","0.0"],
    [1554166,"2026-05-11 06:50:00","6876","1.817","265.0","4.998","271.2","1012.102","19.01","53.2","NAN","0.0"],
    [1554167,"2026-05-11 07:00:00","6877","1.992","272.9","4.41","283.7","1012.118","19.22","52.42","NAN","0.0"],
    [1554168,"2026-05-11 07:10:00","6878","2.049","265.7","5.357","308.9","1012.12","19.27","51.83","NAN","0.0"],
    [1554169,"2026-05-11 07:20:00","6879","1.557","242.9","4.1160000000000005","237.1","1012.202","19.35","51.61","NAN","0.0"],
    [1554170,"2026-05-11 07:30:00","6880","1.569","256.4","3.528","282.1","1012.202","19.2","52.03","NAN","0.0"],
    [1554171,"2026-05-11 07:40:00","6881","1.5959999999999999","246.2","3.6260000000000003","240.9","1012.21","19.33","51.61","NAN","0.0"],
    [1554172,"2026-05-11 07:50:00","6882","1.5130000000000001","256.5","3.005","246.8","1012.21","19.64","50.2","NAN","0.0"],
    [1554173,"2026-05-11 08:00:00","6883","1.376","267.6","3.7889999999999997","305.7","1012.237","19.75","49.35","NAN","0.0"],
    [1554174,"2026-05-11 08:10:00","6884","1.8459999999999999","267.7","4.1160000000000005","281.7","1012.217","19.84","48.83","NAN","0.0"],
    [1554175,"2026-05-11 08:20:00","6885","1.347","261.7","4.083","226.6","1012.227","20.21","47.8","NAN","0.0"],
    [1554176,"2026-05-11 08:30:00","6886","1.8659999999999999","261.1","4.475","284.3","1012.2639999999999","20.15","47.29","NAN","0.0"],
    [1554177,"2026-05-11 08:40:00","6887","1.8780000000000001","264.2","4.377","260.1","1012.4019999999999","20.39","45.9","NAN","0.0"],
    [1554178,"2026-05-11 08:50:00","6888","2.061","277.7","5.39","274.6","1012.4169999999999","20.65","44.08","NAN","0.0"],
    [1554179,"2026-05-11 09:00:00","6889","1.556","291.6","4.2139999999999995","284.3","1012.427","20.79","43.75","NAN","0.0"],
    [1554180,"2026-05-11 09:10:00","6890","1.9380000000000002","297.6","4.606","313.2","1012.461","20.67","43.17","NAN","0.0"],
    [1554181,"2026-05-11 09:20:00","6891","1.5230000000000001","294.0","4.149","336.6","1012.429","20.88","43.07","NAN","0.0"],
    [1554182,"2026-05-11 09:30:00","6892","1.966","310.4","4.704","285.8","1012.439","21.27","42.73","NAN","0.0"],
    [1554183,"2026-05-11 09:40:00","6893","1.189","290.6","3.463","294.7","1012.546","21.52","42.72","NAN","0.0"],
    [1554184,"2026-05-11 09:50:00","6894","1.61","272.1","3.7889999999999997","283.7","1012.466","21.56","43.02","NAN","0.0"],
    [1554185,"2026-05-11 10:00:00","6895","1.926","274.7","4.475","268.0","1012.5260000000001","22","40.5","NAN","0.0"],
    [1554186,"2026-05-11 10:10:00","6896","1.8319999999999999","302.1","4.933","341.5","1012.559","22.81","38.02","NAN","0.0"],
    [1554187,"2026-05-11 10:20:00","6897","2.249","294.8","4.541","260.2","1012.4989999999999","22.63","38.53","NAN","0.0"],
    [1554188,"2026-05-11 10:30:00","6898","1.911","258.7","4.541","292.6","1012.441","23.15","37.59","NAN","0.0"],
    [1554189,"2026-05-11 10:40:00","6899","2.141","281.7","5.1610000000000005","296.4","1012.332","22.91","37.98","NAN","0.0"],
    [1554190,"2026-05-11 10:50:00","6900","2.178","261.2","4.541","225.2","1012.314","23.08","38.01","NAN","0.0"],
    [1554191,"2026-05-11 11:00:00","6901","1.8519999999999999","278.4","5.194","266.6","1012.312","23.48","37.47","NAN","0.0"],
    [1554192,"2026-05-11 11:10:00","6902","2.862","234.2","5.129","228.2","1012.222","23.38","38.13","NAN","0.0"],
    [1554193,"2026-05-11 11:20:00","6903","2.414","227.4","5.1610000000000005","232.7","1012.085","23.62","37.67","NAN","0.0"],
    [1554194,"2026-05-11 11:30:00","6904","2.1719999999999997","233.9","4.345","250.3","1011.988","23.82","37.81","NAN","0.0"],
    [1554195,"2026-05-11 11:40:00","6905","1.6580000000000001","254.9","5.031000000000001","234.3","1011.9760000000001","24.37","34.94","NAN","0.0"],
    [1554196,"2026-05-11 11:50:00","6906","2.205","255.1","4.638999999999999","291.7","1011.9680000000001","24.66","33.9","NAN","0.0"],
    [1554197,"2026-05-11 12:00:00","6907","2.9410000000000003","233.5","5.553","223.2","1011.8539999999999","24.49","36.48","NAN","0.0"],
    [1554198,"2026-05-11 12:10:00","6908","2.728","220.6","7.285","223.7","1011.804","24.03","42.12","NAN","0.0"],
    [1554199,"2026-05-11 12:20:00","6909","2.362","202.8","5.619","216.2","1011.757","23.41","47.9","NAN","0.0"],
    [1554200,"2026-05-11 12:30:00","6910","2.778","205.9","5.586","217.2","1011.694","23.12","48.84","NAN","0.0"],
    [1554201,"2026-05-11 12:40:00","6911","3.594","194.9","6.239","202.7","1011.669","22.62","51.81","NAN","0.0"],
    [1554202,"2026-05-11 12:50:00","6912","3.213","204.5","6.207000000000001","183.8","1011.5419999999999","23.11","47.99","NAN","0.0"],
    [1554203,"2026-05-11 13:00:00","6913","3.635","189.0","7.317","211.8","1011.393","22.71","50.05","NAN","0.0"],
    [1554204,"2026-05-11 13:10:00","6914","3.93","181.6","7.252000000000001","181.6","1011.32","22.45","50.16","NAN","0.0"],
    [1554205,"2026-05-11 13:20:00","6915","4.052","182.3","7.709","177.6","1011.2439999999999","22.77","48.62","NAN","0.0"],
    [1554206,"2026-05-11 13:30:00","6916","3.488","202.2","6.795","201.5","1011.2239999999999","23.59","45.49","NAN","0.0"],
    [1554207,"2026-05-11 13:40:00","6917","4.1930000000000005","197.4","7.6770000000000005","198.3","1011.279","23.22","48.25","NAN","0.0"],
    [1554208,"2026-05-11 13:50:00","6918","3.612","200.9","7.938","221.1","1011.243","23.11","48.33","NAN","0.0"],
    [1554209,"2026-05-11 14:00:00","6919","3.945","203.5","7.546","196.3","1011.206","23.33","45.56","NAN","0.0"],
    [1554210,"2026-05-11 14:10:00","6920","3.29","212.0","8.2","196.4","1011.181","24.11","42.28","NAN","0.0"],
    [1554211,"2026-05-11 14:20:00","6921","3.057","213.5","8.2","196.4","1011.0269999999999","24.09","41.56","NAN","0.0"],
    [1554212,"2026-05-11 14:30:00","6922","2.739","216.1","5.619","217.4","1010.96","24.37","40.86","NAN","0.0"],
    [1554213,"2026-05-11 14:40:00","6923","2.717","225.0","8.1","242.0","1010.904","24.5","40.45","NAN","0.0"],
    [1554214,"2026-05-11 14:50:00","6924","2.978","214.9","7.481","231.0","1010.763","24.29","41.9","NAN","0.0"],
    [1554215,"2026-05-11 15:00:00","6925","3.3810000000000002","209.9","7.4479999999999995","206.1","1010.688","23.49","48.46","NAN","0.0"],
    [1554216,"2026-05-11 15:10:00","6926","3.912","209.1","7.807","195.3","1010.686","23.17","48.49","NAN","0.0"],
    [1554217,"2026-05-11 15:20:00","6927","2.964","208.8","6.697","197.5","1010.673","23.01","48.18","NAN","0.0"],
    [1554218,"2026-05-11 15:30:00","6928","2.8","223.8","6.729","247.3","1010.638","23.31","46.24","NAN","0.0"],
    [1554219,"2026-05-11 15:40:00","6929","3.158","221.9","7.546","228.9","1010.716","23.35","46.13","NAN","0.0"],
    [1554220,"2026-05-11 15:50:00","6930","3.609","226.9","7.611000000000001","256.6","1010.805","22.65","49.36","NAN","0.0"],
    [1554221,"2026-05-11 16:00:00","6931","3.4760000000000004","217.6","7.644","223.6","1010.82","22.55","52.01","NAN","0.0"],
    [1554222,"2026-05-11 16:10:00","6932","3.202","219.7","7.546","198.1","1010.803","22.31","54.25","NAN","0.0"],
    [1554223,"2026-05-11 16:20:00","6933","3.597","223.5","8.79","240.6","1010.795","22.31","56.66","NAN","0.0"],
    [1554224,"2026-05-11 16:30:00","6934","2.763","222.9","5.847","211.6","1010.88","22.31","56.45","NAN","0.0"],
    [1554225,"2026-05-11 16:40:00","6935","4.327","224.8","9.38","221.3","1010.975","21.85","56.49","NAN","0.0"],
    [1554226,"2026-05-11 16:50:00","6936","3.9789999999999996","225.0","9.28","233.4","1011.007","21.66","56.29","NAN","0.0"],
    [1554227,"2026-05-11 17:00:00","6937","3.033","224.1","7.285","234.5","1011.1439999999999","21.95","55.1","NAN","0.0"],
    [1554228,"2026-05-11 17:10:00","6938","4.282","233.5","10.29","245.7","1011.2189999999999","21.91","50.59","NAN","0.0"],
    [1554229,"2026-05-11 17:20:00","6939","4.053999999999999","235.2","8.1","235.4","1011.2610000000001","21.75","51.13","NAN","0.0"],
    [1554230,"2026-05-11 17:30:00","6940","4.0360000000000005","230.0","9.08","238.7","1011.427","21.59","53.92","NAN","0.0"],
    [1554231,"2026-05-11 17:40:00","6941","4.79","242.3","9.9","244.1","1011.3489999999999","21.18","55.09","NAN","0.0"],
    [1554232,"2026-05-11 17:50:00","6942","4.328","228.7","9.6","228.3","1011.3739999999999","21.12","54.35","NAN","0.0"],
    [1554233,"2026-05-11 18:00:00","6943","3.3360000000000003","228.7","6.5329999999999995","228.3","1011.409","21.12","54.59","NAN","0.0"],
    [1554234,"2026-05-11 18:10:00","6944","2.967","224.6","6.5329999999999995","238.2","1011.4889999999999","20.99","57.63","NAN","0.0"],
    [1554235,"2026-05-11 18:20:00","6945","2.9189999999999996","228.1","6.435","227.4","1011.596","20.76","59.12","NAN","0.0"],
    [1554236,"2026-05-11 18:30:00","6946","2.9730000000000003","230.9","6.5329999999999995","233.6","1011.653","20.66","59.49","NAN","0.0"],
    [1554237,"2026-05-11 18:40:00","6947","2.533","225.6","5.521","229.3","1011.677","20.5","60.38","NAN","0.0"],
    [1554238,"2026-05-11 18:50:00","6948","2.7769999999999997","221.4","5.978","228.9","1011.7810000000001","20.44","59.97","NAN","0.0"],
    [1554239,"2026-05-11 19:00:00","6949","2.34","220.6","5.357","215.4","1011.799","20.25","60.48","NAN","0.0"],
    [1554240,"2026-05-11 19:10:00","6950","1.891","218.1","4.051","225.2","1011.948","20.26","59.39","NAN","0.0"],
    [1554241,"2026-05-11 19:20:00","6951","2.229","232.3","4.802","237.9","1012.07","20.45","53.13","NAN","0.0"],
    [1554242,"2026-05-11 19:30:00","6952","2.426","238.2","7.154","249.8","1012.216","20.75","46.67","NAN","0.0"],
    [1554243,"2026-05-11 19:40:00","6953","2.875","239.5","6.7620000000000005","243.4","1012.325","20.85","43.46","NAN","0.0"],
    [1554244,"2026-05-11 19:50:00","6954","2.492","236.4","5.4879999999999995","239.5","1012.4119999999999","20.84","41.87","NAN","0.0"],
    [1554245,"2026-05-11 20:00:00","6955","2.562","235.4","5.553","241.8","1012.551","20.7","42.08","NAN","0.0"],
    [1554246,"2026-05-11 20:10:00","6956","2.201","229.7","5.031000000000001","204.5","1012.7460000000001","20.57","43.04","NAN","0.0"],
    [1554247,"2026-05-11 20:20:00","6957","2.7110000000000003","241.1","6.141","236.1","1012.803","20.49","44.19","NAN","0.0"],
    [1554248,"2026-05-11 20:30:00","6958","2.104","240.0","5.227","244.1","1012.8660000000001","20.42","45.53","NAN","0.0"],
    [1554249,"2026-05-11 20:40:00","6959","3.1039999999999996","240.5","5.063","240.6","1012.956","20.28","46.72","NAN","0.0"],
    [1554250,"2026-05-11 20:50:00","6960","3.588","241.6","6.011","251.9","1013.015","20.26","46.82","NAN","0.0"],
    [1554251,"2026-05-11 21:00:00","6961","2.206","238.9","3.7889999999999997","255.0","1013.2130000000001","20.22","46.97","NAN","0.0"],
    [1554252,"2026-05-11 21:10:00","6962","2.201","242.7","4.737","243.6","1013.283","20.31","45.85","NAN","0.0"],
    [1554253,"2026-05-11 21:20:00","6963","1.189","257.5","3.463","232.2","1013.324","20.45","44.81","NAN","0.0"],
    [1554254,"2026-05-11 21:30:00","6964","0.884","262.3","3.365","273.5","1013.423","20.53","44.47","NAN","0.0"],
    [1554255,"2026-05-11 21:40:00","6965","0.262","135.5","0.784","274.3","1013.6239999999999","20.46","44.46","NAN","0.0"],
    [1554256,"2026-05-11 21:50:00","6966","1.4569999999999999","123.6","2.94","110.0","1013.7660000000001","20.21","46.73","NAN","0.0"],
    [1554257,"2026-05-11 22:00:00","6967","1.778","88.7","3.6910000000000003","86.5","1013.857","19.68","52.17","NAN","0.0"],
    [1554258,"2026-05-11 22:10:00","6968","1.6680000000000001","79.81","3.071","77.0","1014.0060000000001","19.46","53.94","NAN","0.0"],
    [1554259,"2026-05-11 22:20:00","6969","1.58","59.46","3.397","70.35","1014.1030000000001","19.39","55.95","NAN","0.0"],
    [1554260,"2026-05-11 22:30:00","6970","1.5519999999999998","51.34","3.0380000000000003","36.67","1014.279","19.05","64.39","NAN","0.0"],
    [1554261,"2026-05-11 22:40:00","6971","1.575","47.98","2.907","53.45","1014.29","18.67","67.67","NAN","0.0"],
    [1554262,"2026-05-11 22:50:00","6972","1.159","53.19","2.7769999999999997","93.9","1014.288","18.47","68.49","NAN","0.0"],
    [1554263,"2026-05-11 23:00:00","6973","0.7509999999999999","13.59","1.601","54.49","1014.299","18.5","67.35","NAN","0.0"],
    [1554264,"2026-05-11 23:10:00","6974","0.695","2.6319999999999997","1.601","28.3","1014.263","18.73","65.23","NAN","0.0"],
    [1554265,"2026-05-11 23:20:00","6975","0.5820000000000001","60.01","1.405","68.35","1014.2289999999999","18.77","64.27","NAN","0.0"],
    [1554266,"2026-05-11 23:30:00","6976","0.9109999999999999","30.93","1.895","19.11","1014.086","18.72","63.53","NAN","0.0"],
    [1554267,"2026-05-11 23:40:00","6977","0.763","18.11","1.9269999999999998","16.61","1014.1039999999999","18.82","62.74","NAN","0.0"],
    [1554268,"2026-05-11 23:50:00","6978","0.598","50.9","1.274","62.1","1014.153","18.76","62.1","NAN","0.0"],
    [1554269,"2026-05-12 00:00:00","6979","0.47","30.7","1.3719999999999999","68.45","1014.1","18.67","61.22","NAN","0.0"],
    [1554270,"2026-05-12 00:10:00","6980","0.563","53.68","1.307","27.93","1014.054","18.68","59.4","NAN","0.0"],
    [1554271,"2026-05-12 00:20:00","6981","0.727","64.86","1.274","66.91","1014.1339999999999","18.55","59.81","NAN","0.0"],
    [1554272,"2026-05-12 00:30:00","6982","0.435","29.93","1.111","39.78","1014.1030000000001","18.34","59.68","NAN","0.0"],
    [1554273,"2026-05-12 00:40:00","6983","0.632","29.21","1.797","8.52","1014.1189999999999","18.31","58.34","NAN","0.0"],
    [1554274,"2026-05-12 00:50:00","6984","0.7559999999999999","44.22","1.47","33.71","1014.097","18.18","58.26","NAN","0.0"],
    [1554275,"2026-05-12 01:00:00","6985","0.392","30.56","1.274","37.53","1013.878","18","58.72","NAN","0.0"],
    [1554276,"2026-05-12 01:10:00","6986","0.26","341.6","1.111","15.46","1013.857","18.08","58.3","NAN","0.0"],
    [1554277,"2026-05-12 01:20:00","6987","0.222","347.8","0.7509999999999999","350.3","1013.827","18.13","58.2","NAN","0.0"],
    [1554278,"2026-05-12 01:30:00","6988","0.302","33.53","0.784","49.9","1013.802","18.27","58.22","NAN","0.0"],
    [1554279,"2026-05-12 01:40:00","6989","0.544","9.41","1.209","5.191","1013.722","18.22","58.89","NAN","0.0"],
    [1554280,"2026-05-12 01:50:00","6990","0.659","31.53","1.2409999999999999","37.83","1013.69","18.32","58.88","NAN","0.0"],
    [1554281,"2026-05-12 02:00:00","6991","0.762","39.42","1.5030000000000001","35.04","1013.5939999999999","17.95","60.38","NAN","0.0"],
    [1554282,"2026-05-12 02:10:00","6992","0.708","27.3","1.209","32.06","1013.58","17.81","61.13","NAN","0.0"],
    [1554283,"2026-05-12 02:20:00","6993","0.769","20.12","1.797","29.43","1013.4739999999999","17.81","61.27","NAN","0.0"],
    [1554284,"2026-05-12 02:30:00","6994","0.9109999999999999","5.9079999999999995","1.96","8.94","1013.448","17.73","61.81","NAN","0.0"],
    [1554285,"2026-05-12 02:40:00","6995","0.649","8.34","1.4369999999999998","2.783","1013.39","17.63","62.57","NAN","0.0"],
    [1554286,"2026-05-12 02:50:00","6996","0.57","39.8","1.209","56.34","1013.444","17.41","63.7","NAN","0.0"],
    [1554287,"2026-05-12 03:00:00","6997","0.83","5.377000000000001","1.633","26.49","1013.5","17.35","63.85","NAN","0.0"],
    [1554288,"2026-05-12 03:10:00","6998","0.728","355.7","1.5030000000000001","16.25","1013.534","17.48","63.37","NAN","0.0"],
    [1554289,"2026-05-12 03:20:00","6999","0.568","15.51","1.601","17.85","1013.4839999999999","17.35","63.87","NAN","0.0"],
    [1554290,"2026-05-12 03:30:00","7000","1.234","16.57","2.0580000000000003","20.38","1013.4630000000001","17.17","64.52","NAN","0.0"],
    [1554291,"2026-05-12 03:40:00","7001","1.256","11.69","2.189","23.78","1013.4780000000001","17.22","64.19","NAN","0.0"],
    [1554292,"2026-05-12 03:50:00","7002","1.143","8.49","1.96","3.94","1013.4680000000001","17.15","64.44","NAN","0.0"],
    [1554293,"2026-05-12 04:00:00","7003","1.402","6.499","2.287","20.93","1013.465","17.08","64.67","NAN","0.0"],
    [1554294,"2026-05-12 04:10:00","7004","0.91","2.0909999999999997","2.189","11.73","1013.561","17.04","64.84","NAN","0.0"],
    [1554295,"2026-05-12 04:20:00","7005","1.044","359.6","2.189","11.73","1013.7","17.04","64.75","NAN","0.0"],
    [1554296,"2026-05-12 04:30:00","7006","0.893","3.0589999999999997","1.47","3.573","1013.806","17.1","64.49","NAN","0.0"],
    [1554297,"2026-05-12 04:40:00","7007","0.445","353.2","1.274","13.25","1013.842","17.2","64.32","NAN","0.0"],
    [1554298,"2026-05-12 04:50:00","7008","0.6890000000000001","7.199","1.568","13.78","1013.7719999999999","17.32","63.49","NAN","0.0"],
    [1554299,"2026-05-12 05:00:00","7009","0.529","14.27","1.209","28.39","1013.7239999999999","17.15","64.17","NAN","0.0"],
    [1554300,"2026-05-12 05:10:00","7010","0.601","15.16","1.307","34.75","1013.789","17.18","64.33","NAN","0.0"],
    [1554301,"2026-05-12 05:20:00","7011","0.909","9.8","1.633","14.44","1013.8389999999999","17.33","63.68","NAN","0.0"],
    [1554302,"2026-05-12 05:30:00","7012","0.759","13.08","1.633","2.82","1013.8710000000001","17.48","63.16","NAN","0.0"],
    [1554303,"2026-05-12 05:40:00","7013","0.5670000000000001","24.36","0.9470000000000001","36.18","1013.936","17.82","61.93","NAN","0.0"],
    [1554304,"2026-05-12 05:50:00","7014","0.76","25.27","1.5030000000000001","22.86","1014.046","18.02","60.96","NAN","0.0"],
    [1554305,"2026-05-12 06:00:00","7015","0.767","85.0","1.339","68.19","1014.074","18.53","59.81","NAN","0.0"],
    [1554306,"2026-05-12 06:10:00","7016","0.616","75.48","0.9470000000000001","92.6","1014.275","18.91","58.53","NAN","0.0"],
    [1554307,"2026-05-12 06:20:00","7017","0.7240000000000001","9.88","1.764","2.835","1014.279","19.49","55.41","NAN","0.0"],
    [1554308,"2026-05-12 06:30:00","7018","0.7829999999999999","336.1","2.0909999999999997","297.0","1014.2660000000001","19.59","54.24","NAN","0.0"],
    [1554309,"2026-05-12 06:40:00","7019","0.8390000000000001","355.4","1.764","323.6","1014.2180000000001","19.81","52.56","NAN","0.0"],
    [1554310,"2026-05-12 06:50:00","7020","0.91","2.741","2.352","22.68","1014.273","19.91","51.65","NAN","0.0"],
    [1554311,"2026-05-12 07:00:00","7021","1.318","76.81","2.7769999999999997","60.31","1014.4069999999999","20.08","52.96","NAN","0.0"],
    [1554312,"2026-05-12 07:10:00","7022","1.925","58.38","2.9730000000000003","72.15","1014.459","19.88","53.45","NAN","0.0"],
    [1554313,"2026-05-12 07:20:00","7023","1.7530000000000001","56.86","3.005","28.06","1014.566","19.76","54.78","NAN","0.0"],
    [1554314,"2026-05-12 07:30:00","7024","1.393","47.95","2.515","61.27","1014.6110000000001","19.96","53.96","NAN","0.0"],
    [1554315,"2026-05-12 07:40:00","7025","1.355","78.66","2.5810000000000004","77.03","1014.643","20.34","54.18","NAN","0.0"],
    [1554316,"2026-05-12 07:50:00","7026","1.921","91.6","3.005","78.15","1014.541","20.35","55.51","NAN","0.0"],
    [1554317,"2026-05-12 08:00:00","7027","1.83","79.51","2.7769999999999997","58.91","1014.4169999999999","20.66","53.06","NAN","0.0"],
    [1554318,"2026-05-12 08:10:00","7028","2.556","90.7","4.312","96.7","1014.439","20.03","58.35","NAN","0.0"],
    [1554319,"2026-05-12 08:20:00","7029","3.0389999999999997","82.8","4.573","79.05","1014.362","19.18","66.53","NAN","0.0"],
    [1554320,"2026-05-12 08:30:00","7030","2.86","82.4","5.227","70.85","1014.304","19.45","66.64","NAN","0.0"],
    [1554321,"2026-05-12 08:40:00","7031","2.78","75.58","4.671","89.3","1014.295","19.24","69.27","NAN","0.0"],
    [1554322,"2026-05-12 08:50:00","7032","2.401","84.9","4.606","88.3","1014.444","19.49","68.51","NAN","0.0"],
    [1554323,"2026-05-12 09:00:00","7033","2.206","87.7","3.6910000000000003","77.24","1014.544","19.59","69.81","NAN","0.0"],
    [1554324,"2026-05-12 09:10:00","7034","3.157","93.9","4.965","105.9","1014.648","19.15","73.21","NAN","0.0"],
    [1554325,"2026-05-12 09:20:00","7035","2.7110000000000003","82.5","4.704","76.31","1014.666","18.92","76.11","NAN","0.0"],
    [1554326,"2026-05-12 09:30:00","7036","3.096","89.1","4.704","86.6","1014.693","19.26","74.72","NAN","0.0"],
    [1554327,"2026-05-12 09:40:00","7037","3.3989999999999996","89.8","5.455","85.3","1014.688","19.21","79.7","NAN","0.0"],
    [1554328,"2026-05-12 09:50:00","7038","2.917","75.34","5.815","69.97","1014.696","19.17","83.2","NAN","0.0"],
    [1554329,"2026-05-12 10:00:00","7039","3.25","74.31","5.292000000000001","67.88","1014.658","19.09","83.1","NAN","0.0"],
    [1554330,"2026-05-12 10:10:00","7040","3.326","72.48","5.227","62.9","1014.6160000000001","19.19","82.6","NAN","0.0"],
    [1554331,"2026-05-12 10:20:00","7041","3.577","80.1","5.7170000000000005","86.1","1014.673","19.24","82.8","NAN","0.0"],
    [1554332,"2026-05-12 10:30:00","7042","3.5789999999999997","75.3","5.455","72.17","1014.633","19.38","83.3","NAN","0.0"],
    [1554333,"2026-05-12 10:40:00","7043","3.123","71.05","5.651","80.5","1014.576","19.68","82.6","NAN","0.0"],
    [1554334,"2026-05-12 10:50:00","7044","2.8510000000000004","95.8","5.39","96.3","1014.5210000000001","20.24","79.74","NAN","0.0"],
    [1554335,"2026-05-12 11:00:00","7045","3.266","99.7","5.455","98.2","1014.4989999999999","20.13","81.2","NAN","0.0"],
    [1554336,"2026-05-12 11:10:00","7046","2.883","110.4","5.063","114.4","1014.439","19.99","82.6","NAN","0.0"],
    [1554337,"2026-05-12 11:20:00","7047","3.048","114.1","4.835","114.5","1014.284","19.84","83.6","NAN","0.0"],
    [1554338,"2026-05-12 11:30:00","7048","3.037","110.1","4.671","97.5","1014.138","19.97","82.6","NAN","0.0"],
    [1554339,"2026-05-12 11:40:00","7049","3.114","100.7","5.553","94.8","1013.951","20.06","82.1","NAN","0.0"],
    [1554340,"2026-05-12 11:50:00","7050","3.411","106.8","6.042999999999999","94.2","1013.806","19.96","83.1","NAN","0.0"],
    [1554341,"2026-05-12 12:00:00","7051","4.323","106.1","7.513","117.3","1013.727","19.44","78.75","NAN","0.0"],
    [1554342,"2026-05-12 12:10:00","7052","3.873","116.3","7.154","104.6","1013.694","19.45","77.76","NAN","0.0"],
    [1554343,"2026-05-12 12:20:00","7053","3.9160000000000004","116.1","6.729","122.4","1013.654","19.37","78.24","NAN","0.0"],
    [1554344,"2026-05-12 12:30:00","7054","3.8560000000000003","114.3","6.37","111.2","1013.584","19.27","78.72","NAN","0.0"],
    [1554345,"2026-05-12 12:40:00","7055","3.801","121.1","6.7620000000000005","98.3","1013.4730000000001","19.26","78.24","NAN","0.0"],
    [1554346,"2026-05-12 12:50:00","7056","3.967","109.3","7.023","98.7","1013.448","19.38","77.64","NAN","0.0"],
    [1554347,"2026-05-12 13:00:00","7057","3.515","101.3","6.337000000000001","112.0","1013.42","19.3","77.92","NAN","0.0"],
    [1554348,"2026-05-12 13:10:00","7058","3.7310000000000003","106.2","7.4479999999999995","104.5","1013.41","19.09","79.01","NAN","0.0"],
    [1554349,"2026-05-12 13:20:00","7059","3.58","111.5","5.978","121.1","1013.423","18.8","81.1","NAN","0.0"],
    [1554350,"2026-05-12 13:30:00","7060","3.4210000000000003","110.0","6.501","108.4","1013.2389999999999","18.72","82.5","NAN","0.0"],
    [1554351,"2026-05-12 13:40:00","7061","2.8789999999999996","110.6","5.096","109.7","1013.091","19","82.5","NAN","0.0"],
    [1554352,"2026-05-12 13:50:00","7062","3.475","123.6","5.4879999999999995","99.8","1012.9680000000001","18.88","83.5","NAN","0.0"],
    [1554353,"2026-05-12 14:00:00","7063","3.472","117.9","6.1739999999999995","116.1","1012.8","18.94","83.2","NAN","0.0"],
    [1554354,"2026-05-12 14:10:00","7064","3.595","120.1","6.0760000000000005","115.4","1012.6339999999999","19.03","82.5","NAN","0.0"],
    [1554355,"2026-05-12 14:20:00","7065","3.225","105.8","5.978","115.8","1012.6239999999999","19.23","81.3","NAN","0.0"],
    [1554356,"2026-05-12 14:30:00","7066","3.687","109.1","6.207000000000001","102.8","1012.544","19.1","81.3","NAN","0.0"],
    [1554357,"2026-05-12 14:40:00","7067","3.178","107.8","5.292000000000001","112.5","1012.362","18.99","81.8","NAN","0.0"],
    [1554358,"2026-05-12 14:50:00","7068","3.112","110.3","5.325","102.8","1012.442","18.97","81.9","NAN","0.0"],
    [1554359,"2026-05-12 15:00:00","7069","3.0660000000000003","102.6","5.1610000000000005","100.4","1012.382","19.07","80.8","NAN","0.0"],
    [1554360,"2026-05-12 15:10:00","7070","2.7239999999999998","109.8","4.998","113.2","1012.545","18.74","82.3","NAN","0.0"],
    [1554361,"2026-05-12 15:20:00","7071","2.799","102.4","4.933","104.4","1012.3380000000001","18.65","83.2","NAN","0.0"],
    [1554362,"2026-05-12 15:30:00","7072","2.557","99.2","4.4430000000000005","98.5","1012.383","18.72","83.1","NAN","0.0"],
    [1554363,"2026-05-12 15:40:00","7073","2.585","100.7","4.41","103.3","1012.6469999999999","18.63","82.2","NAN","0.0"],
    [1554364,"2026-05-12 15:50:00","7074","2.1959999999999997","82.3","6.599","321.5","1013.013","18.38","82.9","NAN","0.0"],
    [1554365,"2026-05-12 16:00:00","7075","3.208","353.2","8.59","317.1","1013.445","15.04","84.8","NAN","10.4"],
    [1554366,"2026-05-12 16:10:00","7076","1.5759999999999998","99.5","3.397","98.5","1012.597","12.49","98.8","NAN","0.5"],
    [1554367,"2026-05-12 16:20:00","7077","0.263","171.7","0.915","177.0","1012.206","12.89","99.7","NAN","0.0"],
    [1554368,"2026-05-12 16:30:00","7078","0.555","95.1","2.0580000000000003","64.39","1012.182","13.43","99.8","NAN","0.0"],
    [1554369,"2026-05-12 16:40:00","7079","2.299","113.1","4.638999999999999","117.3","1012.552","14.3","96.3","NAN","0.0"],
    [1554370,"2026-05-12 16:50:00","7080","2.311","101.5","4.083","95.8","1012.388","15.09","87.1","NAN","0.1"],
    [1554371,"2026-05-12 17:00:00","7081","1.238","124.4","3.365","107.2","1012.06","15.17","84.2","NAN","0.0"],
    [1554372,"2026-05-12 17:10:00","7082","0.34299999999999997","6.961","1.045","358.7","1012.028","15.58","84","NAN","0.0"],
    [1554373,"2026-05-12 17:20:00","7083","0.53","344.0","1.339","332.3","1011.846","15.78","81.4","NAN","0.0"],
    [1554374,"2026-05-12 17:30:00","7084","0.26899999999999996","304.1","1.274","268.3","1011.7810000000001","16.11","80.6","NAN","0.0"],
    [1554375,"2026-05-12 17:40:00","7085","0.745","109.9","1.5030000000000001","282.1","1011.6310000000001","16.5","80.9","NAN","0.0"],
    [1554376,"2026-05-12 17:50:00","7086","1.825","111.5","2.8089999999999997","112.6","1011.385","16.4","80.6","NAN","0.0"],
    [1554377,"2026-05-12 18:00:00","7087","1.7890000000000001","88.7","3.267","89.0","1011.26","16.33","81.6","NAN","0.0"],
    [1554378,"2026-05-12 18:10:00","7088","2.303","97.4","3.822","107.8","1011.253","16.43","81.5","NAN","0.0"],
    [1554379,"2026-05-12 18:20:00","7089","2.1790000000000003","92.5","3.365","108.2","1011.3689999999999","16.39","83.2","NAN","0.0"],
    [1554380,"2026-05-12 18:30:00","7090","1.699","92.5","3.0380000000000003","98.4","1011.561","16.22","84.8","NAN","0.1"],
    [1554381,"2026-05-12 18:40:00","7091","2.135","45.05","4.051","50.26","1011.7710000000001","16.23","86.7","NAN","0.0"],
    [1554382,"2026-05-12 18:50:00","7092","1.486","40.01","3.332","49.83","1011.9989999999999","16.05","88.6","NAN","0.1"],
    [1554383,"2026-05-12 19:00:00","7093","0.455","36.69","2.319","28.37","1012.334","16.17","86.9","NAN","0.0"],
    [1554384,"2026-05-12 19:10:00","7094","1.125","46.52","2.221","34.88","1012.187","16.58","82.1","NAN","0.0"],
    [1554385,"2026-05-12 19:20:00","7095","1.23","78.64","2.123","56.72","1012.0980000000001","16.94","80.8","NAN","0.0"],
    [1554386,"2026-05-12 19:30:00","7096","0.838","62.08","1.47","45.3","1012.076","16.73","82.4","NAN","0.0"],
    [1554387,"2026-05-12 19:40:00","7097","0.316","108.8","1.013","350.9","1011.8919999999999","16.76","82","NAN","0.0"],
    [1554388,"2026-05-12 19:50:00","7098","0.637","220.8","1.307","239.9","1011.8330000000001","16.73","82.7","NAN","0.0"],
    [1554389,"2026-05-12 20:00:00","7099","1.038","261.6","2.45","235.6","1012.08","17.26","75.89","NAN","0.0"],
    [1554390,"2026-05-12 20:10:00","7100","1.1","227.7","3.299","281.4","1012.143","17.72","70.46","NAN","0.0"],
    [1554391,"2026-05-12 20:20:00","7101","1.669","115.6","3.1689999999999996","112.5","1012.25","17.05","81","NAN","0.0"],
    [1554392,"2026-05-12 20:30:00","7102","1.365","147.3","2.8089999999999997","157.2","1012.2539999999999","16.76","83","NAN","0.0"],
    [1554393,"2026-05-12 20:40:00","7103","0.6559999999999999","191.1","1.666","211.7","1012.332","16.85","83.1","NAN","0.0"],
    [1554394,"2026-05-12 20:50:00","7104","0.695","212.5","1.96","235.3","1012.457","16.75","81.4","NAN","0.0"],
    [1554395,"2026-05-12 21:00:00","7105","0.685","204.5","1.47","246.8","1012.539","16.7","81.6","NAN","0.0"],
    [1554396,"2026-05-12 21:10:00","7106","0.708","206.3","1.666","236.3","1012.5369999999999","16.57","83","NAN","0.0"],
    [1554397,"2026-05-12 21:20:00","7107","0.6409999999999999","238.2","1.405","236.4","1012.535","16.73","81.8","NAN","0.0"],
    [1554398,"2026-05-12 21:30:00","7108","0.389","252.3","1.274","236.2","1012.454","17.08","77.27","NAN","0.0"],
    [1554399,"2026-05-12 21:40:00","7109","0.596","300.0","1.9269999999999998","259.9","1012.497","17.28","73.06","NAN","0.0"],
    [1554400,"2026-05-12 21:50:00","7110","0.419","331.6","1.209","325.7","1012.572","17.38","71.37","NAN","0.0"],
    [1554401,"2026-05-12 22:00:00","7111","0.322","109.2","0.882","314.2","1012.577","17.27","72.94","NAN","0.0"],
    [1554402,"2026-05-12 22:10:00","7112","0.7","51.32","1.209","48.15","1012.693","17.04","76.74","NAN","0.0"],
    [1554403,"2026-05-12 22:20:00","7113","1.129","50.37","1.797","44.59","1012.791","16.92","78.94","NAN","0.0"],
    [1554404,"2026-05-12 22:30:00","7114","0.603","75.57","1.4369999999999998","63.51","1012.8489999999999","16.77","81","NAN","0.0"],
    [1554405,"2026-05-12 22:40:00","7115","1.297","81.5","2.025","79.92","1012.914","16.76","82.5","NAN","0.0"],
    [1554406,"2026-05-12 22:50:00","7116","1.125","54.53","1.9269999999999998","57.57","1013.0360000000001","16.71","83","NAN","0.0"],
    [1554407,"2026-05-12 23:00:00","7117","0.882","25.47","2.254","27.27","1013.077","16.65","81.7","NAN","0.0"],
    [1554408,"2026-05-12 23:10:00","7118","0.583","14.43","1.274","346.7","1013.137","16.57","82.8","NAN","0.0"],
    [1554409,"2026-05-12 23:20:00","7119","0.5479999999999999","29.85","1.5030000000000001","16.74","1013.072","16.58","83","NAN","0.0"],
    [1554410,"2026-05-12 23:30:00","7120","0.8959999999999999","74.05","1.9269999999999998","113.8","1013.048","16.62","83.6","NAN","0.0"],
    [1554411,"2026-05-12 23:40:00","7121","1.137","71.45","1.993","65.98","1013.068","16.67","82.8","NAN","0.0"],
    [1554412,"2026-05-12 23:50:00","7122","1.085","22.94","1.633","4.353","1013.107","16.65","83.3","NAN","0.0"],
    [1554413,"2026-05-13 00:00:00","7123","0.515","13.42","1.699","2.1630000000000003","1013.085","16.54","84.5","NAN","0.0"],
    [1554414,"2026-05-13 00:10:00","7124","0.7979999999999999","51.79","1.47","49.89","1013.0089999999999","16.47","84","NAN","0.0"],
    [1554415,"2026-05-13 00:20:00","7125","0.8079999999999999","40.9","1.568","9.45","1012.91","16.37","84.1","NAN","0.0"],
    [1554416,"2026-05-13 00:30:00","7126","0.45899999999999996","11.08","1.993","351.2","1012.84","16.29","83.9","NAN","0.0"],
    [1554417,"2026-05-13 00:40:00","7127","0.444","24.07","1.143","59.27","1012.826","16.24","83.7","NAN","0.0"],
    [1554418,"2026-05-13 00:50:00","7128","0.444","29.36","0.8490000000000001","38.12","1012.807","16.21","83.9","NAN","0.0"],
    [1554419,"2026-05-13 01:00:00","7129","0.366","10.7","0.915","30.12","1012.712","16.19","84.5","NAN","0.0"],
    [1554420,"2026-05-13 01:10:00","7130","0.604","2.105","1.045","3.602","1012.5939999999999","16.23","84.2","NAN","0.0"],
    [1554421,"2026-05-13 01:20:00","7131","0.574","7.334","1.339","7.947","1012.5319999999999","16.33","83.6","NAN","0.0"],
    [1554422,"2026-05-13 01:30:00","7132","0.04","23.84","0.555","1.625","1012.461","16.27","83.7","NAN","0.0"],
    [1554423,"2026-05-13 01:40:00","7133","0.068","101.1","0.457","206.7","1012.434","16.15","84.2","NAN","0.0"],
    [1554424,"2026-05-13 01:50:00","7134","0.0","0.0","0.0","0.0","1012.382","16.18","84.1","NAN","0.0"],
    [1554425,"2026-05-13 02:00:00","7135","0.0","0.0","0.0","0.0","1012.297","16.12","85.3","NAN","0.0"],
    [1554426,"2026-05-13 02:10:00","7136","0.057","190.2","0.555","183.0","1012.2","16.16","85.6","NAN","0.0"],
    [1554427,"2026-05-13 02:20:00","7137","0.244","241.8","0.784","250.8","1012.2260000000001","16.26","85.8","NAN","0.0"],
    [1554428,"2026-05-13 02:30:00","7138","0.392","262.0","1.47","248.9","1012.2539999999999","16.55","85.4","NAN","0.0"],
    [1554429,"2026-05-13 02:40:00","7139","0.752","260.6","2.45","261.0","1012.2130000000001","16.67","84","NAN","0.0"],
    [1554430,"2026-05-13 02:50:00","7140","1.208","279.7","2.254","256.9","1012.2080000000001","16.6","82.7","NAN","0.0"],
    [1554431,"2026-05-13 03:00:00","7141","0.711","238.6","1.895","234.0","1012.079","16.55","82.7","NAN","0.0"],
    [1554432,"2026-05-13 03:10:00","7142","0.789","234.5","2.319","234.2","1012.061","16.48","83.9","NAN","0.0"],
    [1554433,"2026-05-13 03:20:00","7143","0.9540000000000001","243.5","1.96","245.8","1012.077","16.45","83.4","NAN","0.0"],
    [1554434,"2026-05-13 03:30:00","7144","1.138","273.7","2.548","256.3","1012.062","16.58","81.6","NAN","0.0"],
    [1554435,"2026-05-13 03:40:00","7145","0.815","267.5","2.385","265.7","1012.058","16.65","79.1","NAN","0.0"],
    [1554436,"2026-05-13 03:50:00","7146","1.1740000000000002","288.1","3.5610000000000004","270.1","1012.1610000000001","16.64","73.98","NAN","0.0"],
    [1554437,"2026-05-13 04:00:00","7147","1.227","299.9","3.332","336.2","1012.296","16.47","71.93","NAN","0.0"],
    [1554438,"2026-05-13 04:10:00","7148","1.0859999999999999","285.1","3.365","266.2","1012.301","16.28","72.61","NAN","0.0"],
    [1554439,"2026-05-13 04:20:00","7149","1.023","284.6","3.365","317.5","1012.315","16.19","71.45","NAN","0.0"],
    [1554440,"2026-05-13 04:30:00","7150","1.912","325.9","4.737","311.7","1012.308","16.01","69.35","NAN","0.0"],
    [1554441,"2026-05-13 04:40:00","7151","1.989","325.1","4.638999999999999","329.1","1012.334","15.87","68.03","NAN","0.0"],
    [1554442,"2026-05-13 04:50:00","7152","1.635","322.1","3.887","322.3","1012.443","15.81","66.96","NAN","0.0"],
    [1554443,"2026-05-13 05:00:00","7153","0.98","316.4","3.397","338.2","1012.4580000000001","15.69","66.19","NAN","0.0"],
    [1554444,"2026-05-13 05:10:00","7154","1.449","301.3","3.855","306.1","1012.445","15.57","64.95","NAN","0.0"],
    [1554445,"2026-05-13 05:20:00","7155","1.162","298.8","3.92","282.4","1012.575","15.57","65.05","NAN","0.0"],
    [1554446,"2026-05-13 05:30:00","7156","1.786","320.1","4.541","284.6","1012.7860000000001","15.62","63.74","NAN","0.0"],
    [1554447,"2026-05-13 05:40:00","7157","1.369","285.5","3.7239999999999998","257.4","1012.8919999999999","15.76","62.5","NAN","0.0"],
    [1554448,"2026-05-13 05:50:00","7158","1.173","241.1","2.907","239.7","1013.084","15.59","64.35","NAN","0.0"],
    [1554449,"2026-05-13 06:00:00","7159","1.328","234.9","2.6460000000000004","258.6","1013.1039999999999","15.39","65.35","NAN","0.0"],
    [1554450,"2026-05-13 06:10:00","7160","1.43","274.2","3.593","318.9","1013.2339999999999","15.4","64.7","NAN","0.0"],
    [1554451,"2026-05-13 06:20:00","7161","1.036","301.1","3.0380000000000003","305.2","1013.321","15.57","63.35","NAN","0.0"],
    [1554452,"2026-05-13 06:30:00","7162","0.821","275.6","2.6460000000000004","303.1","1013.329","15.79","62.11","NAN","0.0"],
    [1554453,"2026-05-13 06:40:00","7163","1.021","285.9","2.254","292.7","1013.347","16.2","60.49","NAN","0.0"],
    [1554454,"2026-05-13 06:50:00","7164","1.1320000000000001","330.4","2.319","297.3","1013.404","16.41","60.19","NAN","0.0"],
    [1554455,"2026-05-13 07:00:00","7165","0.831","345.3","3.136","302.6","1013.426","16.64","60.55","NAN","0.0"],
    [1554456,"2026-05-13 07:10:00","7166","1.185","331.3","3.103","317.7","1013.495","16.98","60.15","NAN","0.0"],
    [1554457,"2026-05-13 07:20:00","7167","1.625","335.4","3.136","330.0","1013.518","17.1","59.53","NAN","0.0"],
    [1554458,"2026-05-13 07:30:00","7168","1.186","335.7","3.005","310.9","1013.558","17.14","59.14","NAN","0.0"],
    [1554459,"2026-05-13 07:40:00","7169","0.9209999999999999","344.6","3.005","8.57","1013.57","17.76","57.42","NAN","0.0"],
    [1554460,"2026-05-13 07:50:00","7170","1.36","318.3","2.6460000000000004","318.3","1013.585","17.76","57.11","NAN","0.0"],
    [1554461,"2026-05-13 08:00:00","7171","0.818","301.8","2.5810000000000004","343.3","1013.592","18.35","56.14","NAN","0.0"],
    [1554462,"2026-05-13 08:10:00","7172","0.972","174.1","2.45","18.61","1013.58","18.52","55","NAN","0.0"],
    [1554463,"2026-05-13 08:20:00","7173","1.094","173.3","2.0580000000000003","193.0","1013.6569999999999","18.3","55.93","NAN","0.0"],
    [1554464,"2026-05-13 08:30:00","7174","1.808","161.0","3.201","172.9","1013.692","18.08","56.91","NAN","0.0"],
    [1554465,"2026-05-13 08:40:00","7175","1.554","171.0","2.515","150.3","1013.62","18.06","56.49","NAN","0.0"],
    [1554466,"2026-05-13 08:50:00","7176","2.041","172.8","3.397","179.1","1013.572","18.19","57.01","NAN","0.0"],
    [1554467,"2026-05-13 09:00:00","7177","2.1790000000000003","170.4","3.495","144.9","1013.528","18.19","56.91","NAN","0.0"],
    [1554468,"2026-05-13 09:10:00","7178","2.189","180.2","3.103","181.0","1013.57","18.16","56.51","NAN","0.0"],
    [1554469,"2026-05-13 09:20:00","7179","1.714","158.4","3.103","151.0","1013.645","18.59","55","NAN","0.0"],
    [1554470,"2026-05-13 09:30:00","7180","2.303","150.9","3.6260000000000003","142.5","1013.704","18.55","54.68","NAN","0.0"],
    [1554471,"2026-05-13 09:40:00","7181","2.4530000000000003","139.7","3.985","114.0","1013.7139999999999","18.56","55.2","NAN","0.0"],
    [1554472,"2026-05-13 09:50:00","7182","2.543","128.3","4.345","111.6","1013.817","18.85","55.46","NAN","0.0"],
    [1554473,"2026-05-13 10:00:00","7183","2.215","136.9","3.6260000000000003","157.1","1013.8910000000001","18.4","57.24","NAN","0.0"],
    [1554474,"2026-05-13 10:10:00","7184","2.201","133.2","3.43","113.6","1013.921","18.71","56.2","NAN","0.0"],
    [1554475,"2026-05-13 10:20:00","7185","2.294","134.5","3.6910000000000003","170.0","1013.941","18.91","55.64","NAN","0.0"],
    [1554476,"2026-05-13 10:30:00","7186","2.278","142.6","3.528","153.1","1013.8960000000001","18.77","57.1","NAN","0.0"],
    [1554477,"2026-05-13 10:40:00","7187","2.867","171.9","4.769","175.0","1013.8860000000001","19.19","56.73","NAN","0.0"],
    [1554478,"2026-05-13 10:50:00","7188","2.867","178.6","4.475","175.1","1013.8560000000001","18.6","58.33","NAN","0.0"],
    [1554479,"2026-05-13 11:00:00","7189","2.274","184.8","4.247","170.6","1013.846","18.47","60.78","NAN","0.0"],
    [1554480,"2026-05-13 11:10:00","7190","1.598","183.4","3.855","181.7","1013.821","19.14","57.64","NAN","0.0"],
    [1554481,"2026-05-13 11:20:00","7191","2.923","178.8","4.671","176.6","1013.7539999999999","19.12","57.11","NAN","0.0"],
    [1554482,"2026-05-13 11:30:00","7192","2.827","165.4","4.279","181.4","1013.699","18.71","58.17","NAN","0.0"],
    [1554483,"2026-05-13 11:40:00","7193","2.333","173.1","4.181","161.9","1013.705","19.2","57.26","NAN","0.0"],
    [1554484,"2026-05-13 11:50:00","7194","2.758","175.7","4.835","157.3","1013.685","18.8","59.04","NAN","0.0"],
    [1554485,"2026-05-13 12:00:00","7195","2.525","184.7","4.345","177.9","1013.605","18.49","60.32","NAN","0.0"],
    [1554486,"2026-05-13 12:10:00","7196","2.326","189.9","3.985","212.4","1013.5930000000001","18.53","60.6","NAN","0.0"],
    [1554487,"2026-05-13 12:20:00","7197","2.766","178.1","4.573","174.8","1013.5939999999999","18.42","60.79","NAN","0.0"],
    [1554488,"2026-05-13 12:30:00","7198","3.287","179.4","5.063","177.0","1013.541","18.36","60.71","NAN","0.0"],
    [1554489,"2026-05-13 12:40:00","7199","3.025","181.8","5.292000000000001","178.1","1013.498","18.76","59.35","NAN","0.0"],
    [1554490,"2026-05-13 12:50:00","7200","2.875","180.2","4.704","182.9","1013.453","19.09","57.42","NAN","0.0"],
    [1554491,"2026-05-13 13:00:00","7201","2.6489999999999996","178.3","5.063","175.4","1013.404","19.13","58.2","NAN","0.0"],
    [1554492,"2026-05-13 13:10:00","7202","2.472","172.0","3.92","177.8","1013.303","19.24","56.41","NAN","0.0"],
    [1554493,"2026-05-13 13:20:00","7203","2.315","173.7","4.181","160.6","1013.211","19.36","56.58","NAN","0.0"],
    [1554494,"2026-05-13 13:30:00","7204","3.137","177.8","4.704","185.8","1013.201","18.98","57.32","NAN","0.0"],
    [1554495,"2026-05-13 13:40:00","7205","2.9539999999999997","175.5","5.031000000000001","180.7","1013.176","19.2","56.61","NAN","0.0"],
    [1554496,"2026-05-13 13:50:00","7206","3.2910000000000004","179.6","5.2589999999999995","176.6","1013.0989999999999","18.96","56.31","NAN","0.0"],
    [1554497,"2026-05-13 14:00:00","7207","2.904","174.6","5.325","175.6","1013.069","19.27","55.25","NAN","0.0"],
    [1554498,"2026-05-13 14:10:00","7208","2.9339999999999997","178.8","4.769","173.0","1012.9119999999999","19.21","55.4","NAN","0.0"],
    [1554499,"2026-05-13 14:20:00","7209","3.325","181.5","5.521","183.7","1012.758","19.17","55.2","NAN","0.0"],
    [1554500,"2026-05-13 14:30:00","7210","3.292","174.8","5.455","162.3","1012.748","18.96","56.94","NAN","0.0"],
    [1554501,"2026-05-13 14:40:00","7211","3.258","177.8","5.1610000000000005","154.3","1012.706","18.97","57.86","NAN","0.0"],
    [1554502,"2026-05-13 14:50:00","7212","3.4360000000000004","172.0","5.227","165.7","1012.706","19.1","56.25","NAN","0.0"],
    [1554503,"2026-05-13 15:00:00","7213","3.886","177.1","5.651","175.8","1012.701","18.78","56.57","NAN","0.0"],
    [1554504,"2026-05-13 15:10:00","7214","3.094","175.3","4.638999999999999","171.7","1012.721","18.84","57.73","NAN","0.0"],
    [1554505,"2026-05-13 15:20:00","7215","2.9189999999999996","173.9","4.475","157.9","1012.775","19.09","56.13","NAN","0.0"],
    [1554506,"2026-05-13 15:30:00","7216","2.807","169.1","4.737","184.1","1012.7080000000001","19.23","56.23","NAN","0.0"],
    [1554507,"2026-05-13 15:40:00","7217","2.406","161.5","4.638999999999999","149.5","1012.7080000000001","19.37","55.98","NAN","0.0"],
    [1554508,"2026-05-13 15:50:00","7218","2.59","138.4","4.345","152.8","1012.706","19.3","56.65","NAN","0.0"],
    [1554509,"2026-05-13 16:00:00","7219","2.748","151.0","4.181","158.1","1012.683","19","57.83","NAN","0.0"],
    [1554510,"2026-05-13 16:10:00","7220","2.74","128.9","4.704","111.4","1012.6460000000001","18.96","60.55","NAN","0.0"],
    [1554511,"2026-05-13 16:20:00","7221","2.562","126.5","4.149","107.8","1012.558","19.03","59","NAN","0.0"],
    [1554512,"2026-05-13 16:30:00","7222","2.459","123.5","3.7239999999999998","115.8","1012.449","18.79","60.57","NAN","0.0"],
    [1554513,"2026-05-13 16:40:00","7223","2.8169999999999997","114.9","4.051","115.0","1012.424","18.56","62","NAN","0.0"],
    [1554514,"2026-05-13 16:50:00","7224","2.502","119.6","3.92","109.7","1012.441","18.41","63.1","NAN","0.0"],
    [1554515,"2026-05-13 17:00:00","7225","2.502","113.6","4.247","110.2","1012.395","18.22","63.4","NAN","0.0"],
    [1554516,"2026-05-13 17:10:00","7226","2.449","103.1","3.822","96.6","1012.372","18.29","62.84","NAN","0.0"],
    [1554517,"2026-05-13 17:20:00","7227","2.6010000000000004","106.3","3.92","98.0","1012.3510000000001","18.36","62.77","NAN","0.0"],
    [1554518,"2026-05-13 17:30:00","7228","2.215","95.6","3.5610000000000004","87.2","1012.419","18.56","62.17","NAN","0.0"],
    [1554519,"2026-05-13 17:40:00","7229","2.4530000000000003","103.6","4.573","106.5","1012.512","18.44","61.72","NAN","0.0"],
    [1554520,"2026-05-13 17:50:00","7230","2.63","108.6","4.279","113.8","1012.551","18.26","64.19","NAN","0.0"],
    [1554521,"2026-05-13 18:00:00","7231","2.42","95.7","4.377","106.8","1012.572","18.23","65.62","NAN","0.0"],
    [1554522,"2026-05-13 18:10:00","7232","2.158","102.3","4.2139999999999995","105.9","1012.525","18.23","67.9","NAN","0.0"],
    [1554523,"2026-05-13 18:20:00","7233","2.522","104.8","4.638999999999999","115.1","1012.637","18.01","68.92","NAN","0.0"],
    [1554524,"2026-05-13 18:30:00","7234","2.116","98.2","4.051","106.2","1012.6010000000001","17.92","70.39","NAN","0.0"],
    [1554525,"2026-05-13 18:40:00","7235","2.424","89.2","3.92","99.7","1012.6519999999999","17.88","71.73","NAN","0.0"],
    [1554526,"2026-05-13 18:50:00","7236","2.274","86.0","4.149","105.9","1012.65","17.88","71.8","NAN","0.0"],
    [1554527,"2026-05-13 19:00:00","7237","2.7039999999999997","83.3","4.9","93.5","1012.67","17.8","71.35","NAN","0.0"],
    [1554528,"2026-05-13 19:10:00","7238","2.5180000000000002","72.39","4.1160000000000005","80.9","1012.6439999999999","17.7","71.41","NAN","0.0"],
    [1554529,"2026-05-13 19:20:00","7239","2.253","71.34","3.9530000000000003","71.65","1012.693","17.69","71.93","NAN","0.0"],
    [1554530,"2026-05-13 19:30:00","7240","1.7269999999999999","72.72","3.6260000000000003","45.82","1012.696","17.72","72.05","NAN","0.0"],
    [1554531,"2026-05-13 19:40:00","7241","2.136","72.7","3.985","68.96","1012.7339999999999","17.75","71.86","NAN","0.0"],
    [1554532,"2026-05-13 19:50:00","7242","2.443","73.52","4.541","67.74","1012.806","17.66","72.32","NAN","0.0"],
    [1554533,"2026-05-13 20:00:00","7243","2.484","75.7","4.41","71.54","1012.803","17.63","71.86","NAN","0.0"],
    [1554534,"2026-05-13 20:10:00","7244","2.149","74.6","3.92","50.62","1012.825","17.63","71.65","NAN","0.0"],
    [1554535,"2026-05-13 20:20:00","7245","1.605","38.16","3.0380000000000003","29.82","1012.9989999999999","17.69","71.3","NAN","0.0"],
    [1554536,"2026-05-13 20:30:00","7246","1.4809999999999999","46.82","3.299","26.05","1013.075","17.64","71.87","NAN","0.0"],
    [1554537,"2026-05-13 20:40:00","7247","1.829","46.74","3.463","8.35","1013.062","17.6","71.65","NAN","0.0"],
    [1554538,"2026-05-13 20:50:00","7248","1.558","59.64","3.299","22.82","1013.115","17.62","71.42","NAN","0.0"],
    [1554539,"2026-05-13 21:00:00","7249","1.702","42.23","2.548","26.87","1013.243","17.58","71.66","NAN","0.0"],
    [1554540,"2026-05-13 21:10:00","7250","1.431","55.1","2.7769999999999997","52.81","1013.328","17.55","71.29","NAN","0.0"],
    [1554541,"2026-05-13 21:20:00","7251","1.3319999999999999","45.09","2.548","51.78","1013.299","17.58","72.03","NAN","0.0"],
    [1554542,"2026-05-13 21:30:00","7252","1.2770000000000001","43.87","2.319","35.75","1013.204","17.52","72.9","NAN","0.0"],
    [1554543,"2026-05-13 21:40:00","7253","1.179","36.79","2.254","17.18","1013.171","17.52","72.34","NAN","0.0"],
    [1554544,"2026-05-13 21:50:00","7254","0.74","40.45","2.8089999999999997","1.9069999999999998","1013.1419999999999","17.51","72.39","NAN","0.0"],
    [1554545,"2026-05-13 22:00:00","7255","0.9","57.21","2.025","41.54","1013.053","17.51","72.59","NAN","0.0"],
    [1554546,"2026-05-13 22:10:00","7256","0.74","66.63","1.176","70.24","1012.9939999999999","17.44","72.93","NAN","0.0"],
    [1554547,"2026-05-13 22:20:00","7257","0.242","34.96","1.045","64.7","1012.882","17.43","73.16","NAN","0.0"],
    [1554548,"2026-05-13 22:30:00","7258","0.778","44.24","1.568","41.11","1012.823","17.39","73.29","NAN","0.0"],
    [1554549,"2026-05-13 22:40:00","7259","0.546","36.56","1.405","45.76","1012.807","17.34","73.69","NAN","0.0"],
    [1554550,"2026-05-13 22:50:00","7260","1.0170000000000001","39.96","1.764","34.37","1012.6010000000001","17.3","73.83","NAN","0.0"],
    [1554551,"2026-05-13 23:00:00","7261","0.434","26.05","1.764","12.71","1012.443","17.33","73.89","NAN","0.0"],
    [1554552,"2026-05-13 23:10:00","7262","0.644","53.37","1.405","60.34","1012.4110000000001","17.25","74.06","NAN","0.0"],
    [1554553,"2026-05-13 23:20:00","7263","0.154","52.61","1.274","60.21","1012.331","17.17","74.24","NAN","0.0"],
    [1554554,"2026-05-13 23:30:00","7264","0.7290000000000001","61.2","1.307","75.39","1012.2810000000001","17.14","74.25","NAN","0.0"],
    [1554555,"2026-05-13 23:40:00","7265","0.727","23.04","1.2409999999999999","38.37","1012.203","17.09","74.05","NAN","0.0"],
    [1554556,"2026-05-13 23:50:00","7266","0.764","11.6","1.764","18.76","1012.0989999999999","17.11","73.53","NAN","0.0"],
    [1554557,"2026-05-14 00:00:00","7267","0.685","359.7","1.405","353.9","1011.9760000000001","17.09","72.81","NAN","0.0"],
    [1554558,"2026-05-14 00:10:00","7268","0.387","342.3","1.078","301.6","1011.878","17.09","72.75","NAN","0.0"],
    [1554559,"2026-05-14 00:20:00","7269","0.47","11.98","1.045","10.74","1011.752","17.04","72.89","NAN","0.0"],
    [1554560,"2026-05-14 00:30:00","7270","0.5820000000000001","53.77","1.176","54.94","1011.671","17.01","73.2","NAN","0.0"],
    [1554561,"2026-05-14 00:40:00","7271","0.552","60.16","1.078","53.55","1011.44","16.96","73.61","NAN","0.0"],
    [1554562,"2026-05-14 00:50:00","7272","0.529","68.72","1.045","59.76","1011.2819999999999","16.88","73.91","NAN","0.0"],
    [1554563,"2026-05-14 01:00:00","7273","0.45899999999999996","68.42","0.7190000000000001","57.91","1011.178","16.86","74.02","NAN","0.0"],
    [1554564,"2026-05-14 01:10:00","7274","0.39299999999999996","56.21","0.882","49.33","1011.13","16.76","74.31","NAN","0.0"],
    [1554565,"2026-05-14 01:20:00","7275","0.069","109.6","0.621","115.2","1011.018","16.72","74.6","NAN","0.0"],
    [1554566,"2026-05-14 01:30:00","7276","0.195","94.0","0.915","103.3","1010.8589999999999","16.78","74.61","NAN","0.0"],
    [1554567,"2026-05-14 01:40:00","7277","0.011000000000000001","30.33","0.359","30.28","1010.7669999999999","16.72","74.73","NAN","0.0"],
    [1554568,"2026-05-14 01:50:00","7278","0.0","0.0","0.0","0.0","1010.618","16.72","74.81","NAN","0.0"],
    [1554569,"2026-05-14 02:00:00","7279","0.564","245.1","1.666","303.0","1010.556","16.78","71.14","NAN","0.0"],
    [1554570,"2026-05-14 02:10:00","7280","0.7659999999999999","279.0","1.7309999999999999","266.4","1010.45","17.19","55.75","NAN","0.0"],
    [1554571,"2026-05-14 02:20:00","7281","0.585","294.3","2.123","293.8","1010.367","17.44","51.6","NAN","0.0"],
    [1554572,"2026-05-14 02:30:00","7282","0.852","345.5","2.5810000000000004","305.9","1010.335","17.37","51.13","NAN","0.0"],
    [1554573,"2026-05-14 02:40:00","7283","0.929","343.1","2.352","303.1","1010.317","17.26","50.9","NAN","0.0"],
    [1554574,"2026-05-14 02:50:00","7284","0.38799999999999996","2.2319999999999998","1.143","332.2","1010.306","17.02","54.51","NAN","0.0"],
    [1554575,"2026-05-14 03:00:00","7285","0.867","332.4","2.6460000000000004","317.2","1010.337","16.99","52.33","NAN","0.0"],
    [1554576,"2026-05-14 03:10:00","7286","1.143","317.6","3.6260000000000003","322.2","1010.328","16.9","52.29","NAN","0.0"],
    [1554577,"2026-05-14 03:20:00","7287","0.971","297.7","3.071","323.4","1010.179","16.7","53.78","NAN","0.0"],
    [1554578,"2026-05-14 03:30:00","7288","1.171","289.6","3.071","256.7","1010.072","16.5","55.35","NAN","0.0"],
    [1554579,"2026-05-14 03:40:00","7289","1.044","281.5","3.136","267.6","1009.89","16.35","57.42","NAN","0.0"],
    [1554580,"2026-05-14 03:50:00","7290","0.8809999999999999","269.5","2.6460000000000004","290.9","1009.793","16.29","58.13","NAN","0.0"],
    [1554581,"2026-05-14 04:00:00","7291","0.7979999999999999","278.9","2.385","306.5","1009.737","16.16","58.29","NAN","0.0"],
    [1554582,"2026-05-14 04:10:00","7292","1.006","292.4","2.319","314.0","1009.73","16.11","57.54","NAN","0.0"],
    [1554583,"2026-05-14 04:20:00","7293","1.297","288.3","3.365","279.4","1009.6389999999999","16.13","55.42","NAN","0.0"],
    [1554584,"2026-05-14 04:30:00","7294","1.345","275.5","3.267","287.1","1009.615","15.99","54.51","NAN","0.0"],
    [1554585,"2026-05-14 04:40:00","7295","1.524","264.4","3.7239999999999998","293.1","1009.613","15.62","55.38","NAN","0.0"],
    [1554586,"2026-05-14 04:50:00","7296","1.405","266.4","3.234","281.8","1009.676","15.51","54.08","NAN","0.0"],
    [1554587,"2026-05-14 05:00:00","7297","1.551","266.2","3.92","283.8","1009.721","15.5","53.29","NAN","0.0"],
    [1554588,"2026-05-14 05:10:00","7298","1.7690000000000001","269.6","3.463","286.1","1009.7360000000001","15.54","53.14","NAN","0.0"],
    [1554589,"2026-05-14 05:20:00","7299","1.865","276.8","3.855","287.8","1009.721","15.58","52.93","NAN","0.0"],
    [1554590,"2026-05-14 05:30:00","7300","1.605","262.7","3.234","228.8","1009.807","15.63","52.71","NAN","0.0"],
    [1554591,"2026-05-14 05:40:00","7301","1.62","266.9","3.234","282.9","1009.855","15.64","52.61","NAN","0.0"],
    [1554592,"2026-05-14 05:50:00","7302","1.401","275.9","3.9530000000000003","289.5","1009.904","15.63","52.66","NAN","0.0"],
    [1554593,"2026-05-14 06:00:00","7303","1.6769999999999998","301.1","3.495","277.2","1009.9689999999999","15.69","52.52","NAN","0.0"],
    [1554594,"2026-05-14 06:10:00","7304","1.568","278.2","4.508","255.4","1009.997","15.9","51.95","NAN","0.0"],
    [1554595,"2026-05-14 06:20:00","7305","1.6280000000000001","289.8","3.822","282.3","1009.96","15.87","51.75","NAN","0.0"],
    [1554596,"2026-05-14 06:30:00","7306","1.8769999999999998","272.7","4.312","259.5","1009.862","15.99","51.33","NAN","0.0"],
    [1554597,"2026-05-14 06:40:00","7307","2.17","271.7","4.606","254.4","1009.918","16.05","51.05","NAN","0.0"],
    [1554598,"2026-05-14 06:50:00","7308","1.787","270.2","3.7239999999999998","288.2","1009.803","16.22","50.85","NAN","0.0"],
    [1554599,"2026-05-14 07:00:00","7309","1.5219999999999998","279.1","3.528","287.7","1009.7689999999999","16.76","49.27","NAN","0.0"],
    [1554600,"2026-05-14 07:10:00","7310","1.215","291.4","3.234","267.8","1009.7869999999999","16.95","48.76","NAN","0.0"],
    [1554601,"2026-05-14 07:20:00","7311","1.329","292.5","3.593","309.0","1009.763","17.08","48.66","NAN","0.0"],
    [1554602,"2026-05-14 07:30:00","7312","1.391","258.4","3.6260000000000003","298.9","1009.607","17.4","48","NAN","0.0"],
    [1554603,"2026-05-14 07:40:00","7313","0.884","262.5","3.7569999999999997","322.1","1009.627","18.12","46.08","NAN","0.0"],
    [1554604,"2026-05-14 07:50:00","7314","1.93","264.2","4.1160000000000005","256.0","1009.689","18.03","46.3","NAN","0.0"],
    [1554605,"2026-05-14 08:00:00","7315","1.829","294.6","4.4430000000000005","259.3","1009.605","18.03","46.46","NAN","0.0"],
    [1554606,"2026-05-14 08:10:00","7316","1.495","318.8","3.495","254.5","1009.59","18.23","45.79","NAN","0.0"],
    [1554607,"2026-05-14 08:20:00","7317","1.287","290.0","3.7569999999999997","254.7","1009.475","18.71","44.52","NAN","0.0"],
    [1554608,"2026-05-14 08:30:00","7318","1.59","300.9","5.2589999999999995","297.5","1009.291","18.74","43.47","NAN","0.0"],
    [1554609,"2026-05-14 08:40:00","7319","1.9080000000000001","337.0","5.096","326.8","1009.2130000000001","19.14","41","NAN","0.0"],
    [1554610,"2026-05-14 08:50:00","7320","1.761","327.0","3.593","307.8","1009.1089999999999","19.37","38.27","NAN","0.0"],
    [1554611,"2026-05-14 09:00:00","7321","2.028","313.7","4.638999999999999","340.3","1009.077","19.46","36.75","NAN","0.0"],
    [1554612,"2026-05-14 09:10:00","7322","3.6630000000000003","273.8","8.43","259.3","1009.062","19.67","35.2","NAN","0.0"],
    [1554613,"2026-05-14 09:20:00","7323","1.8730000000000002","297.3","5.096","308.7","1009.1389999999999","19.64","36.64","NAN","0.0"],
    [1554614,"2026-05-14 09:30:00","7324","2.009","315.8","5.227","315.7","1008.997","19.66","37.25","NAN","0.0"],
    [1554615,"2026-05-14 09:40:00","7325","2.612","328.0","6.697","316.8","1008.775","19.54","37.68","NAN","0.0"],
    [1554616,"2026-05-14 09:50:00","7326","2.1319999999999997","335.4","6.011","316.4","1008.4760000000001","19.7","38","NAN","0.0"],
    [1554617,"2026-05-14 10:00:00","7327","1.4469999999999998","306.8","4.345","323.6","1008.2869999999999","20.12","37.83","NAN","0.0"],
    [1554618,"2026-05-14 10:10:00","7328","1.453","318.2","4.018","316.1","1008.2","20.23","38.28","NAN","0.0"],
    [1554619,"2026-05-14 10:20:00","7329","1.6059999999999999","331.1","3.9530000000000003","309.0","1008.023","20.35","38.28","NAN","0.0"],
    [1554620,"2026-05-14 10:30:00","7330","1.415","321.4","3.234","332.9","1007.956","20.37","38.94","NAN","0.0"],
    [1554621,"2026-05-14 10:40:00","7331","1.416","325.9","4.279","318.6","1007.806","20.26","39.7","NAN","0.0"],
    [1554622,"2026-05-14 10:50:00","7332","1.702","327.7","4.083","319.9","1007.669","19.94","40.91","NAN","0.0"],
    [1554623,"2026-05-14 11:00:00","7333","1.768","333.2","4.704","320.3","1007.555","20.3","40.15","NAN","0.0"],
    [1554624,"2026-05-14 11:10:00","7334","1.3969999999999998","311.4","4.279","261.4","1007.428","21.04","38.47","NAN","0.0"],
    [1554625,"2026-05-14 11:20:00","7335","1.66","272.5","4.181","266.6","1007.253","21.38","35.79","NAN","0.0"],
    [1554626,"2026-05-14 11:30:00","7336","1.51","199.5","3.463","204.9","1007.191","20.98","44.03","NAN","0.0"],
    [1554627,"2026-05-14 11:40:00","7337","1.3219999999999998","153.8","3.43","43.42","1007.044","20.93","43.95","NAN","0.0"],
    [1554628,"2026-05-14 11:50:00","7338","2.804","247.6","6.141","290.6","1006.857","21.7","31.29","NAN","0.0"],
    [1554629,"2026-05-14 12:00:00","7339","2.718","259.3","6.5329999999999995","285.9","1006.673","22.13","25.99","NAN","0.0"],
    [1554630,"2026-05-14 12:10:00","7340","2.7319999999999998","276.4","6.697","243.0","1006.4910000000001","22.3","25.88","NAN","0.0"],
    [1554631,"2026-05-14 12:20:00","7341","2.6439999999999997","265.0","8.92","258.4","1006.2639999999999","22.41","26.34","NAN","0.0"],
    [1554632,"2026-05-14 12:30:00","7342","2.7689999999999997","268.9","6.893","264.5","1006.0419999999999","22.66","26.7","NAN","0.0"],
    [1554633,"2026-05-14 12:40:00","7343","2.915","276.3","8.43","281.3","1005.819","22.65","27.6","NAN","0.0"],
    [1554634,"2026-05-14 12:50:00","7344","3.138","267.5","7.807","270.0","1005.567","23.1","27.27","NAN","0.0"],
    [1554635,"2026-05-14 13:00:00","7345","3.931","262.6","8.46","281.0","1005.311","23.07","26.67","NAN","0.0"],
    [1554636,"2026-05-14 13:10:00","7346","2.915","282.1","7.154","248.8","1005.2230000000001","23.33","26.63","NAN","0.0"],
    [1554637,"2026-05-14 13:20:00","7347","2.045","283.5","4.475","239.2","1004.959","23.47","26.61","NAN","0.0"],
    [1554638,"2026-05-14 13:30:00","7348","3.4730000000000003","257.6","7.415","285.4","1004.743","23.59","26.18","NAN","0.0"],
    [1554639,"2026-05-14 13:40:00","7349","2.762","311.3","7.35","311.8","1004.5830000000001","23.92","26.42","NAN","0.0"],
    [1554640,"2026-05-14 13:50:00","7350","2.9730000000000003","282.7","8.4","311.3","1004.3610000000001","23.93","27.32","NAN","0.0"],
    [1554641,"2026-05-14 14:00:00","7351","3.267","320.5","8.82","310.3","1004.309","23.69","28.49","NAN","0.0"],
    [1554642,"2026-05-14 14:10:00","7352","2.885","286.4","7.775","245.1","1004.232","23.81","29.13","NAN","0.0"],
    [1554643,"2026-05-14 14:20:00","7353","2.858","257.0","6.207000000000001","255.6","1004.175","24.21","28.04","NAN","0.0"],
    [1554644,"2026-05-14 14:30:00","7354","2.9210000000000003","287.3","7.252000000000001","316.8","1004.065","24.03","28.65","NAN","0.0"],
    [1554645,"2026-05-14 14:40:00","7355","1.8530000000000002","286.9","4.41","293.0","1003.92","24.16","28.78","NAN","0.0"],
    [1554646,"2026-05-14 14:50:00","7356","2.103","289.0","6.5329999999999995","296.9","1003.791","24.08","29.12","NAN","0.0"],
    [1554647,"2026-05-14 15:00:00","7357","2.0780000000000003","295.9","5.782","272.1","1003.709","24.42","28.53","NAN","0.0"],
    [1554648,"2026-05-14 15:10:00","7358","3.14","258.2","7.285","288.8","1003.7289999999999","24.29","27.36","NAN","0.0"],
    [1554649,"2026-05-14 15:20:00","7359","3.0869999999999997","250.9","7.4479999999999995","232.8","1003.694","23.94","28.51","NAN","0.0"],
    [1554650,"2026-05-14 15:30:00","7360","2.7289999999999996","256.3","6.042999999999999","274.2","1003.59","23.83","28.52","NAN","0.0"],
    [1554651,"2026-05-14 15:40:00","7361","2.69","300.1","7.709","318.1","1003.53","23.8","28.8","NAN","0.0"],
    [1554652,"2026-05-14 15:50:00","7362","3.463","266.2","9.11","246.6","1003.462","23.79","27.4","NAN","0.0"],
    [1554653,"2026-05-14 16:00:00","7363","3.377","266.2","7.4479999999999995","274.9","1003.44","23.95","27.07","NAN","0.0"],
    [1554654,"2026-05-14 16:10:00","7364","3.8360000000000003","279.2","8.72","292.7","1003.415","23.76","26.1","NAN","0.0"],
    [1554655,"2026-05-14 16:20:00","7365","3.7889999999999997","271.0","8.33","265.1","1003.428","23.51","27.32","NAN","0.0"],
    [1554656,"2026-05-14 16:30:00","7366","3.198","271.4","7.546","258.7","1003.383","23.14","28.54","NAN","0.0"],
    [1554657,"2026-05-14 16:40:00","7367","3.0239999999999996","254.1","7.218999999999999","282.2","1003.2860000000001","23.11","28.74","NAN","0.0"],
    [1554658,"2026-05-14 16:50:00","7368","3.386","257.2","7.513","263.1","1003.238","22.93","28.38","NAN","0.0"],
    [1554659,"2026-05-14 17:00:00","7369","3.1839999999999997","264.3","7.481","252.0","1003.1439999999999","22.93","28.62","NAN","0.0"],
    [1554660,"2026-05-14 17:10:00","7370","2.043","262.3","5.1610000000000005","253.3","1003.189","23.12","27.89","NAN","0.0"],
    [1554661,"2026-05-14 17:20:00","7371","2.19","293.1","5.782","258.7","1003.1489999999999","23","27.62","NAN","0.0"],
    [1554662,"2026-05-14 17:30:00","7372","2.371","310.6","6.1739999999999995","312.6","1003.0239999999999","22.81","26.71","NAN","0.0"],
    [1554663,"2026-05-14 17:40:00","7373","2.865","337.9","6.337000000000001","313.7","1003.057","22.56","26.74","NAN","0.0"],
    [1554664,"2026-05-14 17:50:00","7374","2.559","326.7","6.599","313.9","1003.034","22.27","27.25","NAN","0.0"],
    [1554665,"2026-05-14 18:00:00","7375","2.541","328.8","5.1610000000000005","313.3","1003.1189999999999","21.98","27.8","NAN","0.0"],
    [1554666,"2026-05-14 18:10:00","7376","2.326","359.6","6.566","319.1","1003.2739999999999","21.63","28.75","NAN","0.0"],
    [1554667,"2026-05-14 18:20:00","7377","2.767","69.44","7.415","75.09","1003.559","18.74","62.34","NAN","0.0"],
    [1554668,"2026-05-14 18:30:00","7378","2.247","40.62","6.1739999999999995","111.6","1003.701","17.43","73.58","NAN","0.0"],
    [1554669,"2026-05-14 18:40:00","7379","3.85","87.9","7.187","109.1","1003.852","16.78","78.94","NAN","0.0"],
    [1554670,"2026-05-14 18:50:00","7380","3.944","75.19","7.971","66.04","1003.788","16.48","78.05","NAN","0.0"],
    [1554671,"2026-05-14 19:00:00","7381","3.637","78.4","7.218999999999999","74.13","1003.818","16.42","78.44","NAN","0.0"],
    [1554672,"2026-05-14 19:10:00","7382","3.556","76.87","8.79","70.39","1003.997","16.36","79.98","NAN","0.0"],
    [1554673,"2026-05-14 19:20:00","7383","3.425","70.16","6.435","71.49","1004.107","16.4","78.12","NAN","0.0"],
    [1554674,"2026-05-14 19:30:00","7384","3.025","70.01","7.84","68.1","1004.1389999999999","16.32","77.68","NAN","0.0"],
    [1554675,"2026-05-14 19:40:00","7385","3.114","66.0","6.305","74.31","1004.0369999999999","16.35","76.58","NAN","0.0"],
    [1554676,"2026-05-14 19:50:00","7386","2.915","82.9","6.827000000000001","77.54","1003.9889999999999","16.41","76.56","NAN","0.0"],
    [1554677,"2026-05-14 20:00:00","7387","3.8280000000000003","82.1","6.729","102.8","1004.178","16.26","76.97","NAN","0.0"],
    [1554678,"2026-05-14 20:10:00","7388","2.9539999999999997","86.4","5.912999999999999","88.9","1004.4019999999999","16.27","77.11","NAN","0.0"],
    [1554679,"2026-05-14 20:20:00","7389","2.866","83.0","5.945","107.4","1004.5010000000001","16.31","76.51","NAN","0.0"],
    [1554680,"2026-05-14 20:30:00","7390","2.8960000000000004","72.27","5.945","90.9","1004.586","16.31","76.89","NAN","0.0"],
    [1554681,"2026-05-14 20:40:00","7391","3.778","70.19","6.957999999999999","78.92","1004.5110000000001","16.18","76.73","NAN","0.0"],
    [1554682,"2026-05-14 20:50:00","7392","3.406","75.17","6.403","91.9","1004.5980000000001","16.15","76.61","NAN","0.0"],
    [1554683,"2026-05-14 21:00:00","7393","3.0380000000000003","71.68","5.7170000000000005","66.34","1004.533","16.07","77.59","NAN","0.0"],
    [1554684,"2026-05-14 21:10:00","7394","2.31","68.89","4.769","53.91","1004.6060000000001","16.15","78.14","NAN","0.0"],
    [1554685,"2026-05-14 21:20:00","7395","1.821","76.99","5.684","87.3","1004.568","16.23","78.01","NAN","0.0"],
    [1554686,"2026-05-14 21:30:00","7396","2.188","77.78","5.194","61.93","1004.4910000000001","16.29","76.99","NAN","0.0"],
    [1554687,"2026-05-14 21:40:00","7397","1.642","85.9","5.684","99.2","1004.424","16.23","76.94","NAN","0.0"],
    [1554688,"2026-05-14 21:50:00","7398","1.5190000000000001","20.28","3.43","318.2","1004.5310000000001","16.3","75.45","NAN","0.0"],
    [1554689,"2026-05-14 22:00:00","7399","2.2769999999999997","90.9","5.978","84.8","1004.3989999999999","16.1","75.09","NAN","0.0"],
    [1554690,"2026-05-14 22:10:00","7400","2.262","60.38","4.965","74.8","1004.39","16.1","74.21","NAN","0.0"],
    [1554691,"2026-05-14 22:20:00","7401","2.169","79.05","4.279","103.4","1004.375","16.05","74.51","NAN","0.0"],
    [1554692,"2026-05-14 22:30:00","7402","2.602","73.65","5.553","101.3","1004.3760000000001","16.1","73.94","NAN","0.0"],
    [1554693,"2026-05-14 22:40:00","7403","2.221","68.37","5.227","71.35","1004.346","16.11","72.3","NAN","0.0"],
    [1554694,"2026-05-14 22:50:00","7404","1.89","54.15","4.083","62.78","1004.3610000000001","16.11","71.86","NAN","0.0"],
    [1554695,"2026-05-14 23:00:00","7405","2.381","81.5","4.2139999999999995","74.46","1004.3330000000001","16.2","70.68","NAN","0.0"],
    [1554696,"2026-05-14 23:10:00","7406","2.23","88.4","4.541","75.79","1004.2289999999999","16.16","70.72","NAN","0.0"],
    [1554697,"2026-05-14 23:20:00","7407","1.944","70.2","5.521","85.9","1004.309","16.15","71.05","NAN","0.0"],
    [1554698,"2026-05-14 23:30:00","7408","0.983","44.12","2.7769999999999997","83.4","1004.3660000000001","16.17","70.85","NAN","0.0"],
    [1554699,"2026-05-14 23:40:00","7409","1.32","72.99","3.365","59.98","1004.169","16.11","70.17","NAN","0.0"],
    [1554700,"2026-05-14 23:50:00","7410","1.671","58.56","4.475","33.09","1004.127","16.16","69.71","NAN","0.0"],
    [1554701,"2026-05-15 00:00:00","7411","1.653","70.24","4.051","101.3","1004.0319999999999","16.08","70.78","NAN","0.0"],
    [1554702,"2026-05-15 00:10:00","7412","1.3130000000000002","28.86","2.94","29.8","1003.914","16.14","71.09","NAN","0.0"],
    [1554703,"2026-05-15 00:20:00","7413","1.238","62.18","3.0380000000000003","66.99","1003.773","16.01","71.52","NAN","0.0"],
    [1554704,"2026-05-15 00:30:00","7414","1.127","63.52","2.45","59.56","1003.669","16.02","71.3","NAN","0.0"],
    [1554705,"2026-05-15 00:40:00","7415","1.1520000000000001","53.0","2.0580000000000003","19.52","1003.562","15.99","71.65","NAN","0.0"],
    [1554706,"2026-05-15 00:50:00","7416","1.354","85.1","2.679","76.66","1003.245","15.86","73.17","NAN","0.0"],
    [1554707,"2026-05-15 01:00:00","7417","1.5090000000000001","96.6","2.907","88.6","1003.025","15.67","75.84","NAN","0.0"],
    [1554708,"2026-05-15 01:10:00","7418","0.66","89.2","2.189","105.8","1002.76","15.6","77.4","NAN","0.0"],
    [1554709,"2026-05-15 01:20:00","7419","0.256","76.75","1.209","59.06","1002.6289999999999","15.7","77.29","NAN","0.0"],
    [1554710,"2026-05-15 01:30:00","7420","0.32299999999999995","101.3","1.143","110.4","1002.5419999999999","15.78","77.33","NAN","0.1"],
    [1554711,"2026-05-15 01:40:00","7421","0.754","48.08","1.2409999999999999","59.82","1002.41","15.73","78.66","NAN","0.0"],
    [1554712,"2026-05-15 01:50:00","7422","0.9670000000000001","47.79","1.666","24.15","1002.123","15.64","80.3","NAN","0.0"],
    [1554713,"2026-05-15 02:00:00","7423","0.929","51.31","2.254","73.77","1001.81","15.81","83","NAN","0.0"],
    [1554714,"2026-05-15 02:10:00","7424","0.594","5.837000000000001","1.633","353.1","1002.047","15.92","82","NAN","0.0"],
    [1554715,"2026-05-15 02:20:00","7425","0.815","12.27","2.385","352.0","1002.0219999999999","15.99","80.9","NAN","0.0"],
    [1554716,"2026-05-15 02:30:00","7426","1.5530000000000002","34.74","2.9730000000000003","17.98","1001.8969999999999","16.08","79.81","NAN","0.0"],
    [1554717,"2026-05-15 02:40:00","7427","1.551","32.04","3.7889999999999997","73.61","1001.84","15.51","80.7","NAN","0.0"],
    [1554718,"2026-05-15 02:50:00","7428","1.3230000000000002","4.248","3.071","13.28","1001.862","15.19","74.33","NAN","0.0"],
    [1554719,"2026-05-15 03:00:00","7429","1.886","26.01","3.887","61.03","1001.918","15.36","64.4","NAN","0.0"],
    [1554720,"2026-05-15 03:10:00","7430","1.599","12.47","3.985","42.52","1002.025","15.23","58.97","NAN","0.0"],
    [1554721,"2026-05-15 03:20:00","7431","1.841","322.6","6.207000000000001","314.2","1001.8989999999999","15.22","52.27","NAN","0.0"],
    [1554722,"2026-05-15 03:30:00","7432","1.847","325.0","5.357","303.4","1001.812","15.18","50.82","NAN","0.0"],
    [1554723,"2026-05-15 03:40:00","7433","2.121","324.3","5.619","308.3","1001.7869999999999","15.05","51.22","NAN","0.0"],
    [1554724,"2026-05-15 03:50:00","7434","1.95","326.5","5.39","295.7","1001.882","15.01","51.52","NAN","0.0"],
    [1554725,"2026-05-15 04:00:00","7435","2.4130000000000003","314.1","5.4879999999999995","322.7","1001.9019999999999","14.76","52.26","NAN","0.0"],
    [1554726,"2026-05-15 04:10:00","7436","2.08","278.9","5.1610000000000005","289.7","1002.012","14.67","52.64","NAN","0.0"],
    [1554727,"2026-05-15 04:20:00","7437","1.2770000000000001","291.0","4.312","286.7","1002.1360000000001","14.57","53.03","NAN","0.0"],
    [1554728,"2026-05-15 04:30:00","7438","1.768","268.5","4.083","286.1","1002.1160000000001","14.49","53.31","NAN","0.0"],
    [1554729,"2026-05-15 04:40:00","7439","1.7590000000000001","294.4","4.475","287.3","1002.1039999999999","14.44","53.69","NAN","0.0"],
    [1554730,"2026-05-15 04:50:00","7440","1.375","315.7","3.071","270.3","1002.1569999999999","14.45","53.94","NAN","0.0"],
    [1554731,"2026-05-15 05:00:00","7441","1.4040000000000001","319.7","4.279","319.6","1002.346","14.46","53.95","NAN","0.0"],
    [1554732,"2026-05-15 05:10:00","7442","1.52","301.7","4.018","289.9","1002.383","14.45","54.21","NAN","0.0"],
    [1554733,"2026-05-15 05:20:00","7443","1.214","332.4","3.201","288.6","1002.388","14.36","54.51","NAN","0.0"],
    [1554734,"2026-05-15 05:30:00","7444","1.197","321.4","2.8089999999999997","292.9","1002.398","14.48","54.26","NAN","0.0"],
    [1554735,"2026-05-15 05:40:00","7445","1.713","312.0","3.9530000000000003","288.4","1002.418","14.41","54.5","NAN","0.0"],
    [1554736,"2026-05-15 05:50:00","7446","1.31","319.9","4.541","293.5","1002.56","14.47","54.55","NAN","0.0"],
    [1554737,"2026-05-15 06:00:00","7447","1.875","303.0","5.357","320.0","1002.5319999999999","14.48","54.39","NAN","0.0"],
    [1554738,"2026-05-15 06:10:00","7448","1.617","304.1","4.149","320.8","1002.5930000000001","14.54","54.2","NAN","0.0"],
    [1554739,"2026-05-15 06:20:00","7449","1.7169999999999999","327.9","3.495","315.3","1002.725","14.57","54.02","NAN","0.0"],
    [1554740,"2026-05-15 06:30:00","7450","1.864","334.0","4.279","1.639","1002.804","14.58","53.99","NAN","0.0"],
    [1554741,"2026-05-15 06:40:00","7451","1.6119999999999999","324.3","4.1160000000000005","314.9","1002.799","14.53","54.24","NAN","0.0"],
    [1554742,"2026-05-15 06:50:00","7452","1.675","336.9","3.7889999999999997","307.6","1002.801","14.49","54.45","NAN","0.0"],
    [1554743,"2026-05-15 07:00:00","7453","1.38","0.39299999999999996","3.495","327.4","1002.867","14.49","54.7","NAN","0.0"],
    [1554744,"2026-05-15 07:10:00","7454","1.291","357.0","3.397","17.8","1002.8810000000001","14.6","53.63","NAN","0.0"],
    [1554745,"2026-05-15 07:20:00","7455","1.196","344.4","3.234","278.6","1002.949","14.71","53.46","NAN","0.0"],
    [1554746,"2026-05-15 07:30:00","7456","1.6769999999999998","10.98","3.7239999999999998","15.89","1003.113","14.57","54","NAN","0.0"],
    [1554747,"2026-05-15 07:40:00","7457","1.494","11.41","3.659","16.82","1003.13","14.52","54.38","NAN","0.0"],
    [1554748,"2026-05-15 07:50:00","7458","0.665","0.7090000000000001","1.8619999999999999","21.2","1003.153","14.62","54.36","NAN","0.0"],
    [1554749,"2026-05-15 08:00:00","7459","1.176","306.2","2.8089999999999997","308.7","1003.337","14.73","54.11","NAN","0.0"],
    [1554750,"2026-05-15 08:10:00","7460","1.209","32.73","2.5810000000000004","4.631","1003.3839999999999","14.62","54.65","NAN","0.0"],
    [1554751,"2026-05-15 08:20:00","7461","1.4409999999999998","29.51","3.0380000000000003","358.5","1003.4839999999999","14.6","54.73","NAN","0.0"],
    [1554752,"2026-05-15 08:30:00","7462","0.915","33.66","2.319","5.095","1003.5939999999999","14.61","55.07","NAN","0.0"],
    [1554753,"2026-05-15 08:40:00","7463","1.124","47.38","2.417","48.55","1003.811","14.58","55.63","NAN","0.0"],
    [1554754,"2026-05-15 08:50:00","7464","0.509","353.6","1.339","9.65","1004.057","14.7","54.73","NAN","0.0"],
    [1554755,"2026-05-15 09:00:00","7465","0.7879999999999999","359.0","1.993","21.52","1004.197","14.66","54.74","NAN","0.0"],
    [1554756,"2026-05-15 09:10:00","7466","1.396","65.19","2.6460000000000004","68.8","1004.263","14.72","54.5","NAN","0.0"],
    [1554757,"2026-05-15 09:20:00","7467","1.2229999999999999","54.97","2.319","56.95","1004.127","14.62","54.96","NAN","0.0"],
    [1554758,"2026-05-15 09:30:00","7468","1.1740000000000002","54.76","2.0909999999999997","28.65","1004.186","14.62","54.65","NAN","0.0"],
    [1554759,"2026-05-15 09:40:00","7469","1.2409999999999999","35.22","3.6260000000000003","317.8","1004.221","14.67","54.94","NAN","0.0"],
    [1554760,"2026-05-15 09:50:00","7470","1.2670000000000001","355.6","2.8089999999999997","302.4","1004.357","14.9","53.73","NAN","0.0"],
    [1554761,"2026-05-15 10:00:00","7471","0.925","13.9","1.9269999999999998","356.3","1004.3739999999999","15.1","53.27","NAN","0.0"],
    [1554762,"2026-05-15 10:10:00","7472","0.634","291.5","1.895","276.9","1004.362","15.5","51.91","NAN","0.0"],
    [1554763,"2026-05-15 10:20:00","7473","1.3430000000000002","275.2","3.7889999999999997","296.5","1004.437","15.56","51.97","NAN","0.0"],
    [1554764,"2026-05-15 10:30:00","7474","1.5430000000000001","290.4","4.377","242.7","1004.5260000000001","15.55","51.81","NAN","0.0"],
    [1554765,"2026-05-15 10:40:00","7475","1.808","269.4","4.41","218.3","1004.597","15.62","51.12","NAN","0.0"],
    [1554766,"2026-05-15 10:50:00","7476","1.5030000000000001","236.5","3.855","233.8","1004.6460000000001","15.74","50.84","NAN","0.0"],
    [1554767,"2026-05-15 11:00:00","7477","1.629","239.9","3.463","226.4","1004.725","15.93","50.81","NAN","0.0"],
    [1554768,"2026-05-15 11:10:00","7478","1.473","220.3","3.855","221.0","1004.685","15.99","50.57","NAN","0.0"],
    [1554769,"2026-05-15 11:20:00","7479","1.6469999999999998","270.4","3.463","252.1","1004.6489999999999","16.26","49.41","NAN","0.0"],
    [1554770,"2026-05-15 11:30:00","7480","1.534","248.9","4.9","296.4","1004.632","16.41","49.33","NAN","0.0"],
    [1554771,"2026-05-15 11:40:00","7481","2.053","262.7","4.671","255.4","1004.573","16.59","49.32","NAN","0.0"],
    [1554772,"2026-05-15 11:50:00","7482","1.699","278.0","4.638999999999999","203.1","1004.54","16.89","48.29","NAN","0.0"],
    [1554773,"2026-05-15 12:00:00","7483","2.522","246.0","7.317","228.1","1004.4630000000001","16.72","48.52","NAN","0.0"],
    [1554774,"2026-05-15 12:10:00","7484","1.703","246.8","4.4430000000000005","221.9","1004.398","17.3","46.44","NAN","0.0"],
    [1554775,"2026-05-15 12:20:00","7485","1.94","263.7","4.083","266.3","1004.416","17.53","45.19","NAN","0.0"],
    [1554776,"2026-05-15 12:30:00","7486","1.604","229.4","4.2139999999999995","239.3","1004.5060000000001","18.17","43.04","NAN","0.0"],
    [1554777,"2026-05-15 12:40:00","7487","1.4780000000000002","188.1","3.6260000000000003","176.4","1004.6460000000001","17.84","48.26","NAN","0.0"],
    [1554778,"2026-05-15 12:50:00","7488","3.2060000000000004","174.6","5.455","173.7","1004.6610000000001","17.11","51","NAN","0.0"],
    [1554779,"2026-05-15 13:00:00","7489","3.625","176.1","5.847","176.9","1004.735","16.88","51.84","NAN","0.0"],
    [1554780,"2026-05-15 13:10:00","7490","3.76","177.4","6.0760000000000005","172.6","1004.8","16.88","50.72","NAN","0.0"],
    [1554781,"2026-05-15 13:20:00","7491","3.7710000000000004","175.1","6.042999999999999","180.7","1004.8710000000001","16.78","50.53","NAN","0.0"],
    [1554782,"2026-05-15 13:30:00","7492","4.075","177.0","6.109","178.2","1004.789","16.77","50.87","NAN","0.0"],
    [1554783,"2026-05-15 13:40:00","7493","4.0680000000000005","172.9","5.912999999999999","181.5","1004.7639999999999","16.65","52.26","NAN","0.0"],
    [1554784,"2026-05-15 13:50:00","7494","4.043","177.7","6.272","194.8","1004.784","16.69","53.9","NAN","0.0"],
    [1554785,"2026-05-15 14:00:00","7495","3.136","189.8","6.042999999999999","184.3","1004.932","17.13","51.12","NAN","0.0"],
    [1554786,"2026-05-15 14:10:00","7496","3.6060000000000003","181.9","6.435","156.5","1005.028","17.26","50.04","NAN","0.0"],
    [1554787,"2026-05-15 14:20:00","7497","4.012","174.6","6.501","169.5","1005.005","16.73","52.5","NAN","0.0"],
    [1554788,"2026-05-15 14:30:00","7498","3.01","180.6","4.933","191.5","1005.0830000000001","16.98","51.79","NAN","0.0"],
    [1554789,"2026-05-15 14:40:00","7499","2.242","190.5","4.965","174.9","1005.22","16.82","52.76","NAN","0.0"],
    [1554790,"2026-05-15 14:50:00","7500","2.261","217.1","5.031000000000001","254.0","1005.515","17.15","50.66","NAN","0.0"],
    [1554791,"2026-05-15 15:00:00","7501","2.822","234.1","7.709","232.8","1005.585","16.59","57.63","NAN","0.6"],
    [1554792,"2026-05-15 15:10:00","7502","3.1039999999999996","189.4","6.599","176.3","1004.628","15.58","57.45","NAN","0.0"],
    [1554793,"2026-05-15 15:20:00","7503","1.555","183.3","4.9","156.8","1004.932","16.07","56.24","NAN","0.0"],
    [1554794,"2026-05-15 15:30:00","7504","1.105","109.2","3.397","116.0","1005.414","17.11","54.19","NAN","0.0"],
    [1554795,"2026-05-15 15:40:00","7505","1.801","150.6","3.201","111.2","1005.875","16.88","48.86","NAN","0.0"],
    [1554796,"2026-05-15 15:50:00","7506","2.18","146.4","4.802","111.0","1006.078","16.84","51.95","NAN","0.0"],
    [1554797,"2026-05-15 16:00:00","7507","4.261","98.0","7.742000000000001","71.73","1006.302","15.7","57.62","NAN","0.0"],
    [1554798,"2026-05-15 16:10:00","7508","3.897","81.0","8.49","110.8","1006.297","15.13","59.18","NAN","0.0"],
    [1554799,"2026-05-15 16:20:00","7509","3.365","67.63","6.0760000000000005","50.66","1006.307","14.78","61.07","NAN","0.0"],
    [1554800,"2026-05-15 16:30:00","7510","3.181","73.75","6.9910000000000005","90.3","1006.3839999999999","15.05","60.4","NAN","0.0"],
    [1554801,"2026-05-15 16:40:00","7511","2.787","82.9","5.684","118.3","1006.541","15.56","59.09","NAN","0.0"],
    [1554802,"2026-05-15 16:50:00","7512","3.718","102.5","6.272","109.7","1006.669","15.41","56.88","NAN","0.0"],
    [1554803,"2026-05-15 17:00:00","7513","2.766","119.0","5.194","111.4","1006.819","15.49","56.97","NAN","0.0"],
    [1554804,"2026-05-15 17:10:00","7514","2.081","106.0","4.671","90.1","1006.988","15.59","53.71","NAN","0.0"],
    [1554805,"2026-05-15 17:20:00","7515","2.576","115.8","4.41","111.4","1007.0169999999999","15.65","54.42","NAN","0.0"],
    [1554806,"2026-05-15 17:30:00","7516","2.344","121.7","4.2139999999999995","116.9","1006.8910000000001","15.46","55.8","NAN","0.0"],
    [1554807,"2026-05-15 17:40:00","7517","1.7819999999999998","135.0","3.495","145.5","1007.038","15.48","56.63","NAN","0.0"],
    [1554808,"2026-05-15 17:50:00","7518","2.539","129.5","4.279","121.1","1007.1189999999999","15.12","61.19","NAN","0.0"],
    [1554809,"2026-05-15 18:00:00","7519","2.1069999999999998","124.7","4.181","108.5","1007.362","15.03","61.72","NAN","0.0"],
    [1554810,"2026-05-15 18:10:00","7520","1.3630000000000002","132.8","2.94","154.5","1007.579","15.3","59.53","NAN","0.0"],
    [1554811,"2026-05-15 18:20:00","7521","1.5","140.8","2.5810000000000004","166.2","1007.655","15.47","57.46","NAN","0.0"],
    [1554812,"2026-05-15 18:30:00","7522","1.805","117.6","3.0380000000000003","110.2","1007.817","15.43","58.34","NAN","0.0"],
    [1554813,"2026-05-15 18:40:00","7523","1.775","129.0","3.365","131.1","1008.0219999999999","15.36","58.67","NAN","0.0"],
    [1554814,"2026-05-15 18:50:00","7524","1.547","138.0","2.842","151.6","1008.174","15.29","59.24","NAN","0.0"],
    [1554815,"2026-05-15 19:00:00","7525","1.4509999999999998","122.0","2.842","117.0","1008.26","15.32","61.44","NAN","0.0"],
    [1554816,"2026-05-15 19:10:00","7526","1.466","131.5","2.6460000000000004","131.5","1008.365","15.3","61.63","NAN","0.0"],
    [1554817,"2026-05-15 19:20:00","7527","2.176","114.5","4.704","97.6","1008.4780000000001","15.19","62.46","NAN","0.0"],
    [1554818,"2026-05-15 19:30:00","7528","2.509","102.2","4.541","97.0","1008.695","15.02","61.37","NAN","0.0"],
    [1554819,"2026-05-15 19:40:00","7529","2.147","90.6","3.855","102.6","1008.8489999999999","15.05","61.64","NAN","0.0"],
    [1554820,"2026-05-15 19:50:00","7530","1.893","84.6","3.43","74.12","1008.9939999999999","15.06","61.48","NAN","0.0"],
    [1554821,"2026-05-15 20:00:00","7531","1.49","106.1","2.842","91.9","1009.21","15.05","62.13","NAN","0.0"],
    [1554822,"2026-05-15 20:10:00","7532","1.3030000000000002","108.3","2.254","122.9","1009.4069999999999","15.02","62.04","NAN","0.0"],
    [1554823,"2026-05-15 20:20:00","7533","1.653","116.8","2.875","89.5","1009.581","14.96","64.61","NAN","0.0"],
    [1554824,"2026-05-15 20:30:00","7534","1.565","121.1","2.6460000000000004","140.5","1009.678","14.82","64.86","NAN","0.0"],
    [1554825,"2026-05-15 20:40:00","7535","1.629","122.2","3.136","108.2","1009.8","14.78","64.24","NAN","0.0"],
    [1554826,"2026-05-15 20:50:00","7536","1.133","137.6","2.319","109.9","1009.905","14.78","65.4","NAN","0.0"],
    [1554827,"2026-05-15 21:00:00","7537","1.618","130.4","3.7569999999999997","113.8","1010.002","14.83","66.98","NAN","0.0"],
    [1554828,"2026-05-15 21:10:00","7538","1.4369999999999998","183.0","2.385","175.5","1010.194","14.85","69.86","NAN","0.0"],
    [1554829,"2026-05-15 21:20:00","7539","1.785","183.2","2.7769999999999997","183.8","1010.3560000000001","14.78","71.32","NAN","0.0"],
    [1554830,"2026-05-15 21:30:00","7540","1.483","192.2","2.7769999999999997","178.0","1010.3560000000001","14.7","72.02","NAN","0.0"],
    [1554831,"2026-05-15 21:40:00","7541","1.263","187.5","2.156","158.4","1010.421","14.59","72.19","NAN","0.0"],
    [1554832,"2026-05-15 21:50:00","7542","1.149","190.9","2.417","227.5","1010.471","14.53","72.58","NAN","0.0"],
    [1554833,"2026-05-15 22:00:00","7543","1.23","234.2","2.319","231.4","1010.591","14.49","71.68","NAN","0.0"],
    [1554834,"2026-05-15 22:10:00","7544","0.8440000000000001","234.5","2.123","244.9","1010.822","14.47","71.52","NAN","0.0"],
    [1554835,"2026-05-15 22:20:00","7545","0.888","229.1","1.96","226.2","1010.8539999999999","14.44","72.03","NAN","0.0"],
    [1554836,"2026-05-15 22:30:00","7546","0.894","234.2","1.699","218.9","1010.862","14.45","72.17","NAN","0.0"],
    [1554837,"2026-05-15 22:40:00","7547","0.627","237.2","1.666","265.6","1010.9810000000001","14.37","72.58","NAN","0.0"],
    [1554838,"2026-05-15 22:50:00","7548","0.897","223.0","1.96","228.0","1011.034","14.44","72.56","NAN","0.0"],
    [1554839,"2026-05-15 23:00:00","7549","0.42","212.7","1.47","226.8","1010.9939999999999","14.39","72.92","NAN","0.0"],
    [1554840,"2026-05-15 23:10:00","7550","0.484","260.9","1.339","241.4","1011.1010000000001","14.44","72.77","NAN","0.0"],
    [1554841,"2026-05-15 23:20:00","7551","0.34600000000000003","212.0","0.9470000000000001","215.8","1011.0210000000001","14.4","72.95","NAN","0.0"],
    [1554842,"2026-05-15 23:30:00","7552","0.631","237.7","1.2409999999999999","223.7","1011.0310000000001","14.36","73.2","NAN","0.0"],
    [1554843,"2026-05-15 23:40:00","7553","0.737","241.8","1.764","244.7","1011.086","14.46","72.96","NAN","0.0"],
    [1554844,"2026-05-15 23:50:00","7554","0.685","258.6","2.287","243.0","1011.1080000000001","14.5","72.73","NAN","0.0"],
    [1554845,"2026-05-16 00:00:00","7555","0.981","269.7","2.123","260.3","1011.1030000000001","14.5","72.76","NAN","0.0"],
    [1554846,"2026-05-16 00:10:00","7556","0.6940000000000001","274.7","1.535","283.1","1011.1010000000001","14.5","72.6","NAN","0.0"],
    [1554847,"2026-05-16 00:20:00","7557","0.322","316.4","1.013","282.1","1011.1030000000001","14.57","72.32","NAN","0.0"],
    [1554848,"2026-05-16 00:30:00","7558","0.905","41.96","2.0580000000000003","36.1","1011.084","14.11","71.57","NAN","0.0"],
    [1554849,"2026-05-16 00:40:00","7559","0.586","27.64","1.143","40.72","1011.0310000000001","13.82","72.94","NAN","0.0"],
    [1554850,"2026-05-16 00:50:00","7560","0.26899999999999996","9.47","1.045","19.13","1010.934","14.08","72.55","NAN","0.0"],
    [1554851,"2026-05-16 01:00:00","7561","1.1079999999999999","274.9","2.7769999999999997","259.7","1010.954","14.47","73.14","NAN","0.0"],
    [1554852,"2026-05-16 01:10:00","7562","0.716","266.0","1.47","273.6","1010.941","14.64","72.89","NAN","0.0"],
    [1554853,"2026-05-16 01:20:00","7563","1.085","285.1","1.9269999999999998","294.6","1010.941","14.68","72.89","NAN","0.0"],
    [1554854,"2026-05-16 01:30:00","7564","0.9940000000000001","296.1","2.0909999999999997","328.6","1011.081","14.66","72.84","NAN","0.0"],
    [1554855,"2026-05-16 01:40:00","7565","0.765","316.7","1.993","284.9","1011.1030000000001","14.67","72.36","NAN","0.0"],
    [1554856,"2026-05-16 01:50:00","7566","0.479","341.1","1.764","265.6","1011.153","14.53","71.92","NAN","0.0"],
    [1554857,"2026-05-16 02:00:00","7567","1.271","274.0","2.842","293.0","1011.248","14.42","66.37","NAN","0.0"],
    [1554858,"2026-05-16 02:10:00","7568","1.1440000000000001","266.8","2.254","295.6","1011.345","14.22","58.96","NAN","0.0"],
    [1554859,"2026-05-16 02:20:00","7569","1.615","259.0","3.495","256.2","1011.36","14.15","54.49","NAN","0.0"],
    [1554860,"2026-05-16 02:30:00","7570","1.3530000000000002","265.7","3.593","263.4","1011.47","14.07","53.24","NAN","0.0"],
    [1554861,"2026-05-16 02:40:00","7571","1.34","271.0","2.7110000000000003","270.1","1011.54","14.01","53.17","NAN","0.0"],
    [1554862,"2026-05-16 02:50:00","7572","1.3019999999999998","283.1","3.201","262.7","1011.559","13.83","55.14","NAN","0.0"],
    [1554863,"2026-05-16 03:00:00","7573","1.9980000000000002","270.4","4.606","240.6","1011.525","13.33","57.21","NAN","0.0"],
    [1554864,"2026-05-16 03:10:00","7574","1.365","271.2","3.1689999999999996","332.7","1011.497","12.88","58.81","NAN","0.0"],
    [1554865,"2026-05-16 03:20:00","7575","1.3980000000000001","274.3","3.5610000000000004","290.6","1011.405","12.89","59.27","NAN","0.0"],
    [1554866,"2026-05-16 03:30:00","7576","1.518","277.4","3.7889999999999997","301.5","1011.413","13.01","59.41","NAN","0.0"],
    [1554867,"2026-05-16 03:40:00","7577","1.3319999999999999","263.7","2.483","292.1","1011.569","12.92","59.94","NAN","0.0"],
    [1554868,"2026-05-16 03:50:00","7578","1.078","248.7","2.221","223.4","1011.477","12.9","59.05","NAN","0.0"],
    [1554869,"2026-05-16 04:00:00","7579","1.581","268.6","4.018","245.0","1011.53","12.92","58.36","NAN","0.0"],
    [1554870,"2026-05-16 04:10:00","7580","1.569","234.5","3.6260000000000003","236.2","1011.6089999999999","12.3","59.85","NAN","0.0"],
    [1554871,"2026-05-16 04:20:00","7581","0.5870000000000001","295.2","1.601","303.9","1011.5369999999999","12.21","60.03","NAN","0.0"],
    [1554872,"2026-05-16 04:30:00","7582","0.816","70.5","1.8619999999999999","23.5","1011.495","12.42","58.81","NAN","0.0"],
    [1554873,"2026-05-16 04:40:00","7583","0.982","30.39","3.234","10.14","1011.6669999999999","12.51","57.07","NAN","0.0"],
    [1554874,"2026-05-16 04:50:00","7584","1.324","30.14","3.136","31.02","1011.7360000000001","12.42","56.66","NAN","0.0"],
    [1554875,"2026-05-16 05:00:00","7585","1.225","31.38","4.2139999999999995","354.8","1011.8530000000001","12.3","56.08","NAN","0.0"],
    [1554876,"2026-05-16 05:10:00","7586","1.399","50.21","2.7769999999999997","46.06","1012.023","12.27","56.91","NAN","0.0"],
    [1554877,"2026-05-16 05:20:00","7587","1.617","47.43","3.43","37.08","1012.133","12.39","55.38","NAN","0.0"],
    [1554878,"2026-05-16 05:30:00","7588","0.35200000000000004","281.3","1.143","236.7","1012.232","12.78","52.93","NAN","0.0"],
    [1554879,"2026-05-16 05:40:00","7589","0.524","266.3","1.3719999999999999","252.3","1012.3969999999999","12.99","52.76","NAN","0.0"],
    [1554880,"2026-05-16 05:50:00","7590","0.616","257.3","2.025","289.7","1012.4939999999999","13.05","52","NAN","0.0"],
    [1554881,"2026-05-16 06:00:00","7591","1.105","77.53","2.123","61.34","1012.671","13.16","52.87","NAN","0.0"],
    [1554882,"2026-05-16 06:10:00","7592","0.37799999999999995","133.9","0.882","111.7","1012.825","13.29","51.96","NAN","0.0"],
    [1554883,"2026-05-16 06:20:00","7593","0.807","296.7","3.463","246.9","1012.834","13.42","50.09","NAN","0.0"],
    [1554884,"2026-05-16 06:30:00","7594","1.476","259.1","3.365","251.8","1012.804","13.4","48.48","NAN","0.0"],
    [1554885,"2026-05-16 06:40:00","7595","1.102","217.6","2.123","229.3","1012.779","13.44","48.14","NAN","0.0"],
    [1554886,"2026-05-16 06:50:00","7596","1.6030000000000002","179.2","2.8089999999999997","211.9","1012.898","13.51","47.7","NAN","0.0"],
    [1554887,"2026-05-16 07:00:00","7597","1.0170000000000001","101.5","2.613","133.3","1012.803","13.58","47.26","NAN","0.0"],
    [1554888,"2026-05-16 07:10:00","7598","0.976","143.7","2.319","69.53","1012.938","14.46","45.44","NAN","0.0"],
    [1554889,"2026-05-16 07:20:00","7599","1.486","356.9","3.43","8.67","1013.028","14.45","44.13","NAN","0.0"],
    [1554890,"2026-05-16 07:30:00","7600","1.081","1.3659999999999999","2.319","306.5","1013.154","14.77","43.66","NAN","0.0"],
    [1554891,"2026-05-16 07:40:00","7601","0.682","17.36","2.45","280.2","1013.2189999999999","15.35","41.53","NAN","0.0"],
    [1554892,"2026-05-16 07:50:00","7602","1.0290000000000001","345.8","2.0909999999999997","307.9","1013.194","15.4","40.89","NAN","0.0"],
    [1554893,"2026-05-16 08:00:00","7603","1.127","5.83","2.5810000000000004","45.84","1013.196","15.86","38.96","NAN","0.0"],
    [1554894,"2026-05-16 08:10:00","7604","1.263","329.8","3.071","309.6","1013.204","16.05","38.75","NAN","0.0"],
    [1554895,"2026-05-16 08:20:00","7605","1.364","335.4","2.875","356.6","1013.194","16.28","37.84","NAN","0.0"],
    [1554896,"2026-05-16 08:30:00","7606","0.773","312.0","2.189","294.0","1013.189","16.82","37.25","NAN","0.0"],
    [1554897,"2026-05-16 08:40:00","7607","0.9840000000000001","309.7","2.94","301.2","1013.331","17.29","36.25","NAN","0.0"],
    [1554898,"2026-05-16 08:50:00","7608","1.3119999999999998","357.6","3.659","299.7","1013.326","17.59","35.07","NAN","0.0"],
    [1554899,"2026-05-16 09:00:00","7609","1.4969999999999999","20.06","3.071","29.27","1013.368","18.01","33.52","NAN","0.0"],
    [1554900,"2026-05-16 09:10:00","7610","1.212","22.37","3.136","16.6","1013.346","18.35","33.04","NAN","0.0"],
    [1554901,"2026-05-16 09:20:00","7611","0.976","55.08","2.352","53.49","1013.2760000000001","18.64","32.74","NAN","0.0"],
    [1554902,"2026-05-16 09:30:00","7612","0.988","25.02","2.254","28.19","1013.206","18.72","29.65","NAN","0.0"],
    [1554903,"2026-05-16 09:40:00","7613","1.075","47.96","3.005","61.44","1013.3489999999999","19.16","27.75","NAN","0.0"],
    [1554904,"2026-05-16 09:50:00","7614","1.521","151.1","4.475","162.8","1013.455","18.87","31.68","NAN","0.0"],
    [1554905,"2026-05-16 10:00:00","7615","3.572","116.0","5.586","107.9","1013.4780000000001","17.32","45.11","NAN","0.0"],
    [1554906,"2026-05-16 10:10:00","7616","2.7460000000000004","114.8","4.998","114.9","1013.615","17","46.7","NAN","0.0"],
    [1554907,"2026-05-16 10:20:00","7617","2.522","110.9","4.018","110.6","1013.702","17.11","51.71","NAN","0.0"],
    [1554908,"2026-05-16 10:30:00","7618","3.002","109.7","4.41","105.3","1013.682","16.93","54.79","NAN","0.0"],
    [1554909,"2026-05-16 10:40:00","7619","2.421","116.2","4.279","102.4","1013.747","16.82","56.26","NAN","0.0"],
    [1554910,"2026-05-16 10:50:00","7620","2.15","123.8","4.247","114.1","1013.816","16.91","56.12","NAN","0.0"],
    [1554911,"2026-05-16 11:00:00","7621","2.095","143.5","3.887","175.9","1013.7719999999999","17.17","55.77","NAN","0.0"],
    [1554912,"2026-05-16 11:10:00","7622","2.205","154.0","3.7569999999999997","163.6","1013.7180000000001","17.04","54.63","NAN","0.0"],
    [1554913,"2026-05-16 11:20:00","7623","2.137","158.6","3.463","155.9","1013.7189999999999","17","51.79","NAN","0.0"],
    [1554914,"2026-05-16 11:30:00","7624","2.082","189.0","3.6910000000000003","152.7","1013.709","17.29","50.15","NAN","0.0"],
    [1554915,"2026-05-16 11:40:00","7625","2.386","182.6","4.41","177.4","1013.707","17.58","47.4","NAN","0.0"],
    [1554916,"2026-05-16 11:50:00","7626","2.7539999999999996","175.1","4.671","179.1","1013.705","16.98","47.02","NAN","0.0"],
    [1554917,"2026-05-16 12:00:00","7627","2.81","175.5","4.769","186.9","1013.71","17.03","44.89","NAN","0.0"],
    [1554918,"2026-05-16 12:10:00","7628","2.095","190.0","4.279","182.9","1013.7180000000001","17.67","42.24","NAN","0.0"],
    [1554919,"2026-05-16 12:20:00","7629","2.8489999999999998","167.5","4.704","177.3","1013.819","17.14","43.13","NAN","0.0"],
    [1554920,"2026-05-16 12:30:00","7630","3.218","177.9","4.704","181.4","1013.8910000000001","16.98","49.96","NAN","0.0"],
    [1554921,"2026-05-16 12:40:00","7631","3.28","181.9","5.063","176.2","1013.931","16.99","51.38","NAN","0.0"],
    [1554922,"2026-05-16 12:50:00","7632","2.674","180.3","4.671","179.1","1013.804","17.18","51.34","NAN","0.0"],
    [1554923,"2026-05-16 13:00:00","7633","2.929","182.0","5.227","175.5","1013.8589999999999","17.32","50.91","NAN","0.0"],
    [1554924,"2026-05-16 13:10:00","7634","3.1860000000000004","179.1","5.292000000000001","159.9","1013.9630000000001","17.02","51.17","NAN","0.0"],
    [1554925,"2026-05-16 13:20:00","7635","2.26","191.4","4.573","171.3","1013.9730000000001","17.54","49.4","NAN","0.0"],
    [1554926,"2026-05-16 13:30:00","7636","2.945","183.8","5.7170000000000005","184.5","1014.1569999999999","17.39","51.38","NAN","0.0"],
    [1554927,"2026-05-16 13:40:00","7637","2.887","187.4","5.586","178.4","1014.202","17.53","51.56","NAN","0.0"],
    [1554928,"2026-05-16 13:50:00","7638","2.7089999999999996","182.2","5.227","179.1","1014.206","17.11","52.48","NAN","0.0"],
    [1554929,"2026-05-16 14:00:00","7639","2.9939999999999998","177.1","5.096","178.0","1014.2080000000001","17.08","53.27","NAN","0.0"],
    [1554930,"2026-05-16 14:10:00","7640","2.628","175.2","4.2139999999999995","163.8","1014.205","17.1","50.49","NAN","0.0"],
    [1554931,"2026-05-16 14:20:00","7641","2.822","175.3","4.638999999999999","178.6","1014.205","17.34","44.68","NAN","0.0"],
    [1554932,"2026-05-16 14:30:00","7642","2.593","172.9","4.638999999999999","183.6","1014.204","17.2","45.01","NAN","0.0"],
    [1554933,"2026-05-16 14:40:00","7643","2.476","176.4","4.965","156.0","1014.1160000000001","17.2","47.53","NAN","0.0"],
    [1554934,"2026-05-16 14:50:00","7644","2.244","176.5","4.149","144.8","1014.051","17.06","49.6","NAN","0.0"],
    [1554935,"2026-05-16 15:00:00","7645","2.495","181.4","4.247","158.3","1013.9680000000001","17.12","49.6","NAN","0.0"],
    [1554936,"2026-05-16 15:10:00","7646","2.324","180.0","3.7569999999999997","160.2","1014.0010000000001","16.77","48.88","NAN","0.0"],
    [1554937,"2026-05-16 15:20:00","7647","2.167","168.1","3.43","177.1","1014.0319999999999","16.92","49.6","NAN","0.0"],
    [1554938,"2026-05-16 15:30:00","7648","2.217","160.9","3.7889999999999997","144.8","1014.1160000000001","17.15","49.13","NAN","0.0"],
    [1554939,"2026-05-16 15:40:00","7649","2.309","186.5","3.593","186.5","1014.058","17.18","51.46","NAN","0.0"],
    [1554940,"2026-05-16 15:50:00","7650","2.4659999999999997","146.4","4.051","163.9","1013.985","17.06","52.64","NAN","0.0"],
    [1554941,"2026-05-16 16:00:00","7651","2.545","135.2","4.965","155.0","1013.9810000000001","17.4","53.11","NAN","0.0"],
    [1554942,"2026-05-16 16:10:00","7652","2.491","146.4","4.018","119.3","1013.9810000000001","17.14","53.42","NAN","0.0"],
    [1554943,"2026-05-16 16:20:00","7653","2.285","141.3","3.9530000000000003","115.5","1013.9630000000001","17.3","50.78","NAN","0.0"],
    [1554944,"2026-05-16 16:30:00","7654","1.771","144.1","2.7769999999999997","156.9","1013.802","17.3","50.48","NAN","0.0"],
    [1554945,"2026-05-16 16:40:00","7655","2.156","133.5","3.659","162.2","1013.763","17.2","50.99","NAN","0.0"],
    [1554946,"2026-05-16 16:50:00","7656","2.226","128.7","3.659","108.1","1013.7139999999999","17.25","49.72","NAN","0.0"],
    [1554947,"2026-05-16 17:00:00","7657","1.679","145.0","2.94","148.5","1013.6469999999999","17.28","48.56","NAN","0.0"],
    [1554948,"2026-05-16 17:10:00","7658","1.9680000000000002","136.4","3.463","115.2","1013.637","17.34","47.72","NAN","0.0"],
    [1554949,"2026-05-16 17:20:00","7659","1.931","121.7","3.365","123.3","1013.534","17.03","50.01","NAN","0.0"],
    [1554950,"2026-05-16 17:30:00","7660","2.138","117.7","3.1689999999999996","116.1","1013.5169999999999","17","48.73","NAN","0.0"],
    [1554951,"2026-05-16 17:40:00","7661","1.781","150.6","3.103","156.3","1013.556","17","47.56","NAN","0.0"],
    [1554952,"2026-05-16 17:50:00","7662","1.764","116.2","2.6460000000000004","149.5","1013.65","17.06","46.57","NAN","0.0"],
    [1554953,"2026-05-16 18:00:00","7663","1.742","99.7","3.136","120.6","1013.76","17.22","49.71","NAN","0.0"],
    [1554954,"2026-05-16 18:10:00","7664","1.63","92.4","2.7110000000000003","100.2","1013.7689999999999","17.23","46.2","NAN","0.0"],
    [1554955,"2026-05-16 18:20:00","7665","1.8330000000000002","85.9","2.7110000000000003","89.8","1013.8489999999999","17.11","43.8","NAN","0.0"],
    [1554956,"2026-05-16 18:30:00","7666","2.105","83.9","3.6260000000000003","72.56","1013.8810000000001","16.97","45.59","NAN","0.0"],
    [1554957,"2026-05-16 18:40:00","7667","2.4219999999999997","98.7","3.822","93.4","1014.1410000000001","16.89","48.87","NAN","0.0"],
    [1554958,"2026-05-16 18:50:00","7668","1.9480000000000002","103.4","4.083","113.3","1014.347","16.86","50.96","NAN","0.0"],
    [1554959,"2026-05-16 19:00:00","7669","2.036","109.8","3.985","111.3","1014.5089999999999","16.79","55.16","NAN","0.0"],
    [1554960,"2026-05-16 19:10:00","7670","1.807","111.0","3.365","106.5","1014.768","16.69","59.65","NAN","0.0"],
    [1554961,"2026-05-16 19:20:00","7671","1.824","118.5","3.234","133.6","1015.015","16.71","60.56","NAN","0.0"],
    [1554962,"2026-05-16 19:30:00","7672","1.966","115.6","3.92","112.3","1015.18","16.71","58.82","NAN","0.0"],
    [1554963,"2026-05-16 19:40:00","7673","1.8419999999999999","119.1","2.875","87.2","1015.318","16.67","57.99","NAN","0.0"],
    [1554964,"2026-05-16 19:50:00","7674","2.134","119.6","3.267","116.7","1015.3960000000001","16.64","58.85","NAN","0.0"],
    [1554965,"2026-05-16 20:00:00","7675","1.956","121.9","3.43","109.0","1015.6489999999999","16.69","60.15","NAN","0.0"],
    [1554966,"2026-05-16 20:10:00","7676","1.85","126.8","3.071","109.5","1015.873","16.73","61.69","NAN","0.0"],
    [1554967,"2026-05-16 20:20:00","7677","2.019","120.8","3.1689999999999996","109.2","1016.0830000000001","16.8","61.85","NAN","0.0"],
    [1554968,"2026-05-16 20:30:00","7678","1.729","124.9","3.43","124.1","1016.288","16.76","62.56","NAN","0.0"],
    [1554969,"2026-05-16 20:40:00","7679","1.6880000000000002","126.7","3.1689999999999996","109.4","1016.408","16.75","62.85","NAN","0.0"],
    [1554970,"2026-05-16 20:50:00","7680","1.6840000000000002","123.8","2.907","125.5","1016.6210000000001","16.76","63.29","NAN","0.0"],
    [1554971,"2026-05-16 21:00:00","7681","1.271","137.7","2.417","119.5","1016.7819999999999","16.77","63.39","NAN","0.0"],
    [1554972,"2026-05-16 21:10:00","7682","1.318","132.9","2.483","122.9","1016.84","16.77","64.05","NAN","0.0"],
    [1554973,"2026-05-16 21:20:00","7683","1.479","148.1","2.515","123.2","1016.918","16.8","64.34","NAN","0.0"],
    [1554974,"2026-05-16 21:30:00","7684","0.995","170.0","1.699","182.6","1016.9119999999999","16.77","65.14","NAN","0.0"],
    [1554975,"2026-05-16 21:40:00","7685","1.0979999999999999","142.6","2.417","112.2","1016.93","16.82","65.59","NAN","0.0"],
    [1554976,"2026-05-16 21:50:00","7686","1.409","154.6","2.287","138.1","1017.0039999999999","16.77","65.11","NAN","0.0"],
    [1554977,"2026-05-16 22:00:00","7687","1.065","160.9","2.0909999999999997","129.1","1017.033","16.79","64.77","NAN","0.0"],
    [1554978,"2026-05-16 22:10:00","7688","1.581","176.2","2.679","173.3","1017.038","16.77","64.89","NAN","0.0"],
    [1554979,"2026-05-16 22:20:00","7689","1.495","183.0","2.907","187.3","1017.078","16.85","65.52","NAN","0.0"],
    [1554980,"2026-05-16 22:30:00","7690","2.3480000000000003","180.8","4.247","173.3","1017.148","16.9","67.38","NAN","0.0"],
    [1554981,"2026-05-16 22:40:00","7691","1.825","184.3","3.1689999999999996","192.7","1017.1510000000001","16.82","67.51","NAN","0.0"],
    [1554982,"2026-05-16 22:50:00","7692","2.031","173.2","3.6910000000000003","167.3","1017.03","16.8","68.13","NAN","0.0"],
    [1554983,"2026-05-16 23:00:00","7693","1.704","182.4","3.463","174.5","1016.954","16.75","68.97","NAN","0.0"],
    [1554984,"2026-05-16 23:10:00","7694","1.791","184.3","2.907","201.7","1016.7810000000001","16.72","69.71","NAN","0.0"],
    [1554985,"2026-05-16 23:20:00","7695","1.735","185.8","4.181","169.8","1016.7439999999999","16.68","70.21","NAN","0.0"],
    [1554986,"2026-05-16 23:30:00","7696","1.831","179.6","3.071","175.2","1016.674","16.62","70.59","NAN","0.0"],
    [1554987,"2026-05-16 23:40:00","7697","1.288","198.4","3.103","168.5","1016.576","16.64","70.02","NAN","0.0"],
    [1554988,"2026-05-16 23:50:00","7698","1.012","181.5","2.45","170.6","1016.44","16.62","70.21","NAN","0.0"],
    [1554989,"2026-05-17 00:00:00","7699","1.443","181.4","2.679","177.3","1016.4810000000001","16.61","70","NAN","0.0"],
    [1554990,"2026-05-17 00:10:00","7700","1.359","186.6","2.7439999999999998","174.5","1016.3710000000001","16.57","69.38","NAN","0.0"],
    [1554991,"2026-05-17 00:20:00","7701","1.055","190.1","2.189","175.9","1016.265","16.61","69.54","NAN","0.0"],
    [1554992,"2026-05-17 00:30:00","7702","1.345","184.0","2.352","175.8","1016.12","16.56","70.26","NAN","0.0"],
    [1554993,"2026-05-17 00:40:00","7703","1.2329999999999999","167.7","2.0909999999999997","173.9","1015.9780000000001","16.53","69.45","NAN","0.0"],
    [1554994,"2026-05-17 00:50:00","7704","1.276","173.9","2.025","140.4","1015.824","16.55","69.17","NAN","0.0"],
    [1554995,"2026-05-17 01:00:00","7705","1.05","170.9","2.254","194.3","1015.698","16.56","67.74","NAN","0.0"],
    [1554996,"2026-05-17 01:10:00","7706","0.615","189.5","1.633","181.9","1015.615","16.61","68.03","NAN","0.0"],
    [1554997,"2026-05-17 01:20:00","7707","0.649","167.6","1.209","143.9","1015.577","16.63","68.31","NAN","0.0"],
    [1554998,"2026-05-17 01:30:00","7708","0.764","169.7","1.405","168.0","1015.5369999999999","16.63","67.57","NAN","0.0"],
    [1554999,"2026-05-17 01:40:00","7709","0.653","167.6","1.176","169.2","1015.525","16.65","66.9","NAN","0.0"],
    [1555000,"2026-05-17 01:50:00","7710","0.8759999999999999","177.7","1.47","181.4","1015.414","16.67","67.01","NAN","0.0"],
    [1555001,"2026-05-17 02:00:00","7711","0.363","162.1","1.209","196.8","1015.3839999999999","16.66","66.41","NAN","0.0"],
    [1555002,"2026-05-17 02:10:00","7712","0.619","160.8","1.013","170.9","1015.4060000000001","16.67","66.78","NAN","0.0"],
    [1555003,"2026-05-17 02:20:00","7713","0.8009999999999999","161.6","1.829","164.4","1015.3969999999999","16.62","66.99","NAN","0.0"],
    [1555004,"2026-05-17 02:30:00","7714","0.903","139.4","1.568","150.9","1015.288","16.52","67.51","NAN","0.0"],
    [1555005,"2026-05-17 02:40:00","7715","0.7490000000000001","169.2","1.3719999999999999","162.6","1015.362","16.46","67.01","NAN","0.0"],
    [1555006,"2026-05-17 02:50:00","7716","0.595","175.8","1.339","161.7","1015.428","16.42","67.42","NAN","0.0"],
    [1555007,"2026-05-17 03:00:00","7717","0.345","188.7","1.013","152.0","1015.378","16.29","67.1","NAN","0.0"],
    [1555008,"2026-05-17 03:10:00","7718","0.33299999999999996","144.0","0.882","145.0","1015.313","16.24","67.61","NAN","0.0"],
    [1555009,"2026-05-17 03:20:00","7719","0.441","168.7","0.882","184.8","1015.312","16.26","65.88","NAN","0.0"],
    [1555010,"2026-05-17 03:30:00","7720","0.188","166.2","0.882","172.3","1015.308","16.29","64.79","NAN","0.0"],
    [1555011,"2026-05-17 03:40:00","7721","0.897","37.07","1.699","42.59","1015.201","16.13","67.2","NAN","0.0"],
    [1555012,"2026-05-17 03:50:00","7722","1.092","36.27","2.156","32.96","1015.1339999999999","16","69.01","NAN","0.0"],
    [1555013,"2026-05-17 04:00:00","7723","0.7509999999999999","29.66","1.666","30.16","1015.072","15.86","69.66","NAN","0.0"],
    [1555014,"2026-05-17 04:10:00","7724","0.731","26.23","1.601","25.22","1015.082","15.79","70.03","NAN","0.0"],
    [1555015,"2026-05-17 04:20:00","7725","0.722","34.32","2.319","35.64","1015.084","15.7","70.46","NAN","0.0"],
    [1555016,"2026-05-17 04:30:00","7726","0.836","36.99","1.7309999999999999","41.49","1015.1669999999999","15.59","71.12","NAN","0.0"],
    [1555017,"2026-05-17 04:40:00","7727","0.804","27.56","1.764","7.05","1015.216","15.53","71.52","NAN","0.0"],
    [1555018,"2026-05-17 04:50:00","7728","1.238","13.46","2.548","5.412999999999999","1015.2489999999999","15.5","71.72","NAN","0.0"],
    [1555019,"2026-05-17 05:00:00","7729","1.214","17.8","2.483","0.664","1015.334","15.47","71.98","NAN","0.0"],
    [1555020,"2026-05-17 05:10:00","7730","1.0659999999999998","32.97","2.7769999999999997","28.12","1015.337","15.43","72.35","NAN","0.0"],
    [1555021,"2026-05-17 05:20:00","7731","1.021","23.86","2.221","5.636","1015.337","15.44","72.61","NAN","0.0"],
    [1555022,"2026-05-17 05:30:00","7732","1.575","7.846","2.907","6.973","1015.331","15.49","72.54","NAN","0.0"],
    [1555023,"2026-05-17 05:40:00","7733","1.181","12.53","2.515","359.3","1015.337","15.57","72.28","NAN","0.0"],
    [1555024,"2026-05-17 05:50:00","7734","1.018","14.31","2.7439999999999998","16.58","1015.428","15.8","71.66","NAN","0.0"],
    [1555025,"2026-05-17 06:00:00","7735","1.4480000000000002","10.63","2.515","356.3","1015.503","15.94","71.24","NAN","0.0"],
    [1555026,"2026-05-17 06:10:00","7736","1.391","14.67","2.907","18.82","1015.513","16.15","70.7","NAN","0.0"],
    [1555027,"2026-05-17 06:20:00","7737","1.301","19.84","2.7439999999999998","354.4","1015.615","16.23","70.71","NAN","0.0"],
    [1555028,"2026-05-17 06:30:00","7738","1.2109999999999999","20.32","2.156","354.2","1015.6389999999999","16.5","69.81","NAN","0.0"],
    [1555029,"2026-05-17 06:40:00","7739","1.705","41.19","3.822","20.06","1015.677","16.71","70","NAN","0.0"],
    [1555030,"2026-05-17 06:50:00","7740","1.3869999999999998","48.88","3.332","60.93","1015.779","16.71","70.19","NAN","0.0"],
    [1555031,"2026-05-17 07:00:00","7741","1.6030000000000002","59.37","3.299","64.09","1015.885","16.99","69.28","NAN","0.0"],
    [1555032,"2026-05-17 07:10:00","7742","1.709","36.29","3.267","40.29","1015.9639999999999","17.27","68.08","NAN","0.0"],
    [1555033,"2026-05-17 07:20:00","7743","1.777","73.23","3.332","66.72","1016.058","17.3","68.75","NAN","0.0"],
    [1555034,"2026-05-17 07:30:00","7744","2.496","84.6","4.051","104.1","1016.128","17.33","70.52","NAN","0.0"],
    [1555035,"2026-05-17 07:40:00","7745","2.6430000000000002","91.1","4.802","100.5","1016.193","17.2","71.89","NAN","0.0"],
    [1555036,"2026-05-17 07:50:00","7746","2.487","90.2","4.247","73.3","1016.258","17.34","71.02","NAN","0.0"],
    [1555037,"2026-05-17 08:00:00","7747","2.5639999999999996","81.4","4.2139999999999995","101.3","1016.3919999999999","17.51","70.39","NAN","0.0"],
    [1555038,"2026-05-17 08:10:00","7748","3.076","90.0","4.802","104.1","1016.362","17.36","71.19","NAN","0.0"],
    [1555039,"2026-05-17 08:20:00","7749","2.524","91.7","5.096","107.8","1016.454","17.77","70.98","NAN","0.0"],
    [1555040,"2026-05-17 08:30:00","7750","3.07","100.0","5.749","107.4","1016.507","17.57","71.36","NAN","0.0"],
    [1555041,"2026-05-17 08:40:00","7751","2.908","98.2","4.769","104.7","1016.541","17.82","68.76","NAN","0.0"],
    [1555042,"2026-05-17 08:50:00","7752","2.8489999999999998","89.3","4.835","70.9","1016.459","18","66.53","NAN","0.0"],
    [1555043,"2026-05-17 09:00:00","7753","3.04","102.6","5.422999999999999","115.6","1016.477","17.84","67.45","NAN","0.0"],
    [1555044,"2026-05-17 09:10:00","7754","3.591","106.0","5.684","109.1","1016.658","17.78","67.5","NAN","0.0"],
    [1555045,"2026-05-17 09:20:00","7755","3.455","104.0","5.782","105.6","1016.6489999999999","17.8","67.93","NAN","0.0"],
    [1555046,"2026-05-17 09:30:00","7756","3.345","102.2","5.553","94.7","1016.673","17.86","67.34","NAN","0.0"],
    [1555047,"2026-05-17 09:40:00","7757","2.7110000000000003","93.1","4.704","114.1","1016.688","18.38","65.81","NAN","0.0"],
    [1555048,"2026-05-17 09:50:00","7758","3.634","101.4","5.553","102.7","1016.668","18.26","66.19","NAN","0.0"],
    [1555049,"2026-05-17 10:00:00","7759","3.4810000000000003","106.4","6.664","112.6","1016.648","18.09","67.57","NAN","0.0"],
    [1555050,"2026-05-17 10:10:00","7760","3.085","107.1","5.292000000000001","113.2","1016.693","18.37","67.5","NAN","0.0"],
    [1555051,"2026-05-17 10:20:00","7761","3.637","100.7","5.684","108.7","1016.7230000000001","18.24","67.53","NAN","0.0"],
    [1555052,"2026-05-17 10:30:00","7762","3.409","101.3","6.5329999999999995","93.1","1016.796","18.2","68.24","NAN","0.0"],
    [1555053,"2026-05-17 10:40:00","7763","3.3280000000000003","101.7","5.619","112.3","1016.882","18.36","67.48","NAN","0.0"],
    [1555054,"2026-05-17 10:50:00","7764","3.783","103.4","5.88","110.1","1016.83","18.12","68.27","NAN","0.0"],
    [1555055,"2026-05-17 11:00:00","7765","3.9939999999999998","106.4","5.88","100.3","1016.7330000000001","18.06","68.31","NAN","0.0"],
    [1555056,"2026-05-17 11:10:00","7766","3.7680000000000002","106.3","5.945","96.6","1016.7080000000001","18.2","67.86","NAN","0.0"],
    [1555057,"2026-05-17 11:20:00","7767","3.4789999999999996","110.4","5.815","99.3","1016.7280000000001","18.37","67.91","NAN","0.0"],
    [1555058,"2026-05-17 11:30:00","7768","3.552","103.5","5.521","104.9","1016.715","18.31","67.51","NAN","0.0"],
    [1555059,"2026-05-17 11:40:00","7769","3.3110000000000004","101.0","5.292000000000001","99.8","1016.753","18.47","67.13","NAN","0.0"],
    [1555060,"2026-05-17 11:50:00","7770","3.141","106.1","5.978","108.5","1016.813","18.64","66.56","NAN","0.0"],
    [1555061,"2026-05-17 12:00:00","7771","3.238","107.2","4.998","113.0","1016.762","18.69","66.68","NAN","0.0"],
    [1555062,"2026-05-17 12:10:00","7772","3.508","105.9","6.1739999999999995","108.9","1016.721","18.46","66.65","NAN","0.0"],
    [1555063,"2026-05-17 12:20:00","7773","2.8960000000000004","103.9","4.9","116.5","1016.688","18.73","65.87","NAN","0.0"],
    [1555064,"2026-05-17 12:30:00","7774","3.0610000000000004","104.6","5.815","109.7","1016.678","18.81","65.71","NAN","0.0"],
    [1555065,"2026-05-17 12:40:00","7775","2.675","98.1","4.508","102.4","1016.658","18.87","65.14","NAN","0.0"],
    [1555066,"2026-05-17 12:50:00","7776","2.77","102.9","5.4879999999999995","111.4","1016.563","19.12","65.02","NAN","0.0"],
    [1555067,"2026-05-17 13:00:00","7777","3.165","104.7","5.325","123.7","1016.566","18.75","66.06","NAN","0.0"],
    [1555068,"2026-05-17 13:10:00","7778","2.7489999999999997","105.3","4.802","106.6","1016.4810000000001","18.96","66.07","NAN","0.0"],
    [1555069,"2026-05-17 13:20:00","7779","2.992","103.2","5.194","113.4","1016.3989999999999","18.89","65.67","NAN","0.0"],
    [1555070,"2026-05-17 13:30:00","7780","2.459","99.3","4.475","109.1","1016.262","19.2","65.28","NAN","0.0"],
    [1555071,"2026-05-17 13:40:00","7781","2.6630000000000003","106.5","4.475","127.0","1016.195","19.01","66.29","NAN","0.0"],
    [1555072,"2026-05-17 13:50:00","7782","2.238","138.1","4.181","150.0","1016.183","19.05","65.86","NAN","0.0"],
    [1555073,"2026-05-17 14:00:00","7783","2.195","142.9","3.7239999999999998","146.5","1016.078","18.91","66.56","NAN","0.0"],
    [1555074,"2026-05-17 14:10:00","7784","2.024","137.7","3.528","164.0","1016.018","18.97","65.99","NAN","0.0"],
    [1555075,"2026-05-17 14:20:00","7785","1.844","174.4","3.332","167.0","1015.943","19.12","62.92","NAN","0.0"],
    [1555076,"2026-05-17 14:30:00","7786","2.005","193.4","3.6260000000000003","215.5","1015.789","19.45","61.45","NAN","0.0"],
    [1555077,"2026-05-17 14:40:00","7787","2.523","177.0","4.279","182.0","1015.6510000000001","19.1","62.58","NAN","0.0"],
    [1555078,"2026-05-17 14:50:00","7788","2.772","169.5","3.9530000000000003","180.9","1015.4580000000001","18.86","64.76","NAN","0.0"],
    [1555079,"2026-05-17 15:00:00","7789","2.839","173.4","4.508","186.9","1015.3560000000001","19.02","65.1","NAN","0.0"],
    [1555080,"2026-05-17 15:10:00","7790","3.4189999999999996","174.2","5.1610000000000005","174.4","1015.273","18.72","67.1","NAN","0.0"],
    [1555081,"2026-05-17 15:20:00","7791","2.8480000000000003","175.8","4.9","183.2","1015.199","19.11","64.08","NAN","0.0"],
    [1555082,"2026-05-17 15:30:00","7792","2.9330000000000003","176.2","5.1610000000000005","183.1","1015.184","19.36","60.92","NAN","0.0"],
    [1555083,"2026-05-17 15:40:00","7793","2.759","185.1","5.651","177.9","1015.0260000000001","19.44","58.18","NAN","0.0"],
    [1555084,"2026-05-17 15:50:00","7794","2.661","191.2","5.292000000000001","204.9","1014.942","19.55","52.64","NAN","0.0"],
    [1555085,"2026-05-17 16:00:00","7795","2.9610000000000003","203.7","6.795","204.9","1014.947","19.64","45.68","NAN","0.0"],
    [1555086,"2026-05-17 16:10:00","7796","3.063","199.5","6.37","177.2","1014.942","19.8","47.39","NAN","0.0"],
    [1555087,"2026-05-17 16:20:00","7797","2.891","204.4","5.357","228.1","1014.932","19.55","50.45","NAN","0.0"],
    [1555088,"2026-05-17 16:30:00","7798","2.7739999999999996","203.0","6.468","212.5","1014.95","19.51","51.97","NAN","0.0"],
    [1555089,"2026-05-17 16:40:00","7799","3.1069999999999998","206.3","7.285","199.7","1014.937","19.1","53.68","NAN","0.0"],
    [1555090,"2026-05-17 16:50:00","7800","2.59","211.0","5.88","231.6","1014.86","19.1","55.59","NAN","0.0"],
    [1555091,"2026-05-17 17:00:00","7801","2.7319999999999998","213.7","5.325","216.8","1014.8489999999999","19.24","54.9","NAN","0.0"],
    [1555092,"2026-05-17 17:10:00","7802","2.386","211.9","5.1610000000000005","199.9","1014.883","19.36","54.66","NAN","0.0"],
    [1555093,"2026-05-17 17:20:00","7803","2.239","207.1","4.802","206.4","1014.952","19.17","56.25","NAN","0.0"],
    [1555094,"2026-05-17 17:30:00","7804","2.267","223.3","5.422999999999999","204.8","1014.9910000000001","19.18","55.59","NAN","0.0"],
    [1555095,"2026-05-17 17:40:00","7805","1.8780000000000001","223.8","5.978","228.2","1015.115","19.41","53.89","NAN","0.0"],
    [1555096,"2026-05-17 17:50:00","7806","3.082","230.9","6.141","226.5","1015.211","19.03","54.83","NAN","0.0"],
    [1555097,"2026-05-17 18:00:00","7807","1.9880000000000002","222.9","6.272","228.3","1015.2139999999999","19.11","55.77","NAN","0.0"],
    [1555098,"2026-05-17 18:10:00","7808","2.105","218.9","4.541","198.6","1015.298","18.92","58.23","NAN","0.0"],
    [1555099,"2026-05-17 18:20:00","7809","1.743","227.7","4.867","238.2","1015.427","18.87","58.13","NAN","0.0"],
    [1555100,"2026-05-17 18:30:00","7810","2.562","225.0","5.325","240.6","1015.492","18.64","60.21","NAN","0.0"],
    [1555101,"2026-05-17 18:40:00","7811","1.909","221.8","5.063","233.3","1015.556","18.49","61.05","NAN","0.0"],
    [1555102,"2026-05-17 18:50:00","7812","2.428","224.5","5.684","238.3","1015.633","18.3","62.35","NAN","0.0"],
    [1555103,"2026-05-17 19:00:00","7813","2.394","225.4","5.292000000000001","256.8","1015.66","18.19","63.81","NAN","0.0"],
    [1555104,"2026-05-17 19:10:00","7814","2.164","223.2","5.227","217.6","1015.763","18.02","65.8","NAN","0.0"],
    [1555105,"2026-05-17 19:20:00","7815","2.063","228.2","4.312","222.0","1015.8610000000001","17.97","67.15","NAN","0.0"],
    [1555106,"2026-05-17 19:30:00","7816","1.31","235.5","5.096","254.2","1015.9760000000001","18.07","67.62","NAN","0.0"],
    [1555107,"2026-05-17 19:40:00","7817","1.7","233.8","4.802","235.6","1016.1510000000001","18.11","68.24","NAN","0.0"],
    [1555108,"2026-05-17 19:50:00","7818","2.177","235.8","5.129","234.7","1016.2539999999999","17.93","69.45","NAN","0.0"],
    [1555109,"2026-05-17 20:00:00","7819","1.536","234.4","3.201","247.7","1016.4","17.97","69.67","NAN","0.0"],
    [1555110,"2026-05-17 20:10:00","7820","1.9040000000000001","245.4","4.051","239.6","1016.535","17.92","69.7","NAN","0.0"],
    [1555111,"2026-05-17 20:20:00","7821","1.129","229.7","4.312","228.8","1016.73","17.85","70.17","NAN","0.0"],
    [1555112,"2026-05-17 20:30:00","7822","0.544","173.9","1.4369999999999998","299.4","1016.9789999999999","17.73","70.74","NAN","0.0"],
    [1555113,"2026-05-17 20:40:00","7823","0.77","138.3","1.9269999999999998","112.6","1017.034","17.62","71.23","NAN","0.0"],
    [1555114,"2026-05-17 20:50:00","7824","0.805","209.3","2.287","294.5","1017.071","17.63","71.36","NAN","0.0"],
    [1555115,"2026-05-17 21:00:00","7825","0.6629999999999999","211.6","1.764","185.3","1017.132","17.58","71.92","NAN","0.0"],
    [1555116,"2026-05-17 21:10:00","7826","0.985","201.8","1.797","213.9","1017.168","17.53","72.8","NAN","0.0"],
    [1555117,"2026-05-17 21:20:00","7827","0.91","203.5","2.123","190.9","1017.0989999999999","17.41","73.36","NAN","0.0"],
    [1555118,"2026-05-17 21:30:00","7828","0.47","217.0","1.47","207.7","1017.19","17.4","73.15","NAN","0.0"],
    [1555119,"2026-05-17 21:40:00","7829","0.534","205.9","1.405","178.4","1017.28","17.46","73.08","NAN","0.0"],
    [1555120,"2026-05-17 21:50:00","7830","0.917","225.0","2.287","227.9","1017.211","17.38","73.34","NAN","0.0"],
    [1555121,"2026-05-17 22:00:00","7831","0.9159999999999999","240.5","1.993","240.8","1017.0930000000001","17.55","71.77","NAN","0.0"],
    [1555122,"2026-05-17 22:10:00","7832","0.813","266.9","1.7309999999999999","283.4","1017.0039999999999","17.68","70.71","NAN","0.0"],
    [1555123,"2026-05-17 22:20:00","7833","1.052","229.9","2.417","240.8","1017.0210000000001","17.62","71.15","NAN","0.0"],
    [1555124,"2026-05-17 22:30:00","7834","0.716","208.6","1.4369999999999998","260.1","1017.051","17.46","73.09","NAN","0.0"],
    [1555125,"2026-05-17 22:40:00","7835","0.828","211.8","1.829","197.6","1017.055","17.31","73.63","NAN","0.0"],
    [1555126,"2026-05-17 22:50:00","7836","0.7879999999999999","219.3","2.0909999999999997","243.7","1017.1610000000001","17.33","73.17","NAN","0.0"],
    [1555127,"2026-05-17 23:00:00","7837","0.799","213.0","2.221","234.5","1017.2860000000001","17.23","74.26","NAN","0.0"],
    [1555128,"2026-05-17 23:10:00","7838","0.821","232.8","2.352","241.5","1017.178","17.15","74.63","NAN","0.0"],
    [1555129,"2026-05-17 23:20:00","7839","0.866","218.0","2.483","225.3","1017.184","17.2","74.39","NAN","0.0"],
    [1555130,"2026-05-17 23:30:00","7840","0.7509999999999999","219.1","1.633","278.3","1017.182","17.07","75.41","NAN","0.0"],
    [1555131,"2026-05-17 23:40:00","7841","0.894","275.6","2.6460000000000004","303.8","1017.0930000000001","17.24","73.69","NAN","0.0"],
    [1555132,"2026-05-17 23:50:00","7842","0.9259999999999999","268.1","2.254","259.3","1017.076","17.4","71.81","NAN","0.0"],
    [1555133,"2026-05-18 00:00:00","7843","0.536","277.0","1.4369999999999998","254.1","1017.05","17.47","71.1","NAN","0.0"],
    [1555134,"2026-05-18 00:10:00","7844","0.29","232.6","1.307","235.1","1016.943","17.41","72.09","NAN","0.0"],
    [1555135,"2026-05-18 00:20:00","7845","0.263","228.0","1.111","294.8","1016.813","17.23","73.87","NAN","0.0"],
    [1555136,"2026-05-18 00:30:00","7846","0.3","271.7","1.535","278.6","1016.803","17.2","73.3","NAN","0.0"],
    [1555137,"2026-05-18 00:40:00","7847","0.633","234.9","1.666","225.7","1016.687","17.53","71.41","NAN","0.0"],
    [1555138,"2026-05-18 00:50:00","7848","0.831","226.1","1.9269999999999998","259.9","1016.54","17.45","72.29","NAN","0.0"],
    [1555139,"2026-05-18 01:00:00","7849","0.5920000000000001","201.1","1.5030000000000001","209.4","1016.503","17.08","75.5","NAN","0.0"],
    [1555140,"2026-05-18 01:10:00","7850","0.74","197.3","1.47","189.8","1016.3839999999999","16.99","76.36","NAN","0.0"],
    [1555141,"2026-05-18 01:20:00","7851","0.642","190.0","1.176","197.8","1016.302","16.93","76.75","NAN","0.0"],
    [1555142,"2026-05-18 01:30:00","7852","0.7140000000000001","187.7","1.013","180.5","1016.294","16.84","77.36","NAN","0.0"],
    [1555143,"2026-05-18 01:40:00","7853","0.7959999999999999","195.0","1.111","199.9","1016.296","16.82","78.16","NAN","0.0"],
    [1555144,"2026-05-18 01:50:00","7854","0.659","186.4","0.98","174.0","1016.302","16.81","77.68","NAN","0.0"],
    [1555145,"2026-05-18 02:00:00","7855","0.561","196.5","1.013","181.1","1016.291","16.88","76.78","NAN","0.0"],
    [1555146,"2026-05-18 02:10:00","7856","0.33","189.7","1.013","174.4","1016.309","16.84","77.18","NAN","0.0"],
    [1555147,"2026-05-18 02:20:00","7857","0.703","174.6","1.078","171.2","1016.284","16.86","77.08","NAN","0.0"],
    [1555148,"2026-05-18 02:30:00","7858","0.48200000000000004","205.3","0.8170000000000001","210.2","1016.199","16.76","77.99","NAN","0.0"],
    [1555149,"2026-05-18 02:40:00","7859","0.348","216.8","1.013","204.1","1016.2760000000001","16.7","78.29","NAN","0.0"],
    [1555150,"2026-05-18 02:50:00","7860","0.451","217.1","0.8490000000000001","212.1","1016.278","16.71","78.25","NAN","0.0"],
    [1555151,"2026-05-18 03:00:00","7861","0.225","187.6","0.653","203.2","1016.2810000000001","16.79","78.52","NAN","0.0"],
    [1555152,"2026-05-18 03:10:00","7862","0.8079999999999999","238.6","1.895","254.5","1016.289","16.89","79.19","NAN","0.0"],
    [1555153,"2026-05-18 03:20:00","7863","0.866","233.9","2.287","240.3","1016.294","17.02","77.24","NAN","0.0"],
    [1555154,"2026-05-18 03:30:00","7864","0.991","259.1","1.96","300.3","1016.305","17.08","76.65","NAN","0.0"],
    [1555155,"2026-05-18 03:40:00","7865","0.778","269.7","2.0909999999999997","296.0","1016.302","17.21","76.53","NAN","0.0"],
    [1555156,"2026-05-18 03:50:00","7866","1.065","266.7","3.136","257.4","1016.204","17.2","76.14","NAN","0.0"],
    [1555157,"2026-05-18 04:00:00","7867","0.802","265.0","2.875","307.3","1016.174","17.27","75.45","NAN","0.0"],
    [1555158,"2026-05-18 04:10:00","7868","0.742","258.0","1.895","288.0","1016.2280000000001","17.36","74.94","NAN","0.0"],
    [1555159,"2026-05-18 04:20:00","7869","0.826","257.9","1.8619999999999999","261.4","1016.29","17.35","74.76","NAN","0.0"],
    [1555160,"2026-05-18 04:30:00","7870","0.42100000000000004","276.0","1.7309999999999999","291.9","1016.2689999999999","17.39","74.44","NAN","0.0"],
    [1555161,"2026-05-18 04:40:00","7871","0.253","242.3","1.045","261.8","1016.2719999999999","17.35","74.46","NAN","0.0"],
    [1555162,"2026-05-18 04:50:00","7872","0.45399999999999996","274.7","1.274","309.7","1016.27","17.37","73.95","NAN","0.0"],
    [1555163,"2026-05-18 05:00:00","7873","0.861","262.1","1.699","302.8","1016.3539999999999","17.5","73.31","NAN","0.0"],
    [1555164,"2026-05-18 05:10:00","7874","0.588","346.0","1.405","73.73","1016.4580000000001","17.54","72.72","NAN","0.0"],
    [1555165,"2026-05-18 05:20:00","7875","0.787","47.39","1.307","61.68","1016.627","17.42","71.41","NAN","0.0"],
    [1555166,"2026-05-18 05:30:00","7876","0.606","41.37","0.9470000000000001","99.3","1016.694","17.4","71.71","NAN","0.0"],
    [1555167,"2026-05-18 05:40:00","7877","0.546","121.7","0.8170000000000001","120.8","1016.7610000000001","17.45","72.02","NAN","0.0"],
    [1555168,"2026-05-18 05:50:00","7878","0.7879999999999999","156.0","1.535","154.6","1016.7639999999999","17.45","73.78","NAN","0.0"],
    [1555169,"2026-05-18 06:00:00","7879","0.855","154.7","1.535","154.6","1016.9010000000001","17.38","74.09","NAN","0.0"],
    [1555170,"2026-05-18 06:10:00","7880","0.9059999999999999","151.4","1.47","145.7","1017.01","17.39","74.67","NAN","0.0"],
    [1555171,"2026-05-18 06:20:00","7881","0.9329999999999999","210.0","3.005","262.3","1017.013","17.66","73.49","NAN","0.0"],
    [1555172,"2026-05-18 06:30:00","7882","0.8759999999999999","242.7","2.123","255.3","1017.058","18.04","70.3","NAN","0.0"],
    [1555173,"2026-05-18 06:40:00","7883","0.986","233.4","2.613","237.5","1017.205","18.12","69.47","NAN","0.0"],
    [1555174,"2026-05-18 06:50:00","7884","1.423","236.6","3.071","230.7","1017.258","18.09","67.88","NAN","0.0"],
    [1555175,"2026-05-18 07:00:00","7885","1.318","236.4","2.907","218.1","1017.2360000000001","18.14","67.33","NAN","0.0"],
    [1555176,"2026-05-18 07:10:00","7886","1.3319999999999999","242.2","2.7110000000000003","234.3","1017.222","18.47","66.01","NAN","0.0"],
    [1555177,"2026-05-18 07:20:00","7887","1.021","168.1","2.156","194.3","1017.207","18.68","65.95","NAN","0.0"],
    [1555178,"2026-05-18 07:30:00","7888","1.042","162.4","2.025","166.9","1017.198","18.23","67.99","NAN","0.0"],
    [1555179,"2026-05-18 07:40:00","7889","1.018","169.5","1.7309999999999999","184.8","1017.203","18.55","67.18","NAN","0.0"],
    [1555180,"2026-05-18 07:50:00","7890","1.608","172.8","2.907","170.2","1017.201","18.63","68.05","NAN","0.0"],
    [1555181,"2026-05-18 08:00:00","7891","2.081","174.7","3.201","180.7","1017.2689999999999","18.52","68.54","NAN","0.0"],
    [1555182,"2026-05-18 08:10:00","7892","1.7069999999999999","183.4","2.7439999999999998","192.9","1017.3810000000001","18.7","68.7","NAN","0.0"],
    [1555183,"2026-05-18 08:20:00","7893","1.984","172.6","3.267","178.6","1017.485","18.65","67.75","NAN","0.0"],
    [1555184,"2026-05-18 08:30:00","7894","2.085","175.2","3.201","154.8","1017.508","18.79","68.45","NAN","0.0"],
    [1555185,"2026-05-18 08:40:00","7895","2.569","175.1","3.822","169.6","1017.565","18.63","71.24","NAN","0.0"],
    [1555186,"2026-05-18 08:50:00","7896","2.88","177.3","4.247","179.6","1017.622","18.61","72.11","NAN","0.0"],
    [1555187,"2026-05-18 09:00:00","7897","2.9619999999999997","174.8","4.508","184.5","1017.664","18.41","74.03","NAN","0.0"],
    [1555188,"2026-05-18 09:10:00","7898","3.258","181.9","4.671","177.1","1017.655","18.43","74.21","NAN","0.0"],
    [1555189,"2026-05-18 09:20:00","7899","2.9739999999999998","182.5","4.769","182.2","1017.587","18.21","76.03","NAN","0.0"],
    [1555190,"2026-05-18 09:30:00","7900","2.6289999999999996","180.3","4.4430000000000005","175.5","1017.607","18.13","77.27","NAN","0.0"],
    [1555191,"2026-05-18 09:40:00","7901","2.356","174.9","4.2139999999999995","184.4","1017.704","18.07","78.96","NAN","0.2"],
    [1555192,"2026-05-18 09:50:00","7902","1.889","187.9","3.7889999999999997","200.5","1017.8380000000001","17.44","86.4","NAN","0.7"],
    [1555193,"2026-05-18 10:00:00","7903","2.185","174.8","3.985","176.2","1017.816","17.41","86.9","NAN","0.5"],
    [1555194,"2026-05-18 10:10:00","7904","2.492","181.0","4.2139999999999995","177.3","1017.8839999999999","17.5","86.4","NAN","0.0"],
    [1555195,"2026-05-18 10:20:00","7905","2.655","178.6","4.638999999999999","180.2","1017.8839999999999","17.84","84.8","NAN","0.0"],
    [1555196,"2026-05-18 10:30:00","7906","3.2939999999999996","176.6","5.357","178.8","1017.846","17.82","84.3","NAN","0.0"],
    [1555197,"2026-05-18 10:40:00","7907","2.909","181.3","4.638999999999999","181.7","1017.831","17.78","84.7","NAN","0.0"],
    [1555198,"2026-05-18 10:50:00","7908","2.269","195.0","4.018","179.7","1017.916","17.86","83.1","NAN","0.0"],
    [1555199,"2026-05-18 11:00:00","7909","1.6230000000000002","206.2","3.365","200.3","1018.0089999999999","17.93","81.5","NAN","0.1"],
    [1555200,"2026-05-18 11:10:00","7910","1.308","202.9","2.9730000000000003","208.0","1018.012","17.91","82.1","NAN","0.2"],
    [1555201,"2026-05-18 11:20:00","7911","1.083","193.7","2.254","178.6","1018.04","17.82","83.1","NAN","0.2"],
    [1555202,"2026-05-18 11:30:00","7912","1.111","196.3","2.156","202.9","1018.2139999999999","17.83","83.5","NAN","0.1"],
    [1555203,"2026-05-18 11:40:00","7913","0.9890000000000001","199.8","2.189","207.2","1018.258","17.91","83.7","NAN","0.0"],
    [1555204,"2026-05-18 11:50:00","7914","1.632","195.1","2.907","188.0","1018.018","17.92","79.37","NAN","0.1"],
    [1555205,"2026-05-18 12:00:00","7915","1.818","186.9","3.92","195.8","1017.6389999999999","17.84","77.45","NAN","0.1"],
    [1555206,"2026-05-18 12:10:00","7916","1.9169999999999998","192.4","3.5610000000000004","177.2","1017.373","17.93","81","NAN","0.1"],
    [1555207,"2026-05-18 12:20:00","7917","1.855","194.7","3.9530000000000003","184.5","1017.3910000000001","18.4","80.1","NAN","0.0"],
    [1555208,"2026-05-18 12:30:00","7918","1.972","203.9","4.606","213.3","1017.5","18.43","78.78","NAN","0.0"],
    [1555209,"2026-05-18 12:40:00","7919","2.247","190.5","4.279","174.7","1017.337","18.31","75.1","NAN","0.0"],
    [1555210,"2026-05-18 12:50:00","7920","2.4459999999999997","196.2","4.737","193.4","1017.315","18.28","76.17","NAN","0.0"],
    [1555211,"2026-05-18 13:00:00","7921","2.411","187.2","5.325","172.1","1017.3","18.22","79.97","NAN","0.0"],
    [1555212,"2026-05-18 13:10:00","7922","1.595","200.2","3.7889999999999997","170.3","1017.492","18.3","82.3","NAN","0.1"],
    [1555213,"2026-05-18 13:20:00","7923","1.673","230.1","3.6910000000000003","222.4","1017.586","18.13","83.5","NAN","0.2"],
    [1555214,"2026-05-18 13:30:00","7924","2.0269999999999997","225.1","4.671","239.8","1017.758","18.08","85.7","NAN","0.3"],
    [1555215,"2026-05-18 13:40:00","7925","2.79","224.7","5.292000000000001","233.8","1017.549","17.54","88","NAN","0.8"],
    [1555216,"2026-05-18 13:50:00","7926","1.786","188.3","3.495","175.8","1016.971","16.9","82","NAN","0.5"],
    [1555217,"2026-05-18 14:00:00","7927","1.871","191.0","4.541","180.8","1016.825","17.58","85.7","NAN","0.0"],
    [1555218,"2026-05-18 14:10:00","7928","1.466","213.9","3.7239999999999998","208.5","1017.091","18.28","88.5","NAN","0.0"],
    [1555219,"2026-05-18 14:20:00","7929","1.3030000000000002","189.5","2.417","167.8","1017.0169999999999","18.39","87.6","NAN","0.0"],
    [1555220,"2026-05-18 14:30:00","7930","1.9969999999999999","183.0","4.345","178.5","1016.943","18.61","85.8","NAN","0.0"],
    [1555221,"2026-05-18 14:40:00","7931","1.9","185.6","4.051","172.8","1016.943","18.98","84","NAN","0.0"],
    [1555222,"2026-05-18 14:50:00","7932","1.8530000000000002","208.0","3.659","205.0","1016.903","19.31","81.3","NAN","0.0"],
    [1555223,"2026-05-18 15:00:00","7933","2.266","215.4","4.671","215.5","1016.868","19.37","80.5","NAN","0.0"],
    [1555224,"2026-05-18 15:10:00","7934","2.251","209.9","4.933","233.8","1016.704","19.58","79.59","NAN","0.0"],
    [1555225,"2026-05-18 15:20:00","7935","2.093","205.4","4.802","203.9","1016.56","19.6","78.79","NAN","0.0"],
    [1555226,"2026-05-18 15:30:00","7936","2.266","214.1","5.129","215.5","1016.558","19.65","79.41","NAN","0.0"],
    [1555227,"2026-05-18 15:40:00","7937","2.396","215.2","4.769","206.8","1016.6089999999999","19.67","78.38","NAN","0.0"],
    [1555228,"2026-05-18 15:50:00","7938","1.8619999999999999","204.5","3.887","177.0","1016.688","19.59","79.78","NAN","0.0"],
    [1555229,"2026-05-18 16:00:00","7939","2.0780000000000003","202.7","4.638999999999999","194.5","1016.703","19.56","78.55","NAN","0.0"],
    [1555230,"2026-05-18 16:10:00","7940","1.875","210.4","3.92","225.0","1016.808","19.68","77.23","NAN","0.0"],
    [1555231,"2026-05-18 16:20:00","7941","2.292","210.8","4.769","205.9","1016.84","19.49","78.03","NAN","0.0"],
    [1555232,"2026-05-18 16:30:00","7942","1.9709999999999999","206.1","4.083","197.8","1016.7080000000001","19.89","76.87","NAN","0.0"],
    [1555233,"2026-05-18 16:40:00","7943","1.676","192.2","3.7569999999999997","212.8","1016.696","19.4","79.89","NAN","0.0"],
    [1555234,"2026-05-18 16:50:00","7944","2.403","181.4","4.1160000000000005","172.4","1016.681","18.87","83.1","NAN","0.0"],
    [1555235,"2026-05-18 17:00:00","7945","1.88","192.8","3.6910000000000003","176.9","1016.694","18.75","83.1","NAN","0.0"],
    [1555236,"2026-05-18 17:10:00","7946","1.926","191.8","3.855","194.7","1016.694","18.75","82.8","NAN","0.0"],
    [1555237,"2026-05-18 17:20:00","7947","1.7519999999999998","195.1","3.0380000000000003","195.0","1016.697","18.73","81.9","NAN","0.0"],
    [1555238,"2026-05-18 17:30:00","7948","1.048","202.5","2.417","181.0","1016.732","18.83","82.3","NAN","0.0"],
    [1555239,"2026-05-18 17:40:00","7949","1.157","195.8","2.9730000000000003","212.1","1016.8810000000001","18.83","83.5","NAN","0.0"],
    [1555240,"2026-05-18 17:50:00","7950","1.3319999999999999","212.7","3.299","200.3","1017.0160000000001","18.81","82.9","NAN","0.0"],
    [1555241,"2026-05-18 18:00:00","7951","1.271","212.1","2.613","214.5","1017.113","18.86","82.6","NAN","0.0"],
    [1555242,"2026-05-18 18:10:00","7952","1.62","211.7","3.7889999999999997","220.4","1017.22","18.92","82.7","NAN","0.0"],
    [1555243,"2026-05-18 18:20:00","7953","1.334","215.3","3.136","201.1","1017.2410000000001","18.85","84.1","NAN","0.0"],
    [1555244,"2026-05-18 18:30:00","7954","1.3519999999999999","204.0","2.254","185.7","1017.284","18.73","84.6","NAN","0.0"],
    [1555245,"2026-05-18 18:40:00","7955","0.8079999999999999","208.0","2.45","258.0","1017.363","18.69","85","NAN","0.0"],
    [1555246,"2026-05-18 18:50:00","7956","0.522","173.6","1.5030000000000001","206.2","1017.4110000000001","18.66","87.3","NAN","0.0"],
    [1555247,"2026-05-18 19:00:00","7957","0.9840000000000001","211.9","2.385","209.2","1017.5089999999999","18.63","85.7","NAN","0.0"],
    [1555248,"2026-05-18 19:10:00","7958","1.048","208.6","3.071","208.0","1017.449","18.71","85.7","NAN","0.0"],
    [1555249,"2026-05-18 19:20:00","7959","1.5819999999999999","225.8","3.136","236.8","1017.488","18.66","83.9","NAN","0.0"],
    [1555250,"2026-05-18 19:30:00","7960","1.183","223.2","2.221","218.1","1017.5189999999999","18.65","84.1","NAN","0.0"],
    [1555251,"2026-05-18 19:40:00","7961","0.9129999999999999","221.8","2.025","219.6","1017.6080000000001","18.64","85.2","NAN","0.0"],
    [1555252,"2026-05-18 19:50:00","7962","0.972","227.3","2.189","222.6","1017.71","18.63","85.6","NAN","0.0"],
    [1555253,"2026-05-18 20:00:00","7963","1.126","225.1","2.221","241.6","1017.8480000000001","18.59","85.8","NAN","0.0"],
    [1555254,"2026-05-18 20:10:00","7964","0.591","218.7","1.568","186.3","1017.927","18.61","86.1","NAN","0.0"],
    [1555255,"2026-05-18 20:20:00","7965","0.882","219.9","2.352","237.7","1018.072","18.6","86.3","NAN","0.0"],
    [1555256,"2026-05-18 20:30:00","7966","0.846","205.8","1.535","217.9","1018.209","18.55","86.8","NAN","0.0"],
    [1555257,"2026-05-18 20:40:00","7967","1.057","218.0","2.352","236.6","1018.2719999999999","18.47","87.2","NAN","0.0"],
    [1555258,"2026-05-18 20:50:00","7968","0.662","219.6","1.535","240.8","1018.38","18.5","87.3","NAN","0.0"],
    [1555259,"2026-05-18 21:00:00","7969","0.8240000000000001","210.0","1.7309999999999999","203.5","1018.418","18.5","87.6","NAN","0.0"],
    [1555260,"2026-05-18 21:10:00","7970","1.067","204.2","2.417","210.7","1018.4830000000001","18.47","87.7","NAN","0.0"],
    [1555261,"2026-05-18 21:20:00","7971","0.904","190.6","1.633","229.5","1018.508","18.53","89.3","NAN","0.0"],
    [1555262,"2026-05-18 21:30:00","7972","0.652","197.1","1.797","214.5","1018.515","18.44","91.2","NAN","0.0"],
    [1555263,"2026-05-18 21:40:00","7973","0.83","212.0","1.895","202.2","1018.508","18.35","91.8","NAN","0.0"],
    [1555264,"2026-05-18 21:50:00","7974","0.912","212.8","1.9269999999999998","171.2","1018.5269999999999","18.32","91.5","NAN","0.0"],
    [1555265,"2026-05-18 22:00:00","7975","0.7759999999999999","216.0","2.45","236.8","1018.562","18.32","91.3","NAN","0.0"],
    [1555266,"2026-05-18 22:10:00","7976","1.119","216.2","2.842","209.6","1018.659","18.29","90.5","NAN","0.0"],
    [1555267,"2026-05-18 22:20:00","7977","0.9229999999999999","212.3","2.254","222.4","1018.7339999999999","18.25","90.1","NAN","0.0"],
    [1555268,"2026-05-18 22:30:00","7978","0.992","231.1","2.319","243.1","1018.6439999999999","18.26","89.7","NAN","0.0"],
    [1555269,"2026-05-18 22:40:00","7979","0.867","221.1","1.9269999999999998","240.7","1018.564","18.18","89.8","NAN","0.0"],
    [1555270,"2026-05-18 22:50:00","7980","0.64","229.2","1.8619999999999999","236.1","1018.515","18.08","89.6","NAN","0.0"],
    [1555271,"2026-05-18 23:00:00","7981","0.799","242.8","2.025","242.0","1018.554","18.08","89","NAN","0.0"],
    [1555272,"2026-05-18 23:10:00","7982","0.48700000000000004","252.2","1.143","269.6","1018.6469999999999","18.12","88.5","NAN","0.0"],
    [1555273,"2026-05-18 23:20:00","7983","0.36","206.6","1.307","200.1","1018.692","18.08","88.6","NAN","0.0"],
    [1555274,"2026-05-18 23:30:00","7984","0.583","199.2","1.339","222.4","1018.628","17.93","89.4","NAN","0.0"],
    [1555275,"2026-05-18 23:40:00","7985","0.6629999999999999","208.3","1.176","217.3","1018.6239999999999","17.85","89.9","NAN","0.0"],
    [1555276,"2026-05-18 23:50:00","7986","0.616","196.1","1.176","196.7","1018.512","17.87","90.1","NAN","0.0"],
    [1555277,"2026-05-19 00:00:00","7987","0.563","207.4","1.209","213.4","1018.502","17.8","90.5","NAN","0.0"],
    [1555278,"2026-05-19 00:10:00","7988","0.596","201.7","1.045","206.7","1018.5010000000001","17.79","90.7","NAN","0.0"],
    [1555279,"2026-05-19 00:20:00","7989","0.596","190.4","0.98","200.0","1018.4010000000001","17.81","91.2","NAN","0.0"],
    [1555280,"2026-05-19 00:30:00","7990","0.084","186.0","0.588","186.4","1018.313","17.74","91.9","NAN","0.0"],
    [1555281,"2026-05-19 00:40:00","7991","0.28","12.25","1.3719999999999999","34.64","1018.2810000000001","17.64","91.9","NAN","0.0"],
    [1555282,"2026-05-19 00:50:00","7992","0.732","41.32","1.601","32.01","1018.258","17.6","89.3","NAN","0.0"],
    [1555283,"2026-05-19 01:00:00","7993","0.772","48.83","1.176","64.07","1018.258","17.65","87.8","NAN","0.0"],
    [1555284,"2026-05-19 01:10:00","7994","0.42","46.76","0.98","54.74","1018.2560000000001","17.69","87.9","NAN","0.0"],
    [1555285,"2026-05-19 01:20:00","7995","0.508","32.02","1.5030000000000001","33.66","1018.2260000000001","17.64","87.6","NAN","0.0"],
    [1555286,"2026-05-19 01:30:00","7996","0.778","39.92","1.3719999999999999","24.92","1018.176","17.61","86.8","NAN","0.0"],
    [1555287,"2026-05-19 01:40:00","7997","0.6709999999999999","30.01","1.339","24.64","1018.196","17.58","86.4","NAN","0.0"],
    [1555288,"2026-05-19 01:50:00","7998","0.48","35.15","1.209","28.1","1018.238","17.58","86.2","NAN","0.0"],
    [1555289,"2026-05-19 02:00:00","7999","0.7440000000000001","36.52","1.666","30.78","1018.171","17.53","86.1","NAN","0.0"],
    [1555290,"2026-05-19 02:10:00","8000","0.721","10.13","1.568","19.19","1018.064","17.46","86.1","NAN","0.0"],
    [1555291,"2026-05-19 02:20:00","8001","0.754","8.54","1.568","13.22","1018.0419999999999","17.44","86","NAN","0.0"],
    [1555292,"2026-05-19 02:30:00","8002","0.505","9.63","1.209","9.26","1018.0089999999999","17.37","86.4","NAN","0.0"],
    [1555293,"2026-05-19 02:40:00","8003","0.33399999999999996","22.32","0.7190000000000001","2.659","1018.0089999999999","17.33","86.7","NAN","0.0"],
    [1555294,"2026-05-19 02:50:00","8004","0.185","40.21","0.784","37.78","1018.012","17.19","87.2","NAN","0.0"],
    [1555295,"2026-05-19 03:00:00","8005","0.040999999999999995","23.26","0.523","29.9","1018.008","17.01","87.9","NAN","0.0"],
    [1555296,"2026-05-19 03:10:00","8006","0.009000000000000001","334.9","0.327","344.3","1018.0239999999999","16.95","89","NAN","0.0"],
    [1555297,"2026-05-19 03:20:00","8007","0.0","0.0","0.0","0.0","1018.053","17.1","88.7","NAN","0.0"],
    [1555298,"2026-05-19 03:30:00","8008","0.0","0.0","0.0","0.0","1018.1410000000001","17.1","88.9","NAN","0.0"],
    [1555299,"2026-05-19 03:40:00","8009","0.157","55.87","0.653","60.13","1018.097","17.08","89.5","NAN","0.0"],
    [1555300,"2026-05-19 03:50:00","8010","0.358","82.3","0.7190000000000001","71.73","1018.092","17.1","88.9","NAN","0.0"],
    [1555301,"2026-05-19 04:00:00","8011","0.39399999999999996","47.99","0.882","60.16","1018.0369999999999","17.1","88.4","NAN","0.0"],
    [1555302,"2026-05-19 04:10:00","8012","0.596","30.84","1.111","27.49","1018.039","17.11","88.1","NAN","0.0"],
    [1555303,"2026-05-19 04:20:00","8013","0.747","23.53","1.633","346.6","1018.012","17.1","87.9","NAN","0.0"],
    [1555304,"2026-05-19 04:30:00","8014","0.636","7.569","1.339","28.87","1018.181","17.15","87.6","NAN","0.0"],
    [1555305,"2026-05-19 04:40:00","8015","0.522","357.1","1.013","341.8","1018.265","17.14","87.4","NAN","0.0"],
    [1555306,"2026-05-19 04:50:00","8016","0.529","356.0","1.013","354.7","1018.33","17.15","87.3","NAN","0.0"],
    [1555307,"2026-05-19 05:00:00","8017","0.6579999999999999","3.167","1.2409999999999999","351.7","1018.471","17.18","86.9","NAN","0.0"],
    [1555308,"2026-05-19 05:10:00","8018","0.6509999999999999","31.41","1.666","20.04","1018.4960000000001","17.21","86.6","NAN","0.0"],
    [1555309,"2026-05-19 05:20:00","8019","0.475","44.68","1.2409999999999999","23.12","1018.51","17.19","86.6","NAN","0.0"],
    [1555310,"2026-05-19 05:30:00","8020","0.48200000000000004","14.34","0.9470000000000001","11.88","1018.6519999999999","17.28","85.9","NAN","0.0"],
    [1555311,"2026-05-19 05:40:00","8021","0.47200000000000003","21.93","1.111","13.39","1018.763","17.45","84.9","NAN","0.0"],
    [1555312,"2026-05-19 05:50:00","8022","0.769","46.65","1.47","33.98","1018.7589999999999","17.55","84.4","NAN","0.0"],
    [1555313,"2026-05-19 06:00:00","8023","0.637","49.26","1.5030000000000001","44.7","1018.758","17.92","83.4","NAN","0.0"],
    [1555314,"2026-05-19 06:10:00","8024","0.68","9.08","1.143","9.72","1018.8739999999999","18.4","81.7","NAN","0.0"],
    [1555315,"2026-05-19 06:20:00","8025","0.5429999999999999","27.69","1.176","11.53","1019.041","18.48","81.2","NAN","0.0"],
    [1555316,"2026-05-19 06:30:00","8026","0.7929999999999999","39.65","1.5030000000000001","22.43","1019.137","18.7","80.3","NAN","0.0"],
    [1555317,"2026-05-19 06:40:00","8027","0.85","67.86","1.568","62.12","1019.185","18.48","81.3","NAN","0.0"],
    [1555318,"2026-05-19 06:50:00","8028","0.9440000000000001","85.0","1.633","59.88","1019.184","18.52","81.6","NAN","0.0"],
    [1555319,"2026-05-19 07:00:00","8029","0.64","90.1","1.5030000000000001","34.09","1019.184","18.9","80.5","NAN","0.0"],
    [1555320,"2026-05-19 07:10:00","8030","0.568","126.0","1.307","141.3","1019.209","19.03","79.42","NAN","0.0"],
    [1555321,"2026-05-19 07:20:00","8031","0.968","110.0","1.4369999999999998","123.2","1019.3510000000001","19.28","77.53","NAN","0.0"],
    [1555322,"2026-05-19 07:30:00","8032","1.1540000000000001","101.0","1.7309999999999999","101.1","1019.488","19.46","76.92","NAN","0.0"],
    [1555323,"2026-05-19 07:40:00","8033","1.489","126.5","2.679","147.3","1019.6619999999999","19.41","78.36","NAN","0.0"],
    [1555324,"2026-05-19 07:50:00","8034","1.371","148.0","2.123","145.5","1019.757","19","81.7","NAN","0.0"],
    [1555325,"2026-05-19 08:00:00","8035","1.6880000000000002","143.9","2.7110000000000003","110.6","1019.802","18.76","82.9","NAN","0.0"],
    [1555326,"2026-05-19 08:10:00","8036","1.5019999999999998","125.3","2.679","114.1","1019.8989999999999","18.59","83.9","NAN","0.0"],
    [1555327,"2026-05-19 08:20:00","8037","1.3530000000000002","106.5","2.515","112.4","1019.9010000000001","18.76","83.3","NAN","0.0"],
    [1555328,"2026-05-19 08:30:00","8038","1.5119999999999998","119.6","2.352","115.3","1019.816","18.98","82.1","NAN","0.0"],
    [1555329,"2026-05-19 08:40:00","8039","1.541","146.6","2.613","159.5","1019.8689999999999","19.6","79.61","NAN","0.0"],
    [1555330,"2026-05-19 08:50:00","8040","1.385","152.8","2.45","152.6","1019.931","19.88","77.61","NAN","0.0"],
    [1555331,"2026-05-19 09:00:00","8041","1.716","185.1","2.7769999999999997","182.3","1019.931","19.7","77.79","NAN","0.0"],
    [1555332,"2026-05-19 09:10:00","8042","1.906","171.5","3.1689999999999996","150.1","1019.916","19.56","78.66","NAN","0.0"],
    [1555333,"2026-05-19 09:20:00","8043","2.439","172.5","4.1160000000000005","162.4","1019.931","19.74","78.64","NAN","0.0"],
    [1555334,"2026-05-19 09:30:00","8044","2.066","179.6","3.43","204.8","1019.9789999999999","19.52","81.3","NAN","0.0"],
    [1555335,"2026-05-19 09:40:00","8045","2.748","182.7","3.9530000000000003","168.6","1020.0930000000001","19.25","83.6","NAN","0.0"],
    [1555336,"2026-05-19 09:50:00","8046","3.147","180.8","4.638999999999999","182.3","1020.11","19.48","82.2","NAN","0.0"],
    [1555337,"2026-05-19 10:00:00","8047","3.264","179.5","4.671","177.2","1020.1110000000001","19.36","82.6","NAN","0.0"],
    [1555338,"2026-05-19 10:10:00","8048","2.807","179.4","4.312","176.1","1020.18","19.58","81.3","NAN","0.0"],
    [1555339,"2026-05-19 10:20:00","8049","2.7489999999999997","169.5","4.508","187.1","1020.18","19.82","79.98","NAN","0.0"],
    [1555340,"2026-05-19 10:30:00","8050","3.117","178.7","4.573","179.2","1020.18","19.73","80.7","NAN","0.0"],
    [1555341,"2026-05-19 10:40:00","8051","3.05","177.0","4.541","181.9","1020.178","19.81","79.72","NAN","0.0"],
    [1555342,"2026-05-19 10:50:00","8052","3.3169999999999997","179.7","5.031000000000001","183.7","1020.18","19.85","79.18","NAN","0.0"],
    [1555343,"2026-05-19 11:00:00","8053","2.8310000000000004","171.4","4.4430000000000005","171.9","1020.18","20.04","78.61","NAN","0.0"],
    [1555344,"2026-05-19 11:10:00","8054","3.157","176.8","4.541","181.3","1020.18","19.96","78.88","NAN","0.0"],
    [1555345,"2026-05-19 11:20:00","8055","3.003","176.8","4.541","181.7","1020.183","19.92","79.99","NAN","0.0"],
    [1555346,"2026-05-19 11:30:00","8056","3.187","177.1","4.4430000000000005","184.8","1020.183","19.85","80.9","NAN","0.0"],
    [1555347,"2026-05-19 11:40:00","8057","3.266","176.4","4.9","179.3","1020.18","19.99","80.3","NAN","0.0"],
    [1555348,"2026-05-19 11:50:00","8058","3.488","181.1","4.9","187.5","1020.158","19.9","80.6","NAN","0.0"],
    [1555349,"2026-05-19 12:00:00","8059","3.535","178.8","5.194","179.0","1020.075","19.92","80.4","NAN","0.0"],
    [1555350,"2026-05-19 12:10:00","8060","3.1660000000000004","175.2","4.9","179.0","1020.113","20.08","79.43","NAN","0.0"],
    [1555351,"2026-05-19 12:20:00","8061","2.975","174.4","4.9","179.8","1020.178","20.22","78.75","NAN","0.0"],
    [1555352,"2026-05-19 12:30:00","8062","3.64","179.2","4.998","185.5","1020.145","19.99","80.5","NAN","0.0"],
    [1555353,"2026-05-19 12:40:00","8063","3.1919999999999997","180.8","4.573","182.9","1020.128","20.06","80.5","NAN","0.0"],
    [1555354,"2026-05-19 12:50:00","8064","3.477","182.0","4.998","184.4","1020.08","19.94","81","NAN","0.0"],
    [1555355,"2026-05-19 13:00:00","8065","3.477","181.5","4.998","177.9","1020.086","19.87","81.5","NAN","0.0"],
    [1555356,"2026-05-19 13:10:00","8066","3.0210000000000004","179.8","4.508","175.7","1020.125","20.08","80.1","NAN","0.0"],
    [1555357,"2026-05-19 13:20:00","8067","3.0069999999999997","182.9","4.41","186.5","1019.959","20.08","80.9","NAN","0.0"],
    [1555358,"2026-05-19 13:30:00","8068","2.955","178.2","4.802","183.1","1019.948","20.12","80.7","NAN","0.0"],
    [1555359,"2026-05-19 13:40:00","8069","3.1039999999999996","172.8","4.4430000000000005","184.6","1019.918","19.98","81.9","NAN","0.0"],
    [1555360,"2026-05-19 13:50:00","8070","3.0989999999999998","169.5","4.41","179.7","1019.8660000000001","20.11","81.1","NAN","0.0"],
    [1555361,"2026-05-19 14:00:00","8071","2.8569999999999998","171.0","4.181","167.9","1019.8789999999999","20.15","81.4","NAN","0.0"],
    [1555362,"2026-05-19 14:10:00","8072","3.2510000000000003","177.1","4.998","175.8","1019.7489999999999","20","82.6","NAN","0.0"],
    [1555363,"2026-05-19 14:20:00","8073","3.647","176.8","5.292000000000001","187.3","1019.68","20","83.1","NAN","0.0"],
    [1555364,"2026-05-19 14:30:00","8074","2.6839999999999997","172.7","4.051","169.8","1019.682","20.31","82.3","NAN","0.0"],
    [1555365,"2026-05-19 14:40:00","8075","2.9610000000000003","181.2","5.619","172.9","1019.605","20.38","81.5","NAN","0.0"],
    [1555366,"2026-05-19 14:50:00","8076","2.191","197.0","4.835","178.4","1019.575","20.77","79.89","NAN","0.0"],
    [1555367,"2026-05-19 15:00:00","8077","2.592","174.1","4.4430000000000005","177.2","1019.632","20.99","77.18","NAN","0.0"],
    [1555368,"2026-05-19 15:10:00","8078","3.1639999999999997","173.0","5.619","181.9","1019.6569999999999","20.69","78.15","NAN","0.0"],
    [1555369,"2026-05-19 15:20:00","8079","3.24","169.2","5.063","160.5","1019.68","20.36","81.7","NAN","0.0"],
    [1555370,"2026-05-19 15:30:00","8080","3.074","180.0","4.671","187.5","1019.672","20.41","81.4","NAN","0.0"],
    [1555371,"2026-05-19 15:40:00","8081","2.862","178.2","4.998","173.3","1019.615","20.27","82.3","NAN","0.0"],
    [1555372,"2026-05-19 15:50:00","8082","3.208","174.2","5.031000000000001","180.5","1019.57","20.15","83","NAN","0.0"],
    [1555373,"2026-05-19 16:00:00","8083","2.576","169.7","3.6910000000000003","180.1","1019.607","20.3","82.7","NAN","0.0"],
    [1555374,"2026-05-19 16:10:00","8084","2.748","169.5","4.541","159.5","1019.565","20.27","82.7","NAN","0.0"],
    [1555375,"2026-05-19 16:20:00","8085","3.065","176.0","4.247","177.4","1019.5880000000001","20.11","82.6","NAN","0.0"],
    [1555376,"2026-05-19 16:30:00","8086","3.2110000000000003","177.6","4.835","176.0","1019.677","19.88","84.2","NAN","0.0"],
    [1555377,"2026-05-19 16:40:00","8087","2.9760000000000004","171.5","4.835","182.6","1019.685","19.93","83.8","NAN","0.0"],
    [1555378,"2026-05-19 16:50:00","8088","3.122","171.9","4.41","181.4","1019.685","20","82.8","NAN","0.0"],
    [1555379,"2026-05-19 17:00:00","8089","2.883","174.8","4.671","172.3","1019.7769999999999","19.97","82.8","NAN","0.0"],
    [1555380,"2026-05-19 17:10:00","8090","3.0039999999999996","168.7","4.4430000000000005","159.1","1019.827","19.83","83.8","NAN","0.0"],
    [1555381,"2026-05-19 17:20:00","8091","2.481","180.6","3.855","171.9","1019.929","19.86","84","NAN","0.0"],
    [1555382,"2026-05-19 17:30:00","8092","2.5869999999999997","181.9","4.181","184.9","1019.926","19.76","85.4","NAN","0.0"],
    [1555383,"2026-05-19 17:40:00","8093","3.333","180.2","4.541","181.1","1019.94","19.48","87.3","NAN","0.0"],
    [1555384,"2026-05-19 17:50:00","8094","2.762","173.6","4.279","170.4","1020.02","19.39","88.3","NAN","0.0"],
    [1555385,"2026-05-19 18:00:00","8095","2.311","179.5","3.659","184.1","1020.203","19.48","86","NAN","0.0"],
    [1555386,"2026-05-19 18:10:00","8096","2.6519999999999997","178.9","3.855","183.7","1020.2330000000001","19.48","86.3","NAN","0.0"],
    [1555387,"2026-05-19 18:20:00","8097","2.494","174.2","3.7569999999999997","172.2","1020.334","19.45","87.3","NAN","0.0"],
    [1555388,"2026-05-19 18:30:00","8098","2.295","176.2","3.7239999999999998","179.2","1020.41","19.5","84.1","NAN","0.0"],
    [1555389,"2026-05-19 18:40:00","8099","2.421","181.9","3.6910000000000003","183.0","1020.422","19.46","83.1","NAN","0.0"],
    [1555390,"2026-05-19 18:50:00","8100","2.042","180.7","2.9730000000000003","178.3","1020.5039999999999","19.42","82.6","NAN","0.0"],
    [1555391,"2026-05-19 19:00:00","8101","1.854","176.7","2.907","184.5","1020.577","19.39","83.2","NAN","0.0"],
    [1555392,"2026-05-19 19:10:00","8102","1.641","173.8","2.9730000000000003","189.0","1020.692","19.36","83.5","NAN","0.0"],
    [1555393,"2026-05-19 19:20:00","8103","1.287","167.2","2.254","184.9","1020.7489999999999","19.4","83.8","NAN","0.0"],
    [1555394,"2026-05-19 19:30:00","8104","1.212","173.9","1.96","178.2","1020.7589999999999","19.35","85.2","NAN","0.0"],
    [1555395,"2026-05-19 19:40:00","8105","1.274","185.0","2.287","179.8","1020.784","19.26","87.3","NAN","0.0"],
    [1555396,"2026-05-19 19:50:00","8106","1.485","181.1","2.385","182.5","1020.924","19.1","86.5","NAN","0.0"],
    [1555397,"2026-05-19 20:00:00","8107","1.058","166.5","2.025","137.2","1021.1160000000001","19.11","86","NAN","0.0"],
    [1555398,"2026-05-19 20:10:00","8108","1.128","159.7","1.764","108.9","1021.26","19.08","85.5","NAN","0.0"],
    [1555399,"2026-05-19 20:20:00","8109","0.945","126.6","1.764","108.9","1021.5139999999999","19.08","85","NAN","0.0"],
    [1555400,"2026-05-19 20:30:00","8110","0.8390000000000001","148.7","1.7309999999999999","128.9","1021.6439999999999","19.08","84.9","NAN","0.0"],
    [1555401,"2026-05-19 20:40:00","8111","0.9059999999999999","133.4","1.4369999999999998","135.8","1021.803","19.03","84.9","NAN","0.0"],
    [1555402,"2026-05-19 20:50:00","8112","1.053","142.4","1.7309999999999999","145.1","1021.937","18.93","85.7","NAN","0.0"],
    [1555403,"2026-05-19 21:00:00","8113","0.8590000000000001","144.1","1.666","139.2","1022.002","18.89","86.6","NAN","0.0"],
    [1555404,"2026-05-19 21:10:00","8114","1.093","139.6","1.699","138.0","1022.0319999999999","18.83","87.1","NAN","0.0"],
    [1555405,"2026-05-19 21:20:00","8115","0.807","136.5","1.3719999999999999","142.1","1022.1419999999999","18.77","86.7","NAN","0.0"],
    [1555406,"2026-05-19 21:30:00","8116","0.953","107.5","1.405","116.0","1022.237","18.81","86.3","NAN","0.0"],
    [1555407,"2026-05-19 21:40:00","8117","0.652","116.5","1.078","115.1","1022.2439999999999","18.82","86.2","NAN","0.0"],
    [1555408,"2026-05-19 21:50:00","8118","0.596","125.8","1.209","116.2","1022.2460000000001","18.82","87.1","NAN","0.0"],
    [1555409,"2026-05-19 22:00:00","8119","0.662","111.5","1.47","101.7","1022.2610000000001","18.76","87.8","NAN","0.0"],
    [1555410,"2026-05-19 22:10:00","8120","0.085","94.0","0.7509999999999999","103.3","1022.355","18.72","87.4","NAN","0.0"],
    [1555411,"2026-05-19 22:20:00","8121","0.013000000000000001","187.8","0.327","188.6","1022.3739999999999","18.75","87.2","NAN","0.0"],
    [1555412,"2026-05-19 22:30:00","8122","0.368","80.6","0.98","61.01","1022.443","18.76","86.7","NAN","0.0"],
    [1555413,"2026-05-19 22:40:00","8123","0.5710000000000001","103.1","0.98","78.21","1022.445","18.79","86.1","NAN","0.0"],
    [1555414,"2026-05-19 22:50:00","8124","0.473","102.9","0.7509999999999999","105.4","1022.3739999999999","18.77","86.4","NAN","0.0"],
    [1555415,"2026-05-19 23:00:00","8125","0.064","112.9","0.457","102.4","1022.404","18.76","86.4","NAN","0.0"],
    [1555416,"2026-05-19 23:10:00","8126","0.395","107.9","0.6859999999999999","108.8","1022.372","18.72","86.2","NAN","0.0"],
    [1555417,"2026-05-19 23:20:00","8127","0.355","96.2","0.653","112.3","1022.3810000000001","18.75","85.8","NAN","0.0"],
    [1555418,"2026-05-19 23:30:00","8128","0.35","115.3","0.6859999999999999","115.6","1022.298","18.74","85.7","NAN","0.0"],
    [1555419,"2026-05-19 23:40:00","8129","0.233","133.4","0.6859999999999999","151.5","1022.2539999999999","18.69","86.4","NAN","0.0"],
    [1555420,"2026-05-19 23:50:00","8130","0.0","0.0","0.0","0.0","1022.2560000000001","18.63","87.4","NAN","0.0"],
    [1555421,"2026-05-20 00:00:00","8131","0.0","0.0","0.0","0.0","1022.252","18.49","88.5","NAN","0.0"],
    [1555422,"2026-05-20 00:10:00","8132","0.0","0.0","0.0","0.0","1022.263","18.4","89.2","NAN","0.0"],
    [1555423,"2026-05-20 00:20:00","8133","0.0","0.0","0.0","0.0","1022.319","18.38","89.4","NAN","0.0"],
    [1555424,"2026-05-20 00:30:00","8134","0.29100000000000004","187.4","0.7190000000000001","200.3","1022.352","18.3","90.8","NAN","0.0"],
    [1555425,"2026-05-20 00:40:00","8135","0.45799999999999996","176.3","0.8490000000000001","173.5","1022.308","18.2","91.3","NAN","0.0"],
    [1555426,"2026-05-20 00:50:00","8136","0.003","184.4","0.196","184.4","1022.355","18.17","91.2","NAN","0.0"],
    [1555427,"2026-05-20 01:00:00","8137","0.005","245.5","0.196","247.8","1022.253","18.14","90.8","NAN","0.0"],
    [1555428,"2026-05-20 01:10:00","8138","0.053","156.4","0.425","156.5","1022.262","18.13","91","NAN","0.0"],
    [1555429,"2026-05-20 01:20:00","8139","0.126","193.7","0.621","231.6","1022.221","18.08","91.2","NAN","0.0"],
    [1555430,"2026-05-20 01:30:00","8140","0.076","155.8","0.49","146.4","1022.2439999999999","18.1","90.7","NAN","0.0"],
    [1555431,"2026-05-20 01:40:00","8141","0.094","151.4","0.457","149.0","1022.174","18.07","90.3","NAN","0.0"],
    [1555432,"2026-05-20 01:50:00","8142","0.215","163.9","0.6859999999999999","171.1","1022.1619999999999","18.05","90.6","NAN","0.0"],
    [1555433,"2026-05-20 02:00:00","8143","0.0","0.0","0.0","0.0","1022.257","17.97","90.9","NAN","0.0"],
    [1555434,"2026-05-20 02:10:00","8144","0.0","0.0","0.0","0.0","1022.2289999999999","17.97","90.8","NAN","0.0"],
    [1555435,"2026-05-20 02:20:00","8145","0.0","0.0","0.0","0.0","1022.262","17.97","91.4","NAN","0.0"],
    [1555436,"2026-05-20 02:30:00","8146","0.262","55.65","0.6859999999999999","50.12","1022.268","17.97","92","NAN","0.0"],
    [1555437,"2026-05-20 02:40:00","8147","0.27699999999999997","68.53","0.8170000000000001","61.49","1022.273","17.93","92.9","NAN","0.0"],
    [1555438,"2026-05-20 02:50:00","8148","0.615","50.9","1.111","50.08","1022.2719999999999","17.82","92.9","NAN","0.0"],
    [1555439,"2026-05-20 03:00:00","8149","0.34299999999999997","33.26","0.98","46.88","1022.301","17.76","92.2","NAN","0.0"],
    [1555440,"2026-05-20 03:10:00","8150","0.573","24.0","1.307","8.36","1022.312","17.8","90.8","NAN","0.0"],
    [1555441,"2026-05-20 03:20:00","8151","0.247","2.121","0.8490000000000001","326.0","1022.2760000000001","17.81","90","NAN","0.0"],
    [1555442,"2026-05-20 03:30:00","8152","0.444","12.68","0.9470000000000001","14.36","1022.2710000000001","17.82","89.6","NAN","0.0"],
    [1555443,"2026-05-20 03:40:00","8153","0.41200000000000003","45.6","0.7509999999999999","57.76","1022.3710000000001","17.73","89.5","NAN","0.0"],
    [1555444,"2026-05-20 03:50:00","8154","0.39399999999999996","25.74","1.045","32.49","1022.3960000000001","17.64","89.6","NAN","0.0"],
    [1555445,"2026-05-20 04:00:00","8155","0.305","22.78","1.143","18.46","1022.497","17.75","88.6","NAN","0.0"],
    [1555446,"2026-05-20 04:10:00","8156","0.33799999999999997","51.64","0.915","63.18","1022.6160000000001","17.62","88.6","NAN","0.0"],
    [1555447,"2026-05-20 04:20:00","8157","0.628","16.36","1.307","2.5469999999999997","1022.7230000000001","17.53","88.9","NAN","0.0"],
    [1555448,"2026-05-20 04:30:00","8158","0.706","8.71","1.307","22.64","1022.757","17.7","87.7","NAN","0.0"],
    [1555449,"2026-05-20 04:40:00","8159","0.441","2.642","1.47","4.87","1022.823","17.84","86.7","NAN","0.0"],
    [1555450,"2026-05-20 04:50:00","8160","0.324","58.52","1.013","60.87","1022.971","17.82","86.7","NAN","0.0"],
    [1555451,"2026-05-20 05:00:00","8161","0.23800000000000002","54.12","0.915","40.02","1023.023","17.56","87.2","NAN","0.0"],
    [1555452,"2026-05-20 05:10:00","8162","0.368","40.15","0.9470000000000001","20.81","1023.123","17.78","86.7","NAN","0.0"],
    [1555453,"2026-05-20 05:20:00","8163","0.628","27.99","1.5030000000000001","15.48","1023.255","18.08","84.7","NAN","0.0"],
    [1555454,"2026-05-20 05:30:00","8164","0.615","7.051","1.5030000000000001","15.57","1023.409","18.24","83.6","NAN","0.0"],
    [1555455,"2026-05-20 05:40:00","8165","0.602","5.4079999999999995","1.4369999999999998","2.595","1023.5139999999999","18.43","82.4","NAN","0.0"],
    [1555456,"2026-05-20 05:50:00","8166","0.81","51.49","2.0909999999999997","49.87","1023.704","18.71","80.8","NAN","0.0"],
    [1555457,"2026-05-20 06:00:00","8167","1.251","63.4","2.8089999999999997","48.11","1023.7819999999999","18.69","79.46","NAN","0.0"],
    [1555458,"2026-05-20 06:10:00","8168","0.748","24.73","2.0909999999999997","16.32","1023.952","18.9","77.59","NAN","0.0"],
    [1555459,"2026-05-20 06:20:00","8169","0.833","15.86","2.254","12.43","1023.985","19.52","74.57","NAN","0.0"],
    [1555460,"2026-05-20 06:30:00","8170","0.955","1.885","1.96","6.343","1024.075","19.79","72.66","NAN","0.0"],
    [1555461,"2026-05-20 06:40:00","8171","0.879","51.3","1.829","57.12","1024.163","20.38","70.22","NAN","0.0"],
    [1555462,"2026-05-20 06:50:00","8172","0.787","71.4","1.7309999999999999","53.68","1024.228","20.59","68.7","NAN","0.0"],
    [1555463,"2026-05-20 07:00:00","8173","1.162","123.6","1.764","118.0","1024.315","20.55","69.23","NAN","0.0"],
    [1555464,"2026-05-20 07:10:00","8174","1.7630000000000001","114.1","2.385","104.3","1024.365","20.14","72.22","NAN","0.0"],
    [1555465,"2026-05-20 07:20:00","8175","1.597","110.0","2.319","107.6","1024.596","20.15","72.13","NAN","0.0"],
    [1555466,"2026-05-20 07:30:00","8176","1.3330000000000002","116.1","2.025","114.1","1024.651","20.31","72.02","NAN","0.0"],
    [1555467,"2026-05-20 07:40:00","8177","1.355","125.2","2.319","132.7","1024.768","20.12","73.4","NAN","0.0"],
    [1555468,"2026-05-20 07:50:00","8178","1.466","128.3","2.123","133.9","1024.765","19.81","76.95","NAN","0.0"],
    [1555469,"2026-05-20 08:00:00","8179","1.1840000000000002","123.5","1.8619999999999999","110.8","1024.865","19.92","76","NAN","0.0"],
    [1555470,"2026-05-20 08:10:00","8180","1.2229999999999999","128.1","1.829","126.7","1024.933","20.34","74.15","NAN","0.0"],
    [1555471,"2026-05-20 08:20:00","8181","1.4409999999999998","124.0","2.221","118.2","1025.032","20.33","74.66","NAN","0.0"],
    [1555472,"2026-05-20 08:30:00","8182","1.432","124.2","2.221","112.2","1025.109","20.51","75.11","NAN","0.0"],
    [1555473,"2026-05-20 08:40:00","8183","1.1909999999999998","124.0","2.385","151.4","1025.254","20.76","75.66","NAN","0.0"],
    [1555474,"2026-05-20 08:50:00","8184","1.266","128.8","1.699","123.3","1025.286","20.62","76.36","NAN","0.0"],
    [1555475,"2026-05-20 09:00:00","8185","0.8140000000000001","125.7","1.96","101.8","1025.316","20.77","74.89","NAN","0.0"],
    [1555476,"2026-05-20 09:10:00","8186","1.2790000000000001","127.4","2.0580000000000003","111.6","1025.336","21.1","73.27","NAN","0.0"],
    [1555477,"2026-05-20 09:20:00","8187","1.139","136.8","3.365","149.6","1025.403","21.02","73.54","NAN","0.0"],
    [1555478,"2026-05-20 09:30:00","8188","1.7719999999999998","134.9","3.0380000000000003","148.5","1025.411","21.24","72.5","NAN","0.0"],
    [1555479,"2026-05-20 09:40:00","8189","1.4509999999999998","136.1","2.287","149.4","1025.4160000000002","21.3","72.72","NAN","0.0"],
    [1555480,"2026-05-20 09:50:00","8190","1.499","126.3","3.0380000000000003","142.1","1025.471","21.36","72.87","NAN","0.0"],
    [1555481,"2026-05-20 10:00:00","8191","1.409","126.8","2.483","139.9","1025.552","21.32","73.88","NAN","0.0"],
    [1555482,"2026-05-20 10:10:00","8192","1.23","93.9","2.7769999999999997","115.3","1025.62","21.64","73.03","NAN","0.0"],
    [1555483,"2026-05-20 10:20:00","8193","1.538","154.2","2.352","170.7","1025.66","21.72","72.95","NAN","0.0"],
    [1555484,"2026-05-20 10:30:00","8194","1.57","150.8","3.267","165.1","1025.66","21.6","74.19","NAN","0.0"],
    [1555485,"2026-05-20 10:40:00","8195","1.516","134.4","2.7769999999999997","157.0","1025.66","21.51","74.96","NAN","0.0"],
    [1555486,"2026-05-20 10:50:00","8196","1.49","149.6","2.613","200.9","1025.655","21.62","74.85","NAN","0.0"],
    [1555487,"2026-05-20 11:00:00","8197","1.436","137.6","2.6460000000000004","149.4","1025.572","22.17","73.21","NAN","0.0"],
    [1555488,"2026-05-20 11:10:00","8198","1.198","175.0","1.993","169.3","1025.54","22.34","73.06","NAN","0.0"],
    [1555489,"2026-05-20 11:20:00","8199","1.113","191.9","2.319","184.7","1025.535","22.78","70.97","NAN","0.0"],
    [1555490,"2026-05-20 11:30:00","8200","1.44","174.2","2.7110000000000003","135.5","1025.57","22.57","70.64","NAN","0.0"],
    [1555491,"2026-05-20 11:40:00","8201","1.59","161.4","3.136","148.9","1025.557","22.18","71.19","NAN","0.0"],
    [1555492,"2026-05-20 11:50:00","8202","1.85","151.8","3.495","111.1","1025.443","22.22","71.27","NAN","0.0"],
    [1555493,"2026-05-20 12:00:00","8203","1.395","156.1","2.45","158.6","1025.471","22.38","71.29","NAN","0.0"],
    [1555494,"2026-05-20 12:10:00","8204","1.672","160.5","2.515","183.7","1025.515","22.21","72.21","NAN","0.0"],
    [1555495,"2026-05-20 12:20:00","8205","1.505","183.7","2.5810000000000004","180.3","1025.54","22.16","73.15","NAN","0.0"],
    [1555496,"2026-05-20 12:30:00","8206","1.5590000000000002","186.0","2.385","162.6","1025.473","22.12","72.8","NAN","0.0"],
    [1555497,"2026-05-20 12:40:00","8207","1.452","154.0","3.0380000000000003","157.9","1025.393","22.35","70.58","NAN","0.0"],
    [1555498,"2026-05-20 12:50:00","8208","1.74","141.4","3.332","109.7","1025.3310000000001","22.35","70.06","NAN","0.0"],
    [1555499,"2026-05-20 13:00:00","8209","2.176","140.1","3.7569999999999997","148.1","1025.3310000000001","21.99","70.88","NAN","0.0"],
    [1555500,"2026-05-20 13:10:00","8210","1.74","142.0","3.6910000000000003","105.1","1025.471","22.07","71.69","NAN","0.0"],
    [1555501,"2026-05-20 13:20:00","8211","1.892","157.9","3.332","197.3","1025.535","22.07","71.6","NAN","0.0"],
    [1555502,"2026-05-20 13:30:00","8212","1.5919999999999999","130.9","2.679","132.0","1025.538","21.96","71.17","NAN","0.0"],
    [1555503,"2026-05-20 13:40:00","8213","1.713","159.3","3.267","194.9","1025.538","21.95","72.02","NAN","0.0"],
    [1555504,"2026-05-20 13:50:00","8214","1.876","140.2","3.365","130.2","1025.517","21.86","72.13","NAN","0.0"],
    [1555505,"2026-05-20 14:00:00","8215","1.649","150.0","3.332","171.5","1025.493","22","70.83","NAN","0.0"],
    [1555506,"2026-05-20 14:10:00","8216","1.916","125.4","3.822","112.8","1025.328","22.19","68.46","NAN","0.0"],
    [1555507,"2026-05-20 14:20:00","8217","1.75","147.7","3.136","155.6","1025.251","22.17","68.59","NAN","0.0"],
    [1555508,"2026-05-20 14:30:00","8218","2.074","165.2","3.267","164.2","1025.182","21.83","68.24","NAN","0.0"],
    [1555509,"2026-05-20 14:40:00","8219","2.114","131.7","3.397","107.8","1025.162","22.05","65.37","NAN","0.0"],
    [1555510,"2026-05-20 14:50:00","8220","1.768","128.9","2.907","104.2","1025.089","21.65","67.27","NAN","0.0"],
    [1555511,"2026-05-20 15:00:00","8221","1.526","132.7","2.94","172.6","1024.99","21.94","68","NAN","0.0"],
    [1555512,"2026-05-20 15:10:00","8222","1.6440000000000001","106.5","3.822","117.2","1025.007","22.18","67.13","NAN","0.0"],
    [1555513,"2026-05-20 15:20:00","8223","1.8659999999999999","126.5","3.397","112.4","1025.03","21.83","68.5","NAN","0.0"],
    [1555514,"2026-05-20 15:30:00","8224","1.7619999999999998","126.9","2.7769999999999997","141.0","1024.952","21.6","67.89","NAN","0.0"],
    [1555515,"2026-05-20 15:40:00","8225","1.661","140.4","2.8089999999999997","149.6","1024.912","21.79","66.19","NAN","0.0"],
    [1555516,"2026-05-20 15:50:00","8226","1.796","134.1","2.7769999999999997","143.0","1024.905","21.34","67.52","NAN","0.0"],
    [1555517,"2026-05-20 16:00:00","8227","1.369","126.6","2.679","118.5","1024.79","21.47","66.39","NAN","0.0"],
    [1555518,"2026-05-20 16:10:00","8228","1.536","121.4","2.679","98.7","1024.753","21.65","63.36","NAN","0.0"],
    [1555519,"2026-05-20 16:20:00","8229","1.6059999999999999","126.1","2.6460000000000004","102.7","1024.693","21.64","65.91","NAN","0.0"],
    [1555520,"2026-05-20 16:30:00","8230","1.601","128.7","2.548","116.8","1024.688","21.44","67.04","NAN","0.0"],
    [1555521,"2026-05-20 16:40:00","8231","1.41","136.7","2.417","102.5","1024.656","21.27","68.02","NAN","0.0"],
    [1555522,"2026-05-20 16:50:00","8232","1.3869999999999998","125.5","2.221","115.9","1024.613","21.43","66.36","NAN","0.0"],
    [1555523,"2026-05-20 17:00:00","8233","1.849","116.6","3.43","110.7","1024.6589999999999","21.27","67.82","NAN","0.0"],
    [1555524,"2026-05-20 17:10:00","8234","1.885","109.1","2.9730000000000003","111.4","1024.643","21.3","69.82","NAN","0.0"],
    [1555525,"2026-05-20 17:20:00","8235","1.825","88.7","3.5610000000000004","107.3","1024.639","21.54","69.17","NAN","0.0"],
    [1555526,"2026-05-20 17:30:00","8236","1.4380000000000002","83.3","3.136","96.7","1024.646","21.62","67.08","NAN","0.0"],
    [1555527,"2026-05-20 17:40:00","8237","1.857","93.6","2.94","86.0","1024.653","21.46","69.21","NAN","0.0"],
    [1555528,"2026-05-20 17:50:00","8238","1.624","100.1","2.9730000000000003","108.0","1024.663","21.42","71.2","NAN","0.0"],
    [1555529,"2026-05-20 18:00:00","8239","1.492","81.1","2.94","73.62","1024.667","21.48","72.34","NAN","0.0"],
    [1555530,"2026-05-20 18:10:00","8240","1.642","80.2","2.5810000000000004","64.94","1024.667","21.41","71.17","NAN","0.0"],
    [1555531,"2026-05-20 18:20:00","8241","1.4569999999999999","89.6","2.483","93.4","1024.67","21.25","70.32","NAN","0.0"],
    [1555532,"2026-05-20 18:30:00","8242","1.47","76.7","2.483","77.14","1024.76","21.25","69.41","NAN","0.0"],
    [1555533,"2026-05-20 18:40:00","8243","1.345","95.7","2.352","97.3","1024.82","21.13","70.73","NAN","0.0"],
    [1555534,"2026-05-20 18:50:00","8244","0.9079999999999999","91.1","2.417","111.9","1024.833","21.25","70.93","NAN","0.0"],
    [1555535,"2026-05-20 19:00:00","8245","1.251","104.1","2.7769999999999997","107.6","1024.869","21.26","72.31","NAN","0.0"],
    [1555536,"2026-05-20 19:10:00","8246","1.153","93.1","2.025","91.0","1024.856","21.02","74.76","NAN","0.0"],
    [1555537,"2026-05-20 19:20:00","8247","0.8320000000000001","104.5","1.633","106.0","1024.848","21.08","72.04","NAN","0.0"],
    [1555538,"2026-05-20 19:30:00","8248","0.851","100.5","1.176","107.9","1024.788","21.27","65.16","NAN","0.0"],
    [1555539,"2026-05-20 19:40:00","8249","0.49200000000000005","105.4","1.111","103.7","1024.86","21.31","66.18","NAN","0.0"],
    [1555540,"2026-05-20 19:50:00","8250","0.41100000000000003","140.3","0.784","140.4","1024.972","21.24","68.55","NAN","0.0"],
    [1555541,"2026-05-20 20:00:00","8251","0.508","139.6","0.8170000000000001","149.9","1024.997","21.07","70.84","NAN","0.0"],
    [1555542,"2026-05-20 20:10:00","8252","0.369","177.3","0.588","193.9","1025.122","21.05","69.71","NAN","0.0"],
    [1555543,"2026-05-20 20:20:00","8253","0.405","148.3","0.621","147.1","1025.23","20.98","69.69","NAN","0.0"],
    [1555544,"2026-05-20 20:30:00","8254","0.39","142.8","0.784","148.3","1025.233","21.06","69.38","NAN","0.0"],
    [1555545,"2026-05-20 20:40:00","8255","0.45799999999999996","192.9","0.6859999999999999","204.3","1025.251","20.9","71.02","NAN","0.0"],
    [1555546,"2026-05-20 20:50:00","8256","0.496","178.2","0.6859999999999999","185.6","1025.393","20.82","70.94","NAN","0.0"],
    [1555547,"2026-05-20 21:00:00","8257","0.48","173.1","0.8490000000000001","175.7","1025.465","20.81","69.62","NAN","0.0"],
    [1555548,"2026-05-20 21:10:00","8258","0.38","184.0","0.653","185.9","1025.4769999999999","20.88","71.86","NAN","0.0"],
    [1555549,"2026-05-20 21:20:00","8259","0.632","195.6","0.8490000000000001","191.3","1025.392","20.74","73.9","NAN","0.0"],
    [1555550,"2026-05-20 21:30:00","8260","0.578","166.3","1.013","158.8","1025.36","20.7","73.89","NAN","0.0"],
    [1555551,"2026-05-20 21:40:00","8261","0.446","174.2","0.7190000000000001","173.4","1025.358","20.69","74.82","NAN","0.0"],
    [1555552,"2026-05-20 21:50:00","8262","0.39299999999999996","182.2","0.7509999999999999","182.4","1025.355","20.6","75.78","NAN","0.0"],
    [1555553,"2026-05-20 22:00:00","8263","0.47600000000000003","174.0","0.6859999999999999","181.2","1025.27","20.48","76.77","NAN","0.0"],
    [1555554,"2026-05-20 22:10:00","8264","0.53","194.4","0.8490000000000001","183.8","1025.236","20.3","77.26","NAN","0.0"],
    [1555555,"2026-05-20 22:20:00","8265","0.507","199.0","0.98","198.8","1025.235","20.31","76.67","NAN","0.0"],
    [1555556,"2026-05-20 22:30:00","8266","0.529","215.2","1.601","229.1","1025.2060000000001","20.45","72.94","NAN","0.0"],
    [1555557,"2026-05-20 22:40:00","8267","0.217","168.9","0.7190000000000001","201.5","1025.109","20.75","70.04","NAN","0.0"],
    [1555558,"2026-05-20 22:50:00","8268","0.192","136.7","0.9470000000000001","147.6","1025.109","20.77","71.42","NAN","0.0"],
    [1555559,"2026-05-20 23:00:00","8269","0.11199999999999999","76.78","0.555","74.95","1025.098","20.79","70.18","NAN","0.0"],
    [1555560,"2026-05-20 23:10:00","8270","0.0","0.0","0.0","0.0","1024.985","20.73","69.54","NAN","0.0"],
    [1555561,"2026-05-20 23:20:00","8271","0.389","58.88","0.882","60.53","1024.984","20.73","72.48","NAN","0.0"],
    [1555562,"2026-05-20 23:30:00","8272","0.349","30.39","0.653","1.7619999999999998","1024.985","20.58","74.54","NAN","0.0"],
    [1555563,"2026-05-20 23:40:00","8273","0.147","3.8089999999999997","0.523","36.05","1024.985","20.62","73.92","NAN","0.0"],
    [1555564,"2026-05-20 23:50:00","8274","0.075","89.6","0.457","67.85","1024.912","20.62","73.87","NAN","0.0"],
    [1555565,"2026-05-21 00:00:00","8275","0.011000000000000001","182.4","0.327","191.9","1024.867","20.37","75.93","NAN","0.0"],
    [1555566,"2026-05-21 00:10:00","8276","0.115","131.7","0.555","109.4","1024.743","20.25","76.01","NAN","0.0"],
    [1555567,"2026-05-21 00:20:00","8277","0.39899999999999997","124.0","0.7190000000000001","112.1","1024.74","20.25","76.07","NAN","0.0"],
    [1555568,"2026-05-21 00:30:00","8278","0.484","101.2","1.013","112.8","1024.741","20.15","78.67","NAN","0.0"],
    [1555569,"2026-05-21 00:40:00","8279","0.006999999999999999","78.94","0.327","76.55","1024.736","20.01","78.01","NAN","0.0"],
    [1555570,"2026-05-21 00:50:00","8280","0.064","167.4","0.49","170.7","1024.723","19.81","78.96","NAN","0.0"],
    [1555571,"2026-05-21 01:00:00","8281","0.0","0.0","0.0","0.0","1024.639","19.72","80.7","NAN","0.0"],
    [1555572,"2026-05-21 01:10:00","8282","0.27899999999999997","130.2","0.588","128.3","1024.585","19.65","78.32","NAN","0.0"],
    [1555573,"2026-05-21 01:20:00","8283","0.521","131.8","0.915","148.0","1024.495","19.69","75.25","NAN","0.0"],
    [1555574,"2026-05-21 01:30:00","8284","0.292","104.3","0.915","110.0","1024.506","19.6","74.01","NAN","0.0"],
    [1555575,"2026-05-21 01:40:00","8285","0.033","116.8","0.425","116.8","1024.558","19.5","73.97","NAN","0.0"],
    [1555576,"2026-05-21 01:50:00","8286","0.163","119.7","0.6859999999999999","117.1","1024.5539999999999","19.61","73.3","NAN","0.0"],
    [1555577,"2026-05-21 02:00:00","8287","0.0","0.0","0.0","0.0","1024.52","19.57","74.66","NAN","0.0"],
    [1555578,"2026-05-21 02:10:00","8288","0.033","169.8","0.392","170.0","1024.615","19.49","75.98","NAN","0.0"],
    [1555579,"2026-05-21 02:20:00","8289","0.102","196.0","0.425","176.2","1024.638","19.21","77.27","NAN","0.0"],
    [1555580,"2026-05-21 02:30:00","8290","0.0","0.0","0.0","0.0","1024.674","19.13","78.07","NAN","0.0"],
    [1555581,"2026-05-21 02:40:00","8291","0.0","0.0","0.0","0.0","1024.596","19.09","81.3","NAN","0.0"],
    [1555582,"2026-05-21 02:50:00","8292","0.0","0.0","0.0","0.0","1024.507","19","82.3","NAN","0.0"],
    [1555583,"2026-05-21 03:00:00","8293","0.0","0.0","0.0","0.0","1024.451","18.84","80.8","NAN","0.0"],
    [1555584,"2026-05-21 03:10:00","8294","0.0","0.0","0.0","0.0","1024.385","18.82","81.3","NAN","0.0"],
    [1555585,"2026-05-21 03:20:00","8295","0.0","0.0","0.0","0.0","1024.3339999999998","18.78","83.9","NAN","0.0"],
    [1555586,"2026-05-21 03:30:00","8296","0.0","0.0","0.0","0.0","1024.295","18.59","84.8","NAN","0.0"],
    [1555587,"2026-05-21 03:40:00","8297","0.201","92.8","0.555","86.9","1024.302","18.5","82.4","NAN","0.0"],
    [1555588,"2026-05-21 03:50:00","8298","0.0","0.0","0.0","0.0","1024.267","18.65","81.8","NAN","0.0"],
    [1555589,"2026-05-21 04:00:00","8299","0.025","16.52","0.327","15.7","1024.286","18.44","82.6","NAN","0.0"],
    [1555590,"2026-05-21 04:10:00","8300","0.02","5.497999999999999","0.359","9.36","1024.2910000000002","18.4","78.83","NAN","0.0"],
    [1555591,"2026-05-21 04:20:00","8301","0.17300000000000001","355.8","0.7190000000000001","0.28800000000000003","1024.287","18.7","76.03","NAN","0.0"],
    [1555592,"2026-05-21 04:30:00","8302","0.08","49.5","0.457","50.25","1024.281","18.8","74.75","NAN","0.0"],
    [1555593,"2026-05-21 04:40:00","8303","0.609","39.78","1.339","30.63","1024.3239999999998","18.72","74.32","NAN","0.0"],
    [1555594,"2026-05-21 04:50:00","8304","0.551","20.07","1.209","11.15","1024.479","18.61","73.06","NAN","0.0"],
    [1555595,"2026-05-21 05:00:00","8305","0.7509999999999999","3.15","1.568","8.27","1024.527","18.71","71.84","NAN","0.0"],
    [1555596,"2026-05-21 05:10:00","8306","0.396","43.07","0.915","33.45","1024.624","19.12","69.91","NAN","0.0"],
    [1555597,"2026-05-21 05:20:00","8307","0.486","47.7","1.013","41.99","1024.667","19.34","68.29","NAN","0.0"],
    [1555598,"2026-05-21 05:30:00","8308","0.39299999999999996","25.23","0.882","349.2","1024.762","19.61","67.29","NAN","0.0"],
    [1555599,"2026-05-21 05:40:00","8309","0.27899999999999997","48.81","1.143","62.06","1024.958","20.03","65.35","NAN","0.0"],
    [1555600,"2026-05-21 05:50:00","8310","0.275","75.29","0.7190000000000001","21.8","1025.0839999999998","20.16","64.94","NAN","0.0"],
    [1555601,"2026-05-21 06:00:00","8311","0.6459999999999999","81.9","0.98","104.4","1025.121","20.49","63.73","NAN","0.0"],
    [1555602,"2026-05-21 06:10:00","8312","0.7490000000000001","119.3","1.078","115.4","1025.26","20.31","64.28","NAN","0.0"],
    [1555603,"2026-05-21 06:20:00","8313","0.601","145.5","0.98","126.5","1025.4","20.3","65.45","NAN","0.0"],
    [1555604,"2026-05-21 06:30:00","8314","0.473","113.9","1.045","83.4","1025.454","20.55","62.63","NAN","0.0"],
    [1555605,"2026-05-21 06:40:00","8315","0.9309999999999999","97.0","1.47","102.1","1025.518","20.78","63.18","NAN","0.0"],
    [1555606,"2026-05-21 06:50:00","8316","0.501","47.82","1.2409999999999999","21.64","1025.623","21.08","61.1","NAN","0.0"],
    [1555607,"2026-05-21 07:00:00","8317","0.48100000000000004","181.4","1.013","218.6","1025.66","21.54","60.48","NAN","0.0"],
    [1555608,"2026-05-21 07:10:00","8318","0.812","191.8","1.47","179.7","1025.76","21.66","60.78","NAN","0.0"],
    [1555609,"2026-05-21 07:20:00","8319","1.003","153.1","1.5030000000000001","130.3","1025.901","21.53","61.62","NAN","0.0"],
    [1555610,"2026-05-21 07:30:00","8320","1.818","119.8","2.7439999999999998","106.4","1025.914","21.42","60.63","NAN","0.0"],
    [1555611,"2026-05-21 07:40:00","8321","1.786","121.9","3.005","113.7","1026.026","21.28","61.95","NAN","0.0"],
    [1555612,"2026-05-21 07:50:00","8322","1.933","109.0","2.7439999999999998","111.9","1026.076","21.51","61.3","NAN","0.0"],
    [1555613,"2026-05-21 08:00:00","8323","2.351","92.9","3.43","92.8","1026.014","21.93","58.91","NAN","0.0"],
    [1555614,"2026-05-21 08:10:00","8324","1.8780000000000001","95.7","3.267","81.0","1026.14","22.5","58.15","NAN","0.0"],
    [1555615,"2026-05-21 08:20:00","8325","2.153","93.2","3.463","82.3","1026.14","22.6","57.56","NAN","0.0"],
    [1555616,"2026-05-21 08:30:00","8326","1.5730000000000002","77.78","3.005","113.9","1026.15","22.79","56.21","NAN","0.0"],
    [1555617,"2026-05-21 08:40:00","8327","1.274","108.5","2.7769999999999997","119.4","1026.155","23.23","55.66","NAN","0.0"],
    [1555618,"2026-05-21 08:50:00","8328","1.3259999999999998","100.9","2.45","112.4","1026.153","22.96","57.15","NAN","0.0"],
    [1555619,"2026-05-21 09:00:00","8329","1.556","93.3","2.94","94.9","1026.07","23.25","57.38","NAN","0.0"],
    [1555620,"2026-05-21 09:10:00","8330","1.999","107.3","3.92","111.6","1026.0810000000001","22.63","60.69","NAN","0.0"],
    [1555621,"2026-05-21 09:20:00","8331","1.358","99.4","2.94","102.6","1026.143","22.71","61.86","NAN","0.0"],
    [1555622,"2026-05-21 09:30:00","8332","1.213","115.2","3.005","102.1","1026.1480000000001","22.88","60.8","NAN","0.0"],
    [1555623,"2026-05-21 09:40:00","8333","1.4380000000000002","131.9","2.45","153.2","1026.1580000000001","22.85","59.05","NAN","0.0"],
    [1555624,"2026-05-21 09:50:00","8334","1.412","117.7","2.385","107.9","1026.1480000000001","22.88","60.15","NAN","0.0"],
    [1555625,"2026-05-21 10:00:00","8335","1.589","137.1","3.267","141.2","1026.068","22.8","59.57","NAN","0.0"],
    [1555626,"2026-05-21 10:10:00","8336","1.865","141.2","3.332","155.2","1026.053","22.56","60.5","NAN","0.0"],
    [1555627,"2026-05-21 10:20:00","8337","1.66","130.7","2.94","109.1","1026.021","22.64","61.15","NAN","0.0"],
    [1555628,"2026-05-21 10:30:00","8338","1.74","120.4","3.267","102.9","1025.931","22.91","60.06","NAN","0.0"],
    [1555629,"2026-05-21 10:40:00","8339","1.8769999999999998","128.7","3.071","114.4","1025.906","22.98","59.87","NAN","0.0"],
    [1555630,"2026-05-21 10:50:00","8340","2.326","118.1","3.593","110.4","1025.8239999999998","22.54","60.65","NAN","0.0"],
    [1555631,"2026-05-21 11:00:00","8341","2.291","122.3","4.1160000000000005","100.7","1025.67","22.77","59.25","NAN","0.0"],
    [1555632,"2026-05-21 11:10:00","8342","2.199","121.8","3.7889999999999997","110.2","1025.627","22.86","57.78","NAN","0.0"],
    [1555633,"2026-05-21 11:20:00","8343","1.913","142.4","3.299","114.0","1025.538","23","59.28","NAN","0.0"],
    [1555634,"2026-05-21 11:30:00","8344","2.246","150.4","3.7889999999999997","167.8","1025.443","22.88","59.65","NAN","0.0"],
    [1555635,"2026-05-21 11:40:00","8345","2.029","141.3","3.7239999999999998","148.5","1025.413","22.74","60.44","NAN","0.0"],
    [1555636,"2026-05-21 11:50:00","8346","2.4530000000000003","158.0","4.508","158.8","1025.3039999999999","22.6","61.6","NAN","0.0"],
    [1555637,"2026-05-21 12:00:00","8347","2.026","145.7","3.528","145.5","1025.2939999999999","22.83","60.64","NAN","0.0"],
    [1555638,"2026-05-21 12:10:00","8348","2.316","134.0","4.4430000000000005","107.5","1025.289","22.92","59.76","NAN","0.0"],
    [1555639,"2026-05-21 12:20:00","8349","2.271","142.8","4.279","137.8","1025.254","22.75","62.03","NAN","0.0"],
    [1555640,"2026-05-21 12:30:00","8350","2.56","137.6","4.181","111.4","1025.162","22.79","62.42","NAN","0.0"],
    [1555641,"2026-05-21 12:40:00","8351","2.488","150.6","3.822","168.4","1025.122","22.37","65.45","NAN","0.0"],
    [1555642,"2026-05-21 12:50:00","8352","2.499","144.9","3.822","133.7","1025.022","22.37","66.25","NAN","0.0"],
    [1555643,"2026-05-21 13:00:00","8353","2.089","140.8","3.365","137.7","1024.982","22.37","66.65","NAN","0.0"],
    [1555644,"2026-05-21 13:10:00","8354","2.0180000000000002","133.8","3.463","158.5","1024.965","22.76","66.55","NAN","0.0"],
    [1555645,"2026-05-21 13:20:00","8355","2.217","155.5","3.495","163.0","1024.912","22.52","66.39","NAN","0.0"],
    [1555646,"2026-05-21 13:30:00","8356","2.039","127.6","3.1689999999999996","116.5","1024.912","22.69","67.62","NAN","0.0"],
    [1555647,"2026-05-21 13:40:00","8357","2.4459999999999997","145.8","3.887","158.0","1024.902","22.23","69.45","NAN","0.0"],
    [1555648,"2026-05-21 13:50:00","8358","2.464","152.8","4.051","155.3","1024.9","22.24","69.59","NAN","0.0"],
    [1555649,"2026-05-21 14:00:00","8359","2.209","151.5","3.7569999999999997","160.5","1024.833","22.32","69.44","NAN","0.0"],
    [1555650,"2026-05-21 14:10:00","8360","2.2430000000000003","148.6","4.149","166.9","1024.7160000000001","22.27","70.18","NAN","0.0"],
    [1555651,"2026-05-21 14:20:00","8361","2.0580000000000003","130.1","3.92","111.8","1024.663","22.36","68.86","NAN","0.0"],
    [1555652,"2026-05-21 14:30:00","8362","2.597","111.7","4.541","104.1","1024.611","22.21","70.48","NAN","0.0"],
    [1555653,"2026-05-21 14:40:00","8363","1.828","159.1","3.103","161.1","1024.444","22.45","69.91","NAN","0.0"],
    [1555654,"2026-05-21 14:50:00","8364","1.8319999999999999","183.3","3.299","148.7","1024.402","22.77","66.83","NAN","0.0"],
    [1555655,"2026-05-21 15:00:00","8365","2.144","183.6","3.201","186.3","1024.327","22.3","67.64","NAN","0.0"],
    [1555656,"2026-05-21 15:10:00","8366","2.0380000000000003","177.7","3.397","161.2","1024.26","22.35","68.53","NAN","0.0"],
    [1555657,"2026-05-21 15:20:00","8367","2.049","179.6","3.397","156.9","1024.165","22.46","67.83","NAN","0.0"],
    [1555658,"2026-05-21 15:30:00","8368","2.431","165.6","4.018","167.6","1024.165","22.16","69.39","NAN","0.0"],
    [1555659,"2026-05-21 15:40:00","8369","2.85","168.8","4.312","178.9","1024.153","21.88","70.32","NAN","0.0"],
    [1555660,"2026-05-21 15:50:00","8370","2.323","165.2","4.2139999999999995","133.7","1024.098","22.01","71.95","NAN","0.0"],
    [1555661,"2026-05-21 16:00:00","8371","2.6239999999999997","169.9","3.887","154.2","1024.085","22.02","74.2","NAN","0.0"],
    [1555662,"2026-05-21 16:10:00","8372","2.7910000000000004","166.4","3.985","153.6","1023.916","22.04","75.97","NAN","0.0"],
    [1555663,"2026-05-21 16:20:00","8373","2.676","170.6","3.7889999999999997","185.9","1023.846","22.11","77.05","NAN","0.0"],
    [1555664,"2026-05-21 16:30:00","8374","2.479","168.8","3.593","170.2","1023.722","22.11","77.62","NAN","0.0"],
    [1555665,"2026-05-21 16:40:00","8375","2.752","167.6","4.345","173.7","1023.592","22.45","72.6","NAN","0.0"],
    [1555666,"2026-05-21 16:50:00","8376","2.966","171.1","3.985","173.0","1023.462","22.12","74.09","NAN","0.0"],
    [1555667,"2026-05-21 17:00:00","8377","3.014","167.2","4.737","176.3","1023.437","22.1","73.76","NAN","0.0"],
    [1555668,"2026-05-21 17:10:00","8378","2.738","168.4","4.149","171.4","1023.3810000000001","22.47","67.8","NAN","0.0"],
    [1555669,"2026-05-21 17:20:00","8379","2.697","166.9","4.41","156.2","1023.312","22.57","67.01","NAN","0.0"],
    [1555670,"2026-05-21 17:30:00","8380","2.063","172.2","3.267","160.7","1023.35","22.61","65.59","NAN","0.0"],
    [1555671,"2026-05-21 17:40:00","8381","1.962","162.7","3.005","178.4","1023.3969999999999","22.94","63.76","NAN","0.0"],
    [1555672,"2026-05-21 17:50:00","8382","2.522","165.3","4.2139999999999995","165.6","1023.419","22.55","69.22","NAN","0.0"],
    [1555673,"2026-05-21 18:00:00","8383","2.006","181.3","3.43","175.0","1023.421","22.29","66.69","NAN","0.0"],
    [1555674,"2026-05-21 18:10:00","8384","2.1","168.6","3.855","157.6","1023.462","22.56","64.83","NAN","0.0"],
    [1555675,"2026-05-21 18:20:00","8385","1.806","175.3","2.94","185.6","1023.533","22.12","67.68","NAN","0.0"],
    [1555676,"2026-05-21 18:30:00","8386","1.47","197.9","3.005","199.6","1023.6010000000001","22.67","54.81","NAN","0.0"],
    [1555677,"2026-05-21 18:40:00","8387","1.4180000000000001","194.0","2.613","194.7","1023.704","22.83","54.91","NAN","0.0"],
    [1555678,"2026-05-21 18:50:00","8388","1.296","203.9","2.221","203.1","1023.8389999999999","22.79","53.61","NAN","0.0"],
    [1555679,"2026-05-21 19:00:00","8389","1.4680000000000002","196.7","2.8089999999999997","204.8","1023.8889999999999","22.64","54.56","NAN","0.0"],
    [1555680,"2026-05-21 19:10:00","8390","1.4909999999999999","197.2","2.907","199.2","1024.045","22.38","55.97","NAN","0.0"],
    [1555681,"2026-05-21 19:20:00","8391","1.555","189.3","2.907","199.2","1024.106","22.19","59.25","NAN","0.0"],
    [1555682,"2026-05-21 19:30:00","8392","1.31","218.1","3.267","240.2","1024.1660000000002","22.07","59.51","NAN","0.0"],
    [1555683,"2026-05-21 19:40:00","8393","1.44","196.0","2.352","197.4","1024.231","22.14","56.43","NAN","0.0"],
    [1555684,"2026-05-21 19:50:00","8394","1.365","191.7","2.287","175.9","1024.237","21.84","59.61","NAN","0.0"],
    [1555685,"2026-05-21 20:00:00","8395","1.3019999999999998","203.5","2.221","196.4","1024.354","21.8","60.16","NAN","0.0"],
    [1555686,"2026-05-21 20:10:00","8396","1.317","191.7","2.123","203.8","1024.374","21.96","59.91","NAN","0.0"],
    [1555687,"2026-05-21 20:20:00","8397","1.3019999999999998","176.4","2.123","156.4","1024.491","21.39","77.46","NAN","0.0"],
    [1555688,"2026-05-21 20:30:00","8398","0.8909999999999999","192.6","2.0580000000000003","183.8","1024.546","20.8","85.6","NAN","0.0"],
    [1555689,"2026-05-21 20:40:00","8399","0.6579999999999999","206.8","1.7309999999999999","212.7","1024.635","20.59","87.3","NAN","0.0"],
    [1555690,"2026-05-21 20:50:00","8400","1.028","192.3","1.797","202.7","1024.6480000000001","20.57","87.3","NAN","0.0"],
    [1555691,"2026-05-21 21:00:00","8401","0.784","180.6","1.535","175.1","1024.667","20.51","87.4","NAN","0.0"],
    [1555692,"2026-05-21 21:10:00","8402","0.8420000000000001","183.1","1.274","173.9","1024.638","20.57","85.6","NAN","0.0"],
    [1555693,"2026-05-21 21:20:00","8403","0.727","190.3","1.3719999999999999","175.1","1024.5819999999999","20.69","83.6","NAN","0.0"],
    [1555694,"2026-05-21 21:30:00","8404","0.83","203.9","1.568","197.7","1024.548","20.72","82.9","NAN","0.0"],
    [1555695,"2026-05-21 21:40:00","8405","0.8109999999999999","205.0","1.405","220.2","1024.526","20.8","78.91","NAN","0.0"],
    [1555696,"2026-05-21 21:50:00","8406","0.672","219.2","1.568","245.9","1024.542","20.91","78.79","NAN","0.0"],
    [1555697,"2026-05-21 22:00:00","8407","0.875","218.3","1.568","202.6","1024.62","21.02","79.01","NAN","0.0"],
    [1555698,"2026-05-21 22:10:00","8408","0.877","198.4","1.535","210.0","1024.633","20.75","82.5","NAN","0.0"],
    [1555699,"2026-05-21 22:20:00","8409","0.932","194.5","1.405","200.0","1024.629","20.52","83.9","NAN","0.0"],
    [1555700,"2026-05-21 22:30:00","8410","0.645","222.0","1.4369999999999998","251.0","1024.596","20.7","82.4","NAN","0.0"],
    [1555701,"2026-05-21 22:40:00","8411","0.847","203.3","1.535","198.6","1024.622","20.72","82","NAN","0.0"],
    [1555702,"2026-05-21 22:50:00","8412","0.816","196.4","1.3719999999999999","198.4","1024.589","20.4","84.6","NAN","0.0"],
    [1555703,"2026-05-21 23:00:00","8413","0.9259999999999999","209.0","1.4369999999999998","210.3","1024.516","20.26","85.9","NAN","0.0"],
    [1555704,"2026-05-21 23:10:00","8414","0.89","232.1","1.7309999999999999","227.9","1024.482","20.37","82.3","NAN","0.0"],
    [1555705,"2026-05-21 23:20:00","8415","1.239","239.0","2.45","233.0","1024.4360000000001","20.61","78.34","NAN","0.0"],
    [1555706,"2026-05-21 23:30:00","8416","1.09","233.7","2.0580000000000003","236.2","1024.38","20.71","78.04","NAN","0.0"],
    [1555707,"2026-05-21 23:40:00","8417","1.317","243.8","2.352","236.6","1024.374","20.63","79.55","NAN","0.0"],
    [1555708,"2026-05-21 23:50:00","8418","1.215","235.4","2.385","236.4","1024.371","20.58","80.3","NAN","0.0"],
    [1555709,"2026-05-22 00:00:00","8419","1.307","239.7","2.94","244.9","1024.336","20.51","80.7","NAN","0.0"],
    [1555710,"2026-05-22 00:10:00","8420","1.286","240.2","2.679","258.4","1024.259","20.45","80.2","NAN","0.0"],
    [1555711,"2026-05-22 00:20:00","8421","1.422","237.0","2.842","243.6","1024.257","20.42","78.73","NAN","0.0"],
    [1555712,"2026-05-22 00:30:00","8422","1.3159999999999998","247.3","2.7769999999999997","240.1","1024.149","20.45","76.41","NAN","0.0"],
    [1555713,"2026-05-22 00:40:00","8423","1.266","242.6","2.613","248.7","1024.0710000000001","20.53","73.11","NAN","0.0"],
    [1555714,"2026-05-22 00:50:00","8424","1.227","250.6","2.352","261.3","1024.032","20.58","70.56","NAN","0.0"],
    [1555715,"2026-05-22 01:00:00","8425","1.255","248.7","2.45","263.2","1024.011","20.6","68.45","NAN","0.0"],
    [1555716,"2026-05-22 01:10:00","8426","1.1740000000000002","246.5","2.7110000000000003","270.5","1024.006","20.55","67.42","NAN","0.0"],
    [1555717,"2026-05-22 01:20:00","8427","1.345","247.5","2.7110000000000003","246.7","1024.001","20.68","62.8","NAN","0.0"],
    [1555718,"2026-05-22 01:30:00","8428","0.922","257.1","2.0580000000000003","250.1","1023.9989999999999","20.82","61.64","NAN","0.0"],
    [1555719,"2026-05-22 01:40:00","8429","0.688","248.2","2.123","234.0","1023.873","20.76","62.85","NAN","0.0"],
    [1555720,"2026-05-22 01:50:00","8430","0.9279999999999999","259.2","2.025","240.7","1023.7539999999999","20.64","63.33","NAN","0.0"],
    [1555721,"2026-05-22 02:00:00","8431","0.958","263.4","1.829","257.8","1023.7439999999999","20.56","63.22","NAN","0.0"],
    [1555722,"2026-05-22 02:10:00","8432","0.5539999999999999","225.3","1.535","252.0","1023.755","20.5","62.4","NAN","0.0"],
    [1555723,"2026-05-22 02:20:00","8433","0.182","247.3","1.4369999999999998","241.3","1023.74","20.22","62.32","NAN","0.0"],
    [1555724,"2026-05-22 02:30:00","8434","0.7959999999999999","257.0","1.699","260.8","1023.752","20.4","59.2","NAN","0.0"],
    [1555725,"2026-05-22 02:40:00","8435","0.716","256.9","1.699","255.3","1023.686","20.58","58.46","NAN","0.0"],
    [1555726,"2026-05-22 02:50:00","8436","1.1","247.7","2.319","239.8","1023.675","20.45","58.15","NAN","0.0"],
    [1555727,"2026-05-22 03:00:00","8437","0.759","254.0","1.797","228.8","1023.681","20.48","57.11","NAN","0.0"],
    [1555728,"2026-05-22 03:10:00","8438","0.524","239.2","1.633","220.9","1023.6610000000001","20.41","56.3","NAN","0.0"],
    [1555729,"2026-05-22 03:20:00","8439","0.514","226.0","1.47","257.5","1023.6289999999999","20.19","57.33","NAN","0.0"],
    [1555730,"2026-05-22 03:30:00","8440","0.22899999999999998","276.7","1.078","309.8","1023.615","20.39","56.53","NAN","0.0"],
    [1555731,"2026-05-22 03:40:00","8441","0.42100000000000004","264.7","1.535","249.4","1023.5360000000001","20.54","55.65","NAN","0.0"],
    [1555732,"2026-05-22 03:50:00","8442","0.726","244.5","1.829","213.9","1023.534","20.34","56.72","NAN","0.0"],
    [1555733,"2026-05-22 04:00:00","8443","0.715","230.2","1.633","239.8","1023.498","20.19","57.36","NAN","0.0"],
    [1555734,"2026-05-22 04:10:00","8444","0.607","198.2","0.915","174.1","1023.5039999999999","19.78","62.25","NAN","0.0"],
    [1555735,"2026-05-22 04:20:00","8445","0.075","168.9","0.8170000000000001","171.6","1023.6339999999999","19.38","65.7","NAN","0.0"],
    [1555736,"2026-05-22 04:30:00","8446","0.252","61.64","0.621","69.18","1023.69","19.34","64.88","NAN","0.0"],
    [1555737,"2026-05-22 04:40:00","8447","0.049","40.91","0.457","9.65","1023.7589999999999","19.43","65.04","NAN","0.0"],
    [1555738,"2026-05-22 04:50:00","8448","0.47700000000000004","41.59","1.209","40.01","1023.898","19.47","65.77","NAN","0.0"],
    [1555739,"2026-05-22 05:00:00","8449","1.092","40.99","1.993","35.87","1024.005","19.45","65.16","NAN","0.0"],
    [1555740,"2026-05-22 05:10:00","8450","1.12","45.9","2.221","40.96","1024.2089999999998","19.42","63.66","NAN","0.0"],
    [1555741,"2026-05-22 05:20:00","8451","0.9590000000000001","39.98","2.352","60.3","1024.312","19.22","62.51","NAN","0.0"],
    [1555742,"2026-05-22 05:30:00","8452","1.023","37.36","2.907","34.38","1024.4160000000002","19.34","61.09","NAN","0.0"],
    [1555743,"2026-05-22 05:40:00","8453","0.9990000000000001","35.76","2.0580000000000003","65.19","1024.479","19.55","60.03","NAN","0.0"],
    [1555744,"2026-05-22 05:50:00","8454","0.386","25.6","0.882","6.5360000000000005","1024.506","19.93","59.07","NAN","0.0"],
    [1555745,"2026-05-22 06:00:00","8455","0.5720000000000001","82.3","1.045","72.33","1024.606","20.54","57.75","NAN","0.0"],
    [1555746,"2026-05-22 06:10:00","8456","0.6559999999999999","60.43","1.699","53.31","1024.692","21.08","56.01","NAN","0.0"],
    [1555747,"2026-05-22 06:20:00","8457","0.9209999999999999","57.23","1.9269999999999998","70.66","1024.7160000000001","21.21","55.45","NAN","0.0"],
    [1555748,"2026-05-22 06:30:00","8458","1.3730000000000002","43.49","2.417","45.13","1024.713","21.36","55.05","NAN","0.0"],
    [1555749,"2026-05-22 06:40:00","8459","1.079","38.99","2.417","17.89","1024.89","21.45","56.98","NAN","0.0"],
    [1555750,"2026-05-22 06:50:00","8460","1.249","45.99","2.385","76.6","1024.955","21.5","63.76","NAN","0.0"],
    [1555751,"2026-05-22 07:00:00","8461","1.065","71.48","2.352","67.02","1025.0739999999998","21.64","66","NAN","0.0"],
    [1555752,"2026-05-22 07:10:00","8462","1.555","28.69","3.0380000000000003","66.29","1025.154","21.88","60.7","NAN","0.0"],
    [1555753,"2026-05-22 07:20:00","8463","1.743","52.08","3.7569999999999997","60.23","1025.202","22.21","57.5","NAN","0.0"],
    [1555754,"2026-05-22 07:30:00","8464","1.854","44.22","3.9530000000000003","48.23","1025.2910000000002","22.39","56.56","NAN","0.0"],
    [1555755,"2026-05-22 07:40:00","8465","1.4469999999999998","44.45","3.201","22.18","1025.343","22.99","55.81","NAN","0.0"],
    [1555756,"2026-05-22 07:50:00","8466","1.806","78.8","3.1689999999999996","107.6","1025.396","23.23","56.46","NAN","0.0"],
    [1555757,"2026-05-22 08:00:00","8467","2.222","57.06","3.887","45.81","1025.448","23.03","56.09","NAN","0.0"],
    [1555758,"2026-05-22 08:10:00","8468","2.26","74.46","4.475","91.5","1025.5330000000001","22.62","58.24","NAN","0.0"],
    [1555759,"2026-05-22 08:20:00","8469","1.52","90.8","2.515","120.7","1025.538","22.85","60.24","NAN","0.0"],
    [1555760,"2026-05-22 08:30:00","8470","1.225","74.19","2.548","69.42","1025.57","23.32","59.41","NAN","0.0"],
    [1555761,"2026-05-22 08:40:00","8471","1.743","95.7","2.907","117.9","1025.612","23.07","62.43","NAN","0.0"],
    [1555762,"2026-05-22 08:50:00","8472","2.193","103.1","3.92","112.1","1025.66","22.59","64.34","NAN","0.0"],
    [1555763,"2026-05-22 09:00:00","8473","2.286","98.7","3.7889999999999997","95.0","1025.647","22.37","65.71","NAN","0.0"],
    [1555764,"2026-05-22 09:10:00","8474","2.314","99.4","3.9530000000000003","109.8","1025.657","22.3","67.91","NAN","0.0"],
    [1555765,"2026-05-22 09:20:00","8475","2.278","92.5","4.018","92.9","1025.66","22.16","71.14","NAN","0.0"],
    [1555766,"2026-05-22 09:30:00","8476","2.2319999999999998","104.8","4.671","105.3","1025.66","22.24","72.67","NAN","0.0"],
    [1555767,"2026-05-22 09:40:00","8477","2.4090000000000003","99.7","4.508","111.8","1025.635","22.36","73.12","NAN","0.0"],
    [1555768,"2026-05-22 09:50:00","8478","2.826","106.5","3.92","107.6","1025.613","21.97","74.91","NAN","0.0"],
    [1555769,"2026-05-22 10:00:00","8479","2.267","104.9","3.495","105.5","1025.66","22.02","75.72","NAN","0.0"],
    [1555770,"2026-05-22 10:10:00","8480","2.123","107.1","3.397","100.6","1025.657","21.86","77.89","NAN","0.0"],
    [1555771,"2026-05-22 10:20:00","8481","2.23","112.2","3.463","118.4","1025.642","22.19","75.56","NAN","0.0"],
    [1555772,"2026-05-22 10:30:00","8482","1.9680000000000002","98.4","3.0380000000000003","117.3","1025.652","22.31","72.95","NAN","0.0"],
    [1555773,"2026-05-22 10:40:00","8483","1.714","94.6","2.842","112.7","1025.61","22.64","71.71","NAN","0.0"],
    [1555774,"2026-05-22 10:50:00","8484","2.0669999999999997","115.0","2.875","110.1","1025.528","22.3","76.82","NAN","0.0"],
    [1555775,"2026-05-22 11:00:00","8485","1.808","107.7","2.9730000000000003","110.5","1025.433","22.05","76.25","NAN","0.0"],
    [1555776,"2026-05-22 11:10:00","8486","2.114","107.5","3.43","110.3","1025.411","22.58","73.41","NAN","0.0"],
    [1555777,"2026-05-22 11:20:00","8487","1.6680000000000001","97.8","2.842","110.5","1025.366","22.6","70.39","NAN","0.0"],
    [1555778,"2026-05-22 11:30:00","8488","1.9","97.8","2.9730000000000003","114.4","1025.361","22.81","69.61","NAN","0.0"],
    [1555779,"2026-05-22 11:40:00","8489","1.713","87.9","2.842","73.01","1025.298","23.31","62.98","NAN","0.0"],
    [1555780,"2026-05-22 11:50:00","8490","2.214","93.6","3.397","109.9","1025.246","23.11","62.24","NAN","0.0"],
    [1555781,"2026-05-22 12:00:00","8491","2.397","106.5","3.7239999999999998","105.5","1025.261","22.65","70.07","NAN","0.0"],
    [1555782,"2026-05-22 12:10:00","8492","1.932","118.7","3.234","114.3","1025.167","22.49","71.09","NAN","0.0"],
    [1555783,"2026-05-22 12:20:00","8493","2.131","119.0","3.659","99.6","1025.162","22.57","72.84","NAN","0.0"],
    [1555784,"2026-05-22 12:30:00","8494","2.22","109.1","3.7239999999999998","104.8","1025.162","22.42","74.28","NAN","0.0"],
    [1555785,"2026-05-22 12:40:00","8495","2.498","115.4","3.7239999999999998","109.5","1025.0810000000001","22.13","72.14","NAN","0.0"],
    [1555786,"2026-05-22 12:50:00","8496","2.617","111.3","3.7889999999999997","110.3","1024.95","22.54","68.67","NAN","0.0"],
    [1555787,"2026-05-22 13:00:00","8497","2.7439999999999998","100.0","4.2139999999999995","114.0","1024.925","22.48","70.53","NAN","0.0"],
    [1555788,"2026-05-22 13:10:00","8498","2.764","112.5","4.181","106.4","1024.912","22.12","75.26","NAN","0.0"],
    [1555789,"2026-05-22 13:20:00","8499","2.585","96.4","4.2139999999999995","116.8","1024.86","22.4","75.87","NAN","0.0"],
    [1555790,"2026-05-22 13:30:00","8500","2.405","90.7","4.051","102.1","1024.833","22.65","73.88","NAN","0.0"],
    [1555791,"2026-05-22 13:40:00","8501","2.698","99.9","4.018","98.1","1024.768","22.61","75.43","NAN","0.0"],
    [1555792,"2026-05-22 13:50:00","8502","2.448","77.97","3.887","88.9","1024.6660000000002","22.8","73.43","NAN","0.0"],
    [1555793,"2026-05-22 14:00:00","8503","2.2640000000000002","92.0","3.5610000000000004","92.0","1024.663","22.88","72.68","NAN","0.0"],
    [1555794,"2026-05-22 14:10:00","8504","2.3080000000000003","95.8","3.43","108.2","1024.631","23.03","71.67","NAN","0.0"],
    [1555795,"2026-05-22 14:20:00","8505","2.925","103.6","4.737","114.8","1024.529","22.42","75.78","NAN","0.0"],
    [1555796,"2026-05-22 14:30:00","8506","2.6860000000000004","99.5","4.606","98.5","1024.519","22.64","72.37","NAN","0.0"],
    [1555797,"2026-05-22 14:40:00","8507","2.6660000000000004","96.5","4.998","111.4","1024.5539999999999","23.06","66.7","NAN","0.0"],
    [1555798,"2026-05-22 14:50:00","8508","2.616","91.2","4.541","109.9","1024.402","23.05","68.05","NAN","0.0"],
    [1555799,"2026-05-22 15:00:00","8509","2.923","107.3","4.671","103.4","1024.392","22.47","73.21","NAN","0.0"],
    [1555800,"2026-05-22 15:10:00","8510","2.488","92.0","4.606","99.3","1024.389","22.48","73","NAN","0.0"],
    [1555801,"2026-05-22 15:20:00","8511","2.5860000000000003","100.1","4.2139999999999995","113.6","1024.362","22.67","72.98","NAN","0.0"],
    [1555802,"2026-05-22 15:30:00","8512","2.309","87.2","3.659","88.7","1024.3","22.84","72.53","NAN","0.0"],
    [1555803,"2026-05-22 15:40:00","8513","2.324","88.3","3.659","91.3","1024.272","22.74","71.18","NAN","0.0"],
    [1555804,"2026-05-22 15:50:00","8514","2.271","95.9","3.6260000000000003","67.73","1024.265","22.91","70.9","NAN","0.0"],
    [1555805,"2026-05-22 16:00:00","8515","1.858","112.2","3.136","96.8","1024.228","22.8","68.47","NAN","0.0"],
    [1555806,"2026-05-22 16:10:00","8516","1.7269999999999999","131.1","2.6460000000000004","151.2","1024.225","22.89","70.56","NAN","0.0"],
    [1555807,"2026-05-22 16:20:00","8517","1.9369999999999998","127.9","3.234","120.1","1024.18","22.6","67.72","NAN","0.0"],
    [1555808,"2026-05-22 16:30:00","8518","2.123","119.9","3.201","115.5","1024.233","22.6","64.45","NAN","0.0"],
    [1555809,"2026-05-22 16:40:00","8519","2.025","126.2","2.907","114.3","1024.222","22.49","65.8","NAN","0.0"],
    [1555810,"2026-05-22 16:50:00","8520","2.055","122.0","3.332","111.7","1024.163","22.41","68.93","NAN","0.0"],
    [1555811,"2026-05-22 17:00:00","8521","2.052","116.3","3.071","118.5","1024.1660000000002","22.58","70.13","NAN","0.0"],
    [1555812,"2026-05-22 17:10:00","8522","1.777","110.6","2.94","105.6","1024.1689999999999","22.79","70.12","NAN","0.0"],
    [1555813,"2026-05-22 17:20:00","8523","1.893","103.1","3.136","107.1","1024.046","22.81","69.97","NAN","0.0"],
    [1555814,"2026-05-22 17:30:00","8524","1.724","85.9","3.201","103.3","1024.0910000000001","22.84","73.51","NAN","0.0"],
    [1555815,"2026-05-22 17:40:00","8525","1.631","116.9","2.613","128.7","1024.093","22.65","74.02","NAN","0.0"],
    [1555816,"2026-05-22 17:50:00","8526","1.8969999999999998","124.0","2.7439999999999998","112.1","1024.121","22.33","79.31","NAN","0.0"],
    [1555817,"2026-05-22 18:00:00","8527","1.835","127.2","2.6460000000000004","107.2","1024.1589999999999","21.98","83.7","NAN","0.0"],
    [1555818,"2026-05-22 18:10:00","8528","1.9240000000000002","124.5","3.299","109.8","1024.1680000000001","21.78","84.8","NAN","0.0"],
    [1555819,"2026-05-22 18:20:00","8529","1.857","111.8","2.875","102.4","1024.178","21.68","85.5","NAN","0.0"],
    [1555820,"2026-05-22 18:30:00","8530","2.0869999999999997","107.4","3.397","112.0","1024.194","21.66","84.4","NAN","0.0"],
    [1555821,"2026-05-22 18:40:00","8531","1.7180000000000002","99.7","2.875","119.1","1024.296","21.56","85.5","NAN","0.0"],
    [1555822,"2026-05-22 18:50:00","8532","1.825","98.3","2.7439999999999998","109.4","1024.362","21.56","85.1","NAN","0.0"],
    [1555823,"2026-05-22 19:00:00","8533","1.765","105.0","2.8089999999999997","100.3","1024.464","21.45","84.8","NAN","0.0"],
    [1555824,"2026-05-22 19:10:00","8534","1.764","108.7","2.6460000000000004","94.6","1024.461","21.39","83","NAN","0.0"],
    [1555825,"2026-05-22 19:20:00","8535","1.6219999999999999","103.5","2.7110000000000003","110.7","1024.484","21.39","81.2","NAN","0.0"],
    [1555826,"2026-05-22 19:30:00","8536","1.23","98.0","2.515","123.0","1024.536","21.49","81","NAN","0.0"],
    [1555827,"2026-05-22 19:40:00","8537","1.053","108.5","1.535","125.6","1024.612","21.52","80.3","NAN","0.0"],
    [1555828,"2026-05-22 19:50:00","8538","0.8490000000000001","105.2","1.47","107.5","1024.708","21.53","80.4","NAN","0.0"],
    [1555829,"2026-05-22 20:00:00","8539","0.9209999999999999","115.9","1.535","105.9","1024.733","21.45","79.67","NAN","0.0"],
    [1555830,"2026-05-22 20:10:00","8540","1.163","110.3","1.797","108.2","1024.735","21.43","78.16","NAN","0.0"],
    [1555831,"2026-05-22 20:20:00","8541","1.2309999999999999","97.9","1.895","73.31","1024.742","21.41","78.43","NAN","0.0"],
    [1555832,"2026-05-22 20:30:00","8542","0.815","82.6","1.699","73.04","1024.756","21.36","80.1","NAN","0.0"],
    [1555833,"2026-05-22 20:40:00","8543","0.6","93.8","1.111","76.18","1024.8","21.42","80.1","NAN","0.0"],
    [1555834,"2026-05-22 20:50:00","8544","0.436","101.1","0.98","104.4","1024.875","21.42","80.6","NAN","0.0"],
    [1555835,"2026-05-22 21:00:00","8545","0.47700000000000004","139.8","0.8490000000000001","125.0","1024.95","21.36","81.2","NAN","0.0"],
    [1555836,"2026-05-22 21:10:00","8546","0.28800000000000003","118.6","0.8170000000000001","100.9","1024.979","21.31","81.2","NAN","0.0"],
    [1555837,"2026-05-22 21:20:00","8547","0.19","151.9","0.621","185.0","1024.984","21.32","80","NAN","0.0"],
    [1555838,"2026-05-22 21:30:00","8548","0.22899999999999998","187.5","0.588","184.8","1024.971","21.2","80.1","NAN","0.0"],
    [1555839,"2026-05-22 21:40:00","8549","0.531","167.2","0.784","156.9","1024.844","21.13","81.5","NAN","0.0"],
    [1555840,"2026-05-22 21:50:00","8550","0.5579999999999999","172.1","0.882","177.9","1024.853","21.06","82.6","NAN","0.0"],
    [1555841,"2026-05-22 22:00:00","8551","0.605","179.0","1.078","180.3","1024.745","20.96","84","NAN","0.0"],
    [1555842,"2026-05-22 22:10:00","8552","0.499","181.6","1.045","180.4","1024.713","20.85","83.8","NAN","0.0"],
    [1555843,"2026-05-22 22:20:00","8553","0.736","171.8","1.111","172.5","1024.628","20.9","82.4","NAN","0.0"],
    [1555844,"2026-05-22 22:30:00","8554","0.6709999999999999","178.3","1.274","185.0","1024.539","21.02","81.6","NAN","0.0"],
    [1555845,"2026-05-22 22:40:00","8555","0.5820000000000001","176.8","1.013","170.1","1024.493","21.07","79.8","NAN","0.0"],
    [1555846,"2026-05-22 22:50:00","8556","0.7559999999999999","179.1","1.111","184.3","1024.47","21.23","78.45","NAN","0.0"],
    [1555847,"2026-05-22 23:00:00","8557","0.855","147.8","1.209","114.8","1024.392","21.24","78.93","NAN","0.0"],
    [1555848,"2026-05-22 23:10:00","8558","0.747","122.7","1.274","111.4","1024.349","21.1","83.5","NAN","0.0"],
    [1555849,"2026-05-22 23:20:00","8559","0.33","117.4","0.7509999999999999","114.5","1024.345","20.87","84.9","NAN","0.0"],
    [1555850,"2026-05-22 23:30:00","8560","0.316","128.1","0.6859999999999999","137.0","1024.251","20.86","84.6","NAN","0.0"],
    [1555851,"2026-05-22 23:40:00","8561","0.493","131.7","0.8490000000000001","132.7","1024.155","20.78","86.1","NAN","0.0"],
    [1555852,"2026-05-22 23:50:00","8562","0.602","136.4","1.274","152.5","1024.0610000000001","20.71","87.2","NAN","0.0"],
    [1555853,"2026-05-23 00:00:00","8563","0.696","137.0","1.209","140.2","1023.997","20.59","88.1","NAN","0.0"],
    [1555854,"2026-05-23 00:10:00","8564","0.44","129.0","1.045","133.3","1023.997","20.56","88.9","NAN","0.0"],
    [1555855,"2026-05-23 00:20:00","8565","0.294","125.4","0.555","136.7","1023.995","20.57","89","NAN","0.0"],
    [1555856,"2026-05-23 00:30:00","8566","0.426","125.7","0.6859999999999999","118.4","1023.9069999999999","20.57","89","NAN","0.0"],
    [1555857,"2026-05-23 00:40:00","8567","0.32","121.8","0.588","132.1","1023.8560000000001","20.58","88.7","NAN","0.0"],
    [1555858,"2026-05-23 00:50:00","8568","0.023","135.6","0.359","125.6","1023.7560000000001","20.71","88.1","NAN","0.0"],
    [1555859,"2026-05-23 01:00:00","8569","0.0","0.0","0.0","0.0","1023.7639999999999","20.69","87.3","NAN","0.0"],
    [1555860,"2026-05-23 01:10:00","8570","0.006","52.06","0.359","65.61","1023.7439999999999","20.63","87.8","NAN","0.0"],
    [1555861,"2026-05-23 01:20:00","8571","0.39299999999999996","57.08","0.882","62.48","1023.7339999999999","20.51","87.5","NAN","0.0"],
    [1555862,"2026-05-23 01:30:00","8572","0.737","51.97","1.405","50.31","1023.679","20.41","86","NAN","0.0"],
    [1555863,"2026-05-23 01:40:00","8573","0.5529999999999999","65.83","1.045","59.12","1023.562","20.34","85.7","NAN","0.0"],
    [1555864,"2026-05-23 01:50:00","8574","0.046","134.4","0.359","74.64","1023.505","20.38","83","NAN","0.0"],
    [1555865,"2026-05-23 02:00:00","8575","0.0","0.0","0.0","0.0","1023.505","20.24","81.3","NAN","0.0"],
    [1555866,"2026-05-23 02:10:00","8576","0.0","0.0","0.0","0.0","1023.568","20.24","80.7","NAN","0.0"],
    [1555867,"2026-05-23 02:20:00","8577","0.011000000000000001","79.86","0.359","75.27","1023.6419999999999","20.18","80.8","NAN","0.0"],
    [1555868,"2026-05-23 02:30:00","8578","0.387","72.9","0.7190000000000001","53.72","1023.705","20.09","80.5","NAN","0.0"],
    [1555869,"2026-05-23 02:40:00","8579","0.555","60.6","0.915","69.7","1023.7539999999999","20.23","81.2","NAN","0.0"],
    [1555870,"2026-05-23 02:50:00","8580","0.601","46.25","0.98","56.94","1023.7589999999999","20.12","82.5","NAN","0.0"],
    [1555871,"2026-05-23 03:00:00","8581","0.309","68.51","0.8490000000000001","78.01","1023.7639999999999","20.08","82.6","NAN","0.0"],
    [1555872,"2026-05-23 03:10:00","8582","0.868","54.79","1.535","50.76","1023.7710000000001","20.18","86.9","NAN","0.0"],
    [1555873,"2026-05-23 03:20:00","8583","0.887","60.39","1.568","60.19","1023.81","20","89.2","NAN","0.0"],
    [1555874,"2026-05-23 03:30:00","8584","0.759","52.47","1.3719999999999999","53.87","1023.795","19.86","87.4","NAN","0.0"],
    [1555875,"2026-05-23 03:40:00","8585","1.011","57.8","1.9269999999999998","44.99","1023.7869999999999","19.8","82.4","NAN","0.0"],
    [1555876,"2026-05-23 03:50:00","8586","1.008","48.3","1.568","60.04","1023.8689999999999","19.9","79.58","NAN","0.0"],
    [1555877,"2026-05-23 04:00:00","8587","1.128","38.78","2.025","29.19","1023.9119999999999","19.86","77.14","NAN","0.0"],
    [1555878,"2026-05-23 04:10:00","8588","0.882","36.52","1.895","26.5","1024.018","19.86","73.97","NAN","0.0"],
    [1555879,"2026-05-23 04:20:00","8589","0.498","39.33","1.4369999999999998","39.05","1024.028","19.8","73.19","NAN","0.0"],
    [1555880,"2026-05-23 04:30:00","8590","0.87","3.325","1.9269999999999998","11.45","1024.017","19.76","72.32","NAN","0.0"],
    [1555881,"2026-05-23 04:40:00","8591","0.37799999999999995","40.86","1.307","2.892","1024.0230000000001","19.72","72.89","NAN","0.0"],
    [1555882,"2026-05-23 04:50:00","8592","0.879","44.54","1.7309999999999999","28.31","1024.011","19.67","73.94","NAN","0.0"],
    [1555883,"2026-05-23 05:00:00","8593","0.556","24.85","1.078","31.61","1024.019","19.7","74.39","NAN","0.0"],
    [1555884,"2026-05-23 05:10:00","8594","0.457","20.29","1.078","17.57","1024.0810000000001","19.98","73.03","NAN","0.0"],
    [1555885,"2026-05-23 05:20:00","8595","0.757","37.78","1.7309999999999999","19.8","1024.224","20.09","71.12","NAN","0.0"],
    [1555886,"2026-05-23 05:30:00","8596","0.425","17.78","1.4369999999999998","3.733","1024.255","20.16","69.82","NAN","0.0"],
    [1555887,"2026-05-23 05:40:00","8597","0.8109999999999999","29.58","1.764","356.4","1024.366","20.5","68.71","NAN","0.0"],
    [1555888,"2026-05-23 05:50:00","8598","0.455","19.0","1.143","59.82","1024.471","20.56","68.42","NAN","0.0"],
    [1555889,"2026-05-23 06:00:00","8599","0.436","30.49","1.5030000000000001","31.96","1024.484","21.05","67.05","NAN","0.0"],
    [1555890,"2026-05-23 06:10:00","8600","0.867","45.16","1.895","54.21","1024.545","21.29","66.62","NAN","0.0"],
    [1555891,"2026-05-23 06:20:00","8601","0.823","48.16","1.764","29.86","1024.62","21.3","68.84","NAN","0.0"],
    [1555892,"2026-05-23 06:30:00","8602","0.73","53.36","1.7309999999999999","61.22","1024.681","21.48","69.4","NAN","0.0"],
    [1555893,"2026-05-23 06:40:00","8603","0.953","78.23","2.0580000000000003","65.71","1024.662","21.49","71.29","NAN","0.0"],
    [1555894,"2026-05-23 06:50:00","8604","1.3980000000000001","95.3","2.352","97.6","1024.733","21.44","71.68","NAN","0.0"],
    [1555895,"2026-05-23 07:00:00","8605","0.9309999999999999","101.2","1.633","111.3","1024.798","21.45","70.83","NAN","0.0"],
    [1555896,"2026-05-23 07:10:00","8606","1.81","113.0","2.679","111.2","1024.862","21.41","74.49","NAN","0.0"],
    [1555897,"2026-05-23 07:20:00","8607","1.875","115.0","2.7110000000000003","119.6","1024.988","21.24","75.01","NAN","0.0"],
    [1555898,"2026-05-23 07:30:00","8608","2.083","108.8","3.201","106.2","1025.137","21.35","75.53","NAN","0.0"],
    [1555899,"2026-05-23 07:40:00","8609","2.346","109.0","3.332","101.6","1025.162","21.23","78.75","NAN","0.0"],
    [1555900,"2026-05-23 07:50:00","8610","2.048","87.2","3.103","64.72","1025.1860000000001","21.22","81","NAN","0.0"],
    [1555901,"2026-05-23 08:00:00","8611","2.138","98.1","3.528","116.9","1025.339","21.26","83.1","NAN","0.0"],
    [1555902,"2026-05-23 08:10:00","8612","2.718","105.7","4.1160000000000005","108.6","1025.428","21.38","82","NAN","0.0"],
    [1555903,"2026-05-23 08:20:00","8613","2.489","90.6","3.985","66.31","1025.505","21.5","81.1","NAN","0.0"],
    [1555904,"2026-05-23 08:30:00","8614","2.977","86.6","4.508","72.32","1025.535","21.35","84","NAN","0.0"],
    [1555905,"2026-05-23 08:40:00","8615","2.575","88.2","3.9530000000000003","63.92","1025.545","21.83","80.9","NAN","0.0"],
    [1555906,"2026-05-23 08:50:00","8616","3.01","92.7","4.377","101.7","1025.54","21.64","83.9","NAN","0.0"],
    [1555907,"2026-05-23 09:00:00","8617","2.551","95.8","4.1160000000000005","107.0","1025.593","21.74","85.8","NAN","0.0"],
    [1555908,"2026-05-23 09:10:00","8618","2.274","100.1","4.2139999999999995","96.5","1025.635","22.12","82.9","NAN","0.0"],
    [1555909,"2026-05-23 09:20:00","8619","2.504","101.5","4.377","106.6","1025.655","22.23","82.6","NAN","0.0"],
    [1555910,"2026-05-23 09:30:00","8620","2.78","114.1","4.704","116.5","1025.702","21.97","84.4","NAN","0.0"],
    [1555911,"2026-05-23 09:40:00","8621","2.613","111.0","4.345","113.7","1025.809","22.08","84.1","NAN","0.0"],
    [1555912,"2026-05-23 09:50:00","8622","2.435","102.9","4.737","106.2","1025.906","22.17","82.2","NAN","0.0"],
    [1555913,"2026-05-23 10:00:00","8623","2.556","110.4","4.1160000000000005","107.7","1025.931","22.32","79.34","NAN","0.0"],
    [1555914,"2026-05-23 10:10:00","8624","2.1069999999999998","109.9","3.855","108.6","1026.018","22.64","78.95","NAN","0.0"],
    [1555915,"2026-05-23 10:20:00","8625","2.31","117.6","3.528","137.5","1026.086","22.29","83.3","NAN","0.0"],
    [1555916,"2026-05-23 10:30:00","8626","2.248","123.4","3.855","111.5","1026.055","22.06","85.4","NAN","0.0"],
    [1555917,"2026-05-23 10:40:00","8627","2.3680000000000003","128.8","3.7889999999999997","133.7","1026.004","21.77","86.1","NAN","0.0"],
    [1555918,"2026-05-23 10:50:00","8628","2.3480000000000003","122.2","4.247","119.0","1026.038","22.08","85.6","NAN","0.0"],
    [1555919,"2026-05-23 11:00:00","8629","2.654","122.2","4.149","103.6","1026.016","22.02","85.5","NAN","0.0"],
    [1555920,"2026-05-23 11:10:00","8630","2.589","124.0","3.9530000000000003","113.9","1025.988","22.1","86.5","NAN","0.0"],
    [1555921,"2026-05-23 11:20:00","8631","2.375","125.6","4.312","108.3","1025.994","22.26","87.5","NAN","0.0"],
    [1555922,"2026-05-23 11:30:00","8632","2.273","127.4","3.92","117.0","1025.914","22.32","86.9","NAN","0.0"],
    [1555923,"2026-05-23 11:40:00","8633","2.362","127.6","3.6260000000000003","115.6","1025.9089999999999","22.28","87","NAN","0.0"],
    [1555924,"2026-05-23 11:50:00","8634","2.377","126.1","3.887","118.1","1025.896","22.4","86.5","NAN","0.0"],
    [1555925,"2026-05-23 12:00:00","8635","2.051","125.5","3.855","106.2","1025.906","22.63","84.7","NAN","0.0"],
    [1555926,"2026-05-23 12:10:00","8636","2.116","122.1","3.332","117.3","1025.9089999999999","22.8","83","NAN","0.0"],
    [1555927,"2026-05-23 12:20:00","8637","1.949","125.5","3.136","105.3","1025.901","22.61","84.6","NAN","0.0"],
    [1555928,"2026-05-23 12:30:00","8638","2.05","124.4","3.5610000000000004","113.3","1025.846","22.63","85.1","NAN","0.0"],
    [1555929,"2026-05-23 12:40:00","8639","1.8969999999999998","128.0","3.234","101.4","1025.846","23.04","82.6","NAN","0.0"],
    [1555930,"2026-05-23 12:50:00","8640","2.235","123.6","3.593","113.4","1025.767","22.72","82.9","NAN","0.0"],
    [1555931,"2026-05-23 13:00:00","8641","2.006","123.1","3.6260000000000003","111.0","1025.702","22.81","82.4","NAN","0.0"],
    [1555932,"2026-05-23 13:10:00","8642","2.2680000000000002","116.3","3.495","109.7","1025.66","22.93","79.97","NAN","0.0"],
    [1555933,"2026-05-23 13:20:00","8643","1.8459999999999999","134.2","3.071","176.8","1025.662","23.5","73.85","NAN","0.0"],
    [1555934,"2026-05-23 13:30:00","8644","2.8360000000000003","159.6","4.247","162.7","1025.66","23.13","72.86","NAN","0.0"],
    [1555935,"2026-05-23 13:40:00","8645","2.209","142.8","3.822","150.6","1025.607","23.17","75.01","NAN","0.0"],
    [1555936,"2026-05-23 13:50:00","8646","2.32","129.9","4.41","107.4","1025.535","23.45","74.93","NAN","0.0"],
    [1555937,"2026-05-23 14:00:00","8647","2.114","140.3","3.7239999999999998","103.1","1025.54","23.6","74.89","NAN","0.0"],
    [1555938,"2026-05-23 14:10:00","8648","1.8330000000000002","185.5","3.7239999999999998","155.4","1025.5330000000001","23.89","73.29","NAN","0.0"],
    [1555939,"2026-05-23 14:20:00","8649","1.618","193.3","2.7769999999999997","206.6","1025.46","23.89","73.18","NAN","0.0"],
    [1555940,"2026-05-23 14:30:00","8650","1.9680000000000002","185.0","3.299","176.5","1025.373","23.62","71.47","NAN","0.0"],
    [1555941,"2026-05-23 14:40:00","8651","1.7790000000000001","190.2","3.103","179.3","1025.2930000000001","23.65","70.32","NAN","0.0"],
    [1555942,"2026-05-23 14:50:00","8652","1.944","181.8","3.103","179.5","1025.221","23.55","68.64","NAN","0.0"],
    [1555943,"2026-05-23 15:00:00","8653","1.979","140.4","3.463","112.9","1025.1860000000001","23.65","67.42","NAN","0.0"],
    [1555944,"2026-05-23 15:10:00","8654","2.423","140.1","4.083","156.8","1025.127","23.61","67.85","NAN","0.0"],
    [1555945,"2026-05-23 15:20:00","8655","2.16","136.5","3.6260000000000003","150.9","1025.049","23.56","72.38","NAN","0.0"],
    [1555946,"2026-05-23 15:30:00","8656","2.174","146.3","3.463","155.8","1024.955","23.25","74.66","NAN","0.0"],
    [1555947,"2026-05-23 15:40:00","8657","2.1","159.2","3.5610000000000004","164.5","1024.912","23.22","75.4","NAN","0.0"],
    [1555948,"2026-05-23 15:50:00","8658","1.9969999999999999","149.5","3.136","153.9","1024.912","23.01","76.81","NAN","0.0"],
    [1555949,"2026-05-23 16:00:00","8659","2.073","151.1","3.5610000000000004","161.0","1024.895","23.13","75.68","NAN","0.0"],
    [1555950,"2026-05-23 16:10:00","8660","1.6740000000000002","154.8","3.005","150.0","1024.82","23.31","75.13","NAN","0.0"],
    [1555951,"2026-05-23 16:20:00","8661","1.867","145.4","3.463","157.1","1024.701","23.18","76.06","NAN","0.0"],
    [1555952,"2026-05-23 16:30:00","8662","1.796","159.3","3.299","145.6","1024.663","23.01","76.64","NAN","0.0"],
    [1555953,"2026-05-23 16:40:00","8663","1.8459999999999999","178.1","2.907","188.6","1024.6480000000001","23.01","74.32","NAN","0.0"],
    [1555954,"2026-05-23 16:50:00","8664","1.725","185.9","3.267","172.4","1024.499","23.04","72.73","NAN","0.0"],
    [1555955,"2026-05-23 17:00:00","8665","1.807","184.1","2.7439999999999998","181.4","1024.414","22.92","73.63","NAN","0.0"],
    [1555956,"2026-05-23 17:10:00","8666","1.5719999999999998","183.0","2.7110000000000003","172.5","1024.4089999999999","23","74.12","NAN","0.0"],
    [1555957,"2026-05-23 17:20:00","8667","1.807","179.3","3.332","173.8","1024.414","22.78","75.38","NAN","0.0"],
    [1555958,"2026-05-23 17:30:00","8668","1.5730000000000002","174.9","2.8089999999999997","182.3","1024.327","22.92","74.7","NAN","0.0"],
    [1555959,"2026-05-23 17:40:00","8669","1.493","181.1","2.613","183.6","1024.312","22.98","74.13","NAN","0.0"],
    [1555960,"2026-05-23 17:50:00","8670","1.713","174.5","2.8089999999999997","179.6","1024.3","22.76","75.86","NAN","0.0"],
    [1555961,"2026-05-23 18:00:00","8671","1.591","180.0","2.613","173.1","1024.355","22.5","78.58","NAN","0.0"],
    [1555962,"2026-05-23 18:10:00","8672","1.3159999999999998","181.6","2.156","160.5","1024.39","22.45","79.04","NAN","0.0"],
    [1555963,"2026-05-23 18:20:00","8673","1.117","182.3","1.829","180.1","1024.424","22.57","79.27","NAN","0.0"],
    [1555964,"2026-05-23 18:30:00","8674","1.094","168.0","1.9269999999999998","181.6","1024.43","22.41","79.62","NAN","0.0"],
    [1555965,"2026-05-23 18:40:00","8675","1.099","143.8","1.764","149.4","1024.401","22.49","79.72","NAN","0.0"],
    [1555966,"2026-05-23 18:50:00","8676","1.0759999999999998","144.8","2.0580000000000003","162.3","1024.406","22.37","80.1","NAN","0.0"],
    [1555967,"2026-05-23 19:00:00","8677","1.089","153.4","1.8619999999999999","106.2","1024.35","22.21","81.2","NAN","0.0"],
    [1555968,"2026-05-23 19:10:00","8678","1.093","171.9","1.699","178.0","1024.327","22.17","81.4","NAN","0.0"],
    [1555969,"2026-05-23 19:20:00","8679","1.01","170.3","1.633","166.3","1024.312","22.06","81.5","NAN","0.0"],
    [1555970,"2026-05-23 19:30:00","8680","0.845","179.4","1.47","147.9","1024.317","22.04","81.4","NAN","0.0"],
    [1555971,"2026-05-23 19:40:00","8681","0.943","173.5","1.5030000000000001","188.8","1024.288","22.01","82.4","NAN","0.0"],
    [1555972,"2026-05-23 19:50:00","8682","1.3","169.8","1.895","164.3","1024.354","21.95","83.4","NAN","0.0"],
    [1555973,"2026-05-23 20:00:00","8683","1.2409999999999999","172.0","1.797","180.3","1024.361","21.91","83.7","NAN","0.0"],
    [1555974,"2026-05-23 20:10:00","8684","1.05","169.3","1.797","153.7","1024.471","21.96","84.1","NAN","0.0"],
    [1555975,"2026-05-23 20:20:00","8685","1.103","169.6","1.895","156.7","1024.563","21.91","85.4","NAN","0.0"],
    [1555976,"2026-05-23 20:30:00","8686","0.847","176.5","1.4369999999999998","163.9","1024.674","21.88","86.5","NAN","0.0"],
    [1555977,"2026-05-23 20:40:00","8687","0.9259999999999999","176.4","1.405","175.3","1024.735","21.84","87","NAN","0.0"],
    [1555978,"2026-05-23 20:50:00","8688","0.9179999999999999","177.0","1.3719999999999999","182.0","1024.789","21.82","86.8","NAN","0.0"],
    [1555979,"2026-05-23 21:00:00","8689","0.7240000000000001","181.7","1.274","176.7","1024.8110000000001","21.83","85.5","NAN","0.0"],
    [1555980,"2026-05-23 21:10:00","8690","0.795","178.4","1.3719999999999999","175.8","1024.882","21.87","84.3","NAN","0.0"],
    [1555981,"2026-05-23 21:20:00","8691","0.501","191.2","0.98","196.5","1024.979","21.85","84.8","NAN","0.0"],
    [1555982,"2026-05-23 21:30:00","8692","0.81","189.8","1.405","196.5","1024.992","21.84","84.4","NAN","0.0"],
    [1555983,"2026-05-23 21:40:00","8693","0.7859999999999999","197.0","1.3719999999999999","197.3","1024.989","21.82","84","NAN","0.0"],
    [1555984,"2026-05-23 21:50:00","8694","0.91","206.9","1.764","214.1","1024.988","21.93","80.8","NAN","0.0"],
    [1555985,"2026-05-23 22:00:00","8695","1.07","201.1","2.189","215.3","1024.988","22.12","79.29","NAN","0.0"],
    [1555986,"2026-05-23 22:10:00","8696","0.961","199.2","2.123","216.6","1024.995","21.98","80.5","NAN","0.0"],
    [1555987,"2026-05-23 22:20:00","8697","0.804","212.2","1.764","210.9","1024.993","22.03","80.6","NAN","0.0"],
    [1555988,"2026-05-23 22:30:00","8698","0.772","240.2","1.895","231.8","1025.069","22.19","77.33","NAN","0.0"],
    [1555989,"2026-05-23 22:40:00","8699","0.898","252.0","2.287","265.6","1025.101","22.42","75.29","NAN","0.0"],
    [1555990,"2026-05-23 22:50:00","8700","1.125","243.2","2.515","233.9","1025.0339999999999","22.41","72.93","NAN","0.0"],
    [1555991,"2026-05-23 23:00:00","8701","1.015","248.3","1.993","268.9","1024.942","22.49","72.06","NAN","0.0"],
    [1555992,"2026-05-23 23:10:00","8702","1.0959999999999999","240.0","2.123","239.8","1024.9669999999999","22.43","72.19","NAN","0.0"],
    [1555993,"2026-05-23 23:20:00","8703","0.987","231.1","2.221","242.5","1024.933","22.41","71.5","NAN","0.0"],
    [1555994,"2026-05-23 23:30:00","8704","0.848","240.7","2.025","241.3","1024.867","22.3","72.05","NAN","0.0"],
    [1555995,"2026-05-23 23:40:00","8705","0.897","240.7","1.8619999999999999","224.4","1024.745","22.22","71.92","NAN","0.0"],
    [1555996,"2026-05-23 23:50:00","8706","0.9229999999999999","243.0","2.156","237.1","1024.735","22.23","70.87","NAN","0.0"],
    [1555997,"2026-05-24 00:00:00","8707","0.664","246.4","1.699","269.6","1024.725","22.22","71.09","NAN","0.0"],
    [1555998,"2026-05-24 00:10:00","8708","0.69","234.3","1.797","232.9","1024.703","22.15","70.62","NAN","0.0"],
    [1555999,"2026-05-24 00:20:00","8709","0.619","195.9","1.339","178.0","1024.622","21.71","73.33","NAN","0.0"],
    [1556000,"2026-05-24 00:30:00","8710","0.6920000000000001","208.0","1.274","238.5","1024.487","21.39","73.71","NAN","0.0"],
    [1556001,"2026-05-24 00:40:00","8711","0.541","193.8","1.764","236.6","1024.377","21.57","71.75","NAN","0.0"],
    [1556002,"2026-05-24 00:50:00","8712","0.541","184.9","0.915","161.7","1024.3","21.36","72.89","NAN","0.0"],
    [1556003,"2026-05-24 01:00:00","8713","0.41200000000000003","226.1","1.274","240.9","1024.287","21.45","71.12","NAN","0.0"],
    [1556004,"2026-05-24 01:10:00","8714","0.322","223.2","0.98","308.1","1024.249","21.55","70.73","NAN","0.0"],
    [1556005,"2026-05-24 01:20:00","8715","0.139","247.1","1.993","244.6","1024.22","21.58","70.98","NAN","0.0"],
    [1556006,"2026-05-24 01:30:00","8716","0.7509999999999999","245.3","1.96","241.8","1024.147","21.6","70.86","NAN","0.0"],
    [1556007,"2026-05-24 01:40:00","8717","0.298","256.6","1.633","260.6","1024.241","21.61","70.79","NAN","0.0"],
    [1556008,"2026-05-24 01:50:00","8718","0.493","242.0","1.176","230.0","1024.251","21.61","70.82","NAN","0.0"],
    [1556009,"2026-05-24 02:00:00","8719","0.124","193.0","0.8170000000000001","80.4","1024.247","21.56","71.49","NAN","0.0"],
    [1556010,"2026-05-24 02:10:00","8720","0.731","45.68","1.274","49.79","1024.248","21.08","74.05","NAN","0.0"],
    [1556011,"2026-05-24 02:20:00","8721","0.902","38.98","1.307","41.08","1024.2910000000002","20.85","75.57","NAN","0.0"],
    [1556012,"2026-05-24 02:30:00","8722","0.8170000000000001","54.98","1.3719999999999999","49.17","1024.375","20.69","75.83","NAN","0.0"],
    [1556013,"2026-05-24 02:40:00","8723","0.32","63.05","1.078","38.8","1024.381","20.53","76.7","NAN","0.0"],
    [1556014,"2026-05-24 02:50:00","8724","0.376","86.9","1.176","94.8","1024.374","20.56","76.81","NAN","0.0"],
    [1556015,"2026-05-24 03:00:00","8725","0.5760000000000001","62.83","1.111","71.89","1024.373","20.62","76.18","NAN","0.0"],
    [1556016,"2026-05-24 03:10:00","8726","0.385","38.3","1.045","64.46","1024.39","20.53","77.27","NAN","0.0"],
    [1556017,"2026-05-24 03:20:00","8727","0.102","46.27","0.653","58.48","1024.4","20.45","77.37","NAN","0.0"],
    [1556018,"2026-05-24 03:30:00","8728","0.31","63.07","0.6859999999999999","62.76","1024.3980000000001","20.39","77.08","NAN","0.0"],
    [1556019,"2026-05-24 03:40:00","8729","0.24100000000000002","62.61","0.49","41.27","1024.396","20.33","76.85","NAN","0.0"],
    [1556020,"2026-05-24 03:50:00","8730","0.28800000000000003","75.55","1.013","105.4","1024.402","20.16","77.57","NAN","0.0"],
    [1556021,"2026-05-24 04:00:00","8731","0.616","41.65","1.307","54.69","1024.516","20.11","77.47","NAN","0.0"],
    [1556022,"2026-05-24 04:10:00","8732","0.45399999999999996","17.64","1.143","45.73","1024.5410000000002","20.08","77.56","NAN","0.0"],
    [1556023,"2026-05-24 04:20:00","8733","0.23399999999999999","5.202999999999999","0.915","2.499","1024.62","19.99","77.84","NAN","0.0"],
    [1556024,"2026-05-24 04:30:00","8734","0.677","2.801","1.2409999999999999","4.934","1024.656","20.08","76.94","NAN","0.0"],
    [1556025,"2026-05-24 04:40:00","8735","0.575","19.65","1.2409999999999999","5.496","1024.649","20.12","76.33","NAN","0.0"],
    [1556026,"2026-05-24 04:50:00","8736","0.5329999999999999","6.322","1.111","347.1","1024.654","20","76.64","NAN","0.0"],
    [1556027,"2026-05-24 05:00:00","8737","0.42","352.3","1.111","13.94","1024.594","20.18","75.41","NAN","0.0"],
    [1556028,"2026-05-24 05:10:00","8738","0.021","97.8","0.327","97.8","1024.649","20.62","73.71","NAN","0.0"],
    [1556029,"2026-05-24 05:20:00","8739","0.105","63.08","0.555","34.7","1024.755","21.04","71.87","NAN","0.0"],
    [1556030,"2026-05-24 05:30:00","8740","0.158","51.6","0.7509999999999999","34.19","1024.741","21.14","71.78","NAN","0.0"],
    [1556031,"2026-05-24 05:40:00","8741","0.33299999999999996","67.73","0.8490000000000001","63.79","1024.91","21.54","69.89","NAN","0.0"],
    [1556032,"2026-05-24 05:50:00","8742","0.38","26.02","1.013","6.101","1024.984","21.52","69.78","NAN","0.0"],
    [1556033,"2026-05-24 06:00:00","8743","0.555","75.33","0.98","66.71","1024.971","21.97","68.19","NAN","0.0"],
    [1556034,"2026-05-24 06:10:00","8744","0.638","86.1","0.9470000000000001","99.2","1024.95","22.39","66.57","NAN","0.0"],
    [1556035,"2026-05-24 06:20:00","8745","0.588","104.7","0.882","111.3","1024.99","22.4","66.62","NAN","0.0"],
    [1556036,"2026-05-24 06:30:00","8746","0.774","158.0","1.209","180.6","1025.088","22.16","67.82","NAN","0.0"],
    [1556037,"2026-05-24 06:40:00","8747","1.063","171.8","1.5030000000000001","161.8","1025.162","21.81","70.29","NAN","0.0"],
    [1556038,"2026-05-24 06:50:00","8748","0.718","164.8","1.274","177.1","1025.162","21.78","70.68","NAN","0.0"],
    [1556039,"2026-05-24 07:00:00","8749","0.679","150.6","1.2409999999999999","98.7","1025.191","22.15","69.82","NAN","0.0"],
    [1556040,"2026-05-24 07:10:00","8750","0.9229999999999999","160.5","1.5030000000000001","152.9","1025.266","22.44","69.42","NAN","0.0"],
    [1556041,"2026-05-24 07:20:00","8751","0.99","157.5","1.4369999999999998","152.1","1025.2910000000002","22.59","68.86","NAN","0.0"],
    [1556042,"2026-05-24 07:30:00","8752","1.1079999999999999","161.5","1.829","150.9","1025.319","22.86","67.62","NAN","0.0"],
    [1556043,"2026-05-24 07:40:00","8753","1.034","164.1","1.601","159.3","1025.4080000000001","23.12","66.98","NAN","0.0"],
    [1556044,"2026-05-24 07:50:00","8754","1.3130000000000002","168.0","1.895","178.4","1025.411","23.04","66.76","NAN","0.0"],
    [1556045,"2026-05-24 08:00:00","8755","1.131","161.7","1.8619999999999999","139.8","1025.493","23.21","65.47","NAN","0.0"],
    [1556046,"2026-05-24 08:10:00","8756","1.2429999999999999","177.6","1.7309999999999999","152.7","1025.613","23.52","64.62","NAN","0.0"],
    [1556047,"2026-05-24 08:20:00","8757","1.3219999999999998","170.6","1.8619999999999999","166.0","1025.66","23.74","63.4","NAN","0.0"],
    [1556048,"2026-05-24 08:30:00","8758","1.541","143.4","2.5810000000000004","116.7","1025.66","23.69","64.06","NAN","0.0"],
    [1556049,"2026-05-24 08:40:00","8759","1.8159999999999998","119.4","2.7769999999999997","116.7","1025.8339999999998","23.44","64.43","NAN","0.0"],
    [1556050,"2026-05-24 08:50:00","8760","1.736","120.4","2.385","109.7","1025.921","23.51","63.94","NAN","0.0"],
    [1556051,"2026-05-24 09:00:00","8761","1.84","124.1","2.7110000000000003","107.8","1026.021","22.87","66.07","NAN","0.0"],
    [1556052,"2026-05-24 09:10:00","8762","1.9240000000000002","125.4","2.907","137.1","1026.103","22.92","67.06","NAN","0.0"],
    [1556053,"2026-05-24 09:20:00","8763","1.662","128.5","2.483","141.3","1026.123","22.77","67.52","NAN","0.0"],
    [1556054,"2026-05-24 09:30:00","8764","1.7169999999999999","125.8","2.7439999999999998","107.8","1026.1580000000001","23.08","67.03","NAN","0.0"],
    [1556055,"2026-05-24 09:40:00","8765","1.6769999999999998","126.9","2.417","136.3","1026.163","23.26","68.32","NAN","0.0"],
    [1556056,"2026-05-24 09:50:00","8766","1.9369999999999998","115.3","2.548","110.6","1026.16","23.53","65.56","NAN","0.0"],
    [1556057,"2026-05-24 10:00:00","8767","1.607","135.2","2.287","121.4","1026.2","23.86","64.49","NAN","0.0"],
    [1556058,"2026-05-24 10:10:00","8768","1.929","116.9","2.8089999999999997","113.3","1026.285","23.76","65.63","NAN","0.0"],
    [1556059,"2026-05-24 10:20:00","8769","1.8319999999999999","120.3","2.7110000000000003","114.6","1026.282","23.77","63.73","NAN","0.0"],
    [1556060,"2026-05-24 10:30:00","8770","1.953","113.4","2.907","109.7","1026.225","23.94","63.09","NAN","0.0"],
    [1556061,"2026-05-24 10:40:00","8771","1.979","114.0","2.8089999999999997","111.3","1026.1580000000001","24.43","61.18","NAN","0.0"],
    [1556062,"2026-05-24 10:50:00","8772","2.13","114.7","2.94","113.3","1026.1580000000001","24.42","59.55","NAN","0.0"],
    [1556063,"2026-05-24 11:00:00","8773","1.996","119.2","3.267","149.3","1026.1580000000001","24.7","59.14","NAN","0.0"],
    [1556064,"2026-05-24 11:10:00","8774","1.829","118.6","2.875","114.5","1026.1580000000001","24.8","59.95","NAN","0.0"],
    [1556065,"2026-05-24 11:20:00","8775","1.923","118.7","2.7769999999999997","107.9","1026.1580000000001","24.71","60.13","NAN","0.0"],
    [1556066,"2026-05-24 11:30:00","8776","1.976","118.2","2.7439999999999998","103.2","1026.155","24.61","60.62","NAN","0.0"],
    [1556067,"2026-05-24 11:40:00","8777","2.022","120.6","2.7769999999999997","116.8","1026.1580000000001","24.77","61.03","NAN","0.0"],
    [1556068,"2026-05-24 11:50:00","8778","1.93","123.8","3.0380000000000003","114.6","1026.155","24.76","63.36","NAN","0.0"],
    [1556069,"2026-05-24 12:00:00","8779","1.7690000000000001","146.9","2.94","177.7","1026.153","25.12","60.19","NAN","0.0"],
    [1556070,"2026-05-24 12:10:00","8780","1.6569999999999998","168.8","2.6460000000000004","178.8","1026.135","24.92","61.49","NAN","0.0"],
    [1556071,"2026-05-24 12:20:00","8781","1.784","152.5","2.483","140.1","1026.125","24.76","63.41","NAN","0.0"],
    [1556072,"2026-05-24 12:30:00","8782","1.7530000000000001","188.2","3.103","184.6","1026.078","24.93","62.75","NAN","0.0"],
    [1556073,"2026-05-24 12:40:00","8783","2.128","176.6","3.365","179.0","1026.115","24.44","62.57","NAN","0.0"],
    [1556074,"2026-05-24 12:50:00","8784","1.895","176.3","2.6460000000000004","169.6","1026.026","24.28","64.25","NAN","0.0"],
    [1556075,"2026-05-24 13:00:00","8785","1.986","182.7","2.875","182.9","1025.9160000000002","24.52","62.65","NAN","0.0"],
    [1556076,"2026-05-24 13:10:00","8786","1.829","168.8","2.7769999999999997","155.0","1025.844","24.64","63.97","NAN","0.0"],
    [1556077,"2026-05-24 13:20:00","8787","2.073","169.5","2.8089999999999997","153.8","1025.859","24.56","66.12","NAN","0.0"],
    [1556078,"2026-05-24 13:30:00","8788","2.267","182.5","3.267","183.4","1025.906","24.34","68.2","NAN","0.0"],
    [1556079,"2026-05-24 13:40:00","8789","2.085","184.9","2.842","198.6","1025.8310000000001","24.74","64.73","NAN","0.0"],
    [1556080,"2026-05-24 13:50:00","8790","1.983","141.3","3.1689999999999996","115.1","1025.854","24.75","65.33","NAN","0.0"],
    [1556081,"2026-05-24 14:00:00","8791","1.944","167.1","2.7769999999999997","160.8","1025.797","24.78","64.86","NAN","0.0"],
    [1556082,"2026-05-24 14:10:00","8792","2.26","183.6","3.365","175.8","1025.8010000000002","24.45","66.46","NAN","0.0"],
    [1556083,"2026-05-24 14:20:00","8793","2.189","179.5","3.1689999999999996","180.3","1025.7269999999999","24.27","68.3","NAN","0.0"],
    [1556084,"2026-05-24 14:30:00","8794","2.338","179.0","3.43","186.1","1025.66","24.06","69.84","NAN","0.0"],
    [1556085,"2026-05-24 14:40:00","8795","2.415","183.1","3.463","186.2","1025.66","24.14","69.1","NAN","0.0"],
    [1556086,"2026-05-24 14:50:00","8796","2.182","179.3","3.299","164.7","1025.66","24.22","69.49","NAN","0.0"],
    [1556087,"2026-05-24 15:00:00","8797","2.055","180.7","3.1689999999999996","180.3","1025.657","24.3","69.25","NAN","0.0"],
    [1556088,"2026-05-24 15:10:00","8798","1.9869999999999999","185.2","3.234","180.5","1025.64","24.36","69.48","NAN","0.0"],
    [1556089,"2026-05-24 15:20:00","8799","2.34","179.1","3.463","180.0","1025.66","23.98","69.9","NAN","0.0"],
    [1556090,"2026-05-24 15:30:00","8800","2.226","177.0","3.234","170.6","1025.66","23.96","67.68","NAN","0.0"],
    [1556091,"2026-05-24 15:40:00","8801","2.29","175.3","3.136","158.9","1025.66","24","66.99","NAN","0.0"],
    [1556092,"2026-05-24 15:50:00","8802","2.019","177.1","3.201","179.4","1025.66","24.19","65.61","NAN","0.0"],
    [1556093,"2026-05-24 16:00:00","8803","1.804","142.3","2.679","137.2","1025.66","24.35","62.27","NAN","0.0"],
    [1556094,"2026-05-24 16:10:00","8804","2.002","120.2","2.94","111.2","1025.657","24.34","64.38","NAN","0.0"],
    [1556095,"2026-05-24 16:20:00","8805","1.82","154.5","3.365","158.8","1025.66","24.36","59.98","NAN","0.0"],
    [1556096,"2026-05-24 16:30:00","8806","1.975","157.7","2.907","156.2","1025.595","24.41","51.92","NAN","0.0"],
    [1556097,"2026-05-24 16:40:00","8807","2.025","116.8","2.907","115.6","1025.5819999999999","24.44","58.89","NAN","0.0"],
    [1556098,"2026-05-24 16:50:00","8808","1.6469999999999998","120.7","2.385","136.0","1025.548","24.01","60.78","NAN","0.0"],
    [1556099,"2026-05-24 17:00:00","8809","1.624","114.4","2.417","113.0","1025.539","24","57.77","NAN","0.0"],
    [1556100,"2026-05-24 17:10:00","8810","1.3719999999999999","123.6","2.025","108.5","1025.501","24.15","57.86","NAN","0.0"],
    [1556101,"2026-05-24 17:20:00","8811","1.4280000000000002","120.8","2.025","115.5","1025.443","24.29","60.58","NAN","0.0"],
    [1556102,"2026-05-24 17:30:00","8812","1.385","126.2","2.123","111.7","1025.4080000000001","24.21","60.81","NAN","0.0"],
    [1556103,"2026-05-24 17:40:00","8813","1.83","114.0","2.7110000000000003","114.0","1025.4080000000001","23.95","62.74","NAN","0.0"],
    [1556104,"2026-05-24 17:50:00","8814","1.696","118.4","2.7110000000000003","105.9","1025.427","23.82","63.23","NAN","0.0"],
    [1556105,"2026-05-24 18:00:00","8815","1.537","118.7","2.385","116.6","1025.415","23.63","60.22","NAN","0.0"],
    [1556106,"2026-05-24 18:10:00","8816","1.409","117.7","2.189","111.0","1025.411","23.68","58.85","NAN","0.0"],
    [1556107,"2026-05-24 18:20:00","8817","1.281","117.1","2.025","97.0","1025.3410000000001","23.68","61.4","NAN","0.0"],
    [1556108,"2026-05-24 18:30:00","8818","1.031","134.1","1.764","103.0","1025.3010000000002","23.52","63.11","NAN","0.0"],
    [1556109,"2026-05-24 18:40:00","8819","0.742","161.0","1.209","168.9","1025.3139999999999","23.5","62.7","NAN","0.0"],
    [1556110,"2026-05-24 18:50:00","8820","0.703","162.3","1.078","159.0","1025.3339999999998","23.54","62.24","NAN","0.0"],
    [1556111,"2026-05-24 19:00:00","8821","0.621","156.7","1.111","165.3","1025.351","23.47","63.95","NAN","0.0"],
    [1556112,"2026-05-24 19:10:00","8822","0.7709999999999999","176.8","1.176","158.7","1025.343","23.4","63.85","NAN","0.0"],
    [1556113,"2026-05-24 19:20:00","8823","1.1540000000000001","167.2","1.699","167.9","1025.36","23.19","64.12","NAN","0.0"],
    [1556114,"2026-05-24 19:30:00","8824","1.051","170.0","1.633","158.1","1025.36","23.07","65.77","NAN","0.0"],
    [1556115,"2026-05-24 19:40:00","8825","0.7390000000000001","177.4","1.5030000000000001","168.6","1025.366","22.98","68.55","NAN","0.0"],
    [1556116,"2026-05-24 19:50:00","8826","0.599","172.8","1.143","177.1","1025.482","22.9","70.4","NAN","0.0"],
    [1556117,"2026-05-24 20:00:00","8827","0.41100000000000003","149.5","0.6859999999999999","162.0","1025.617","22.99","71.21","NAN","0.0"],
    [1556118,"2026-05-24 20:10:00","8828","0.209","136.3","0.621","127.7","1025.724","23.1","70.24","NAN","0.0"],
    [1556119,"2026-05-24 20:20:00","8829","0.387","124.7","0.621","128.6","1025.8039999999999","23.2","71.05","NAN","0.0"],
    [1556120,"2026-05-24 20:30:00","8830","0.294","120.1","0.49","111.7","1025.95","23.2","70.91","NAN","0.0"],
    [1556121,"2026-05-24 20:40:00","8831","0.475","132.6","0.7509999999999999","124.8","1026.0339999999999","23.26","71.95","NAN","0.0"],
    [1556122,"2026-05-24 20:50:00","8832","0.415","109.4","0.7509999999999999","122.6","1026.22","23.19","74.26","NAN","0.0"],
    [1556123,"2026-05-24 21:00:00","8833","0.35100000000000003","111.1","0.8170000000000001","110.6","1026.297","23.16","75.07","NAN","0.0"],
    [1556124,"2026-05-24 21:10:00","8834","0.361","139.6","0.7509999999999999","144.8","1026.402","23.08","74.96","NAN","0.0"],
    [1556125,"2026-05-24 21:20:00","8835","0.43200000000000005","138.6","0.8170000000000001","139.7","1026.448","23.02","74.31","NAN","0.0"],
    [1556126,"2026-05-24 21:30:00","8836","0.32799999999999996","154.1","0.8490000000000001","183.7","1026.48","22.91","74.87","NAN","0.0"],
    [1556127,"2026-05-24 21:40:00","8837","0.46799999999999997","186.4","0.8170000000000001","189.3","1026.485","22.59","76.02","NAN","0.0"],
    [1556128,"2026-05-24 21:50:00","8838","0.06","185.6","0.523","184.4","1026.558","22.42","77.39","NAN","0.0"],
    [1556129,"2026-05-24 22:00:00","8839","0.0","0.0","0.0","0.0","1026.624","22.49","77.62","NAN","0.0"],
    [1556130,"2026-05-24 22:10:00","8840","0.16899999999999998","174.7","0.555","171.4","1026.606","22.38","79.67","NAN","0.0"],
    [1556131,"2026-05-24 22:20:00","8841","0.131","187.4","0.588","185.6","1026.642","22.13","82.9","NAN","0.0"],
    [1556132,"2026-05-24 22:30:00","8842","0.18899999999999997","90.1","0.7190000000000001","74.83","1026.601","22.12","82.3","NAN","0.0"],
    [1556133,"2026-05-24 22:40:00","8843","0.5870000000000001","77.99","0.8490000000000001","71.25","1026.5","22.45","75.4","NAN","0.0"],
    [1556134,"2026-05-24 22:50:00","8844","0.5720000000000001","76.94","0.98","61.47","1026.4769999999999","22.65","72.42","NAN","0.0"],
    [1556135,"2026-05-24 23:00:00","8845","0.348","120.0","0.621","118.7","1026.404","22.6","73.52","NAN","0.0"],
    [1556136,"2026-05-24 23:10:00","8846","0.27","121.6","0.7190000000000001","92.6","1026.351","22.29","76.96","NAN","0.0"],
    [1556137,"2026-05-24 23:20:00","8847","0.331","152.7","0.7509999999999999","148.2","1026.248","22.11","79.22","NAN","0.0"],
    [1556138,"2026-05-24 23:30:00","8848","0.0","0.0","0.0","0.0","1026.247","21.79","79.72","NAN","0.0"],
    [1556139,"2026-05-24 23:40:00","8849","0.062","132.0","0.523","131.5","1026.25","21.63","80.8","NAN","0.0"],
    [1556140,"2026-05-24 23:50:00","8850","0.20800000000000002","176.2","0.555","172.2","1026.263","21.53","79.47","NAN","0.0"],
    [1556141,"2026-05-25 00:00:00","8851","0.413","190.8","0.7509999999999999","198.8","1026.258","21.52","81.6","NAN","0.0"],
    [1556142,"2026-05-25 00:10:00","8852","0.0","0.0","0.0","0.0","1026.219","21.4","83","NAN","0.0"],
    [1556143,"2026-05-25 00:20:00","8853","0.214","203.6","0.653","202.6","1026.2169999999999","21.39","84.4","NAN","0.0"],
    [1556144,"2026-05-25 00:30:00","8854","0.0","0.0","0.0","0.0","1026.1989999999998","21.31","85.3","NAN","0.0"],
    [1556145,"2026-05-25 00:40:00","8855","0.0","0.0","0.0","0.0","1026.125","21.46","83.3","NAN","0.0"],
    [1556146,"2026-05-25 00:50:00","8856","0.0","0.0","0.0","0.0","1026.006","21.45","82","NAN","0.0"],
    [1556147,"2026-05-25 01:00:00","8857","0.006999999999999999","70.58","0.22899999999999998","70.59","1025.969","21.6","82.2","NAN","0.0"],
    [1556148,"2026-05-25 01:10:00","8858","0.20800000000000002","48.27","1.013","48.55","1025.889","21.21","82.9","NAN","0.0"],
    [1556149,"2026-05-25 01:20:00","8859","0.748","49.89","1.2409999999999999","50.18","1025.992","21.16","71.25","NAN","0.0"],
    [1556150,"2026-05-25 01:30:00","8860","0.446","59.84","0.882","72.07","1026.016","21.41","72.82","NAN","0.0"],
    [1556151,"2026-05-25 01:40:00","8861","0.392","74.85","0.8170000000000001","65.05","1026.005","21.17","66.03","NAN","0.0"],
    [1556152,"2026-05-25 01:50:00","8862","0.262","66.2","0.6859999999999999","62.93","1026.026","21.33","60.6","NAN","0.0"],
    [1556153,"2026-05-25 02:00:00","8863","0.38299999999999995","62.22","0.784","57.07","1026.117","21.3","56.66","NAN","0.0"],
    [1556154,"2026-05-25 02:10:00","8864","0.0","0.0","0.0","0.0","1026.101","21.18","56.39","NAN","0.0"],
    [1556155,"2026-05-25 02:20:00","8865","0.28","56.42","0.7509999999999999","60.89","1026.138","20.95","57.2","NAN","0.0"],
    [1556156,"2026-05-25 02:30:00","8866","0.7170000000000001","61.57","1.339","68.47","1026.079","20.98","55.49","NAN","0.0"],
    [1556157,"2026-05-25 02:40:00","8867","0.851","52.73","1.405","71.46","1026.078","20.89","54.92","NAN","0.0"],
    [1556158,"2026-05-25 02:50:00","8868","0.953","31.47","2.385","30.13","1026.131","20.87","54.36","NAN","0.0"],
    [1556159,"2026-05-25 03:00:00","8869","0.526","28.08","1.176","68.03","1026.086","20.84","54.48","NAN","0.0"],
    [1556160,"2026-05-25 03:10:00","8870","0.603","45.19","1.274","39.11","1026.097","20.8","55.07","NAN","0.0"],
    [1556161,"2026-05-25 03:20:00","8871","0.711","37.26","1.143","43.41","1026.244","20.76","55.59","NAN","0.0"],
    [1556162,"2026-05-25 03:30:00","8872","0.86","39.31","1.535","34.74","1026.211","20.73","55.58","NAN","0.0"],
    [1556163,"2026-05-25 03:40:00","8873","0.9","34.34","1.601","29.68","1026.259","20.61","55.39","NAN","0.0"],
    [1556164,"2026-05-25 03:50:00","8874","0.45799999999999996","39.56","1.2409999999999999","38.13","1026.282","20.53","55.64","NAN","0.0"],
    [1556165,"2026-05-25 04:00:00","8875","0.5379999999999999","42.86","1.078","37.14","1026.272","20.38","56.25","NAN","0.0"],
    [1556166,"2026-05-25 04:10:00","8876","0.63","52.25","0.9470000000000001","30.27","1026.272","20.38","56.51","NAN","0.0"],
    [1556167,"2026-05-25 04:20:00","8877","0.6459999999999999","42.33","1.274","9.52","1026.365","20.23","56.94","NAN","0.0"],
    [1556168,"2026-05-25 04:30:00","8878","0.41100000000000003","24.48","1.307","9.45","1026.4260000000002","20.13","57.39","NAN","0.0"],
    [1556169,"2026-05-25 04:40:00","8879","0.7559999999999999","30.53","1.3719999999999999","26.9","1026.496","20.19","57.02","NAN","0.0"],
    [1556170,"2026-05-25 04:50:00","8880","0.903","28.79","1.4369999999999998","15.31","1026.633","20.26","56.8","NAN","0.0"],
    [1556171,"2026-05-25 05:00:00","8881","0.757","33.83","1.339","33.34","1026.768","20.46","56.44","NAN","0.0"],
    [1556172,"2026-05-25 05:10:00","8882","0.805","28.77","1.568","41.54","1026.775","20.69","55.94","NAN","0.0"],
    [1556173,"2026-05-25 05:20:00","8883","0.711","29.25","1.633","36.6","1026.868","20.82","55.69","NAN","0.0"],
    [1556174,"2026-05-25 05:30:00","8884","0.767","29.65","1.699","2.932","1026.978","21.06","55.28","NAN","0.0"],
    [1556175,"2026-05-25 05:40:00","8885","0.645","33.72","1.699","12.68","1026.9769999999999","21.55","54.3","NAN","0.0"],
    [1556176,"2026-05-25 05:50:00","8886","0.643","22.55","2.123","13.6","1027.067","21.82","53.4","NAN","0.0"],
    [1556177,"2026-05-25 06:00:00","8887","1.0","20.63","2.907","37.54","1027.1860000000001","22.01","52.2","NAN","0.0"],
    [1556178,"2026-05-25 06:10:00","8888","0.856","18.38","2.0580000000000003","350.6","1027.218","22.46","52.44","NAN","0.0"],
    [1556179,"2026-05-25 06:20:00","8889","0.96","6.229","2.221","20.33","1027.193","22.47","53.2","NAN","0.0"],
    [1556180,"2026-05-25 06:30:00","8890","0.885","51.98","1.96","26.71","1027.308","22.9","54.06","NAN","0.0"],
    [1556181,"2026-05-25 06:40:00","8891","1.101","40.24","2.123","28.54","1027.4669999999999","22.74","58.28","NAN","0.0"],
    [1556182,"2026-05-25 06:50:00","8892","0.833","43.2","1.993","68.38","1027.583","22.9","60.52","NAN","0.0"],
    [1556183,"2026-05-25 07:00:00","8893","1.166","54.57","2.679","74.54","1027.69","23.21","60.21","NAN","0.0"],
    [1556184,"2026-05-25 07:10:00","8894","1.244","63.09","2.842","64.49","1027.749","23.44","59.56","NAN","0.0"],
    [1556185,"2026-05-25 07:20:00","8895","1.683","82.4","3.0380000000000003","115.0","1027.874","23.63","58.51","NAN","0.0"],
    [1556186,"2026-05-25 07:30:00","8896","2.141","86.9","3.365","93.4","1027.971","23.38","58.71","NAN","0.0"],
    [1556187,"2026-05-25 07:40:00","8897","2.58","90.4","4.2139999999999995","95.9","1028.028","23.5","54.63","NAN","0.0"],
    [1556188,"2026-05-25 07:50:00","8898","2.39","93.8","3.528","93.8","1028.0410000000002","23.84","52.93","NAN","0.0"],
    [1556189,"2026-05-25 08:00:00","8899","2.431","90.0","3.7889999999999997","101.4","1028.096","23.77","53.07","NAN","0.0"],
    [1556190,"2026-05-25 08:10:00","8900","2.129","88.1","3.6260000000000003","84.0","1028.15","23.75","53.42","NAN","0.0"],
    [1556191,"2026-05-25 08:20:00","8901","2.0380000000000003","90.3","3.136","117.3","1028.16","23.84","54.11","NAN","0.0"],
    [1556192,"2026-05-25 08:30:00","8902","2.052","103.7","3.463","104.1","1028.15","24.19","53.09","NAN","0.0"],
    [1556193,"2026-05-25 08:40:00","8903","2.197","110.4","3.9530000000000003","106.3","1028.15","24.21","52.85","NAN","0.0"],
    [1556194,"2026-05-25 08:50:00","8904","1.7919999999999998","102.6","2.875","87.8","1028.155","24.36","56.37","NAN","0.0"],
    [1556195,"2026-05-25 09:00:00","8905","1.8359999999999999","77.46","2.9730000000000003","80.1","1028.175","24.4","54.55","NAN","0.0"],
    [1556196,"2026-05-25 09:10:00","8906","1.7080000000000002","113.5","3.1689999999999996","114.3","1028.282","24.51","53.11","NAN","0.0"],
    [1556197,"2026-05-25 09:20:00","8907","2.164","107.0","3.6260000000000003","107.3","1028.444","24.23","53","NAN","0.0"],
    [1556198,"2026-05-25 09:30:00","8908","1.607","89.6","3.234","112.8","1028.499","24.41","56.17","NAN","0.0"],
    [1556199,"2026-05-25 09:40:00","8909","1.663","77.84","2.842","70.96","1028.514","24.3","59.08","NAN","0.0"],
    [1556200,"2026-05-25 09:50:00","8910","2.101","98.4","3.659","106.6","1028.569","24","62.66","NAN","0.0"],
    [1556201,"2026-05-25 10:00:00","8911","2.516","106.7","3.985","110.7","1028.634","23.36","67.26","NAN","0.0"],
    [1556202,"2026-05-25 10:10:00","8912","2.248","105.4","3.6260000000000003","81.1","1028.649","23.51","68.58","NAN","0.0"],
    [1556203,"2026-05-25 10:20:00","8913","2.4859999999999998","80.7","3.7239999999999998","72.65","1028.649","23.58","69.37","NAN","0.0"],
    [1556204,"2026-05-25 10:30:00","8914","2.124","85.6","3.855","79.82","1028.641","23.96","67.4","NAN","0.0"],
    [1556205,"2026-05-25 10:40:00","8915","2.27","79.59","3.9530000000000003","65.46","1028.644","23.6","67.55","NAN","0.0"],
    [1556206,"2026-05-25 10:50:00","8916","2.303","83.7","4.181","89.7","1028.639","23.63","69.01","NAN","0.0"],
    [1556207,"2026-05-25 11:00:00","8917","2.324","80.9","3.7239999999999998","72.9","1028.5539999999999","23.67","69.37","NAN","0.0"],
    [1556208,"2026-05-25 11:10:00","8918","2.1590000000000003","93.9","3.6910000000000003","99.6","1028.621","23.78","69.47","NAN","0.0"],
    [1556209,"2026-05-25 11:20:00","8919","2.3409999999999997","113.7","4.1160000000000005","111.6","1028.611","23.5","70.8","NAN","0.0"],
    [1556210,"2026-05-25 11:30:00","8920","2.028","106.6","4.345","113.6","1028.611","24.09","68.97","NAN","0.0"],
    [1556211,"2026-05-25 11:40:00","8921","2.273","115.1","4.051","112.0","1028.514","23.61","70.37","NAN","0.0"],
    [1556212,"2026-05-25 11:50:00","8922","2.271","105.4","3.92","116.9","1028.481","23.47","71.23","NAN","0.0"],
    [1556213,"2026-05-25 12:00:00","8923","2.697","110.8","4.2139999999999995","113.6","1028.412","23.53","70.17","NAN","0.0"],
    [1556214,"2026-05-25 12:10:00","8924","2.6719999999999997","97.6","4.018","117.9","1028.412","23.62","70.77","NAN","0.0"],
    [1556215,"2026-05-25 12:20:00","8925","2.477","92.0","4.051","74.52","1028.407","23.63","72.26","NAN","0.0"],
    [1556216,"2026-05-25 12:30:00","8926","2.122","107.9","4.1160000000000005","108.3","1028.389","23.44","74.74","NAN","0.0"],
    [1556217,"2026-05-25 12:40:00","8927","1.942","111.5","3.397","116.9","1028.285","23.72","74.67","NAN","0.0"],
    [1556218,"2026-05-25 12:50:00","8928","1.8880000000000001","99.5","3.365","107.0","1028.275","23.8","73.84","NAN","0.0"],
    [1556219,"2026-05-25 13:00:00","8929","1.9280000000000002","98.4","3.92","100.6","1028.26","23.85","70.55","NAN","0.0"],
    [1556220,"2026-05-25 13:10:00","8930","2.406","112.5","3.985","98.5","1028.163","23.52","71.67","NAN","0.0"],
    [1556221,"2026-05-25 13:20:00","8931","2.18","113.6","4.051","85.2","1028.153","23.58","71.56","NAN","0.0"],
    [1556222,"2026-05-25 13:30:00","8932","1.982","121.4","3.887","115.9","1028.153","23.85","68.24","NAN","0.0"],
    [1556223,"2026-05-25 13:40:00","8933","1.952","106.2","3.6260000000000003","109.9","1028.153","23.59","68.1","NAN","0.0"],
    [1556224,"2026-05-25 13:50:00","8934","2.063","108.0","3.92","105.7","1028.138","23.78","65.78","NAN","0.0"],
    [1556225,"2026-05-25 14:00:00","8935","2.191","106.7","4.671","103.2","1028.068","23.89","64.96","NAN","0.0"],
    [1556226,"2026-05-25 14:10:00","8936","2.174","113.6","3.528","109.5","1027.983","23.57","64.8","NAN","0.0"],
    [1556227,"2026-05-25 14:20:00","8937","2.117","110.0","3.7239999999999998","99.1","1027.904","23.67","64.46","NAN","0.0"],
    [1556228,"2026-05-25 14:30:00","8938","2.269","102.3","3.985","109.0","1027.846","23.68","64.61","NAN","0.0"],
    [1556229,"2026-05-25 14:40:00","8939","1.919","99.5","3.659","109.1","1027.7839999999999","23.71","64.33","NAN","0.0"],
    [1556230,"2026-05-25 14:50:00","8940","1.8980000000000001","122.9","3.593","104.2","1027.822","23.95","64.14","NAN","0.0"],
    [1556231,"2026-05-25 15:00:00","8941","1.7719999999999998","97.4","2.9730000000000003","112.6","1027.799","24.07","63.99","NAN","0.0"],
    [1556232,"2026-05-25 15:10:00","8942","2.124","102.9","3.659","109.3","1027.7939999999999","23.82","65.71","NAN","0.0"],
    [1556233,"2026-05-25 15:20:00","8943","2.082","108.4","3.9530000000000003","87.4","1027.719","23.74","66.25","NAN","0.0"],
    [1556234,"2026-05-25 15:30:00","8944","2.253","102.3","3.985","105.2","1027.747","23.59","67.34","NAN","0.0"],
    [1556235,"2026-05-25 15:40:00","8945","2.237","97.5","3.887","113.9","1027.7169999999999","23.49","68.01","NAN","0.0"],
    [1556236,"2026-05-25 15:50:00","8946","2.266","118.2","3.985","104.9","1027.652","23.44","68.33","NAN","0.0"],
    [1556237,"2026-05-25 16:00:00","8947","2.1069999999999998","111.9","3.528","105.2","1027.65","23.36","69.65","NAN","0.0"],
    [1556238,"2026-05-25 16:10:00","8948","2.476","112.0","3.6260000000000003","115.9","1027.553","23.18","70.98","NAN","0.0"],
    [1556239,"2026-05-25 16:20:00","8949","2.103","109.0","3.6260000000000003","104.1","1027.42","23.19","71.32","NAN","0.0"],
    [1556240,"2026-05-25 16:30:00","8950","2.176","108.0","3.7889999999999997","110.1","1027.37","23.36","70.31","NAN","0.0"],
    [1556241,"2026-05-25 16:40:00","8951","2.001","98.6","3.463","97.1","1027.224","23.28","68.71","NAN","0.0"],
    [1556242,"2026-05-25 16:50:00","8952","2.2880000000000003","108.1","3.463","107.1","1027.154","23.36","68.53","NAN","0.0"],
    [1556243,"2026-05-25 17:00:00","8953","2.209","109.7","3.136","110.0","1027.105","23.16","68.5","NAN","0.0"],
    [1556244,"2026-05-25 17:10:00","8954","1.469","94.5","3.0380000000000003","115.7","1027.086","23.64","67.2","NAN","0.0"],
    [1556245,"2026-05-25 17:20:00","8955","1.187","87.2","2.385","99.9","1027.0610000000001","23.93","63.28","NAN","0.0"],
    [1556246,"2026-05-25 17:30:00","8956","1.198","104.7","2.0909999999999997","103.7","1027.038","23.92","63.55","NAN","0.0"],
    [1556247,"2026-05-25 17:40:00","8957","1.474","99.8","2.45","122.5","1027.134","23.7","65.13","NAN","0.0"],
    [1556248,"2026-05-25 17:50:00","8958","1.4869999999999999","119.9","2.352","116.4","1027.107","23.44","66.35","NAN","0.0"],
    [1556249,"2026-05-25 18:00:00","8959","1.136","123.5","1.601","103.5","1027.079","23.3","68.66","NAN","0.0"],
    [1556250,"2026-05-25 18:10:00","8960","0.845","126.8","1.2409999999999999","107.5","1027.097","23.3","66.42","NAN","0.0"],
    [1556251,"2026-05-25 18:20:00","8961","0.935","130.7","1.535","133.2","1027.059","23.3","66.46","NAN","0.0"],
    [1556252,"2026-05-25 18:30:00","8962","1.011","126.7","1.47","116.2","1027.0539999999999","23.06","69.39","NAN","0.0"],
    [1556253,"2026-05-25 18:40:00","8963","1.091","131.2","1.633","137.6","1027.094","22.86","71.95","NAN","0.0"],
    [1556254,"2026-05-25 18:50:00","8964","1.006","126.0","1.535","131.2","1027.1","22.64","72.81","NAN","0.0"],
    [1556255,"2026-05-25 19:00:00","8965","0.895","127.7","1.47","139.8","1027.097","22.58","73.09","NAN","0.0"],
    [1556256,"2026-05-25 19:10:00","8966","0.705","131.4","1.176","131.2","1027.087","22.53","75.01","NAN","0.0"],
    [1556257,"2026-05-25 19:20:00","8967","0.591","146.3","1.013","174.4","1027.104","22.58","75.53","NAN","0.0"],
    [1556258,"2026-05-25 19:30:00","8968","0.373","160.9","0.784","174.2","1027.184","22.54","74.38","NAN","0.0"],
    [1556259,"2026-05-25 19:40:00","8969","0.28600000000000003","153.1","0.8170000000000001","125.2","1027.231","22.53","74.26","NAN","0.0"],
    [1556260,"2026-05-25 19:50:00","8970","0.6559999999999999","132.0","1.274","131.8","1027.237","22.52","75.01","NAN","0.0"],
    [1556261,"2026-05-25 20:00:00","8971","0.929","139.2","1.3719999999999999","144.5","1027.275","22.3","78.03","NAN","0.0"],
    [1556262,"2026-05-25 20:10:00","8972","0.9470000000000001","138.2","1.3719999999999999","144.0","1027.316","22.11","79.34","NAN","0.0"],
    [1556263,"2026-05-25 20:20:00","8973","0.623","134.9","1.045","144.4","1027.388","22.04","79.96","NAN","0.0"],
    [1556264,"2026-05-25 20:30:00","8974","0.598","145.0","0.9470000000000001","145.5","1027.469","22.05","80.4","NAN","0.0"],
    [1556265,"2026-05-25 20:40:00","8975","0.447","141.3","0.653","161.2","1027.502","22.11","80.4","NAN","0.0"],
    [1556266,"2026-05-25 20:50:00","8976","0.295","149.9","0.588","143.9","1027.6019999999999","22.12","80.9","NAN","0.0"],
    [1556267,"2026-05-25 21:00:00","8977","0.37200000000000005","180.8","0.882","186.6","1027.625","22.07","81.6","NAN","0.0"],
    [1556268,"2026-05-25 21:10:00","8978","0.55","174.0","0.98","169.5","1027.605","21.92","82.6","NAN","0.0"],
    [1556269,"2026-05-25 21:20:00","8979","0.446","191.3","0.6859999999999999","190.2","1027.529","21.83","83.4","NAN","0.0"],
    [1556270,"2026-05-25 21:30:00","8980","0.23399999999999999","197.1","0.8170000000000001","196.0","1027.509","21.85","83.9","NAN","0.0"],
    [1556271,"2026-05-25 21:40:00","8981","0.718","189.7","1.2409999999999999","201.5","1027.527","21.81","84.9","NAN","0.0"],
    [1556272,"2026-05-25 21:50:00","8982","0.648","178.6","1.013","165.6","1027.513","21.68","85.1","NAN","0.0"],
    [1556273,"2026-05-25 22:00:00","8983","0.158","160.2","0.7509999999999999","180.7","1027.579","21.74","84.6","NAN","0.0"],
    [1556274,"2026-05-25 22:10:00","8984","0.332","173.0","0.588","176.2","1027.557","21.77","84.9","NAN","0.0"],
    [1556275,"2026-05-25 22:20:00","8985","0.428","168.5","0.653","167.5","1027.513","21.66","85.8","NAN","0.0"],
    [1556276,"2026-05-25 22:30:00","8986","0.18100000000000002","187.1","0.588","195.5","1027.5230000000001","21.63","86.4","NAN","0.0"],
    [1556277,"2026-05-25 22:40:00","8987","0.5579999999999999","190.2","0.882","190.2","1027.546","21.58","86.6","NAN","0.0"],
    [1556278,"2026-05-25 22:50:00","8988","0.616","195.6","1.013","195.8","1027.515","21.47","85.6","NAN","0.0"],
    [1556279,"2026-05-25 23:00:00","8989","0.17","186.5","0.98","201.6","1027.502","21.67","82.9","NAN","0.0"],
    [1556280,"2026-05-25 23:10:00","8990","0.195","155.0","0.621","157.2","1027.4080000000001","21.86","80.6","NAN","0.0"],
    [1556281,"2026-05-25 23:20:00","8991","0.099","142.1","0.653","158.6","1027.435","21.8","81.2","NAN","0.0"],
    [1556282,"2026-05-25 23:30:00","8992","0.037000000000000005","119.8","0.294","119.0","1027.4180000000001","21.83","81.1","NAN","0.0"],
    [1556283,"2026-05-25 23:40:00","8993","0.0","0.0","0.0","0.0","1027.385","21.64","83","NAN","0.0"],
    [1556284,"2026-05-25 23:50:00","8994","0.0","0.0","0.0","0.0","1027.2839999999999","21.58","84.2","NAN","0.0"],
    [1556285,"2026-05-26 00:00:00","8995","0.40299999999999997","59.41","1.143","52.63","1027.27","21.57","83.7","NAN","0.0"],
    [1556286,"2026-05-26 00:10:00","8996","0.583","57.08","0.9470000000000001","53.84","1027.256","21.49","79.94","NAN","0.0"],
    [1556287,"2026-05-26 00:20:00","8997","0.727","56.51","1.078","46.0","1027.255","21.4","74.77","NAN","0.0"],
    [1556288,"2026-05-26 00:30:00","8998","0.5920000000000001","54.37","0.915","54.33","1027.193","21.32","67.24","NAN","0.0"],
    [1556289,"2026-05-26 00:40:00","8999","0.327","47.61","1.013","50.87","1027.135","21.36","64.86","NAN","0.0"],
    [1556290,"2026-05-26 00:50:00","9000","0.301","55.83","0.588","54.96","1027.059","21.47","64.68","NAN","0.0"],
    [1556291,"2026-05-26 01:00:00","9001","0.28800000000000003","44.29","0.653","37.2","1027.028","21.47","62.43","NAN","0.0"],
    [1556292,"2026-05-26 01:10:00","9002","0.064","45.26","0.392","35.2","1026.976","21.52","63.15","NAN","0.0"],
    [1556293,"2026-05-26 01:20:00","9003","0.0","0.0","0.0","0.0","1026.815","21.31","62.8","NAN","0.0"],
    [1556294,"2026-05-26 01:30:00","9004","0.0","0.0","0.0","0.0","1026.763","21.12","62.7","NAN","0.0"],
    [1556295,"2026-05-26 01:40:00","9005","0.0","0.0","0.0","0.0","1026.776","21.01","61.89","NAN","0.0"],
    [1556296,"2026-05-26 01:50:00","9006","0.138","185.8","0.555","189.7","1026.715","20.9","65.86","NAN","0.0"],
    [1556297,"2026-05-26 02:00:00","9007","0.0","0.0","0.0","0.0","1026.5510000000002","20.83","69.82","NAN","0.0"],
    [1556298,"2026-05-26 02:10:00","9008","0.0","0.0","0.0","0.0","1026.537","20.8","70.37","NAN","0.0"],
    [1556299,"2026-05-26 02:20:00","9009","0.134","178.7","0.555","182.5","1026.565","20.84","70.22","NAN","0.0"],
    [1556300,"2026-05-26 02:30:00","9010","0.028999999999999998","168.8","0.523","169.6","1026.5410000000002","20.82","71.21","NAN","0.0"],
    [1556301,"2026-05-26 02:40:00","9011","0.0","0.0","0.0","0.0","1026.536","20.66","72.09","NAN","0.0"],
    [1556302,"2026-05-26 02:50:00","9012","0.0","0.0","0.0","0.0","1026.491","20.49","73.67","NAN","0.0"],
    [1556303,"2026-05-26 03:00:00","9013","0.0","0.0","0.0","0.0","1026.425","20.48","76.12","NAN","0.0"],
    [1556304,"2026-05-26 03:10:00","9014","0.377","53.99","0.98","56.9","1026.412","20.41","73.35","NAN","0.0"],
    [1556305,"2026-05-26 03:20:00","9015","0.589","42.29","1.013","51.71","1026.4260000000002","20.56","67.44","NAN","0.0"],
    [1556306,"2026-05-26 03:30:00","9016","0.645","46.69","1.078","59.39","1026.4389999999999","20.54","61.61","NAN","0.0"],
    [1556307,"2026-05-26 03:40:00","9017","0.701","11.24","1.633","1.114","1026.41","20.65","58.34","NAN","0.0"],
    [1556308,"2026-05-26 03:50:00","9018","0.508","346.9","1.045","6.153","1026.312","20.97","55.49","NAN","0.0"],
    [1556309,"2026-05-26 04:00:00","9019","0.26","344.9","0.8170000000000001","332.1","1026.286","21.42","54.2","NAN","0.0"],
    [1556310,"2026-05-26 04:10:00","9020","0.209","4.54","0.653","15.32","1026.281","21.25","54.84","NAN","0.0"],
    [1556311,"2026-05-26 04:20:00","9021","0.542","20.02","1.3719999999999999","45.2","1026.282","20.96","55.26","NAN","0.0"],
    [1556312,"2026-05-26 04:30:00","9022","0.581","347.4","1.2409999999999999","305.8","1026.387","21.12","54.31","NAN","0.0"],
    [1556313,"2026-05-26 04:40:00","9023","0.6890000000000001","353.2","1.3719999999999999","8.19","1026.385","21.16","53.57","NAN","0.0"],
    [1556314,"2026-05-26 04:50:00","9024","0.599","353.6","1.176","352.8","1026.526","21.16","53.87","NAN","0.0"],
    [1556315,"2026-05-26 05:00:00","9025","0.259","346.4","1.045","19.71","1026.58","21.37","53.22","NAN","0.0"],
    [1556316,"2026-05-26 05:10:00","9026","0.209","20.98","0.882","12.64","1026.637","21.81","52.49","NAN","0.0"],
    [1556317,"2026-05-26 05:20:00","9027","0.616","356.8","1.307","356.6","1026.67","21.76","51.44","NAN","0.0"],
    [1556318,"2026-05-26 05:30:00","9028","0.198","307.6","0.784","314.8","1026.7060000000001","22.15","50.55","NAN","0.0"],
    [1556319,"2026-05-26 05:40:00","9029","0.657","193.0","1.078","183.4","1026.6960000000001","22","58.5","NAN","0.0"],
    [1556320,"2026-05-26 05:50:00","9030","0.586","179.7","1.143","181.9","1026.723","21.73","65.63","NAN","0.0"],
    [1556321,"2026-05-26 06:00:00","9031","0.363","167.7","0.7509999999999999","168.4","1026.729","21.93","64.3","NAN","0.0"],
    [1556322,"2026-05-26 06:10:00","9032","0.43799999999999994","193.6","2.0909999999999997","255.3","1026.838","22.3","60.76","NAN","0.0"],
    [1556323,"2026-05-26 06:20:00","9033","0.67","198.4","1.176","156.8","1026.853","22.71","56.28","NAN","0.0"],
    [1556324,"2026-05-26 06:30:00","9034","0.85","114.7","1.274","119.9","1026.872","23.12","55.47","NAN","0.0"],
    [1556325,"2026-05-26 06:40:00","9035","1.2570000000000001","108.8","1.764","114.1","1026.922","22.77","57.9","NAN","0.0"],
    [1556326,"2026-05-26 06:50:00","9036","0.998","134.6","1.5030000000000001","143.6","1026.997","22.56","57.2","NAN","0.0"],
    [1556327,"2026-05-26 07:00:00","9037","1.189","147.1","1.8619999999999999","123.1","1027.0330000000001","22.64","55.5","NAN","0.0"],
    [1556328,"2026-05-26 07:10:00","9038","1.128","145.0","1.764","152.5","1027.069","22.88","53.86","NAN","0.0"],
    [1556329,"2026-05-26 07:20:00","9039","1.043","164.2","1.535","158.7","1027.115","23.05","52.36","NAN","0.0"],
    [1556330,"2026-05-26 07:30:00","9040","0.7190000000000001","190.1","1.209","196.1","1027.155","23.82","51.35","NAN","0.0"],
    [1556331,"2026-05-26 07:40:00","9041","0.508","186.4","1.078","173.8","1027.154","24.31","50.32","NAN","0.0"],
    [1556332,"2026-05-26 07:50:00","9042","0.7190000000000001","160.7","1.209","156.2","1027.154","24.65","49.83","NAN","0.0"],
    [1556333,"2026-05-26 08:00:00","9043","0.9990000000000001","179.3","1.47","182.8","1027.154","24.81","49.24","NAN","0.0"],
    [1556334,"2026-05-26 08:10:00","9044","0.993","193.8","1.7309999999999999","174.1","1027.154","25.42","48.06","NAN","0.0"],
    [1556335,"2026-05-26 08:20:00","9045","1.248","174.1","2.0580000000000003","151.0","1027.154","25.18","47.17","NAN","0.0"],
    [1556336,"2026-05-26 08:30:00","9046","1.9169999999999998","165.7","2.7769999999999997","155.8","1027.154","25.14","45.19","NAN","0.0"],
    [1556337,"2026-05-26 08:40:00","9047","1.5759999999999998","163.0","2.679","181.3","1027.157","25.11","48.75","NAN","0.0"],
    [1556338,"2026-05-26 08:50:00","9048","1.618","163.2","2.7439999999999998","163.6","1027.236","25.26","46.97","NAN","0.0"],
    [1556339,"2026-05-26 09:00:00","9049","1.972","173.5","3.005","169.4","1027.279","25.03","48.86","NAN","0.0"],
    [1556340,"2026-05-26 09:10:00","9050","2.156","177.5","3.6260000000000003","173.9","1027.276","24.83","52.98","NAN","0.0"],
    [1556341,"2026-05-26 09:20:00","9051","2.488","181.2","3.7889999999999997","181.1","1027.279","24.12","57.45","NAN","0.0"],
    [1556342,"2026-05-26 09:30:00","9052","2.627","180.9","3.5610000000000004","174.9","1027.2839999999999","24.07","53.86","NAN","0.0"],
    [1556343,"2026-05-26 09:40:00","9053","2.222","170.0","3.6260000000000003","164.0","1027.286","24.41","54.49","NAN","0.0"],
    [1556344,"2026-05-26 09:50:00","9054","2.4130000000000003","164.3","4.279","157.9","1027.3310000000001","24.42","56.26","NAN","0.0"],
    [1556345,"2026-05-26 10:00:00","9055","2.7939999999999996","164.3","4.508","168.8","1027.388","24.34","58.23","NAN","0.0"],
    [1556346,"2026-05-26 10:10:00","9056","3.2060000000000004","171.3","4.475","155.6","1027.468","23.76","64.36","NAN","0.0"],
    [1556347,"2026-05-26 10:20:00","9057","2.7460000000000004","169.1","4.4430000000000005","166.6","1027.478","23.9","61.49","NAN","0.0"],
    [1556348,"2026-05-26 10:30:00","9058","3.147","172.4","4.737","185.5","1027.4360000000001","23.82","62.16","NAN","0.0"],
    [1556349,"2026-05-26 10:40:00","9059","3.4730000000000003","174.5","4.802","173.9","1027.413","23.48","65.79","NAN","0.0"],
    [1556350,"2026-05-26 10:50:00","9060","3.4589999999999996","172.1","4.769","180.0","1027.378","23.45","65.34","NAN","0.0"],
    [1556351,"2026-05-26 11:00:00","9061","2.946","168.9","4.018","155.4","1027.3310000000001","23.78","63.48","NAN","0.0"],
    [1556352,"2026-05-26 11:10:00","9062","2.75","170.8","3.9530000000000003","178.0","1027.262","24.1","60.79","NAN","0.0"],
    [1556353,"2026-05-26 11:20:00","9063","2.616","169.9","3.6910000000000003","177.9","1027.154","24.28","60.3","NAN","0.0"],
    [1556354,"2026-05-26 11:30:00","9064","2.401","169.0","3.332","153.8","1027.134","25.05","55.96","NAN","0.0"],
    [1556355,"2026-05-26 11:40:00","9065","2.719","171.4","3.9530000000000003","179.5","1027.072","24.76","57.85","NAN","0.0"],
    [1556356,"2026-05-26 11:50:00","9066","2.964","172.9","4.508","182.6","1027.027","24.53","59.38","NAN","0.0"],
    [1556357,"2026-05-26 12:00:00","9067","3.1430000000000002","172.0","4.475","178.3","1026.972","24.34","60.47","NAN","0.0"],
    [1556358,"2026-05-26 12:10:00","9068","3.205","174.5","4.638999999999999","175.7","1026.905","24.17","63.35","NAN","0.0"],
    [1556359,"2026-05-26 12:20:00","9069","3.122","172.8","4.638999999999999","175.6","1026.87","24.2","63.21","NAN","0.0"],
    [1556360,"2026-05-26 12:30:00","9070","2.7739999999999996","169.5","4.1160000000000005","172.2","1026.663","24.36","62.26","NAN","0.0"],
    [1556361,"2026-05-26 12:40:00","9071","2.697","171.1","3.985","172.7","1026.576","24.93","59.6","NAN","0.0"],
    [1556362,"2026-05-26 12:50:00","9072","2.248","168.3","3.397","159.0","1026.427","25.66","53.98","NAN","0.0"],
    [1556363,"2026-05-26 13:00:00","9073","2.306","167.7","3.528","157.1","1026.364","26.27","48.99","NAN","0.0"],
    [1556364,"2026-05-26 13:10:00","9074","2.551","167.8","4.475","178.2","1026.28","26.41","48.77","NAN","0.0"],
    [1556365,"2026-05-26 13:20:00","9075","2.6289999999999996","166.3","3.7569999999999997","159.9","1026.19","26.58","48.44","NAN","0.0"],
    [1556366,"2026-05-26 13:30:00","9076","2.3890000000000002","174.8","4.4430000000000005","174.3","1026.1580000000001","27.27","42.58","NAN","0.0"],
    [1556367,"2026-05-26 13:40:00","9077","2.755","168.1","4.247","178.8","1026.13","27.39","41.36","NAN","0.0"],
    [1556368,"2026-05-26 13:50:00","9078","2.806","168.0","4.149","159.4","1026.105","26.91","45.91","NAN","0.0"],
    [1556369,"2026-05-26 14:00:00","9079","2.853","164.7","4.1160000000000005","147.0","1025.941","26.67","47.65","NAN","0.0"],
    [1556370,"2026-05-26 14:10:00","9080","2.912","166.8","4.2139999999999995","164.0","1025.8210000000001","26.38","49.07","NAN","0.0"],
    [1556371,"2026-05-26 14:20:00","9081","2.947","170.2","4.083","173.7","1025.787","25.9","52.65","NAN","0.0"],
    [1556372,"2026-05-26 14:30:00","9082","3.136","171.5","4.769","182.9","1025.7169999999999","25.42","54.5","NAN","0.0"],
    [1556373,"2026-05-26 14:40:00","9083","2.647","169.7","3.659","176.8","1025.595","25.49","55.29","NAN","0.0"],
    [1556374,"2026-05-26 14:50:00","9084","2.6239999999999997","169.5","4.181","178.3","1025.473","25.6","56.24","NAN","0.0"],
    [1556375,"2026-05-26 15:00:00","9085","2.8939999999999997","172.6","4.41","178.4","1025.425","25.17","58.87","NAN","0.0"],
    [1556376,"2026-05-26 15:10:00","9086","2.755","169.1","4.377","173.7","1025.3039999999999","25.28","59.37","NAN","0.0"],
    [1556377,"2026-05-26 15:20:00","9087","2.673","170.4","3.7889999999999997","179.6","1025.261","25.15","59.77","NAN","0.0"],
    [1556378,"2026-05-26 15:30:00","9088","2.562","166.2","3.659","173.7","1025.164","25.56","57.82","NAN","0.0"],
    [1556379,"2026-05-26 15:40:00","9089","2.7880000000000003","164.7","4.2139999999999995","155.9","1025.137","26.07","53.85","NAN","0.0"],
    [1556380,"2026-05-26 15:50:00","9090","2.886","167.2","4.737","157.5","1025.0539999999999","25.48","60.13","NAN","0.0"],
    [1556381,"2026-05-26 16:00:00","9091","3.043","171.0","4.377","175.5","1024.952","24.9","63.53","NAN","0.0"],
    [1556382,"2026-05-26 16:10:00","9092","2.8489999999999998","170.4","4.2139999999999995","171.7","1024.912","24.73","65.16","NAN","0.0"],
    [1556383,"2026-05-26 16:20:00","9093","2.813","171.3","4.573","155.5","1024.85","24.42","67.44","NAN","0.0"],
    [1556384,"2026-05-26 16:30:00","9094","2.8310000000000004","171.7","4.671","182.6","1024.681","24.42","67.32","NAN","0.0"],
    [1556385,"2026-05-26 16:40:00","9095","3.0180000000000002","171.6","4.41","175.8","1024.667","24.13","70.3","NAN","0.0"],
    [1556386,"2026-05-26 16:50:00","9096","2.7119999999999997","169.0","3.855","181.8","1024.675","24.08","70.09","NAN","0.0"],
    [1556387,"2026-05-26 17:00:00","9097","2.616","167.0","3.92","168.2","1024.687","24.19","69.34","NAN","0.0"],
    [1556388,"2026-05-26 17:10:00","9098","2.668","168.8","3.822","182.9","1024.6680000000001","24.19","70.54","NAN","0.0"],
    [1556389,"2026-05-26 17:20:00","9099","2.653","167.8","4.1160000000000005","175.6","1024.588","24.17","70.67","NAN","0.0"],
    [1556390,"2026-05-26 17:30:00","9100","2.43","169.5","3.855","179.1","1024.61","23.94","72.16","NAN","0.0"],
    [1556391,"2026-05-26 17:40:00","9101","2.575","170.4","3.7889999999999997","175.1","1024.634","23.89","73.06","NAN","0.0"],
    [1556392,"2026-05-26 17:50:00","9102","2.667","173.7","4.181","178.1","1024.654","23.62","75.17","NAN","0.0"],
    [1556393,"2026-05-26 18:00:00","9103","2.148","168.1","3.887","187.7","1024.677","23.73","74.64","NAN","0.0"],
    [1556394,"2026-05-26 18:10:00","9104","2.119","164.6","3.887","148.3","1024.677","23.78","74.73","NAN","0.0"],
    [1556395,"2026-05-26 18:20:00","9105","1.796","164.9","2.842","173.1","1024.685","23.6","75.52","NAN","0.0"],
    [1556396,"2026-05-26 18:30:00","9106","1.7009999999999998","158.4","2.7769999999999997","151.9","1024.663","23.64","74.96","NAN","0.0"],
    [1556397,"2026-05-26 18:40:00","9107","1.514","164.7","2.548","159.2","1024.625","23.52","75.48","NAN","0.0"],
    [1556398,"2026-05-26 18:50:00","9108","1.167","159.9","2.319","153.9","1024.568","23.67","73.01","NAN","0.0"],
    [1556399,"2026-05-26 19:00:00","9109","0.9009999999999999","162.0","1.8619999999999999","185.1","1024.49","23.8","72.55","NAN","0.0"],
    [1556400,"2026-05-26 19:10:00","9110","1.347","161.6","2.287","156.6","1024.49","23.4","76.68","NAN","0.0"],
    [1556401,"2026-05-26 19:20:00","9111","0.72","151.0","1.5030000000000001","159.6","1024.434","23.45","75.64","NAN","0.0"],
    [1556402,"2026-05-26 19:30:00","9112","0.818","150.1","1.339","170.8","1024.393","23.54","73.96","NAN","0.0"],
    [1556403,"2026-05-26 19:40:00","9113","0.618","159.0","1.143","175.3","1024.434","23.45","74.7","NAN","0.0"],
    [1556404,"2026-05-26 19:50:00","9114","0.584","141.9","1.111","151.4","1024.495","23.46","73.98","NAN","0.0"],
    [1556405,"2026-05-26 20:00:00","9115","0.47200000000000003","148.1","1.274","153.4","1024.5819999999999","23.55","72.26","NAN","0.0"],
    [1556406,"2026-05-26 20:10:00","9116","0.9329999999999999","163.2","1.9269999999999998","160.9","1024.715","23.54","74.91","NAN","0.0"],
    [1556407,"2026-05-26 20:20:00","9117","1.067","162.8","1.9269999999999998","145.7","1024.752","23.19","79.38","NAN","0.0"],
    [1556408,"2026-05-26 20:30:00","9118","1.083","160.1","1.666","159.4","1024.881","23.04","81.8","NAN","0.0"],
    [1556409,"2026-05-26 20:40:00","9119","1.2990000000000002","162.7","2.0909999999999997","160.3","1024.992","22.95","83.5","NAN","0.0"],
    [1556410,"2026-05-26 20:50:00","9120","1.402","167.4","2.254","163.1","1024.992","22.79","84.6","NAN","0.0"],
    [1556411,"2026-05-26 21:00:00","9121","0.971","195.6","1.993","197.5","1025.069","22.81","84","NAN","0.0"],
    [1556412,"2026-05-26 21:10:00","9122","0.8690000000000001","194.1","1.601","241.6","1025.015","22.81","82.2","NAN","0.0"],
    [1556413,"2026-05-26 21:20:00","9123","0.691","208.3","1.7309999999999999","187.6","1025.004","22.92","80.8","NAN","0.0"],
    [1556414,"2026-05-26 21:30:00","9124","1.1340000000000001","240.6","3.1689999999999996","234.7","1024.971","23.09","81.6","NAN","0.0"],
    [1556415,"2026-05-26 21:40:00","9125","1.045","237.7","2.907","239.0","1024.912","23.22","79.29","NAN","0.0"],
    [1556416,"2026-05-26 21:50:00","9126","0.7979999999999999","205.4","2.613","213.4","1024.83","23","79.58","NAN","0.0"],
    [1556417,"2026-05-26 22:00:00","9127","0.489","198.5","1.666","191.3","1024.77","22.77","80.6","NAN","0.0"],
    [1556418,"2026-05-26 22:10:00","9128","0.5870000000000001","208.4","2.123","246.8","1024.758","22.67","80.6","NAN","0.0"],
    [1556419,"2026-05-26 22:20:00","9129","0.799","196.5","1.699","222.5","1024.7069999999999","22.59","79.82","NAN","0.0"],
    [1556420,"2026-05-26 22:30:00","9130","0.688","198.8","1.5030000000000001","197.8","1024.5819999999999","22.48","79.04","NAN","0.0"],
    [1556421,"2026-05-26 22:40:00","9131","0.42100000000000004","191.2","1.176","215.8","1024.521","22.61","77.94","NAN","0.0"],
    [1556422,"2026-05-26 22:50:00","9132","0.54","253.8","2.156","235.0","1024.526","22.93","76.71","NAN","0.0"],
    [1556423,"2026-05-26 23:00:00","9133","0.946","240.5","2.352","247.7","1024.422","22.79","76.02","NAN","0.0"],
    [1556424,"2026-05-26 23:10:00","9134","0.256","218.3","0.98","231.6","1024.347","22.73","72.37","NAN","0.0"],
    [1556425,"2026-05-26 23:20:00","9135","0.755","255.8","1.666","265.3","1024.256","22.71","69.61","NAN","0.0"],
    [1556426,"2026-05-26 23:30:00","9136","1.348","249.3","2.6460000000000004","240.6","1024.123","22.83","67.25","NAN","0.0"],
    [1556427,"2026-05-26 23:40:00","9137","1.063","243.8","2.6460000000000004","253.2","1024.0330000000001","22.72","66.45","NAN","0.0"],
    [1556428,"2026-05-26 23:50:00","9138","1.12","235.4","2.254","235.8","1023.918","22.72","65.54","NAN","0.0"],
    [1556429,"2026-05-27 00:00:00","9139","0.953","243.6","1.7309999999999999","238.9","1023.7660000000001","22.68","65.19","NAN","0.0"],
    [1556430,"2026-05-27 00:10:00","9140","0.45399999999999996","232.1","1.5030000000000001","245.5","1023.737","22.64","65.64","NAN","0.0"],
    [1556431,"2026-05-27 00:20:00","9141","0.617","248.7","1.339","247.1","1023.659","22.38","67.34","NAN","0.0"],
    [1556432,"2026-05-27 00:30:00","9142","0.8029999999999999","228.2","1.4369999999999998","236.1","1023.558","22.53","65.9","NAN","0.0"],
    [1556433,"2026-05-27 00:40:00","9143","0.354","232.7","0.915","256.0","1023.4739999999999","22.37","67.74","NAN","0.0"],
    [1556434,"2026-05-27 00:50:00","9144","0.47700000000000004","213.5","1.209","195.9","1023.3610000000001","22.31","67.9","NAN","0.0"],
    [1556435,"2026-05-27 01:00:00","9145","0.9009999999999999","190.2","1.47","199.8","1023.288","21.73","69.45","NAN","0.0"],
    [1556436,"2026-05-27 01:10:00","9146","0.07","152.5","0.621","172.1","1023.27","21.84","66.39","NAN","0.0"],
    [1556437,"2026-05-27 01:20:00","9147","0.094","184.5","0.49","186.3","1023.1510000000001","21.81","69.22","NAN","0.0"],
    [1556438,"2026-05-27 01:30:00","9148","0.079","181.5","0.49","173.2","1023.049","21.39","71.98","NAN","0.0"],
    [1556439,"2026-05-27 01:40:00","9149","0.235","185.5","0.8170000000000001","182.6","1022.923","21.24","70.03","NAN","0.0"],
    [1556440,"2026-05-27 01:50:00","9150","0.49200000000000005","190.3","0.915","182.7","1022.794","21.06","70.22","NAN","0.0"],
    [1556441,"2026-05-27 02:00:00","9151","0.055","206.7","0.621","231.0","1022.702","20.87","68.67","NAN","0.0"],
    [1556442,"2026-05-27 02:10:00","9152","0.076","165.9","0.359","176.7","1022.6489999999999","21.01","67.34","NAN","0.0"],
    [1556443,"2026-05-27 02:20:00","9153","0.0","0.0","0.0","0.0","1022.579","21.03","65.17","NAN","0.0"],
    [1556444,"2026-05-27 02:30:00","9154","0.004","239.1","0.294","241.3","1022.488","21.1","64.81","NAN","0.0"],
    [1556445,"2026-05-27 02:40:00","9155","0.258","185.5","0.915","186.7","1022.3960000000001","21","65.16","NAN","0.0"],
    [1556446,"2026-05-27 02:50:00","9156","0.301","182.4","0.784","190.8","1022.305","20.8","64.53","NAN","0.0"],
    [1556447,"2026-05-27 03:00:00","9157","0.326","204.0","0.882","209.2","1022.304","20.86","62.07","NAN","0.0"],
    [1556448,"2026-05-27 03:10:00","9158","0.68","199.2","1.045","198.0","1022.2760000000001","20.95","62","NAN","0.0"],
    [1556449,"2026-05-27 03:20:00","9159","0.449","203.6","0.915","197.0","1022.153","20.88","62","NAN","0.0"],
    [1556450,"2026-05-27 03:30:00","9160","0.682","196.4","0.98","184.5","1022.079","20.71","63.96","NAN","0.0"],
    [1556451,"2026-05-27 03:40:00","9161","0.28","180.3","0.6859999999999999","196.2","1022.051","20.58","65.62","NAN","0.0"],
    [1556452,"2026-05-27 03:50:00","9162","0.239","198.4","0.882","239.4","1022.055","20.64","65.25","NAN","0.0"],
    [1556453,"2026-05-27 04:00:00","9163","0.526","253.1","1.797","249.3","1022.059","20.81","59.35","NAN","0.0"],
    [1556454,"2026-05-27 04:10:00","9164","0.55","241.1","1.4369999999999998","248.3","1022.066","21.57","52.07","NAN","0.0"],
    [1556455,"2026-05-27 04:20:00","9165","0.068","183.0","0.49","172.6","1022.2","21.35","56.86","NAN","0.0"],
    [1556456,"2026-05-27 04:30:00","9166","0.15","169.1","0.49","181.7","1022.1089999999999","20.88","60.35","NAN","0.0"],
    [1556457,"2026-05-27 04:40:00","9167","0.091","152.3","0.621","151.4","1022.138","20.63","63.74","NAN","0.0"],
    [1556458,"2026-05-27 04:50:00","9168","0.065","171.6","0.7190000000000001","172.0","1022.155","20.3","64.78","NAN","0.0"],
    [1556459,"2026-05-27 05:00:00","9169","0.0","0.0","0.0","0.0","1022.1619999999999","20.3","65.35","NAN","0.0"],
    [1556460,"2026-05-27 05:10:00","9170","0.16899999999999998","132.7","0.915","136.2","1022.172","20.76","62.41","NAN","0.0"],
    [1556461,"2026-05-27 05:20:00","9171","0.322","131.4","0.8170000000000001","144.2","1022.174","20.91","62.59","NAN","0.0"],
    [1556462,"2026-05-27 05:30:00","9172","0.278","159.7","0.784","173.7","1022.205","21.07","60.58","NAN","0.0"],
    [1556463,"2026-05-27 05:40:00","9173","0.643","167.9","1.111","170.3","1022.243","21.32","58.35","NAN","0.0"],
    [1556464,"2026-05-27 05:50:00","9174","0.424","162.4","0.8170000000000001","148.1","1022.289","21.39","57.34","NAN","0.0"],
    [1556465,"2026-05-27 06:00:00","9175","0.7170000000000001","164.0","1.111","171.1","1022.3789999999999","21.39","57.65","NAN","0.0"],
    [1556466,"2026-05-27 06:10:00","9176","0.5670000000000001","123.0","0.915","153.9","1022.4910000000001","21.64","60.62","NAN","0.0"],
    [1556467,"2026-05-27 06:20:00","9177","0.5760000000000001","128.3","0.9470000000000001","113.8","1022.556","21.95","58.08","NAN","0.0"],
    [1556468,"2026-05-27 06:30:00","9178","0.532","103.9","0.98","115.7","1022.6389999999999","22.39","55.84","NAN","0.0"],
    [1556469,"2026-05-27 06:40:00","9179","0.672","122.6","1.307","112.0","1022.674","22.36","54.78","NAN","0.0"],
    [1556470,"2026-05-27 06:50:00","9180","1.068","102.6","1.5030000000000001","112.9","1022.671","22.45","54.75","NAN","0.0"],
    [1556471,"2026-05-27 07:00:00","9181","0.885","121.4","1.274","105.0","1022.682","22.72","53.04","NAN","0.0"],
    [1556472,"2026-05-27 07:10:00","9182","0.8690000000000001","123.1","1.405","113.1","1022.699","22.66","53.06","NAN","0.0"],
    [1556473,"2026-05-27 07:20:00","9183","1.032","117.7","1.535","128.2","1022.752","23.32","50.99","NAN","0.0"],
    [1556474,"2026-05-27 07:30:00","9184","1.237","104.5","1.829","93.3","1022.7810000000001","23.62","50.81","NAN","0.0"],
    [1556475,"2026-05-27 07:40:00","9185","1.304","117.5","1.797","100.5","1022.755","24.12","49.04","NAN","0.0"],
    [1556476,"2026-05-27 07:50:00","9186","1.26","123.3","1.9269999999999998","155.2","1022.686","24.28","49.29","NAN","0.0"],
    [1556477,"2026-05-27 08:00:00","9187","0.716","149.0","2.025","203.8","1022.671","25.82","44.39","NAN","0.0"],
    [1556478,"2026-05-27 08:10:00","9188","1.065","213.0","2.7769999999999997","219.9","1022.683","26.52","39.78","NAN","0.0"],
    [1556479,"2026-05-27 08:20:00","9189","1.579","205.6","2.8089999999999997","192.6","1022.671","26.4","40.04","NAN","0.0"],
    [1556480,"2026-05-27 08:30:00","9190","1.636","219.1","3.593","213.9","1022.671","26.65","40.04","NAN","0.0"],
    [1556481,"2026-05-27 08:40:00","9191","2.022","217.0","3.985","239.9","1022.671","26.72","40.82","NAN","0.0"],
    [1556482,"2026-05-27 08:50:00","9192","1.77","216.7","4.018","194.4","1022.653","27.07","40.96","NAN","0.0"],
    [1556483,"2026-05-27 09:00:00","9193","1.6569999999999998","216.1","3.7889999999999997","228.1","1022.569","27.35","41.77","NAN","0.0"],
    [1556484,"2026-05-27 09:10:00","9194","1.413","205.9","3.267","216.9","1022.451","27.72","44.19","NAN","0.0"],
    [1556485,"2026-05-27 09:20:00","9195","1.469","206.2","4.247","180.4","1022.419","27.78","42.03","NAN","0.0"],
    [1556486,"2026-05-27 09:30:00","9196","1.7309999999999999","204.0","3.92","211.2","1022.3989999999999","28.22","40.07","NAN","0.0"],
    [1556487,"2026-05-27 09:40:00","9197","2.077","192.6","4.671","196.9","1022.302","27.93","40.16","NAN","0.0"],
    [1556488,"2026-05-27 09:50:00","9198","2.211","201.8","5.031000000000001","194.8","1022.26","27.93","39.48","NAN","0.0"],
    [1556489,"2026-05-27 10:00:00","9199","2.456","197.3","4.933","199.3","1022.183","28.21","38.01","NAN","0.0"],
    [1556490,"2026-05-27 10:10:00","9200","2.5860000000000003","198.0","5.292000000000001","195.3","1022.173","28.27","36.83","NAN","0.0"],
    [1556491,"2026-05-27 10:20:00","9201","2.052","199.5","4.573","166.7","1022.173","28.53","35.27","NAN","0.0"],
    [1556492,"2026-05-27 10:30:00","9202","2.276","199.2","4.541","208.9","1022.16","28.88","33.86","NAN","0.0"],
    [1556493,"2026-05-27 10:40:00","9203","2.5860000000000003","200.1","5.357","170.9","1022.0880000000001","28.72","33.69","NAN","0.0"],
    [1556494,"2026-05-27 10:50:00","9204","2.7260000000000004","192.1","5.1610000000000005","169.3","1021.931","28.68","33.71","NAN","0.0"],
    [1556495,"2026-05-27 11:00:00","9205","2.345","198.8","5.586","185.0","1021.8610000000001","28.7","34.16","NAN","0.0"],
    [1556496,"2026-05-27 11:10:00","9206","2.202","194.1","4.769","167.1","1021.757","28.89","34.57","NAN","0.0"],
    [1556497,"2026-05-27 11:20:00","9207","2.417","196.2","5.194","174.9","1021.697","28.78","34.87","NAN","0.0"],
    [1556498,"2026-05-27 11:30:00","9208","2.635","190.8","4.802","167.0","1021.66","28.34","36.66","NAN","0.0"],
    [1556499,"2026-05-27 11:40:00","9209","3.085","187.6","5.521","181.0","1021.57","28.18","37.76","NAN","0.0"],
    [1556500,"2026-05-27 11:50:00","9210","2.5660000000000003","185.7","4.965","180.3","1021.4680000000001","28.08","39.88","NAN","0.0"],
    [1556501,"2026-05-27 12:00:00","9211","2.572","185.9","4.573","223.4","1021.418","28.07","40.97","NAN","0.0"],
    [1556502,"2026-05-27 12:10:00","9212","2.449","183.0","4.965","161.7","1021.3380000000001","28.02","41.79","NAN","0.0"],
    [1556503,"2026-05-27 12:20:00","9213","2.76","181.2","4.475","205.2","1021.301","27.91","42.13","NAN","0.0"],
    [1556504,"2026-05-27 12:30:00","9214","2.6069999999999998","184.1","4.835","181.0","1021.216","27.77","44.12","NAN","0.0"],
    [1556505,"2026-05-27 12:40:00","9215","2.475","190.0","4.998","215.3","1021.176","27.89","43.03","NAN","0.0"],
    [1556506,"2026-05-27 12:50:00","9216","2.855","191.9","7.6770000000000005","179.6","1021.1560000000001","27.73","44","NAN","0.0"],
    [1556507,"2026-05-27 13:00:00","9217","2.9139999999999997","198.2","5.586","175.5","1021.112","27.91","42.46","NAN","0.0"],
    [1556508,"2026-05-27 13:10:00","9218","2.929","197.1","5.88","199.4","1021.012","28.05","40.68","NAN","0.0"],
    [1556509,"2026-05-27 13:20:00","9219","3.1060000000000003","199.3","6.0760000000000005","189.6","1020.9169999999999","28.17","39.1","NAN","0.0"],
    [1556510,"2026-05-27 13:30:00","9220","3.034","194.6","5.553","199.4","1020.748","28.04","40.03","NAN","0.0"],
    [1556511,"2026-05-27 13:40:00","9221","3.179","197.4","6.827000000000001","196.7","1020.663","28.17","38.74","NAN","0.0"],
    [1556512,"2026-05-27 13:50:00","9222","3.312","196.5","5.945","192.2","1020.5110000000001","28.05","38.38","NAN","0.0"],
    [1556513,"2026-05-27 14:00:00","9223","3.239","200.2","6.109","203.3","1020.3489999999999","28.07","38.16","NAN","0.0"],
    [1556514,"2026-05-27 14:10:00","9224","2.353","197.8","5.912999999999999","203.3","1020.2669999999999","28.26","41.17","NAN","0.0"],
    [1556515,"2026-05-27 14:20:00","9225","2.218","197.8","5.521","196.0","1020.18","28.4","41.73","NAN","0.0"],
    [1556516,"2026-05-27 14:30:00","9226","2.165","201.4","4.933","201.9","1020.0930000000001","28.29","43.28","NAN","0.0"],
    [1556517,"2026-05-27 14:40:00","9227","1.929","204.8","5.325","203.3","1019.966","28.66","42.5","NAN","0.0"],
    [1556518,"2026-05-27 14:50:00","9228","1.905","204.9","4.051","201.7","1019.8560000000001","28.64","42.96","NAN","0.0"],
    [1556519,"2026-05-27 15:00:00","9229","1.8119999999999998","216.3","4.508","202.8","1019.702","28.68","43.15","NAN","0.0"],
    [1556520,"2026-05-27 15:10:00","9230","1.615","221.1","3.985","202.6","1019.674","29.06","42.35","NAN","0.0"],
    [1556521,"2026-05-27 15:20:00","9231","2.918","197.7","5.684","201.4","1019.57","28.05","45.7","NAN","0.0"],
    [1556522,"2026-05-27 15:30:00","9232","2.966","194.2","5.063","179.7","1019.497","27.37","48.75","NAN","0.0"],
    [1556523,"2026-05-27 15:40:00","9233","2.8339999999999996","198.4","5.227","210.4","1019.428","27.09","50.09","NAN","0.0"],
    [1556524,"2026-05-27 15:50:00","9234","1.861","203.5","4.606","207.8","1019.43","27.49","49.29","NAN","0.0"],
    [1556525,"2026-05-27 16:00:00","9235","2.097","198.9","4.737","186.5","1019.3530000000001","27.43","49.62","NAN","0.0"],
    [1556526,"2026-05-27 16:10:00","9236","1.9280000000000002","216.1","4.508","214.5","1019.248","28.02","45.36","NAN","0.0"],
    [1556527,"2026-05-27 16:20:00","9237","2.237","214.1","5.194","214.3","1019.184","28.07","45.76","NAN","0.0"],
    [1556528,"2026-05-27 16:30:00","9238","1.867","212.5","4.606","207.3","1019.1339999999999","27.87","46.68","NAN","0.0"],
    [1556529,"2026-05-27 16:40:00","9239","2.2319999999999998","216.8","4.606","193.9","1019.046","27.53","47.77","NAN","0.0"],
    [1556530,"2026-05-27 16:50:00","9240","2.174","191.7","4.4430000000000005","192.5","1018.9069999999999","26.91","50.85","NAN","0.0"],
    [1556531,"2026-05-27 17:00:00","9241","1.305","194.8","4.247","241.5","1018.798","27.04","49","NAN","0.0"],
    [1556532,"2026-05-27 17:10:00","9242","1.8980000000000001","198.1","4.181","206.1","1018.773","27.19","47.47","NAN","0.0"],
    [1556533,"2026-05-27 17:20:00","9243","1.4409999999999998","201.9","3.7239999999999998","216.1","1018.7130000000001","27.14","48.09","NAN","0.0"],
    [1556534,"2026-05-27 17:30:00","9244","1.8519999999999999","200.7","3.6910000000000003","211.9","1018.689","27.1","48.49","NAN","0.0"],
    [1556535,"2026-05-27 17:40:00","9245","1.995","202.8","3.822","214.8","1018.69","27","48","NAN","0.0"],
    [1556536,"2026-05-27 17:50:00","9246","1.614","224.8","4.1160000000000005","261.8","1018.691","27.1","47.88","NAN","0.0"],
    [1556537,"2026-05-27 18:00:00","9247","1.37","219.1","3.659","228.7","1018.691","27.4","46.76","NAN","0.0"],
    [1556538,"2026-05-27 18:10:00","9248","1.6","218.6","3.43","238.5","1018.696","27.09","47.52","NAN","0.0"],
    [1556539,"2026-05-27 18:20:00","9249","1.524","224.1","4.018","216.9","1018.691","26.82","48.15","NAN","0.0"],
    [1556540,"2026-05-27 18:30:00","9250","1.64","236.3","4.4430000000000005","246.7","1018.703","26.59","48","NAN","0.0"],
    [1556541,"2026-05-27 18:40:00","9251","1.286","219.6","3.1689999999999996","217.8","1018.7280000000001","26.56","47.57","NAN","0.0"],
    [1556542,"2026-05-27 18:50:00","9252","1.123","226.4","2.7769999999999997","207.6","1018.7410000000001","26.41","47.91","NAN","0.0"],
    [1556543,"2026-05-27 19:00:00","9253","0.971","226.7","2.613","244.5","1018.845","26.24","48.84","NAN","0.0"],
    [1556544,"2026-05-27 19:10:00","9254","1.04","212.9","2.7439999999999998","213.3","1018.9010000000001","26","49.52","NAN","0.0"],
    [1556545,"2026-05-27 19:20:00","9255","1.3130000000000002","218.8","2.9730000000000003","238.2","1019.005","25.74","49.6","NAN","0.0"],
    [1556546,"2026-05-27 19:30:00","9256","1.237","224.9","3.6260000000000003","234.9","1019.039","25.58","49.91","NAN","0.0"],
    [1556547,"2026-05-27 19:40:00","9257","1.32","246.7","2.842","241.3","1019.2130000000001","25.5","50.1","NAN","0.0"],
    [1556548,"2026-05-27 19:50:00","9258","0.8270000000000001","226.8","1.993","235.9","1019.27","25.38","50.84","NAN","0.0"],
    [1556549,"2026-05-27 20:00:00","9259","1.568","249.7","3.071","238.7","1019.3589999999999","25.29","50.63","NAN","0.0"],
    [1556550,"2026-05-27 20:10:00","9260","1.145","234.2","2.156","252.0","1019.4110000000001","25.29","50.36","NAN","0.0"],
    [1556551,"2026-05-27 20:20:00","9261","1.294","236.6","2.842","237.2","1019.485","25.27","50.47","NAN","0.0"],
    [1556552,"2026-05-27 20:30:00","9262","1.295","230.3","2.5810000000000004","234.6","1019.557","25.14","50.73","NAN","0.0"],
    [1556553,"2026-05-27 20:40:00","9263","0.703","208.4","1.666","220.5","1019.561","24.96","52.09","NAN","0.0"],
    [1556554,"2026-05-27 20:50:00","9264","0.934","231.5","2.156","234.9","1019.632","24.69","52.59","NAN","0.0"],
    [1556555,"2026-05-27 21:00:00","9265","0.503","203.4","1.045","224.2","1019.654","24.72","53.28","NAN","0.0"],
    [1556556,"2026-05-27 21:10:00","9266","0.516","213.7","1.274","202.3","1019.6260000000001","24.17","55.2","NAN","0.0"],
    [1556557,"2026-05-27 21:20:00","9267","0.423","235.6","1.47","274.5","1019.556","24.48","52.6","NAN","0.0"],
    [1556558,"2026-05-27 21:30:00","9268","0.88","248.1","2.45","224.7","1019.543","24.74","51.34","NAN","0.0"],
    [1556559,"2026-05-27 21:40:00","9269","1.011","252.3","2.123","273.1","1019.552","24.79","50.85","NAN","0.0"],
    [1556560,"2026-05-27 21:50:00","9270","1.105","237.5","2.287","240.5","1019.443","24.65","51.17","NAN","0.0"],
    [1556561,"2026-05-27 22:00:00","9271","0.516","200.6","1.176","201.9","1019.422","24.08","54.73","NAN","0.0"],
    [1556562,"2026-05-27 22:10:00","9272","0.575","238.0","1.47","233.9","1019.41","23.98","54.08","NAN","0.0"],
    [1556563,"2026-05-27 22:20:00","9273","0.669","251.2","1.601","218.0","1019.329","24.46","51.83","NAN","0.0"],
    [1556564,"2026-05-27 22:30:00","9274","0.502","216.7","1.013","267.1","1019.312","24.13","53.92","NAN","0.0"],
    [1556565,"2026-05-27 22:40:00","9275","1.06","263.9","2.254","265.1","1019.305","24","53.06","NAN","0.0"],
    [1556566,"2026-05-27 22:50:00","9276","1.3219999999999998","254.8","2.842","240.7","1019.293","24.06","52.13","NAN","0.0"],
    [1556567,"2026-05-27 23:00:00","9277","1.595","240.0","2.7110000000000003","236.3","1019.273","23.81","52.64","NAN","0.0"],
    [1556568,"2026-05-27 23:10:00","9278","1.275","241.1","2.679","254.1","1019.1669999999999","23.71","52.87","NAN","0.0"],
    [1556569,"2026-05-27 23:20:00","9279","0.631","239.4","1.797","259.0","1019.1210000000001","23.73","52.4","NAN","0.0"],
    [1556570,"2026-05-27 23:30:00","9280","0.505","230.9","1.535","242.6","1019.079","23.69","52.42","NAN","0.0"],
    [1556571,"2026-05-27 23:40:00","9281","0.8190000000000001","261.0","1.699","249.6","1019.044","23.68","51.54","NAN","0.0"],
    [1556572,"2026-05-27 23:50:00","9282","1.167","259.6","2.221","248.9","1018.924","23.68","51.25","NAN","0.0"],
    [1556573,"2026-05-28 00:00:00","9283","0.84","243.4","1.7309999999999999","242.7","1018.827","23.65","51.41","NAN","0.0"],
    [1556574,"2026-05-28 00:10:00","9284","0.43700000000000006","241.3","1.535","237.7","1018.803","23.74","51.04","NAN","0.0"],
    [1556575,"2026-05-28 00:20:00","9285","0.7959999999999999","231.8","1.568","234.5","1018.811","23.52","52.02","NAN","0.0"],
    [1556576,"2026-05-28 00:30:00","9286","0.7290000000000001","231.5","1.666","236.0","1018.752","23.37","52.45","NAN","0.0"],
    [1556577,"2026-05-28 00:40:00","9287","0.5920000000000001","217.3","1.764","245.8","1018.61","23.32","53.18","NAN","0.0"],
    [1556578,"2026-05-28 00:50:00","9288","0.537","199.2","0.9470000000000001","208.6","1018.5939999999999","22.46","59.99","NAN","0.0"],
    [1556579,"2026-05-28 01:00:00","9289","0.40399999999999997","189.9","0.6859999999999999","187.2","1018.552","22.14","59.09","NAN","0.0"],
    [1556580,"2026-05-28 01:10:00","9290","0.335","177.0","0.915","180.9","1018.462","22.08","59.66","NAN","0.0"],
    [1556581,"2026-05-28 01:20:00","9291","0.062","182.8","0.392","181.4","1018.452","22.26","58.22","NAN","0.0"],
    [1556582,"2026-05-28 01:30:00","9292","0.111","182.5","0.8170000000000001","185.1","1018.433","22.21","58.22","NAN","0.0"],
    [1556583,"2026-05-28 01:40:00","9293","0.586","193.8","1.045","200.7","1018.433","21.99","60.02","NAN","0.0"],
    [1556584,"2026-05-28 01:50:00","9294","0.256","296.9","1.339","260.7","1018.335","22.08","57.61","NAN","0.0"],
    [1556585,"2026-05-28 02:00:00","9295","0.6679999999999999","270.7","1.5030000000000001","260.9","1018.328","23.02","51.9","NAN","0.0"],
    [1556586,"2026-05-28 02:10:00","9296","0.573","246.2","1.535","253.5","1018.318","23.19","52.43","NAN","0.0"],
    [1556587,"2026-05-28 02:20:00","9297","0.633","190.5","1.209","198.6","1018.31","22.1","61.53","NAN","0.0"],
    [1556588,"2026-05-28 02:30:00","9298","0.272","179.2","1.045","207.1","1018.2439999999999","21.65","60.36","NAN","0.0"],
    [1556589,"2026-05-28 02:40:00","9299","0.631","150.7","1.307","65.09","1018.122","21.75","60.11","NAN","0.0"],
    [1556590,"2026-05-28 02:50:00","9300","0.73","253.7","2.123","276.9","1018.005","22.52","53.31","NAN","0.0"],
    [1556591,"2026-05-28 03:00:00","9301","0.6579999999999999","289.9","1.7309999999999999","297.1","1018.06","22.93","50.95","NAN","0.0"],
    [1556592,"2026-05-28 03:10:00","9302","0.6729999999999999","287.2","1.535","298.2","1017.956","23.12","50.81","NAN","0.0"],
    [1556593,"2026-05-28 03:20:00","9303","0.68","296.1","1.829","308.9","1017.846","23.21","50.78","NAN","0.0"],
    [1556594,"2026-05-28 03:30:00","9304","0.37799999999999995","299.2","1.2409999999999999","315.7","1017.837","23.35","50.61","NAN","0.0"],
    [1556595,"2026-05-28 03:40:00","9305","0.22699999999999998","344.0","1.045","322.3","1017.813","23.22","51.13","NAN","0.0"],
    [1556596,"2026-05-28 03:50:00","9306","0.408","51.92","0.8490000000000001","52.17","1017.814","22.64","54.58","NAN","0.0"],
    [1556597,"2026-05-28 04:00:00","9307","0.195","61.75","0.7190000000000001","78.72","1017.872","22.46","56.45","NAN","0.0"],
    [1556598,"2026-05-28 04:10:00","9308","0.706","206.2","1.143","182.9","1017.97","21.99","61.73","NAN","0.0"],
    [1556599,"2026-05-28 04:20:00","9309","0.555","205.4","0.9470000000000001","213.8","1018.061","21.53","64.15","NAN","0.0"],
    [1556600,"2026-05-28 04:30:00","9310","0.489","189.4","0.8490000000000001","192.8","1018.061","21.38","63.87","NAN","0.0"],
    [1556601,"2026-05-28 04:40:00","9311","0.257","182.8","0.9470000000000001","184.0","1018.076","21.39","63.2","NAN","0.0"],
    [1556602,"2026-05-28 04:50:00","9312","0.18600000000000003","66.68","0.653","75.47","1018.186","21.52","63.43","NAN","0.0"],
    [1556603,"2026-05-28 05:00:00","9313","0.21100000000000002","48.95","0.653","21.15","1018.191","21.99","60.27","NAN","0.0"],
    [1556604,"2026-05-28 05:10:00","9314","0.23399999999999999","25.5","0.8170000000000001","38.34","1018.28","22.6","56.81","NAN","0.0"],
    [1556605,"2026-05-28 05:20:00","9315","0.446","36.7","1.045","29.07","1018.3","22.79","57.66","NAN","0.0"],
    [1556606,"2026-05-28 05:30:00","9316","0.252","52.5","0.7509999999999999","64.18","1018.2869999999999","23.27","55.86","NAN","0.0"],
    [1556607,"2026-05-28 05:40:00","9317","0.009000000000000001","97.4","0.261","97.9","1018.3510000000001","24.19","53.19","NAN","0.0"],
    [1556608,"2026-05-28 05:50:00","9318","0.32","150.6","0.784","184.6","1018.3689999999999","23.91","53.17","NAN","0.0"],
    [1556609,"2026-05-28 06:00:00","9319","0.608","182.5","1.2409999999999999","181.2","1018.383","23.32","58.17","NAN","0.0"],
    [1556610,"2026-05-28 06:10:00","9320","0.603","171.8","1.2409999999999999","171.9","1018.4939999999999","23.28","57.29","NAN","0.0"],
    [1556611,"2026-05-28 06:20:00","9321","0.902","165.2","1.274","174.3","1018.6010000000001","23.25","56.62","NAN","0.0"],
    [1556612,"2026-05-28 06:30:00","9322","0.8140000000000001","147.1","1.2409999999999999","110.3","1018.697","23.47","55.14","NAN","0.0"],
    [1556613,"2026-05-28 06:40:00","9323","0.9670000000000001","104.6","1.339","114.6","1018.695","23.76","53.23","NAN","0.0"],
    [1556614,"2026-05-28 06:50:00","9324","0.67","91.5","1.078","104.5","1018.763","24.25","50.59","NAN","0.0"],
    [1556615,"2026-05-28 07:00:00","9325","0.737","97.1","1.339","112.0","1018.821","24.9","48.37","NAN","0.0"],
    [1556616,"2026-05-28 07:10:00","9326","1.065","114.0","1.5030000000000001","108.3","1018.89","25.17","47.69","NAN","0.0"],
    [1556617,"2026-05-28 07:20:00","9327","1.347","116.6","2.025","108.7","1018.966","25.08","48.01","NAN","0.0"],
    [1556618,"2026-05-28 07:30:00","9328","0.795","105.1","1.2409999999999999","113.3","1018.936","25.5","46.55","NAN","0.0"],
    [1556619,"2026-05-28 07:40:00","9329","0.688","108.8","1.143","83.1","1018.935","26.41","43.85","NAN","0.0"],
    [1556620,"2026-05-28 07:50:00","9330","1.3359999999999999","105.8","2.319","112.6","1018.935","26.76","43.61","NAN","0.0"],
    [1556621,"2026-05-28 08:00:00","9331","1.2009999999999998","98.9","2.0909999999999997","100.4","1018.962","26.98","43.08","NAN","0.0"],
    [1556622,"2026-05-28 08:10:00","9332","1.214","119.2","1.797","118.8","1019.084","26.7","44.69","NAN","0.0"],
    [1556623,"2026-05-28 08:20:00","9333","1.27","148.7","2.156","155.8","1019.077","26.17","46.38","NAN","0.0"],
    [1556624,"2026-05-28 08:30:00","9334","1.104","150.4","1.8619999999999999","110.5","1019.0419999999999","26.95","45.37","NAN","0.0"],
    [1556625,"2026-05-28 08:40:00","9335","1.229","178.7","1.797","167.4","1018.957","26.48","48.98","NAN","0.0"],
    [1556626,"2026-05-28 08:50:00","9336","0.882","155.8","1.666","178.4","1019.0269999999999","27.21","46.65","NAN","0.0"],
    [1556627,"2026-05-28 09:00:00","9337","1.2229999999999999","178.6","2.156","184.4","1019.034","27.34","48.78","NAN","0.0"],
    [1556628,"2026-05-28 09:10:00","9338","0.975","159.0","2.0580000000000003","149.6","1019.069","27.61","51.49","NAN","0.0"],
    [1556629,"2026-05-28 09:20:00","9339","1.1640000000000001","152.9","2.613","153.9","1019.055","28.5","49.34","NAN","0.0"],
    [1556630,"2026-05-28 09:30:00","9340","1.669","179.5","3.463","176.9","1019.062","28.43","49.64","NAN","0.0"],
    [1556631,"2026-05-28 09:40:00","9341","1.535","195.2","2.7110000000000003","190.9","1019.0139999999999","29.22","46.98","NAN","0.0"],
    [1556632,"2026-05-28 09:50:00","9342","1.903","185.4","3.43","173.8","1018.957","28.98","47.68","NAN","0.0"],
    [1556633,"2026-05-28 10:00:00","9343","1.881","191.2","3.7569999999999997","176.4","1019.02","29.18","47.08","NAN","0.0"],
    [1556634,"2026-05-28 10:10:00","9344","1.808","195.0","4.149","179.8","1019.057","29.17","46.85","NAN","0.0"],
    [1556635,"2026-05-28 10:20:00","9345","1.828","194.2","3.9530000000000003","197.6","1019.0369999999999","29.87","44.14","NAN","0.0"],
    [1556636,"2026-05-28 10:30:00","9346","1.952","189.9","3.985","184.4","1019.0169999999999","29.57","44.65","NAN","0.0"],
    [1556637,"2026-05-28 10:40:00","9347","2.015","189.8","3.7889999999999997","168.0","1019.047","29.46","44.58","NAN","0.0"],
    [1556638,"2026-05-28 10:50:00","9348","2.048","193.5","3.463","182.5","1018.9639999999999","29.79","43.91","NAN","0.0"],
    [1556639,"2026-05-28 11:00:00","9349","2.3680000000000003","193.9","4.083","193.4","1018.895","30.08","41.18","NAN","0.0"],
    [1556640,"2026-05-28 11:10:00","9350","2.3890000000000002","188.4","4.41","204.4","1018.8","30.22","39.53","NAN","0.0"],
    [1556641,"2026-05-28 11:20:00","9351","2.352","190.0","4.1160000000000005","176.3","1018.743","30.21","39.94","NAN","0.0"],
    [1556642,"2026-05-28 11:30:00","9352","2.106","194.9","4.018","196.0","1018.686","30.59","37.36","NAN","0.0"],
    [1556643,"2026-05-28 11:40:00","9353","2.225","199.1","4.083","191.7","1018.686","30.83","36.18","NAN","0.0"],
    [1556644,"2026-05-28 11:50:00","9354","2.235","195.6","4.377","208.4","1018.666","30.78","36.08","NAN","0.0"],
    [1556645,"2026-05-28 12:00:00","9355","1.857","191.9","3.397","187.2","1018.6010000000001","31.25","33.94","NAN","0.0"],
    [1556646,"2026-05-28 12:10:00","9356","2.287","191.0","4.083","212.5","1018.569","31.1","34.51","NAN","0.0"],
    [1556647,"2026-05-28 12:20:00","9357","2.501","195.1","4.606","194.7","1018.459","31.4","31.78","NAN","0.0"],
    [1556648,"2026-05-28 12:30:00","9358","2.443","186.4","3.887","192.0","1018.3439999999999","31.31","31.12","NAN","0.0"],
    [1556649,"2026-05-28 12:40:00","9359","2.6189999999999998","188.9","4.671","205.7","1018.26","31.47","29.64","NAN","0.0"],
    [1556650,"2026-05-28 12:50:00","9360","2.699","188.4","5.129","199.4","1018.173","31.54","29.89","NAN","0.0"],
    [1556651,"2026-05-28 13:00:00","9361","2.2230000000000003","192.5","4.149","178.9","1018.135","31.79","29.2","NAN","0.0"],
    [1556652,"2026-05-28 13:10:00","9362","2.532","185.9","4.4430000000000005","172.5","1018.008","31.75","29.47","NAN","0.0"],
    [1556653,"2026-05-28 13:20:00","9363","2.6460000000000004","191.1","4.737","193.7","1017.946","31.59","30.57","NAN","0.0"],
    [1556654,"2026-05-28 13:30:00","9364","2.231","196.4","4.149","174.3","1017.9630000000001","31.42","31.13","NAN","0.0"],
    [1556655,"2026-05-28 13:40:00","9365","2.035","201.0","5.325","234.1","1017.956","32.1","29.49","NAN","0.0"],
    [1556656,"2026-05-28 13:50:00","9366","2.129","198.2","4.4430000000000005","208.6","1017.8760000000001","32.07","27.89","NAN","0.0"],
    [1556657,"2026-05-28 14:00:00","9367","2.006","198.7","3.985","180.3","1017.7610000000001","32.45","27.85","NAN","0.0"],
    [1556658,"2026-05-28 14:10:00","9368","2.531","191.0","4.018","190.4","1017.6469999999999","31.78","29.66","NAN","0.0"],
    [1556659,"2026-05-28 14:20:00","9369","2.1390000000000002","188.4","4.377","201.4","1017.602","31.72","30.63","NAN","0.0"],
    [1556660,"2026-05-28 14:30:00","9370","2.5469999999999997","190.2","4.835","205.4","1017.503","31.51","29.81","NAN","0.0"],
    [1556661,"2026-05-28 14:40:00","9371","2.7680000000000002","185.6","4.247","194.6","1017.48","31.27","30.64","NAN","0.0"],
    [1556662,"2026-05-28 14:50:00","9372","2.8710000000000004","180.9","4.835","195.8","1017.423","30.95","32.61","NAN","0.0"],
    [1556663,"2026-05-28 15:00:00","9373","2.294","189.9","4.475","195.4","1017.331","30.79","33.7","NAN","0.0"],
    [1556664,"2026-05-28 15:10:00","9374","2.208","191.2","4.2139999999999995","166.4","1017.321","30.95","34.14","NAN","0.0"],
    [1556665,"2026-05-28 15:20:00","9375","2.086","194.0","3.43","188.5","1017.2639999999999","30.9","34.42","NAN","0.0"],
    [1556666,"2026-05-28 15:30:00","9376","2.752","184.8","4.965","199.2","1017.191","30.36","36.47","NAN","0.0"],
    [1556667,"2026-05-28 15:40:00","9377","2.378","194.0","4.2139999999999995","191.3","1017.189","30.13","36.19","NAN","0.0"],
    [1556668,"2026-05-28 15:50:00","9378","2.571","188.7","4.2139999999999995","187.5","1017.1310000000001","30.01","37.17","NAN","0.0"],
    [1556669,"2026-05-28 16:00:00","9379","2.432","192.0","4.4430000000000005","213.0","1017.064","29.73","39.18","NAN","0.0"],
    [1556670,"2026-05-28 16:10:00","9380","2.344","193.4","4.867","205.3","1017.002","29.59","39.76","NAN","0.0"],
    [1556671,"2026-05-28 16:20:00","9381","2.639","190.9","4.9","170.0","1016.942","29.33","39.45","NAN","0.0"],
    [1556672,"2026-05-28 16:30:00","9382","2.168","200.3","4.083","203.7","1016.942","29.47","39.34","NAN","0.0"],
    [1556673,"2026-05-28 16:40:00","9383","2.115","193.1","4.41","191.4","1016.905","29.23","39.03","NAN","0.0"],
    [1556674,"2026-05-28 16:50:00","9384","2.295","195.3","4.247","209.4","1016.846","28.95","39.3","NAN","0.0"],
    [1556675,"2026-05-28 17:00:00","9385","1.9180000000000001","195.7","4.018","200.3","1016.8430000000001","28.93","39.52","NAN","0.0"],
    [1556676,"2026-05-28 17:10:00","9386","1.893","195.8","3.7239999999999998","204.7","1016.89","28.89","39.81","NAN","0.0"],
    [1556677,"2026-05-28 17:20:00","9387","2.16","194.6","3.92","190.0","1016.935","28.53","41.02","NAN","0.0"],
    [1556678,"2026-05-28 17:30:00","9388","2.089","197.0","3.92","205.0","1016.9739999999999","28.47","42.71","NAN","0.0"],
    [1556679,"2026-05-28 17:40:00","9389","2.062","193.3","3.887","201.8","1016.98","28.13","44.49","NAN","0.0"],
    [1556680,"2026-05-28 17:50:00","9390","1.81","195.8","3.593","210.2","1017.049","27.84","45.97","NAN","0.0"],
    [1556681,"2026-05-28 18:00:00","9391","1.3980000000000001","196.3","3.201","186.7","1017.2230000000001","27.92","44.2","NAN","0.0"],
    [1556682,"2026-05-28 18:10:00","9392","0.972","196.9","2.7439999999999998","191.8","1017.237","28.01","43.32","NAN","0.0"],
    [1556683,"2026-05-28 18:20:00","9393","1.068","197.7","2.254","176.6","1017.298","27.63","45.05","NAN","0.0"],
    [1556684,"2026-05-28 18:30:00","9394","0.726","212.3","2.842","230.8","1017.3860000000001","27.65","43.75","NAN","0.0"],
    [1556685,"2026-05-28 18:40:00","9395","0.608","229.9","2.417","280.0","1017.5060000000001","27.45","44","NAN","0.0"],
    [1556686,"2026-05-28 18:50:00","9396","0.748","194.5","1.764","175.6","1017.555","27.26","43.54","NAN","0.0"],
    [1556687,"2026-05-28 19:00:00","9397","0.7979999999999999","229.2","2.319","224.2","1017.513","26.93","44.27","NAN","0.0"],
    [1556688,"2026-05-28 19:10:00","9398","1.065","220.6","2.7110000000000003","286.6","1017.533","26.82","44.39","NAN","0.0"],
    [1556689,"2026-05-28 19:20:00","9399","1.4169999999999998","211.3","4.377","236.4","1017.6669999999999","26.69","43.98","NAN","0.0"],
    [1556690,"2026-05-28 19:30:00","9400","1.143","191.4","2.417","224.0","1017.676","26.33","44.96","NAN","0.0"],
    [1556691,"2026-05-28 19:40:00","9401","1.056","238.5","2.7769999999999997","281.3","1017.703","26.56","42.49","NAN","0.0"],
    [1556692,"2026-05-28 19:50:00","9402","1.208","231.3","3.005","254.4","1017.7919999999999","26.87","40.2","NAN","0.0"],
    [1556693,"2026-05-28 20:00:00","9403","1.262","241.6","2.8089999999999997","236.4","1017.8660000000001","26.88","39.74","NAN","0.0"],
    [1556694,"2026-05-28 20:10:00","9404","1.1159999999999999","251.7","2.94","269.1","1018.045","26.79","39.73","NAN","0.0"],
    [1556695,"2026-05-28 20:20:00","9405","1.413","252.1","2.842","255.7","1018.178","26.74","40.81","NAN","0.0"],
    [1556696,"2026-05-28 20:30:00","9406","1.8659999999999999","238.0","3.136","214.5","1018.315","26.42","42.29","NAN","0.0"],
    [1556697,"2026-05-28 20:40:00","9407","1.296","254.4","2.94","240.5","1018.336","26.38","42.44","NAN","0.0"],
    [1556698,"2026-05-28 20:50:00","9408","1.112","256.2","2.417","259.3","1018.5189999999999","26.54","41.68","NAN","0.0"],
    [1556699,"2026-05-28 21:00:00","9409","0.46299999999999997","236.8","1.535","224.0","1018.638","26.67","41.27","NAN","0.0"],
    [1556700,"2026-05-28 21:10:00","9410","0.441","211.7","1.307","277.1","1018.7289999999999","26.34","44.42","NAN","0.0"],
    [1556701,"2026-05-28 21:20:00","9411","0.973","191.3","1.797","194.4","1018.806","25.63","47.14","NAN","0.0"],
    [1556702,"2026-05-28 21:30:00","9412","0.9129999999999999","205.5","1.8619999999999999","199.7","1018.814","25.52","48.41","NAN","0.0"],
    [1556703,"2026-05-28 21:40:00","9413","0.943","204.8","1.699","215.9","1018.815","25.66","49.14","NAN","0.0"],
    [1556704,"2026-05-28 21:50:00","9414","0.73","210.1","1.3719999999999999","217.4","1018.815","25.49","51.07","NAN","0.0"],
    [1556705,"2026-05-28 22:00:00","9415","0.8390000000000001","199.7","1.307","198.0","1018.82","25.45","51.73","NAN","0.0"],
    [1556706,"2026-05-28 22:10:00","9416","0.879","224.9","2.123","241.9","1018.704","25.43","49.81","NAN","0.0"],
    [1556707,"2026-05-28 22:20:00","9417","0.68","252.5","2.0580000000000003","275.2","1018.6360000000001","26.09","45.85","NAN","0.0"],
    [1556708,"2026-05-28 22:30:00","9418","1.268","252.2","2.483","232.1","1018.551","26.79","40.5","NAN","0.0"],
    [1556709,"2026-05-28 22:40:00","9419","1.537","240.1","2.842","254.7","1018.46","26.73","41.74","NAN","0.0"],
    [1556710,"2026-05-28 22:50:00","9420","1.268","238.9","2.7110000000000003","249.3","1018.3839999999999","26.78","39.86","NAN","0.0"],
    [1556711,"2026-05-28 23:00:00","9421","1.315","237.6","3.234","238.6","1018.398","26.87","39.5","NAN","0.0"],
    [1556712,"2026-05-28 23:10:00","9422","0.486","224.8","2.287","247.7","1018.326","26.5","42.81","NAN","0.0"],
    [1556713,"2026-05-28 23:20:00","9423","0.581","200.3","1.078","202.8","1018.313","25.72","48.37","NAN","0.0"],
    [1556714,"2026-05-28 23:30:00","9424","0.547","236.6","1.2409999999999999","258.4","1018.308","25.69","47.03","NAN","0.0"],
    [1556715,"2026-05-28 23:40:00","9425","0.7759999999999999","224.2","1.568","195.9","1018.191","26.07","45.81","NAN","0.0"],
    [1556716,"2026-05-28 23:50:00","9426","0.532","189.9","1.3719999999999999","186.0","1018.056","25.32","51.91","NAN","0.0"],
    [1556717,"2026-05-29 00:00:00","9427","0.302","276.0","2.319","286.0","1017.956","25.21","50.74","NAN","0.0"],
    [1556718,"2026-05-29 00:10:00","9428","0.8029999999999999","219.0","2.7769999999999997","273.2","1017.834","25.31","50.53","NAN","0.0"],
    [1556719,"2026-05-29 00:20:00","9429","0.563","220.6","1.339","281.7","1017.826","25.03","50.04","NAN","0.0"],
    [1556720,"2026-05-29 00:30:00","9430","0.6","319.9","1.764","249.8","1017.825","25.29","49.49","NAN","0.0"],
    [1556721,"2026-05-29 00:40:00","9431","0.9790000000000001","260.2","3.005","266.7","1017.825","25.83","44.59","NAN","0.0"],
    [1556722,"2026-05-29 00:50:00","9432","1.496","252.7","2.679","266.4","1017.7410000000001","25.72","44.29","NAN","0.0"],
    [1556723,"2026-05-29 01:00:00","9433","0.499","258.1","2.515","247.6","1017.705","25.69","44.2","NAN","0.0"],
    [1556724,"2026-05-29 01:10:00","9434","0.31","256.4","1.405","258.5","1017.7080000000001","25.81","44.33","NAN","0.0"],
    [1556725,"2026-05-29 01:20:00","9435","0.498","246.7","1.633","254.3","1017.6030000000001","25.61","45.42","NAN","0.0"],
    [1556726,"2026-05-29 01:30:00","9436","0.578","199.3","1.274","193.1","1017.553","24.47","50.45","NAN","0.0"],
    [1556727,"2026-05-29 01:40:00","9437","0.166","225.4","0.523","202.8","1017.434","24.22","50.38","NAN","0.0"],
    [1556728,"2026-05-29 01:50:00","9438","0.067","176.0","0.425","104.7","1017.365","24.41","50.42","NAN","0.0"],
    [1556729,"2026-05-29 02:00:00","9439","0.361","89.6","0.621","79.68","1017.329","24.24","52.75","NAN","0.0"],
    [1556730,"2026-05-29 02:10:00","9440","0.006","109.6","0.294","109.6","1017.332","24.26","51.77","NAN","0.0"],
    [1556731,"2026-05-29 02:20:00","9441","0.35200000000000004","66.0","0.8170000000000001","62.01","1017.332","24.58","51.03","NAN","0.0"],
    [1556732,"2026-05-29 02:30:00","9442","0.0","0.0","0.0","0.0","1017.347","24.77","49.67","NAN","0.0"],
    [1556733,"2026-05-29 02:40:00","9443","0.175","185.0","0.8170000000000001","185.6","1017.3539999999999","24.88","49.7","NAN","0.0"],
    [1556734,"2026-05-29 02:50:00","9444","0.534","200.6","0.98","185.6","1017.3910000000001","24.09","52.94","NAN","0.0"],
    [1556735,"2026-05-29 03:00:00","9445","0.359","193.8","0.7190000000000001","180.7","1017.438","23.74","56.45","NAN","0.0"],
    [1556736,"2026-05-29 03:10:00","9446","0.365","195.5","0.653","190.6","1017.461","23.41","56.96","NAN","0.0"],
    [1556737,"2026-05-29 03:20:00","9447","0.018000000000000002","190.2","0.327","199.0","1017.457","23.46","54.17","NAN","0.0"],
    [1556738,"2026-05-29 03:30:00","9448","0.002","211.5","0.163","211.5","1017.462","23.63","53.34","NAN","0.0"],
    [1556739,"2026-05-29 03:40:00","9449","0.20600000000000002","210.3","0.6859999999999999","227.1","1017.453","23.66","52.65","NAN","0.0"],
    [1556740,"2026-05-29 03:50:00","9450","0.457","211.4","0.915","228.5","1017.457","23.72","53.78","NAN","0.0"],
    [1556741,"2026-05-29 04:00:00","9451","0.215","157.0","0.8490000000000001","209.4","1017.462","23.52","56.21","NAN","0.0"],
    [1556742,"2026-05-29 04:10:00","9452","0.087","58.1","0.425","36.76","1017.5310000000001","23.24","62.77","NAN","0.0"],
    [1556743,"2026-05-29 04:20:00","9453","0.20199999999999999","47.38","0.784","48.1","1017.584","23.31","55.29","NAN","0.0"],
    [1556744,"2026-05-29 04:30:00","9454","0.971","46.28","1.895","48.82","1017.7080000000001","24","49.11","NAN","0.0"],
    [1556745,"2026-05-29 04:40:00","9455","0.8270000000000001","35.64","2.123","50.19","1017.831","24.29","47.04","NAN","0.0"],
    [1556746,"2026-05-29 04:50:00","9456","0.33299999999999996","32.19","1.078","60.92","1017.8960000000001","24.46","46.98","NAN","0.0"],
    [1556747,"2026-05-29 05:00:00","9457","0.408","26.96","1.078","317.6","1018.043","24.66","46.66","NAN","0.0"],
    [1556748,"2026-05-29 05:10:00","9458","0.652","358.3","1.339","354.4","1018.0930000000001","25.37","45.26","NAN","0.0"],
    [1556749,"2026-05-29 05:20:00","9459","0.43200000000000005","22.12","1.307","7.209","1018.2139999999999","25.69","45.03","NAN","0.0"],
    [1556750,"2026-05-29 05:30:00","9460","0.34299999999999997","55.28","1.307","11.55","1018.299","26.23","44.25","NAN","0.0"],
    [1556751,"2026-05-29 05:40:00","9461","0.639","144.3","1.4369999999999998","201.7","1018.316","25.8","48.4","NAN","0.0"],
    [1556752,"2026-05-29 05:50:00","9462","0.705","197.0","1.3719999999999999","201.4","1018.462","24","60.03","NAN","0.0"],
    [1556753,"2026-05-29 06:00:00","9463","0.667","198.9","1.209","201.1","1018.512","23.42","62.11","NAN","0.0"],
    [1556754,"2026-05-29 06:10:00","9464","0.43","176.2","0.8490000000000001","184.5","1018.597","23.55","60.91","NAN","0.0"],
    [1556755,"2026-05-29 06:20:00","9465","0.442","147.5","0.8170000000000001","159.3","1018.704","24.21","56.76","NAN","0.0"],
    [1556756,"2026-05-29 06:30:00","9466","0.486","161.5","0.98","154.8","1018.7510000000001","24.6","53.35","NAN","0.0"],
    [1556757,"2026-05-29 06:40:00","9467","0.54","182.3","1.013","195.4","1018.7689999999999","24.95","51.73","NAN","0.0"],
    [1556758,"2026-05-29 06:50:00","9468","0.494","106.9","1.045","95.6","1018.932","25.53","49.68","NAN","0.0"],
    [1556759,"2026-05-29 07:00:00","9469","0.586","153.0","0.8490000000000001","162.3","1019.029","25.92","48.23","NAN","0.0"],
    [1556760,"2026-05-29 07:10:00","9470","0.804","151.2","1.339","123.9","1019.174","26.52","46.64","NAN","0.0"],
    [1556761,"2026-05-29 07:20:00","9471","0.7070000000000001","146.4","1.274","121.2","1019.24","26.63","45.45","NAN","0.0"],
    [1556762,"2026-05-29 07:30:00","9472","0.757","144.8","1.176","160.4","1019.316","26.89","44.8","NAN","0.0"],
    [1556763,"2026-05-29 07:40:00","9473","0.917","178.0","1.339","204.0","1019.418","26.63","45.28","NAN","0.0"],
    [1556764,"2026-05-29 07:50:00","9474","0.9","162.0","1.699","118.3","1019.5210000000001","26.93","44.41","NAN","0.0"],
    [1556765,"2026-05-29 08:00:00","9475","1.435","125.7","2.385","116.6","1019.62","26.64","46.04","NAN","0.0"],
    [1556766,"2026-05-29 08:10:00","9476","1.724","111.8","2.875","114.6","1019.682","26.3","47.47","NAN","0.0"],
    [1556767,"2026-05-29 08:20:00","9477","1.86","107.7","3.1689999999999996","110.3","1019.7330000000001","26.38","46.23","NAN","0.0"],
    [1556768,"2026-05-29 08:30:00","9478","1.464","142.1","2.515","107.2","1019.842","26.11","47.39","NAN","0.0"],
    [1556769,"2026-05-29 08:40:00","9479","1.022","157.9","1.601","145.6","1019.8939999999999","25.86","48.52","NAN","0.0"],
    [1556770,"2026-05-29 08:50:00","9480","1.101","151.9","1.895","159.4","1019.919","26.63","46.16","NAN","0.0"],
    [1556771,"2026-05-29 09:00:00","9481","1.092","157.1","2.025","174.2","1019.929","26.51","46.18","NAN","0.0"],
    [1556772,"2026-05-29 09:10:00","9482","1.459","131.4","2.7439999999999998","143.0","1020.046","26.56","46.11","NAN","0.0"],
    [1556773,"2026-05-29 09:20:00","9483","1.339","132.6","2.319","109.4","1020.17","26.54","48.54","NAN","0.0"],
    [1556774,"2026-05-29 09:30:00","9484","0.97","161.0","1.829","175.7","1020.18","27.03","49.26","NAN","0.0"],
    [1556775,"2026-05-29 09:40:00","9485","1.169","127.1","1.96","111.7","1020.18","27.64","46.22","NAN","0.0"],
    [1556776,"2026-05-29 09:50:00","9486","1.258","138.2","2.123","159.1","1020.198","27.51","46.98","NAN","0.0"],
    [1556777,"2026-05-29 10:00:00","9487","1.037","194.7","1.829","179.4","1020.18","27.75","48.1","NAN","0.0"],
    [1556778,"2026-05-29 10:10:00","9488","0.953","198.7","1.797","182.2","1020.18","28.44","46.49","NAN","0.0"],
    [1556779,"2026-05-29 10:20:00","9489","1.151","183.1","1.829","191.6","1020.173","28.35","47.71","NAN","0.0"],
    [1556780,"2026-05-29 10:30:00","9490","1.358","176.8","2.45","156.0","1020.0830000000001","28.26","46.21","NAN","0.0"],
    [1556781,"2026-05-29 10:40:00","9491","1.4969999999999999","161.3","2.221","144.0","1020.061","28.11","42.75","NAN","0.0"],
    [1556782,"2026-05-29 10:50:00","9492","1.088","183.6","2.0909999999999997","157.2","1020.1030000000001","28.81","40.04","NAN","0.0"],
    [1556783,"2026-05-29 11:00:00","9493","1.518","162.7","2.189","158.6","1020.043","28.61","43.61","NAN","0.0"],
    [1556784,"2026-05-29 11:10:00","9494","1.393","172.5","2.156","158.4","1019.949","28.7","38.42","NAN","0.0"],
    [1556785,"2026-05-29 11:20:00","9495","1.608","184.5","2.417","183.5","1019.931","28.41","39.94","NAN","0.0"],
    [1556786,"2026-05-29 11:30:00","9496","1.473","176.0","2.6460000000000004","177.6","1019.909","28.43","40.6","NAN","0.0"],
    [1556787,"2026-05-29 11:40:00","9497","1.574","180.0","2.483","181.8","1019.921","28.48","41.03","NAN","0.0"],
    [1556788,"2026-05-29 11:50:00","9498","1.7369999999999999","177.6","2.417","150.2","1019.931","27.84","44.93","NAN","0.0"],
    [1556789,"2026-05-29 12:00:00","9499","1.986","166.1","2.613","165.6","1019.931","27.56","44.01","NAN","0.0"],
    [1556790,"2026-05-29 12:10:00","9500","1.7630000000000001","168.1","2.613","180.8","1019.931","27.71","46.6","NAN","0.0"],
    [1556791,"2026-05-29 12:20:00","9501","1.464","172.5","2.254","183.5","1019.935","27.79","50.78","NAN","0.0"],
    [1556792,"2026-05-29 12:30:00","9502","1.778","167.5","2.7110000000000003","170.6","1019.931","27.99","48.81","NAN","0.0"],
    [1556793,"2026-05-29 12:40:00","9503","2.279","161.2","3.234","162.2","1019.931","27.23","55.42","NAN","0.0"],
    [1556794,"2026-05-29 12:50:00","9504","2.307","161.7","3.365","153.6","1019.935","26.89","56.02","NAN","0.0"],
    [1556795,"2026-05-29 13:00:00","9505","1.952","172.5","2.94","152.4","1020.046","26.95","56.28","NAN","0.0"],
    [1556796,"2026-05-29 13:10:00","9506","2.318","125.7","3.5610000000000004","113.6","1020.105","26.69","59.56","NAN","0.0"],
    [1556797,"2026-05-29 13:20:00","9507","2.66","113.4","3.9530000000000003","114.8","1020.199","25.6","68.92","NAN","0.0"],
    [1556798,"2026-05-29 13:30:00","9508","3.264","107.7","5.129","116.2","1020.317","25.3","72.42","NAN","0.0"],
    [1556799,"2026-05-29 13:40:00","9509","3.1439999999999997","105.7","5.227","109.7","1020.3389999999999","25.4","74.14","NAN","0.0"],
    [1556800,"2026-05-29 13:50:00","9510","3.2119999999999997","91.6","5.194","74.66","1020.27","25.28","74.59","NAN","0.0"],
    [1556801,"2026-05-29 14:00:00","9511","2.926","100.1","5.063","115.8","1020.242","25.27","75.12","NAN","0.0"],
    [1556802,"2026-05-29 14:10:00","9512","3.0980000000000003","100.3","5.455","112.9","1020.2560000000001","25.23","75.86","NAN","0.0"],
    [1556803,"2026-05-29 14:20:00","9513","3.142","87.9","5.031000000000001","93.0","1020.2669999999999","25.25","71.72","NAN","0.0"],
    [1556804,"2026-05-29 14:30:00","9514","3.7539999999999996","85.8","5.749","74.93","1020.255","25.11","74.17","NAN","0.0"],
    [1556805,"2026-05-29 14:40:00","9515","3.2039999999999997","93.9","5.912999999999999","96.7","1020.258","24.86","74.1","NAN","0.0"],
    [1556806,"2026-05-29 14:50:00","9516","3.813","84.7","6.337000000000001","69.94","1020.237","24.57","76.38","NAN","0.0"],
    [1556807,"2026-05-29 15:00:00","9517","3.343","83.7","5.815","97.3","1020.227","24.1","79.2","NAN","0.0"],
    [1556808,"2026-05-29 15:10:00","9518","2.955","83.5","5.194","96.0","1020.2360000000001","24.17","78.46","NAN","0.0"],
    [1556809,"2026-05-29 15:20:00","9519","3.32","79.84","5.2589999999999995","73.51","1020.1389999999999","23.73","80.8","NAN","0.0"],
    [1556810,"2026-05-29 15:30:00","9520","2.7239999999999998","84.2","4.181","87.6","1020.1439999999999","23.76","79.67","NAN","0.0"],
    [1556811,"2026-05-29 15:40:00","9521","3.0239999999999996","92.7","4.606","100.8","1020.12","24.12","75.06","NAN","0.0"],
    [1556812,"2026-05-29 15:50:00","9522","2.385","88.4","3.7889999999999997","101.5","1020.193","24.09","74.5","NAN","0.0"],
    [1556813,"2026-05-29 16:00:00","9523","2.4130000000000003","90.5","3.7889999999999997","92.6","1020.201","23.91","77.4","NAN","0.0"],
    [1556814,"2026-05-29 16:10:00","9524","2.099","96.9","2.94","90.1","1020.125","23.41","82.8","NAN","0.0"],
    [1556815,"2026-05-29 16:20:00","9525","1.8130000000000002","105.5","3.234","104.1","1020.0319999999999","23.14","83.8","NAN","0.0"],
    [1556816,"2026-05-29 16:30:00","9526","1.436","67.34","2.7769999999999997","54.68","1019.957","23.31","80.4","NAN","0.0"],
    [1556817,"2026-05-29 16:40:00","9527","1.495","75.78","2.5810000000000004","60.92","1019.827","23.34","79.73","NAN","0.0"],
    [1556818,"2026-05-29 16:50:00","9528","1.6980000000000002","102.3","2.7439999999999998","105.7","1019.823","23.13","80.9","NAN","0.0"],
    [1556819,"2026-05-29 17:00:00","9529","1.5659999999999998","94.9","2.8089999999999997","78.6","1019.8960000000001","23.07","82.3","NAN","0.0"],
    [1556820,"2026-05-29 17:10:00","9530","1.34","81.7","2.515","72.62","1020.012","22.98","82.8","NAN","0.0"],
    [1556821,"2026-05-29 17:20:00","9531","1.86","96.8","3.103","92.1","1019.97","23.06","82.6","NAN","0.0"],
    [1556822,"2026-05-29 17:30:00","9532","1.383","86.5","2.417","100.9","1019.985","22.93","83.6","NAN","0.0"],
    [1556823,"2026-05-29 17:40:00","9533","1.909","89.2","3.201","89.4","1020.0260000000001","22.88","83.7","NAN","0.0"],
    [1556824,"2026-05-29 17:50:00","9534","2.285","92.5","3.7239999999999998","95.0","1020.02","22.77","84.7","NAN","0.0"],
    [1556825,"2026-05-29 18:00:00","9535","1.36","76.3","2.6460000000000004","75.36","1020.1010000000001","22.77","85.7","NAN","0.0"],
    [1556826,"2026-05-29 18:10:00","9536","1.3019999999999998","50.43","2.483","60.44","1020.315","22.93","84","NAN","0.0"],
    [1556827,"2026-05-29 18:20:00","9537","1.486","80.0","2.613","94.5","1020.289","23.11","82.2","NAN","0.0"],
    [1556828,"2026-05-29 18:30:00","9538","1.959","90.8","3.365","88.3","1020.237","22.94","83.2","NAN","0.0"],
    [1556829,"2026-05-29 18:40:00","9539","1.8259999999999998","92.1","2.7769999999999997","106.3","1020.289","22.72","84.2","NAN","0.0"],
    [1556830,"2026-05-29 18:50:00","9540","1.374","78.82","2.6460000000000004","104.1","1020.2769999999999","22.81","83.5","NAN","0.0"],
    [1556831,"2026-05-29 19:00:00","9541","1.2770000000000001","72.37","2.385","86.2","1020.327","22.92","82.7","NAN","0.0"],
    [1556832,"2026-05-29 19:10:00","9542","1.946","86.7","2.94","94.2","1020.3","22.7","84.4","NAN","0.0"],
    [1556833,"2026-05-29 19:20:00","9543","0.7929999999999999","57.89","1.699","24.9","1020.375","22.61","85.3","NAN","0.0"],
    [1556834,"2026-05-29 19:30:00","9544","1.248","87.4","2.548","105.3","1020.329","22.69","84.6","NAN","0.0"],
    [1556835,"2026-05-29 19:40:00","9545","1.635","98.0","2.417","84.8","1020.39","22.47","86.2","NAN","0.0"],
    [1556836,"2026-05-29 19:50:00","9546","1.867","95.7","3.005","99.3","1020.452","22.23","88","NAN","0.0"],
    [1556837,"2026-05-29 20:00:00","9547","1.168","77.02","2.385","62.49","1020.6510000000001","22.17","88.7","NAN","0.0"],
    [1556838,"2026-05-29 20:10:00","9548","1.465","53.92","2.287","51.59","1020.806","22.27","88","NAN","0.0"],
    [1556839,"2026-05-29 20:20:00","9549","1.015","64.5","2.0909999999999997","29.19","1020.885","22.5","87.2","NAN","0.0"],
    [1556840,"2026-05-29 20:30:00","9550","1.28","63.83","2.254","68.56","1021.065","22.5","86.7","NAN","0.0"],
    [1556841,"2026-05-29 20:40:00","9551","1.222","93.0","2.319","81.4","1021.075","22.48","86.7","NAN","0.0"],
    [1556842,"2026-05-29 20:50:00","9552","1.5730000000000002","104.3","2.385","106.1","1021.0889999999999","22.46","87","NAN","0.0"],
    [1556843,"2026-05-29 21:00:00","9553","1.379","101.7","2.385","87.6","1021.082","22.38","87.7","NAN","0.0"],
    [1556844,"2026-05-29 21:10:00","9554","1.791","102.5","2.417","99.5","1021.172","22.31","87.9","NAN","0.0"],
    [1556845,"2026-05-29 21:20:00","9555","1.2","91.5","1.96","90.8","1021.072","22.26","88.1","NAN","0.0"],
    [1556846,"2026-05-29 21:30:00","9556","0.937","81.8","1.633","69.86","1021.07","22.52","87.1","NAN","0.0"],
    [1556847,"2026-05-29 21:40:00","9557","0.552","57.49","1.3719999999999999","37.99","1021.07","22.67","86.4","NAN","0.0"],
    [1556848,"2026-05-29 21:50:00","9558","0.907","66.67","1.7309999999999999","62.28","1020.93","22.73","84.9","NAN","0.0"],
    [1556849,"2026-05-29 22:00:00","9559","0.9690000000000001","76.71","1.8619999999999999","63.73","1020.82","22.9","84.5","NAN","0.0"],
    [1556850,"2026-05-29 22:10:00","9560","0.687","99.9","1.307","58.55","1020.778","23.06","83.8","NAN","0.0"],
    [1556851,"2026-05-29 22:20:00","9561","0.71","184.0","1.143","197.7","1020.5930000000001","22.8","85.2","NAN","0.0"],
    [1556852,"2026-05-29 22:30:00","9562","0.79","162.0","1.339","177.9","1020.449","22.5","86.4","NAN","0.0"],
    [1556853,"2026-05-29 22:40:00","9563","0.769","148.2","1.2409999999999999","164.8","1020.447","22.4","85.8","NAN","0.0"],
    [1556854,"2026-05-29 22:50:00","9564","0.91","126.0","1.601","140.8","1020.439","22.27","85.9","NAN","0.0"],
    [1556855,"2026-05-29 23:00:00","9565","0.97","135.5","1.5030000000000001","127.5","1020.362","22.12","86.9","NAN","0.0"],
    [1556856,"2026-05-29 23:10:00","9566","0.795","132.6","1.405","134.0","1020.26","22.06","87.7","NAN","0.0"],
    [1556857,"2026-05-29 23:20:00","9567","0.826","138.0","1.47","145.0","1020.14","22","88.3","NAN","0.0"],
    [1556858,"2026-05-29 23:30:00","9568","0.331","160.7","0.784","145.7","1020.133","22","89.3","NAN","0.0"],
    [1556859,"2026-05-29 23:40:00","9569","0.616","109.7","1.307","69.15","1020.1080000000001","22.02","89.4","NAN","0.0"],
    [1556860,"2026-05-29 23:50:00","9570","1.07","104.4","1.7309999999999999","95.0","1020.143","22.23","86.2","NAN","0.0"],
    [1556861,"2026-05-30 00:00:00","9571","1.237","100.8","1.9269999999999998","91.2","1020.285","22.22","87.4","NAN","0.0"],
    [1556862,"2026-05-30 00:10:00","9572","0.5870000000000001","87.1","1.535","65.22","1020.185","22.14","87.9","NAN","0.0"],
    [1556863,"2026-05-30 00:20:00","9573","0.5920000000000001","110.5","1.339","78.53","1020.043","22.15","85.8","NAN","0.0"],
    [1556864,"2026-05-30 00:30:00","9574","0.632","124.7","1.111","102.3","1019.8860000000001","22.14","86","NAN","0.0"],
    [1556865,"2026-05-30 00:40:00","9575","0.6679999999999999","101.3","1.2409999999999999","107.1","1019.7760000000001","22.22","86.2","NAN","0.0"],
    [1556866,"2026-05-30 00:50:00","9576","1.143","80.8","1.895","85.5","1019.692","22.27","85.9","NAN","0.0"],
    [1556867,"2026-05-30 01:00:00","9577","0.764","103.8","1.339","106.8","1019.584","22.09","88.8","NAN","0.0"],
    [1556868,"2026-05-30 01:10:00","9578","0.312","163.2","0.49","188.9","1019.502","21.95","89.8","NAN","0.0"],
    [1556869,"2026-05-30 01:20:00","9579","0.515","162.8","0.8490000000000001","142.7","1019.4630000000001","21.81","90.5","NAN","0.0"],
    [1556870,"2026-05-30 01:30:00","9580","0.6559999999999999","186.6","1.078","150.2","1019.465","21.78","91.5","NAN","0.0"],
    [1556871,"2026-05-30 01:40:00","9581","0.7879999999999999","132.4","1.339","149.7","1019.525","21.69","91.8","NAN","0.0"],
    [1556872,"2026-05-30 01:50:00","9582","0.179","137.2","0.7509999999999999","112.8","1019.475","21.69","91.9","NAN","0.0"],
    [1556873,"2026-05-30 02:00:00","9583","0.21","145.2","0.588","113.4","1019.442","21.6","92.3","NAN","0.0"],
    [1556874,"2026-05-30 02:10:00","9584","0.08199999999999999","212.7","0.49","213.8","1019.3530000000001","21.54","92.9","NAN","0.0"],
    [1556875,"2026-05-30 02:20:00","9585","0.693","201.7","1.143","194.9","1019.423","21.51","93.2","NAN","0.0"],
    [1556876,"2026-05-30 02:30:00","9586","0.662","181.1","1.013","183.5","1019.45","21.36","94","NAN","0.0"],
    [1556877,"2026-05-30 02:40:00","9587","0.465","181.2","0.98","154.2","1019.45","21.31","94.3","NAN","0.0"],
    [1556878,"2026-05-30 02:50:00","9588","0.47700000000000004","177.2","0.882","179.3","1019.49","21.35","94.3","NAN","0.0"],
    [1556879,"2026-05-30 03:00:00","9589","0.26","165.6","0.588","169.8","1019.453","21.34","94.5","NAN","0.0"],
    [1556880,"2026-05-30 03:10:00","9590","0.226","159.7","0.8170000000000001","170.6","1019.398","21.26","94.1","NAN","0.0"],
    [1556881,"2026-05-30 03:20:00","9591","0.325","139.7","0.915","137.5","1019.336","21.32","92.7","NAN","0.0"],
    [1556882,"2026-05-30 03:30:00","9592","0.348","135.1","0.882","138.9","1019.326","21.43","91.6","NAN","0.0"],
    [1556883,"2026-05-30 03:40:00","9593","0.473","130.6","0.8490000000000001","133.9","1019.326","21.46","90.8","NAN","0.0"],
    [1556884,"2026-05-30 03:50:00","9594","0.466","145.8","1.045","142.0","1019.326","21.49","91.3","NAN","0.0"],
    [1556885,"2026-05-30 04:00:00","9595","0.754","147.5","1.274","139.3","1019.326","21.47","93.1","NAN","0.0"],
    [1556886,"2026-05-30 04:10:00","9596","0.532","135.8","1.078","145.0","1019.326","21.42","95.1","NAN","0.0"],
    [1556887,"2026-05-30 04:20:00","9597","0.38","144.8","0.8170000000000001","143.7","1019.326","21.33","96","NAN","0.0"],
    [1556888,"2026-05-30 04:30:00","9598","0.147","146.9","0.621","148.2","1019.326","21.3","96.3","NAN","0.0"],
    [1556889,"2026-05-30 04:40:00","9599","0.0","0.0","0.0","0.0","1019.318","21.3","96.5","NAN","0.0"],
    [1556890,"2026-05-30 04:50:00","9600","0.38299999999999995","144.7","1.078","147.9","1019.326","21.3","96.6","NAN","0.0"],
    [1556891,"2026-05-30 05:00:00","9601","0.871","128.1","1.4369999999999998","109.5","1019.3430000000001","21.49","96.8","NAN","0.0"],
    [1556892,"2026-05-30 05:10:00","9602","1.2890000000000001","108.6","2.319","107.5","1019.4630000000001","21.38","97.1","NAN","0.0"],
    [1556893,"2026-05-30 05:20:00","9603","1.226","95.1","2.7439999999999998","106.8","1019.572","21.12","94.4","NAN","0.0"],
    [1556894,"2026-05-30 05:30:00","9604","1.155","50.45","2.123","38.11","1019.637","21.67","87","NAN","0.0"],
    [1556895,"2026-05-30 05:40:00","9605","1.2770000000000001","42.69","2.94","44.16","1019.7339999999999","22.04","86.3","NAN","0.0"],
    [1556896,"2026-05-30 05:50:00","9606","1.156","61.05","2.287","35.4","1019.803","22.1","88.3","NAN","0.0"],
    [1556897,"2026-05-30 06:00:00","9607","1.193","69.64","2.515","63.34","1019.799","21.94","92","NAN","0.0"],
    [1556898,"2026-05-30 06:10:00","9608","1.722","95.3","2.875","103.6","1019.816","21.74","93.7","NAN","0.0"],
    [1556899,"2026-05-30 06:20:00","9609","0.851","63.15","2.189","83.2","1019.8860000000001","21.46","95.1","NAN","0.0"],
    [1556900,"2026-05-30 06:30:00","9610","0.8690000000000001","65.5","1.699","75.87","1019.9","21.5","95.2","NAN","0.0"],
    [1556901,"2026-05-30 06:40:00","9611","1.8130000000000002","102.5","2.875","117.3","1019.949","21.64","94.4","NAN","0.0"],
    [1556902,"2026-05-30 06:50:00","9612","1.725","109.4","2.679","106.5","1020.085","21.26","95.8","NAN","0.0"],
    [1556903,"2026-05-30 07:00:00","9613","1.5330000000000001","115.8","2.352","104.7","1020.227","21.05","96.9","NAN","0.0"],
    [1556904,"2026-05-30 07:10:00","9614","0.9279999999999999","126.5","1.699","124.6","1020.306","21.2","97.1","NAN","0.0"],
    [1556905,"2026-05-30 07:20:00","9615","0.754","128.9","1.993","117.2","1020.284","21.81","94.2","NAN","0.0"],
    [1556906,"2026-05-30 07:30:00","9616","1.746","106.5","2.7439999999999998","103.6","1020.2610000000001","22.4","87.5","NAN","0.0"],
    [1556907,"2026-05-30 07:40:00","9617","2.119","103.2","3.201","109.7","1020.3560000000001","22.71","82.7","NAN","0.0"],
    [1556908,"2026-05-30 07:50:00","9618","1.8780000000000001","115.5","2.9730000000000003","112.4","1020.472","22.46","86.1","NAN","0.0"],
    [1556909,"2026-05-30 08:00:00","9619","1.5630000000000002","118.4","2.515","104.8","1020.495","22.71","87","NAN","0.0"],
    [1556910,"2026-05-30 08:10:00","9620","1.699","107.1","2.94","99.3","1020.471","23.08","85.9","NAN","0.0"],
    [1556911,"2026-05-30 08:20:00","9621","1.652","111.5","2.7110000000000003","95.9","1020.373","23.18","85.4","NAN","0.0"],
    [1556912,"2026-05-30 08:30:00","9622","1.74","109.7","2.613","98.0","1020.3939999999999","23.04","86.6","NAN","0.0"],
    [1556913,"2026-05-30 08:40:00","9623","1.72","102.5","2.9730000000000003","99.2","1020.3910000000001","23.36","84.8","NAN","0.0"],
    [1556914,"2026-05-30 08:50:00","9624","1.722","123.9","2.7769999999999997","106.7","1020.405","23.19","85","NAN","0.0"],
    [1556915,"2026-05-30 09:00:00","9625","1.78","123.4","3.136","114.2","1020.457","22.89","86.9","NAN","0.0"],
    [1556916,"2026-05-30 09:10:00","9626","1.5659999999999998","115.9","3.201","142.5","1020.445","23.25","86.8","NAN","0.0"],
    [1556917,"2026-05-30 09:20:00","9627","1.6980000000000002","117.9","3.071","123.9","1020.477","23.57","84.4","NAN","0.0"],
    [1556918,"2026-05-30 09:30:00","9628","2.089","118.1","3.593","114.5","1020.475","23.26","85.2","NAN","0.0"],
    [1556919,"2026-05-30 09:40:00","9629","1.844","119.1","4.083","111.0","1020.4689999999999","23.57","83","NAN","0.0"],
    [1556920,"2026-05-30 09:50:00","9630","2.155","118.0","3.267","114.2","1020.525","23.51","81.7","NAN","0.0"],
    [1556921,"2026-05-30 10:00:00","9631","2.08","126.1","3.332","108.5","1020.5139999999999","23.29","81.4","NAN","0.0"],
    [1556922,"2026-05-30 10:10:00","9632","2.24","131.3","3.43","113.7","1020.5060000000001","23.17","82.1","NAN","0.0"],
    [1556923,"2026-05-30 10:20:00","9633","2.128","126.6","3.201","103.2","1020.572","23.32","81.7","NAN","0.0"],
    [1556924,"2026-05-30 10:30:00","9634","2.06","129.4","3.103","141.6","1020.534","23.41","81.6","NAN","0.0"],
    [1556925,"2026-05-30 10:40:00","9635","2.225","126.0","3.7239999999999998","101.5","1020.5260000000001","23.49","81.5","NAN","0.0"],
    [1556926,"2026-05-30 10:50:00","9636","2.092","130.5","3.299","128.1","1020.4910000000001","23.26","81.8","NAN","0.0"],
    [1556927,"2026-05-30 11:00:00","9637","2.157","133.5","3.463","125.9","1020.455","23.38","81.3","NAN","0.0"],
    [1556928,"2026-05-30 11:10:00","9638","2.086","130.0","3.6260000000000003","119.6","1020.3330000000001","23.45","81.5","NAN","0.0"],
    [1556929,"2026-05-30 11:20:00","9639","2.401","115.9","3.822","110.9","1020.252","23.76","80","NAN","0.0"],
    [1556930,"2026-05-30 11:30:00","9640","2.319","115.1","3.7569999999999997","93.4","1020.2189999999999","23.72","80.2","NAN","0.0"],
    [1556931,"2026-05-30 11:40:00","9641","2.392","117.3","3.593","114.6","1020.158","23.81","80.6","NAN","0.0"],
    [1556932,"2026-05-30 11:50:00","9642","2.226","120.0","3.5610000000000004","103.0","1020.164","23.79","80.8","NAN","0.0"],
    [1556933,"2026-05-30 12:00:00","9643","2.2640000000000002","117.1","3.332","110.8","1020.1089999999999","24.07","78.84","NAN","0.0"],
    [1556934,"2026-05-30 12:10:00","9644","2.1319999999999997","113.0","3.6910000000000003","106.4","1020.002","24.21","77.82","NAN","0.0"],
    [1556935,"2026-05-30 12:20:00","9645","2.3169999999999997","116.4","3.6260000000000003","99.9","1019.904","23.86","79.05","NAN","0.0"],
    [1556936,"2026-05-30 12:30:00","9646","2.136","107.6","3.92","109.6","1019.8","23.98","78.66","NAN","0.0"],
    [1556937,"2026-05-30 12:40:00","9647","1.8430000000000002","107.1","3.332","70.39","1019.695","24.2","78.17","NAN","0.0"],
    [1556938,"2026-05-30 12:50:00","9648","2.0380000000000003","99.5","3.463","114.0","1019.628","24.05","78.32","NAN","0.0"],
    [1556939,"2026-05-30 13:00:00","9649","1.945","105.3","4.41","100.1","1019.572","24.05","78.7","NAN","0.0"],
    [1556940,"2026-05-30 13:10:00","9650","2.101","115.6","3.659","116.9","1019.46","24.03","80.1","NAN","0.0"],
    [1556941,"2026-05-30 13:20:00","9651","2.103","107.2","3.659","104.3","1019.3489999999999","24.16","78.71","NAN","0.0"],
    [1556942,"2026-05-30 13:30:00","9652","1.892","118.9","3.463","136.5","1019.2489999999999","23.94","80.3","NAN","0.0"],
    [1556943,"2026-05-30 13:40:00","9653","1.9709999999999999","114.8","3.5610000000000004","114.6","1019.25","23.93","80.2","NAN","0.0"],
    [1556944,"2026-05-30 13:50:00","9654","2.002","119.9","3.43","105.6","1019.243","24.18","79.39","NAN","0.0"],
    [1556945,"2026-05-30 14:00:00","9655","1.944","118.4","3.7239999999999998","112.1","1019.221","24.04","79.49","NAN","0.0"],
    [1556946,"2026-05-30 14:10:00","9656","2.005","115.0","3.397","116.3","1019.179","23.74","80.5","NAN","0.0"],
    [1556947,"2026-05-30 14:20:00","9657","2.351","111.3","3.92","105.8","1019.1439999999999","23.66","80.6","NAN","0.0"],
    [1556948,"2026-05-30 14:30:00","9658","1.751","86.2","3.332","97.5","1019.14","23.77","80.5","NAN","0.0"],
    [1556949,"2026-05-30 14:40:00","9659","2.1180000000000003","92.1","3.5610000000000004","102.3","1019.128","24.19","77.78","NAN","0.0"],
    [1556950,"2026-05-30 14:50:00","9660","1.9909999999999999","106.3","3.495","114.0","1019.13","23.72","80","NAN","0.0"],
    [1556951,"2026-05-30 15:00:00","9661","1.9609999999999999","108.6","3.495","103.6","1019.086","23.61","81.2","NAN","0.0"],
    [1556952,"2026-05-30 15:10:00","9662","1.518","103.7","2.907","111.4","1019.0310000000001","23.6","81.5","NAN","0.0"],
    [1556953,"2026-05-30 15:20:00","9663","1.976","102.9","3.299","112.5","1019.145","23.67","81.3","NAN","0.0"],
    [1556954,"2026-05-30 15:30:00","9664","2.101","81.9","3.528","67.42","1019.1510000000001","23.35","82.2","NAN","0.0"],
    [1556955,"2026-05-30 15:40:00","9665","1.651","79.91","3.234","82.8","1019.0360000000001","23.54","81.2","NAN","0.0"],
    [1556956,"2026-05-30 15:50:00","9666","1.95","86.3","2.9730000000000003","120.9","1018.943","23.52","80.5","NAN","0.0"],
    [1556957,"2026-05-30 16:00:00","9667","1.8519999999999999","98.7","2.907","111.7","1018.7739999999999","23.54","80.8","NAN","0.0"],
    [1556958,"2026-05-30 16:10:00","9668","1.5430000000000001","87.7","2.94","97.8","1018.763","23.58","81","NAN","0.0"],
    [1556959,"2026-05-30 16:20:00","9669","1.5530000000000002","97.9","2.254","111.9","1018.78","23.61","80.5","NAN","0.0"],
    [1556960,"2026-05-30 16:30:00","9670","1.2919999999999998","97.4","2.385","118.8","1018.778","23.58","80.1","NAN","0.0"],
    [1556961,"2026-05-30 16:40:00","9671","1.499","96.4","2.483","99.5","1018.73","23.68","79.49","NAN","0.0"],
    [1556962,"2026-05-30 16:50:00","9672","1.416","98.2","2.287","103.4","1018.497","23.39","81.3","NAN","0.0"],
    [1556963,"2026-05-30 17:00:00","9673","1.39","102.8","2.548","106.4","1018.5419999999999","23.45","81.6","NAN","0.0"],
    [1556964,"2026-05-30 17:10:00","9674","1.3259999999999998","104.8","2.352","105.2","1018.682","23.44","81.2","NAN","0.0"],
    [1556965,"2026-05-30 17:20:00","9675","1.485","103.9","2.352","108.0","1018.795","23.3","82","NAN","0.0"],
    [1556966,"2026-05-30 17:30:00","9676","1.337","91.6","2.287","115.2","1018.7389999999999","23.33","79.15","NAN","0.0"],
    [1556967,"2026-05-30 17:40:00","9677","1.4869999999999999","103.4","2.483","119.3","1018.695","23.39","78.85","NAN","0.0"],
    [1556968,"2026-05-30 17:50:00","9678","1.39","96.4","2.156","83.8","1018.7739999999999","23.57","77.78","NAN","0.0"],
    [1556969,"2026-05-30 18:00:00","9679","1.266","101.9","2.221","109.5","1018.7489999999999","23.49","77.99","NAN","0.0"],
    [1556970,"2026-05-30 18:10:00","9680","1.1340000000000001","116.8","1.96","97.8","1018.814","23.3","79.26","NAN","0.0"],
    [1556971,"2026-05-30 18:20:00","9681","1.294","89.2","1.9269999999999998","94.4","1018.947","23.44","77.57","NAN","0.0"],
    [1556972,"2026-05-30 18:30:00","9682","1.639","107.5","2.45","109.1","1019.066","23.35","77.56","NAN","0.0"],
    [1556973,"2026-05-30 18:40:00","9683","1.205","101.3","2.189","113.8","1019.078","23.35","76.21","NAN","0.0"],
    [1556974,"2026-05-30 18:50:00","9684","0.738","105.6","1.209","121.9","1019.192","23.72","72.44","NAN","0.0"],
    [1556975,"2026-05-30 19:00:00","9685","0.493","137.4","0.8170000000000001","136.3","1019.248","23.61","70.34","NAN","0.0"],
    [1556976,"2026-05-30 19:10:00","9686","0.6559999999999999","170.2","1.2409999999999999","184.9","1019.303","23.55","68.29","NAN","0.0"],
    [1556977,"2026-05-30 19:20:00","9687","0.852","174.4","1.307","180.4","1019.288","23.42","73.88","NAN","0.0"],
    [1556978,"2026-05-30 19:30:00","9688","0.8079999999999999","156.6","1.339","178.2","1019.206","23.38","71.01","NAN","0.0"],
    [1556979,"2026-05-30 19:40:00","9689","0.727","153.7","1.143","182.5","1019.08","23.33","74.22","NAN","0.0"],
    [1556980,"2026-05-30 19:50:00","9690","0.7809999999999999","171.7","1.307","180.2","1019.028","23.17","76.53","NAN","0.0"],
    [1556981,"2026-05-30 20:00:00","9691","0.657","183.4","1.078","176.5","1019.0319999999999","23.01","73.39","NAN","0.0"],
    [1556982,"2026-05-30 20:10:00","9692","0.449","172.7","1.307","172.3","1019.073","23.05","76.34","NAN","0.0"],
    [1556983,"2026-05-30 20:20:00","9693","0.517","168.7","1.111","174.7","1019.0880000000001","22.95","76.56","NAN","0.0"],
    [1556984,"2026-05-30 20:30:00","9694","0.664","167.4","1.633","152.9","1019.0930000000001","22.93","77.2","NAN","0.0"],
    [1556985,"2026-05-30 20:40:00","9695","0.17","149.3","0.588","135.9","1019.203","22.92","76.72","NAN","0.0"],
    [1556986,"2026-05-30 20:50:00","9696","0.569","143.5","1.143","153.4","1019.1469999999999","23.06","77.05","NAN","0.0"],
    [1556987,"2026-05-30 21:00:00","9697","0.804","178.6","1.339","178.0","1019.1610000000001","22.97","78.43","NAN","0.0"],
    [1556988,"2026-05-30 21:10:00","9698","0.6679999999999999","192.1","1.209","207.7","1019.315","22.81","79.6","NAN","0.0"],
    [1556989,"2026-05-30 21:20:00","9699","0.696","183.2","1.339","205.7","1019.29","22.71","79.64","NAN","0.0"],
    [1556990,"2026-05-30 21:30:00","9700","0.924","168.0","1.8619999999999999","165.9","1019.206","22.76","80.9","NAN","0.0"],
    [1556991,"2026-05-30 21:40:00","9701","0.535","158.7","1.078","164.7","1019.201","22.7","80.8","NAN","0.0"],
    [1556992,"2026-05-30 21:50:00","9702","0.8320000000000001","162.6","1.47","143.5","1019.059","22.69","83","NAN","0.0"],
    [1556993,"2026-05-30 22:00:00","9703","0.7020000000000001","180.2","1.274","173.7","1019.0089999999999","22.47","84.9","NAN","0.0"],
    [1556994,"2026-05-30 22:10:00","9704","0.37","174.6","1.111","191.9","1018.9639999999999","22.4","85.4","NAN","0.0"],
    [1556995,"2026-05-30 22:20:00","9705","0.524","177.0","1.176","171.9","1019.076","22.36","85.2","NAN","0.0"],
    [1556996,"2026-05-30 22:30:00","9706","0.768","164.4","1.111","173.3","1019.076","22.36","84.8","NAN","0.0"],
    [1556997,"2026-05-30 22:40:00","9707","0.94","176.1","1.535","177.7","1018.9939999999999","22.38","85.3","NAN","0.0"],
    [1556998,"2026-05-30 22:50:00","9708","0.583","183.9","0.98","176.6","1018.887","22.17","86.5","NAN","0.0"],
    [1556999,"2026-05-30 23:00:00","9709","0.457","167.0","0.882","168.9","1018.822","22.25","86.2","NAN","0.0"],
    [1557000,"2026-05-30 23:10:00","9710","0.428","165.9","0.7509999999999999","176.0","1018.765","22.26","86","NAN","0.0"],
    [1557001,"2026-05-30 23:20:00","9711","0.41200000000000003","175.7","0.882","164.5","1018.613","22.37","84.7","NAN","0.0"],
    [1557002,"2026-05-30 23:30:00","9712","0.69","189.2","1.601","183.6","1018.605","22.34","84.2","NAN","0.0"],
    [1557003,"2026-05-30 23:40:00","9713","0.7120000000000001","202.5","1.3719999999999999","247.9","1018.56","22.4","82.6","NAN","0.0"],
    [1557004,"2026-05-30 23:50:00","9714","0.667","195.3","1.47","174.4","1018.448","22.61","80.4","NAN","0.0"],
    [1557005,"2026-05-31 00:00:00","9715","0.43799999999999994","146.2","0.9470000000000001","60.66","1018.336","22.61","79.74","NAN","0.0"],
    [1557006,"2026-05-31 00:10:00","9716","0.5529999999999999","84.8","0.915","77.81","1018.294","22.75","80.1","NAN","0.0"],
    [1557007,"2026-05-31 00:20:00","9717","0.675","56.33","1.339","37.86","1018.204","22.92","80.8","NAN","0.0"],
    [1557008,"2026-05-31 00:30:00","9718","0.493","63.16","0.98","62.2","1018.137","22.79","82.9","NAN","0.0"],
    [1557009,"2026-05-31 00:40:00","9719","0.539","70.72","0.98","58.66","1018.055","22.77","82.7","NAN","0.0"],
    [1557010,"2026-05-31 00:50:00","9720","0.43","96.1","0.8490000000000001","73.48","1018.012","22.8","82.1","NAN","0.0"],
    [1557011,"2026-05-31 01:00:00","9721","0.485","136.0","0.915","182.3","1017.94","22.8","81.3","NAN","0.0"],
    [1557012,"2026-05-31 01:10:00","9722","0.759","156.8","1.111","150.1","1017.882","22.27","85.2","NAN","0.0"],
    [1557013,"2026-05-31 01:20:00","9723","0.541","123.6","1.143","114.5","1017.918","22.08","84","NAN","0.0"],
    [1557014,"2026-05-31 01:30:00","9724","0.682","138.8","1.111","120.5","1017.915","22.17","80.9","NAN","0.0"],
    [1557015,"2026-05-31 01:40:00","9725","0.5920000000000001","113.6","0.915","109.2","1017.85","22.06","83.6","NAN","0.0"],
    [1557016,"2026-05-31 01:50:00","9726","0.6609999999999999","93.9","1.111","102.5","1017.8330000000001","22.02","78.68","NAN","0.0"],
    [1557017,"2026-05-31 02:00:00","9727","0.41200000000000003","101.3","1.078","100.1","1017.813","22.15","80.3","NAN","0.0"],
    [1557018,"2026-05-31 02:10:00","9728","0.209","93.9","0.588","95.4","1017.7710000000001","22.11","77.18","NAN","0.0"],
    [1557019,"2026-05-31 02:20:00","9729","0.013000000000000001","59.18","0.359","58.9","1017.7710000000001","22","75.17","NAN","0.0"],
    [1557020,"2026-05-31 02:30:00","9730","0.0","0.0","0.0","0.0","1017.6610000000001","21.83","76.51","NAN","0.0"],
    [1557021,"2026-05-31 02:40:00","9731","0.091","120.9","0.457","115.2","1017.666","21.91","74.86","NAN","0.0"],
    [1557022,"2026-05-31 02:50:00","9732","0.23600000000000002","162.5","0.621","176.5","1017.628","21.76","76.64","NAN","0.0"],
    [1557023,"2026-05-31 03:00:00","9733","0.198","182.7","0.7509999999999999","179.1","1017.671","21.38","78.07","NAN","0.0"],
    [1557024,"2026-05-31 03:10:00","9734","0.39399999999999996","159.2","0.882","141.1","1017.591","21.42","78.38","NAN","0.0"],
    [1557025,"2026-05-31 03:20:00","9735","0.091","174.4","0.327","167.3","1017.581","21.35","77.83","NAN","0.0"],
    [1557026,"2026-05-31 03:30:00","9736","0.0","0.0","0.0","0.0","1017.581","21.48","76.19","NAN","0.0"],
    [1557027,"2026-05-31 03:40:00","9737","0.0","91.9","0.033","91.9","1017.6389999999999","21.6","72.99","NAN","0.0"],
    [1557028,"2026-05-31 03:50:00","9738","0.28800000000000003","55.93","0.7190000000000001","57.81","1017.6239999999999","21.65","67.42","NAN","0.0"],
    [1557029,"2026-05-31 04:00:00","9739","0.605","51.86","1.078","36.89","1017.581","21.74","64.35","NAN","0.0"],
    [1557030,"2026-05-31 04:10:00","9740","0.7759999999999999","57.88","1.2409999999999999","61.31","1017.686","21.76","63.01","NAN","0.0"],
    [1557031,"2026-05-31 04:20:00","9741","0.491","25.2","1.2409999999999999","16.82","1017.7460000000001","21.62","62.47","NAN","0.0"],
    [1557032,"2026-05-31 04:30:00","9742","0.41200000000000003","34.29","1.078","6.233","1017.826","21.76","61.58","NAN","0.0"],
    [1557033,"2026-05-31 04:40:00","9743","0.802","25.02","1.5030000000000001","34.81","1017.8860000000001","21.83","61.15","NAN","0.0"],
    [1557034,"2026-05-31 04:50:00","9744","1.159","53.82","2.842","65.89","1018.033","21.79","60.6","NAN","0.0"],
    [1557035,"2026-05-31 05:00:00","9745","1.3519999999999999","46.05","2.287","54.55","1018.092","21.62","60.14","NAN","0.0"],
    [1557036,"2026-05-31 05:10:00","9746","1.123","41.6","2.123","37.98","1018.227","21.75","61.76","NAN","0.0"],
    [1557037,"2026-05-31 05:20:00","9747","1.145","43.75","2.875","28.79","1018.3639999999999","21.75","62.03","NAN","0.0"],
    [1557038,"2026-05-31 05:30:00","9748","1.077","49.17","2.5810000000000004","35.53","1018.439","21.88","60.98","NAN","0.0"],
    [1557039,"2026-05-31 05:40:00","9749","0.696","41.08","1.895","60.55","1018.429","22.1","59.22","NAN","0.0"],
    [1557040,"2026-05-31 05:50:00","9750","0.726","50.74","2.025","57.49","1018.4580000000001","22.43","57.81","NAN","0.0"],
    [1557041,"2026-05-31 06:00:00","9751","0.997","53.74","2.352","21.55","1018.5219999999999","22.7","57.71","NAN","0.0"],
    [1557042,"2026-05-31 06:10:00","9752","1.178","54.56","2.189","48.02","1018.529","22.79","59.6","NAN","0.0"],
    [1557043,"2026-05-31 06:20:00","9753","1.1909999999999998","50.49","2.287","35.5","1018.5210000000001","22.93","60.45","NAN","0.0"],
    [1557044,"2026-05-31 06:30:00","9754","0.563","16.86","1.699","47.52","1018.5830000000001","23.12","61.22","NAN","0.0"],
    [1557045,"2026-05-31 06:40:00","9755","0.7070000000000001","36.33","2.319","78.21","1018.687","23.2","61.21","NAN","0.0"],
    [1557046,"2026-05-31 06:50:00","9756","0.946","68.1","2.156","59.26","1018.6489999999999","23.39","61.34","NAN","0.0"],
    [1557047,"2026-05-31 07:00:00","9757","1.227","49.74","2.319","32.23","1018.586","23.48","62.09","NAN","0.0"],
    [1557048,"2026-05-31 07:10:00","9758","0.5670000000000001","50.61","1.601","86.9","1018.6210000000001","23.89","61.48","NAN","0.0"],
    [1557049,"2026-05-31 07:20:00","9759","1.3519999999999999","106.6","2.287","99.9","1018.757","24.21","65.95","NAN","0.0"],
    [1557050,"2026-05-31 07:30:00","9760","1.949","114.4","2.9730000000000003","111.1","1018.816","23.71","72.83","NAN","0.0"],
    [1557051,"2026-05-31 07:40:00","9761","1.633","102.7","2.515","112.7","1018.8589999999999","23.72","74.64","NAN","0.0"],
    [1557052,"2026-05-31 07:50:00","9762","1.95","112.9","2.679","110.7","1018.837","23.6","76.76","NAN","0.0"],
    [1557053,"2026-05-31 08:00:00","9763","2.015","109.6","2.7769999999999997","112.5","1018.8789999999999","23.59","78.47","NAN","0.0"],
    [1557054,"2026-05-31 08:10:00","9764","2.217","107.5","3.136","117.4","1018.8439999999999","23.53","78.18","NAN","0.0"],
    [1557055,"2026-05-31 08:20:00","9765","2.266","111.1","3.397","112.5","1018.846","23.62","77.08","NAN","0.0"],
    [1557056,"2026-05-31 08:30:00","9766","2.245","111.3","3.005","116.1","1018.944","23.61","76.12","NAN","0.0"],
    [1557057,"2026-05-31 08:40:00","9767","2.042","97.2","3.136","104.3","1018.922","24.02","73.25","NAN","0.0"],
    [1557058,"2026-05-31 08:50:00","9768","1.516","117.2","2.287","130.7","1018.903","24.3","70.41","NAN","0.0"],
    [1557059,"2026-05-31 09:00:00","9769","1.751","120.3","2.613","107.2","1018.8610000000001","24.11","71.39","NAN","0.0"],
    [1557060,"2026-05-31 09:10:00","9770","1.939","124.0","2.9730000000000003","116.3","1018.904","23.93","73.8","NAN","0.0"],
    [1557061,"2026-05-31 09:20:00","9771","2.099","122.1","3.0380000000000003","113.2","1018.878","23.76","76.87","NAN","0.0"],
    [1557062,"2026-05-31 09:30:00","9772","1.83","128.6","2.94","102.9","1018.873","24.11","76.34","NAN","0.0"],
    [1557063,"2026-05-31 09:40:00","9773","1.675","125.9","3.528","113.4","1018.8489999999999","24.35","77.17","NAN","0.0"],
    [1557064,"2026-05-31 09:50:00","9774","1.9340000000000002","131.9","3.332","102.4","1018.913","24.3","78.97","NAN","0.0"],
    [1557065,"2026-05-31 10:00:00","9775","1.95","150.9","3.234","162.1","1018.845","24.17","79.14","NAN","0.0"],
    [1557066,"2026-05-31 10:10:00","9776","1.7469999999999999","146.2","3.1689999999999996","112.0","1018.828","24.53","77.44","NAN","0.0"],
    [1557067,"2026-05-31 10:20:00","9777","2.015","153.4","3.332","158.6","1018.822","24.36","77.83","NAN","0.0"],
    [1557068,"2026-05-31 10:30:00","9778","2.2159999999999997","153.4","3.7889999999999997","159.9","1018.793","24.08","79.38","NAN","0.0"],
    [1557069,"2026-05-31 10:40:00","9779","1.9140000000000001","125.7","3.7889999999999997","107.9","1018.752","24.65","77.11","NAN","0.0"],
    [1557070,"2026-05-31 10:50:00","9780","1.966","126.3","3.855","104.0","1018.735","24.53","77.64","NAN","0.0"],
    [1557071,"2026-05-31 11:00:00","9781","2.106","121.1","3.267","106.5","1018.711","24.76","77.09","NAN","0.0"],
    [1557072,"2026-05-31 11:10:00","9782","2.18","128.5","3.5610000000000004","109.6","1018.7130000000001","24.72","77.65","NAN","0.0"],
    [1557073,"2026-05-31 11:20:00","9783","1.7990000000000002","155.6","3.0380000000000003","109.7","1018.7330000000001","25.02","76.88","NAN","0.0"],
    [1557074,"2026-05-31 11:30:00","9784","1.3969999999999998","202.4","3.071","191.3","1018.676","25.91","73.02","NAN","0.0"],
    [1557075,"2026-05-31 11:40:00","9785","1.844","191.1","3.528","195.1","1018.546","25.75","73.23","NAN","0.0"],
    [1557076,"2026-05-31 11:50:00","9786","1.712","163.0","2.548","178.9","1018.502","25.18","75.72","NAN","0.0"],
    [1557077,"2026-05-31 12:00:00","9787","2.085","147.9","3.397","146.4","1018.3330000000001","25.19","75.56","NAN","0.0"],
    [1557078,"2026-05-31 12:10:00","9788","1.73","172.9","3.005","178.3","1018.316","25.23","75.09","NAN","0.0"],
    [1557079,"2026-05-31 12:20:00","9789","1.652","184.4","2.5810000000000004","177.7","1018.217","25.35","75.1","NAN","0.0"],
    [1557080,"2026-05-31 12:30:00","9790","1.791","183.4","3.299","181.4","1018.2080000000001","25.31","75.72","NAN","0.0"],
    [1557081,"2026-05-31 12:40:00","9791","1.9869999999999999","188.7","3.397","198.4","1018.205","25.38","75.39","NAN","0.0"],
    [1557082,"2026-05-31 12:50:00","9792","1.715","195.1","3.6260000000000003","181.2","1018.14","25.7","74.3","NAN","0.0"],
    [1557083,"2026-05-31 13:00:00","9793","2.247","193.0","4.312","178.6","1018.005","25.85","73.22","NAN","0.0"],
    [1557084,"2026-05-31 13:10:00","9794","1.905","191.1","3.43","176.3","1017.94","25.22","75.79","NAN","0.0"],
    [1557085,"2026-05-31 13:20:00","9795","2.22","182.9","3.7239999999999998","183.4","1017.944","25.4","74.66","NAN","0.0"],
    [1557086,"2026-05-31 13:30:00","9796","2.258","187.7","3.887","195.5","1017.8960000000001","25.01","77.2","NAN","0.0"],
    [1557087,"2026-05-31 13:40:00","9797","2.378","181.2","4.051","169.7","1017.7610000000001","24.91","77.57","NAN","0.0"],
    [1557088,"2026-05-31 13:50:00","9798","1.921","194.3","4.345","175.9","1017.748","25.43","75.89","NAN","0.0"],
    [1557089,"2026-05-31 14:00:00","9799","2.019","184.3","3.659","171.7","1017.834","25.46","74.4","NAN","0.0"],
    [1557090,"2026-05-31 14:10:00","9800","1.73","196.0","3.855","194.0","1017.804","25.51","74.57","NAN","0.0"],
    [1557091,"2026-05-31 14:20:00","9801","2.114","188.1","3.463","165.9","1017.692","25.09","76.57","NAN","0.0"],
    [1557092,"2026-05-31 14:30:00","9802","2.18","185.9","3.9530000000000003","175.1","1017.682","25.16","76.4","NAN","0.0"],
    [1557093,"2026-05-31 14:40:00","9803","1.909","191.8","3.528","171.1","1017.581","25.12","77.44","NAN","0.0"],
    [1557094,"2026-05-31 14:50:00","9804","2.141","191.3","3.822","206.3","1017.448","25.1","77.78","NAN","0.0"],
    [1557095,"2026-05-31 15:00:00","9805","1.629","197.1","3.6910000000000003","192.8","1017.4630000000001","25.56","75.73","NAN","0.0"],
    [1557096,"2026-05-31 15:10:00","9806","1.57","199.0","3.234","177.4","1017.452","25.44","76.36","NAN","0.0"],
    [1557097,"2026-05-31 15:20:00","9807","1.775","180.9","3.0380000000000003","181.7","1017.4789999999999","24.72","79.65","NAN","0.0"],
    [1557098,"2026-05-31 15:30:00","9808","1.754","190.8","3.103","176.4","1017.534","24.44","81.3","NAN","0.0"],
    [1557099,"2026-05-31 15:40:00","9809","1.469","204.4","2.842","202.1","1017.449","25.02","78.79","NAN","0.0"],
    [1557100,"2026-05-31 15:50:00","9810","1.6969999999999998","189.1","3.005","181.1","1017.385","25.01","78.62","NAN","0.0"],
    [1557101,"2026-05-31 16:00:00","9811","1.848","179.9","2.7769999999999997","151.9","1017.38","24.46","80.9","NAN","0.0"],
    [1557102,"2026-05-31 16:10:00","9812","1.79","187.9","3.267","190.1","1017.331","24.45","81.5","NAN","0.0"],
    [1557103,"2026-05-31 16:20:00","9813","2.2119999999999997","171.0","3.299","158.4","1017.3589999999999","24.03","83.3","NAN","0.0"],
    [1557104,"2026-05-31 16:30:00","9814","1.9769999999999999","169.9","2.907","155.1","1017.378","23.88","84.2","NAN","0.0"],
    [1557105,"2026-05-31 16:40:00","9815","1.871","185.9","3.136","178.3","1017.2760000000001","23.92","84.1","NAN","0.0"],
    [1557106,"2026-05-31 16:50:00","9816","1.837","183.3","3.267","180.7","1017.268","23.99","84","NAN","0.0"],
    [1557107,"2026-05-31 17:00:00","9817","1.8880000000000001","172.5","2.9730000000000003","168.8","1017.294","24.05","83.7","NAN","0.0"],
    [1557108,"2026-05-31 17:10:00","9818","2.1790000000000003","173.9","3.267","155.9","1017.309","23.74","85.1","NAN","0.0"],
    [1557109,"2026-05-31 17:20:00","9819","2.1959999999999997","169.4","3.659","178.0","1017.298","23.78","85.6","NAN","0.0"],
    [1557110,"2026-05-31 17:30:00","9820","1.906","176.3","3.463","173.4","1017.306","23.82","85.6","NAN","0.0"],
    [1557111,"2026-05-31 17:40:00","9821","2.435","174.5","3.985","179.1","1017.309","23.7","86.2","NAN","0.0"],
    [1557112,"2026-05-31 17:50:00","9822","2.3569999999999998","167.5","3.593","155.0","1017.279","23.69","86.1","NAN","0.0"],
    [1557113,"2026-05-31 18:00:00","9823","2.396","176.8","3.234","185.4","1017.179","23.65","85.9","NAN","0.0"],
    [1557114,"2026-05-31 18:10:00","9824","1.9069999999999998","169.4","3.0380000000000003","155.7","1017.242","23.59","86.4","NAN","0.0"],
    [1557115,"2026-05-31 18:20:00","9825","1.821","171.8","2.6460000000000004","180.2","1017.329","23.66","85.6","NAN","0.0"],
    [1557116,"2026-05-31 18:30:00","9826","2.383","173.3","3.7889999999999997","177.9","1017.2819999999999","23.57","86.2","NAN","0.0"],
    [1557117,"2026-05-31 18:40:00","9827","2.376","176.8","3.6910000000000003","170.7","1017.27","23.4","88","NAN","0.0"],
    [1557118,"2026-05-31 18:50:00","9828","2.109","177.5","3.1689999999999996","178.3","1017.327","23.32","88.7","NAN","0.0"],
    [1557119,"2026-05-31 19:00:00","9829","2.0140000000000002","175.4","3.659","179.9","1017.321","23.31","88.5","NAN","0.0"],
    [1557120,"2026-05-31 19:10:00","9830","2.1069999999999998","175.7","3.332","178.8","1017.242","23.27","88.9","NAN","0.0"],
    [1557121,"2026-05-31 19:20:00","9831","1.558","175.6","2.6460000000000004","170.7","1017.1669999999999","23.3","89","NAN","0.0"],
    [1557122,"2026-05-31 19:30:00","9832","1.7530000000000001","167.9","2.613","162.3","1017.201","23.3","89","NAN","0.0"],
    [1557123,"2026-05-31 19:40:00","9833","1.546","178.1","2.7110000000000003","185.2","1017.164","23.31","88.9","NAN","0.0"],
    [1557124,"2026-05-31 19:50:00","9834","1.436","182.5","2.548","182.6","1017.0060000000001","23.32","89.3","NAN","0.0"],
    [1557125,"2026-05-31 20:00:00","9835","1.111","165.2","2.254","164.8","1017.054","23.31","89.9","NAN","0.0"],
    [1557126,"2026-05-31 20:10:00","9836","1.291","177.0","2.254","182.1","1017.303","23.29","89.8","NAN","0.0"],
    [1557127,"2026-05-31 20:20:00","9837","1.757","178.1","2.679","173.1","1017.153","23.27","90.3","NAN","0.0"],
    [1557128,"2026-05-31 20:30:00","9838","1.6680000000000001","174.0","3.071","178.2","1017.12","23.16","90.9","NAN","0.0"],
    [1557129,"2026-05-31 20:40:00","9839","1.11","167.0","2.189","184.2","1017.325","23.25","90.1","NAN","0.0"],
    [1557130,"2026-05-31 20:50:00","9840","0.542","178.5","1.829","190.0","1017.4580000000001","23.34","90","NAN","0.0"],
    [1557131,"2026-05-31 21:00:00","9841","1.047","147.8","2.025","174.0","1017.58","23.45","89.3","NAN","0.0"],
    [1557132,"2026-05-31 21:10:00","9842","0.7759999999999999","155.0","1.699","181.4","1017.5989999999999","23.34","89.7","NAN","0.0"],
    [1557133,"2026-05-31 21:20:00","9843","0.9520000000000001","136.0","1.7309999999999999","117.9","1017.547","23.38","89.9","NAN","0.0"],
    [1557134,"2026-05-31 21:30:00","9844","0.557","126.5","1.209","150.8","1017.6439999999999","23.34","90.8","NAN","0.0"],
    [1557135,"2026-05-31 21:40:00","9845","0.932","88.5","1.601","95.4","1017.59","23.47","89.9","NAN","0.0"],
    [1557136,"2026-05-31 21:50:00","9846","1.253","81.3","2.45","65.84","1017.584","23.37","90.4","NAN","0.0"],
    [1557137,"2026-05-31 22:00:00","9847","1.064","79.14","1.797","109.4","1017.584","23.27","91.3","NAN","0.0"],
    [1557138,"2026-05-31 22:10:00","9848","0.929","103.7","1.699","141.6","1017.63","23.23","91.2","NAN","0.0"],
    [1557139,"2026-05-31 22:20:00","9849","0.43","124.5","1.274","148.9","1017.7080000000001","23.16","91.5","NAN","0.0"],
    [1557140,"2026-05-31 22:30:00","9850","0.325","163.7","0.7509999999999999","177.3","1017.725","23.19","91.3","NAN","0.0"],
    [1557141,"2026-05-31 22:40:00","9851","0.28600000000000003","182.2","0.8490000000000001","181.2","1017.7080000000001","23.16","91.4","NAN","0.0"],
    [1557142,"2026-05-31 22:50:00","9852","0.42100000000000004","190.1","1.143","202.8","1017.706","23.08","92","NAN","0.0"],
    [1557143,"2026-05-31 23:00:00","9853","0.23199999999999998","182.4","0.784","184.5","1017.711","23.07","92.1","NAN","0.0"],
    [1557144,"2026-05-31 23:10:00","9854","0.34","161.7","0.784","142.5","1017.705","23.01","92.6","NAN","0.0"],
    [1557145,"2026-05-31 23:20:00","9855","0.594","146.7","1.405","158.6","1017.7080000000001","23.04","92.5","NAN","0.0"],
    [1557146,"2026-05-31 23:30:00","9856","0.745","120.9","1.209","106.0","1017.727","23.16","92.1","NAN","0.0"],
    [1557147,"2026-05-31 23:40:00","9857","0.536","118.8","1.3719999999999999","106.4","1017.701","23.18","91.9","NAN","0.0"],
    [1557148,"2026-05-31 23:50:00","9858","1.141","106.0","1.764","88.3","1017.6260000000001","23.23","91.5","NAN","0.0"],
    [1557149,"2026-06-01 00:00:00","9859","1.361","103.1","2.123","116.1","1017.529","23.16","91.6","NAN","0.0"],
    [1557150,"2026-06-01 00:10:00","9860","1.3530000000000002","81.9","1.993","83.7","1017.403","23.08","91.6","NAN","0.0"],
    [1557151,"2026-06-01 00:20:00","9861","1.215","86.4","1.9269999999999998","90.1","1017.33","22.99","92.2","NAN","0.0"],
    [1557152,"2026-06-01 00:30:00","9862","1.224","80.1","2.0580000000000003","74.01","1017.331","22.93","92.4","NAN","0.0"],
    [1557153,"2026-06-01 00:40:00","9863","1.048","72.89","2.123","96.4","1017.335","22.96","92.3","NAN","0.0"],
    [1557154,"2026-06-01 00:50:00","9864","0.7609999999999999","55.28","1.4369999999999998","34.59","1017.44","22.91","92.4","NAN","0.0"],
    [1557155,"2026-06-01 01:00:00","9865","0.9590000000000001","44.56","1.535","34.55","1017.477","22.86","92.8","NAN","0.0"],
    [1557156,"2026-06-01 01:10:00","9866","1.276","61.76","2.483","68.81","1017.49","22.89","93","NAN","0.0"],
    [1557157,"2026-06-01 01:20:00","9867","1.229","56.16","2.7110000000000003","57.43","1017.5139999999999","22.88","94.2","NAN","0.0"],
    [1557158,"2026-06-01 01:30:00","9868","1.1520000000000001","50.94","2.221","26.54","1017.4989999999999","22.82","93.9","NAN","0.0"],
    [1557159,"2026-06-01 01:40:00","9869","1.2819999999999998","61.89","2.842","59.67","1017.456","22.88","93.7","NAN","0.0"],
    [1557160,"2026-06-01 01:50:00","9870","1.247","56.41","2.9730000000000003","25.75","1017.4760000000001","22.89","94.3","NAN","0.0"],
    [1557161,"2026-06-01 02:00:00","9871","2.3409999999999997","61.3","4.769","62.44","1017.462","22.63","90.7","NAN","0.0"],
    [1557162,"2026-06-01 02:10:00","9872","2.012","57.4","4.247","51.91","1017.459","22.6","86.4","NAN","0.0"],
    [1557163,"2026-06-01 02:20:00","9873","1.607","52.12","3.855","75.53","1017.422","22.57","87.9","NAN","0.0"],
    [1557164,"2026-06-01 02:30:00","9874","1.6380000000000001","53.64","3.397","50.12","1017.4110000000001","22.51","89.6","NAN","0.0"],
    [1557165,"2026-06-01 02:40:00","9875","1.59","56.37","3.136","71.36","1017.332","22.47","89.9","NAN","0.0"],
    [1557166,"2026-06-01 02:50:00","9876","1.8019999999999998","44.78","3.463","38.01","1017.332","22.44","90.3","NAN","0.0"],
    [1557167,"2026-06-01 03:00:00","9877","1.5930000000000002","47.42","3.659","34.6","1017.32","22.47","89.8","NAN","0.0"],
    [1557168,"2026-06-01 03:10:00","9878","1.3719999999999999","52.94","3.365","66.59","1017.305","22.5","89.6","NAN","0.0"],
    [1557169,"2026-06-01 03:20:00","9879","1.608","60.52","3.365","112.3","1017.297","22.61","90","NAN","0.0"],
    [1557170,"2026-06-01 03:30:00","9880","1.5390000000000001","52.04","3.201","94.3","1017.294","22.75","90.9","NAN","0.0"],
    [1557171,"2026-06-01 03:40:00","9881","1.749","53.07","3.267","77.75","1017.327","22.64","91","NAN","0.0"],
    [1557172,"2026-06-01 03:50:00","9882","1.87","47.87","3.201","66.94","1017.311","22.48","90","NAN","0.0"],
    [1557173,"2026-06-01 04:00:00","9883","1.4140000000000001","51.44","2.7110000000000003","28.34","1017.164","22.39","89.1","NAN","0.0"],
    [1557174,"2026-06-01 04:10:00","9884","1.499","52.72","3.1689999999999996","71.61","1017.132","22.35","88.3","NAN","0.0"],
    [1557175,"2026-06-01 04:20:00","9885","1.516","40.11","2.907","19.42","1017.2080000000001","22.26","88","NAN","0.0"],
    [1557176,"2026-06-01 04:30:00","9886","1.281","48.13","2.7439999999999998","32.49","1017.2439999999999","22.24","88.1","NAN","0.0"],
    [1557177,"2026-06-01 04:40:00","9887","1.228","43.45","2.319","60.52","1017.291","22.24","87.9","NAN","0.0"],
    [1557178,"2026-06-01 04:50:00","9888","1.5959999999999999","44.05","2.9730000000000003","34.03","1017.317","22.23","87.6","NAN","0.0"],
    [1557179,"2026-06-01 05:00:00","9889","1.348","44.07","2.45","58.62","1017.327","22.3","86.5","NAN","0.0"],
    [1557180,"2026-06-01 05:10:00","9890","1.2819999999999998","37.46","2.319","37.11","1017.331","22.37","85.9","NAN","0.0"],
    [1557181,"2026-06-01 05:20:00","9891","1.506","38.03","2.417","18.68","1017.329","22.47","85.1","NAN","0.0"],
    [1557182,"2026-06-01 05:30:00","9892","1.581","41.07","2.5810000000000004","22.03","1017.332","22.59","84.4","NAN","0.0"],
    [1557183,"2026-06-01 05:40:00","9893","1.263","50.76","2.5810000000000004","22.05","1017.323","22.74","83.7","NAN","0.0"],
    [1557184,"2026-06-01 05:50:00","9894","1.148","56.81","2.221","83.0","1017.404","23.01","82.4","NAN","0.0"],
    [1557185,"2026-06-01 06:00:00","9895","0.943","61.14","2.221","21.66","1017.5060000000001","23.3","81","NAN","0.0"],
    [1557186,"2026-06-01 06:10:00","9896","1.401","69.9","2.45","75.52","1017.553","23.42","78.4","NAN","0.0"],
    [1557187,"2026-06-01 06:20:00","9897","1.364","81.8","2.679","99.7","1017.6060000000001","23.49","77.62","NAN","0.0"],
    [1557188,"2026-06-01 06:30:00","9898","1.035","59.68","2.0580000000000003","63.58","1017.638","23.61","77.61","NAN","0.0"],
    [1557189,"2026-06-01 06:40:00","9899","1.135","73.68","2.352","82.0","1017.7330000000001","23.47","78.58","NAN","0.0"],
    [1557190,"2026-06-01 06:50:00","9900","0.956","97.1","2.156","73.42","1017.785","23.5","78.74","NAN","0.0"],
    [1557191,"2026-06-01 07:00:00","9901","0.879","105.2","2.0580000000000003","115.6","1017.915","23.81","77.8","NAN","0.0"],
    [1557192,"2026-06-01 07:10:00","9902","1.006","117.7","2.025","103.7","1018.0139999999999","23.77","78.33","NAN","0.0"],
    [1557193,"2026-06-01 07:20:00","9903","0.532","104.1","1.601","116.5","1018.107","24.01","77.54","NAN","0.0"],
    [1557194,"2026-06-01 07:30:00","9904","0.635","125.5","1.405","158.7","1018.211","24.02","77.91","NAN","0.0"],
    [1557195,"2026-06-01 07:40:00","9905","0.809","166.8","1.8619999999999999","163.4","1018.2189999999999","24.15","78.54","NAN","0.0"],
    [1557196,"2026-06-01 07:50:00","9906","0.6990000000000001","152.1","1.7309999999999999","103.6","1018.171","24.62","77.08","NAN","0.0"],
    [1557197,"2026-06-01 08:00:00","9907","1.023","171.9","2.156","181.2","1018.17","24.65","76.59","NAN","0.0"],
    [1557198,"2026-06-01 08:10:00","9908","1.449","172.4","2.5810000000000004","153.2","1018.17","24.28","78.13","NAN","0.0"],
    [1557199,"2026-06-01 08:20:00","9909","1.63","178.3","2.842","203.0","1018.178","24.3","77.13","NAN","0.0"],
    [1557200,"2026-06-01 08:30:00","9910","1.3019999999999998","184.9","2.254","212.1","1018.172","24.64","75.33","NAN","0.0"],
    [1557201,"2026-06-01 08:40:00","9911","1.537","172.4","2.5810000000000004","181.8","1018.188","24.75","72.29","NAN","0.0"],
    [1557202,"2026-06-01 08:50:00","9912","1.7590000000000001","180.2","3.071","160.3","1018.182","24.67","72.45","NAN","0.0"],
    [1557203,"2026-06-01 09:00:00","9913","1.995","178.4","3.267","186.7","1018.125","24.76","72.81","NAN","0.0"],
    [1557204,"2026-06-01 09:10:00","9914","2.049","169.6","3.6910000000000003","154.1","1018.0010000000001","24.64","74.39","NAN","0.0"],
    [1557205,"2026-06-01 09:20:00","9915","2.8089999999999997","165.7","4.149","178.5","1017.966","24.59","74.28","NAN","0.0"],
    [1557206,"2026-06-01 09:30:00","9916","2.875","163.0","4.377","174.4","1017.954","24.67","71.89","NAN","0.0"],
    [1557207,"2026-06-01 09:40:00","9917","2.539","176.5","4.475","177.2","1017.9780000000001","24.79","72.09","NAN","0.0"],
    [1557208,"2026-06-01 09:50:00","9918","2.175","197.8","4.704","151.5","1017.9730000000001","25.46","69.16","NAN","0.0"],
    [1557209,"2026-06-01 10:00:00","9919","2.2840000000000003","190.1","4.638999999999999","178.4","1017.967","25.69","67.8","NAN","0.0"],
    [1557210,"2026-06-01 10:10:00","9920","2.173","193.8","3.855","181.2","1017.947","25.45","69.72","NAN","0.0"],
    [1557211,"2026-06-01 10:20:00","9921","2.283","186.6","4.083","177.3","1017.888","25.82","69.44","NAN","0.0"],
    [1557212,"2026-06-01 10:30:00","9922","2.474","192.4","4.508","176.4","1017.9010000000001","25.59","69.17","NAN","0.0"],
    [1557213,"2026-06-01 10:40:00","9923","2.234","182.4","4.475","182.0","1017.819","26.09","67.94","NAN","0.0"],
    [1557214,"2026-06-01 10:50:00","9924","2.9989999999999997","174.9","5.096","175.0","1017.7230000000001","25.44","70.57","NAN","0.0"],
    [1557215,"2026-06-01 11:00:00","9925","2.279","183.4","4.083","149.3","1017.689","25.63","69.27","NAN","0.0"],
    [1557216,"2026-06-01 11:10:00","9926","2.2230000000000003","197.9","4.769","172.9","1017.6039999999999","26.21","65.94","NAN","0.0"],
    [1557217,"2026-06-01 11:20:00","9927","2.6069999999999998","185.5","4.606","174.5","1017.4789999999999","26.15","65.24","NAN","0.0"],
    [1557218,"2026-06-01 11:30:00","9928","2.315","190.4","4.279","213.5","1017.455","26.04","64.08","NAN","0.0"],
    [1557219,"2026-06-01 11:40:00","9929","2.67","182.3","4.41","175.8","1017.3389999999999","26.07","65.38","NAN","0.0"],
    [1557220,"2026-06-01 11:50:00","9930","2.267","189.2","5.227","169.6","1017.317","26.17","65.53","NAN","0.0"],
    [1557221,"2026-06-01 12:00:00","9931","2.95","188.2","5.749","180.2","1017.2669999999999","25.89","66.92","NAN","0.0"],
    [1557222,"2026-06-01 12:10:00","9932","2.358","193.5","4.867","168.5","1017.201","26.61","63.7","NAN","0.0"],
    [1557223,"2026-06-01 12:20:00","9933","3.0389999999999997","178.1","5.586","178.1","1017.051","26.07","66.09","NAN","0.0"],
    [1557224,"2026-06-01 12:30:00","9934","3.6510000000000002","179.8","6.435","174.4","1016.922","25.51","68.51","NAN","0.0"],
    [1557225,"2026-06-01 12:40:00","9935","3.486","182.5","5.782","186.8","1016.755","25.55","67.27","NAN","0.0"],
    [1557226,"2026-06-01 12:50:00","9936","3.467","179.6","6.272","171.7","1016.699","25.57","67.88","NAN","0.0"],
    [1557227,"2026-06-01 13:00:00","9937","2.967","187.8","5.422999999999999","185.5","1016.575","25.81","66.31","NAN","0.0"],
    [1557228,"2026-06-01 13:10:00","9938","3.633","184.6","6.305","182.9","1016.465","25.55","68.38","NAN","0.0"],
    [1557229,"2026-06-01 13:20:00","9939","3.136","188.0","6.37","176.3","1016.328","25.83","64.57","NAN","0.0"],
    [1557230,"2026-06-01 13:30:00","9940","3.213","184.2","7.121","175.9","1016.21","25.71","65.27","NAN","0.0"],
    [1557231,"2026-06-01 13:40:00","9941","3.4530000000000003","185.7","5.847","181.3","1016.165","25.91","62.51","NAN","0.0"],
    [1557232,"2026-06-01 13:50:00","9942","3.708","181.8","5.553","179.0","1016.077","25.58","63.44","NAN","0.0"],
    [1557233,"2026-06-01 14:00:00","9943","3.2939999999999996","187.0","5.227","187.2","1016.02","25.54","63.58","NAN","0.0"],
    [1557234,"2026-06-01 14:10:00","9944","3.388","177.0","5.619","180.4","1015.9119999999999","25.5","64.62","NAN","0.0"],
    [1557235,"2026-06-01 14:20:00","9945","3.594","175.9","5.7170000000000005","171.3","1015.78","25.4","65.12","NAN","0.0"],
    [1557236,"2026-06-01 14:30:00","9946","3.4730000000000003","177.8","5.455","156.1","1015.635","25.44","66.59","NAN","0.0"],
    [1557237,"2026-06-01 14:40:00","9947","3.7110000000000003","177.0","6.1739999999999995","181.9","1015.419","25.38","66.07","NAN","0.0"],
    [1557238,"2026-06-01 14:50:00","9948","3.267","176.3","5.455","161.3","1015.331","25.78","63.26","NAN","0.0"],
    [1557239,"2026-06-01 15:00:00","9949","3.0610000000000004","188.1","6.1739999999999995","177.2","1015.288","25.83","60.02","NAN","0.0"],
    [1557240,"2026-06-01 15:10:00","9950","2.87","189.3","5.129","175.5","1015.248","25.76","61.37","NAN","0.0"],
    [1557241,"2026-06-01 15:20:00","9951","3.1719999999999997","187.7","5.782","199.9","1015.1469999999999","25.81","59.81","NAN","0.0"],
    [1557242,"2026-06-01 15:30:00","9952","3.4130000000000003","180.4","6.207000000000001","174.6","1014.9960000000001","25.69","58.58","NAN","0.0"],
    [1557243,"2026-06-01 15:40:00","9953","3.16","181.8","5.945","182.6","1014.967","25.61","57.97","NAN","0.0"],
    [1557244,"2026-06-01 15:50:00","9954","3.5239999999999996","181.6","5.063","171.6","1014.8660000000001","25.42","57.83","NAN","0.0"],
    [1557245,"2026-06-01 16:00:00","9955","3.0439999999999996","188.5","5.4879999999999995","187.4","1014.829","25.41","59.26","NAN","0.0"],
    [1557246,"2026-06-01 16:10:00","9956","2.65","194.0","4.867","203.1","1014.7589999999999","25.71","60.43","NAN","0.0"],
    [1557247,"2026-06-01 16:20:00","9957","2.642","188.1","4.541","188.8","1014.632","25.42","61.95","NAN","0.0"],
    [1557248,"2026-06-01 16:30:00","9958","2.5989999999999998","189.3","5.031000000000001","175.0","1014.467","25.23","63.19","NAN","0.0"],
    [1557249,"2026-06-01 16:40:00","9959","2.588","194.6","4.671","195.4","1014.324","25.24","65.15","NAN","0.0"],
    [1557250,"2026-06-01 16:50:00","9960","2.247","197.7","5.063","186.7","1014.2689999999999","25.51","61.95","NAN","0.0"],
    [1557251,"2026-06-01 17:00:00","9961","2.7319999999999998","195.9","5.325","172.1","1014.2719999999999","25.41","60.57","NAN","0.0"],
    [1557252,"2026-06-01 17:10:00","9962","2.485","204.7","5.586","231.7","1014.28","25.59","59.48","NAN","0.0"],
    [1557253,"2026-06-01 17:20:00","9963","2.688","194.7","5.194","173.2","1014.225","25.3","62.56","NAN","0.0"],
    [1557254,"2026-06-01 17:30:00","9964","2.311","190.0","4.835","180.3","1014.11","25.18","66.73","NAN","0.0"],
    [1557255,"2026-06-01 17:40:00","9965","2.655","195.8","5.455","202.7","1014.039","24.81","69.65","NAN","0.0"],
    [1557256,"2026-06-01 17:50:00","9966","2.3040000000000003","202.4","5.521","202.6","1014.0360000000001","24.78","71.45","NAN","0.0"],
    [1557257,"2026-06-01 18:00:00","9967","2.9819999999999998","192.1","5.521","202.6","1014.0369999999999","24.54","73.04","NAN","0.0"],
    [1557258,"2026-06-01 18:10:00","9968","2.299","199.2","5.031000000000001","204.3","1014.0369999999999","24.6","73.28","NAN","0.0"],
    [1557259,"2026-06-01 18:20:00","9969","2.19","198.7","4.704","194.1","1014.041","24.6","74.1","NAN","0.0"],
    [1557260,"2026-06-01 18:30:00","9970","2.229","202.0","4.541","221.7","1014.046","24.41","75.29","NAN","0.0"],
    [1557261,"2026-06-01 18:40:00","9971","2.309","196.7","4.149","189.5","1014.0269999999999","24.26","76.16","NAN","0.0"],
    [1557262,"2026-06-01 18:50:00","9972","2.225","197.9","4.41","193.6","1014.008","24.08","77.38","NAN","0.0"],
    [1557263,"2026-06-01 19:00:00","9973","1.318","208.5","3.1689999999999996","198.7","1013.9860000000001","24.05","77.86","NAN","0.0"],
    [1557264,"2026-06-01 19:10:00","9974","1.78","205.4","4.475","197.3","1013.946","24.12","78.15","NAN","0.0"],
    [1557265,"2026-06-01 19:20:00","9975","1.3530000000000002","210.1","2.875","180.4","1013.885","24.02","79","NAN","0.0"],
    [1557266,"2026-06-01 19:30:00","9976","1.8519999999999999","201.1","3.7569999999999997","174.5","1013.84","23.89","80","NAN","0.0"],
    [1557267,"2026-06-01 19:40:00","9977","1.1740000000000002","214.6","3.332","179.6","1013.972","23.9","80.1","NAN","0.0"],
    [1557268,"2026-06-01 19:50:00","9978","1.4380000000000002","216.9","3.43","236.7","1014.073","24.02","79.82","NAN","0.0"],
    [1557269,"2026-06-01 20:00:00","9979","1.614","204.0","2.94","174.6","1014.059","23.87","80.7","NAN","0.0"],
    [1557270,"2026-06-01 20:10:00","9980","1.146","214.3","3.397","236.6","1014.2280000000001","23.76","81.4","NAN","0.0"],
    [1557271,"2026-06-01 20:20:00","9981","1.3419999999999999","218.4","3.234","196.6","1014.432","23.9","80.8","NAN","0.0"],
    [1557272,"2026-06-01 20:30:00","9982","1.614","213.2","3.495","208.3","1014.555","23.87","81","NAN","0.0"],
    [1557273,"2026-06-01 20:40:00","9983","1.528","205.0","3.299","200.7","1014.587","23.72","82.1","NAN","0.0"],
    [1557274,"2026-06-01 20:50:00","9984","1.3559999999999999","215.4","3.332","233.8","1014.5980000000001","23.73","82.3","NAN","0.0"],
    [1557275,"2026-06-01 21:00:00","9985","1.3869999999999998","215.0","3.234","201.9","1014.7080000000001","23.87","81.5","NAN","0.0"],
    [1557276,"2026-06-01 21:10:00","9986","1.194","213.8","2.7110000000000003","197.3","1014.539","23.83","82","NAN","0.0"],
    [1557277,"2026-06-01 21:20:00","9987","1.063","229.5","3.201","246.8","1014.4939999999999","23.81","82.2","NAN","0.0"],
    [1557278,"2026-06-01 21:30:00","9988","1.524","223.8","3.005","224.9","1014.564","23.72","82.7","NAN","0.0"],
    [1557279,"2026-06-01 21:40:00","9989","1.054","218.9","2.483","219.2","1014.549","23.68","82.8","NAN","0.0"],
    [1557280,"2026-06-01 21:50:00","9990","1.382","211.7","2.94","203.4","1014.4830000000001","23.55","83","NAN","0.0"],
    [1557281,"2026-06-01 22:00:00","9991","0.924","218.6","2.7769999999999997","222.5","1014.435","23.55","83","NAN","0.0"],
    [1557282,"2026-06-01 22:10:00","9992","1.109","222.7","2.875","208.7","1014.35","23.61","82.6","NAN","0.0"],
    [1557283,"2026-06-01 22:20:00","9993","1.431","217.2","2.9730000000000003","206.8","1014.335","23.63","81.9","NAN","0.0"],
    [1557284,"2026-06-01 22:30:00","9994","1.389","215.5","3.103","227.4","1014.345","23.47","82.8","NAN","0.0"],
    [1557285,"2026-06-01 22:40:00","9995","1.133","211.1","2.417","249.6","1014.337","23.43","83.4","NAN","0.0"],
    [1557286,"2026-06-01 22:50:00","9996","0.966","223.1","3.071","270.0","1014.2760000000001","23.61","82.4","NAN","0.0"],
    [1557287,"2026-06-01 23:00:00","9997","1.751","239.2","4.247","230.2","1014.325","23.78","81.4","NAN","0.0"],
    [1557288,"2026-06-01 23:10:00","9998","1.8719999999999999","238.6","4.083","242.6","1014.2330000000001","23.83","81.4","NAN","0.0"],
    [1557289,"2026-06-01 23:20:00","9999","1.535","237.8","3.299","228.2","1014.1060000000001","23.76","81.9","NAN","0.1"],
    [1557290,"2026-06-01 23:30:00","10000","1.43","241.7","3.495","249.6","1013.9680000000001","23.52","84.9","NAN","0.1"],
    [1557291,"2026-06-01 23:40:00","10001","0.79","221.7","2.613","244.7","1013.931","23.43","86.3","NAN","0.0"],
    [1557292,"2026-06-01 23:50:00","10002","0.565","204.6","1.5030000000000001","210.5","1013.8439999999999","23.12","88.4","NAN","0.0"],
    [1557293,"2026-06-02 00:00:00","10003","0.647","214.8","1.633","204.0","1013.799","23.04","89.8","NAN","0.0"],
    [1557294,"2026-06-02 00:10:00","10004","1.003","209.5","1.829","212.1","1013.66","22.94","90.2","NAN","0.0"],
    [1557295,"2026-06-02 00:20:00","10005","0.945","224.3","2.385","210.9","1013.625","23.03","89.6","NAN","0.0"],
    [1557296,"2026-06-02 00:30:00","10006","1.1320000000000001","236.9","2.515","251.9","1013.6569999999999","23.24","88.2","NAN","0.0"],
    [1557297,"2026-06-02 00:40:00","10007","0.7170000000000001","204.7","2.156","217.2","1013.36","23.32","86.5","NAN","0.0"],
    [1557298,"2026-06-02 00:50:00","10008","1.46","216.6","2.8089999999999997","155.4","1013.1060000000001","23.13","88.1","NAN","0.2"],
    [1557299,"2026-06-02 01:00:00","10009","1.155","252.4","2.45","246.9","1013.2460000000001","23.03","87.6","NAN","0.0"],
    [1557300,"2026-06-02 01:10:00","10010","0.81","240.2","2.221","235.3","1013.079","22.9","85.3","NAN","0.1"],
    [1557301,"2026-06-02 01:20:00","10011","0.7609999999999999","219.0","1.9269999999999998","243.5","1013.012","23","88.9","NAN","0.0"],
    [1557302,"2026-06-02 01:30:00","10012","0.9390000000000001","207.6","2.0580000000000003","196.3","1012.8889999999999","22.75","91.4","NAN","0.0"],
    [1557303,"2026-06-02 01:40:00","10013","1.107","214.8","1.829","200.8","1012.835","22.63","92.3","NAN","0.0"],
    [1557304,"2026-06-02 01:50:00","10014","1.022","211.0","2.123","222.7","1012.805","22.56","92.1","NAN","0.0"],
    [1557305,"2026-06-02 02:00:00","10015","0.7190000000000001","207.3","1.47","194.5","1012.768","22.46","92.2","NAN","0.0"],
    [1557306,"2026-06-02 02:10:00","10016","0.825","201.6","1.568","198.0","1012.6030000000001","22.25","92.2","NAN","0.0"],
    [1557307,"2026-06-02 02:20:00","10017","0.7809999999999999","194.9","1.4369999999999998","194.3","1012.459","22.15","92","NAN","0.0"],
    [1557308,"2026-06-02 02:30:00","10018","0.9540000000000001","207.7","1.633","212.5","1012.427","22.1","91.6","NAN","0.0"],
    [1557309,"2026-06-02 02:40:00","10019","0.998","205.5","1.7309999999999999","202.9","1012.439","22.21","90.6","NAN","0.0"],
    [1557310,"2026-06-02 02:50:00","10020","0.922","205.5","1.666","190.7","1012.357","22.13","90.2","NAN","0.0"],
    [1557311,"2026-06-02 03:00:00","10021","0.83","215.4","2.221","223.6","1012.257","22.14","89.9","NAN","0.0"],
    [1557312,"2026-06-02 03:10:00","10022","1.081","219.0","2.0909999999999997","199.2","1012.117","22.18","88.5","NAN","0.0"],
    [1557313,"2026-06-02 03:20:00","10023","1.188","222.1","2.319","226.1","1012.095","22.25","87.6","NAN","0.0"],
    [1557314,"2026-06-02 03:30:00","10024","0.889","218.4","2.156","270.2","1011.985","22.29","87.8","NAN","0.0"],
    [1557315,"2026-06-02 03:40:00","10025","0.998","207.9","2.025","211.8","1011.824","22.17","88.3","NAN","0.0"],
    [1557316,"2026-06-02 03:50:00","10026","0.7390000000000001","221.6","1.8619999999999999","214.7","1011.9010000000001","22.13","89.1","NAN","0.0"],
    [1557317,"2026-06-02 04:00:00","10027","0.9740000000000001","250.3","2.352","248.4","1012.09","22.34","88.3","NAN","0.0"],
    [1557318,"2026-06-02 04:10:00","10028","1.584","240.2","3.7889999999999997","230.0","1012.052","22.51","87.5","NAN","0.0"],
    [1557319,"2026-06-02 04:20:00","10029","0.917","224.8","1.895","247.1","1011.923","22.45","87.7","NAN","0.0"],
    [1557320,"2026-06-02 04:30:00","10030","0.818","211.1","2.0580000000000003","240.5","1012.01","22.19","89.7","NAN","0.0"],
    [1557321,"2026-06-02 04:40:00","10031","0.885","242.9","2.5810000000000004","269.0","1012.125","22.39","89.1","NAN","0.0"],
    [1557322,"2026-06-02 04:50:00","10032","0.92","213.6","2.0909999999999997","239.9","1012.2669999999999","22.61","87.6","NAN","0.0"],
    [1557323,"2026-06-02 05:00:00","10033","0.804","219.2","1.96","230.4","1012.1519999999999","22.49","88.3","NAN","0.0"],
    [1557324,"2026-06-02 05:10:00","10034","0.636","209.7","1.666","249.8","1012.048","22.51","89.1","NAN","0.0"],
    [1557325,"2026-06-02 05:20:00","10035","0.871","217.2","2.483","236.4","1012.09","22.57","89.9","NAN","0.0"],
    [1557326,"2026-06-02 05:30:00","10036","0.9570000000000001","217.3","1.666","249.1","1012.097","22.65","89.6","NAN","0.0"],
    [1557327,"2026-06-02 05:40:00","10037","0.8320000000000001","205.2","1.96","230.9","1012.1","22.65","89.8","NAN","0.0"],
    [1557328,"2026-06-02 05:50:00","10038","0.9229999999999999","208.9","2.0580000000000003","207.5","1012.1139999999999","22.79","89.3","NAN","0.0"],
    [1557329,"2026-06-02 06:00:00","10039","0.963","210.1","2.5810000000000004","235.6","1012.1619999999999","23.03","88.2","NAN","0.0"],
    [1557330,"2026-06-02 06:10:00","10040","0.7759999999999999","238.5","2.613","236.5","1012.181","23.46","85.9","NAN","0.0"],
    [1557331,"2026-06-02 06:20:00","10041","1.476","246.2","2.875","229.1","1012.12","23.46","84.6","NAN","0.0"],
    [1557332,"2026-06-02 06:30:00","10042","0.82","217.5","1.8619999999999999","248.5","1012.075","23.71","83.8","NAN","0.0"],
    [1557333,"2026-06-02 06:40:00","10043","1.4380000000000002","232.8","3.6910000000000003","230.4","1012.034","23.83","82.2","NAN","0.0"],
    [1557334,"2026-06-02 06:50:00","10044","1.2890000000000001","232.1","2.515","223.8","1012.097","24.01","80.9","NAN","0.0"],
    [1557335,"2026-06-02 07:00:00","10045","1.416","239.8","3.7569999999999997","241.4","1012.1560000000001","23.91","79.78","NAN","0.0"],
    [1557336,"2026-06-02 07:10:00","10046","1.5659999999999998","246.7","3.267","228.1","1012.1569999999999","24.14","79.07","NAN","0.0"],
    [1557337,"2026-06-02 07:20:00","10047","1.247","244.1","3.267","242.9","1012.232","24.49","76.52","NAN","0.0"],
    [1557338,"2026-06-02 07:30:00","10048","0.799","245.2","2.483","224.2","1012.275","24.63","74.78","NAN","0.0"],
    [1557339,"2026-06-02 07:40:00","10049","1.147","219.5","2.8089999999999997","201.7","1012.182","24.7","73.51","NAN","0.0"],
    [1557340,"2026-06-02 07:50:00","10050","1.146","221.3","2.7769999999999997","217.0","1012.2460000000001","24.72","73.07","NAN","0.0"],
    [1557341,"2026-06-02 08:00:00","10051","0.757","256.2","2.156","225.2","1012.2539999999999","25.07","71.29","NAN","0.0"],
    [1557342,"2026-06-02 08:10:00","10052","0.835","189.2","2.679","197.4","1012.222","24.99","71.79","NAN","0.0"],
    [1557343,"2026-06-02 08:20:00","10053","1.391","198.6","2.7769999999999997","184.0","1012.135","24.76","72.09","NAN","0.0"],
    [1557344,"2026-06-02 08:30:00","10054","1.496","180.0","2.6460000000000004","156.6","1012.081","24.53","74.99","NAN","0.0"],
    [1557345,"2026-06-02 08:40:00","10055","2.406","175.5","3.7569999999999997","188.5","1011.93","24.03","79.69","NAN","0.0"],
    [1557346,"2026-06-02 08:50:00","10056","2.202","173.6","3.5610000000000004","176.7","1011.8989999999999","23.83","82.4","NAN","0.0"],
    [1557347,"2026-06-02 09:00:00","10057","2.492","171.7","3.463","177.6","1011.903","23.74","84.2","NAN","0.0"],
    [1557348,"2026-06-02 09:10:00","10058","2.753","171.7","3.7239999999999998","180.6","1011.898","23.73","84.9","NAN","0.0"],
    [1557349,"2026-06-02 09:20:00","10059","2.839","172.3","4.247","171.5","1011.8560000000001","23.81","84.7","NAN","0.0"],
    [1557350,"2026-06-02 09:30:00","10060","2.634","170.4","3.985","184.8","1011.9989999999999","23.97","85.1","NAN","0.0"],
    [1557351,"2026-06-02 09:40:00","10061","2.77","169.5","3.9530000000000003","182.7","1012.015","24.34","82.7","NAN","0.0"],
    [1557352,"2026-06-02 09:50:00","10062","3.6210000000000004","173.5","5.129","181.5","1012.002","24.13","84.4","NAN","0.0"],
    [1557353,"2026-06-02 10:00:00","10063","3.8080000000000003","177.3","5.815","178.2","1012.005","24.07","84.6","NAN","0.0"],
    [1557354,"2026-06-02 10:10:00","10064","3.673","176.4","5.292000000000001","181.4","1012.052","24.19","84","NAN","0.0"],
    [1557355,"2026-06-02 10:20:00","10065","3.4939999999999998","174.3","5.39","181.3","1012.018","24.3","83.9","NAN","0.0"],
    [1557356,"2026-06-02 10:30:00","10066","3.332","180.0","5.227","175.8","1012.007","24.31","84.2","NAN","0.0"],
    [1557357,"2026-06-02 10:40:00","10067","3.0860000000000003","180.7","4.9","182.6","1012.0039999999999","24.57","83.6","NAN","0.0"],
    [1557358,"2026-06-02 10:50:00","10068","3.09","181.6","4.802","185.1","1011.9960000000001","24.58","83.8","NAN","0.0"],
    [1557359,"2026-06-02 11:00:00","10069","3.304","182.8","5.227","180.2","1012.008","24.58","84.3","NAN","0.0"],
    [1557360,"2026-06-02 11:10:00","10070","3.498","178.7","4.835","175.8","1012.1060000000001","24.33","86","NAN","0.0"],
    [1557361,"2026-06-02 11:20:00","10071","2.978","175.5","4.312","180.8","1012.047","24.61","85.1","NAN","0.0"],
    [1557362,"2026-06-02 11:30:00","10072","2.8510000000000004","173.8","4.508","178.9","1012.0219999999999","24.72","83.7","NAN","0.0"],
    [1557363,"2026-06-02 11:40:00","10073","2.991","179.2","4.573","184.6","1012.035","24.8","83.1","NAN","0.0"],
    [1557364,"2026-06-02 11:50:00","10074","3.095","180.1","4.704","178.0","1012.0110000000001","24.84","83.3","NAN","0.0"],
    [1557365,"2026-06-02 12:00:00","10075","2.935","185.8","4.769","171.7","1011.924","24.99","82.5","NAN","0.0"],
    [1557366,"2026-06-02 12:10:00","10076","2.889","187.8","4.573","177.4","1011.936","25.27","80.4","NAN","0.0"],
    [1557367,"2026-06-02 12:20:00","10077","2.784","188.3","4.2139999999999995","173.7","1011.961","25.15","80.5","NAN","0.0"],
    [1557368,"2026-06-02 12:30:00","10078","2.6069999999999998","188.5","4.345","174.5","1011.846","25.21","79.82","NAN","0.0"],
    [1557369,"2026-06-02 12:40:00","10079","2.5639999999999996","187.6","4.018","174.2","1011.815","24.98","81.1","NAN","0.0"],
    [1557370,"2026-06-02 12:50:00","10080","2.569","186.5","4.083","177.5","1011.8560000000001","24.91","80.5","NAN","0.0"],
    [1557371,"2026-06-02 13:00:00","10081","2.548","185.1","3.985","185.6","1011.8739999999999","25.15","78.75","NAN","0.0"],
    [1557372,"2026-06-02 13:10:00","10082","2.9539999999999997","176.8","4.312","181.4","1011.8439999999999","24.86","79.56","NAN","0.0"],
    [1557373,"2026-06-02 13:20:00","10083","2.793","176.0","4.149","173.4","1011.74","24.69","80.2","NAN","0.0"],
    [1557374,"2026-06-02 13:30:00","10084","2.326","175.9","3.887","182.6","1011.742","25.16","77.85","NAN","0.0"],
    [1557375,"2026-06-02 13:40:00","10085","2.375","184.4","3.495","182.2","1011.841","24.88","79.1","NAN","0.0"],
    [1557376,"2026-06-02 13:50:00","10086","1.771","180.4","2.9730000000000003","187.3","1011.875","25.25","78.35","NAN","0.0"],
    [1557377,"2026-06-02 14:00:00","10087","1.7409999999999999","171.0","3.43","158.5","1011.7860000000001","25.16","78.3","NAN","0.0"],
    [1557378,"2026-06-02 14:10:00","10088","1.964","133.6","3.1689999999999996","156.8","1011.802","25.24","77.69","NAN","0.0"],
    [1557379,"2026-06-02 14:20:00","10089","2.294","119.7","3.5610000000000004","111.2","1011.857","25.31","78.22","NAN","0.0"],
    [1557380,"2026-06-02 14:30:00","10090","2.3","120.4","3.495","113.0","1011.935","24.92","79.31","NAN","0.0"],
    [1557381,"2026-06-02 14:40:00","10091","2.247","125.3","4.083","92.4","1011.995","24.85","79.11","NAN","0.0"],
    [1557382,"2026-06-02 14:50:00","10092","2.505","108.3","4.083","94.2","1012.0089999999999","24.96","79.07","NAN","0.0"],
    [1557383,"2026-06-02 15:00:00","10093","2.5269999999999997","100.4","4.4430000000000005","101.1","1012.023","25.58","77.82","NAN","0.0"],
    [1557384,"2026-06-02 15:10:00","10094","2.6460000000000004","101.3","4.671","115.0","1012.002","25.04","81.4","NAN","0.0"],
    [1557385,"2026-06-02 15:20:00","10095","2.675","92.9","4.671","97.7","1012.1469999999999","25.57","79.28","NAN","0.0"],
    [1557386,"2026-06-02 15:30:00","10096","3.093","85.7","4.933","78.31","1012.122","24.8","81.9","NAN","0.0"],
    [1557387,"2026-06-02 15:40:00","10097","3.08","90.4","4.867","85.6","1012.148","25.01","80.6","NAN","0.0"],
    [1557388,"2026-06-02 15:50:00","10098","2.9589999999999996","93.8","5.063","97.7","1012.192","25.2","79.43","NAN","0.0"],
    [1557389,"2026-06-02 16:00:00","10099","3.0039999999999996","86.9","5.325","100.1","1012.301","25.24","80.8","NAN","0.0"],
    [1557390,"2026-06-02 16:10:00","10100","3.532","85.3","5.619","88.8","1012.454","25.02","84.2","NAN","0.0"],
    [1557391,"2026-06-02 16:20:00","10101","3.216","80.8","5.553","72.8","1012.5239999999999","24.89","85.3","NAN","0.0"],
    [1557392,"2026-06-02 16:30:00","10102","2.702","85.1","5.88","64.99","1012.558","24.99","84.9","NAN","0.0"],
    [1557393,"2026-06-02 16:40:00","10103","3.8089999999999997","92.8","6.37","95.9","1012.595","24.76","78.27","NAN","0.0"],
    [1557394,"2026-06-02 16:50:00","10104","3.753","92.8","7.023","76.9","1012.681","24.88","71.51","NAN","0.0"],
    [1557395,"2026-06-02 17:00:00","10105","3.07","87.6","5.651","84.6","1012.6510000000001","24.78","72.41","NAN","0.0"],
    [1557396,"2026-06-02 17:10:00","10106","2.9619999999999997","86.9","5.227","85.2","1012.66","24.67","74.06","NAN","0.0"],
    [1557397,"2026-06-02 17:20:00","10107","2.935","101.2","5.063","115.1","1012.686","24.72","71.05","NAN","0.0"],
    [1557398,"2026-06-02 17:30:00","10108","3.1239999999999997","107.8","5.455","102.6","1012.763","24.43","71.41","NAN","0.0"],
    [1557399,"2026-06-02 17:40:00","10109","3.0210000000000004","108.8","5.455","105.5","1012.805","24.36","70.84","NAN","0.0"],
    [1557400,"2026-06-02 17:50:00","10110","2.8110000000000004","103.4","4.933","108.0","1012.8","24.14","71.82","NAN","0.0"],
    [1557401,"2026-06-02 18:00:00","10111","2.427","115.4","4.737","115.0","1012.93","24.16","71.33","NAN","0.0"],
    [1557402,"2026-06-02 18:10:00","10112","2.251","118.1","4.181","123.2","1012.929","24.03","72.06","NAN","0.0"],
    [1557403,"2026-06-02 18:20:00","10113","1.965","116.6","4.181","134.8","1012.998","23.96","72.81","NAN","0.0"],
    [1557404,"2026-06-02 18:30:00","10114","2.283","118.9","4.345","118.6","1012.921","23.7","72.79","NAN","0.0"],
    [1557405,"2026-06-02 18:40:00","10115","2.365","122.9","3.887","112.0","1013.002","23.69","72.69","NAN","0.0"],
    [1557406,"2026-06-02 18:50:00","10116","2.053","126.6","3.887","135.4","1013.07","23.57","73.95","NAN","0.0"],
    [1557407,"2026-06-02 19:00:00","10117","2.176","130.8","3.9530000000000003","145.5","1013.073","23.48","73.36","NAN","0.0"],
    [1557408,"2026-06-02 19:10:00","10118","2.1319999999999997","133.5","4.2139999999999995","145.3","1013.207","23.39","74.96","NAN","0.0"],
    [1557409,"2026-06-02 19:20:00","10119","1.733","132.4","3.201","135.4","1013.294","23.3","76.93","NAN","0.0"],
    [1557410,"2026-06-02 19:30:00","10120","1.882","116.6","3.397","121.1","1013.335","23.31","78.15","NAN","0.0"],
    [1557411,"2026-06-02 19:40:00","10121","1.756","109.8","3.495","92.5","1013.3710000000001","23.37","77.39","NAN","0.0"],
    [1557412,"2026-06-02 19:50:00","10122","2.363","107.8","3.7569999999999997","116.6","1013.404","23.38","77.78","NAN","0.0"],
    [1557413,"2026-06-02 20:00:00","10123","1.969","104.9","3.593","112.5","1013.658","23.32","78.05","NAN","0.0"],
    [1557414,"2026-06-02 20:10:00","10124","2.1719999999999997","112.5","3.659","102.6","1013.805","23.28","74.07","NAN","0.0"],
    [1557415,"2026-06-02 20:20:00","10125","1.33","114.3","2.94","93.1","1014.063","23.41","69.57","NAN","0.0"],
    [1557416,"2026-06-02 20:30:00","10126","1.2670000000000001","131.4","2.352","129.8","1014.318","23.41","71.02","NAN","0.0"],
    [1557417,"2026-06-02 20:40:00","10127","1.4340000000000002","130.0","2.7110000000000003","99.3","1014.385","23.29","73.67","NAN","0.0"],
    [1557418,"2026-06-02 20:50:00","10128","1.2009999999999998","146.3","2.0580000000000003","157.6","1014.6210000000001","23.22","71.23","NAN","0.0"],
    [1557419,"2026-06-02 21:00:00","10129","1.734","129.1","2.9730000000000003","119.3","1014.694","23.2","70.07","NAN","0.0"],
    [1557420,"2026-06-02 21:10:00","10130","1.3530000000000002","157.3","2.8089999999999997","145.4","1014.811","23.19","71.12","NAN","0.0"],
    [1557421,"2026-06-02 21:20:00","10131","1.161","169.2","2.352","150.1","1014.8660000000001","23.12","72.12","NAN","0.0"],
    [1557422,"2026-06-02 21:30:00","10132","1.479","181.5","2.6460000000000004","182.1","1015.064","23.09","72.79","NAN","0.0"],
    [1557423,"2026-06-02 21:40:00","10133","1.38","188.5","2.319","177.9","1015.092","23.03","74.89","NAN","0.0"],
    [1557424,"2026-06-02 21:50:00","10134","1.278","188.1","2.0580000000000003","203.1","1015.18","22.9","76.72","NAN","0.0"],
    [1557425,"2026-06-02 22:00:00","10135","1.081","187.1","2.352","181.3","1015.187","22.84","76.51","NAN","0.0"],
    [1557426,"2026-06-02 22:10:00","10136","1.5919999999999999","196.3","3.6260000000000003","203.0","1015.132","22.81","75.29","NAN","0.0"],
    [1557427,"2026-06-02 22:20:00","10137","1.5290000000000001","188.4","3.365","185.4","1015.185","22.73","74.94","NAN","0.0"],
    [1557428,"2026-06-02 22:30:00","10138","1.966","183.4","3.7239999999999998","182.3","1015.2769999999999","22.66","74.7","NAN","0.0"],
    [1557429,"2026-06-02 22:40:00","10139","1.97","181.6","3.593","183.8","1015.334","22.48","74.85","NAN","0.0"],
    [1557430,"2026-06-02 22:50:00","10140","1.883","186.8","3.7569999999999997","171.5","1015.3389999999999","22.29","76.43","NAN","0.0"],
    [1557431,"2026-06-02 23:00:00","10141","1.735","189.4","3.136","172.6","1015.362","22.19","75.25","NAN","0.0"],
    [1557432,"2026-06-02 23:10:00","10142","1.4669999999999999","192.9","2.907","169.4","1015.346","22.19","76.1","NAN","0.0"],
    [1557433,"2026-06-02 23:20:00","10143","1.787","181.8","3.7239999999999998","149.5","1015.342","22.11","76.36","NAN","0.0"],
    [1557434,"2026-06-02 23:30:00","10144","1.591","191.7","3.234","176.5","1015.3660000000001","22.06","75.86","NAN","0.0"],
    [1557435,"2026-06-02 23:40:00","10145","1.6640000000000001","188.1","3.5610000000000004","196.5","1015.352","22","74.88","NAN","0.0"],
    [1557436,"2026-06-02 23:50:00","10146","1.3430000000000002","186.5","3.071","182.0","1015.342","22","74.92","NAN","0.0"],
    [1557437,"2026-06-03 00:00:00","10147","1.6219999999999999","191.8","3.397","177.5","1015.337","21.95","75.77","NAN","0.0"],
    [1557438,"2026-06-03 00:10:00","10148","1.045","200.7","2.352","201.3","1015.2489999999999","21.85","76.47","NAN","0.0"],
    [1557439,"2026-06-03 00:20:00","10149","1.038","198.6","2.515","183.5","1015.307","21.87","76.35","NAN","0.0"],
    [1557440,"2026-06-03 00:30:00","10150","1.855","182.6","3.528","174.0","1015.336","21.83","77.79","NAN","0.0"],
    [1557441,"2026-06-03 00:40:00","10151","1.692","182.5","2.679","178.7","1015.309","21.76","77.65","NAN","0.0"],
    [1557442,"2026-06-03 00:50:00","10152","1.22","180.5","2.385","175.5","1015.3389999999999","21.72","75.78","NAN","0.0"],
    [1557443,"2026-06-03 01:00:00","10153","0.73","205.6","1.568","195.7","1015.3560000000001","21.71","74.03","NAN","0.0"],
    [1557444,"2026-06-03 01:10:00","10154","0.7929999999999999","196.0","1.568","194.0","1015.414","21.76","73.93","NAN","0.0"],
    [1557445,"2026-06-03 01:20:00","10155","0.645","205.6","2.0580000000000003","207.9","1015.4739999999999","21.73","72.94","NAN","0.0"],
    [1557446,"2026-06-03 01:30:00","10156","0.7090000000000001","214.5","1.993","217.8","1015.586","21.8","70.77","NAN","0.0"],
    [1557447,"2026-06-03 01:40:00","10157","0.773","224.0","2.156","242.8","1015.546","21.98","68.94","NAN","0.0"],
    [1557448,"2026-06-03 01:50:00","10158","1.052","209.0","2.352","202.9","1015.3960000000001","21.88","69.3","NAN","0.0"],
    [1557449,"2026-06-03 02:00:00","10159","1.253","212.6","3.267","199.0","1015.3639999999999","21.82","68.68","NAN","0.0"],
    [1557450,"2026-06-03 02:10:00","10160","1.665","230.2","3.397","236.2","1015.3839999999999","21.96","69.48","NAN","0.0"],
    [1557451,"2026-06-03 02:20:00","10161","1.9369999999999998","228.8","3.855","229.7","1015.306","21.85","70.71","NAN","0.0"],
    [1557452,"2026-06-03 02:30:00","10162","1.609","228.2","3.397","243.4","1015.2669999999999","21.85","70.35","NAN","0.0"],
    [1557453,"2026-06-03 02:40:00","10163","1.364","234.9","3.6910000000000003","224.6","1015.2489999999999","21.88","70.08","NAN","0.0"],
    [1557454,"2026-06-03 02:50:00","10164","1.8319999999999999","232.4","4.018","235.7","1015.332","21.94","70.09","NAN","0.0"],
    [1557455,"2026-06-03 03:00:00","10165","1.369","230.6","2.907","223.5","1015.3589999999999","22.01","69.05","NAN","0.0"],
    [1557456,"2026-06-03 03:10:00","10166","2.3409999999999997","223.7","5.521","224.6","1015.4839999999999","22.01","64.61","NAN","0.0"],
    [1557457,"2026-06-03 03:20:00","10167","1.535","222.7","3.332","210.2","1015.4960000000001","21.95","56.05","NAN","0.0"],
    [1557458,"2026-06-03 03:30:00","10168","1.749","221.0","4.638999999999999","239.0","1015.571","21.84","53.27","NAN","0.0"],
    [1557459,"2026-06-03 03:40:00","10169","1.429","225.5","3.397","221.2","1015.6010000000001","21.77","52.68","NAN","0.0"],
    [1557460,"2026-06-03 03:50:00","10170","0.8340000000000001","226.1","3.332","235.5","1015.6010000000001","21.55","53.3","NAN","0.0"],
    [1557461,"2026-06-03 04:00:00","10171","1.694","271.9","3.7239999999999998","267.0","1015.678","21.53","53.45","NAN","0.0"],
    [1557462,"2026-06-03 04:10:00","10172","1.2570000000000001","287.3","3.201","295.3","1015.71","21.28","49.43","NAN","0.0"],
    [1557463,"2026-06-03 04:20:00","10173","1.4280000000000002","277.3","4.377","285.8","1015.788","21.16","46.8","NAN","0.0"],
    [1557464,"2026-06-03 04:30:00","10174","1.506","259.7","3.1689999999999996","254.9","1015.885","20.91","45.86","NAN","0.0"],
    [1557465,"2026-06-03 04:40:00","10175","1.2","276.9","3.267","248.3","1016.0169999999999","20.62","45.62","NAN","0.0"],
    [1557466,"2026-06-03 04:50:00","10176","0.8029999999999999","270.0","1.96","242.5","1016.184","20.61","45.04","NAN","0.0"],
    [1557467,"2026-06-03 05:00:00","10177","0.9079999999999999","276.7","3.1689999999999996","290.9","1016.2339999999999","20.53","44.68","NAN","0.0"],
    [1557468,"2026-06-03 05:10:00","10178","0.978","292.2","2.679","312.2","1016.336","20.56","44.18","NAN","0.0"],
    [1557469,"2026-06-03 05:20:00","10179","1.962","317.3","4.965","324.8","1016.326","20.56","43.85","NAN","0.0"],
    [1557470,"2026-06-03 05:30:00","10180","1.33","308.6","3.43","333.5","1016.321","20.53","43.83","NAN","0.0"],
    [1557471,"2026-06-03 05:40:00","10181","0.765","283.2","2.221","269.9","1016.336","20.57","43.84","NAN","0.0"],
    [1557472,"2026-06-03 05:50:00","10182","1.0490000000000002","316.7","3.267","254.9","1016.3860000000001","20.77","43.28","NAN","0.0"],
    [1557473,"2026-06-03 06:00:00","10183","1.4969999999999999","283.0","3.136","275.2","1016.46","20.83","43.19","NAN","0.0"],
    [1557474,"2026-06-03 06:10:00","10184","1.249","267.9","2.7110000000000003","278.3","1016.443","21.15","42.83","NAN","0.0"],
    [1557475,"2026-06-03 06:20:00","10185","1.028","237.2","2.6460000000000004","239.5","1016.416","21.54","42.34","NAN","0.0"],
    [1557476,"2026-06-03 06:30:00","10186","1.274","237.1","2.875","237.7","1016.41","21.31","42.72","NAN","0.0"],
    [1557477,"2026-06-03 06:40:00","10187","1.8419999999999999","252.9","3.5610000000000004","242.5","1016.487","21.3","42.27","NAN","0.0"],
    [1557478,"2026-06-03 06:50:00","10188","1.072","264.0","2.94","279.0","1016.507","21.5","41.74","NAN","0.0"],
    [1557479,"2026-06-03 07:00:00","10189","1.4069999999999998","247.2","3.071","260.1","1016.576","21.82","41.14","NAN","0.0"],
    [1557480,"2026-06-03 07:10:00","10190","1.489","244.2","3.593","239.0","1016.669","22.04","40.59","NAN","0.0"],
    [1557481,"2026-06-03 07:20:00","10191","1.4609999999999999","249.0","3.365","213.9","1016.725","22.29","40.04","NAN","0.0"],
    [1557482,"2026-06-03 07:30:00","10192","1.652","265.8","3.495","266.1","1016.794","22.5","39.01","NAN","0.0"],
    [1557483,"2026-06-03 07:40:00","10193","1.936","266.2","4.2139999999999995","266.0","1016.9630000000001","22.39","38.74","NAN","0.0"],
    [1557484,"2026-06-03 07:50:00","10194","1.219","238.3","3.201","235.8","1017.081","22.78","37.76","NAN","0.0"],
    [1557485,"2026-06-03 08:00:00","10195","1.13","233.6","3.005","209.1","1017.159","23.24","37.16","NAN","0.0"],
    [1557486,"2026-06-03 08:10:00","10196","1.6740000000000002","186.5","3.5610000000000004","171.2","1017.186","22.84","38.1","NAN","0.0"],
    [1557487,"2026-06-03 08:20:00","10197","1.254","204.7","2.7439999999999998","226.4","1017.185","23.05","38.44","NAN","0.0"],
    [1557488,"2026-06-03 08:30:00","10198","1.6030000000000002","124.7","3.365","104.2","1017.192","23","39.19","NAN","0.0"],
    [1557489,"2026-06-03 08:40:00","10199","2.186","118.3","3.6910000000000003","110.4","1017.189","22.48","41.14","NAN","0.0"],
    [1557490,"2026-06-03 08:50:00","10200","2.0540000000000003","120.6","3.7569999999999997","109.1","1017.155","22.67","40.95","NAN","0.0"],
    [1557491,"2026-06-03 09:00:00","10201","1.974","109.8","3.43","80.7","1017.173","23.02","40.51","NAN","0.0"],
    [1557492,"2026-06-03 09:10:00","10202","2.2230000000000003","134.1","3.9530000000000003","173.8","1017.204","23.03","38.85","NAN","0.0"],
    [1557493,"2026-06-03 09:20:00","10203","2.224","148.9","3.528","119.8","1017.24","23.14","40.2","NAN","0.0"],
    [1557494,"2026-06-03 09:30:00","10204","2.345","146.0","3.985","151.8","1017.2389999999999","23.18","40.74","NAN","0.0"],
    [1557495,"2026-06-03 09:40:00","10205","2.448","158.0","3.985","163.1","1017.242","23.19","41.76","NAN","0.0"],
    [1557496,"2026-06-03 09:50:00","10206","2.792","184.9","4.312","191.8","1017.308","22.72","44.55","NAN","0.0"],
    [1557497,"2026-06-03 10:00:00","10207","2.617","182.5","4.638999999999999","185.0","1017.352","22.71","46.12","NAN","0.0"],
    [1557498,"2026-06-03 10:10:00","10208","3.188","184.6","5.031000000000001","178.9","1017.435","22.35","47.09","NAN","0.0"],
    [1557499,"2026-06-03 10:20:00","10209","3.701","183.5","5.4879999999999995","177.8","1017.5010000000001","22.23","47.98","NAN","0.0"],
    [1557500,"2026-06-03 10:30:00","10210","3.613","181.6","6.501","178.0","1017.488","21.88","50.92","NAN","0.0"],
    [1557501,"2026-06-03 10:40:00","10211","3.647","179.4","5.782","188.0","1017.4810000000001","21.95","50.46","NAN","0.0"],
    [1557502,"2026-06-03 10:50:00","10212","3.616","177.2","5.455","176.8","1017.4989999999999","21.92","49.02","NAN","0.0"],
    [1557503,"2026-06-03 11:00:00","10213","3.1289999999999996","176.6","5.063","174.8","1017.5160000000001","21.98","49.36","NAN","0.0"],
    [1557504,"2026-06-03 11:10:00","10214","2.872","175.1","4.508","177.3","1017.571","22.04","50.32","NAN","0.0"],
    [1557505,"2026-06-03 11:20:00","10215","3.105","177.5","4.965","182.6","1017.5419999999999","22.1","49.13","NAN","0.0"],
    [1557506,"2026-06-03 11:30:00","10216","3.017","175.6","4.541","177.4","1017.487","22.01","47.84","NAN","0.0"],
    [1557507,"2026-06-03 11:40:00","10217","2.8989999999999996","174.5","4.312","175.5","1017.46","22.18","46.9","NAN","0.0"],
    [1557508,"2026-06-03 11:50:00","10218","2.949","176.1","4.2139999999999995","179.8","1017.4119999999999","22.2","48.05","NAN","0.0"],
    [1557509,"2026-06-03 12:00:00","10219","3.6060000000000003","175.7","5.455","182.0","1017.279","22.09","49.82","NAN","0.0"],
    [1557510,"2026-06-03 12:10:00","10220","4.227","176.2","6.141","177.9","1017.1110000000001","21.9","50.86","NAN","0.0"],
    [1557511,"2026-06-03 12:20:00","10221","4.066","174.2","6.5329999999999995","176.5","1016.9110000000001","21.99","50.21","NAN","0.0"],
    [1557512,"2026-06-03 12:30:00","10222","4.16","173.9","6.5329999999999995","176.5","1016.806","22.11","49.45","NAN","0.0"],
    [1557513,"2026-06-03 12:40:00","10223","3.458","175.3","5.684","179.0","1016.783","22.51","49.41","NAN","0.0"],
    [1557514,"2026-06-03 12:50:00","10224","3.9539999999999997","172.6","5.978","171.8","1016.7460000000001","22.44","51.03","NAN","0.0"],
    [1557515,"2026-06-03 13:00:00","10225","3.355","180.6","5.455","182.2","1016.7589999999999","22.6","49.02","NAN","0.0"],
    [1557516,"2026-06-03 13:10:00","10226","4.187","174.5","6.305","171.4","1016.6389999999999","22.48","50.17","NAN","0.0"],
    [1557517,"2026-06-03 13:20:00","10227","3.429","177.6","5.88","165.1","1016.528","22.64","50.68","NAN","0.0"],
    [1557518,"2026-06-03 13:30:00","10228","2.949","177.6","4.867","189.1","1016.428","22.9","49.41","NAN","0.0"],
    [1557519,"2026-06-03 13:40:00","10229","2.653","178.1","4.9","177.7","1016.3489999999999","23.19","47.82","NAN","0.0"],
    [1557520,"2026-06-03 13:50:00","10230","3.887","176.4","5.912999999999999","178.4","1016.328","22.67","51.38","NAN","0.0"],
    [1557521,"2026-06-03 14:00:00","10231","3.302","176.8","4.9","178.5","1016.186","22.5","52.2","NAN","0.0"],
    [1557522,"2026-06-03 14:10:00","10232","3.412","178.6","5.063","180.9","1016.043","22.39","52.22","NAN","0.0"],
    [1557523,"2026-06-03 14:20:00","10233","3.179","181.9","4.9","176.5","1015.8910000000001","22.65","52.54","NAN","0.0"],
    [1557524,"2026-06-03 14:30:00","10234","3.44","180.6","5.651","178.2","1015.82","22.57","53.41","NAN","0.0"],
    [1557525,"2026-06-03 14:40:00","10235","2.977","178.9","4.802","153.1","1015.793","22.78","53.9","NAN","0.0"],
    [1557526,"2026-06-03 14:50:00","10236","2.958","175.6","4.541","179.6","1015.8689999999999","22.95","50.55","NAN","0.0"],
    [1557527,"2026-06-03 15:00:00","10237","3.335","173.6","4.867","160.9","1015.6510000000001","23.4","47.82","NAN","0.0"],
    [1557528,"2026-06-03 15:10:00","10238","3.877","173.5","5.553","172.5","1015.564","23.08","51.44","NAN","0.0"],
    [1557529,"2026-06-03 15:20:00","10239","3.667","172.2","5.553","159.6","1015.587","22.93","54.27","NAN","0.0"],
    [1557530,"2026-06-03 15:30:00","10240","3.985","174.2","6.827000000000001","168.3","1015.4069999999999","23.04","56.15","NAN","0.0"],
    [1557531,"2026-06-03 15:40:00","10241","2.832","194.0","6.141","198.9","1015.291","24","52.15","NAN","0.0"],
    [1557532,"2026-06-03 15:50:00","10242","4.155","174.6","6.957999999999999","176.9","1015.2460000000001","23.51","54.71","NAN","0.0"],
    [1557533,"2026-06-03 16:00:00","10243","4.412","173.5","7.905","177.2","1015.034","23.32","56.1","NAN","0.0"],
    [1557534,"2026-06-03 16:10:00","10244","3.926","182.3","7.218999999999999","192.2","1014.913","23.63","56.42","NAN","0.0"],
    [1557535,"2026-06-03 16:20:00","10245","3.01","198.6","6.501","187.3","1014.808","24.06","57.65","NAN","0.0"],
    [1557536,"2026-06-03 16:30:00","10246","3.264","204.1","6.893","219.3","1014.658","24.37","58","NAN","0.0"],
    [1557537,"2026-06-03 16:40:00","10247","3.1060000000000003","204.7","7.415","196.2","1014.623","24.23","60.14","NAN","0.0"],
    [1557538,"2026-06-03 16:50:00","10248","2.7969999999999997","208.6","6.042999999999999","187.7","1014.4760000000001","24.35","60.44","NAN","0.0"],
    [1557539,"2026-06-03 17:00:00","10249","3.5869999999999997","200.4","6.925","198.1","1014.315","24.08","62.97","NAN","0.0"],
    [1557540,"2026-06-03 17:10:00","10250","2.94","211.1","6.957999999999999","205.3","1014.2639999999999","24.19","62.67","NAN","0.0"],
    [1557541,"2026-06-03 17:20:00","10251","2.765","227.7","7.0889999999999995","223.7","1014.16","24.49","61.1","NAN","0.0"],
    [1557542,"2026-06-03 17:30:00","10252","2.19","213.1","5.978","210.7","1014.238","24.62","60.93","NAN","0.0"],
    [1557543,"2026-06-03 17:40:00","10253","2.416","218.8","6.827000000000001","202.0","1014.2869999999999","24.33","61.62","NAN","0.0"],
    [1557544,"2026-06-03 17:50:00","10254","2.447","227.8","7.154","229.7","1014.312","24.18","61.21","NAN","0.0"],
    [1557545,"2026-06-03 18:00:00","10255","2.064","211.1","4.4430000000000005","206.6","1014.245","23.95","61.44","NAN","0.0"],
    [1557546,"2026-06-03 18:10:00","10256","2.491","212.0","6.109","182.4","1014.265","23.63","62.11","NAN","0.0"],
    [1557547,"2026-06-03 18:20:00","10257","1.94","217.6","5.553","207.5","1014.2760000000001","23.72","61.58","NAN","0.0"],
    [1557548,"2026-06-03 18:30:00","10258","1.8259999999999998","218.1","5.325","198.4","1014.3","23.37","63.02","NAN","0.0"],
    [1557549,"2026-06-03 18:40:00","10259","2.525","223.4","6.272","222.4","1014.383","23.22","62.86","NAN","0.0"],
    [1557550,"2026-06-03 18:50:00","10260","1.994","215.1","5.422999999999999","229.7","1014.433","23.18","63.87","NAN","0.0"],
    [1557551,"2026-06-03 19:00:00","10261","1.611","219.6","4.835","239.5","1014.5060000000001","22.97","65.38","NAN","0.0"],
    [1557552,"2026-06-03 19:10:00","10262","1.954","217.9","6.141","225.2","1014.51","22.82","66.11","NAN","0.0"],
    [1557553,"2026-06-03 19:20:00","10263","1.909","225.0","5.782","208.6","1014.577","22.71","66.67","NAN","0.0"],
    [1557554,"2026-06-03 19:30:00","10264","1.501","215.8","5.651","227.8","1014.742","22.62","67.19","NAN","0.0"],
    [1557555,"2026-06-03 19:40:00","10265","1.851","199.6","3.9530000000000003","207.5","1014.835","22.44","68.84","NAN","0.0"],
    [1557556,"2026-06-03 19:50:00","10266","1.6680000000000001","202.9","3.495","195.6","1014.837","22.35","70.37","NAN","0.0"],
    [1557557,"2026-06-03 20:00:00","10267","1.933","202.8","4.345","211.5","1015.0110000000001","22.26","71.74","NAN","0.0"],
    [1557558,"2026-06-03 20:10:00","10268","1.476","230.8","4.965","280.5","1015.135","22.4","70.99","NAN","0.0"],
    [1557559,"2026-06-03 20:20:00","10269","1.7590000000000001","220.7","4.2139999999999995","202.2","1015.3380000000001","22.33","71.89","NAN","0.0"],
    [1557560,"2026-06-03 20:30:00","10270","1.4980000000000002","220.9","3.43","240.1","1015.3710000000001","22.33","72.78","NAN","0.0"],
    [1557561,"2026-06-03 20:40:00","10271","1.585","213.9","3.5610000000000004","245.8","1015.334","22.29","73.44","NAN","0.0"],
    [1557562,"2026-06-03 20:50:00","10272","1.597","211.2","4.149","215.1","1015.2639999999999","22.32","73.98","NAN","0.0"],
    [1557563,"2026-06-03 21:00:00","10273","1.96","214.4","5.521","188.6","1015.164","22.26","74.38","NAN","0.0"],
    [1557564,"2026-06-03 21:10:00","10274","1.42","224.2","4.083","209.9","1015.1569999999999","22.4","74.22","NAN","0.0"],
    [1557565,"2026-06-03 21:20:00","10275","1.75","219.1","3.397","229.2","1015.227","22.24","74.97","NAN","0.0"],
    [1557566,"2026-06-03 21:30:00","10276","1.671","219.4","4.377","233.3","1015.2639999999999","22.18","75.35","NAN","0.0"],
    [1557567,"2026-06-03 21:40:00","10277","1.4409999999999998","221.3","3.201","214.2","1015.247","22.21","75.13","NAN","0.0"],
    [1557568,"2026-06-03 21:50:00","10278","1.618","220.9","3.9530000000000003","213.5","1015.194","22.21","75.18","NAN","0.0"],
    [1557569,"2026-06-03 22:00:00","10279","1.849","215.1","4.1160000000000005","240.2","1015.2739999999999","22.18","75.95","NAN","0.0"],
    [1557570,"2026-06-03 22:10:00","10280","1.733","222.8","3.7889999999999997","264.0","1015.247","22.19","76.3","NAN","0.0"],
    [1557571,"2026-06-03 22:20:00","10281","1.556","217.9","4.835","233.7","1015.1110000000001","22.24","76.15","NAN","0.0"],
    [1557572,"2026-06-03 22:30:00","10282","1.3730000000000002","212.8","4.051","236.9","1015.1419999999999","22.37","77.19","NAN","0.0"],
    [1557573,"2026-06-03 22:40:00","10283","1.192","225.7","3.299","269.2","1015.341","22.38","77.46","NAN","0.0"],
    [1557574,"2026-06-03 22:50:00","10284","1.281","225.7","3.103","215.2","1015.329","22.49","76.67","NAN","0.0"],
    [1557575,"2026-06-03 23:00:00","10285","1.307","228.9","3.822","227.6","1015.303","22.41","77.29","NAN","0.0"],
    [1557576,"2026-06-03 23:10:00","10286","1.22","236.4","3.201","234.9","1015.279","22.47","77.26","NAN","0.0"],
    [1557577,"2026-06-03 23:20:00","10287","1.3090000000000002","222.9","3.201","234.2","1015.181","22.43","77.71","NAN","0.0"],
    [1557578,"2026-06-03 23:30:00","10288","1.345","221.1","3.7569999999999997","197.2","1015.059","22.44","78.04","NAN","0.0"],
    [1557579,"2026-06-03 23:40:00","10289","1.446","224.2","2.875","222.8","1014.959","22.37","79","NAN","0.0"],
    [1557580,"2026-06-03 23:50:00","10290","0.915","223.1","3.1689999999999996","228.3","1014.862","22.53","78.47","NAN","0.0"],
    [1557581,"2026-06-04 00:00:00","10291","1.5519999999999998","222.2","3.659","218.8","1014.83","22.41","78.82","NAN","0.0"],
    [1557582,"2026-06-04 00:10:00","10292","1.6","232.0","3.7239999999999998","222.1","1014.814","22.3","79.58","NAN","0.0"],
    [1557583,"2026-06-04 00:20:00","10293","1.272","228.9","3.43","211.3","1014.826","22.36","79.27","NAN","0.0"],
    [1557584,"2026-06-04 00:30:00","10294","1.314","232.6","3.365","225.0","1014.825","22.43","78.65","NAN","0.0"],
    [1557585,"2026-06-04 00:40:00","10295","1.597","213.2","3.267","203.7","1014.623","22.29","80","NAN","0.0"],
    [1557586,"2026-06-04 00:50:00","10296","1.237","227.9","3.267","228.4","1014.428","22.22","81.3","NAN","0.0"],
    [1557587,"2026-06-04 01:00:00","10297","1.156","221.9","2.515","229.2","1014.322","22.28","81.1","NAN","0.0"],
    [1557588,"2026-06-04 01:10:00","10298","1.168","224.6","3.7569999999999997","229.2","1014.2310000000001","22.34","80.8","NAN","0.0"],
    [1557589,"2026-06-04 01:20:00","10299","1.113","215.2","2.842","196.4","1013.922","22.34","81.2","NAN","0.0"],
    [1557590,"2026-06-04 01:30:00","10300","0.94","215.2","3.267","205.8","1013.7489999999999","22.39","81.4","NAN","0.0"],
    [1557591,"2026-06-04 01:40:00","10301","1.254","223.6","2.7439999999999998","222.7","1013.6610000000001","22.35","81.9","NAN","0.0"],
    [1557592,"2026-06-04 01:50:00","10302","1.1840000000000002","215.2","4.051","222.0","1013.3910000000001","22.37","82.8","NAN","0.0"],
    [1557593,"2026-06-04 02:00:00","10303","0.897","218.3","3.103","229.8","1013.332","22.37","83.6","NAN","0.0"],
    [1557594,"2026-06-04 02:10:00","10304","1.357","220.6","2.907","199.1","1013.334","22.25","84.1","NAN","0.0"],
    [1557595,"2026-06-04 02:20:00","10305","1.17","226.2","2.6460000000000004","226.6","1013.3380000000001","22.26","84","NAN","0.0"],
    [1557596,"2026-06-04 02:30:00","10306","0.794","222.7","3.103","245.3","1013.329","22.36","83.5","NAN","0.0"],
    [1557597,"2026-06-04 02:40:00","10307","0.973","231.7","2.352","236.0","1013.2410000000001","22.37","83.4","NAN","0.0"],
    [1557598,"2026-06-04 02:50:00","10308","1.026","223.4","3.332","251.0","1013.132","22.42","83","NAN","0.0"],
    [1557599,"2026-06-04 03:00:00","10309","0.9540000000000001","222.0","2.7439999999999998","204.9","1012.913","22.26","83.9","NAN","0.0"],
    [1557600,"2026-06-04 03:10:00","10310","0.98","218.8","2.319","206.6","1012.846","22.19","84.3","NAN","0.0"],
    [1557601,"2026-06-04 03:20:00","10311","1.137","216.3","3.0380000000000003","206.9","1012.842","22.11","85","NAN","0.0"],
    [1557602,"2026-06-04 03:30:00","10312","0.794","218.0","2.025","206.3","1012.837","22.07","85.6","NAN","0.0"],
    [1557603,"2026-06-04 03:40:00","10313","1.1079999999999999","209.0","2.679","195.5","1012.8330000000001","22.07","85.4","NAN","0.0"],
    [1557604,"2026-06-04 03:50:00","10314","1.208","219.3","2.548","217.1","1012.83","22.04","85","NAN","0.0"],
    [1557605,"2026-06-04 04:00:00","10315","0.8440000000000001","206.7","2.385","189.9","1012.8430000000001","22.14","84.4","NAN","0.0"],
    [1557606,"2026-06-04 04:10:00","10316","1.114","208.3","2.7769999999999997","196.0","1012.8439999999999","22.11","84.7","NAN","0.0"],
    [1557607,"2026-06-04 04:20:00","10317","1.05","210.7","3.7239999999999998","221.8","1012.8919999999999","22.19","84.2","NAN","0.0"],
    [1557608,"2026-06-04 04:30:00","10318","1.286","221.5","2.842","224.5","1012.913","22.23","84.8","NAN","0.0"],
    [1557609,"2026-06-04 04:40:00","10319","1.165","213.8","2.907","225.5","1012.9630000000001","22.19","85.3","NAN","0.0"],
    [1557610,"2026-06-04 04:50:00","10320","0.893","212.7","3.1689999999999996","202.3","1012.9860000000001","22.26","85.5","NAN","0.0"],
    [1557611,"2026-06-04 05:00:00","10321","1.048","209.7","2.0909999999999997","216.0","1013.041","22.21","85.3","NAN","0.0"],
    [1557612,"2026-06-04 05:10:00","10322","0.998","204.3","1.9269999999999998","203.6","1012.9730000000001","22.25","85","NAN","0.0"],
    [1557613,"2026-06-04 05:20:00","10323","0.835","199.9","2.0580000000000003","201.1","1012.9580000000001","22.26","84.5","NAN","0.0"],
    [1557614,"2026-06-04 05:30:00","10324","0.938","217.5","2.45","228.9","1012.9989999999999","22.54","83.1","NAN","0.0"],
    [1557615,"2026-06-04 05:40:00","10325","0.76","213.3","2.123","191.0","1013.081","22.64","81.9","NAN","0.0"],
    [1557616,"2026-06-04 05:50:00","10326","1.001","215.2","2.483","240.9","1013.064","22.84","81.5","NAN","0.0"],
    [1557617,"2026-06-04 06:00:00","10327","0.9329999999999999","229.1","2.8089999999999997","247.1","1013.102","22.94","81.4","NAN","0.0"],
    [1557618,"2026-06-04 06:10:00","10328","1.004","246.2","3.201","234.1","1013.045","23.21","79.91","NAN","0.0"],
    [1557619,"2026-06-04 06:20:00","10329","1.306","236.5","2.7769999999999997","262.0","1013.04","23.2","79.77","NAN","0.0"],
    [1557620,"2026-06-04 06:30:00","10330","1.173","222.1","2.94","194.0","1013.064","23.32","79.29","NAN","0.0"],
    [1557621,"2026-06-04 06:40:00","10331","1.2690000000000001","235.0","3.234","222.5","1013.0310000000001","23.17","78.79","NAN","0.0"],
    [1557622,"2026-06-04 06:50:00","10332","1.5290000000000001","204.5","3.855","211.8","1013.025","22.94","83.5","NAN","0.0"],
    [1557623,"2026-06-04 07:00:00","10333","1.751","231.3","3.659","235.7","1012.982","22.91","82.9","NAN","0.0"],
    [1557624,"2026-06-04 07:10:00","10334","1.689","200.3","3.495","209.6","1012.799","23.19","81.3","NAN","0.0"],
    [1557625,"2026-06-04 07:20:00","10335","1.739","202.0","3.985","205.2","1012.7819999999999","23.42","79.92","NAN","0.0"],
    [1557626,"2026-06-04 07:30:00","10336","2.425","180.6","4.41","185.7","1012.684","23.14","82.2","NAN","0.0"],
    [1557627,"2026-06-04 07:40:00","10337","2.48","192.8","5.194","209.6","1012.6239999999999","23.02","82.9","NAN","0.0"],
    [1557628,"2026-06-04 07:50:00","10338","2.501","195.1","4.9","211.2","1012.5260000000001","23.06","81.7","NAN","0.0"],
    [1557629,"2026-06-04 08:00:00","10339","2.227","195.6","5.749","196.2","1012.426","23.12","81.1","NAN","0.0"],
    [1557630,"2026-06-04 08:10:00","10340","2.4859999999999998","195.4","4.9","205.1","1012.321","23.29","80","NAN","0.0"],
    [1557631,"2026-06-04 08:20:00","10341","2.509","195.5","4.606","183.7","1012.2810000000001","23.51","79.22","NAN","0.0"],
    [1557632,"2026-06-04 08:30:00","10342","2.676","185.7","5.227","176.4","1012.2489999999999","23.34","80.2","NAN","0.0"],
    [1557633,"2026-06-04 08:40:00","10343","2.7230000000000003","190.0","5.096","182.7","1012.15","23.58","78.13","NAN","0.0"],
    [1557634,"2026-06-04 08:50:00","10344","2.642","190.7","5.88","170.2","1012.09","24.02","75.85","NAN","0.0"],
    [1557635,"2026-06-04 09:00:00","10345","3.194","187.0","5.651","176.4","1012.044","23.67","76.76","NAN","0.0"],
    [1557636,"2026-06-04 09:10:00","10346","3.072","186.7","5.227","199.4","1011.954","23.61","76.9","NAN","0.0"],
    [1557637,"2026-06-04 09:20:00","10347","3.147","194.0","5.945","174.7","1011.87","23.91","74.97","NAN","0.0"],
    [1557638,"2026-06-04 09:30:00","10348","3.0439999999999996","197.0","5.88","196.1","1011.803","24.4","71.8","NAN","0.0"],
    [1557639,"2026-06-04 09:40:00","10349","2.949","192.8","5.422999999999999","193.8","1011.8989999999999","24.63","70.9","NAN","0.0"],
    [1557640,"2026-06-04 09:50:00","10350","3.175","189.8","5.553","192.8","1011.948","24.04","73.09","NAN","0.0"],
    [1557641,"2026-06-04 10:00:00","10351","3.074","195.2","6.403","181.4","1011.961","23.66","75.73","NAN","0.0"],
    [1557642,"2026-06-04 10:10:00","10352","2.839","197.1","5.455","201.0","1011.9960000000001","23.4","76.75","NAN","0.0"],
    [1557643,"2026-06-04 10:20:00","10353","2.3609999999999998","194.2","4.769","171.1","1011.99","23.28","77.94","NAN","0.0"],
    [1557644,"2026-06-04 10:30:00","10354","2.7289999999999996","198.9","5.945","202.7","1012.008","23.29","78.05","NAN","0.0"],
    [1557645,"2026-06-04 10:40:00","10355","2.863","197.4","5.7170000000000005","191.2","1011.951","23.12","78.76","NAN","0.0"],
    [1557646,"2026-06-04 10:50:00","10356","3.07","195.4","5.88","201.2","1011.7719999999999","23.33","78.55","NAN","0.0"],
    [1557647,"2026-06-04 11:00:00","10357","2.9760000000000004","183.9","6.109","173.9","1011.6569999999999","23.82","77.38","NAN","0.0"],
    [1557648,"2026-06-04 11:10:00","10358","3.6489999999999996","178.5","6.011","178.1","1011.543","23.33","80.7","NAN","0.0"],
    [1557649,"2026-06-04 11:20:00","10359","2.725","187.1","6.1739999999999995","170.5","1011.495","23.36","81.1","NAN","0.0"],
    [1557650,"2026-06-04 11:30:00","10360","2.64","192.1","4.998","206.3","1011.5369999999999","23.46","80.3","NAN","0.0"],
    [1557651,"2026-06-04 11:40:00","10361","2.5340000000000003","198.2","4.802","190.4","1011.5139999999999","23.35","80.3","NAN","0.0"],
    [1557652,"2026-06-04 11:50:00","10362","2.675","197.4","6.042999999999999","201.7","1011.5","23.52","79.41","NAN","0.0"],
    [1557653,"2026-06-04 12:00:00","10363","3.034","198.0","6.207000000000001","198.4","1011.432","23.32","80.8","NAN","0.0"],
    [1557654,"2026-06-04 12:10:00","10364","3.068","200.7","7.513","213.6","1011.328","23.31","81.2","NAN","0.0"],
    [1557655,"2026-06-04 12:20:00","10365","2.969","200.5","7.415","194.4","1011.293","23.37","81.5","NAN","0.0"],
    [1557656,"2026-06-04 12:30:00","10366","2.487","201.1","5.782","214.1","1011.2819999999999","23.2","83.2","NAN","0.0"],
    [1557657,"2026-06-04 12:40:00","10367","2.0580000000000003","209.6","5.357","191.8","1011.189","23.1","86.2","NAN","0.0"],
    [1557658,"2026-06-04 12:50:00","10368","2.073","208.2","4.998","211.7","1011.041","22.7","91","NAN","0.0"],
    [1557659,"2026-06-04 13:00:00","10369","2.055","204.8","4.573","206.2","1010.933","22.51","91.4","NAN","0.0"],
    [1557660,"2026-06-04 13:10:00","10370","1.65","206.6","4.018","190.6","1010.827","22.75","89","NAN","0.0"],
    [1557661,"2026-06-04 13:20:00","10371","2.074","210.2","5.031000000000001","212.3","1010.8380000000001","23.01","85.6","NAN","0.0"],
    [1557662,"2026-06-04 13:30:00","10372","2.353","201.7","5.455","212.7","1010.834","23.06","83.6","NAN","0.0"],
    [1557663,"2026-06-04 13:40:00","10373","2.474","202.0","4.933","202.0","1010.757","23.13","83.2","NAN","0.0"],
    [1557664,"2026-06-04 13:50:00","10374","2.437","202.9","5.782","217.8","1010.591","23.14","83.5","NAN","0.0"],
    [1557665,"2026-06-04 14:00:00","10375","2.863","205.7","5.292000000000001","166.8","1010.433","23.27","82.4","NAN","0.0"],
    [1557666,"2026-06-04 14:10:00","10376","1.929","194.2","3.855","201.0","1010.485","23.39","82.6","NAN","0.0"],
    [1557667,"2026-06-04 14:20:00","10377","2.2569999999999997","196.9","4.247","196.6","1010.495","23.18","83.8","NAN","0.0"],
    [1557668,"2026-06-04 14:30:00","10378","2.594","196.3","4.508","197.8","1010.315","23.1","84.1","NAN","0.0"],
    [1557669,"2026-06-04 14:40:00","10379","2.715","197.1","5.096","197.7","1010.284","23.09","84.1","NAN","0.0"],
    [1557670,"2026-06-04 14:50:00","10380","2.499","183.4","6.0760000000000005","191.4","1010.123","23.38","83.1","NAN","0.0"],
    [1557671,"2026-06-04 15:00:00","10381","3.464","181.5","5.357","202.1","1009.9689999999999","23.09","84.9","NAN","0.0"],
    [1557672,"2026-06-04 15:10:00","10382","2.031","198.5","4.247","201.0","1009.9830000000001","23.14","84.9","NAN","0.0"],
    [1557673,"2026-06-04 15:20:00","10383","2.188","192.8","4.4430000000000005","212.2","1009.987","23.31","84.4","NAN","0.0"],
    [1557674,"2026-06-04 15:30:00","10384","2.662","182.0","5.422999999999999","176.3","1009.7760000000001","23.07","86.1","NAN","0.0"],
    [1557675,"2026-06-04 15:40:00","10385","3.3480000000000003","179.8","6.664","179.8","1009.68","22.91","86.9","NAN","0.0"],
    [1557676,"2026-06-04 15:50:00","10386","2.892","182.5","4.769","173.8","1009.578","22.96","87.1","NAN","0.0"],
    [1557677,"2026-06-04 16:00:00","10387","2.676","183.8","5.455","167.6","1009.462","23.05","86.9","NAN","0.0"],
    [1557678,"2026-06-04 16:10:00","10388","2.161","187.4","4.083","187.5","1009.703","23.14","86.8","NAN","0.0"],
    [1557679,"2026-06-04 16:20:00","10389","3.1060000000000003","174.9","4.541","181.3","1009.7460000000001","22.9","87.9","NAN","0.0"],
    [1557680,"2026-06-04 16:30:00","10390","2.345","182.7","4.247","175.9","1009.814","22.74","89","NAN","0.0"],
    [1557681,"2026-06-04 16:40:00","10391","2.602","176.5","4.508","175.0","1009.805","22.8","88.7","NAN","0.0"],
    [1557682,"2026-06-04 16:50:00","10392","2.421","178.7","3.6260000000000003","176.7","1009.715","22.59","90.1","NAN","0.0"],
    [1557683,"2026-06-04 17:00:00","10393","2.616","175.1","3.822","171.2","1009.909","22.51","91.1","NAN","0.0"],
    [1557684,"2026-06-04 17:10:00","10394","2.623","179.3","4.247","173.4","1010.084","22.37","91.6","NAN","0.0"],
    [1557685,"2026-06-04 17:20:00","10395","2.44","178.2","3.822","171.1","1010.345","22.43","91.6","NAN","0.0"],
    [1557686,"2026-06-04 17:30:00","10396","2.491","172.4","3.7569999999999997","179.6","1010.36","22.41","91.9","NAN","0.0"],
    [1557687,"2026-06-04 17:40:00","10397","2.3040000000000003","175.6","3.43","180.1","1010.419","22.25","93.2","NAN","0.0"],
    [1557688,"2026-06-04 17:50:00","10398","2.138","171.2","3.1689999999999996","163.7","1010.414","22.35","92.4","NAN","0.0"],
    [1557689,"2026-06-04 18:00:00","10399","2.1519999999999997","169.9","3.332","175.7","1010.403","22.43","91.8","NAN","0.0"],
    [1557690,"2026-06-04 18:10:00","10400","1.992","176.3","3.071","174.1","1010.5169999999999","22.47","91.7","NAN","0.0"],
    [1557691,"2026-06-04 18:20:00","10401","1.736","171.5","3.136","147.5","1010.822","22.49","91.6","NAN","0.1"],
    [1557692,"2026-06-04 18:30:00","10402","1.6869999999999998","160.0","2.907","159.6","1010.8480000000001","22.41","93.1","NAN","0.1"],
    [1557693,"2026-06-04 18:40:00","10403","2.377","134.8","4.671","164.7","1010.993","22.21","94.5","NAN","0.0"],
    [1557694,"2026-06-04 18:50:00","10404","4.393","70.42","11.27","83.0","1011.574","19.52","91.3","NAN","0.3"],
    [1557695,"2026-06-04 19:00:00","10405","3.738","70.46","8.07","65.36","1011.7860000000001","17.89","96.2","NAN","1.2"],
    [1557696,"2026-06-04 19:10:00","10406","3.895","76.19","7.579","68.33","1011.956","17.59","97.8","NAN","0.3"],
    [1557697,"2026-06-04 19:20:00","10407","4.284","72.54","8.23","76.41","1012.148","17.37","96.2","NAN","0.0"],
    [1557698,"2026-06-04 19:30:00","10408","3.5389999999999997","73.31","7.056","69.72","1012.342","17.54","92.1","NAN","0.0"],
    [1557699,"2026-06-04 19:40:00","10409","3.925","70.66","7.121","80.0","1012.2689999999999","17.57","89.3","NAN","0.0"],
    [1557700,"2026-06-04 19:50:00","10410","3.0989999999999998","78.59","6.664","95.3","1012.352","17.82","89.7","NAN","0.0"],
    [1557701,"2026-06-04 20:00:00","10411","2.9589999999999996","79.52","5.7170000000000005","93.2","1012.554","18.03","87.7","NAN","0.1"],
    [1557702,"2026-06-04 20:10:00","10412","3.6069999999999998","74.78","6.7620000000000005","69.65","1012.783","17.79","88.7","NAN","1.9"],
    [1557703,"2026-06-04 20:20:00","10413","1.944","53.16","5.227","63.09","1013.23","17.3","92.7","NAN","0.4"],
    [1557704,"2026-06-04 20:30:00","10414","2.0340000000000003","54.2","4.149","51.69","1013.77","17.3","92.5","NAN","0.4"],
    [1557705,"2026-06-04 20:40:00","10415","1.3840000000000001","16.59","3.7239999999999998","359.1","1014.373","17.4","92.8","NAN","0.4"],
    [1557706,"2026-06-04 20:50:00","10416","2.247","53.12","4.181","58.12","1014.128","17.21","94.4","NAN","0.9"],
    [1557707,"2026-06-04 21:00:00","10417","2.329","73.37","4.541","56.02","1013.8589999999999","16.82","96.4","NAN","0.3"],
    [1557708,"2026-06-04 21:10:00","10418","1.569","49.04","3.7569999999999997","58.79","1014.209","16.77","96.9","NAN","0.1"],
    [1557709,"2026-06-04 21:20:00","10419","1.545","51.85","3.92","59.62","1014.422","16.67","97.2","NAN","0.0"],
    [1557710,"2026-06-04 21:30:00","10420","2.537","73.32","5.129","77.6","1014.1","16.62","97.4","NAN","0.3"],
    [1557711,"2026-06-04 21:40:00","10421","2.504","75.97","4.606","72.16","1014.315","16.54","97.9","NAN","0.1"],
    [1557712,"2026-06-04 21:50:00","10422","3.3789999999999996","87.5","7.317","88.8","1014.278","16.64","98.3","NAN","0.1"],
    [1557713,"2026-06-04 22:00:00","10423","3.49","76.75","7.187","66.53","1014.34","16.63","98.2","NAN","0.0"],
    [1557714,"2026-06-04 22:10:00","10424","3.6860000000000004","72.64","7.546","73.87","1014.48","16.42","97.9","NAN","0.0"],
    [1557715,"2026-06-04 22:20:00","10425","2.907","72.41","5.815","86.0","1014.557","16.48","97","NAN","0.0"],
    [1557716,"2026-06-04 22:30:00","10426","3.363","78.09","7.415","75.91","1014.591","16.54","95.8","NAN","0.0"],
    [1557717,"2026-06-04 22:40:00","10427","3.528","68.36","6.599","83.7","1014.7139999999999","16.58","94.2","NAN","0.0"],
    [1557718,"2026-06-04 22:50:00","10428","3.156","74.72","6.011","59.08","1015.205","16.66","93.2","NAN","0.0"],
    [1557719,"2026-06-04 23:00:00","10429","3.318","73.55","7.382999999999999","64.64","1015.164","16.77","92.8","NAN","0.0"],
    [1557720,"2026-06-04 23:10:00","10430","3.199","78.68","6.501","68.58","1015.232","16.8","92.2","NAN","0.1"],
    [1557721,"2026-06-04 23:20:00","10431","3.0469999999999997","78.31","6.9910000000000005","93.8","1015.217","16.68","93.8","NAN","0.7"],
    [1557722,"2026-06-04 23:30:00","10432","3.492","70.54","6.599","50.09","1015.095","16.47","94.4","NAN","0.7"],
    [1557723,"2026-06-04 23:40:00","10433","3.3280000000000003","79.2","6.239","68.12","1015.052","16.26","96.4","NAN","0.9"],
    [1557724,"2026-06-04 23:50:00","10434","2.577","74.3","5.7170000000000005","94.4","1015.212","16.16","97.6","NAN","0.5"],
    [1557725,"2026-06-05 00:00:00","10435","3.153","75.1","5.88","74.46","1015.334","16.06","97.3","NAN","0.6"],
    [1557726,"2026-06-05 00:10:00","10436","3.2969999999999997","77.44","6.403","89.7","1015.257","16.06","97.2","NAN","0.6"],
    [1557727,"2026-06-05 00:20:00","10437","3.208","76.27","6.86","71.0","1015.058","16.1","97.1","NAN","0.2"],
    [1557728,"2026-06-05 00:30:00","10438","3.259","73.5","6.9910000000000005","75.33","1015.187","16.09","96.2","NAN","0.0"],
    [1557729,"2026-06-05 00:40:00","10439","3.71","78.71","7.121","77.71","1015.102","16.23","94.9","NAN","0.0"],
    [1557730,"2026-06-05 00:50:00","10440","2.944","75.3","5.651","72.11","1015.237","16.29","94.3","NAN","0.0"],
    [1557731,"2026-06-05 01:00:00","10441","2.9360000000000004","75.57","5.227","60.53","1015.252","16.37","93.5","NAN","0.0"],
    [1557732,"2026-06-05 01:10:00","10442","2.41","80.1","5.292000000000001","67.11","1015.1","16.53","92.5","NAN","0.0"],
    [1557733,"2026-06-05 01:20:00","10443","2.544","72.23","5.4879999999999995","74.24","1015.063","16.64","92","NAN","0.0"],
    [1557734,"2026-06-05 01:30:00","10444","2.151","72.47","4.4430000000000005","71.34","1015.075","16.7","91.4","NAN","0.0"],
    [1557735,"2026-06-05 01:40:00","10445","2.489","72.51","4.606","83.5","1015.13","16.8","90.3","NAN","0.0"],
    [1557736,"2026-06-05 01:50:00","10446","1.3619999999999999","55.45","3.0380000000000003","106.9","1015.297","16.88","90.4","NAN","0.0"],
    [1557737,"2026-06-05 02:00:00","10447","1.264","53.47","2.385","74.64","1015.329","16.89","90.7","NAN","0.0"],
    [1557738,"2026-06-05 02:10:00","10448","1.097","40.55","3.071","25.17","1015.3389999999999","16.94","91.9","NAN","0.0"],
    [1557739,"2026-06-05 02:20:00","10449","1.141","46.92","2.5810000000000004","32.96","1015.3610000000001","16.86","92.6","NAN","0.0"],
    [1557740,"2026-06-05 02:30:00","10450","1.028","59.67","2.189","62.28","1015.3389999999999","16.78","92.6","NAN","0.0"],
    [1557741,"2026-06-05 02:40:00","10451","0.79","56.4","2.156","63.19","1015.4119999999999","16.87","92","NAN","0.0"],
    [1557742,"2026-06-05 02:50:00","10452","0.988","60.66","1.764","70.34","1015.5039999999999","16.89","92.1","NAN","0.0"],
    [1557743,"2026-06-05 03:00:00","10453","1.354","53.0","2.94","15.95","1015.4830000000001","16.95","92.3","NAN","0.0"],
    [1557744,"2026-06-05 03:10:00","10454","1.165","46.07","2.515","58.5","1015.5210000000001","16.82","93.1","NAN","0.0"],
    [1557745,"2026-06-05 03:20:00","10455","0.665","36.28","1.764","67.89","1015.459","16.78","93.4","NAN","0.0"],
    [1557746,"2026-06-05 03:30:00","10456","0.40700000000000003","54.54","1.7309999999999999","61.89","1015.466","16.78","93.2","NAN","0.0"],
    [1557747,"2026-06-05 03:40:00","10457","0.9209999999999999","330.3","2.352","307.6","1015.3839999999999","17","91.9","NAN","0.0"],
    [1557748,"2026-06-05 03:50:00","10458","0.9129999999999999","301.5","1.96","325.3","1015.3969999999999","17.3","90.3","NAN","0.0"],
    [1557749,"2026-06-05 04:00:00","10459","0.84","275.0","2.385","263.1","1015.4639999999999","17.44","89.3","NAN","0.0"],
    [1557750,"2026-06-05 04:10:00","10460","0.9279999999999999","282.6","2.8089999999999997","304.2","1015.466","17.49","88.5","NAN","0.0"],
    [1557751,"2026-06-05 04:20:00","10461","0.544","338.1","2.025","319.3","1015.4639999999999","17.5","85.4","NAN","0.0"],
    [1557752,"2026-06-05 04:30:00","10462","0.5920000000000001","325.6","1.666","309.8","1015.576","17.55","79.69","NAN","0.0"],
    [1557753,"2026-06-05 04:40:00","10463","0.598","279.0","2.189","306.5","1015.5160000000001","17.69","78.93","NAN","0.0"],
    [1557754,"2026-06-05 04:50:00","10464","0.385","208.4","1.5030000000000001","244.4","1015.6110000000001","17.85","82.5","NAN","0.0"],
    [1557755,"2026-06-05 05:00:00","10465","1.5590000000000002","238.8","3.234","247.2","1015.805","17.78","86.9","NAN","0.0"],
    [1557756,"2026-06-05 05:10:00","10466","1.206","236.6","2.875","242.6","1015.837","17.67","88.5","NAN","0.0"],
    [1557757,"2026-06-05 05:20:00","10467","1.331","253.5","2.875","241.2","1015.94","17.64","87.7","NAN","0.0"],
    [1557758,"2026-06-05 05:30:00","10468","1.59","256.7","3.299","263.9","1016.057","17.71","86.8","NAN","0.0"],
    [1557759,"2026-06-05 05:40:00","10469","1.0959999999999999","262.4","2.221","279.3","1016.034","17.69","87.6","NAN","0.0"],
    [1557760,"2026-06-05 05:50:00","10470","1.028","258.1","2.417","300.7","1016.0889999999999","17.75","88","NAN","0.0"],
    [1557761,"2026-06-05 06:00:00","10471","0.932","251.2","2.221","251.1","1016.086","17.82","87.7","NAN","0.0"],
    [1557762,"2026-06-05 06:10:00","10472","0.956","250.5","2.189","240.4","1016.181","18.05","86.5","NAN","0.0"],
    [1557763,"2026-06-05 06:20:00","10473","0.946","214.8","1.9269999999999998","222.2","1016.302","18.29","85.4","NAN","0.0"],
    [1557764,"2026-06-05 06:30:00","10474","0.682","225.2","1.895","218.7","1016.331","18.83","83.4","NAN","0.0"],
    [1557765,"2026-06-05 06:40:00","10475","1.09","212.1","2.515","243.1","1016.32","19.01","81.9","NAN","0.0"],
    [1557766,"2026-06-05 06:50:00","10476","1.113","214.2","2.907","209.1","1016.315","18.96","80.9","NAN","0.0"],
    [1557767,"2026-06-05 07:00:00","10477","1.44","247.9","3.9530000000000003","234.5","1016.405","19.08","78.69","NAN","0.0"],
    [1557768,"2026-06-05 07:10:00","10478","1.3090000000000002","273.1","4.2139999999999995","290.6","1016.4989999999999","19.26","75.08","NAN","0.0"],
    [1557769,"2026-06-05 07:20:00","10479","1.374","250.5","4.051","265.8","1016.716","19.24","74.62","NAN","0.0"],
    [1557770,"2026-06-05 07:30:00","10480","1.569","258.7","4.247","289.1","1016.793","19.11","73.12","NAN","0.0"],
    [1557771,"2026-06-05 07:40:00","10481","2.471","261.9","6.403","266.1","1017.059","18.93","72.51","NAN","0.0"],
    [1557772,"2026-06-05 07:50:00","10482","1.837","254.6","5.945","249.2","1017.2439999999999","18.44","76.92","NAN","0.0"],
    [1557773,"2026-06-05 08:00:00","10483","2.344","272.6","5.227","299.0","1017.204","18.81","71.64","NAN","0.0"],
    [1557774,"2026-06-05 08:10:00","10484","2.136","272.7","5.325","288.0","1017.176","18.94","69.87","NAN","0.0"],
    [1557775,"2026-06-05 08:20:00","10485","1.614","256.4","3.92","255.8","1017.06","19.41","68.53","NAN","0.0"],
    [1557776,"2026-06-05 08:30:00","10486","1.8940000000000001","271.1","4.933","296.0","1016.9760000000001","19.33","67.17","NAN","0.1"],
    [1557777,"2026-06-05 08:40:00","10487","1.742","270.8","4.475","264.5","1016.935","19.54","65.45","NAN","0.0"],
    [1557778,"2026-06-05 08:50:00","10488","1.784","268.0","3.822","300.7","1016.9939999999999","19.9","64.58","NAN","0.0"],
    [1557779,"2026-06-05 09:00:00","10489","1.484","254.3","3.659","288.7","1016.933","20.5","64.19","NAN","0.0"],
    [1557780,"2026-06-05 09:10:00","10490","2.036","243.7","3.7889999999999997","244.8","1016.757","20.3","63.58","NAN","0.0"],
    [1557781,"2026-06-05 09:20:00","10491","1.459","199.5","4.247","172.2","1016.7860000000001","20.18","66.43","NAN","0.0"],
    [1557782,"2026-06-05 09:30:00","10492","1.374","220.5","3.7569999999999997","263.4","1016.82","20.77","65.29","NAN","0.0"],
    [1557783,"2026-06-05 09:40:00","10493","1.7069999999999999","200.7","4.737","233.6","1016.883","20.62","66.69","NAN","0.0"],
    [1557784,"2026-06-05 09:50:00","10494","2.287","192.5","4.083","180.0","1016.9780000000001","20.42","68.72","NAN","0.0"],
    [1557785,"2026-06-05 10:00:00","10495","1.755","207.8","4.018","168.6","1017.007","20.43","69.25","NAN","0.0"],
    [1557786,"2026-06-05 10:10:00","10496","2.005","211.7","4.149","227.4","1017.07","20.44","69.62","NAN","0.0"],
    [1557787,"2026-06-05 10:20:00","10497","1.6680000000000001","230.9","3.887","232.2","1017.145","20.3","68.39","NAN","0.0"],
    [1557788,"2026-06-05 10:30:00","10498","2.412","246.5","4.345","252.0","1017.0219999999999","20.32","67.19","NAN","0.0"],
    [1557789,"2026-06-05 10:40:00","10499","2.1630000000000003","234.7","5.586","237.6","1017.041","20.33","67.33","NAN","0.0"],
    [1557790,"2026-06-05 10:50:00","10500","1.974","239.4","4.475","238.4","1016.8989999999999","20.9","65.77","NAN","0.0"],
    [1557791,"2026-06-05 11:00:00","10501","1.6369999999999998","241.6","4.2139999999999995","236.4","1016.8969999999999","21.16","64.99","NAN","0.0"],
    [1557792,"2026-06-05 11:10:00","10502","1.6840000000000002","263.4","4.247","273.1","1016.9","21.59","62.61","NAN","0.0"],
    [1557793,"2026-06-05 11:20:00","10503","2.161","232.0","4.965","226.2","1016.916","21.55","61.64","NAN","0.0"],
    [1557794,"2026-06-05 11:30:00","10504","1.9769999999999999","234.0","4.802","278.1","1017.0010000000001","21.43","60.29","NAN","0.0"],
    [1557795,"2026-06-05 11:40:00","10505","2.113","220.9","4.671","220.7","1017.013","21.33","61.81","NAN","0.0"],
    [1557796,"2026-06-05 11:50:00","10506","2.07","219.3","5.325","222.0","1017.002","21.1","61.58","NAN","0.0"],
    [1557797,"2026-06-05 12:00:00","10507","2.004","211.4","4.671","205.7","1016.975","21.01","61.78","NAN","0.0"],
    [1557798,"2026-06-05 12:10:00","10508","2.28","204.6","4.475","177.0","1016.8960000000001","20.98","62.91","NAN","0.0"],
    [1557799,"2026-06-05 12:20:00","10509","1.942","207.0","4.867","221.6","1016.8539999999999","20.89","65.48","NAN","0.0"],
    [1557800,"2026-06-05 12:30:00","10510","2.615","192.6","4.508","186.7","1016.7710000000001","20.76","66.17","NAN","0.0"],
    [1557801,"2026-06-05 12:40:00","10511","2.343","199.9","4.867","193.8","1016.773","20.75","65.54","NAN","0.0"],
    [1557802,"2026-06-05 12:50:00","10512","2.238","205.0","4.2139999999999995","178.1","1016.773","20.66","65.58","NAN","0.0"],
    [1557803,"2026-06-05 13:00:00","10513","2.697","198.7","6.272","182.0","1016.7280000000001","20.5","66.77","NAN","0.0"],
    [1557804,"2026-06-05 13:10:00","10514","3.141","193.8","5.749","183.3","1016.497","20.21","68.75","NAN","0.0"],
    [1557805,"2026-06-05 13:20:00","10515","1.818","211.8","4.247","225.4","1016.4010000000001","20.75","67.55","NAN","0.0"],
    [1557806,"2026-06-05 13:30:00","10516","2.657","202.0","4.998","196.1","1016.395","20.99","66.86","NAN","0.0"],
    [1557807,"2026-06-05 13:40:00","10517","2.571","194.5","5.194","199.5","1016.39","20.59","68.93","NAN","0.0"],
    [1557808,"2026-06-05 13:50:00","10518","2.119","197.1","4.41","175.6","1016.42","20.84","68.79","NAN","0.0"],
    [1557809,"2026-06-05 14:00:00","10519","2.8939999999999997","188.2","5.586","177.2","1016.296","20.83","68.36","NAN","0.0"],
    [1557810,"2026-06-05 14:10:00","10520","3.8930000000000002","177.2","6.468","173.1","1016.221","20.26","69.73","NAN","0.0"],
    [1557811,"2026-06-05 14:20:00","10521","3.568","182.0","6.042999999999999","185.2","1016.118","20.36","68.86","NAN","0.0"],
    [1557812,"2026-06-05 14:30:00","10522","2.7769999999999997","187.3","6.468","167.9","1016.201","20.48","66.92","NAN","0.0"],
    [1557813,"2026-06-05 14:40:00","10523","3.589","182.3","6.435","176.9","1016.181","20.43","67.05","NAN","0.0"],
    [1557814,"2026-06-05 14:50:00","10524","3.56","179.3","6.042999999999999","175.0","1016.207","20.47","66.15","NAN","0.0"],
    [1557815,"2026-06-05 15:00:00","10525","2.9760000000000004","187.5","5.063","177.5","1016.138","20.56","65.88","NAN","0.0"],
    [1557816,"2026-06-05 15:10:00","10526","3.9360000000000004","177.7","5.749","172.1","1016.096","20.41","66.48","NAN","0.0"],
    [1557817,"2026-06-05 15:20:00","10527","3.842","179.3","6.1739999999999995","167.8","1016.079","20.34","66.84","NAN","0.0"],
    [1557818,"2026-06-05 15:30:00","10528","3.889","174.6","5.88","177.8","1016.1460000000001","20.29","67.24","NAN","0.0"],
    [1557819,"2026-06-05 15:40:00","10529","4.1419999999999995","177.9","5.978","174.0","1016.077","20.1","68.02","NAN","0.0"],
    [1557820,"2026-06-05 15:50:00","10530","3.915","177.8","5.815","176.2","1015.9910000000001","20.18","68.12","NAN","0.0"],
    [1557821,"2026-06-05 16:00:00","10531","3.627","180.6","5.7170000000000005","166.4","1015.836","20.21","67.77","NAN","0.0"],
    [1557822,"2026-06-05 16:10:00","10532","3.1689999999999996","173.0","5.651","174.4","1015.9119999999999","20.21","67.95","NAN","0.0"],
    [1557823,"2026-06-05 16:20:00","10533","3.112","180.2","5.586","180.6","1016.0189999999999","20.25","69.36","NAN","0.0"],
    [1557824,"2026-06-05 16:30:00","10534","3.06","178.4","4.965","175.0","1015.9760000000001","20.04","71.11","NAN","0.0"],
    [1557825,"2026-06-05 16:40:00","10535","2.5810000000000004","186.5","5.1610000000000005","181.6","1015.993","20.14","71.06","NAN","0.0"],
    [1557826,"2026-06-05 16:50:00","10536","3.339","175.8","5.684","167.7","1015.9810000000001","20.22","70.79","NAN","0.0"],
    [1557827,"2026-06-05 17:00:00","10537","3.846","176.7","5.88","177.9","1015.81","19.99","72.25","NAN","0.0"],
    [1557828,"2026-06-05 17:10:00","10538","3.14","180.5","5.129","184.6","1015.784","19.93","72.43","NAN","0.0"],
    [1557829,"2026-06-05 17:20:00","10539","3.135","175.6","4.606","174.1","1015.877","19.81","72.89","NAN","0.0"],
    [1557830,"2026-06-05 17:30:00","10540","2.847","175.5","5.1610000000000005","178.3","1015.972","19.93","71.85","NAN","0.0"],
    [1557831,"2026-06-05 17:40:00","10541","2.713","178.7","4.802","176.0","1015.985","19.8","72.59","NAN","0.0"],
    [1557832,"2026-06-05 17:50:00","10542","2.8160000000000003","177.7","4.312","170.6","1015.893","19.68","73.34","NAN","0.0"],
    [1557833,"2026-06-05 18:00:00","10543","2.745","181.7","4.475","180.3","1015.8710000000001","19.73","73.43","NAN","0.0"],
    [1557834,"2026-06-05 18:10:00","10544","2.559","177.5","4.802","175.3","1015.9889999999999","19.67","74","NAN","0.0"],
    [1557835,"2026-06-05 18:20:00","10545","2.42","172.2","4.2139999999999995","181.9","1016.07","19.68","74","NAN","0.0"],
    [1557836,"2026-06-05 18:30:00","10546","2.4290000000000003","176.0","3.855","174.1","1016.071","19.56","74.5","NAN","0.0"],
    [1557837,"2026-06-05 18:40:00","10547","2.3480000000000003","177.7","3.822","179.1","1016.113","19.49","74.52","NAN","0.0"],
    [1557838,"2026-06-05 18:50:00","10548","2.136","186.4","3.6260000000000003","167.7","1016.183","19.51","74.29","NAN","0.0"],
    [1557839,"2026-06-05 19:00:00","10549","1.861","180.4","3.855","171.6","1016.211","19.56","74.4","NAN","0.0"],
    [1557840,"2026-06-05 19:10:00","10550","2.04","184.8","3.6260000000000003","173.2","1016.211","19.58","74.44","NAN","0.0"],
    [1557841,"2026-06-05 19:20:00","10551","1.93","182.9","3.299","171.3","1016.176","19.61","74.71","NAN","0.0"],
    [1557842,"2026-06-05 19:30:00","10552","2.012","184.9","3.92","171.9","1016.148","19.46","75.72","NAN","0.0"],
    [1557843,"2026-06-05 19:40:00","10553","1.805","185.2","3.332","172.0","1016.206","19.42","76.26","NAN","0.0"],
    [1557844,"2026-06-05 19:50:00","10554","1.685","190.9","3.528","180.1","1016.336","19.43","76.83","NAN","0.0"],
    [1557845,"2026-06-05 20:00:00","10555","1.307","202.7","2.6460000000000004","206.4","1016.416","19.54","75.63","NAN","0.0"],
    [1557846,"2026-06-05 20:10:00","10556","1.462","184.1","3.0380000000000003","182.4","1016.553","19.51","76.32","NAN","0.0"],
    [1557847,"2026-06-05 20:20:00","10557","1.0170000000000001","201.7","2.45","177.4","1016.797","19.49","76.45","NAN","0.0"],
    [1557848,"2026-06-05 20:30:00","10558","1.155","223.2","2.6460000000000004","241.8","1016.836","19.55","74.47","NAN","0.0"],
    [1557849,"2026-06-05 20:40:00","10559","1.004","220.5","3.0380000000000003","223.5","1016.877","19.65","73.41","NAN","0.0"],
    [1557850,"2026-06-05 20:50:00","10560","1.088","227.0","2.7110000000000003","242.4","1017.0360000000001","19.66","73.26","NAN","0.0"],
    [1557851,"2026-06-05 21:00:00","10561","1.355","225.0","3.463","200.2","1017.123","19.65","73.59","NAN","0.0"],
    [1557852,"2026-06-05 21:10:00","10562","0.987","222.0","2.842","224.3","1017.0830000000001","19.62","73.92","NAN","0.0"],
    [1557853,"2026-06-05 21:20:00","10563","0.873","213.5","2.45","220.2","1017.073","19.58","74.37","NAN","0.0"],
    [1557854,"2026-06-05 21:30:00","10564","0.932","228.9","2.679","246.1","1017.076","19.61","74.08","NAN","0.0"],
    [1557855,"2026-06-05 21:40:00","10565","0.9840000000000001","227.6","2.7439999999999998","232.2","1017.0830000000001","19.63","73.75","NAN","0.0"],
    [1557856,"2026-06-05 21:50:00","10566","1.256","222.2","3.0380000000000003","216.4","1017.0830000000001","19.59","73.87","NAN","0.0"],
    [1557857,"2026-06-05 22:00:00","10567","1.124","225.2","2.7110000000000003","214.5","1017.0830000000001","19.61","74","NAN","0.0"],
    [1557858,"2026-06-05 22:10:00","10568","1.354","227.3","2.907","239.6","1017.1160000000001","19.65","73.76","NAN","0.0"],
    [1557859,"2026-06-05 22:20:00","10569","1.145","226.4","2.352","245.6","1017.1260000000001","19.73","73.71","NAN","0.0"],
    [1557860,"2026-06-05 22:30:00","10570","0.867","224.3","2.417","234.5","1017.2230000000001","19.76","74.05","NAN","0.0"],
    [1557861,"2026-06-05 22:40:00","10571","0.871","223.4","2.221","211.2","1017.16","19.83","74.1","NAN","0.0"],
    [1557862,"2026-06-05 22:50:00","10572","0.754","231.6","2.417","254.5","1017.1410000000001","19.82","74.44","NAN","0.0"],
    [1557863,"2026-06-05 23:00:00","10573","0.8290000000000001","232.2","2.385","222.5","1017.2","19.81","74.34","NAN","0.0"],
    [1557864,"2026-06-05 23:10:00","10574","0.835","229.6","1.764","248.1","1017.1289999999999","19.78","75.13","NAN","0.0"],
    [1557865,"2026-06-05 23:20:00","10575","0.48100000000000004","250.3","1.4369999999999998","251.5","1017.0830000000001","19.95","73.51","NAN","0.0"],
    [1557866,"2026-06-05 23:30:00","10576","0.6779999999999999","237.1","1.993","266.3","1016.954","19.93","73.39","NAN","0.0"],
    [1557867,"2026-06-05 23:40:00","10577","0.537","237.0","1.339","241.4","1016.875","19.82","73.78","NAN","0.0"],
    [1557868,"2026-06-05 23:50:00","10578","0.457","242.9","1.568","243.8","1016.824","19.82","73.76","NAN","0.0"],
    [1557869,"2026-06-06 00:00:00","10579","0.275","248.5","1.5030000000000001","282.6","1016.717","19.84","73.7","NAN","0.0"],
    [1557870,"2026-06-06 00:10:00","10580","0.752","246.9","2.156","233.2","1016.7869999999999","19.84","73.08","NAN","0.0"],
    [1557871,"2026-06-06 00:20:00","10581","0.914","273.5","2.287","244.8","1016.7439999999999","19.78","73.25","NAN","0.0"],
    [1557872,"2026-06-06 00:30:00","10582","0.8190000000000001","271.1","2.94","297.3","1016.831","19.71","73.53","NAN","0.0"],
    [1557873,"2026-06-06 00:40:00","10583","0.6779999999999999","256.5","1.895","291.5","1016.799","19.7","73.4","NAN","0.0"],
    [1557874,"2026-06-06 00:50:00","10584","0.838","255.1","2.221","260.8","1016.679","19.64","73.65","NAN","0.0"],
    [1557875,"2026-06-06 01:00:00","10585","1.043","246.3","2.254","243.8","1016.576","19.54","74.1","NAN","0.0"],
    [1557876,"2026-06-06 01:10:00","10586","0.948","263.0","2.352","287.6","1016.6089999999999","19.53","74.02","NAN","0.0"],
    [1557877,"2026-06-06 01:20:00","10587","0.7909999999999999","251.0","2.025","298.2","1016.7389999999999","19.55","73.91","NAN","0.0"],
    [1557878,"2026-06-06 01:30:00","10588","0.977","252.3","2.025","292.2","1016.552","19.62","73.5","NAN","0.0"],
    [1557879,"2026-06-06 01:40:00","10589","0.968","254.8","2.679","229.3","1016.46","19.56","73.63","NAN","0.0"],
    [1557880,"2026-06-06 01:50:00","10590","0.971","240.8","2.189","239.1","1016.415","19.53","73.4","NAN","0.0"],
    [1557881,"2026-06-06 02:00:00","10591","0.838","266.5","2.548","254.7","1016.4580000000001","19.6","73.18","NAN","0.0"],
    [1557882,"2026-06-06 02:10:00","10592","0.7979999999999999","243.2","1.829","238.3","1016.423","19.51","73.41","NAN","0.0"],
    [1557883,"2026-06-06 02:20:00","10593","0.99","237.5","2.0909999999999997","256.1","1016.4730000000001","19.45","73.92","NAN","0.0"],
    [1557884,"2026-06-06 02:30:00","10594","0.653","266.1","2.221","308.2","1016.53","19.47","73.64","NAN","0.0"],
    [1557885,"2026-06-06 02:40:00","10595","1.013","271.7","2.483","291.2","1016.3760000000001","19.46","72.78","NAN","0.0"],
    [1557886,"2026-06-06 02:50:00","10596","0.784","289.4","1.829","336.0","1016.44","19.54","72.36","NAN","0.0"],
    [1557887,"2026-06-06 03:00:00","10597","0.685","318.4","1.96","310.1","1016.465","19.53","72.47","NAN","0.0"],
    [1557888,"2026-06-06 03:10:00","10598","0.882","322.4","2.123","297.3","1016.54","19.62","72.02","NAN","0.0"],
    [1557889,"2026-06-06 03:20:00","10599","0.428","286.1","1.797","296.2","1016.453","19.65","71.86","NAN","0.0"],
    [1557890,"2026-06-06 03:30:00","10600","0.687","287.4","1.633","279.3","1016.4889999999999","19.61","72.11","NAN","0.0"],
    [1557891,"2026-06-06 03:40:00","10601","0.7759999999999999","275.3","1.764","268.4","1016.576","19.75","71.76","NAN","0.0"],
    [1557892,"2026-06-06 03:50:00","10602","0.523","270.6","1.535","260.9","1016.553","19.84","71.69","NAN","0.0"],
    [1557893,"2026-06-06 04:00:00","10603","0.8","262.4","2.319","297.8","1016.403","19.82","71.94","NAN","0.0"],
    [1557894,"2026-06-06 04:10:00","10604","0.759","268.8","1.7309999999999999","293.6","1016.295","19.76","72.11","NAN","0.0"],
    [1557895,"2026-06-06 04:20:00","10605","0.995","285.4","2.0580000000000003","310.9","1016.158","19.72","72.29","NAN","0.0"],
    [1557896,"2026-06-06 04:30:00","10606","0.8640000000000001","288.7","2.0580000000000003","292.1","1016.341","19.84","71.68","NAN","0.0"],
    [1557897,"2026-06-06 04:40:00","10607","0.615","263.8","1.274","194.3","1016.375","19.95","71.29","NAN","0.0"],
    [1557898,"2026-06-06 04:50:00","10608","0.691","258.9","1.666","290.5","1016.6510000000001","20.07","70.6","NAN","0.0"],
    [1557899,"2026-06-06 05:00:00","10609","0.5","284.1","1.3719999999999999","285.2","1016.7760000000001","20.14","70.11","NAN","0.0"],
    [1557900,"2026-06-06 05:10:00","10610","0.33799999999999997","260.6","1.2409999999999999","295.8","1016.6469999999999","20.3","69.24","NAN","0.0"],
    [1557901,"2026-06-06 05:20:00","10611","0.618","250.7","1.7309999999999999","226.1","1016.613","20.18","69.37","NAN","0.0"],
    [1557902,"2026-06-06 05:30:00","10612","0.517","268.1","1.666","217.7","1016.804","20.35","68.45","NAN","0.0"],
    [1557903,"2026-06-06 05:40:00","10613","1.0390000000000001","246.1","2.483","241.5","1016.8919999999999","20.32","68.42","NAN","0.0"],
    [1557904,"2026-06-06 05:50:00","10614","1.051","246.6","2.45","257.3","1016.972","20.37","68.72","NAN","0.0"],
    [1557905,"2026-06-06 06:00:00","10615","1.054","261.9","2.0580000000000003","273.6","1017.052","20.36","68.83","NAN","0.0"],
    [1557906,"2026-06-06 06:10:00","10616","0.935","249.8","2.221","263.7","1017.046","20.36","68.84","NAN","0.0"],
    [1557907,"2026-06-06 06:20:00","10617","0.687","249.7","1.601","265.1","1017.2289999999999","20.49","68.36","NAN","0.0"],
    [1557908,"2026-06-06 06:30:00","10618","0.767","252.2","2.221","244.7","1017.302","20.64","67.54","NAN","0.0"],
    [1557909,"2026-06-06 06:40:00","10619","0.8690000000000001","247.0","1.993","241.4","1017.342","20.69","67.68","NAN","0.0"],
    [1557910,"2026-06-06 06:50:00","10620","0.895","211.7","2.417","238.1","1017.325","20.72","68.21","NAN","0.0"],
    [1557911,"2026-06-06 07:00:00","10621","0.905","223.8","2.548","224.0","1017.305","20.91","67.24","NAN","0.0"],
    [1557912,"2026-06-06 07:10:00","10622","1.237","235.7","2.842","234.2","1017.4910000000001","20.94","65.98","NAN","0.0"],
    [1557913,"2026-06-06 07:20:00","10623","1.071","230.8","2.7439999999999998","229.3","1017.559","21.23","65.37","NAN","0.0"],
    [1557914,"2026-06-06 07:30:00","10624","0.988","213.7","2.548","217.9","1017.63","21.34","65.25","NAN","0.0"],
    [1557915,"2026-06-06 07:40:00","10625","1.172","222.6","2.7110000000000003","201.5","1017.6260000000001","21.71","63.98","NAN","0.0"],
    [1557916,"2026-06-06 07:50:00","10626","1.43","242.2","2.9730000000000003","223.4","1017.72","21.75","64.34","NAN","0.0"],
    [1557917,"2026-06-06 08:00:00","10627","0.986","233.7","3.593","266.6","1017.73","22.15","64.07","NAN","0.0"],
    [1557918,"2026-06-06 08:10:00","10628","0.7929999999999999","252.2","2.352","313.5","1017.702","22.36","63.55","NAN","0.0"],
    [1557919,"2026-06-06 08:20:00","10629","1.321","217.3","3.103","214.9","1017.673","22.48","64.38","NAN","0.0"],
    [1557920,"2026-06-06 08:30:00","10630","1.7469999999999999","201.7","3.887","175.6","1017.698","22.58","65.31","NAN","0.0"],
    [1557921,"2026-06-06 08:40:00","10631","2.503","172.7","4.247","167.6","1017.812","21.72","68.96","NAN","0.0"],
    [1557922,"2026-06-06 08:50:00","10632","3.6910000000000003","175.2","5.978","177.5","1017.784","21.49","69.05","NAN","0.0"],
    [1557923,"2026-06-06 09:00:00","10633","3.405","175.0","5.227","179.7","1017.768","21.52","69.04","NAN","0.0"],
    [1557924,"2026-06-06 09:10:00","10634","3.53","177.2","5.455","178.2","1017.773","21.36","70.79","NAN","0.0"],
    [1557925,"2026-06-06 09:20:00","10635","3.543","176.6","5.4879999999999995","179.6","1017.8760000000001","21.37","71.08","NAN","0.0"],
    [1557926,"2026-06-06 09:30:00","10636","3.2760000000000002","177.5","5.1610000000000005","176.7","1017.939","21.62","70.7","NAN","0.0"],
    [1557927,"2026-06-06 09:40:00","10637","3.935","176.1","5.815","176.2","1017.915","21.55","71.94","NAN","0.0"],
    [1557928,"2026-06-06 09:50:00","10638","4.385","175.2","6.1739999999999995","178.3","1017.987","21.35","73.46","NAN","0.0"],
    [1557929,"2026-06-06 10:00:00","10639","3.929","176.6","5.684","177.8","1018.132","21.41","74.24","NAN","0.0"],
    [1557930,"2026-06-06 10:10:00","10640","3.7089999999999996","178.8","5.586","177.6","1018.2260000000001","21.45","74.73","NAN","0.0"],
    [1557931,"2026-06-06 10:20:00","10641","3.1689999999999996","182.3","5.815","180.7","1018.247","22.02","73.05","NAN","0.0"],
    [1557932,"2026-06-06 10:30:00","10642","4.2139999999999995","177.0","6.468","180.9","1018.308","21.71","75.13","NAN","0.0"],
    [1557933,"2026-06-06 10:40:00","10643","3.752","171.3","5.88","177.1","1018.3810000000001","21.8","75.36","NAN","0.0"],
    [1557934,"2026-06-06 10:50:00","10644","2.9019999999999997","183.0","4.965","169.1","1018.4910000000001","22.41","73.32","NAN","0.0"],
    [1557935,"2026-06-06 11:00:00","10645","3.338","169.8","5.847","167.8","1018.495","22.96","70.43","NAN","0.0"],
    [1557936,"2026-06-06 11:10:00","10646","3.931","174.7","5.912999999999999","174.2","1018.6","22.18","74.39","NAN","0.0"],
    [1557937,"2026-06-06 11:20:00","10647","3.1060000000000003","175.4","5.031000000000001","172.9","1018.64","22.77","71.94","NAN","0.0"],
    [1557938,"2026-06-06 11:30:00","10648","3.451","170.9","6.011","191.6","1018.688","23","71.49","NAN","0.0"],
    [1557939,"2026-06-06 11:40:00","10649","2.329","181.7","4.051","170.7","1018.7339999999999","23.49","70.35","NAN","0.0"],
    [1557940,"2026-06-06 11:50:00","10650","3.7239999999999998","168.1","6.272","179.5","1018.725","23.12","71.32","NAN","0.0"],
    [1557941,"2026-06-06 12:00:00","10651","4.269","171.4","6.697","175.7","1018.703","22.36","75.37","NAN","0.0"],
    [1557942,"2026-06-06 12:10:00","10652","3.656","168.6","5.325","176.8","1018.704","22.63","74.73","NAN","0.0"],
    [1557943,"2026-06-06 12:20:00","10653","3.883","170.5","5.815","175.6","1018.727","22.56","75.24","NAN","0.0"],
    [1557944,"2026-06-06 12:30:00","10654","4.238","173.6","6.468","179.2","1018.7230000000001","22.14","77.35","NAN","0.0"],
    [1557945,"2026-06-06 12:40:00","10655","4.23","173.6","5.945","175.7","1018.727","21.98","77.93","NAN","0.0"],
    [1557946,"2026-06-06 12:50:00","10656","4.268","175.6","6.337000000000001","176.6","1018.737","21.88","80","NAN","0.0"],
    [1557947,"2026-06-06 13:00:00","10657","4.087","176.5","5.945","172.4","1018.75","21.87","81","NAN","0.0"],
    [1557948,"2026-06-06 13:10:00","10658","3.366","173.9","5.422999999999999","178.9","1018.709","22.02","80.6","NAN","0.0"],
    [1557949,"2026-06-06 13:20:00","10659","1.979","185.6","3.7239999999999998","164.2","1018.541","22.7","77.39","NAN","0.0"],
    [1557950,"2026-06-06 13:30:00","10660","2.487","179.1","4.508","171.0","1018.581","23.07","74.81","NAN","0.0"],
    [1557951,"2026-06-06 13:40:00","10661","2.154","180.3","3.495","165.6","1018.5989999999999","22.98","75.76","NAN","0.0"],
    [1557952,"2026-06-06 13:50:00","10662","2.335","189.6","3.985","170.1","1018.577","23.34","74.44","NAN","0.0"],
    [1557953,"2026-06-06 14:00:00","10663","2.42","193.3","5.619","173.5","1018.512","23.71","72.66","NAN","0.0"],
    [1557954,"2026-06-06 14:10:00","10664","2.526","179.2","4.802","174.9","1018.554","23.38","74.21","NAN","0.0"],
    [1557955,"2026-06-06 14:20:00","10665","2.342","192.1","4.867","195.1","1018.597","23.19","75.48","NAN","0.0"],
    [1557956,"2026-06-06 14:30:00","10666","2.252","196.4","4.247","212.4","1018.572","23.26","75.31","NAN","0.0"],
    [1557957,"2026-06-06 14:40:00","10667","1.4569999999999999","200.2","3.397","187.3","1018.462","23.84","73.26","NAN","0.0"],
    [1557958,"2026-06-06 14:50:00","10668","1.6640000000000001","207.5","3.593","202.5","1018.352","23.88","73.17","NAN","0.0"],
    [1557959,"2026-06-06 15:00:00","10669","1.9980000000000002","198.9","4.1160000000000005","201.6","1018.337","23.85","72.85","NAN","0.0"],
    [1557960,"2026-06-06 15:10:00","10670","1.6219999999999999","206.7","3.234","203.4","1018.2589999999999","23.91","72.84","NAN","0.0"],
    [1557961,"2026-06-06 15:20:00","10671","1.319","209.1","3.43","205.2","1018.209","24.43","70.68","NAN","0.0"],
    [1557962,"2026-06-06 15:30:00","10672","1.57","210.4","3.299","224.7","1018.225","24.82","68.81","NAN","0.0"],
    [1557963,"2026-06-06 15:40:00","10673","1.4709999999999999","196.5","3.1689999999999996","201.6","1018.2689999999999","24.92","67.92","NAN","0.0"],
    [1557964,"2026-06-06 15:50:00","10674","1.9269999999999998","181.5","3.6910000000000003","173.2","1018.19","24.69","68.23","NAN","0.0"],
    [1557965,"2026-06-06 16:00:00","10675","2.57","167.8","3.7889999999999997","160.8","1018.178","24.01","72.19","NAN","0.0"],
    [1557966,"2026-06-06 16:10:00","10676","2.639","169.7","4.149","180.3","1018.187","23.71","74.54","NAN","0.0"],
    [1557967,"2026-06-06 16:20:00","10677","2.707","172.0","4.312","172.1","1018.201","23.71","73.99","NAN","0.0"],
    [1557968,"2026-06-06 16:30:00","10678","2.235","188.5","3.985","177.2","1018.2360000000001","23.93","72.08","NAN","0.0"],
    [1557969,"2026-06-06 16:40:00","10679","1.7","189.0","3.332","199.1","1018.26","24.15","70.74","NAN","0.0"],
    [1557970,"2026-06-06 16:50:00","10680","2.239","190.6","4.018","178.2","1018.2260000000001","23.86","71.99","NAN","0.0"],
    [1557971,"2026-06-06 17:00:00","10681","2.1390000000000002","190.8","3.6910000000000003","178.6","1018.377","23.9","73.2","NAN","0.0"],
    [1557972,"2026-06-06 17:10:00","10682","2.129","191.6","4.1160000000000005","188.5","1018.367","23.72","74.37","NAN","0.0"],
    [1557973,"2026-06-06 17:20:00","10683","1.702","201.8","4.083","198.1","1018.437","23.73","74.53","NAN","0.0"],
    [1557974,"2026-06-06 17:30:00","10684","1.4780000000000002","202.9","3.201","201.6","1018.569","23.83","74.19","NAN","0.0"],
    [1557975,"2026-06-06 17:40:00","10685","1.409","208.4","3.071","199.6","1018.696","23.99","73.69","NAN","0.0"],
    [1557976,"2026-06-06 17:50:00","10686","1.349","199.9","2.9730000000000003","218.0","1018.7139999999999","23.99","74.43","NAN","0.0"],
    [1557977,"2026-06-06 18:00:00","10687","1.97","200.8","3.201","186.7","1018.826","23.55","76.69","NAN","0.0"],
    [1557978,"2026-06-06 18:10:00","10688","1.9280000000000002","196.5","3.7889999999999997","178.8","1018.9110000000001","23.41","78.02","NAN","0.0"],
    [1557979,"2026-06-06 18:20:00","10689","1.7630000000000001","196.2","3.593","187.4","1019.1519999999999","23.07","80.2","NAN","0.0"],
    [1557980,"2026-06-06 18:30:00","10690","1.421","204.4","3.071","216.6","1019.2539999999999","23.02","80.5","NAN","0.0"],
    [1557981,"2026-06-06 18:40:00","10691","1.339","205.0","3.267","212.3","1019.341","22.85","81.5","NAN","0.0"],
    [1557982,"2026-06-06 18:50:00","10692","1.6880000000000002","202.6","3.299","190.2","1019.454","22.69","82.5","NAN","0.0"],
    [1557983,"2026-06-06 19:00:00","10693","1.452","205.7","3.659","199.7","1019.6080000000001","22.54","83.7","NAN","0.0"],
    [1557984,"2026-06-06 19:10:00","10694","1.158","206.7","2.613","198.7","1019.628","22.36","84.7","NAN","0.0"],
    [1557985,"2026-06-06 19:20:00","10695","1.112","201.4","2.254","203.8","1019.7639999999999","22.22","85.9","NAN","0.0"],
    [1557986,"2026-06-06 19:30:00","10696","1.189","205.7","3.1689999999999996","201.9","1019.936","22.13","86.4","NAN","0.0"],
    [1557987,"2026-06-06 19:40:00","10697","1.198","209.5","2.548","207.0","1020.0269999999999","22.09","86.6","NAN","0.0"],
    [1557988,"2026-06-06 19:50:00","10698","1.208","205.1","2.613","215.1","1020.148","22.06","86.4","NAN","0.0"],
    [1557989,"2026-06-06 20:00:00","10699","1.2","195.0","2.0909999999999997","169.5","1020.2860000000001","21.94","87.6","NAN","0.0"],
    [1557990,"2026-06-06 20:10:00","10700","1.551","202.2","3.005","212.0","1020.3439999999999","21.82","88.4","NAN","0.0"],
    [1557991,"2026-06-06 20:20:00","10701","1.0979999999999999","219.2","2.548","211.4","1020.533","21.91","87.7","NAN","0.0"],
    [1557992,"2026-06-06 20:30:00","10702","1.252","197.4","2.5810000000000004","201.5","1020.659","21.84","88.9","NAN","0.0"],
    [1557993,"2026-06-06 20:40:00","10703","1.0759999999999998","208.5","2.254","202.8","1020.8739999999999","21.73","89.4","NAN","0.0"],
    [1557994,"2026-06-06 20:50:00","10704","0.9159999999999999","223.4","2.189","239.7","1020.987","21.81","88.9","NAN","0.0"],
    [1557995,"2026-06-06 21:00:00","10705","1.0859999999999999","216.1","2.0580000000000003","237.3","1021.186","21.82","88.8","NAN","0.0"],
    [1557996,"2026-06-06 21:10:00","10706","1.0659999999999998","196.6","2.221","194.9","1021.315","21.62","90.2","NAN","0.0"],
    [1557997,"2026-06-06 21:20:00","10707","1.186","224.3","2.45","226.8","1021.549","21.62","90.5","NAN","0.0"],
    [1557998,"2026-06-06 21:30:00","10708","1.087","239.1","2.483","226.0","1021.681","21.7","90.2","NAN","0.0"],
    [1557999,"2026-06-06 21:40:00","10709","0.961","216.7","2.7110000000000003","237.0","1021.7239999999999","21.78","89.6","NAN","0.0"],
    [1558000,"2026-06-06 21:50:00","10710","0.8809999999999999","228.5","1.829","240.2","1021.752","21.69","90.2","NAN","0.0"],
    [1558001,"2026-06-06 22:00:00","10711","1.307","248.7","2.613","241.2","1021.812","21.7","89.7","NAN","0.0"],
    [1558002,"2026-06-06 22:10:00","10712","1.245","213.2","3.234","186.6","1021.7810000000001","21.67","89.8","NAN","0.0"],
    [1558003,"2026-06-06 22:20:00","10713","1.115","229.7","2.287","211.6","1021.952","21.6","89.7","NAN","0.0"],
    [1558004,"2026-06-06 22:30:00","10714","1.0190000000000001","238.3","2.45","267.9","1022.053","21.73","88.9","NAN","0.0"],
    [1558005,"2026-06-06 22:40:00","10715","0.7959999999999999","236.0","2.287","235.1","1022.055","21.63","89.3","NAN","0.0"],
    [1558006,"2026-06-06 22:50:00","10716","0.6809999999999999","224.7","1.797","224.4","1022.1339999999999","21.69","88.4","NAN","0.0"],
    [1558007,"2026-06-06 23:00:00","10717","0.898","201.7","1.633","203.5","1022.26","21.54","89.6","NAN","0.0"],
    [1558008,"2026-06-06 23:10:00","10718","0.9259999999999999","209.7","1.9269999999999998","208.5","1022.1260000000001","21.39","91","NAN","0.0"],
    [1558009,"2026-06-06 23:20:00","10719","0.39899999999999997","205.6","1.405","208.3","1022.193","21.34","91","NAN","0.0"],
    [1558010,"2026-06-06 23:30:00","10720","0.451","182.4","1.535","192.4","1022.115","21.38","90.6","NAN","0.0"],
    [1558011,"2026-06-06 23:40:00","10721","0.602","202.8","1.339","186.4","1022.178","21.44","90.3","NAN","0.0"],
    [1558012,"2026-06-06 23:50:00","10722","0.813","188.4","1.339","175.6","1022.232","21.42","90.3","NAN","0.0"],
    [1558013,"2026-06-07 00:00:00","10723","0.61","149.3","1.176","177.3","1022.273","21.33","90.7","NAN","0.0"],
    [1558014,"2026-06-07 00:10:00","10724","0.326","116.1","0.6859999999999999","123.5","1022.217","21.37","90.3","NAN","0.0"],
    [1558015,"2026-06-07 00:20:00","10725","0.807","143.3","1.797","175.9","1022.159","21.45","89.8","NAN","0.0"],
    [1558016,"2026-06-07 00:30:00","10726","1.031","158.7","1.666","173.6","1022.08","21.31","90.4","NAN","0.0"],
    [1558017,"2026-06-07 00:40:00","10727","0.603","179.4","1.405","203.6","1022.059","21.17","91.2","NAN","0.0"],
    [1558018,"2026-06-07 00:50:00","10728","0.629","193.0","1.274","201.0","1022.065","21","92.1","NAN","0.0"],
    [1558019,"2026-06-07 01:00:00","10729","0.389","161.0","0.915","150.9","1022.068","20.97","92.5","NAN","0.0"],
    [1558020,"2026-06-07 01:10:00","10730","0.284","160.3","0.784","167.0","1022.138","20.97","92.5","NAN","0.0"],
    [1558021,"2026-06-07 01:20:00","10731","0.049","149.4","0.653","156.9","1022.059","20.95","92.1","NAN","0.0"],
    [1558022,"2026-06-07 01:30:00","10732","0.11","152.1","0.523","105.8","1022.065","20.85","91.8","NAN","0.0"],
    [1558023,"2026-06-07 01:40:00","10733","0.0","0.0","0.0","0.0","1022.097","20.86","91.6","NAN","0.0"],
    [1558024,"2026-06-07 01:50:00","10734","0.0","0.0","0.0","0.0","1022.061","20.88","91.5","NAN","0.0"],
    [1558025,"2026-06-07 02:00:00","10735","0.083","201.2","0.49","205.8","1022.057","20.77","92","NAN","0.0"],
    [1558026,"2026-06-07 02:10:00","10736","0.0","0.0","0.0","0.0","1022.058","20.74","92.2","NAN","0.0"],
    [1558027,"2026-06-07 02:20:00","10737","0.20199999999999999","115.6","0.7190000000000001","92.7","1022.061","20.74","92.2","NAN","0.0"],
    [1558028,"2026-06-07 02:30:00","10738","0.23199999999999998","60.01","0.7509999999999999","53.73","1022.039","20.71","92.4","NAN","0.0"],
    [1558029,"2026-06-07 02:40:00","10739","0.5489999999999999","55.05","1.143","55.2","1021.939","20.61","92.5","NAN","0.0"],
    [1558030,"2026-06-07 02:50:00","10740","0.49200000000000005","55.96","1.2409999999999999","63.68","1021.88","20.51","92.9","NAN","0.0"],
    [1558031,"2026-06-07 03:00:00","10741","0.45799999999999996","62.75","1.307","52.7","1021.832","20.49","92.8","NAN","0.0"],
    [1558032,"2026-06-07 03:10:00","10742","0.486","54.45","1.143","43.33","1021.8919999999999","20.32","92.7","NAN","0.0"],
    [1558033,"2026-06-07 03:20:00","10743","0.69","55.43","1.143","46.74","1021.94","20.23","92.2","NAN","0.0"],
    [1558034,"2026-06-07 03:30:00","10744","0.47700000000000004","23.18","1.307","49.74","1021.954","20.11","91.7","NAN","0.0"],
    [1558035,"2026-06-07 03:40:00","10745","0.664","26.28","1.7309999999999999","36.55","1022.029","20.21","90.4","NAN","0.0"],
    [1558036,"2026-06-07 03:50:00","10746","0.45899999999999996","12.75","1.111","11.41","1022.0930000000001","20.17","89.6","NAN","0.0"],
    [1558037,"2026-06-07 04:00:00","10747","0.569","17.59","1.405","13.33","1022.079","20.24","88.8","NAN","0.0"],
    [1558038,"2026-06-07 04:10:00","10748","0.736","13.65","1.535","19.68","1022.2280000000001","20.22","87.5","NAN","0.0"],
    [1558039,"2026-06-07 04:20:00","10749","0.282","21.68","1.078","8.04","1022.3","20.25","86.1","NAN","0.0"],
    [1558040,"2026-06-07 04:30:00","10750","0.618","31.97","1.5030000000000001","34.11","1022.308","20.22","85.2","NAN","0.0"],
    [1558041,"2026-06-07 04:40:00","10751","0.589","21.87","1.3719999999999999","32.14","1022.326","20.28","83.3","NAN","0.0"],
    [1558042,"2026-06-07 04:50:00","10752","0.774","23.88","1.601","1.365","1022.431","20.38","81.4","NAN","0.0"],
    [1558043,"2026-06-07 05:00:00","10753","0.815","19.33","1.764","36.73","1022.56","20.57","79.27","NAN","0.0"],
    [1558044,"2026-06-07 05:10:00","10754","0.73","19.57","1.339","354.2","1022.747","20.76","76.26","NAN","0.0"],
    [1558045,"2026-06-07 05:20:00","10755","0.7120000000000001","27.93","1.699","47.89","1022.795","20.85","74.26","NAN","0.0"],
    [1558046,"2026-06-07 05:30:00","10756","0.836","29.91","1.764","350.4","1022.868","21.19","70.48","NAN","0.0"],
    [1558047,"2026-06-07 05:40:00","10757","0.7859999999999999","12.55","2.319","13.17","1022.9839999999999","21.22","68.28","NAN","0.0"],
    [1558048,"2026-06-07 05:50:00","10758","0.7879999999999999","12.41","1.829","19.88","1023.0269999999999","21.59","65.01","NAN","0.0"],
    [1558049,"2026-06-07 06:00:00","10759","0.8440000000000001","14.42","1.797","8.8","1023.117","21.8","61.57","NAN","0.0"],
    [1558050,"2026-06-07 06:10:00","10760","0.85","7.025","1.601","359.8","1023.2130000000001","22.08","58.75","NAN","0.0"],
    [1558051,"2026-06-07 06:20:00","10761","0.7090000000000001","46.26","1.3719999999999999","22.52","1023.2189999999999","22.69","57.44","NAN","0.0"],
    [1558052,"2026-06-07 06:30:00","10762","0.382","79.78","1.143","96.1","1023.187","23.34","55.91","NAN","0.0"],
    [1558053,"2026-06-07 06:40:00","10763","0.607","102.2","1.339","65.42","1023.305","23.02","58.05","NAN","0.0"],
    [1558054,"2026-06-07 06:50:00","10764","0.833","134.0","1.4369999999999998","139.6","1023.418","22.74","60.22","NAN","0.0"],
    [1558055,"2026-06-07 07:00:00","10765","0.978","165.7","1.666","185.5","1023.5089999999999","22.55","61.59","NAN","0.0"],
    [1558056,"2026-06-07 07:10:00","10766","1.176","179.7","1.633","184.1","1023.57","22.7","62.02","NAN","0.0"],
    [1558057,"2026-06-07 07:20:00","10767","1.1059999999999999","161.8","1.5030000000000001","175.5","1023.6560000000001","22.82","63.23","NAN","0.0"],
    [1558058,"2026-06-07 07:30:00","10768","1.126","157.1","2.025","147.5","1023.691","22.82","65.84","NAN","0.0"],
    [1558059,"2026-06-07 07:40:00","10769","1.365","142.8","2.025","121.4","1023.692","22.76","67.54","NAN","0.0"],
    [1558060,"2026-06-07 07:50:00","10770","1.226","141.0","1.8619999999999999","150.4","1023.829","22.78","68.46","NAN","0.0"],
    [1558061,"2026-06-07 08:00:00","10771","1.112","133.7","1.8619999999999999","136.6","1023.916","23.07","69.45","NAN","0.0"],
    [1558062,"2026-06-07 08:10:00","10772","1.126","143.6","1.829","163.1","1023.919","23.09","70.02","NAN","0.0"],
    [1558063,"2026-06-07 08:20:00","10773","1.4569999999999999","140.8","2.417","110.9","1023.939","23.18","69.53","NAN","0.0"],
    [1558064,"2026-06-07 08:30:00","10774","1.653","141.2","2.417","112.0","1024.0510000000002","23.12","69.2","NAN","0.0"],
    [1558065,"2026-06-07 08:40:00","10775","1.6369999999999998","157.6","2.6460000000000004","125.3","1024.0910000000001","23.18","69.51","NAN","0.0"],
    [1558066,"2026-06-07 08:50:00","10776","1.871","171.5","2.94","176.0","1024.165","23.25","69.57","NAN","0.0"],
    [1558067,"2026-06-07 09:00:00","10777","2.147","171.4","3.005","163.5","1024.1680000000001","22.83","71.79","NAN","0.0"],
    [1558068,"2026-06-07 09:10:00","10778","2.3480000000000003","180.5","3.5610000000000004","186.8","1024.194","22.91","71.97","NAN","0.0"],
    [1558069,"2026-06-07 09:20:00","10779","2.465","178.5","3.7239999999999998","173.8","1024.29","22.85","72.47","NAN","0.0"],
    [1558070,"2026-06-07 09:30:00","10780","2.915","176.6","4.1160000000000005","176.3","1024.345","22.83","75.67","NAN","0.0"],
    [1558071,"2026-06-07 09:40:00","10781","2.463","172.6","3.5610000000000004","177.7","1024.377","22.82","77.55","NAN","0.0"],
    [1558072,"2026-06-07 09:50:00","10782","3.074","175.1","4.2139999999999995","173.2","1024.417","22.75","78.38","NAN","0.0"],
    [1558073,"2026-06-07 10:00:00","10783","2.864","177.1","4.1160000000000005","175.8","1024.432","22.76","78.92","NAN","0.0"],
    [1558074,"2026-06-07 10:10:00","10784","2.838","171.9","4.606","172.2","1024.503","22.88","78.63","NAN","0.0"],
    [1558075,"2026-06-07 10:20:00","10785","2.707","172.2","3.985","160.3","1024.525","22.97","79.22","NAN","0.0"],
    [1558076,"2026-06-07 10:30:00","10786","2.675","170.1","4.508","160.2","1024.645","23.25","76.78","NAN","0.0"],
    [1558077,"2026-06-07 10:40:00","10787","2.852","168.3","4.051","184.6","1024.5339999999999","23.08","74.06","NAN","0.0"],
    [1558078,"2026-06-07 10:50:00","10788","2.614","184.3","4.279","184.0","1024.445","23.28","73.81","NAN","0.0"],
    [1558079,"2026-06-07 11:00:00","10789","3.148","180.2","4.965","180.6","1024.4","23.11","74.71","NAN","0.0"],
    [1558080,"2026-06-07 11:10:00","10790","2.97","168.6","4.573","181.2","1024.358","23.21","73.68","NAN","0.0"],
    [1558081,"2026-06-07 11:20:00","10791","2.617","171.6","3.659","144.6","1024.251","23.15","73.84","NAN","0.0"],
    [1558082,"2026-06-07 11:30:00","10792","1.909","187.1","3.136","206.3","1023.972","23.63","71.32","NAN","0.0"],
    [1558083,"2026-06-07 11:40:00","10793","2.867","184.6","4.41","185.8","1023.7710000000001","23.56","72.49","NAN","0.0"],
    [1558084,"2026-06-07 11:50:00","10794","2.65","183.8","4.083","181.1","1023.68","23.22","76.61","NAN","0.0"],
    [1558085,"2026-06-07 12:00:00","10795","2.553","180.3","4.1160000000000005","181.7","1023.57","23.1","75.84","NAN","0.0"],
    [1558086,"2026-06-07 12:10:00","10796","2.423","180.0","4.247","180.7","1023.3939999999999","23.49","69.9","NAN","0.0"],
    [1558087,"2026-06-07 12:20:00","10797","2.112","182.7","3.659","171.9","1023.227","23.65","67.82","NAN","0.0"],
    [1558088,"2026-06-07 12:30:00","10798","2.3680000000000003","182.7","3.9530000000000003","203.1","1023.064","23.3","66.54","NAN","0.0"],
    [1558089,"2026-06-07 12:40:00","10799","2.175","183.3","3.822","179.1","1022.9680000000001","23.56","65.11","NAN","0.0"],
    [1558090,"2026-06-07 12:50:00","10800","2.432","179.1","4.018","177.8","1022.938","23.31","65.24","NAN","0.0"],
    [1558091,"2026-06-07 13:00:00","10801","2.576","172.3","4.704","178.3","1022.88","23.28","63.02","NAN","0.0"],
    [1558092,"2026-06-07 13:10:00","10802","2.877","172.4","4.41","161.3","1022.7360000000001","23.31","60.68","NAN","0.0"],
    [1558093,"2026-06-07 13:20:00","10803","2.997","182.9","4.508","179.3","1022.7260000000001","23.19","60.97","NAN","0.0"],
    [1558094,"2026-06-07 13:30:00","10804","2.7","180.7","4.377","199.8","1022.7139999999999","23.27","61.86","NAN","0.0"],
    [1558095,"2026-06-07 13:40:00","10805","3.04","183.3","4.704","171.9","1022.712","23.09","61.26","NAN","0.0"],
    [1558096,"2026-06-07 13:50:00","10806","3.052","176.8","4.475","193.2","1022.687","22.86","62.43","NAN","0.0"],
    [1558097,"2026-06-07 14:00:00","10807","3.2739999999999996","179.0","5.2589999999999995","174.2","1022.576","22.79","63.42","NAN","0.0"],
    [1558098,"2026-06-07 14:10:00","10808","3.469","175.2","5.031000000000001","178.8","1022.443","22.57","64.25","NAN","0.0"],
    [1558099,"2026-06-07 14:20:00","10809","3.345","180.9","4.965","177.1","1022.2739999999999","22.58","64.42","NAN","0.0"],
    [1558100,"2026-06-07 14:30:00","10810","3.091","178.0","4.475","177.5","1022.2289999999999","22.57","64.76","NAN","0.0"],
    [1558101,"2026-06-07 14:40:00","10811","2.77","175.7","4.1160000000000005","179.2","1022.125","22.58","64.16","NAN","0.0"],
    [1558102,"2026-06-07 14:50:00","10812","2.6439999999999997","173.7","3.855","179.8","1021.993","22.45","65.36","NAN","0.0"],
    [1558103,"2026-06-07 15:00:00","10813","2.3209999999999997","173.8","3.593","184.9","1021.9810000000001","22.71","64.41","NAN","0.0"],
    [1558104,"2026-06-07 15:10:00","10814","2.734","178.4","3.822","179.8","1021.971","22.52","65.58","NAN","0.0"],
    [1558105,"2026-06-07 15:20:00","10815","2.804","172.9","4.083","157.1","1021.8660000000001","22.55","66.48","NAN","0.0"],
    [1558106,"2026-06-07 15:30:00","10816","3.1289999999999996","172.1","4.247","173.5","1021.957","22.38","66.56","NAN","0.0"],
    [1558107,"2026-06-07 15:40:00","10817","3.359","172.0","4.867","174.6","1021.9889999999999","22.56","65.88","NAN","0.0"],
    [1558108,"2026-06-07 15:50:00","10818","3.295","175.8","4.835","174.2","1021.8919999999999","22.39","66.35","NAN","0.0"],
    [1558109,"2026-06-07 16:00:00","10819","3.3819999999999997","174.2","4.541","178.2","1021.784","22.34","67.16","NAN","0.0"],
    [1558110,"2026-06-07 16:10:00","10820","3.0380000000000003","175.0","4.247","175.2","1021.7489999999999","22.4","66.58","NAN","0.0"],
    [1558111,"2026-06-07 16:20:00","10821","2.855","175.1","4.704","175.0","1021.7389999999999","22.54","65.74","NAN","0.0"],
    [1558112,"2026-06-07 16:30:00","10822","3.082","175.2","4.802","179.1","1021.672","22.46","65.7","NAN","0.0"],
    [1558113,"2026-06-07 16:40:00","10823","3.0669999999999997","175.2","4.704","178.3","1021.585","22.29","65.92","NAN","0.0"],
    [1558114,"2026-06-07 16:50:00","10824","2.839","175.5","4.41","170.9","1021.4780000000001","22.4","66.69","NAN","0.0"],
    [1558115,"2026-06-07 17:00:00","10825","2.9989999999999997","176.1","4.345","173.3","1021.45","22.28","67.68","NAN","0.0"],
    [1558116,"2026-06-07 17:10:00","10826","3.2689999999999997","175.3","4.508","177.5","1021.403","22.19","68.44","NAN","0.0"],
    [1558117,"2026-06-07 17:20:00","10827","3.057","173.2","4.737","179.2","1021.303","22.21","67.94","NAN","0.0"],
    [1558118,"2026-06-07 17:30:00","10828","2.8569999999999998","174.1","4.051","176.6","1021.2689999999999","22.28","67.5","NAN","0.0"],
    [1558119,"2026-06-07 17:40:00","10829","2.787","173.7","4.247","175.9","1021.255","22.32","67.95","NAN","0.0"],
    [1558120,"2026-06-07 17:50:00","10830","2.8489999999999998","172.9","4.181","175.2","1021.1189999999999","22.29","67.63","NAN","0.0"],
    [1558121,"2026-06-07 18:00:00","10831","3.2319999999999998","173.6","4.4430000000000005","177.8","1021.02","22.14","68.75","NAN","0.0"],
    [1558122,"2026-06-07 18:10:00","10832","2.781","172.9","4.149","172.4","1021.012","22.18","68.66","NAN","0.0"],
    [1558123,"2026-06-07 18:20:00","10833","2.614","171.8","4.051","180.6","1021.0830000000001","22.26","65.75","NAN","0.0"],
    [1558124,"2026-06-07 18:30:00","10834","2.438","170.8","3.659","174.3","1021.038","22.25","66.14","NAN","0.0"],
    [1558125,"2026-06-07 18:40:00","10835","1.608","184.1","3.103","171.2","1020.992","22.36","63.81","NAN","0.0"],
    [1558126,"2026-06-07 18:50:00","10836","0.742","205.3","1.96","212.0","1021.034","22.71","59.91","NAN","0.0"],
    [1558127,"2026-06-07 19:00:00","10837","1.087","203.1","2.254","205.6","1021.0139999999999","22.7","60.87","NAN","0.0"],
    [1558128,"2026-06-07 19:10:00","10838","1.423","209.2","2.907","195.6","1020.985","22.72","60.17","NAN","0.0"],
    [1558129,"2026-06-07 19:20:00","10839","1.094","216.8","2.515","206.3","1020.952","22.81","58.33","NAN","0.0"],
    [1558130,"2026-06-07 19:30:00","10840","1.01","219.9","2.94","223.9","1021.0110000000001","22.81","58.38","NAN","0.0"],
    [1558131,"2026-06-07 19:40:00","10841","0.6409999999999999","214.1","1.699","209.5","1020.9989999999999","22.78","58.24","NAN","0.0"],
    [1558132,"2026-06-07 19:50:00","10842","0.905","203.2","1.666","201.6","1020.936","22.59","60.34","NAN","0.0"],
    [1558133,"2026-06-07 20:00:00","10843","0.7609999999999999","202.5","1.47","196.2","1020.992","22.37","62.39","NAN","0.0"],
    [1558134,"2026-06-07 20:10:00","10844","0.99","201.6","1.9269999999999998","200.0","1021.058","22.37","62.92","NAN","0.0"],
    [1558135,"2026-06-07 20:20:00","10845","1.02","203.5","1.797","208.2","1021.097","22.39","63","NAN","0.0"],
    [1558136,"2026-06-07 20:30:00","10846","0.659","216.4","1.633","237.9","1021.191","22.39","62.43","NAN","0.0"],
    [1558137,"2026-06-07 20:40:00","10847","0.705","192.5","1.176","200.0","1021.285","22.35","63.09","NAN","0.0"],
    [1558138,"2026-06-07 20:50:00","10848","1.061","196.0","1.797","199.8","1021.319","22.28","62.24","NAN","0.0"],
    [1558139,"2026-06-07 21:00:00","10849","1.032","192.8","1.829","204.1","1021.318","22.27","63.27","NAN","0.0"],
    [1558140,"2026-06-07 21:10:00","10850","0.8540000000000001","188.2","1.176","178.9","1021.3480000000001","22.22","63.75","NAN","0.0"],
    [1558141,"2026-06-07 21:20:00","10851","0.825","189.1","1.405","201.7","1021.38","22.02","65.51","NAN","0.0"],
    [1558142,"2026-06-07 21:30:00","10852","0.98","199.5","1.633","211.1","1021.318","21.84","65.04","NAN","0.0"],
    [1558143,"2026-06-07 21:40:00","10853","0.972","212.2","1.535","200.2","1021.315","21.91","62.61","NAN","0.0"],
    [1558144,"2026-06-07 21:50:00","10854","0.863","213.1","1.535","212.3","1021.319","22.1","59.86","NAN","0.0"],
    [1558145,"2026-06-07 22:00:00","10855","0.81","221.8","1.535","230.6","1021.31","22.38","56.91","NAN","0.0"],
    [1558146,"2026-06-07 22:10:00","10856","0.9390000000000001","222.9","1.9269999999999998","222.3","1021.2289999999999","22.39","56.16","NAN","0.0"],
    [1558147,"2026-06-07 22:20:00","10857","0.7809999999999999","218.8","1.4369999999999998","225.8","1021.072","22.24","56.91","NAN","0.0"],
    [1558148,"2026-06-07 22:30:00","10858","0.48700000000000004","230.2","1.405","197.3","1021.07","22.13","57.64","NAN","0.0"],
    [1558149,"2026-06-07 22:40:00","10859","0.664","232.5","1.3719999999999999","236.7","1021.007","22.4","56.84","NAN","0.0"],
    [1558150,"2026-06-07 22:50:00","10860","0.637","237.0","1.405","227.3","1020.993","22.18","58.59","NAN","0.0"],
    [1558151,"2026-06-07 23:00:00","10861","0.5489999999999999","223.8","1.5030000000000001","195.6","1020.992","22.19","58.9","NAN","0.0"],
    [1558152,"2026-06-07 23:10:00","10862","0.784","198.3","1.5030000000000001","193.7","1020.8380000000001","21.85","61.22","NAN","0.0"],
    [1558153,"2026-06-07 23:20:00","10863","0.31","197.8","0.98","190.5","1020.9119999999999","21.71","62.91","NAN","0.0"],
    [1558154,"2026-06-07 23:30:00","10864","0.44799999999999995","199.8","1.111","195.9","1020.972","21.7","62.05","NAN","0.0"],
    [1558155,"2026-06-07 23:40:00","10865","0.7020000000000001","195.2","1.045","196.4","1020.955","21.51","64.39","NAN","0.0"],
    [1558156,"2026-06-07 23:50:00","10866","0.527","229.0","1.666","230.3","1020.945","21.49","62.33","NAN","0.0"],
    [1558157,"2026-06-08 00:00:00","10867","0.605","231.8","1.535","236.9","1020.934","21.92","59.19","NAN","0.0"],
    [1558158,"2026-06-08 00:10:00","10868","0.307","195.7","0.882","213.0","1020.822","21.72","61.97","NAN","0.0"],
    [1558159,"2026-06-08 00:20:00","10869","0.14400000000000002","169.4","0.6859999999999999","181.5","1020.82","21.51","62.82","NAN","0.0"],
    [1558160,"2026-06-08 00:30:00","10870","0.39399999999999996","208.6","0.915","196.8","1020.763","21.39","64","NAN","0.0"],
    [1558161,"2026-06-08 00:40:00","10871","0.6","238.2","1.339","235.3","1020.6110000000001","21.65","60.77","NAN","0.0"],
    [1558162,"2026-06-08 00:50:00","10872","0.5670000000000001","237.5","1.176","261.9","1020.508","21.93","60.1","NAN","0.0"],
    [1558163,"2026-06-08 01:00:00","10873","0.395","234.4","0.915","243.6","1020.4069999999999","21.65","62.98","NAN","0.0"],
    [1558164,"2026-06-08 01:10:00","10874","0.359","225.3","1.209","237.2","1020.322","21.48","63.62","NAN","0.0"],
    [1558165,"2026-06-08 01:20:00","10875","0.19399999999999998","112.1","0.49","126.5","1020.2769999999999","21.28","63.84","NAN","0.0"],
    [1558166,"2026-06-08 01:30:00","10876","0.095","101.0","0.392","101.4","1020.155","21.23","63.96","NAN","0.0"],
    [1558167,"2026-06-08 01:40:00","10877","0.36","121.8","0.7509999999999999","113.4","1020.0830000000001","21.26","63.6","NAN","0.0"],
    [1558168,"2026-06-08 01:50:00","10878","0.424","64.88","0.98","46.37","1019.928","21.1","67.31","NAN","0.0"],
    [1558169,"2026-06-08 02:00:00","10879","0.426","53.22","0.9470000000000001","51.63","1019.79","20.78","66.87","NAN","0.0"],
    [1558170,"2026-06-08 02:10:00","10880","0.37200000000000005","33.38","0.8490000000000001","42.75","1019.684","20.82","65.36","NAN","0.0"],
    [1558171,"2026-06-08 02:20:00","10881","0.415","34.99","1.111","17.05","1019.612","20.77","64.9","NAN","0.0"],
    [1558172,"2026-06-08 02:30:00","10882","0.249","43.18","0.6859999999999999","24.66","1019.465","20.57","65.89","NAN","0.0"],
    [1558173,"2026-06-08 02:40:00","10883","0.6970000000000001","41.44","1.3719999999999999","26.52","1019.437","20.52","65.46","NAN","0.0"],
    [1558174,"2026-06-08 02:50:00","10884","0.522","28.77","1.078","52.14","1019.323","20.56","65.04","NAN","0.0"],
    [1558175,"2026-06-08 03:00:00","10885","0.262","37.45","0.8490000000000001","33.57","1019.313","20.56","64.83","NAN","0.0"],
    [1558176,"2026-06-08 03:10:00","10886","0.175","56.72","0.523","53.61","1019.258","20.59","64.61","NAN","0.0"],
    [1558177,"2026-06-08 03:20:00","10887","0.155","59.33","0.555","71.53","1019.1310000000001","20.45","65.74","NAN","0.0"],
    [1558178,"2026-06-08 03:30:00","10888","0.0","0.0","0.0","0.0","1019.1210000000001","20.34","65.77","NAN","0.0"],
    [1558179,"2026-06-08 03:40:00","10889","0.133","53.72","0.882","53.55","1019.078","20.35","66.33","NAN","0.0"],
    [1558180,"2026-06-08 03:50:00","10890","0.586","18.45","1.4369999999999998","21.29","1018.962","20.26","65.82","NAN","0.0"],
    [1558181,"2026-06-08 04:00:00","10891","0.331","31.85","0.784","39.47","1018.8989999999999","20.38","65.53","NAN","0.0"],
    [1558182,"2026-06-08 04:10:00","10892","0.14300000000000002","40.92","0.6859999999999999","57.17","1018.827","20.21","66.51","NAN","0.0"],
    [1558183,"2026-06-08 04:20:00","10893","0.32799999999999996","39.22","0.98","24.24","1018.785","20.22","66.64","NAN","0.0"],
    [1558184,"2026-06-08 04:30:00","10894","0.055999999999999994","39.5","0.457","38.82","1018.682","20.25","66.37","NAN","0.0"],
    [1558185,"2026-06-08 04:40:00","10895","0.084","158.0","0.457","165.7","1018.638","20.33","67","NAN","0.0"],
    [1558186,"2026-06-08 04:50:00","10896","0.0","0.0","0.0","0.0","1018.5930000000001","20.33","68.2","NAN","0.0"],
    [1558187,"2026-06-08 05:00:00","10897","0.10300000000000001","78.23","0.6859999999999999","66.66","1018.492","20.86","65.7","NAN","0.0"],
    [1558188,"2026-06-08 05:10:00","10898","0.185","72.68","0.7190000000000001","70.28","1018.4580000000001","21.11","64.52","NAN","0.0"],
    [1558189,"2026-06-08 05:20:00","10899","0.005","146.3","0.196","144.7","1018.51","21.16","63.87","NAN","0.0"],
    [1558190,"2026-06-08 05:30:00","10900","0.039","142.3","0.294","113.3","1018.55","21.29","64.84","NAN","0.0"],
    [1558191,"2026-06-08 05:40:00","10901","0.12","94.1","0.588","92.4","1018.569","21.57","63.64","NAN","0.0"],
    [1558192,"2026-06-08 05:50:00","10902","0.32","128.9","0.8170000000000001","110.6","1018.635","21.99","62.99","NAN","0.0"],
    [1558193,"2026-06-08 06:00:00","10903","0.758","106.7","1.111","108.6","1018.627","21.95","65.78","NAN","0.0"],
    [1558194,"2026-06-08 06:10:00","10904","0.7290000000000001","138.6","1.3719999999999999","137.5","1018.696","22.09","65.56","NAN","0.0"],
    [1558195,"2026-06-08 06:20:00","10905","0.87","135.2","1.339","116.8","1018.742","21.86","67.78","NAN","0.0"],
    [1558196,"2026-06-08 06:30:00","10906","1.172","120.4","1.633","108.0","1018.722","21.83","68.56","NAN","0.0"],
    [1558197,"2026-06-08 06:40:00","10907","1.258","108.0","1.8619999999999999","124.0","1018.692","21.79","67.33","NAN","0.0"],
    [1558198,"2026-06-08 06:50:00","10908","1.122","108.8","1.601","118.3","1018.7080000000001","22.08","65.47","NAN","0.0"],
    [1558199,"2026-06-08 07:00:00","10909","1.4340000000000002","107.0","1.8619999999999999","105.8","1018.742","22.08","65.46","NAN","0.0"],
    [1558200,"2026-06-08 07:10:00","10910","1.3559999999999999","113.3","1.764","108.9","1018.7560000000001","22.54","63.59","NAN","0.0"],
    [1558201,"2026-06-08 07:20:00","10911","1.3230000000000002","121.9","1.895","112.2","1018.836","22.86","61.49","NAN","0.0"],
    [1558202,"2026-06-08 07:30:00","10912","1.535","154.5","2.287","147.5","1018.971","22.97","57.4","NAN","0.0"],
    [1558203,"2026-06-08 07:40:00","10913","1.966","154.6","2.613","154.7","1019.0880000000001","23.02","56.83","NAN","0.0"],
    [1558204,"2026-06-08 07:50:00","10914","1.867","171.2","2.8089999999999997","178.5","1019.13","22.96","58.72","NAN","0.0"],
    [1558205,"2026-06-08 08:00:00","10915","2.655","179.6","4.1160000000000005","182.5","1019.205","22.89","63.18","NAN","0.0"],
    [1558206,"2026-06-08 08:10:00","10916","2.734","181.9","4.508","191.3","1019.2689999999999","22.62","69.37","NAN","0.0"],
    [1558207,"2026-06-08 08:20:00","10917","2.64","184.5","4.377","176.6","1019.2660000000001","22.52","72.03","NAN","0.0"],
    [1558208,"2026-06-08 08:30:00","10918","2.316","178.9","4.181","181.4","1019.29","22.5","73.44","NAN","0.0"],
    [1558209,"2026-06-08 08:40:00","10919","2.097","176.6","3.528","173.5","1019.2860000000001","22.76","67.82","NAN","0.0"],
    [1558210,"2026-06-08 08:50:00","10920","2.218","175.6","3.463","175.5","1019.2719999999999","22.72","68.45","NAN","0.0"],
    [1558211,"2026-06-08 09:00:00","10921","1.652","167.5","2.7110000000000003","174.5","1019.191","23.18","65.92","NAN","0.0"],
    [1558212,"2026-06-08 09:10:00","10922","1.944","168.5","2.6460000000000004","179.3","1019.174","23.35","64.26","NAN","0.0"],
    [1558213,"2026-06-08 09:20:00","10923","2.408","173.9","3.397","180.0","1019.107","23.63","59.17","NAN","0.0"],
    [1558214,"2026-06-08 09:30:00","10924","2.303","168.8","3.5610000000000004","153.8","1019.02","23.8","60.67","NAN","0.0"],
    [1558215,"2026-06-08 09:40:00","10925","2.2680000000000002","170.4","3.299","178.7","1018.94","23.82","63.67","NAN","0.0"],
    [1558216,"2026-06-08 09:50:00","10926","2.667","172.1","4.1160000000000005","178.3","1018.935","24.01","60.34","NAN","0.0"],
    [1558217,"2026-06-08 10:00:00","10927","3.12","174.9","4.4430000000000005","176.7","1018.94","23.94","59.74","NAN","0.0"],
    [1558218,"2026-06-08 10:10:00","10928","3.083","174.0","4.4430000000000005","171.5","1018.938","23.84","62.66","NAN","0.0"],
    [1558219,"2026-06-08 10:20:00","10929","3.221","169.8","4.312","176.7","1018.935","23.69","64.82","NAN","0.0"],
    [1558220,"2026-06-08 10:30:00","10930","3.009","169.8","4.1160000000000005","173.9","1018.9639999999999","23.77","64.1","NAN","0.0"],
    [1558221,"2026-06-08 10:40:00","10931","2.887","169.9","4.606","180.1","1019.05","23.96","61.2","NAN","0.0"],
    [1558222,"2026-06-08 10:50:00","10932","3.426","173.6","4.9","176.8","1019.1239999999999","23.96","61.58","NAN","0.0"],
    [1558223,"2026-06-08 11:00:00","10933","3.446","171.2","4.835","172.9","1019.194","23.77","63.54","NAN","0.0"],
    [1558224,"2026-06-08 11:10:00","10934","3.177","174.3","4.638999999999999","182.8","1019.198","24.04","60.29","NAN","0.0"],
    [1558225,"2026-06-08 11:20:00","10935","3.27","171.0","5.031000000000001","175.8","1019.107","24.08","59.4","NAN","0.0"],
    [1558226,"2026-06-08 11:30:00","10936","3.386","171.6","4.606","179.1","1019.002","23.97","60.57","NAN","0.0"],
    [1558227,"2026-06-08 11:40:00","10937","3.391","172.0","5.553","184.6","1018.9889999999999","23.86","64.19","NAN","0.0"],
    [1558228,"2026-06-08 11:50:00","10938","3.205","175.8","5.2589999999999995","176.6","1018.962","23.93","64.6","NAN","0.0"],
    [1558229,"2026-06-08 12:00:00","10939","3.589","175.3","5.422999999999999","179.3","1018.9739999999999","23.72","70.96","NAN","0.0"],
    [1558230,"2026-06-08 12:10:00","10940","3.238","169.9","5.063","184.2","1018.8689999999999","23.68","72","NAN","0.0"],
    [1558231,"2026-06-08 12:20:00","10941","3.513","167.3","5.2589999999999995","166.5","1018.7289999999999","23.37","73.55","NAN","0.0"],
    [1558232,"2026-06-08 12:30:00","10942","3.395","167.9","5.684","164.4","1018.7339999999999","23.43","74.25","NAN","0.0"],
    [1558233,"2026-06-08 12:40:00","10943","3.179","169.3","5.031000000000001","164.7","1018.654","23.47","74.19","NAN","0.0"],
    [1558234,"2026-06-08 12:50:00","10944","3.0660000000000003","168.8","4.671","183.1","1018.436","23.51","73.9","NAN","0.0"],
    [1558235,"2026-06-08 13:00:00","10945","3.423","169.4","4.835","157.5","1018.321","23.43","74.8","NAN","0.0"],
    [1558236,"2026-06-08 13:10:00","10946","3.2739999999999996","170.2","4.704","176.7","1018.2189999999999","23.21","75.86","NAN","0.0"],
    [1558237,"2026-06-08 13:20:00","10947","3.17","163.9","4.965","178.8","1018.115","23.35","74.93","NAN","0.0"],
    [1558238,"2026-06-08 13:30:00","10948","3.216","172.7","4.377","173.6","1017.972","23.41","73.73","NAN","0.0"],
    [1558239,"2026-06-08 13:40:00","10949","3.594","179.7","5.684","175.4","1017.867","23.52","74.2","NAN","0.0"],
    [1558240,"2026-06-08 13:50:00","10950","3.9530000000000003","176.7","5.749","181.5","1017.74","23.18","76.25","NAN","0.0"],
    [1558241,"2026-06-08 14:00:00","10951","3.6430000000000002","172.4","5.4879999999999995","179.7","1017.7260000000001","23","77.45","NAN","0.0"],
    [1558242,"2026-06-08 14:10:00","10952","3.3110000000000004","169.9","4.9","175.4","1017.6439999999999","23.33","77.08","NAN","0.0"],
    [1558243,"2026-06-08 14:20:00","10953","3.555","171.5","4.933","174.6","1017.495","23.2","78.46","NAN","0.0"],
    [1558244,"2026-06-08 14:30:00","10954","3.2439999999999998","171.8","4.867","172.6","1017.38","23.2","79.15","NAN","0.0"],
    [1558245,"2026-06-08 14:40:00","10955","3.1460000000000004","169.3","4.737","155.3","1017.275","23.21","79.07","NAN","0.0"],
    [1558246,"2026-06-08 14:50:00","10956","3.6460000000000004","171.4","5.619","180.0","1017.2280000000001","23.04","79.26","NAN","0.0"],
    [1558247,"2026-06-08 15:00:00","10957","3.46","171.3","4.965","180.6","1017.18","23.13","78.99","NAN","0.0"],
    [1558248,"2026-06-08 15:10:00","10958","3.21","171.7","4.573","166.5","1017.0010000000001","23.26","78.67","NAN","0.0"],
    [1558249,"2026-06-08 15:20:00","10959","3.32","173.3","4.606","179.3","1016.967","23.16","78.93","NAN","0.0"],
    [1558250,"2026-06-08 15:30:00","10960","3.635","172.2","5.521","182.2","1016.8969999999999","23.01","79.87","NAN","0.0"],
    [1558251,"2026-06-08 15:40:00","10961","2.984","169.8","5.194","157.5","1016.823","23.09","79.98","NAN","0.0"],
    [1558252,"2026-06-08 15:50:00","10962","3.202","169.3","5.325","171.1","1016.768","23.13","79.9","NAN","0.0"],
    [1558253,"2026-06-08 16:00:00","10963","3.1889999999999996","171.6","4.965","178.8","1016.623","23.15","79.86","NAN","0.0"],
    [1558254,"2026-06-08 16:10:00","10964","2.96","170.2","4.802","162.5","1016.4830000000001","23.19","79.78","NAN","0.0"],
    [1558255,"2026-06-08 16:20:00","10965","3.1460000000000004","169.0","4.671","170.3","1016.278","23.27","79.3","NAN","0.0"],
    [1558256,"2026-06-08 16:30:00","10966","2.877","169.2","4.149","167.5","1016.2260000000001","23.55","76.66","NAN","0.0"],
    [1558257,"2026-06-08 16:40:00","10967","2.855","168.5","4.508","177.9","1016.1260000000001","24.18","71.93","NAN","0.0"],
    [1558258,"2026-06-08 16:50:00","10968","2.259","169.6","3.7239999999999998","180.1","1016.113","24.52","69.05","NAN","0.0"],
    [1558259,"2026-06-08 17:00:00","10969","2.4330000000000003","167.5","3.5610000000000004","178.5","1016.007","24.62","68.17","NAN","0.0"],
    [1558260,"2026-06-08 17:10:00","10970","2.22","167.9","3.43","159.4","1016.0060000000001","24.75","67.26","NAN","0.0"],
    [1558261,"2026-06-08 17:20:00","10971","1.617","175.9","3.136","177.2","1015.961","24.75","66.52","NAN","0.0"],
    [1558262,"2026-06-08 17:30:00","10972","1.18","192.2","2.515","177.8","1015.987","25.46","59.86","NAN","0.0"],
    [1558263,"2026-06-08 17:40:00","10973","1.264","176.9","2.385","185.9","1015.96","25.49","61.39","NAN","0.0"],
    [1558264,"2026-06-08 17:50:00","10974","0.893","192.9","1.601","158.8","1015.8689999999999","25.85","56.5","NAN","0.0"],
    [1558265,"2026-06-08 18:00:00","10975","0.878","217.1","2.352","228.6","1015.962","26.69","51.18","NAN","0.0"],
    [1558266,"2026-06-08 18:10:00","10976","1.604","243.7","4.083","246.5","1015.951","27.27","47.16","NAN","0.0"],
    [1558267,"2026-06-08 18:20:00","10977","1.3459999999999999","228.9","3.822","248.4","1015.949","27.04","47.29","NAN","0.0"],
    [1558268,"2026-06-08 18:30:00","10978","1.276","241.6","2.94","246.2","1015.8610000000001","27.01","45.66","NAN","0.0"],
    [1558269,"2026-06-08 18:40:00","10979","1.035","195.4","2.5810000000000004","201.4","1015.82","26.75","46.29","NAN","0.0"],
    [1558270,"2026-06-08 18:50:00","10980","1.02","154.4","1.829","150.0","1015.806","26.31","51.39","NAN","0.0"],
    [1558271,"2026-06-08 19:00:00","10981","1.011","166.0","2.254","168.3","1015.765","25.04","62.2","NAN","0.0"],
    [1558272,"2026-06-08 19:10:00","10982","1.0759999999999998","159.9","1.829","152.3","1015.686","24.33","69.97","NAN","0.0"],
    [1558273,"2026-06-08 19:20:00","10983","1.2209999999999999","177.5","2.515","172.6","1015.763","23.55","76.11","NAN","0.0"],
    [1558274,"2026-06-08 19:30:00","10984","1.301","152.9","3.103","160.4","1015.8560000000001","22.98","80.3","NAN","0.0"],
    [1558275,"2026-06-08 19:40:00","10985","1.411","152.0","2.7439999999999998","159.3","1015.997","22.85","79.23","NAN","0.0"],
    [1558276,"2026-06-08 19:50:00","10986","1.855","118.6","2.842","112.3","1016.135","22.92","80.8","NAN","0.0"],
    [1558277,"2026-06-08 20:00:00","10987","1.785","121.8","3.005","123.0","1016.3689999999999","22.57","87.3","NAN","0.0"],
    [1558278,"2026-06-08 20:10:00","10988","1.992","116.2","3.005","109.7","1016.533","22.44","89.9","NAN","0.0"],
    [1558279,"2026-06-08 20:20:00","10989","1.989","106.7","3.0380000000000003","103.5","1016.715","22.3","91","NAN","0.0"],
    [1558280,"2026-06-08 20:30:00","10990","1.3869999999999998","104.7","2.5810000000000004","104.9","1017.0319999999999","22.26","91.2","NAN","0.0"],
    [1558281,"2026-06-08 20:40:00","10991","1.317","73.11","2.6460000000000004","77.84","1017.321","22.45","89.8","NAN","0.0"],
    [1558282,"2026-06-08 20:50:00","10992","1.172","66.47","2.7110000000000003","55.24","1017.377","22.57","88.3","NAN","0.0"],
    [1558283,"2026-06-08 21:00:00","10993","1.07","68.55","2.189","72.91","1017.46","22.48","88.7","NAN","0.0"],
    [1558284,"2026-06-08 21:10:00","10994","1.07","74.72","2.156","91.5","1017.471","22.47","88.9","NAN","0.0"],
    [1558285,"2026-06-08 21:20:00","10995","1.36","82.3","2.221","54.49","1017.459","22.39","89.8","NAN","0.0"],
    [1558286,"2026-06-08 21:30:00","10996","1.4969999999999999","78.22","2.254","62.76","1017.69","22.3","90.4","NAN","0.0"],
    [1558287,"2026-06-08 21:40:00","10997","1.8119999999999998","87.5","2.9730000000000003","96.8","1017.763","22.33","89.9","NAN","0.0"],
    [1558288,"2026-06-08 21:50:00","10998","1.49","53.06","2.7769999999999997","31.52","1017.585","22.44","89.5","NAN","0.0"],
    [1558289,"2026-06-08 22:00:00","10999","1.286","48.51","2.483","24.64","1017.685","22.37","89.9","NAN","0.0"],
    [1558290,"2026-06-08 22:10:00","11000","1.5730000000000002","38.01","3.299","28.43","1017.831","22.4","90.5","NAN","0.0"],
    [1558291,"2026-06-08 22:20:00","11001","1.48","71.13","3.136","74.03","1017.807","22.37","91.1","NAN","0.0"],
    [1558292,"2026-06-08 22:30:00","11002","1.252","65.56","2.7110000000000003","96.8","1017.815","22.41","90.4","NAN","0.0"],
    [1558293,"2026-06-08 22:40:00","11003","1.473","48.56","3.365","69.2","1017.7389999999999","22.28","90.3","NAN","0.0"],
    [1558294,"2026-06-08 22:50:00","11004","2.1109999999999998","40.66","3.659","32.05","1017.827","22.13","90.7","NAN","0.0"],
    [1558295,"2026-06-08 23:00:00","11005","2.022","41.61","3.43","14.58","1017.965","22.01","91.1","NAN","0.0"],
    [1558296,"2026-06-08 23:10:00","11006","1.712","44.71","3.7889999999999997","5.319","1017.9830000000001","22.03","91.2","NAN","0.0"],
    [1558297,"2026-06-08 23:20:00","11007","1.6269999999999998","43.88","3.1689999999999996","30.19","1018.194","21.99","91.3","NAN","0.0"],
    [1558298,"2026-06-08 23:30:00","11008","1.1340000000000001","67.81","2.189","68.23","1018.1419999999999","22.05","89.6","NAN","0.0"],
    [1558299,"2026-06-08 23:40:00","11009","1.061","61.99","2.0580000000000003","39.69","1018.0880000000001","22.23","88.5","NAN","0.0"],
    [1558300,"2026-06-08 23:50:00","11010","0.992","46.64","2.123","28.43","1017.938","22.34","87.3","NAN","0.0"],
    [1558301,"2026-06-09 00:00:00","11011","1.359","72.08","2.5810000000000004","105.8","1017.762","22.37","87.7","NAN","0.0"],
    [1558302,"2026-06-09 00:10:00","11012","1.165","83.2","2.189","92.8","1017.704","22.28","89.7","NAN","0.0"],
    [1558303,"2026-06-09 00:20:00","11013","1.796","85.5","3.234","102.0","1017.41","22.12","91.5","NAN","0.0"],
    [1558304,"2026-06-09 00:30:00","11014","2.239","87.6","3.822","90.9","1017.215","21.89","94.4","NAN","0.1"],
    [1558305,"2026-06-09 00:40:00","11015","1.3159999999999998","75.78","2.94","68.76","1017.176","21.77","96.1","NAN","0.1"],
    [1558306,"2026-06-09 00:50:00","11016","0.987","76.57","2.254","65.16","1017.331","21.66","96.7","NAN","0.1"],
    [1558307,"2026-06-09 01:00:00","11017","1.129","58.77","3.005","74.13","1017.422","21.54","96.3","NAN","0.0"],
    [1558308,"2026-06-09 01:10:00","11018","1.284","73.82","2.613","82.3","1017.432","21.48","94.5","NAN","0.0"],
    [1558309,"2026-06-09 01:20:00","11019","1.126","74.0","2.221","75.63","1017.454","21.66","91.2","NAN","0.0"],
    [1558310,"2026-06-09 01:30:00","11020","0.57","71.45","1.4369999999999998","114.1","1017.395","21.78","90.4","NAN","0.0"],
    [1558311,"2026-06-09 01:40:00","11021","0.47200000000000003","59.29","1.568","81.2","1017.332","21.75","89","NAN","0.0"],
    [1558312,"2026-06-09 01:50:00","11022","0.955","74.68","2.123","60.49","1017.3","21.71","87.3","NAN","0.0"],
    [1558313,"2026-06-09 02:00:00","11023","0.997","109.7","1.797","110.0","1017.113","21.82","86.1","NAN","0.0"],
    [1558314,"2026-06-09 02:10:00","11024","0.7390000000000001","74.86","1.699","115.7","1017.0830000000001","21.85","87.4","NAN","0.0"],
    [1558315,"2026-06-09 02:20:00","11025","0.695","71.85","1.5030000000000001","95.4","1017.1160000000001","21.71","87.8","NAN","0.0"],
    [1558316,"2026-06-09 02:30:00","11026","0.368","61.98","1.829","69.05","1017.19","21.68","87.1","NAN","0.0"],
    [1558317,"2026-06-09 02:40:00","11027","0.203","136.7","0.882","133.0","1017.138","21.7","88","NAN","0.0"],
    [1558318,"2026-06-09 02:50:00","11028","0.366","140.9","0.882","160.2","1017.143","21.6","88.3","NAN","0.0"],
    [1558319,"2026-06-09 03:00:00","11029","0.083","166.4","0.588","141.8","1017.24","21.58","88.8","NAN","0.0"],
    [1558320,"2026-06-09 03:10:00","11030","0.39","146.3","1.013","151.1","1017.2719999999999","21.44","88.1","NAN","0.0"],
    [1558321,"2026-06-09 03:20:00","11031","0.39399999999999996","146.3","0.8170000000000001","137.8","1017.332","21.52","85.2","NAN","0.0"],
    [1558322,"2026-06-09 03:30:00","11032","0.24","159.7","0.8170000000000001","146.9","1017.329","21.62","84.7","NAN","0.0"],
    [1558323,"2026-06-09 03:40:00","11033","0.001","140.0","0.163","140.0","1017.329","21.54","85.3","NAN","0.0"],
    [1558324,"2026-06-09 03:50:00","11034","0.252","190.8","0.653","198.2","1017.327","21.48","86.2","NAN","0.0"],
    [1558325,"2026-06-09 04:00:00","11035","0.622","197.3","1.3719999999999999","215.0","1017.325","21.36","88.2","NAN","0.0"],
    [1558326,"2026-06-09 04:10:00","11036","0.5820000000000001","193.4","1.274","194.7","1017.325","21.21","88.6","NAN","0.0"],
    [1558327,"2026-06-09 04:20:00","11037","0.7490000000000001","196.5","1.209","198.7","1017.329","21.17","88.4","NAN","0.0"],
    [1558328,"2026-06-09 04:30:00","11038","0.65","194.9","1.143","201.7","1017.329","21.18","88.6","NAN","0.0"],
    [1558329,"2026-06-09 04:40:00","11039","0.684","195.4","1.274","204.6","1017.33","21.22","88.6","NAN","0.0"],
    [1558330,"2026-06-09 04:50:00","11040","0.665","203.2","1.7309999999999999","209.9","1017.331","21.39","87.8","NAN","0.0"],
    [1558331,"2026-06-09 05:00:00","11041","1.026","189.8","2.287","191.5","1017.408","21.63","86.3","NAN","0.0"],
    [1558332,"2026-06-09 05:10:00","11042","1.084","198.4","2.385","197.4","1017.554","21.78","85.5","NAN","0.0"],
    [1558333,"2026-06-09 05:20:00","11043","1.003","231.4","2.6460000000000004","231.7","1017.544","22.07","83.2","NAN","0.0"],
    [1558334,"2026-06-09 05:30:00","11044","0.851","212.5","2.319","234.6","1017.551","22.17","82.8","NAN","0.0"],
    [1558335,"2026-06-09 05:40:00","11045","0.9940000000000001","240.2","2.483","265.7","1017.6469999999999","22.12","82.7","NAN","0.0"],
    [1558336,"2026-06-09 05:50:00","11046","1.416","242.9","3.136","248.3","1017.6560000000001","22.27","81.2","NAN","0.0"],
    [1558337,"2026-06-09 06:00:00","11047","0.895","260.4","2.7769999999999997","236.3","1017.671","22.41","80.4","NAN","0.0"],
    [1558338,"2026-06-09 06:10:00","11048","1.069","212.8","3.0380000000000003","227.0","1017.706","22.69","78.73","NAN","0.0"],
    [1558339,"2026-06-09 06:20:00","11049","1.063","234.2","2.385","226.1","1017.804","22.81","78.26","NAN","0.0"],
    [1558340,"2026-06-09 06:30:00","11050","1.834","243.5","3.887","228.7","1017.931","23.03","76.38","NAN","0.0"],
    [1558341,"2026-06-09 06:40:00","11051","1.494","238.3","3.332","228.8","1017.998","23.02","75.77","NAN","0.0"],
    [1558342,"2026-06-09 06:50:00","11052","1.114","230.7","3.234","200.6","1017.9960000000001","23.31","74.14","NAN","0.0"],
    [1558343,"2026-06-09 07:00:00","11053","1.36","237.0","3.397","230.5","1018.002","23.22","74.3","NAN","0.0"],
    [1558344,"2026-06-09 07:10:00","11054","1.149","246.9","3.6910000000000003","240.7","1018.0039999999999","23.52","73.52","NAN","0.0"],
    [1558345,"2026-06-09 07:20:00","11055","1.517","247.6","3.299","237.6","1018.084","23.84","72.36","NAN","0.0"],
    [1558346,"2026-06-09 07:30:00","11056","1.456","237.4","3.071","252.6","1018.096","23.64","73.73","NAN","0.0"],
    [1558347,"2026-06-09 07:40:00","11057","1.527","217.0","3.7889999999999997","222.8","1018.043","23.77","73.67","NAN","0.0"],
    [1558348,"2026-06-09 07:50:00","11058","1.324","239.4","3.136","242.8","1018.1360000000001","23.89","73.1","NAN","0.0"],
    [1558349,"2026-06-09 08:00:00","11059","1.235","211.5","2.7110000000000003","227.1","1018.166","23.68","74.1","NAN","0.0"],
    [1558350,"2026-06-09 08:10:00","11060","1.168","224.3","3.332","200.2","1018.107","24.04","72.71","NAN","0.0"],
    [1558351,"2026-06-09 08:20:00","11061","1.335","222.0","3.234","237.9","1018.0939999999999","24.29","71.58","NAN","0.0"],
    [1558352,"2026-06-09 08:30:00","11062","1.2429999999999999","223.0","3.299","220.0","1018.113","24.65","69.97","NAN","0.0"],
    [1558353,"2026-06-09 08:40:00","11063","1.6869999999999998","221.5","4.769","223.6","1018.1489999999999","24.47","70.3","NAN","0.0"],
    [1558354,"2026-06-09 08:50:00","11064","1.5390000000000001","209.4","3.397","177.6","1018.14","24.71","69.66","NAN","0.0"],
    [1558355,"2026-06-09 09:00:00","11065","1.9380000000000002","199.3","3.528","199.3","1018.166","24.35","71.88","NAN","0.0"],
    [1558356,"2026-06-09 09:10:00","11066","2.121","193.7","4.606","175.9","1018.135","24.53","71.78","NAN","0.0"],
    [1558357,"2026-06-09 09:20:00","11067","2.504","178.7","4.2139999999999995","172.8","1018.086","24.12","74.04","NAN","0.0"],
    [1558358,"2026-06-09 09:30:00","11068","2.155","182.1","3.855","180.0","1018.063","23.9","75.65","NAN","0.0"],
    [1558359,"2026-06-09 09:40:00","11069","2.0140000000000002","190.0","3.528","174.0","1018.063","24.33","73.68","NAN","0.0"],
    [1558360,"2026-06-09 09:50:00","11070","2.082","185.1","4.181","163.8","1018.0010000000001","24.75","71.5","NAN","0.0"],
    [1558361,"2026-06-09 10:00:00","11071","2.176","183.1","3.7569999999999997","169.3","1017.9639999999999","24.68","71.75","NAN","0.0"],
    [1558362,"2026-06-09 10:10:00","11072","1.577","214.0","4.1160000000000005","220.2","1017.939","25.09","69.9","NAN","0.0"],
    [1558363,"2026-06-09 10:20:00","11073","1.393","210.3","3.299","183.2","1017.934","26.18","65.54","NAN","0.0"],
    [1558364,"2026-06-09 10:30:00","11074","1.676","202.2","4.083","172.1","1017.926","26.14","65.85","NAN","0.0"],
    [1558365,"2026-06-09 10:40:00","11075","1.7530000000000001","204.4","4.867","176.4","1017.8589999999999","26.4","64.44","NAN","0.0"],
    [1558366,"2026-06-09 10:50:00","11076","2.109","196.3","4.312","171.6","1017.7489999999999","26.3","64.14","NAN","0.0"],
    [1558367,"2026-06-09 11:00:00","11077","3.142","171.5","4.867","179.1","1017.689","25.74","66.29","NAN","0.0"],
    [1558368,"2026-06-09 11:10:00","11078","2.842","175.7","4.4430000000000005","174.4","1017.637","25.17","69.64","NAN","0.0"],
    [1558369,"2026-06-09 11:20:00","11079","2.1319999999999997","189.7","4.051","187.5","1017.572","25.83","66.42","NAN","0.0"],
    [1558370,"2026-06-09 11:30:00","11080","2.372","184.0","4.051","189.7","1017.487","26.14","64.76","NAN","0.0"],
    [1558371,"2026-06-09 11:40:00","11081","2.142","178.9","3.7569999999999997","171.2","1017.39","26.17","64.24","NAN","0.0"],
    [1558372,"2026-06-09 11:50:00","11082","2.438","177.9","4.051","167.4","1017.308","26.14","63.7","NAN","0.0"],
    [1558373,"2026-06-09 12:00:00","11083","2.421","172.7","3.659","159.9","1017.2410000000001","25.98","64.49","NAN","0.0"],
    [1558374,"2026-06-09 12:10:00","11084","2.798","168.6","3.92","149.5","1017.191","25.76","65.66","NAN","0.0"],
    [1558375,"2026-06-09 12:20:00","11085","2.7110000000000003","171.5","4.1160000000000005","173.9","1017.191","25.89","64.28","NAN","0.0"],
    [1558376,"2026-06-09 12:30:00","11086","2.8569999999999998","174.0","4.606","181.8","1017.189","25.6","66.14","NAN","0.0"],
    [1558377,"2026-06-09 12:40:00","11087","2.45","180.5","4.312","154.1","1017.1339999999999","25.98","64.5","NAN","0.0"],
    [1558378,"2026-06-09 12:50:00","11088","2.8739999999999997","174.0","5.2589999999999995","176.2","1017.0419999999999","25.69","65.89","NAN","0.0"],
    [1558379,"2026-06-09 13:00:00","11089","3.016","176.0","4.802","173.8","1016.945","25.46","66.3","NAN","0.0"],
    [1558380,"2026-06-09 13:10:00","11090","2.955","176.0","4.704","161.3","1016.942","25.63","64.11","NAN","0.0"],
    [1558381,"2026-06-09 13:20:00","11091","3.053","167.5","4.867","169.7","1016.94","25.2","67.68","NAN","0.0"],
    [1558382,"2026-06-09 13:30:00","11092","2.57","173.0","3.7889999999999997","161.2","1016.941","25.38","67.34","NAN","0.0"],
    [1558383,"2026-06-09 13:40:00","11093","3.28","169.1","4.933","169.4","1016.93","25.16","69.14","NAN","0.0"],
    [1558384,"2026-06-09 13:50:00","11094","4.383","171.8","6.664","176.3","1016.936","23.93","77.33","NAN","0.0"],
    [1558385,"2026-06-09 14:00:00","11095","4.371","181.3","7.415","170.9","1016.938","23.26","81.5","NAN","0.0"],
    [1558386,"2026-06-09 14:10:00","11096","3.647","185.6","6.664","177.4","1016.952","23.49","79.87","NAN","0.0"],
    [1558387,"2026-06-09 14:20:00","11097","3.55","183.6","5.815","180.8","1016.9760000000001","23.69","78.83","NAN","0.0"],
    [1558388,"2026-06-09 14:30:00","11098","3.9339999999999997","178.4","6.566","182.3","1016.8919999999999","23.5","79.06","NAN","0.0"],
    [1558389,"2026-06-09 14:40:00","11099","3.431","174.6","5.684","179.7","1016.816","23.47","79.18","NAN","0.0"],
    [1558390,"2026-06-09 14:50:00","11100","3.577","174.9","5.847","181.3","1016.83","22.95","81.2","NAN","0.0"],
    [1558391,"2026-06-09 15:00:00","11101","3.1239999999999997","175.6","5.292000000000001","178.7","1016.8889999999999","23.03","81","NAN","0.0"],
    [1558392,"2026-06-09 15:10:00","11102","2.927","177.5","4.802","173.1","1016.953","23.02","83.2","NAN","0.0"],
    [1558393,"2026-06-09 15:20:00","11103","3.069","178.8","4.998","178.4","1017.002","22.82","83.4","NAN","0.0"],
    [1558394,"2026-06-09 15:30:00","11104","2.178","165.8","3.7569999999999997","169.1","1017.013","22.96","83","NAN","0.0"],
    [1558395,"2026-06-09 15:40:00","11105","2.36","170.7","4.312","178.6","1017.013","22.85","82.1","NAN","0.0"],
    [1558396,"2026-06-09 15:50:00","11106","2.016","161.2","3.397","165.9","1016.9839999999999","23.17","79.11","NAN","0.0"],
    [1558397,"2026-06-09 16:00:00","11107","2.084","148.0","3.5610000000000004","178.1","1016.7810000000001","23.1","77.07","NAN","0.0"],
    [1558398,"2026-06-09 16:10:00","11108","2.037","187.0","3.463","195.3","1016.7560000000001","23.11","76","NAN","0.0"],
    [1558399,"2026-06-09 16:20:00","11109","2.395","188.8","3.887","183.3","1016.595","22.74","77.07","NAN","0.0"],
    [1558400,"2026-06-09 16:30:00","11110","2.1590000000000003","186.0","4.083","198.6","1016.518","22.7","76.39","NAN","0.0"],
    [1558401,"2026-06-09 16:40:00","11111","2.26","185.6","3.7889999999999997","176.2","1016.512","22.6","77.13","NAN","0.0"],
    [1558402,"2026-06-09 16:50:00","11112","2.439","184.0","3.855","158.7","1016.497","22.54","76.86","NAN","0.0"],
    [1558403,"2026-06-09 17:00:00","11113","2.5669999999999997","184.0","4.2139999999999995","177.8","1016.385","22.32","77.72","NAN","0.0"],
    [1558404,"2026-06-09 17:10:00","11114","2.245","188.3","3.7889999999999997","186.2","1016.347","22.37","77.87","NAN","0.0"],
    [1558405,"2026-06-09 17:20:00","11115","2.44","183.0","4.1160000000000005","174.3","1016.2739999999999","22.32","77.93","NAN","0.0"],
    [1558406,"2026-06-09 17:30:00","11116","2.228","180.5","3.5610000000000004","160.6","1016.289","22.14","78.8","NAN","0.0"],
    [1558407,"2026-06-09 17:40:00","11117","2.26","177.3","3.528","180.3","1016.393","22.03","79.08","NAN","0.0"],
    [1558408,"2026-06-09 17:50:00","11118","2.517","182.7","4.1160000000000005","184.0","1016.426","21.87","79.46","NAN","0.0"],
    [1558409,"2026-06-09 18:00:00","11119","2.27","178.2","3.6910000000000003","174.9","1016.423","21.92","78.93","NAN","0.0"],
    [1558410,"2026-06-09 18:10:00","11120","2.237","179.9","3.299","177.0","1016.3510000000001","21.91","78.51","NAN","0.0"],
    [1558411,"2026-06-09 18:20:00","11121","2.114","178.3","3.7889999999999997","181.1","1016.293","21.81","79.04","NAN","0.0"],
    [1558412,"2026-06-09 18:30:00","11122","1.4269999999999998","168.5","2.9730000000000003","168.6","1016.302","21.79","78.77","NAN","0.0"],
    [1558413,"2026-06-09 18:40:00","11123","2.13","178.0","3.299","188.5","1016.322","21.61","79.49","NAN","0.0"],
    [1558414,"2026-06-09 18:50:00","11124","1.8019999999999998","174.7","3.136","187.4","1016.4639999999999","21.64","78.98","NAN","0.0"],
    [1558415,"2026-06-09 19:00:00","11125","1.5119999999999998","186.3","2.352","170.6","1016.5889999999999","21.68","78.11","NAN","0.0"],
    [1558416,"2026-06-09 19:10:00","11126","1.91","176.4","2.907","174.7","1016.658","21.58","78.46","NAN","0.0"],
    [1558417,"2026-06-09 19:20:00","11127","1.6969999999999998","167.8","2.7439999999999998","176.8","1016.701","21.57","78.9","NAN","0.0"],
    [1558418,"2026-06-09 19:30:00","11128","1.859","167.6","3.234","155.0","1016.7330000000001","21.63","78.27","NAN","0.0"],
    [1558419,"2026-06-09 19:40:00","11129","1.558","183.4","2.7769999999999997","175.5","1016.83","21.52","78.42","NAN","0.0"],
    [1558420,"2026-06-09 19:50:00","11130","1.7719999999999998","158.2","3.005","158.7","1016.7260000000001","21.52","77.9","NAN","0.0"],
    [1558421,"2026-06-09 20:00:00","11131","0.934","190.7","1.9269999999999998","158.1","1016.819","21.62","77.26","NAN","0.0"],
    [1558422,"2026-06-09 20:10:00","11132","1.389","167.0","2.189","160.8","1016.7819999999999","21.57","76.87","NAN","0.0"],
    [1558423,"2026-06-09 20:20:00","11133","1.274","184.1","2.221","176.6","1016.745","21.52","77.56","NAN","0.0"],
    [1558424,"2026-06-09 20:30:00","11134","1.361","172.0","2.0909999999999997","171.5","1016.831","21.52","77.67","NAN","0.0"],
    [1558425,"2026-06-09 20:40:00","11135","1.065","174.3","1.764","169.7","1016.9760000000001","21.5","77.71","NAN","0.0"],
    [1558426,"2026-06-09 20:50:00","11136","1.168","192.3","2.0580000000000003","202.0","1017.081","21.49","77.32","NAN","0.0"],
    [1558427,"2026-06-09 21:00:00","11137","1.0190000000000001","212.8","2.319","250.4","1017.0830000000001","21.61","77.42","NAN","0.0"],
    [1558428,"2026-06-09 21:10:00","11138","1.225","196.7","2.189","205.7","1016.993","21.7","77","NAN","0.0"],
    [1558429,"2026-06-09 21:20:00","11139","0.877","204.6","1.7309999999999999","195.0","1017.003","21.59","78.06","NAN","0.0"],
    [1558430,"2026-06-09 21:30:00","11140","0.8079999999999999","206.8","2.221","224.6","1016.9889999999999","21.62","77.69","NAN","0.0"],
    [1558431,"2026-06-09 21:40:00","11141","0.9329999999999999","209.9","1.895","257.4","1017.0830000000001","21.62","78.45","NAN","0.0"],
    [1558432,"2026-06-09 21:50:00","11142","0.7759999999999999","188.4","1.5030000000000001","203.2","1017.0830000000001","21.7","78.09","NAN","0.0"],
    [1558433,"2026-06-09 22:00:00","11143","0.53","219.8","1.9269999999999998","237.1","1017.08","21.56","78.61","NAN","0.0"],
    [1558434,"2026-06-09 22:10:00","11144","0.6679999999999999","214.2","2.189","214.6","1017.0160000000001","21.83","77.3","NAN","0.0"],
    [1558435,"2026-06-09 22:20:00","11145","1.0","217.4","2.613","236.8","1016.962","21.82","77.34","NAN","0.0"],
    [1558436,"2026-06-09 22:30:00","11146","0.51","212.4","1.9269999999999998","202.9","1016.904","21.68","78.54","NAN","0.0"],
    [1558437,"2026-06-09 22:40:00","11147","1.107","227.3","3.136","250.3","1016.9910000000001","21.72","78.12","NAN","0.0"],
    [1558438,"2026-06-09 22:50:00","11148","1.121","228.8","2.7439999999999998","219.9","1017.0160000000001","21.71","77.66","NAN","0.0"],
    [1558439,"2026-06-09 23:00:00","11149","1.068","254.7","2.613","292.3","1017.057","21.81","77.28","NAN","0.0"],
    [1558440,"2026-06-09 23:10:00","11150","0.7609999999999999","233.9","2.0580000000000003","242.5","1017.193","22.01","76.61","NAN","0.0"],
    [1558441,"2026-06-09 23:20:00","11151","1.092","275.3","2.45","254.6","1017.278","22.03","76.25","NAN","0.0"],
    [1558442,"2026-06-09 23:30:00","11152","1.103","241.7","2.6460000000000004","241.0","1017.227","22.02","76.2","NAN","0.0"],
    [1558443,"2026-06-09 23:40:00","11153","0.5760000000000001","237.9","2.025","297.6","1017.0830000000001","22.06","75.94","NAN","0.0"],
    [1558444,"2026-06-09 23:50:00","11154","0.882","239.2","2.319","239.4","1017.1239999999999","21.86","77.24","NAN","0.0"],
    [1558445,"2026-06-10 00:00:00","11155","1.037","255.7","2.45","237.9","1017.193","21.98","76.27","NAN","0.0"],
    [1558446,"2026-06-10 00:10:00","11156","1.234","257.2","3.0380000000000003","258.7","1017.14","22.03","75.82","NAN","0.0"],
    [1558447,"2026-06-10 00:20:00","11157","1.058","255.6","2.613","256.2","1017.285","21.98","75.72","NAN","0.0"],
    [1558448,"2026-06-10 00:30:00","11158","1.013","259.0","2.515","250.3","1017.252","22.01","75.03","NAN","0.0"],
    [1558449,"2026-06-10 00:40:00","11159","1.465","238.3","3.7239999999999998","238.4","1017.155","21.94","74.98","NAN","0.0"],
    [1558450,"2026-06-10 00:50:00","11160","1.3130000000000002","244.7","2.9730000000000003","236.4","1017.1060000000001","21.86","74.93","NAN","0.0"],
    [1558451,"2026-06-10 01:00:00","11161","1.4709999999999999","272.8","3.234","258.3","1017.178","22.01","73.73","NAN","0.0"],
    [1558452,"2026-06-10 01:10:00","11162","1.0979999999999999","274.1","2.7110000000000003","285.8","1017.081","22.14","72.96","NAN","0.0"],
    [1558453,"2026-06-10 01:20:00","11163","0.929","281.2","2.156","231.6","1017.078","22.14","72.51","NAN","0.0"],
    [1558454,"2026-06-10 01:30:00","11164","0.537","282.8","1.9269999999999998","274.6","1017.047","22.23","71.97","NAN","0.0"],
    [1558455,"2026-06-10 01:40:00","11165","0.514","318.5","1.764","281.1","1016.941","22.37","71.4","NAN","0.0"],
    [1558456,"2026-06-10 01:50:00","11166","0.8859999999999999","289.7","2.0909999999999997","322.1","1016.825","22.06","72.68","NAN","0.0"],
    [1558457,"2026-06-10 02:00:00","11167","1.048","277.9","2.842","269.7","1016.831","22.11","72.3","NAN","0.0"],
    [1558458,"2026-06-10 02:10:00","11168","1.053","285.7","2.352","263.1","1016.817","22.07","72.22","NAN","0.0"],
    [1558459,"2026-06-10 02:20:00","11169","0.966","269.8","2.417","262.0","1016.811","22.13","71.67","NAN","0.0"],
    [1558460,"2026-06-10 02:30:00","11170","0.725","248.4","1.568","230.9","1016.659","22.22","71.45","NAN","0.0"],
    [1558461,"2026-06-10 02:40:00","11171","1.097","242.4","2.483","239.1","1016.4989999999999","22.13","72.2","NAN","0.0"],
    [1558462,"2026-06-10 02:50:00","11172","1.125","248.7","2.7769999999999997","264.1","1016.428","22.11","72.42","NAN","0.0"],
    [1558463,"2026-06-10 03:00:00","11173","0.966","255.0","2.189","248.8","1016.444","22.03","73.05","NAN","0.0"],
    [1558464,"2026-06-10 03:10:00","11174","0.5820000000000001","252.3","2.0909999999999997","313.3","1016.3660000000001","22.1","73.1","NAN","0.0"],
    [1558465,"2026-06-10 03:20:00","11175","1.03","233.4","2.94","237.2","1016.448","21.97","73.69","NAN","0.0"],
    [1558466,"2026-06-10 03:30:00","11176","1.082","243.7","2.221","247.8","1016.442","22.03","73.01","NAN","0.0"],
    [1558467,"2026-06-10 03:40:00","11177","0.772","255.8","1.993","279.7","1016.422","22.12","72.4","NAN","0.0"],
    [1558468,"2026-06-10 03:50:00","11178","0.652","254.3","2.123","309.3","1016.424","22.23","71.68","NAN","0.0"],
    [1558469,"2026-06-10 04:00:00","11179","0.627","261.5","2.123","284.4","1016.426","22.23","71.56","NAN","0.0"],
    [1558470,"2026-06-10 04:10:00","11180","1.061","292.9","2.7439999999999998","290.2","1016.437","22.18","70.53","NAN","0.0"],
    [1558471,"2026-06-10 04:20:00","11181","0.828","265.4","2.0580000000000003","251.1","1016.571","22.28","69.69","NAN","0.0"],
    [1558472,"2026-06-10 04:30:00","11182","0.7659999999999999","263.5","2.123","313.8","1016.5939999999999","22.33","69.11","NAN","0.0"],
    [1558473,"2026-06-10 04:40:00","11183","0.524","263.4","1.339","255.7","1016.679","22.32","68.38","NAN","0.0"],
    [1558474,"2026-06-10 04:50:00","11184","0.879","250.6","2.385","267.9","1016.581","22.31","66.76","NAN","0.0"],
    [1558475,"2026-06-10 05:00:00","11185","0.39899999999999997","266.6","1.3719999999999999","297.5","1016.633","22.53","65.06","NAN","0.0"],
    [1558476,"2026-06-10 05:10:00","11186","0.415","250.7","1.535","213.1","1016.712","22.64","64.42","NAN","0.0"],
    [1558477,"2026-06-10 05:20:00","11187","0.919","245.2","2.319","255.5","1016.806","22.76","63.03","NAN","0.0"],
    [1558478,"2026-06-10 05:30:00","11188","0.9690000000000001","239.1","2.417","224.3","1016.942","22.68","61.76","NAN","0.0"],
    [1558479,"2026-06-10 05:40:00","11189","1.262","242.5","3.7239999999999998","227.5","1017.038","22.81","60.53","NAN","0.0"],
    [1558480,"2026-06-10 05:50:00","11190","0.6779999999999999","210.4","1.5030000000000001","234.9","1017.115","22.86","62.37","NAN","0.0"],
    [1558481,"2026-06-10 06:00:00","11191","1.002","206.7","2.123","202.0","1017.2710000000001","22.57","63.27","NAN","0.0"],
    [1558482,"2026-06-10 06:10:00","11192","0.879","210.3","1.633","214.6","1017.295","22.55","63.3","NAN","0.0"],
    [1558483,"2026-06-10 06:20:00","11193","0.9940000000000001","216.2","2.221","203.2","1017.404","22.65","62.11","NAN","0.0"],
    [1558484,"2026-06-10 06:30:00","11194","0.97","229.2","3.136","229.7","1017.4989999999999","22.98","60.48","NAN","0.0"],
    [1558485,"2026-06-10 06:40:00","11195","1.1440000000000001","279.2","3.136","245.1","1017.613","23.03","57.76","NAN","0.0"],
    [1558486,"2026-06-10 06:50:00","11196","0.5589999999999999","15.89","1.699","338.8","1017.7610000000001","23.06","57.49","NAN","0.0"],
    [1558487,"2026-06-10 07:00:00","11197","2.42","106.9","5.325","107.5","1017.8939999999999","22.01","69.35","NAN","0.0"],
    [1558488,"2026-06-10 07:10:00","11198","2.26","147.1","4.149","168.5","1018.058","21.12","77.62","NAN","0.0"],
    [1558489,"2026-06-10 07:20:00","11199","2.279","145.1","4.1160000000000005","169.9","1018.194","20.97","79.88","NAN","0.0"],
    [1558490,"2026-06-10 07:30:00","11200","2.258","124.0","4.018","119.7","1018.3530000000001","20.83","80.8","NAN","0.0"],
    [1558491,"2026-06-10 07:40:00","11201","2.2","124.4","4.737","121.9","1018.454","20.66","80.8","NAN","0.0"],
    [1558492,"2026-06-10 07:50:00","11202","2.204","125.4","3.659","115.2","1018.5269999999999","20.75","79.2","NAN","0.0"],
    [1558493,"2026-06-10 08:00:00","11203","2.3480000000000003","101.4","4.345","99.8","1018.578","20.78","78.39","NAN","0.0"],
    [1558494,"2026-06-10 08:10:00","11204","2.115","100.5","4.083","106.3","1018.7080000000001","20.75","76.93","NAN","0.0"],
    [1558495,"2026-06-10 08:20:00","11205","1.983","105.1","3.659","102.4","1018.801","20.61","75.94","NAN","0.0"],
    [1558496,"2026-06-10 08:30:00","11206","2.5469999999999997","102.2","4.2139999999999995","100.3","1018.826","20.41","75.64","NAN","0.0"],
    [1558497,"2026-06-10 08:40:00","11207","2.392","104.7","4.606","107.8","1018.959","20.36","73.85","NAN","0.0"],
    [1558498,"2026-06-10 08:50:00","11208","2.4819999999999998","97.3","3.9530000000000003","106.3","1019.052","20.26","71.95","NAN","0.0"],
    [1558499,"2026-06-10 09:00:00","11209","2.3890000000000002","104.6","4.149","107.1","1019.066","20.2","72.92","NAN","0.0"],
    [1558500,"2026-06-10 09:10:00","11210","1.7","94.1","2.9730000000000003","98.0","1019.138","20.37","72.87","NAN","0.0"],
    [1558501,"2026-06-10 09:20:00","11211","1.54","102.4","3.495","111.6","1019.173","20.39","72.77","NAN","0.0"],
    [1558502,"2026-06-10 09:30:00","11212","1.295","111.0","2.45","144.0","1019.2760000000001","20.46","72.65","NAN","0.0"],
    [1558503,"2026-06-10 09:40:00","11213","1.429","122.7","2.679","95.0","1019.322","20.49","71.73","NAN","0.0"],
    [1558504,"2026-06-10 09:50:00","11214","1.597","141.6","2.7439999999999998","174.5","1019.329","20.44","71.73","NAN","0.0"],
    [1558505,"2026-06-10 10:00:00","11215","1.74","128.0","3.103","120.5","1019.419","20.43","72.01","NAN","0.0"],
    [1558506,"2026-06-10 10:10:00","11216","1.636","143.9","2.679","132.1","1019.434","20.64","71.15","NAN","0.0"],
    [1558507,"2026-06-10 10:20:00","11217","2.088","133.5","3.103","97.0","1019.415","20.37","71.27","NAN","0.0"],
    [1558508,"2026-06-10 10:30:00","11218","2.0469999999999997","124.3","3.528","131.6","1019.3530000000001","20.39","70.51","NAN","0.0"],
    [1558509,"2026-06-10 10:40:00","11219","2.283","133.9","4.083","130.8","1019.293","20.43","70.42","NAN","0.0"],
    [1558510,"2026-06-10 10:50:00","11220","2.516","123.8","4.051","100.9","1019.289","20.58","69.03","NAN","0.0"],
    [1558511,"2026-06-10 11:00:00","11221","2.574","126.9","4.638999999999999","112.7","1019.2639999999999","20.59","68.4","NAN","0.0"],
    [1558512,"2026-06-10 11:10:00","11222","2.48","132.7","4.606","127.5","1019.2669999999999","20.6","68.11","NAN","0.0"],
    [1558513,"2026-06-10 11:20:00","11223","2.595","130.8","4.41","111.4","1019.26","20.72","68.33","NAN","0.0"],
    [1558514,"2026-06-10 11:30:00","11224","2.6430000000000002","141.5","4.769","116.2","1019.2660000000001","20.94","67.36","NAN","0.0"],
    [1558515,"2026-06-10 11:40:00","11225","2.189","137.2","3.659","173.0","1019.25","21.28","66.86","NAN","0.0"],
    [1558516,"2026-06-10 11:50:00","11226","2.293","158.1","3.985","151.0","1019.138","21.37","66.49","NAN","0.0"],
    [1558517,"2026-06-10 12:00:00","11227","2.113","143.3","3.985","131.7","1019.0","21.33","66.93","NAN","0.0"],
    [1558518,"2026-06-10 12:10:00","11228","2.431","154.0","4.638999999999999","152.4","1018.875","21.48","66.82","NAN","0.0"],
    [1558519,"2026-06-10 12:20:00","11229","2.427","146.4","4.345","147.6","1018.7639999999999","21.56","67.02","NAN","0.0"],
    [1558520,"2026-06-10 12:30:00","11230","2.707","150.3","4.541","148.0","1018.814","21.26","67.57","NAN","0.0"],
    [1558521,"2026-06-10 12:40:00","11231","2.3209999999999997","152.7","3.6260000000000003","112.4","1018.8989999999999","21.65","64.92","NAN","0.0"],
    [1558522,"2026-06-10 12:50:00","11232","2.679","165.0","5.063","161.0","1018.993","21.58","65.04","NAN","0.0"],
    [1558523,"2026-06-10 13:00:00","11233","2.336","169.3","3.822","168.4","1018.922","21.57","66","NAN","0.0"],
    [1558524,"2026-06-10 13:10:00","11234","2.471","150.8","5.1610000000000005","153.4","1018.89","21.35","67.35","NAN","0.0"],
    [1558525,"2026-06-10 13:20:00","11235","2.512","159.5","4.638999999999999","153.2","1018.8580000000001","21.37","66.83","NAN","0.0"],
    [1558526,"2026-06-10 13:30:00","11236","2.655","156.2","4.41","199.8","1018.86","21.31","66.66","NAN","0.0"],
    [1558527,"2026-06-10 13:40:00","11237","3.09","181.8","5.063","178.5","1018.863","21.53","66.09","NAN","0.0"],
    [1558528,"2026-06-10 13:50:00","11238","2.818","175.9","4.704","169.7","1018.928","21.68","65.89","NAN","0.0"],
    [1558529,"2026-06-10 14:00:00","11239","3.0260000000000002","173.5","5.031000000000001","162.9","1018.865","21.53","66.07","NAN","0.0"],
    [1558530,"2026-06-10 14:10:00","11240","2.7680000000000002","175.1","4.867","183.5","1018.809","21.55","66.7","NAN","0.0"],
    [1558531,"2026-06-10 14:20:00","11241","2.455","180.3","4.181","187.5","1018.8610000000001","21.75","66.87","NAN","0.0"],
    [1558532,"2026-06-10 14:30:00","11242","2.695","176.3","4.606","190.3","1018.847","21.53","67.71","NAN","0.0"],
    [1558533,"2026-06-10 14:40:00","11243","2.847","162.2","5.292000000000001","155.5","1018.8380000000001","21.52","67.66","NAN","0.0"],
    [1558534,"2026-06-10 14:50:00","11244","2.573","147.3","4.573","152.7","1018.855","21.87","66.25","NAN","0.0"],
    [1558535,"2026-06-10 15:00:00","11245","2.42","165.6","3.9530000000000003","191.4","1018.9989999999999","21.7","66.55","NAN","0.0"],
    [1558536,"2026-06-10 15:10:00","11246","2.5869999999999997","147.0","4.671","162.1","1019.003","21.64","66.22","NAN","0.0"],
    [1558537,"2026-06-10 15:20:00","11247","2.827","145.1","5.194","152.0","1018.977","21.63","66.34","NAN","0.0"],
    [1558538,"2026-06-10 15:30:00","11248","2.6910000000000003","146.9","5.227","161.9","1018.8539999999999","21.58","65.83","NAN","0.0"],
    [1558539,"2026-06-10 15:40:00","11249","2.659","156.7","4.279","157.4","1018.7460000000001","21.29","67","NAN","0.0"],
    [1558540,"2026-06-10 15:50:00","11250","2.475","142.9","5.455","109.1","1018.7560000000001","21.15","67.31","NAN","0.0"],
    [1558541,"2026-06-10 16:00:00","11251","2.609","147.5","4.508","127.9","1018.758","21.34","66.5","NAN","0.0"],
    [1558542,"2026-06-10 16:10:00","11252","2.525","132.7","3.7569999999999997","103.0","1018.745","21.4","66.35","NAN","0.0"],
    [1558543,"2026-06-10 16:20:00","11253","2.68","126.5","4.4430000000000005","138.4","1018.757","21.13","66.91","NAN","0.0"],
    [1558544,"2026-06-10 16:30:00","11254","2.551","127.3","4.508","130.9","1018.758","21.06","66.46","NAN","0.0"],
    [1558545,"2026-06-10 16:40:00","11255","2.7310000000000003","124.8","4.149","115.1","1018.71","20.77","67.74","NAN","0.0"],
    [1558546,"2026-06-10 16:50:00","11256","2.405","134.9","4.2139999999999995","114.9","1018.7660000000001","20.96","66.56","NAN","0.0"],
    [1558547,"2026-06-10 17:00:00","11257","2.319","131.5","4.279","136.8","1018.8919999999999","21.09","65.42","NAN","0.0"],
    [1558548,"2026-06-10 17:10:00","11258","2.396","138.6","3.7889999999999997","115.4","1018.9960000000001","21.18","65.29","NAN","0.0"],
    [1558549,"2026-06-10 17:20:00","11259","2.2","132.7","4.181","110.9","1019.0269999999999","20.94","65.56","NAN","0.0"],
    [1558550,"2026-06-10 17:30:00","11260","2.2159999999999997","131.4","3.7239999999999998","109.5","1019.1339999999999","20.83","65.94","NAN","0.0"],
    [1558551,"2026-06-10 17:40:00","11261","2.3680000000000003","151.6","4.508","141.1","1019.25","20.75","66.07","NAN","0.0"],
    [1558552,"2026-06-10 17:50:00","11262","1.815","149.2","3.7569999999999997","142.5","1019.278","20.69","66.03","NAN","0.0"],
    [1558553,"2026-06-10 18:00:00","11263","1.876","129.3","3.103","127.0","1019.301","20.81","65.6","NAN","0.0"],
    [1558554,"2026-06-10 18:10:00","11264","1.946","146.9","3.299","110.6","1019.3910000000001","20.83","65.5","NAN","0.0"],
    [1558555,"2026-06-10 18:20:00","11265","1.544","150.5","2.875","151.4","1019.459","20.85","65.11","NAN","0.0"],
    [1558556,"2026-06-10 18:30:00","11266","1.425","139.0","2.287","150.5","1019.541","20.8","65.51","NAN","0.0"],
    [1558557,"2026-06-10 18:40:00","11267","1.609","148.2","2.6460000000000004","109.4","1019.63","20.71","65.32","NAN","0.0"],
    [1558558,"2026-06-10 18:50:00","11268","1.338","149.4","2.483","159.2","1019.753","20.66","65.19","NAN","0.0"],
    [1558559,"2026-06-10 19:00:00","11269","1.235","164.8","2.189","140.5","1019.812","20.67","65.47","NAN","0.0"],
    [1558560,"2026-06-10 19:10:00","11270","1.571","151.4","2.907","195.5","1019.819","20.61","65.53","NAN","0.0"],
    [1558561,"2026-06-10 19:20:00","11271","1.5419999999999998","155.2","2.7439999999999998","161.0","1019.824","20.63","65.2","NAN","0.0"],
    [1558562,"2026-06-10 19:30:00","11272","1.33","144.8","2.45","157.9","1019.809","20.58","65.41","NAN","0.0"],
    [1558563,"2026-06-10 19:40:00","11273","1.452","168.8","2.515","181.1","1019.819","20.62","65.14","NAN","0.0"],
    [1558564,"2026-06-10 19:50:00","11274","1.013","186.5","2.123","183.2","1019.9060000000001","20.51","66.12","NAN","0.0"],
    [1558565,"2026-06-10 20:00:00","11275","1.157","178.5","2.352","177.0","1020.051","20.57","65.52","NAN","0.0"],
    [1558566,"2026-06-10 20:10:00","11276","1.133","184.3","2.287","175.2","1020.198","20.56","65.75","NAN","0.0"],
    [1558567,"2026-06-10 20:20:00","11277","1.272","169.2","2.123","150.9","1020.352","20.6","64.69","NAN","0.0"],
    [1558568,"2026-06-10 20:30:00","11278","1.138","193.8","1.895","184.0","1020.5169999999999","20.56","65.67","NAN","0.0"],
    [1558569,"2026-06-10 20:40:00","11279","1.232","181.9","2.352","183.8","1020.7139999999999","20.56","66.01","NAN","0.0"],
    [1558570,"2026-06-10 20:50:00","11280","1.089","183.8","2.287","173.3","1020.705","20.62","65.68","NAN","0.0"],
    [1558571,"2026-06-10 21:00:00","11281","1.4140000000000001","192.0","2.6460000000000004","205.5","1020.815","20.66","64.94","NAN","0.0"],
    [1558572,"2026-06-10 21:10:00","11282","1.456","185.6","2.679","174.8","1020.82","20.66","64.44","NAN","0.0"],
    [1558573,"2026-06-10 21:20:00","11283","0.92","201.9","1.993","229.0","1020.82","20.64","63.94","NAN","0.0"],
    [1558574,"2026-06-10 21:30:00","11284","1.212","178.4","2.875","175.6","1020.82","20.69","64.14","NAN","0.0"],
    [1558575,"2026-06-10 21:40:00","11285","0.529","214.0","1.666","188.3","1020.868","20.72","64.69","NAN","0.0"],
    [1558576,"2026-06-10 21:50:00","11286","0.522","222.2","1.4369999999999998","203.0","1021.045","20.94","61.88","NAN","0.0"],
    [1558577,"2026-06-10 22:00:00","11287","0.775","218.0","1.8619999999999999","214.4","1021.072","20.93","62.3","NAN","0.0"],
    [1558578,"2026-06-10 22:10:00","11288","0.79","229.1","2.156","229.5","1021.072","21.09","60.98","NAN","0.0"],
    [1558579,"2026-06-10 22:20:00","11289","0.9420000000000001","228.8","2.156","241.8","1021.159","21.04","61.3","NAN","0.0"],
    [1558580,"2026-06-10 22:30:00","11290","0.737","231.0","2.156","239.2","1021.082","21.18","60.69","NAN","0.0"],
    [1558581,"2026-06-10 22:40:00","11291","0.935","217.7","2.5810000000000004","223.3","1021.1089999999999","21.12","61.78","NAN","0.0"],
    [1558582,"2026-06-10 22:50:00","11292","0.894","225.4","2.123","231.1","1021.182","21.07","61.66","NAN","0.0"],
    [1558583,"2026-06-10 23:00:00","11293","0.929","233.0","2.7439999999999998","233.1","1021.1389999999999","21.11","62.12","NAN","0.0"],
    [1558584,"2026-06-10 23:10:00","11294","1.153","225.1","3.005","236.3","1021.064","21.01","62.82","NAN","0.0"],
    [1558585,"2026-06-10 23:20:00","11295","1.131","225.9","2.123","228.8","1020.9810000000001","20.83","63.58","NAN","0.0"],
    [1558586,"2026-06-10 23:30:00","11296","0.727","224.9","1.7309999999999999","238.7","1020.943","20.85","63.43","NAN","0.0"],
    [1558587,"2026-06-10 23:40:00","11297","1.135","232.3","2.7769999999999997","239.1","1020.941","20.91","63.13","NAN","0.0"],
    [1558588,"2026-06-10 23:50:00","11298","1.101","240.8","2.45","234.8","1020.9839999999999","20.93","63.12","NAN","0.0"],
    [1558589,"2026-06-11 00:00:00","11299","0.8740000000000001","240.1","2.417","220.6","1020.982","20.98","63.19","NAN","0.0"],
    [1558590,"2026-06-11 00:10:00","11300","0.9570000000000001","238.4","2.319","254.1","1020.92","21.16","62.71","NAN","0.0"],
    [1558591,"2026-06-11 00:20:00","11301","0.762","236.1","2.189","237.7","1020.93","21.1","63.11","NAN","0.0"],
    [1558592,"2026-06-11 00:30:00","11302","1.083","226.5","2.9730000000000003","231.7","1020.926","21.13","63.16","NAN","0.0"],
    [1558593,"2026-06-11 00:40:00","11303","0.978","230.1","2.613","234.8","1020.8739999999999","21.16","63.39","NAN","0.0"],
    [1558594,"2026-06-11 00:50:00","11304","1.2590000000000001","235.8","2.7439999999999998","233.0","1020.807","21.09","63.84","NAN","0.0"],
    [1558595,"2026-06-11 01:00:00","11305","1.265","232.4","3.005","238.7","1020.813","21.08","64","NAN","0.0"],
    [1558596,"2026-06-11 01:10:00","11306","1.074","226.8","2.7439999999999998","248.9","1020.814","21.14","64.28","NAN","0.0"],
    [1558597,"2026-06-11 01:20:00","11307","1.162","228.1","3.397","223.8","1020.823","21.1","64.53","NAN","0.0"],
    [1558598,"2026-06-11 01:30:00","11308","1.202","233.1","2.7439999999999998","236.5","1020.9830000000001","21.09","64.36","NAN","0.0"],
    [1558599,"2026-06-11 01:40:00","11309","0.8270000000000001","231.3","2.5810000000000004","227.8","1021.0110000000001","21.17","64","NAN","0.0"],
    [1558600,"2026-06-11 01:50:00","11310","1.219","225.8","2.45","230.7","1020.8910000000001","21.16","64.2","NAN","0.0"],
    [1558601,"2026-06-11 02:00:00","11311","0.995","216.7","2.352","211.1","1020.8660000000001","21.13","64.71","NAN","0.0"],
    [1558602,"2026-06-11 02:10:00","11312","1.188","228.3","3.267","228.7","1020.803","21.11","65.36","NAN","0.0"],
    [1558603,"2026-06-11 02:20:00","11313","1.3419999999999999","231.3","2.8089999999999997","242.5","1020.799","21.05","65.27","NAN","0.0"],
    [1558604,"2026-06-11 02:30:00","11314","1.294","213.2","2.8089999999999997","215.2","1020.753","21.02","66.2","NAN","0.0"],
    [1558605,"2026-06-11 02:40:00","11315","1.3359999999999999","223.7","3.397","236.7","1020.628","20.89","67.07","NAN","0.0"],
    [1558606,"2026-06-11 02:50:00","11316","1.265","228.6","3.136","233.0","1020.586","20.86","68","NAN","0.0"],
    [1558607,"2026-06-11 03:00:00","11317","1.121","227.2","2.7769999999999997","234.4","1020.645","20.85","68.02","NAN","0.0"],
    [1558608,"2026-06-11 03:10:00","11318","0.7440000000000001","216.3","2.287","195.9","1020.796","20.95","68.2","NAN","0.0"],
    [1558609,"2026-06-11 03:20:00","11319","1.03","215.0","2.842","215.5","1020.806","20.94","69.18","NAN","0.0"],
    [1558610,"2026-06-11 03:30:00","11320","0.695","211.2","1.797","199.9","1020.806","20.78","72","NAN","0.0"],
    [1558611,"2026-06-11 03:40:00","11321","0.596","206.6","1.47","225.3","1020.826","20.78","71.97","NAN","0.0"],
    [1558612,"2026-06-11 03:50:00","11322","0.563","230.4","1.3719999999999999","241.9","1020.822","20.82","71.73","NAN","0.0"],
    [1558613,"2026-06-11 04:00:00","11323","0.695","219.2","2.025","191.4","1020.908","20.89","71.82","NAN","0.0"],
    [1558614,"2026-06-11 04:10:00","11324","0.7909999999999999","228.0","2.0580000000000003","227.4","1021.029","20.92","70.23","NAN","0.0"],
    [1558615,"2026-06-11 04:20:00","11325","0.995","217.9","2.7769999999999997","236.0","1021.047","20.82","66.5","NAN","0.0"],
    [1558616,"2026-06-11 04:30:00","11326","0.865","215.8","2.319","225.0","1021.125","20.59","63.59","NAN","0.0"],
    [1558617,"2026-06-11 04:40:00","11327","0.72","218.6","2.189","210.0","1021.2769999999999","20.38","60.77","NAN","0.0"],
    [1558618,"2026-06-11 04:50:00","11328","1.297","225.2","2.9730000000000003","232.0","1021.315","20.13","57.01","NAN","0.0"],
    [1558619,"2026-06-11 05:00:00","11329","1.008","226.0","2.5810000000000004","192.2","1021.3739999999999","19.96","55.89","NAN","0.0"],
    [1558620,"2026-06-11 05:10:00","11330","0.833","211.3","1.96","211.3","1021.3839999999999","19.96","55.23","NAN","0.0"],
    [1558621,"2026-06-11 05:20:00","11331","0.718","201.4","1.764","204.8","1021.408","19.94","54.87","NAN","0.0"],
    [1558622,"2026-06-11 05:30:00","11332","1.1640000000000001","189.7","2.385","218.0","1021.431","20.04","56.17","NAN","0.0"],
    [1558623,"2026-06-11 05:40:00","11333","0.603","154.9","1.535","171.7","1021.435","20.16","55.84","NAN","0.0"],
    [1558624,"2026-06-11 05:50:00","11334","1.084","152.3","1.9269999999999998","141.7","1021.548","20.3","57.35","NAN","0.0"],
    [1558625,"2026-06-11 06:00:00","11335","1.214","159.5","2.156","155.2","1021.563","20.28","59.36","NAN","0.0"],
    [1558626,"2026-06-11 06:10:00","11336","1.307","161.6","2.0909999999999997","149.9","1021.752","20.24","59.14","NAN","0.0"],
    [1558627,"2026-06-11 06:20:00","11337","0.784","170.0","1.633","166.9","1021.805","20.22","58.61","NAN","0.0"],
    [1558628,"2026-06-11 06:30:00","11338","0.847","116.2","1.7309999999999999","115.9","1022.0010000000001","20.6","55.36","NAN","0.0"],
    [1558629,"2026-06-11 06:40:00","11339","0.978","117.2","2.385","115.1","1022.096","20.63","54.57","NAN","0.0"],
    [1558630,"2026-06-11 06:50:00","11340","1.665","123.4","2.7769999999999997","103.0","1022.179","20.45","56.16","NAN","0.0"],
    [1558631,"2026-06-11 07:00:00","11341","1.4269999999999998","124.5","2.221","103.2","1022.2439999999999","20.49","56.22","NAN","0.0"],
    [1558632,"2026-06-11 07:10:00","11342","1.354","119.5","2.417","97.0","1022.3","20.74","55.86","NAN","0.0"],
    [1558633,"2026-06-11 07:20:00","11343","1.715","116.8","3.071","111.5","1022.452","20.79","54.34","NAN","0.0"],
    [1558634,"2026-06-11 07:30:00","11344","1.732","124.1","2.907","143.9","1022.5989999999999","20.85","54.48","NAN","0.0"],
    [1558635,"2026-06-11 07:40:00","11345","2.113","109.6","3.528","103.1","1022.701","20.95","54.98","NAN","0.0"],
    [1558636,"2026-06-11 07:50:00","11346","2.256","93.3","4.606","109.4","1022.7189999999999","21.08","55.33","NAN","0.0"],
    [1558637,"2026-06-11 08:00:00","11347","2.042","105.3","4.247","103.9","1022.785","21.23","54.75","NAN","0.0"],
    [1558638,"2026-06-11 08:10:00","11348","2.05","104.6","3.43","98.8","1022.9","20.92","56.57","NAN","0.0"],
    [1558639,"2026-06-11 08:20:00","11349","1.815","83.1","3.005","63.46","1022.961","21.21","56.1","NAN","0.0"],
    [1558640,"2026-06-11 08:30:00","11350","1.8159999999999998","120.4","3.43","111.7","1023.008","21.22","56.1","NAN","0.0"],
    [1558641,"2026-06-11 08:40:00","11351","2.005","109.8","3.495","111.5","1023.0830000000001","21.3","56.2","NAN","0.0"],
    [1558642,"2026-06-11 08:50:00","11352","2.066","108.6","3.43","115.2","1023.1110000000001","21.45","55.81","NAN","0.0"],
    [1558643,"2026-06-11 09:00:00","11353","2.037","117.8","3.495","117.9","1023.04","21.57","55.87","NAN","0.0"],
    [1558644,"2026-06-11 09:10:00","11354","2.005","102.6","3.267","107.6","1023.061","21.58","56.02","NAN","0.0"],
    [1558645,"2026-06-11 09:20:00","11355","1.814","109.6","3.234","102.2","1023.067","22.08","55.84","NAN","0.0"],
    [1558646,"2026-06-11 09:30:00","11356","1.896","102.9","3.7889999999999997","99.6","1023.113","22.03","56.15","NAN","0.0"],
    [1558647,"2026-06-11 09:40:00","11357","1.945","117.8","3.43","110.3","1023.125","21.85","56.14","NAN","0.0"],
    [1558648,"2026-06-11 09:50:00","11358","2.2319999999999998","125.4","4.083","105.7","1023.176","21.81","55.13","NAN","0.0"],
    [1558649,"2026-06-11 10:00:00","11359","1.849","131.8","3.92","112.6","1023.202","21.77","54.24","NAN","0.0"],
    [1558650,"2026-06-11 10:10:00","11360","1.473","121.8","3.6910000000000003","119.5","1023.2439999999999","21.76","54.19","NAN","0.0"],
    [1558651,"2026-06-11 10:20:00","11361","1.7819999999999998","113.2","3.299","137.0","1023.295","21.9","53.68","NAN","0.0"],
    [1558652,"2026-06-11 10:30:00","11362","1.844","111.4","3.6260000000000003","109.5","1023.302","22","53.86","NAN","0.0"],
    [1558653,"2026-06-11 10:40:00","11363","2.169","103.7","3.985","104.3","1023.41","22.11","53.89","NAN","0.0"],
    [1558654,"2026-06-11 10:50:00","11364","2.295","110.9","4.312","120.0","1023.3710000000001","22.04","54.51","NAN","0.0"],
    [1558655,"2026-06-11 11:00:00","11365","2.8480000000000003","105.3","4.018","114.0","1023.429","22.03","55.02","NAN","0.0"],
    [1558656,"2026-06-11 11:10:00","11366","2.441","97.6","4.279","89.8","1023.462","22.33","54.92","NAN","0.0"],
    [1558657,"2026-06-11 11:20:00","11367","2.029","99.9","4.312","116.7","1023.429","22.65","54.43","NAN","0.0"],
    [1558658,"2026-06-11 11:30:00","11368","2.403","136.5","4.638999999999999","176.7","1023.3939999999999","22.54","56.68","NAN","0.0"],
    [1558659,"2026-06-11 11:40:00","11369","2.291","173.4","4.1160000000000005","188.7","1023.311","22.33","58.26","NAN","0.0"],
    [1558660,"2026-06-11 11:50:00","11370","2.878","180.8","4.573","184.7","1023.2289999999999","22.28","59.5","NAN","0.0"],
    [1558661,"2026-06-11 12:00:00","11371","3.275","174.7","5.063","178.3","1023.2139999999999","21.94","60.98","NAN","0.0"],
    [1558662,"2026-06-11 12:10:00","11372","3.1489999999999996","169.6","4.573","175.1","1023.2189999999999","21.91","61.47","NAN","0.0"],
    [1558663,"2026-06-11 12:20:00","11373","2.77","176.5","4.475","143.0","1023.227","22.16","59.93","NAN","0.0"],
    [1558664,"2026-06-11 12:30:00","11374","2.92","164.9","4.312","164.5","1023.179","22.13","58.43","NAN","0.0"],
    [1558665,"2026-06-11 12:40:00","11375","3.1069999999999998","168.9","4.508","182.1","1023.2289999999999","22.06","57.81","NAN","0.0"],
    [1558666,"2026-06-11 12:50:00","11376","2.8339999999999996","169.4","5.063","159.1","1023.2239999999999","22.01","58.25","NAN","0.0"],
    [1558667,"2026-06-11 13:00:00","11377","3.2030000000000003","168.5","4.998","159.2","1023.221","22.14","57.02","NAN","0.0"],
    [1558668,"2026-06-11 13:10:00","11378","2.8930000000000002","172.6","5.292000000000001","144.7","1023.158","22.08","57.84","NAN","0.0"],
    [1558669,"2026-06-11 13:20:00","11379","3.035","167.5","4.965","163.5","1023.071","22.07","57.2","NAN","0.0"],
    [1558670,"2026-06-11 13:30:00","11380","2.8810000000000002","177.0","4.933","171.3","1022.993","22.02","55.01","NAN","0.0"],
    [1558671,"2026-06-11 13:40:00","11381","2.702","168.9","4.606","162.7","1022.98","22.54","54.25","NAN","0.0"],
    [1558672,"2026-06-11 13:50:00","11382","2.951","168.3","4.965","179.4","1022.98","22.29","55.64","NAN","0.0"],
    [1558673,"2026-06-11 14:00:00","11383","3.173","170.1","4.638999999999999","170.9","1022.898","22.18","56.9","NAN","0.0"],
    [1558674,"2026-06-11 14:10:00","11384","3.034","170.1","4.541","176.5","1022.796","22.25","56.76","NAN","0.0"],
    [1558675,"2026-06-11 14:20:00","11385","3.09","171.5","4.965","150.1","1022.7330000000001","22.38","57.15","NAN","0.0"],
    [1558676,"2026-06-11 14:30:00","11386","3.423","173.9","5.39","184.9","1022.7239999999999","22.25","58.17","NAN","0.0"],
    [1558677,"2026-06-11 14:40:00","11387","3.5189999999999997","173.5","5.227","178.0","1022.6489999999999","22.23","58.89","NAN","0.0"],
    [1558678,"2026-06-11 14:50:00","11388","3.31","168.1","5.4879999999999995","161.1","1022.613","22.29","59.26","NAN","0.0"],
    [1558679,"2026-06-11 15:00:00","11389","3.341","171.2","5.4879999999999995","174.8","1022.528","22.36","59.43","NAN","0.0"],
    [1558680,"2026-06-11 15:10:00","11390","3.464","176.2","5.88","179.8","1022.3560000000001","22.45","57.12","NAN","0.0"],
    [1558681,"2026-06-11 15:20:00","11391","3.2119999999999997","174.1","5.194","182.9","1022.378","22.38","57.58","NAN","0.0"],
    [1558682,"2026-06-11 15:30:00","11392","2.8089999999999997","177.5","4.737","180.0","1022.3439999999999","22.59","56.9","NAN","0.0"],
    [1558683,"2026-06-11 15:40:00","11393","3.127","172.0","4.541","169.7","1022.346","22.53","54.08","NAN","0.0"],
    [1558684,"2026-06-11 15:50:00","11394","3.053","171.8","4.312","176.1","1022.3539999999999","22.39","55.25","NAN","0.0"],
    [1558685,"2026-06-11 16:00:00","11395","3.1830000000000003","171.9","4.671","178.8","1022.275","22.37","54.83","NAN","0.0"],
    [1558686,"2026-06-11 16:10:00","11396","3.054","172.1","4.377","174.2","1022.2439999999999","22.46","56.35","NAN","0.0"],
    [1558687,"2026-06-11 16:20:00","11397","2.87","168.0","4.704","182.3","1022.2460000000001","22.54","56.14","NAN","0.0"],
    [1558688,"2026-06-11 16:30:00","11398","3.657","172.7","5.227","174.3","1022.237","22.52","56.84","NAN","0.0"],
    [1558689,"2026-06-11 16:40:00","11399","3.81","175.3","5.4879999999999995","172.7","1022.245","22.22","58.33","NAN","0.0"],
    [1558690,"2026-06-11 16:50:00","11400","3.702","173.8","5.39","175.7","1022.2869999999999","22.23","58.66","NAN","0.0"],
    [1558691,"2026-06-11 17:00:00","11401","3.7539999999999996","173.4","5.651","178.6","1022.341","22.29","57.2","NAN","0.0"],
    [1558692,"2026-06-11 17:10:00","11402","3.6439999999999997","170.5","5.292000000000001","150.2","1022.446","22.37","56.76","NAN","0.0"],
    [1558693,"2026-06-11 17:20:00","11403","3.88","173.0","5.455","183.9","1022.4680000000001","22.23","54.72","NAN","0.0"],
    [1558694,"2026-06-11 17:30:00","11404","3.592","171.8","5.227","180.1","1022.485","22.29","54.5","NAN","0.0"],
    [1558695,"2026-06-11 17:40:00","11405","2.741","168.8","4.377","176.9","1022.4910000000001","22.58","52.57","NAN","0.0"],
    [1558696,"2026-06-11 17:50:00","11406","2.668","168.9","4.1160000000000005","174.3","1022.548","22.7","52.68","NAN","0.0"],
    [1558697,"2026-06-11 18:00:00","11407","2.6","170.1","4.149","172.1","1022.622","22.65","55.61","NAN","0.0"],
    [1558698,"2026-06-11 18:10:00","11408","2.628","167.8","3.7569999999999997","176.2","1022.6569999999999","22.55","57.87","NAN","0.0"],
    [1558699,"2026-06-11 18:20:00","11409","1.92","174.9","3.234","175.3","1022.7439999999999","22.73","57.32","NAN","0.0"],
    [1558700,"2026-06-11 18:30:00","11410","2.167","170.6","3.299","177.6","1022.752","22.57","58.67","NAN","0.0"],
    [1558701,"2026-06-11 18:40:00","11411","1.609","184.4","2.94","183.3","1022.783","22.57","56.61","NAN","0.0"],
    [1558702,"2026-06-11 18:50:00","11412","2.0180000000000002","170.6","3.201","162.9","1022.877","22.53","56.33","NAN","0.0"],
    [1558703,"2026-06-11 19:00:00","11413","1.845","166.6","3.1689999999999996","187.2","1022.945","22.49","56.58","NAN","0.0"],
    [1558704,"2026-06-11 19:10:00","11414","1.286","203.7","2.842","240.6","1023.0319999999999","22.47","56.24","NAN","0.0"],
    [1558705,"2026-06-11 19:20:00","11415","1.012","227.3","2.287","221.2","1023.1139999999999","22.62","55.73","NAN","0.0"],
    [1558706,"2026-06-11 19:30:00","11416","1.2229999999999999","210.0","3.103","168.0","1023.222","22.55","55.02","NAN","0.0"],
    [1558707,"2026-06-11 19:40:00","11417","1.317","209.0","2.842","198.7","1023.306","22.28","56.91","NAN","0.0"],
    [1558708,"2026-06-11 19:50:00","11418","0.9329999999999999","223.5","2.45","243.7","1023.324","22.46","57.75","NAN","0.0"],
    [1558709,"2026-06-11 20:00:00","11419","1.1520000000000001","233.9","2.6460000000000004","227.4","1023.4689999999999","22.36","58.95","NAN","0.0"],
    [1558710,"2026-06-11 20:10:00","11420","0.835","250.1","2.254","242.3","1023.587","22.4","60.51","NAN","0.0"],
    [1558711,"2026-06-11 20:20:00","11421","0.991","218.6","2.417","227.3","1023.7639999999999","22.12","63.83","NAN","0.0"],
    [1558712,"2026-06-11 20:30:00","11422","0.8059999999999999","236.8","1.7309999999999999","219.3","1023.8939999999999","22.06","65.23","NAN","0.0"],
    [1558713,"2026-06-11 20:40:00","11423","1.2009999999999998","212.2","3.071","192.2","1024.05","21.96","68.29","NAN","0.0"],
    [1558714,"2026-06-11 20:50:00","11424","1.5390000000000001","206.0","3.7239999999999998","215.6","1024.129","21.72","71.7","NAN","0.0"],
    [1558715,"2026-06-11 21:00:00","11425","1.046","215.7","2.515","248.1","1024.2910000000002","21.63","71.91","NAN","0.0"],
    [1558716,"2026-06-11 21:10:00","11426","1.062","217.1","2.7769999999999997","254.2","1024.305","21.66","71.82","NAN","0.0"],
    [1558717,"2026-06-11 21:20:00","11427","1.264","197.7","2.385","203.6","1024.312","21.49","73.46","NAN","0.0"],
    [1558718,"2026-06-11 21:30:00","11428","1.369","190.1","2.6460000000000004","178.9","1024.46","21.36","74.58","NAN","0.0"],
    [1558719,"2026-06-11 21:40:00","11429","0.835","218.2","2.025","239.2","1024.376","21.32","74.15","NAN","0.0"],
    [1558720,"2026-06-11 21:50:00","11430","0.292","227.1","1.274","226.1","1024.338","21.57","72.6","NAN","0.0"],
    [1558721,"2026-06-11 22:00:00","11431","0.9309999999999999","201.8","1.96","201.2","1024.309","21.45","73.34","NAN","0.0"],
    [1558722,"2026-06-11 22:10:00","11432","0.975","214.1","1.993","208.7","1024.271","21.24","72.94","NAN","0.0"],
    [1558723,"2026-06-11 22:20:00","11433","0.602","215.7","1.601","285.8","1024.224","21.34","72.36","NAN","0.0"],
    [1558724,"2026-06-11 22:30:00","11434","0.997","251.1","2.123","238.6","1024.165","21.46","69.98","NAN","0.0"],
    [1558725,"2026-06-11 22:40:00","11435","0.524","211.9","1.405","189.0","1024.167","21.55","70.58","NAN","0.0"],
    [1558726,"2026-06-11 22:50:00","11436","0.32799999999999996","208.7","0.9470000000000001","208.7","1024.134","21.28","72.79","NAN","0.0"],
    [1558727,"2026-06-11 23:00:00","11437","0.903","266.7","1.8619999999999999","266.5","1024.083","21.62","69.51","NAN","0.0"],
    [1558728,"2026-06-11 23:10:00","11438","0.384","282.4","1.5030000000000001","272.7","1024.134","22.12","66.2","NAN","0.0"],
    [1558729,"2026-06-11 23:20:00","11439","0.655","11.44","1.666","36.31","1024.059","22.11","62.96","NAN","0.0"],
    [1558730,"2026-06-11 23:30:00","11440","0.168","351.3","0.915","356.0","1024.012","22.05","62.62","NAN","0.0"],
    [1558731,"2026-06-11 23:40:00","11441","0.445","82.7","1.111","59.4","1023.949","21.83","66.09","NAN","0.0"],
    [1558732,"2026-06-11 23:50:00","11442","0.425","119.5","0.9470000000000001","103.7","1023.997","21.74","66.11","NAN","0.0"],
    [1558733,"2026-06-12 00:00:00","11443","0.514","138.9","1.176","141.5","1024.032","21.43","68.06","NAN","0.0"],
    [1558734,"2026-06-12 00:10:00","11444","0.46299999999999997","131.9","0.915","128.3","1024.056","21.31","67.28","NAN","0.0"],
    [1558735,"2026-06-12 00:20:00","11445","0.682","106.0","1.274","101.5","1023.926","21.3","66.99","NAN","0.0"],
    [1558736,"2026-06-12 00:30:00","11446","0.09300000000000001","97.5","0.359","63.71","1023.84","21.25","65.9","NAN","0.0"],
    [1558737,"2026-06-12 00:40:00","11447","0.16","56.01","0.915","63.37","1023.95","21.12","65.96","NAN","0.0"],
    [1558738,"2026-06-12 00:50:00","11448","0.515","66.42","1.045","70.81","1024.017","20.99","62.61","NAN","0.0"],
    [1558739,"2026-06-12 01:00:00","11449","0.039","161.2","0.425","119.4","1024.031","21","62.54","NAN","0.0"],
    [1558740,"2026-06-12 01:10:00","11450","0.47","201.6","0.8170000000000001","201.3","1023.987","20.91","67.21","NAN","0.0"],
    [1558741,"2026-06-12 01:20:00","11451","0.218","182.7","0.621","210.1","1023.931","20.73","69.42","NAN","0.0"],
    [1558742,"2026-06-12 01:30:00","11452","0.369","176.0","1.111","165.1","1023.96","20.63","69.52","NAN","0.0"],
    [1558743,"2026-06-12 01:40:00","11453","0.47","191.3","0.98","200.6","1023.997","20.59","69.02","NAN","0.0"],
    [1558744,"2026-06-12 01:50:00","11454","0.7070000000000001","168.3","1.601","173.7","1024.002","20.58","70.25","NAN","0.0"],
    [1558745,"2026-06-12 02:00:00","11455","0.62","163.0","1.666","185.9","1023.935","20.56","70.43","NAN","0.0"],
    [1558746,"2026-06-12 02:10:00","11456","0.349","180.6","1.209","168.0","1023.955","20.52","71.86","NAN","0.0"],
    [1558747,"2026-06-12 02:20:00","11457","0.26899999999999996","166.0","0.9470000000000001","173.8","1024.059","20.39","73.04","NAN","0.0"],
    [1558748,"2026-06-12 02:30:00","11458","0.040999999999999995","166.9","0.49","188.0","1024.0919999999999","20.3","74.09","NAN","0.0"],
    [1558749,"2026-06-12 02:40:00","11459","0.18899999999999997","191.1","0.653","185.6","1024.167","20.17","74.81","NAN","0.0"],
    [1558750,"2026-06-12 02:50:00","11460","0.7020000000000001","183.0","1.176","176.7","1024.286","20.25","75.17","NAN","0.0"],
    [1558751,"2026-06-12 03:00:00","11461","1.025","197.7","1.7309999999999999","203.3","1024.309","20.13","74.2","NAN","0.0"],
    [1558752,"2026-06-12 03:10:00","11462","0.815","205.9","1.405","199.9","1024.381","20.07","73.11","NAN","0.0"],
    [1558753,"2026-06-12 03:20:00","11463","0.624","205.5","1.47","209.2","1024.4360000000001","20.12","72.39","NAN","0.0"],
    [1558754,"2026-06-12 03:30:00","11464","0.172","209.0","0.8170000000000001","225.4","1024.441","20.14","72.54","NAN","0.0"],
    [1558755,"2026-06-12 03:40:00","11465","0.0","0.0","0.0","0.0","1024.558","19.91","72.92","NAN","0.0"],
    [1558756,"2026-06-12 03:50:00","11466","0.635","231.7","1.895","243.0","1024.645","19.97","72.2","NAN","0.0"],
    [1558757,"2026-06-12 04:00:00","11467","0.58","250.7","1.535","250.4","1024.7939999999999","20.26","68.15","NAN","0.0"],
    [1558758,"2026-06-12 04:10:00","11468","0.525","276.0","1.111","290.0","1024.795","20.43","66.87","NAN","0.0"],
    [1558759,"2026-06-12 04:20:00","11469","0.253","76.17","0.915","43.2","1024.839","20.19","67.12","NAN","0.0"],
    [1558760,"2026-06-12 04:30:00","11470","0.655","74.22","0.9470000000000001","75.31","1025.026","19.74","69.2","NAN","0.0"],
    [1558761,"2026-06-12 04:40:00","11471","0.601","47.43","1.013","29.16","1025.059","19.52","69.08","NAN","0.0"],
    [1558762,"2026-06-12 04:50:00","11472","0.757","13.11","1.699","8.12","1025.0639999999999","19.55","68.72","NAN","0.0"],
    [1558763,"2026-06-12 05:00:00","11473","0.852","45.78","1.601","13.66","1025.181","19.8","67.28","NAN","0.0"],
    [1558764,"2026-06-12 05:10:00","11474","0.6629999999999999","54.56","1.5030000000000001","2.167","1025.3","19.78","67.1","NAN","0.0"],
    [1558765,"2026-06-12 05:20:00","11475","0.06","96.0","0.621","112.1","1025.359","20.14","66.83","NAN","0.0"],
    [1558766,"2026-06-12 05:30:00","11476","0.303","92.5","0.7509999999999999","93.4","1025.326","20.8","64.42","NAN","0.0"],
    [1558767,"2026-06-12 05:40:00","11477","0.358","148.0","0.621","139.2","1025.3","20.71","64.99","NAN","0.0"],
    [1558768,"2026-06-12 05:50:00","11478","0.858","243.0","2.156","228.1","1025.33","21.03","61.86","NAN","0.0"],
    [1558769,"2026-06-12 06:00:00","11479","1.034","266.2","2.385","262.4","1025.306","21.74","59.12","NAN","0.0"],
    [1558770,"2026-06-12 06:10:00","11480","0.78","277.3","2.0909999999999997","266.4","1025.249","21.98","60.63","NAN","0.0"],
    [1558771,"2026-06-12 06:20:00","11481","1.129","281.5","2.189","223.5","1025.313","22.08","62.19","NAN","0.0"],
    [1558772,"2026-06-12 06:30:00","11482","0.985","288.8","2.875","252.4","1025.287","22.4","61.36","NAN","0.0"],
    [1558773,"2026-06-12 06:40:00","11483","0.59","13.35","1.797","2.0069999999999997","1025.289","22.63","58.52","NAN","0.0"],
    [1558774,"2026-06-12 06:50:00","11484","1.055","309.6","2.5810000000000004","332.5","1025.252","22.92","60.56","NAN","0.0"],
    [1558775,"2026-06-12 07:00:00","11485","0.7979999999999999","238.2","2.156","268.6","1025.245","23","61.55","NAN","0.0"],
    [1558776,"2026-06-12 07:10:00","11486","0.457","271.7","1.797","144.5","1025.302","23.69","59.53","NAN","0.0"],
    [1558777,"2026-06-12 07:20:00","11487","1.834","120.7","3.234","171.3","1025.28","22.59","60.55","NAN","0.0"],
    [1558778,"2026-06-12 07:30:00","11488","1.7590000000000001","98.2","2.6460000000000004","100.3","1025.306","22.75","60.8","NAN","0.0"],
    [1558779,"2026-06-12 07:40:00","11489","1.445","113.8","2.352","111.3","1025.2939999999999","22.7","60.86","NAN","0.0"],
    [1558780,"2026-06-12 07:50:00","11490","1.511","108.4","2.352","103.7","1025.289","23.33","58.87","NAN","0.0"],
    [1558781,"2026-06-12 08:00:00","11491","1.376","129.4","2.156","146.0","1025.2910000000002","23.02","59.88","NAN","0.0"],
    [1558782,"2026-06-12 08:10:00","11492","1.6369999999999998","127.9","2.515","165.7","1025.3110000000001","23.02","60.94","NAN","0.0"],
    [1558783,"2026-06-12 08:20:00","11493","1.848","126.9","2.5810000000000004","147.0","1025.413","22.84","61.83","NAN","0.0"],
    [1558784,"2026-06-12 08:30:00","11494","1.895","140.4","3.528","113.0","1025.411","22.94","62.51","NAN","0.0"],
    [1558785,"2026-06-12 08:40:00","11495","1.8559999999999999","135.6","2.9730000000000003","163.6","1025.313","23.15","62.33","NAN","0.0"],
    [1558786,"2026-06-12 08:50:00","11496","1.8869999999999998","140.3","2.875","141.0","1025.289","23.01","63.75","NAN","0.0"],
    [1558787,"2026-06-12 09:00:00","11497","1.984","161.9","3.332","180.3","1025.246","23.03","66.04","NAN","0.0"],
    [1558788,"2026-06-12 09:10:00","11498","1.99","158.1","4.051","179.6","1025.1989999999998","23.05","67.53","NAN","0.0"],
    [1558789,"2026-06-12 09:20:00","11499","2.175","177.9","3.92","186.7","1025.236","23.2","67.71","NAN","0.0"],
    [1558790,"2026-06-12 09:30:00","11500","2.3819999999999997","173.8","3.7239999999999998","175.6","1025.264","23.05","70.12","NAN","0.0"],
    [1558791,"2026-06-12 09:40:00","11501","2.878","182.0","4.247","185.7","1025.181","23.08","73.42","NAN","0.0"],
    [1558792,"2026-06-12 09:50:00","11502","3.0610000000000004","175.8","4.4430000000000005","180.2","1025.1589999999999","22.95","74.93","NAN","0.0"],
    [1558793,"2026-06-12 10:00:00","11503","3.032","178.0","4.671","178.0","1025.1689999999999","23.19","73.6","NAN","0.0"],
    [1558794,"2026-06-12 10:10:00","11504","3.074","173.8","4.508","176.1","1025.164","23.08","75.45","NAN","0.0"],
    [1558795,"2026-06-12 10:20:00","11505","2.839","174.4","4.475","181.5","1025.173","23.41","74.99","NAN","0.0"],
    [1558796,"2026-06-12 10:30:00","11506","3.2","175.8","4.769","182.6","1025.175","23.24","76.84","NAN","0.0"],
    [1558797,"2026-06-12 10:40:00","11507","2.965","176.2","4.965","176.5","1025.1889999999999","23.06","78.21","NAN","0.0"],
    [1558798,"2026-06-12 10:50:00","11508","3.565","174.8","5.063","179.0","1025.219","23.09","78.01","NAN","0.0"],
    [1558799,"2026-06-12 11:00:00","11509","2.787","178.2","4.475","173.5","1025.267","23.49","76.86","NAN","0.0"],
    [1558800,"2026-06-12 11:10:00","11510","3.719","172.5","5.39","179.6","1025.24","23.29","78.37","NAN","0.0"],
    [1558801,"2026-06-12 11:20:00","11511","3.157","175.1","4.9","173.2","1025.224","23.44","76.6","NAN","0.0"],
    [1558802,"2026-06-12 11:30:00","11512","3.173","176.8","5.292000000000001","179.2","1025.21","24.34","70.75","NAN","0.0"],
    [1558803,"2026-06-12 11:40:00","11513","3.292","182.0","5.39","174.7","1025.212","24.1","72.57","NAN","0.0"],
    [1558804,"2026-06-12 11:50:00","11514","3.636","170.6","5.455","183.2","1025.079","24.17","70.94","NAN","0.0"],
    [1558805,"2026-06-12 12:00:00","11515","3.509","171.4","5.4879999999999995","170.0","1025.0","24.37","70.67","NAN","0.0"],
    [1558806,"2026-06-12 12:10:00","11516","3.484","168.5","5.227","176.5","1024.9489999999998","24.45","69.8","NAN","0.0"],
    [1558807,"2026-06-12 12:20:00","11517","3.4730000000000003","168.9","5.521","176.3","1024.899","24.63","69.83","NAN","0.0"],
    [1558808,"2026-06-12 12:30:00","11518","2.6689999999999996","183.7","4.1160000000000005","156.9","1024.745","25.16","65.55","NAN","0.0"],
    [1558809,"2026-06-12 12:40:00","11519","2.511","184.5","4.802","170.8","1024.6789999999999","25.54","62.17","NAN","0.0"],
    [1558810,"2026-06-12 12:50:00","11520","2.443","186.8","4.998","178.5","1024.601","25.79","60.6","NAN","0.0"],
    [1558811,"2026-06-12 13:00:00","11521","2.32","189.5","4.704","174.3","1024.476","25.93","59.14","NAN","0.0"],
    [1558812,"2026-06-12 13:10:00","11522","2.784","173.9","4.377","160.5","1024.402","25.96","57.92","NAN","0.0"],
    [1558813,"2026-06-12 13:20:00","11523","2.737","190.4","5.455","196.5","1024.404","26.21","56.99","NAN","0.0"],
    [1558814,"2026-06-12 13:30:00","11524","2.582","196.5","5.619","204.2","1024.339","26.55","55.72","NAN","0.0"],
    [1558815,"2026-06-12 13:40:00","11525","2.858","188.4","4.998","183.2","1024.255","26.36","57.34","NAN","0.0"],
    [1558816,"2026-06-12 13:50:00","11526","3.128","191.3","5.684","202.6","1024.165","26.17","56.93","NAN","0.0"],
    [1558817,"2026-06-12 14:00:00","11527","2.445","200.0","5.586","188.9","1024.105","26.83","53.92","NAN","0.0"],
    [1558818,"2026-06-12 14:10:00","11528","2.907","192.1","5.847","187.7","1024.026","26.57","53.87","NAN","0.0"],
    [1558819,"2026-06-12 14:20:00","11529","2.386","199.5","5.39","208.9","1023.921","27.11","51.02","NAN","0.0"],
    [1558820,"2026-06-12 14:30:00","11530","2.488","200.3","5.978","192.2","1023.762","27.23","48.83","NAN","0.0"],
    [1558821,"2026-06-12 14:40:00","11531","2.319","194.6","4.279","197.5","1023.6569999999999","27.22","47.35","NAN","0.0"],
    [1558822,"2026-06-12 14:50:00","11532","2.9930000000000003","197.5","5.031000000000001","212.3","1023.557","27.47","44.09","NAN","0.0"],
    [1558823,"2026-06-12 15:00:00","11533","2.465","193.5","4.737","198.5","1023.445","27.32","45.36","NAN","0.0"],
    [1558824,"2026-06-12 15:10:00","11534","2.474","197.5","5.063","202.9","1023.3960000000001","27.55","45.25","NAN","0.0"],
    [1558825,"2026-06-12 15:20:00","11535","2.7569999999999997","198.3","4.475","181.1","1023.3760000000001","27.43","44.7","NAN","0.0"],
    [1558826,"2026-06-12 15:30:00","11536","2.6510000000000002","197.5","4.933","196.6","1023.311","27.37","46.44","NAN","0.0"],
    [1558827,"2026-06-12 15:40:00","11537","2.8689999999999998","199.1","5.978","197.7","1023.313","27.28","45.73","NAN","0.0"],
    [1558828,"2026-06-12 15:50:00","11538","2.9219999999999997","197.6","6.109","201.3","1023.3860000000001","26.81","47.34","NAN","0.0"],
    [1558829,"2026-06-12 16:00:00","11539","2.517","201.4","5.063","179.2","1023.3480000000001","26.92","45.72","NAN","0.0"],
    [1558830,"2026-06-12 16:10:00","11540","2.375","202.7","4.638999999999999","202.1","1023.306","27.18","48.35","NAN","0.0"],
    [1558831,"2026-06-12 16:20:00","11541","2.642","194.1","5.129","182.4","1023.291","26.54","51.85","NAN","0.0"],
    [1558832,"2026-06-12 16:30:00","11542","2.255","199.5","4.247","210.3","1023.284","26.45","51.77","NAN","0.0"],
    [1558833,"2026-06-12 16:40:00","11543","2.787","198.1","5.129","199.9","1023.209","26.24","48.03","NAN","0.0"],
    [1558834,"2026-06-12 16:50:00","11544","2.332","197.9","4.377","222.7","1023.174","26.1","50.97","NAN","0.0"],
    [1558835,"2026-06-12 17:00:00","11545","2.637","198.7","5.455","200.8","1023.164","26.19","52.12","NAN","0.0"],
    [1558836,"2026-06-12 17:10:00","11546","2.141","199.1","4.4430000000000005","186.1","1023.164","26.02","53.4","NAN","0.0"],
    [1558837,"2026-06-12 17:20:00","11547","1.6","199.3","4.345","196.7","1023.01","26.44","50.08","NAN","0.0"],
    [1558838,"2026-06-12 17:30:00","11548","2.1519999999999997","203.4","4.083","199.0","1022.995","26.63","46.86","NAN","0.0"],
    [1558839,"2026-06-12 17:40:00","11549","1.8459999999999999","203.0","4.083","204.3","1023.035","26.71","48.59","NAN","0.0"],
    [1558840,"2026-06-12 17:50:00","11550","1.757","216.7","4.704","233.1","1023.039","27","45.02","NAN","0.0"],
    [1558841,"2026-06-12 18:00:00","11551","1.776","194.2","3.593","200.4","1023.072","26.72","46.04","NAN","0.0"],
    [1558842,"2026-06-12 18:10:00","11552","1.9609999999999999","200.5","3.7889999999999997","206.7","1023.051","26.49","46.4","NAN","0.0"],
    [1558843,"2026-06-12 18:20:00","11553","1.224","215.3","4.279","232.1","1023.06","26.38","49.05","NAN","0.0"],
    [1558844,"2026-06-12 18:30:00","11554","1.254","225.4","4.149","258.1","1023.062","26.06","50.52","NAN","0.0"],
    [1558845,"2026-06-12 18:40:00","11555","1.548","232.6","4.9","245.0","1022.936","25.97","51.06","NAN","0.0"],
    [1558846,"2026-06-12 18:50:00","11556","1.5290000000000001","230.5","3.234","293.9","1022.9010000000001","25.78","52.98","NAN","0.0"],
    [1558847,"2026-06-12 19:00:00","11557","1.232","233.3","4.345","249.2","1022.8760000000001","25.78","52.98","NAN","0.0"],
    [1558848,"2026-06-12 19:10:00","11558","0.87","236.3","2.515","225.0","1022.877","25.76","53.43","NAN","0.0"],
    [1558849,"2026-06-12 19:20:00","11559","1.288","236.9","3.593","227.0","1022.982","25.72","53.16","NAN","0.0"],
    [1558850,"2026-06-12 19:30:00","11560","1.318","239.1","3.071","219.8","1022.9939999999999","25.37","55.67","NAN","0.0"],
    [1558851,"2026-06-12 19:40:00","11561","1.58","248.6","4.051","268.8","1023.007","25.14","57.73","NAN","0.0"],
    [1558852,"2026-06-12 19:50:00","11562","1.662","245.9","3.528","256.0","1023.053","24.9","59.78","NAN","0.0"],
    [1558853,"2026-06-12 20:00:00","11563","1.411","236.6","3.071","240.9","1023.122","24.75","61.38","NAN","0.0"],
    [1558854,"2026-06-12 20:10:00","11564","1.0659999999999998","238.2","2.8089999999999997","237.1","1023.1469999999999","24.84","60.75","NAN","0.0"],
    [1558855,"2026-06-12 20:20:00","11565","1.3130000000000002","235.4","2.287","252.8","1023.265","24.75","61.57","NAN","0.0"],
    [1558856,"2026-06-12 20:30:00","11566","1.298","242.3","2.352","244.1","1023.2810000000001","24.66","61.85","NAN","0.0"],
    [1558857,"2026-06-12 20:40:00","11567","0.778","234.6","1.8619999999999999","242.4","1023.327","24.69","60.67","NAN","0.0"],
    [1558858,"2026-06-12 20:50:00","11568","0.8059999999999999","254.4","2.0909999999999997","216.1","1023.413","24.79","60.28","NAN","0.0"],
    [1558859,"2026-06-12 21:00:00","11569","0.753","220.8","2.0909999999999997","234.3","1023.461","24.91","60.5","NAN","0.0"],
    [1558860,"2026-06-12 21:10:00","11570","0.863","184.3","1.4369999999999998","191.9","1023.5269999999999","24.53","62.83","NAN","0.0"],
    [1558861,"2026-06-12 21:20:00","11571","0.845","206.0","1.829","198.4","1023.5360000000001","24.16","63.38","NAN","0.0"],
    [1558862,"2026-06-12 21:30:00","11572","0.574","214.1","1.307","237.1","1023.5989999999999","24.13","63.49","NAN","0.0"],
    [1558863,"2026-06-12 21:40:00","11573","0.405","178.2","0.882","204.5","1023.671","23.79","66.3","NAN","0.0"],
    [1558864,"2026-06-12 21:50:00","11574","0.052000000000000005","126.9","0.523","107.2","1023.671","23.95","64.76","NAN","0.0"],
    [1558865,"2026-06-12 22:00:00","11575","0.264","145.9","0.7190000000000001","176.9","1023.668","23.8","65.91","NAN","0.0"],
    [1558866,"2026-06-12 22:10:00","11576","0.18","107.5","0.7509999999999999","151.7","1023.663","23.7","66.35","NAN","0.0"],
    [1558867,"2026-06-12 22:20:00","11577","0.848","163.5","1.535","166.9","1023.669","23.74","64.77","NAN","0.0"],
    [1558868,"2026-06-12 22:30:00","11578","0.47","190.6","1.143","173.4","1023.658","23.53","65.38","NAN","0.0"],
    [1558869,"2026-06-12 22:40:00","11579","0.23600000000000002","161.9","0.882","179.7","1023.663","23.42","65.99","NAN","0.0"],
    [1558870,"2026-06-12 22:50:00","11580","0.028999999999999998","151.4","0.49","201.3","1023.676","23.42","65.27","NAN","0.0"],
    [1558871,"2026-06-12 23:00:00","11581","0.0","0.0","0.0","0.0","1023.682","23.47","64.66","NAN","0.0"],
    [1558872,"2026-06-12 23:10:00","11582","0.2","82.9","0.7509999999999999","101.7","1023.63","23.56","64.3","NAN","0.0"],
    [1558873,"2026-06-12 23:20:00","11583","0.315","55.71","0.98","109.6","1023.442","23.61","63.06","NAN","0.0"],
    [1558874,"2026-06-12 23:30:00","11584","0.53","28.6","1.209","6.505","1023.403","23.72","62.55","NAN","0.0"],
    [1558875,"2026-06-12 23:40:00","11585","0.47100000000000003","15.05","1.176","16.87","1023.312","24.13","60.49","NAN","0.0"],
    [1558876,"2026-06-12 23:50:00","11586","0.634","37.91","1.176","31.93","1023.308","24.04","60.81","NAN","0.0"],
    [1558877,"2026-06-13 00:00:00","11587","0.419","29.93","1.3719999999999999","39.8","1023.301","23.99","60.61","NAN","0.0"],
    [1558878,"2026-06-13 00:10:00","11588","0.21600000000000003","2.653","0.882","18.86","1023.192","24.03","60.9","NAN","0.0"],
    [1558879,"2026-06-13 00:20:00","11589","0.237","188.7","0.8490000000000001","184.5","1023.1510000000001","23.87","62.55","NAN","0.0"],
    [1558880,"2026-06-13 00:30:00","11590","0.35","200.6","1.013","202.1","1023.055","23.47","66","NAN","0.0"],
    [1558881,"2026-06-13 00:40:00","11591","0.643","179.7","1.045","171.7","1023.0360000000001","23.04","68.89","NAN","0.0"],
    [1558882,"2026-06-13 00:50:00","11592","0.065","207.9","0.621","181.5","1022.903","22.93","69.18","NAN","0.0"],
    [1558883,"2026-06-13 01:00:00","11593","0.026000000000000002","233.1","0.653","250.1","1022.814","22.87","69.16","NAN","0.0"],
    [1558884,"2026-06-13 01:10:00","11594","0.376","181.3","1.339","205.9","1022.806","22.88","68.71","NAN","0.0"],
    [1558885,"2026-06-13 01:20:00","11595","0.545","230.8","1.535","245.3","1022.799","22.82","66.56","NAN","0.0"],
    [1558886,"2026-06-13 01:30:00","11596","0.96","261.5","2.0909999999999997","259.3","1022.702","23.47","60.5","NAN","0.0"],
    [1558887,"2026-06-13 01:40:00","11597","0.237","235.4","1.535","247.6","1022.582","23.57","59.27","NAN","0.0"],
    [1558888,"2026-06-13 01:50:00","11598","0.042","80.8","0.588","88.5","1022.3860000000001","23.28","59.15","NAN","0.0"],
    [1558889,"2026-06-13 02:00:00","11599","0.5589999999999999","67.38","1.339","52.81","1022.291","22.99","62.44","NAN","0.0"],
    [1558890,"2026-06-13 02:10:00","11600","0.14800000000000002","75.76","0.8170000000000001","71.95","1022.19","22.8","61.58","NAN","0.0"],
    [1558891,"2026-06-13 02:20:00","11601","0.426","182.8","0.8170000000000001","183.9","1022.074","22.55","63.79","NAN","0.0"],
    [1558892,"2026-06-13 02:30:00","11602","0.0","0.0","0.0","0.0","1021.956","22.41","63.22","NAN","0.0"],
    [1558893,"2026-06-13 02:40:00","11603","0.0","0.0","0.0","0.0","1021.932","22.48","62.07","NAN","0.0"],
    [1558894,"2026-06-13 02:50:00","11604","0.541","37.9","1.405","37.27","1021.832","22.66","59.1","NAN","0.0"],
    [1558895,"2026-06-13 03:00:00","11605","0.2","190.7","0.98","194.3","1021.847","22.77","60.77","NAN","0.0"],
    [1558896,"2026-06-13 03:10:00","11606","0.66","189.9","1.045","204.4","1021.944","22.19","66.01","NAN","0.0"],
    [1558897,"2026-06-13 03:20:00","11607","0.29","162.4","0.98","174.9","1022.0","21.95","64.67","NAN","0.0"],
    [1558898,"2026-06-13 03:30:00","11608","0.21100000000000002","156.0","0.882","170.9","1021.9760000000001","22.06","62.74","NAN","0.0"],
    [1558899,"2026-06-13 03:40:00","11609","0.0","0.0","0.0","0.0","1021.83","22.02","61","NAN","0.0"],
    [1558900,"2026-06-13 03:50:00","11610","0.233","59.68","0.6859999999999999","29.32","1021.815","21.96","62.36","NAN","0.0"],
    [1558901,"2026-06-13 04:00:00","11611","0.184","341.3","0.784","33.33","1021.8560000000001","22.13","60.7","NAN","0.0"],
    [1558902,"2026-06-13 04:10:00","11612","0.44299999999999995","19.24","1.013","30.7","1021.924","22.42","60.43","NAN","0.0"],
    [1558903,"2026-06-13 04:20:00","11613","0.503","5.739","1.013","11.3","1021.9639999999999","22.47","60.86","NAN","0.0"],
    [1558904,"2026-06-13 04:30:00","11614","0.295","3.292","0.8170000000000001","38.39","1021.942","22.42","60.52","NAN","0.0"],
    [1558905,"2026-06-13 04:40:00","11615","0.14400000000000002","355.3","0.523","352.9","1021.944","22.29","60.79","NAN","0.0"],
    [1558906,"2026-06-13 04:50:00","11616","0.05","1.149","0.49","354.8","1021.9069999999999","22.42","60.81","NAN","0.0"],
    [1558907,"2026-06-13 05:00:00","11617","0.475","231.3","1.307","211.8","1021.962","22.94","58.82","NAN","0.0"],
    [1558908,"2026-06-13 05:10:00","11618","0.591","218.6","1.274","210.4","1022.044","23.16","57.16","NAN","0.0"],
    [1558909,"2026-06-13 05:20:00","11619","1.014","143.1","1.895","111.6","1022.018","23.12","58.6","NAN","0.0"],
    [1558910,"2026-06-13 05:30:00","11620","0.315","99.4","1.078","110.2","1022.008","23.48","58.98","NAN","0.0"],
    [1558911,"2026-06-13 05:40:00","11621","0.259","145.0","1.013","285.8","1022.0039999999999","24.28","52.8","NAN","0.0"],
    [1558912,"2026-06-13 05:50:00","11622","0.381","59.35","0.98","315.8","1022.182","25.29","49.52","NAN","0.0"],
    [1558913,"2026-06-13 06:00:00","11623","0.941","91.7","2.189","91.1","1022.221","25.64","49.98","NAN","0.0"],
    [1558914,"2026-06-13 06:10:00","11624","1.182","86.9","2.156","79.79","1022.2739999999999","24.27","57.7","NAN","0.0"],
    [1558915,"2026-06-13 06:20:00","11625","1.123","81.6","1.9269999999999998","91.8","1022.29","24.32","55.05","NAN","0.0"],
    [1558916,"2026-06-13 06:30:00","11626","0.611","84.8","1.209","72.52","1022.289","25.05","52.23","NAN","0.0"],
    [1558917,"2026-06-13 06:40:00","11627","0.36700000000000005","17.92","1.013","26.65","1022.309","25.62","49.75","NAN","0.0"],
    [1558918,"2026-06-13 06:50:00","11628","0.3","77.77","0.882","105.2","1022.297","25.77","48.65","NAN","0.0"],
    [1558919,"2026-06-13 07:00:00","11629","0.36700000000000005","32.54","1.013","354.5","1022.2869999999999","26.28","47.01","NAN","0.0"],
    [1558920,"2026-06-13 07:10:00","11630","0.395","78.41","1.143","24.43","1022.203","27.03","44.44","NAN","0.0"],
    [1558921,"2026-06-13 07:20:00","11631","0.9009999999999999","5.428999999999999","1.666","18.13","1022.173","27.27","43.89","NAN","0.0"],
    [1558922,"2026-06-13 07:30:00","11632","0.441","97.2","1.078","20.82","1022.178","27.98","42.85","NAN","0.0"],
    [1558923,"2026-06-13 07:40:00","11633","0.45899999999999996","4.675","1.601","37.24","1022.178","28.29","41.65","NAN","0.0"],
    [1558924,"2026-06-13 07:50:00","11634","0.552","59.3","2.0580000000000003","28.24","1022.13","28.91","39.94","NAN","0.0"],
    [1558925,"2026-06-13 08:00:00","11635","0.615","92.8","1.4369999999999998","65.42","1022.041","29.51","38.39","NAN","0.0"],
    [1558926,"2026-06-13 08:10:00","11636","0.727","143.1","2.0580000000000003","86.8","1021.933","29.38","40.49","NAN","0.0"],
    [1558927,"2026-06-13 08:20:00","11637","1.15","195.9","2.025","194.2","1021.924","28.92","45.18","NAN","0.0"],
    [1558928,"2026-06-13 08:30:00","11638","1.0859999999999999","196.3","1.993","210.2","1021.921","28.16","45.6","NAN","0.0"],
    [1558929,"2026-06-13 08:40:00","11639","1.371","188.0","2.0909999999999997","204.5","1021.8389999999999","28.19","44.58","NAN","0.0"],
    [1558930,"2026-06-13 08:50:00","11640","1.1079999999999999","177.7","1.764","179.9","1021.7189999999999","27.96","44.2","NAN","0.0"],
    [1558931,"2026-06-13 09:00:00","11641","1.3319999999999999","168.9","2.0580000000000003","178.6","1021.66","28.35","41.96","NAN","0.0"],
    [1558932,"2026-06-13 09:10:00","11642","1.587","167.2","2.254","177.7","1021.6419999999999","28.82","40.92","NAN","0.0"],
    [1558933,"2026-06-13 09:20:00","11643","1.672","134.5","2.483","143.3","1021.565","28.96","40.62","NAN","0.0"],
    [1558934,"2026-06-13 09:30:00","11644","1.7","182.4","2.45","184.4","1021.4830000000001","28.38","45.25","NAN","0.0"],
    [1558935,"2026-06-13 09:40:00","11645","1.7409999999999999","188.1","3.234","177.5","1021.433","28.41","45.14","NAN","0.0"],
    [1558936,"2026-06-13 09:50:00","11646","2.73","172.7","4.083","177.9","1021.443","27.09","46.82","NAN","0.0"],
    [1558937,"2026-06-13 10:00:00","11647","2.237","164.5","3.92","149.2","1021.543","27.17","48.62","NAN","0.0"],
    [1558938,"2026-06-13 10:10:00","11648","2.383","129.3","4.1160000000000005","109.4","1021.677","26.75","56.31","NAN","0.0"],
    [1558939,"2026-06-13 10:20:00","11649","2.477","124.2","3.7239999999999998","112.2","1021.742","26.32","63.29","NAN","0.0"],
    [1558940,"2026-06-13 10:30:00","11650","2.608","151.1","4.638999999999999","174.1","1021.857","26.08","64.01","NAN","0.0"],
    [1558941,"2026-06-13 10:40:00","11651","2.094","175.1","3.659","172.3","1021.867","25.81","65.12","NAN","0.0"],
    [1558942,"2026-06-13 10:50:00","11652","1.58","160.8","2.5810000000000004","162.5","1021.922","26.06","59.55","NAN","0.0"],
    [1558943,"2026-06-13 11:00:00","11653","1.824","127.4","2.7769999999999997","117.6","1021.933","26.23","61.76","NAN","0.0"],
    [1558944,"2026-06-13 11:10:00","11654","2.128","115.3","3.234","114.9","1021.916","25.71","65.86","NAN","0.0"],
    [1558945,"2026-06-13 11:20:00","11655","2.166","116.4","3.071","107.3","1021.748","25.91","64.94","NAN","0.0"],
    [1558946,"2026-06-13 11:30:00","11656","2.2159999999999997","120.1","3.43","111.4","1021.698","25.77","66.3","NAN","0.0"],
    [1558947,"2026-06-13 11:40:00","11657","2.141","121.5","2.875","117.7","1021.689","25.47","65.69","NAN","0.0"],
    [1558948,"2026-06-13 11:50:00","11658","2.1430000000000002","155.4","3.593","175.7","1021.62","26.03","60.54","NAN","0.0"],
    [1558949,"2026-06-13 12:00:00","11659","2.342","177.3","3.593","174.0","1021.5889999999999","25.68","55.02","NAN","0.0"],
    [1558950,"2026-06-13 12:10:00","11660","2.428","128.7","3.92","107.0","1021.422","25.78","62.1","NAN","0.0"],
    [1558951,"2026-06-13 12:20:00","11661","2.45","132.0","4.149","113.5","1021.383","25.51","64.3","NAN","0.0"],
    [1558952,"2026-06-13 12:30:00","11662","2.4930000000000003","166.9","4.083","177.7","1021.316","25.86","56.88","NAN","0.0"],
    [1558953,"2026-06-13 12:40:00","11663","2.8819999999999997","169.8","4.181","179.7","1021.357","25.41","58.81","NAN","0.0"],
    [1558954,"2026-06-13 12:50:00","11664","2.7439999999999998","178.8","4.312","173.9","1021.238","25.22","61.5","NAN","0.0"],
    [1558955,"2026-06-13 13:00:00","11665","3.153","173.2","4.704","183.1","1021.221","25.16","65.3","NAN","0.0"],
    [1558956,"2026-06-13 13:10:00","11666","3.0010000000000003","172.8","4.573","183.6","1021.16","24.88","66.08","NAN","0.0"],
    [1558957,"2026-06-13 13:20:00","11667","2.909","177.3","4.181","187.1","1021.071","25.21","64.57","NAN","0.0"],
    [1558958,"2026-06-13 13:30:00","11668","2.641","177.7","3.887","177.9","1020.9830000000001","25.29","66.56","NAN","0.0"],
    [1558959,"2026-06-13 13:40:00","11669","2.438","181.2","3.92","183.8","1020.9019999999999","25.45","67.17","NAN","0.0"],
    [1558960,"2026-06-13 13:50:00","11670","2.5989999999999998","173.3","4.083","189.8","1020.813","25.37","65.86","NAN","0.0"],
    [1558961,"2026-06-13 14:00:00","11671","2.4659999999999997","180.0","3.985","180.0","1020.7360000000001","25.61","63.49","NAN","0.0"],
    [1558962,"2026-06-13 14:10:00","11672","2.158","163.0","3.495","177.5","1020.66","25.91","61.03","NAN","0.0"],
    [1558963,"2026-06-13 14:20:00","11673","1.8869999999999998","178.3","3.299","190.8","1020.533","25.94","62.14","NAN","0.0"],
    [1558964,"2026-06-13 14:30:00","11674","2.522","178.8","3.7889999999999997","182.0","1020.461","25.69","64.6","NAN","0.0"],
    [1558965,"2026-06-13 14:40:00","11675","2.852","173.4","4.41","160.4","1020.405","25.22","66.32","NAN","0.0"],
    [1558966,"2026-06-13 14:50:00","11676","2.82","175.2","4.149","178.6","1020.232","25.26","64.11","NAN","0.0"],
    [1558967,"2026-06-13 15:00:00","11677","2.502","175.2","3.7239999999999998","175.8","1020.172","25.53","59.56","NAN","0.0"],
    [1558968,"2026-06-13 15:10:00","11678","2.7769999999999997","164.6","4.802","162.3","1020.0980000000001","26.16","52.17","NAN","0.0"],
    [1558969,"2026-06-13 15:20:00","11679","2.565","165.5","4.345","159.0","1020.03","26.2","50.71","NAN","0.0"],
    [1558970,"2026-06-13 15:30:00","11680","2.362","169.8","4.1160000000000005","160.8","1019.971","26.14","55.15","NAN","0.0"],
    [1558971,"2026-06-13 15:40:00","11681","2.215","176.1","3.659","185.1","1019.937","25.88","63.81","NAN","0.0"],
    [1558972,"2026-06-13 15:50:00","11682","1.8119999999999998","173.1","3.234","179.6","1019.798","25.63","68.74","NAN","0.0"],
    [1558973,"2026-06-13 16:00:00","11683","2.362","174.7","4.083","156.8","1019.817","25.44","66.59","NAN","0.0"],
    [1558974,"2026-06-13 16:10:00","11684","2.529","171.3","3.6910000000000003","158.4","1019.7610000000001","25.09","71.75","NAN","0.0"],
    [1558975,"2026-06-13 16:20:00","11685","2.103","171.6","3.9530000000000003","171.9","1019.7510000000001","25.09","74.92","NAN","0.0"],
    [1558976,"2026-06-13 16:30:00","11686","2.149","173.4","4.1160000000000005","151.8","1019.743","24.89","79.31","NAN","0.0"],
    [1558977,"2026-06-13 16:40:00","11687","2.2969999999999997","181.8","3.7569999999999997","177.3","1019.678","24.79","76.58","NAN","0.0"],
    [1558978,"2026-06-13 16:50:00","11688","2.838","169.7","4.149","159.4","1019.523","24.51","75.95","NAN","0.0"],
    [1558979,"2026-06-13 17:00:00","11689","2.4659999999999997","176.2","4.051","178.2","1019.425","24.58","76.9","NAN","0.0"],
    [1558980,"2026-06-13 17:10:00","11690","2.306","173.5","4.247","148.9","1019.3839999999999","24.97","75.48","NAN","0.0"],
    [1558981,"2026-06-13 17:20:00","11691","2.137","175.8","3.822","160.4","1019.375","24.87","75.45","NAN","0.0"],
    [1558982,"2026-06-13 17:30:00","11692","2.3169999999999997","176.4","3.985","186.3","1019.329","24.85","76.87","NAN","0.0"],
    [1558983,"2026-06-13 17:40:00","11693","2.654","171.6","4.083","178.3","1019.258","24.37","79.36","NAN","0.0"],
    [1558984,"2026-06-13 17:50:00","11694","2.441","170.6","3.92","159.1","1019.194","24.42","80.5","NAN","0.0"],
    [1558985,"2026-06-13 18:00:00","11695","2.4330000000000003","166.6","4.1160000000000005","182.2","1019.164","24.36","81.5","NAN","0.0"],
    [1558986,"2026-06-13 18:10:00","11696","2.1430000000000002","158.1","3.463","136.6","1019.082","24.38","83.2","NAN","0.0"],
    [1558987,"2026-06-13 18:20:00","11697","2.11","171.4","3.855","177.6","1019.049","24.16","84.9","NAN","0.0"],
    [1558988,"2026-06-13 18:30:00","11698","1.9369999999999998","165.9","3.7239999999999998","176.2","1019.003","24.07","84.7","NAN","0.0"],
    [1558989,"2026-06-13 18:40:00","11699","2.079","169.4","3.7569999999999997","161.5","1018.927","23.97","86","NAN","0.0"],
    [1558990,"2026-06-13 18:50:00","11700","2.106","165.4","3.5610000000000004","154.8","1018.924","23.9","86.8","NAN","0.0"],
    [1558991,"2026-06-13 19:00:00","11701","2.089","174.4","3.7569999999999997","160.7","1018.8539999999999","23.85","87.6","NAN","0.0"],
    [1558992,"2026-06-13 19:10:00","11702","1.935","166.0","3.43","161.1","1018.808","23.8","87.7","NAN","0.0"],
    [1558993,"2026-06-13 19:20:00","11703","1.364","169.8","2.6460000000000004","163.9","1018.821","23.83","87.5","NAN","0.0"],
    [1558994,"2026-06-13 19:30:00","11704","0.81","174.7","1.764","176.0","1018.7739999999999","24.01","84.6","NAN","0.0"],
    [1558995,"2026-06-13 19:40:00","11705","0.325","168.0","0.9470000000000001","155.6","1018.697","24.41","77.62","NAN","0.0"],
    [1558996,"2026-06-13 19:50:00","11706","0.386","57.74","1.078","62.06","1018.715","24.97","71.6","NAN","0.0"],
    [1558997,"2026-06-13 20:00:00","11707","0.309","91.9","0.882","89.6","1018.757","24.97","76.01","NAN","0.0"],
    [1558998,"2026-06-13 20:10:00","11708","0.182","20.4","0.6859999999999999","309.7","1018.821","25.28","74.25","NAN","0.0"],
    [1558999,"2026-06-13 20:20:00","11709","0.44799999999999995","57.86","1.176","65.12","1018.813","25.28","75.47","NAN","0.0"],
    [1559000,"2026-06-13 20:30:00","11710","0.679","58.77","1.666","60.16","1018.817","25.1","75.77","NAN","0.0"],
    [1559001,"2026-06-13 20:40:00","11711","0.889","52.13","1.666","61.55","1018.822","24.95","77.46","NAN","0.0"],
    [1559002,"2026-06-13 20:50:00","11712","0.474","57.85","1.7309999999999999","59.43","1018.855","24.8","78.68","NAN","0.0"],
    [1559003,"2026-06-13 21:00:00","11713","0.603","129.2","1.3719999999999999","151.3","1018.8389999999999","24.81","77.35","NAN","0.0"],
    [1559004,"2026-06-13 21:10:00","11714","0.7090000000000001","175.9","1.078","180.1","1018.816","24.49","79.55","NAN","0.0"],
    [1559005,"2026-06-13 21:20:00","11715","0.59","169.8","0.9470000000000001","174.2","1018.811","24.18","79.97","NAN","0.0"],
    [1559006,"2026-06-13 21:30:00","11716","0.18100000000000002","132.4","0.49","131.5","1018.659","24.12","81","NAN","0.0"],
    [1559007,"2026-06-13 21:40:00","11717","0.341","137.3","0.6859999999999999","127.2","1018.482","24.17","78.72","NAN","0.0"],
    [1559008,"2026-06-13 21:50:00","11718","0.278","126.6","0.621","111.7","1018.414","24.2","74.38","NAN","0.0"],
    [1559009,"2026-06-13 22:00:00","11719","0.053","175.8","0.653","183.1","1018.327","24.27","71.26","NAN","0.0"],
    [1559010,"2026-06-13 22:10:00","11720","0.713","190.6","1.339","244.0","1018.326","24.09","68.13","NAN","0.0"],
    [1559011,"2026-06-13 22:20:00","11721","0.635","196.5","1.405","199.4","1018.321","24.75","50.73","NAN","0.0"],
    [1559012,"2026-06-13 22:30:00","11722","0.637","210.0","1.5030000000000001","198.6","1018.319","25.08","46.72","NAN","0.0"],
    [1559013,"2026-06-13 22:40:00","11723","0.303","216.0","0.9470000000000001","200.3","1018.2769999999999","25.49","44.64","NAN","0.0"],
    [1559014,"2026-06-13 22:50:00","11724","0.5429999999999999","221.4","1.339","258.8","1018.1039999999999","25.56","44.56","NAN","0.0"],
    [1559015,"2026-06-13 23:00:00","11725","0.841","200.1","1.764","236.9","1018.0930000000001","25.16","46.98","NAN","0.0"],
    [1559016,"2026-06-13 23:10:00","11726","0.902","195.8","1.2409999999999999","205.6","1018.061","25.02","48.09","NAN","0.0"],
    [1559017,"2026-06-13 23:20:00","11727","1.166","197.8","1.96","204.6","1017.9110000000001","24.94","47.48","NAN","0.0"],
    [1559018,"2026-06-13 23:30:00","11728","1.0170000000000001","207.2","1.5030000000000001","198.3","1017.816","24.88","45.88","NAN","0.0"],
    [1559019,"2026-06-13 23:40:00","11729","0.48100000000000004","206.3","1.47","237.2","1017.727","24.94","45.44","NAN","0.0"],
    [1559020,"2026-06-13 23:50:00","11730","0.6659999999999999","207.9","1.111","203.2","1017.693","25","45.65","NAN","0.0"],
    [1559021,"2026-06-14 00:00:00","11731","0.7190000000000001","221.8","1.797","251.7","1017.5980000000001","24.95","46.27","NAN","0.0"],
    [1559022,"2026-06-14 00:10:00","11732","0.89","225.3","1.993","248.7","1017.452","25.19","43.32","NAN","0.0"],
    [1559023,"2026-06-14 00:20:00","11733","0.636","228.5","1.4369999999999998","220.2","1017.326","25.28","43.62","NAN","0.0"],
    [1559024,"2026-06-14 00:30:00","11734","0.23199999999999998","235.3","0.8170000000000001","226.4","1017.186","25.26","43.6","NAN","0.0"],
    [1559025,"2026-06-14 00:40:00","11735","1.125","257.7","3.43","284.7","1017.08","25.68","40.33","NAN","0.0"],
    [1559026,"2026-06-14 00:50:00","11736","0.902","253.8","3.201","282.6","1016.954","26.14","39.25","NAN","0.0"],
    [1559027,"2026-06-14 01:00:00","11737","1.817","257.8","4.083","268.7","1016.832","26.41","36.95","NAN","0.0"],
    [1559028,"2026-06-14 01:10:00","11738","1.3730000000000002","255.6","2.842","258.0","1016.74","26.51","36.49","NAN","0.0"],
    [1559029,"2026-06-14 01:20:00","11739","1.527","257.4","4.2139999999999995","263.0","1016.573","26.35","36.81","NAN","0.0"],
    [1559030,"2026-06-14 01:30:00","11740","0.883","257.5","2.94","267.7","1016.4889999999999","26.3","36.86","NAN","0.0"],
    [1559031,"2026-06-14 01:40:00","11741","0.71","297.7","2.613","285.2","1016.41","26.28","36.69","NAN","0.0"],
    [1559032,"2026-06-14 01:50:00","11742","0.695","329.8","1.699","307.7","1016.316","26.34","36.73","NAN","0.0"],
    [1559033,"2026-06-14 02:00:00","11743","0.183","126.4","0.8490000000000001","167.9","1016.3","25.85","39.92","NAN","0.0"],
    [1559034,"2026-06-14 02:10:00","11744","0.16899999999999998","142.8","0.98","209.9","1016.305","25.04","43.66","NAN","0.0"],
    [1559035,"2026-06-14 02:20:00","11745","0.529","194.6","1.143","180.6","1016.319","24.45","48.94","NAN","0.0"],
    [1559036,"2026-06-14 02:30:00","11746","0.374","195.1","0.98","181.9","1016.2739999999999","23.9","52.79","NAN","0.0"],
    [1559037,"2026-06-14 02:40:00","11747","0.258","86.6","0.555","116.8","1016.196","23.57","54.92","NAN","0.0"],
    [1559038,"2026-06-14 02:50:00","11748","0.493","56.23","0.8490000000000001","41.85","1016.178","23.5","54.57","NAN","0.0"],
    [1559039,"2026-06-14 03:00:00","11749","0.5329999999999999","51.3","1.4369999999999998","60.92","1016.138","23.67","52.94","NAN","0.0"],
    [1559040,"2026-06-14 03:10:00","11750","0.10099999999999999","28.7","0.653","28.68","1016.0830000000001","23.58","54.6","NAN","0.0"],
    [1559041,"2026-06-14 03:20:00","11751","0.157","3.897","0.915","22.64","1015.9860000000001","23.54","54.07","NAN","0.0"],
    [1559042,"2026-06-14 03:30:00","11752","0.255","342.9","0.784","27.35","1015.926","23.76","51.28","NAN","0.0"],
    [1559043,"2026-06-14 03:40:00","11753","0.075","34.16","0.49","69.13","1015.8330000000001","23.63","52.34","NAN","0.0"],
    [1559044,"2026-06-14 03:50:00","11754","0.109","43.74","0.653","62.2","1015.836","23.52","52.31","NAN","0.0"],
    [1559045,"2026-06-14 04:00:00","11755","0.847","52.85","1.535","47.53","1015.9","23.29","52.9","NAN","0.0"],
    [1559046,"2026-06-14 04:10:00","11756","0.995","38.95","2.8089999999999997","37.45","1016.0369999999999","23.19","51.26","NAN","0.0"],
    [1559047,"2026-06-14 04:20:00","11757","1.1340000000000001","39.26","2.907","42.22","1016.091","22.86","50.76","NAN","0.0"],
    [1559048,"2026-06-14 04:30:00","11758","0.899","21.52","2.254","356.1","1016.1339999999999","22.86","51.04","NAN","0.0"],
    [1559049,"2026-06-14 04:40:00","11759","1.3430000000000002","18.37","3.0380000000000003","0.41700000000000004","1016.196","23.27","50.33","NAN","0.0"],
    [1559050,"2026-06-14 04:50:00","11760","1.52","0.04","3.495","6.825","1016.209","23.55","48.33","NAN","0.0"],
    [1559051,"2026-06-14 05:00:00","11761","0.945","20.22","2.0580000000000003","17.95","1016.222","23.87","47.47","NAN","0.0"],
    [1559052,"2026-06-14 05:10:00","11762","0.7959999999999999","3.7260000000000004","1.307","7.0","1016.328","23.96","47.6","NAN","0.0"],
    [1559053,"2026-06-14 05:20:00","11763","0.424","349.5","1.045","2.043","1016.31","24.44","46.7","NAN","0.0"],
    [1559054,"2026-06-14 05:30:00","11764","0.7609999999999999","13.59","1.5030000000000001","356.6","1016.28","24.94","45.81","NAN","0.0"],
    [1559055,"2026-06-14 05:40:00","11765","1.047","358.0","2.6460000000000004","9.15","1016.28","24.82","45.92","NAN","0.0"],
    [1559056,"2026-06-14 05:50:00","11766","1.025","5.143","1.797","9.13","1016.2660000000001","25.07","45.47","NAN","0.0"],
    [1559057,"2026-06-14 06:00:00","11767","0.614","7.075","1.5030000000000001","32.54","1016.263","25.67","44.59","NAN","0.0"],
    [1559058,"2026-06-14 06:10:00","11768","0.774","16.46","1.5030000000000001","21.31","1016.2510000000001","26.23","43.21","NAN","0.0"],
    [1559059,"2026-06-14 06:20:00","11769","0.8220000000000001","15.47","1.535","11.96","1016.2189999999999","26.58","42.45","NAN","0.0"],
    [1559060,"2026-06-14 06:30:00","11770","0.621","25.08","1.339","19.09","1016.1110000000001","27.05","41.74","NAN","0.0"],
    [1559061,"2026-06-14 06:40:00","11771","0.623","19.88","1.47","8.61","1016.065","27.36","41.27","NAN","0.0"],
    [1559062,"2026-06-14 06:50:00","11772","0.47","2.443","1.4369999999999998","20.26","1016.068","27.32","40.85","NAN","0.0"],
    [1559063,"2026-06-14 07:00:00","11773","0.449","22.1","1.176","8.75","1016.113","27.69","39.99","NAN","0.0"],
    [1559064,"2026-06-14 07:10:00","11774","0.643","78.47","1.535","117.6","1016.047","28.15","38.46","NAN","0.0"],
    [1559065,"2026-06-14 07:20:00","11775","1.28","155.7","2.907","166.0","1016.189","26.97","45.32","NAN","0.0"],
    [1559066,"2026-06-14 07:30:00","11776","0.6829999999999999","183.3","1.5030000000000001","168.3","1016.196","26.94","45.56","NAN","0.0"],
    [1559067,"2026-06-14 07:40:00","11777","1.139","163.1","1.8619999999999999","138.7","1016.195","27.08","44.64","NAN","0.0"],
    [1559068,"2026-06-14 07:50:00","11778","1.392","116.1","2.123","108.8","1016.118","27.02","46.16","NAN","0.0"],
    [1559069,"2026-06-14 08:00:00","11779","1.0959999999999999","166.2","1.829","175.4","1016.175","27.29","43.49","NAN","0.0"],
    [1559070,"2026-06-14 08:10:00","11780","1.646","170.7","2.254","154.1","1016.195","27.42","41.73","NAN","0.0"],
    [1559071,"2026-06-14 08:20:00","11781","1.6269999999999998","160.0","2.842","174.7","1016.195","27.59","41.71","NAN","0.0"],
    [1559072,"2026-06-14 08:30:00","11782","1.97","171.5","3.593","183.6","1016.195","27.64","44.45","NAN","0.0"],
    [1559073,"2026-06-14 08:40:00","11783","2.0180000000000002","177.7","3.659","182.8","1016.195","26.75","49.21","NAN","0.0"],
    [1559074,"2026-06-14 08:50:00","11784","1.864","171.7","3.43","158.8","1016.195","27.65","45.43","NAN","0.0"],
    [1559075,"2026-06-14 09:00:00","11785","2.503","170.6","3.659","165.9","1016.173","27.17","49.96","NAN","0.0"],
    [1559076,"2026-06-14 09:10:00","11786","2.698","171.1","4.181","179.2","1016.195","26.78","51.63","NAN","0.0"],
    [1559077,"2026-06-14 09:20:00","11787","1.8980000000000001","167.1","3.071","142.2","1016.185","27.21","49.41","NAN","0.0"],
    [1559078,"2026-06-14 09:30:00","11788","2.093","175.0","3.201","174.5","1016.073","27.45","45.38","NAN","0.0"],
    [1559079,"2026-06-14 09:40:00","11789","2.124","173.3","3.1689999999999996","178.0","1015.9860000000001","27.86","40.01","NAN","0.0"],
    [1559080,"2026-06-14 09:50:00","11790","2.4330000000000003","171.8","3.463","175.8","1016.005","27.67","42.7","NAN","0.0"],
    [1559081,"2026-06-14 10:00:00","11791","2.0340000000000003","170.8","3.005","184.2","1015.939","27.84","41.61","NAN","0.0"],
    [1559082,"2026-06-14 10:10:00","11792","1.744","170.1","2.7439999999999998","178.3","1015.834","28.16","38.82","NAN","0.0"],
    [1559083,"2026-06-14 10:20:00","11793","1.666","133.8","3.201","120.3","1015.7560000000001","28.78","35.48","NAN","0.0"],
    [1559084,"2026-06-14 10:30:00","11794","1.7369999999999999","121.7","3.365","107.6","1015.697","28.68","35.43","NAN","0.0"],
    [1559085,"2026-06-14 10:40:00","11795","1.601","130.8","2.94","142.4","1015.709","28.95","35.8","NAN","0.0"],
    [1559086,"2026-06-14 10:50:00","11796","1.46","124.2","3.103","109.0","1015.697","28.93","35.86","NAN","0.0"],
    [1559087,"2026-06-14 11:00:00","11797","1.639","117.9","2.842","148.2","1015.679","28.92","35.5","NAN","0.0"],
    [1559088,"2026-06-14 11:10:00","11798","1.516","141.0","2.7110000000000003","159.1","1015.605","28.61","36.04","NAN","0.0"],
    [1559089,"2026-06-14 11:20:00","11799","1.775","120.6","2.842","174.7","1015.572","28.67","36.04","NAN","0.0"],
    [1559090,"2026-06-14 11:30:00","11800","1.252","137.2","2.287","167.1","1015.575","28.57","36.22","NAN","0.0"],
    [1559091,"2026-06-14 11:40:00","11801","1.585","133.1","2.613","161.8","1015.54","28.54","35.97","NAN","0.0"],
    [1559092,"2026-06-14 11:50:00","11802","1.841","124.3","3.103","108.2","1015.4","28.27","36.39","NAN","0.0"],
    [1559093,"2026-06-14 12:00:00","11803","1.756","126.9","3.299","118.8","1015.263","28.2","36.77","NAN","0.0"],
    [1559094,"2026-06-14 12:10:00","11804","1.764","139.5","2.9730000000000003","108.6","1015.199","28.08","37.15","NAN","0.0"],
    [1559095,"2026-06-14 12:20:00","11805","1.744","141.7","3.495","149.5","1015.199","27.98","37.39","NAN","0.0"],
    [1559096,"2026-06-14 12:30:00","11806","1.905","154.1","3.495","151.3","1015.279","28.02","37.65","NAN","0.0"],
    [1559097,"2026-06-14 12:40:00","11807","1.598","156.4","3.136","188.2","1015.204","28.19","38.32","NAN","0.0"],
    [1559098,"2026-06-14 12:50:00","11808","1.68","149.4","3.071","142.1","1015.181","28.05","39.36","NAN","0.0"],
    [1559099,"2026-06-14 13:00:00","11809","1.78","200.3","3.136","201.2","1015.1039999999999","28.09","40.03","NAN","0.0"],
    [1559100,"2026-06-14 13:10:00","11810","1.805","190.9","3.234","156.7","1014.992","28.19","40.26","NAN","0.0"],
    [1559101,"2026-06-14 13:20:00","11811","2.125","178.2","3.887","169.4","1014.952","27.79","40.88","NAN","0.0"],
    [1559102,"2026-06-14 13:30:00","11812","1.608","172.2","3.365","153.4","1014.91","27.34","42.16","NAN","0.0"],
    [1559103,"2026-06-14 13:40:00","11813","1.4069999999999998","182.2","3.103","165.5","1014.805","27.75","41.13","NAN","0.0"],
    [1559104,"2026-06-14 13:50:00","11814","1.484","178.2","3.071","180.7","1014.783","27.98","40.42","NAN","0.0"],
    [1559105,"2026-06-14 14:00:00","11815","1.58","180.7","2.7439999999999998","156.1","1014.763","27.66","41.57","NAN","0.0"],
    [1559106,"2026-06-14 14:10:00","11816","1.571","191.1","3.234","213.3","1014.703","27.95","41.49","NAN","0.0"],
    [1559107,"2026-06-14 14:20:00","11817","1.673","159.7","3.267","129.6","1014.701","27.53","41.73","NAN","0.0"],
    [1559108,"2026-06-14 14:30:00","11818","1.621","169.2","3.136","174.5","1014.586","27.6","42.18","NAN","0.0"],
    [1559109,"2026-06-14 14:40:00","11819","1.742","151.9","3.201","152.5","1014.452","27.35","41.92","NAN","0.0"],
    [1559110,"2026-06-14 14:50:00","11820","1.9709999999999999","142.8","3.365","152.2","1014.5210000000001","27.03","42.49","NAN","0.0"],
    [1559111,"2026-06-14 15:00:00","11821","1.5959999999999999","179.0","2.5810000000000004","173.6","1014.459","27.38","42.55","NAN","0.0"],
    [1559112,"2026-06-14 15:10:00","11822","1.848","180.9","3.5610000000000004","154.1","1014.3580000000001","27.38","42.46","NAN","0.0"],
    [1559113,"2026-06-14 15:20:00","11823","1.5519999999999998","198.7","2.6460000000000004","200.1","1014.2489999999999","27.49","42.5","NAN","0.0"],
    [1559114,"2026-06-14 15:30:00","11824","1.4969999999999999","179.6","3.5610000000000004","111.7","1014.081","27.28","42.37","NAN","0.0"],
    [1559115,"2026-06-14 15:40:00","11825","1.484","169.7","2.5810000000000004","110.2","1013.962","27.59","41.27","NAN","0.0"],
    [1559116,"2026-06-14 15:50:00","11826","1.29","195.1","2.221","200.8","1013.9639999999999","27.38","41.87","NAN","0.0"],
    [1559117,"2026-06-14 16:00:00","11827","1.3159999999999998","161.7","2.7110000000000003","111.0","1013.9110000000001","27.28","41.64","NAN","0.0"],
    [1559118,"2026-06-14 16:10:00","11828","1.6219999999999999","149.5","2.875","153.7","1013.887","27.13","40.31","NAN","0.0"],
    [1559119,"2026-06-14 16:20:00","11829","1.7480000000000002","151.8","2.907","168.9","1013.743","26.9","41","NAN","0.0"],
    [1559120,"2026-06-14 16:30:00","11830","1.426","115.6","2.189","118.1","1013.709","26.72","43.17","NAN","0.0"],
    [1559121,"2026-06-14 16:40:00","11831","1.291","108.3","2.221","102.0","1013.584","26.78","43.08","NAN","0.0"],
    [1559122,"2026-06-14 16:50:00","11832","0.9359999999999999","118.8","1.633","106.9","1013.4889999999999","26.6","43.73","NAN","0.0"],
    [1559123,"2026-06-14 17:00:00","11833","1.3880000000000001","152.1","2.221","173.4","1013.5160000000001","26.54","43.68","NAN","0.0"],
    [1559124,"2026-06-14 17:10:00","11834","1.6540000000000001","183.1","3.234","180.5","1013.4839999999999","26.51","45.33","NAN","0.0"],
    [1559125,"2026-06-14 17:20:00","11835","1.351","172.9","2.7769999999999997","180.8","1013.3330000000001","26.13","46.98","NAN","0.0"],
    [1559126,"2026-06-14 17:30:00","11836","1.659","180.9","2.7769999999999997","150.7","1013.2639999999999","26.4","44.55","NAN","0.0"],
    [1559127,"2026-06-14 17:40:00","11837","1.685","163.9","2.907","151.2","1013.268","26.39","45.24","NAN","0.0"],
    [1559128,"2026-06-14 17:50:00","11838","1.7069999999999999","164.9","2.45","156.2","1013.225","26.31","44.19","NAN","0.0"],
    [1559129,"2026-06-14 18:00:00","11839","1.655","168.8","2.6460000000000004","174.1","1013.2339999999999","26.23","44.91","NAN","0.0"],
    [1559130,"2026-06-14 18:10:00","11840","1.236","178.8","2.221","158.7","1013.189","26.11","46.31","NAN","0.0"],
    [1559131,"2026-06-14 18:20:00","11841","0.617","194.2","1.111","226.8","1013.18","26.73","41.83","NAN","0.0"],
    [1559132,"2026-06-14 18:30:00","11842","0.544","172.3","1.078","182.2","1013.128","26.56","38.91","NAN","0.0"],
    [1559133,"2026-06-14 18:40:00","11843","0.40299999999999997","178.8","1.111","176.1","1013.0880000000001","26.56","39.67","NAN","0.0"],
    [1559134,"2026-06-14 18:50:00","11844","0.7659999999999999","176.8","1.339","174.0","1013.16","26.68","36.69","NAN","0.0"],
    [1559135,"2026-06-14 19:00:00","11845","0.489","145.6","0.9470000000000001","94.5","1013.18","26.78","35.98","NAN","0.0"],
    [1559136,"2026-06-14 19:10:00","11846","0.62","136.4","0.98","146.4","1013.159","26.82","36.01","NAN","0.0"],
    [1559137,"2026-06-14 19:20:00","11847","0.639","140.8","1.111","153.9","1013.064","26.79","36.11","NAN","0.0"],
    [1559138,"2026-06-14 19:30:00","11848","0.601","125.6","0.882","116.6","1013.058","26.65","38.46","NAN","0.0"],
    [1559139,"2026-06-14 19:40:00","11849","0.6659999999999999","127.4","1.078","114.4","1013.076","26.49","39.95","NAN","0.0"],
    [1559140,"2026-06-14 19:50:00","11850","0.878","142.8","1.601","142.2","1013.113","26.47","38.91","NAN","0.0"],
    [1559141,"2026-06-14 20:00:00","11851","0.45","177.7","0.8170000000000001","182.4","1013.115","26.21","41.93","NAN","0.0"],
    [1559142,"2026-06-14 20:10:00","11852","0.47600000000000003","175.1","0.8490000000000001","181.5","1013.2339999999999","26.04","44.99","NAN","0.0"],
    [1559143,"2026-06-14 20:20:00","11853","0.578","191.2","0.915","194.6","1013.275","25.75","48.82","NAN","0.0"],
    [1559144,"2026-06-14 20:30:00","11854","0.6829999999999999","176.7","1.143","186.5","1013.346","25.65","48.86","NAN","0.0"],
    [1559145,"2026-06-14 20:40:00","11855","0.327","174.9","0.8490000000000001","181.7","1013.346","25.58","49.28","NAN","0.0"],
    [1559146,"2026-06-14 20:50:00","11856","0.591","172.9","1.078","168.5","1013.34","25.66","46.87","NAN","0.0"],
    [1559147,"2026-06-14 21:00:00","11857","0.285","169.3","0.7190000000000001","180.4","1013.3330000000001","25.66","49.2","NAN","0.0"],
    [1559148,"2026-06-14 21:10:00","11858","0.7020000000000001","182.3","1.405","203.2","1013.432","25.56","50.21","NAN","0.0"],
    [1559149,"2026-06-14 21:20:00","11859","1.004","209.3","1.797","207.8","1013.405","25.74","47.67","NAN","0.0"],
    [1559150,"2026-06-14 21:30:00","11860","1.594","241.1","3.5610000000000004","233.4","1013.327","26.4","40.1","NAN","0.0"],
    [1559151,"2026-06-14 21:40:00","11861","1.089","250.3","3.267","255.4","1013.3380000000001","26.82","38.26","NAN","0.0"],
    [1559152,"2026-06-14 21:50:00","11862","0.937","252.2","1.993","227.0","1013.325","26.97","37.96","NAN","0.0"],
    [1559153,"2026-06-14 22:00:00","11863","0.713","248.5","1.8619999999999999","241.9","1013.24","27.05","37.69","NAN","0.0"],
    [1559154,"2026-06-14 22:10:00","11864","0.7659999999999999","246.4","1.764","252.5","1013.19","27.17","37.39","NAN","0.0"],
    [1559155,"2026-06-14 22:20:00","11865","0.922","254.9","1.993","276.0","1013.201","27.21","37.25","NAN","0.0"],
    [1559156,"2026-06-14 22:30:00","11866","0.13699999999999998","284.0","1.111","249.0","1013.091","27.45","36.67","NAN","0.0"],
    [1559157,"2026-06-14 22:40:00","11867","0.133","274.5","0.7509999999999999","270.9","1013.008","27.65","36.28","NAN","0.0"],
    [1559158,"2026-06-14 22:50:00","11868","0.672","58.02","1.699","65.61","1012.9889999999999","27.25","38.87","NAN","0.0"],
    [1559159,"2026-06-14 23:00:00","11869","0.728","68.49","1.209","45.5","1013.069","26.73","41.17","NAN","0.0"],
    [1559160,"2026-06-14 23:10:00","11870","0.16399999999999998","79.25","0.784","84.8","1013.06","26.6","41.1","NAN","0.0"],
    [1559161,"2026-06-14 23:20:00","11871","0.348","91.4","0.7190000000000001","118.4","1013.012","26.52","41.66","NAN","0.0"],
    [1559162,"2026-06-14 23:30:00","11872","0.172","58.59","0.7509999999999999","31.05","1012.8510000000001","26.61","39.52","NAN","0.0"],
    [1559163,"2026-06-14 23:40:00","11873","0.449","199.3","0.9470000000000001","203.7","1012.895","26.45","42.33","NAN","0.0"],
    [1559164,"2026-06-14 23:50:00","11874","0.392","197.2","0.784","193.8","1012.94","25.94","47.98","NAN","0.0"],
    [1559165,"2026-06-15 00:00:00","11875","1.114","201.8","2.0580000000000003","202.0","1012.8960000000001","25.55","50.51","NAN","0.0"],
    [1559166,"2026-06-15 00:10:00","11876","0.342","147.5","0.8170000000000001","191.8","1012.831","25.39","51.53","NAN","0.0"],
    [1559167,"2026-06-15 00:20:00","11877","0.344","183.7","0.653","192.9","1012.815","25.45","50.19","NAN","0.0"],
    [1559168,"2026-06-15 00:30:00","11878","0.057","253.5","0.98","283.6","1012.676","25.73","46.51","NAN","0.0"],
    [1559169,"2026-06-15 00:40:00","11879","0.628","232.7","1.405","230.0","1012.528","26.55","39.34","NAN","0.0"],
    [1559170,"2026-06-15 00:50:00","11880","0.72","242.0","1.895","241.0","1012.444","26.86","37.69","NAN","0.0"],
    [1559171,"2026-06-15 01:00:00","11881","0.59","263.2","1.7309999999999999","264.4","1012.326","26.82","37.86","NAN","0.0"],
    [1559172,"2026-06-15 01:10:00","11882","0.431","277.9","1.4369999999999998","284.6","1012.187","27.1","37.25","NAN","0.0"],
    [1559173,"2026-06-15 01:20:00","11883","0.23399999999999999","284.4","0.98","299.4","1012.079","27.07","37.54","NAN","0.0"],
    [1559174,"2026-06-15 01:30:00","11884","0.418","63.93","1.2409999999999999","57.27","1012.038","26.46","41.11","NAN","0.0"],
    [1559175,"2026-06-15 01:40:00","11885","0.34","0.9309999999999999","0.8170000000000001","2.147","1011.8430000000001","26.21","41.13","NAN","0.0"],
    [1559176,"2026-06-15 01:50:00","11886","0.324","162.5","0.915","171.1","1011.765","26.24","42.3","NAN","0.0"],
    [1559177,"2026-06-15 02:00:00","11887","0.32","150.8","1.111","155.6","1011.666","25.58","46.29","NAN","0.0"],
    [1559178,"2026-06-15 02:10:00","11888","0.805","172.9","1.7309999999999999","178.9","1011.5939999999999","24.95","55.89","NAN","0.0"],
    [1559179,"2026-06-15 02:20:00","11889","0.34","189.9","0.882","191.8","1011.575","24.56","55.33","NAN","0.0"],
    [1559180,"2026-06-15 02:30:00","11890","0.132","199.8","0.882","186.2","1011.5239999999999","24.73","52.09","NAN","0.0"],
    [1559181,"2026-06-15 02:40:00","11891","0.285","67.79","0.6859999999999999","68.71","1011.405","24.74","51.43","NAN","0.0"],
    [1559182,"2026-06-15 02:50:00","11892","0.479","149.7","0.915","102.9","1011.3330000000001","24.63","53.23","NAN","0.0"],
    [1559183,"2026-06-15 03:00:00","11893","0.16899999999999998","112.4","0.7190000000000001","103.1","1011.22","24.57","53.16","NAN","0.0"],
    [1559184,"2026-06-15 03:10:00","11894","0.113","92.5","0.49","94.7","1011.102","24.65","51.65","NAN","0.0"],
    [1559185,"2026-06-15 03:20:00","11895","0.231","157.6","0.7509999999999999","194.5","1011.079","24.27","52.98","NAN","0.0"],
    [1559186,"2026-06-15 03:30:00","11896","0.223","202.6","0.9470000000000001","200.6","1010.992","24.07","51.91","NAN","0.0"],
    [1559187,"2026-06-15 03:40:00","11897","0.309","91.6","0.6859999999999999","107.2","1011.047","24.07","54.35","NAN","0.0"],
    [1559188,"2026-06-15 03:50:00","11898","0.124","3.728","0.8170000000000001","290.9","1010.8639999999999","24.09","50.69","NAN","0.0"],
    [1559189,"2026-06-15 04:00:00","11899","0.215","315.1","1.045","303.4","1010.8510000000001","25.2","44.41","NAN","0.0"],
    [1559190,"2026-06-15 04:10:00","11900","0.141","236.0","0.915","300.6","1010.846","25.15","45.34","NAN","0.0"],
    [1559191,"2026-06-15 04:20:00","11901","0.22699999999999998","278.6","0.915","291.5","1010.799","25.15","43.48","NAN","0.0"],
    [1559192,"2026-06-15 04:30:00","11902","0.373","118.2","0.7509999999999999","164.8","1010.808","24.79","47.02","NAN","0.0"],
    [1559193,"2026-06-15 04:40:00","11903","0.179","29.91","0.588","0.28800000000000003","1010.8439999999999","24.36","50.54","NAN","0.0"],
    [1559194,"2026-06-15 04:50:00","11904","0.48700000000000004","57.6","0.9470000000000001","50.96","1010.727","24.51","48.92","NAN","0.0"],
    [1559195,"2026-06-15 05:00:00","11905","0.08900000000000001","62.47","0.621","56.59","1010.685","24.6","48.75","NAN","0.0"],
    [1559196,"2026-06-15 05:10:00","11906","0.644","190.8","1.764","198.9","1010.903","24.58","53.38","NAN","0.0"],
    [1559197,"2026-06-15 05:20:00","11907","0.534","181.1","1.764","195.2","1010.997","24.23","62.47","NAN","0.0"],
    [1559198,"2026-06-15 05:30:00","11908","0.598","59.67","1.633","56.14","1011.082","24.41","60.09","NAN","0.0"],
    [1559199,"2026-06-15 05:40:00","11909","1.1440000000000001","52.81","2.679","56.18","1011.2239999999999","24.85","49.19","NAN","0.0"],
    [1559200,"2026-06-15 05:50:00","11910","1.4409999999999998","54.06","2.842","24.97","1011.304","25.06","45.6","NAN","0.0"],
    [1559201,"2026-06-15 06:00:00","11911","1.464","46.08","3.071","15.9","1011.323","25.03","44.52","NAN","0.0"],
    [1559202,"2026-06-15 06:10:00","11912","0.7709999999999999","26.39","2.319","39.36","1011.421","25.44","43.96","NAN","0.0"],
    [1559203,"2026-06-15 06:20:00","11913","1.06","37.22","2.94","58.26","1011.47","25.78","43.41","NAN","0.0"],
    [1559204,"2026-06-15 06:30:00","11914","0.934","7.077000000000001","2.352","10.19","1011.5269999999999","26.17","41.75","NAN","0.0"],
    [1559205,"2026-06-15 06:40:00","11915","1.04","19.28","2.842","22.4","1011.573","26.82","40.25","NAN","0.0"],
    [1559206,"2026-06-15 06:50:00","11916","1.349","35.59","3.593","60.83","1011.63","27.05","39.45","NAN","0.0"],
    [1559207,"2026-06-15 07:00:00","11917","2.022","46.14","4.083","2.499","1011.722","27.2","39.47","NAN","0.0"],
    [1559208,"2026-06-15 07:10:00","11918","2.426","62.18","4.704","19.57","1011.806","27.09","43.11","NAN","0.0"],
    [1559209,"2026-06-15 07:20:00","11919","3.123","82.1","6.1739999999999995","97.0","1011.8689999999999","26.15","54.6","NAN","0.0"],
    [1559210,"2026-06-15 07:30:00","11920","3.415","61.34","6.435","62.58","1011.9839999999999","25.73","55.95","NAN","0.0"],
    [1559211,"2026-06-15 07:40:00","11921","2.6719999999999997","47.12","5.749","53.89","1011.931","26.48","48.58","NAN","0.0"],
    [1559212,"2026-06-15 07:50:00","11922","1.8840000000000001","62.46","4.41","75.16","1011.9760000000001","27.51","43.72","NAN","0.0"],
    [1559213,"2026-06-15 08:00:00","11923","2.5469999999999997","62.68","5.063","60.32","1011.8739999999999","27.77","40.16","NAN","0.0"],
    [1559214,"2026-06-15 08:10:00","11924","3.2889999999999997","84.7","6.305","49.05","1011.938","27.72","39.18","NAN","0.0"],
    [1559215,"2026-06-15 08:20:00","11925","3.073","77.76","5.553","59.57","1012.043","27.19","43.38","NAN","0.0"],
    [1559216,"2026-06-15 08:30:00","11926","2.012","82.7","4.475","93.5","1012.048","27.68","43.17","NAN","0.0"],
    [1559217,"2026-06-15 08:40:00","11927","2.992","85.0","5.553","56.33","1012.0930000000001","27.72","41.74","NAN","0.0"],
    [1559218,"2026-06-15 08:50:00","11928","2.173","90.3","4.181","73.52","1012.21","27.56","44.62","NAN","0.0"],
    [1559219,"2026-06-15 09:00:00","11929","1.943","103.4","3.43","105.6","1012.34","27.48","47.23","NAN","0.0"],
    [1559220,"2026-06-15 09:10:00","11930","1.715","141.9","3.495","175.1","1012.497","26.93","51.84","NAN","0.0"],
    [1559221,"2026-06-15 09:20:00","11931","2.687","141.5","4.769","160.7","1012.693","26.64","52.17","NAN","0.0"],
    [1559222,"2026-06-15 09:30:00","11932","2.95","137.1","5.749","114.9","1012.7310000000001","26.25","52.32","NAN","0.0"],
    [1559223,"2026-06-15 09:40:00","11933","2.009","141.4","5.325","101.0","1012.942","26.92","51.35","NAN","0.0"],
    [1559224,"2026-06-15 09:50:00","11934","2.7880000000000003","150.4","4.867","142.3","1012.9680000000001","26.38","53.58","NAN","0.0"],
    [1559225,"2026-06-15 10:00:00","11935","2.329","128.8","4.606","101.1","1013.023","26.41","49.98","NAN","0.0"],
    [1559226,"2026-06-15 10:10:00","11936","2.557","156.7","4.573","170.7","1013.196","26.36","52.19","NAN","0.0"],
    [1559227,"2026-06-15 10:20:00","11937","2.2319999999999998","180.0","4.573","171.6","1013.253","26.39","54.71","NAN","0.0"],
    [1559228,"2026-06-15 10:30:00","11938","2.115","187.7","3.887","181.0","1013.327","26.42","57.02","NAN","0.0"],
    [1559229,"2026-06-15 10:40:00","11939","1.9069999999999998","182.9","3.43","170.6","1013.2689999999999","25.98","59.49","NAN","0.0"],
    [1559230,"2026-06-15 10:50:00","11940","1.614","192.8","3.463","213.2","1013.347","26.24","58.98","NAN","0.0"],
    [1559231,"2026-06-15 11:00:00","11941","1.696","182.2","3.071","182.1","1013.408","26.41","55.72","NAN","0.0"],
    [1559232,"2026-06-15 11:10:00","11942","1.349","179.6","2.7769999999999997","200.2","1013.4730000000001","26.7","53.35","NAN","0.0"],
    [1559233,"2026-06-15 11:20:00","11943","1.676","127.7","2.9730000000000003","128.6","1013.62","27.3","48.44","NAN","0.0"],
    [1559234,"2026-06-15 11:30:00","11944","1.4140000000000001","182.4","2.9730000000000003","128.6","1013.716","27.29","49.42","NAN","0.0"],
    [1559235,"2026-06-15 11:40:00","11945","2.089","165.8","3.397","180.1","1013.6619999999999","26.77","50.79","NAN","0.0"],
    [1559236,"2026-06-15 11:50:00","11946","1.724","203.8","3.299","200.8","1013.6189999999999","27.3","49.22","NAN","0.0"],
    [1559237,"2026-06-15 12:00:00","11947","1.93","185.1","3.495","174.4","1013.5930000000001","27.04","48.78","NAN","0.0"],
    [1559238,"2026-06-15 12:10:00","11948","1.508","198.1","3.1689999999999996","160.6","1013.602","27.7","46.5","NAN","0.0"],
    [1559239,"2026-06-15 12:20:00","11949","1.7730000000000001","192.3","4.573","169.6","1013.666","27.53","44.75","NAN","0.0"],
    [1559240,"2026-06-15 12:30:00","11950","2.039","195.0","3.5610000000000004","220.2","1013.686","27.4","44.07","NAN","0.0"],
    [1559241,"2026-06-15 12:40:00","11951","2.273","181.5","4.083","181.9","1013.705","26.99","44.79","NAN","0.0"],
    [1559242,"2026-06-15 12:50:00","11952","2.623","174.9","4.2139999999999995","183.6","1013.712","26.49","46.78","NAN","0.0"],
    [1559243,"2026-06-15 13:00:00","11953","2.403","171.3","4.181","168.5","1013.7130000000001","26.58","47.14","NAN","0.0"],
    [1559244,"2026-06-15 13:10:00","11954","1.995","184.4","3.7889999999999997","165.6","1013.7280000000001","26.71","47.02","NAN","0.0"],
    [1559245,"2026-06-15 13:20:00","11955","2.251","184.4","3.659","175.1","1013.7239999999999","26.99","45.24","NAN","0.0"],
    [1559246,"2026-06-15 13:30:00","11956","2.318","176.7","3.9530000000000003","165.5","1013.837","26.7","46.32","NAN","0.0"],
    [1559247,"2026-06-15 13:40:00","11957","2.181","175.9","4.1160000000000005","177.7","1013.7769999999999","26.78","46.77","NAN","0.0"],
    [1559248,"2026-06-15 13:50:00","11958","1.8359999999999999","183.9","3.659","193.6","1013.7669999999999","26.91","44.96","NAN","0.0"],
    [1559249,"2026-06-15 14:00:00","11959","1.87","184.1","4.279","207.3","1013.7289999999999","26.8","45.51","NAN","0.0"],
    [1559250,"2026-06-15 14:10:00","11960","1.6","186.8","3.365","157.0","1013.7869999999999","26.91","43.69","NAN","0.0"],
    [1559251,"2026-06-15 14:20:00","11961","1.5619999999999998","188.5","4.279","156.3","1013.77","26.74","42.14","NAN","0.0"],
    [1559252,"2026-06-15 14:30:00","11962","1.399","195.5","3.365","204.8","1013.7180000000001","27.28","39.94","NAN","0.0"],
    [1559253,"2026-06-15 14:40:00","11963","1.325","187.8","2.5810000000000004","158.9","1013.66","27.67","37.35","NAN","0.0"],
    [1559254,"2026-06-15 14:50:00","11964","1.905","166.9","3.495","173.9","1013.555","27.16","37.32","NAN","0.0"],
    [1559255,"2026-06-15 15:00:00","11965","2.276","174.5","3.7889999999999997","175.4","1013.5110000000001","26.94","37.47","NAN","0.0"],
    [1559256,"2026-06-15 15:10:00","11966","2.116","176.9","4.018","161.1","1013.488","26.44","41.4","NAN","0.0"],
    [1559257,"2026-06-15 15:20:00","11967","1.72","184.4","3.201","174.6","1013.36","26.75","40.22","NAN","0.0"],
    [1559258,"2026-06-15 15:30:00","11968","1.599","175.4","3.299","175.2","1013.334","26.59","37.24","NAN","0.0"],
    [1559259,"2026-06-15 15:40:00","11969","1.672","176.7","3.1689999999999996","162.4","1013.238","26.67","35.06","NAN","0.0"],
    [1559260,"2026-06-15 15:50:00","11970","1.286","172.7","2.9730000000000003","172.6","1013.253","26.57","34.08","NAN","0.0"],
    [1559261,"2026-06-15 16:00:00","11971","1.473","173.6","2.483","162.9","1013.2560000000001","26.57","35.21","NAN","0.0"],
    [1559262,"2026-06-15 16:10:00","11972","1.482","181.9","2.385","176.8","1013.2719999999999","26.39","40.44","NAN","0.0"],
    [1559263,"2026-06-15 16:20:00","11973","1.1440000000000001","167.4","2.417","178.4","1013.306","26.35","36.35","NAN","0.0"],
    [1559264,"2026-06-15 16:30:00","11974","1.204","164.5","1.8619999999999999","172.3","1013.303","26.58","35.18","NAN","0.0"],
    [1559265,"2026-06-15 16:40:00","11975","1.511","176.0","2.287","177.8","1013.28","26.64","34.65","NAN","0.0"],
    [1559266,"2026-06-15 16:50:00","11976","1.189","193.6","2.0580000000000003","184.8","1013.284","26.99","32.35","NAN","0.0"],
    [1559267,"2026-06-15 17:00:00","11977","1.525","162.7","2.7769999999999997","148.8","1013.257","27.28","29.62","NAN","0.0"],
    [1559268,"2026-06-15 17:10:00","11978","1.734","172.1","2.679","159.1","1013.23","27.29","31.64","NAN","0.0"],
    [1559269,"2026-06-15 17:20:00","11979","1.45","177.2","2.025","179.4","1013.221","27.17","30.8","NAN","0.0"],
    [1559270,"2026-06-15 17:30:00","11980","1.742","180.9","2.875","178.9","1013.033","27.14","31.72","NAN","0.0"],
    [1559271,"2026-06-15 17:40:00","11981","1.571","177.5","2.613","185.0","1013.095","27.03","35.65","NAN","0.0"],
    [1559272,"2026-06-15 17:50:00","11982","0.9490000000000001","160.7","1.895","152.6","1013.192","26.98","40.01","NAN","0.0"],
    [1559273,"2026-06-15 18:00:00","11983","1.415","147.0","2.7110000000000003","163.4","1013.273","26.97","39.24","NAN","0.0"],
    [1559274,"2026-06-15 18:10:00","11984","1.044","153.2","1.993","172.7","1013.275","26.83","40.8","NAN","0.0"],
    [1559275,"2026-06-15 18:20:00","11985","1.0390000000000001","145.2","2.123","141.7","1013.284","26.94","39.06","NAN","0.0"],
    [1559276,"2026-06-15 18:30:00","11986","1.212","162.7","2.385","167.5","1013.283","26.77","37","NAN","0.0"],
    [1559277,"2026-06-15 18:40:00","11987","1.46","168.2","2.123","175.3","1013.284","26.65","34.74","NAN","0.0"],
    [1559278,"2026-06-15 18:50:00","11988","1.016","171.1","2.221","176.9","1013.2869999999999","26.69","36.39","NAN","0.0"],
    [1559279,"2026-06-15 19:00:00","11989","0.721","161.2","1.568","179.1","1013.301","26.32","44.49","NAN","0.0"],
    [1559280,"2026-06-15 19:10:00","11990","0.79","167.5","1.47","160.7","1013.375","26.04","48.15","NAN","0.0"],
    [1559281,"2026-06-15 19:20:00","11991","0.381","161.4","1.013","178.6","1013.432","26.03","48.76","NAN","0.0"],
    [1559282,"2026-06-15 19:30:00","11992","0.168","181.6","0.915","174.8","1013.341","26.32","44.67","NAN","0.0"],
    [1559283,"2026-06-15 19:40:00","11993","0.915","233.7","2.613","260.3","1013.3969999999999","27.01","34.43","NAN","0.0"],
    [1559284,"2026-06-15 19:50:00","11994","0.7559999999999999","245.0","2.189","253.9","1013.3810000000001","27.29","34.02","NAN","0.0"],
    [1559285,"2026-06-15 20:00:00","11995","0.83","231.6","2.515","245.0","1013.53","27.43","33.44","NAN","0.0"],
    [1559286,"2026-06-15 20:10:00","11996","0.7929999999999999","230.5","1.568","264.0","1013.597","27.08","33.3","NAN","0.0"],
    [1559287,"2026-06-15 20:20:00","11997","0.955","244.2","2.45","234.7","1013.803","27.37","30.27","NAN","0.0"],
    [1559288,"2026-06-15 20:30:00","11998","1.3130000000000002","249.1","2.7439999999999998","250.4","1014.044","27.35","29.4","NAN","0.0"],
    [1559289,"2026-06-15 20:40:00","11999","1.265","246.3","2.842","235.7","1014.262","27.26","30.3","NAN","0.0"],
    [1559290,"2026-06-15 20:50:00","12000","1.266","254.3","2.6460000000000004","258.2","1014.334","27.17","31.18","NAN","0.0"],
    [1559291,"2026-06-15 21:00:00","12001","0.706","242.1","1.764","237.8","1014.3710000000001","27.12","31.81","NAN","0.0"],
    [1559292,"2026-06-15 21:10:00","12002","0.632","248.2","1.5030000000000001","256.5","1014.367","27.16","32.06","NAN","0.0"],
    [1559293,"2026-06-15 21:20:00","12003","0.706","266.4","1.797","255.6","1014.462","27.16","32.12","NAN","0.0"],
    [1559294,"2026-06-15 21:30:00","12004","0.361","268.3","1.3719999999999999","280.4","1014.457","27.33","32.38","NAN","0.0"],
    [1559295,"2026-06-15 21:40:00","12005","0.27","290.1","1.143","306.1","1014.456","27.63","32.08","NAN","0.0"],
    [1559296,"2026-06-15 21:50:00","12006","0.529","124.3","1.078","107.6","1014.446","27.13","36.03","NAN","0.0"],
    [1559297,"2026-06-15 22:00:00","12007","0.134","107.4","0.8170000000000001","109.4","1014.372","26.64","37.23","NAN","0.0"],
    [1559298,"2026-06-15 22:10:00","12008","0.0","0.0","0.0","0.0","1014.319","26.67","35.48","NAN","0.0"],
    [1559299,"2026-06-15 22:20:00","12009","0.032","198.9","0.523","204.6","1014.325","26.54","35.84","NAN","0.0"],
    [1559300,"2026-06-15 22:30:00","12010","0.24","197.2","0.98","187.3","1014.334","26.41","36.85","NAN","0.0"],
    [1559301,"2026-06-15 22:40:00","12011","0.603","185.2","0.915","198.8","1014.33","25.84","41.62","NAN","0.0"],
    [1559302,"2026-06-15 22:50:00","12012","0.052000000000000005","95.5","0.457","80.1","1014.3330000000001","25.67","42.32","NAN","0.0"],
    [1559303,"2026-06-15 23:00:00","12013","0.0","0.0","0.0","0.0","1014.325","25.7","40.06","NAN","0.0"],
    [1559304,"2026-06-15 23:10:00","12014","0.055","227.4","0.555","263.5","1014.305","25.65","44.1","NAN","0.0"],
    [1559305,"2026-06-15 23:20:00","12015","0.11","72.37","0.7190000000000001","72.68","1014.2139999999999","25.57","43.92","NAN","0.0"],
    [1559306,"2026-06-15 23:30:00","12016","0.24100000000000002","101.0","0.915","264.7","1014.183","25.51","43.15","NAN","0.0"],
    [1559307,"2026-06-15 23:40:00","12017","0.018000000000000002","274.5","0.359","251.3","1014.118","25.99","39.82","NAN","0.0"],
    [1559308,"2026-06-15 23:50:00","12018","0.3","75.82","0.7509999999999999","51.23","1014.069","25.83","39.25","NAN","0.0"],
    [1559309,"2026-06-16 00:00:00","12019","0.166","39.73","0.8490000000000001","26.98","1013.97","26","35.3","NAN","0.0"],
    [1559310,"2026-06-16 00:10:00","12020","0.017","34.07","0.359","46.34","1013.957","26.15","35.37","NAN","0.0"],
    [1559311,"2026-06-16 00:20:00","12021","0.0","0.0","0.0","0.0","1013.953","26.03","36.22","NAN","0.0"],
    [1559312,"2026-06-16 00:30:00","12022","0.048","36.52","0.621","23.65","1013.9680000000001","25.78","38.8","NAN","0.0"],
    [1559313,"2026-06-16 00:40:00","12023","0.069","25.54","0.588","19.58","1013.966","25.78","36.23","NAN","0.0"],
    [1559314,"2026-06-16 00:50:00","12024","0.153","72.83","0.555","55.09","1013.904","25.84","37.24","NAN","0.0"],
    [1559315,"2026-06-16 01:00:00","12025","0.13699999999999998","28.91","0.8170000000000001","13.51","1013.8960000000001","25.83","35.8","NAN","0.0"],
    [1559316,"2026-06-16 01:10:00","12026","0.045","95.3","0.49","242.2","1013.9639999999999","26.18","35.25","NAN","0.0"],
    [1559317,"2026-06-16 01:20:00","12027","0.079","232.8","0.621","228.7","1013.972","25.8","36.08","NAN","0.0"],
    [1559318,"2026-06-16 01:30:00","12028","0.085","102.5","0.621","86.5","1013.924","25.47","38.11","NAN","0.0"],
    [1559319,"2026-06-16 01:40:00","12029","0.032","131.7","0.523","131.5","1013.847","25.38","39.38","NAN","0.0"],
    [1559320,"2026-06-16 01:50:00","12030","0.449","217.2","1.47","197.3","1013.8689999999999","25.63","36.98","NAN","0.0"],
    [1559321,"2026-06-16 02:00:00","12031","0.8290000000000001","202.7","1.633","208.4","1013.9630000000001","25.09","49.86","NAN","0.0"],
    [1559322,"2026-06-16 02:10:00","12032","0.179","169.8","0.915","175.5","1014.0060000000001","24.49","53.93","NAN","0.0"],
    [1559323,"2026-06-16 02:20:00","12033","0.28800000000000003","159.3","0.784","181.2","1014.0930000000001","24.47","53.47","NAN","0.0"],
    [1559324,"2026-06-16 02:30:00","12034","0.099","80.3","0.523","71.98","1014.096","24.42","52.96","NAN","0.0"],
    [1559325,"2026-06-16 02:40:00","12035","0.032","91.9","0.327","90.2","1014.096","24.41","52.21","NAN","0.0"],
    [1559326,"2026-06-16 02:50:00","12036","0.057","72.0","0.359","43.2","1014.078","24.54","48.4","NAN","0.0"],
    [1559327,"2026-06-16 03:00:00","12037","0.316","64.44","0.784","53.36","1014.087","24.3","51.74","NAN","0.0"],
    [1559328,"2026-06-16 03:10:00","12038","0.374","82.8","1.176","91.3","1014.183","24.24","57.56","NAN","0.0"],
    [1559329,"2026-06-16 03:20:00","12039","0.581","26.18","1.47","33.51","1014.255","23.98","47.39","NAN","0.0"],
    [1559330,"2026-06-16 03:30:00","12040","0.418","52.31","1.045","89.6","1014.34","24.15","37.36","NAN","0.0"],
    [1559331,"2026-06-16 03:40:00","12041","0.37799999999999995","345.9","0.9470000000000001","305.5","1014.415","24.11","37","NAN","0.0"],
    [1559332,"2026-06-16 03:50:00","12042","0.129","73.45","0.457","6.617999999999999","1014.5369999999999","24.03","39.16","NAN","0.0"],
    [1559333,"2026-06-16 04:00:00","12043","0.33","352.7","0.98","3.3489999999999998","1014.674","23.81","37.66","NAN","0.0"],
    [1559334,"2026-06-16 04:10:00","12044","0.815","21.42","1.9269999999999998","20.16","1014.7710000000001","24.03","37.31","NAN","0.0"],
    [1559335,"2026-06-16 04:20:00","12045","1.21","0.442","1.895","352.2","1014.841","23.62","38.89","NAN","0.0"],
    [1559336,"2026-06-16 04:30:00","12046","1.083","358.3","2.156","18.16","1014.8860000000001","23.49","39.14","NAN","0.0"],
    [1559337,"2026-06-16 04:40:00","12047","0.7490000000000001","347.9","1.797","305.3","1014.898","23.86","38.33","NAN","0.0"],
    [1559338,"2026-06-16 04:50:00","12048","0.514","344.8","1.405","30.17","1015.063","24.5","36.95","NAN","0.0"],
    [1559339,"2026-06-16 05:00:00","12049","0.43","216.3","1.143","228.3","1015.1569999999999","24.73","40.28","NAN","0.0"],
    [1559340,"2026-06-16 05:10:00","12050","0.662","258.1","2.123","281.6","1015.2539999999999","24.97","37.51","NAN","0.0"],
    [1559341,"2026-06-16 05:20:00","12051","0.331","298.2","1.209","300.7","1015.3389999999999","25.76","36.5","NAN","0.0"],
    [1559342,"2026-06-16 05:30:00","12052","0.618","330.2","1.601","310.1","1015.321","25.94","37.13","NAN","0.0"],
    [1559343,"2026-06-16 05:40:00","12053","0.616","31.3","1.339","40.95","1015.3910000000001","26.03","36.98","NAN","0.0"],
    [1559344,"2026-06-16 05:50:00","12054","0.43799999999999994","13.7","1.699","356.7","1015.5889999999999","26.77","35.21","NAN","0.0"],
    [1559345,"2026-06-16 06:00:00","12055","0.597","17.7","2.0580000000000003","26.18","1015.7230000000001","26.74","35.65","NAN","0.0"],
    [1559346,"2026-06-16 06:10:00","12056","1.1420000000000001","11.0","2.8089999999999997","24.28","1015.8510000000001","26.49","36.29","NAN","0.0"],
    [1559347,"2026-06-16 06:20:00","12057","1.046","7.343999999999999","2.842","17.93","1016.028","26.63","36.21","NAN","0.0"],
    [1559348,"2026-06-16 06:30:00","12058","0.813","358.3","1.535","6.728","1016.176","27.16","35.08","NAN","0.0"],
    [1559349,"2026-06-16 06:40:00","12059","0.55","42.3","1.4369999999999998","58.07","1016.25","27.86","34.23","NAN","0.0"],
    [1559350,"2026-06-16 06:50:00","12060","0.934","81.1","1.7309999999999999","67.23","1016.34","28","33.84","NAN","0.0"],
    [1559351,"2026-06-16 07:00:00","12061","1.112","147.1","2.025","160.8","1016.4680000000001","27.38","39.13","NAN","0.0"],
    [1559352,"2026-06-16 07:10:00","12062","0.733","172.6","1.307","166.3","1016.543","26.72","43.05","NAN","0.0"],
    [1559353,"2026-06-16 07:20:00","12063","0.7070000000000001","183.1","1.209","186.7","1016.6669999999999","27.37","41.45","NAN","0.0"],
    [1559354,"2026-06-16 07:30:00","12064","0.7120000000000001","178.0","1.176","159.8","1016.703","27.73","39.77","NAN","0.0"],
    [1559355,"2026-06-16 07:40:00","12065","0.7440000000000001","192.4","1.209","181.4","1016.7669999999999","28.23","38.57","NAN","0.0"],
    [1559356,"2026-06-16 07:50:00","12066","0.8059999999999999","182.9","1.405","174.2","1016.8910000000001","28.5","35.91","NAN","0.0"],
    [1559357,"2026-06-16 08:00:00","12067","0.7559999999999999","156.8","1.3719999999999999","155.6","1016.942","28.78","32.48","NAN","0.0"],
    [1559358,"2026-06-16 08:10:00","12068","0.982","142.5","1.96","111.5","1016.94","29.16","29.95","NAN","0.0"],
    [1559359,"2026-06-16 08:20:00","12069","1.0090000000000001","135.9","2.189","136.8","1016.952","29.29","29.85","NAN","0.0"],
    [1559360,"2026-06-16 08:30:00","12070","1.173","121.9","2.385","117.6","1017.049","29.44","29.37","NAN","0.0"],
    [1559361,"2026-06-16 08:40:00","12071","0.9390000000000001","116.4","2.221","128.6","1017.064","29.59","29.46","NAN","0.0"],
    [1559362,"2026-06-16 08:50:00","12072","1.227","107.6","2.319","137.6","1017.1419999999999","29.53","29","NAN","0.0"],
    [1559363,"2026-06-16 09:00:00","12073","1.314","123.3","2.221","120.5","1017.184","29.66","28.61","NAN","0.0"],
    [1559364,"2026-06-16 09:10:00","12074","1.226","135.0","2.8089999999999997","103.4","1017.191","29.37","28.79","NAN","0.0"],
    [1559365,"2026-06-16 09:20:00","12075","1.276","145.4","2.613","145.0","1017.206","29.46","28.8","NAN","0.0"],
    [1559366,"2026-06-16 09:30:00","12076","1.6580000000000001","147.3","2.842","152.9","1017.319","29.17","29.41","NAN","0.0"],
    [1559367,"2026-06-16 09:40:00","12077","1.3969999999999998","128.0","2.221","130.3","1017.428","29.06","29.8","NAN","0.0"],
    [1559368,"2026-06-16 09:50:00","12078","1.4369999999999998","127.5","2.5810000000000004","149.4","1017.525","29.04","29.96","NAN","0.0"],
    [1559369,"2026-06-16 10:00:00","12079","1.296","120.2","2.123","133.2","1017.627","29.15","29.95","NAN","0.0"],
    [1559370,"2026-06-16 10:10:00","12080","1.4240000000000002","125.7","2.613","110.4","1017.687","28.98","29.96","NAN","0.0"],
    [1559371,"2026-06-16 10:20:00","12081","1.335","125.7","2.548","94.2","1017.7189999999999","29.26","29.85","NAN","0.0"],
    [1559372,"2026-06-16 10:30:00","12082","1.564","152.4","2.9730000000000003","163.4","1017.826","29.2","29.78","NAN","0.0"],
    [1559373,"2026-06-16 10:40:00","12083","1.5530000000000002","144.6","2.6460000000000004","142.7","1017.936","28.95","30.29","NAN","0.0"],
    [1559374,"2026-06-16 10:50:00","12084","2.127","145.7","3.201","111.3","1018.1010000000001","28.96","31.54","NAN","0.0"],
    [1559375,"2026-06-16 11:00:00","12085","2.127","128.0","3.43","149.1","1018.155","28.77","32.68","NAN","0.0"],
    [1559376,"2026-06-16 11:10:00","12086","2.134","139.5","4.1160000000000005","162.4","1018.15","28.59","33.28","NAN","0.0"],
    [1559377,"2026-06-16 11:20:00","12087","1.994","149.9","4.1160000000000005","111.8","1018.174","28.51","33.88","NAN","0.0"],
    [1559378,"2026-06-16 11:30:00","12088","1.571","192.5","2.7110000000000003","180.9","1018.19","28.99","34.92","NAN","0.0"],
    [1559379,"2026-06-16 11:40:00","12089","1.6880000000000002","189.1","3.071","204.8","1018.196","29.04","35.12","NAN","0.0"],
    [1559380,"2026-06-16 11:50:00","12090","1.825","155.6","4.247","155.3","1018.195","28.65","37.34","NAN","0.0"],
    [1559381,"2026-06-16 12:00:00","12091","2.33","157.0","3.9530000000000003","114.5","1018.193","28.05","39.23","NAN","0.0"],
    [1559382,"2026-06-16 12:10:00","12092","2.155","146.3","3.299","166.0","1018.133","27.78","41.41","NAN","0.0"],
    [1559383,"2026-06-16 12:20:00","12093","1.976","155.0","3.7569999999999997","164.6","1018.177","27.84","41.43","NAN","0.0"],
    [1559384,"2026-06-16 12:30:00","12094","2.14","154.8","3.365","142.3","1018.177","27.42","42.6","NAN","0.0"],
    [1559385,"2026-06-16 12:40:00","12095","2.322","150.0","3.5610000000000004","161.9","1018.21","27.35","44.92","NAN","0.0"],
    [1559386,"2026-06-16 12:50:00","12096","2.435","160.6","3.593","173.6","1018.207","26.73","48.72","NAN","0.0"],
    [1559387,"2026-06-16 13:00:00","12097","2.286","162.8","3.5610000000000004","173.4","1018.2260000000001","26.71","50","NAN","0.0"],
    [1559388,"2026-06-16 13:10:00","12098","2.207","146.5","3.397","122.8","1018.237","26.77","50.15","NAN","0.0"],
    [1559389,"2026-06-16 13:20:00","12099","2.229","143.0","3.887","119.9","1018.2460000000001","26.95","50.47","NAN","0.0"],
    [1559390,"2026-06-16 13:30:00","12100","1.8119999999999998","151.5","3.267","176.0","1018.2460000000001","26.79","52.09","NAN","0.0"],
    [1559391,"2026-06-16 13:40:00","12101","2.086","135.6","3.659","118.3","1018.328","26.97","52.39","NAN","0.0"],
    [1559392,"2026-06-16 13:50:00","12102","2.366","111.6","3.887","105.6","1018.24","26.32","55.88","NAN","0.0"],
    [1559393,"2026-06-16 14:00:00","12103","2.194","130.2","3.397","114.3","1018.2489999999999","26.2","56.45","NAN","0.0"],
    [1559394,"2026-06-16 14:10:00","12104","2.445","116.9","3.985","103.8","1018.2330000000001","26.23","56.14","NAN","0.0"],
    [1559395,"2026-06-16 14:20:00","12105","2.273","127.7","3.365","131.6","1018.17","25.97","57.12","NAN","0.0"],
    [1559396,"2026-06-16 14:30:00","12106","2.0540000000000003","137.2","3.5610000000000004","166.7","1018.159","25.94","57.65","NAN","0.0"],
    [1559397,"2026-06-16 14:40:00","12107","2.307","122.7","3.43","110.0","1018.054","26.2","55.96","NAN","0.0"],
    [1559398,"2026-06-16 14:50:00","12108","2.3","118.1","3.234","99.5","1017.953","25.9","56.74","NAN","0.0"],
    [1559399,"2026-06-16 15:00:00","12109","2.2030000000000003","122.8","3.7569999999999997","116.0","1017.802","26.01","57.54","NAN","0.0"],
    [1559400,"2026-06-16 15:10:00","12110","2.035","122.3","3.528","112.9","1017.818","26.32","57.43","NAN","0.0"],
    [1559401,"2026-06-16 15:20:00","12111","2.338","116.0","4.345","118.5","1017.9860000000001","26.23","58.43","NAN","0.0"],
    [1559402,"2026-06-16 15:30:00","12112","2.492","107.9","4.475","109.8","1018.058","26.05","59.58","NAN","0.0"],
    [1559403,"2026-06-16 15:40:00","12113","2.898","100.2","4.835","108.6","1018.1","25.83","58.57","NAN","0.0"],
    [1559404,"2026-06-16 15:50:00","12114","2.213","97.8","4.051","113.8","1018.1460000000001","26.15","58.71","NAN","0.0"],
    [1559405,"2026-06-16 16:00:00","12115","2.155","90.7","4.083","103.1","1018.2310000000001","26.14","58.9","NAN","0.0"],
    [1559406,"2026-06-16 16:10:00","12116","2.336","100.9","4.279","111.1","1018.198","26.08","58.09","NAN","0.0"],
    [1559407,"2026-06-16 16:20:00","12117","2.478","99.4","3.887","98.7","1018.053","25.64","58.15","NAN","0.0"],
    [1559408,"2026-06-16 16:30:00","12118","2.17","102.2","3.822","108.0","1018.023","25.65","57.78","NAN","0.0"],
    [1559409,"2026-06-16 16:40:00","12119","2.658","95.7","4.1160000000000005","93.6","1018.0219999999999","25.6","57.27","NAN","0.0"],
    [1559410,"2026-06-16 16:50:00","12120","2.391","96.7","4.1160000000000005","99.0","1018.0189999999999","25.47","57.62","NAN","0.0"],
    [1559411,"2026-06-16 17:00:00","12121","1.9680000000000002","93.8","3.6260000000000003","68.25","1018.0260000000001","25.45","56.34","NAN","0.0"],
    [1559412,"2026-06-16 17:10:00","12122","1.999","103.7","3.136","115.6","1018.0239999999999","25.44","57.52","NAN","0.0"],
    [1559413,"2026-06-16 17:20:00","12123","1.7819999999999998","109.9","3.234","117.3","1018.125","25.37","58.43","NAN","0.0"],
    [1559414,"2026-06-16 17:30:00","12124","1.8130000000000002","100.4","3.6260000000000003","98.9","1018.225","25.11","59.72","NAN","0.0"],
    [1559415,"2026-06-16 17:40:00","12125","1.963","97.8","3.332","97.3","1018.263","25.29","58.13","NAN","0.0"],
    [1559416,"2026-06-16 17:50:00","12126","1.819","92.6","3.0380000000000003","116.5","1018.306","25.26","58.26","NAN","0.0"],
    [1559417,"2026-06-16 18:00:00","12127","1.7109999999999999","82.0","3.5610000000000004","63.85","1018.432","25.33","57.27","NAN","0.0"],
    [1559418,"2026-06-16 18:10:00","12128","1.639","88.3","2.7110000000000003","79.62","1018.47","25.43","53.64","NAN","0.0"],
    [1559419,"2026-06-16 18:20:00","12129","1.35","92.1","2.221","102.0","1018.4689999999999","25.53","51.39","NAN","0.0"],
    [1559420,"2026-06-16 18:30:00","12130","1.64","87.6","2.483","56.31","1018.444","25.3","50.66","NAN","0.0"],
    [1559421,"2026-06-16 18:40:00","12131","1.089","109.6","2.254","109.8","1018.3969999999999","25.47","48.6","NAN","0.0"],
    [1559422,"2026-06-16 18:50:00","12132","0.9329999999999999","165.3","1.666","172.8","1018.413","25.11","52.12","NAN","0.0"],
    [1559423,"2026-06-16 19:00:00","12133","0.37799999999999995","170.4","0.784","183.9","1018.314","25.12","52.43","NAN","0.0"],
    [1559424,"2026-06-16 19:10:00","12134","0.341","181.3","0.6859999999999999","196.6","1018.324","25.12","53.78","NAN","0.0"],
    [1559425,"2026-06-16 19:20:00","12135","0.063","182.8","0.523","173.2","1018.444","25.28","53.25","NAN","0.0"],
    [1559426,"2026-06-16 19:30:00","12136","0.309","129.5","0.621","156.6","1018.453","25.23","52.43","NAN","0.0"],
    [1559427,"2026-06-16 19:40:00","12137","0.488","153.8","0.8490000000000001","145.9","1018.3839999999999","25.31","49.22","NAN","0.0"],
    [1559428,"2026-06-16 19:50:00","12138","0.63","188.5","1.078","199.8","1018.436","25.19","51.34","NAN","0.0"],
    [1559429,"2026-06-16 20:00:00","12139","0.166","143.8","0.621","139.1","1018.518","25.2","51.75","NAN","0.0"],
    [1559430,"2026-06-16 20:10:00","12140","0.392","116.3","0.882","101.0","1018.553","25.36","49.22","NAN","0.0"],
    [1559431,"2026-06-16 20:20:00","12141","0.449","132.4","0.7509999999999999","140.2","1018.581","25.47","51.14","NAN","0.0"],
    [1559432,"2026-06-16 20:30:00","12142","0.486","136.2","0.8170000000000001","142.4","1018.586","25.17","54.07","NAN","0.0"],
    [1559433,"2026-06-16 20:40:00","12143","0.261","128.7","0.653","121.5","1018.596","25.15","52.49","NAN","0.0"],
    [1559434,"2026-06-16 20:50:00","12144","0.153","136.0","0.588","114.0","1018.596","25.28","50.6","NAN","0.0"],
    [1559435,"2026-06-16 21:00:00","12145","0.256","187.5","0.588","190.3","1018.605","24.95","51.96","NAN","0.0"],
    [1559436,"2026-06-16 21:10:00","12146","0.354","179.5","0.7509999999999999","181.3","1018.6030000000001","24.81","52.18","NAN","0.0"],
    [1559437,"2026-06-16 21:20:00","12147","0.257","180.7","0.49","187.0","1018.5880000000001","24.96","45.18","NAN","0.0"],
    [1559438,"2026-06-16 21:30:00","12148","0.013000000000000001","124.1","0.294","123.3","1018.543","25.33","45.63","NAN","0.0"],
    [1559439,"2026-06-16 21:40:00","12149","0.157","162.3","0.8170000000000001","187.8","1018.466","25.3","47.95","NAN","0.0"],
    [1559440,"2026-06-16 21:50:00","12150","0.685","190.3","1.045","187.8","1018.6460000000001","24.79","54.54","NAN","0.0"],
    [1559441,"2026-06-16 22:00:00","12151","0.136","158.7","0.588","184.0","1018.827","24.63","58.82","NAN","0.0"],
    [1559442,"2026-06-16 22:10:00","12152","0.24","177.5","0.6859999999999999","180.8","1018.887","24.6","59.33","NAN","0.0"],
    [1559443,"2026-06-16 22:20:00","12153","0.488","172.6","0.9470000000000001","169.5","1018.937","24.36","57.45","NAN","0.0"],
    [1559444,"2026-06-16 22:30:00","12154","0.028999999999999998","137.3","0.457","149.5","1018.944","24.46","56.24","NAN","0.0"],
    [1559445,"2026-06-16 22:40:00","12155","0.272","112.3","0.588","117.3","1019.0169999999999","24.6","56.13","NAN","0.0"],
    [1559446,"2026-06-16 22:50:00","12156","0.32299999999999995","105.3","0.6859999999999999","94.8","1018.972","24.63","58.09","NAN","0.0"],
    [1559447,"2026-06-16 23:00:00","12157","0.127","129.9","0.7190000000000001","93.9","1018.942","24.53","56.68","NAN","0.0"],
    [1559448,"2026-06-16 23:10:00","12158","0.254","99.9","0.621","93.9","1018.934","24.78","53.65","NAN","0.0"],
    [1559449,"2026-06-16 23:20:00","12159","0.502","42.93","1.3719999999999999","35.0","1018.83","24.8","51.92","NAN","0.0"],
    [1559450,"2026-06-16 23:30:00","12160","0.853","40.12","1.7309999999999999","28.78","1018.827","24.96","49.74","NAN","0.0"],
    [1559451,"2026-06-16 23:40:00","12161","0.392","27.44","1.339","39.47","1018.827","25","48.09","NAN","0.0"],
    [1559452,"2026-06-16 23:50:00","12162","0.473","176.1","1.045","188.7","1018.835","24.99","49.12","NAN","0.0"],
    [1559453,"2026-06-17 00:00:00","12163","0.703","204.0","1.111","202.9","1018.939","24.41","52.82","NAN","0.0"],
    [1559454,"2026-06-17 00:10:00","12164","0.8320000000000001","191.1","1.7309999999999999","202.8","1018.939","24.29","62.27","NAN","0.0"],
    [1559455,"2026-06-17 00:20:00","12165","0.311","178.4","0.8170000000000001","177.7","1018.949","24.1","65.05","NAN","0.0"],
    [1559456,"2026-06-17 00:30:00","12166","0.012","175.3","0.392","173.3","1018.952","24","66.75","NAN","0.0"],
    [1559457,"2026-06-17 00:40:00","12167","0.52","185.5","1.013","196.0","1018.8939999999999","23.87","65.87","NAN","0.0"],
    [1559458,"2026-06-17 00:50:00","12168","0.755","239.1","1.764","256.5","1018.847","23.99","52.62","NAN","0.0"],
    [1559459,"2026-06-17 01:00:00","12169","0.4","264.0","1.307","246.2","1018.875","25.12","40.83","NAN","0.0"],
    [1559460,"2026-06-17 01:10:00","12170","0.43799999999999994","250.1","1.013","206.7","1018.885","25.11","40.3","NAN","0.0"],
    [1559461,"2026-06-17 01:20:00","12171","0.42200000000000004","265.8","1.176","240.8","1018.952","25.19","40.14","NAN","0.0"],
    [1559462,"2026-06-17 01:30:00","12172","0.7829999999999999","246.1","2.254","252.3","1019.057","24.99","40.76","NAN","0.0"],
    [1559463,"2026-06-17 01:40:00","12173","0.133","230.7","1.013","281.6","1019.076","24.79","40.88","NAN","0.0"],
    [1559464,"2026-06-17 01:50:00","12174","0.19399999999999998","131.9","1.013","143.1","1018.977","24.59","42.29","NAN","0.0"],
    [1559465,"2026-06-17 02:00:00","12175","0.39399999999999996","192.6","1.633","218.6","1018.949","24.66","42.25","NAN","0.0"],
    [1559466,"2026-06-17 02:10:00","12176","0.261","164.9","0.8490000000000001","192.2","1018.909","24.55","42.32","NAN","0.0"],
    [1559467,"2026-06-17 02:20:00","12177","0.722","213.2","1.764","234.5","1018.8919999999999","24.36","43.45","NAN","0.0"],
    [1559468,"2026-06-17 02:30:00","12178","0.29","247.3","1.013","204.7","1018.817","24.57","41.55","NAN","0.0"],
    [1559469,"2026-06-17 02:40:00","12179","0.32299999999999995","32.56","1.47","10.43","1018.668","24.54","43.07","NAN","0.0"],
    [1559470,"2026-06-17 02:50:00","12180","0.733","38.24","1.568","27.64","1018.585","23.77","47.25","NAN","0.0"],
    [1559471,"2026-06-17 03:00:00","12181","0.18","14.88","0.98","24.66","1018.403","23.52","47.94","NAN","0.0"],
    [1559472,"2026-06-17 03:10:00","12182","0.711","33.23","1.307","44.29","1018.329","23.51","48.12","NAN","0.0"],
    [1559473,"2026-06-17 03:20:00","12183","0.8759999999999999","32.84","1.633","32.4","1018.2489999999999","23.36","48.69","NAN","0.0"],
    [1559474,"2026-06-17 03:30:00","12184","0.889","14.68","2.025","357.7","1018.08","23.33","48.67","NAN","0.0"],
    [1559475,"2026-06-17 03:40:00","12185","0.49","354.4","1.764","28.01","1018.052","23.26","48.84","NAN","0.0"],
    [1559476,"2026-06-17 03:50:00","12186","0.376","32.9","1.013","340.1","1018.08","23.27","48.8","NAN","0.0"],
    [1559477,"2026-06-17 04:00:00","12187","0.079","97.5","0.359","97.1","1018.092","23.16","50.33","NAN","0.0"],
    [1559478,"2026-06-17 04:10:00","12188","0.0","0.0","0.0","0.0","1018.2769999999999","22.93","51.75","NAN","0.0"],
    [1559479,"2026-06-17 04:20:00","12189","0.003","263.4","0.196","263.7","1018.316","23.39","49.74","NAN","0.0"],
    [1559480,"2026-06-17 04:30:00","12190","0.0","0.0","0.0","0.0","1018.326","23.2","49.93","NAN","0.0"],
    [1559481,"2026-06-17 04:40:00","12191","0.0","0.0","0.0","0.0","1018.3510000000001","23.3","50.35","NAN","0.0"],
    [1559482,"2026-06-17 04:50:00","12192","0.043","146.4","0.457","177.5","1018.3989999999999","23.21","51.95","NAN","0.0"],
    [1559483,"2026-06-17 05:00:00","12193","0.001","173.3","0.359","178.8","1018.4680000000001","23.5","54.11","NAN","0.0"],
    [1559484,"2026-06-17 05:10:00","12194","0.0","0.0","0.0","0.0","1018.419","23.71","52.39","NAN","0.0"],
    [1559485,"2026-06-17 05:20:00","12195","0.302","72.11","1.274","59.98","1018.448","24","52.13","NAN","0.0"],
    [1559486,"2026-06-17 05:30:00","12196","0.311","80.2","1.078","82.7","1018.575","24.59","46.77","NAN","0.0"],
    [1559487,"2026-06-17 05:40:00","12197","0.413","181.7","0.7509999999999999","185.0","1018.794","24.48","49.24","NAN","0.0"],
    [1559488,"2026-06-17 05:50:00","12198","0.635","165.6","1.111","159.0","1018.794","24.36","52.4","NAN","0.0"],
    [1559489,"2026-06-17 06:00:00","12199","0.52","131.7","1.078","148.5","1018.8839999999999","24.63","49.53","NAN","0.0"],
    [1559490,"2026-06-17 06:10:00","12200","0.991","145.8","1.535","155.8","1019.01","24.63","50.5","NAN","0.0"],
    [1559491,"2026-06-17 06:20:00","12201","1.094","116.7","1.568","140.7","1019.01","24.42","49.28","NAN","0.0"],
    [1559492,"2026-06-17 06:30:00","12202","0.7440000000000001","76.11","1.633","57.93","1019.05","25.25","44.29","NAN","0.0"],
    [1559493,"2026-06-17 06:40:00","12203","0.58","116.7","0.9470000000000001","116.9","1019.2139999999999","25.53","43.28","NAN","0.0"],
    [1559494,"2026-06-17 06:50:00","12204","0.9129999999999999","90.2","1.405","109.7","1019.2389999999999","25.71","42.48","NAN","0.0"],
    [1559495,"2026-06-17 07:00:00","12205","1.268","43.73","2.123","48.05","1019.1510000000001","25.82","42.24","NAN","0.0"],
    [1559496,"2026-06-17 07:10:00","12206","1.102","63.65","2.287","64.48","1019.172","26.17","41.75","NAN","0.0"],
    [1559497,"2026-06-17 07:20:00","12207","1.2770000000000001","59.32","3.136","27.52","1019.185","26.89","39.55","NAN","0.0"],
    [1559498,"2026-06-17 07:30:00","12208","1.121","29.93","2.319","32.04","1019.221","26.99","38.79","NAN","0.0"],
    [1559499,"2026-06-17 07:40:00","12209","0.413","53.95","1.307","62.59","1019.202","27.85","37.52","NAN","0.0"],
    [1559500,"2026-06-17 07:50:00","12210","1.198","117.0","1.993","137.7","1019.199","27.95","39.22","NAN","0.0"],
    [1559501,"2026-06-17 08:00:00","12211","1.983","119.6","2.94","114.9","1019.185","26.76","43.25","NAN","0.0"],
    [1559502,"2026-06-17 08:10:00","12212","1.9040000000000001","111.9","2.679","112.7","1019.187","26.85","43.87","NAN","0.0"],
    [1559503,"2026-06-17 08:20:00","12213","1.787","125.0","3.103","116.7","1019.2189999999999","26.83","43.7","NAN","0.0"],
    [1559504,"2026-06-17 08:30:00","12214","1.6980000000000002","126.2","2.352","111.2","1019.4169999999999","26.35","47.23","NAN","0.0"],
    [1559505,"2026-06-17 08:40:00","12215","1.76","127.0","3.1689999999999996","114.6","1019.4889999999999","25.94","51.16","NAN","0.0"],
    [1559506,"2026-06-17 08:50:00","12216","1.994","129.9","3.136","148.5","1019.679","25.61","55.62","NAN","0.0"],
    [1559507,"2026-06-17 09:00:00","12217","1.9040000000000001","124.8","2.9730000000000003","116.4","1019.709","25.69","57.07","NAN","0.0"],
    [1559508,"2026-06-17 09:10:00","12218","1.8719999999999999","132.8","3.0380000000000003","180.4","1019.7080000000001","25.57","59.06","NAN","0.0"],
    [1559509,"2026-06-17 09:20:00","12219","1.837","134.9","2.7769999999999997","117.6","1019.7339999999999","25.45","63.93","NAN","0.0"],
    [1559510,"2026-06-17 09:30:00","12220","1.919","130.4","3.201","116.3","1019.898","25.72","63.09","NAN","0.0"],
    [1559511,"2026-06-17 09:40:00","12221","1.9880000000000002","130.4","2.94","117.2","1019.96","25.84","65.69","NAN","0.0"],
    [1559512,"2026-06-17 09:50:00","12222","1.824","119.1","2.6460000000000004","126.5","1019.914","25.46","67.68","NAN","0.0"],
    [1559513,"2026-06-17 10:00:00","12223","1.636","123.9","2.483","117.8","1019.966","25.79","63.92","NAN","0.0"],
    [1559514,"2026-06-17 10:10:00","12224","1.546","124.5","2.7110000000000003","116.1","1019.905","26.41","53.34","NAN","0.0"],
    [1559515,"2026-06-17 10:20:00","12225","1.501","132.6","2.352","105.7","1020.066","27.15","48.18","NAN","0.0"],
    [1559516,"2026-06-17 10:30:00","12226","1.656","140.2","2.9730000000000003","153.7","1020.128","27.49","45.94","NAN","0.0"],
    [1559517,"2026-06-17 10:40:00","12227","1.903","182.3","3.267","175.7","1020.1619999999999","27","55.2","NAN","0.0"],
    [1559518,"2026-06-17 10:50:00","12228","2.094","173.3","3.201","191.8","1020.194","26.4","56.33","NAN","0.0"],
    [1559519,"2026-06-17 11:00:00","12229","2.3080000000000003","174.9","3.5610000000000004","147.3","1020.1089999999999","26.39","51.58","NAN","0.0"],
    [1559520,"2026-06-17 11:10:00","12230","1.7519999999999998","181.1","2.5810000000000004","181.5","1020.0169999999999","26.78","48.15","NAN","0.0"],
    [1559521,"2026-06-17 11:20:00","12231","1.682","164.7","2.842","117.9","1019.997","27.32","50.81","NAN","0.0"],
    [1559522,"2026-06-17 11:30:00","12232","2.224","123.8","3.267","111.6","1020.122","26.92","56.21","NAN","0.0"],
    [1559523,"2026-06-17 11:40:00","12233","2.227","164.0","3.365","176.5","1020.2189999999999","26.47","63.55","NAN","0.0"],
    [1559524,"2026-06-17 11:50:00","12234","1.9880000000000002","149.1","3.103","174.0","1020.2289999999999","26.69","66.24","NAN","0.0"],
    [1559525,"2026-06-17 12:00:00","12235","2.13","164.1","3.6260000000000003","180.5","1020.238","26.46","69.68","NAN","0.0"],
    [1559526,"2026-06-17 12:10:00","12236","2.204","124.4","3.822","104.4","1020.204","26.3","72.96","NAN","0.0"],
    [1559527,"2026-06-17 12:20:00","12237","2.544","117.1","4.181","111.2","1020.24","25.89","75.49","NAN","0.0"],
    [1559528,"2026-06-17 12:30:00","12238","2.0140000000000002","139.1","3.332","146.8","1020.2289999999999","25.76","76.95","NAN","0.0"],
    [1559529,"2026-06-17 12:40:00","12239","2.372","122.1","4.051","116.7","1020.048","25.71","79.51","NAN","0.0"],
    [1559530,"2026-06-17 12:50:00","12240","2.271","125.8","3.5610000000000004","113.4","1020.0010000000001","25.41","82.8","NAN","0.0"],
    [1559531,"2026-06-17 13:00:00","12241","2.198","135.4","3.985","156.4","1019.993","25.71","81.9","NAN","0.0"],
    [1559532,"2026-06-17 13:10:00","12242","2.194","126.5","3.495","110.0","1020.056","26.04","80.7","NAN","0.0"],
    [1559533,"2026-06-17 13:20:00","12243","2.246","161.7","4.051","172.2","1020.2389999999999","25.87","82","NAN","0.0"],
    [1559534,"2026-06-17 13:30:00","12244","2.6910000000000003","176.6","4.345","182.8","1020.2689999999999","26.14","80.2","NAN","0.0"],
    [1559535,"2026-06-17 13:40:00","12245","2.11","180.9","3.92","152.3","1020.278","26.04","80.5","NAN","0.0"],
    [1559536,"2026-06-17 13:50:00","12246","2.475","182.8","4.312","174.9","1020.323","26.35","79.28","NAN","0.0"],
    [1559537,"2026-06-17 14:00:00","12247","2.628","177.4","3.6260000000000003","171.5","1020.2639999999999","25.7","80.6","NAN","0.0"],
    [1559538,"2026-06-17 14:10:00","12248","1.952","189.7","3.365","177.7","1020.215","25.9","78.9","NAN","0.0"],
    [1559539,"2026-06-17 14:20:00","12249","2.042","170.3","3.593","167.5","1020.079","25.95","77.28","NAN","0.0"],
    [1559540,"2026-06-17 14:30:00","12250","2.081","137.1","3.1689999999999996","107.8","1019.931","26","77.18","NAN","0.0"],
    [1559541,"2026-06-17 14:40:00","12251","2.0869999999999997","130.9","3.593","162.2","1019.855","25.72","80.3","NAN","0.0"],
    [1559542,"2026-06-17 14:50:00","12252","2.161","124.6","3.071","146.5","1019.758","25.65","80.4","NAN","0.0"],
    [1559543,"2026-06-17 15:00:00","12253","2.041","140.7","3.267","166.3","1019.6619999999999","25.73","78.8","NAN","0.0"],
    [1559544,"2026-06-17 15:10:00","12254","1.8259999999999998","122.3","3.136","105.0","1019.623","25.88","71.02","NAN","0.0"],
    [1559545,"2026-06-17 15:20:00","12255","2.146","134.6","3.365","120.8","1019.637","26.22","68.3","NAN","0.0"],
    [1559546,"2026-06-17 15:30:00","12256","2.074","129.1","3.299","106.7","1019.6189999999999","25.93","67.33","NAN","0.0"],
    [1559547,"2026-06-17 15:40:00","12257","2.051","124.9","3.6910000000000003","109.1","1019.4839999999999","25.92","70.84","NAN","0.0"],
    [1559548,"2026-06-17 15:50:00","12258","1.6969999999999998","117.0","2.8089999999999997","118.6","1019.29","25.66","71.21","NAN","0.0"],
    [1559549,"2026-06-17 16:00:00","12259","1.774","119.1","3.43","119.4","1019.2510000000001","25.93","67.52","NAN","0.0"],
    [1559550,"2026-06-17 16:10:00","12260","1.9280000000000002","127.3","3.136","112.3","1019.243","25.83","69.96","NAN","0.0"],
    [1559551,"2026-06-17 16:20:00","12261","1.61","107.0","3.267","110.4","1019.066","25.62","71.18","NAN","0.0"],
    [1559552,"2026-06-17 16:30:00","12262","1.629","110.0","2.875","93.6","1018.96","26.03","67.14","NAN","0.0"],
    [1559553,"2026-06-17 16:40:00","12263","1.651","110.5","3.071","89.2","1018.9","25.84","65.6","NAN","0.0"],
    [1559554,"2026-06-17 16:50:00","12264","1.8519999999999999","106.1","3.005","112.4","1018.7439999999999","26.11","62.62","NAN","0.0"],
    [1559555,"2026-06-17 17:00:00","12265","1.931","127.5","2.842","112.5","1018.7719999999999","25.79","66.08","NAN","0.0"],
    [1559556,"2026-06-17 17:10:00","12266","1.911","116.3","3.136","113.9","1018.8380000000001","25.38","69.88","NAN","0.0"],
    [1559557,"2026-06-17 17:20:00","12267","1.755","116.3","2.7110000000000003","93.3","1018.7230000000001","25.47","69.4","NAN","0.0"],
    [1559558,"2026-06-17 17:30:00","12268","1.845","115.6","3.071","114.8","1018.5880000000001","25.4","68.72","NAN","0.0"],
    [1559559,"2026-06-17 17:40:00","12269","1.825","90.4","2.9730000000000003","88.2","1018.3960000000001","25.68","64.52","NAN","0.0"],
    [1559560,"2026-06-17 17:50:00","12270","1.3330000000000002","85.5","2.417","96.2","1018.3939999999999","26.14","57.72","NAN","0.0"],
    [1559561,"2026-06-17 18:00:00","12271","1.334","104.9","2.123","99.1","1018.36","26.39","50.8","NAN","0.0"],
    [1559562,"2026-06-17 18:10:00","12272","1.536","88.5","3.299","35.02","1018.265","26.83","50.84","NAN","0.0"],
    [1559563,"2026-06-17 18:20:00","12273","1.399","51.78","2.8089999999999997","72.93","1018.28","26.94","46.84","NAN","0.0"],
    [1559564,"2026-06-17 18:30:00","12274","1.028","117.5","1.895","154.9","1018.3919999999999","26.92","50.53","NAN","0.0"],
    [1559565,"2026-06-17 18:40:00","12275","1.067","155.7","1.9269999999999998","157.9","1018.408","26.27","57.86","NAN","0.0"],
    [1559566,"2026-06-17 18:50:00","12276","1.4609999999999999","173.7","2.287","188.2","1018.439","25.93","56.01","NAN","0.0"],
    [1559567,"2026-06-17 19:00:00","12277","1.625","181.7","2.9730000000000003","173.6","1018.472","25.69","58.18","NAN","0.0"],
    [1559568,"2026-06-17 19:10:00","12278","1.094","153.5","2.417","177.4","1018.5039999999999","25.47","55.88","NAN","0.0"],
    [1559569,"2026-06-17 19:20:00","12279","1.114","125.5","1.7309999999999999","114.6","1018.451","25.42","64.73","NAN","0.0"],
    [1559570,"2026-06-17 19:30:00","12280","1.061","132.2","1.699","111.5","1018.459","24.91","71.17","NAN","0.0"],
    [1559571,"2026-06-17 19:40:00","12281","0.818","142.3","1.209","141.8","1018.43","24.68","72.27","NAN","0.0"],
    [1559572,"2026-06-17 19:50:00","12282","0.63","142.4","1.2409999999999999","164.4","1018.452","24.7","71.54","NAN","0.0"],
    [1559573,"2026-06-17 20:00:00","12283","0.524","122.6","0.9470000000000001","137.3","1018.4580000000001","24.76","70.24","NAN","0.0"],
    [1559574,"2026-06-17 20:10:00","12284","0.9790000000000001","123.1","1.764","107.9","1018.555","24.74","70.05","NAN","0.0"],
    [1559575,"2026-06-17 20:20:00","12285","0.618","110.6","1.274","102.5","1018.765","24.83","68","NAN","0.0"],
    [1559576,"2026-06-17 20:30:00","12286","0.9520000000000001","135.8","1.699","142.3","1018.925","24.9","67.93","NAN","0.0"],
    [1559577,"2026-06-17 20:40:00","12287","1.015","137.6","1.7309999999999999","151.3","1019.1089999999999","24.69","74.83","NAN","0.0"],
    [1559578,"2026-06-17 20:50:00","12288","0.971","138.4","1.666","142.5","1019.303","24.31","79.63","NAN","0.0"],
    [1559579,"2026-06-17 21:00:00","12289","1.1340000000000001","136.6","2.0580000000000003","137.0","1019.385","24.21","81.6","NAN","0.0"],
    [1559580,"2026-06-17 21:10:00","12290","0.833","131.2","1.8619999999999999","107.7","1019.418","24.13","82.7","NAN","0.0"],
    [1559581,"2026-06-17 21:20:00","12291","1.217","142.6","1.96","116.8","1019.578","24.11","83.6","NAN","0.0"],
    [1559582,"2026-06-17 21:30:00","12292","1.2690000000000001","170.7","2.548","161.9","1019.752","24.04","86.8","NAN","0.0"],
    [1559583,"2026-06-17 21:40:00","12293","0.696","172.6","1.764","175.0","1019.7489999999999","24.07","89","NAN","0.0"],
    [1559584,"2026-06-17 21:50:00","12294","1.281","140.0","1.96","98.9","1019.575","23.94","90.7","NAN","0.0"],
    [1559585,"2026-06-17 22:00:00","12295","0.586","136.8","1.2409999999999999","109.9","1019.467","23.8","93","NAN","0.0"],
    [1559586,"2026-06-17 22:10:00","12296","0.5720000000000001","153.9","1.078","165.8","1019.465","23.75","94.3","NAN","0.0"],
    [1559587,"2026-06-17 22:20:00","12297","0.317","106.9","0.9470000000000001","113.7","1019.488","23.7","95","NAN","0.0"],
    [1559588,"2026-06-17 22:30:00","12298","0.222","140.2","0.8170000000000001","124.4","1019.585","23.74","94.6","NAN","0.0"],
    [1559589,"2026-06-17 22:40:00","12299","0.652","173.3","1.209","124.5","1019.712","23.69","94.7","NAN","0.0"],
    [1559590,"2026-06-17 22:50:00","12300","0.784","178.4","1.405","184.4","1019.779","23.65","95.7","NAN","0.0"],
    [1559591,"2026-06-17 23:00:00","12301","0.909","188.9","1.895","178.6","1019.8710000000001","23.56","96.5","NAN","0.0"],
    [1559592,"2026-06-17 23:10:00","12302","0.74","170.4","1.339","174.5","1019.8389999999999","23.56","97.1","NAN","0.0"],
    [1559593,"2026-06-17 23:20:00","12303","0.317","177.8","0.882","198.3","1019.826","23.55","97.4","NAN","0.0"],
    [1559594,"2026-06-17 23:30:00","12304","0.525","147.5","1.3719999999999999","175.0","1019.811","23.42","97.2","NAN","0.0"],
    [1559595,"2026-06-17 23:40:00","12305","0.449","111.9","0.784","128.9","1019.7489999999999","23.43","97.1","NAN","0.0"],
    [1559596,"2026-06-17 23:50:00","12306","0.193","90.1","1.143","60.01","1019.701","23.31","96.6","NAN","0.0"],
    [1559597,"2026-06-18 00:00:00","12307","0.855","55.5","1.699","60.54","1019.567","23.37","94.8","NAN","0.0"],
    [1559598,"2026-06-18 00:10:00","12308","0.81","73.32","1.5030000000000001","59.78","1019.575","23.57","92.9","NAN","0.0"],
    [1559599,"2026-06-18 00:20:00","12309","0.812","73.06","1.47","59.72","1019.507","23.67","92.1","NAN","0.0"],
    [1559600,"2026-06-18 00:30:00","12310","1.074","63.05","1.895","73.31","1019.43","23.76","91.7","NAN","0.0"],
    [1559601,"2026-06-18 00:40:00","12311","0.7190000000000001","67.4","1.5030000000000001","60.33","1019.363","23.73","92","NAN","0.0"],
    [1559602,"2026-06-18 00:50:00","12312","0.7609999999999999","72.51","1.307","75.04","1019.398","23.66","91","NAN","0.0"],
    [1559603,"2026-06-18 01:00:00","12313","0.94","79.31","1.895","74.36","1019.323","23.73","91.4","NAN","0.0"],
    [1559604,"2026-06-18 01:10:00","12314","1.011","53.83","1.797","36.99","1019.1460000000001","23.55","93.5","NAN","0.0"],
    [1559605,"2026-06-18 01:20:00","12315","1.1179999999999999","62.33","2.189","66.38","1019.1060000000001","23.34","93.4","NAN","0.0"],
    [1559606,"2026-06-18 01:30:00","12316","1.102","56.12","2.189","62.69","1018.944","23.24","92.4","NAN","0.0"],
    [1559607,"2026-06-18 01:40:00","12317","0.6940000000000001","69.25","1.601","74.61","1018.932","23.27","91","NAN","0.0"],
    [1559608,"2026-06-18 01:50:00","12318","0.758","67.1","1.3719999999999999","58.28","1018.852","23.18","88.6","NAN","0.0"],
    [1559609,"2026-06-18 02:00:00","12319","0.6409999999999999","90.3","1.176","100.2","1018.952","23.18","83.8","NAN","0.0"],
    [1559610,"2026-06-18 02:10:00","12320","1.006","63.82","1.96","52.96","1018.877","23.2","76.7","NAN","0.0"],
    [1559611,"2026-06-18 02:20:00","12321","1.265","55.14","2.123","57.96","1018.842","23.03","69.4","NAN","0.0"],
    [1559612,"2026-06-18 02:30:00","12322","1.493","65.25","2.94","62.7","1018.937","23.03","67.37","NAN","0.0"],
    [1559613,"2026-06-18 02:40:00","12323","1.168","46.24","2.483","55.87","1018.947","23.02","68.6","NAN","0.0"],
    [1559614,"2026-06-18 02:50:00","12324","0.865","40.17","1.2409999999999999","34.68","1018.936","22.9","71.41","NAN","0.0"],
    [1559615,"2026-06-18 03:00:00","12325","0.9229999999999999","34.23","1.535","64.93","1018.817","22.9","72.83","NAN","0.0"],
    [1559616,"2026-06-18 03:10:00","12326","0.637","56.24","1.2409999999999999","46.69","1018.785","22.92","74.31","NAN","0.0"],
    [1559617,"2026-06-18 03:20:00","12327","0.619","44.32","1.176","62.6","1018.703","22.84","76.6","NAN","0.0"],
    [1559618,"2026-06-18 03:30:00","12328","0.061","42.55","0.523","35.83","1018.722","22.84","80.7","NAN","0.0"],
    [1559619,"2026-06-18 03:40:00","12329","0.19699999999999998","119.0","1.405","86.7","1018.672","22.8","83.2","NAN","0.0"],
    [1559620,"2026-06-18 03:50:00","12330","0.792","61.29","1.633","54.26","1018.5980000000001","22.75","86.5","NAN","0.0"],
    [1559621,"2026-06-18 04:00:00","12331","0.899","48.47","1.47","61.79","1018.5060000000001","22.53","83.9","NAN","0.0"],
    [1559622,"2026-06-18 04:10:00","12332","0.899","43.16","1.7309999999999999","69.11","1018.5010000000001","22.5","81.1","NAN","0.0"],
    [1559623,"2026-06-18 04:20:00","12333","0.8590000000000001","41.48","1.47","18.58","1018.4580000000001","22.53","78.24","NAN","0.0"],
    [1559624,"2026-06-18 04:30:00","12334","0.807","25.88","1.699","17.82","1018.329","22.57","77.53","NAN","0.0"],
    [1559625,"2026-06-18 04:40:00","12335","0.956","46.82","1.895","39.41","1018.252","22.61","76.46","NAN","0.0"],
    [1559626,"2026-06-18 04:50:00","12336","0.885","51.87","2.0580000000000003","28.41","1018.341","22.6","75.54","NAN","0.0"],
    [1559627,"2026-06-18 05:00:00","12337","0.91","49.59","2.123","24.66","1018.3839999999999","22.77","73.88","NAN","0.0"],
    [1559628,"2026-06-18 05:10:00","12338","0.862","59.5","3.136","34.52","1018.3610000000001","22.69","73.81","NAN","0.0"],
    [1559629,"2026-06-18 05:20:00","12339","0.625","67.9","1.4369999999999998","57.97","1018.568","22.93","74.13","NAN","0.0"],
    [1559630,"2026-06-18 05:30:00","12340","0.792","37.75","1.829","35.04","1018.665","23.12","74.11","NAN","0.0"],
    [1559631,"2026-06-18 05:40:00","12341","1.117","39.02","2.221","59.47","1018.605","23.14","73.8","NAN","0.0"],
    [1559632,"2026-06-18 05:50:00","12342","0.845","48.96","1.797","60.67","1018.562","23.49","70.9","NAN","0.0"],
    [1559633,"2026-06-18 06:00:00","12343","1.276","58.9","2.548","59.55","1018.553","23.79","65.89","NAN","0.0"],
    [1559634,"2026-06-18 06:10:00","12344","0.965","31.75","2.319","35.02","1018.5169999999999","23.97","64.42","NAN","0.0"],
    [1559635,"2026-06-18 06:20:00","12345","1.222","64.51","2.5810000000000004","34.17","1018.507","24.19","63.4","NAN","0.0"],
    [1559636,"2026-06-18 06:30:00","12346","1.0859999999999999","63.53","2.319","21.52","1018.6289999999999","24.73","60.43","NAN","0.0"],
    [1559637,"2026-06-18 06:40:00","12347","1.6340000000000001","93.6","3.234","116.3","1018.7510000000001","24.61","66.81","NAN","0.0"],
    [1559638,"2026-06-18 06:50:00","12348","1.681","95.4","3.201","110.8","1018.936","23.87","78.52","NAN","0.0"],
    [1559639,"2026-06-18 07:00:00","12349","1.591","106.2","2.7110000000000003","117.3","1019.13","23.55","81.3","NAN","0.0"],
    [1559640,"2026-06-18 07:10:00","12350","1.155","93.8","2.352","74.35","1019.206","23.83","80.1","NAN","0.0"],
    [1559641,"2026-06-18 07:20:00","12351","1.679","98.6","2.94","103.4","1019.21","23.92","78.76","NAN","0.0"],
    [1559642,"2026-06-18 07:30:00","12352","1.899","82.2","3.201","104.9","1019.2610000000001","23.88","79.09","NAN","0.0"],
    [1559643,"2026-06-18 07:40:00","12353","2.001","93.7","3.1689999999999996","116.1","1019.346","23.84","80.3","NAN","0.0"],
    [1559644,"2026-06-18 07:50:00","12354","1.859","92.8","3.43","69.87","1019.3860000000001","24.26","81.1","NAN","0.0"],
    [1559645,"2026-06-18 08:00:00","12355","2.302","109.3","4.149","110.3","1019.442","24.2","82.7","NAN","0.0"],
    [1559646,"2026-06-18 08:10:00","12356","2.484","118.7","4.051","113.1","1019.416","23.67","85.1","NAN","0.0"],
    [1559647,"2026-06-18 08:20:00","12357","2.2359999999999998","108.0","3.528","102.7","1019.502","24.18","83.5","NAN","0.0"],
    [1559648,"2026-06-18 08:30:00","12358","1.883","114.2","3.299","134.3","1019.59","24.12","84.3","NAN","0.0"],
    [1559649,"2026-06-18 08:40:00","12359","2.285","108.5","3.822","116.3","1019.53","24.1","84.3","NAN","0.0"],
    [1559650,"2026-06-18 08:50:00","12360","2.189","94.0","4.149","89.5","1019.584","24.24","83.5","NAN","0.0"],
    [1559651,"2026-06-18 09:00:00","12361","2.182","108.7","3.7889999999999997","111.4","1019.7130000000001","24.1","83.9","NAN","0.0"],
    [1559652,"2026-06-18 09:10:00","12362","2.392","102.9","3.887","106.9","1019.7330000000001","24.21","83.6","NAN","0.0"],
    [1559653,"2026-06-18 09:20:00","12363","2.6260000000000003","108.5","4.9","114.1","1019.7410000000001","24.14","83","NAN","0.0"],
    [1559654,"2026-06-18 09:30:00","12364","2.718","107.1","4.4430000000000005","103.9","1019.748","24.13","83","NAN","0.0"],
    [1559655,"2026-06-18 09:40:00","12365","2.923","109.3","5.227","117.8","1019.7539999999999","24.11","83.2","NAN","0.0"],
    [1559656,"2026-06-18 09:50:00","12366","3.005","100.4","5.782","103.6","1019.852","24.08","82.9","NAN","0.0"],
    [1559657,"2026-06-18 10:00:00","12367","3.265","104.2","5.1610000000000005","108.8","1019.939","24.09","82.3","NAN","0.0"],
    [1559658,"2026-06-18 10:10:00","12368","2.7039999999999997","105.5","4.377","105.2","1020.0189999999999","24.32","81.4","NAN","0.0"],
    [1559659,"2026-06-18 10:20:00","12369","2.718","105.5","4.247","121.3","1020.0169999999999","24.31","81","NAN","0.0"],
    [1559660,"2026-06-18 10:30:00","12370","2.6260000000000003","106.6","4.9","94.5","1020.04","24.38","80.7","NAN","0.0"],
    [1559661,"2026-06-18 10:40:00","12371","2.508","94.9","4.377","100.4","1020.062","24.63","78.47","NAN","0.0"],
    [1559662,"2026-06-18 10:50:00","12372","2.792","105.6","4.835","100.8","1019.953","24.35","80.2","NAN","0.0"],
    [1559663,"2026-06-18 11:00:00","12373","2.793","102.9","4.671","97.6","1019.872","24.32","80.5","NAN","0.0"],
    [1559664,"2026-06-18 11:10:00","12374","3.2510000000000003","107.6","4.933","106.6","1019.797","24.21","81.5","NAN","0.0"],
    [1559665,"2026-06-18 11:20:00","12375","2.4","105.8","4.541","109.3","1019.773","24.52","81.1","NAN","0.0"],
    [1559666,"2026-06-18 11:30:00","12376","2.456","98.7","4.41","71.07","1019.7760000000001","24.75","79.34","NAN","0.0"],
    [1559667,"2026-06-18 11:40:00","12377","2.503","98.0","5.325","106.7","1019.7410000000001","24.78","79.34","NAN","0.0"],
    [1559668,"2026-06-18 11:50:00","12378","2.5839999999999996","102.2","4.181","113.2","1019.625","25.44","76.67","NAN","0.0"],
    [1559669,"2026-06-18 12:00:00","12379","2.3","101.0","3.985","117.1","1019.618","25.08","78.54","NAN","0.0"],
    [1559670,"2026-06-18 12:10:00","12380","2.5989999999999998","101.4","4.737","100.7","1019.6610000000001","24.77","79.89","NAN","0.0"],
    [1559671,"2026-06-18 12:20:00","12381","2.535","93.5","4.2139999999999995","94.3","1019.561","25.07","78.62","NAN","0.0"],
    [1559672,"2026-06-18 12:30:00","12382","2.5860000000000003","101.3","4.9","110.5","1019.433","24.96","79.23","NAN","0.0"],
    [1559673,"2026-06-18 12:40:00","12383","2.5780000000000003","106.2","5.129","110.3","1019.331","24.96","79.84","NAN","0.0"],
    [1559674,"2026-06-18 12:50:00","12384","3.287","114.3","5.1610000000000005","108.7","1019.248","24.32","83","NAN","0.0"],
    [1559675,"2026-06-18 13:00:00","12385","2.949","106.0","4.737","103.3","1019.2389999999999","24.42","83.1","NAN","0.0"],
    [1559676,"2026-06-18 13:10:00","12386","2.6430000000000002","95.7","3.887","115.7","1019.046","24.78","81","NAN","0.0"],
    [1559677,"2026-06-18 13:20:00","12387","2.907","116.2","5.1610000000000005","111.2","1018.992","24.55","82.8","NAN","0.0"],
    [1559678,"2026-06-18 13:30:00","12388","2.7260000000000004","111.2","4.508","113.1","1018.9989999999999","24.74","81.5","NAN","0.0"],
    [1559679,"2026-06-18 13:40:00","12389","2.441","101.7","4.475","100.5","1019.0010000000001","25.05","80.3","NAN","0.0"],
    [1559680,"2026-06-18 13:50:00","12390","2.2640000000000002","98.8","4.671","94.3","1018.8939999999999","25.05","80.2","NAN","0.0"],
    [1559681,"2026-06-18 14:00:00","12391","2.6710000000000003","93.1","4.606","117.4","1018.8960000000001","24.91","80.8","NAN","0.0"],
    [1559682,"2026-06-18 14:10:00","12392","2.6260000000000003","105.4","4.247","118.2","1018.852","24.8","80.9","NAN","0.0"],
    [1559683,"2026-06-18 14:20:00","12393","2.548","105.6","4.606","115.5","1018.812","24.81","80.6","NAN","0.0"],
    [1559684,"2026-06-18 14:30:00","12394","3.1889999999999996","115.7","5.194","110.8","1018.7639999999999","24.66","81.2","NAN","0.0"],
    [1559685,"2026-06-18 14:40:00","12395","3.2060000000000004","111.7","4.933","98.8","1018.809","24.18","83","NAN","0.0"],
    [1559686,"2026-06-18 14:50:00","12396","2.907","105.1","5.2589999999999995","106.8","1018.7739999999999","24.23","83.2","NAN","0.0"],
    [1559687,"2026-06-18 15:00:00","12397","2.784","103.9","4.737","112.8","1018.7510000000001","24.44","81.7","NAN","0.0"],
    [1559688,"2026-06-18 15:10:00","12398","3.008","106.8","5.031000000000001","111.5","1018.66","24.54","81.5","NAN","0.0"],
    [1559689,"2026-06-18 15:20:00","12399","2.68","108.8","4.933","109.6","1018.52","24.35","83.2","NAN","0.0"],
    [1559690,"2026-06-18 15:30:00","12400","2.8310000000000004","110.8","5.422999999999999","108.6","1018.4730000000001","24.46","82.5","NAN","0.0"],
    [1559691,"2026-06-18 15:40:00","12401","3.051","98.3","4.835","95.9","1018.3839999999999","24.29","83.5","NAN","0.0"],
    [1559692,"2026-06-18 15:50:00","12402","2.8989999999999996","114.1","5.227","104.9","1018.304","24.39","83.4","NAN","0.0"],
    [1559693,"2026-06-18 16:00:00","12403","2.7030000000000003","101.1","5.194","113.4","1018.184","24.64","82.5","NAN","0.0"],
    [1559694,"2026-06-18 16:10:00","12404","2.633","94.0","4.933","62.28","1018.077","24.3","83.7","NAN","0.0"],
    [1559695,"2026-06-18 16:20:00","12405","2.86","98.8","4.181","119.7","1017.9","24.39","83.6","NAN","0.0"],
    [1559696,"2026-06-18 16:30:00","12406","2.998","93.8","4.802","105.8","1017.7439999999999","24.39","83.8","NAN","0.0"],
    [1559697,"2026-06-18 16:40:00","12407","2.69","87.0","4.279","66.54","1017.681","24.54","83.2","NAN","0.0"],
    [1559698,"2026-06-18 16:50:00","12408","2.9130000000000003","92.0","4.312","85.9","1017.562","24.33","84.4","NAN","0.0"],
    [1559699,"2026-06-18 17:00:00","12409","2.52","81.3","4.867","54.75","1017.3889999999999","24.43","84","NAN","0.0"],
    [1559700,"2026-06-18 17:10:00","12410","2.391","71.91","4.4430000000000005","60.93","1017.2739999999999","24.48","83.1","NAN","0.0"],
    [1559701,"2026-06-18 17:20:00","12411","2.513","83.0","4.312","83.3","1017.2589999999999","24.28","84.1","NAN","0.0"],
    [1559702,"2026-06-18 17:30:00","12412","2.8360000000000003","93.0","5.521","120.7","1017.175","24.39","83.5","NAN","0.0"],
    [1559703,"2026-06-18 17:40:00","12413","2.763","90.3","4.606","98.9","1017.2189999999999","24.37","83.1","NAN","0.0"],
    [1559704,"2026-06-18 17:50:00","12414","2.492","87.7","4.377","90.4","1017.284","24.3","83.4","NAN","0.0"],
    [1559705,"2026-06-18 18:00:00","12415","2.4459999999999997","77.55","4.247","65.29","1017.296","24.11","85.5","NAN","0.0"],
    [1559706,"2026-06-18 18:10:00","12416","2.355","89.9","3.822","108.6","1017.291","24.13","85.1","NAN","0.0"],
    [1559707,"2026-06-18 18:20:00","12417","2.3209999999999997","89.8","3.463","94.3","1017.25","24.1","84.7","NAN","0.0"],
    [1559708,"2026-06-18 18:30:00","12418","2.1519999999999997","94.6","3.528","98.8","1017.331","23.96","84.7","NAN","0.0"],
    [1559709,"2026-06-18 18:40:00","12419","1.6980000000000002","82.9","2.875","69.14","1017.395","23.89","84.1","NAN","0.0"],
    [1559710,"2026-06-18 18:50:00","12420","1.4909999999999999","77.83","2.907","93.1","1017.3580000000001","24.03","82.9","NAN","0.0"],
    [1559711,"2026-06-18 19:00:00","12421","1.456","48.98","2.907","59.94","1017.329","24.12","78.05","NAN","0.0"],
    [1559712,"2026-06-18 19:10:00","12422","1.3359999999999999","65.72","2.319","86.7","1017.3939999999999","24.12","79.36","NAN","0.0"],
    [1559713,"2026-06-18 19:20:00","12423","1.025","71.54","2.0909999999999997","73.62","1017.425","24.21","77.33","NAN","0.0"],
    [1559714,"2026-06-18 19:30:00","12424","1.115","64.79","2.221","83.4","1017.472","24.23","72.7","NAN","0.0"],
    [1559715,"2026-06-18 19:40:00","12425","1.206","80.0","2.156","116.4","1017.551","24.24","75.67","NAN","0.0"],
    [1559716,"2026-06-18 19:50:00","12426","1.8519999999999999","93.3","2.875","91.7","1017.549","24.04","79.6","NAN","0.0"],
    [1559717,"2026-06-18 20:00:00","12427","1.9369999999999998","91.2","2.875","90.1","1017.472","23.86","81","NAN","0.0"],
    [1559718,"2026-06-18 20:10:00","12428","1.992","88.9","3.0380000000000003","77.44","1017.462","23.8","83.8","NAN","0.0"],
    [1559719,"2026-06-18 20:20:00","12429","2.039","86.4","3.267","84.3","1017.4060000000001","23.76","84.6","NAN","0.0"],
    [1559720,"2026-06-18 20:30:00","12430","1.724","72.97","3.005","68.27","1017.3739999999999","23.63","85.4","NAN","0.0"],
    [1559721,"2026-06-18 20:40:00","12431","0.79","52.59","2.0909999999999997","63.73","1017.387","23.7","80.2","NAN","0.0"],
    [1559722,"2026-06-18 20:50:00","12432","1.2690000000000001","39.78","3.005","26.77","1017.472","23.89","78.15","NAN","0.0"],
    [1559723,"2026-06-18 21:00:00","12433","1.371","54.0","2.6460000000000004","56.46","1017.444","23.78","81.8","NAN","0.0"],
    [1559724,"2026-06-18 21:10:00","12434","1.162","63.05","3.495","59.83","1017.457","23.8","81.4","NAN","0.0"],
    [1559725,"2026-06-18 21:20:00","12435","0.8740000000000001","48.82","1.96","41.26","1017.581","23.88","80.3","NAN","0.0"],
    [1559726,"2026-06-18 21:30:00","12436","1.357","52.03","2.483","63.85","1017.462","23.82","81.6","NAN","0.0"],
    [1559727,"2026-06-18 21:40:00","12437","1.2229999999999999","55.38","2.221","48.33","1017.5260000000001","23.8","82.3","NAN","0.0"],
    [1559728,"2026-06-18 21:50:00","12438","1.7080000000000002","49.7","3.267","35.54","1017.2869999999999","23.81","78.05","NAN","0.0"],
    [1559729,"2026-06-18 22:00:00","12439","1.837","54.45","3.332","54.62","1016.9580000000001","24.05","72.76","NAN","0.0"],
    [1559730,"2026-06-18 22:10:00","12440","1.6","44.56","3.201","35.33","1017.054","24.05","71.67","NAN","0.0"],
    [1559731,"2026-06-18 22:20:00","12441","1.6159999999999999","48.58","3.887","64.17","1017.148","23.99","67.87","NAN","0.0"],
    [1559732,"2026-06-18 22:30:00","12442","0.8859999999999999","50.83","2.123","41.36","1017.3530000000001","24.05","65.94","NAN","0.0"],
    [1559733,"2026-06-18 22:40:00","12443","0.9209999999999999","70.37","2.189","34.51","1017.529","24.15","66.23","NAN","0.0"],
    [1559734,"2026-06-18 22:50:00","12444","0.8909999999999999","87.8","1.797","98.4","1017.805","24.09","69.01","NAN","0.0"],
    [1559735,"2026-06-18 23:00:00","12445","1.048","78.65","2.189","97.6","1017.835","24.05","69.7","NAN","0.0"],
    [1559736,"2026-06-18 23:10:00","12446","0.778","65.94","1.9269999999999998","77.96","1017.8760000000001","23.98","70.46","NAN","0.0"],
    [1559737,"2026-06-18 23:20:00","12447","1.12","38.98","2.352","35.43","1017.9","23.9","72.6","NAN","0.0"],
    [1559738,"2026-06-18 23:30:00","12448","1.3869999999999998","55.7","2.5810000000000004","54.43","1017.801","23.77","75.24","NAN","0.0"],
    [1559739,"2026-06-18 23:40:00","12449","0.778","113.7","1.601","46.87","1018.128","23.75","75.64","NAN","0.0"],
    [1559740,"2026-06-18 23:50:00","12450","0.8740000000000001","96.9","1.96","50.43","1018.2139999999999","23.73","74.21","NAN","0.0"],
    [1559741,"2026-06-19 00:00:00","12451","0.7","31.45","2.156","52.94","1018.18","23.84","71.74","NAN","0.0"],
    [1559742,"2026-06-19 00:10:00","12452","0.764","47.05","1.5030000000000001","25.08","1018.2869999999999","23.8","70.64","NAN","0.0"],
    [1559743,"2026-06-19 00:20:00","12453","0.512","7.255","1.307","21.27","1018.4810000000001","23.83","70.92","NAN","0.0"],
    [1559744,"2026-06-19 00:30:00","12454","1.4709999999999999","72.31","3.299","88.9","1018.2819999999999","23.76","72.61","NAN","0.0"],
    [1559745,"2026-06-19 00:40:00","12455","1.489","68.19","3.5610000000000004","93.5","1017.928","23.73","70.53","NAN","0.0"],
    [1559746,"2026-06-19 00:50:00","12456","0.961","60.15","2.123","83.3","1017.937","23.76","71.81","NAN","0.0"],
    [1559747,"2026-06-19 01:00:00","12457","1.311","43.19","2.5810000000000004","27.82","1017.803","23.69","69.63","NAN","0.0"],
    [1559748,"2026-06-19 01:10:00","12458","0.98","354.5","2.613","14.36","1017.778","23.73","60.78","NAN","0.0"],
    [1559749,"2026-06-19 01:20:00","12459","0.682","7.803","1.895","13.61","1017.883","23.89","53.43","NAN","0.0"],
    [1559750,"2026-06-19 01:30:00","12460","0.7979999999999999","43.02","1.895","45.93","1017.795","23.91","53.87","NAN","0.0"],
    [1559751,"2026-06-19 01:40:00","12461","0.986","48.62","2.548","50.57","1017.57","23.75","52.5","NAN","0.0"],
    [1559752,"2026-06-19 01:50:00","12462","0.5","351.0","1.405","305.3","1017.831","23.98","49.27","NAN","0.0"],
    [1559753,"2026-06-19 02:00:00","12463","0.894","24.34","1.829","30.18","1017.7260000000001","23.99","47.9","NAN","0.0"],
    [1559754,"2026-06-19 02:10:00","12464","0.7709999999999999","60.79","1.3719999999999999","56.23","1017.6110000000001","24.03","46.63","NAN","0.0"],
    [1559755,"2026-06-19 02:20:00","12465","1.238","56.92","2.515","33.75","1017.446","23.93","45.75","NAN","0.0"],
    [1559756,"2026-06-19 02:30:00","12466","1.307","35.11","2.548","36.37","1017.312","23.81","44.71","NAN","0.0"],
    [1559757,"2026-06-19 02:40:00","12467","1.192","17.84","2.8089999999999997","28.68","1017.2339999999999","23.76","44.38","NAN","0.0"],
    [1559758,"2026-06-19 02:50:00","12468","1.482","38.44","3.103","22.52","1016.828","23.68","45.12","NAN","0.0"],
    [1559759,"2026-06-19 03:00:00","12469","0.985","4.645","1.993","28.1","1016.7230000000001","23.6","47.11","NAN","0.0"],
    [1559760,"2026-06-19 03:10:00","12470","0.342","2.219","1.666","334.1","1016.971","23.84","47.33","NAN","0.0"],
    [1559761,"2026-06-19 03:20:00","12471","0.778","98.0","1.535","54.8","1016.944","23.8","49.73","NAN","0.0"],
    [1559762,"2026-06-19 03:30:00","12472","1.3119999999999998","27.96","2.319","30.46","1016.564","23.7","49.82","NAN","0.0"],
    [1559763,"2026-06-19 03:40:00","12473","0.943","36.31","2.548","30.25","1016.4830000000001","23.76","48.8","NAN","0.0"],
    [1559764,"2026-06-19 03:50:00","12474","0.9490000000000001","49.66","1.797","37.76","1016.475","23.66","47.47","NAN","0.0"],
    [1559765,"2026-06-19 04:00:00","12475","0.722","35.86","2.156","2.9219999999999997","1016.525","23.64","46.5","NAN","0.0"],
    [1559766,"2026-06-19 04:10:00","12476","1.18","357.4","2.189","11.58","1016.543","23.68","45.05","NAN","0.0"],
    [1559767,"2026-06-19 04:20:00","12477","0.879","2.847","2.156","9.09","1016.602","23.73","43.68","NAN","0.0"],
    [1559768,"2026-06-19 04:30:00","12478","0.612","28.39","1.601","22.29","1016.819","23.75","43.64","NAN","0.0"],
    [1559769,"2026-06-19 04:40:00","12479","0.91","2.35","2.025","38.88","1016.834","23.78","43.98","NAN","0.0"],
    [1559770,"2026-06-19 04:50:00","12480","0.6559999999999999","19.46","1.666","1.65","1016.763","23.86","43.83","NAN","0.0"],
    [1559771,"2026-06-19 05:00:00","12481","0.823","3.608","2.287","356.2","1016.816","23.93","44.41","NAN","0.0"],
    [1559772,"2026-06-19 05:10:00","12482","0.871","26.45","2.156","29.75","1016.834","24.05","44.66","NAN","0.0"],
    [1559773,"2026-06-19 05:20:00","12483","1.193","4.084","2.679","0.929","1016.829","24.02","44.85","NAN","0.0"],
    [1559774,"2026-06-19 05:30:00","12484","0.645","30.98","1.7309999999999999","36.63","1016.834","24.23","44.51","NAN","0.0"],
    [1559775,"2026-06-19 05:40:00","12485","0.805","18.5","2.189","352.2","1016.804","24.4","43.24","NAN","0.0"],
    [1559776,"2026-06-19 05:50:00","12486","0.8640000000000001","28.91","2.221","10.65","1016.829","24.71","41.79","NAN","0.0"],
    [1559777,"2026-06-19 06:00:00","12487","0.879","8.67","2.679","357.2","1016.7919999999999","25.09","40.38","NAN","0.0"],
    [1559778,"2026-06-19 06:10:00","12488","0.828","8.99","2.842","27.17","1016.8580000000001","25.25","39.99","NAN","0.0"],
    [1559779,"2026-06-19 06:20:00","12489","0.8859999999999999","17.42","2.548","27.06","1016.909","25.8","39.55","NAN","0.0"],
    [1559780,"2026-06-19 06:30:00","12490","0.975","17.42","2.483","49.7","1016.9939999999999","25.93","39.68","NAN","0.0"],
    [1559781,"2026-06-19 06:40:00","12491","1.176","38.53","3.005","20.43","1016.988","26.29","39.5","NAN","0.0"],
    [1559782,"2026-06-19 06:50:00","12492","1.056","21.81","2.417","356.8","1016.9689999999999","26.51","39.61","NAN","0.0"],
    [1559783,"2026-06-19 07:00:00","12493","1.1540000000000001","33.42","2.5810000000000004","20.67","1017.04","26.86","39.46","NAN","0.0"],
    [1559784,"2026-06-19 07:10:00","12494","1.212","66.42","2.254","33.4","1017.206","27.08","39.51","NAN","0.0"],
    [1559785,"2026-06-19 07:20:00","12495","1.291","78.43","3.1689999999999996","117.5","1017.2389999999999","27.32","39.72","NAN","0.0"],
    [1559786,"2026-06-19 07:30:00","12496","1.841","83.5","3.43","76.49","1017.404","27.2","40.15","NAN","0.0"],
    [1559787,"2026-06-19 07:40:00","12497","2.34","93.3","3.659","105.9","1017.523","26.82","41.5","NAN","0.0"],
    [1559788,"2026-06-19 07:50:00","12498","2.222","82.8","3.463","69.49","1017.576","26.42","43.93","NAN","0.0"],
    [1559789,"2026-06-19 08:00:00","12499","2.134","100.1","4.2139999999999995","111.1","1017.674","26.15","48.9","NAN","0.0"],
    [1559790,"2026-06-19 08:10:00","12500","2.032","105.2","3.234","112.2","1017.717","26.2","53.69","NAN","0.0"],
    [1559791,"2026-06-19 08:20:00","12501","2.004","99.7","4.149","115.8","1017.825","25.82","58.41","NAN","0.0"],
    [1559792,"2026-06-19 08:30:00","12502","2.339","93.0","3.887","72.48","1017.8660000000001","26.28","54.59","NAN","0.0"],
    [1559793,"2026-06-19 08:40:00","12503","2.8710000000000004","87.7","5.063","81.7","1017.89","26.38","52.18","NAN","0.0"],
    [1559794,"2026-06-19 08:50:00","12504","2.7239999999999998","79.04","5.455","70.42","1017.8739999999999","26.29","52.18","NAN","0.0"],
    [1559795,"2026-06-19 09:00:00","12505","2.423","81.9","4.312","90.1","1018.033","26.65","51.23","NAN","0.0"],
    [1559796,"2026-06-19 09:10:00","12506","3.158","83.4","5.129","93.1","1018.059","26.57","48.85","NAN","0.0"],
    [1559797,"2026-06-19 09:20:00","12507","2.273","75.84","5.2589999999999995","75.6","1018.164","26.79","51","NAN","0.0"],
    [1559798,"2026-06-19 09:30:00","12508","2.9139999999999997","82.4","4.769","64.26","1018.1610000000001","26.74","49.7","NAN","0.0"],
    [1559799,"2026-06-19 09:40:00","12509","3.0410000000000004","88.1","4.802","105.8","1018.025","26.92","48.46","NAN","0.0"],
    [1559800,"2026-06-19 09:50:00","12510","3.424","86.6","5.39","91.9","1018.095","26.95","48.09","NAN","0.0"],
    [1559801,"2026-06-19 10:00:00","12511","3.5180000000000002","89.8","5.586","98.3","1018.059","26.81","47.88","NAN","0.0"],
    [1559802,"2026-06-19 10:10:00","12512","3.306","89.2","5.1610000000000005","74.9","1018.005","27.2","47.28","NAN","0.0"],
    [1559803,"2026-06-19 10:20:00","12513","3.135","92.3","5.455","86.9","1018.118","27.41","46.92","NAN","0.0"],
    [1559804,"2026-06-19 10:30:00","12514","3.2889999999999997","86.9","5.227","108.4","1018.193","27.24","49.71","NAN","0.0"],
    [1559805,"2026-06-19 10:40:00","12515","3.366","89.4","5.227","67.31","1018.201","27","52.62","NAN","0.0"],
    [1559806,"2026-06-19 10:50:00","12516","3.157","84.3","5.586","83.7","1018.207","27.11","51.96","NAN","0.0"],
    [1559807,"2026-06-19 11:00:00","12517","3.161","85.4","4.965","88.3","1018.294","27.15","53.31","NAN","0.0"],
    [1559808,"2026-06-19 11:10:00","12518","2.79","90.0","4.573","107.4","1018.3530000000001","27.46","53","NAN","0.0"],
    [1559809,"2026-06-19 11:20:00","12519","2.738","87.7","4.867","77.26","1018.409","27.71","51.69","NAN","0.0"],
    [1559810,"2026-06-19 11:30:00","12520","3.036","87.6","5.2589999999999995","106.0","1018.341","27.93","48.91","NAN","0.0"],
    [1559811,"2026-06-19 11:40:00","12521","3.0069999999999997","86.9","5.096","111.0","1018.329","27.49","52.83","NAN","0.0"],
    [1559812,"2026-06-19 11:50:00","12522","3.4360000000000004","93.2","5.1610000000000005","94.5","1018.3430000000001","27.22","56.11","NAN","0.0"],
    [1559813,"2026-06-19 12:00:00","12523","3.7760000000000002","93.5","5.455","92.5","1018.337","27.05","57.11","NAN","0.0"],
    [1559814,"2026-06-19 12:10:00","12524","3.315","95.8","4.965","107.1","1018.337","27.19","57.67","NAN","0.0"],
    [1559815,"2026-06-19 12:20:00","12525","3.073","93.5","4.769","105.5","1018.35","27.26","58.24","NAN","0.0"],
    [1559816,"2026-06-19 12:30:00","12526","2.89","86.2","4.867","99.9","1018.279","27.3","56.85","NAN","0.0"],
    [1559817,"2026-06-19 12:40:00","12527","2.752","89.2","4.377","93.6","1018.2360000000001","27.66","54.91","NAN","0.0"],
    [1559818,"2026-06-19 12:50:00","12528","2.6910000000000003","80.8","4.475","81.7","1018.308","27.44","57.37","NAN","0.0"],
    [1559819,"2026-06-19 13:00:00","12529","3.139","88.5","4.638999999999999","89.8","1018.2769999999999","27.17","59","NAN","0.0"],
    [1559820,"2026-06-19 13:10:00","12530","2.784","86.1","4.541","91.7","1018.217","27.32","60.63","NAN","0.0"],
    [1559821,"2026-06-19 13:20:00","12531","2.898","83.0","4.965","51.51","1018.2280000000001","27.3","57.79","NAN","0.0"],
    [1559822,"2026-06-19 13:30:00","12532","3.197","81.6","5.292000000000001","73.72","1018.2","27.35","56.82","NAN","0.0"],
    [1559823,"2026-06-19 13:40:00","12533","2.9589999999999996","91.8","4.835","91.6","1018.155","27.92","54.23","NAN","0.0"],
    [1559824,"2026-06-19 13:50:00","12534","3.5060000000000002","91.8","5.292000000000001","104.5","1018.199","27.71","54.64","NAN","0.0"],
    [1559825,"2026-06-19 14:00:00","12535","3.6","85.8","5.4879999999999995","69.16","1018.181","27.69","53.53","NAN","0.0"],
    [1559826,"2026-06-19 14:10:00","12536","3.668","85.0","5.912999999999999","104.3","1018.012","27.38","53.97","NAN","0.0"],
    [1559827,"2026-06-19 14:20:00","12537","3.0589999999999997","85.8","5.847","110.9","1018.033","27.69","51.65","NAN","0.0"],
    [1559828,"2026-06-19 14:30:00","12538","2.986","84.6","5.357","88.7","1017.9989999999999","27.63","52.77","NAN","0.0"],
    [1559829,"2026-06-19 14:40:00","12539","3.37","85.1","6.109","72.29","1017.8760000000001","27.6","52.23","NAN","0.0"],
    [1559830,"2026-06-19 14:50:00","12540","3.4410000000000003","84.9","5.684","99.3","1017.862","27.47","52.54","NAN","0.0"],
    [1559831,"2026-06-19 15:00:00","12541","2.819","71.95","6.37","108.0","1017.679","27.52","51.01","NAN","0.0"],
    [1559832,"2026-06-19 15:10:00","12542","2.478","62.02","4.541","87.4","1017.4810000000001","27.93","49.28","NAN","0.0"],
    [1559833,"2026-06-19 15:20:00","12543","3.4210000000000003","82.2","5.7170000000000005","89.6","1017.535","27.82","48.36","NAN","0.0"],
    [1559834,"2026-06-19 15:30:00","12544","2.99","79.77","5.39","96.4","1017.456","27.61","50.62","NAN","0.0"],
    [1559835,"2026-06-19 15:40:00","12545","3.472","76.07","6.141","69.17","1017.3889999999999","27.34","50.58","NAN","0.0"],
    [1559836,"2026-06-19 15:50:00","12546","2.969","75.32","5.4879999999999995","57.48","1017.378","27.24","51.1","NAN","0.0"],
    [1559837,"2026-06-19 16:00:00","12547","2.878","81.6","5.553","62.61","1017.3439999999999","27.38","50.88","NAN","0.0"],
    [1559838,"2026-06-19 16:10:00","12548","2.595","71.04","4.9","58.44","1017.288","27.42","51.3","NAN","0.0"],
    [1559839,"2026-06-19 16:20:00","12549","3.3080000000000003","69.06","5.39","86.1","1017.2080000000001","27","51.73","NAN","0.0"],
    [1559840,"2026-06-19 16:30:00","12550","3.358","85.4","5.227","66.6","1017.125","26.93","52.87","NAN","0.0"],
    [1559841,"2026-06-19 16:40:00","12551","2.9589999999999996","84.1","5.39","92.9","1017.057","27.07","52.88","NAN","0.0"],
    [1559842,"2026-06-19 16:50:00","12552","3.0669999999999997","79.46","4.867","72.25","1016.9689999999999","26.8","54.33","NAN","0.0"],
    [1559843,"2026-06-19 17:00:00","12553","2.492","68.82","4.867","71.62","1016.862","26.67","57","NAN","0.0"],
    [1559844,"2026-06-19 17:10:00","12554","2.917","70.12","5.586","72.82","1016.7660000000001","26.42","58.91","NAN","0.0"],
    [1559845,"2026-06-19 17:20:00","12555","2.957","79.05","5.455","81.5","1016.77","26.25","60.38","NAN","0.0"],
    [1559846,"2026-06-19 17:30:00","12556","3.1319999999999997","83.9","6.0760000000000005","83.8","1016.821","26.14","62.32","NAN","0.0"],
    [1559847,"2026-06-19 17:40:00","12557","2.735","69.63","5.194","60.96","1016.813","25.93","64.37","NAN","0.0"],
    [1559848,"2026-06-19 17:50:00","12558","3.089","88.0","5.227","94.1","1016.8989999999999","25.93","65.31","NAN","0.0"],
    [1559849,"2026-06-19 18:00:00","12559","2.0069999999999997","72.92","3.92","52.84","1016.9810000000001","26.04","65.75","NAN","0.0"],
    [1559850,"2026-06-19 18:10:00","12560","1.994","79.37","4.41","83.8","1017.0369999999999","26.06","66.52","NAN","0.0"],
    [1559851,"2026-06-19 18:20:00","12561","1.8459999999999999","68.49","3.822","81.3","1017.1519999999999","26.02","66.62","NAN","0.0"],
    [1559852,"2026-06-19 18:30:00","12562","2.222","65.25","4.083","23.25","1017.2610000000001","25.85","67.07","NAN","0.0"],
    [1559853,"2026-06-19 18:40:00","12563","1.7590000000000001","65.43","3.593","63.32","1017.294","25.63","67.72","NAN","0.0"],
    [1559854,"2026-06-19 18:50:00","12564","2.1319999999999997","51.17","3.887","35.92","1017.33","25.54","67.5","NAN","0.0"],
    [1559855,"2026-06-19 19:00:00","12565","1.6059999999999999","62.06","3.43","74.02","1017.431","25.52","67.91","NAN","0.0"],
    [1559856,"2026-06-19 19:10:00","12566","1.261","49.96","2.45","79.27","1017.447","25.57","67.98","NAN","0.0"],
    [1559857,"2026-06-19 19:20:00","12567","1.679","78.72","3.201","87.5","1017.52","25.43","69.31","NAN","0.0"],
    [1559858,"2026-06-19 19:30:00","12568","1.585","47.99","3.267","25.19","1017.569","25.22","70.27","NAN","0.0"],
    [1559859,"2026-06-19 19:40:00","12569","1.785","62.16","3.7239999999999998","69.87","1017.49","25.14","70.99","NAN","0.0"],
    [1559860,"2026-06-19 19:50:00","12570","1.874","80.8","3.495","106.5","1017.4730000000001","25.17","71.49","NAN","0.0"],
    [1559861,"2026-06-19 20:00:00","12571","1.7109999999999999","50.95","3.43","68.61","1017.6360000000001","25.03","72.46","NAN","0.0"],
    [1559862,"2026-06-19 20:10:00","12572","1.459","49.09","3.201","61.08","1017.704","24.95","72.89","NAN","0.0"],
    [1559863,"2026-06-19 20:20:00","12573","1.5","58.14","3.92","58.47","1017.716","24.96","72.79","NAN","0.0"],
    [1559864,"2026-06-19 20:30:00","12574","1.43","47.16","3.136","27.4","1017.788","24.96","72.92","NAN","0.0"],
    [1559865,"2026-06-19 20:40:00","12575","1.551","47.89","2.9730000000000003","34.88","1017.933","24.91","73.12","NAN","0.0"],
    [1559866,"2026-06-19 20:50:00","12576","1.7530000000000001","48.19","3.6260000000000003","47.77","1018.1419999999999","24.83","73.91","NAN","0.0"],
    [1559867,"2026-06-19 21:00:00","12577","2.086","55.44","4.279","65.1","1018.314","24.78","73.88","NAN","0.0"],
    [1559868,"2026-06-19 21:10:00","12578","1.568","47.56","3.0380000000000003","48.83","1018.329","24.8","73.96","NAN","0.0"],
    [1559869,"2026-06-19 21:20:00","12579","1.578","52.74","3.397","71.79","1018.329","24.79","74.04","NAN","0.0"],
    [1559870,"2026-06-19 21:30:00","12580","1.5330000000000001","47.82","3.267","55.41","1018.3810000000001","24.75","74.38","NAN","0.0"],
    [1559871,"2026-06-19 21:40:00","12581","1.76","54.71","3.528","29.53","1018.3739999999999","24.73","74.82","NAN","0.0"],
    [1559872,"2026-06-19 21:50:00","12582","1.746","40.55","3.528","29.53","1018.329","24.69","75.23","NAN","0.0"],
    [1559873,"2026-06-19 22:00:00","12583","1.4869999999999999","64.5","3.103","63.16","1018.326","24.72","75.12","NAN","0.0"],
    [1559874,"2026-06-19 22:10:00","12584","1.285","63.86","2.9730000000000003","27.55","1018.319","24.74","74.81","NAN","0.0"],
    [1559875,"2026-06-19 22:20:00","12585","1.354","50.08","2.548","34.75","1018.329","24.72","74.44","NAN","0.0"],
    [1559876,"2026-06-19 22:30:00","12586","1.54","51.62","3.463","71.79","1018.326","24.68","74.56","NAN","0.0"],
    [1559877,"2026-06-19 22:40:00","12587","1.534","43.58","2.907","27.85","1018.418","24.66","73.83","NAN","0.0"],
    [1559878,"2026-06-19 22:50:00","12588","1.6369999999999998","54.84","3.0380000000000003","73.39","1018.334","24.66","72.26","NAN","0.0"],
    [1559879,"2026-06-19 23:00:00","12589","2.133","40.16","4.2139999999999995","44.84","1018.329","24.67","70.55","NAN","0.0"],
    [1559880,"2026-06-19 23:10:00","12590","1.709","46.16","3.136","64.91","1018.329","24.68","70.4","NAN","0.0"],
    [1559881,"2026-06-19 23:20:00","12591","1.5030000000000001","45.98","2.7110000000000003","72.06","1018.2869999999999","24.67","70.43","NAN","0.0"],
    [1559882,"2026-06-19 23:30:00","12592","1.385","47.44","2.907","71.01","1018.304","24.67","69.9","NAN","0.0"],
    [1559883,"2026-06-19 23:40:00","12593","1.423","45.0","3.267","22.88","1018.2589999999999","24.66","69.67","NAN","0.0"],
    [1559884,"2026-06-19 23:50:00","12594","1.41","38.46","3.005","21.9","1018.227","24.62","69.81","NAN","0.0"],
    [1559885,"2026-06-20 00:00:00","12595","1.022","33.33","2.352","30.03","1018.347","24.65","69.52","NAN","0.0"],
    [1559886,"2026-06-20 00:10:00","12596","1.2670000000000001","47.34","2.8089999999999997","24.87","1018.334","24.65","69.4","NAN","0.0"],
    [1559887,"2026-06-20 00:20:00","12597","1.358","40.84","2.7769999999999997","14.17","1018.319","24.6","69.27","NAN","0.0"],
    [1559888,"2026-06-20 00:30:00","12598","1.574","47.91","2.7769999999999997","55.69","1018.1569999999999","24.56","69.22","NAN","0.0"],
    [1559889,"2026-06-20 00:40:00","12599","1.514","41.82","2.7769999999999997","35.27","1018.085","24.53","69.14","NAN","0.0"],
    [1559890,"2026-06-20 00:50:00","12600","1.0490000000000002","35.76","2.7110000000000003","55.16","1018.082","24.52","68.46","NAN","0.0"],
    [1559891,"2026-06-20 01:00:00","12601","1.181","36.33","2.385","33.2","1018.035","24.41","67.08","NAN","0.0"],
    [1559892,"2026-06-20 01:10:00","12602","0.892","20.8","2.483","14.02","1018.07","24.39","66.05","NAN","0.0"],
    [1559893,"2026-06-20 01:20:00","12603","0.731","28.01","1.895","43.27","1018.082","24.37","65.27","NAN","0.0"],
    [1559894,"2026-06-20 01:30:00","12604","0.703","11.96","1.699","2.11","1018.08","24.36","64.86","NAN","0.0"],
    [1559895,"2026-06-20 01:40:00","12605","0.763","15.51","1.633","4.341","1018.075","24.45","64.41","NAN","0.0"],
    [1559896,"2026-06-20 01:50:00","12606","0.7759999999999999","35.13","1.7309999999999999","60.23","1017.9780000000001","24.33","64.56","NAN","0.0"],
    [1559897,"2026-06-20 02:00:00","12607","1.075","37.5","1.895","23.1","1017.992","24.25","64.23","NAN","0.0"],
    [1559898,"2026-06-20 02:10:00","12608","0.633","14.99","1.96","7.483","1017.9580000000001","24.25","63.85","NAN","0.0"],
    [1559899,"2026-06-20 02:20:00","12609","0.7120000000000001","15.28","1.601","352.4","1018.047","24.4","63.4","NAN","0.0"],
    [1559900,"2026-06-20 02:30:00","12610","0.54","37.55","2.0909999999999997","37.17","1017.88","24.32","63.71","NAN","0.0"],
    [1559901,"2026-06-20 02:40:00","12611","0.76","20.88","2.7769999999999997","7.332999999999999","1017.938","24.22","63.97","NAN","0.0"],
    [1559902,"2026-06-20 02:50:00","12612","0.812","44.23","1.829","68.79","1017.905","24.2","63.9","NAN","0.0"],
    [1559903,"2026-06-20 03:00:00","12613","0.469","25.96","1.601","59.04","1018.008","24.18","63.48","NAN","0.0"],
    [1559904,"2026-06-20 03:10:00","12614","1.021","48.07","2.0580000000000003","55.57","1017.967","24.16","62.96","NAN","0.0"],
    [1559905,"2026-06-20 03:20:00","12615","0.922","41.58","1.764","20.34","1017.831","24.05","62.67","NAN","0.0"],
    [1559906,"2026-06-20 03:30:00","12616","1.13","31.26","2.221","30.17","1017.8610000000001","23.95","62.37","NAN","0.0"],
    [1559907,"2026-06-20 03:40:00","12617","0.914","5.4670000000000005","2.0909999999999997","21.17","1018.105","24.07","61.52","NAN","0.0"],
    [1559908,"2026-06-20 03:50:00","12618","0.7559999999999999","12.84","1.764","19.55","1018.279","24.13","60.95","NAN","0.0"],
    [1559909,"2026-06-20 04:00:00","12619","0.9420000000000001","27.35","2.0909999999999997","28.49","1018.329","24.08","61.14","NAN","0.0"],
    [1559910,"2026-06-20 04:10:00","12620","0.6559999999999999","15.45","1.797","13.82","1018.334","24.09","61.19","NAN","0.0"],
    [1559911,"2026-06-20 04:20:00","12621","0.675","14.51","1.829","34.57","1018.4110000000001","24.15","61.12","NAN","0.0"],
    [1559912,"2026-06-20 04:30:00","12622","0.637","5.621","2.156","6.394","1018.485","24.15","61.09","NAN","0.0"],
    [1559913,"2026-06-20 04:40:00","12623","0.997","6.348","2.0909999999999997","20.74","1018.591","24.28","60.56","NAN","0.0"],
    [1559914,"2026-06-20 04:50:00","12624","0.866","5.405","2.025","25.53","1018.77","24.29","60.46","NAN","0.0"],
    [1559915,"2026-06-20 05:00:00","12625","1.0959999999999999","9.15","2.0909999999999997","359.7","1018.882","24.47","59.91","NAN","0.0"],
    [1559916,"2026-06-20 05:10:00","12626","0.941","7.704","2.7769999999999997","2.676","1019.0219999999999","24.53","59.74","NAN","0.0"],
    [1559917,"2026-06-20 05:20:00","12627","0.81","23.59","2.189","29.48","1019.1189999999999","24.74","59.24","NAN","0.0"],
    [1559918,"2026-06-20 05:30:00","12628","0.7340000000000001","47.33","1.8619999999999999","60.63","1019.194","24.96","58.67","NAN","0.0"],
    [1559919,"2026-06-20 05:40:00","12629","0.882","20.66","1.993","19.29","1019.27","24.91","58.58","NAN","0.0"],
    [1559920,"2026-06-20 05:50:00","12630","0.815","30.28","1.96","39.12","1019.313","25.22","57.07","NAN","0.0"],
    [1559921,"2026-06-20 06:00:00","12631","0.884","32.51","1.764","36.17","1019.2869999999999","25.19","56.66","NAN","0.0"],
    [1559922,"2026-06-20 06:10:00","12632","0.598","32.92","1.666","19.65","1019.273","25.4","55.3","NAN","0.0"],
    [1559923,"2026-06-20 06:20:00","12633","0.838","39.92","1.96","37.81","1019.279","25.71","54.47","NAN","0.0"],
    [1559924,"2026-06-20 06:30:00","12634","0.879","46.34","2.221","29.86","1019.378","26.05","53.49","NAN","0.0"],
    [1559925,"2026-06-20 06:40:00","12635","1.119","50.25","2.483","29.32","1019.432","26.08","52.99","NAN","0.0"],
    [1559926,"2026-06-20 06:50:00","12636","1.6740000000000002","43.65","3.234","35.16","1019.568","25.89","53.48","NAN","0.0"],
    [1559927,"2026-06-20 07:00:00","12637","1.5619999999999998","45.19","3.1689999999999996","34.66","1019.7260000000001","26.05","53.09","NAN","0.0"],
    [1559928,"2026-06-20 07:10:00","12638","1.315","39.83","3.9530000000000003","79.05","1019.7489999999999","26.48","52.24","NAN","0.0"],
    [1559929,"2026-06-20 07:20:00","12639","1.214","47.86","3.234","30.03","1019.76","26.66","52.24","NAN","0.0"],
    [1559930,"2026-06-20 07:30:00","12640","1.5590000000000002","70.3","3.332","105.1","1019.945","27.04","52.07","NAN","0.0"],
    [1559931,"2026-06-20 07:40:00","12641","2.017","65.08","3.887","81.2","1020.018","27.13","52.94","NAN","0.0"],
    [1559932,"2026-06-20 07:50:00","12642","2.495","88.4","4.475","96.7","1020.035","27.12","53.56","NAN","0.0"],
    [1559933,"2026-06-20 08:00:00","12643","2.655","85.1","4.475","80.3","1020.113","26.86","54.31","NAN","0.0"],
    [1559934,"2026-06-20 08:10:00","12644","2.903","91.4","4.312","80.1","1020.184","27.05","54.11","NAN","0.0"],
    [1559935,"2026-06-20 08:20:00","12645","2.613","91.9","3.9530000000000003","95.2","1020.2689999999999","27.32","53.32","NAN","0.0"],
    [1559936,"2026-06-20 08:30:00","12646","2.378","90.0","4.475","103.6","1020.313","27.4","53.64","NAN","0.0"],
    [1559937,"2026-06-20 08:40:00","12647","2.32","94.3","3.528","91.6","1020.3969999999999","27.37","54.39","NAN","0.0"],
    [1559938,"2026-06-20 08:50:00","12648","2.331","93.1","3.6260000000000003","114.5","1020.534","27.13","54.52","NAN","0.0"],
    [1559939,"2026-06-20 09:00:00","12649","2.7110000000000003","113.5","4.181","109.7","1020.663","26.8","56.48","NAN","0.0"],
    [1559940,"2026-06-20 09:10:00","12650","2.155","95.6","4.149","63.64","1020.683","27.26","54.72","NAN","0.0"],
    [1559941,"2026-06-20 09:20:00","12651","2.34","94.6","3.9530000000000003","90.6","1020.565","27.52","55.05","NAN","0.0"],
    [1559942,"2026-06-20 09:30:00","12652","2.168","88.0","3.397","91.9","1020.6610000000001","27.49","54.64","NAN","0.0"],
    [1559943,"2026-06-20 09:40:00","12653","2.398","88.1","4.312","81.6","1020.695","27.58","54.43","NAN","0.0"],
    [1559944,"2026-06-20 09:50:00","12654","1.984","88.9","3.463","67.25","1020.8330000000001","28.02","53.43","NAN","0.0"],
    [1559945,"2026-06-20 10:00:00","12655","2.0380000000000003","94.9","3.985","110.8","1020.804","28.05","53.95","NAN","0.0"],
    [1559946,"2026-06-20 10:10:00","12656","2.238","99.3","3.855","103.8","1020.803","28.04","54.46","NAN","0.0"],
    [1559947,"2026-06-20 10:20:00","12657","1.609","97.7","2.515","105.1","1020.8530000000001","29.07","50.74","NAN","0.0"],
    [1559948,"2026-06-20 10:30:00","12658","1.649","108.8","2.7110000000000003","108.2","1020.929","28.9","49.5","NAN","0.0"],
    [1559949,"2026-06-20 10:40:00","12659","1.382","114.4","2.385","109.9","1020.927","29.29","45.34","NAN","0.0"],
    [1559950,"2026-06-20 10:50:00","12660","1.446","107.9","2.385","110.9","1020.975","29.87","43.42","NAN","0.0"],
    [1559951,"2026-06-20 11:00:00","12661","1.7630000000000001","113.4","2.6460000000000004","108.3","1021.0369999999999","29.47","47.82","NAN","0.0"],
    [1559952,"2026-06-20 11:10:00","12662","2.495","114.1","3.659","118.1","1021.087","28.7","54.32","NAN","0.0"],
    [1559953,"2026-06-20 11:20:00","12663","2.3280000000000003","96.5","4.018","72.87","1021.1419999999999","28.52","55.77","NAN","0.0"],
    [1559954,"2026-06-20 11:30:00","12664","2.667","86.3","4.018","92.4","1021.0989999999999","28.03","56.84","NAN","0.0"],
    [1559955,"2026-06-20 11:40:00","12665","2.6260000000000003","99.4","4.345","97.9","1021.051","28.33","56.39","NAN","0.0"],
    [1559956,"2026-06-20 11:50:00","12666","2.343","88.8","3.397","85.4","1021.0269999999999","28.9","53.05","NAN","0.0"],
    [1559957,"2026-06-20 12:00:00","12667","1.66","89.8","3.267","66.41","1021.05","29.6","47.02","NAN","0.0"],
    [1559958,"2026-06-20 12:10:00","12668","1.906","107.7","3.92","106.4","1021.03","29.8","40.98","NAN","0.0"],
    [1559959,"2026-06-20 12:20:00","12669","2.1109999999999998","112.7","3.593","105.2","1020.933","29.76","39.71","NAN","0.0"],
    [1559960,"2026-06-20 12:30:00","12670","1.896","108.6","4.247","104.8","1020.925","29.59","38.95","NAN","0.0"],
    [1559961,"2026-06-20 12:40:00","12671","1.851","99.3","3.0380000000000003","138.9","1020.927","30.32","35.86","NAN","0.0"],
    [1559962,"2026-06-20 12:50:00","12672","2.2030000000000003","111.7","3.822","109.5","1020.936","29.83","35.73","NAN","0.0"],
    [1559963,"2026-06-20 13:00:00","12673","2.169","110.1","4.2139999999999995","103.7","1020.925","29.93","35.99","NAN","0.0"],
    [1559964,"2026-06-20 13:10:00","12674","2.565","107.8","4.247","94.5","1020.91","29.73","36.1","NAN","0.0"],
    [1559965,"2026-06-20 13:20:00","12675","2.5469999999999997","112.1","4.247","110.6","1020.821","29.35","37.04","NAN","0.0"],
    [1559966,"2026-06-20 13:30:00","12676","2.6430000000000002","103.8","4.247","110.4","1020.83","29.5","37.78","NAN","0.0"],
    [1559967,"2026-06-20 13:40:00","12677","2.403","106.8","3.7889999999999997","106.6","1020.805","29.69","37.37","NAN","0.0"],
    [1559968,"2026-06-20 13:50:00","12678","2.2359999999999998","91.1","3.855","62.22","1020.8710000000001","30.09","36.81","NAN","0.0"],
    [1559969,"2026-06-20 14:00:00","12679","2.373","109.9","4.475","103.3","1020.895","29.67","37.97","NAN","0.0"],
    [1559970,"2026-06-20 14:10:00","12680","2.72","108.9","4.769","113.2","1020.926","29.43","39.9","NAN","0.0"],
    [1559971,"2026-06-20 14:20:00","12681","2.8789999999999996","106.5","4.867","110.3","1020.933","28.9","42.63","NAN","0.0"],
    [1559972,"2026-06-20 14:30:00","12682","2.269","110.4","4.083","107.1","1020.985","28.77","44.99","NAN","0.0"],
    [1559973,"2026-06-20 14:40:00","12683","2.6310000000000002","107.3","4.051","106.8","1021.0419999999999","28.55","47.29","NAN","0.0"],
    [1559974,"2026-06-20 14:50:00","12684","2.7060000000000004","110.7","4.541","111.3","1020.9760000000001","28.68","45.22","NAN","0.0"],
    [1559975,"2026-06-20 15:00:00","12685","2.4219999999999997","94.7","4.835","99.1","1020.937","29.13","42.3","NAN","0.0"],
    [1559976,"2026-06-20 15:10:00","12686","2.617","95.2","4.2139999999999995","86.5","1020.936","28.9","43.26","NAN","0.0"],
    [1559977,"2026-06-20 15:20:00","12687","2.301","86.5","4.181","85.8","1020.936","29.34","41.76","NAN","0.0"],
    [1559978,"2026-06-20 15:30:00","12688","2.6689999999999996","84.4","4.41","90.4","1020.8430000000001","29.38","39.11","NAN","0.0"],
    [1559979,"2026-06-20 15:40:00","12689","2.395","91.4","4.508","96.2","1020.827","29.81","36.47","NAN","0.0"],
    [1559980,"2026-06-20 15:50:00","12690","2.764","90.2","4.606","79.21","1020.716","29.87","33.96","NAN","0.0"],
    [1559981,"2026-06-20 16:00:00","12691","2.8360000000000003","87.7","4.965","76.51","1020.681","29.85","33.99","NAN","0.0"],
    [1559982,"2026-06-20 16:10:00","12692","2.947","92.9","4.9","93.9","1020.655","29.72","34.56","NAN","0.0"],
    [1559983,"2026-06-20 16:20:00","12693","2.864","89.4","4.769","92.3","1020.605","29.71","34.66","NAN","0.0"],
    [1559984,"2026-06-20 16:30:00","12694","3.463","92.8","5.031000000000001","92.0","1020.56","29.51","34.64","NAN","0.0"],
    [1559985,"2026-06-20 16:40:00","12695","3.141","87.4","5.357","70.42","1020.431","29.37","35.56","NAN","0.0"],
    [1559986,"2026-06-20 16:50:00","12696","3.111","85.1","4.998","96.9","1020.34","29.1","36.46","NAN","0.0"],
    [1559987,"2026-06-20 17:00:00","12697","3.028","87.1","4.965","83.7","1020.334","29.17","36.38","NAN","0.0"],
    [1559988,"2026-06-20 17:10:00","12698","2.884","91.6","4.737","78.74","1020.355","29.28","36.33","NAN","0.0"],
    [1559989,"2026-06-20 17:20:00","12699","3.1189999999999998","88.0","4.769","90.3","1020.363","29.02","37.52","NAN","0.0"],
    [1559990,"2026-06-20 17:30:00","12700","2.362","85.3","4.508","91.1","1020.505","29.33","37.08","NAN","0.0"],
    [1559991,"2026-06-20 17:40:00","12701","1.9780000000000002","87.1","3.855","93.4","1020.5939999999999","29.31","37.86","NAN","0.0"],
    [1559992,"2026-06-20 17:50:00","12702","2.2569999999999997","90.6","4.541","93.7","1020.6360000000001","29.28","38.08","NAN","0.0"],
    [1559993,"2026-06-20 18:00:00","12703","1.3530000000000002","82.0","2.5810000000000004","98.2","1020.721","29.26","38.12","NAN","0.0"],
    [1559994,"2026-06-20 18:10:00","12704","1.955","87.4","4.051","93.0","1020.748","29.26","37.04","NAN","0.0"],
    [1559995,"2026-06-20 18:20:00","12705","1.466","62.45","2.875","56.07","1020.7610000000001","29.07","37.37","NAN","0.0"],
    [1559996,"2026-06-20 18:30:00","12706","1.453","45.87","2.875","80.3","1020.9060000000001","28.83","37.49","NAN","0.0"],
    [1559997,"2026-06-20 18:40:00","12707","1.702","56.81","3.071","59.45","1020.9780000000001","28.73","37.28","NAN","0.0"],
    [1559998,"2026-06-20 18:50:00","12708","1.4980000000000002","65.19","2.7439999999999998","64.23","1020.929","28.73","38.53","NAN","0.0"],
    [1559999,"2026-06-20 19:00:00","12709","0.863","47.41","2.123","44.24","1020.967","28.67","38.43","NAN","0.0"],
    [1560000,"2026-06-20 19:10:00","12710","0.976","66.63","1.829","46.44","1021.0310000000001","28.66","38.53","NAN","0.0"],
    [1560001,"2026-06-20 19:20:00","12711","1.369","101.8","1.993","102.1","1021.135","28.38","40.19","NAN","0.0"],
    [1560002,"2026-06-20 19:30:00","12712","1.268","102.1","1.8619999999999999","109.0","1021.29","28.23","41.16","NAN","0.0"],
    [1560003,"2026-06-20 19:40:00","12713","1.744","97.3","2.6460000000000004","108.5","1021.24","27.99","42.88","NAN","0.0"],
    [1560004,"2026-06-20 19:50:00","12714","1.588","91.3","2.7769999999999997","92.6","1021.2280000000001","27.83","45.01","NAN","0.0"],
    [1560005,"2026-06-20 20:00:00","12715","0.946","83.9","2.123","61.85","1021.37","27.81","44.85","NAN","0.0"],
    [1560006,"2026-06-20 20:10:00","12716","0.804","56.3","1.307","50.33","1021.3589999999999","27.89","44.76","NAN","0.0"],
    [1560007,"2026-06-20 20:20:00","12717","1.155","63.94","2.0580000000000003","62.55","1021.3530000000001","27.73","44.72","NAN","0.0"],
    [1560008,"2026-06-20 20:30:00","12718","0.677","68.11","1.307","45.22","1021.443","27.89","43.59","NAN","0.0"],
    [1560009,"2026-06-20 20:40:00","12719","1.178","84.1","3.495","77.39","1021.425","27.77","45.93","NAN","0.0"],
    [1560010,"2026-06-20 20:50:00","12720","1.219","82.4","2.156","74.69","1021.3589999999999","27.53","47.53","NAN","0.0"],
    [1560011,"2026-06-20 21:00:00","12721","1.005","70.18","2.548","58.21","1021.5189999999999","27.45","47.8","NAN","0.0"],
    [1560012,"2026-06-20 21:10:00","12722","0.8540000000000001","49.79","1.8619999999999999","25.69","1021.686","27.53","47.64","NAN","0.0"],
    [1560013,"2026-06-20 21:20:00","12723","0.7390000000000001","51.82","1.993","61.75","1021.8380000000001","27.38","47.64","NAN","0.0"],
    [1560014,"2026-06-20 21:30:00","12724","0.772","77.69","1.829","53.59","1021.971","27.61","45.25","NAN","0.0"],
    [1560015,"2026-06-20 21:40:00","12725","0.635","59.39","1.4369999999999998","57.96","1022.056","27.74","43.9","NAN","0.0"],
    [1560016,"2026-06-20 21:50:00","12726","0.654","96.2","1.568","107.1","1022.063","27.66","43.22","NAN","0.0"],
    [1560017,"2026-06-20 22:00:00","12727","0.6809999999999999","82.5","1.47","85.2","1022.06","27.68","42.9","NAN","0.0"],
    [1560018,"2026-06-20 22:10:00","12728","0.945","53.76","1.7309999999999999","70.58","1022.08","27.5","44.34","NAN","0.0"],
    [1560019,"2026-06-20 22:20:00","12729","0.8170000000000001","39.42","1.535","26.79","1022.2689999999999","27.29","46.02","NAN","0.0"],
    [1560020,"2026-06-20 22:30:00","12730","0.703","54.31","1.339","86.8","1022.307","27.23","47.27","NAN","0.0"],
    [1560021,"2026-06-20 22:40:00","12731","0.9","86.4","2.352","92.0","1022.0930000000001","27.2","47.33","NAN","0.0"],
    [1560022,"2026-06-20 22:50:00","12732","1.133","81.5","2.548","66.34","1021.822","27.1","50.41","NAN","0.0"],
    [1560023,"2026-06-20 23:00:00","12733","0.831","16.22","1.535","358.8","1021.977","27.04","49.93","NAN","0.0"],
    [1560024,"2026-06-20 23:10:00","12734","1.26","46.63","2.156","52.14","1021.959","27.1","46.91","NAN","0.0"],
    [1560025,"2026-06-20 23:20:00","12735","0.7390000000000001","50.2","1.8619999999999999","55.11","1021.86","27.17","45.38","NAN","0.0"],
    [1560026,"2026-06-20 23:30:00","12736","0.731","74.66","1.405","34.85","1021.878","27.4","43.75","NAN","0.0"],
    [1560027,"2026-06-20 23:40:00","12737","0.909","55.88","1.764","68.77","1021.809","27.34","43.7","NAN","0.0"],
    [1560028,"2026-06-20 23:50:00","12738","0.797","0.841","1.7309999999999999","16.5","1021.943","27.39","42.81","NAN","0.0"],
    [1560029,"2026-06-21 00:00:00","12739","0.46","344.3","1.96","308.3","1022.11","27.87","40.93","NAN","0.0"],
    [1560030,"2026-06-21 00:10:00","12740","0.589","358.8","1.666","12.42","1022.11","27.96","39.73","NAN","0.0"],
    [1560031,"2026-06-21 00:20:00","12741","0.45299999999999996","22.83","1.4369999999999998","35.62","1021.9760000000001","27.87","39.11","NAN","0.0"],
    [1560032,"2026-06-21 00:30:00","12742","0.379","22.49","1.2409999999999999","12.37","1021.878","27.66","39.15","NAN","0.0"],
    [1560033,"2026-06-21 00:40:00","12743","1.15","24.34","2.352","20.24","1021.8960000000001","27.55","38.3","NAN","0.0"],
    [1560034,"2026-06-21 00:50:00","12744","1.148","13.0","2.7110000000000003","31.08","1021.909","27.31","38.88","NAN","0.0"],
    [1560035,"2026-06-21 01:00:00","12745","1.024","34.73","2.254","67.62","1021.813","27.36","38.67","NAN","0.0"],
    [1560036,"2026-06-21 01:10:00","12746","1.308","12.04","2.7439999999999998","14.12","1021.7610000000001","27.18","39.18","NAN","0.0"],
    [1560037,"2026-06-21 01:20:00","12747","1.023","25.6","2.385","40.55","1021.591","27","39.71","NAN","0.0"],
    [1560038,"2026-06-21 01:30:00","12748","0.802","13.91","2.287","12.58","1021.561","26.92","39.92","NAN","0.0"],
    [1560039,"2026-06-21 01:40:00","12749","0.7490000000000001","22.15","1.601","29.21","1021.563","26.84","40.28","NAN","0.0"],
    [1560040,"2026-06-21 01:50:00","12750","0.9309999999999999","6.515","2.156","353.0","1021.648","26.87","40.07","NAN","0.0"],
    [1560041,"2026-06-21 02:00:00","12751","0.5920000000000001","20.24","1.568","39.88","1021.7080000000001","26.82","40.52","NAN","0.0"],
    [1560042,"2026-06-21 02:10:00","12752","0.603","31.13","1.5030000000000001","8.22","1021.779","26.67","40.86","NAN","0.0"],
    [1560043,"2026-06-21 02:20:00","12753","0.36200000000000004","15.6","0.98","36.74","1021.7330000000001","26.58","40.98","NAN","0.0"],
    [1560044,"2026-06-21 02:30:00","12754","0.506","22.19","1.3719999999999999","34.96","1021.7669999999999","26.54","41.03","NAN","0.0"],
    [1560045,"2026-06-21 02:40:00","12755","0.624","18.32","1.3719999999999999","341.5","1021.7689999999999","26.5","41.25","NAN","0.0"],
    [1560046,"2026-06-21 02:50:00","12756","0.9","21.93","1.8619999999999999","30.02","1021.6339999999999","26.38","41.46","NAN","0.0"],
    [1560047,"2026-06-21 03:00:00","12757","1.111","32.53","2.221","22.95","1021.682","26.21","41.51","NAN","0.0"],
    [1560048,"2026-06-21 03:10:00","12758","1.2690000000000001","37.19","2.385","22.81","1021.672","26.17","41.03","NAN","0.0"],
    [1560049,"2026-06-21 03:20:00","12759","0.812","18.4","2.123","10.37","1021.732","26.03","41.31","NAN","0.0"],
    [1560050,"2026-06-21 03:30:00","12760","0.8190000000000001","14.96","2.0909999999999997","2.535","1021.829","26.13","40.85","NAN","0.0"],
    [1560051,"2026-06-21 03:40:00","12761","1.081","15.48","1.993","23.62","1022.039","26.04","40.99","NAN","0.0"],
    [1560052,"2026-06-21 03:50:00","12762","0.9229999999999999","1.86","1.764","17.33","1022.066","26.08","40.46","NAN","0.0"],
    [1560053,"2026-06-21 04:00:00","12763","0.919","7.724","1.699","359.5","1022.069","26.2","39.98","NAN","0.0"],
    [1560054,"2026-06-21 04:10:00","12764","0.595","16.71","1.3719999999999999","18.06","1022.263","26.07","40.5","NAN","0.0"],
    [1560055,"2026-06-21 04:20:00","12765","0.8490000000000001","13.66","1.895","351.3","1022.318","25.91","40.88","NAN","0.0"],
    [1560056,"2026-06-21 04:30:00","12766","0.675","24.32","1.568","0.149","1022.435","25.97","40.59","NAN","0.0"],
    [1560057,"2026-06-21 04:40:00","12767","0.941","32.77","1.9269999999999998","0.23","1022.422","25.73","40.91","NAN","0.0"],
    [1560058,"2026-06-21 04:50:00","12768","0.8490000000000001","26.42","2.221","32.94","1022.5","25.71","40.77","NAN","0.0"],
    [1560059,"2026-06-21 05:00:00","12769","0.972","5.678999999999999","2.156","14.81","1022.576","25.8","40.33","NAN","0.0"],
    [1560060,"2026-06-21 05:10:00","12770","0.573","12.33","1.535","0.48100000000000004","1022.7360000000001","26.01","39.95","NAN","0.0"],
    [1560061,"2026-06-21 05:20:00","12771","0.379","5.37","1.274","5.961","1022.808","26.31","39.66","NAN","0.0"],
    [1560062,"2026-06-21 05:30:00","12772","0.122","349.9","0.555","8.25","1022.813","26.76","38.81","NAN","0.0"],
    [1560063,"2026-06-21 05:40:00","12773","0.122","9.89","0.588","353.3","1022.842","27.34","38.05","NAN","0.0"],
    [1560064,"2026-06-21 05:50:00","12774","0.298","21.45","1.2409999999999999","7.947","1022.8960000000001","27.69","37.82","NAN","0.0"],
    [1560065,"2026-06-21 06:00:00","12775","0.16399999999999998","31.6","0.9470000000000001","28.17","1022.825","27.86","37.78","NAN","0.0"],
    [1560066,"2026-06-21 06:10:00","12776","0.382","5.285","1.339","353.7","1022.893","28.19","37.24","NAN","0.0"],
    [1560067,"2026-06-21 06:20:00","12777","0.469","14.73","1.2409999999999999","10.72","1022.953","28.16","37.57","NAN","0.0"],
    [1560068,"2026-06-21 06:30:00","12778","0.723","34.76","1.797","40.48","1022.9110000000001","28.31","37.51","NAN","0.0"],
    [1560069,"2026-06-21 06:40:00","12779","1.338","43.97","2.45","31.78","1022.959","28.16","37.98","NAN","0.0"],
    [1560070,"2026-06-21 06:50:00","12780","0.718","20.52","1.764","0.196","1023.038","28.4","37.86","NAN","0.0"],
    [1560071,"2026-06-21 07:00:00","12781","0.893","0.17800000000000002","1.993","0.6779999999999999","1023.186","28.63","37.2","NAN","0.0"],
    [1560072,"2026-06-21 07:10:00","12782","0.8690000000000001","45.67","2.123","64.02","1023.2189999999999","28.87","36.91","NAN","0.0"],
    [1560073,"2026-06-21 07:20:00","12783","0.821","55.58","2.0909999999999997","34.75","1023.2130000000001","29.31","36.17","NAN","0.0"],
    [1560074,"2026-06-21 07:30:00","12784","0.971","71.76","2.025","63.53","1023.2239999999999","29.44","35.82","NAN","0.0"],
    [1560075,"2026-06-21 07:40:00","12785","0.8490000000000001","56.28","1.9269999999999998","83.7","1023.263","29.88","35.51","NAN","0.0"],
    [1560076,"2026-06-21 07:50:00","12786","0.9129999999999999","126.8","1.568","115.6","1023.27","29.82","36.23","NAN","0.0"],
    [1560077,"2026-06-21 08:00:00","12787","0.9279999999999999","102.2","2.0909999999999997","89.9","1023.263","30.11","35.78","NAN","0.0"],
    [1560078,"2026-06-21 08:10:00","12788","1.921","91.9","3.267","97.2","1023.199","29.89","35.71","NAN","0.0"],
    [1560079,"2026-06-21 08:20:00","12789","2.269","102.4","3.5610000000000004","98.4","1023.1389999999999","29.5","37.01","NAN","0.0"],
    [1560080,"2026-06-21 08:30:00","12790","1.954","96.9","3.1689999999999996","104.7","1023.1619999999999","29.79","36.41","NAN","0.0"],
    [1560081,"2026-06-21 08:40:00","12791","1.912","92.4","2.842","126.2","1023.169","30.01","35.76","NAN","0.0"],
    [1560082,"2026-06-21 08:50:00","12792","1.903","88.2","3.299","95.7","1023.1110000000001","30.33","35.36","NAN","0.0"],
    [1560083,"2026-06-21 09:00:00","12793","2.735","100.9","4.279","110.5","1022.972","29.74","36.32","NAN","0.0"],
    [1560084,"2026-06-21 09:10:00","12794","2.294","98.0","3.5610000000000004","103.6","1022.972","29.69","36.8","NAN","0.0"],
    [1560085,"2026-06-21 09:20:00","12795","1.835","93.6","3.495","110.0","1022.932","30.28","36.4","NAN","0.0"],
    [1560086,"2026-06-21 09:30:00","12796","2.133","89.9","3.332","81.8","1022.921","30.17","36.46","NAN","0.0"],
    [1560087,"2026-06-21 09:40:00","12797","2.311","103.7","3.6260000000000003","101.6","1022.92","29.94","37.18","NAN","0.0"],
    [1560088,"2026-06-21 09:50:00","12798","2.5069999999999997","106.8","3.528","105.6","1022.938","29.83","38.69","NAN","0.0"],
    [1560089,"2026-06-21 10:00:00","12799","2.266","113.3","3.267","111.7","1023.0","29.56","40.08","NAN","0.0"],
    [1560090,"2026-06-21 10:10:00","12800","2.27","112.1","3.7569999999999997","103.7","1022.8910000000001","29.43","40.52","NAN","0.0"],
    [1560091,"2026-06-21 10:20:00","12801","2.101","118.3","3.201","116.7","1022.915","29.68","39.33","NAN","0.0"],
    [1560092,"2026-06-21 10:30:00","12802","2.062","127.1","3.071","119.3","1022.975","29.33","39.09","NAN","0.0"],
    [1560093,"2026-06-21 10:40:00","12803","2.135","129.5","3.136","135.3","1022.9580000000001","29.05","39.98","NAN","0.0"],
    [1560094,"2026-06-21 10:50:00","12804","2.023","122.1","3.103","104.7","1022.939","29.4","39.79","NAN","0.0"],
    [1560095,"2026-06-21 11:00:00","12805","1.974","124.6","3.267","102.5","1022.9680000000001","29.47","39.29","NAN","0.0"],
    [1560096,"2026-06-21 11:10:00","12806","2.376","119.7","3.7569999999999997","109.3","1023.064","29.28","39.67","NAN","0.0"],
    [1560097,"2026-06-21 11:20:00","12807","2.305","122.0","3.593","107.5","1023.0830000000001","29.18","41.76","NAN","0.0"],
    [1560098,"2026-06-21 11:30:00","12808","2.491","117.5","3.7569999999999997","102.2","1023.063","29.02","46.07","NAN","0.0"],
    [1560099,"2026-06-21 11:40:00","12809","2.3409999999999997","124.1","3.495","117.6","1023.0980000000001","28.66","50.58","NAN","0.0"],
    [1560100,"2026-06-21 11:50:00","12810","2.116","133.7","3.234","104.4","1023.1360000000001","28.58","50.52","NAN","0.0"],
    [1560101,"2026-06-21 12:00:00","12811","2.035","127.5","3.5610000000000004","115.1","1023.1189999999999","28.68","50.75","NAN","0.0"],
    [1560102,"2026-06-21 12:10:00","12812","2.188","118.0","4.2139999999999995","111.8","1023.2189999999999","28.62","51.92","NAN","0.0"],
    [1560103,"2026-06-21 12:20:00","12813","2.359","124.2","4.018","111.2","1023.222","28.24","53.54","NAN","0.0"],
    [1560104,"2026-06-21 12:30:00","12814","2.515","126.6","3.822","113.7","1023.2260000000001","27.84","56.84","NAN","0.0"],
    [1560105,"2026-06-21 12:40:00","12815","2.205","122.5","3.7889999999999997","107.3","1023.178","27.96","57.75","NAN","0.0"],
    [1560106,"2026-06-21 12:50:00","12816","2.026","113.5","3.9530000000000003","111.1","1023.238","28.71","56.97","NAN","0.0"],
    [1560107,"2026-06-21 13:00:00","12817","2.331","108.6","4.083","98.0","1023.2289999999999","28.51","57.58","NAN","0.0"],
    [1560108,"2026-06-21 13:10:00","12818","2.439","108.8","4.345","114.7","1023.265","28.07","59.72","NAN","0.0"],
    [1560109,"2026-06-21 13:20:00","12819","2.7910000000000004","108.4","4.933","113.5","1023.2810000000001","28.06","60.84","NAN","0.0"],
    [1560110,"2026-06-21 13:30:00","12820","3.043","103.1","4.965","103.9","1023.2260000000001","27.76","62.02","NAN","0.0"],
    [1560111,"2026-06-21 13:40:00","12821","2.75","98.9","4.41","89.9","1023.22","27.8","63.42","NAN","0.0"],
    [1560112,"2026-06-21 13:50:00","12822","2.326","106.9","4.4430000000000005","99.4","1023.235","28.11","63.71","NAN","0.0"],
    [1560113,"2026-06-21 14:00:00","12823","2.219","104.9","3.5610000000000004","122.1","1023.202","27.97","64.35","NAN","0.0"],
    [1560114,"2026-06-21 14:10:00","12824","2.935","97.7","4.247","93.5","1023.184","27.84","63.84","NAN","0.0"],
    [1560115,"2026-06-21 14:20:00","12825","2.844","110.6","4.508","102.0","1023.1460000000001","27.74","64.11","NAN","0.0"],
    [1560116,"2026-06-21 14:30:00","12826","2.552","112.7","4.051","104.7","1023.123","27.88","62.79","NAN","0.0"],
    [1560117,"2026-06-21 14:40:00","12827","2.5","114.8","4.181","113.7","1023.0889999999999","28.04","60.11","NAN","0.0"],
    [1560118,"2026-06-21 14:50:00","12828","2.41","106.1","3.7889999999999997","100.7","1023.0419999999999","27.9","59.66","NAN","0.0"],
    [1560119,"2026-06-21 15:00:00","12829","2.388","107.4","4.051","107.1","1023.018","28.45","59.38","NAN","0.0"],
    [1560120,"2026-06-21 15:10:00","12830","2.336","98.8","4.41","104.5","1022.99","28.01","62.5","NAN","0.0"],
    [1560121,"2026-06-21 15:20:00","12831","2.364","111.7","4.1160000000000005","112.4","1022.957","27.92","63.42","NAN","0.0"],
    [1560122,"2026-06-21 15:30:00","12832","2.5780000000000003","108.4","4.1160000000000005","112.2","1022.836","27.57","64.58","NAN","0.0"],
    [1560123,"2026-06-21 15:40:00","12833","1.94","108.2","3.005","116.2","1022.7410000000001","27.76","64.55","NAN","0.0"],
    [1560124,"2026-06-21 15:50:00","12834","1.829","96.3","3.005","93.6","1022.737","28.19","62.56","NAN","0.0"],
    [1560125,"2026-06-21 16:00:00","12835","1.867","105.0","3.6910000000000003","110.7","1022.69","27.82","61.77","NAN","0.0"],
    [1560126,"2026-06-21 16:10:00","12836","1.254","111.4","2.548","110.9","1022.596","28.11","60.76","NAN","0.0"],
    [1560127,"2026-06-21 16:20:00","12837","1.306","127.6","2.221","118.8","1022.4730000000001","28.23","59.18","NAN","0.0"],
    [1560128,"2026-06-21 16:30:00","12838","1.06","120.9","1.993","118.1","1022.3810000000001","28.57","56.1","NAN","0.0"],
    [1560129,"2026-06-21 16:40:00","12839","1.2570000000000001","119.7","2.156","113.1","1022.368","28.39","56.54","NAN","0.0"],
    [1560130,"2026-06-21 16:50:00","12840","1.5759999999999998","116.0","2.515","108.5","1022.372","28.36","55.58","NAN","0.0"],
    [1560131,"2026-06-21 17:00:00","12841","0.701","103.0","1.568","125.3","1022.378","28.37","50.46","NAN","0.0"],
    [1560132,"2026-06-21 17:10:00","12842","1.3840000000000001","112.1","2.0580000000000003","104.9","1022.368","28.37","54.88","NAN","0.0"],
    [1560133,"2026-06-21 17:20:00","12843","1.61","110.9","2.221","110.9","1022.36","28.23","55.29","NAN","0.0"],
    [1560134,"2026-06-21 17:30:00","12844","1.482","99.3","2.45","115.7","1022.4780000000001","28.39","54.43","NAN","0.0"],
    [1560135,"2026-06-21 17:40:00","12845","1.37","94.9","2.0909999999999997","104.8","1022.518","28.29","53.18","NAN","0.0"],
    [1560136,"2026-06-21 17:50:00","12846","1.73","105.7","2.7110000000000003","89.3","1022.6260000000001","28.28","53.02","NAN","0.0"],
    [1560137,"2026-06-21 18:00:00","12847","1.3940000000000001","108.8","2.156","121.9","1022.595","28.13","51.52","NAN","0.0"],
    [1560138,"2026-06-21 18:10:00","12848","1.454","105.4","1.96","111.2","1022.643","28.13","51.72","NAN","0.0"],
    [1560139,"2026-06-21 18:20:00","12849","1.285","92.0","1.96","95.6","1022.6669999999999","28.4","49.43","NAN","0.0"],
    [1560140,"2026-06-21 18:30:00","12850","1.344","93.9","2.254","95.0","1022.74","28.49","48.56","NAN","0.0"],
    [1560141,"2026-06-21 18:40:00","12851","1.41","88.2","2.417","75.42","1022.802","28.38","46.96","NAN","0.0"],
    [1560142,"2026-06-21 18:50:00","12852","0.9229999999999999","80.4","1.633","103.3","1022.9580000000001","28.69","45.83","NAN","0.0"],
    [1560143,"2026-06-21 19:00:00","12853","1.002","68.13","1.699","67.23","1023.0319999999999","28.74","43.36","NAN","0.0"],
    [1560144,"2026-06-21 19:10:00","12854","0.78","90.5","1.568","72.21","1022.9169999999999","28.87","43.86","NAN","0.0"],
    [1560145,"2026-06-21 19:20:00","12855","0.795","109.3","1.2409999999999999","109.8","1022.924","28.71","45.13","NAN","0.0"],
    [1560146,"2026-06-21 19:30:00","12856","0.716","85.4","1.274","76.08","1022.97","28.96","43.36","NAN","0.0"],
    [1560147,"2026-06-21 19:40:00","12857","0.6829999999999999","154.1","1.143","113.6","1022.813","28.87","44.87","NAN","0.0"],
    [1560148,"2026-06-21 19:50:00","12858","0.298","155.8","0.7190000000000001","169.6","1022.888","28.52","46.38","NAN","0.0"],
    [1560149,"2026-06-21 20:00:00","12859","0.743","186.0","1.3719999999999999","193.8","1022.8539999999999","28.2","47.1","NAN","0.0"],
    [1560150,"2026-06-21 20:10:00","12860","0.387","203.4","1.2409999999999999","200.4","1022.797","28.1","46.43","NAN","0.0"],
    [1560151,"2026-06-21 20:20:00","12861","0.27399999999999997","171.2","0.7509999999999999","171.5","1022.877","28.37","44.12","NAN","0.0"],
    [1560152,"2026-06-21 20:30:00","12862","0.652","184.0","1.143","184.3","1022.812","28.09","45.64","NAN","0.0"],
    [1560153,"2026-06-21 20:40:00","12863","0.74","191.9","1.2409999999999999","191.1","1022.73","27.51","49.38","NAN","0.0"],
    [1560154,"2026-06-21 20:50:00","12864","0.9009999999999999","196.5","1.764","205.0","1022.689","27.63","47.13","NAN","0.0"],
    [1560155,"2026-06-21 21:00:00","12865","0.555","189.7","0.98","175.7","1022.7819999999999","28.01","46.05","NAN","0.0"],
    [1560156,"2026-06-21 21:10:00","12866","0.513","184.4","1.013","196.9","1022.699","27.72","48.57","NAN","0.0"],
    [1560157,"2026-06-21 21:20:00","12867","0.545","196.0","1.111","190.5","1022.5989999999999","27.33","53.8","NAN","0.0"],
    [1560158,"2026-06-21 21:30:00","12868","0.541","179.5","1.143","177.6","1022.569","27.42","50.33","NAN","0.0"],
    [1560159,"2026-06-21 21:40:00","12869","0.304","128.1","1.339","156.6","1022.612","27.66","51.82","NAN","0.0"],
    [1560160,"2026-06-21 21:50:00","12870","0.38799999999999996","95.1","0.882","95.7","1022.732","27.19","55.62","NAN","0.0"],
    [1560161,"2026-06-21 22:00:00","12871","0.418","186.7","1.045","187.4","1022.63","27.02","55.52","NAN","0.0"],
    [1560162,"2026-06-21 22:10:00","12872","0.946","197.1","1.5030000000000001","209.8","1022.4169999999999","26.69","57.08","NAN","0.0"],
    [1560163,"2026-06-21 22:20:00","12873","0.252","163.7","0.8490000000000001","127.2","1022.315","26.64","57.7","NAN","0.0"],
    [1560164,"2026-06-21 22:30:00","12874","0.34299999999999997","143.0","0.98","203.1","1022.363","27.06","52.51","NAN","0.0"],
    [1560165,"2026-06-21 22:40:00","12875","0.198","158.6","0.784","180.7","1022.335","27.07","53.91","NAN","0.0"],
    [1560166,"2026-06-21 22:50:00","12876","0.07200000000000001","179.3","0.621","166.9","1022.315","27.14","51.42","NAN","0.0"],
    [1560167,"2026-06-21 23:00:00","12877","0.561","193.0","0.98","194.5","1022.315","26.88","52.71","NAN","0.0"],
    [1560168,"2026-06-21 23:10:00","12878","0.078","41.87","0.784","15.88","1022.315","26.82","50.44","NAN","0.0"],
    [1560169,"2026-06-21 23:20:00","12879","0.0","0.0","0.0","0.0","1022.2180000000001","27.1","48.84","NAN","0.0"],
    [1560170,"2026-06-21 23:30:00","12880","0.203","160.2","0.621","184.1","1022.069","27.03","47.34","NAN","0.0"],
    [1560171,"2026-06-21 23:40:00","12881","0.243","78.97","0.6859999999999999","63.65","1022.0239999999999","26.86","53.05","NAN","0.0"],
    [1560172,"2026-06-21 23:50:00","12882","0.214","56.49","0.784","63.47","1021.8489999999999","27.01","48.79","NAN","0.0"],
    [1560173,"2026-06-22 00:00:00","12883","0.447","51.66","1.3719999999999999","48.78","1021.817","27.23","47.09","NAN","0.0"],
    [1560174,"2026-06-22 00:10:00","12884","0.857","56.5","1.829","75.02","1021.804","27.07","48.84","NAN","0.0"],
    [1560175,"2026-06-22 00:20:00","12885","0.431","122.4","0.98","55.7","1021.802","26.89","52.58","NAN","0.0"],
    [1560176,"2026-06-22 00:30:00","12886","0.373","144.8","0.784","163.5","1021.805","26.55","59.36","NAN","0.0"],
    [1560177,"2026-06-22 00:40:00","12887","0.547","196.9","1.045","204.6","1021.707","26.12","62.95","NAN","0.0"],
    [1560178,"2026-06-22 00:50:00","12888","1.054","197.1","1.405","203.0","1021.585","25.85","67.53","NAN","0.0"],
    [1560179,"2026-06-22 01:00:00","12889","0.452","193.6","1.045","197.5","1021.518","25.62","65.73","NAN","0.0"],
    [1560180,"2026-06-22 01:10:00","12890","0.32899999999999996","166.5","0.7509999999999999","162.6","1021.4910000000001","25.75","64.13","NAN","0.0"],
    [1560181,"2026-06-22 01:20:00","12891","0.5579999999999999","186.0","0.915","187.1","1021.513","25.73","62.52","NAN","0.0"],
    [1560182,"2026-06-22 01:30:00","12892","0.111","101.3","0.49","114.1","1021.428","25.68","64.37","NAN","0.0"],
    [1560183,"2026-06-22 01:40:00","12893","0.033","190.8","0.359","188.6","1021.319","25.8","61.57","NAN","0.0"],
    [1560184,"2026-06-22 01:50:00","12894","0.0","0.0","0.0","0.0","1021.311","25.82","58.05","NAN","0.0"],
    [1560185,"2026-06-22 02:00:00","12895","0.0","0.0","0.0","0.0","1021.197","25.82","57.25","NAN","0.0"],
    [1560186,"2026-06-22 02:10:00","12896","0.07400000000000001","54.03","0.621","28.11","1021.159","26.03","56.69","NAN","0.0"],
    [1560187,"2026-06-22 02:20:00","12897","0.635","49.19","1.535","76.71","1021.079","25.96","55.9","NAN","0.0"],
    [1560188,"2026-06-22 02:30:00","12898","1.112","52.17","2.025","25.16","1021.072","25.86","51.34","NAN","0.0"],
    [1560189,"2026-06-22 02:40:00","12899","0.8740000000000001","32.37","1.993","15.62","1020.992","25.86","49.09","NAN","0.0"],
    [1560190,"2026-06-22 02:50:00","12900","0.204","6.246","0.882","40.07","1020.818","26.04","48.59","NAN","0.0"],
    [1560191,"2026-06-22 03:00:00","12901","0.278","9.8","0.915","11.83","1020.773","25.88","48.74","NAN","0.0"],
    [1560192,"2026-06-22 03:10:00","12902","0.25","5.187","0.7190000000000001","356.5","1020.788","25.94","48.09","NAN","0.0"],
    [1560193,"2026-06-22 03:20:00","12903","0.033","36.12","0.457","39.69","1020.7130000000001","26","47.49","NAN","0.0"],
    [1560194,"2026-06-22 03:30:00","12904","0.193","172.9","0.621","182.0","1020.696","25.46","54.24","NAN","0.0"],
    [1560195,"2026-06-22 03:40:00","12905","0.154","196.6","0.784","202.1","1020.758","25.04","53.66","NAN","0.0"],
    [1560196,"2026-06-22 03:50:00","12906","0.6890000000000001","207.8","1.045","206.3","1020.6460000000001","24.89","57.83","NAN","0.0"],
    [1560197,"2026-06-22 04:00:00","12907","0.575","188.7","1.176","201.9","1020.571","24.9","59.78","NAN","0.0"],
    [1560198,"2026-06-22 04:10:00","12908","0.069","165.6","0.6859999999999999","162.9","1020.5939999999999","24.86","59.43","NAN","0.0"],
    [1560199,"2026-06-22 04:20:00","12909","0.013000000000000001","95.8","0.327","78.39","1020.6030000000001","24.96","58.51","NAN","0.0"],
    [1560200,"2026-06-22 04:30:00","12910","0.0","0.0","0.0","0.0","1020.569","24.84","61.4","NAN","0.0"],
    [1560201,"2026-06-22 04:40:00","12911","0.0","0.0","0.0","0.0","1020.467","24.85","60.82","NAN","0.0"],
    [1560202,"2026-06-22 04:50:00","12912","0.0","0.0","0.0","0.0","1020.4169999999999","25.08","59.43","NAN","0.0"],
    [1560203,"2026-06-22 05:00:00","12913","0.145","115.3","0.621","126.2","1020.325","25.28","58.57","NAN","0.0"],
    [1560204,"2026-06-22 05:10:00","12914","0.009000000000000001","126.8","0.359","129.1","1020.322","25.28","57.97","NAN","0.0"],
    [1560205,"2026-06-22 05:20:00","12915","0.23800000000000002","103.5","0.6859999999999999","116.3","1020.322","25.38","61.04","NAN","0.0"],
    [1560206,"2026-06-22 05:30:00","12916","0.057","164.9","0.523","168.2","1020.33","25.59","58.74","NAN","0.0"],
    [1560207,"2026-06-22 05:40:00","12917","0.021","174.1","0.392","188.6","1020.322","25.57","58.5","NAN","0.0"],
    [1560208,"2026-06-22 05:50:00","12918","0.08900000000000001","114.4","0.49","106.9","1020.319","25.87","56.02","NAN","0.0"],
    [1560209,"2026-06-22 06:00:00","12919","0.064","111.5","0.392","94.8","1020.314","26.23","57.25","NAN","0.0"],
    [1560210,"2026-06-22 06:10:00","12920","0.685","84.4","1.176","113.5","1020.329","26.52","58.35","NAN","0.0"],
    [1560211,"2026-06-22 06:20:00","12921","0.821","99.4","1.535","103.8","1020.298","26.49","58.52","NAN","0.0"],
    [1560212,"2026-06-22 06:30:00","12922","1.026","90.1","1.797","107.8","1020.2710000000001","26.66","57.57","NAN","0.0"],
    [1560213,"2026-06-22 06:40:00","12923","1.493","94.2","2.287","73.33","1020.38","26.89","55.67","NAN","0.0"],
    [1560214,"2026-06-22 06:50:00","12924","2.053","87.4","3.332","90.8","1020.492","26.41","59.5","NAN","0.0"],
    [1560215,"2026-06-22 07:00:00","12925","1.046","100.8","2.515","83.2","1020.618","26.4","61.23","NAN","0.0"],
    [1560216,"2026-06-22 07:10:00","12926","1.2429999999999999","120.2","2.0909999999999997","111.9","1020.6360000000001","26.58","62.25","NAN","0.0"],
    [1560217,"2026-06-22 07:20:00","12927","1.034","123.2","1.699","115.1","1020.6469999999999","26.6","60.38","NAN","0.0"],
    [1560218,"2026-06-22 07:30:00","12928","0.958","136.7","1.666","112.1","1020.53","26.91","54.02","NAN","0.0"],
    [1560219,"2026-06-22 07:40:00","12929","0.845","139.3","1.405","151.4","1020.48","27.62","50.29","NAN","0.0"],
    [1560220,"2026-06-22 07:50:00","12930","0.515","138.5","1.013","183.2","1020.462","28.3","44.82","NAN","0.0"],
    [1560221,"2026-06-22 08:00:00","12931","0.828","153.4","1.535","114.5","1020.332","28.72","42.27","NAN","0.0"],
    [1560222,"2026-06-22 08:10:00","12932","1.046","102.5","1.7309999999999999","98.9","1020.2769999999999","28.96","40.2","NAN","0.0"],
    [1560223,"2026-06-22 08:20:00","12933","1.329","115.6","2.189","113.0","1020.186","29.43","37.17","NAN","0.0"],
    [1560224,"2026-06-22 08:30:00","12934","1.429","118.2","2.254","115.6","1020.18","29.51","36.62","NAN","0.0"],
    [1560225,"2026-06-22 08:40:00","12935","1.902","110.3","3.1689999999999996","107.9","1020.184","29.18","38.92","NAN","0.0"],
    [1560226,"2026-06-22 08:50:00","12936","1.716","97.7","3.1689999999999996","71.36","1020.18","29.17","41.11","NAN","0.0"],
    [1560227,"2026-06-22 09:00:00","12937","2.6660000000000004","88.6","3.9530000000000003","95.4","1020.184","28.29","51.36","NAN","0.0"],
    [1560228,"2026-06-22 09:10:00","12938","2.5839999999999996","99.6","4.737","104.3","1020.184","27.95","58.49","NAN","0.0"],
    [1560229,"2026-06-22 09:20:00","12939","2.613","82.9","4.083","68.38","1020.205","27.88","56","NAN","0.0"],
    [1560230,"2026-06-22 09:30:00","12940","2.1790000000000003","89.6","3.397","73.86","1020.299","28.01","56.5","NAN","0.0"],
    [1560231,"2026-06-22 09:40:00","12941","1.962","89.4","3.1689999999999996","94.6","1020.331","28.64","53.3","NAN","0.0"],
    [1560232,"2026-06-22 09:50:00","12942","2.5860000000000003","105.0","4.1160000000000005","102.2","1020.393","28.36","52.67","NAN","0.0"],
    [1560233,"2026-06-22 10:00:00","12943","2.385","96.3","3.495","90.0","1020.334","28.34","54.17","NAN","0.0"],
    [1560234,"2026-06-22 10:10:00","12944","2.075","97.4","4.051","115.5","1020.345","28.51","54.63","NAN","0.0"],
    [1560235,"2026-06-22 10:20:00","12945","2.012","93.5","3.6260000000000003","68.27","1020.4110000000001","28.69","54.75","NAN","0.0"],
    [1560236,"2026-06-22 10:30:00","12946","2.3480000000000003","96.9","4.018","104.4","1020.446","28.38","60.9","NAN","0.0"],
    [1560237,"2026-06-22 10:40:00","12947","2.1519999999999997","95.1","3.887","88.7","1020.4939999999999","27.85","66.43","NAN","0.0"],
    [1560238,"2026-06-22 10:50:00","12948","2.335","111.7","3.7239999999999998","104.1","1020.5139999999999","28.26","65.4","NAN","0.0"],
    [1560239,"2026-06-22 11:00:00","12949","2.798","111.2","4.41","111.7","1020.4739999999999","28.13","62.45","NAN","0.0"],
    [1560240,"2026-06-22 11:10:00","12950","2.003","135.2","3.659","116.1","1020.423","28.79","59.42","NAN","0.0"],
    [1560241,"2026-06-22 11:20:00","12951","2.205","139.8","3.7239999999999998","126.5","1020.345","29.09","57.75","NAN","0.0"],
    [1560242,"2026-06-22 11:30:00","12952","2.266","154.1","3.7889999999999997","163.4","1020.2389999999999","29.39","55.08","NAN","0.0"],
    [1560243,"2026-06-22 11:40:00","12953","2.233","113.2","3.397","114.0","1020.1439999999999","29.15","57.12","NAN","0.0"],
    [1560244,"2026-06-22 11:50:00","12954","1.839","85.7","3.593","106.0","1019.9830000000001","29.46","57.53","NAN","0.0"],
    [1560245,"2026-06-22 12:00:00","12955","1.651","189.5","4.638999999999999","189.9","1019.837","32.62","34.86","NAN","0.0"],
    [1560246,"2026-06-22 12:10:00","12956","2.885","187.2","5.782","198.3","1019.68","33.34","29.83","NAN","0.0"],
    [1560247,"2026-06-22 12:20:00","12957","2.4659999999999997","190.4","4.737","192.5","1019.676","33.07","31.22","NAN","0.0"],
    [1560248,"2026-06-22 12:30:00","12958","2.7510000000000003","187.5","5.912999999999999","178.2","1019.58","32.95","32.16","NAN","0.0"],
    [1560249,"2026-06-22 12:40:00","12959","2.335","183.2","5.586","198.0","1019.545","33.24","31.66","NAN","0.0"],
    [1560250,"2026-06-22 12:50:00","12960","2.892","171.5","5.1610000000000005","176.2","1019.438","32.39","37.29","NAN","0.0"],
    [1560251,"2026-06-22 13:00:00","12961","2.5869999999999997","180.7","5.292000000000001","150.9","1019.3960000000001","32.02","39.43","NAN","0.0"],
    [1560252,"2026-06-22 13:10:00","12962","3.072","185.6","6.501","177.0","1019.39","32.47","34.87","NAN","0.0"],
    [1560253,"2026-06-22 13:20:00","12963","3.3569999999999998","170.6","5.2589999999999995","178.3","1019.3330000000001","31.63","40.67","NAN","0.0"],
    [1560254,"2026-06-22 13:30:00","12964","3.281","164.8","5.455","166.7","1019.334","30.81","44.01","NAN","0.0"],
    [1560255,"2026-06-22 13:40:00","12965","3.2430000000000003","164.5","5.063","159.4","1019.446","31.27","41.9","NAN","0.0"],
    [1560256,"2026-06-22 13:50:00","12966","3.58","166.9","5.096","168.8","1019.433","30.91","44.34","NAN","0.0"],
    [1560257,"2026-06-22 14:00:00","12967","3.622","163.4","6.0760000000000005","176.8","1019.432","30.56","46.39","NAN","0.0"],
    [1560258,"2026-06-22 14:10:00","12968","3.418","168.3","5.847","155.7","1019.3710000000001","31.24","42.14","NAN","0.0"],
    [1560259,"2026-06-22 14:20:00","12969","3.577","164.5","5.586","155.2","1019.293","30.15","49.8","NAN","0.0"],
    [1560260,"2026-06-22 14:30:00","12970","3.3989999999999996","165.1","4.704","160.0","1019.2189999999999","29.54","53.84","NAN","0.0"],
    [1560261,"2026-06-22 14:40:00","12971","3.148","163.9","4.835","145.9","1019.21","29.67","53.89","NAN","0.0"],
    [1560262,"2026-06-22 14:50:00","12972","3.188","169.8","5.129","177.7","1019.22","28.73","57","NAN","0.0"],
    [1560263,"2026-06-22 15:00:00","12973","2.76","168.7","4.933","153.3","1019.171","28.92","55.3","NAN","0.0"],
    [1560264,"2026-06-22 15:10:00","12974","2.285","170.6","4.475","177.2","1019.2360000000001","29.03","56.02","NAN","0.0"],
    [1560265,"2026-06-22 15:20:00","12975","2.623","158.4","4.41","140.1","1019.2310000000001","28.54","56.39","NAN","0.0"],
    [1560266,"2026-06-22 15:30:00","12976","1.98","154.2","5.031000000000001","182.3","1019.194","28.64","58.34","NAN","0.0"],
    [1560267,"2026-06-22 15:40:00","12977","1.9509999999999998","126.5","3.855","105.8","1019.222","28.54","59.05","NAN","0.0"],
    [1560268,"2026-06-22 15:50:00","12978","1.5590000000000002","89.9","3.6260000000000003","106.9","1019.2589999999999","28.49","59.76","NAN","0.0"],
    [1560269,"2026-06-22 16:00:00","12979","2.0180000000000002","106.3","3.7569999999999997","112.0","1019.2439999999999","27.86","64.3","NAN","0.0"],
    [1560270,"2026-06-22 16:10:00","12980","1.932","86.3","3.985","76.8","1019.248","27.95","63.45","NAN","0.0"],
    [1560271,"2026-06-22 16:20:00","12981","1.722","96.5","3.1689999999999996","108.9","1019.172","27.89","64.07","NAN","0.0"],
    [1560272,"2026-06-22 16:30:00","12982","1.909","89.3","3.201","90.6","1019.165","27.68","67.87","NAN","0.0"],
    [1560273,"2026-06-22 16:40:00","12983","1.885","106.1","3.463","91.4","1019.05","27.73","65.13","NAN","0.0"],
    [1560274,"2026-06-22 16:50:00","12984","1.683","119.6","2.94","108.2","1018.887","27.79","63.37","NAN","0.0"],
    [1560275,"2026-06-22 17:00:00","12985","1.82","119.8","3.0380000000000003","110.0","1018.804","27.79","62.5","NAN","0.0"],
    [1560276,"2026-06-22 17:10:00","12986","1.831","116.9","2.7769999999999997","122.9","1018.916","27.75","63.19","NAN","0.0"],
    [1560277,"2026-06-22 17:20:00","12987","1.4509999999999998","121.0","2.254","137.8","1019.044","27.8","61.86","NAN","0.0"],
    [1560278,"2026-06-22 17:30:00","12988","1.8559999999999999","131.8","3.43","164.4","1019.057","27.92","60.38","NAN","0.0"],
    [1560279,"2026-06-22 17:40:00","12989","2.367","162.0","3.7889999999999997","158.0","1019.012","27.61","61.12","NAN","0.0"],
    [1560280,"2026-06-22 17:50:00","12990","2.017","184.1","3.7889999999999997","163.1","1018.959","27.79","60.96","NAN","0.0"],
    [1560281,"2026-06-22 18:00:00","12991","2.1790000000000003","185.4","4.312","175.4","1018.952","27.49","63.53","NAN","0.0"],
    [1560282,"2026-06-22 18:10:00","12992","1.345","193.4","2.907","186.9","1019.086","27.72","64.64","NAN","0.0"],
    [1560283,"2026-06-22 18:20:00","12993","1.119","187.3","1.7309999999999999","205.7","1019.0830000000001","27.56","66.96","NAN","0.0"],
    [1560284,"2026-06-22 18:30:00","12994","1.161","202.1","2.319","208.6","1019.057","27.76","66.23","NAN","0.0"],
    [1560285,"2026-06-22 18:40:00","12995","1.5030000000000001","179.5","2.385","181.4","1018.943","27.67","65.88","NAN","0.0"],
    [1560286,"2026-06-22 18:50:00","12996","0.993","207.3","1.9269999999999998","194.4","1018.898","27.7","64.99","NAN","0.0"],
    [1560287,"2026-06-22 19:00:00","12997","1.81","175.6","2.5810000000000004","171.1","1018.863","27.54","66.77","NAN","0.0"],
    [1560288,"2026-06-22 19:10:00","12998","1.766","177.5","2.613","170.7","1018.818","27.39","66.74","NAN","0.0"],
    [1560289,"2026-06-22 19:20:00","12999","1.376","188.8","2.6460000000000004","182.1","1018.827","27.27","66.73","NAN","0.0"],
    [1560290,"2026-06-22 19:30:00","13000","1.3","213.4","2.7110000000000003","249.7","1018.775","27.64","62.67","NAN","0.0"],
    [1560291,"2026-06-22 19:40:00","13001","1.035","194.9","2.189","167.9","1018.805","27.83","62.02","NAN","0.0"],
    [1560292,"2026-06-22 19:50:00","13002","0.968","192.0","1.829","201.8","1018.722","27.62","63.32","NAN","0.0"],
    [1560293,"2026-06-22 20:00:00","13003","1.237","189.5","2.679","195.9","1018.773","27.5","64.69","NAN","0.0"],
    [1560294,"2026-06-22 20:10:00","13004","1.274","220.0","2.483","275.6","1018.837","27.55","63.43","NAN","0.0"],
    [1560295,"2026-06-22 20:20:00","13005","1.288","198.2","2.189","236.9","1019.049","27.8","63.15","NAN","0.0"],
    [1560296,"2026-06-22 20:30:00","13006","0.9440000000000001","194.9","1.895","182.3","1019.1510000000001","27.24","67.06","NAN","0.0"],
    [1560297,"2026-06-22 20:40:00","13007","1.087","197.3","2.221","207.3","1019.186","27.27","66.52","NAN","0.0"],
    [1560298,"2026-06-22 20:50:00","13008","1.002","198.2","1.8619999999999999","201.7","1019.326","27.06","67.6","NAN","0.0"],
    [1560299,"2026-06-22 21:00:00","13009","1.141","210.9","2.287","205.5","1019.306","27.05","66.85","NAN","0.0"],
    [1560300,"2026-06-22 21:10:00","13010","0.941","222.8","2.613","210.2","1019.2760000000001","27.35","64.69","NAN","0.0"],
    [1560301,"2026-06-22 21:20:00","13011","1.194","224.4","3.1689999999999996","238.8","1019.2080000000001","27.23","65.14","NAN","0.0"],
    [1560302,"2026-06-22 21:30:00","13012","1.193","225.8","3.0380000000000003","241.8","1019.1080000000001","27.2","66.53","NAN","0.0"],
    [1560303,"2026-06-22 21:40:00","13013","1.0979999999999999","218.5","2.417","255.8","1018.934","27.08","68.54","NAN","0.0"],
    [1560304,"2026-06-22 21:50:00","13014","0.731","208.9","2.45","260.9","1018.852","27.01","69.88","NAN","0.0"],
    [1560305,"2026-06-22 22:00:00","13015","0.846","238.8","2.254","248.6","1018.829","26.82","70.72","NAN","0.0"],
    [1560306,"2026-06-22 22:10:00","13016","1.331","238.2","3.822","244.0","1018.875","26.97","68.95","NAN","0.0"],
    [1560307,"2026-06-22 22:20:00","13017","1.453","242.0","3.1689999999999996","252.1","1018.827","26.98","68.54","NAN","0.0"],
    [1560308,"2026-06-22 22:30:00","13018","1.258","240.9","3.103","230.7","1018.872","26.92","70.56","NAN","0.0"],
    [1560309,"2026-06-22 22:40:00","13019","1.68","245.5","3.659","254.6","1018.857","26.73","73.2","NAN","0.0"],
    [1560310,"2026-06-22 22:50:00","13020","1.48","239.9","3.6260000000000003","235.8","1018.75","26.67","73.92","NAN","0.0"],
    [1560311,"2026-06-22 23:00:00","13021","1.3419999999999999","246.8","3.103","252.7","1018.6080000000001","26.52","74.96","NAN","0.0"],
    [1560312,"2026-06-22 23:10:00","13022","1.232","251.7","2.548","275.1","1018.4910000000001","26.54","75.33","NAN","0.0"],
    [1560313,"2026-06-22 23:20:00","13023","0.917","245.6","2.385","241.5","1018.421","26.58","74.55","NAN","0.0"],
    [1560314,"2026-06-22 23:30:00","13024","1.4280000000000002","238.6","3.0380000000000003","246.0","1018.329","26.48","74.31","NAN","0.0"],
    [1560315,"2026-06-22 23:40:00","13025","1.2590000000000001","247.5","3.136","247.4","1018.321","26.46","73.7","NAN","0.0"],
    [1560316,"2026-06-22 23:50:00","13026","0.7490000000000001","252.6","1.633","260.6","1018.316","26.55","73.47","NAN","0.0"],
    [1560317,"2026-06-23 00:00:00","13027","0.64","235.3","2.221","238.0","1018.2539999999999","26.56","73.55","NAN","0.0"],
    [1560318,"2026-06-23 00:10:00","13028","0.9259999999999999","247.4","2.417","249.2","1018.0939999999999","26.55","73.11","NAN","0.0"],
    [1560319,"2026-06-23 00:20:00","13029","0.48200000000000004","204.3","1.4369999999999998","200.0","1018.072","26.39","73.15","NAN","0.0"],
    [1560320,"2026-06-23 00:30:00","13030","0.9129999999999999","195.7","1.535","218.1","1017.967","25.94","75.85","NAN","0.0"],
    [1560321,"2026-06-23 00:40:00","13031","0.614","186.9","1.143","205.0","1017.883","25.82","76.16","NAN","0.0"],
    [1560322,"2026-06-23 00:50:00","13032","0.493","162.5","0.784","154.2","1017.873","25.81","75.4","NAN","0.0"],
    [1560323,"2026-06-23 01:00:00","13033","0.461","199.9","1.2409999999999999","202.3","1017.845","25.79","75.1","NAN","0.0"],
    [1560324,"2026-06-23 01:10:00","13034","0.594","203.9","1.143","250.8","1017.7280000000001","25.77","76.95","NAN","0.0"],
    [1560325,"2026-06-23 01:20:00","13035","0.096","205.6","0.6859999999999999","253.2","1017.6610000000001","25.76","76.88","NAN","0.0"],
    [1560326,"2026-06-23 01:30:00","13036","0.11900000000000001","119.7","0.555","103.0","1017.663","25.78","76.44","NAN","0.0"],
    [1560327,"2026-06-23 01:40:00","13037","0.19899999999999998","168.7","0.7509999999999999","167.0","1017.5889999999999","25.93","75.94","NAN","0.0"],
    [1560328,"2026-06-23 01:50:00","13038","0.484","107.2","1.078","111.4","1017.6360000000001","25.78","77.08","NAN","0.0"],
    [1560329,"2026-06-23 02:00:00","13039","0.4","122.9","1.633","82.5","1017.6239999999999","25.6","76.64","NAN","0.0"],
    [1560330,"2026-06-23 02:10:00","13040","0.565","81.0","1.339","76.69","1017.698","25.61","72.66","NAN","0.0"],
    [1560331,"2026-06-23 02:20:00","13041","0.389","91.8","1.013","109.4","1017.5939999999999","25.62","70.56","NAN","0.0"],
    [1560332,"2026-06-23 02:30:00","13042","0.759","97.4","1.2409999999999999","102.7","1017.581","25.67","70.89","NAN","0.0"],
    [1560333,"2026-06-23 02:40:00","13043","0.51","94.4","1.3719999999999999","80.8","1017.581","25.49","71.98","NAN","0.0"],
    [1560334,"2026-06-23 02:50:00","13044","0.6629999999999999","88.4","1.5030000000000001","105.1","1017.561","25.25","70.86","NAN","0.0"],
    [1560335,"2026-06-23 03:00:00","13045","0.523","99.4","1.2409999999999999","66.37","1017.497","25.18","70.79","NAN","0.0"],
    [1560336,"2026-06-23 03:10:00","13046","0.465","173.1","0.8170000000000001","178.0","1017.4689999999999","25.18","70.87","NAN","0.0"],
    [1560337,"2026-06-23 03:20:00","13047","0.7120000000000001","157.9","1.339","185.1","1017.4789999999999","24.76","74.75","NAN","0.0"],
    [1560338,"2026-06-23 03:30:00","13048","0.584","137.5","1.307","149.9","1017.534","24.64","73.21","NAN","0.0"],
    [1560339,"2026-06-23 03:40:00","13049","0.337","163.9","1.111","156.6","1017.4989999999999","24.67","71.33","NAN","0.0"],
    [1560340,"2026-06-23 03:50:00","13050","0.0","0.0","0.0","0.0","1017.37","24.56","71.36","NAN","0.0"],
    [1560341,"2026-06-23 04:00:00","13051","0.0","0.0","0.0","0.0","1017.362","24.65","70.65","NAN","0.0"],
    [1560342,"2026-06-23 04:10:00","13052","0.131","196.3","0.6859999999999999","198.1","1017.332","24.63","70.13","NAN","0.0"],
    [1560343,"2026-06-23 04:20:00","13053","0.16","183.4","0.588","196.4","1017.375","24.43","71.5","NAN","0.0"],
    [1560344,"2026-06-23 04:30:00","13054","0.10300000000000001","83.9","0.425","77.68","1017.482","24.43","70.29","NAN","0.0"],
    [1560345,"2026-06-23 04:40:00","13055","0.135","88.2","0.457","93.3","1017.6410000000001","24.61","69.6","NAN","0.0"],
    [1560346,"2026-06-23 04:50:00","13056","0.573","50.04","1.143","51.31","1017.704","24.69","64.77","NAN","0.0"],
    [1560347,"2026-06-23 05:00:00","13057","0.5920000000000001","18.4","1.666","51.85","1017.706","25.21","56.21","NAN","0.0"],
    [1560348,"2026-06-23 05:10:00","13058","0.809","2.5580000000000003","2.352","346.4","1017.704","25.47","53.74","NAN","0.0"],
    [1560349,"2026-06-23 05:20:00","13059","0.8590000000000001","41.56","1.895","28.4","1017.703","25.66","53.61","NAN","0.0"],
    [1560350,"2026-06-23 05:30:00","13060","1.008","5.62","2.025","17.04","1017.586","25.88","52.95","NAN","0.0"],
    [1560351,"2026-06-23 05:40:00","13061","0.588","14.12","1.797","20.11","1017.507","26.09","52.27","NAN","0.0"],
    [1560352,"2026-06-23 05:50:00","13062","0.611","0.981","1.7309999999999999","356.7","1017.574","26.9","49.65","NAN","0.0"],
    [1560353,"2026-06-23 06:00:00","13063","0.708","11.53","2.287","16.58","1017.558","27.17","48.41","NAN","0.0"],
    [1560354,"2026-06-23 06:10:00","13064","0.618","29.64","1.3719999999999999","44.36","1017.53","27.92","46.75","NAN","0.0"],
    [1560355,"2026-06-23 06:20:00","13065","1.032","61.2","2.483","65.36","1017.62","28.18","46.03","NAN","0.0"],
    [1560356,"2026-06-23 06:30:00","13066","0.9690000000000001","59.16","2.189","67.11","1017.6510000000001","28.14","45.78","NAN","0.0"],
    [1560357,"2026-06-23 06:40:00","13067","1.075","71.56","2.123","57.08","1017.681","28.35","45.15","NAN","0.0"],
    [1560358,"2026-06-23 06:50:00","13068","1.473","71.58","2.7439999999999998","64.32","1017.6339999999999","28.12","45.77","NAN","0.0"],
    [1560359,"2026-06-23 07:00:00","13069","1.633","50.85","3.92","24.64","1017.6210000000001","27.89","47.66","NAN","0.0"],
    [1560360,"2026-06-23 07:10:00","13070","1.521","58.66","2.9730000000000003","48.72","1017.703","28.08","50.26","NAN","0.0"],
    [1560361,"2026-06-23 07:20:00","13071","1.545","71.15","3.103","72.13","1017.7339999999999","28.18","56.65","NAN","0.0"],
    [1560362,"2026-06-23 07:30:00","13072","1.8030000000000002","84.2","3.365","61.17","1017.775","28.04","64.28","NAN","0.0"],
    [1560363,"2026-06-23 07:40:00","13073","2.319","91.6","3.593","84.5","1017.841","27.54","68.55","NAN","0.0"],
    [1560364,"2026-06-23 07:50:00","13074","1.974","88.5","3.365","101.5","1017.905","27.62","70.55","NAN","0.0"],
    [1560365,"2026-06-23 08:00:00","13075","2.092","90.0","3.659","87.5","1017.908","27.62","73.5","NAN","0.0"],
    [1560366,"2026-06-23 08:10:00","13076","2.2430000000000003","88.3","3.528","89.7","1017.942","27.2","75.82","NAN","0.0"],
    [1560367,"2026-06-23 08:20:00","13077","3.1689999999999996","93.4","5.651","106.3","1017.955","26.71","81.1","NAN","0.0"],
    [1560368,"2026-06-23 08:30:00","13078","2.63","80.3","4.181","67.31","1017.949","26.28","87.5","NAN","0.0"],
    [1560369,"2026-06-23 08:40:00","13079","2.6039999999999996","88.8","4.377","104.7","1017.951","26.55","86.7","NAN","0.0"],
    [1560370,"2026-06-23 08:50:00","13080","2.062","85.1","3.365","79.61","1017.9839999999999","26.66","85.1","NAN","0.0"],
    [1560371,"2026-06-23 09:00:00","13081","2.3409999999999997","107.2","3.92","109.3","1017.8919999999999","27.05","83.2","NAN","0.0"],
    [1560372,"2026-06-23 09:10:00","13082","2.5180000000000002","94.5","4.149","101.2","1017.8580000000001","26.65","85.5","NAN","0.0"],
    [1560373,"2026-06-23 09:20:00","13083","2.1069999999999998","94.4","3.6260000000000003","113.7","1017.758","27.14","85.1","NAN","0.0"],
    [1560374,"2026-06-23 09:30:00","13084","2.146","99.5","4.051","111.9","1017.852","27.13","85.2","NAN","0.0"],
    [1560375,"2026-06-23 09:40:00","13085","2.563","111.9","3.9530000000000003","111.0","1017.8589999999999","26.61","87.5","NAN","0.0"],
    [1560376,"2026-06-23 09:50:00","13086","2.492","109.5","3.887","103.1","1017.9830000000001","26.65","86.6","NAN","0.0"],
    [1560377,"2026-06-23 10:00:00","13087","2.85","108.4","4.541","109.4","1017.942","26.75","83.7","NAN","0.0"],
    [1560378,"2026-06-23 10:10:00","13088","2.4730000000000003","110.2","4.508","115.8","1017.924","26.79","81.1","NAN","0.0"],
    [1560379,"2026-06-23 10:20:00","13089","2.191","98.5","3.1689999999999996","86.2","1017.9630000000001","27.38","75.61","NAN","0.0"],
    [1560380,"2026-06-23 10:30:00","13090","1.989","100.3","3.299","96.6","1017.9839999999999","28.13","62.57","NAN","0.0"],
    [1560381,"2026-06-23 10:40:00","13091","2.947","109.9","4.083","111.2","1017.9830000000001","27.73","60.59","NAN","0.0"],
    [1560382,"2026-06-23 10:50:00","13092","2.028","101.3","3.6260000000000003","113.2","1017.9760000000001","27.95","69.24","NAN","0.0"],
    [1560383,"2026-06-23 11:00:00","13093","2.0180000000000002","119.2","3.6260000000000003","113.3","1017.923","27.67","65.97","NAN","0.0"],
    [1560384,"2026-06-23 11:10:00","13094","1.962","98.8","2.907","91.7","1017.85","28.19","60.78","NAN","0.0"],
    [1560385,"2026-06-23 11:20:00","13095","2.156","98.1","3.5610000000000004","87.6","1017.763","28.12","61.48","NAN","0.0"],
    [1560386,"2026-06-23 11:30:00","13096","1.742","97.9","3.397","118.6","1017.7460000000001","28.13","61.46","NAN","0.0"],
    [1560387,"2026-06-23 11:40:00","13097","1.949","108.2","3.495","104.4","1017.7410000000001","28.28","64.87","NAN","0.0"],
    [1560388,"2026-06-23 11:50:00","13098","2.218","124.2","3.855","110.1","1017.7080000000001","27.56","70","NAN","0.0"],
    [1560389,"2026-06-23 12:00:00","13099","2.29","127.7","3.593","145.5","1017.658","27.29","74.19","NAN","0.0"],
    [1560390,"2026-06-23 12:10:00","13100","2.365","121.2","3.855","121.3","1017.585","27.06","76.03","NAN","0.0"],
    [1560391,"2026-06-23 12:20:00","13101","2.555","128.1","4.475","114.7","1017.62","27.35","73.78","NAN","0.0"],
    [1560392,"2026-06-23 12:30:00","13102","2.425","130.3","3.659","147.0","1017.5219999999999","27.21","69.69","NAN","0.0"],
    [1560393,"2026-06-23 12:40:00","13103","2.443","116.6","4.181","117.5","1017.449","27.87","61.28","NAN","0.0"],
    [1560394,"2026-06-23 12:50:00","13104","2.2430000000000003","100.4","3.593","90.3","1017.3910000000001","27.73","63.35","NAN","0.0"],
    [1560395,"2026-06-23 13:00:00","13105","2.0269999999999997","111.4","3.299","117.8","1017.347","27.91","62.07","NAN","0.0"],
    [1560396,"2026-06-23 13:10:00","13106","2.005","120.9","3.6260000000000003","104.2","1017.258","27.98","61.18","NAN","0.0"],
    [1560397,"2026-06-23 13:20:00","13107","2.115","125.9","3.43","111.5","1017.189","28","59.09","NAN","0.0"],
    [1560398,"2026-06-23 13:30:00","13108","1.933","131.3","2.7439999999999998","117.4","1017.057","27.96","57.2","NAN","0.0"],
    [1560399,"2026-06-23 13:40:00","13109","1.851","134.8","3.234","151.9","1016.993","28.06","59.33","NAN","0.0"],
    [1560400,"2026-06-23 13:50:00","13110","1.756","124.4","2.6460000000000004","111.5","1016.9989999999999","28.27","59.96","NAN","0.0"],
    [1560401,"2026-06-23 14:00:00","13111","1.673","102.7","2.7769999999999997","105.7","1016.929","28.53","57.23","NAN","0.0"],
    [1560402,"2026-06-23 14:10:00","13112","1.916","117.2","2.875","106.8","1016.7389999999999","28.55","54.57","NAN","0.0"],
    [1560403,"2026-06-23 14:20:00","13113","1.719","128.2","2.875","110.2","1016.709","28.65","54.62","NAN","0.0"],
    [1560404,"2026-06-23 14:30:00","13114","1.6469999999999998","126.1","2.679","165.1","1016.7230000000001","28.74","57.74","NAN","0.0"],
    [1560405,"2026-06-23 14:40:00","13115","1.754","135.5","3.43","166.1","1016.706","28.56","58.23","NAN","0.0"],
    [1560406,"2026-06-23 14:50:00","13116","1.9869999999999999","132.8","2.9730000000000003","110.2","1016.605","28.45","56.53","NAN","0.0"],
    [1560407,"2026-06-23 15:00:00","13117","2.178","122.2","3.495","111.4","1016.533","28.01","65.04","NAN","0.0"],
    [1560408,"2026-06-23 15:10:00","13118","2.08","112.2","3.332","105.3","1016.45","27.98","69.47","NAN","0.0"],
    [1560409,"2026-06-23 15:20:00","13119","2.293","117.7","3.659","108.3","1016.27","27.53","73.32","NAN","0.0"],
    [1560410,"2026-06-23 15:30:00","13120","2.114","105.8","3.659","116.6","1016.2460000000001","27.28","75.95","NAN","0.0"],
    [1560411,"2026-06-23 15:40:00","13121","2.467","111.4","3.855","95.6","1016.163","27.22","76.88","NAN","0.0"],
    [1560412,"2026-06-23 15:50:00","13122","2.323","126.2","3.495","134.1","1016.1519999999999","26.88","81.3","NAN","0.0"],
    [1560413,"2026-06-23 16:00:00","13123","2.423","128.4","3.7889999999999997","115.6","1016.044","26.61","84.3","NAN","0.0"],
    [1560414,"2026-06-23 16:10:00","13124","1.7","133.9","3.103","166.6","1016.049","27.01","82.2","NAN","0.0"],
    [1560415,"2026-06-23 16:20:00","13125","1.8","131.4","2.7769999999999997","119.6","1016.0210000000001","26.97","79.13","NAN","0.0"],
    [1560416,"2026-06-23 16:30:00","13126","1.63","112.1","2.907","120.8","1016.0169999999999","27.13","77.34","NAN","0.0"],
    [1560417,"2026-06-23 16:40:00","13127","1.8359999999999999","117.7","3.0380000000000003","104.9","1015.951","26.89","77.31","NAN","0.0"],
    [1560418,"2026-06-23 16:50:00","13128","2.26","117.0","3.267","127.7","1015.88","26.99","77.5","NAN","0.0"],
    [1560419,"2026-06-23 17:00:00","13129","2.153","121.2","2.94","114.1","1015.918","26.53","85","NAN","0.0"],
    [1560420,"2026-06-23 17:10:00","13130","1.794","103.4","3.234","101.9","1015.903","26.54","84.7","NAN","0.0"],
    [1560421,"2026-06-23 17:20:00","13131","1.639","111.6","2.679","104.8","1015.819","26.72","84.4","NAN","0.0"],
    [1560422,"2026-06-23 17:30:00","13132","1.921","109.2","2.94","107.5","1015.825","26.72","83.6","NAN","0.0"],
    [1560423,"2026-06-23 17:40:00","13133","2.024","116.9","3.332","114.7","1015.867","26.43","85.3","NAN","0.0"],
    [1560424,"2026-06-23 17:50:00","13134","1.689","115.6","2.7769999999999997","107.0","1015.867","26.36","83.8","NAN","0.0"],
    [1560425,"2026-06-23 18:00:00","13135","1.446","111.0","2.8089999999999997","108.6","1015.815","26.7","82.6","NAN","0.0"],
    [1560426,"2026-06-23 18:10:00","13136","1.5730000000000002","117.1","2.417","109.8","1016.005","26.6","83.3","NAN","0.0"],
    [1560427,"2026-06-23 18:20:00","13137","1.528","127.0","2.0909999999999997","131.2","1016.047","26.29","84.9","NAN","0.0"],
    [1560428,"2026-06-23 18:30:00","13138","1.609","134.1","2.8089999999999997","151.4","1016.072","26.21","86.6","NAN","0.0"],
    [1560429,"2026-06-23 18:40:00","13139","1.354","149.1","2.45","151.4","1016.0089999999999","25.98","88.3","NAN","0.0"],
    [1560430,"2026-06-23 18:50:00","13140","1.16","138.6","1.8619999999999999","125.4","1016.01","25.95","88.5","NAN","0.0"],
    [1560431,"2026-06-23 19:00:00","13141","1.3559999999999999","133.9","2.025","109.8","1016.085","25.75","89.3","NAN","0.0"],
    [1560432,"2026-06-23 19:10:00","13142","1.099","142.0","1.7309999999999999","140.5","1016.073","25.85","89.2","NAN","0.0"],
    [1560433,"2026-06-23 19:20:00","13143","0.8909999999999999","134.7","1.764","140.0","1016.002","25.82","88.8","NAN","0.0"],
    [1560434,"2026-06-23 19:30:00","13144","1.092","147.7","1.7309999999999999","147.1","1015.9639999999999","25.9","89","NAN","0.0"],
    [1560435,"2026-06-23 19:40:00","13145","1.133","140.9","1.9269999999999998","106.8","1015.845","25.76","89.7","NAN","0.0"],
    [1560436,"2026-06-23 19:50:00","13146","1.04","110.6","1.699","110.3","1016.029","25.77","89.9","NAN","0.0"],
    [1560437,"2026-06-23 20:00:00","13147","1.149","116.2","1.764","115.8","1016.0939999999999","25.82","89.4","NAN","0.0"],
    [1560438,"2026-06-23 20:10:00","13148","0.9490000000000001","93.1","1.601","79.64","1016.204","25.91","88.9","NAN","0.0"],
    [1560439,"2026-06-23 20:20:00","13149","0.743","102.7","1.307","113.8","1016.199","25.83","88.7","NAN","0.0"],
    [1560440,"2026-06-23 20:30:00","13150","0.723","95.1","1.568","102.6","1016.201","25.96","88.4","NAN","0.0"],
    [1560441,"2026-06-23 20:40:00","13151","0.818","89.4","1.535","110.6","1016.209","25.9","88.9","NAN","0.0"],
    [1560442,"2026-06-23 20:50:00","13152","0.306","105.9","0.6859999999999999","112.8","1016.091","25.98","88.8","NAN","0.0"],
    [1560443,"2026-06-23 21:00:00","13153","0.447","134.9","0.7190000000000001","114.2","1015.971","26.44","86.3","NAN","0.0"],
    [1560444,"2026-06-23 21:10:00","13154","0.778","179.3","1.2409999999999999","173.9","1015.939","26.14","88","NAN","0.0"],
    [1560445,"2026-06-23 21:20:00","13155","1.0190000000000001","156.7","1.535","146.0","1015.852","25.93","90","NAN","0.0"],
    [1560446,"2026-06-23 21:30:00","13156","1.196","143.0","2.221","132.2","1015.84","25.77","90.8","NAN","0.0"],
    [1560447,"2026-06-23 21:40:00","13157","0.89","157.6","1.7309999999999999","161.8","1015.947","25.53","91.2","NAN","0.0"],
    [1560448,"2026-06-23 21:50:00","13158","0.9840000000000001","164.5","1.633","171.3","1015.932","25.56","90.4","NAN","0.0"],
    [1560449,"2026-06-23 22:00:00","13159","0.57","174.6","1.339","175.7","1015.922","25.68","90.8","NAN","0.0"],
    [1560450,"2026-06-23 22:10:00","13160","0.8370000000000001","179.6","1.47","180.2","1015.967","25.61","91.2","NAN","0.0"],
    [1560451,"2026-06-23 22:20:00","13161","0.564","176.4","1.176","182.1","1015.9889999999999","25.53","91.8","NAN","0.0"],
    [1560452,"2026-06-23 22:30:00","13162","0.507","164.4","0.98","173.3","1016.052","25.67","89.7","NAN","0.0"],
    [1560453,"2026-06-23 22:40:00","13163","0.664","173.4","0.9470000000000001","171.7","1016.002","25.7","89.6","NAN","0.0"],
    [1560454,"2026-06-23 22:50:00","13164","0.6409999999999999","182.4","1.2409999999999999","179.1","1016.054","25.58","88.9","NAN","0.0"],
    [1560455,"2026-06-23 23:00:00","13165","1.1179999999999999","168.2","1.8619999999999999","174.5","1016.102","25.57","89.7","NAN","0.0"],
    [1560456,"2026-06-23 23:10:00","13166","0.932","175.7","1.666","180.1","1016.2139999999999","25.42","92.4","NAN","0.0"],
    [1560457,"2026-06-23 23:20:00","13167","1.048","170.5","1.699","174.5","1016.2139999999999","25.39","93.1","NAN","0.0"],
    [1560458,"2026-06-23 23:30:00","13168","1.022","177.1","1.829","174.5","1016.216","25.32","93.7","NAN","0.0"],
    [1560459,"2026-06-23 23:40:00","13169","1.46","171.6","2.287","176.3","1016.321","25.19","93.8","NAN","0.0"],
    [1560460,"2026-06-23 23:50:00","13170","1.13","161.3","1.96","171.5","1016.331","25.11","93.3","NAN","0.0"],
    [1560461,"2026-06-24 00:00:00","13171","0.6890000000000001","153.7","1.633","162.1","1016.336","25.28","92.9","NAN","0.0"],
    [1560462,"2026-06-24 00:10:00","13172","0.892","167.2","1.5030000000000001","169.5","1016.328","25.25","93.4","NAN","0.0"],
    [1560463,"2026-06-24 00:20:00","13173","0.835","170.9","1.633","178.3","1016.2289999999999","25.16","94.2","NAN","0.0"],
    [1560464,"2026-06-24 00:30:00","13174","0.32","161.6","1.5030000000000001","174.8","1016.211","25.21","94.4","NAN","0.0"],
    [1560465,"2026-06-24 00:40:00","13175","0.297","177.7","0.8170000000000001","165.4","1016.0939999999999","25.29","94.3","NAN","0.0"],
    [1560466,"2026-06-24 00:50:00","13176","0.019","193.0","0.425","161.7","1015.8989999999999","25.3","93.9","NAN","0.0"],
    [1560467,"2026-06-24 01:00:00","13177","0.379","124.2","0.784","114.6","1015.89","25.38","92.5","NAN","0.0"],
    [1560468,"2026-06-24 01:10:00","13178","0.358","135.9","0.7190000000000001","145.8","1015.84","25.16","92.9","NAN","0.0"],
    [1560469,"2026-06-24 01:20:00","13179","0.305","157.4","0.653","178.2","1015.837","25.13","92.6","NAN","0.0"],
    [1560470,"2026-06-24 01:30:00","13180","0.313","173.4","0.653","172.9","1015.837","25.32","92.9","NAN","0.0"],
    [1560471,"2026-06-24 01:40:00","13181","0.48200000000000004","169.2","0.915","174.8","1015.762","25.3","92.9","NAN","0.0"],
    [1560472,"2026-06-24 01:50:00","13182","0.389","174.4","0.882","177.7","1015.715","25.19","93.9","NAN","0.0"],
    [1560473,"2026-06-24 02:00:00","13183","0.772","164.5","1.2409999999999999","165.0","1015.5160000000001","25.05","94.6","NAN","0.0"],
    [1560474,"2026-06-24 02:10:00","13184","0.695","127.5","1.3719999999999999","119.0","1015.4639999999999","24.94","94.7","NAN","0.0"],
    [1560475,"2026-06-24 02:20:00","13185","0.503","139.2","1.176","143.8","1015.4639999999999","24.95","94.2","NAN","0.0"],
    [1560476,"2026-06-24 02:30:00","13186","0.27","141.0","0.7190000000000001","131.5","1015.444","24.94","95","NAN","0.0"],
    [1560477,"2026-06-24 02:40:00","13187","0.015","182.9","0.392","181.8","1015.3389999999999","24.95","95.1","NAN","0.0"],
    [1560478,"2026-06-24 02:50:00","13188","0.0","0.0","0.0","0.0","1015.3389999999999","24.89","95.2","NAN","0.0"],
    [1560479,"2026-06-24 03:00:00","13189","0.192","144.7","0.7509999999999999","150.3","1015.3389999999999","24.88","95","NAN","0.0"],
    [1560480,"2026-06-24 03:10:00","13190","0.6920000000000001","169.4","1.176","148.9","1015.3389999999999","24.78","95.3","NAN","0.0"],
    [1560481,"2026-06-24 03:20:00","13191","0.79","169.0","1.339","164.7","1015.429","24.69","95.8","NAN","0.0"],
    [1560482,"2026-06-24 03:30:00","13192","0.679","161.9","1.339","151.6","1015.461","24.68","96.2","NAN","0.0"],
    [1560483,"2026-06-24 03:40:00","13193","0.40399999999999997","148.9","1.078","157.4","1015.456","24.74","96.5","NAN","0.0"],
    [1560484,"2026-06-24 03:50:00","13194","0.33799999999999997","160.9","0.9470000000000001","173.3","1015.539","24.74","96.3","NAN","0.0"],
    [1560485,"2026-06-24 04:00:00","13195","0.156","135.1","0.784","142.7","1015.581","24.73","96.4","NAN","0.0"],
    [1560486,"2026-06-24 04:10:00","13196","0.252","182.6","0.8170000000000001","182.0","1015.4689999999999","24.63","96.5","NAN","0.0"],
    [1560487,"2026-06-24 04:20:00","13197","0.040999999999999995","176.2","0.457","177.6","1015.466","24.64","96.1","NAN","0.0"],
    [1560488,"2026-06-24 04:30:00","13198","0.243","140.5","0.653","138.9","1015.5010000000001","24.5","95.4","NAN","0.0"],
    [1560489,"2026-06-24 04:40:00","13199","0.153","121.5","0.588","106.4","1015.551","24.61","93.8","NAN","0.0"],
    [1560490,"2026-06-24 04:50:00","13200","0.235","108.4","1.405","97.5","1015.596","24.82","92.4","NAN","0.0"],
    [1560491,"2026-06-24 05:00:00","13201","0.762","110.0","1.47","114.9","1015.71","24.99","92.4","NAN","0.0"],
    [1560492,"2026-06-24 05:10:00","13202","0.754","91.1","1.405","66.59","1015.715","25.06","93.5","NAN","0.0"],
    [1560493,"2026-06-24 05:20:00","13203","0.509","102.8","1.013","103.3","1015.7130000000001","24.98","93.9","NAN","0.0"],
    [1560494,"2026-06-24 05:30:00","13204","0.109","65.48","0.653","63.85","1015.7180000000001","25.29","90.9","NAN","0.0"],
    [1560495,"2026-06-24 05:40:00","13205","0.019","159.0","0.327","166.5","1015.73","25.5","87.4","NAN","0.0"],
    [1560496,"2026-06-24 05:50:00","13206","0.545","176.7","0.8490000000000001","177.2","1015.77","25.5","89.8","NAN","0.0"],
    [1560497,"2026-06-24 06:00:00","13207","0.603","168.4","1.045","139.2","1015.837","25.37","91.2","NAN","0.0"],
    [1560498,"2026-06-24 06:10:00","13208","1.011","128.2","1.666","117.6","1015.821","25.48","90.1","NAN","0.0"],
    [1560499,"2026-06-24 06:20:00","13209","1.061","129.7","1.764","118.4","1015.793","25.47","89.7","NAN","0.0"],
    [1560500,"2026-06-24 06:30:00","13210","0.638","157.1","1.2409999999999999","166.1","1015.7310000000001","25.73","88.2","NAN","0.0"],
    [1560501,"2026-06-24 06:40:00","13211","0.723","164.5","1.176","165.7","1015.75","25.85","86.3","NAN","0.0"],
    [1560502,"2026-06-24 06:50:00","13212","0.927","170.1","1.699","160.5","1015.765","25.98","85","NAN","0.0"],
    [1560503,"2026-06-24 07:00:00","13213","1.29","177.4","2.156","159.7","1015.775","25.92","84.9","NAN","0.0"],
    [1560504,"2026-06-24 07:10:00","13214","1.899","169.6","2.5810000000000004","163.6","1015.8839999999999","25.81","85.5","NAN","0.0"],
    [1560505,"2026-06-24 07:20:00","13215","1.3330000000000002","172.3","2.189","182.0","1015.9910000000001","25.9","85.8","NAN","0.0"],
    [1560506,"2026-06-24 07:30:00","13216","1.308","178.6","2.319","172.8","1016.0089999999999","26.22","85.8","NAN","0.0"],
    [1560507,"2026-06-24 07:40:00","13217","1.456","158.9","2.319","156.7","1016.01","26.3","85.4","NAN","0.0"],
    [1560508,"2026-06-24 07:50:00","13218","1.145","158.9","1.993","144.5","1016.005","26.45","85.5","NAN","0.0"],
    [1560509,"2026-06-24 08:00:00","13219","1.176","162.5","1.7309999999999999","158.7","1016.0169999999999","26.89","82.7","NAN","0.0"],
    [1560510,"2026-06-24 08:10:00","13220","1.182","164.4","1.764","184.7","1016.0089999999999","27.21","80.3","NAN","0.0"],
    [1560511,"2026-06-24 08:20:00","13221","1.504","146.1","2.221","108.9","1015.966","27.28","81.4","NAN","0.0"],
    [1560512,"2026-06-24 08:30:00","13222","1.615","125.2","2.352","124.7","1016.008","27.22","81.5","NAN","0.0"],
    [1560513,"2026-06-24 08:40:00","13223","1.643","119.7","2.221","116.1","1016.057","27.4","80","NAN","0.0"],
    [1560514,"2026-06-24 08:50:00","13224","1.67","123.8","2.417","127.2","1016.068","27.5","80.5","NAN","0.0"],
    [1560515,"2026-06-24 09:00:00","13225","1.571","140.4","2.613","112.4","1016.202","27.7","79.9","NAN","0.0"],
    [1560516,"2026-06-24 09:10:00","13226","1.806","126.2","2.94","106.1","1016.203","27.72","80.3","NAN","0.0"],
    [1560517,"2026-06-24 09:20:00","13227","1.817","126.5","2.613","109.2","1016.203","27.75","79.4","NAN","0.0"],
    [1560518,"2026-06-24 09:30:00","13228","1.8969999999999998","132.6","2.7769999999999997","138.7","1016.205","27.59","79.19","NAN","0.0"],
    [1560519,"2026-06-24 09:40:00","13229","1.6369999999999998","143.7","2.613","161.5","1016.248","27.86","76.51","NAN","0.0"],
    [1560520,"2026-06-24 09:50:00","13230","1.849","125.0","2.875","115.8","1016.2589999999999","28.08","74","NAN","0.0"],
    [1560521,"2026-06-24 10:00:00","13231","1.9709999999999999","132.9","3.332","156.2","1016.247","27.88","75.94","NAN","0.0"],
    [1560522,"2026-06-24 10:10:00","13232","1.88","150.5","3.1689999999999996","174.8","1016.225","27.61","78.08","NAN","0.0"],
    [1560523,"2026-06-24 10:20:00","13233","1.766","142.5","2.94","166.4","1016.216","27.95","73","NAN","0.0"],
    [1560524,"2026-06-24 10:30:00","13234","2.221","123.2","3.234","110.4","1016.211","28.26","69.96","NAN","0.0"],
    [1560525,"2026-06-24 10:40:00","13235","2.395","123.8","3.7569999999999997","113.6","1016.215","28.07","74.85","NAN","0.0"],
    [1560526,"2026-06-24 10:50:00","13236","1.974","130.6","3.397","121.1","1016.227","28.32","76.03","NAN","0.0"],
    [1560527,"2026-06-24 11:00:00","13237","2.092","162.6","3.365","177.6","1016.227","28.34","76.17","NAN","0.0"],
    [1560528,"2026-06-24 11:10:00","13238","2.355","184.3","3.593","188.6","1016.2289999999999","27.96","77.28","NAN","0.0"],
    [1560529,"2026-06-24 11:20:00","13239","2.201","180.3","3.593","188.6","1016.165","28.08","77.48","NAN","0.0"],
    [1560530,"2026-06-24 11:30:00","13240","2.199","166.8","3.593","110.1","1016.168","28.19","78.32","NAN","0.0"],
    [1560531,"2026-06-24 11:40:00","13241","2.133","175.1","3.985","158.0","1016.1260000000001","28.25","78.52","NAN","0.0"],
    [1560532,"2026-06-24 11:50:00","13242","2.205","178.9","3.593","201.3","1016.0889999999999","28.35","76.26","NAN","0.0"],
    [1560533,"2026-06-24 12:00:00","13243","2.04","160.5","3.985","141.4","1016.0060000000001","28.35","75.44","NAN","0.0"],
    [1560534,"2026-06-24 12:10:00","13244","2.38","141.8","4.279","110.0","1016.005","28.55","76.21","NAN","0.0"],
    [1560535,"2026-06-24 12:20:00","13245","2.2880000000000003","138.5","3.463","140.1","1016.007","28.4","78.17","NAN","0.0"],
    [1560536,"2026-06-24 12:30:00","13246","2.116","139.8","3.43","147.3","1016.015","28.46","78.3","NAN","0.0"],
    [1560537,"2026-06-24 12:40:00","13247","2.332","135.8","3.7239999999999998","114.5","1016.1519999999999","28.33","79.2","NAN","0.0"],
    [1560538,"2026-06-24 12:50:00","13248","2.5069999999999997","155.6","4.247","157.4","1016.123","28","80.9","NAN","0.0"],
    [1560539,"2026-06-24 13:00:00","13249","2.197","150.9","3.822","107.6","1016.074","28.38","78.04","NAN","0.0"],
    [1560540,"2026-06-24 13:10:00","13250","1.8530000000000002","143.6","2.94","105.0","1016.0010000000001","28.63","76.35","NAN","0.0"],
    [1560541,"2026-06-24 13:20:00","13251","1.875","176.7","3.5610000000000004","183.1","1015.923","28.73","77.23","NAN","0.0"],
    [1560542,"2026-06-24 13:30:00","13252","1.817","188.5","2.94","186.4","1015.954","28.41","77.9","NAN","0.0"],
    [1560543,"2026-06-24 13:40:00","13253","1.574","201.5","2.679","182.3","1015.937","29.48","72.75","NAN","0.0"],
    [1560544,"2026-06-24 13:50:00","13254","1.764","188.4","3.332","174.2","1015.8689999999999","29.15","73","NAN","0.0"],
    [1560545,"2026-06-24 14:00:00","13255","1.895","191.5","3.7239999999999998","160.5","1015.887","29.23","73.3","NAN","0.0"],
    [1560546,"2026-06-24 14:10:00","13256","1.999","184.5","3.332","178.7","1015.797","28.69","76.48","NAN","0.0"],
    [1560547,"2026-06-24 14:20:00","13257","1.39","209.6","3.0380000000000003","201.8","1015.7180000000001","29.72","71.83","NAN","0.0"],
    [1560548,"2026-06-24 14:30:00","13258","1.7409999999999999","197.5","4.018","176.2","1015.695","29.79","70.94","NAN","0.0"],
    [1560549,"2026-06-24 14:40:00","13259","1.8630000000000002","192.7","3.1689999999999996","184.1","1015.622","28.77","75.35","NAN","0.0"],
    [1560550,"2026-06-24 14:50:00","13260","2.149","178.0","4.1160000000000005","166.1","1015.573","28.43","75.21","NAN","0.0"],
    [1560551,"2026-06-24 15:00:00","13261","2.202","180.7","3.7889999999999997","181.0","1015.4789999999999","28.66","70.45","NAN","0.0"],
    [1560552,"2026-06-24 15:10:00","13262","2.468","169.5","3.855","154.7","1015.4639999999999","28.3","70.81","NAN","0.0"],
    [1560553,"2026-06-24 15:20:00","13263","2.67","169.1","3.7569999999999997","147.6","1015.3989999999999","28.16","70.45","NAN","0.0"],
    [1560554,"2026-06-24 15:30:00","13264","2.9339999999999997","170.4","4.149","181.5","1015.323","28.01","73.85","NAN","0.0"],
    [1560555,"2026-06-24 15:40:00","13265","2.489","172.2","3.7889999999999997","181.1","1015.2410000000001","28.04","70.76","NAN","0.0"],
    [1560556,"2026-06-24 15:50:00","13266","2.496","169.7","4.018","180.5","1015.092","28.33","66.86","NAN","0.0"],
    [1560557,"2026-06-24 16:00:00","13267","2.667","171.8","4.018","181.6","1015.049","28.3","62.83","NAN","0.0"],
    [1560558,"2026-06-24 16:10:00","13268","2.708","168.9","3.7239999999999998","178.4","1015.0239999999999","28.26","65.65","NAN","0.0"],
    [1560559,"2026-06-24 16:20:00","13269","2.864","171.0","4.573","169.3","1015.0139999999999","28.02","69.62","NAN","0.0"],
    [1560560,"2026-06-24 16:30:00","13270","2.9589999999999996","175.2","4.835","186.9","1015.023","27.96","65.91","NAN","0.0"],
    [1560561,"2026-06-24 16:40:00","13271","3.193","176.6","4.835","183.8","1015.0110000000001","27.86","65.48","NAN","0.0"],
    [1560562,"2026-06-24 16:50:00","13272","2.908","175.3","4.377","180.4","1014.939","27.6","69.82","NAN","0.0"],
    [1560563,"2026-06-24 17:00:00","13273","2.57","178.0","3.7889999999999997","174.6","1014.9580000000001","27.68","70.59","NAN","0.0"],
    [1560564,"2026-06-24 17:10:00","13274","2.687","178.7","4.181","179.8","1014.9910000000001","27.61","71.07","NAN","0.0"],
    [1560565,"2026-06-24 17:20:00","13275","2.842","175.8","4.377","177.7","1015.018","27.55","69.92","NAN","0.0"],
    [1560566,"2026-06-24 17:30:00","13276","2.431","177.4","3.9530000000000003","175.0","1015.062","27.7","67.24","NAN","0.0"],
    [1560567,"2026-06-24 17:40:00","13277","2.205","178.1","3.463","178.7","1015.1610000000001","27.81","63.75","NAN","0.0"],
    [1560568,"2026-06-24 17:50:00","13278","2.2","170.5","3.5610000000000004","177.9","1015.227","27.89","61.03","NAN","0.0"],
    [1560569,"2026-06-24 18:00:00","13279","2.202","170.8","3.397","177.8","1015.2180000000001","27.93","56.1","NAN","0.0"],
    [1560570,"2026-06-24 18:10:00","13280","2.04","171.2","3.234","179.8","1015.203","28.07","54.59","NAN","0.0"],
    [1560571,"2026-06-24 18:20:00","13281","2.177","173.4","3.332","175.7","1015.243","27.99","54.93","NAN","0.0"],
    [1560572,"2026-06-24 18:30:00","13282","1.706","183.9","2.8089999999999997","182.3","1015.194","27.91","55.63","NAN","0.0"],
    [1560573,"2026-06-24 18:40:00","13283","1.298","181.8","2.0909999999999997","184.0","1015.155","27.66","64.74","NAN","0.0"],
    [1560574,"2026-06-24 18:50:00","13284","1.232","174.2","2.221","157.3","1015.217","27.54","63.32","NAN","0.0"],
    [1560575,"2026-06-24 19:00:00","13285","1.472","170.0","2.123","164.9","1015.31","27.43","68.12","NAN","0.0"],
    [1560576,"2026-06-24 19:10:00","13286","1.2590000000000001","176.2","1.993","161.3","1015.355","27.31","71.52","NAN","0.0"],
    [1560577,"2026-06-24 19:20:00","13287","1.607","171.1","2.287","188.7","1015.312","27.07","73.56","NAN","0.0"],
    [1560578,"2026-06-24 19:30:00","13288","1.041","183.5","2.025","178.2","1015.317","26.94","76.01","NAN","0.0"],
    [1560579,"2026-06-24 19:40:00","13289","0.992","186.1","2.189","181.2","1015.2739999999999","26.86","77.48","NAN","0.0"],
    [1560580,"2026-06-24 19:50:00","13290","1.12","175.0","2.025","177.9","1015.207","26.79","78.47","NAN","0.0"],
    [1560581,"2026-06-24 20:00:00","13291","1.186","173.9","1.895","183.2","1015.2739999999999","26.63","78.32","NAN","0.0"],
    [1560582,"2026-06-24 20:10:00","13292","0.9159999999999999","192.3","1.895","169.7","1015.3389999999999","26.7","77.25","NAN","0.0"],
    [1560583,"2026-06-24 20:20:00","13293","0.63","182.0","1.339","182.8","1015.3389999999999","26.87","73.18","NAN","0.0"],
    [1560584,"2026-06-24 20:30:00","13294","0.769","188.6","1.666","225.1","1015.429","27.08","66.94","NAN","0.0"],
    [1560585,"2026-06-24 20:40:00","13295","0.674","181.8","1.3719999999999999","178.5","1015.5360000000001","27.18","65.34","NAN","0.0"],
    [1560586,"2026-06-24 20:50:00","13296","0.665","173.3","1.176","180.7","1015.648","27.43","63.68","NAN","0.0"],
    [1560587,"2026-06-24 21:00:00","13297","0.892","166.3","1.176","169.8","1015.735","27.23","71.14","NAN","0.0"],
    [1560588,"2026-06-24 21:10:00","13298","0.975","169.2","1.339","159.1","1015.73","26.95","73.12","NAN","0.0"],
    [1560589,"2026-06-24 21:20:00","13299","0.7559999999999999","172.8","1.274","162.2","1015.835","26.82","74.32","NAN","0.0"],
    [1560590,"2026-06-24 21:30:00","13300","0.32799999999999996","150.1","1.078","157.2","1016.029","26.97","73.91","NAN","0.0"],
    [1560591,"2026-06-24 21:40:00","13301","0.5539999999999999","187.4","1.045","175.6","1015.932","26.86","75.28","NAN","0.0"],
    [1560592,"2026-06-24 21:50:00","13302","0.484","184.8","0.98","178.9","1015.837","26.63","76.32","NAN","0.0"],
    [1560593,"2026-06-24 22:00:00","13303","0.7609999999999999","202.3","1.3719999999999999","194.4","1015.822","26.63","73.97","NAN","0.0"],
    [1560594,"2026-06-24 22:10:00","13304","0.7140000000000001","186.8","1.633","192.3","1015.827","26.57","73.92","NAN","0.0"],
    [1560595,"2026-06-24 22:20:00","13305","0.7070000000000001","187.4","1.274","183.0","1015.83","26.79","68.9","NAN","0.0"],
    [1560596,"2026-06-24 22:30:00","13306","0.958","180.3","1.4369999999999998","159.1","1015.807","26.77","69.45","NAN","0.0"],
    [1560597,"2026-06-24 22:40:00","13307","0.6659999999999999","188.1","1.4369999999999998","181.0","1015.802","26.59","73.8","NAN","0.0"],
    [1560598,"2026-06-24 22:50:00","13308","0.6729999999999999","161.6","1.2409999999999999","151.8","1015.835","26.44","79.26","NAN","0.0"],
    [1560599,"2026-06-24 23:00:00","13309","0.6509999999999999","184.5","1.013","180.2","1015.904","26.21","80.7","NAN","0.0"],
    [1560600,"2026-06-24 23:10:00","13310","0.9","197.9","1.633","208.3","1015.837","26","82.5","NAN","0.0"],
    [1560601,"2026-06-24 23:20:00","13311","0.7559999999999999","204.4","1.307","202.2","1015.825","26.06","84.9","NAN","0.0"],
    [1560602,"2026-06-24 23:30:00","13312","0.593","193.7","0.9470000000000001","172.4","1015.698","25.93","86.5","NAN","0.0"],
    [1560603,"2026-06-24 23:40:00","13313","0.9620000000000001","207.0","1.9269999999999998","214.1","1015.528","25.72","85.1","NAN","0.0"],
    [1560604,"2026-06-24 23:50:00","13314","0.892","211.7","1.993","217.2","1015.6239999999999","25.85","76.26","NAN","0.0"],
    [1560605,"2026-06-25 00:00:00","13315","0.483","220.1","1.601","243.5","1015.605","26.29","74.94","NAN","0.0"],
    [1560606,"2026-06-25 00:10:00","13316","0.35100000000000003","220.9","0.915","217.4","1015.5260000000001","26.45","75.62","NAN","0.0"],
    [1560607,"2026-06-25 00:20:00","13317","0.418","195.6","1.176","202.1","1015.559","26.23","77.74","NAN","0.0"],
    [1560608,"2026-06-25 00:30:00","13318","0.5589999999999999","181.4","0.882","187.0","1015.566","26.08","79.68","NAN","0.0"],
    [1560609,"2026-06-25 00:40:00","13319","0.7959999999999999","193.1","1.5030000000000001","197.9","1015.5880000000001","25.77","81.6","NAN","0.0"],
    [1560610,"2026-06-25 00:50:00","13320","0.77","195.5","1.339","195.4","1015.488","25.58","81.6","NAN","0.0"],
    [1560611,"2026-06-25 01:00:00","13321","0.551","193.2","1.111","187.8","1015.3560000000001","25.72","80.6","NAN","0.0"],
    [1560612,"2026-06-25 01:10:00","13322","0.583","183.2","1.143","209.0","1015.3389999999999","25.79","78.82","NAN","0.0"],
    [1560613,"2026-06-25 01:20:00","13323","0.537","191.3","1.2409999999999999","191.6","1015.3789999999999","25.83","73.91","NAN","0.0"],
    [1560614,"2026-06-25 01:30:00","13324","0.341","215.2","1.568","272.5","1015.304","25.93","73.47","NAN","0.0"],
    [1560615,"2026-06-25 01:40:00","13325","0.425","221.9","1.176","192.2","1015.2689999999999","25.88","75.96","NAN","0.0"],
    [1560616,"2026-06-25 01:50:00","13326","0.265","185.5","1.143","217.7","1015.279","25.76","78","NAN","0.0"],
    [1560617,"2026-06-25 02:00:00","13327","0.065","209.4","0.6859999999999999","230.7","1015.3560000000001","25.99","77.07","NAN","0.0"],
    [1560618,"2026-06-25 02:10:00","13328","0.319","283.2","1.078","245.2","1015.3889999999999","25.95","75.58","NAN","0.0"],
    [1560619,"2026-06-25 02:20:00","13329","0.265","77.98","1.045","56.68","1015.3389999999999","25.77","74.15","NAN","0.0"],
    [1560620,"2026-06-25 02:30:00","13330","0.649","132.2","1.045","108.5","1015.3389999999999","25.82","78.16","NAN","0.0"],
    [1560621,"2026-06-25 02:40:00","13331","0.542","178.6","1.405","203.6","1015.3389999999999","25.58","78.52","NAN","0.0"],
    [1560622,"2026-06-25 02:50:00","13332","0.9009999999999999","209.6","1.895","198.3","1015.2489999999999","25.32","81.6","NAN","0.0"],
    [1560623,"2026-06-25 03:00:00","13333","0.298","225.7","0.98","289.1","1015.245","25.35","78.7","NAN","0.0"],
    [1560624,"2026-06-25 03:10:00","13334","0.27699999999999997","237.1","0.9470000000000001","287.7","1015.3389999999999","26.02","70.79","NAN","0.0"],
    [1560625,"2026-06-25 03:20:00","13335","0.13699999999999998","122.2","0.588","104.5","1015.279","26.02","71.28","NAN","0.0"],
    [1560626,"2026-06-25 03:30:00","13336","0.498","127.1","0.915","118.5","1015.112","25.78","71.67","NAN","0.0"],
    [1560627,"2026-06-25 03:40:00","13337","0.727","49.44","1.535","61.24","1015.095","25.56","70.21","NAN","0.0"],
    [1560628,"2026-06-25 03:50:00","13338","0.993","44.51","1.9269999999999998","31.09","1015.112","25.19","64.21","NAN","0.0"],
    [1560629,"2026-06-25 04:00:00","13339","0.721","48.72","1.307","49.14","1015.09","25","61.78","NAN","0.0"],
    [1560630,"2026-06-25 04:10:00","13340","0.094","59.79","0.9470000000000001","64.11","1015.085","25.01","60.19","NAN","0.0"],
    [1560631,"2026-06-25 04:20:00","13341","0.603","40.79","1.535","39.24","1015.09","25.01","59.85","NAN","0.0"],
    [1560632,"2026-06-25 04:30:00","13342","0.08199999999999999","349.3","0.425","349.8","1015.09","25.14","59.53","NAN","0.0"],
    [1560633,"2026-06-25 04:40:00","13343","0.146","9.58","0.7509999999999999","3.589","1015.047","25.39","59.41","NAN","0.0"],
    [1560634,"2026-06-25 04:50:00","13344","0.33299999999999996","180.3","0.8490000000000001","197.0","1014.868","25.36","62.5","NAN","0.0"],
    [1560635,"2026-06-25 05:00:00","13345","0.295","99.1","0.523","117.8","1014.8610000000001","25.64","62.52","NAN","0.0"],
    [1560636,"2026-06-25 05:10:00","13346","0.402","75.28","0.653","73.6","1014.9010000000001","25.69","62.21","NAN","0.0"],
    [1560637,"2026-06-25 05:20:00","13347","0.19","86.7","0.49","112.2","1014.8610000000001","26.19","57.59","NAN","0.0"],
    [1560638,"2026-06-25 05:30:00","13348","0.857","56.27","1.895","64.41","1014.9689999999999","26.35","56.33","NAN","0.0"],
    [1560639,"2026-06-25 05:40:00","13349","0.48100000000000004","60.35","1.5030000000000001","61.79","1015.038","25.9","56.62","NAN","0.0"],
    [1560640,"2026-06-25 05:50:00","13350","0.09699999999999999","200.8","0.523","210.0","1014.965","26.72","54.83","NAN","0.0"],
    [1560641,"2026-06-25 06:00:00","13351","0.774","148.6","1.307","110.2","1015.064","26.31","58.71","NAN","0.0"],
    [1560642,"2026-06-25 06:10:00","13352","0.9009999999999999","102.4","1.274","103.4","1015.165","26.4","57.58","NAN","0.0"],
    [1560643,"2026-06-25 06:20:00","13353","1.113","91.5","1.96","98.0","1015.17","27.14","54.43","NAN","0.0"],
    [1560644,"2026-06-25 06:30:00","13354","0.7240000000000001","69.55","1.601","75.33","1015.27","27.26","52.85","NAN","0.0"],
    [1560645,"2026-06-25 06:40:00","13355","1.001","103.5","2.189","107.2","1015.268","27.41","51.98","NAN","0.0"],
    [1560646,"2026-06-25 06:50:00","13356","1.041","113.7","2.319","118.1","1015.346","27.46","51.31","NAN","0.0"],
    [1560647,"2026-06-25 07:00:00","13357","0.9440000000000001","134.7","1.699","117.5","1015.414","27.34","49.53","NAN","0.0"],
    [1560648,"2026-06-25 07:10:00","13358","0.847","175.5","1.47","177.7","1015.547","27.73","49","NAN","0.0"],
    [1560649,"2026-06-25 07:20:00","13359","0.9790000000000001","187.2","1.601","197.5","1015.674","28.18","48.9","NAN","0.0"],
    [1560650,"2026-06-25 07:30:00","13360","1.171","159.2","1.8619999999999999","154.1","1015.76","28.15","47.37","NAN","0.0"],
    [1560651,"2026-06-25 07:40:00","13361","1.495","135.1","2.7439999999999998","149.5","1015.768","27.64","52.12","NAN","0.0"],
    [1560652,"2026-06-25 07:50:00","13362","1.4409999999999998","120.5","2.221","106.8","1015.923","27.57","54.28","NAN","0.0"],
    [1560653,"2026-06-25 08:00:00","13363","1.7309999999999999","127.6","2.7110000000000003","111.8","1015.88","27.57","53.1","NAN","0.0"],
    [1560654,"2026-06-25 08:10:00","13364","1.5630000000000002","132.0","2.548","106.2","1015.798","27.58","60.75","NAN","0.0"],
    [1560655,"2026-06-25 08:20:00","13365","1.8769999999999998","126.0","3.071","108.1","1015.941","27.56","64.42","NAN","0.0"],
    [1560656,"2026-06-25 08:30:00","13366","1.7080000000000002","144.2","3.136","118.9","1016.0219999999999","27.74","66.49","NAN","0.0"],
    [1560657,"2026-06-25 08:40:00","13367","1.275","194.5","2.352","174.7","1016.082","28.16","69.53","NAN","0.0"],
    [1560658,"2026-06-25 08:50:00","13368","1.535","175.4","2.515","177.5","1016.0160000000001","27.94","71.38","NAN","0.0"],
    [1560659,"2026-06-25 09:00:00","13369","1.371","175.7","2.0580000000000003","167.2","1015.95","28.13","71.79","NAN","0.0"],
    [1560660,"2026-06-25 09:10:00","13370","1.263","187.8","2.221","173.2","1016.0169999999999","28.38","71.01","NAN","0.0"],
    [1560661,"2026-06-25 09:20:00","13371","1.531","194.6","2.613","171.5","1016.174","28.59","68.55","NAN","0.0"],
    [1560662,"2026-06-25 09:30:00","13372","1.933","174.4","2.875","178.2","1016.1360000000001","27.87","71.26","NAN","0.0"],
    [1560663,"2026-06-25 09:40:00","13373","1.972","171.8","2.94","181.8","1016.078","27.75","67.4","NAN","0.0"],
    [1560664,"2026-06-25 09:50:00","13374","1.999","173.0","2.907","166.7","1016.071","28.13","64.57","NAN","0.0"],
    [1560665,"2026-06-25 10:00:00","13375","2.161","169.9","3.1689999999999996","179.7","1016.1160000000001","28.09","62.52","NAN","0.0"],
    [1560666,"2026-06-25 10:10:00","13376","2.161","169.7","3.071","175.7","1016.092","28.29","63.64","NAN","0.0"],
    [1560667,"2026-06-25 10:20:00","13377","2.11","173.8","3.299","159.0","1015.995","28.81","58.21","NAN","0.0"],
    [1560668,"2026-06-25 10:30:00","13378","2.4659999999999997","169.9","3.7239999999999998","150.4","1015.995","28.85","56.51","NAN","0.0"],
    [1560669,"2026-06-25 10:40:00","13379","2.717","165.0","3.855","148.7","1015.9780000000001","28.89","58.17","NAN","0.0"],
    [1560670,"2026-06-25 10:50:00","13380","2.6830000000000003","173.2","4.018","172.7","1016.056","28.97","57.36","NAN","0.0"],
    [1560671,"2026-06-25 11:00:00","13381","2.815","176.7","4.1160000000000005","160.3","1016.202","28.78","62.12","NAN","0.0"],
    [1560672,"2026-06-25 11:10:00","13382","2.171","185.8","3.267","175.1","1016.148","28.98","66.01","NAN","0.0"],
    [1560673,"2026-06-25 11:20:00","13383","2.523","180.4","3.887","176.6","1016.095","28.9","67.62","NAN","0.0"],
    [1560674,"2026-06-25 11:30:00","13384","2.715","171.3","4.018","169.0","1016.0419999999999","28.26","72.22","NAN","0.0"],
    [1560675,"2026-06-25 11:40:00","13385","2.7889999999999997","163.5","4.508","176.8","1016.057","28.13","74.62","NAN","0.0"],
    [1560676,"2026-06-25 11:50:00","13386","2.872","158.7","4.998","155.9","1016.138","28.46","74.88","NAN","0.0"],
    [1560677,"2026-06-25 12:00:00","13387","3.125","165.3","5.292000000000001","160.5","1016.177","28.32","76.73","NAN","0.0"],
    [1560678,"2026-06-25 12:10:00","13388","2.9360000000000004","167.7","4.638999999999999","164.4","1016.2189999999999","28.4","76.8","NAN","0.0"],
    [1560679,"2026-06-25 12:20:00","13389","2.8560000000000003","165.6","4.737","168.4","1016.168","28.7","74.69","NAN","0.0"],
    [1560680,"2026-06-25 12:30:00","13390","3.218","179.5","4.998","188.5","1016.2410000000001","28.49","76.77","NAN","0.0"],
    [1560681,"2026-06-25 12:40:00","13391","3.352","171.1","5.651","177.5","1016.2689999999999","28.26","77.24","NAN","0.0"],
    [1560682,"2026-06-25 12:50:00","13392","3.477","171.9","6.011","155.2","1016.2639999999999","28.27","77.73","NAN","0.0"],
    [1560683,"2026-06-25 13:00:00","13393","3.9989999999999997","174.1","5.978","174.0","1016.265","28.25","77.99","NAN","0.0"],
    [1560684,"2026-06-25 13:10:00","13394","4.047","176.1","5.88","178.5","1016.2560000000001","28.1","77.22","NAN","0.0"],
    [1560685,"2026-06-25 13:20:00","13395","3.681","172.1","5.847","178.7","1016.14","28.25","75.25","NAN","0.0"],
    [1560686,"2026-06-25 13:30:00","13396","3.3339999999999996","169.0","4.606","151.1","1016.118","28.48","74.49","NAN","0.0"],
    [1560687,"2026-06-25 13:40:00","13397","3.313","168.9","5.292000000000001","175.0","1016.033","28.59","72.38","NAN","0.0"],
    [1560688,"2026-06-25 13:50:00","13398","3.5469999999999997","170.8","5.39","170.0","1016.0210000000001","28.63","69.74","NAN","0.0"],
    [1560689,"2026-06-25 14:00:00","13399","3.2689999999999997","168.1","5.096","174.8","1015.8939999999999","29.4","64.9","NAN","0.0"],
    [1560690,"2026-06-25 14:10:00","13400","3.714","171.3","5.227","176.9","1015.857","28.74","69.64","NAN","0.0"],
    [1560691,"2026-06-25 14:20:00","13401","3.536","171.2","5.521","183.8","1015.8","28.63","69.92","NAN","0.0"],
    [1560692,"2026-06-25 14:30:00","13402","3.4389999999999996","168.5","5.357","174.2","1015.765","29.01","65.85","NAN","0.0"],
    [1560693,"2026-06-25 14:40:00","13403","3.531","170.6","5.031000000000001","177.6","1015.7189999999999","29.04","64.88","NAN","0.0"],
    [1560694,"2026-06-25 14:50:00","13404","3.11","170.1","4.606","169.1","1015.6310000000001","29.01","63.7","NAN","0.0"],
    [1560695,"2026-06-25 15:00:00","13405","2.755","169.3","4.312","169.1","1015.5189999999999","29.63","59.35","NAN","0.0"],
    [1560696,"2026-06-25 15:10:00","13406","2.965","167.2","4.998","171.2","1015.4910000000001","29.35","60.19","NAN","0.0"],
    [1560697,"2026-06-25 15:20:00","13407","2.572","167.6","4.1160000000000005","172.3","1015.4","29.42","59.98","NAN","0.0"],
    [1560698,"2026-06-25 15:30:00","13408","2.947","167.9","4.508","151.3","1015.3760000000001","29.5","60.37","NAN","0.0"],
    [1560699,"2026-06-25 15:40:00","13409","3.205","167.8","4.933","151.6","1015.365","28.77","65.52","NAN","0.0"],
    [1560700,"2026-06-25 15:50:00","13410","2.975","166.4","4.933","151.6","1015.39","28.86","65.83","NAN","0.0"],
    [1560701,"2026-06-25 16:00:00","13411","2.891","168.6","4.671","157.9","1015.347","29.24","62.57","NAN","0.0"],
    [1560702,"2026-06-25 16:10:00","13412","2.627","172.1","4.508","173.2","1015.331","30.21","54.74","NAN","0.0"],
    [1560703,"2026-06-25 16:20:00","13413","2.041","186.9","3.985","190.9","1015.346","30.53","54.58","NAN","0.0"],
    [1560704,"2026-06-25 16:30:00","13414","2.383","190.9","5.521","206.4","1015.2810000000001","30.67","54.18","NAN","0.0"],
    [1560705,"2026-06-25 16:40:00","13415","2.34","176.9","4.149","181.3","1015.2589999999999","30.4","56.04","NAN","0.0"],
    [1560706,"2026-06-25 16:50:00","13416","2.211","192.6","5.455","178.8","1015.238","30.63","53.91","NAN","0.0"],
    [1560707,"2026-06-25 17:00:00","13417","1.939","201.3","4.377","203.9","1015.23","31.32","51.16","NAN","0.0"],
    [1560708,"2026-06-25 17:10:00","13418","2.401","192.0","3.855","213.6","1015.189","30.66","55.37","NAN","0.0"],
    [1560709,"2026-06-25 17:20:00","13419","1.8659999999999999","202.8","4.704","200.6","1015.212","31.1","50.92","NAN","0.0"],
    [1560710,"2026-06-25 17:30:00","13420","2.025","197.7","4.051","194.2","1015.2260000000001","30.98","49.26","NAN","0.0"],
    [1560711,"2026-06-25 17:40:00","13421","1.672","195.4","3.332","200.2","1015.21","30.93","50.93","NAN","0.0"],
    [1560712,"2026-06-25 17:50:00","13422","1.921","191.0","3.495","165.0","1015.11","30.48","52.68","NAN","0.0"],
    [1560713,"2026-06-25 18:00:00","13423","1.604","186.3","2.907","194.9","1015.166","30.37","54.05","NAN","0.0"],
    [1560714,"2026-06-25 18:10:00","13424","1.6340000000000001","173.4","2.907","176.4","1015.197","30.17","54.41","NAN","0.0"],
    [1560715,"2026-06-25 18:20:00","13425","2.1790000000000003","183.6","3.593","205.0","1015.188","30.09","52.51","NAN","0.0"],
    [1560716,"2026-06-25 18:30:00","13426","1.7930000000000001","192.7","3.201","169.5","1015.135","29.98","51.89","NAN","0.0"],
    [1560717,"2026-06-25 18:40:00","13427","1.891","198.2","3.822","203.2","1015.1139999999999","29.86","52.63","NAN","0.0"],
    [1560718,"2026-06-25 18:50:00","13428","1.305","206.4","3.495","195.6","1015.148","29.72","53.12","NAN","0.0"],
    [1560719,"2026-06-25 19:00:00","13429","1.5190000000000001","202.0","3.299","173.1","1015.1139999999999","29.54","53.66","NAN","0.0"],
    [1560720,"2026-06-25 19:10:00","13430","1.466","194.8","3.397","205.0","1015.188","29.19","56.79","NAN","0.0"],
    [1560721,"2026-06-25 19:20:00","13431","1.475","193.5","3.071","203.9","1015.304","28.92","58.72","NAN","0.0"],
    [1560722,"2026-06-25 19:30:00","13432","1.083","204.9","2.385","238.6","1015.372","28.84","57.86","NAN","0.0"],
    [1560723,"2026-06-25 19:40:00","13433","0.8390000000000001","212.9","1.993","229.6","1015.466","28.98","56.87","NAN","0.0"],
    [1560724,"2026-06-25 19:50:00","13434","1.1","213.5","2.45","239.2","1015.584","28.9","56.99","NAN","0.0"],
    [1560725,"2026-06-25 20:00:00","13435","1.064","216.6","3.0380000000000003","208.8","1015.7310000000001","28.84","57.93","NAN","0.0"],
    [1560726,"2026-06-25 20:10:00","13436","1.006","220.9","2.319","242.0","1015.9789999999999","28.78","57.63","NAN","0.0"],
    [1560727,"2026-06-25 20:20:00","13437","1.085","216.2","2.385","220.2","1016.163","28.71","57.38","NAN","0.0"],
    [1560728,"2026-06-25 20:30:00","13438","0.978","218.4","2.7769999999999997","223.3","1016.291","28.7","56.67","NAN","0.0"],
    [1560729,"2026-06-25 20:40:00","13439","0.84","218.9","2.613","228.0","1016.3580000000001","28.75","55.77","NAN","0.0"],
    [1560730,"2026-06-25 20:50:00","13440","0.9129999999999999","236.4","2.287","229.8","1016.431","28.79","54.58","NAN","0.0"],
    [1560731,"2026-06-25 21:00:00","13441","0.5579999999999999","220.6","2.025","227.2","1016.488","28.89","53.81","NAN","0.0"],
    [1560732,"2026-06-25 21:10:00","13442","0.763","217.5","2.189","242.8","1016.6619999999999","28.58","55.26","NAN","0.0"],
    [1560733,"2026-06-25 21:20:00","13443","0.887","217.9","2.0580000000000003","237.9","1016.67","28.49","56.1","NAN","0.0"],
    [1560734,"2026-06-25 21:30:00","13444","0.885","226.0","2.0580000000000003","228.9","1016.804","28.41","56.93","NAN","0.0"],
    [1560735,"2026-06-25 21:40:00","13445","0.887","224.8","2.221","230.5","1016.817","28.41","57.23","NAN","0.0"],
    [1560736,"2026-06-25 21:50:00","13446","0.698","219.4","2.156","193.3","1016.81","28.29","57.52","NAN","0.0"],
    [1560737,"2026-06-25 22:00:00","13447","0.812","224.3","2.907","255.4","1016.7819999999999","28.27","57.62","NAN","0.0"],
    [1560738,"2026-06-25 22:10:00","13448","0.8340000000000001","210.1","1.764","220.0","1016.824","27.94","58.53","NAN","0.0"],
    [1560739,"2026-06-25 22:20:00","13449","0.43","213.8","1.699","223.7","1016.742","27.78","58.61","NAN","0.0"],
    [1560740,"2026-06-25 22:30:00","13450","0.503","224.8","1.797","231.5","1016.804","27.94","58.05","NAN","0.0"],
    [1560741,"2026-06-25 22:40:00","13451","0.679","204.4","1.993","237.9","1016.7760000000001","27.93","59.03","NAN","0.0"],
    [1560742,"2026-06-25 22:50:00","13452","0.599","194.8","1.143","235.7","1016.704","27.59","60.65","NAN","0.0"],
    [1560743,"2026-06-25 23:00:00","13453","0.845","199.0","1.4369999999999998","196.2","1016.6619999999999","27.47","60.38","NAN","0.0"],
    [1560744,"2026-06-25 23:10:00","13454","0.813","202.3","1.699","230.9","1016.725","27.48","59.76","NAN","0.0"],
    [1560745,"2026-06-25 23:20:00","13455","0.772","188.6","1.274","201.4","1016.7719999999999","27.53","58.38","NAN","0.0"],
    [1560746,"2026-06-25 23:30:00","13456","0.414","236.7","1.8619999999999999","273.3","1016.804","27.69","55.39","NAN","0.0"],
    [1560747,"2026-06-25 23:40:00","13457","0.475","188.8","1.078","296.0","1016.7589999999999","27.82","53.5","NAN","0.0"],
    [1560748,"2026-06-25 23:50:00","13458","0.154","168.5","0.8490000000000001","174.6","1016.762","27.6","54.03","NAN","0.0"],
    [1560749,"2026-06-26 00:00:00","13459","0.386","129.9","1.111","145.3","1016.821","27.36","56.55","NAN","0.0"],
    [1560750,"2026-06-26 00:10:00","13460","0.247","173.0","0.8170000000000001","184.1","1016.821","27.15","59.99","NAN","0.0"],
    [1560751,"2026-06-26 00:20:00","13461","0.025","179.4","0.49","180.6","1016.7189999999999","26.81","62.17","NAN","0.0"],
    [1560752,"2026-06-26 00:30:00","13462","0.26899999999999996","95.0","0.653","93.2","1016.669","26.79","64.21","NAN","0.0"],
    [1560753,"2026-06-26 00:40:00","13463","0.248","167.0","0.784","187.1","1016.5319999999999","26.73","61.92","NAN","0.0"],
    [1560754,"2026-06-26 00:50:00","13464","0.31","97.2","0.915","104.9","1016.461","26.71","63.11","NAN","0.0"],
    [1560755,"2026-06-26 01:00:00","13465","0.537","99.6","0.98","114.1","1016.585","26.63","64.44","NAN","0.0"],
    [1560756,"2026-06-26 01:10:00","13466","0.315","185.0","1.143","212.6","1016.64","26.61","61.1","NAN","0.0"],
    [1560757,"2026-06-26 01:20:00","13467","0.38","169.7","0.653","178.4","1016.567","26.63","58.54","NAN","0.0"],
    [1560758,"2026-06-26 01:30:00","13468","0.195","194.1","0.7190000000000001","213.2","1016.585","26.58","55.63","NAN","0.0"],
    [1560759,"2026-06-26 01:40:00","13469","0.27699999999999997","173.9","1.209","232.1","1016.65","26.52","58.38","NAN","0.0"],
    [1560760,"2026-06-26 01:50:00","13470","0.807","237.1","1.633","240.5","1016.6039999999999","26.94","51.3","NAN","0.0"],
    [1560761,"2026-06-26 02:00:00","13471","1.0290000000000001","240.3","2.156","241.7","1016.585","27.07","51.19","NAN","0.0"],
    [1560762,"2026-06-26 02:10:00","13472","1.0070000000000001","242.8","2.319","237.7","1016.555","27.18","49.15","NAN","0.0"],
    [1560763,"2026-06-26 02:20:00","13473","1.192","241.0","3.1689999999999996","247.8","1016.5269999999999","27.24","48.59","NAN","0.0"],
    [1560764,"2026-06-26 02:30:00","13474","1.129","241.5","2.189","197.0","1016.467","27.25","48.61","NAN","0.0"],
    [1560765,"2026-06-26 02:40:00","13475","1.015","236.8","2.221","246.2","1016.4580000000001","27.2","49.05","NAN","0.0"],
    [1560766,"2026-06-26 02:50:00","13476","0.843","236.0","1.829","253.8","1016.4630000000001","27.15","49.33","NAN","0.0"],
    [1560767,"2026-06-26 03:00:00","13477","0.7090000000000001","231.6","2.287","233.0","1016.4730000000001","27","50.55","NAN","0.0"],
    [1560768,"2026-06-26 03:10:00","13478","0.598","225.0","1.307","216.5","1016.577","26.72","52.75","NAN","0.0"],
    [1560769,"2026-06-26 03:20:00","13479","0.449","209.9","1.111","256.0","1016.58","26.45","54.16","NAN","0.0"],
    [1560770,"2026-06-26 03:30:00","13480","0.679","220.5","1.568","227.8","1016.487","26.47","53.89","NAN","0.0"],
    [1560771,"2026-06-26 03:40:00","13481","0.655","210.0","1.5030000000000001","235.3","1016.508","26.61","52.86","NAN","0.0"],
    [1560772,"2026-06-26 03:50:00","13482","0.391","206.7","0.9470000000000001","199.1","1016.625","26.62","53.47","NAN","0.0"],
    [1560773,"2026-06-26 04:00:00","13483","0.221","102.2","0.588","89.6","1016.804","26.4","54.98","NAN","0.0"],
    [1560774,"2026-06-26 04:10:00","13484","0.20199999999999999","62.83","0.7190000000000001","57.36","1016.826","26.29","55.13","NAN","0.0"],
    [1560775,"2026-06-26 04:20:00","13485","0.43","128.8","1.045","183.1","1016.834","26.34","54.48","NAN","0.0"],
    [1560776,"2026-06-26 04:30:00","13486","0.172","229.6","1.045","246.1","1016.867","26.64","54","NAN","0.0"],
    [1560777,"2026-06-26 04:40:00","13487","0.107","88.6","1.176","276.5","1016.9639999999999","26.65","55.26","NAN","0.0"],
    [1560778,"2026-06-26 04:50:00","13488","0.11699999999999999","157.7","0.523","133.5","1017.023","26.55","55.06","NAN","0.0"],
    [1560779,"2026-06-26 05:00:00","13489","0.39899999999999997","188.6","1.078","184.7","1017.0830000000001","26.69","55.13","NAN","0.0"],
    [1560780,"2026-06-26 05:10:00","13490","0.17","168.1","0.653","177.0","1017.2080000000001","26.63","57.08","NAN","0.0"],
    [1560781,"2026-06-26 05:20:00","13491","0.04","159.0","0.49","174.9","1017.327","26.93","57.37","NAN","0.0"],
    [1560782,"2026-06-26 05:30:00","13492","0.528","180.2","1.274","147.1","1017.332","26.89","59.32","NAN","0.0"],
    [1560783,"2026-06-26 05:40:00","13493","0.40399999999999997","172.3","0.915","178.2","1017.372","26.7","61.59","NAN","0.0"],
    [1560784,"2026-06-26 05:50:00","13494","0.298","153.8","0.621","146.1","1017.437","26.9","57.86","NAN","0.0"],
    [1560785,"2026-06-26 06:00:00","13495","0.562","204.4","1.7309999999999999","220.8","1017.431","27.43","54.39","NAN","0.0"],
    [1560786,"2026-06-26 06:10:00","13496","0.746","221.0","1.568","228.2","1017.403","28.35","47.8","NAN","0.0"],
    [1560787,"2026-06-26 06:20:00","13497","0.62","178.8","1.078","174.6","1017.497","28.68","46.88","NAN","0.0"],
    [1560788,"2026-06-26 06:30:00","13498","1.319","160.8","1.993","170.8","1017.567","28.46","47.75","NAN","0.0"],
    [1560789,"2026-06-26 06:40:00","13499","1.001","109.5","1.7309999999999999","100.8","1017.7439999999999","28.03","54.49","NAN","0.0"],
    [1560790,"2026-06-26 06:50:00","13500","1.055","119.9","1.601","106.6","1017.798","28.23","52.91","NAN","0.0"],
    [1560791,"2026-06-26 07:00:00","13501","1.151","135.2","1.9269999999999998","121.9","1017.745","28.57","49.97","NAN","0.0"],
    [1560792,"2026-06-26 07:10:00","13502","1.2590000000000001","138.9","2.352","149.3","1017.7589999999999","28.71","50.36","NAN","0.0"],
    [1560793,"2026-06-26 07:20:00","13503","1.49","169.1","2.221","160.6","1017.775","29.05","44.15","NAN","0.0"],
    [1560794,"2026-06-26 07:30:00","13504","1.2590000000000001","176.2","2.221","169.0","1017.8810000000001","29.51","41.92","NAN","0.0"],
    [1560795,"2026-06-26 07:40:00","13505","0.773","199.8","2.417","195.0","1017.862","30.52","40.65","NAN","0.0"],
    [1560796,"2026-06-26 07:50:00","13506","0.8270000000000001","199.2","1.895","176.0","1017.931","30.45","41.27","NAN","0.0"],
    [1560797,"2026-06-26 08:00:00","13507","0.9990000000000001","193.9","2.483","173.2","1017.941","30.98","39.78","NAN","0.0"],
    [1560798,"2026-06-26 08:10:00","13508","1.811","173.7","3.332","159.3","1018.054","29.89","44.78","NAN","0.0"],
    [1560799,"2026-06-26 08:20:00","13509","2.858","177.9","4.4430000000000005","170.4","1018.185","28.94","49.57","NAN","0.0"],
    [1560800,"2026-06-26 08:30:00","13510","2.002","178.3","3.6260000000000003","176.9","1018.184","29.07","51.13","NAN","0.0"],
    [1560801,"2026-06-26 08:40:00","13511","2.551","176.2","4.083","169.3","1018.165","28.81","52.26","NAN","0.0"],
    [1560802,"2026-06-26 08:50:00","13512","2.214","175.5","3.7889999999999997","178.1","1018.182","29.03","52.41","NAN","0.0"],
    [1560803,"2026-06-26 09:00:00","13513","2.513","169.7","4.2139999999999995","171.5","1018.178","29.1","53.92","NAN","0.0"],
    [1560804,"2026-06-26 09:10:00","13514","2.385","170.4","3.7239999999999998","152.1","1018.189","28.73","58.44","NAN","0.0"],
    [1560805,"2026-06-26 09:20:00","13515","2.7039999999999997","172.7","3.9530000000000003","167.0","1018.181","28.67","58.82","NAN","0.0"],
    [1560806,"2026-06-26 09:30:00","13516","3.889","176.7","5.39","173.2","1018.199","28.02","62.18","NAN","0.0"],
    [1560807,"2026-06-26 09:40:00","13517","4.02","177.0","6.011","178.1","1018.2180000000001","27.89","64.3","NAN","0.0"],
    [1560808,"2026-06-26 09:50:00","13518","3.853","174.6","5.651","175.3","1018.2289999999999","27.79","66.61","NAN","0.0"],
    [1560809,"2026-06-26 10:00:00","13519","3.455","171.9","5.031000000000001","176.6","1018.2589999999999","27.91","67","NAN","0.0"],
    [1560810,"2026-06-26 10:10:00","13520","3.846","173.0","5.422999999999999","185.4","1018.255","27.88","68.35","NAN","0.0"],
    [1560811,"2026-06-26 10:20:00","13521","3.4530000000000003","179.3","4.933","180.0","1018.2810000000001","27.86","70.11","NAN","0.0"],
    [1560812,"2026-06-26 10:30:00","13522","3.217","177.9","5.063","178.4","1018.2669999999999","28.08","70.09","NAN","0.0"],
    [1560813,"2026-06-26 10:40:00","13523","3.187","175.3","5.063","182.2","1018.255","27.99","71.29","NAN","0.0"],
    [1560814,"2026-06-26 10:50:00","13524","3.182","175.2","4.541","176.8","1018.207","28.02","72.43","NAN","0.0"],
    [1560815,"2026-06-26 11:00:00","13525","3.4360000000000004","176.9","4.802","186.5","1018.122","27.71","75.81","NAN","0.0"],
    [1560816,"2026-06-26 11:10:00","13526","3.27","175.4","4.998","178.5","1018.03","27.78","76.74","NAN","0.0"],
    [1560817,"2026-06-26 11:20:00","13527","3.0589999999999997","171.4","4.638999999999999","180.6","1017.97","27.94","74.5","NAN","0.0"],
    [1560818,"2026-06-26 11:30:00","13528","3.301","174.1","4.573","172.8","1017.904","28.11","73.37","NAN","0.0"],
    [1560819,"2026-06-26 11:40:00","13529","3.389","175.2","5.1610000000000005","176.4","1017.827","27.98","74.73","NAN","0.0"],
    [1560820,"2026-06-26 11:50:00","13530","3.529","173.3","5.4879999999999995","178.9","1017.7760000000001","27.9","76.3","NAN","0.0"],
    [1560821,"2026-06-26 12:00:00","13531","3.2460000000000004","170.8","4.9","184.4","1017.778","28.01","75.89","NAN","0.0"],
    [1560822,"2026-06-26 12:10:00","13532","3.679","173.0","5.815","180.0","1017.682","27.91","75.86","NAN","0.0"],
    [1560823,"2026-06-26 12:20:00","13533","3.3569999999999998","171.2","5.455","179.2","1017.664","28.48","73.4","NAN","0.0"],
    [1560824,"2026-06-26 12:30:00","13534","3.795","173.0","5.39","173.8","1017.6260000000001","27.92","76.38","NAN","0.0"],
    [1560825,"2026-06-26 12:40:00","13535","3.678","172.1","5.521","176.1","1017.5989999999999","27.89","76.14","NAN","0.0"],
    [1560826,"2026-06-26 12:50:00","13536","3.4389999999999996","174.6","5.194","185.3","1017.529","28.01","76.19","NAN","0.0"],
    [1560827,"2026-06-26 13:00:00","13537","3.1260000000000003","175.3","5.031000000000001","179.6","1017.5210000000001","28.15","75.15","NAN","0.0"],
    [1560828,"2026-06-26 13:10:00","13538","3.097","183.3","4.769","177.6","1017.425","28.47","72.69","NAN","0.0"],
    [1560829,"2026-06-26 13:20:00","13539","2.908","176.3","4.638999999999999","170.8","1017.3939999999999","28.42","72.97","NAN","0.0"],
    [1560830,"2026-06-26 13:30:00","13540","2.753","169.3","4.051","159.7","1017.2919999999999","28.5","69.89","NAN","0.0"],
    [1560831,"2026-06-26 13:40:00","13541","2.861","169.4","4.475","183.1","1017.243","28.7","68.61","NAN","0.0"],
    [1560832,"2026-06-26 13:50:00","13542","2.8989999999999996","170.3","4.508","191.7","1017.15","28.8","67.49","NAN","0.0"],
    [1560833,"2026-06-26 14:00:00","13543","3.017","167.5","4.638999999999999","168.2","1017.064","28.96","66.11","NAN","0.0"],
    [1560834,"2026-06-26 14:10:00","13544","3.255","168.1","4.965","168.7","1017.0189999999999","28.97","66.44","NAN","0.0"],
    [1560835,"2026-06-26 14:20:00","13545","3.822","171.9","6.042999999999999","176.9","1017.087","28.73","67.76","NAN","0.0"],
    [1560836,"2026-06-26 14:30:00","13546","3.864","168.5","5.521","179.1","1017.063","28.49","69.07","NAN","0.0"],
    [1560837,"2026-06-26 14:40:00","13547","4.091","171.4","6.141","176.9","1017.0360000000001","28.47","68.05","NAN","0.0"],
    [1560838,"2026-06-26 14:50:00","13548","4.395","172.9","6.9910000000000005","177.4","1017.0169999999999","28.3","68.73","NAN","0.0"],
    [1560839,"2026-06-26 15:00:00","13549","4.287","171.3","5.815","171.8","1017.0189999999999","28.32","68.79","NAN","0.0"],
    [1560840,"2026-06-26 15:10:00","13550","3.918","171.3","5.684","178.5","1016.959","28.34","68.75","NAN","0.0"],
    [1560841,"2026-06-26 15:20:00","13551","4.011","171.5","5.7170000000000005","177.0","1016.9119999999999","28.48","68.02","NAN","0.0"],
    [1560842,"2026-06-26 15:30:00","13552","4.01","172.4","5.619","179.2","1016.8910000000001","28.37","68.06","NAN","0.0"],
    [1560843,"2026-06-26 15:40:00","13553","3.7489999999999997","170.5","5.227","178.2","1016.7769999999999","28.32","69.04","NAN","0.0"],
    [1560844,"2026-06-26 15:50:00","13554","3.918","171.0","5.586","175.9","1016.8610000000001","28.21","70.4","NAN","0.0"],
    [1560845,"2026-06-26 16:00:00","13555","3.844","171.2","5.749","178.8","1016.86","28.1","69.67","NAN","0.0"],
    [1560846,"2026-06-26 16:10:00","13556","3.263","170.5","4.704","179.3","1016.799","28.32","68.04","NAN","0.0"],
    [1560847,"2026-06-26 16:20:00","13557","3.307","170.4","4.573","174.1","1016.779","28.27","68.44","NAN","0.0"],
    [1560848,"2026-06-26 16:30:00","13558","2.838","170.4","4.41","174.6","1016.758","28.33","68.37","NAN","0.0"],
    [1560849,"2026-06-26 16:40:00","13559","2.805","170.1","4.279","176.5","1016.7560000000001","28.6","67.51","NAN","0.0"],
    [1560850,"2026-06-26 16:50:00","13560","3.159","171.0","4.541","174.0","1016.7760000000001","28.26","68.69","NAN","0.0"],
    [1560851,"2026-06-26 17:00:00","13561","3.38","172.5","4.802","174.0","1016.7860000000001","28.17","68.43","NAN","0.0"],
    [1560852,"2026-06-26 17:10:00","13562","3.485","173.7","4.737","176.2","1016.798","28","68.44","NAN","0.0"],
    [1560853,"2026-06-26 17:20:00","13563","3.1719999999999997","172.3","4.638999999999999","176.3","1016.8","28.12","67.84","NAN","0.0"],
    [1560854,"2026-06-26 17:30:00","13564","3.353","173.8","4.475","177.3","1016.804","27.99","67.85","NAN","0.0"],
    [1560855,"2026-06-26 17:40:00","13565","2.9360000000000004","172.7","4.051","173.7","1016.82","28.11","67.37","NAN","0.0"],
    [1560856,"2026-06-26 17:50:00","13566","3.097","172.3","4.638999999999999","168.8","1016.819","28.11","66.44","NAN","0.0"],
    [1560857,"2026-06-26 18:00:00","13567","2.5989999999999998","179.1","4.149","177.0","1016.85","28.01","66.72","NAN","0.0"],
    [1560858,"2026-06-26 18:10:00","13568","1.9869999999999999","180.4","3.6260000000000003","174.6","1016.915","28.4","65.16","NAN","0.0"],
    [1560859,"2026-06-26 18:20:00","13569","2.6430000000000002","169.8","3.855","172.8","1016.987","28.2","67.21","NAN","0.0"],
    [1560860,"2026-06-26 18:30:00","13570","1.9269999999999998","176.8","3.495","186.3","1017.057","28.14","66.32","NAN","0.0"],
    [1560861,"2026-06-26 18:40:00","13571","2.073","167.6","3.1689999999999996","159.1","1017.071","28.15","66.57","NAN","0.0"],
    [1560862,"2026-06-26 18:50:00","13572","1.9269999999999998","169.7","3.299","175.7","1017.193","27.88","68.08","NAN","0.0"],
    [1560863,"2026-06-26 19:00:00","13573","1.486","176.1","2.613","156.5","1017.2289999999999","27.89","68.34","NAN","0.0"],
    [1560864,"2026-06-26 19:10:00","13574","1.71","171.7","2.6460000000000004","175.9","1017.321","27.73","70.07","NAN","0.0"],
    [1560865,"2026-06-26 19:20:00","13575","1.5819999999999999","174.2","2.613","168.7","1017.328","27.52","71.23","NAN","0.0"],
    [1560866,"2026-06-26 19:30:00","13576","1.5219999999999998","170.7","2.319","163.9","1017.331","27.48","71.12","NAN","0.0"],
    [1560867,"2026-06-26 19:40:00","13577","1.5190000000000001","172.0","2.45","180.4","1017.347","27.38","71.54","NAN","0.0"],
    [1560868,"2026-06-26 19:50:00","13578","1.703","174.0","2.515","179.9","1017.4169999999999","27.29","72.45","NAN","0.0"],
    [1560869,"2026-06-26 20:00:00","13579","1.46","174.5","2.875","178.3","1017.507","27.26","71.66","NAN","0.0"],
    [1560870,"2026-06-26 20:10:00","13580","1.47","171.5","2.385","171.2","1017.617","27.22","73.07","NAN","0.0"],
    [1560871,"2026-06-26 20:20:00","13581","1.49","171.7","2.221","185.9","1017.703","27.14","75.76","NAN","0.0"],
    [1560872,"2026-06-26 20:30:00","13582","0.9420000000000001","177.1","2.0580000000000003","176.8","1017.778","27.08","76.44","NAN","0.0"],
    [1560873,"2026-06-26 20:40:00","13583","0.5720000000000001","185.9","1.274","172.1","1017.826","27.03","76.06","NAN","0.0"],
    [1560874,"2026-06-26 20:50:00","13584","0.33799999999999997","186.3","0.98","191.1","1017.8330000000001","26.96","75.79","NAN","0.0"],
    [1560875,"2026-06-26 21:00:00","13585","0.8170000000000001","178.8","1.307","177.4","1017.9730000000001","26.95","76.09","NAN","0.0"],
    [1560876,"2026-06-26 21:10:00","13586","0.737","164.0","1.699","148.7","1018.08","26.97","75.64","NAN","0.0"],
    [1560877,"2026-06-26 21:20:00","13587","0.919","171.7","1.5030000000000001","149.7","1018.102","27.09","74.79","NAN","0.0"],
    [1560878,"2026-06-26 21:30:00","13588","0.253","173.9","0.915","160.0","1018.1669999999999","27.03","75.21","NAN","0.0"],
    [1560879,"2026-06-26 21:40:00","13589","0.528","176.3","0.784","171.5","1018.112","26.88","75.71","NAN","0.0"],
    [1560880,"2026-06-26 21:50:00","13590","0.138","194.8","0.457","189.8","1018.08","26.74","73.98","NAN","0.0"],
    [1560881,"2026-06-26 22:00:00","13591","0.0","0.0","0.0","0.0","1018.08","26.89","71.19","NAN","0.0"],
    [1560882,"2026-06-26 22:10:00","13592","0.24","135.4","1.013","142.0","1018.08","26.95","71.94","NAN","0.0"],
    [1560883,"2026-06-26 22:20:00","13593","0.799","143.9","1.078","122.8","1018.1439999999999","26.92","72.79","NAN","0.0"],
    [1560884,"2026-06-26 22:30:00","13594","0.628","139.3","1.2409999999999999","140.3","1018.192","26.86","73.83","NAN","0.0"],
    [1560885,"2026-06-26 22:40:00","13595","0.6629999999999999","157.3","1.176","152.8","1018.257","26.86","75.22","NAN","0.0"],
    [1560886,"2026-06-26 22:50:00","13596","0.33","163.0","0.8490000000000001","133.1","1018.197","26.67","77.38","NAN","0.0"],
    [1560887,"2026-06-26 23:00:00","13597","0.057999999999999996","180.3","0.555","179.6","1018.107","26.48","79.38","NAN","0.0"],
    [1560888,"2026-06-26 23:10:00","13598","0.594","180.8","0.882","181.9","1018.087","26.24","82.7","NAN","0.0"],
    [1560889,"2026-06-26 23:20:00","13599","0.28","188.0","0.7190000000000001","177.8","1018.08","26.11","85.1","NAN","0.0"],
    [1560890,"2026-06-26 23:30:00","13600","0.345","188.0","0.621","184.2","1018.075","26.01","85.2","NAN","0.0"],
    [1560891,"2026-06-26 23:40:00","13601","0.40700000000000003","189.4","0.653","197.5","1018.08","26","83.7","NAN","0.0"],
    [1560892,"2026-06-26 23:50:00","13602","0.409","185.4","0.6859999999999999","187.7","1018.055","25.98","84","NAN","0.0"],
    [1560893,"2026-06-27 00:00:00","13603","0.287","190.2","0.523","191.5","1017.953","25.97","82.9","NAN","0.0"],
    [1560894,"2026-06-27 00:10:00","13604","0.324","187.8","0.523","188.8","1017.9580000000001","26.01","82.3","NAN","0.0"],
    [1560895,"2026-06-27 00:20:00","13605","0.021","179.7","0.294","181.7","1017.9580000000001","26.05","82.6","NAN","0.0"],
    [1560896,"2026-06-27 00:30:00","13606","0.0","0.0","0.0","0.0","1017.935","26.17","79.39","NAN","0.0"],
    [1560897,"2026-06-27 00:40:00","13607","0.114","165.5","0.457","166.3","1017.8430000000001","26.35","76","NAN","0.0"],
    [1560898,"2026-06-27 00:50:00","13608","0.033","163.3","0.425","164.8","1017.825","26.3","76.9","NAN","0.0"],
    [1560899,"2026-06-27 01:00:00","13609","0.040999999999999995","45.89","0.588","22.3","1017.7360000000001","26.23","76.4","NAN","0.0"],
    [1560900,"2026-06-27 01:10:00","13610","0.126","110.7","0.621","116.1","1017.7130000000001","26.13","78.21","NAN","0.0"],
    [1560901,"2026-06-27 01:20:00","13611","0.29600000000000004","85.2","0.98","73.58","1017.711","26.13","77.44","NAN","0.0"],
    [1560902,"2026-06-27 01:30:00","13612","0.223","70.24","0.653","59.8","1017.694","26.38","70.67","NAN","0.0"],
    [1560903,"2026-06-27 01:40:00","13613","0.441","46.63","0.98","37.01","1017.584","26.45","67.9","NAN","0.0"],
    [1560904,"2026-06-27 01:50:00","13614","0.018000000000000002","79.05","0.457","70.31","1017.557","26.38","70.01","NAN","0.0"],
    [1560905,"2026-06-27 02:00:00","13615","0.45399999999999996","193.3","0.7190000000000001","200.2","1017.561","25.93","72.69","NAN","0.0"],
    [1560906,"2026-06-27 02:10:00","13616","0.514","197.8","0.653","205.3","1017.547","25.93","74.12","NAN","0.0"],
    [1560907,"2026-06-27 02:20:00","13617","0.435","189.2","0.6859999999999999","185.7","1017.571","25.91","75.45","NAN","0.0"],
    [1560908,"2026-06-27 02:30:00","13618","0.027999999999999997","176.6","0.327","184.0","1017.554","25.86","76.25","NAN","0.0"],
    [1560909,"2026-06-27 02:40:00","13619","0.055","105.3","0.457","113.4","1017.4989999999999","25.89","75.61","NAN","0.0"],
    [1560910,"2026-06-27 02:50:00","13620","0.0","0.0","0.0","0.0","1017.4889999999999","25.85","77.75","NAN","0.0"],
    [1560911,"2026-06-27 03:00:00","13621","0.0","0.0","0.0","0.0","1017.465","25.81","77.35","NAN","0.0"],
    [1560912,"2026-06-27 03:10:00","13622","0.461","50.46","1.045","55.41","1017.554","25.81","76.26","NAN","0.0"],
    [1560913,"2026-06-27 03:20:00","13623","0.737","51.37","1.274","59.81","1017.467","25.84","72.2","NAN","0.0"],
    [1560914,"2026-06-27 03:30:00","13624","0.596","77.49","1.078","61.11","1017.462","25.9","67.59","NAN","0.0"],
    [1560915,"2026-06-27 03:40:00","13625","0.225","97.8","0.7509999999999999","87.4","1017.419","25.95","64.64","NAN","0.0"],
    [1560916,"2026-06-27 03:50:00","13626","0.14400000000000002","183.9","0.49","186.8","1017.442","25.83","72.5","NAN","0.0"],
    [1560917,"2026-06-27 04:00:00","13627","0.032","180.5","0.294","180.4","1017.459","25.43","78.99","NAN","0.0"],
    [1560918,"2026-06-27 04:10:00","13628","0.0","0.0","0.0","0.0","1017.4639999999999","25.2","79.57","NAN","0.0"],
    [1560919,"2026-06-27 04:20:00","13629","0.039","76.22","0.425","106.1","1017.487","25.29","74.9","NAN","0.0"],
    [1560920,"2026-06-27 04:30:00","13630","0.23800000000000002","61.7","0.784","60.01","1017.554","25.41","67.88","NAN","0.0"],
    [1560921,"2026-06-27 04:40:00","13631","0.545","54.93","1.111","70.95","1017.6439999999999","25.67","63.97","NAN","0.0"],
    [1560922,"2026-06-27 04:50:00","13632","0.573","78.8","1.111","69.11","1017.7589999999999","25.77","63.39","NAN","0.0"],
    [1560923,"2026-06-27 05:00:00","13633","0.33399999999999996","58.55","0.653","26.12","1017.8610000000001","25.85","63.21","NAN","0.0"],
    [1560924,"2026-06-27 05:10:00","13634","0.256","76.84","0.6859999999999999","64.45","1018.07","25.86","63.3","NAN","0.0"],
    [1560925,"2026-06-27 05:20:00","13635","0.53","79.77","0.9470000000000001","79.14","1018.132","26.2","61.93","NAN","0.0"],
    [1560926,"2026-06-27 05:30:00","13636","0.363","52.36","1.078","32.75","1018.212","26.27","61.25","NAN","0.0"],
    [1560927,"2026-06-27 05:40:00","13637","0.195","29.7","0.7190000000000001","28.55","1018.2739999999999","26.55","60.09","NAN","0.0"],
    [1560928,"2026-06-27 05:50:00","13638","0.42","67.72","0.915","68.85","1018.324","26.91","58.58","NAN","0.0"],
    [1560929,"2026-06-27 06:00:00","13639","0.725","77.09","1.2409999999999999","65.72","1018.423","27.2","57.62","NAN","0.0"],
    [1560930,"2026-06-27 06:10:00","13640","0.498","95.7","0.915","114.2","1018.48","27.52","57.07","NAN","0.0"],
    [1560931,"2026-06-27 06:20:00","13641","0.377","129.1","0.8170000000000001","90.8","1018.5160000000001","27.34","59.38","NAN","0.0"],
    [1560932,"2026-06-27 06:30:00","13642","0.46799999999999997","178.6","0.784","169.3","1018.5360000000001","27.27","60.26","NAN","0.0"],
    [1560933,"2026-06-27 06:40:00","13643","0.525","183.6","0.8490000000000001","184.9","1018.659","27.27","63.06","NAN","0.0"],
    [1560934,"2026-06-27 06:50:00","13644","0.8420000000000001","162.0","1.274","159.4","1018.7310000000001","27.16","64.58","NAN","0.0"],
    [1560935,"2026-06-27 07:00:00","13645","0.9359999999999999","154.3","1.4369999999999998","149.5","1018.7410000000001","27.1","64.57","NAN","0.0"],
    [1560936,"2026-06-27 07:10:00","13646","0.898","153.1","1.339","154.4","1018.757","27.37","66.28","NAN","0.0"],
    [1560937,"2026-06-27 07:20:00","13647","1.3219999999999998","127.3","2.0909999999999997","143.5","1018.765","27.8","64.57","NAN","0.0"],
    [1560938,"2026-06-27 07:30:00","13648","1.432","124.7","2.287","120.0","1018.85","27.09","66.94","NAN","0.0"],
    [1560939,"2026-06-27 07:40:00","13649","1.23","130.3","1.764","122.2","1018.942","27.35","66.03","NAN","0.0"],
    [1560940,"2026-06-27 07:50:00","13650","1.4669999999999999","129.8","2.287","136.3","1018.965","27.37","66.4","NAN","0.0"],
    [1560941,"2026-06-27 08:00:00","13651","1.4409999999999998","127.7","2.417","111.6","1018.993","27.5","66.86","NAN","0.0"],
    [1560942,"2026-06-27 08:10:00","13652","1.605","124.4","2.515","122.6","1019.0310000000001","27.61","67.33","NAN","0.0"],
    [1560943,"2026-06-27 08:20:00","13653","1.879","119.9","2.8089999999999997","111.9","1019.105","27.73","68.8","NAN","0.0"],
    [1560944,"2026-06-27 08:30:00","13654","1.9340000000000002","127.1","2.907","117.8","1019.2260000000001","27.51","70","NAN","0.0"],
    [1560945,"2026-06-27 08:40:00","13655","1.5959999999999999","145.3","2.45","154.4","1019.207","27.73","69.04","NAN","0.0"],
    [1560946,"2026-06-27 08:50:00","13656","1.406","138.6","2.385","124.9","1019.177","28.18","69.82","NAN","0.0"],
    [1560947,"2026-06-27 09:00:00","13657","1.4080000000000001","182.9","2.156","194.7","1019.181","28.49","70.23","NAN","0.0"],
    [1560948,"2026-06-27 09:10:00","13658","1.538","184.0","2.7110000000000003","185.3","1019.197","28.44","71.32","NAN","0.0"],
    [1560949,"2026-06-27 09:20:00","13659","1.421","188.3","2.483","196.6","1019.198","28.78","68.8","NAN","0.0"],
    [1560950,"2026-06-27 09:30:00","13660","1.663","181.4","2.319","161.7","1019.308","28.65","68.75","NAN","0.0"],
    [1560951,"2026-06-27 09:40:00","13661","1.906","155.9","3.0380000000000003","113.8","1019.32","28.84","66.96","NAN","0.0"],
    [1560952,"2026-06-27 09:50:00","13662","1.788","150.2","2.907","159.6","1019.319","28.89","66.9","NAN","0.0"],
    [1560953,"2026-06-27 10:00:00","13663","1.736","138.0","3.071","134.5","1019.341","28.93","66.9","NAN","0.0"],
    [1560954,"2026-06-27 10:10:00","13664","1.82","179.8","2.9730000000000003","182.6","1019.421","28.96","68.14","NAN","0.0"],
    [1560955,"2026-06-27 10:20:00","13665","2.115","180.7","3.136","160.6","1019.4019999999999","28.86","68.04","NAN","0.0"],
    [1560956,"2026-06-27 10:30:00","13666","2.406","178.0","3.5610000000000004","186.0","1019.3810000000001","28.77","68.92","NAN","0.0"],
    [1560957,"2026-06-27 10:40:00","13667","2.7539999999999996","180.0","4.2139999999999995","187.6","1019.4639999999999","28.6","70.52","NAN","0.0"],
    [1560958,"2026-06-27 10:50:00","13668","3.0439999999999996","173.9","4.181","179.5","1019.579","28.19","70.23","NAN","0.0"],
    [1560959,"2026-06-27 11:00:00","13669","2.9730000000000003","174.1","4.377","169.5","1019.5210000000001","28.39","68.88","NAN","0.0"],
    [1560960,"2026-06-27 11:10:00","13670","2.8139999999999996","171.8","3.92","173.7","1019.498","28.64","69.06","NAN","0.0"],
    [1560961,"2026-06-27 11:20:00","13671","3.0260000000000002","175.9","4.181","183.0","1019.5010000000001","28.43","72.7","NAN","0.0"],
    [1560962,"2026-06-27 11:30:00","13672","2.985","181.1","4.704","181.6","1019.475","28.42","72.06","NAN","0.0"],
    [1560963,"2026-06-27 11:40:00","13673","2.7060000000000004","187.8","4.312","183.2","1019.453","28.87","69.92","NAN","0.0"],
    [1560964,"2026-06-27 11:50:00","13674","2.698","188.1","4.508","194.2","1019.4630000000001","29.15","69.05","NAN","0.0"],
    [1560965,"2026-06-27 12:00:00","13675","2.75","188.5","4.541","184.3","1019.35","28.99","70.4","NAN","0.0"],
    [1560966,"2026-06-27 12:10:00","13676","2.421","187.0","4.2139999999999995","181.7","1019.253","29.26","70.42","NAN","0.0"],
    [1560967,"2026-06-27 12:20:00","13677","2.7319999999999998","184.3","4.377","184.3","1019.164","29.11","71.11","NAN","0.0"],
    [1560968,"2026-06-27 12:30:00","13678","3.096","179.9","4.508","166.5","1019.133","28.71","71.55","NAN","0.0"],
    [1560969,"2026-06-27 12:40:00","13679","2.549","184.3","4.181","179.6","1019.135","28.79","71.41","NAN","0.0"],
    [1560970,"2026-06-27 12:50:00","13680","2.41","185.1","4.312","180.8","1019.135","29.01","71.69","NAN","0.0"],
    [1560971,"2026-06-27 13:00:00","13681","2.523","181.6","3.985","182.2","1019.113","28.81","72.44","NAN","0.0"],
    [1560972,"2026-06-27 13:10:00","13682","2.136","184.3","4.149","180.2","1019.0930000000001","29.07","71.52","NAN","0.0"],
    [1560973,"2026-06-27 13:20:00","13683","1.93","187.2","3.397","171.0","1019.096","29.66","68.89","NAN","0.0"],
    [1560974,"2026-06-27 13:30:00","13684","2.656","172.9","3.855","171.0","1019.14","29.01","69.13","NAN","0.0"],
    [1560975,"2026-06-27 13:40:00","13685","2.628","175.2","4.377","173.2","1019.02","28.91","71.51","NAN","0.0"],
    [1560976,"2026-06-27 13:50:00","13686","2.991","177.0","4.247","179.7","1019.0110000000001","28.7","72.85","NAN","0.0"],
    [1560977,"2026-06-27 14:00:00","13687","2.803","176.0","3.887","177.6","1019.005","28.85","70.61","NAN","0.0"],
    [1560978,"2026-06-27 14:10:00","13688","2.571","174.1","3.5610000000000004","180.8","1019.057","28.88","68.69","NAN","0.0"],
    [1560979,"2026-06-27 14:20:00","13689","2.418","175.9","3.6910000000000003","183.2","1019.007","29.13","68.95","NAN","0.0"],
    [1560980,"2026-06-27 14:30:00","13690","2.716","176.3","3.7889999999999997","181.8","1018.997","28.99","71.24","NAN","0.0"],
    [1560981,"2026-06-27 14:40:00","13691","2.612","181.4","3.822","178.2","1018.992","28.85","70.81","NAN","0.0"],
    [1560982,"2026-06-27 14:50:00","13692","1.818","190.2","3.397","178.6","1019.002","30.01","64.21","NAN","0.0"],
    [1560983,"2026-06-27 15:00:00","13693","2.483","172.5","3.659","176.6","1018.987","29.22","63.74","NAN","0.0"],
    [1560984,"2026-06-27 15:10:00","13694","2.4659999999999997","178.3","3.267","178.7","1018.909","29.23","62.22","NAN","0.0"],
    [1560985,"2026-06-27 15:20:00","13695","2.489","179.4","3.267","177.1","1018.8639999999999","29.08","63.03","NAN","0.0"],
    [1560986,"2026-06-27 15:30:00","13696","2.315","175.5","3.201","183.3","1018.7639999999999","29.23","61.72","NAN","0.0"],
    [1560987,"2026-06-27 15:40:00","13697","1.8940000000000001","183.6","3.528","172.4","1018.7260000000001","29.62","61.43","NAN","0.0"],
    [1560988,"2026-06-27 15:50:00","13698","1.86","185.0","3.332","176.5","1018.709","29.53","64.35","NAN","0.0"],
    [1560989,"2026-06-27 16:00:00","13699","2.18","178.7","3.332","173.0","1018.6089999999999","29.16","65.04","NAN","0.0"],
    [1560990,"2026-06-27 16:10:00","13700","2.1719999999999997","175.8","3.103","179.8","1018.52","29.01","66.01","NAN","0.0"],
    [1560991,"2026-06-27 16:20:00","13701","2.023","172.1","2.94","172.5","1018.453","29.02","68.2","NAN","0.0"],
    [1560992,"2026-06-27 16:30:00","13702","1.97","173.4","3.005","177.9","1018.418","28.99","65.45","NAN","0.0"],
    [1560993,"2026-06-27 16:40:00","13703","1.844","177.8","2.613","188.7","1018.377","29.03","62.06","NAN","0.0"],
    [1560994,"2026-06-27 16:50:00","13704","1.969","170.4","2.8089999999999997","151.5","1018.3389999999999","29.07","63.78","NAN","0.0"],
    [1560995,"2026-06-27 17:00:00","13705","1.507","174.6","2.548","186.1","1018.2639999999999","29.55","59.39","NAN","0.0"],
    [1560996,"2026-06-27 17:10:00","13706","1.464","151.8","2.254","124.4","1018.258","29.69","57.04","NAN","0.0"],
    [1560997,"2026-06-27 17:20:00","13707","1.7530000000000001","176.0","3.103","175.9","1018.3439999999999","29.71","52.83","NAN","0.0"],
    [1560998,"2026-06-27 17:30:00","13708","1.6740000000000002","176.8","2.679","183.1","1018.298","29.43","57.03","NAN","0.0"],
    [1560999,"2026-06-27 17:40:00","13709","1.764","171.8","2.515","174.4","1018.3789999999999","29.42","54.45","NAN","0.0"],
    [1561000,"2026-06-27 17:50:00","13710","1.685","173.8","2.613","163.2","1018.413","29.62","54.38","NAN","0.0"],
    [1561001,"2026-06-27 18:00:00","13711","1.7919999999999998","178.6","2.8089999999999997","175.7","1018.385","29.31","58.29","NAN","0.0"],
    [1561002,"2026-06-27 18:10:00","13712","1.94","173.4","3.071","182.5","1018.4010000000001","28.87","62.89","NAN","0.0"],
    [1561003,"2026-06-27 18:20:00","13713","1.8130000000000002","165.3","3.0380000000000003","157.8","1018.4","28.68","67.41","NAN","0.0"],
    [1561004,"2026-06-27 18:30:00","13714","1.818","173.2","2.842","157.6","1018.416","28.42","67.83","NAN","0.0"],
    [1561005,"2026-06-27 18:40:00","13715","1.476","177.2","2.221","163.3","1018.414","28.44","68.12","NAN","0.0"],
    [1561006,"2026-06-27 18:50:00","13716","1.4780000000000002","174.6","2.613","183.5","1018.4889999999999","28.36","68.92","NAN","0.0"],
    [1561007,"2026-06-27 19:00:00","13717","1.456","179.8","2.352","178.5","1018.436","28.26","68.6","NAN","0.0"],
    [1561008,"2026-06-27 19:10:00","13718","1.527","177.2","2.613","159.5","1018.326","28.16","68.71","NAN","0.0"],
    [1561009,"2026-06-27 19:20:00","13719","1.235","180.0","1.96","170.4","1018.316","28.16","68.47","NAN","0.0"],
    [1561010,"2026-06-27 19:30:00","13720","1.38","178.4","2.417","178.7","1018.2919999999999","28.1","68.65","NAN","0.0"],
    [1561011,"2026-06-27 19:40:00","13721","0.7040000000000001","171.6","1.9269999999999998","156.8","1018.316","28.03","69.48","NAN","0.0"],
    [1561012,"2026-06-27 19:50:00","13722","0.392","191.8","0.9470000000000001","214.9","1018.342","27.91","68.18","NAN","0.0"],
    [1561013,"2026-06-27 20:00:00","13723","0.5489999999999999","134.0","1.339","153.4","1018.451","28.01","67.85","NAN","0.0"],
    [1561014,"2026-06-27 20:10:00","13724","0.8640000000000001","157.9","1.666","170.1","1018.575","28.06","67.71","NAN","0.0"],
    [1561015,"2026-06-27 20:20:00","13725","1.065","173.4","1.633","153.1","1018.6410000000001","28.02","68.12","NAN","0.0"],
    [1561016,"2026-06-27 20:30:00","13726","1.041","173.9","1.699","180.6","1018.817","27.98","69.56","NAN","0.0"],
    [1561017,"2026-06-27 20:40:00","13727","1.206","177.4","1.895","176.4","1018.882","27.86","70.8","NAN","0.0"],
    [1561018,"2026-06-27 20:50:00","13728","0.943","186.3","1.601","172.7","1019.039","27.79","71.13","NAN","0.0"],
    [1561019,"2026-06-27 21:00:00","13729","1.048","191.3","1.895","182.4","1019.076","27.66","70.93","NAN","0.0"],
    [1561020,"2026-06-27 21:10:00","13730","0.727","181.5","1.209","169.5","1019.076","27.59","71.85","NAN","0.0"],
    [1561021,"2026-06-27 21:20:00","13731","0.795","177.3","1.4369999999999998","142.5","1019.076","27.5","72.16","NAN","0.0"],
    [1561022,"2026-06-27 21:30:00","13732","0.736","183.1","1.3719999999999999","185.8","1019.173","27.44","72.31","NAN","0.0"],
    [1561023,"2026-06-27 21:40:00","13733","0.449","158.6","0.9470000000000001","188.9","1019.216","27.44","72.7","NAN","0.0"],
    [1561024,"2026-06-27 21:50:00","13734","0.639","149.7","1.176","148.0","1019.26","27.45","72.31","NAN","0.0"],
    [1561025,"2026-06-27 22:00:00","13735","0.639","163.9","1.405","147.1","1019.203","27.48","70.81","NAN","0.0"],
    [1561026,"2026-06-27 22:10:00","13736","0.619","167.9","0.98","170.7","1019.184","27.48","70.93","NAN","0.0"],
    [1561027,"2026-06-27 22:20:00","13737","0.6629999999999999","173.1","1.078","168.9","1019.193","27.35","72.13","NAN","0.0"],
    [1561028,"2026-06-27 22:30:00","13738","0.652","170.0","1.013","159.2","1019.1210000000001","27.24","73.14","NAN","0.0"],
    [1561029,"2026-06-27 22:40:00","13739","0.493","168.7","0.882","169.0","1019.0110000000001","27.11","74.05","NAN","0.0"],
    [1561030,"2026-06-27 22:50:00","13740","0.314","172.6","0.621","183.2","1018.8839999999999","27.06","73.64","NAN","0.0"],
    [1561031,"2026-06-27 23:00:00","13741","0.159","171.0","0.784","141.4","1018.927","27","73.94","NAN","0.0"],
    [1561032,"2026-06-27 23:10:00","13742","0.5529999999999999","135.4","0.9470000000000001","140.2","1018.922","27.12","72.39","NAN","0.0"],
    [1561033,"2026-06-27 23:20:00","13743","0.321","81.8","0.915","107.6","1018.837","27.22","74.06","NAN","0.0"],
    [1561034,"2026-06-27 23:30:00","13744","0.32299999999999995","67.87","0.7509999999999999","37.3","1018.825","27.16","74.47","NAN","0.0"],
    [1561035,"2026-06-27 23:40:00","13745","0.299","184.1","0.621","182.0","1018.825","27.09","74.61","NAN","0.0"],
    [1561036,"2026-06-27 23:50:00","13746","0.46799999999999997","188.6","0.8490000000000001","185.6","1018.822","26.82","78.14","NAN","0.0"],
    [1561037,"2026-06-28 00:00:00","13747","0.39399999999999996","194.4","0.8170000000000001","196.6","1018.8","26.57","79.35","NAN","0.0"],
    [1561038,"2026-06-28 00:10:00","13748","0.34600000000000003","188.1","0.653","183.9","1018.747","26.58","80.6","NAN","0.0"],
    [1561039,"2026-06-28 00:20:00","13749","0.366","185.0","0.7190000000000001","209.9","1018.707","26.51","78.8","NAN","0.0"],
    [1561040,"2026-06-28 00:30:00","13750","0.171","153.8","0.49","133.7","1018.575","26.6","78.16","NAN","0.0"],
    [1561041,"2026-06-28 00:40:00","13751","0.204","171.3","0.588","174.0","1018.4580000000001","26.47","79.17","NAN","0.0"],
    [1561042,"2026-06-28 00:50:00","13752","0.425","192.2","0.7190000000000001","201.9","1018.331","26.35","79.26","NAN","0.0"],
    [1561043,"2026-06-28 01:00:00","13753","0.105","167.1","0.49","190.6","1018.326","26.43","79.05","NAN","0.0"],
    [1561044,"2026-06-28 01:10:00","13754","0.193","176.1","0.621","180.6","1018.336","26.42","78.43","NAN","0.0"],
    [1561045,"2026-06-28 01:20:00","13755","0.474","163.5","0.98","168.0","1018.326","26.48","76.57","NAN","0.0"],
    [1561046,"2026-06-28 01:30:00","13756","0.467","196.0","1.111","184.7","1018.321","26.26","79.34","NAN","0.0"],
    [1561047,"2026-06-28 01:40:00","13757","0.07","123.5","0.359","131.2","1018.324","26.13","79.4","NAN","0.0"],
    [1561048,"2026-06-28 01:50:00","13758","0.044000000000000004","109.7","0.392","109.5","1018.329","26.19","76.16","NAN","0.0"],
    [1561049,"2026-06-28 02:00:00","13759","0.591","77.04","1.5030000000000001","50.38","1018.329","26.27","72.32","NAN","0.0"],
    [1561050,"2026-06-28 02:10:00","13760","0.537","84.7","1.045","85.5","1018.2189999999999","26.59","72.89","NAN","0.0"],
    [1561051,"2026-06-28 02:20:00","13761","0.568","61.88","1.176","74.57","1018.11","26.44","73.7","NAN","0.0"],
    [1561052,"2026-06-28 02:30:00","13762","0.055999999999999994","80.4","0.523","69.93","1018.14","26.31","69.7","NAN","0.0"],
    [1561053,"2026-06-28 02:40:00","13763","0.149","98.8","0.425","120.8","1018.087","26.28","68.76","NAN","0.0"],
    [1561054,"2026-06-28 02:50:00","13764","0.005","109.7","0.22899999999999998","110.6","1018.0239999999999","26.07","64.11","NAN","0.0"],
    [1561055,"2026-06-28 03:00:00","13765","0.07400000000000001","52.81","0.523","62.94","1017.942","26.29","64","NAN","0.0"],
    [1561056,"2026-06-28 03:10:00","13766","0.198","188.8","0.9470000000000001","201.8","1017.873","26.15","71.58","NAN","0.0"],
    [1561057,"2026-06-28 03:20:00","13767","0.223","183.7","0.653","190.2","1017.915","25.88","74.22","NAN","0.0"],
    [1561058,"2026-06-28 03:30:00","13768","0.057999999999999996","185.2","0.49","189.2","1017.875","25.68","74.66","NAN","0.0"],
    [1561059,"2026-06-28 03:40:00","13769","0.284","190.4","0.588","190.7","1017.938","25.45","74.17","NAN","0.0"],
    [1561060,"2026-06-28 03:50:00","13770","0.0","0.0","0.0","0.0","1017.875","25.53","73.14","NAN","0.0"],
    [1561061,"2026-06-28 04:00:00","13771","0.0","0.0","0.0","0.0","1017.836","25.64","72.61","NAN","0.0"],
    [1561062,"2026-06-28 04:10:00","13772","0.027000000000000003","71.51","0.392","71.3","1017.913","25.54","72.74","NAN","0.0"],
    [1561063,"2026-06-28 04:20:00","13773","0.099","144.0","0.425","159.2","1018.05","25.57","69.33","NAN","0.0"],
    [1561064,"2026-06-28 04:30:00","13774","0.003","109.1","0.163","109.2","1018.077","25.71","66.35","NAN","0.0"],
    [1561065,"2026-06-28 04:40:00","13775","0.006999999999999999","132.8","0.294","134.8","1018.137","25.63","66.42","NAN","0.0"],
    [1561066,"2026-06-28 04:50:00","13776","0.5579999999999999","62.29","1.2409999999999999","67.72","1018.262","25.56","61.54","NAN","0.0"],
    [1561067,"2026-06-28 05:00:00","13777","0.07400000000000001","54.36","0.7190000000000001","50.06","1018.297","25.74","59.21","NAN","0.0"],
    [1561068,"2026-06-28 05:10:00","13778","0.0","179.8","0.033","179.8","1018.326","25.89","64.15","NAN","0.0"],
    [1561069,"2026-06-28 05:20:00","13779","0.028999999999999998","190.8","0.523","193.6","1018.329","25.93","67.29","NAN","0.0"],
    [1561070,"2026-06-28 05:30:00","13780","0.218","174.2","0.523","192.8","1018.329","25.94","67.6","NAN","0.0"],
    [1561071,"2026-06-28 05:40:00","13781","0.192","99.2","0.653","82.2","1018.336","26.36","64.88","NAN","0.0"],
    [1561072,"2026-06-28 05:50:00","13782","0.0","0.0","0.0","0.0","1018.3989999999999","26.54","63.62","NAN","0.0"],
    [1561073,"2026-06-28 06:00:00","13783","0.126","128.7","0.457","106.2","1018.502","26.81","61.74","NAN","0.0"],
    [1561074,"2026-06-28 06:10:00","13784","0.33799999999999997","149.7","0.653","91.3","1018.687","26.93","61.01","NAN","0.0"],
    [1561075,"2026-06-28 06:20:00","13785","0.48","90.0","0.915","78.36","1018.789","27.65","53.63","NAN","0.0"],
    [1561076,"2026-06-28 06:30:00","13786","0.44299999999999995","88.0","0.882","87.0","1018.933","28.21","51.83","NAN","0.0"],
    [1561077,"2026-06-28 06:40:00","13787","0.355","82.7","0.7190000000000001","82.0","1019.007","28.59","51.71","NAN","0.0"],
    [1561078,"2026-06-28 06:50:00","13788","0.736","126.3","1.3719999999999999","114.8","1018.9860000000001","28.25","54.77","NAN","0.0"],
    [1561079,"2026-06-28 07:00:00","13789","0.9470000000000001","129.3","1.47","141.0","1019.051","27.76","56.43","NAN","0.0"],
    [1561080,"2026-06-28 07:10:00","13790","0.8809999999999999","148.7","1.307","159.4","1019.1469999999999","27.97","53.87","NAN","0.0"],
    [1561081,"2026-06-28 07:20:00","13791","1.173","153.9","1.699","106.8","1019.2610000000001","28","53.31","NAN","0.0"],
    [1561082,"2026-06-28 07:30:00","13792","1.276","128.1","2.0580000000000003","104.4","1019.363","28.11","48.61","NAN","0.0"],
    [1561083,"2026-06-28 07:40:00","13793","1.78","108.2","3.332","109.2","1019.4580000000001","28.74","45.54","NAN","0.0"],
    [1561084,"2026-06-28 07:50:00","13794","2.476","92.8","3.5610000000000004","88.4","1019.503","28.58","50.61","NAN","0.0"],
    [1561085,"2026-06-28 08:00:00","13795","2.3","91.1","3.397","96.6","1019.547","28.28","56.04","NAN","0.0"],
    [1561086,"2026-06-28 08:10:00","13796","2.484","91.2","3.593","81.6","1019.579","28.18","58.39","NAN","0.0"],
    [1561087,"2026-06-28 08:20:00","13797","2.226","100.2","3.887","97.8","1019.4810000000001","28.23","61.79","NAN","0.0"],
    [1561088,"2026-06-28 08:30:00","13798","2.164","95.6","3.136","117.9","1019.538","28.27","61.79","NAN","0.0"],
    [1561089,"2026-06-28 08:40:00","13799","2.7430000000000003","108.6","4.083","110.4","1019.4689999999999","28.07","65.19","NAN","0.0"],
    [1561090,"2026-06-28 08:50:00","13800","2.136","101.7","3.397","97.5","1019.495","28.42","66.14","NAN","0.0"],
    [1561091,"2026-06-28 09:00:00","13801","2.5180000000000002","103.9","3.7889999999999997","106.1","1019.4780000000001","28.34","66.67","NAN","0.0"],
    [1561092,"2026-06-28 09:10:00","13802","2.3680000000000003","100.1","3.528","106.1","1019.546","28.52","66.45","NAN","0.0"],
    [1561093,"2026-06-28 09:20:00","13803","2.184","96.9","3.7889999999999997","108.6","1019.574","28.8","65.53","NAN","0.0"],
    [1561094,"2026-06-28 09:30:00","13804","2.432","98.0","3.985","116.3","1019.492","29.04","61.75","NAN","0.0"],
    [1561095,"2026-06-28 09:40:00","13805","2.199","100.7","3.855","106.6","1019.466","29.41","57.5","NAN","0.0"],
    [1561096,"2026-06-28 09:50:00","13806","2.077","111.4","3.528","106.7","1019.363","29.17","61.8","NAN","0.0"],
    [1561097,"2026-06-28 10:00:00","13807","2.219","111.4","3.495","118.2","1019.347","28.94","61.46","NAN","0.0"],
    [1561098,"2026-06-28 10:10:00","13808","1.659","109.9","3.103","111.8","1019.342","29.74","54.01","NAN","0.0"],
    [1561099,"2026-06-28 10:20:00","13809","1.7180000000000002","119.8","3.6910000000000003","110.1","1019.405","29.77","53.66","NAN","0.0"],
    [1561100,"2026-06-28 10:30:00","13810","1.608","140.2","2.5810000000000004","150.1","1019.326","29.78","54.61","NAN","0.0"],
    [1561101,"2026-06-28 10:40:00","13811","1.726","143.2","2.7769999999999997","168.8","1019.309","29.78","56.18","NAN","0.0"],
    [1561102,"2026-06-28 10:50:00","13812","1.682","154.0","2.875","165.5","1019.2919999999999","29.69","55.69","NAN","0.0"],
    [1561103,"2026-06-28 11:00:00","13813","1.484","130.9","2.6460000000000004","118.4","1019.2289999999999","29.92","55.09","NAN","0.0"],
    [1561104,"2026-06-28 11:10:00","13814","1.599","141.5","2.613","152.0","1019.217","30.08","52.15","NAN","0.0"],
    [1561105,"2026-06-28 11:20:00","13815","1.619","126.3","2.417","143.5","1019.201","30.2","53.76","NAN","0.0"],
    [1561106,"2026-06-28 11:30:00","13816","1.864","121.2","2.842","112.1","1019.2189999999999","29.81","53.64","NAN","0.0"],
    [1561107,"2026-06-28 11:40:00","13817","1.758","138.0","2.842","150.1","1019.212","29.96","56.64","NAN","0.0"],
    [1561108,"2026-06-28 11:50:00","13818","1.815","127.7","2.94","138.8","1019.14","29.64","62.16","NAN","0.0"],
    [1561109,"2026-06-28 12:00:00","13819","1.642","133.0","2.679","142.8","1019.172","29.52","64.46","NAN","0.0"],
    [1561110,"2026-06-28 12:10:00","13820","1.939","127.3","3.005","141.8","1019.0939999999999","29.64","65.09","NAN","0.0"],
    [1561111,"2026-06-28 12:20:00","13821","2.003","123.4","3.397","107.4","1018.982","29.34","68.06","NAN","0.0"],
    [1561112,"2026-06-28 12:30:00","13822","2.133","125.0","3.463","114.2","1018.947","29.44","69.21","NAN","0.0"],
    [1561113,"2026-06-28 12:40:00","13823","2.237","125.0","3.7239999999999998","118.2","1018.852","29.43","70.49","NAN","0.0"],
    [1561114,"2026-06-28 12:50:00","13824","2.129","130.0","3.365","114.4","1018.817","29.57","70.55","NAN","0.0"],
    [1561115,"2026-06-28 13:00:00","13825","2.329","131.8","4.018","113.6","1018.7510000000001","29.18","73.48","NAN","0.0"],
    [1561116,"2026-06-28 13:10:00","13826","2.511","132.2","3.5610000000000004","141.1","1018.7360000000001","29.14","75.75","NAN","0.0"],
    [1561117,"2026-06-28 13:20:00","13827","2.675","128.7","4.181","116.4","1018.747","29.05","76.84","NAN","0.0"],
    [1561118,"2026-06-28 13:30:00","13828","2.65","131.4","3.985","140.8","1018.7489999999999","29.06","76.99","NAN","0.0"],
    [1561119,"2026-06-28 13:40:00","13829","2.215","122.9","3.6910000000000003","125.1","1018.753","29.17","77.47","NAN","0.0"],
    [1561120,"2026-06-28 13:50:00","13830","2.528","132.9","3.985","140.3","1018.666","29.01","79.38","NAN","0.0"],
    [1561121,"2026-06-28 14:00:00","13831","2.477","128.6","4.181","113.2","1018.549","29.16","79.78","NAN","0.0"],
    [1561122,"2026-06-28 14:10:00","13832","2.247","127.8","3.1689999999999996","152.7","1018.5319999999999","29.07","79.84","NAN","0.0"],
    [1561123,"2026-06-28 14:20:00","13833","2.526","130.0","3.887","141.8","1018.393","29.15","77.13","NAN","0.0"],
    [1561124,"2026-06-28 14:30:00","13834","2.65","130.9","4.083","142.9","1018.2739999999999","29.17","77.4","NAN","0.0"],
    [1561125,"2026-06-28 14:40:00","13835","2.7510000000000003","126.0","4.835","144.9","1018.2330000000001","29.13","79.17","NAN","0.0"],
    [1561126,"2026-06-28 14:50:00","13836","2.1590000000000003","135.1","3.463","142.4","1018.237","29.36","79.43","NAN","0.0"],
    [1561127,"2026-06-28 15:00:00","13837","2.141","136.4","3.397","150.4","1018.216","29.32","79.18","NAN","0.0"],
    [1561128,"2026-06-28 15:10:00","13838","2.3369999999999997","132.1","4.1160000000000005","110.0","1018.235","29.1","80.2","NAN","0.0"],
    [1561129,"2026-06-28 15:20:00","13839","2.707","128.2","4.638999999999999","142.6","1018.073","28.82","83.4","NAN","0.0"],
    [1561130,"2026-06-28 15:30:00","13840","2.1069999999999998","124.8","3.365","109.2","1018.0139999999999","28.88","83.5","NAN","0.0"],
    [1561131,"2026-06-28 15:40:00","13841","2.085","134.1","3.267","132.8","1017.836","28.86","84.6","NAN","0.0"],
    [1561132,"2026-06-28 15:50:00","13842","2.237","130.5","3.593","103.2","1017.693","28.81","84.7","NAN","0.0"],
    [1561133,"2026-06-28 16:00:00","13843","1.774","140.9","2.7439999999999998","129.1","1017.7610000000001","28.74","83.6","NAN","0.0"],
    [1561134,"2026-06-28 16:10:00","13844","1.403","134.9","2.613","123.4","1017.91","28.7","80.7","NAN","0.0"],
    [1561135,"2026-06-28 16:20:00","13845","1.632","133.8","2.548","130.8","1017.784","28.51","80.6","NAN","0.0"],
    [1561136,"2026-06-28 16:30:00","13846","1.412","127.9","2.5810000000000004","139.6","1017.821","28.39","81.7","NAN","0.0"],
    [1561137,"2026-06-28 16:40:00","13847","1.439","124.8","2.319","106.0","1017.783","28.54","80.3","NAN","0.0"],
    [1561138,"2026-06-28 16:50:00","13848","1.245","120.2","2.0580000000000003","131.2","1017.8489999999999","28.4","80.3","NAN","0.0"],
    [1561139,"2026-06-28 17:00:00","13849","0.9279999999999999","129.2","1.666","133.4","1018.047","28.64","79.3","NAN","0.0"],
    [1561140,"2026-06-28 17:10:00","13850","1.0190000000000001","144.3","1.96","111.5","1018.1239999999999","28.7","76.54","NAN","0.0"],
    [1561141,"2026-06-28 17:20:00","13851","0.787","179.6","1.307","176.6","1018.3439999999999","28.8","74.49","NAN","0.0"],
    [1561142,"2026-06-28 17:30:00","13852","0.828","173.2","1.405","185.0","1018.6339999999999","28.93","68.41","NAN","0.0"],
    [1561143,"2026-06-28 17:40:00","13853","0.8490000000000001","191.6","1.535","200.7","1018.8","29.2","66.59","NAN","0.0"],
    [1561144,"2026-06-28 17:50:00","13854","0.863","167.5","1.3719999999999999","158.4","1018.817","29.23","66.56","NAN","0.0"],
    [1561145,"2026-06-28 18:00:00","13855","1.3769999999999998","172.3","2.221","177.0","1018.815","29.28","67.21","NAN","0.0"],
    [1561146,"2026-06-28 18:10:00","13856","1.255","181.4","2.189","172.8","1018.903","29.17","69.77","NAN","0.0"],
    [1561147,"2026-06-28 18:20:00","13857","1.5430000000000001","174.0","2.483","148.9","1018.7180000000001","29.05","68.91","NAN","0.0"],
    [1561148,"2026-06-28 18:30:00","13858","1.413","173.2","2.8089999999999997","180.5","1018.523","29.16","68.01","NAN","0.0"],
    [1561149,"2026-06-28 18:40:00","13859","1.521","167.2","2.319","176.4","1018.302","29.04","69.42","NAN","0.0"],
    [1561150,"2026-06-28 18:50:00","13860","1.3430000000000002","173.2","2.5810000000000004","187.8","1018.2","28.97","70.07","NAN","0.0"],
    [1561151,"2026-06-28 19:00:00","13861","1.27","181.1","2.5810000000000004","172.6","1018.0880000000001","28.93","70.8","NAN","0.0"],
    [1561152,"2026-06-28 19:10:00","13862","0.8540000000000001","189.7","2.025","180.7","1018.296","28.71","73.81","NAN","0.0"],
    [1561153,"2026-06-28 19:20:00","13863","0.774","193.0","1.9269999999999998","208.1","1018.311","28.72","73.41","NAN","0.0"],
    [1561154,"2026-06-28 19:30:00","13864","0.948","177.6","2.025","140.3","1018.3510000000001","28.81","68.38","NAN","0.0"],
    [1561155,"2026-06-28 19:40:00","13865","1.295","140.6","2.483","159.6","1018.191","28.9","68.04","NAN","0.0"],
    [1561156,"2026-06-28 19:50:00","13866","1.157","181.1","1.96","160.2","1018.257","28.63","77.57","NAN","0.0"],
    [1561157,"2026-06-28 20:00:00","13867","1.1420000000000001","185.6","2.352","184.7","1018.336","28.31","83.8","NAN","0.0"],
    [1561158,"2026-06-28 20:10:00","13868","0.851","186.2","1.601","183.8","1018.329","28.22","84.9","NAN","0.0"],
    [1561159,"2026-06-28 20:20:00","13869","0.395","172.3","0.882","197.0","1018.323","28.26","84.1","NAN","0.0"],
    [1561160,"2026-06-28 20:30:00","13870","0.452","171.6","1.143","242.4","1018.305","28.63","77.03","NAN","0.0"],
    [1561161,"2026-06-28 20:40:00","13871","0.10300000000000001","115.6","0.7509999999999999","115.3","1018.2239999999999","28.97","73.99","NAN","0.0"],
    [1561162,"2026-06-28 20:50:00","13872","0.606","155.4","1.535","272.0","1018.316","29.24","65.46","NAN","0.0"],
    [1561163,"2026-06-28 21:00:00","13873","0.691","95.0","1.2409999999999999","105.2","1018.329","29.32","66.55","NAN","0.0"],
    [1561164,"2026-06-28 21:10:00","13874","0.674","115.2","1.339","87.4","1018.372","29.6","65.6","NAN","0.0"],
    [1561165,"2026-06-28 21:20:00","13875","0.738","125.3","1.5030000000000001","110.7","1018.523","29.41","71.49","NAN","0.0"],
    [1561166,"2026-06-28 21:30:00","13876","0.474","81.6","0.9470000000000001","68.87","1018.5880000000001","29.07","77.11","NAN","0.0"],
    [1561167,"2026-06-28 21:40:00","13877","1.092","61.63","2.025","52.03","1018.4019999999999","28.99","79.37","NAN","0.0"],
    [1561168,"2026-06-28 21:50:00","13878","1.3880000000000001","108.1","2.45","108.1","1018.543","28.75","82.3","NAN","0.0"],
    [1561169,"2026-06-28 22:00:00","13879","0.626","122.0","2.221","109.2","1018.79","28.27","86.4","NAN","0.0"],
    [1561170,"2026-06-28 22:10:00","13880","0.73","330.3","2.189","300.2","1018.865","28.8","80.9","NAN","0.0"],
    [1561171,"2026-06-28 22:20:00","13881","1.157","301.1","3.659","311.8","1018.7760000000001","30.06","56.3","NAN","0.0"],
    [1561172,"2026-06-28 22:30:00","13882","0.7979999999999999","278.5","2.385","242.4","1018.625","31.16","43.4","NAN","0.0"],
    [1561173,"2026-06-28 22:40:00","13883","0.6709999999999999","321.1","1.7309999999999999","296.8","1018.337","31.52","40.28","NAN","0.0"],
    [1561174,"2026-06-28 22:50:00","13884","1.179","218.0","3.005","231.7","1018.461","31.24","47.9","NAN","0.0"],
    [1561175,"2026-06-28 23:00:00","13885","0.825","261.3","3.593","199.7","1018.566","29.63","55.83","NAN","0.0"],
    [1561176,"2026-06-28 23:10:00","13886","1.6669999999999998","281.1","4.769","266.8","1018.154","30.6","40.5","NAN","0.0"],
    [1561177,"2026-06-28 23:20:00","13887","1.36","318.6","4.051","255.4","1018.065","30.49","39.81","NAN","0.0"],
    [1561178,"2026-06-28 23:30:00","13888","0.983","296.1","2.483","242.3","1018.165","30.56","39.37","NAN","0.0"],
    [1561179,"2026-06-28 23:40:00","13889","1.3769999999999998","265.4","2.45","270.1","1018.105","30.52","39.08","NAN","0.0"],
    [1561180,"2026-06-28 23:50:00","13890","0.9229999999999999","353.9","2.156","311.0","1017.579","30.52","38.9","NAN","0.0"],
    [1561181,"2026-06-29 00:00:00","13891","0.882","97.1","2.0580000000000003","59.93","1017.3760000000001","30.31","40.16","NAN","0.0"],
    [1561182,"2026-06-29 00:10:00","13892","1.3719999999999999","158.3","2.5810000000000004","166.5","1017.551","29.73","45.46","NAN","0.0"],
    [1561183,"2026-06-29 00:20:00","13893","1.341","125.4","2.385","101.2","1017.705","29.49","45.87","NAN","0.0"],
    [1561184,"2026-06-29 00:30:00","13894","1.012","94.2","1.9269999999999998","86.4","1017.83","29.94","42.07","NAN","0.0"],
    [1561185,"2026-06-29 00:40:00","13895","0.615","173.4","1.405","204.8","1017.7810000000001","29.61","47.31","NAN","0.0"],
    [1561186,"2026-06-29 00:50:00","13896","0.535","113.0","1.045","103.8","1017.4580000000001","28.77","52.71","NAN","0.0"],
    [1561187,"2026-06-29 01:00:00","13897","0.7959999999999999","213.8","2.189","248.4","1018.0419999999999","28.98","50.83","NAN","0.0"],
    [1561188,"2026-06-29 01:10:00","13898","0.997","104.5","1.699","109.6","1018.279","29.17","48.04","NAN","0.0"],
    [1561189,"2026-06-29 01:20:00","13899","1.4780000000000002","75.85","2.94","80.2","1018.403","29.3","48.7","NAN","0.0"],
    [1561190,"2026-06-29 01:30:00","13900","1.045","48.23","3.495","61.02","1018.5980000000001","28.69","65.82","NAN","0.0"],
    [1561191,"2026-06-29 01:40:00","13901","1.215","10.16","2.548","27.74","1018.418","28.19","70.95","NAN","0.0"],
    [1561192,"2026-06-29 01:50:00","13902","0.9790000000000001","47.87","1.9269999999999998","67.25","1018.515","28","76.69","NAN","0.0"],
    [1561193,"2026-06-29 02:00:00","13903","1.403","58.23","2.679","62.67","1018.67","27.71","83.8","NAN","0.0"],
    [1561194,"2026-06-29 02:10:00","13904","1.575","45.74","3.1689999999999996","56.26","1018.757","27.51","87.1","NAN","0.0"],
    [1561195,"2026-06-29 02:20:00","13905","1.6580000000000001","35.9","4.247","31.9","1018.7289999999999","27.31","88.9","NAN","0.0"],
    [1561196,"2026-06-29 02:30:00","13906","1.983","55.29","4.018","30.7","1018.7289999999999","27.21","82.8","NAN","0.0"],
    [1561197,"2026-06-29 02:40:00","13907","1.798","45.19","4.508","57.17","1018.698","27.36","74.55","NAN","0.0"],
    [1561198,"2026-06-29 02:50:00","13908","1.3619999999999999","47.21","2.7439999999999998","37.68","1018.6189999999999","27.42","74.79","NAN","0.0"],
    [1561199,"2026-06-29 03:00:00","13909","0.8320000000000001","34.51","2.548","32.78","1018.7719999999999","27.49","75.94","NAN","0.0"],
    [1561200,"2026-06-29 03:10:00","13910","1.301","43.53","2.287","57.01","1018.628","27.45","76.5","NAN","0.0"],
    [1561201,"2026-06-29 03:20:00","13911","1.048","20.87","2.352","1.357","1018.658","27.4","75.87","NAN","0.0"],
    [1561202,"2026-06-29 03:30:00","13912","1.337","37.75","2.9730000000000003","33.67","1018.785","27.44","76.06","NAN","0.0"],
    [1561203,"2026-06-29 03:40:00","13913","0.915","32.4","2.7439999999999998","17.56","1018.82","27.4","77.64","NAN","0.0"],
    [1561204,"2026-06-29 03:50:00","13914","1.218","49.52","2.842","26.21","1018.827","27.35","79.12","NAN","0.0"],
    [1561205,"2026-06-29 04:00:00","13915","0.851","42.7","1.797","22.24","1018.86","27.33","79.16","NAN","0.0"],
    [1561206,"2026-06-29 04:10:00","13916","0.943","12.16","2.679","17.64","1018.827","27.41","76.87","NAN","0.0"],
    [1561207,"2026-06-29 04:20:00","13917","0.6629999999999999","32.6","1.8619999999999999","40.73","1018.95","27.48","68.69","NAN","0.0"],
    [1561208,"2026-06-29 04:30:00","13918","0.511","358.7","1.405","5.622999999999999","1019.074","27.84","64.24","NAN","0.0"],
    [1561209,"2026-06-29 04:40:00","13919","0.573","28.18","1.405","5.24","1019.084","27.94","63.33","NAN","0.0"],
    [1561210,"2026-06-29 04:50:00","13920","0.861","2.448","2.319","16.2","1019.2410000000001","27.91","63.03","NAN","0.0"],
    [1561211,"2026-06-29 05:00:00","13921","0.847","343.4","2.287","10.27","1019.283","28.11","63.23","NAN","0.0"],
    [1561212,"2026-06-29 05:10:00","13922","0.782","29.35","2.0580000000000003","34.5","1019.326","28.18","63.63","NAN","0.0"],
    [1561213,"2026-06-29 05:20:00","13923","1.0979999999999999","44.4","2.221","11.61","1019.317","27.94","63.42","NAN","0.0"],
    [1561214,"2026-06-29 05:30:00","13924","1.396","15.47","2.7439999999999998","15.32","1019.325","27.84","62.17","NAN","0.0"],
    [1561215,"2026-06-29 05:40:00","13925","1.028","25.84","3.0380000000000003","25.69","1019.435","27.85","61.02","NAN","0.0"],
    [1561216,"2026-06-29 05:50:00","13926","1.045","46.94","2.025","69.48","1019.453","27.87","59.72","NAN","0.0"],
    [1561217,"2026-06-29 06:00:00","13927","1.217","49.54","2.417","58.24","1019.552","27.83","59.1","NAN","0.0"],
    [1561218,"2026-06-29 06:10:00","13928","0.9670000000000001","26.94","2.189","48.79","1019.575","28.08","58.04","NAN","0.0"],
    [1561219,"2026-06-29 06:20:00","13929","0.847","52.35","1.764","51.58","1019.565","28.83","56.06","NAN","0.0"],
    [1561220,"2026-06-29 06:30:00","13930","0.892","39.47","1.96","67.18","1019.5830000000001","29.2","55.51","NAN","0.0"],
    [1561221,"2026-06-29 06:40:00","13931","1.145","41.78","2.613","59.33","1019.666","29.37","56.38","NAN","0.0"],
    [1561222,"2026-06-29 06:50:00","13932","0.748","57.69","1.5030000000000001","70.81","1019.6360000000001","29.33","58.67","NAN","0.0"],
    [1561223,"2026-06-29 07:00:00","13933","0.802","80.6","1.535","93.3","1019.681","29.49","58.36","NAN","0.0"],
    [1561224,"2026-06-29 07:10:00","13934","0.872","109.2","1.993","112.3","1019.7660000000001","29.84","56.42","NAN","0.0"],
    [1561225,"2026-06-29 07:20:00","13935","1.5030000000000001","120.5","2.548","139.8","1019.798","29.34","58.12","NAN","0.0"],
    [1561226,"2026-06-29 07:30:00","13936","1.319","153.6","2.221","171.0","1019.9810000000001","29.43","58.04","NAN","0.0"],
    [1561227,"2026-06-29 07:40:00","13937","1.587","135.4","2.7110000000000003","153.9","1019.992","29.53","58.03","NAN","0.0"],
    [1561228,"2026-06-29 07:50:00","13938","1.421","121.8","2.45","114.1","1020.015","29.43","59.58","NAN","0.0"],
    [1561229,"2026-06-29 08:00:00","13939","1.629","125.2","2.352","109.5","1020.059","29.24","62.6","NAN","0.0"],
    [1561230,"2026-06-29 08:10:00","13940","1.42","128.3","2.287","131.8","1020.053","29.33","61.87","NAN","0.0"],
    [1561231,"2026-06-29 08:20:00","13941","1.3769999999999998","129.2","2.417","110.8","1020.067","29.69","62.09","NAN","0.0"],
    [1561232,"2026-06-29 08:30:00","13942","1.806","133.3","2.613","160.6","1020.1089999999999","29.45","64.56","NAN","0.0"],
    [1561233,"2026-06-29 08:40:00","13943","1.669","161.4","3.495","159.6","1020.18","29.57","65.57","NAN","0.0"],
    [1561234,"2026-06-29 08:50:00","13944","1.764","185.2","3.463","166.6","1020.189","29.94","64.89","NAN","0.0"],
    [1561235,"2026-06-29 09:00:00","13945","1.915","185.9","3.5610000000000004","175.0","1020.183","29.68","65.55","NAN","0.0"],
    [1561236,"2026-06-29 09:10:00","13946","2.437","153.1","3.9530000000000003","133.4","1020.188","29.64","65.9","NAN","0.0"],
    [1561237,"2026-06-29 09:20:00","13947","2.142","164.9","3.822","157.1","1020.193","29.64","66.18","NAN","0.0"],
    [1561238,"2026-06-29 09:30:00","13948","2.858","176.2","4.279","181.0","1020.185","29.28","68.14","NAN","0.0"],
    [1561239,"2026-06-29 09:40:00","13949","3.4539999999999997","173.3","5.292000000000001","182.9","1020.196","28.76","70.7","NAN","0.0"],
    [1561240,"2026-06-29 09:50:00","13950","3.2","180.9","4.933","184.4","1020.2139999999999","28.85","71.21","NAN","0.0"],
    [1561241,"2026-06-29 10:00:00","13951","2.9219999999999997","184.8","4.933","182.3","1020.235","29.2","70.46","NAN","0.0"],
    [1561242,"2026-06-29 10:10:00","13952","2.978","182.6","5.325","180.2","1020.242","29.35","69.95","NAN","0.0"],
    [1561243,"2026-06-29 10:20:00","13953","3.612","179.2","5.194","183.8","1020.238","29.09","71.31","NAN","0.0"],
    [1561244,"2026-06-29 10:30:00","13954","3.755","174.1","5.978","177.9","1020.2139999999999","28.8","72.39","NAN","0.0"],
    [1561245,"2026-06-29 10:40:00","13955","3.7710000000000004","174.7","5.651","180.3","1020.138","28.83","72.49","NAN","0.0"],
    [1561246,"2026-06-29 10:50:00","13956","3.5439999999999996","175.3","5.912999999999999","186.5","1020.1669999999999","28.9","71.63","NAN","0.0"],
    [1561247,"2026-06-29 11:00:00","13957","3.471","175.5","5.586","162.2","1020.238","29.37","68.45","NAN","0.0"],
    [1561248,"2026-06-29 11:10:00","13958","3.135","173.2","4.638999999999999","145.7","1020.194","29.75","66.51","NAN","0.0"],
    [1561249,"2026-06-29 11:20:00","13959","3.32","172.3","5.521","151.3","1020.047","30.09","64.33","NAN","0.0"],
    [1561250,"2026-06-29 11:30:00","13960","3.8139999999999996","170.2","5.619","162.7","1020.028","29.82","65.7","NAN","0.0"],
    [1561251,"2026-06-29 11:40:00","13961","3.727","169.2","5.945","153.9","1019.948","29.67","66.82","NAN","0.0"],
    [1561252,"2026-06-29 11:50:00","13962","3.305","176.2","5.88","184.0","1019.795","29.89","66.74","NAN","0.0"],
    [1561253,"2026-06-29 12:00:00","13963","2.708","187.3","6.435","179.5","1019.811","30.38","64.46","NAN","0.0"],
    [1561254,"2026-06-29 12:10:00","13964","3.0239999999999996","183.3","5.194","185.3","1019.7539999999999","30.36","63.96","NAN","0.0"],
    [1561255,"2026-06-29 12:20:00","13965","3.012","197.7","7.218999999999999","207.9","1019.716","30.62","62.95","NAN","0.0"],
    [1561256,"2026-06-29 12:30:00","13966","2.681","191.4","5.194","175.1","1019.66","30.99","62.09","NAN","0.0"],
    [1561257,"2026-06-29 12:40:00","13967","2.6010000000000004","201.1","5.422999999999999","211.1","1019.5139999999999","31.57","58.88","NAN","0.0"],
    [1561258,"2026-06-29 12:50:00","13968","2.8280000000000003","195.4","5.096","188.8","1019.38","31.4","59.5","NAN","0.0"],
    [1561259,"2026-06-29 13:00:00","13969","3.173","193.5","6.566","193.6","1019.243","31.01","61.16","NAN","0.0"],
    [1561260,"2026-06-29 13:10:00","13970","2.701","193.0","4.998","225.9","1019.253","31.2","60.6","NAN","0.0"],
    [1561261,"2026-06-29 13:20:00","13971","2.775","192.2","5.4879999999999995","205.1","1019.308","31.39","59.88","NAN","0.0"],
    [1561262,"2026-06-29 13:30:00","13972","2.8819999999999997","200.0","6.957999999999999","182.8","1019.296","31.71","58.62","NAN","0.0"],
    [1561263,"2026-06-29 13:40:00","13973","2.841","193.8","6.0760000000000005","177.9","1019.209","31.62","58.59","NAN","0.0"],
    [1561264,"2026-06-29 13:50:00","13974","3.175","193.4","5.847","175.1","1019.1339999999999","31.33","60.19","NAN","0.0"],
    [1561265,"2026-06-29 14:00:00","13975","3.443","189.6","6.305","185.4","1019.041","31","61.48","NAN","0.0"],
    [1561266,"2026-06-29 14:10:00","13976","3.753","192.1","6.9910000000000005","188.7","1018.9889999999999","30.89","61.3","NAN","0.0"],
    [1561267,"2026-06-29 14:20:00","13977","3.4739999999999998","191.0","6.042999999999999","211.2","1018.966","31.05","60.72","NAN","0.0"],
    [1561268,"2026-06-29 14:30:00","13978","3.0439999999999996","191.4","5.553","197.3","1018.98","31.13","60.2","NAN","0.0"],
    [1561269,"2026-06-29 14:40:00","13979","2.938","202.1","6.207000000000001","206.6","1018.98","31.65","54.63","NAN","0.0"],
    [1561270,"2026-06-29 14:50:00","13980","2.303","207.4","5.7170000000000005","194.0","1018.82","32.4","51.32","NAN","0.0"],
    [1561271,"2026-06-29 15:00:00","13981","2.469","208.9","4.867","227.5","1018.702","32.55","50.09","NAN","0.0"],
    [1561272,"2026-06-29 15:10:00","13982","2.7319999999999998","202.9","5.586","202.4","1018.694","32.41","49.54","NAN","0.0"],
    [1561273,"2026-06-29 15:20:00","13983","2.199","206.1","4.508","201.8","1018.697","32.83","47.43","NAN","0.0"],
    [1561274,"2026-06-29 15:30:00","13984","2.407","199.7","5.031000000000001","171.6","1018.632","32.58","45.91","NAN","0.0"],
    [1561275,"2026-06-29 15:40:00","13985","2.577","199.7","5.782","174.3","1018.541","32.31","45.07","NAN","0.0"],
    [1561276,"2026-06-29 15:50:00","13986","2.766","194.6","5.684","183.2","1018.425","32.23","46.09","NAN","0.0"],
    [1561277,"2026-06-29 16:00:00","13987","2.489","199.4","5.063","221.4","1018.3919999999999","32.02","47.37","NAN","0.0"],
    [1561278,"2026-06-29 16:10:00","13988","2.342","204.4","4.541","226.7","1018.324","32.23","47.68","NAN","0.0"],
    [1561279,"2026-06-29 16:20:00","13989","2.785","194.5","4.9","198.8","1018.301","31.75","49.51","NAN","0.0"],
    [1561280,"2026-06-29 16:30:00","13990","2.501","199.9","4.475","205.3","1018.2239999999999","31.75","49.03","NAN","0.0"],
    [1561281,"2026-06-29 16:40:00","13991","2.3569999999999998","193.6","4.671","190.3","1018.0880000000001","31.52","49.4","NAN","0.0"],
    [1561282,"2026-06-29 16:50:00","13992","2.479","201.0","5.227","195.2","1018.0319999999999","31.43","49.33","NAN","0.0"],
    [1561283,"2026-06-29 17:00:00","13993","2.359","205.0","5.521","199.9","1018.0010000000001","31.67","47.74","NAN","0.0"],
    [1561284,"2026-06-29 17:10:00","13994","1.9980000000000002","208.6","4.638999999999999","211.3","1018.07","31.81","46.7","NAN","0.0"],
    [1561285,"2026-06-29 17:20:00","13995","2.039","207.0","4.2139999999999995","218.1","1018.1080000000001","31.75","44.91","NAN","0.0"],
    [1561286,"2026-06-29 17:30:00","13996","1.992","208.7","3.92","199.5","1018.0160000000001","31.95","44.73","NAN","0.0"],
    [1561287,"2026-06-29 17:40:00","13997","1.825","198.5","3.593","201.1","1017.86","31.47","46.66","NAN","0.0"],
    [1561288,"2026-06-29 17:50:00","13998","2.055","197.1","3.887","193.2","1017.87","31.17","46.06","NAN","0.0"],
    [1561289,"2026-06-29 18:00:00","13999","1.7530000000000001","207.3","3.92","222.2","1017.96","31.41","45.82","NAN","0.0"],
    [1561290,"2026-06-29 18:10:00","14000","1.614","228.2","4.345","250.4","1018.0110000000001","31.78","45","NAN","0.0"],
    [1561291,"2026-06-29 18:20:00","14001","1.536","223.6","3.659","244.5","1018.013","31.49","45.65","NAN","0.0"],
    [1561292,"2026-06-29 18:30:00","14002","1.47","227.5","4.345","222.5","1018.067","31.23","45.75","NAN","0.0"],
    [1561293,"2026-06-29 18:40:00","14003","1.6230000000000002","216.7","3.136","214.8","1018.0889999999999","31.06","45.44","NAN","0.0"],
    [1561294,"2026-06-29 18:50:00","14004","1.358","225.9","3.103","214.6","1018.077","30.93","45.33","NAN","0.0"],
    [1561295,"2026-06-29 19:00:00","14005","1.376","211.3","3.071","222.9","1018.1289999999999","30.76","45.66","NAN","0.0"],
    [1561296,"2026-06-29 19:10:00","14006","1.09","223.4","2.6460000000000004","192.7","1018.105","30.73","46.16","NAN","0.0"],
    [1561297,"2026-06-29 19:20:00","14007","1.026","228.4","3.6260000000000003","244.1","1018.237","30.83","45.94","NAN","0.0"],
    [1561298,"2026-06-29 19:30:00","14008","1.599","241.1","3.92","253.7","1018.252","30.68","45.7","NAN","0.0"],
    [1561299,"2026-06-29 19:40:00","14009","2.082","245.4","4.279","235.6","1018.302","30.46","44.28","NAN","0.0"],
    [1561300,"2026-06-29 19:50:00","14010","1.4480000000000002","244.9","3.7239999999999998","245.4","1018.318","30.56","43.31","NAN","0.0"],
    [1561301,"2026-06-29 20:00:00","14011","1.445","243.3","4.247","265.9","1018.419","30.6","43","NAN","0.0"],
    [1561302,"2026-06-29 20:10:00","14012","1.069","231.1","2.94","222.4","1018.541","30.7","42.36","NAN","0.0"],
    [1561303,"2026-06-29 20:20:00","14013","0.6679999999999999","238.2","2.842","252.6","1018.711","30.6","42.54","NAN","0.0"],
    [1561304,"2026-06-29 20:30:00","14014","1.422","246.3","3.528","249.4","1018.827","30.56","41.85","NAN","0.0"],
    [1561305,"2026-06-29 20:40:00","14015","1.013","229.4","2.6460000000000004","244.7","1018.93","30.55","42.24","NAN","0.0"],
    [1561306,"2026-06-29 20:50:00","14016","0.929","202.6","1.7309999999999999","203.9","1019.059","29.96","45.26","NAN","0.0"],
    [1561307,"2026-06-29 21:00:00","14017","1.16","211.7","2.221","234.0","1019.1310000000001","29.76","45.13","NAN","0.0"],
    [1561308,"2026-06-29 21:10:00","14018","0.698","225.4","2.548","232.5","1019.298","30.16","43.13","NAN","0.0"],
    [1561309,"2026-06-29 21:20:00","14019","0.866","246.6","2.6460000000000004","235.7","1019.326","30.29","42.55","NAN","0.0"],
    [1561310,"2026-06-29 21:30:00","14020","1.2819999999999998","249.2","3.365","255.3","1019.346","30.3","42.3","NAN","0.0"],
    [1561311,"2026-06-29 21:40:00","14021","0.8590000000000001","222.1","2.6460000000000004","255.3","1019.393","30.26","43.08","NAN","0.0"],
    [1561312,"2026-06-29 21:50:00","14022","0.556","204.7","1.764","230.0","1019.445","29.82","45.25","NAN","0.0"],
    [1561313,"2026-06-29 22:00:00","14023","0.983","204.5","2.123","200.4","1019.452","29.37","46.79","NAN","0.0"],
    [1561314,"2026-06-29 22:10:00","14024","0.917","215.7","1.993","263.0","1019.44","29.29","46.43","NAN","0.0"],
    [1561315,"2026-06-29 22:20:00","14025","0.903","218.2","2.483","229.4","1019.49","29.69","44.77","NAN","0.0"],
    [1561316,"2026-06-29 22:30:00","14026","0.7959999999999999","199.5","1.568","209.6","1019.567","29.21","47.5","NAN","0.0"],
    [1561317,"2026-06-29 22:40:00","14027","0.809","200.5","1.601","208.5","1019.47","29.03","48.11","NAN","0.0"],
    [1561318,"2026-06-29 22:50:00","14028","0.706","183.5","1.3719999999999999","211.6","1019.497","28.98","48.27","NAN","0.0"],
    [1561319,"2026-06-29 23:00:00","14029","0.743","172.9","1.5030000000000001","171.5","1019.48","28.9","47.84","NAN","0.0"],
    [1561320,"2026-06-29 23:10:00","14030","0.799","144.8","1.274","145.1","1019.495","29.14","46.43","NAN","0.0"],
    [1561321,"2026-06-29 23:20:00","14031","1.004","113.9","1.7309999999999999","102.5","1019.682","28.7","53.91","NAN","0.0"],
    [1561322,"2026-06-29 23:30:00","14032","0.752","52.6","1.895","29.06","1019.717","28.27","62.6","NAN","0.0"],
    [1561323,"2026-06-29 23:40:00","14033","1.166","40.82","2.254","31.5","1019.811","28.24","63.56","NAN","0.0"],
    [1561324,"2026-06-29 23:50:00","14034","1.2890000000000001","53.37","3.071","54.5","1019.801","27.86","66.89","NAN","0.0"],
    [1561325,"2026-06-30 00:00:00","14035","1.265","57.35","2.515","68.41","1019.824","27.62","68.65","NAN","0.0"],
    [1561326,"2026-06-30 00:10:00","14036","1.136","54.54","2.352","59.67","1019.799","27.54","69.67","NAN","0.0"],
    [1561327,"2026-06-30 00:20:00","14037","1.023","56.7","2.0580000000000003","27.3","1019.814","27.47","70.47","NAN","0.0"],
    [1561328,"2026-06-30 00:30:00","14038","0.764","22.4","2.0909999999999997","23.61","1019.824","27.44","69.92","NAN","0.0"],
    [1561329,"2026-06-30 00:40:00","14039","0.715","13.22","1.405","358.7","1019.824","27.58","68.34","NAN","0.0"],
    [1561330,"2026-06-30 00:50:00","14040","0.5660000000000001","37.57","1.764","14.74","1019.824","27.66","68.02","NAN","0.0"],
    [1561331,"2026-06-30 01:00:00","14041","0.905","58.13","2.221","27.91","1019.7260000000001","27.58","67.22","NAN","0.0"],
    [1561332,"2026-06-30 01:10:00","14042","0.992","53.6","1.829","55.82","1019.699","27.52","65.74","NAN","0.0"],
    [1561333,"2026-06-30 01:20:00","14043","0.8690000000000001","61.48","1.9269999999999998","48.47","1019.5989999999999","27.58","64.05","NAN","0.0"],
    [1561334,"2026-06-30 01:30:00","14044","0.828","63.01","1.96","36.52","1019.375","27.58","63.57","NAN","0.0"],
    [1561335,"2026-06-30 01:40:00","14045","0.619","170.6","1.209","205.0","1019.326","27.5","65.22","NAN","0.0"],
    [1561336,"2026-06-30 01:50:00","14046","0.5670000000000001","143.0","1.078","166.5","1019.326","27.22","67.1","NAN","0.0"],
    [1561337,"2026-06-30 02:00:00","14047","0.39899999999999997","163.1","0.882","160.0","1019.273","27.12","69.99","NAN","0.0"],
    [1561338,"2026-06-30 02:10:00","14048","0.302","190.1","0.6859999999999999","189.5","1019.1239999999999","26.94","71.45","NAN","0.0"],
    [1561339,"2026-06-30 02:20:00","14049","0.395","176.3","0.8170000000000001","181.4","1019.084","26.84","72.44","NAN","0.0"],
    [1561340,"2026-06-30 02:30:00","14050","0.455","171.2","0.915","170.6","1019.076","26.68","73.12","NAN","0.0"],
    [1561341,"2026-06-30 02:40:00","14051","0.035","183.2","0.392","181.9","1019.076","26.68","73.52","NAN","0.0"],
    [1561342,"2026-06-30 02:50:00","14052","0.188","114.8","0.588","146.0","1019.076","26.59","73.52","NAN","0.0"],
    [1561343,"2026-06-30 03:00:00","14053","0.182","92.5","0.588","106.9","1019.076","26.59","73.65","NAN","0.0"],
    [1561344,"2026-06-30 03:10:00","14054","0.23","97.9","0.8170000000000001","81.9","1019.084","26.51","73.02","NAN","0.0"],
    [1561345,"2026-06-30 03:20:00","14055","0.32799999999999996","112.3","0.653","104.5","1019.082","26.6","69.94","NAN","0.0"],
    [1561346,"2026-06-30 03:30:00","14056","0.344","106.3","0.8170000000000001","108.3","1019.179","26.61","69","NAN","0.0"],
    [1561347,"2026-06-30 03:40:00","14057","0.37200000000000005","146.9","0.653","152.1","1019.196","26.76","67.75","NAN","0.0"],
    [1561348,"2026-06-30 03:50:00","14058","0.11800000000000001","158.7","0.621","182.6","1019.201","26.88","67.17","NAN","0.0"],
    [1561349,"2026-06-30 04:00:00","14059","0.506","189.4","1.013","182.9","1019.2660000000001","26.5","70.16","NAN","0.0"],
    [1561350,"2026-06-30 04:10:00","14060","0.294","197.5","0.6859999999999999","182.1","1019.2260000000001","26.26","70.6","NAN","0.0"],
    [1561351,"2026-06-30 04:20:00","14061","0.5770000000000001","197.7","0.8490000000000001","207.0","1019.163","26.18","69.28","NAN","0.0"],
    [1561352,"2026-06-30 04:30:00","14062","0.273","162.5","0.784","183.2","1019.2289999999999","26.22","71.29","NAN","0.0"],
    [1561353,"2026-06-30 04:40:00","14063","0.16699999999999998","146.8","0.7509999999999999","151.0","1019.301","26.25","68.47","NAN","0.0"],
    [1561354,"2026-06-30 04:50:00","14064","0.094","97.9","0.523","99.9","1019.238","26.39","68.09","NAN","0.0"],
    [1561355,"2026-06-30 05:00:00","14065","0.08900000000000001","69.58","0.425","62.75","1019.189","26.71","66.54","NAN","0.0"],
    [1561356,"2026-06-30 05:10:00","14066","0.512","105.3","0.915","114.2","1019.2139999999999","26.76","64.21","NAN","0.0"],
    [1561357,"2026-06-30 05:20:00","14067","0.52","123.3","0.9470000000000001","112.7","1019.32","27.02","62.12","NAN","0.0"],
    [1561358,"2026-06-30 05:30:00","14068","0.56","118.0","1.045","114.1","1019.313","27.27","60.32","NAN","0.0"],
    [1561359,"2026-06-30 05:40:00","14069","0.22","78.0","0.621","86.4","1019.291","27.5","58.24","NAN","0.0"],
    [1561360,"2026-06-30 05:50:00","14070","0.596","92.3","1.176","116.3","1019.323","28","55.55","NAN","0.0"],
    [1561361,"2026-06-30 06:00:00","14071","0.66","106.5","1.111","105.0","1019.323","27.71","58.48","NAN","0.0"],
    [1561362,"2026-06-30 06:10:00","14072","1.0","215.7","3.267","234.6","1019.319","28.29","51.06","NAN","0.0"],
    [1561363,"2026-06-30 06:20:00","14073","1.193","241.9","3.299","270.2","1019.3660000000001","29.23","44.8","NAN","0.0"],
    [1561364,"2026-06-30 06:30:00","14074","1.31","267.0","2.8089999999999997","247.0","1019.367","29.46","44.13","NAN","0.0"],
    [1561365,"2026-06-30 06:40:00","14075","1.0190000000000001","236.2","2.5810000000000004","238.9","1019.3839999999999","29.64","44.22","NAN","0.0"],
    [1561366,"2026-06-30 06:50:00","14076","1.4969999999999999","246.9","3.5610000000000004","244.5","1019.37","29.52","44.78","NAN","0.0"],
    [1561367,"2026-06-30 07:00:00","14077","1.775","253.0","3.9530000000000003","259.4","1019.2810000000001","29.48","45.08","NAN","0.0"],
    [1561368,"2026-06-30 07:10:00","14078","1.6969999999999998","244.9","3.7889999999999997","253.3","1019.368","29.6","45.13","NAN","0.0"],
    [1561369,"2026-06-30 07:20:00","14079","1.569","277.6","4.149","268.0","1019.427","29.85","44.57","NAN","0.0"],
    [1561370,"2026-06-30 07:30:00","14080","1.585","251.8","3.43","309.6","1019.5089999999999","29.85","44.76","NAN","0.0"],
    [1561371,"2026-06-30 07:40:00","14081","1.535","246.1","3.332","301.9","1019.497","30.13","44.14","NAN","0.0"],
    [1561372,"2026-06-30 07:50:00","14082","1.306","264.4","3.822","240.8","1019.408","30.62","42.81","NAN","0.0"],
    [1561373,"2026-06-30 08:00:00","14083","1.2690000000000001","235.3","3.1689999999999996","204.4","1019.225","30.89","42.12","NAN","0.0"],
    [1561374,"2026-06-30 08:10:00","14084","1.632","257.4","3.6910000000000003","262.6","1019.194","30.79","42.03","NAN","0.0"],
    [1561375,"2026-06-30 08:20:00","14085","1.7369999999999999","272.3","3.43","269.3","1019.19","31.36","40.9","NAN","0.0"],
    [1561376,"2026-06-30 08:30:00","14086","1.5319999999999998","245.4","4.051","224.6","1019.17","31.67","40.38","NAN","0.0"],
    [1561377,"2026-06-30 08:40:00","14087","1.429","231.3","3.985","245.9","1019.067","31.88","40.05","NAN","0.0"],
    [1561378,"2026-06-30 08:50:00","14088","1.436","227.4","3.6260000000000003","240.4","1018.938","32.13","39.77","NAN","0.0"],
    [1561379,"2026-06-30 09:00:00","14089","1.7469999999999999","208.6","2.94","227.1","1018.938","32.3","39.57","NAN","0.0"],
    [1561380,"2026-06-30 09:10:00","14090","1.331","209.0","2.7110000000000003","169.3","1018.935","32.52","39.6","NAN","0.0"],
    [1561381,"2026-06-30 09:20:00","14091","1.59","199.5","4.279","175.2","1018.93","32.41","42.42","NAN","0.0"],
    [1561382,"2026-06-30 09:30:00","14092","2.508","176.1","4.051","179.1","1018.857","30.32","52.06","NAN","0.0"],
    [1561383,"2026-06-30 09:40:00","14093","2.66","169.7","4.508","175.3","1018.773","30.28","52.81","NAN","0.0"],
    [1561384,"2026-06-30 09:50:00","14094","2.7439999999999998","174.6","4.4430000000000005","175.4","1018.715","30.3","53.46","NAN","0.0"],
    [1561385,"2026-06-30 10:00:00","14095","3.216","172.3","5.194","170.2","1018.7230000000001","30.45","52.68","NAN","0.0"],
    [1561386,"2026-06-30 10:10:00","14096","2.136","183.7","3.6260000000000003","177.5","1018.7260000000001","31.25","50.05","NAN","0.0"],
    [1561387,"2026-06-30 10:20:00","14097","2.987","173.3","4.867","176.1","1018.638","30.95","50.77","NAN","0.0"],
    [1561388,"2026-06-30 10:30:00","14098","3.6910000000000003","169.1","5.194","167.7","1018.6160000000001","30.04","53.82","NAN","0.0"],
    [1561389,"2026-06-30 10:40:00","14099","4.044","170.3","5.945","180.9","1018.544","29.62","55.5","NAN","0.0"],
    [1561390,"2026-06-30 10:50:00","14100","3.9389999999999996","168.2","5.847","177.8","1018.5160000000001","29.46","56.63","NAN","0.0"],
    [1561391,"2026-06-30 11:00:00","14101","4.06","169.1","5.912999999999999","170.9","1018.623","29.34","57.48","NAN","0.0"],
    [1561392,"2026-06-30 11:10:00","14102","4.178999999999999","168.4","5.749","170.1","1018.6569999999999","29.04","60.02","NAN","0.0"],
    [1561393,"2026-06-30 11:20:00","14103","4.056","168.5","5.39","172.7","1018.595","29.51","58.77","NAN","0.0"],
    [1561394,"2026-06-30 11:30:00","14104","3.575","169.1","5.847","171.2","1018.62","29.58","58.34","NAN","0.0"],
    [1561395,"2026-06-30 11:40:00","14105","3.6660000000000004","168.6","5.325","173.1","1018.57","29.61","61.46","NAN","0.0"],
    [1561396,"2026-06-30 11:50:00","14106","2.451","183.8","4.018","184.9","1018.493","30.04","59.82","NAN","0.0"],
    [1561397,"2026-06-30 12:00:00","14107","2.4290000000000003","177.6","4.279","166.9","1018.45","30.94","51.91","NAN","0.0"],
    [1561398,"2026-06-30 12:10:00","14108","2.8139999999999996","176.7","4.802","152.8","1018.34","31.18","48.74","NAN","0.0"],
    [1561399,"2026-06-30 12:20:00","14109","3.301","172.3","6.729","173.3","1018.2410000000001","31.03","48.9","NAN","0.0"],
    [1561400,"2026-06-30 12:30:00","14110","2.812","171.2","4.638999999999999","169.9","1018.154","31.24","49.91","NAN","0.0"],
    [1561401,"2026-06-30 12:40:00","14111","3.498","166.3","5.325","165.3","1018.0419999999999","30.41","54.21","NAN","0.0"],
    [1561402,"2026-06-30 12:50:00","14112","3.991","167.2","5.684","181.9","1018.015","29.55","57.22","NAN","0.0"],
    [1561403,"2026-06-30 13:00:00","14113","3.707","168.6","5.357","167.4","1017.9580000000001","29.35","58.24","NAN","0.0"],
    [1561404,"2026-06-30 13:10:00","14114","3.38","166.6","4.998","179.5","1017.818","29.65","57.14","NAN","0.0"],
    [1561405,"2026-06-30 13:20:00","14115","3.766","169.2","5.586","179.2","1017.779","29.04","58.44","NAN","0.0"],
    [1561406,"2026-06-30 13:30:00","14116","3.699","173.4","5.651","153.0","1017.788","29.56","54.9","NAN","0.0"],
    [1561407,"2026-06-30 13:40:00","14117","3.925","174.9","5.912999999999999","179.3","1017.7810000000001","29.79","53.96","NAN","0.0"],
    [1561408,"2026-06-30 13:50:00","14118","4.302","175.6","6.305","174.1","1017.8530000000001","29.7","52.64","NAN","0.0"],
    [1561409,"2026-06-30 14:00:00","14119","4.5360000000000005","172.7","6.566","173.4","1017.865","28.95","59.18","NAN","0.0"],
    [1561410,"2026-06-30 14:10:00","14120","3.8289999999999997","174.7","6.141","162.8","1017.813","29.13","59.34","NAN","0.0"],
    [1561411,"2026-06-30 14:20:00","14121","3.553","176.3","5.651","161.7","1017.802","28.86","63.03","NAN","0.0"],
    [1561412,"2026-06-30 14:30:00","14122","3.002","172.1","4.41","180.3","1017.837","28.49","65.13","NAN","0.0"],
    [1561413,"2026-06-30 14:40:00","14123","2.5989999999999998","176.4","3.985","187.0","1017.842","28.59","65.64","NAN","0.0"],
    [1561414,"2026-06-30 14:50:00","14124","2.186","175.4","3.463","179.9","1017.822","28.65","66.87","NAN","0.0"],
    [1561415,"2026-06-30 15:00:00","14125","2.084","174.9","3.267","181.9","1017.818","29.2","64.86","NAN","0.0"],
    [1561416,"2026-06-30 15:10:00","14126","2.614","168.4","4.4430000000000005","162.5","1017.804","29.27","63.02","NAN","0.0"],
    [1561417,"2026-06-30 15:20:00","14127","2.391","167.1","4.41","180.5","1017.796","29.24","63.75","NAN","0.0"],
    [1561418,"2026-06-30 15:30:00","14128","2.68","149.3","4.41","110.9","1017.7769999999999","28.98","66.14","NAN","0.0"],
    [1561419,"2026-06-30 15:40:00","14129","2.35","134.5","3.985","111.1","1017.7660000000001","29.05","67.33","NAN","0.0"],
    [1561420,"2026-06-30 15:50:00","14130","2.7030000000000003","123.7","4.018","144.7","1017.701","28.85","69.26","NAN","0.0"],
    [1561421,"2026-06-30 16:00:00","14131","2.7889999999999997","129.0","3.9530000000000003","124.4","1017.721","28.44","71.26","NAN","0.0"],
    [1561422,"2026-06-30 16:10:00","14132","2.698","128.6","3.985","127.5","1017.711","28.33","71.91","NAN","0.0"],
    [1561423,"2026-06-30 16:20:00","14133","2.461","127.4","3.92","144.0","1017.788","28.33","71.73","NAN","0.0"],
    [1561424,"2026-06-30 16:30:00","14134","2.336","127.6","3.463","134.6","1017.813","28.41","72.04","NAN","0.0"],
    [1561425,"2026-06-30 16:40:00","14135","2.309","124.6","3.6910000000000003","110.2","1017.7769999999999","28.42","71.93","NAN","0.0"],
    [1561426,"2026-06-30 16:50:00","14136","2.397","126.0","3.887","135.3","1017.81","28.52","71.51","NAN","0.0"],
    [1561427,"2026-06-30 17:00:00","14137","2.5140000000000002","126.3","3.887","123.9","1017.817","28.27","73.25","NAN","0.0"],
    [1561428,"2026-06-30 17:10:00","14138","2.5980000000000003","128.7","5.063","114.2","1017.809","28.27","72.96","NAN","0.0"],
    [1561429,"2026-06-30 17:20:00","14139","2.369","127.2","3.855","114.5","1017.83","28.45","71.98","NAN","0.0"],
    [1561430,"2026-06-30 17:30:00","14140","2.5580000000000003","125.3","3.855","108.2","1017.842","28.17","73.77","NAN","0.0"],
    [1561431,"2026-06-30 17:40:00","14141","2.3169999999999997","124.2","3.659","115.6","1017.8860000000001","28.15","73.64","NAN","0.0"],
    [1561432,"2026-06-30 17:50:00","14142","2.279","124.8","3.365","104.6","1017.875","28.07","73.54","NAN","0.0"],
    [1561433,"2026-06-30 18:00:00","14143","2.059","128.2","3.103","110.6","1017.965","28.03","73.72","NAN","0.0"],
    [1561434,"2026-06-30 18:10:00","14144","2.1430000000000002","127.2","3.103","140.2","1017.86","27.95","73.76","NAN","0.0"],
    [1561435,"2026-06-30 18:20:00","14145","2.02","124.0","3.005","141.7","1017.836","27.94","74.32","NAN","0.0"],
    [1561436,"2026-06-30 18:30:00","14146","2.045","125.4","3.201","121.9","1017.8330000000001","27.94","74.52","NAN","0.0"],
    [1561437,"2026-06-30 18:40:00","14147","1.902","125.2","2.907","122.2","1017.935","27.77","74.91","NAN","0.0"],
    [1561438,"2026-06-30 18:50:00","14148","1.767","128.5","2.7110000000000003","132.9","1018.003","27.73","75.21","NAN","0.0"],
    [1561439,"2026-06-30 19:00:00","14149","1.31","131.8","2.679","111.8","1017.95","27.74","76.37","NAN","0.0"],
    [1561440,"2026-06-30 19:10:00","14150","1.2329999999999999","130.1","2.287","131.0","1017.955","27.65","78.33","NAN","0.0"],
    [1561441,"2026-06-30 19:20:00","14151","1.676","125.0","2.7110000000000003","106.1","1018.135","27.5","80.5","NAN","0.0"],
    [1561442,"2026-06-30 19:30:00","14152","1.568","131.8","3.234","148.2","1018.322","27.39","83.9","NAN","0.0"],
    [1561443,"2026-06-30 19:40:00","14153","1.2919999999999998","139.5","2.189","172.2","1018.331","27.36","84.4","NAN","0.0"],
    [1561444,"2026-06-30 19:50:00","14154","1.043","131.5","1.96","140.8","1018.434","27.47","83.7","NAN","0.0"],
    [1561445,"2026-06-30 20:00:00","14155","1.146","129.4","1.993","112.0","1018.573","27.4","84","NAN","0.0"],
    [1561446,"2026-06-30 20:10:00","14156","1.077","150.7","1.9269999999999998","149.2","1018.76","27.29","85.5","NAN","0.0"],
    [1561447,"2026-06-30 20:20:00","14157","1.037","168.6","2.025","182.6","1018.827","27.21","85.1","NAN","0.0"],
    [1561448,"2026-06-30 20:30:00","14158","1.048","184.6","1.829","181.9","1018.9119999999999","27.3","81.9","NAN","0.0"],
    [1561449,"2026-06-30 20:40:00","14159","0.843","172.9","1.699","176.8","1019.067","27.25","81.5","NAN","0.0"],
    [1561450,"2026-06-30 20:50:00","14160","1.476","157.4","2.385","136.9","1019.049","27.42","81.4","NAN","0.0"],
    [1561451,"2026-06-30 21:00:00","14161","1.341","166.9","1.96","158.2","1019.204","27.16","83.5","NAN","0.0"],
    [1561452,"2026-06-30 21:10:00","14162","0.856","179.6","1.568","177.4","1019.318","27.07","82.1","NAN","0.0"],
    [1561453,"2026-06-30 21:20:00","14163","0.785","199.0","1.568","184.9","1019.328","27.18","76.65","NAN","0.0"],
    [1561454,"2026-06-30 21:30:00","14164","0.9309999999999999","186.5","1.829","210.0","1019.3430000000001","27.31","77.17","NAN","0.0"],
    [1561455,"2026-06-30 21:40:00","14165","0.9309999999999999","186.4","1.47","200.6","1019.328","27.26","76.86","NAN","0.0"],
    [1561456,"2026-06-30 21:50:00","14166","0.91","188.9","1.4369999999999998","177.4","1019.303","27.24","74.23","NAN","0.0"],
    [1561457,"2026-06-30 22:00:00","14167","0.895","195.7","1.601","202.8","1019.303","27.28","72.59","NAN","0.0"],
    [1561458,"2026-06-30 22:10:00","14168","0.955","198.9","1.764","198.6","1019.285","27.29","73.36","NAN","0.0"],
    [1561459,"2026-06-30 22:20:00","14169","1.123","205.5","2.5810000000000004","194.0","1019.096","27.42","71.46","NAN","0.0"],
    [1561460,"2026-06-30 22:30:00","14170","1.222","199.4","1.9269999999999998","206.4","1019.044","27.36","72.14","NAN","0.0"],
    [1561461,"2026-06-30 22:40:00","14171","1.033","197.9","1.895","191.3","1018.961","27.3","73.11","NAN","0.0"],
    [1561462,"2026-06-30 22:50:00","14172","0.871","220.1","1.895","233.5","1018.84","27.45","72.49","NAN","0.0"],
    [1561463,"2026-06-30 23:00:00","14173","0.8","210.3","1.47","199.6","1018.827","27.45","73.33","NAN","0.0"],
    [1561464,"2026-06-30 23:10:00","14174","0.726","215.7","1.7309999999999999","202.6","1018.827","27.31","74.31","NAN","0.0"],
    [1561465,"2026-06-30 23:20:00","14175","0.667","211.5","1.633","208.1","1018.827","27.32","74.44","NAN","0.0"],
    [1561466,"2026-06-30 23:30:00","14176","0.9670000000000001","206.3","1.96","196.1","1018.827","27.09","75.49","NAN","0.0"],
    [1561467,"2026-06-30 23:40:00","14177","0.68","208.5","1.535","185.4","1018.827","26.95","76.54","NAN","0.0"],
    [1561468,"2026-06-30 23:50:00","14178","1.133","220.2","2.875","238.7","1018.742","26.96","76.73","NAN","0.0"],
    [1561469,"2026-07-01 00:00:00","14179","0.995","237.1","2.94","233.1","1018.785","27.33","75.56","NAN","0.0"],
    [1561470,"2026-07-01 00:10:00","14180","1.4380000000000002","245.3","2.94","222.8","1018.827","27.34","76.22","NAN","0.0"],
    [1561471,"2026-07-01 00:20:00","14181","1.329","240.1","3.201","235.2","1018.817","27.26","77.38","NAN","0.0"],
    [1561472,"2026-07-01 00:30:00","14182","0.735","199.2","1.535","179.1","1018.695","27.04","78.77","NAN","0.0"],
    [1561473,"2026-07-01 00:40:00","14183","0.597","205.0","1.601","324.3","1018.578","26.76","80.4","NAN","0.0"],
    [1561474,"2026-07-01 00:50:00","14184","0.698","199.7","2.221","330.2","1018.558","26.74","80.5","NAN","0.0"],
    [1561475,"2026-07-01 01:00:00","14185","1.173","235.4","3.071","249.6","1018.4780000000001","26.98","79.22","NAN","0.0"],
    [1561476,"2026-07-01 01:10:00","14186","0.84","205.8","2.319","295.9","1018.446","26.93","79.36","NAN","0.0"],
    [1561477,"2026-07-01 01:20:00","14187","1.3719999999999999","240.7","3.267","231.8","1018.443","26.95","77.35","NAN","0.0"],
    [1561478,"2026-07-01 01:30:00","14188","1.159","229.9","3.136","245.1","1018.419","26.99","77","NAN","0.0"],
    [1561479,"2026-07-01 01:40:00","14189","1.476","240.3","3.267","228.7","1018.4110000000001","26.94","76.87","NAN","0.0"],
    [1561480,"2026-07-01 01:50:00","14190","1.334","234.5","3.136","230.4","1018.331","26.88","77.3","NAN","0.0"],
    [1561481,"2026-07-01 02:00:00","14191","1.261","244.4","3.005","211.3","1018.306","26.96","75.91","NAN","0.0"],
    [1561482,"2026-07-01 02:10:00","14192","1.3319999999999999","247.7","2.94","254.3","1018.2389999999999","27.05","74.38","NAN","0.0"],
    [1561483,"2026-07-01 02:20:00","14193","0.384","233.3","1.633","224.1","1018.2539999999999","27.15","73.09","NAN","0.0"],
    [1561484,"2026-07-01 02:30:00","14194","0.541","220.5","2.0580000000000003","234.9","1018.202","27.06","73.51","NAN","0.0"],
    [1561485,"2026-07-01 02:40:00","14195","0.929","197.8","1.764","200.1","1018.257","26.68","75.34","NAN","0.0"],
    [1561486,"2026-07-01 02:50:00","14196","0.755","266.8","2.548","293.0","1018.309","26.51","73.11","NAN","0.0"],
    [1561487,"2026-07-01 03:00:00","14197","1.236","322.1","2.875","304.8","1018.2739999999999","27.03","67.14","NAN","0.0"],
    [1561488,"2026-07-01 03:10:00","14198","1.139","278.4","2.679","253.4","1018.097","27.04","68.66","NAN","0.0"],
    [1561489,"2026-07-01 03:20:00","14199","1.274","263.2","3.071","265.0","1017.972","26.93","69.37","NAN","0.0"],
    [1561490,"2026-07-01 03:30:00","14200","0.69","252.2","2.025","236.2","1017.82","26.99","68.72","NAN","0.0"],
    [1561491,"2026-07-01 03:40:00","14201","1.0270000000000001","237.3","2.287","240.5","1017.716","27","68.6","NAN","0.0"],
    [1561492,"2026-07-01 03:50:00","14202","1.105","262.6","2.679","289.7","1017.7489999999999","26.96","69.35","NAN","0.0"],
    [1561493,"2026-07-01 04:00:00","14203","0.9390000000000001","245.1","2.6460000000000004","251.2","1017.831","26.97","69.65","NAN","0.0"],
    [1561494,"2026-07-01 04:10:00","14204","0.99","248.8","2.842","281.9","1017.8330000000001","26.92","68.63","NAN","0.0"],
    [1561495,"2026-07-01 04:20:00","14205","1.2990000000000002","269.2","3.201","290.1","1017.831","27","61.29","NAN","0.0"],
    [1561496,"2026-07-01 04:30:00","14206","1.5859999999999999","272.7","3.5610000000000004","289.7","1017.816","26.91","57.25","NAN","0.0"],
    [1561497,"2026-07-01 04:40:00","14207","1.431","270.8","2.6460000000000004","287.3","1017.811","26.7","56.75","NAN","0.0"],
    [1561498,"2026-07-01 04:50:00","14208","0.948","42.7","2.221","322.3","1017.94","26.76","61.48","NAN","0.0"],
    [1561499,"2026-07-01 05:00:00","14209","0.93","22.23","2.254","33.72","1017.938","26.53","62.76","NAN","0.0"],
    [1561500,"2026-07-01 05:10:00","14210","0.812","11.61","3.267","14.47","1017.953","26.81","53.21","NAN","0.0"],
    [1561501,"2026-07-01 05:20:00","14211","1.406","28.61","3.659","18.22","1018.065","26.61","50.42","NAN","0.0"],
    [1561502,"2026-07-01 05:30:00","14212","1.604","22.52","4.181","5.11","1018.18","26.52","50.26","NAN","0.0"],
    [1561503,"2026-07-01 05:40:00","14213","1.194","36.47","2.483","37.27","1018.2560000000001","26.28","51.03","NAN","0.0"],
    [1561504,"2026-07-01 05:50:00","14214","0.805","11.43","2.287","39.63","1018.362","26.69","49.43","NAN","0.0"],
    [1561505,"2026-07-01 06:00:00","14215","1.3840000000000001","330.1","4.508","318.2","1018.52","27.04","47.72","NAN","0.0"],
    [1561506,"2026-07-01 06:10:00","14216","1.999","326.6","4.638999999999999","310.6","1018.7130000000001","26.85","47.12","NAN","0.0"],
    [1561507,"2026-07-01 06:20:00","14217","1.45","337.6","3.5610000000000004","311.0","1018.825","26.78","47.41","NAN","0.0"],
    [1561508,"2026-07-01 06:30:00","14218","1.258","347.5","2.875","36.72","1018.802","27.29","47.3","NAN","0.0"],
    [1561509,"2026-07-01 06:40:00","14219","1.288","347.4","3.5610000000000004","53.02","1018.804","27.07","48.43","NAN","0.0"],
    [1561510,"2026-07-01 06:50:00","14220","1.635","11.34","3.7239999999999998","15.14","1018.82","27.42","49.22","NAN","0.0"],
    [1561511,"2026-07-01 07:00:00","14221","2.09","10.19","4.4430000000000005","19.1","1018.811","27.31","50.84","NAN","0.0"],
    [1561512,"2026-07-01 07:10:00","14222","1.515","359.3","3.5610000000000004","35.57","1018.819","27.55","50.29","NAN","0.0"],
    [1561513,"2026-07-01 07:20:00","14223","1.589","0.185","3.659","16.89","1018.7810000000001","27.76","49.97","NAN","0.0"],
    [1561514,"2026-07-01 07:30:00","14224","1.024","11.57","3.136","9.18","1018.7389999999999","28.14","49.39","NAN","0.0"],
    [1561515,"2026-07-01 07:40:00","14225","1.176","26.75","2.842","18.76","1018.7289999999999","28.47","50.73","NAN","0.0"],
    [1561516,"2026-07-01 07:50:00","14226","1.359","23.65","3.365","355.6","1018.7410000000001","28.37","52.58","NAN","0.0"],
    [1561517,"2026-07-01 08:00:00","14227","1.8430000000000002","62.48","3.7239999999999998","64.29","1018.7539999999999","28.44","55.59","NAN","0.0"],
    [1561518,"2026-07-01 08:10:00","14228","1.162","62.87","4.1160000000000005","64.67","1018.638","28.55","55.16","NAN","0.0"],
    [1561519,"2026-07-01 08:20:00","14229","1.021","46.52","3.0380000000000003","52.87","1018.692","28.79","54.21","NAN","0.0"],
    [1561520,"2026-07-01 08:30:00","14230","1.357","76.47","3.365","85.6","1018.7460000000001","28.99","56.27","NAN","0.0"],
    [1561521,"2026-07-01 08:40:00","14231","2.736","92.8","3.92","117.8","1018.7330000000001","27.68","66.5","NAN","0.0"],
    [1561522,"2026-07-01 08:50:00","14232","2.824","99.3","4.247","96.3","1018.745","27.51","70.04","NAN","0.0"],
    [1561523,"2026-07-01 09:00:00","14233","3.003","96.4","4.2139999999999995","91.3","1018.752","27.67","70.44","NAN","0.0"],
    [1561524,"2026-07-01 09:10:00","14234","2.737","90.4","4.606","109.7","1018.745","27.67","70.87","NAN","0.0"],
    [1561525,"2026-07-01 09:20:00","14235","2.3930000000000002","81.2","3.7889999999999997","66.65","1018.707","28","70.57","NAN","0.0"],
    [1561526,"2026-07-01 09:30:00","14236","2.793","94.7","4.018","104.3","1018.762","27.97","69.28","NAN","0.0"],
    [1561527,"2026-07-01 09:40:00","14237","2.392","83.7","4.149","68.03","1018.7710000000001","28.37","68.8","NAN","0.0"],
    [1561528,"2026-07-01 09:50:00","14238","2.9130000000000003","81.7","5.684","66.09","1018.775","28.44","69.95","NAN","0.0"],
    [1561529,"2026-07-01 10:00:00","14239","3.347","83.5","5.978","79.07","1018.747","28.25","70.03","NAN","0.0"],
    [1561530,"2026-07-01 10:10:00","14240","3.593","81.7","6.272","99.1","1018.752","28.25","68.48","NAN","0.0"],
    [1561531,"2026-07-01 10:20:00","14241","4.534","89.5","7.023","91.6","1018.804","28.14","66.81","NAN","0.0"],
    [1561532,"2026-07-01 10:30:00","14242","4.534","91.6","6.925","92.1","1018.903","27.95","64.78","NAN","0.0"],
    [1561533,"2026-07-01 10:40:00","14243","3.9019999999999997","85.5","6.664","79.13","1018.918","28.16","64.04","NAN","0.0"],
    [1561534,"2026-07-01 10:50:00","14244","3.517","97.9","6.141","90.7","1018.8530000000001","28.46","62.86","NAN","0.0"],
    [1561535,"2026-07-01 11:00:00","14245","3.4819999999999998","104.7","6.5329999999999995","92.5","1018.8789999999999","28.09","64.09","NAN","0.0"],
    [1561536,"2026-07-01 11:10:00","14246","3.145","117.6","4.933","96.6","1018.819","28.09","64.47","NAN","0.0"],
    [1561537,"2026-07-01 11:20:00","14247","3.158","129.1","5.619","144.2","1018.91","27.62","66.03","NAN","0.0"],
    [1561538,"2026-07-01 11:30:00","14248","3.253","131.9","6.042999999999999","147.7","1018.803","27.6","66.52","NAN","0.0"],
    [1561539,"2026-07-01 11:40:00","14249","3.408","130.0","5.815","117.1","1018.816","27.48","66.72","NAN","0.0"],
    [1561540,"2026-07-01 11:50:00","14250","3.181","126.7","5.129","107.8","1018.745","27.54","67.43","NAN","0.0"],
    [1561541,"2026-07-01 12:00:00","14251","2.9530000000000003","127.8","4.802","140.4","1018.7710000000001","27.53","68.18","NAN","0.0"],
    [1561542,"2026-07-01 12:10:00","14252","2.7560000000000002","126.4","4.933","145.8","1018.803","27.61","67.67","NAN","0.0"],
    [1561543,"2026-07-01 12:20:00","14253","2.4219999999999997","129.3","3.92","110.3","1018.7439999999999","27.65","68.25","NAN","0.0"],
    [1561544,"2026-07-01 12:30:00","14254","2.622","125.2","4.083","111.5","1018.586","27.58","68.92","NAN","0.0"],
    [1561545,"2026-07-01 12:40:00","14255","2.532","128.5","4.573","132.2","1018.438","27.51","69.47","NAN","0.0"],
    [1561546,"2026-07-01 12:50:00","14256","2.889","130.4","4.475","143.4","1018.445","27.46","69.65","NAN","0.0"],
    [1561547,"2026-07-01 13:00:00","14257","2.932","130.6","4.835","141.0","1018.3919999999999","27.52","70.54","NAN","0.0"],
    [1561548,"2026-07-01 13:10:00","14258","2.611","126.2","4.541","115.1","1018.3580000000001","27.66","70.98","NAN","0.0"],
    [1561549,"2026-07-01 13:20:00","14259","3.1839999999999997","132.2","5.063","136.5","1018.3539999999999","27.5","71.37","NAN","0.0"],
    [1561550,"2026-07-01 13:30:00","14260","2.895","128.2","4.835","147.4","1018.331","27.46","72.3","NAN","0.0"],
    [1561551,"2026-07-01 13:40:00","14261","2.985","115.3","4.573","108.6","1018.318","27.93","71.31","NAN","0.0"],
    [1561552,"2026-07-01 13:50:00","14262","2.8960000000000004","117.6","5.292000000000001","114.9","1018.299","28.21","69.72","NAN","0.0"],
    [1561553,"2026-07-01 14:00:00","14263","2.875","125.6","4.475","135.8","1018.293","28.1","66.63","NAN","0.0"],
    [1561554,"2026-07-01 14:10:00","14264","2.909","126.8","4.508","114.1","1018.2130000000001","27.99","64.64","NAN","0.0"],
    [1561555,"2026-07-01 14:20:00","14265","2.641","134.6","4.704","117.8","1018.067","28.24","64.3","NAN","0.0"],
    [1561556,"2026-07-01 14:30:00","14266","2.713","140.4","4.508","136.2","1018.069","28.23","63.52","NAN","0.0"],
    [1561557,"2026-07-01 14:40:00","14267","2.524","132.7","4.279","117.5","1018.067","28.13","62.74","NAN","0.0"],
    [1561558,"2026-07-01 14:50:00","14268","2.408","131.9","4.279","117.5","1018.045","27.95","62.39","NAN","0.0"],
    [1561559,"2026-07-01 15:00:00","14269","2.2640000000000002","140.3","3.463","152.8","1018.047","27.91","61.97","NAN","0.0"],
    [1561560,"2026-07-01 15:10:00","14270","2.198","142.9","3.397","140.2","1018.0419999999999","27.87","62.33","NAN","0.0"],
    [1561561,"2026-07-01 15:20:00","14271","1.962","147.3","3.201","113.2","1018.034","27.89","62.93","NAN","0.0"],
    [1561562,"2026-07-01 15:30:00","14272","2.063","123.3","3.7889999999999997","114.9","1017.972","27.77","65.78","NAN","0.0"],
    [1561563,"2026-07-01 15:40:00","14273","2.167","128.5","3.299","113.4","1017.942","28.11","64.85","NAN","0.0"],
    [1561564,"2026-07-01 15:50:00","14274","2.7260000000000004","149.7","4.9","145.2","1017.941","27.94","65.26","NAN","0.0"],
    [1561565,"2026-07-01 16:00:00","14275","2.531","137.0","4.312","159.3","1017.8430000000001","27.78","66.5","NAN","0.0"],
    [1561566,"2026-07-01 16:10:00","14276","2.568","128.7","4.1160000000000005","113.8","1017.8480000000001","27.74","66.6","NAN","0.0"],
    [1561567,"2026-07-01 16:20:00","14277","2.3409999999999997","129.6","3.7889999999999997","118.3","1017.835","27.46","68.5","NAN","0.0"],
    [1561568,"2026-07-01 16:30:00","14278","2.475","130.8","3.7569999999999997","113.8","1017.791","27.39","69.59","NAN","0.0"],
    [1561569,"2026-07-01 16:40:00","14279","1.8430000000000002","146.4","3.071","151.1","1017.7769999999999","27.62","68.47","NAN","0.0"],
    [1561570,"2026-07-01 16:50:00","14280","2.359","128.7","3.7239999999999998","112.0","1017.6669999999999","27.61","68.22","NAN","0.0"],
    [1561571,"2026-07-01 17:00:00","14281","2.208","148.9","4.279","170.2","1017.7230000000001","27.77","67.17","NAN","0.0"],
    [1561572,"2026-07-01 17:10:00","14282","2.056","164.7","3.528","174.8","1017.7130000000001","27.42","67.79","NAN","0.0"],
    [1561573,"2026-07-01 17:20:00","14283","1.885","142.0","3.855","110.9","1017.669","27.58","67.32","NAN","0.0"],
    [1561574,"2026-07-01 17:30:00","14284","1.8780000000000001","171.1","2.875","183.7","1017.5989999999999","27.46","67.76","NAN","0.0"],
    [1561575,"2026-07-01 17:40:00","14285","1.492","166.1","2.515","138.0","1017.62","27.38","68.45","NAN","0.0"],
    [1561576,"2026-07-01 17:50:00","14286","1.7519999999999998","136.8","2.6460000000000004","148.1","1017.706","27.3","68.35","NAN","0.0"],
    [1561577,"2026-07-01 18:00:00","14287","2.008","139.2","3.43","151.8","1017.785","27.07","69.95","NAN","0.0"],
    [1561578,"2026-07-01 18:10:00","14288","1.598","139.3","2.875","109.5","1017.831","27.09","69.92","NAN","0.0"],
    [1561579,"2026-07-01 18:20:00","14289","1.295","141.2","2.5810000000000004","113.6","1017.9010000000001","26.98","69.83","NAN","0.0"],
    [1561580,"2026-07-01 18:30:00","14290","1.38","143.1","2.515","157.8","1018.023","27.02","69.58","NAN","0.0"],
    [1561581,"2026-07-01 18:40:00","14291","1.217","176.7","2.319","132.2","1018.137","27","70.1","NAN","0.0"],
    [1561582,"2026-07-01 18:50:00","14292","1.3619999999999999","195.1","2.7769999999999997","203.2","1018.289","26.84","70.22","NAN","0.0"],
    [1561583,"2026-07-01 19:00:00","14293","1.14","193.7","2.5810000000000004","181.4","1018.3810000000001","26.76","70.54","NAN","0.0"],
    [1561584,"2026-07-01 19:10:00","14294","1.5030000000000001","181.3","2.5810000000000004","173.8","1018.4889999999999","26.75","70.17","NAN","0.0"],
    [1561585,"2026-07-01 19:20:00","14295","1.36","178.2","2.45","179.6","1018.508","26.57","71.14","NAN","0.0"],
    [1561586,"2026-07-01 19:30:00","14296","1.032","188.6","1.8619999999999999","169.9","1018.563","26.62","71.11","NAN","0.0"],
    [1561587,"2026-07-01 19:40:00","14297","1.115","174.4","2.025","180.7","1018.6239999999999","26.57","71.9","NAN","0.0"],
    [1561588,"2026-07-01 19:50:00","14298","0.93","173.9","1.699","181.6","1018.812","26.59","72.01","NAN","0.0"],
    [1561589,"2026-07-01 20:00:00","14299","0.892","178.6","1.666","200.4","1018.982","26.6","72.11","NAN","0.0"],
    [1561590,"2026-07-01 20:10:00","14300","1.158","194.4","2.385","174.7","1019.064","26.51","71.33","NAN","0.0"],
    [1561591,"2026-07-01 20:20:00","14301","0.856","190.7","1.797","178.7","1019.164","26.46","70.62","NAN","0.0"],
    [1561592,"2026-07-01 20:30:00","14302","0.8540000000000001","191.7","1.699","225.1","1019.278","26.55","69.56","NAN","0.0"],
    [1561593,"2026-07-01 20:40:00","14303","0.983","189.8","1.7309999999999999","175.6","1019.328","26.55","69.6","NAN","0.0"],
    [1561594,"2026-07-01 20:50:00","14304","0.794","182.9","1.633","165.8","1019.427","26.53","69.72","NAN","0.0"],
    [1561595,"2026-07-01 21:00:00","14305","1.018","186.8","2.0909999999999997","189.2","1019.533","26.49","67.91","NAN","0.0"],
    [1561596,"2026-07-01 21:10:00","14306","0.941","180.7","1.535","176.9","1019.575","26.55","68.27","NAN","0.0"],
    [1561597,"2026-07-01 21:20:00","14307","1.207","184.5","1.9269999999999998","172.4","1019.61","26.41","69.01","NAN","0.0"],
    [1561598,"2026-07-01 21:30:00","14308","0.764","211.0","2.613","249.8","1019.575","26.43","68.4","NAN","0.0"],
    [1561599,"2026-07-01 21:40:00","14309","1.251","242.4","3.397","259.7","1019.4019999999999","26.9","64.47","NAN","0.0"],
    [1561600,"2026-07-01 21:50:00","14310","1.3259999999999998","219.5","3.201","234.6","1019.443","26.98","64.57","NAN","0.0"],
    [1561601,"2026-07-01 22:00:00","14311","0.462","189.3","1.3719999999999999","164.8","1019.505","26.7","65.65","NAN","0.0"],
    [1561602,"2026-07-01 22:10:00","14312","0.441","152.0","1.045","146.8","1019.585","26.76","65.34","NAN","0.0"],
    [1561603,"2026-07-01 22:20:00","14313","0.846","190.9","1.666","207.5","1019.617","26.57","66.16","NAN","0.0"],
    [1561604,"2026-07-01 22:30:00","14314","0.569","214.6","1.633","191.3","1019.49","26.48","65.65","NAN","0.0"],
    [1561605,"2026-07-01 22:40:00","14315","0.6509999999999999","221.5","1.699","214.1","1019.363","26.71","63.11","NAN","0.0"],
    [1561606,"2026-07-01 22:50:00","14316","1.138","249.7","2.221","246.3","1019.35","26.99","60.66","NAN","0.0"],
    [1561607,"2026-07-01 23:00:00","14317","1.168","287.5","2.548","292.7","1019.283","27.22","58.98","NAN","0.0"],
    [1561608,"2026-07-01 23:10:00","14318","0.8190000000000001","259.6","2.319","287.3","1019.313","27.19","58.23","NAN","0.0"],
    [1561609,"2026-07-01 23:20:00","14319","1.178","279.8","1.993","297.7","1019.32","27.16","57.6","NAN","0.0"],
    [1561610,"2026-07-01 23:30:00","14320","0.732","263.3","1.8619999999999999","254.8","1019.32","27.23","56.75","NAN","0.0"],
    [1561611,"2026-07-01 23:40:00","14321","0.49","188.1","0.9470000000000001","259.6","1019.326","27.12","56.86","NAN","0.0"],
    [1561612,"2026-07-01 23:50:00","14322","0.504","88.6","1.3719999999999999","59.19","1019.313","26.93","58.01","NAN","0.0"],
    [1561613,"2026-07-02 00:00:00","14323","1.29","77.47","2.0909999999999997","84.2","1019.323","26.82","60.59","NAN","0.0"],
    [1561614,"2026-07-02 00:10:00","14324","1.329","94.7","2.156","110.3","1019.326","26.65","62.95","NAN","0.0"],
    [1561615,"2026-07-02 00:20:00","14325","1.3019999999999998","105.2","2.0909999999999997","102.6","1019.2280000000001","26.44","64.6","NAN","0.0"],
    [1561616,"2026-07-02 00:30:00","14326","0.973","142.9","1.535","131.7","1019.2389999999999","26.3","65.48","NAN","0.0"],
    [1561617,"2026-07-02 00:40:00","14327","1.0290000000000001","142.8","1.7309999999999999","146.3","1019.315","26.09","66.3","NAN","0.0"],
    [1561618,"2026-07-02 00:50:00","14328","1.148","166.4","1.895","162.5","1019.308","25.94","67.95","NAN","0.0"],
    [1561619,"2026-07-02 01:00:00","14329","0.85","177.2","1.405","179.7","1019.2260000000001","25.78","67.62","NAN","0.0"],
    [1561620,"2026-07-02 01:10:00","14330","0.562","177.2","1.209","189.7","1019.193","25.64","68.14","NAN","0.0"],
    [1561621,"2026-07-02 01:20:00","14331","0.20600000000000002","191.5","0.621","175.1","1019.081","25.62","66.78","NAN","0.0"],
    [1561622,"2026-07-02 01:30:00","14332","0.526","210.9","0.98","198.2","1019.086","25.72","64.69","NAN","0.0"],
    [1561623,"2026-07-02 01:40:00","14333","0.359","185.1","0.784","180.8","1019.076","25.72","66.64","NAN","0.0"],
    [1561624,"2026-07-02 01:50:00","14334","0.42100000000000004","217.5","1.013","225.9","1019.079","25.55","65.72","NAN","0.0"],
    [1561625,"2026-07-02 02:00:00","14335","0.693","195.6","1.2409999999999999","197.0","1019.0160000000001","25.72","65.19","NAN","0.0"],
    [1561626,"2026-07-02 02:10:00","14336","1.0390000000000001","212.9","2.875","266.9","1018.9789999999999","25.84","64.28","NAN","0.0"],
    [1561627,"2026-07-02 02:20:00","14337","1.138","294.8","2.9730000000000003","261.8","1019.029","26.23","60.21","NAN","0.0"],
    [1561628,"2026-07-02 02:30:00","14338","1.153","278.6","2.8089999999999997","277.2","1019.0239999999999","26.28","59.7","NAN","0.0"],
    [1561629,"2026-07-02 02:40:00","14339","1.2919999999999998","277.6","2.548","297.8","1018.952","26.16","59.66","NAN","0.0"],
    [1561630,"2026-07-02 02:50:00","14340","0.924","268.8","2.352","296.1","1018.872","26.08","59.25","NAN","0.0"],
    [1561631,"2026-07-02 03:00:00","14341","0.8859999999999999","253.8","1.993","236.0","1018.83","26.01","57.89","NAN","0.0"],
    [1561632,"2026-07-02 03:10:00","14342","0.23800000000000002","340.4","1.078","309.8","1018.832","25.91","57.23","NAN","0.0"],
    [1561633,"2026-07-02 03:20:00","14343","0.8440000000000001","66.23","2.417","38.06","1018.834","25.95","53.88","NAN","0.0"],
    [1561634,"2026-07-02 03:30:00","14344","0.449","336.2","1.7309999999999999","354.7","1018.939","25.95","49.39","NAN","0.0"],
    [1561635,"2026-07-02 03:40:00","14345","0.242","190.4","0.7190000000000001","109.7","1018.9019999999999","25.84","50.68","NAN","0.0"],
    [1561636,"2026-07-02 03:50:00","14346","0.5660000000000001","351.8","1.5030000000000001","0.8690000000000001","1018.827","25.5","49.26","NAN","0.0"],
    [1561637,"2026-07-02 04:00:00","14347","0.8340000000000001","14.46","2.417","15.14","1018.75","25.62","46.55","NAN","0.0"],
    [1561638,"2026-07-02 04:10:00","14348","1.1179999999999999","2.202","2.8089999999999997","9.64","1018.825","25.5","45.96","NAN","0.0"],
    [1561639,"2026-07-02 04:20:00","14349","0.8759999999999999","0.852","2.7439999999999998","38.21","1018.827","25.44","45.46","NAN","0.0"],
    [1561640,"2026-07-02 04:30:00","14350","1.514","326.2","4.312","299.8","1018.825","25.49","44.4","NAN","0.0"],
    [1561641,"2026-07-02 04:40:00","14351","1.4880000000000002","346.3","4.312","292.2","1018.985","25.26","44.74","NAN","0.0"],
    [1561642,"2026-07-02 04:50:00","14352","1.482","4.954","2.9730000000000003","4.727","1019.069","25.09","45.45","NAN","0.0"],
    [1561643,"2026-07-02 05:00:00","14353","1.253","338.4","2.8089999999999997","313.8","1019.069","25.06","46.07","NAN","0.0"],
    [1561644,"2026-07-02 05:10:00","14354","1.158","319.0","3.528","304.4","1019.1239999999999","25.13","45.86","NAN","0.0"],
    [1561645,"2026-07-02 05:20:00","14355","0.858","358.4","1.829","10.66","1019.076","25.11","45.37","NAN","0.0"],
    [1561646,"2026-07-02 05:30:00","14356","0.828","301.3","2.6460000000000004","330.1","1019.076","25.28","45.07","NAN","0.0"],
    [1561647,"2026-07-02 05:40:00","14357","1.196","136.6","2.875","108.8","1019.029","25.01","46.44","NAN","0.0"],
    [1561648,"2026-07-02 05:50:00","14358","0.98","164.0","2.385","269.5","1018.997","25.36","45","NAN","0.0"],
    [1561649,"2026-07-02 06:00:00","14359","0.983","182.3","2.515","177.2","1019.064","25.08","46.43","NAN","0.0"],
    [1561650,"2026-07-02 06:10:00","14360","0.975","222.4","2.156","233.0","1019.039","25.33","45.08","NAN","0.0"],
    [1561651,"2026-07-02 06:20:00","14361","0.978","180.0","2.254","231.7","1019.1210000000001","25.45","44.36","NAN","0.0"],
    [1561652,"2026-07-02 06:30:00","14362","0.8740000000000001","191.2","1.993","193.3","1019.2669999999999","25.47","45.24","NAN","0.0"],
    [1561653,"2026-07-02 06:40:00","14363","1.023","189.1","1.797","191.5","1019.297","25.57","44.54","NAN","0.0"],
    [1561654,"2026-07-02 06:50:00","14364","0.878","173.4","1.47","164.8","1019.3789999999999","25.57","43.57","NAN","0.0"],
    [1561655,"2026-07-02 07:00:00","14365","0.882","200.4","1.699","189.1","1019.309","25.8","45.48","NAN","0.0"],
    [1561656,"2026-07-02 07:10:00","14366","0.8490000000000001","206.4","1.47","250.7","1019.298","26.13","44.52","NAN","0.0"],
    [1561657,"2026-07-02 07:20:00","14367","0.9590000000000001","176.3","1.666","194.1","1019.325","26.56","42.72","NAN","0.0"],
    [1561658,"2026-07-02 07:30:00","14368","0.7340000000000001","179.5","1.535","173.3","1019.385","26.95","40.55","NAN","0.0"],
    [1561659,"2026-07-02 07:40:00","14369","1.23","250.2","2.907","302.1","1019.439","27.15","39.37","NAN","0.0"],
    [1561660,"2026-07-02 07:50:00","14370","1.348","268.0","3.071","260.0","1019.573","27.23","38.67","NAN","0.0"],
    [1561661,"2026-07-02 08:00:00","14371","1.246","227.7","2.679","222.2","1019.684","27.73","37.49","NAN","0.0"],
    [1561662,"2026-07-02 08:10:00","14372","0.915","220.3","1.96","292.2","1019.701","28.13","36.47","NAN","0.0"],
    [1561663,"2026-07-02 08:20:00","14373","0.7170000000000001","193.0","1.829","256.8","1019.7","28.51","36.25","NAN","0.0"],
    [1561664,"2026-07-02 08:30:00","14374","1.524","145.5","2.5810000000000004","137.9","1019.712","27.34","40.65","NAN","0.0"],
    [1561665,"2026-07-02 08:40:00","14375","1.328","177.9","2.221","158.6","1019.591","27.76","40.19","NAN","0.0"],
    [1561666,"2026-07-02 08:50:00","14376","1.288","161.4","2.385","133.8","1019.5419999999999","28.17","39.77","NAN","0.0"],
    [1561667,"2026-07-02 09:00:00","14377","1.625","128.4","2.5810000000000004","143.0","1019.512","27.52","39.95","NAN","0.0"],
    [1561668,"2026-07-02 09:10:00","14378","1.6480000000000001","134.6","2.842","170.1","1019.541","28.42","37.69","NAN","0.0"],
    [1561669,"2026-07-02 09:20:00","14379","1.848","161.7","3.005","158.4","1019.4760000000001","28.08","38.07","NAN","0.0"],
    [1561670,"2026-07-02 09:30:00","14380","1.78","170.2","2.613","171.4","1019.365","28.24","38.11","NAN","0.0"],
    [1561671,"2026-07-02 09:40:00","14381","2.1430000000000002","164.7","3.103","164.3","1019.288","28.28","38.03","NAN","0.0"],
    [1561672,"2026-07-02 09:50:00","14382","1.9909999999999999","172.7","3.136","169.7","1019.336","28.48","39.29","NAN","0.0"],
    [1561673,"2026-07-02 10:00:00","14383","2.069","133.0","3.43","133.1","1019.41","28.67","40.52","NAN","0.0"],
    [1561674,"2026-07-02 10:10:00","14384","1.857","137.7","3.071","129.2","1019.362","28.67","40.08","NAN","0.0"],
    [1561675,"2026-07-02 10:20:00","14385","2.113","171.3","3.397","172.9","1019.36","29.14","38.96","NAN","0.0"],
    [1561676,"2026-07-02 10:30:00","14386","2.248","182.4","3.5610000000000004","178.0","1019.25","28.97","38.64","NAN","0.0"],
    [1561677,"2026-07-02 10:40:00","14387","2.6839999999999997","157.1","4.1160000000000005","160.4","1019.258","28.82","40.98","NAN","0.0"],
    [1561678,"2026-07-02 10:50:00","14388","2.702","178.4","4.933","176.3","1019.255","28.57","42.89","NAN","0.0"],
    [1561679,"2026-07-02 11:00:00","14389","2.947","168.3","4.573","168.7","1019.308","27.97","45.87","NAN","0.0"],
    [1561680,"2026-07-02 11:10:00","14390","2.7039999999999997","170.4","4.4430000000000005","170.5","1019.4010000000001","27.87","50.64","NAN","0.0"],
    [1561681,"2026-07-02 11:20:00","14391","3.511","178.8","5.096","184.9","1019.377","27.68","49.06","NAN","0.0"],
    [1561682,"2026-07-02 11:30:00","14392","3.826","179.0","5.978","182.3","1019.3","27.48","51.64","NAN","0.0"],
    [1561683,"2026-07-02 11:40:00","14393","3.1039999999999996","185.6","5.521","180.9","1019.294","27.68","50.52","NAN","0.0"],
    [1561684,"2026-07-02 11:50:00","14394","2.73","179.4","4.835","175.6","1019.2919999999999","27.95","49.53","NAN","0.0"],
    [1561685,"2026-07-02 12:00:00","14395","3.694","177.1","5.847","183.7","1019.3560000000001","27.5","53.28","NAN","0.0"],
    [1561686,"2026-07-02 12:10:00","14396","3.5860000000000003","175.8","5.651","181.3","1019.313","27.2","53.42","NAN","0.0"],
    [1561687,"2026-07-02 12:20:00","14397","3.875","175.5","5.912999999999999","176.7","1019.304","27.1","53.7","NAN","0.0"],
    [1561688,"2026-07-02 12:30:00","14398","3.4810000000000003","176.3","4.933","173.4","1019.297","27.21","52.63","NAN","0.0"],
    [1561689,"2026-07-02 12:40:00","14399","3.6430000000000002","179.4","5.357","172.9","1019.2360000000001","27.17","53.6","NAN","0.0"],
    [1561690,"2026-07-02 12:50:00","14400","3.531","180.2","5.031000000000001","178.3","1019.095","27.18","53.19","NAN","0.0"],
    [1561691,"2026-07-02 13:00:00","14401","3.5580000000000003","175.8","5.2589999999999995","179.1","1019.056","27.22","52.12","NAN","0.0"],
    [1561692,"2026-07-02 13:10:00","14402","3.1889999999999996","177.1","4.606","179.4","1019.046","27.35","52.79","NAN","0.0"],
    [1561693,"2026-07-02 13:20:00","14403","3.412","179.4","5.194","186.3","1019.029","27.43","51.63","NAN","0.0"],
    [1561694,"2026-07-02 13:30:00","14404","2.591","178.5","4.181","180.8","1018.9639999999999","27.79","51.26","NAN","0.0"],
    [1561695,"2026-07-02 13:40:00","14405","2.815","181.7","4.377","180.4","1019.023","28.09","50.61","NAN","0.0"],
    [1561696,"2026-07-02 13:50:00","14406","2.718","182.5","4.802","177.3","1018.904","27.88","51.86","NAN","0.0"],
    [1561697,"2026-07-02 14:00:00","14407","3.091","178.3","4.638999999999999","175.9","1018.813","27.63","52.56","NAN","0.0"],
    [1561698,"2026-07-02 14:10:00","14408","2.8689999999999998","172.1","4.1160000000000005","180.7","1018.804","27.51","55.8","NAN","0.0"],
    [1561699,"2026-07-02 14:20:00","14409","2.697","171.5","4.377","171.7","1018.791","27.69","54.03","NAN","0.0"],
    [1561700,"2026-07-02 14:30:00","14410","2.4730000000000003","174.8","3.7569999999999997","150.5","1018.62","27.9","52.81","NAN","0.0"],
    [1561701,"2026-07-02 14:40:00","14411","2.843","175.9","4.083","187.0","1018.5039999999999","27.66","53.88","NAN","0.0"],
    [1561702,"2026-07-02 14:50:00","14412","2.474","174.5","4.279","182.7","1018.422","27.76","53.4","NAN","0.0"],
    [1561703,"2026-07-02 15:00:00","14413","3.133","174.6","4.998","173.8","1018.332","27.92","51.73","NAN","0.0"],
    [1561704,"2026-07-02 15:10:00","14414","3.029","170.4","4.737","177.4","1018.378","27.87","51.04","NAN","0.0"],
    [1561705,"2026-07-02 15:20:00","14415","2.877","173.0","4.2139999999999995","174.8","1018.3910000000001","27.89","50.93","NAN","0.0"],
    [1561706,"2026-07-02 15:30:00","14416","2.638","171.0","4.083","177.6","1018.409","28.03","51.98","NAN","0.0"],
    [1561707,"2026-07-02 15:40:00","14417","2.895","168.6","4.638999999999999","176.7","1018.295","28.32","46.98","NAN","0.0"],
    [1561708,"2026-07-02 15:50:00","14418","2.822","174.0","4.737","177.7","1018.297","28.22","45.91","NAN","0.0"],
    [1561709,"2026-07-02 16:00:00","14419","2.7939999999999996","170.1","4.279","175.8","1018.237","28.52","46.88","NAN","0.0"],
    [1561710,"2026-07-02 16:10:00","14420","2.825","169.8","3.887","171.0","1018.064","28.26","51.24","NAN","0.0"],
    [1561711,"2026-07-02 16:20:00","14421","2.841","165.3","4.2139999999999995","155.2","1018.048","28.22","53.89","NAN","0.0"],
    [1561712,"2026-07-02 16:30:00","14422","2.925","166.2","4.867","173.8","1018.038","28.11","56.48","NAN","0.0"],
    [1561713,"2026-07-02 16:40:00","14423","3.089","169.3","4.345","183.3","1018.051","27.87","58.75","NAN","0.0"],
    [1561714,"2026-07-02 16:50:00","14424","3.2239999999999998","168.3","5.422999999999999","173.5","1018.0980000000001","27.87","58.45","NAN","0.0"],
    [1561715,"2026-07-02 17:00:00","14425","3.53","172.6","5.521","180.3","1018.184","27.46","60.56","NAN","0.0"],
    [1561716,"2026-07-02 17:10:00","14426","3.0839999999999996","169.3","4.802","168.8","1018.1139999999999","27.68","60.42","NAN","0.0"],
    [1561717,"2026-07-02 17:20:00","14427","2.926","168.0","4.377","177.3","1018.1239999999999","28.01","58.23","NAN","0.0"],
    [1561718,"2026-07-02 17:30:00","14428","3.3560000000000003","169.8","4.769","177.1","1018.311","27.65","58.47","NAN","0.0"],
    [1561719,"2026-07-02 17:40:00","14429","3.266","173.2","4.802","178.1","1018.324","27.43","58.65","NAN","0.0"],
    [1561720,"2026-07-02 17:50:00","14430","2.351","184.6","4.737","177.4","1018.35","27.5","56.59","NAN","0.0"],
    [1561721,"2026-07-02 18:00:00","14431","1.5319999999999998","188.1","3.136","205.7","1018.372","28.26","51.63","NAN","0.0"],
    [1561722,"2026-07-02 18:10:00","14432","1.946","181.1","3.332","173.2","1018.4760000000001","28.32","49.53","NAN","0.0"],
    [1561723,"2026-07-02 18:20:00","14433","1.624","203.5","3.234","197.2","1018.58","28.46","46.47","NAN","0.0"],
    [1561724,"2026-07-02 18:30:00","14434","1.673","195.5","3.43","217.4","1018.666","28.57","46.79","NAN","0.0"],
    [1561725,"2026-07-02 18:40:00","14435","1.263","205.5","3.855","215.0","1018.643","28.33","49.55","NAN","0.0"],
    [1561726,"2026-07-02 18:50:00","14436","1.604","213.8","3.005","211.7","1018.68","28.48","47.18","NAN","0.0"],
    [1561727,"2026-07-02 19:00:00","14437","1.517","206.4","4.345","197.9","1018.817","28.26","48.59","NAN","0.0"],
    [1561728,"2026-07-02 19:10:00","14438","1.536","223.7","3.6260000000000003","229.1","1018.823","28.2","50.34","NAN","0.0"],
    [1561729,"2026-07-02 19:20:00","14439","1.59","215.0","3.365","190.8","1018.952","28.06","50.02","NAN","0.0"],
    [1561730,"2026-07-02 19:30:00","14440","2.043","224.4","3.659","233.3","1019.071","27.9","50.41","NAN","0.0"],
    [1561731,"2026-07-02 19:40:00","14441","1.115","218.6","3.528","206.6","1018.9639999999999","27.72","51.97","NAN","0.0"],
    [1561732,"2026-07-02 19:50:00","14442","1.403","215.4","3.463","200.0","1019.059","27.62","52.51","NAN","0.0"],
    [1561733,"2026-07-02 20:00:00","14443","1.314","208.4","2.94","212.9","1019.071","27.41","50.91","NAN","0.0"],
    [1561734,"2026-07-02 20:10:00","14444","1.254","201.3","2.45","196.9","1019.1489999999999","27.19","52.66","NAN","0.0"],
    [1561735,"2026-07-02 20:20:00","14445","1.1909999999999998","206.5","2.5810000000000004","211.3","1019.209","27.26","51.71","NAN","0.0"],
    [1561736,"2026-07-02 20:30:00","14446","1.037","217.5","3.332","206.9","1019.318","27.37","52.12","NAN","0.0"],
    [1561737,"2026-07-02 20:40:00","14447","1.2790000000000001","237.8","3.201","225.8","1019.328","27.6","50.4","NAN","0.0"],
    [1561738,"2026-07-02 20:50:00","14448","1.22","259.4","3.5610000000000004","256.6","1019.415","27.78","49.01","NAN","0.0"],
    [1561739,"2026-07-02 21:00:00","14449","1.682","255.6","3.495","278.0","1019.45","27.8","47.55","NAN","0.0"],
    [1561740,"2026-07-02 21:10:00","14450","0.9570000000000001","250.9","2.0909999999999997","238.4","1019.51","27.86","47.35","NAN","0.0"],
    [1561741,"2026-07-02 21:20:00","14451","0.9229999999999999","266.8","2.0909999999999997","331.8","1019.572","28.05","49.57","NAN","0.0"],
    [1561742,"2026-07-02 21:30:00","14452","0.892","279.1","2.189","279.1","1019.615","28.09","49.86","NAN","0.0"],
    [1561743,"2026-07-02 21:40:00","14453","1.005","271.4","2.319","252.0","1019.654","28.19","47.42","NAN","0.0"],
    [1561744,"2026-07-02 21:50:00","14454","0.635","254.0","1.7309999999999999","258.2","1019.575","28.35","45.41","NAN","0.0"],
    [1561745,"2026-07-02 22:00:00","14455","0.44299999999999995","223.2","1.993","251.2","1019.687","28.38","43.71","NAN","0.0"],
    [1561746,"2026-07-02 22:10:00","14456","0.43","168.9","0.8170000000000001","220.7","1019.7710000000001","27.96","48.4","NAN","0.0"],
    [1561747,"2026-07-02 22:20:00","14457","0.7040000000000001","241.0","2.319","253.2","1019.809","27.49","45.35","NAN","0.0"],
    [1561748,"2026-07-02 22:30:00","14458","0.8590000000000001","252.0","2.319","239.4","1019.8889999999999","28.31","38.26","NAN","0.0"],
    [1561749,"2026-07-02 22:40:00","14459","1.056","261.7","2.6460000000000004","312.7","1019.953","28.3","37.89","NAN","0.0"],
    [1561750,"2026-07-02 22:50:00","14460","1.033","313.9","2.8089999999999997","313.1","1019.951","28.43","36.47","NAN","0.0"],
    [1561751,"2026-07-02 23:00:00","14461","0.8640000000000001","322.3","2.189","290.0","1020.023","28.31","36.47","NAN","0.0"],
    [1561752,"2026-07-02 23:10:00","14462","1.063","269.2","3.6260000000000003","294.3","1020.073","28.21","36.59","NAN","0.0"],
    [1561753,"2026-07-02 23:20:00","14463","0.7759999999999999","283.2","2.417","298.2","1020.073","28.21","36.06","NAN","0.0"],
    [1561754,"2026-07-02 23:30:00","14464","0.22399999999999998","283.4","1.601","289.7","1020.073","28.2","35.68","NAN","0.0"],
    [1561755,"2026-07-02 23:40:00","14465","0.78","258.8","2.221","278.6","1019.9960000000001","28.1","35.46","NAN","0.0"],
    [1561756,"2026-07-02 23:50:00","14466","0.535","244.4","2.189","267.2","1019.923","28.08","35.14","NAN","0.0"],
    [1561757,"2026-07-03 00:00:00","14467","0.7290000000000001","254.8","2.548","263.5","1019.804","28.04","35.1","NAN","0.0"],
    [1561758,"2026-07-03 00:10:00","14468","0.654","318.3","2.0580000000000003","313.6","1019.7589999999999","28.23","34.42","NAN","0.0"],
    [1561759,"2026-07-03 00:20:00","14469","0.537","357.6","1.633","30.57","1019.806","28","34.62","NAN","0.0"],
    [1561760,"2026-07-03 00:30:00","14470","0.7290000000000001","272.9","1.96","283.4","1019.707","27.98","34","NAN","0.0"],
    [1561761,"2026-07-03 00:40:00","14471","0.978","269.6","2.417","251.2","1019.659","28","34.26","NAN","0.0"],
    [1561762,"2026-07-03 00:50:00","14472","0.579","274.7","1.993","312.7","1019.61","27.84","35.39","NAN","0.0"],
    [1561763,"2026-07-03 01:00:00","14473","0.976","254.1","2.5810000000000004","281.1","1019.555","27.68","36.02","NAN","0.0"],
    [1561764,"2026-07-03 01:10:00","14474","0.503","277.7","2.9730000000000003","293.2","1019.455","27.75","35.63","NAN","0.0"],
    [1561765,"2026-07-03 01:20:00","14475","0.623","298.5","1.8619999999999999","324.2","1019.46","27.82","35.29","NAN","0.0"],
    [1561766,"2026-07-03 01:30:00","14476","0.76","268.7","2.319","267.0","1019.438","27.85","35.5","NAN","0.0"],
    [1561767,"2026-07-03 01:40:00","14477","0.831","263.9","2.189","269.2","1019.378","27.77","36.14","NAN","0.0"],
    [1561768,"2026-07-03 01:50:00","14478","0.47200000000000003","272.0","1.797","317.7","1019.3330000000001","27.72","36.31","NAN","0.0"],
    [1561769,"2026-07-03 02:00:00","14479","1.137","273.9","3.201","255.4","1019.363","27.8","36.35","NAN","0.0"],
    [1561770,"2026-07-03 02:10:00","14480","1.254","258.5","2.907","287.9","1019.328","27.68","37.13","NAN","0.0"],
    [1561771,"2026-07-03 02:20:00","14481","0.462","297.3","2.352","285.9","1019.326","27.57","37.54","NAN","0.0"],
    [1561772,"2026-07-03 02:30:00","14482","0.736","315.4","1.797","292.5","1019.326","27.59","37.62","NAN","0.0"],
    [1561773,"2026-07-03 02:40:00","14483","0.449","208.9","0.9470000000000001","303.0","1019.326","27.16","44.08","NAN","0.0"],
    [1561774,"2026-07-03 02:50:00","14484","1.0190000000000001","102.4","1.699","109.6","1019.326","25.94","54.66","NAN","0.0"],
    [1561775,"2026-07-03 03:00:00","14485","0.777","109.6","1.535","114.8","1019.326","25.88","52.57","NAN","0.0"],
    [1561776,"2026-07-03 03:10:00","14486","0.162","59.52","0.555","44.26","1019.326","25.75","53.41","NAN","0.0"],
    [1561777,"2026-07-03 03:20:00","14487","0.517","43.96","1.666","27.61","1019.323","25.66","48.93","NAN","0.0"],
    [1561778,"2026-07-03 03:30:00","14488","0.498","75.5","1.176","92.0","1019.326","25.54","47.73","NAN","0.0"],
    [1561779,"2026-07-03 03:40:00","14489","0.10099999999999999","154.3","0.621","161.4","1019.326","25.57","48.17","NAN","0.0"],
    [1561780,"2026-07-03 03:50:00","14490","0.157","194.6","0.8490000000000001","205.5","1019.326","25.5","51.61","NAN","0.0"],
    [1561781,"2026-07-03 04:00:00","14491","0.39","135.5","1.078","95.0","1019.4110000000001","25.24","53.86","NAN","0.0"],
    [1561782,"2026-07-03 04:10:00","14492","1.2819999999999998","45.64","2.907","27.07","1019.5169999999999","25.02","48.33","NAN","0.0"],
    [1561783,"2026-07-03 04:20:00","14493","0.889","5.341","1.9269999999999998","22.45","1019.577","24.92","47.54","NAN","0.0"],
    [1561784,"2026-07-03 04:30:00","14494","0.733","358.9","1.8619999999999999","7.6","1019.6669999999999","24.99","47.4","NAN","0.0"],
    [1561785,"2026-07-03 04:40:00","14495","0.629","23.44","1.47","2.467","1019.7589999999999","24.93","47.8","NAN","0.0"],
    [1561786,"2026-07-03 04:50:00","14496","0.731","21.95","2.123","13.55","1019.826","24.82","48.17","NAN","0.0"],
    [1561787,"2026-07-03 05:00:00","14497","1.334","29.33","2.94","55.66","1019.8660000000001","24.99","47.65","NAN","0.0"],
    [1561788,"2026-07-03 05:10:00","14498","0.698","19.82","1.9269999999999998","16.95","1019.961","25.04","47.59","NAN","0.0"],
    [1561789,"2026-07-03 05:20:00","14499","0.9390000000000001","38.69","2.45","38.22","1020.075","25.53","46.25","NAN","0.0"],
    [1561790,"2026-07-03 05:30:00","14500","0.991","55.27","2.385","45.4","1020.153","25.58","46.13","NAN","0.0"],
    [1561791,"2026-07-03 05:40:00","14501","0.769","62.32","1.4369999999999998","62.22","1020.222","25.54","46.23","NAN","0.0"],
    [1561792,"2026-07-03 05:50:00","14502","0.7290000000000001","48.49","1.699","32.97","1020.31","25.93","45.3","NAN","0.0"],
    [1561793,"2026-07-03 06:00:00","14503","0.868","22.0","2.156","25.81","1020.425","26.09","45.23","NAN","0.0"],
    [1561794,"2026-07-03 06:10:00","14504","1.297","11.93","2.6460000000000004","356.8","1020.523","26.39","45.06","NAN","0.0"],
    [1561795,"2026-07-03 06:20:00","14505","1.617","7.002999999999999","3.593","11.12","1020.6239999999999","26.46","46.99","NAN","0.0"],
    [1561796,"2026-07-03 06:30:00","14506","1.5519999999999998","11.95","3.201","13.49","1020.699","26.79","47.14","NAN","0.0"],
    [1561797,"2026-07-03 06:40:00","14507","1.227","31.05","2.417","49.51","1020.77","27.25","45.99","NAN","0.0"],
    [1561798,"2026-07-03 06:50:00","14508","1.064","11.99","2.417","356.8","1020.7669999999999","27.5","44.96","NAN","0.0"],
    [1561799,"2026-07-03 07:00:00","14509","1.105","25.22","2.123","70.69","1020.748","27.76","44.04","NAN","0.0"],
    [1561800,"2026-07-03 07:10:00","14510","0.752","22.58","2.156","59.78","1020.7760000000001","28.36","42.97","NAN","0.0"],
    [1561801,"2026-07-03 07:20:00","14511","0.591","77.91","1.9269999999999998","49.39","1020.985","28.63","43.51","NAN","0.0"],
    [1561802,"2026-07-03 07:30:00","14512","0.8540000000000001","116.9","2.0909999999999997","113.9","1020.9780000000001","28.63","45.21","NAN","0.0"],
    [1561803,"2026-07-03 07:40:00","14513","1.29","146.4","2.417","148.1","1021.138","28.39","48.33","NAN","0.0"],
    [1561804,"2026-07-03 07:50:00","14514","1.401","128.7","2.94","108.0","1021.188","28.15","50.12","NAN","0.0"],
    [1561805,"2026-07-03 08:00:00","14515","1.6130000000000002","151.2","2.515","161.3","1021.238","28.29","49.49","NAN","0.0"],
    [1561806,"2026-07-03 08:10:00","14516","1.79","152.9","2.842","164.1","1021.24","28.21","50.65","NAN","0.0"],
    [1561807,"2026-07-03 08:20:00","14517","1.757","124.6","2.613","122.3","1021.2310000000001","28.2","51.22","NAN","0.0"],
    [1561808,"2026-07-03 08:30:00","14518","1.704","130.4","3.0380000000000003","118.5","1021.216","28.33","51.96","NAN","0.0"],
    [1561809,"2026-07-03 08:40:00","14519","2.049","172.9","3.234","148.0","1021.2260000000001","28.26","52.36","NAN","0.0"],
    [1561810,"2026-07-03 08:50:00","14520","2.458","176.2","4.508","177.6","1021.306","28.21","54.58","NAN","0.0"],
    [1561811,"2026-07-03 09:00:00","14521","2.7910000000000004","180.5","4.606","171.4","1021.3939999999999","27.99","59.14","NAN","0.0"],
    [1561812,"2026-07-03 09:10:00","14522","3.341","179.0","5.096","190.6","1021.47","27.75","61.02","NAN","0.0"],
    [1561813,"2026-07-03 09:20:00","14523","3.237","174.3","4.965","180.5","1021.5889999999999","27.52","61.2","NAN","0.0"],
    [1561814,"2026-07-03 09:30:00","14524","3.1489999999999996","178.4","5.129","179.8","1021.565","27.75","61.77","NAN","0.0"],
    [1561815,"2026-07-03 09:40:00","14525","3.2960000000000003","176.7","6.0760000000000005","180.4","1021.5930000000001","27.86","61.98","NAN","0.0"],
    [1561816,"2026-07-03 09:50:00","14526","3.154","176.0","4.9","172.1","1021.6460000000001","27.98","62.39","NAN","0.0"],
    [1561817,"2026-07-03 10:00:00","14527","3.4419999999999997","175.5","5.782","180.7","1021.653","28","63.1","NAN","0.0"],
    [1561818,"2026-07-03 10:10:00","14528","2.792","190.7","5.651","169.6","1021.7489999999999","28.49","62.75","NAN","0.0"],
    [1561819,"2026-07-03 10:20:00","14529","2.6430000000000002","200.0","4.638999999999999","196.1","1021.753","28.73","61.58","NAN","0.0"],
    [1561820,"2026-07-03 10:30:00","14530","2.887","189.5","5.782","175.8","1021.7180000000001","28.65","61.47","NAN","0.0"],
    [1561821,"2026-07-03 10:40:00","14531","3.386","186.0","6.893","172.2","1021.679","28.05","63.39","NAN","0.0"],
    [1561822,"2026-07-03 10:50:00","14532","3.174","185.9","5.521","204.3","1021.72","28.42","62.1","NAN","0.0"],
    [1561823,"2026-07-03 11:00:00","14533","2.725","191.3","5.292000000000001","182.5","1021.7560000000001","28.61","61.2","NAN","0.0"],
    [1561824,"2026-07-03 11:10:00","14534","2.911","180.7","5.684","176.1","1021.7610000000001","28.53","60.94","NAN","0.0"],
    [1561825,"2026-07-03 11:20:00","14535","3.202","182.0","5.7170000000000005","187.2","1021.804","28.63","60.87","NAN","0.0"],
    [1561826,"2026-07-03 11:30:00","14536","2.94","180.4","4.802","185.0","1021.85","28.65","60.89","NAN","0.0"],
    [1561827,"2026-07-03 11:40:00","14537","2.91","182.4","5.4879999999999995","169.2","1021.773","28.67","60.07","NAN","0.0"],
    [1561828,"2026-07-03 11:50:00","14538","2.8480000000000003","183.5","6.305","175.1","1021.755","28.81","60.42","NAN","0.0"],
    [1561829,"2026-07-03 12:00:00","14539","2.5660000000000003","189.3","5.7170000000000005","182.8","1021.6669999999999","29.07","60.07","NAN","0.0"],
    [1561830,"2026-07-03 12:10:00","14540","2.522","189.9","4.998","181.4","1021.6389999999999","29.35","59.63","NAN","0.0"],
    [1561831,"2026-07-03 12:20:00","14541","2.5789999999999997","185.1","5.129","176.6","1021.65","29.33","59.27","NAN","0.0"],
    [1561832,"2026-07-03 12:30:00","14542","2.56","192.3","4.965","204.8","1021.561","29.19","59.7","NAN","0.0"],
    [1561833,"2026-07-03 12:40:00","14543","3.091","184.3","5.39","181.6","1021.446","29.05","59.4","NAN","0.0"],
    [1561834,"2026-07-03 12:50:00","14544","2.707","191.1","5.39","180.7","1021.385","29.12","59.52","NAN","0.0"],
    [1561835,"2026-07-03 13:00:00","14545","2.708","189.3","5.031000000000001","191.9","1021.372","29.05","59.34","NAN","0.0"],
    [1561836,"2026-07-03 13:10:00","14546","3.2230000000000003","186.7","6.827000000000001","149.8","1021.33","28.91","59.56","NAN","0.0"],
    [1561837,"2026-07-03 13:20:00","14547","2.952","186.9","5.325","208.5","1021.336","28.76","60.33","NAN","0.0"],
    [1561838,"2026-07-03 13:30:00","14548","3.197","184.5","5.7170000000000005","184.3","1021.248","28.74","59.7","NAN","0.0"],
    [1561839,"2026-07-03 13:40:00","14549","2.4419999999999997","187.0","4.704","185.8","1021.273","29.07","59.37","NAN","0.0"],
    [1561840,"2026-07-03 13:50:00","14550","3.1460000000000004","184.0","6.664","166.4","1021.253","28.8","59.78","NAN","0.0"],
    [1561841,"2026-07-03 14:00:00","14551","3.398","185.1","6.272","172.7","1021.2130000000001","28.53","59.88","NAN","0.0"],
    [1561842,"2026-07-03 14:10:00","14552","3.435","185.5","7.023","181.8","1021.0889999999999","28.42","58.92","NAN","0.0"],
    [1561843,"2026-07-03 14:20:00","14553","3.2889999999999997","181.3","6.37","158.8","1021.012","28.68","58.06","NAN","0.0"],
    [1561844,"2026-07-03 14:30:00","14554","2.785","190.7","6.468","164.2","1021.007","28.92","56.43","NAN","0.0"],
    [1561845,"2026-07-03 14:40:00","14555","2.39","191.1","4.4430000000000005","182.5","1020.9989999999999","28.95","55.61","NAN","0.0"],
    [1561846,"2026-07-03 14:50:00","14556","2.496","191.9","6.141","210.8","1020.959","29.46","52.34","NAN","0.0"],
    [1561847,"2026-07-03 15:00:00","14557","1.889","196.2","4.769","174.9","1020.99","29.37","52.18","NAN","0.0"],
    [1561848,"2026-07-03 15:10:00","14558","2.645","213.6","6.664","183.3","1020.916","29.88","49.94","NAN","0.0"],
    [1561849,"2026-07-03 15:20:00","14559","2.187","206.1","4.933","175.3","1020.785","29.61","51.38","NAN","0.0"],
    [1561850,"2026-07-03 15:30:00","14560","2.373","203.6","5.227","199.2","1020.745","29.77","49.5","NAN","0.0"],
    [1561851,"2026-07-03 15:40:00","14561","2.778","201.4","6.239","199.4","1020.74","29.36","50.09","NAN","0.0"],
    [1561852,"2026-07-03 15:50:00","14562","3.032","182.9","4.998","189.0","1020.704","28.85","52.97","NAN","0.0"],
    [1561853,"2026-07-03 16:00:00","14563","3.219","179.6","6.1739999999999995","172.7","1020.638","28.29","54.48","NAN","0.0"],
    [1561854,"2026-07-03 16:10:00","14564","2.89","177.7","4.835","175.3","1020.6669999999999","28.22","53.56","NAN","0.0"],
    [1561855,"2026-07-03 16:20:00","14565","2.923","180.3","5.782","171.0","1020.6460000000001","28.26","53.93","NAN","0.0"],
    [1561856,"2026-07-03 16:30:00","14566","2.9410000000000003","175.7","4.933","167.9","1020.6039999999999","27.89","57.02","NAN","0.0"],
    [1561857,"2026-07-03 16:40:00","14567","2.246","183.2","4.4430000000000005","168.1","1020.5360000000001","28.06","54.91","NAN","0.0"],
    [1561858,"2026-07-03 16:50:00","14568","1.962","197.6","5.553","169.8","1020.6","28.47","51.94","NAN","0.0"],
    [1561859,"2026-07-03 17:00:00","14569","2.1430000000000002","186.4","4.051","186.8","1020.5930000000001","28.38","50.93","NAN","0.0"],
    [1561860,"2026-07-03 17:10:00","14570","2.89","170.4","5.357","184.3","1020.659","28.22","53.77","NAN","0.0"],
    [1561861,"2026-07-03 17:20:00","14571","3.6189999999999998","171.6","5.521","178.7","1020.681","27.42","59.88","NAN","0.0"],
    [1561862,"2026-07-03 17:30:00","14572","3.022","174.7","5.063","179.0","1020.7869999999999","27.23","61.57","NAN","0.0"],
    [1561863,"2026-07-03 17:40:00","14573","2.917","177.4","4.965","176.5","1020.813","27.32","60.89","NAN","0.0"],
    [1561864,"2026-07-03 17:50:00","14574","1.9069999999999998","195.0","4.279","204.6","1020.9689999999999","27.72","56.87","NAN","0.0"],
    [1561865,"2026-07-03 18:00:00","14575","2.491","193.3","4.835","181.1","1021.082","27.91","54.73","NAN","0.0"],
    [1561866,"2026-07-03 18:10:00","14576","2.003","201.2","5.227","211.7","1021.1569999999999","27.9","53.61","NAN","0.0"],
    [1561867,"2026-07-03 18:20:00","14577","2.173","197.5","4.051","193.7","1021.215","27.7","54.36","NAN","0.0"],
    [1561868,"2026-07-03 18:30:00","14578","2.039","205.5","4.998","202.4","1021.304","27.67","54.62","NAN","0.0"],
    [1561869,"2026-07-03 18:40:00","14579","1.945","211.0","4.247","242.6","1021.326","27.55","54.9","NAN","0.0"],
    [1561870,"2026-07-03 18:50:00","14580","2.113","214.3","4.965","209.0","1021.423","27.42","55.84","NAN","0.0"],
    [1561871,"2026-07-03 19:00:00","14581","1.686","210.1","3.92","205.1","1021.443","27.5","56.85","NAN","0.0"],
    [1561872,"2026-07-03 19:10:00","14582","1.436","209.9","3.887","199.9","1021.558","27.2","58.81","NAN","0.0"],
    [1561873,"2026-07-03 19:20:00","14583","1.591","199.0","3.201","194.6","1021.665","26.98","61.24","NAN","0.0"],
    [1561874,"2026-07-03 19:30:00","14584","1.2670000000000001","227.7","2.6460000000000004","256.9","1021.745","27.14","60.26","NAN","0.0"],
    [1561875,"2026-07-03 19:40:00","14585","0.9159999999999999","211.4","2.515","214.5","1021.815","27.17","60.34","NAN","0.0"],
    [1561876,"2026-07-03 19:50:00","14586","1.158","209.7","3.071","228.2","1021.8539999999999","27.04","59.76","NAN","0.0"],
    [1561877,"2026-07-03 20:00:00","14587","1.3419999999999999","205.4","3.005","209.7","1022.0139999999999","27.09","57.45","NAN","0.0"],
    [1561878,"2026-07-03 20:10:00","14588","1.149","219.8","3.985","232.1","1022.1610000000001","27.06","57.56","NAN","0.0"],
    [1561879,"2026-07-03 20:20:00","14589","0.685","221.8","2.385","197.7","1022.31","27.07","58.48","NAN","0.0"],
    [1561880,"2026-07-03 20:30:00","14590","1.2109999999999999","223.4","2.842","230.5","1022.365","26.99","58.25","NAN","0.0"],
    [1561881,"2026-07-03 20:40:00","14591","1.155","220.6","3.299","260.4","1022.552","27.09","58.33","NAN","0.0"],
    [1561882,"2026-07-03 20:50:00","14592","1.4969999999999999","242.9","4.475","249.7","1022.7239999999999","27","58.87","NAN","0.0"],
    [1561883,"2026-07-03 21:00:00","14593","0.8170000000000001","225.2","2.515","250.3","1022.784","27.15","58.87","NAN","0.0"],
    [1561884,"2026-07-03 21:10:00","14594","0.878","233.5","3.234","258.4","1022.814","26.99","60.02","NAN","0.0"],
    [1561885,"2026-07-03 21:20:00","14595","1.4069999999999998","235.3","3.463","274.4","1022.814","27","59.42","NAN","0.0"],
    [1561886,"2026-07-03 21:30:00","14596","1.839","243.5","5.031000000000001","231.3","1022.814","26.94","58.31","NAN","0.0"],
    [1561887,"2026-07-03 21:40:00","14597","1.7209999999999999","243.7","4.9","224.4","1022.779","27.07","55.8","NAN","0.0"],
    [1561888,"2026-07-03 21:50:00","14598","1.104","243.0","4.051","244.5","1022.7860000000001","27.25","53.51","NAN","0.0"],
    [1561889,"2026-07-03 22:00:00","14599","1.058","242.3","3.201","249.2","1022.801","27.42","49.23","NAN","0.0"],
    [1561890,"2026-07-03 22:10:00","14600","1.0490000000000002","235.1","2.875","247.7","1022.809","27.38","47.15","NAN","0.0"],
    [1561891,"2026-07-03 22:20:00","14601","0.687","256.2","2.352","241.2","1022.814","27.42","46.84","NAN","0.0"],
    [1561892,"2026-07-03 22:30:00","14602","0.682","282.5","2.0909999999999997","298.4","1022.814","27.63","45.08","NAN","0.0"],
    [1561893,"2026-07-03 22:40:00","14603","1.119","277.5","2.5810000000000004","292.1","1022.814","27.69","44.44","NAN","0.0"],
    [1561894,"2026-07-03 22:50:00","14604","0.9279999999999999","267.1","2.0909999999999997","278.4","1022.811","27.61","44.51","NAN","0.0"],
    [1561895,"2026-07-03 23:00:00","14605","0.662","264.8","2.156","233.2","1022.796","27.79","43.22","NAN","0.0"],
    [1561896,"2026-07-03 23:10:00","14606","0.815","273.9","2.156","292.3","1022.804","27.88","42.83","NAN","0.0"],
    [1561897,"2026-07-03 23:20:00","14607","0.757","239.6","1.7309999999999999","245.5","1022.801","27.72","43.15","NAN","0.0"],
    [1561898,"2026-07-03 23:30:00","14608","1.561","231.8","3.103","227.4","1022.691","27.48","43.39","NAN","0.0"],
    [1561899,"2026-07-03 23:40:00","14609","0.9620000000000001","250.5","2.515","269.7","1022.587","27.44","43.4","NAN","0.0"],
    [1561900,"2026-07-03 23:50:00","14610","1.24","271.0","2.548","274.7","1022.564","27.37","44.53","NAN","0.0"],
    [1561901,"2026-07-04 00:00:00","14611","1.3019999999999998","261.2","3.0380000000000003","301.4","1022.457","27.17","46.43","NAN","0.0"],
    [1561902,"2026-07-04 00:10:00","14612","1.185","257.1","3.136","235.1","1022.44","26.98","48.24","NAN","0.0"],
    [1561903,"2026-07-04 00:20:00","14613","1.3869999999999998","264.3","3.6260000000000003","262.9","1022.432","26.91","48.41","NAN","0.0"],
    [1561904,"2026-07-04 00:30:00","14614","1.033","275.7","3.071","292.7","1022.377","27.02","47.65","NAN","0.0"],
    [1561905,"2026-07-04 00:40:00","14615","0.971","260.7","2.6460000000000004","286.8","1022.315","26.98","47.96","NAN","0.0"],
    [1561906,"2026-07-04 00:50:00","14616","0.8079999999999999","255.4","2.907","280.8","1022.315","27","48.06","NAN","0.0"],
    [1561907,"2026-07-04 01:00:00","14617","0.361","203.4","1.078","258.1","1022.315","26.86","49.47","NAN","0.0"],
    [1561908,"2026-07-04 01:10:00","14618","0.594","177.0","1.143","170.3","1022.315","26.34","51.14","NAN","0.0"],
    [1561909,"2026-07-04 01:20:00","14619","0.318","158.8","0.7509999999999999","163.7","1022.315","26.29","48.88","NAN","0.0"],
    [1561910,"2026-07-04 01:30:00","14620","0.036000000000000004","95.0","0.359","107.7","1022.315","26.13","48.96","NAN","0.0"],
    [1561911,"2026-07-04 01:40:00","14621","0.0","0.0","0.0","0.0","1022.315","26.04","51.21","NAN","0.0"],
    [1561912,"2026-07-04 01:50:00","14622","0.415","193.6","0.7190000000000001","181.3","1022.315","26.18","49.63","NAN","0.0"],
    [1561913,"2026-07-04 02:00:00","14623","0.41","163.8","0.882","186.1","1022.315","25.88","52.1","NAN","0.0"],
    [1561914,"2026-07-04 02:10:00","14624","0.285","70.17","0.882","78.87","1022.315","25.84","51.48","NAN","0.0"],
    [1561915,"2026-07-04 02:20:00","14625","0.539","94.1","1.209","87.2","1022.315","25.9","55.53","NAN","0.0"],
    [1561916,"2026-07-04 02:30:00","14626","0.607","101.9","1.111","119.3","1022.315","26.01","55.56","NAN","0.0"],
    [1561917,"2026-07-04 02:40:00","14627","0.18899999999999997","107.3","0.7509999999999999","96.9","1022.315","25.85","57.49","NAN","0.0"],
    [1561918,"2026-07-04 02:50:00","14628","0.10800000000000001","149.7","0.555","174.6","1022.315","25.74","58","NAN","0.0"],
    [1561919,"2026-07-04 03:00:00","14629","0.0","0.0","0.0","0.0","1022.3","25.66","58.35","NAN","0.0"],
    [1561920,"2026-07-04 03:10:00","14630","0.324","150.7","1.013","141.2","1022.293","25.65","58.33","NAN","0.0"],
    [1561921,"2026-07-04 03:20:00","14631","0.255","139.7","1.045","136.5","1022.305","25.48","59.41","NAN","0.0"],
    [1561922,"2026-07-04 03:30:00","14632","0.161","111.5","0.588","117.8","1022.318","25.63","59.38","NAN","0.0"],
    [1561923,"2026-07-04 03:40:00","14633","0.231","75.04","0.98","58.07","1022.3380000000001","25.44","61.47","NAN","0.0"],
    [1561924,"2026-07-04 03:50:00","14634","0.28800000000000003","65.47","0.8490000000000001","86.0","1022.36","25.27","63","NAN","0.0"],
    [1561925,"2026-07-04 04:00:00","14635","0.436","81.4","0.98","98.1","1022.357","25.07","61.34","NAN","0.0"],
    [1561926,"2026-07-04 04:10:00","14636","0.063","131.1","0.555","100.7","1022.315","25.23","61.03","NAN","0.0"],
    [1561927,"2026-07-04 04:20:00","14637","0.256","97.1","1.143","50.44","1022.318","25","62.67","NAN","0.0"],
    [1561928,"2026-07-04 04:30:00","14638","0.385","50.85","1.339","62.91","1022.403","24.88","58.43","NAN","0.0"],
    [1561929,"2026-07-04 04:40:00","14639","0.816","53.21","1.797","53.53","1022.47","24.95","56.43","NAN","0.0"],
    [1561930,"2026-07-04 04:50:00","14640","0.696","45.32","1.601","57.32","1022.562","24.94","55.84","NAN","0.0"],
    [1561931,"2026-07-04 05:00:00","14641","0.804","31.61","1.8619999999999999","22.03","1022.564","24.94","55.38","NAN","0.0"],
    [1561932,"2026-07-04 05:10:00","14642","0.6709999999999999","21.22","1.4369999999999998","9.46","1022.567","24.97","54.26","NAN","0.0"],
    [1561933,"2026-07-04 05:20:00","14643","0.5539999999999999","355.9","1.176","11.06","1022.6469999999999","25.4","51.55","NAN","0.0"],
    [1561934,"2026-07-04 05:30:00","14644","0.306","27.83","1.013","1.305","1022.7639999999999","25.95","49.41","NAN","0.0"],
    [1561935,"2026-07-04 05:40:00","14645","0.301","149.6","0.588","171.4","1022.811","26.16","50.37","NAN","0.0"],
    [1561936,"2026-07-04 05:50:00","14646","0.087","89.9","0.523","101.0","1022.814","26.41","49.98","NAN","0.0"],
    [1561937,"2026-07-04 06:00:00","14647","0.43","127.3","0.8490000000000001","120.6","1022.8589999999999","26.8","48.64","NAN","0.0"],
    [1561938,"2026-07-04 06:10:00","14648","0.527","125.1","0.8170000000000001","180.1","1022.9069999999999","26.62","49.15","NAN","0.0"],
    [1561939,"2026-07-04 06:20:00","14649","0.84","186.8","1.307","175.1","1022.926","26.47","52.02","NAN","0.0"],
    [1561940,"2026-07-04 06:30:00","14650","0.525","183.6","1.111","205.6","1022.9939999999999","26.66","51.35","NAN","0.0"],
    [1561941,"2026-07-04 06:40:00","14651","0.39399999999999996","137.8","0.98","151.5","1023.028","26.87","49.58","NAN","0.0"],
    [1561942,"2026-07-04 06:50:00","14652","0.848","151.7","1.5030000000000001","139.1","1023.002","26.61","51.17","NAN","0.0"],
    [1561943,"2026-07-04 07:00:00","14653","0.617","177.1","1.405","200.2","1023.1","26.92","49.91","NAN","0.0"],
    [1561944,"2026-07-04 07:10:00","14654","0.769","109.7","1.96","29.25","1023.176","27.43","45.91","NAN","0.0"],
    [1561945,"2026-07-04 07:20:00","14655","0.843","47.79","2.483","45.13","1023.24","28.73","40.16","NAN","0.0"],
    [1561946,"2026-07-04 07:30:00","14656","0.9940000000000001","21.86","2.613","24.39","1023.2710000000001","28.88","39.59","NAN","0.0"],
    [1561947,"2026-07-04 07:40:00","14657","0.862","91.2","1.764","56.68","1023.2689999999999","29.18","40.43","NAN","0.0"],
    [1561948,"2026-07-04 07:50:00","14658","0.418","81.1","1.633","357.8","1023.3380000000001","29.7","38.33","NAN","0.0"],
    [1561949,"2026-07-04 08:00:00","14659","0.858","172.7","1.47","178.9","1023.2439999999999","29.08","44.05","NAN","0.0"],
    [1561950,"2026-07-04 08:10:00","14660","1.07","194.1","2.0909999999999997","212.2","1023.196","28.73","46.95","NAN","0.0"],
    [1561951,"2026-07-04 08:20:00","14661","1.172","154.2","2.483","112.6","1023.186","28.85","46.43","NAN","0.0"],
    [1561952,"2026-07-04 08:30:00","14662","2.497","112.9","3.6260000000000003","109.3","1023.188","28.28","45.78","NAN","0.0"],
    [1561953,"2026-07-04 08:40:00","14663","2.4819999999999998","111.4","3.5610000000000004","112.4","1023.199","27.85","46.57","NAN","0.0"],
    [1561954,"2026-07-04 08:50:00","14664","2.272","115.8","3.7239999999999998","114.7","1023.2310000000001","27.77","47.64","NAN","0.0"],
    [1561955,"2026-07-04 09:00:00","14665","2.1390000000000002","103.7","3.659","100.3","1023.238","28.26","44.84","NAN","0.0"],
    [1561956,"2026-07-04 09:10:00","14666","2.6660000000000004","114.2","3.7889999999999997","110.2","1023.2260000000001","28.27","44.87","NAN","0.0"],
    [1561957,"2026-07-04 09:20:00","14667","2.3040000000000003","110.4","3.659","104.2","1023.237","28.26","45.38","NAN","0.0"],
    [1561958,"2026-07-04 09:30:00","14668","2.47","109.0","3.6910000000000003","110.7","1023.273","28.17","45.71","NAN","0.0"],
    [1561959,"2026-07-04 09:40:00","14669","2.367","113.6","3.332","113.1","1023.293","28.04","47.71","NAN","0.0"],
    [1561960,"2026-07-04 09:50:00","14670","2.121","117.0","3.0380000000000003","101.6","1023.331","28.13","47.04","NAN","0.0"],
    [1561961,"2026-07-04 10:00:00","14671","2.03","121.9","2.907","110.2","1023.23","27.92","47.71","NAN","0.0"],
    [1561962,"2026-07-04 10:10:00","14672","2.066","128.0","3.136","122.9","1023.245","27.93","50.31","NAN","0.0"],
    [1561963,"2026-07-04 10:20:00","14673","2.035","134.4","3.397","117.1","1023.2389999999999","27.56","56.27","NAN","0.0"],
    [1561964,"2026-07-04 10:30:00","14674","2.1069999999999998","153.9","3.136","142.0","1023.2239999999999","27.64","52.47","NAN","0.0"],
    [1561965,"2026-07-04 10:40:00","14675","1.87","154.9","2.8089999999999997","153.8","1023.1460000000001","28.02","50.16","NAN","0.0"],
    [1561966,"2026-07-04 10:50:00","14676","2.081","180.0","3.397","155.8","1023.113","28.28","52.17","NAN","0.0"],
    [1561967,"2026-07-04 11:00:00","14677","2.173","168.2","3.528","174.0","1023.107","27.98","50.6","NAN","0.0"],
    [1561968,"2026-07-04 11:10:00","14678","2.472","171.0","3.92","181.8","1023.007","28.39","49.51","NAN","0.0"],
    [1561969,"2026-07-04 11:20:00","14679","2.722","168.5","3.985","173.7","1022.9789999999999","28.33","53.1","NAN","0.0"],
    [1561970,"2026-07-04 11:30:00","14680","3.176","176.6","4.998","171.3","1022.779","28.11","57.42","NAN","0.0"],
    [1561971,"2026-07-04 11:40:00","14681","3.0610000000000004","173.1","4.508","179.0","1022.721","27.91","63.23","NAN","0.0"],
    [1561972,"2026-07-04 11:50:00","14682","3.2260000000000004","167.3","4.998","162.4","1022.577","28.69","55.76","NAN","0.0"],
    [1561973,"2026-07-04 12:00:00","14683","3.444","169.2","5.4879999999999995","179.8","1022.5269999999999","28.75","57.82","NAN","0.0"],
    [1561974,"2026-07-04 12:10:00","14684","2.844","173.4","4.573","184.2","1022.472","28.64","59.6","NAN","0.0"],
    [1561975,"2026-07-04 12:20:00","14685","2.312","173.5","3.985","159.9","1022.467","29.5","52.96","NAN","0.0"],
    [1561976,"2026-07-04 12:30:00","14686","2.745","178.1","4.671","187.0","1022.291","29.58","51.41","NAN","0.0"],
    [1561977,"2026-07-04 12:40:00","14687","3.01","183.0","5.39","176.2","1022.176","29.27","52.1","NAN","0.0"],
    [1561978,"2026-07-04 12:50:00","14688","2.556","186.3","5.194","167.2","1022.049","29.54","49.77","NAN","0.0"],
    [1561979,"2026-07-04 13:00:00","14689","3.218","185.0","6.501","201.7","1021.948","29.67","46.37","NAN","0.0"],
    [1561980,"2026-07-04 13:10:00","14690","3.17","199.0","6.403","190.6","1021.78","30.18","43.08","NAN","0.0"],
    [1561981,"2026-07-04 13:20:00","14691","3.0860000000000003","193.8","5.7170000000000005","187.6","1021.637","30.42","44.33","NAN","0.0"],
    [1561982,"2026-07-04 13:30:00","14692","3.5660000000000003","194.1","7.742000000000001","183.5","1021.47","30.28","46.56","NAN","0.0"],
    [1561983,"2026-07-04 13:40:00","14693","3.155","199.9","6.664","203.8","1021.432","30.27","47.28","NAN","0.0"],
    [1561984,"2026-07-04 13:50:00","14694","3.392","204.4","7.382999999999999","200.8","1021.467","30.94","43.8","NAN","0.0"],
    [1561985,"2026-07-04 14:00:00","14695","2.8819999999999997","206.7","6.239","219.3","1021.451","31.27","43.25","NAN","0.0"],
    [1561986,"2026-07-04 14:10:00","14696","2.557","206.1","6.042999999999999","187.7","1021.3510000000001","31.52","40.98","NAN","0.0"],
    [1561987,"2026-07-04 14:20:00","14697","2.928","203.4","6.5329999999999995","204.0","1021.2410000000001","31.51","40.19","NAN","0.0"],
    [1561988,"2026-07-04 14:30:00","14698","2.7969999999999997","200.7","6.042999999999999","199.4","1021.215","31.02","41.34","NAN","0.0"],
    [1561989,"2026-07-04 14:40:00","14699","2.408","207.0","5.227","218.0","1021.21","31.5","40.19","NAN","0.0"],
    [1561990,"2026-07-04 14:50:00","14700","2.417","204.0","5.194","202.9","1021.216","31.36","41.46","NAN","0.0"],
    [1561991,"2026-07-04 15:00:00","14701","3.03","201.1","5.553","205.0","1021.204","31.06","42.36","NAN","0.0"],
    [1561992,"2026-07-04 15:10:00","14702","2.447","204.0","5.815","197.6","1021.154","31.09","43.94","NAN","0.0"],
    [1561993,"2026-07-04 15:20:00","14703","2.356","210.2","6.272","227.2","1021.1160000000001","31.21","43.24","NAN","0.0"],
    [1561994,"2026-07-04 15:30:00","14704","2.722","206.9","5.847","202.4","1021.084","31.38","42.45","NAN","0.0"],
    [1561995,"2026-07-04 15:40:00","14705","2.434","210.8","5.651","224.0","1021.0369999999999","31.37","39.66","NAN","0.0"],
    [1561996,"2026-07-04 15:50:00","14706","2.355","212.2","5.651","198.6","1021.0039999999999","31.67","38.77","NAN","0.0"],
    [1561997,"2026-07-04 16:00:00","14707","2.023","211.2","5.1610000000000005","196.5","1021.005","31.63","40.13","NAN","0.0"],
    [1561998,"2026-07-04 16:10:00","14708","1.71","210.1","5.063","208.9","1020.97","31.97","39.15","NAN","0.0"],
    [1561999,"2026-07-04 16:20:00","14709","2.787","207.8","7.415","207.4","1020.93","31.44","39.71","NAN","0.0"],
    [1562000,"2026-07-04 16:30:00","14710","2.285","218.6","5.586","289.5","1020.909","31.48","39.12","NAN","0.0"],
    [1562001,"2026-07-04 16:40:00","14711","2.123","212.4","6.207000000000001","192.9","1020.909","31.78","38.14","NAN","0.0"],
    [1562002,"2026-07-04 16:50:00","14712","2.73","206.8","5.88","213.5","1020.8480000000001","30.77","41.14","NAN","0.0"],
    [1562003,"2026-07-04 17:00:00","14713","2.127","206.0","5.521","202.0","1020.875","30.83","40.49","NAN","0.0"],
    [1562004,"2026-07-04 17:10:00","14714","2.455","205.5","5.684","210.3","1020.8939999999999","30.95","39.17","NAN","0.0"],
    [1562005,"2026-07-04 17:20:00","14715","2.56","206.3","5.978","203.1","1020.959","30.73","40.68","NAN","0.0"],
    [1562006,"2026-07-04 17:30:00","14716","1.963","207.3","4.671","190.6","1021.02","30.67","40.31","NAN","0.0"],
    [1562007,"2026-07-04 17:40:00","14717","2.582","202.7","5.847","205.9","1021.1260000000001","30.52","40.59","NAN","0.0"],
    [1562008,"2026-07-04 17:50:00","14718","2.605","208.5","6.435","221.6","1021.155","30.41","38.05","NAN","0.0"],
    [1562009,"2026-07-04 18:00:00","14719","2.5780000000000003","206.9","7.382999999999999","208.5","1021.158","30.22","38.87","NAN","0.0"],
    [1562010,"2026-07-04 18:10:00","14720","2.344","203.6","5.749","212.5","1021.235","30.04","39.08","NAN","0.0"],
    [1562011,"2026-07-04 18:20:00","14721","1.9140000000000001","211.7","5.325","205.6","1021.257","30.07","37.72","NAN","0.0"],
    [1562012,"2026-07-04 18:30:00","14722","1.624","211.1","5.194","224.6","1021.278","30.17","37.42","NAN","0.0"],
    [1562013,"2026-07-04 18:40:00","14723","1.361","213.3","4.345","223.1","1021.299","29.83","39.07","NAN","0.0"],
    [1562014,"2026-07-04 18:50:00","14724","1.686","220.4","4.279","221.1","1021.32","29.93","37.88","NAN","0.0"],
    [1562015,"2026-07-04 19:00:00","14725","1.557","221.5","4.835","249.4","1021.413","29.75","38.74","NAN","0.0"],
    [1562016,"2026-07-04 19:10:00","14726","1.8780000000000001","229.1","5.749","248.5","1021.425","29.72","38.58","NAN","0.0"],
    [1562017,"2026-07-04 19:20:00","14727","1.033","223.0","4.835","200.4","1021.443","29.51","39.5","NAN","0.0"],
    [1562018,"2026-07-04 19:30:00","14728","1.726","226.3","4.9","233.9","1021.4680000000001","29.5","39.11","NAN","0.0"],
    [1562019,"2026-07-04 19:40:00","14729","1.4609999999999999","243.7","4.312","267.7","1021.545","29.44","39.24","NAN","0.0"],
    [1562020,"2026-07-04 19:50:00","14730","1.0290000000000001","224.8","4.181","254.7","1021.57","29.54","39.24","NAN","0.0"],
    [1562021,"2026-07-04 20:00:00","14731","1.787","246.0","4.737","244.4","1021.655","29.36","39.19","NAN","0.0"],
    [1562022,"2026-07-04 20:10:00","14732","1.9369999999999998","241.3","4.41","257.9","1021.755","29.18","39.75","NAN","0.0"],
    [1562023,"2026-07-04 20:20:00","14733","1.821","244.8","4.051","237.0","1021.825","29.13","39.84","NAN","0.0"],
    [1562024,"2026-07-04 20:30:00","14734","1.723","246.1","3.7889999999999997","261.9","1021.9739999999999","29.15","39.39","NAN","0.0"],
    [1562025,"2026-07-04 20:40:00","14735","1.631","240.8","4.769","251.3","1022.054","29.21","38.29","NAN","0.0"],
    [1562026,"2026-07-04 20:50:00","14736","1.581","241.5","3.299","249.3","1022.1260000000001","29.18","37.86","NAN","0.0"],
    [1562027,"2026-07-04 21:00:00","14737","1.2930000000000001","241.1","2.679","237.4","1022.2330000000001","29.24","37.73","NAN","0.0"],
    [1562028,"2026-07-04 21:10:00","14738","0.7909999999999999","238.3","2.515","240.2","1022.273","29.37","37.37","NAN","0.0"],
    [1562029,"2026-07-04 21:20:00","14739","0.645","242.9","1.993","303.7","1022.283","29.39","36.28","NAN","0.0"],
    [1562030,"2026-07-04 21:30:00","14740","1.068","248.4","2.5810000000000004","289.3","1022.195","29.49","34.17","NAN","0.0"],
    [1562031,"2026-07-04 21:40:00","14741","1.294","240.4","2.6460000000000004","271.6","1022.096","29.44","34.04","NAN","0.0"],
    [1562032,"2026-07-04 21:50:00","14742","0.897","242.1","2.352","294.0","1022.091","29.3","34.62","NAN","0.0"],
    [1562033,"2026-07-04 22:00:00","14743","1.006","235.0","2.6460000000000004","238.6","1022.079","29.24","34.22","NAN","0.0"],
    [1562034,"2026-07-04 22:10:00","14744","0.9470000000000001","235.0","3.201","260.9","1022.19","29.22","34.36","NAN","0.0"],
    [1562035,"2026-07-04 22:20:00","14745","0.805","215.1","2.189","287.5","1022.183","28.89","36.54","NAN","0.0"],
    [1562036,"2026-07-04 22:30:00","14746","0.68","230.4","1.895","231.7","1022.166","28.69","36.76","NAN","0.0"],
    [1562037,"2026-07-04 22:40:00","14747","0.9109999999999999","252.9","2.287","314.1","1022.1110000000001","28.59","36.92","NAN","0.0"],
    [1562038,"2026-07-04 22:50:00","14748","1.357","271.9","2.9730000000000003","238.0","1022.066","29.11","34.82","NAN","0.0"],
    [1562039,"2026-07-04 23:00:00","14749","0.698","284.1","1.993","254.0","1022.064","29.23","34.7","NAN","0.0"],
    [1562040,"2026-07-04 23:10:00","14750","0.642","284.3","1.829","304.1","1022.0310000000001","29.27","34.74","NAN","0.0"],
    [1562041,"2026-07-04 23:20:00","14751","0.408","324.0","1.7309999999999999","318.9","1021.947","29.28","34.84","NAN","0.0"],
    [1562042,"2026-07-04 23:30:00","14752","0.599","321.1","2.0580000000000003","306.7","1021.9019999999999","29.03","35.52","NAN","0.0"],
    [1562043,"2026-07-04 23:40:00","14753","0.9670000000000001","281.2","2.221","263.2","1021.819","28.94","35.99","NAN","0.0"],
    [1562044,"2026-07-04 23:50:00","14754","1.005","263.7","2.123","288.0","1021.815","28.88","36.35","NAN","0.0"],
    [1562045,"2026-07-05 00:00:00","14755","1.006","262.0","2.8089999999999997","248.4","1021.747","28.84","36.55","NAN","0.0"],
    [1562046,"2026-07-05 00:10:00","14756","0.8240000000000001","257.7","1.829","262.5","1021.675","28.82","36.87","NAN","0.0"],
    [1562047,"2026-07-05 00:20:00","14757","1.189","259.2","2.548","280.1","1021.5419999999999","28.83","36.99","NAN","0.0"],
    [1562048,"2026-07-05 00:30:00","14758","0.9209999999999999","256.8","2.352","258.8","1021.4630000000001","28.68","37.71","NAN","0.0"],
    [1562049,"2026-07-05 00:40:00","14759","0.337","187.5","1.078","261.4","1021.466","28.42","39.6","NAN","0.0"],
    [1562050,"2026-07-05 00:50:00","14760","0.45799999999999996","139.2","1.078","108.9","1021.441","27.45","42.63","NAN","0.0"],
    [1562051,"2026-07-05 01:00:00","14761","0.217","135.4","0.7509999999999999","152.6","1021.3380000000001","27.03","44.1","NAN","0.0"],
    [1562052,"2026-07-05 01:10:00","14762","0.38799999999999996","114.7","1.176","118.9","1021.319","26.74","45.9","NAN","0.0"],
    [1562053,"2026-07-05 01:20:00","14763","0.133","101.2","0.621","101.6","1021.314","26.75","46.31","NAN","0.0"],
    [1562054,"2026-07-05 01:30:00","14764","0.28600000000000003","112.6","0.882","121.6","1021.2339999999999","26.67","47.62","NAN","0.0"],
    [1562055,"2026-07-05 01:40:00","14765","0.517","94.6","0.9470000000000001","122.4","1021.154","26.51","47.96","NAN","0.0"],
    [1562056,"2026-07-05 01:50:00","14766","0.473","48.54","0.98","41.39","1021.067","26.42","48.31","NAN","0.0"],
    [1562057,"2026-07-05 02:00:00","14767","0.56","58.69","1.274","52.41","1021.0219999999999","26.33","47.11","NAN","0.0"],
    [1562058,"2026-07-05 02:10:00","14768","0.139","56.62","0.621","54.22","1020.985","26.29","47.48","NAN","0.0"],
    [1562059,"2026-07-05 02:20:00","14769","0.114","39.74","0.588","23.52","1020.97","26.29","48.36","NAN","0.0"],
    [1562060,"2026-07-05 02:30:00","14770","0.196","46.76","0.7190000000000001","59.96","1020.828","26.29","47.83","NAN","0.0"],
    [1562061,"2026-07-05 02:40:00","14771","0.34700000000000003","67.59","0.882","48.79","1020.823","26.26","49.3","NAN","0.0"],
    [1562062,"2026-07-05 02:50:00","14772","0.705","48.17","1.2409999999999999","34.27","1020.82","26.1","49.9","NAN","0.0"],
    [1562063,"2026-07-05 03:00:00","14773","0.542","61.4","1.209","66.77","1020.82","26.15","50.51","NAN","0.0"],
    [1562064,"2026-07-05 03:10:00","14774","0.0","0.0","0.0","0.0","1020.808","26.19","52.32","NAN","0.0"],
    [1562065,"2026-07-05 03:20:00","14775","0.28600000000000003","194.7","1.013","196.8","1020.808","25.54","57.39","NAN","0.0"],
    [1562066,"2026-07-05 03:30:00","14776","0.7170000000000001","186.1","0.98","196.8","1020.82","25.08","61.87","NAN","0.0"],
    [1562067,"2026-07-05 03:40:00","14777","0.557","194.7","0.98","204.6","1020.82","24.85","61.54","NAN","0.0"],
    [1562068,"2026-07-05 03:50:00","14778","0.0","0.0","0.0","0.0","1020.82","25.08","58.85","NAN","0.0"],
    [1562069,"2026-07-05 04:00:00","14779","0.305","177.6","0.6859999999999999","162.5","1020.928","25.16","58.2","NAN","0.0"],
    [1562070,"2026-07-05 04:10:00","14780","0.20199999999999999","216.6","0.6859999999999999","220.1","1020.943","25.44","56.04","NAN","0.0"],
    [1562071,"2026-07-05 04:20:00","14781","0.0","0.0","0.0","0.0","1020.9580000000001","25.18","57.8","NAN","0.0"],
    [1562072,"2026-07-05 04:30:00","14782","0.0","0.0","0.0","0.0","1021.0219999999999","25.17","58.11","NAN","0.0"],
    [1562073,"2026-07-05 04:40:00","14783","0.473","136.4","1.2409999999999999","153.2","1021.07","25.3","57.62","NAN","0.0"],
    [1562074,"2026-07-05 04:50:00","14784","0.0","0.0","0.0","0.0","1021.07","25.24","60.83","NAN","0.0"],
    [1562075,"2026-07-05 05:00:00","14785","0.0","0.0","0.0","0.0","1021.07","25.3","61.35","NAN","0.0"],
    [1562076,"2026-07-05 05:10:00","14786","0.235","102.3","0.621","107.8","1021.07","25.57","60.12","NAN","0.0"],
    [1562077,"2026-07-05 05:20:00","14787","0.0","0.0","0.0","0.0","1021.077","25.94","56.76","NAN","0.0"],
    [1562078,"2026-07-05 05:30:00","14788","0.48200000000000004","138.4","1.2409999999999999","170.2","1021.237","26.09","58.78","NAN","0.0"],
    [1562079,"2026-07-05 05:40:00","14789","0.466","85.8","1.045","66.79","1021.304","26.14","57.21","NAN","0.0"],
    [1562080,"2026-07-05 05:50:00","14790","0.27899999999999997","79.69","1.045","89.8","1021.319","27","49.64","NAN","0.0"],
    [1562081,"2026-07-05 06:00:00","14791","0.11699999999999999","123.5","0.7190000000000001","63.52","1021.3710000000001","26.91","53.28","NAN","0.0"],
    [1562082,"2026-07-05 06:10:00","14792","0.225","124.3","0.555","109.8","1021.388","26.87","54.47","NAN","0.0"],
    [1562083,"2026-07-05 06:20:00","14793","0.504","190.9","1.274","200.4","1021.337","27.01","53.39","NAN","0.0"],
    [1562084,"2026-07-05 06:30:00","14794","0.9390000000000001","181.6","1.535","200.6","1021.422","27.05","54.23","NAN","0.0"],
    [1562085,"2026-07-05 06:40:00","14795","1.151","170.4","1.895","177.8","1021.431","26.6","60.57","NAN","0.0"],
    [1562086,"2026-07-05 06:50:00","14796","0.9520000000000001","164.9","1.601","156.0","1021.398","26.56","62.02","NAN","0.0"],
    [1562087,"2026-07-05 07:00:00","14797","0.7759999999999999","180.9","1.3719999999999999","178.2","1021.413","26.89","59.52","NAN","0.0"],
    [1562088,"2026-07-05 07:10:00","14798","0.7929999999999999","185.5","1.4369999999999998","190.7","1021.382","27.58","54.25","NAN","0.0"],
    [1562089,"2026-07-05 07:20:00","14799","0.905","190.9","1.666","169.5","1021.3380000000001","28.27","48.71","NAN","0.0"],
    [1562090,"2026-07-05 07:30:00","14800","0.6990000000000001","193.4","1.4369999999999998","185.6","1021.302","28.82","45.77","NAN","0.0"],
    [1562091,"2026-07-05 07:40:00","14801","1.024","192.7","2.123","198.5","1021.2660000000001","29.28","43.26","NAN","0.0"],
    [1562092,"2026-07-05 07:50:00","14802","0.87","188.4","1.797","194.9","1021.2669999999999","29.77","42.02","NAN","0.0"],
    [1562093,"2026-07-05 08:00:00","14803","0.813","182.3","1.405","182.2","1021.265","30.16","41.05","NAN","0.0"],
    [1562094,"2026-07-05 08:10:00","14804","1.225","166.2","1.764","175.2","1021.21","30.18","40.5","NAN","0.0"],
    [1562095,"2026-07-05 08:20:00","14805","1.411","159.2","2.483","146.5","1021.203","30.43","40.43","NAN","0.0"],
    [1562096,"2026-07-05 08:30:00","14806","1.276","141.4","2.189","112.7","1021.1669999999999","31.06","40.19","NAN","0.0"],
    [1562097,"2026-07-05 08:40:00","14807","1.39","134.7","2.221","118.1","1021.118","30.79","44.32","NAN","0.0"],
    [1562098,"2026-07-05 08:50:00","14808","1.6780000000000002","156.5","3.071","177.9","1021.0989999999999","30.44","47.48","NAN","0.0"],
    [1562099,"2026-07-05 09:00:00","14809","1.69","158.7","3.136","150.7","1020.9680000000001","29.8","55.11","NAN","0.0"],
    [1562100,"2026-07-05 09:10:00","14810","1.5330000000000001","163.7","2.287","151.3","1020.945","30.23","53.37","NAN","0.0"],
    [1562101,"2026-07-05 09:20:00","14811","1.6540000000000001","167.3","2.319","151.2","1020.932","30.74","50.35","NAN","0.0"],
    [1562102,"2026-07-05 09:30:00","14812","1.9409999999999998","172.5","3.136","178.5","1020.936","31.24","47.68","NAN","0.0"],
    [1562103,"2026-07-05 09:40:00","14813","1.986","171.0","3.6260000000000003","178.7","1020.932","31.27","45.3","NAN","0.0"],
    [1562104,"2026-07-05 09:50:00","14814","1.952","164.8","3.6260000000000003","150.0","1020.952","31.12","46.99","NAN","0.0"],
    [1562105,"2026-07-05 10:00:00","14815","2.255","166.4","3.397","162.8","1021.057","30.09","48.48","NAN","0.0"],
    [1562106,"2026-07-05 10:10:00","14816","2.349","168.5","3.7239999999999998","172.3","1021.123","30.51","44.08","NAN","0.0"],
    [1562107,"2026-07-05 10:20:00","14817","2.209","178.5","3.822","173.9","1021.1560000000001","30.96","41.82","NAN","0.0"],
    [1562108,"2026-07-05 10:30:00","14818","2.005","190.3","3.6260000000000003","171.2","1021.1560000000001","31.15","40.64","NAN","0.0"],
    [1562109,"2026-07-05 10:40:00","14819","1.8130000000000002","194.6","3.397","178.0","1021.0980000000001","31.75","39.17","NAN","0.0"],
    [1562110,"2026-07-05 10:50:00","14820","2.0069999999999997","198.5","3.92","211.4","1021.055","31.81","39.12","NAN","0.0"],
    [1562111,"2026-07-05 11:00:00","14821","2.003","193.7","3.7239999999999998","205.0","1020.97","31.47","40.24","NAN","0.0"],
    [1562112,"2026-07-05 11:10:00","14822","1.7819999999999998","200.5","3.855","223.0","1020.927","32.06","38.18","NAN","0.0"],
    [1562113,"2026-07-05 11:20:00","14823","2.176","195.9","3.887","188.1","1020.813","31.97","38.1","NAN","0.0"],
    [1562114,"2026-07-05 11:30:00","14824","2.352","196.9","5.194","186.9","1020.697","31.85","37.45","NAN","0.0"],
    [1562115,"2026-07-05 11:40:00","14825","2.428","200.4","5.2589999999999995","219.9","1020.612","32.19","36.7","NAN","0.0"],
    [1562116,"2026-07-05 11:50:00","14826","2.551","193.1","5.096","202.0","1020.4839999999999","31.93","36.62","NAN","0.0"],
    [1562117,"2026-07-05 12:00:00","14827","2.58","192.4","5.7170000000000005","206.8","1020.3919999999999","32.15","34.24","NAN","0.0"],
    [1562118,"2026-07-05 12:10:00","14828","2.64","194.8","5.586","210.5","1020.342","32.34","34.36","NAN","0.0"],
    [1562119,"2026-07-05 12:20:00","14829","2.4619999999999997","196.0","4.4430000000000005","202.7","1020.296","32.62","32.8","NAN","0.0"],
    [1562120,"2026-07-05 12:30:00","14830","2.935","191.9","6.305","171.9","1020.211","32.38","33.43","NAN","0.0"],
    [1562121,"2026-07-05 12:40:00","14831","3.1689999999999996","187.5","5.227","193.3","1020.143","32.09","34.3","NAN","0.0"],
    [1562122,"2026-07-05 12:50:00","14832","2.676","188.2","5.684","175.4","1020.066","32.34","34.96","NAN","0.0"],
    [1562123,"2026-07-05 13:00:00","14833","2.1719999999999997","190.2","4.737","169.9","1019.967","32.92","33.76","NAN","0.0"],
    [1562124,"2026-07-05 13:10:00","14834","2.9610000000000003","188.7","5.4879999999999995","182.8","1019.824","32.68","32.94","NAN","0.0"],
    [1562125,"2026-07-05 13:20:00","14835","2.68","193.2","6.141","187.8","1019.7360000000001","32.94","30.92","NAN","0.0"],
    [1562126,"2026-07-05 13:30:00","14836","3.221","192.1","6.1739999999999995","202.9","1019.696","33.03","28.77","NAN","0.0"],
    [1562127,"2026-07-05 13:40:00","14837","3.312","191.6","6.435","179.0","1019.64","32.81","28.02","NAN","0.0"],
    [1562128,"2026-07-05 13:50:00","14838","3.492","189.4","6.435","179.1","1019.587","32.98","28.12","NAN","0.0"],
    [1562129,"2026-07-05 14:00:00","14839","3.125","188.4","5.978","202.5","1019.477","33.04","28.47","NAN","0.0"],
    [1562130,"2026-07-05 14:10:00","14840","2.977","189.0","6.795","169.5","1019.4639999999999","33.16","28.43","NAN","0.0"],
    [1562131,"2026-07-05 14:20:00","14841","3.076","190.4","5.521","167.5","1019.35","33.13","29.94","NAN","0.0"],
    [1562132,"2026-07-05 14:30:00","14842","3.215","184.3","6.827000000000001","178.7","1019.2810000000001","32.74","32.91","NAN","0.0"],
    [1562133,"2026-07-05 14:40:00","14843","1.9680000000000002","198.0","5.357","185.0","1019.216","33.32","32.58","NAN","0.0"],
    [1562134,"2026-07-05 14:50:00","14844","3.002","183.7","6.272","176.5","1019.1669999999999","32.89","34.08","NAN","0.0"],
    [1562135,"2026-07-05 15:00:00","14845","3.2680000000000002","194.7","7.546","169.7","1018.9960000000001","32.92","31.47","NAN","0.0"],
    [1562136,"2026-07-05 15:10:00","14846","3.47","195.0","6.9910000000000005","210.9","1018.952","32.94","31.3","NAN","0.0"],
    [1562137,"2026-07-05 15:20:00","14847","3.2089999999999996","201.9","6.435","214.1","1018.94","33.59","29.49","NAN","0.0"],
    [1562138,"2026-07-05 15:30:00","14848","3.062","192.9","6.468","203.9","1018.819","32.77","34.35","NAN","0.0"],
    [1562139,"2026-07-05 15:40:00","14849","3.1489999999999996","197.5","7.6770000000000005","197.9","1018.793","32.51","34.49","NAN","0.0"],
    [1562140,"2026-07-05 15:50:00","14850","2.78","186.3","6.337000000000001","180.0","1018.7330000000001","32.24","38.09","NAN","0.0"],
    [1562141,"2026-07-05 16:00:00","14851","2.573","188.5","5.847","213.9","1018.711","31.92","40.24","NAN","0.0"],
    [1562142,"2026-07-05 16:10:00","14852","2.694","185.8","5.586","176.1","1018.648","31.52","43.83","NAN","0.0"],
    [1562143,"2026-07-05 16:20:00","14853","2.87","188.0","7.579","174.7","1018.5239999999999","31.45","42.79","NAN","0.0"],
    [1562144,"2026-07-05 16:30:00","14854","2.61","184.0","5.749","166.6","1018.507","30.93","46.47","NAN","0.0"],
    [1562145,"2026-07-05 16:40:00","14855","2.6189999999999998","191.0","5.521","228.4","1018.513","31.11","45.32","NAN","0.0"],
    [1562146,"2026-07-05 16:50:00","14856","2.8510000000000004","189.8","5.1610000000000005","182.4","1018.498","30.76","46.54","NAN","0.0"],
    [1562147,"2026-07-05 17:00:00","14857","2.32","187.8","4.149","209.1","1018.419","30.58","48.74","NAN","0.0"],
    [1562148,"2026-07-05 17:10:00","14858","2.4819999999999998","198.5","4.998","210.0","1018.427","30.97","45.11","NAN","0.0"],
    [1562149,"2026-07-05 17:20:00","14859","2.395","197.9","6.1739999999999995","213.8","1018.414","31.11","44.64","NAN","0.0"],
    [1562150,"2026-07-05 17:30:00","14860","2.168","192.2","4.41","199.6","1018.447","30.76","48.3","NAN","0.0"],
    [1562151,"2026-07-05 17:40:00","14861","3.162","172.0","5.357","175.2","1018.44","28.62","65.53","NAN","0.0"],
    [1562152,"2026-07-05 17:50:00","14862","3.435","175.6","5.586","185.0","1018.512","27.6","72.21","NAN","0.0"],
    [1562153,"2026-07-05 18:00:00","14863","1.9680000000000002","186.2","3.9530000000000003","171.9","1018.563","28.13","67.61","NAN","0.0"],
    [1562154,"2026-07-05 18:10:00","14864","1.65","201.0","3.495","194.5","1018.575","28.95","61.43","NAN","0.0"],
    [1562155,"2026-07-05 18:20:00","14865","1.905","200.9","3.92","209.7","1018.578","29.24","54.98","NAN","0.0"],
    [1562156,"2026-07-05 18:30:00","14866","1.8630000000000002","210.3","3.985","223.8","1018.5980000000001","30.18","47","NAN","0.0"],
    [1562157,"2026-07-05 18:40:00","14867","1.5530000000000002","217.7","4.247","221.0","1018.683","30.25","46.76","NAN","0.0"],
    [1562158,"2026-07-05 18:50:00","14868","1.42","215.7","3.332","232.8","1018.7139999999999","30.24","44.88","NAN","0.0"],
    [1562159,"2026-07-05 19:00:00","14869","1.609","223.5","4.247","243.2","1018.7719999999999","30.29","43.82","NAN","0.0"],
    [1562160,"2026-07-05 19:10:00","14870","1.2790000000000001","222.5","3.9530000000000003","256.2","1018.8","30.36","42.59","NAN","0.0"],
    [1562161,"2026-07-05 19:20:00","14871","1.239","225.3","3.0380000000000003","235.4","1018.827","30.21","43.52","NAN","0.0"],
    [1562162,"2026-07-05 19:30:00","14872","1.27","234.8","4.2139999999999995","258.3","1018.827","30.18","44.11","NAN","0.0"],
    [1562163,"2026-07-05 19:40:00","14873","0.7609999999999999","228.5","2.254","247.4","1018.827","30.11","45.18","NAN","0.0"],
    [1562164,"2026-07-05 19:50:00","14874","0.6779999999999999","222.6","1.993","207.7","1018.83","29.77","47.25","NAN","0.0"],
    [1562165,"2026-07-05 20:00:00","14875","0.904","238.9","3.332","233.4","1018.942","29.49","48","NAN","0.0"],
    [1562166,"2026-07-05 20:10:00","14876","0.9359999999999999","219.8","2.6460000000000004","251.2","1019.052","29.57","47.04","NAN","0.0"],
    [1562167,"2026-07-05 20:20:00","14877","0.6809999999999999","207.2","1.633","305.3","1019.1260000000001","29.17","47.85","NAN","0.0"],
    [1562168,"2026-07-05 20:30:00","14878","0.847","205.1","2.6460000000000004","248.2","1019.308","29.18","45.84","NAN","0.0"],
    [1562169,"2026-07-05 20:40:00","14879","0.703","217.1","1.699","270.3","1019.326","29.51","43.39","NAN","0.0"],
    [1562170,"2026-07-05 20:50:00","14880","0.843","205.1","1.829","216.8","1019.3330000000001","29.05","45","NAN","0.0"],
    [1562171,"2026-07-05 21:00:00","14881","0.645","197.0","1.764","206.9","1019.448","28.86","46.36","NAN","0.0"],
    [1562172,"2026-07-05 21:10:00","14882","0.9279999999999999","191.8","1.8619999999999999","189.7","1019.475","28.58","46.58","NAN","0.0"],
    [1562173,"2026-07-05 21:20:00","14883","0.882","198.4","2.123","222.0","1019.4630000000001","28.64","45.68","NAN","0.0"],
    [1562174,"2026-07-05 21:30:00","14884","0.953","225.9","2.189","256.8","1019.4630000000001","29.14","41.41","NAN","0.0"],
    [1562175,"2026-07-05 21:40:00","14885","0.708","193.5","1.405","227.2","1019.46","29.27","40.64","NAN","0.0"],
    [1562176,"2026-07-05 21:50:00","14886","0.7390000000000001","211.5","1.568","196.6","1019.453","29.15","40.41","NAN","0.0"],
    [1562177,"2026-07-05 22:00:00","14887","0.889","194.4","1.633","210.8","1019.455","28.75","41.24","NAN","0.0"],
    [1562178,"2026-07-05 22:10:00","14888","0.755","192.2","1.209","184.6","1019.453","28.52","41.67","NAN","0.0"],
    [1562179,"2026-07-05 22:20:00","14889","0.594","194.6","1.209","202.9","1019.45","28.54","42.56","NAN","0.0"],
    [1562180,"2026-07-05 22:30:00","14890","0.124","119.6","0.653","104.2","1019.4580000000001","28.74","42.66","NAN","0.0"],
    [1562181,"2026-07-05 22:40:00","14891","0.21","160.3","1.045","184.8","1019.43","28.73","40.66","NAN","0.0"],
    [1562182,"2026-07-05 22:50:00","14892","0.473","178.0","1.013","175.0","1019.378","28.83","37.29","NAN","0.0"],
    [1562183,"2026-07-05 23:00:00","14893","0.043","130.7","0.392","195.1","1019.3430000000001","28.83","36.93","NAN","0.0"],
    [1562184,"2026-07-05 23:10:00","14894","0.605","207.8","1.274","205.2","1019.323","28.7","34.71","NAN","0.0"],
    [1562185,"2026-07-05 23:20:00","14895","0.684","206.6","1.3719999999999999","198.6","1019.243","28.64","32.96","NAN","0.0"],
    [1562186,"2026-07-05 23:30:00","14896","0.8640000000000001","210.8","1.633","205.5","1019.198","28.82","31.61","NAN","0.0"],
    [1562187,"2026-07-05 23:40:00","14897","0.619","233.6","1.829","226.4","1019.084","28.94","30.72","NAN","0.0"],
    [1562188,"2026-07-05 23:50:00","14898","0.266","239.2","1.111","237.5","1019.0310000000001","29.44","29.1","NAN","0.0"],
    [1562189,"2026-07-06 00:00:00","14899","0.166","233.8","0.6859999999999999","255.0","1018.929","29.58","29.45","NAN","0.0"],
    [1562190,"2026-07-06 00:10:00","14900","0.215","192.1","1.111","215.1","1018.827","29.36","30.65","NAN","0.0"],
    [1562191,"2026-07-06 00:20:00","14901","0.5","86.3","1.143","105.2","1018.827","28.86","32.5","NAN","0.0"],
    [1562192,"2026-07-06 00:30:00","14902","0.158","80.3","1.307","82.1","1018.827","28.75","31.51","NAN","0.0"],
    [1562193,"2026-07-06 00:40:00","14903","0.034","132.2","0.327","113.2","1018.827","28.93","31.93","NAN","0.0"],
    [1562194,"2026-07-06 00:50:00","14904","0.0","0.0","0.0","0.0","1018.827","28.83","32.84","NAN","0.0"],
    [1562195,"2026-07-06 01:00:00","14905","0.08800000000000001","167.2","0.555","167.2","1018.825","28.5","34.3","NAN","0.0"],
    [1562196,"2026-07-06 01:10:00","14906","0.021","143.9","0.457","143.3","1018.802","28.2","35.16","NAN","0.0"],
    [1562197,"2026-07-06 01:20:00","14907","0.254","172.2","1.143","150.0","1018.725","28.16","35.21","NAN","0.0"],
    [1562198,"2026-07-06 01:30:00","14908","0.518","204.5","1.111","231.2","1018.6080000000001","27.88","36.66","NAN","0.0"],
    [1562199,"2026-07-06 01:40:00","14909","0.866","213.1","2.613","233.5","1018.578","28.11","36.07","NAN","0.0"],
    [1562200,"2026-07-06 01:50:00","14910","0.752","215.9","1.829","262.7","1018.578","28.32","34.23","NAN","0.0"],
    [1562201,"2026-07-06 02:00:00","14911","0.904","225.0","2.319","259.0","1018.503","28.48","33.45","NAN","0.0"],
    [1562202,"2026-07-06 02:10:00","14912","0.8220000000000001","213.8","1.601","226.3","1018.418","28.34","34.23","NAN","0.0"],
    [1562203,"2026-07-06 02:20:00","14913","0.779","211.9","1.4369999999999998","214.8","1018.329","28.19","33.94","NAN","0.0"],
    [1562204,"2026-07-06 02:30:00","14914","0.985","230.3","2.123","230.8","1018.309","28.49","31.44","NAN","0.0"],
    [1562205,"2026-07-06 02:40:00","14915","0.99","234.4","2.45","239.4","1018.2489999999999","28.87","30.36","NAN","0.0"],
    [1562206,"2026-07-06 02:50:00","14916","1.099","227.9","2.352","230.4","1018.207","28.84","30.73","NAN","0.0"],
    [1562207,"2026-07-06 03:00:00","14917","1.05","223.5","2.613","232.6","1018.1419999999999","28.66","31.53","NAN","0.0"],
    [1562208,"2026-07-06 03:10:00","14918","0.875","226.8","2.0909999999999997","218.0","1018.082","28.47","32.15","NAN","0.0"],
    [1562209,"2026-07-06 03:20:00","14919","0.35100000000000003","230.3","1.8619999999999999","255.6","1018.08","28.53","32.07","NAN","0.0"],
    [1562210,"2026-07-06 03:30:00","14920","0.462","221.4","1.143","225.1","1018.077","28.29","32.81","NAN","0.0"],
    [1562211,"2026-07-06 03:40:00","14921","0.163","219.5","1.111","237.6","1018.077","28.29","33.14","NAN","0.0"],
    [1562212,"2026-07-06 03:50:00","14922","0.066","24.67","0.523","36.63","1018.072","27.84","35.83","NAN","0.0"],
    [1562213,"2026-07-06 04:00:00","14923","0.5760000000000001","40.72","1.045","31.47","1018.082","27.53","36.63","NAN","0.0"],
    [1562214,"2026-07-06 04:10:00","14924","0.271","31.14","0.98","29.72","1018.08","27.27","38.36","NAN","0.0"],
    [1562215,"2026-07-06 04:20:00","14925","0.36700000000000005","16.61","0.915","19.34","1018.08","27.14","38.64","NAN","0.0"],
    [1562216,"2026-07-06 04:30:00","14926","0.158","18.75","0.6859999999999999","42.14","1018.105","27.33","37.74","NAN","0.0"],
    [1562217,"2026-07-06 04:40:00","14927","0.226","13.88","0.523","354.4","1018.197","27.12","38.43","NAN","0.0"],
    [1562218,"2026-07-06 04:50:00","14928","0.14300000000000002","89.3","0.621","61.75","1018.2769999999999","26.93","41.06","NAN","0.0"],
    [1562219,"2026-07-06 05:00:00","14929","0.002","71.97","0.196","71.91","1018.324","26.79","45.57","NAN","0.0"],
    [1562220,"2026-07-06 05:10:00","14930","0.086","61.19","0.6859999999999999","55.81","1018.329","26.53","47.22","NAN","0.0"],
    [1562221,"2026-07-06 05:20:00","14931","0.294","51.92","0.9470000000000001","59.85","1018.357","27.12","42.51","NAN","0.0"],
    [1562222,"2026-07-06 05:30:00","14932","0.369","64.98","1.013","50.59","1018.4110000000001","27.49","38.47","NAN","0.0"],
    [1562223,"2026-07-06 05:40:00","14933","0.247","92.4","0.621","89.1","1018.419","27.3","41.25","NAN","0.0"],
    [1562224,"2026-07-06 05:50:00","14934","0.28","168.7","0.588","174.9","1018.451","27.57","43.18","NAN","0.0"],
    [1562225,"2026-07-06 06:00:00","14935","0.348","180.6","0.588","182.0","1018.5260000000001","27.11","48.49","NAN","0.0"],
    [1562226,"2026-07-06 06:10:00","14936","0.243","171.4","0.621","172.6","1018.563","27.41","46.55","NAN","0.0"],
    [1562227,"2026-07-06 06:20:00","14937","0.28300000000000003","112.5","0.98","72.43","1018.587","27.97","43.27","NAN","0.0"],
    [1562228,"2026-07-06 06:30:00","14938","0.462","169.6","0.882","186.8","1018.694","28.07","44.03","NAN","0.0"],
    [1562229,"2026-07-06 06:40:00","14939","0.715","182.0","1.111","179.8","1018.685","27.81","44.19","NAN","0.0"],
    [1562230,"2026-07-06 06:50:00","14940","0.616","189.6","1.013","187.2","1018.68","28.01","41.84","NAN","0.0"],
    [1562231,"2026-07-06 07:00:00","14941","0.5660000000000001","200.6","1.045","200.5","1018.7760000000001","28.61","39.84","NAN","0.0"],
    [1562232,"2026-07-06 07:10:00","14942","0.677","192.9","1.078","200.7","1018.797","28.9","38.26","NAN","0.0"],
    [1562233,"2026-07-06 07:20:00","14943","1.401","167.3","2.679","154.7","1018.812","28.56","37.86","NAN","0.0"],
    [1562234,"2026-07-06 07:30:00","14944","1.9040000000000001","163.6","2.7110000000000003","150.2","1018.822","27.69","38.13","NAN","0.0"],
    [1562235,"2026-07-06 07:40:00","14945","1.655","165.1","2.8089999999999997","155.5","1018.825","27.53","40.84","NAN","0.0"],
    [1562236,"2026-07-06 07:50:00","14946","1.786","139.6","3.201","180.1","1018.915","27.79","41.49","NAN","0.0"],
    [1562237,"2026-07-06 08:00:00","14947","1.6580000000000001","118.9","2.6460000000000004","140.0","1018.885","27.86","41.93","NAN","0.0"],
    [1562238,"2026-07-06 08:10:00","14948","1.8840000000000001","119.9","2.875","120.3","1018.813","27.89","43.87","NAN","0.0"],
    [1562239,"2026-07-06 08:20:00","14949","1.705","116.8","2.515","114.2","1018.779","28.24","40.25","NAN","0.0"],
    [1562240,"2026-07-06 08:30:00","14950","1.703","118.0","2.7439999999999998","107.8","1018.778","28.48","37.44","NAN","0.0"],
    [1562241,"2026-07-06 08:40:00","14951","1.7269999999999999","127.6","2.515","121.4","1018.804","28.51","35.89","NAN","0.0"],
    [1562242,"2026-07-06 08:50:00","14952","1.984","127.1","3.005","109.0","1018.9069999999999","28.47","35.61","NAN","0.0"],
    [1562243,"2026-07-06 09:00:00","14953","1.875","116.5","2.7439999999999998","114.9","1018.908","28.48","46.76","NAN","0.0"],
    [1562244,"2026-07-06 09:10:00","14954","1.7009999999999998","145.1","2.515","180.5","1018.8860000000001","28.53","56.65","NAN","0.0"],
    [1562245,"2026-07-06 09:20:00","14955","1.71","173.6","2.7439999999999998","177.4","1018.8489999999999","28.61","58.48","NAN","0.0"],
    [1562246,"2026-07-06 09:30:00","14956","1.7530000000000001","170.2","2.842","175.8","1018.7639999999999","28.92","58.11","NAN","0.0"],
    [1562247,"2026-07-06 09:40:00","14957","1.911","172.3","2.94","172.7","1018.7410000000001","29.09","56.98","NAN","0.0"],
    [1562248,"2026-07-06 09:50:00","14958","1.989","168.0","3.005","179.0","1018.748","29.29","57.29","NAN","0.0"],
    [1562249,"2026-07-06 10:00:00","14959","2.364","168.4","3.822","179.5","1018.76","28.96","61.51","NAN","0.0"],
    [1562250,"2026-07-06 10:10:00","14960","2.528","168.7","3.6910000000000003","176.8","1018.699","28.52","65.16","NAN","0.0"],
    [1562251,"2026-07-06 10:20:00","14961","2.8339999999999996","172.5","4.41","180.4","1018.75","28.32","66.64","NAN","0.0"],
    [1562252,"2026-07-06 10:30:00","14962","2.088","179.3","3.332","173.3","1018.671","28.83","64.26","NAN","0.0"],
    [1562253,"2026-07-06 10:40:00","14963","2.26","173.3","3.5610000000000004","172.9","1018.617","29.57","61.56","NAN","0.0"],
    [1562254,"2026-07-06 10:50:00","14964","2.745","168.7","3.9530000000000003","175.0","1018.576","29.04","64.92","NAN","0.0"],
    [1562255,"2026-07-06 11:00:00","14965","2.9810000000000003","167.1","4.835","176.2","1018.523","29.1","65.86","NAN","0.0"],
    [1562256,"2026-07-06 11:10:00","14966","3.074","168.5","4.638999999999999","172.3","1018.518","28.44","70.75","NAN","0.0"],
    [1562257,"2026-07-06 11:20:00","14967","2.877","168.2","4.051","175.5","1018.428","28.86","67.82","NAN","0.0"],
    [1562258,"2026-07-06 11:30:00","14968","3.285","168.9","4.9","170.2","1018.429","28.6","70.36","NAN","0.0"],
    [1562259,"2026-07-06 11:40:00","14969","3.45","171.0","5.4879999999999995","168.4","1018.438","28.09","73.78","NAN","0.0"],
    [1562260,"2026-07-06 11:50:00","14970","3.285","170.7","4.933","178.1","1018.347","28.21","72.76","NAN","0.0"],
    [1562261,"2026-07-06 12:00:00","14971","3.2969999999999997","172.1","4.9","178.3","1018.321","28.48","72.19","NAN","0.0"],
    [1562262,"2026-07-06 12:10:00","14972","3.389","173.5","5.7170000000000005","179.6","1018.3489999999999","28.03","74.58","NAN","0.0"],
    [1562263,"2026-07-06 12:20:00","14973","3.377","171.5","5.227","166.7","1018.32","27.82","76.06","NAN","0.0"],
    [1562264,"2026-07-06 12:30:00","14974","3.43","173.1","5.39","181.9","1018.2860000000001","27.78","76.11","NAN","0.0"],
    [1562265,"2026-07-06 12:40:00","14975","3.795","176.2","5.847","183.8","1018.215","27.75","76.36","NAN","0.0"],
    [1562266,"2026-07-06 12:50:00","14976","3.577","174.0","6.109","174.2","1018.159","27.79","76.6","NAN","0.0"],
    [1562267,"2026-07-06 13:00:00","14977","3.295","168.0","5.227","185.3","1018.1030000000001","27.88","76.37","NAN","0.0"],
    [1562268,"2026-07-06 13:10:00","14978","3.5589999999999997","163.7","5.7170000000000005","157.1","1018.065","27.93","76.26","NAN","0.0"],
    [1562269,"2026-07-06 13:20:00","14979","3.295","164.9","5.063","163.8","1017.97","28.1","75.59","NAN","0.0"],
    [1562270,"2026-07-06 13:30:00","14980","3.3360000000000003","161.3","5.2589999999999995","152.1","1017.8760000000001","28.28","73.56","NAN","0.0"],
    [1562271,"2026-07-06 13:40:00","14981","3.492","166.3","5.7170000000000005","182.0","1017.834","28.9","69.82","NAN","0.0"],
    [1562272,"2026-07-06 13:50:00","14982","3.367","163.8","4.933","179.5","1017.815","28.59","71.47","NAN","0.0"],
    [1562273,"2026-07-06 14:00:00","14983","3.678","167.4","5.7170000000000005","173.4","1017.794","28.35","73.8","NAN","0.0"],
    [1562274,"2026-07-06 14:10:00","14984","3.6010000000000004","165.2","4.867","166.2","1017.696","28.21","74.65","NAN","0.0"],
    [1562275,"2026-07-06 14:20:00","14985","3.842","166.5","5.455","178.9","1017.6","28.23","74.7","NAN","0.0"],
    [1562276,"2026-07-06 14:30:00","14986","3.463","169.0","5.422999999999999","178.8","1017.485","28.3","73.49","NAN","0.0"],
    [1562277,"2026-07-06 14:40:00","14987","3.025","171.5","4.541","148.0","1017.449","29.08","69.71","NAN","0.0"],
    [1562278,"2026-07-06 14:50:00","14988","3.096","168.0","4.835","154.7","1017.3889999999999","29.14","70.12","NAN","0.0"],
    [1562279,"2026-07-06 15:00:00","14989","3.427","166.0","5.1610000000000005","174.6","1017.294","28.92","71.59","NAN","0.0"],
    [1562280,"2026-07-06 15:10:00","14990","3.278","166.8","5.292000000000001","173.8","1017.175","28.99","71.66","NAN","0.0"],
    [1562281,"2026-07-06 15:20:00","14991","3.428","165.3","4.965","177.4","1017.086","28.82","72.94","NAN","0.0"],
    [1562282,"2026-07-06 15:30:00","14992","3.676","165.6","6.403","164.6","1016.995","28.35","75.92","NAN","0.0"],
    [1562283,"2026-07-06 15:40:00","14993","3.4219999999999997","165.1","4.965","170.5","1016.905","28.35","75.93","NAN","0.0"],
    [1562284,"2026-07-06 15:50:00","14994","3.6210000000000004","167.4","5.553","178.3","1016.927","28.19","77.27","NAN","0.0"],
    [1562285,"2026-07-06 16:00:00","14995","3.448","168.8","5.096","168.4","1016.935","27.96","79.18","NAN","0.0"],
    [1562286,"2026-07-06 16:10:00","14996","3.5669999999999997","171.5","5.847","179.6","1016.883","27.85","81","NAN","0.0"],
    [1562287,"2026-07-06 16:20:00","14997","3.616","170.2","5.7170000000000005","171.3","1016.836","27.58","85","NAN","0.0"],
    [1562288,"2026-07-06 16:30:00","14998","3.5180000000000002","170.8","5.815","181.8","1016.828","27.34","87.2","NAN","0.0"],
    [1562289,"2026-07-06 16:40:00","14999","3.449","174.2","4.933","182.4","1016.831","27.22","88.3","NAN","0.0"],
    [1562290,"2026-07-06 16:50:00","15000","3.1489999999999996","175.2","5.325","180.9","1016.834","27.11","89.3","NAN","0.0"],
    [1562291,"2026-07-06 17:00:00","15001","2.761","175.4","4.345","177.4","1016.834","27.21","89","NAN","0.0"],
    [1562292,"2026-07-06 17:10:00","15002","2.719","175.4","4.541","187.1","1016.834","27.23","89.2","NAN","0.0"],
    [1562293,"2026-07-06 17:20:00","15003","2.702","173.9","4.1160000000000005","177.7","1016.834","27.17","89.5","NAN","0.0"],
    [1562294,"2026-07-06 17:30:00","15004","2.4330000000000003","171.6","4.2139999999999995","185.3","1016.868","27.16","89.3","NAN","0.0"],
    [1562295,"2026-07-06 17:40:00","15005","2.2230000000000003","171.8","3.855","170.8","1016.842","27.19","88.7","NAN","0.0"],
    [1562296,"2026-07-06 17:50:00","15006","1.744","161.9","3.1689999999999996","156.5","1016.87","27.36","88","NAN","0.0"],
    [1562297,"2026-07-06 18:00:00","15007","1.6469999999999998","162.4","3.234","165.7","1016.936","27.4","87.6","NAN","0.0"],
    [1562298,"2026-07-06 18:10:00","15008","1.814","128.9","3.267","173.4","1017.0039999999999","27.32","87.7","NAN","0.0"],
    [1562299,"2026-07-06 18:20:00","15009","1.5759999999999998","118.4","2.483","117.7","1017.078","27.04","88.9","NAN","0.0"],
    [1562300,"2026-07-06 18:30:00","15010","1.005","141.2","2.352","179.0","1017.078","26.93","89.7","NAN","0.0"],
    [1562301,"2026-07-06 18:40:00","15011","1.2919999999999998","169.0","2.7769999999999997","167.2","1017.143","27.09","89.1","NAN","0.0"],
    [1562302,"2026-07-06 18:50:00","15012","1.527","179.9","2.352","176.2","1017.18","26.87","89.9","NAN","0.0"],
    [1562303,"2026-07-06 19:00:00","15013","1.146","174.1","1.9269999999999998","156.1","1017.17","26.77","90","NAN","0.0"],
    [1562304,"2026-07-06 19:10:00","15014","1.133","165.2","2.221","162.2","1017.178","26.83","89.1","NAN","0.0"],
    [1562305,"2026-07-06 19:20:00","15015","1.137","162.0","1.7309999999999999","162.3","1017.148","26.83","88","NAN","0.0"],
    [1562306,"2026-07-06 19:30:00","15016","1.162","170.9","2.0580000000000003","152.3","1017.086","26.76","87.7","NAN","0.0"],
    [1562307,"2026-07-06 19:40:00","15017","1.455","171.7","2.254","179.6","1017.203","26.65","87.9","NAN","0.0"],
    [1562308,"2026-07-06 19:50:00","15018","0.8909999999999999","194.2","2.025","163.7","1017.298","26.55","88.2","NAN","0.0"],
    [1562309,"2026-07-06 20:00:00","15019","0.657","206.2","1.143","204.7","1017.332","26.71","87.5","NAN","0.0"],
    [1562310,"2026-07-06 20:10:00","15020","0.41200000000000003","151.4","1.274","184.9","1017.427","26.6","88.3","NAN","0.0"],
    [1562311,"2026-07-06 20:20:00","15021","0.648","118.2","1.143","144.6","1017.5889999999999","26.64","87.8","NAN","0.0"],
    [1562312,"2026-07-06 20:30:00","15022","0.5479999999999999","141.1","1.143","138.3","1017.5939999999999","26.62","87.1","NAN","0.0"],
    [1562313,"2026-07-06 20:40:00","15023","0.385","167.2","0.882","183.1","1017.704","26.63","85.9","NAN","0.0"],
    [1562314,"2026-07-06 20:50:00","15024","0.293","151.0","0.7190000000000001","170.2","1017.798","26.69","86.2","NAN","0.0"],
    [1562315,"2026-07-06 21:00:00","15025","0.256","119.3","0.621","112.1","1017.831","26.66","86.1","NAN","0.0"],
    [1562316,"2026-07-06 21:10:00","15026","0.32899999999999996","195.8","0.882","188.5","1017.808","26.55","85.5","NAN","0.0"],
    [1562317,"2026-07-06 21:20:00","15027","0.39","178.8","0.7509999999999999","170.7","1017.796","26.42","86.3","NAN","0.0"],
    [1562318,"2026-07-06 21:30:00","15028","0.599","185.6","1.078","194.8","1017.803","26.41","84","NAN","0.0"],
    [1562319,"2026-07-06 21:40:00","15029","0.711","209.1","1.797","267.7","1017.823","26.7","78.9","NAN","0.0"],
    [1562320,"2026-07-06 21:50:00","15030","0.664","238.4","2.0580000000000003","262.1","1017.7610000000001","27.55","72.36","NAN","0.0"],
    [1562321,"2026-07-06 22:00:00","15031","1.083","238.7","2.842","239.2","1017.709","28.04","68.79","NAN","0.0"],
    [1562322,"2026-07-06 22:10:00","15032","0.623","224.8","2.0580000000000003","260.0","1017.7260000000001","27.84","69.86","NAN","0.0"],
    [1562323,"2026-07-06 22:20:00","15033","0.946","238.1","2.025","249.8","1017.816","27.68","69.27","NAN","0.0"],
    [1562324,"2026-07-06 22:30:00","15034","0.8190000000000001","239.1","2.319","249.0","1017.831","27.87","68.46","NAN","0.0"],
    [1562325,"2026-07-06 22:40:00","15035","0.741","220.2","1.895","236.8","1017.831","27.77","69.52","NAN","0.0"],
    [1562326,"2026-07-06 22:50:00","15036","0.6609999999999999","214.1","1.3719999999999999","191.6","1017.831","27.35","71.8","NAN","0.0"],
    [1562327,"2026-07-06 23:00:00","15037","0.7390000000000001","208.6","1.4369999999999998","222.2","1017.831","27.06","73.71","NAN","0.0"],
    [1562328,"2026-07-06 23:10:00","15038","0.8420000000000001","204.2","1.5030000000000001","203.5","1017.831","26.85","74.43","NAN","0.0"],
    [1562329,"2026-07-06 23:20:00","15039","0.785","203.2","1.601","205.9","1017.831","26.77","72.65","NAN","0.0"],
    [1562330,"2026-07-06 23:30:00","15040","1.123","233.8","2.515","238.6","1017.841","26.97","70.74","NAN","0.0"],
    [1562331,"2026-07-06 23:40:00","15041","0.5379999999999999","232.7","2.515","243.1","1017.8330000000001","27.28","69.73","NAN","0.0"],
    [1562332,"2026-07-06 23:50:00","15042","1.168","240.5","2.548","258.3","1017.831","27.19","69.81","NAN","0.0"],
    [1562333,"2026-07-07 00:00:00","15043","1.473","245.9","3.234","248.3","1017.828","27.16","70.3","NAN","0.0"],
    [1562334,"2026-07-07 00:10:00","15044","1.08","243.8","2.842","248.4","1017.823","27.05","70.79","NAN","0.0"],
    [1562335,"2026-07-07 00:20:00","15045","1.405","244.9","2.613","241.6","1017.753","26.95","70.05","NAN","0.0"],
    [1562336,"2026-07-07 00:30:00","15046","1.206","253.0","2.548","249.9","1017.704","26.98","68.01","NAN","0.0"],
    [1562337,"2026-07-07 00:40:00","15047","0.875","247.0","1.993","237.9","1017.6189999999999","27.03","65.83","NAN","0.0"],
    [1562338,"2026-07-07 00:50:00","15048","0.7070000000000001","247.1","1.9269999999999998","226.6","1017.5060000000001","27.08","64.91","NAN","0.0"],
    [1562339,"2026-07-07 01:00:00","15049","0.607","248.5","1.829","253.4","1017.427","27.1","63.42","NAN","0.0"],
    [1562340,"2026-07-07 01:10:00","15050","0.442","244.3","1.405","226.6","1017.347","27.07","62.79","NAN","0.0"],
    [1562341,"2026-07-07 01:20:00","15051","0.509","260.7","1.405","250.2","1017.332","27.06","62.23","NAN","0.0"],
    [1562342,"2026-07-07 01:30:00","15052","0.78","254.3","1.9269999999999998","232.5","1017.332","27.04","61.27","NAN","0.0"],
    [1562343,"2026-07-07 01:40:00","15053","0.8220000000000001","244.5","1.829","237.7","1017.275","26.88","61","NAN","0.0"],
    [1562344,"2026-07-07 01:50:00","15054","0.529","229.4","1.307","212.1","1017.21","26.7","61.79","NAN","0.0"],
    [1562345,"2026-07-07 02:00:00","15055","0.374","119.9","0.7509999999999999","142.1","1017.2080000000001","26.18","69.81","NAN","0.0"],
    [1562346,"2026-07-07 02:10:00","15056","0.09","133.5","0.555","137.0","1017.118","25.78","70.7","NAN","0.0"],
    [1562347,"2026-07-07 02:20:00","15057","0.19","171.1","0.7509999999999999","166.9","1017.0830000000001","25.87","70.55","NAN","0.0"],
    [1562348,"2026-07-07 02:30:00","15058","0.081","188.8","0.523","182.6","1016.971","25.46","73.19","NAN","0.0"],
    [1562349,"2026-07-07 02:40:00","15059","0.01","171.5","0.294","166.5","1016.959","25.22","71.83","NAN","0.0"],
    [1562350,"2026-07-07 02:50:00","15060","0.0","0.0","0.0","0.0","1016.8539999999999","25.16","69.72","NAN","0.0"],
    [1562351,"2026-07-07 03:00:00","15061","0.0","0.0","0.0","0.0","1016.804","25.05","69.86","NAN","0.0"],
    [1562352,"2026-07-07 03:10:00","15062","0.03","130.8","0.425","138.2","1016.64","24.95","70.08","NAN","0.0"],
    [1562353,"2026-07-07 03:20:00","15063","0.0","0.0","0.0","0.0","1016.697","25.03","70.05","NAN","0.0"],
    [1562354,"2026-07-07 03:30:00","15064","0.4","185.0","0.882","179.4","1016.61","24.86","72.12","NAN","0.0"],
    [1562355,"2026-07-07 03:40:00","15065","0.08800000000000001","186.7","0.588","184.2","1016.627","24.67","72.52","NAN","0.0"],
    [1562356,"2026-07-07 03:50:00","15066","0.17600000000000002","162.3","0.653","187.0","1016.7289999999999","24.68","72.91","NAN","0.0"],
    [1562357,"2026-07-07 04:00:00","15067","0.006","123.5","0.392","117.2","1016.804","24.68","73.15","NAN","0.0"],
    [1562358,"2026-07-07 04:10:00","15068","0.38799999999999996","185.5","0.784","195.4","1016.827","24.43","70.37","NAN","0.0"],
    [1562359,"2026-07-07 04:20:00","15069","0.0","0.0","0.0","0.0","1016.831","24.43","66.95","NAN","0.0"],
    [1562360,"2026-07-07 04:30:00","15070","0.0","0.0","0.0","0.0","1016.834","24.54","65.8","NAN","0.0"],
    [1562361,"2026-07-07 04:40:00","15071","0.318","187.2","0.882","186.3","1016.834","24.57","64.83","NAN","0.0"],
    [1562362,"2026-07-07 04:50:00","15072","0.142","178.3","0.523","193.0","1016.8789999999999","24.36","65.97","NAN","0.0"],
    [1562363,"2026-07-07 05:00:00","15073","0.049","152.7","0.392","49.11","1017.041","24.4","57.56","NAN","0.0"],
    [1562364,"2026-07-07 05:10:00","15074","0.151","136.6","0.882","213.0","1017.086","24.8","55.83","NAN","0.0"],
    [1562365,"2026-07-07 05:20:00","15075","0.17","138.2","1.111","195.1","1017.0980000000001","25.38","53.5","NAN","0.0"],
    [1562366,"2026-07-07 05:30:00","15076","0.863","233.0","1.96","233.0","1017.183","26.13","44.12","NAN","0.0"],
    [1562367,"2026-07-07 05:40:00","15077","0.401","197.5","1.47","182.9","1017.2819999999999","25.84","51.79","NAN","0.0"],
    [1562368,"2026-07-07 05:50:00","15078","0.196","142.4","0.7190000000000001","145.3","1017.27","25.77","51.99","NAN","0.0"],
    [1562369,"2026-07-07 06:00:00","15079","0.359","120.3","0.8490000000000001","107.5","1017.253","26.21","49.21","NAN","0.0"],
    [1562370,"2026-07-07 06:10:00","15080","0.579","120.5","1.013","116.4","1017.329","26.58","46.72","NAN","0.0"],
    [1562371,"2026-07-07 06:20:00","15081","0.547","102.0","0.98","94.9","1017.329","27.25","45.22","NAN","0.0"],
    [1562372,"2026-07-07 06:30:00","15082","0.915","113.5","1.4369999999999998","104.1","1017.3919999999999","27.14","48.58","NAN","0.0"],
    [1562373,"2026-07-07 06:40:00","15083","0.8109999999999999","94.1","1.535","58.74","1017.4889999999999","27.38","45.9","NAN","0.0"],
    [1562374,"2026-07-07 06:50:00","15084","0.557","113.9","1.339","65.37","1017.528","27.18","46.32","NAN","0.0"],
    [1562375,"2026-07-07 07:00:00","15085","0.519","113.0","0.915","104.4","1017.55","28.19","41.58","NAN","0.0"],
    [1562376,"2026-07-07 07:10:00","15086","0.953","159.8","1.601","179.0","1017.566","27.99","44.89","NAN","0.0"],
    [1562377,"2026-07-07 07:20:00","15087","1.002","183.4","1.4369999999999998","188.9","1017.575","27.92","45.49","NAN","0.0"],
    [1562378,"2026-07-07 07:30:00","15088","0.857","187.0","1.339","157.9","1017.613","28.41","43.49","NAN","0.0"],
    [1562379,"2026-07-07 07:40:00","15089","1.073","191.1","1.699","183.7","1017.69","28.74","41.93","NAN","0.0"],
    [1562380,"2026-07-07 07:50:00","15090","1.86","168.4","3.005","150.1","1017.7639999999999","28.14","40.27","NAN","0.0"],
    [1562381,"2026-07-07 08:00:00","15091","1.6","160.3","2.875","152.2","1017.775","28.07","40.66","NAN","0.0"],
    [1562382,"2026-07-07 08:10:00","15092","1.4369999999999998","111.8","2.515","108.1","1017.841","28.72","39.24","NAN","0.0"],
    [1562383,"2026-07-07 08:20:00","15093","1.182","102.6","1.797","105.4","1017.7739999999999","29.6","38.28","NAN","0.0"],
    [1562384,"2026-07-07 08:30:00","15094","1.205","115.5","1.699","113.6","1017.738","29.66","36.25","NAN","0.0"],
    [1562385,"2026-07-07 08:40:00","15095","1.4240000000000002","129.6","2.0909999999999997","139.6","1017.675","29.42","36.95","NAN","0.0"],
    [1562386,"2026-07-07 08:50:00","15096","1.575","123.4","2.287","115.6","1017.727","28.65","49.14","NAN","0.0"],
    [1562387,"2026-07-07 09:00:00","15097","1.548","135.3","2.254","106.9","1017.747","28.66","59.39","NAN","0.0"],
    [1562388,"2026-07-07 09:10:00","15098","1.765","182.3","2.8089999999999997","189.2","1017.7460000000001","28.27","67.46","NAN","0.0"],
    [1562389,"2026-07-07 09:20:00","15099","1.745","172.6","2.907","176.9","1017.76","28.02","68.5","NAN","0.0"],
    [1562390,"2026-07-07 09:30:00","15100","1.6340000000000001","169.9","2.417","177.6","1017.7460000000001","28.38","67.01","NAN","0.0"],
    [1562391,"2026-07-07 09:40:00","15101","1.956","161.9","2.907","151.5","1017.755","28.42","67.13","NAN","0.0"],
    [1562392,"2026-07-07 09:50:00","15102","2.155","172.0","3.397","175.3","1017.7410000000001","28.17","68.1","NAN","0.0"],
    [1562393,"2026-07-07 10:00:00","15103","2.344","174.2","3.593","176.4","1017.7539999999999","27.94","69.91","NAN","0.0"],
    [1562394,"2026-07-07 10:10:00","15104","2.68","175.6","4.083","176.3","1017.816","27.85","69.68","NAN","0.0"],
    [1562395,"2026-07-07 10:20:00","15105","2.7689999999999997","182.4","4.083","182.4","1017.9019999999999","27.84","68.74","NAN","0.0"],
    [1562396,"2026-07-07 10:30:00","15106","2.249","157.8","3.6260000000000003","175.8","1017.9689999999999","28.21","66.33","NAN","0.0"],
    [1562397,"2026-07-07 10:40:00","15107","1.94","129.1","3.365","113.8","1017.8969999999999","28.54","69.82","NAN","0.0"],
    [1562398,"2026-07-07 10:50:00","15108","2.115","131.2","3.659","113.5","1017.916","28.3","72.45","NAN","0.0"],
    [1562399,"2026-07-07 11:00:00","15109","2.311","116.3","3.495","107.5","1017.9010000000001","28.12","74.25","NAN","0.0"],
    [1562400,"2026-07-07 11:10:00","15110","2.247","121.2","3.593","123.6","1017.855","27.93","74.96","NAN","0.0"],
    [1562401,"2026-07-07 11:20:00","15111","2.2840000000000003","121.0","3.7569999999999997","109.3","1017.783","27.93","75.41","NAN","0.0"],
    [1562402,"2026-07-07 11:30:00","15112","2.229","127.4","3.43","105.5","1017.802","27.88","75.52","NAN","0.0"],
    [1562403,"2026-07-07 11:40:00","15113","1.916","113.1","3.6260000000000003","119.1","1017.78","28.35","74.69","NAN","0.0"],
    [1562404,"2026-07-07 11:50:00","15114","2.247","98.2","3.593","101.4","1017.805","28.78","73.42","NAN","0.0"],
    [1562405,"2026-07-07 12:00:00","15115","2.9210000000000003","110.7","4.247","114.8","1017.789","28.03","76.52","NAN","0.0"],
    [1562406,"2026-07-07 12:10:00","15116","3.1189999999999998","100.3","4.606","121.6","1017.778","28.17","76.35","NAN","0.0"],
    [1562407,"2026-07-07 12:20:00","15117","3.071","108.6","4.933","118.2","1017.768","28.07","77.66","NAN","0.0"],
    [1562408,"2026-07-07 12:30:00","15118","3.475","112.1","5.4879999999999995","110.2","1017.785","28.06","77.93","NAN","0.0"],
    [1562409,"2026-07-07 12:40:00","15119","2.53","91.0","4.051","66.13","1017.7860000000001","28.88","74.8","NAN","0.0"],
    [1562410,"2026-07-07 12:50:00","15120","2.654","98.4","4.312","102.3","1017.79","29.17","72.21","NAN","0.0"],
    [1562411,"2026-07-07 13:00:00","15121","2.898","105.2","4.933","106.6","1017.707","28.83","71.98","NAN","0.0"],
    [1562412,"2026-07-07 13:10:00","15122","3.009","104.0","4.541","108.9","1017.707","28.6","72.12","NAN","0.0"],
    [1562413,"2026-07-07 13:20:00","15123","2.8939999999999997","103.2","4.312","109.2","1017.68","28.95","70.91","NAN","0.0"],
    [1562414,"2026-07-07 13:30:00","15124","2.79","96.1","4.704","107.1","1017.6519999999999","28.76","71.86","NAN","0.0"],
    [1562415,"2026-07-07 13:40:00","15125","2.825","96.7","4.802","112.4","1017.6410000000001","28.98","70.83","NAN","0.0"],
    [1562416,"2026-07-07 13:50:00","15126","2.592","105.9","3.985","98.9","1017.6489999999999","29.03","71.11","NAN","0.0"],
    [1562417,"2026-07-07 14:00:00","15127","3.207","106.3","4.769","106.9","1017.6389999999999","28.98","71.86","NAN","0.0"],
    [1562418,"2026-07-07 14:10:00","15128","3.093","108.1","4.737","118.5","1017.6160000000001","28.94","73.61","NAN","0.0"],
    [1562419,"2026-07-07 14:20:00","15129","2.8089999999999997","79.11","4.965","56.09","1017.566","29.11","74.03","NAN","0.0"],
    [1562420,"2026-07-07 14:30:00","15130","2.64","83.5","4.018","70.24","1017.557","29.17","74.23","NAN","0.0"],
    [1562421,"2026-07-07 14:40:00","15131","2.5860000000000003","80.7","4.475","75.89","1017.5039999999999","29.15","74.04","NAN","0.0"],
    [1562422,"2026-07-07 14:50:00","15132","3.472","98.4","5.619","98.7","1017.409","28.69","75.53","NAN","0.0"],
    [1562423,"2026-07-07 15:00:00","15133","2.418","80.2","4.638999999999999","103.4","1017.3960000000001","28.89","74.26","NAN","0.0"],
    [1562424,"2026-07-07 15:10:00","15134","2.5380000000000003","67.72","4.508","75.91","1017.325","29.26","71.42","NAN","0.0"],
    [1562425,"2026-07-07 15:20:00","15135","2.677","69.36","4.9","72.13","1017.293","29.01","71.86","NAN","0.0"],
    [1562426,"2026-07-07 15:30:00","15136","2.501","67.77","4.606","74.02","1017.321","28.88","72.04","NAN","0.0"],
    [1562427,"2026-07-07 15:40:00","15137","2.438","74.58","4.247","49.92","1017.373","29.05","71.14","NAN","0.0"],
    [1562428,"2026-07-07 15:50:00","15138","2.6189999999999998","67.55","4.4430000000000005","77.24","1017.283","28.86","70.79","NAN","0.0"],
    [1562429,"2026-07-07 16:00:00","15139","2.7289999999999996","70.68","5.063","73.36","1017.278","28.75","69.08","NAN","0.0"],
    [1562430,"2026-07-07 16:10:00","15140","2.168","69.05","4.247","54.41","1017.28","28.93","67.81","NAN","0.0"],
    [1562431,"2026-07-07 16:20:00","15141","2.4290000000000003","72.0","4.247","79.8","1017.18","28.88","67.74","NAN","0.0"],
    [1562432,"2026-07-07 16:30:00","15142","2.094","66.98","4.083","73.37","1017.2310000000001","28.85","69.11","NAN","0.0"],
    [1562433,"2026-07-07 16:40:00","15143","2.5269999999999997","66.1","4.149","59.73","1017.2719999999999","28.79","69.13","NAN","0.0"],
    [1562434,"2026-07-07 16:50:00","15144","2.154","64.11","3.528","73.98","1017.302","28.59","70.4","NAN","0.0"],
    [1562435,"2026-07-07 17:00:00","15145","2.154","79.57","3.7889999999999997","72.52","1017.302","28.63","66.7","NAN","0.0"],
    [1562436,"2026-07-07 17:10:00","15146","2.5380000000000003","90.8","3.528","88.6","1017.3919999999999","28.84","64.25","NAN","0.0"],
    [1562437,"2026-07-07 17:20:00","15147","2.29","86.7","3.9530000000000003","53.21","1017.453","28.86","64.3","NAN","0.0"],
    [1562438,"2026-07-07 17:30:00","15148","2.031","81.2","3.528","62.23","1017.497","28.72","65.64","NAN","0.0"],
    [1562439,"2026-07-07 17:40:00","15149","1.767","81.3","3.234","68.92","1017.488","28.66","67.28","NAN","0.0"],
    [1562440,"2026-07-07 17:50:00","15150","2.21","100.8","3.7569999999999997","104.4","1017.3489999999999","28.56","64.87","NAN","0.0"],
    [1562441,"2026-07-07 18:00:00","15151","2.126","101.1","3.6260000000000003","103.5","1017.327","28.04","64.67","NAN","0.0"],
    [1562442,"2026-07-07 18:10:00","15152","1.604","86.3","2.7110000000000003","67.23","1017.347","27.99","65.13","NAN","0.0"],
    [1562443,"2026-07-07 18:20:00","15153","1.138","106.8","2.025","90.8","1017.325","28.03","66.78","NAN","0.0"],
    [1562444,"2026-07-07 18:30:00","15154","0.784","101.8","1.339","108.9","1017.325","27.99","68.68","NAN","0.0"],
    [1562445,"2026-07-07 18:40:00","15155","0.787","103.1","1.699","113.8","1017.3330000000001","28.08","68.61","NAN","0.0"],
    [1562446,"2026-07-07 18:50:00","15156","0.934","120.2","1.5030000000000001","123.4","1017.327","27.85","71.13","NAN","0.0"],
    [1562447,"2026-07-07 19:00:00","15157","0.45899999999999996","175.7","1.209","173.6","1017.332","27.74","73.72","NAN","0.0"],
    [1562448,"2026-07-07 19:10:00","15158","1.146","169.0","1.8619999999999999","161.0","1017.312","27.54","75.77","NAN","0.0"],
    [1562449,"2026-07-07 19:20:00","15159","0.9690000000000001","127.9","1.764","151.0","1017.377","27.47","73.66","NAN","0.0"],
    [1562450,"2026-07-07 19:30:00","15160","0.68","130.8","1.307","139.0","1017.367","27.42","75.27","NAN","0.0"],
    [1562451,"2026-07-07 19:40:00","15161","0.958","167.4","1.5030000000000001","148.5","1017.3919999999999","27.47","76.22","NAN","0.0"],
    [1562452,"2026-07-07 19:50:00","15162","0.9470000000000001","181.4","1.895","149.3","1017.395","27.47","78.73","NAN","0.0"],
    [1562453,"2026-07-07 20:00:00","15163","0.9740000000000001","193.8","1.829","176.4","1017.559","27.46","82.9","NAN","0.0"],
    [1562454,"2026-07-07 20:10:00","15164","1.176","201.1","2.156","194.7","1017.689","27.54","80.6","NAN","0.0"],
    [1562455,"2026-07-07 20:20:00","15165","1.449","201.1","2.7769999999999997","197.5","1017.716","27.8","75.9","NAN","0.0"],
    [1562456,"2026-07-07 20:30:00","15166","1.317","197.0","2.842","207.5","1017.7610000000001","27.84","74.39","NAN","0.0"],
    [1562457,"2026-07-07 20:40:00","15167","1.057","216.3","2.842","217.1","1017.8610000000001","27.99","72.3","NAN","0.0"],
    [1562458,"2026-07-07 20:50:00","15168","1.982","242.6","3.7239999999999998","246.0","1017.9580000000001","28.54","68.68","NAN","0.0"],
    [1562459,"2026-07-07 21:00:00","15169","1.411","225.5","3.887","232.9","1017.882","28.85","67.61","NAN","0.0"],
    [1562460,"2026-07-07 21:10:00","15170","1.386","238.7","4.018","245.5","1017.7610000000001","28.63","68.3","NAN","0.0"],
    [1562461,"2026-07-07 21:20:00","15171","1.454","254.4","3.267","255.2","1017.7539999999999","28.8","67.03","NAN","0.0"],
    [1562462,"2026-07-07 21:30:00","15172","1.423","257.0","2.9730000000000003","238.2","1017.716","28.66","69.29","NAN","0.0"],
    [1562463,"2026-07-07 21:40:00","15173","0.892","239.0","2.45","237.7","1017.5989999999999","28.68","69.64","NAN","0.0"],
    [1562464,"2026-07-07 21:50:00","15174","1.216","255.1","2.842","248.7","1017.6110000000001","28.66","70.45","NAN","0.0"],
    [1562465,"2026-07-07 22:00:00","15175","1.026","235.7","4.1160000000000005","242.9","1017.459","28.52","69.62","NAN","0.0"],
    [1562466,"2026-07-07 22:10:00","15176","0.682","195.4","1.2409999999999999","162.6","1017.4689999999999","28.24","71.85","NAN","0.0"],
    [1562467,"2026-07-07 22:20:00","15177","1.224","254.2","3.7569999999999997","239.4","1017.37","28.23","71.28","NAN","0.0"],
    [1562468,"2026-07-07 22:30:00","15178","1.117","259.6","2.5810000000000004","266.4","1017.332","28.29","71.46","NAN","0.0"],
    [1562469,"2026-07-07 22:40:00","15179","0.991","250.8","3.365","238.9","1017.332","28.28","69.14","NAN","0.0"],
    [1562470,"2026-07-07 22:50:00","15180","1.395","250.4","3.136","244.7","1017.332","28.3","68.61","NAN","0.0"],
    [1562471,"2026-07-07 23:00:00","15181","1.6880000000000002","237.4","3.7889999999999997","235.0","1017.317","28.08","70.97","NAN","0.0"],
    [1562472,"2026-07-07 23:10:00","15182","1.087","250.8","3.103","246.6","1017.23","27.92","72.16","NAN","0.0"],
    [1562473,"2026-07-07 23:20:00","15183","1.598","248.8","3.332","233.9","1017.138","27.82","71.3","NAN","0.0"],
    [1562474,"2026-07-07 23:30:00","15184","1.2429999999999999","242.8","2.9730000000000003","233.8","1017.038","27.84","69.94","NAN","0.0"],
    [1562475,"2026-07-07 23:40:00","15185","1.092","242.0","3.7239999999999998","228.5","1016.946","27.86","68.88","NAN","0.0"],
    [1562476,"2026-07-07 23:50:00","15186","1.2819999999999998","234.5","3.071","239.5","1016.923","27.99","63.85","NAN","0.0"],
    [1562477,"2026-07-08 00:00:00","15187","0.9309999999999999","229.7","3.005","234.4","1016.8560000000001","28.15","61.88","NAN","0.0"],
    [1562478,"2026-07-08 00:10:00","15188","0.66","236.3","2.842","208.1","1016.834","28.1","60.14","NAN","0.0"],
    [1562479,"2026-07-08 00:20:00","15189","0.726","240.7","2.5810000000000004","221.8","1016.7289999999999","28.2","57.38","NAN","0.0"],
    [1562480,"2026-07-08 00:30:00","15190","0.894","252.9","2.156","279.3","1016.6489999999999","28.26","55.92","NAN","0.0"],
    [1562481,"2026-07-08 00:40:00","15191","0.8270000000000001","258.3","3.071","259.6","1016.49","28.36","54.15","NAN","0.0"],
    [1562482,"2026-07-08 00:50:00","15192","0.624","203.7","1.535","205.6","1016.316","28.25","54.44","NAN","0.0"],
    [1562483,"2026-07-08 01:00:00","15193","0.41600000000000004","233.9","1.829","248.1","1016.363","27.82","55.45","NAN","0.0"],
    [1562484,"2026-07-08 01:10:00","15194","0.9259999999999999","224.8","2.189","306.6","1016.163","27.98","53.4","NAN","0.0"],
    [1562485,"2026-07-08 01:20:00","15195","0.523","223.1","1.3719999999999999","229.0","1016.2439999999999","27.63","54.62","NAN","0.0"],
    [1562486,"2026-07-08 01:30:00","15196","0.354","123.1","1.045","119.4","1016.0989999999999","27.52","54.69","NAN","0.0"],
    [1562487,"2026-07-08 01:40:00","15197","0.235","271.9","1.176","265.3","1016.0189999999999","27.61","53.87","NAN","0.0"],
    [1562488,"2026-07-08 01:50:00","15198","0.38","181.8","0.98","178.0","1015.71","27.71","54.22","NAN","0.0"],
    [1562489,"2026-07-08 02:00:00","15199","0.441","133.5","1.3719999999999999","114.8","1015.665","27.46","56.14","NAN","0.0"],
    [1562490,"2026-07-08 02:10:00","15200","0.315","176.1","1.013","173.6","1015.658","27.16","56.74","NAN","0.0"],
    [1562491,"2026-07-08 02:20:00","15201","0.314","123.2","0.7190000000000001","85.2","1015.5160000000001","27","59.08","NAN","0.0"],
    [1562492,"2026-07-08 02:30:00","15202","0.35600000000000004","234.5","1.3719999999999999","272.1","1015.419","27.13","55.22","NAN","0.0"],
    [1562493,"2026-07-08 02:40:00","15203","0.436","216.3","1.274","205.8","1015.324","27.66","52.76","NAN","0.0"],
    [1562494,"2026-07-08 02:50:00","15204","0.5489999999999999","219.8","1.339","195.0","1015.2139999999999","27.64","54.13","NAN","0.0"],
    [1562495,"2026-07-08 03:00:00","15205","0.732","239.4","1.601","244.3","1015.2439999999999","27.46","52.73","NAN","0.0"],
    [1562496,"2026-07-08 03:10:00","15206","0.631","224.7","1.666","206.8","1015.2189999999999","27.65","51.15","NAN","0.0"],
    [1562497,"2026-07-08 03:20:00","15207","0.503","247.2","1.47","256.6","1015.227","27.67","50.74","NAN","0.0"],
    [1562498,"2026-07-08 03:30:00","15208","0.335","302.6","1.568","334.0","1015.177","28.31","49.33","NAN","0.0"],
    [1562499,"2026-07-08 03:40:00","15209","0.866","274.4","1.993","280.6","1015.092","28.42","49.27","NAN","0.0"],
    [1562500,"2026-07-08 03:50:00","15210","0.5770000000000001","31.33","1.601","71.08","1015.145","28.26","49.82","NAN","0.0"],
    [1562501,"2026-07-08 04:00:00","15211","0.5379999999999999","70.92","1.307","44.09","1015.128","27.42","53.88","NAN","0.0"],
    [1562502,"2026-07-08 04:10:00","15212","0.524","156.7","1.3719999999999999","147.0","1015.2769999999999","27.1","57.34","NAN","0.0"],
    [1562503,"2026-07-08 04:20:00","15213","0.298","127.1","0.9470000000000001","111.7","1015.217","26.56","60.49","NAN","0.0"],
    [1562504,"2026-07-08 04:30:00","15214","0.193","150.4","0.7509999999999999","140.7","1015.19","26.31","61.16","NAN","0.0"],
    [1562505,"2026-07-08 04:40:00","15215","0.10400000000000001","162.3","0.49","154.8","1015.2769999999999","26.38","61.21","NAN","0.0"],
    [1562506,"2026-07-08 04:50:00","15216","0.032","128.3","0.294","168.9","1015.334","26.28","61.44","NAN","0.0"],
    [1562507,"2026-07-08 05:00:00","15217","0.5589999999999999","169.9","1.078","155.5","1015.4119999999999","26.21","63.38","NAN","0.0"],
    [1562508,"2026-07-08 05:10:00","15218","0.575","143.1","1.535","161.1","1015.558","26.23","62.91","NAN","0.0"],
    [1562509,"2026-07-08 05:20:00","15219","0.516","60.78","1.078","95.2","1015.4010000000001","26.41","60.17","NAN","0.0"],
    [1562510,"2026-07-08 05:30:00","15220","0.364","54.51","0.8170000000000001","13.43","1015.3789999999999","26.9","57.4","NAN","0.0"],
    [1562511,"2026-07-08 05:40:00","15221","0.371","85.7","0.915","110.8","1015.3889999999999","27.25","56.66","NAN","0.0"],
    [1562512,"2026-07-08 05:50:00","15222","0.7170000000000001","74.11","1.307","75.95","1015.3639999999999","27.64","55.14","NAN","0.0"],
    [1562513,"2026-07-08 06:00:00","15223","0.461","133.4","1.078","164.4","1015.4810000000001","27.69","55.23","NAN","0.0"],
    [1562514,"2026-07-08 06:10:00","15224","0.675","132.0","1.209","171.6","1015.503","27.71","54.01","NAN","0.0"],
    [1562515,"2026-07-08 06:20:00","15225","0.841","155.1","1.633","164.9","1015.674","27.45","56.18","NAN","0.0"],
    [1562516,"2026-07-08 06:30:00","15226","0.934","147.0","1.535","121.3","1015.721","27.03","56.37","NAN","0.0"],
    [1562517,"2026-07-08 06:40:00","15227","0.902","128.7","1.535","131.3","1015.7","27.37","53.48","NAN","0.0"],
    [1562518,"2026-07-08 06:50:00","15228","0.85","172.0","1.307","182.1","1015.735","27.51","52.3","NAN","0.0"],
    [1562519,"2026-07-08 07:00:00","15229","0.894","152.9","1.601","180.3","1015.788","27.82","51.01","NAN","0.0"],
    [1562520,"2026-07-08 07:10:00","15230","1.227","141.5","2.0580000000000003","150.8","1015.855","27.89","50.13","NAN","0.0"],
    [1562521,"2026-07-08 07:20:00","15231","1.163","129.5","1.993","106.1","1016.0010000000001","28.28","48.78","NAN","0.0"],
    [1562522,"2026-07-08 07:30:00","15232","1.023","136.3","1.7309999999999999","138.4","1016.041","28.69","48.48","NAN","0.0"],
    [1562523,"2026-07-08 07:40:00","15233","0.787","139.5","1.339","101.4","1015.922","29.45","47.32","NAN","0.0"],
    [1562524,"2026-07-08 07:50:00","15234","0.94","151.9","1.47","148.1","1015.925","30.03","45.77","NAN","0.0"],
    [1562525,"2026-07-08 08:00:00","15235","0.8440000000000001","159.3","1.601","167.3","1015.933","30.71","44.64","NAN","0.0"],
    [1562526,"2026-07-08 08:10:00","15236","1.247","230.6","3.332","232.6","1015.9889999999999","31.67","39.21","NAN","0.0"],
    [1562527,"2026-07-08 08:20:00","15237","1.5519999999999998","231.5","3.005","223.8","1015.96","31.95","36.96","NAN","0.0"],
    [1562528,"2026-07-08 08:30:00","15238","0.618","212.7","1.829","212.8","1015.913","32.92","35.31","NAN","0.0"],
    [1562529,"2026-07-08 08:40:00","15239","1.08","189.8","1.7309999999999999","175.5","1015.832","33.21","34.82","NAN","0.0"],
    [1562530,"2026-07-08 08:50:00","15240","1.085","159.8","1.699","165.5","1015.834","33.14","34.65","NAN","0.0"],
    [1562531,"2026-07-08 09:00:00","15241","1.3230000000000002","165.8","2.417","147.7","1015.914","33.16","36.07","NAN","0.0"],
    [1562532,"2026-07-08 09:10:00","15242","1.328","165.3","2.156","148.6","1015.924","32.96","37.59","NAN","0.0"],
    [1562533,"2026-07-08 09:20:00","15243","1.229","170.6","1.895","182.5","1015.946","33.12","38.53","NAN","0.0"],
    [1562534,"2026-07-08 09:30:00","15244","1.13","170.7","1.601","181.1","1015.8960000000001","33.06","41.39","NAN","0.0"],
    [1562535,"2026-07-08 09:40:00","15245","1.662","119.5","2.548","113.0","1015.8589999999999","32.78","43.45","NAN","0.0"],
    [1562536,"2026-07-08 09:50:00","15246","1.351","147.7","2.417","109.2","1015.819","32.71","44.16","NAN","0.0"],
    [1562537,"2026-07-08 10:00:00","15247","1.4169999999999998","171.6","1.96","165.9","1015.7439999999999","33","41.23","NAN","0.0"],
    [1562538,"2026-07-08 10:10:00","15248","1.46","179.1","2.189","159.0","1015.727","32.96","42.86","NAN","0.0"],
    [1562539,"2026-07-08 10:20:00","15249","1.248","182.0","2.613","149.8","1015.697","33.28","43.7","NAN","0.0"],
    [1562540,"2026-07-08 10:30:00","15250","1.089","199.6","2.221","188.9","1015.697","33.26","44.95","NAN","0.0"],
    [1562541,"2026-07-08 10:40:00","15251","1.524","178.2","2.45","188.1","1015.702","32.9","44.21","NAN","0.0"],
    [1562542,"2026-07-08 10:50:00","15252","1.784","167.0","3.103","147.7","1015.683","33.05","42.28","NAN","0.0"],
    [1562543,"2026-07-08 11:00:00","15253","2.029","169.2","3.267","162.2","1015.693","33.03","41.52","NAN","0.0"],
    [1562544,"2026-07-08 11:10:00","15254","1.723","165.3","2.613","158.4","1015.6460000000001","33.63","37.17","NAN","0.0"],
    [1562545,"2026-07-08 11:20:00","15255","1.3030000000000002","186.2","2.7769999999999997","205.4","1015.597","34.75","30.6","NAN","0.0"],
    [1562546,"2026-07-08 11:30:00","15256","1.355","185.2","2.515","154.8","1015.5219999999999","35.93","24.54","NAN","0.0"],
    [1562547,"2026-07-08 11:40:00","15257","1.235","196.6","2.352","199.9","1015.502","36.34","23.86","NAN","0.0"],
    [1562548,"2026-07-08 11:50:00","15258","1.256","199.2","2.352","197.0","1015.375","36.56","21.82","NAN","0.0"],
    [1562549,"2026-07-08 12:00:00","15259","1.037","198.0","1.96","194.0","1015.321","36.82","20.21","NAN","0.0"],
    [1562550,"2026-07-08 12:10:00","15260","1.072","203.2","2.319","168.1","1015.2280000000001","37.22","18.24","NAN","0.0"],
    [1562551,"2026-07-08 12:20:00","15261","1.328","200.9","2.548","204.5","1015.1360000000001","37.22","17.99","NAN","0.0"],
    [1562552,"2026-07-08 12:30:00","15262","1.7480000000000002","177.7","2.9730000000000003","154.5","1014.947","36.5","20.31","NAN","0.0"],
    [1562553,"2026-07-08 12:40:00","15263","1.34","197.0","2.94","199.8","1014.867","36.17","22.52","NAN","0.0"],
    [1562554,"2026-07-08 12:50:00","15264","1.857","187.5","3.103","175.5","1014.73","36.1","20.29","NAN","0.0"],
    [1562555,"2026-07-08 13:00:00","15265","2.202","185.2","4.018","175.3","1014.696","35.74","20.43","NAN","0.0"],
    [1562556,"2026-07-08 13:10:00","15266","2.344","184.9","3.887","173.9","1014.6030000000001","35.63","21.88","NAN","0.0"],
    [1562557,"2026-07-08 13:20:00","15267","2.2159999999999997","185.3","4.018","184.1","1014.569","35.4","22.93","NAN","0.0"],
    [1562558,"2026-07-08 13:30:00","15268","2.343","169.4","3.495","169.5","1014.5239999999999","34.04","37.75","NAN","0.0"],
    [1562559,"2026-07-08 13:40:00","15269","2.3819999999999997","166.1","3.463","186.1","1014.405","32.56","51.39","NAN","0.0"],
    [1562560,"2026-07-08 13:50:00","15270","2.525","169.5","4.1160000000000005","177.8","1014.3539999999999","31.19","61.85","NAN","0.0"],
    [1562561,"2026-07-08 14:00:00","15271","2.596","167.5","3.822","180.4","1014.2710000000001","31.16","62.82","NAN","0.0"],
    [1562562,"2026-07-08 14:10:00","15272","2.5580000000000003","167.3","3.822","177.2","1014.2230000000001","31.01","64.32","NAN","0.0"],
    [1562563,"2026-07-08 14:20:00","15273","2.244","167.8","4.2139999999999995","180.7","1014.059","31.22","62.74","NAN","0.0"],
    [1562564,"2026-07-08 14:30:00","15274","2.226","166.2","3.267","158.2","1014.0189999999999","31.79","58.76","NAN","0.0"],
    [1562565,"2026-07-08 14:40:00","15275","2.329","166.6","3.365","169.3","1013.8660000000001","31.4","60.8","NAN","0.0"],
    [1562566,"2026-07-08 14:50:00","15276","2.234","167.0","3.5610000000000004","181.5","1013.825","31.33","62.26","NAN","0.0"],
    [1562567,"2026-07-08 15:00:00","15277","2.412","170.0","3.593","168.6","1013.8389999999999","30.81","64.69","NAN","0.0"],
    [1562568,"2026-07-08 15:10:00","15278","2.49","170.9","4.345","182.8","1013.816","30.58","65.69","NAN","0.0"],
    [1562569,"2026-07-08 15:20:00","15279","2.625","167.4","3.985","162.1","1013.806","30.45","66.24","NAN","0.0"],
    [1562570,"2026-07-08 15:30:00","15280","2.228","169.5","3.9530000000000003","177.1","1013.7130000000001","31.35","61.41","NAN","0.0"],
    [1562571,"2026-07-08 15:40:00","15281","1.7369999999999999","177.0","3.5610000000000004","174.2","1013.712","31.36","60.6","NAN","0.0"],
    [1562572,"2026-07-08 15:50:00","15282","1.673","180.5","2.613","173.3","1013.704","31.92","57.71","NAN","0.0"],
    [1562573,"2026-07-08 16:00:00","15283","2.2969999999999997","166.1","3.495","173.6","1013.687","31.42","61.41","NAN","0.0"],
    [1562574,"2026-07-08 16:10:00","15284","2.235","166.2","3.6260000000000003","163.3","1013.655","31","64.32","NAN","0.0"],
    [1562575,"2026-07-08 16:20:00","15285","2.222","169.0","3.855","179.0","1013.5880000000001","30.73","65.5","NAN","0.0"],
    [1562576,"2026-07-08 16:30:00","15286","2.169","172.0","3.0380000000000003","177.6","1013.5930000000001","30.4","66.24","NAN","0.0"],
    [1562577,"2026-07-08 16:40:00","15287","2.01","172.5","3.234","176.7","1013.5889999999999","30.38","66.14","NAN","0.0"],
    [1562578,"2026-07-08 16:50:00","15288","1.95","168.6","3.1689999999999996","174.0","1013.6469999999999","30.68","63.8","NAN","0.0"],
    [1562579,"2026-07-08 17:00:00","15289","1.8519999999999999","169.1","3.005","153.4","1013.72","30.76","63.16","NAN","0.0"],
    [1562580,"2026-07-08 17:10:00","15290","1.7480000000000002","171.8","2.7110000000000003","179.4","1013.711","30.89","62.16","NAN","0.0"],
    [1562581,"2026-07-08 17:20:00","15291","2.142","171.2","3.822","182.4","1013.716","30.69","61.53","NAN","0.0"],
    [1562582,"2026-07-08 17:30:00","15292","1.641","174.9","2.9730000000000003","185.1","1013.709","30.63","62.5","NAN","0.0"],
    [1562583,"2026-07-08 17:40:00","15293","1.53","172.8","2.613","170.8","1013.63","30.43","64.31","NAN","0.0"],
    [1562584,"2026-07-08 17:50:00","15294","1.6219999999999999","169.9","3.234","176.3","1013.54","29.93","65.61","NAN","0.0"],
    [1562585,"2026-07-08 18:00:00","15295","1.389","170.3","2.7439999999999998","172.0","1013.597","29.71","66.66","NAN","0.0"],
    [1562586,"2026-07-08 18:10:00","15296","1.534","168.0","2.352","169.3","1013.595","29.75","67.42","NAN","0.0"],
    [1562587,"2026-07-08 18:20:00","15297","1.484","170.3","2.6460000000000004","174.5","1013.575","29.46","67.52","NAN","0.0"],
    [1562588,"2026-07-08 18:30:00","15298","1.475","168.0","2.45","183.6","1013.4830000000001","29.26","70.22","NAN","0.0"],
    [1562589,"2026-07-08 18:40:00","15299","1.228","158.3","2.156","154.0","1013.47","29","72.3","NAN","0.0"],
    [1562590,"2026-07-08 18:50:00","15300","0.8170000000000001","165.1","1.699","155.1","1013.42","29.08","71.71","NAN","0.0"],
    [1562591,"2026-07-08 19:00:00","15301","1.045","170.3","1.895","149.4","1013.346","28.78","74.24","NAN","0.0"],
    [1562592,"2026-07-08 19:10:00","15302","0.6679999999999999","167.6","1.111","178.2","1013.3660000000001","28.48","76.65","NAN","0.0"],
    [1562593,"2026-07-08 19:20:00","15303","0.213","122.7","0.653","160.9","1013.346","28.47","75.93","NAN","0.0"],
    [1562594,"2026-07-08 19:30:00","15304","0.353","139.7","1.111","134.8","1013.346","28.54","74.2","NAN","0.0"],
    [1562595,"2026-07-08 19:40:00","15305","0.34700000000000003","126.9","0.7190000000000001","113.9","1013.346","28.71","72.27","NAN","0.0"],
    [1562596,"2026-07-08 19:50:00","15306","0.904","212.3","2.94","221.0","1013.3380000000001","28.74","69.82","NAN","0.0"],
    [1562597,"2026-07-08 20:00:00","15307","0.9440000000000001","242.9","2.385","240.8","1013.313","29.67","63.3","NAN","0.0"],
    [1562598,"2026-07-08 20:10:00","15308","0.898","215.3","2.417","244.2","1013.184","30.22","62.36","NAN","0.0"],
    [1562599,"2026-07-08 20:20:00","15309","0.42200000000000004","181.6","1.176","173.7","1013.1089999999999","29.88","60.42","NAN","0.0"],
    [1562600,"2026-07-08 20:30:00","15310","0.479","124.4","0.98","88.9","1013.159","29.56","65.68","NAN","0.0"],
    [1562601,"2026-07-08 20:40:00","15311","0.475","151.1","1.078","109.2","1013.2810000000001","29.1","68.27","NAN","0.0"],
    [1562602,"2026-07-08 20:50:00","15312","0.154","145.9","0.7509999999999999","181.8","1013.331","29.07","68.69","NAN","0.0"],
    [1562603,"2026-07-08 21:00:00","15313","0.484","208.5","1.601","199.3","1013.3530000000001","29.06","68.59","NAN","0.0"],
    [1562604,"2026-07-08 21:10:00","15314","0.789","163.3","1.4369999999999998","178.1","1013.2280000000001","28.51","72.07","NAN","0.0"],
    [1562605,"2026-07-08 21:20:00","15315","0.345","197.2","1.3719999999999999","241.2","1013.247","28.34","74.24","NAN","0.0"],
    [1562606,"2026-07-08 21:30:00","15316","0.752","179.2","1.797","166.5","1013.403","28.37","72.78","NAN","0.0"],
    [1562607,"2026-07-08 21:40:00","15317","0.638","192.3","1.895","171.2","1013.346","28.7","69.11","NAN","0.0"],
    [1562608,"2026-07-08 21:50:00","15318","0.47","189.7","1.47","180.8","1013.346","28.87","70.33","NAN","0.0"],
    [1562609,"2026-07-08 22:00:00","15319","1.5390000000000001","245.5","3.528","263.0","1013.3430000000001","28.85","73.66","NAN","0.0"],
    [1562610,"2026-07-08 22:10:00","15320","1.814","245.0","4.4430000000000005","242.6","1013.346","28.64","77.11","NAN","0.0"],
    [1562611,"2026-07-08 22:20:00","15321","1.966","247.2","3.887","226.5","1013.308","28.49","76.22","NAN","0.0"],
    [1562612,"2026-07-08 22:30:00","15322","1.5419999999999998","235.1","4.1160000000000005","249.5","1013.191","28.57","72.12","NAN","0.0"],
    [1562613,"2026-07-08 22:40:00","15323","1.276","244.5","2.8089999999999997","230.7","1013.187","28.7","69.17","NAN","0.0"],
    [1562614,"2026-07-08 22:50:00","15324","1.5759999999999998","254.3","3.365","248.4","1013.2139999999999","28.8","67.36","NAN","0.0"],
    [1562615,"2026-07-08 23:00:00","15325","1.308","255.2","2.7110000000000003","250.4","1013.1089999999999","28.87","67.69","NAN","0.0"],
    [1562616,"2026-07-08 23:10:00","15326","1.122","250.6","2.9730000000000003","256.3","1013.097","29","65.97","NAN","0.0"],
    [1562617,"2026-07-08 23:20:00","15327","0.762","233.7","1.797","251.5","1013.0939999999999","29.1","67.36","NAN","0.0"],
    [1562618,"2026-07-08 23:30:00","15328","0.10300000000000001","144.7","0.621","159.8","1012.935","29.01","68.69","NAN","0.0"],
    [1562619,"2026-07-08 23:40:00","15329","0.132","110.5","0.653","95.9","1012.847","28.67","69.6","NAN","0.0"],
    [1562620,"2026-07-08 23:50:00","15330","0.262","124.2","0.6859999999999999","96.2","1012.812","28.49","70.28","NAN","0.0"],
    [1562621,"2026-07-09 00:00:00","15331","0.35700000000000004","60.57","1.568","60.78","1012.69","28.26","59.94","NAN","0.0"],
    [1562622,"2026-07-09 00:10:00","15332","0.35200000000000004","32.8","1.5030000000000001","29.55","1012.7280000000001","29.42","36.73","NAN","0.0"],
    [1562623,"2026-07-09 00:20:00","15333","0.488","36.56","1.4369999999999998","7.037999999999999","1012.7280000000001","29.79","32.69","NAN","0.0"],
    [1562624,"2026-07-09 00:30:00","15334","0.052000000000000005","86.3","0.392","62.67","1012.618","29.43","37.18","NAN","0.0"],
    [1562625,"2026-07-09 00:40:00","15335","0.07","79.46","0.49","87.0","1012.434","28.79","42.76","NAN","0.0"],
    [1562626,"2026-07-09 00:50:00","15336","0.107","56.08","0.915","57.2","1012.332","28.96","41.83","NAN","0.0"],
    [1562627,"2026-07-09 01:00:00","15337","0.647","30.13","1.339","20.52","1012.215","28.74","37.62","NAN","0.0"],
    [1562628,"2026-07-09 01:10:00","15338","0.7390000000000001","4.9910000000000005","1.47","29.19","1012.122","29.19","37.63","NAN","0.0"],
    [1562629,"2026-07-09 01:20:00","15339","0.10300000000000001","8.82","0.882","7.755","1012.033","29.31","39.05","NAN","0.0"],
    [1562630,"2026-07-09 01:30:00","15340","0.639","10.18","1.9269999999999998","20.51","1011.916","28.99","40.85","NAN","0.0"],
    [1562631,"2026-07-09 01:40:00","15341","0.44799999999999995","13.28","1.3719999999999999","17.48","1011.8510000000001","29.01","41.1","NAN","0.0"],
    [1562632,"2026-07-09 01:50:00","15342","0.665","12.14","1.633","351.3","1011.816","29.01","39.73","NAN","0.0"],
    [1562633,"2026-07-09 02:00:00","15343","0.7390000000000001","357.2","1.47","356.6","1011.7439999999999","29.19","37.9","NAN","0.0"],
    [1562634,"2026-07-09 02:10:00","15344","1.327","1.739","2.156","3.3960000000000004","1011.6610000000001","29.51","35.71","NAN","0.0"],
    [1562635,"2026-07-09 02:20:00","15345","0.46799999999999997","343.8","1.2409999999999999","352.6","1011.557","29.62","34.93","NAN","0.0"],
    [1562636,"2026-07-09 02:30:00","15346","0.297","24.7","1.601","7.74","1011.4639999999999","29.37","36.71","NAN","0.0"],
    [1562637,"2026-07-09 02:40:00","15347","0.745","5.776","1.666","16.74","1011.355","29.25","34.61","NAN","0.0"],
    [1562638,"2026-07-09 02:50:00","15348","0.48100000000000004","357.4","1.764","351.8","1011.3480000000001","29.29","32.32","NAN","0.0"],
    [1562639,"2026-07-09 03:00:00","15349","0.978","10.2","1.699","10.31","1011.31","29.34","30.56","NAN","0.0"],
    [1562640,"2026-07-09 03:10:00","15350","1.004","7.4879999999999995","1.895","358.3","1011.238","29.14","29.95","NAN","0.0"],
    [1562641,"2026-07-09 03:20:00","15351","1.062","2.872","1.96","15.02","1011.176","29.19","29","NAN","0.0"],
    [1562642,"2026-07-09 03:30:00","15352","1.249","10.11","2.5810000000000004","1.406","1011.078","29.24","27.39","NAN","0.0"],
    [1562643,"2026-07-09 03:40:00","15353","0.9570000000000001","11.6","2.254","7.322","1010.9839999999999","29.3","26.06","NAN","0.0"],
    [1562644,"2026-07-09 03:50:00","15354","1.129","5.5360000000000005","1.96","3.339","1010.934","29.41","24.95","NAN","0.0"],
    [1562645,"2026-07-09 04:00:00","15355","0.7509999999999999","358.7","1.666","11.54","1010.9910000000001","29.62","24.46","NAN","0.0"],
    [1562646,"2026-07-09 04:10:00","15356","0.8059999999999999","0.031","1.601","347.6","1010.9789999999999","29.65","24.42","NAN","0.0"],
    [1562647,"2026-07-09 04:20:00","15357","1.054","1.29","1.764","354.8","1011.029","29.59","24.48","NAN","0.0"],
    [1562648,"2026-07-09 04:30:00","15358","0.935","277.5","3.005","234.5","1011.171","29.19","29.67","NAN","0.0"],
    [1562649,"2026-07-09 04:40:00","15359","0.345","160.3","1.633","203.3","1011.2330000000001","27.87","40.12","NAN","0.0"],
    [1562650,"2026-07-09 04:50:00","15360","0.249","130.6","0.8490000000000001","68.16","1011.196","27.54","40.51","NAN","0.0"],
    [1562651,"2026-07-09 05:00:00","15361","0.39799999999999996","164.9","1.535","156.3","1011.2180000000001","27.59","40.87","NAN","0.0"],
    [1562652,"2026-07-09 05:10:00","15362","0.243","187.6","1.307","197.7","1011.2610000000001","27.54","41.75","NAN","0.0"],
    [1562653,"2026-07-09 05:20:00","15363","0.33899999999999997","186.8","1.176","177.3","1011.35","27.62","43.28","NAN","0.0"],
    [1562654,"2026-07-09 05:30:00","15364","0.223","100.5","0.915","56.43","1011.3530000000001","27.89","43.25","NAN","0.0"],
    [1562655,"2026-07-09 05:40:00","15365","0.396","106.3","1.143","62.96","1011.383","27.63","44.14","NAN","0.0"],
    [1562656,"2026-07-09 05:50:00","15366","0.325","131.0","0.7190000000000001","165.8","1011.487","28.17","41.4","NAN","0.0"],
    [1562657,"2026-07-09 06:00:00","15367","0.179","181.6","0.915","179.3","1011.597","28.55","43.72","NAN","0.0"],
    [1562658,"2026-07-09 06:10:00","15368","0.537","137.7","1.078","175.6","1011.6389999999999","28.66","41.98","NAN","0.0"],
    [1562659,"2026-07-09 06:20:00","15369","0.5660000000000001","117.9","1.4369999999999998","113.4","1011.711","29.31","36.08","NAN","0.0"],
    [1562660,"2026-07-09 06:30:00","15370","0.816","102.4","1.4369999999999998","97.2","1011.7389999999999","29.21","35.42","NAN","0.0"],
    [1562661,"2026-07-09 06:40:00","15371","0.8420000000000001","106.9","1.535","94.6","1011.817","29.29","35.97","NAN","0.0"],
    [1562662,"2026-07-09 06:50:00","15372","0.253","132.5","0.8170000000000001","150.6","1011.829","29.03","36.37","NAN","0.0"],
    [1562663,"2026-07-09 07:00:00","15373","0.527","161.1","1.078","180.2","1011.827","29.25","36.25","NAN","0.0"],
    [1562664,"2026-07-09 07:10:00","15374","0.433","178.8","0.7190000000000001","190.9","1011.8380000000001","29.61","36.83","NAN","0.0"],
    [1562665,"2026-07-09 07:20:00","15375","0.754","172.5","1.3719999999999999","179.0","1011.868","30.15","35.11","NAN","0.0"],
    [1562666,"2026-07-09 07:30:00","15376","0.9470000000000001","141.7","1.339","150.5","1011.929","30.53","32.74","NAN","0.0"],
    [1562667,"2026-07-09 07:40:00","15377","0.735","136.7","1.307","122.3","1011.944","31.05","29.96","NAN","0.0"],
    [1562668,"2026-07-09 07:50:00","15378","0.682","152.4","1.176","159.1","1011.818","31.32","28.43","NAN","0.0"],
    [1562669,"2026-07-09 08:00:00","15379","0.7170000000000001","178.1","1.209","167.8","1011.789","31.97","28.55","NAN","0.0"],
    [1562670,"2026-07-09 08:10:00","15380","1.051","149.9","1.5030000000000001","136.4","1011.779","32.08","27.67","NAN","0.0"],
    [1562671,"2026-07-09 08:20:00","15381","1.093","129.6","1.764","124.0","1011.775","32.19","27.42","NAN","0.0"],
    [1562672,"2026-07-09 08:30:00","15382","1.232","101.8","1.8619999999999999","103.3","1011.7589999999999","33.26","26.08","NAN","0.0"],
    [1562673,"2026-07-09 08:40:00","15383","1.8","99.2","2.7110000000000003","89.8","1011.7439999999999","33.64","24.39","NAN","0.0"],
    [1562674,"2026-07-09 08:50:00","15384","1.659","88.8","2.6460000000000004","90.5","1011.75","33.89","23.97","NAN","0.0"],
    [1562675,"2026-07-09 09:00:00","15385","1.837","104.2","3.1689999999999996","112.1","1011.7280000000001","33.34","25.56","NAN","0.0"],
    [1562676,"2026-07-09 09:10:00","15386","1.859","116.3","2.8089999999999997","116.3","1011.7339999999999","33.01","24.17","NAN","0.0"],
    [1562677,"2026-07-09 09:20:00","15387","1.47","118.7","2.6460000000000004","115.9","1011.745","33.43","24.36","NAN","0.0"],
    [1562678,"2026-07-09 09:30:00","15388","1.551","125.3","2.417","113.8","1011.804","32.75","26.26","NAN","0.0"],
    [1562679,"2026-07-09 09:40:00","15389","1.496","116.2","2.189","109.1","1011.808","33.32","25.66","NAN","0.0"],
    [1562680,"2026-07-09 09:50:00","15390","1.5090000000000001","110.7","2.156","103.0","1011.755","33.38","26.18","NAN","0.0"],
    [1562681,"2026-07-09 10:00:00","15391","1.4509999999999998","124.0","2.0909999999999997","119.1","1011.7360000000001","33.37","27.65","NAN","0.0"],
    [1562682,"2026-07-09 10:10:00","15392","1.119","134.6","1.633","146.5","1011.7639999999999","32.93","28.88","NAN","0.0"],
    [1562683,"2026-07-09 10:20:00","15393","1.2590000000000001","132.3","2.352","152.2","1011.7510000000001","33.68","28.45","NAN","0.0"],
    [1562684,"2026-07-09 10:30:00","15394","1.324","134.2","2.221","144.2","1011.7410000000001","33.82","28.94","NAN","0.0"],
    [1562685,"2026-07-09 10:40:00","15395","1.483","171.6","2.6460000000000004","174.1","1011.7439999999999","33.82","28.75","NAN","0.0"],
    [1562686,"2026-07-09 10:50:00","15396","1.6019999999999999","167.7","2.842","156.1","1011.7410000000001","33.75","28.55","NAN","0.0"],
    [1562687,"2026-07-09 11:00:00","15397","1.75","175.1","3.0380000000000003","159.3","1011.758","33.98","27.77","NAN","0.0"],
    [1562688,"2026-07-09 11:10:00","15398","1.117","191.2","2.123","165.6","1011.693","34.77","27.26","NAN","0.0"],
    [1562689,"2026-07-09 11:20:00","15399","1.473","191.3","2.6460000000000004","186.2","1011.633","34.41","27.45","NAN","0.0"],
    [1562690,"2026-07-09 11:30:00","15400","1.473","186.4","2.907","209.5","1011.596","34.54","27.69","NAN","0.0"],
    [1562691,"2026-07-09 11:40:00","15401","1.679","189.7","3.005","202.8","1011.4939999999999","34.29","27.98","NAN","0.0"],
    [1562692,"2026-07-09 11:50:00","15402","1.704","189.5","3.6260000000000003","182.9","1011.477","34","28.94","NAN","0.0"],
    [1562693,"2026-07-09 12:00:00","15403","1.679","192.8","2.7110000000000003","190.0","1011.3560000000001","33.97","31.27","NAN","0.0"],
    [1562694,"2026-07-09 12:10:00","15404","1.545","196.1","3.1689999999999996","179.8","1011.248","34.27","31.98","NAN","0.0"],
    [1562695,"2026-07-09 12:20:00","15405","1.632","191.4","3.43","184.3","1011.091","33.81","32.11","NAN","0.0"],
    [1562696,"2026-07-09 12:30:00","15406","1.5519999999999998","198.6","2.5810000000000004","165.1","1011.02","34.39","29.8","NAN","0.0"],
    [1562697,"2026-07-09 12:40:00","15407","1.4909999999999999","192.3","3.071","187.4","1010.937","34.45","29.8","NAN","0.0"],
    [1562698,"2026-07-09 12:50:00","15408","2.0580000000000003","187.4","3.495","173.9","1010.8939999999999","33.66","31.33","NAN","0.0"],
    [1562699,"2026-07-09 13:00:00","15409","1.9509999999999998","191.5","3.6910000000000003","178.7","1010.789","33.74","30.86","NAN","0.0"],
    [1562700,"2026-07-09 13:10:00","15410","2.194","177.4","3.593","175.2","1010.768","33.31","33.01","NAN","0.0"],
    [1562701,"2026-07-09 13:20:00","15411","2.106","190.5","3.7239999999999998","201.2","1010.711","33.45","32.6","NAN","0.0"],
    [1562702,"2026-07-09 13:30:00","15412","2.228","181.9","3.593","169.2","1010.6010000000001","32.91","34.37","NAN","0.0"],
    [1562703,"2026-07-09 13:40:00","15413","2.178","189.2","4.475","184.1","1010.535","33.31","34.19","NAN","0.0"],
    [1562704,"2026-07-09 13:50:00","15414","2.043","183.6","4.181","160.2","1010.5169999999999","32.91","36.95","NAN","0.0"],
    [1562705,"2026-07-09 14:00:00","15415","2.036","178.9","3.855","159.3","1010.4989999999999","32.76","38.67","NAN","0.0"],
    [1562706,"2026-07-09 14:10:00","15416","2.218","184.6","4.4430000000000005","171.8","1010.3969999999999","32.74","39.29","NAN","0.0"],
    [1562707,"2026-07-09 14:20:00","15417","2.4619999999999997","165.9","3.7889999999999997","146.6","1010.35","32.06","43.46","NAN","0.0"],
    [1562708,"2026-07-09 14:30:00","15418","2.1790000000000003","168.1","3.6910000000000003","151.6","1010.315","31.85","45.14","NAN","0.0"],
    [1562709,"2026-07-09 14:40:00","15419","2.335","166.9","3.365","151.6","1010.327","31.55","47.18","NAN","0.0"],
    [1562710,"2026-07-09 14:50:00","15420","2.0540000000000003","167.7","3.267","183.6","1010.336","31.55","49.4","NAN","0.0"],
    [1562711,"2026-07-09 15:00:00","15421","2.13","170.1","3.136","167.7","1010.34","31.27","51.67","NAN","0.0"],
    [1562712,"2026-07-09 15:10:00","15422","2.354","165.5","3.6260000000000003","161.7","1010.3389999999999","31.07","52.64","NAN","0.0"],
    [1562713,"2026-07-09 15:20:00","15423","2.4130000000000003","166.9","3.887","158.3","1010.3439999999999","30.96","53.7","NAN","0.0"],
    [1562714,"2026-07-09 15:30:00","15424","2.335","166.6","3.528","168.5","1010.27","30.79","55.92","NAN","0.0"],
    [1562715,"2026-07-09 15:40:00","15425","2.279","163.5","3.463","153.1","1010.212","30.85","56.5","NAN","0.0"],
    [1562716,"2026-07-09 15:50:00","15426","2.28","167.0","3.6910000000000003","151.7","1010.1080000000001","30.88","56.77","NAN","0.0"],
    [1562717,"2026-07-09 16:00:00","15427","2.095","173.2","3.365","154.0","1010.107","30.66","57.18","NAN","0.0"],
    [1562718,"2026-07-09 16:10:00","15428","1.996","164.5","3.397","176.6","1010.1039999999999","30.9","56.28","NAN","0.0"],
    [1562719,"2026-07-09 16:20:00","15429","2.206","170.8","3.463","177.5","1010.097","30.57","56.95","NAN","0.0"],
    [1562720,"2026-07-09 16:30:00","15430","2.237","174.9","3.365","175.2","1010.055","30.25","57.67","NAN","0.0"],
    [1562721,"2026-07-09 16:40:00","15431","1.651","180.7","3.005","172.6","1009.9939999999999","30.37","58.8","NAN","0.0"],
    [1562722,"2026-07-09 16:50:00","15432","1.739","123.9","2.5810000000000004","113.5","1009.98","30.59","59.43","NAN","0.0"],
    [1562723,"2026-07-09 17:00:00","15433","1.6159999999999999","135.4","2.7110000000000003","146.9","1009.965","30.13","61.52","NAN","0.0"],
    [1562724,"2026-07-09 17:10:00","15434","1.511","151.6","2.319","142.0","1009.977","30.11","62.82","NAN","0.0"],
    [1562725,"2026-07-09 17:20:00","15435","1.26","126.0","1.993","118.8","1009.98","30.31","62.36","NAN","0.0"],
    [1562726,"2026-07-09 17:30:00","15436","1.2930000000000001","132.2","2.254","125.3","1009.985","30.08","63.98","NAN","0.0"],
    [1562727,"2026-07-09 17:40:00","15437","1.419","133.4","2.319","139.0","1010.041","29.95","64.11","NAN","0.0"],
    [1562728,"2026-07-09 17:50:00","15438","1.246","136.1","2.287","145.8","1009.987","29.94","61.7","NAN","0.0"],
    [1562729,"2026-07-09 18:00:00","15439","1.371","120.6","2.319","109.6","1009.977","29.91","61.21","NAN","0.0"],
    [1562730,"2026-07-09 18:10:00","15440","1.52","107.1","2.5810000000000004","115.6","1009.99","30.06","55.86","NAN","0.0"],
    [1562731,"2026-07-09 18:20:00","15441","1.6119999999999999","110.8","2.679","115.0","1010.007","30.15","56.48","NAN","0.0"],
    [1562732,"2026-07-09 18:30:00","15442","1.3030000000000002","86.3","2.352","76.5","1009.94","29.79","60.42","NAN","0.0"],
    [1562733,"2026-07-09 18:40:00","15443","1.307","92.7","2.319","95.6","1009.878","29.86","58.24","NAN","0.0"],
    [1562734,"2026-07-09 18:50:00","15444","1.2790000000000001","84.8","2.352","57.46","1009.99","29.84","55.23","NAN","0.0"],
    [1562735,"2026-07-09 19:00:00","15445","1.3219999999999998","95.0","2.0580000000000003","104.6","1010.08","30","50.7","NAN","0.0"],
    [1562736,"2026-07-09 19:10:00","15446","0.903","87.5","1.829","114.3","1010.107","30.04","50.26","NAN","0.0"],
    [1562737,"2026-07-09 19:20:00","15447","0.297","89.1","0.8490000000000001","65.82","1010.107","30.25","46.39","NAN","0.0"],
    [1562738,"2026-07-09 19:30:00","15448","0.165","120.1","0.7190000000000001","100.8","1010.1239999999999","30.31","45.19","NAN","0.0"],
    [1562739,"2026-07-09 19:40:00","15449","0.24100000000000002","143.2","0.6859999999999999","144.9","1010.174","30.14","47.65","NAN","0.0"],
    [1562740,"2026-07-09 19:50:00","15450","0.15","157.0","0.523","130.0","1010.216","29.98","46.26","NAN","0.0"],
    [1562741,"2026-07-09 20:00:00","15451","0.23199999999999998","187.0","0.653","181.8","1010.2689999999999","29.76","45.25","NAN","0.0"],
    [1562742,"2026-07-09 20:10:00","15452","0.055999999999999994","179.6","0.555","184.0","1010.346","29.74","43.31","NAN","0.0"],
    [1562743,"2026-07-09 20:20:00","15453","0.11800000000000001","204.5","0.555","206.4","1010.3530000000001","29.93","42.85","NAN","0.0"],
    [1562744,"2026-07-09 20:30:00","15454","0.259","187.8","1.111","199.8","1010.368","30.03","42.52","NAN","0.0"],
    [1562745,"2026-07-09 20:40:00","15455","0.121","167.7","0.7509999999999999","188.7","1010.4010000000001","30.06","42.72","NAN","0.0"],
    [1562746,"2026-07-09 20:50:00","15456","0.465","183.9","1.111","181.6","1010.4860000000001","29.99","41.79","NAN","0.0"],
    [1562747,"2026-07-09 21:00:00","15457","0.424","181.3","1.143","188.9","1010.4810000000001","29.97","41.36","NAN","0.0"],
    [1562748,"2026-07-09 21:10:00","15458","0.7170000000000001","197.9","1.405","200.2","1010.4780000000001","29.99","40.3","NAN","0.0"],
    [1562749,"2026-07-09 21:20:00","15459","0.835","180.7","1.2409999999999999","178.5","1010.4060000000001","29.82","40.82","NAN","0.0"],
    [1562750,"2026-07-09 21:30:00","15460","1.006","192.0","1.797","203.9","1010.3560000000001","29.75","41.26","NAN","0.0"],
    [1562751,"2026-07-09 21:40:00","15461","0.8390000000000001","188.4","1.2409999999999999","197.8","1010.3389999999999","29.62","41.23","NAN","0.0"],
    [1562752,"2026-07-09 21:50:00","15462","0.847","185.9","1.4369999999999998","178.5","1010.334","29.33","43.1","NAN","0.0"],
    [1562753,"2026-07-09 22:00:00","15463","0.573","178.9","0.915","182.9","1010.3439999999999","29.2","42.87","NAN","0.0"],
    [1562754,"2026-07-09 22:10:00","15464","0.466","172.3","0.8490000000000001","175.2","1010.3560000000001","29.43","40.68","NAN","0.0"],
    [1562755,"2026-07-09 22:20:00","15465","0.528","180.2","1.045","177.6","1010.326","29.34","40.79","NAN","0.0"],
    [1562756,"2026-07-09 22:30:00","15466","0.513","179.7","1.078","182.3","1010.2339999999999","29.18","42.52","NAN","0.0"],
    [1562757,"2026-07-09 22:40:00","15467","0.20199999999999999","181.0","0.784","178.5","1010.1410000000001","29.15","42.37","NAN","0.0"],
    [1562758,"2026-07-09 22:50:00","15468","0.467","206.2","1.078","236.0","1010.082","29.26","40.28","NAN","0.0"],
    [1562759,"2026-07-09 23:00:00","15469","0.809","235.0","1.829","240.2","1010.097","29.57","38.65","NAN","0.0"],
    [1562760,"2026-07-09 23:10:00","15470","0.509","230.3","1.568","236.9","1010.092","29.52","39.72","NAN","0.0"],
    [1562761,"2026-07-09 23:20:00","15471","0.508","248.0","1.535","258.4","1009.885","29.72","38.26","NAN","0.0"],
    [1562762,"2026-07-09 23:30:00","15472","0.634","245.9","1.666","240.7","1009.8580000000001","30.09","36.56","NAN","0.0"],
    [1562763,"2026-07-09 23:40:00","15473","0.40700000000000003","185.6","1.013","265.1","1009.855","29.71","39.99","NAN","0.0"],
    [1562764,"2026-07-09 23:50:00","15474","0.205","166.9","1.045","262.9","1009.778","28.71","42.81","NAN","0.0"],
    [1562765,"2026-07-10 00:00:00","15475","0.574","100.6","1.143","106.7","1009.596","28.6","45.81","NAN","0.0"],
    [1562766,"2026-07-10 00:10:00","15476","0.0","0.0","0.0","0.0","1009.544","28.44","44.36","NAN","0.0"],
    [1562767,"2026-07-10 00:20:00","15477","0.307","116.2","0.7509999999999999","63.21","1009.5060000000001","28.65","43.06","NAN","0.0"],
    [1562768,"2026-07-10 00:30:00","15478","0.045","171.7","0.425","173.5","1009.3739999999999","28.27","44.56","NAN","0.0"],
    [1562769,"2026-07-10 00:40:00","15479","0.155","81.1","0.621","73.07","1009.319","28.2","45.67","NAN","0.0"],
    [1562770,"2026-07-10 00:50:00","15480","0.067","105.4","0.6859999999999999","97.5","1009.11","27.87","48.05","NAN","0.0"],
    [1562771,"2026-07-10 01:00:00","15481","0.07200000000000001","71.49","0.588","60.66","1008.918","27.96","47.04","NAN","0.0"],
    [1562772,"2026-07-10 01:10:00","15482","0.16399999999999998","91.9","0.6859999999999999","56.5","1008.7710000000001","27.9","47.79","NAN","0.0"],
    [1562773,"2026-07-10 01:20:00","15483","0.192","212.4","0.8170000000000001","206.5","1008.6089999999999","27.61","50.37","NAN","0.0"],
    [1562774,"2026-07-10 01:30:00","15484","0.348","196.3","0.784","212.5","1008.6089999999999","27.08","56.76","NAN","0.0"],
    [1562775,"2026-07-10 01:40:00","15485","0.023","95.4","0.294","87.5","1008.502","26.82","58.67","NAN","0.0"],
    [1562776,"2026-07-10 01:50:00","15486","0.405","193.3","0.915","196.2","1008.495","26.61","57.65","NAN","0.0"],
    [1562777,"2026-07-10 02:00:00","15487","0.711","189.3","1.013","189.0","1008.5219999999999","26.49","59.37","NAN","0.0"],
    [1562778,"2026-07-10 02:10:00","15488","0.021","191.1","0.359","189.9","1008.497","26.47","58.45","NAN","0.0"],
    [1562779,"2026-07-10 02:20:00","15489","0.25","210.7","0.915","236.7","1008.51","26.42","57.52","NAN","0.0"],
    [1562780,"2026-07-10 02:30:00","15490","0.67","203.1","1.274","209.4","1008.6089999999999","26.52","58.09","NAN","0.0"],
    [1562781,"2026-07-10 02:40:00","15491","0.449","186.0","1.078","209.5","1008.552","26.53","57.52","NAN","0.0"],
    [1562782,"2026-07-10 02:50:00","15492","0.076","237.9","0.6859999999999999","249.8","1008.495","26.42","55.69","NAN","0.0"],
    [1562783,"2026-07-10 03:00:00","15493","0.062","91.2","0.425","92.8","1008.48","26.45","57.5","NAN","0.0"],
    [1562784,"2026-07-10 03:10:00","15494","0.10800000000000001","187.2","0.49","188.3","1008.487","26.51","57.2","NAN","0.0"],
    [1562785,"2026-07-10 03:20:00","15495","0.188","170.7","0.49","186.0","1008.552","26.61","57.3","NAN","0.0"],
    [1562786,"2026-07-10 03:30:00","15496","0.0","0.0","0.0","0.0","1008.592","26.32","59.9","NAN","0.0"],
    [1562787,"2026-07-10 03:40:00","15497","0.043","48.53","0.555","37.17","1008.612","26.26","62.71","NAN","0.0"],
    [1562788,"2026-07-10 03:50:00","15498","0.627","48.25","1.078","29.51","1008.632","26.35","62.59","NAN","0.0"],
    [1562789,"2026-07-10 04:00:00","15499","0.479","38.0","1.209","10.67","1008.7919999999999","26.55","53.07","NAN","0.0"],
    [1562790,"2026-07-10 04:10:00","15500","0.763","49.4","1.307","33.68","1008.8510000000001","26.49","49.46","NAN","0.0"],
    [1562791,"2026-07-10 04:20:00","15501","0.616","31.02","1.307","29.02","1008.8610000000001","26.48","47.21","NAN","0.0"],
    [1562792,"2026-07-10 04:30:00","15502","0.289","8.19","1.045","28.15","1008.8739999999999","26.64","45.54","NAN","0.0"],
    [1562793,"2026-07-10 04:40:00","15503","0.552","12.19","1.2409999999999999","35.04","1008.924","27","44.14","NAN","0.0"],
    [1562794,"2026-07-10 04:50:00","15504","0.31","15.9","0.7509999999999999","46.23","1009.003","26.95","44.09","NAN","0.0"],
    [1562795,"2026-07-10 05:00:00","15505","0.575","13.85","1.47","1.183","1009.0880000000001","26.78","44.16","NAN","0.0"],
    [1562796,"2026-07-10 05:10:00","15506","0.5529999999999999","34.92","1.47","34.96","1009.145","26.86","43.69","NAN","0.0"],
    [1562797,"2026-07-10 05:20:00","15507","1.03","45.3","2.025","38.12","1009.21","26.92","42.68","NAN","0.0"],
    [1562798,"2026-07-10 05:30:00","15508","1.161","42.11","2.5810000000000004","17.51","1009.357","26.99","42.11","NAN","0.0"],
    [1562799,"2026-07-10 05:40:00","15509","1.001","42.52","2.385","56.39","1009.444","27.07","43.32","NAN","0.0"],
    [1562800,"2026-07-10 05:50:00","15510","0.973","76.65","2.254","63.08","1009.6510000000001","27.23","45.45","NAN","0.0"],
    [1562801,"2026-07-10 06:00:00","15511","1.168","54.14","2.483","33.51","1009.8330000000001","27.4","45.38","NAN","0.0"],
    [1562802,"2026-07-10 06:10:00","15512","1.5619999999999998","43.49","2.6460000000000004","54.59","1009.948","27.33","46.08","NAN","0.0"],
    [1562803,"2026-07-10 06:20:00","15513","1.392","38.47","3.1689999999999996","30.77","1010.105","27.56","46.57","NAN","0.0"],
    [1562804,"2026-07-10 06:30:00","15514","1.31","53.05","3.103","53.04","1010.194","27.63","47.85","NAN","0.0"],
    [1562805,"2026-07-10 06:40:00","15515","1.6159999999999999","47.54","3.855","32.68","1010.329","27.75","48.97","NAN","0.0"],
    [1562806,"2026-07-10 06:50:00","15516","1.675","39.31","3.463","32.83","1010.3560000000001","27.83","49.44","NAN","0.0"],
    [1562807,"2026-07-10 07:00:00","15517","2.211","60.15","4.345","60.46","1010.448","28.01","51.52","NAN","0.0"],
    [1562808,"2026-07-10 07:10:00","15518","2.45","62.75","4.541","66.36","1010.4780000000001","27.52","59.61","NAN","0.0"],
    [1562809,"2026-07-10 07:20:00","15519","2.4130000000000003","62.41","4.769","59.95","1010.4730000000001","27.66","57.58","NAN","0.0"],
    [1562810,"2026-07-10 07:30:00","15520","2.161","59.45","4.018","69.15","1010.556","27.98","53.68","NAN","0.0"],
    [1562811,"2026-07-10 07:40:00","15521","2.073","56.12","3.9530000000000003","68.44","1010.613","28.28","50.84","NAN","0.0"],
    [1562812,"2026-07-10 07:50:00","15522","1.886","76.53","3.495","59.49","1010.6610000000001","28.45","52.58","NAN","0.0"],
    [1562813,"2026-07-10 08:00:00","15523","1.993","79.21","3.463","43.12","1010.7489999999999","28.46","55.51","NAN","0.0"],
    [1562814,"2026-07-10 08:10:00","15524","2.26","62.73","4.867","67.43","1010.7639999999999","28.57","55.28","NAN","0.0"],
    [1562815,"2026-07-10 08:20:00","15525","2.3819999999999997","82.2","4.4430000000000005","64.11","1010.685","28.86","58.24","NAN","0.0"],
    [1562816,"2026-07-10 08:30:00","15526","3.096","85.5","4.606","87.6","1010.674","28.46","67.19","NAN","0.0"],
    [1562817,"2026-07-10 08:40:00","15527","2.839","85.1","4.508","79.09","1010.7719999999999","28.44","71.66","NAN","0.0"],
    [1562818,"2026-07-10 08:50:00","15528","2.872","85.0","4.312","84.4","1010.82","28.52","73.74","NAN","0.0"],
    [1562819,"2026-07-10 09:00:00","15529","2.75","83.8","4.312","90.0","1010.867","28.41","75.55","NAN","0.0"],
    [1562820,"2026-07-10 09:10:00","15530","2.254","87.1","3.593","66.85","1010.9110000000001","28.78","74.85","NAN","0.0"],
    [1562821,"2026-07-10 09:20:00","15531","2.4090000000000003","85.1","3.43","95.0","1010.8989999999999","28.68","75.14","NAN","0.0"],
    [1562822,"2026-07-10 09:30:00","15532","2.292","88.8","3.855","113.8","1010.918","28.96","73.69","NAN","0.0"],
    [1562823,"2026-07-10 09:40:00","15533","2.761","92.6","4.41","92.4","1010.918","28.77","74.82","NAN","0.0"],
    [1562824,"2026-07-10 09:50:00","15534","2.6289999999999996","94.2","5.031000000000001","93.1","1011.0039999999999","28.83","75.36","NAN","0.0"],
    [1562825,"2026-07-10 10:00:00","15535","2.494","93.8","4.802","104.1","1011.084","29.08","75","NAN","0.0"],
    [1562826,"2026-07-10 10:10:00","15536","2.78","88.1","4.345","103.8","1011.0830000000001","28.78","76.83","NAN","0.0"],
    [1562827,"2026-07-10 10:20:00","15537","2.555","84.8","4.933","86.9","1011.0239999999999","29.18","76.5","NAN","0.0"],
    [1562828,"2026-07-10 10:30:00","15538","2.795","75.88","5.912999999999999","55.51","1011.0160000000001","29.07","76.78","NAN","0.0"],
    [1562829,"2026-07-10 10:40:00","15539","2.787","74.37","5.4879999999999995","77.92","1011.078","28.66","78.99","NAN","0.0"],
    [1562830,"2026-07-10 10:50:00","15540","3.3989999999999996","80.9","5.422999999999999","68.93","1011.0260000000001","28.63","79.62","NAN","0.0"],
    [1562831,"2026-07-10 11:00:00","15541","3.738","84.5","6.403","82.4","1010.927","28.44","83","NAN","0.0"],
    [1562832,"2026-07-10 11:10:00","15542","3.6439999999999997","80.8","5.782","90.5","1010.954","28.2","84.9","NAN","0.0"],
    [1562833,"2026-07-10 11:20:00","15543","3.8139999999999996","90.2","6.435","100.9","1010.8889999999999","28.18","85.4","NAN","0.0"],
    [1562834,"2026-07-10 11:30:00","15544","3.925","88.6","5.912999999999999","84.9","1010.8580000000001","27.96","86.6","NAN","0.0"],
    [1562835,"2026-07-10 11:40:00","15545","4.052","85.7","6.042999999999999","75.27","1010.797","28.06","85.9","NAN","0.0"],
    [1562836,"2026-07-10 11:50:00","15546","3.286","86.9","6.501","102.6","1010.784","28.31","84.8","NAN","0.0"],
    [1562837,"2026-07-10 12:00:00","15547","4.191","90.9","6.664","99.2","1010.817","28.09","84.8","NAN","0.0"],
    [1562838,"2026-07-10 12:10:00","15548","3.898","90.7","6.468","79.72","1010.7919999999999","28.15","84.1","NAN","0.0"],
    [1562839,"2026-07-10 12:20:00","15549","3.8360000000000003","88.3","6.272","102.9","1010.717","28.07","83.5","NAN","0.0"],
    [1562840,"2026-07-10 12:30:00","15550","3.3360000000000003","87.5","5.912999999999999","82.0","1010.819","28.29","81.2","NAN","0.0"],
    [1562841,"2026-07-10 12:40:00","15551","2.733","76.27","4.9","74.09","1010.852","28.56","79.09","NAN","0.0"],
    [1562842,"2026-07-10 12:50:00","15552","2.7460000000000004","91.9","4.704","89.7","1010.8489999999999","28.76","77.85","NAN","0.0"],
    [1562843,"2026-07-10 13:00:00","15553","2.821","95.8","4.998","108.4","1010.9119999999999","28.68","76.31","NAN","0.0"],
    [1562844,"2026-07-10 13:10:00","15554","3.3139999999999996","104.6","5.7170000000000005","108.7","1011.091","28.53","77.04","NAN","0.0"],
    [1562845,"2026-07-10 13:20:00","15555","2.761","92.9","5.749","115.8","1011.0060000000001","29.39","75.03","NAN","0.0"],
    [1562846,"2026-07-10 13:30:00","15556","2.888","83.4","5.1610000000000005","70.28","1010.9110000000001","28.84","77.17","NAN","0.0"],
    [1562847,"2026-07-10 13:40:00","15557","3.968","86.4","6.042999999999999","96.4","1010.832","28.06","77.42","NAN","0.0"],
    [1562848,"2026-07-10 13:50:00","15558","3.199","96.2","5.455","73.03","1010.9019999999999","27.99","79.36","NAN","0.0"],
    [1562849,"2026-07-10 14:00:00","15559","3.14","98.1","6.239","113.0","1011.051","27.81","81.6","NAN","0.0"],
    [1562850,"2026-07-10 14:10:00","15560","2.88","97.1","5.129","69.19","1011.086","27.75","81","NAN","0.0"],
    [1562851,"2026-07-10 14:20:00","15561","2.87","79.84","5.357","58.25","1010.826","27.46","81.7","NAN","0.0"],
    [1562852,"2026-07-10 14:30:00","15562","3.057","81.5","5.455","66.58","1010.553","27.23","81.4","NAN","0.0"],
    [1562853,"2026-07-10 14:40:00","15563","3.8080000000000003","76.6","6.957999999999999","83.7","1009.9580000000001","27.05","82.2","NAN","0.0"],
    [1562854,"2026-07-10 14:50:00","15564","2.98","77.69","7.4479999999999995","67.09","1009.7180000000001","27.12","83.2","NAN","0.0"],
    [1562855,"2026-07-10 15:00:00","15565","3.773","86.9","6.468","64.77","1010.293","27.04","84.3","NAN","0.0"],
    [1562856,"2026-07-10 15:10:00","15566","3.91","88.7","6.239","116.8","1010.4760000000001","27.11","83.4","NAN","0.0"],
    [1562857,"2026-07-10 15:20:00","15567","2.7710000000000004","87.0","5.129","88.4","1010.7139999999999","27.7","80.4","NAN","0.0"],
    [1562858,"2026-07-10 15:30:00","15568","2.86","78.81","4.802","73.66","1010.508","27.89","76.6","NAN","0.0"],
    [1562859,"2026-07-10 15:40:00","15569","3.6460000000000004","86.5","6.109","107.8","1010.3710000000001","27.87","74.02","NAN","0.0"],
    [1562860,"2026-07-10 15:50:00","15570","3.645","91.6","6.239","99.1","1010.4810000000001","27.46","75.85","NAN","0.0"],
    [1562861,"2026-07-10 16:00:00","15571","3.2889999999999997","87.9","5.194","84.5","1010.528","27.61","75.79","NAN","0.0"],
    [1562862,"2026-07-10 16:10:00","15572","3.054","85.0","5.847","105.5","1010.556","27.39","76.68","NAN","0.0"],
    [1562863,"2026-07-10 16:20:00","15573","2.265","71.4","4.181","70.12","1010.692","27.25","77.11","NAN","0.0"],
    [1562864,"2026-07-10 16:30:00","15574","3.02","79.76","5.455","102.5","1010.393","26.86","79.33","NAN","0.0"],
    [1562865,"2026-07-10 16:40:00","15575","3.1180000000000003","80.6","5.39","55.04","1010.388","27.01","79.8","NAN","0.0"],
    [1562866,"2026-07-10 16:50:00","15576","2.909","74.46","5.553","73.36","1010.14","26.77","82.1","NAN","0.0"],
    [1562867,"2026-07-10 17:00:00","15577","2.472","84.1","4.2139999999999995","84.0","1010.5360000000001","26.54","84","NAN","0.0"],
    [1562868,"2026-07-10 17:10:00","15578","2.289","77.94","4.4430000000000005","107.4","1010.845","26.28","86.8","NAN","0.0"],
    [1562869,"2026-07-10 17:20:00","15579","1.617","84.9","3.201","85.6","1011.039","26.29","87.3","NAN","0.0"],
    [1562870,"2026-07-10 17:30:00","15580","1.6059999999999999","42.87","3.43","27.82","1011.073","26.35","87.1","NAN","0.0"],
    [1562871,"2026-07-10 17:40:00","15581","1.76","53.14","3.92","20.21","1010.862","26.26","87","NAN","0.0"],
    [1562872,"2026-07-10 17:50:00","15582","1.98","48.09","4.2139999999999995","47.94","1010.7669999999999","26.25","86.6","NAN","0.0"],
    [1562873,"2026-07-10 18:00:00","15583","2.024","77.7","4.867","112.0","1010.944","26.22","86.5","NAN","0.0"],
    [1562874,"2026-07-10 18:10:00","15584","1.794","74.54","3.887","113.7","1010.7869999999999","26.17","86.9","NAN","0.0"],
    [1562875,"2026-07-10 18:20:00","15585","2.656","83.0","5.422999999999999","73.58","1010.812","26.17","86.2","NAN","0.0"],
    [1562876,"2026-07-10 18:30:00","15586","3.0069999999999997","71.72","5.325","93.9","1010.817","25.99","86.5","NAN","0.0"],
    [1562877,"2026-07-10 18:40:00","15587","2.634","86.6","5.39","59.26","1010.877","25.97","85.9","NAN","0.0"],
    [1562878,"2026-07-10 18:50:00","15588","2.414","80.5","4.933","93.9","1010.909","26.1","86.3","NAN","0.0"],
    [1562879,"2026-07-10 19:00:00","15589","1.733","70.55","3.495","74.69","1010.8589999999999","25.97","86.4","NAN","0.0"],
    [1562880,"2026-07-10 19:10:00","15590","1.804","67.59","3.7239999999999998","29.53","1010.8539999999999","26.1","85.6","NAN","0.0"],
    [1562881,"2026-07-10 19:20:00","15591","2.168","45.2","4.279","29.13","1010.867","25.96","86.1","NAN","0.0"],
    [1562882,"2026-07-10 19:30:00","15592","2.124","42.33","4.671","28.9","1011.0939999999999","25.79","86.7","NAN","0.0"],
    [1562883,"2026-07-10 19:40:00","15593","1.679","53.41","3.397","38.61","1011.3330000000001","25.8","87","NAN","0.0"],
    [1562884,"2026-07-10 19:50:00","15594","1.9809999999999999","54.15","3.593","32.3","1011.425","25.81","87.2","NAN","0.0"],
    [1562885,"2026-07-10 20:00:00","15595","1.714","52.17","3.6260000000000003","62.4","1011.557","25.63","87.9","NAN","0.0"],
    [1562886,"2026-07-10 20:10:00","15596","1.8519999999999999","66.55","3.7239999999999998","59.37","1011.49","25.58","87","NAN","0.0"],
    [1562887,"2026-07-10 20:20:00","15597","2.134","73.02","3.887","74.81","1011.505","25.58","87","NAN","0.0"],
    [1562888,"2026-07-10 20:30:00","15598","1.476","48.01","4.018","26.39","1011.682","25.48","87.4","NAN","0.0"],
    [1562889,"2026-07-10 20:40:00","15599","1.6669999999999998","76.93","4.737","85.0","1011.8480000000001","25.43","87.2","NAN","0.0"],
    [1562890,"2026-07-10 20:50:00","15600","2.154","83.4","3.985","59.96","1011.9060000000001","25.54","87.1","NAN","0.0"],
    [1562891,"2026-07-10 21:00:00","15601","2.5140000000000002","86.4","4.737","78.44","1011.956","25.56","86.9","NAN","0.0"],
    [1562892,"2026-07-10 21:10:00","15602","1.858","85.4","3.495","89.3","1012.1","25.64","87.4","NAN","0.0"],
    [1562893,"2026-07-10 21:20:00","15603","1.7890000000000001","81.6","3.528","98.9","1012.03","25.73","87.4","NAN","0.0"],
    [1562894,"2026-07-10 21:30:00","15604","1.97","70.39","3.985","59.31","1012.1030000000001","25.65","87.5","NAN","0.0"],
    [1562895,"2026-07-10 21:40:00","15605","1.625","74.35","3.92","75.54","1012.215","25.65","87.7","NAN","0.0"],
    [1562896,"2026-07-10 21:50:00","15606","1.791","80.5","3.495","80.6","1012.225","25.66","87.3","NAN","0.0"],
    [1562897,"2026-07-10 22:00:00","15607","2.145","86.1","4.475","114.7","1012.1569999999999","25.65","87.1","NAN","0.0"],
    [1562898,"2026-07-10 22:10:00","15608","1.84","82.0","3.103","88.9","1012.207","25.57","86.8","NAN","0.0"],
    [1562899,"2026-07-10 22:20:00","15609","2.168","72.14","5.129","68.26","1012.177","25.55","87.1","NAN","0.0"],
    [1562900,"2026-07-10 22:30:00","15610","2.1069999999999998","72.67","4.4430000000000005","62.47","1012.312","25.44","87.3","NAN","0.0"],
    [1562901,"2026-07-10 22:40:00","15611","1.946","68.43","4.508","62.41","1012.2389999999999","25.47","86.9","NAN","0.0"],
    [1562902,"2026-07-10 22:50:00","15612","2.035","65.87","4.965","63.18","1012.1","25.49","87.3","NAN","0.0"],
    [1562903,"2026-07-10 23:00:00","15613","2.206","73.86","4.9","64.02","1012.07","25.5","87","NAN","0.0"],
    [1562904,"2026-07-10 23:10:00","15614","2.531","72.49","4.965","75.41","1011.9730000000001","25.53","86.7","NAN","0.0"],
    [1562905,"2026-07-10 23:20:00","15615","2.0140000000000002","78.93","4.377","62.2","1011.99","25.6","86.6","NAN","0.0"],
    [1562906,"2026-07-10 23:30:00","15616","3.111","71.75","5.39","87.4","1011.8330000000001","25.57","86.6","NAN","0.0"],
    [1562907,"2026-07-10 23:40:00","15617","2.923","77.16","5.422999999999999","70.71","1011.7660000000001","25.52","87.5","NAN","0.0"],
    [1562908,"2026-07-10 23:50:00","15618","1.807","78.35","3.92","108.3","1011.8860000000001","25.69","87.4","NAN","0.0"],
    [1562909,"2026-07-11 00:00:00","15619","3.319","81.1","6.337000000000001","67.93","1011.763","25.68","88","NAN","0.0"],
    [1562910,"2026-07-11 00:10:00","15620","3.86","74.85","6.86","75.83","1011.559","25.51","87.9","NAN","0.0"],
    [1562911,"2026-07-11 00:20:00","15621","3.545","77.54","6.403","70.21","1011.405","25.44","88.5","NAN","0.0"],
    [1562912,"2026-07-11 00:30:00","15622","3.2689999999999997","76.27","6.239","69.58","1011.36","25.39","89","NAN","0.0"],
    [1562913,"2026-07-11 00:40:00","15623","3.384","75.55","6.011","71.4","1011.35","25.42","89.6","NAN","0.0"],
    [1562914,"2026-07-11 00:50:00","15624","4.148","77.66","7.252000000000001","68.77","1011.243","25.3","89","NAN","0.0"],
    [1562915,"2026-07-11 01:00:00","15625","2.489","77.45","6.305","77.2","1011.341","25.28","89.6","NAN","0.0"],
    [1562916,"2026-07-11 01:10:00","15626","2.0469999999999997","75.45","4.475","91.0","1011.557","25.38","88.9","NAN","0.0"],
    [1562917,"2026-07-11 01:20:00","15627","1.5390000000000001","69.74","3.495","65.94","1011.686","25.41","87.4","NAN","0.0"],
    [1562918,"2026-07-11 01:30:00","15628","2.6439999999999997","78.18","6.042999999999999","71.32","1011.627","25.49","85.8","NAN","0.0"],
    [1562919,"2026-07-11 01:40:00","15629","2.532","79.7","4.737","68.37","1011.659","25.5","86","NAN","0.0"],
    [1562920,"2026-07-11 01:50:00","15630","2.546","84.3","4.345","60.44","1011.796","25.48","86.4","NAN","0.0"],
    [1562921,"2026-07-11 02:00:00","15631","2.928","86.8","6.011","76.67","1011.6669999999999","25.41","86.4","NAN","0.0"],
    [1562922,"2026-07-11 02:10:00","15632","3.0260000000000002","70.41","6.403","63.49","1011.7439999999999","25.27","87.1","NAN","0.0"],
    [1562923,"2026-07-11 02:20:00","15633","3.242","82.3","5.945","104.8","1011.7810000000001","25.22","88.4","NAN","0.0"],
    [1562924,"2026-07-11 02:30:00","15634","3.82","72.51","7.023","80.3","1011.679","25.14","88.8","NAN","0.0"],
    [1562925,"2026-07-11 02:40:00","15635","2.917","72.91","5.586","102.1","1011.674","25.12","89.1","NAN","0.0"],
    [1562926,"2026-07-11 02:50:00","15636","2.552","82.2","7.056","71.19","1011.8510000000001","25.1","88.3","NAN","0.0"],
    [1562927,"2026-07-11 03:00:00","15637","3.057","76.96","6.435","89.3","1011.916","25.06","86.4","NAN","0.0"],
    [1562928,"2026-07-11 03:10:00","15638","3.012","80.1","4.9","77.92","1011.908","25.07","85.9","NAN","0.0"],
    [1562929,"2026-07-11 03:20:00","15639","3.426","82.3","7.6770000000000005","60.26","1011.9060000000001","24.95","86.1","NAN","0.0"],
    [1562930,"2026-07-11 03:30:00","15640","3.985","84.6","6.599","65.71","1011.9910000000001","24.92","86.1","NAN","0.0"],
    [1562931,"2026-07-11 03:40:00","15641","3.674","82.0","6.86","54.13","1012.11","24.88","85.9","NAN","0.0"],
    [1562932,"2026-07-11 03:50:00","15642","2.134","74.64","5.39","90.1","1012.17","24.92","86","NAN","0.0"],
    [1562933,"2026-07-11 04:00:00","15643","2.171","70.46","4.475","90.3","1012.334","24.9","85.4","NAN","0.0"],
    [1562934,"2026-07-11 04:10:00","15644","2.316","72.82","4.704","63.62","1012.227","24.85","85.1","NAN","0.0"],
    [1562935,"2026-07-11 04:20:00","15645","2.951","69.88","6.37","77.88","1012.105","24.88","85","NAN","0.0"],
    [1562936,"2026-07-11 04:30:00","15646","2.088","66.9","6.631","102.8","1012.232","24.98","84.6","NAN","0.0"],
    [1562937,"2026-07-11 04:40:00","15647","1.9369999999999998","51.92","4.083","57.31","1012.227","24.91","85.5","NAN","0.0"],
    [1562938,"2026-07-11 04:50:00","15648","1.8730000000000002","49.62","6.435","30.41","1012.2869999999999","24.88","85.1","NAN","0.0"],
    [1562939,"2026-07-11 05:00:00","15649","2.142","49.07","4.247","24.98","1012.122","24.88","84","NAN","0.0"],
    [1562940,"2026-07-11 05:10:00","15650","1.565","47.24","3.7569999999999997","58.53","1012.25","25.01","83.5","NAN","0.0"],
    [1562941,"2026-07-11 05:20:00","15651","1.7590000000000001","44.13","3.397","47.65","1012.3389999999999","25.03","83.3","NAN","0.0"],
    [1562942,"2026-07-11 05:30:00","15652","0.99","47.91","2.0580000000000003","359.5","1012.3539999999999","25.07","82.9","NAN","0.0"],
    [1562943,"2026-07-11 05:40:00","15653","1.548","49.02","2.907","56.38","1012.3489999999999","25.12","82.4","NAN","0.0"],
    [1562944,"2026-07-11 05:50:00","15654","1.494","60.91","3.822","70.17","1012.319","25.39","81","NAN","0.0"],
    [1562945,"2026-07-11 06:00:00","15655","1.574","80.1","3.103","63.04","1012.26","25.71","79.38","NAN","0.0"],
    [1562946,"2026-07-11 06:10:00","15656","1.446","56.89","2.907","35.17","1012.447","25.94","78.28","NAN","0.0"],
    [1562947,"2026-07-11 06:20:00","15657","1.764","61.21","3.397","8.16","1012.698","25.88","78.19","NAN","0.0"],
    [1562948,"2026-07-11 06:30:00","15658","2.094","73.52","3.7889999999999997","98.4","1012.823","25.74","78.4","NAN","0.0"],
    [1562949,"2026-07-11 06:40:00","15659","2.177","87.5","3.397","96.9","1012.815","25.87","77.74","NAN","0.0"],
    [1562950,"2026-07-11 06:50:00","15660","1.9","74.22","3.659","87.5","1012.711","25.75","78.94","NAN","0.0"],
    [1562951,"2026-07-11 07:00:00","15661","1.486","68.86","3.267","58.06","1012.82","25.79","79.32","NAN","0.0"],
    [1562952,"2026-07-11 07:10:00","15662","1.62","50.34","3.332","22.95","1012.763","25.79","79.73","NAN","0.0"],
    [1562953,"2026-07-11 07:20:00","15663","1.732","81.2","3.463","93.1","1012.7280000000001","26.14","78.63","NAN","0.0"],
    [1562954,"2026-07-11 07:30:00","15664","1.849","71.63","3.7239999999999998","107.6","1012.783","26.61","76.74","NAN","0.0"],
    [1562955,"2026-07-11 07:40:00","15665","1.115","56.9","2.6460000000000004","22.26","1012.845","27.17","74.06","NAN","0.0"],
    [1562956,"2026-07-11 07:50:00","15666","1.743","82.9","3.528","78.07","1012.8689999999999","27.41","70.54","NAN","0.0"],
    [1562957,"2026-07-11 08:00:00","15667","2.846","89.3","4.573","88.5","1012.83","27.13","70.3","NAN","0.0"],
    [1562958,"2026-07-11 08:10:00","15668","2.832","84.5","4.704","56.67","1012.835","27","71.24","NAN","0.0"],
    [1562959,"2026-07-11 08:20:00","15669","2.2680000000000002","82.5","4.279","89.2","1012.8330000000001","26.98","73.24","NAN","0.0"],
    [1562960,"2026-07-11 08:30:00","15670","2.5380000000000003","85.7","4.671","64.02","1012.967","27.26","70.7","NAN","0.0"],
    [1562961,"2026-07-11 08:40:00","15671","3.281","80.4","5.39","68.47","1012.931","27.25","71.18","NAN","0.0"],
    [1562962,"2026-07-11 08:50:00","15672","2.861","85.3","5.194","105.0","1012.8989999999999","27.59","71.03","NAN","0.0"],
    [1562963,"2026-07-11 09:00:00","15673","3.201","84.8","5.815","96.8","1012.8589999999999","27.74","70.92","NAN","0.0"],
    [1562964,"2026-07-11 09:10:00","15674","3.6260000000000003","91.5","5.619","90.0","1012.8580000000001","27.95","69.88","NAN","0.0"],
    [1562965,"2026-07-11 09:20:00","15675","2.5869999999999997","83.6","4.802","94.2","1012.834","28.52","67.65","NAN","0.0"],
    [1562966,"2026-07-11 09:30:00","15676","3.159","95.3","6.042999999999999","99.9","1012.977","28.56","67.99","NAN","0.0"],
    [1562967,"2026-07-11 09:40:00","15677","2.94","88.8","5.815","107.6","1013.0039999999999","28.52","69.36","NAN","0.0"],
    [1562968,"2026-07-11 09:50:00","15678","3.5060000000000002","89.7","6.403","102.1","1013.0160000000001","28.45","68.95","NAN","0.0"],
    [1562969,"2026-07-11 10:00:00","15679","3.2239999999999998","90.4","6.305","113.3","1013.0930000000001","28.51","68.88","NAN","0.0"],
    [1562970,"2026-07-11 10:10:00","15680","2.8289999999999997","94.6","5.096","100.4","1013.158","28.72","68.85","NAN","0.0"],
    [1562971,"2026-07-11 10:20:00","15681","2.966","94.7","6.5329999999999995","70.88","1013.1189999999999","28.84","68.65","NAN","0.0"],
    [1562972,"2026-07-11 10:30:00","15682","2.835","93.7","5.292000000000001","56.15","1013.1560000000001","28.72","70.91","NAN","0.0"],
    [1562973,"2026-07-11 10:40:00","15683","3.577","89.4","6.1739999999999995","97.8","1013.155","28.75","69.35","NAN","0.0"],
    [1562974,"2026-07-11 10:50:00","15684","3.531","105.6","6.141","116.7","1013.329","28.59","69.78","NAN","0.0"],
    [1562975,"2026-07-11 11:00:00","15685","3.367","103.0","6.925","110.2","1013.347","28.65","70.61","NAN","0.0"],
    [1562976,"2026-07-11 11:10:00","15686","3.1630000000000003","105.2","5.945","109.5","1013.3610000000001","28.73","70.29","NAN","0.0"],
    [1562977,"2026-07-11 11:20:00","15687","3.617","101.8","7.121","104.2","1013.418","28.61","71.2","NAN","0.0"],
    [1562978,"2026-07-11 11:30:00","15688","2.9730000000000003","99.1","6.011","98.4","1013.5039999999999","28.9","70.15","NAN","0.0"],
    [1562979,"2026-07-11 11:40:00","15689","3.5580000000000003","99.8","7.0889999999999995","101.3","1013.566","28.57","73.01","NAN","0.0"],
    [1562980,"2026-07-11 11:50:00","15690","3.616","104.0","6.795","109.1","1013.576","28.52","73.84","NAN","0.0"],
    [1562981,"2026-07-11 12:00:00","15691","3.3369999999999997","105.7","5.684","108.3","1013.573","28.41","75.18","NAN","0.0"],
    [1562982,"2026-07-11 12:10:00","15692","3.667","115.2","6.697","111.9","1013.572","28.44","74.09","NAN","0.0"],
    [1562983,"2026-07-11 12:20:00","15693","3.569","102.2","5.782","113.7","1013.403","28.21","75.11","NAN","0.0"],
    [1562984,"2026-07-11 12:30:00","15694","3.383","92.6","7.415","72.87","1013.378","28.49","74.04","NAN","0.0"],
    [1562985,"2026-07-11 12:40:00","15695","3.716","104.0","7.023","102.4","1013.418","28.29","77.29","NAN","0.0"],
    [1562986,"2026-07-11 12:50:00","15696","3.572","98.9","6.042999999999999","106.0","1013.453","27.91","78.62","NAN","0.0"],
    [1562987,"2026-07-11 13:00:00","15697","4.08","104.3","7.252000000000001","119.0","1013.425","28.21","76.32","NAN","0.0"],
    [1562988,"2026-07-11 13:10:00","15698","3.4739999999999998","103.4","6.37","117.6","1013.4760000000001","28.08","76.86","NAN","0.0"],
    [1562989,"2026-07-11 13:20:00","15699","3.443","107.3","6.435","107.7","1013.4730000000001","28.17","76.92","NAN","0.0"],
    [1562990,"2026-07-11 13:30:00","15700","3.2910000000000004","99.5","5.521","121.7","1013.4580000000001","28.22","77.45","NAN","0.0"],
    [1562991,"2026-07-11 13:40:00","15701","3.199","87.6","5.2589999999999995","88.9","1013.413","28.32","77.25","NAN","0.0"],
    [1562992,"2026-07-11 13:50:00","15702","3.1189999999999998","100.7","5.619","108.3","1013.3810000000001","28.21","78","NAN","0.0"],
    [1562993,"2026-07-11 14:00:00","15703","3.0860000000000003","96.2","5.325","109.1","1013.3939999999999","28.17","78.64","NAN","0.0"],
    [1562994,"2026-07-11 14:10:00","15704","3.117","87.5","6.141","102.2","1013.332","28.13","77.95","NAN","0.0"],
    [1562995,"2026-07-11 14:20:00","15705","2.878","95.1","5.292000000000001","98.6","1013.314","28.27","77.53","NAN","0.0"],
    [1562996,"2026-07-11 14:30:00","15706","3.1510000000000002","98.2","5.619","75.0","1013.26","27.93","78.29","NAN","0.0"],
    [1562997,"2026-07-11 14:40:00","15707","3.05","92.7","7.121","103.3","1013.2180000000001","27.69","79.59","NAN","0.0"],
    [1562998,"2026-07-11 14:50:00","15708","2.9189999999999996","92.8","5.063","116.5","1013.095","27.92","77.97","NAN","0.0"],
    [1562999,"2026-07-11 15:00:00","15709","2.926","102.6","5.847","113.6","1013.049","27.53","79.51","NAN","0.0"],
    [1563000,"2026-07-11 15:10:00","15710","3.02","93.7","5.063","94.7","1012.957","27.83","78.6","NAN","0.0"],
    [1563001,"2026-07-11 15:20:00","15711","3.0210000000000004","88.7","4.704","90.8","1012.929","27.78","78.46","NAN","0.0"],
    [1563002,"2026-07-11 15:30:00","15712","2.978","106.7","4.671","96.3","1012.922","27.63","79.02","NAN","0.0"],
    [1563003,"2026-07-11 15:40:00","15713","2.67","105.8","5.2589999999999995","107.8","1012.847","27.72","78.31","NAN","0.0"],
    [1563004,"2026-07-11 15:50:00","15714","3.065","104.0","5.096","102.0","1012.841","27.48","79.72","NAN","0.0"],
    [1563005,"2026-07-11 16:00:00","15715","2.905","107.4","5.2589999999999995","113.4","1012.845","27.22","81","NAN","0.0"],
    [1563006,"2026-07-11 16:10:00","15716","3.083","112.7","5.129","102.4","1012.847","27.46","79.54","NAN","0.0"],
    [1563007,"2026-07-11 16:20:00","15717","2.371","94.9","4.769","118.4","1012.845","27.46","79.62","NAN","0.0"],
    [1563008,"2026-07-11 16:30:00","15718","2.772","103.5","5.1610000000000005","107.8","1012.85","27.4","80.2","NAN","0.0"],
    [1563009,"2026-07-11 16:40:00","15719","2.309","94.9","4.051","107.9","1012.847","27.53","80","NAN","0.0"],
    [1563010,"2026-07-11 16:50:00","15720","2.362","88.0","4.377","104.0","1012.8430000000001","27.4","80.3","NAN","0.0"],
    [1563011,"2026-07-11 17:00:00","15721","2.443","84.3","3.92","79.38","1012.852","27.09","81.8","NAN","0.0"],
    [1563012,"2026-07-11 17:10:00","15722","2.136","106.8","3.985","90.8","1012.957","27.08","82.3","NAN","0.0"],
    [1563013,"2026-07-11 17:20:00","15723","1.81","92.0","3.6910000000000003","92.8","1012.922","26.91","83.1","NAN","0.0"],
    [1563014,"2026-07-11 17:30:00","15724","2.2359999999999998","107.7","3.985","101.5","1013.015","26.77","83.8","NAN","0.0"],
    [1563015,"2026-07-11 17:40:00","15725","1.999","85.4","4.181","94.0","1013.002","26.92","83.9","NAN","0.0"],
    [1563016,"2026-07-11 17:50:00","15726","1.8840000000000001","85.8","4.312","108.3","1012.89","26.96","83.6","NAN","0.0"],
    [1563017,"2026-07-11 18:00:00","15727","1.777","67.57","3.365","53.01","1012.855","26.68","84.7","NAN","0.0"],
    [1563018,"2026-07-11 18:10:00","15728","2.2119999999999997","93.7","3.822","94.7","1012.96","26.83","83.7","NAN","0.0"],
    [1563019,"2026-07-11 18:20:00","15729","1.8769999999999998","82.1","3.855","111.4","1013.084","26.76","84.1","NAN","0.0"],
    [1563020,"2026-07-11 18:30:00","15730","2.225","80.4","3.855","86.7","1013.102","26.66","85","NAN","0.0"],
    [1563021,"2026-07-11 18:40:00","15731","1.965","75.68","3.463","87.8","1013.206","26.45","86.1","NAN","0.0"],
    [1563022,"2026-07-11 18:50:00","15732","1.868","74.87","3.071","70.05","1013.316","26.5","85.7","NAN","0.0"],
    [1563023,"2026-07-11 19:00:00","15733","1.5919999999999999","78.94","3.071","92.6","1013.4730000000001","26.42","86.4","NAN","0.0"],
    [1563024,"2026-07-11 19:10:00","15734","1.3330000000000002","86.0","3.0380000000000003","97.8","1013.39","26.59","85.8","NAN","0.0"],
    [1563025,"2026-07-11 19:20:00","15735","1.8","79.81","3.103","88.1","1013.363","26.4","86.5","NAN","0.0"],
    [1563026,"2026-07-11 19:30:00","15736","2.116","87.3","3.6910000000000003","113.0","1013.279","26.3","87.1","NAN","0.0"],
    [1563027,"2026-07-11 19:40:00","15737","1.992","70.78","3.985","106.9","1013.2539999999999","26.23","88.1","NAN","0.0"],
    [1563028,"2026-07-11 19:50:00","15738","2.289","79.63","4.247","106.8","1013.408","26.14","88.3","NAN","0.0"],
    [1563029,"2026-07-11 20:00:00","15739","2.228","81.7","3.822","77.02","1013.416","26.08","88.7","NAN","0.0"],
    [1563030,"2026-07-11 20:10:00","15740","1.9969999999999999","86.0","4.051","70.26","1013.658","26.15","88.5","NAN","0.0"],
    [1563031,"2026-07-11 20:20:00","15741","2.287","85.0","3.7239999999999998","78.82","1013.8389999999999","26.14","88.1","NAN","0.0"],
    [1563032,"2026-07-11 20:30:00","15742","2.075","52.15","4.149","23.46","1013.7239999999999","26.16","88.5","NAN","0.0"],
    [1563033,"2026-07-11 20:40:00","15743","1.328","63.24","3.136","26.87","1013.705","26.1","89.7","NAN","0.0"],
    [1563034,"2026-07-11 20:50:00","15744","1.331","59.73","2.417","61.95","1013.8539999999999","26.07","88.8","NAN","0.0"],
    [1563035,"2026-07-11 21:00:00","15745","1.6540000000000001","53.4","3.7569999999999997","54.45","1014.074","26.01","89.1","NAN","0.0"],
    [1563036,"2026-07-11 21:10:00","15746","1.614","68.32","3.7569999999999997","74.14","1014.2310000000001","25.86","89.7","NAN","0.0"],
    [1563037,"2026-07-11 21:20:00","15747","2.497","89.2","3.985","77.86","1014.328","25.86","90.5","NAN","0.0"],
    [1563038,"2026-07-11 21:30:00","15748","1.661","75.2","3.299","82.7","1014.332","25.84","90.8","NAN","0.0"],
    [1563039,"2026-07-11 21:40:00","15749","1.725","75.95","3.267","111.9","1014.332","25.83","90.6","NAN","0.0"],
    [1563040,"2026-07-11 21:50:00","15750","2.5810000000000004","84.5","4.606","75.94","1014.3380000000001","25.75","90.8","NAN","0.0"],
    [1563041,"2026-07-11 22:00:00","15751","2.1630000000000003","71.13","3.855","84.5","1014.3430000000001","25.58","91.9","NAN","0.0"],
    [1563042,"2026-07-11 22:10:00","15752","1.3119999999999998","53.88","3.103","31.29","1014.373","25.63","91.9","NAN","0.0"],
    [1563043,"2026-07-11 22:20:00","15753","1.719","78.96","3.299","80.9","1014.467","25.65","92.1","NAN","0.0"],
    [1563044,"2026-07-11 22:30:00","15754","2.004","87.6","3.9530000000000003","111.6","1014.632","25.61","92.5","NAN","0.0"],
    [1563045,"2026-07-11 22:40:00","15755","1.569","54.19","2.94","31.98","1014.8380000000001","25.54","92.5","NAN","0.0"],
    [1563046,"2026-07-11 22:50:00","15756","1.885","83.2","3.103","94.2","1014.898","25.64","92.4","NAN","0.0"],
    [1563047,"2026-07-11 23:00:00","15757","1.713","64.72","3.855","95.3","1014.8910000000001","25.71","91.7","NAN","0.0"],
    [1563048,"2026-07-11 23:10:00","15758","1.3980000000000001","67.26","3.495","110.0","1014.908","25.79","91.8","NAN","0.0"],
    [1563049,"2026-07-11 23:20:00","15759","2.329","79.31","4.247","77.11","1014.948","25.85","91.2","NAN","0.0"],
    [1563050,"2026-07-11 23:30:00","15760","2.602","86.0","5.129","95.7","1015.0","25.88","91.5","NAN","0.0"],
    [1563051,"2026-07-11 23:40:00","15761","2.616","89.2","4.638999999999999","61.67","1014.8510000000001","25.87","92.6","NAN","0.0"],
    [1563052,"2026-07-11 23:50:00","15762","2.7030000000000003","88.0","4.867","108.1","1014.831","25.86","92.4","NAN","0.0"],
    [1563053,"2026-07-12 00:00:00","15763","3.173","89.4","6.011","81.1","1014.806","25.88","92.5","NAN","0.0"],
    [1563054,"2026-07-12 00:10:00","15764","2.909","82.5","5.586","79.25","1014.803","25.84","93.8","NAN","0.0"],
    [1563055,"2026-07-12 00:20:00","15765","3.136","76.01","6.435","65.38","1014.7410000000001","25.68","93.2","NAN","0.0"],
    [1563056,"2026-07-12 00:30:00","15766","3.1180000000000003","78.43","6.435","74.5","1014.671","25.63","91.1","NAN","0.0"],
    [1563057,"2026-07-12 00:40:00","15767","3.306","78.83","6.0760000000000005","53.84","1014.472","25.56","89.1","NAN","0.0"],
    [1563058,"2026-07-12 00:50:00","15768","3.03","75.57","5.586","69.08","1014.3430000000001","25.51","88.2","NAN","0.0"],
    [1563059,"2026-07-12 01:00:00","15769","2.68","78.68","5.455","69.8","1014.205","25.61","87.2","NAN","0.0"],
    [1563060,"2026-07-12 01:10:00","15770","1.841","73.72","3.234","91.1","1013.9960000000001","25.7","86.9","NAN","0.0"],
    [1563061,"2026-07-12 01:20:00","15771","1.06","67.39","3.299","88.4","1013.961","25.69","87.4","NAN","0.0"],
    [1563062,"2026-07-12 01:30:00","15772","1.849","81.6","3.43","98.3","1013.804","25.65","87.2","NAN","0.0"],
    [1563063,"2026-07-12 01:40:00","15773","1.202","51.55","2.5810000000000004","65.42","1013.737","25.62","87.3","NAN","0.0"],
    [1563064,"2026-07-12 01:50:00","15774","1.452","71.06","3.005","111.0","1013.837","25.54","87.6","NAN","0.0"],
    [1563065,"2026-07-12 02:00:00","15775","1.26","72.53","2.7769999999999997","77.25","1013.7339999999999","25.57","87.6","NAN","0.0"],
    [1563066,"2026-07-12 02:10:00","15776","1.567","74.43","2.842","82.6","1013.702","25.54","87.9","NAN","0.0"],
    [1563067,"2026-07-12 02:20:00","15777","1.619","76.87","3.005","69.68","1013.595","25.49","88.3","NAN","0.0"],
    [1563068,"2026-07-12 02:30:00","15778","1.419","79.52","3.6910000000000003","85.7","1013.597","25.47","88.4","NAN","0.0"],
    [1563069,"2026-07-12 02:40:00","15779","1.528","69.09","3.234","62.96","1013.56","25.42","88.1","NAN","0.0"],
    [1563070,"2026-07-12 02:50:00","15780","1.518","54.88","3.136","97.2","1013.4830000000001","25.35","88","NAN","0.0"],
    [1563071,"2026-07-12 03:00:00","15781","0.9329999999999999","63.79","2.548","67.44","1013.528","25.32","87.6","NAN","0.0"],
    [1563072,"2026-07-12 03:10:00","15782","1.235","51.96","2.45","67.03","1013.5369999999999","25.29","87.4","NAN","0.0"],
    [1563073,"2026-07-12 03:20:00","15783","1.1540000000000001","61.12","2.385","61.34","1013.455","25.24","87.5","NAN","0.0"],
    [1563074,"2026-07-12 03:30:00","15784","1.246","58.72","2.7439999999999998","60.18","1013.488","25.19","87.9","NAN","0.0"],
    [1563075,"2026-07-12 03:40:00","15785","1.153","48.86","2.7110000000000003","37.09","1013.618","25.12","88","NAN","0.0"],
    [1563076,"2026-07-12 03:50:00","15786","1.01","52.64","2.189","65.75","1013.62","25.06","88.4","NAN","0.0"],
    [1563077,"2026-07-12 04:00:00","15787","1.114","42.81","2.45","26.09","1013.675","25","88.9","NAN","0.0"],
    [1563078,"2026-07-12 04:10:00","15788","0.815","77.84","1.764","67.43","1013.745","24.95","89.3","NAN","0.0"],
    [1563079,"2026-07-12 04:20:00","15789","0.951","47.2","1.7309999999999999","32.11","1013.799","24.91","89.5","NAN","0.0"],
    [1563080,"2026-07-12 04:30:00","15790","1.113","47.26","2.319","35.93","1013.78","24.87","89.6","NAN","0.0"],
    [1563081,"2026-07-12 04:40:00","15791","0.669","14.94","1.699","30.06","1013.812","24.95","89.4","NAN","0.0"],
    [1563082,"2026-07-12 04:50:00","15792","0.705","18.0","1.797","37.37","1013.727","25","88.9","NAN","0.0"],
    [1563083,"2026-07-12 05:00:00","15793","0.89","12.9","2.025","5.013999999999999","1013.7739999999999","25","87.5","NAN","0.0"],
    [1563084,"2026-07-12 05:10:00","15794","0.805","26.82","2.319","350.7","1013.802","25.04","85.2","NAN","0.0"],
    [1563085,"2026-07-12 05:20:00","15795","1.314","0.475","2.385","15.22","1013.822","25.25","82.1","NAN","0.0"],
    [1563086,"2026-07-12 05:30:00","15796","0.972","9.78","2.0909999999999997","19.72","1013.842","25.63","78.85","NAN","0.0"],
    [1563087,"2026-07-12 05:40:00","15797","1.16","5.32","2.319","14.4","1013.867","25.79","77","NAN","0.0"],
    [1563088,"2026-07-12 05:50:00","15798","0.7120000000000001","358.2","1.96","273.5","1014.0039999999999","26.04","74.54","NAN","0.0"],
    [1563089,"2026-07-12 06:00:00","15799","1.192","8.28","2.6460000000000004","16.18","1014.113","26.26","72.64","NAN","0.0"],
    [1563090,"2026-07-12 06:10:00","15800","1.002","20.76","2.7110000000000003","25.36","1014.125","26.46","71.19","NAN","0.0"],
    [1563091,"2026-07-12 06:20:00","15801","1.3869999999999998","24.41","3.136","31.57","1014.196","26.67","68.22","NAN","0.0"],
    [1563092,"2026-07-12 06:30:00","15802","0.768","25.45","2.0909999999999997","69.56","1014.33","27.02","66.23","NAN","0.0"],
    [1563093,"2026-07-12 06:40:00","15803","1.153","36.74","2.875","38.57","1014.3580000000001","27.23","62.89","NAN","0.0"],
    [1563094,"2026-07-12 06:50:00","15804","0.851","29.81","2.613","29.77","1014.44","27.3","61.97","NAN","0.0"],
    [1563095,"2026-07-12 07:00:00","15805","1.444","49.54","3.136","70.21","1014.4639999999999","27.4","60.63","NAN","0.0"],
    [1563096,"2026-07-12 07:10:00","15806","1.143","38.22","2.7769999999999997","70.82","1014.4939999999999","27.62","58.85","NAN","0.0"],
    [1563097,"2026-07-12 07:20:00","15807","1.9280000000000002","48.34","3.7239999999999998","51.65","1014.4789999999999","27.87","57.26","NAN","0.0"],
    [1563098,"2026-07-12 07:30:00","15808","2.2769999999999997","58.08","5.129","35.43","1014.5369999999999","27.98","56.45","NAN","0.0"],
    [1563099,"2026-07-12 07:40:00","15809","2.384","75.82","5.749","88.7","1014.784","28.22","53.93","NAN","0.0"],
    [1563100,"2026-07-12 07:50:00","15810","2.883","90.9","5.4879999999999995","97.6","1014.821","28.25","54.89","NAN","0.0"],
    [1563101,"2026-07-12 08:00:00","15811","2.681","82.3","4.671","68.93","1014.823","28.03","58.18","NAN","0.0"],
    [1563102,"2026-07-12 08:10:00","15812","2.7310000000000003","78.9","5.031000000000001","71.85","1014.784","27.81","61.01","NAN","0.0"],
    [1563103,"2026-07-12 08:20:00","15813","2.698","81.8","4.475","110.2","1014.823","27.62","65.14","NAN","0.0"],
    [1563104,"2026-07-12 08:30:00","15814","2.8989999999999996","84.3","5.063","110.8","1014.7710000000001","27.62","68.16","NAN","0.0"],
    [1563105,"2026-07-12 08:40:00","15815","3.3369999999999997","89.4","5.455","85.6","1014.7739999999999","27.61","68.61","NAN","0.0"],
    [1563106,"2026-07-12 08:50:00","15816","2.8689999999999998","79.45","5.357","57.26","1014.817","27.67","71.76","NAN","0.0"],
    [1563107,"2026-07-12 09:00:00","15817","3.2710000000000004","78.01","5.422999999999999","66.32","1014.878","27.47","73.26","NAN","0.0"],
    [1563108,"2026-07-12 09:10:00","15818","3.275","83.4","5.455","66.98","1014.85","27.58","71.13","NAN","0.0"],
    [1563109,"2026-07-12 09:20:00","15819","2.779","77.01","5.782","63.75","1014.932","27.7","71.7","NAN","0.0"],
    [1563110,"2026-07-12 09:30:00","15820","3.39","74.92","5.847","86.0","1015.028","27.41","73.01","NAN","0.0"],
    [1563111,"2026-07-12 09:40:00","15821","3.455","78.35","6.109","95.3","1014.967","27.39","73.65","NAN","0.0"],
    [1563112,"2026-07-12 09:50:00","15822","3.298","77.98","6.501","73.03","1014.9960000000001","27.26","72.38","NAN","0.0"],
    [1563113,"2026-07-12 10:00:00","15823","3.49","78.08","6.7620000000000005","67.14","1014.915","27.29","73.22","NAN","0.0"],
    [1563114,"2026-07-12 10:10:00","15824","3.281","80.5","6.305","67.41","1014.946","27.41","74.88","NAN","0.0"],
    [1563115,"2026-07-12 10:20:00","15825","3.512","86.5","6.0760000000000005","81.6","1015.038","27.32","76.41","NAN","0.0"],
    [1563116,"2026-07-12 10:30:00","15826","2.363","80.5","5.684","87.4","1015.127","27.56","75.9","NAN","0.0"],
    [1563117,"2026-07-12 10:40:00","15827","2.778","85.3","5.129","91.4","1015.209","27.74","75.35","NAN","0.0"],
    [1563118,"2026-07-12 10:50:00","15828","3.528","90.2","5.749","81.2","1015.2739999999999","27.35","77.53","NAN","0.0"],
    [1563119,"2026-07-12 11:00:00","15829","3.1519999999999997","79.91","5.063","72.76","1015.3430000000001","27.33","75.81","NAN","0.0"],
    [1563120,"2026-07-12 11:10:00","15830","2.892","80.1","5.684","102.1","1015.3539999999999","28","73.27","NAN","0.0"],
    [1563121,"2026-07-12 11:20:00","15831","2.8489999999999998","85.3","5.684","105.6","1015.4739999999999","28.09","74.76","NAN","0.0"],
    [1563122,"2026-07-12 11:30:00","15832","2.818","87.3","5.031000000000001","69.08","1015.577","27.91","75.68","NAN","0.0"],
    [1563123,"2026-07-12 11:40:00","15833","2.617","84.1","4.769","102.6","1015.561","27.93","77.83","NAN","0.0"],
    [1563124,"2026-07-12 11:50:00","15834","2.679","90.9","5.063","105.1","1015.5319999999999","28.26","76.63","NAN","0.0"],
    [1563125,"2026-07-12 12:00:00","15835","2.9410000000000003","87.3","4.965","80.8","1015.4939999999999","28.27","75.95","NAN","0.0"],
    [1563126,"2026-07-12 12:10:00","15836","3.014","85.4","5.2589999999999995","67.52","1015.447","28.05","76.24","NAN","0.0"],
    [1563127,"2026-07-12 12:20:00","15837","3.111","91.9","5.651","109.0","1015.428","28.08","76.93","NAN","0.0"],
    [1563128,"2026-07-12 12:30:00","15838","3.2560000000000002","103.6","5.782","115.9","1015.334","28.22","77.12","NAN","0.0"],
    [1563129,"2026-07-12 12:40:00","15839","2.908","84.3","5.455","92.5","1015.319","28.34","76.83","NAN","0.0"],
    [1563130,"2026-07-12 12:50:00","15840","2.898","82.6","4.606","80.2","1015.323","28.17","77.68","NAN","0.0"],
    [1563131,"2026-07-12 13:00:00","15841","3.264","83.8","5.194","76.54","1015.227","27.78","80.5","NAN","0.0"],
    [1563132,"2026-07-12 13:10:00","15842","3.705","96.1","5.782","101.3","1015.112","27.42","83.3","NAN","0.0"],
    [1563133,"2026-07-12 13:20:00","15843","3.0060000000000002","91.4","5.455","80.4","1015.076","27.86","81.1","NAN","0.0"],
    [1563134,"2026-07-12 13:30:00","15844","3.4530000000000003","84.1","5.815","73.56","1014.88","27.66","83","NAN","0.0"],
    [1563135,"2026-07-12 13:40:00","15845","4.256","90.9","6.501","99.5","1014.823","27.74","82.8","NAN","0.0"],
    [1563136,"2026-07-12 13:50:00","15846","3.4130000000000003","84.4","6.0760000000000005","72.22","1014.83","28.09","81.2","NAN","0.0"],
    [1563137,"2026-07-12 14:00:00","15847","3.27","84.2","7.056","105.4","1014.805","28.28","79.68","NAN","0.0"],
    [1563138,"2026-07-12 14:10:00","15848","3.929","90.0","5.619","105.0","1014.801","27.86","81.8","NAN","0.0"],
    [1563139,"2026-07-12 14:20:00","15849","3.8689999999999998","88.5","6.566","71.13","1014.7560000000001","27.6","83.2","NAN","0.0"],
    [1563140,"2026-07-12 14:30:00","15850","3.641","89.1","5.749","93.9","1014.69","27.44","84.4","NAN","0.0"],
    [1563141,"2026-07-12 14:40:00","15851","3.5780000000000003","89.9","5.782","90.1","1014.551","27.25","85.6","NAN","0.0"],
    [1563142,"2026-07-12 14:50:00","15852","3.87","83.4","6.403","73.07","1014.578","27.21","85.6","NAN","0.0"],
    [1563143,"2026-07-12 15:00:00","15853","3.093","76.14","5.39","64.06","1014.4989999999999","27.03","87.2","NAN","0.0"],
    [1563144,"2026-07-12 15:10:00","15854","3.048","83.4","4.998","79.97","1014.5039999999999","27.05","87.3","NAN","0.0"],
    [1563145,"2026-07-12 15:20:00","15855","3.0210000000000004","73.13","5.619","57.53","1014.442","27.01","87.2","NAN","0.0"],
    [1563146,"2026-07-12 15:30:00","15856","3.5010000000000003","86.8","5.749","75.33","1014.322","26.81","88.6","NAN","0.0"],
    [1563147,"2026-07-12 15:40:00","15857","3.34","82.3","5.912999999999999","65.53","1014.304","26.78","88.7","NAN","0.0"],
    [1563148,"2026-07-12 15:50:00","15858","3.248","69.29","5.815","71.16","1014.341","26.71","89","NAN","0.0"],
    [1563149,"2026-07-12 16:00:00","15859","3.576","80.9","5.847","62.25","1014.335","26.56","89.2","NAN","0.0"],
    [1563150,"2026-07-12 16:10:00","15860","2.9330000000000003","76.92","5.7170000000000005","75.97","1014.342","26.68","88.8","NAN","0.0"],
    [1563151,"2026-07-12 16:20:00","15861","3.122","78.64","5.815","57.55","1014.2","26.87","87.7","NAN","0.0"],
    [1563152,"2026-07-12 16:30:00","15862","3.22","77.09","6.141","87.0","1014.073","27.03","86.6","NAN","0.0"],
    [1563153,"2026-07-12 16:40:00","15863","2.925","82.4","5.586","85.9","1014.135","27.03","86.5","NAN","0.0"],
    [1563154,"2026-07-12 16:50:00","15864","2.767","80.2","5.553","79.29","1014.038","27.2","85.4","NAN","0.0"],
    [1563155,"2026-07-12 17:00:00","15865","2.6719999999999997","83.0","5.455","82.1","1014.003","27.19","85.2","NAN","0.0"],
    [1563156,"2026-07-12 17:10:00","15866","3.043","78.24","5.7170000000000005","74.9","1014.033","26.99","86.4","NAN","0.0"],
    [1563157,"2026-07-12 17:20:00","15867","3.2310000000000003","78.97","5.684","54.54","1013.826","26.87","88.2","NAN","0.0"],
    [1563158,"2026-07-12 17:30:00","15868","3.3139999999999996","85.6","5.455","74.2","1013.827","26.73","89.5","NAN","0.0"],
    [1563159,"2026-07-12 17:40:00","15869","2.905","78.61","5.455","107.7","1013.954","26.6","90.6","NAN","0.0"],
    [1563160,"2026-07-12 17:50:00","15870","2.995","82.0","5.684","100.7","1013.821","26.59","90.7","NAN","0.0"],
    [1563161,"2026-07-12 18:00:00","15871","2.58","81.8","5.063","80.4","1013.837","26.53","91","NAN","0.0"],
    [1563162,"2026-07-12 18:10:00","15872","2.8080000000000003","72.92","5.1610000000000005","92.6","1013.862","26.47","91.3","NAN","0.0"],
    [1563163,"2026-07-12 18:20:00","15873","2.6310000000000002","85.0","4.835","97.7","1013.7489999999999","26.53","91.4","NAN","0.0"],
    [1563164,"2026-07-12 18:30:00","15874","2.9419999999999997","87.1","5.1610000000000005","112.6","1013.7339999999999","26.4","91.7","NAN","0.0"],
    [1563165,"2026-07-12 18:40:00","15875","2.9589999999999996","84.5","5.129","71.08","1013.6469999999999","26.37","91.8","NAN","0.0"],
    [1563166,"2026-07-12 18:50:00","15876","1.903","67.19","3.985","82.1","1013.6519999999999","26.35","91.9","NAN","0.0"],
    [1563167,"2026-07-12 19:00:00","15877","1.933","45.32","5.063","26.18","1013.565","26.3","91.7","NAN","0.0"],
    [1563168,"2026-07-12 19:10:00","15878","2.086","53.74","3.855","57.18","1013.605","26.18","92.5","NAN","0.0"],
    [1563169,"2026-07-12 19:20:00","15879","1.9169999999999998","59.97","4.312","71.78","1013.59","26.15","93.1","NAN","0.0"],
    [1563170,"2026-07-12 19:30:00","15880","2.021","66.21","4.051","66.11","1013.568","26.09","93.4","NAN","0.0"],
    [1563171,"2026-07-12 19:40:00","15881","1.976","41.97","3.855","24.94","1013.57","26.03","92.9","NAN","0.0"],
    [1563172,"2026-07-12 19:50:00","15882","2.3369999999999997","42.3","4.41","33.06","1013.525","26.01","91.5","NAN","0.0"],
    [1563173,"2026-07-12 20:00:00","15883","2.375","43.93","4.704","62.58","1013.732","26.04","89.3","NAN","0.0"],
    [1563174,"2026-07-12 20:10:00","15884","2.068","43.91","4.279","26.17","1013.785","26.18","84.8","NAN","0.0"],
    [1563175,"2026-07-12 20:20:00","15885","1.4869999999999999","42.44","3.43","48.23","1013.867","26.46","78.34","NAN","0.0"],
    [1563176,"2026-07-12 20:30:00","15886","1.635","40.16","3.299","30.33","1013.936","26.73","73.59","NAN","0.0"],
    [1563177,"2026-07-12 20:40:00","15887","2.184","40.5","4.149","29.51","1013.8489999999999","26.95","66.89","NAN","0.0"],
    [1563178,"2026-07-12 20:50:00","15888","2.19","42.12","4.279","75.05","1013.799","27.12","62.41","NAN","0.0"],
    [1563179,"2026-07-12 21:00:00","15889","2.036","39.25","3.92","26.81","1013.75","27.29","58.19","NAN","0.0"],
    [1563180,"2026-07-12 21:10:00","15890","1.801","37.01","3.7569999999999997","57.06","1013.7589999999999","27.49","55.18","NAN","0.0"],
    [1563181,"2026-07-12 21:20:00","15891","2.0909999999999997","43.37","3.7239999999999998","38.35","1013.462","27.56","52.91","NAN","0.0"],
    [1563182,"2026-07-12 21:30:00","15892","2.347","38.99","4.41","33.42","1012.9639999999999","27.65","50.11","NAN","0.0"],
    [1563183,"2026-07-12 21:40:00","15893","1.999","37.45","3.267","30.69","1012.985","27.84","46.73","NAN","0.0"],
    [1563184,"2026-07-12 21:50:00","15894","1.006","42.27","3.528","36.78","1013.4639999999999","28","43.93","NAN","0.0"],
    [1563185,"2026-07-12 22:00:00","15895","1.082","37.71","2.0580000000000003","59.19","1013.829","28.2","41.79","NAN","0.0"],
    [1563186,"2026-07-12 22:10:00","15896","1.232","42.74","2.548","29.56","1013.807","28.26","41.94","NAN","0.0"],
    [1563187,"2026-07-12 22:20:00","15897","1.155","53.48","2.417","41.41","1013.732","28.19","42.79","NAN","0.0"],
    [1563188,"2026-07-12 22:30:00","15898","0.7","42.08","1.764","8.83","1013.882","28.12","43.92","NAN","0.0"],
    [1563189,"2026-07-12 22:40:00","15899","0.763","57.51","2.221","59.98","1014.1410000000001","28.03","46.21","NAN","0.0"],
    [1563190,"2026-07-12 22:50:00","15900","1.4769999999999999","71.61","2.8089999999999997","93.7","1014.21","27.99","47.97","NAN","0.0"],
    [1563191,"2026-07-12 23:00:00","15901","1.179","60.68","3.005","57.84","1014.123","27.9","49.44","NAN","0.0"],
    [1563192,"2026-07-12 23:10:00","15902","0.992","48.81","2.385","29.56","1014.2280000000001","27.76","50.34","NAN","0.0"],
    [1563193,"2026-07-12 23:20:00","15903","0.9359999999999999","41.47","2.123","32.56","1014.3430000000001","27.77","50.14","NAN","0.0"],
    [1563194,"2026-07-12 23:30:00","15904","1.208","48.83","3.103","39.32","1014.318","27.77","50.34","NAN","0.0"],
    [1563195,"2026-07-12 23:40:00","15905","0.833","33.82","2.0580000000000003","26.76","1014.295","27.7","49.46","NAN","0.0"],
    [1563196,"2026-07-12 23:50:00","15906","0.433","12.52","1.895","12.13","1014.335","27.58","47.67","NAN","0.0"],
    [1563197,"2026-07-13 00:00:00","15907","0.752","43.73","1.339","33.92","1014.153","27.5","45.63","NAN","0.0"],
    [1563198,"2026-07-13 00:10:00","15908","0.701","35.92","1.535","33.92","1014.046","27.45","44.24","NAN","0.0"],
    [1563199,"2026-07-13 00:20:00","15909","0.853","52.61","1.568","62.0","1013.951","27.39","43.31","NAN","0.0"],
    [1563200,"2026-07-13 00:30:00","15910","0.982","45.96","1.797","60.04","1013.819","27.39","43.37","NAN","0.0"],
    [1563201,"2026-07-13 00:40:00","15911","0.8759999999999999","32.12","1.829","17.12","1013.7389999999999","27.35","43.75","NAN","0.0"],
    [1563202,"2026-07-13 00:50:00","15912","0.747","42.67","1.633","31.87","1013.819","27.31","44.06","NAN","0.0"],
    [1563203,"2026-07-13 01:00:00","15913","0.855","34.3","1.568","38.1","1013.7669999999999","27.3","44.33","NAN","0.0"],
    [1563204,"2026-07-13 01:10:00","15914","0.486","34.88","1.307","27.34","1013.7719999999999","27.22","45.15","NAN","0.0"],
    [1563205,"2026-07-13 01:20:00","15915","0.14800000000000002","15.27","0.882","34.79","1013.8439999999999","27.22","45.52","NAN","0.0"],
    [1563206,"2026-07-13 01:30:00","15916","0.187","53.63","0.784","58.52","1013.8439999999999","27.13","46.98","NAN","0.0"],
    [1563207,"2026-07-13 01:40:00","15917","0.16","64.57","1.143","85.4","1013.8589999999999","27.04","49.59","NAN","0.0"],
    [1563208,"2026-07-13 01:50:00","15918","0.303","22.93","0.882","55.64","1013.9689999999999","26.96","50.32","NAN","0.0"],
    [1563209,"2026-07-13 02:00:00","15919","0.385","49.02","1.307","59.91","1013.8589999999999","27.01","50.38","NAN","0.0"],
    [1563210,"2026-07-13 02:10:00","15920","0.6659999999999999","48.16","1.274","62.78","1013.7639999999999","26.89","52.02","NAN","0.0"],
    [1563211,"2026-07-13 02:20:00","15921","0.5329999999999999","51.94","0.98","38.28","1013.712","26.82","51.58","NAN","0.0"],
    [1563212,"2026-07-13 02:30:00","15922","0.735","56.66","1.307","33.94","1013.61","26.69","52.98","NAN","0.0"],
    [1563213,"2026-07-13 02:40:00","15923","0.9209999999999999","46.04","1.764","26.65","1013.595","26.58","53.41","NAN","0.0"],
    [1563214,"2026-07-13 02:50:00","15924","0.866","47.51","1.47","56.6","1013.595","26.55","54.12","NAN","0.0"],
    [1563215,"2026-07-13 03:00:00","15925","0.821","34.92","1.535","35.92","1013.61","26.49","54.17","NAN","0.0"],
    [1563216,"2026-07-13 03:10:00","15926","1.041","32.02","1.797","38.94","1013.495","26.45","55.14","NAN","0.0"],
    [1563217,"2026-07-13 03:20:00","15927","1.0490000000000002","34.8","2.352","31.48","1013.3510000000001","26.31","56.45","NAN","0.0"],
    [1563218,"2026-07-13 03:30:00","15928","1.31","34.32","2.5810000000000004","36.12","1013.323","26.17","56.91","NAN","0.0"],
    [1563219,"2026-07-13 03:40:00","15929","1.3869999999999998","35.65","2.842","32.46","1013.1560000000001","26.07","55.81","NAN","0.0"],
    [1563220,"2026-07-13 03:50:00","15930","1.2690000000000001","38.12","2.7769999999999997","13.2","1013.012","25.93","55.95","NAN","0.0"],
    [1563221,"2026-07-13 04:00:00","15931","0.935","28.96","2.483","27.08","1012.972","25.86","55.52","NAN","0.0"],
    [1563222,"2026-07-13 04:10:00","15932","1.065","28.16","2.613","29.71","1012.922","25.79","54.67","NAN","0.0"],
    [1563223,"2026-07-13 04:20:00","15933","0.775","10.35","2.189","353.5","1012.962","25.84","55.13","NAN","0.0"],
    [1563224,"2026-07-13 04:30:00","15934","1.063","22.34","2.417","34.71","1013.045","25.82","55.34","NAN","0.0"],
    [1563225,"2026-07-13 04:40:00","15935","0.9490000000000001","17.45","2.221","20.94","1013.0889999999999","25.74","55.58","NAN","0.0"],
    [1563226,"2026-07-13 04:50:00","15936","0.705","27.8","1.764","49.95","1013.1389999999999","25.72","56.11","NAN","0.0"],
    [1563227,"2026-07-13 05:00:00","15937","0.8740000000000001","20.16","1.9269999999999998","23.37","1013.284","25.75","56.32","NAN","0.0"],
    [1563228,"2026-07-13 05:10:00","15938","0.614","15.64","1.568","18.94","1013.311","25.83","56.73","NAN","0.0"],
    [1563229,"2026-07-13 05:20:00","15939","1.148","32.28","2.417","34.68","1013.319","25.83","58.91","NAN","0.0"],
    [1563230,"2026-07-13 05:30:00","15940","0.6459999999999999","16.8","1.4369999999999998","0.593","1013.346","25.99","59.74","NAN","0.0"],
    [1563231,"2026-07-13 05:40:00","15941","0.981","32.87","2.483","55.49","1013.3610000000001","26.18","60.79","NAN","0.0"],
    [1563232,"2026-07-13 05:50:00","15942","1.781","38.91","3.7239999999999998","68.72","1013.431","26.24","63.75","NAN","0.0"],
    [1563233,"2026-07-13 06:00:00","15943","1.689","49.47","3.887","67.41","1013.395","26.31","65.13","NAN","0.0"],
    [1563234,"2026-07-13 06:10:00","15944","2.003","41.51","3.7239999999999998","24.68","1013.3530000000001","26.36","66.45","NAN","0.0"],
    [1563235,"2026-07-13 06:20:00","15945","1.8880000000000001","48.68","3.7239999999999998","55.13","1013.3530000000001","26.34","69.61","NAN","0.0"],
    [1563236,"2026-07-13 06:30:00","15946","2.364","85.5","5.455","91.9","1013.3380000000001","26.32","79.33","NAN","0.0"],
    [1563237,"2026-07-13 06:40:00","15947","2.112","84.9","5.129","98.0","1013.3380000000001","26.14","85.3","NAN","0.0"],
    [1563238,"2026-07-13 06:50:00","15948","1.785","74.84","3.7239999999999998","78.19","1013.306","26.38","84.3","NAN","0.0"],
    [1563239,"2026-07-13 07:00:00","15949","1.9709999999999999","60.28","4.4430000000000005","59.03","1013.318","26.38","83.5","NAN","0.0"],
    [1563240,"2026-07-13 07:10:00","15950","2.376","58.21","5.4879999999999995","64.38","1013.2310000000001","26.54","82.5","NAN","0.0"],
    [1563241,"2026-07-13 07:20:00","15951","2.891","67.11","5.847","66.16","1013.178","26.56","81.2","NAN","0.0"],
    [1563242,"2026-07-13 07:30:00","15952","2.572","77.35","5.945","68.39","1013.2289999999999","27.02","77.43","NAN","0.0"],
    [1563243,"2026-07-13 07:40:00","15953","3.7239999999999998","81.1","6.501","89.7","1013.294","26.59","81","NAN","0.0"],
    [1563244,"2026-07-13 07:50:00","15954","4.096","84.6","6.664","77.37","1013.2610000000001","26.42","83.9","NAN","0.0"],
    [1563245,"2026-07-13 08:00:00","15955","3.984","81.9","7.056","87.7","1013.2189999999999","26.14","88.1","NAN","0.0"],
    [1563246,"2026-07-13 08:10:00","15956","3.806","80.3","7.252000000000001","94.4","1013.118","26.09","89.1","NAN","0.0"],
    [1563247,"2026-07-13 08:20:00","15957","3.153","77.72","6.109","64.89","1013.308","26.49","88.6","NAN","0.0"],
    [1563248,"2026-07-13 08:30:00","15958","3.31","74.26","6.566","72.37","1013.2769999999999","26.59","89","NAN","0.0"],
    [1563249,"2026-07-13 08:40:00","15959","3.35","76.95","6.957999999999999","70.5","1013.28","26.8","87.7","NAN","0.0"],
    [1563250,"2026-07-13 08:50:00","15960","3.6519999999999997","80.9","7.023","91.6","1013.441","26.74","88","NAN","0.0"],
    [1563251,"2026-07-13 09:00:00","15961","3.3789999999999996","77.14","5.978","81.0","1013.456","26.86","87.8","NAN","0.0"],
    [1563252,"2026-07-13 09:10:00","15962","2.7239999999999998","78.89","5.455","93.5","1013.535","27.33","85.9","NAN","0.0"],
    [1563253,"2026-07-13 09:20:00","15963","2.862","83.2","5.945","111.9","1013.666","27.57","84.7","NAN","0.0"],
    [1563254,"2026-07-13 09:30:00","15964","3.638","93.9","5.4879999999999995","94.9","1013.765","27.58","83.5","NAN","0.0"],
    [1563255,"2026-07-13 09:40:00","15965","3.1069999999999998","92.7","6.042999999999999","91.6","1013.9060000000001","27.76","82","NAN","0.0"],
    [1563256,"2026-07-13 09:50:00","15966","3.13","101.6","5.88","112.5","1014.059","28.05","82.7","NAN","0.0"],
    [1563257,"2026-07-13 10:00:00","15967","2.897","107.8","5.521","104.6","1014.28","27.77","84.9","NAN","0.0"],
    [1563258,"2026-07-13 10:10:00","15968","3.0439999999999996","129.5","5.912999999999999","124.5","1014.487","27.51","86","NAN","0.0"],
    [1563259,"2026-07-13 10:20:00","15969","2.841","128.8","5.4879999999999995","109.0","1014.544","27.36","87","NAN","0.0"],
    [1563260,"2026-07-13 10:30:00","15970","3.048","125.1","4.965","121.3","1014.551","27.33","86.3","NAN","0.0"],
    [1563261,"2026-07-13 10:40:00","15971","2.687","118.9","4.965","105.9","1014.574","27.15","86.6","NAN","0.0"],
    [1563262,"2026-07-13 10:50:00","15972","2.577","104.0","4.4430000000000005","106.6","1014.556","27.22","85.7","NAN","0.0"],
    [1563263,"2026-07-13 11:00:00","15973","2.964","105.0","4.802","102.9","1014.4839999999999","27.22","85.3","NAN","0.0"],
    [1563264,"2026-07-13 11:10:00","15974","2.6710000000000003","96.1","5.7170000000000005","100.7","1014.488","27.56","84.1","NAN","0.0"],
    [1563265,"2026-07-13 11:20:00","15975","3.0589999999999997","86.3","5.586","93.1","1014.3969999999999","27.49","83.9","NAN","0.0"],
    [1563266,"2026-07-13 11:30:00","15976","3.42","91.5","5.684","102.4","1014.335","27.65","83.6","NAN","0.0"],
    [1563267,"2026-07-13 11:40:00","15977","3.609","92.7","5.651","89.1","1014.291","27.77","83.3","NAN","0.0"],
    [1563268,"2026-07-13 11:50:00","15978","3.04","89.7","5.063","75.57","1014.2739999999999","27.98","82","NAN","0.0"],
    [1563269,"2026-07-13 12:00:00","15979","2.278","80.2","5.39","72.12","1014.212","28.59","79.79","NAN","0.0"],
    [1563270,"2026-07-13 12:10:00","15980","3.134","74.55","6.011","46.63","1014.1010000000001","28.09","81.4","NAN","0.0"],
    [1563271,"2026-07-13 12:20:00","15981","3.447","84.6","5.619","113.3","1013.927","27.81","83.3","NAN","0.0"],
    [1563272,"2026-07-13 12:30:00","15982","4.038","92.2","6.042999999999999","90.7","1013.807","27.78","82.7","NAN","0.0"],
    [1563273,"2026-07-13 12:40:00","15983","3.464","82.6","6.5329999999999995","71.85","1013.725","27.83","82.6","NAN","0.0"],
    [1563274,"2026-07-13 12:50:00","15984","3.1839999999999997","74.98","6.501","80.3","1013.632","28.07","81.9","NAN","0.0"],
    [1563275,"2026-07-13 13:00:00","15985","3.5189999999999997","83.2","5.553","58.1","1013.5169999999999","28.11","81.5","NAN","0.0"],
    [1563276,"2026-07-13 13:10:00","15986","3.435","71.72","6.042999999999999","68.85","1013.403","28.17","81.6","NAN","0.0"],
    [1563277,"2026-07-13 13:20:00","15987","3.602","81.5","6.011","68.48","1013.337","28.14","82.7","NAN","0.0"],
    [1563278,"2026-07-13 13:30:00","15988","3.222","81.1","5.912999999999999","68.08","1013.324","28.37","81.8","NAN","0.0"],
    [1563279,"2026-07-13 13:40:00","15989","3.38","78.11","5.619","85.7","1013.191","28.45","82","NAN","0.0"],
    [1563280,"2026-07-13 13:50:00","15990","3.142","89.1","6.631","95.6","1013.128","28.42","82.8","NAN","0.0"],
    [1563281,"2026-07-13 14:00:00","15991","3.216","89.6","5.455","97.6","1013.07","28.24","84","NAN","0.0"],
    [1563282,"2026-07-13 14:10:00","15992","2.995","86.8","5.651","97.9","1012.862","28.42","83.6","NAN","0.0"],
    [1563283,"2026-07-13 14:20:00","15993","3.6439999999999997","89.4","5.619","92.0","1012.808","28.16","83.4","NAN","0.0"],
    [1563284,"2026-07-13 14:30:00","15994","3.0010000000000003","76.65","4.737","70.38","1012.809","28.34","84.8","NAN","0.0"],
    [1563285,"2026-07-13 14:40:00","15995","2.79","71.25","4.998","95.9","1012.663","28.28","85.4","NAN","0.0"],
    [1563286,"2026-07-13 14:50:00","15996","2.5610000000000004","66.62","4.573","88.8","1012.573","28.36","84.5","NAN","0.0"],
    [1563287,"2026-07-13 15:00:00","15997","2.8739999999999997","84.7","4.737","93.1","1012.44","28.3","84.6","NAN","0.0"],
    [1563288,"2026-07-13 15:10:00","15998","2.885","90.0","4.965","115.5","1012.255","28.21","85.5","NAN","0.0"],
    [1563289,"2026-07-13 15:20:00","15999","3.162","91.7","5.031000000000001","99.8","1012.165","28.2","85.3","NAN","0.0"],
    [1563290,"2026-07-13 15:30:00","16000","2.9730000000000003","87.3","4.933","115.4","1012.1239999999999","28.12","86.1","NAN","0.0"],
    [1563291,"2026-07-13 15:40:00","16001","2.61","86.0","4.345","91.0","1012.075","27.99","85.8","NAN","0.0"],
    [1563292,"2026-07-13 15:50:00","16002","2.467","93.9","4.606","112.3","1012.065","28.22","85.1","NAN","0.0"],
    [1563293,"2026-07-13 16:00:00","16003","2.437","90.3","4.541","108.7","1012.05","28.02","86.2","NAN","0.0"],
    [1563294,"2026-07-13 16:10:00","16004","2.467","95.3","4.345","116.6","1012.064","27.72","88.2","NAN","0.0"],
    [1563295,"2026-07-13 16:20:00","16005","2.452","118.3","4.083","107.5","1011.9839999999999","27.41","89.8","NAN","0.0"],
    [1563296,"2026-07-13 16:30:00","16006","2.532","106.1","4.2139999999999995","113.1","1011.957","27.39","89.8","NAN","0.0"],
    [1563297,"2026-07-13 16:40:00","16007","2.3409999999999997","113.6","3.822","109.4","1011.916","27.63","88.6","NAN","0.0"],
    [1563298,"2026-07-13 16:50:00","16008","2.033","100.9","3.593","99.7","1011.875","27.55","89.2","NAN","0.0"],
    [1563299,"2026-07-13 17:00:00","16009","2.042","99.9","3.43","117.5","1011.852","27.4","89.1","NAN","0.0"],
    [1563300,"2026-07-13 17:10:00","16010","1.811","117.7","3.299","98.8","1011.9110000000001","27.47","89.1","NAN","0.0"],
    [1563301,"2026-07-13 17:20:00","16011","1.7519999999999998","131.1","2.907","102.3","1011.8810000000001","27.32","90","NAN","0.0"],
    [1563302,"2026-07-13 17:30:00","16012","1.8359999999999999","122.6","2.907","142.5","1011.8530000000001","27.24","90.1","NAN","0.0"],
    [1563303,"2026-07-13 17:40:00","16013","1.71","129.1","2.679","158.0","1011.857","27.23","90.1","NAN","0.0"],
    [1563304,"2026-07-13 17:50:00","16014","1.3840000000000001","128.8","2.352","149.7","1011.941","27.15","90.4","NAN","0.0"],
    [1563305,"2026-07-13 18:00:00","16015","1.339","145.8","2.156","135.0","1012.16","27.07","91.9","NAN","0.0"],
    [1563306,"2026-07-13 18:10:00","16016","1.4240000000000002","128.8","2.287","111.2","1012.17","26.99","92.1","NAN","0.0"],
    [1563307,"2026-07-13 18:20:00","16017","1.392","127.9","2.679","111.7","1012.135","27.07","91.5","NAN","0.0"],
    [1563308,"2026-07-13 18:30:00","16018","1.2229999999999999","114.3","2.156","90.7","1012.078","27.11","91.1","NAN","0.0"],
    [1563309,"2026-07-13 18:40:00","16019","1.2409999999999999","102.9","2.483","105.8","1012.235","27.13","91.2","NAN","0.0"],
    [1563310,"2026-07-13 18:50:00","16020","1.661","123.8","2.6460000000000004","143.8","1012.237","26.94","92.5","NAN","0.0"],
    [1563311,"2026-07-13 19:00:00","16021","1.6469999999999998","112.5","2.5810000000000004","121.3","1012.284","26.9","92.6","NAN","0.0"],
    [1563312,"2026-07-13 19:10:00","16022","1.271","113.0","2.287","110.0","1012.2869999999999","26.92","92.4","NAN","0.0"],
    [1563313,"2026-07-13 19:20:00","16023","0.985","111.1","2.123","104.8","1012.3489999999999","26.98","91.9","NAN","0.0"],
    [1563314,"2026-07-13 19:30:00","16024","1.24","98.3","2.254","118.2","1012.3489999999999","26.95","92.1","NAN","0.0"],
    [1563315,"2026-07-13 19:40:00","16025","1.3359999999999999","75.14","2.287","97.7","1012.3489999999999","26.92","91","NAN","0.0"],
    [1563316,"2026-07-13 19:50:00","16026","1.517","93.7","2.7110000000000003","94.0","1012.3489999999999","26.95","91.7","NAN","0.0"],
    [1563317,"2026-07-13 20:00:00","16027","1.3780000000000001","83.4","2.352","109.4","1012.427","26.92","92","NAN","0.0"],
    [1563318,"2026-07-13 20:10:00","16028","1.401","93.3","2.45","100.3","1012.582","26.9","92.9","NAN","0.0"],
    [1563319,"2026-07-13 20:20:00","16029","1.171","84.8","1.993","63.77","1012.88","26.79","93.5","NAN","0.0"],
    [1563320,"2026-07-13 20:30:00","16030","1.2109999999999999","91.0","1.9269999999999998","112.8","1013.067","26.8","93.3","NAN","0.0"],
    [1563321,"2026-07-13 20:40:00","16031","1.212","92.2","1.895","76.65","1013.296","26.7","93.3","NAN","0.0"],
    [1563322,"2026-07-13 20:50:00","16032","1.189","86.0","2.0580000000000003","66.53","1013.373","26.7","93.1","NAN","0.0"],
    [1563323,"2026-07-13 21:00:00","16033","1.018","112.1","1.699","80.8","1013.515","26.71","93.2","NAN","0.0"],
    [1563324,"2026-07-13 21:10:00","16034","1.35","96.2","2.483","98.8","1013.635","26.65","93.3","NAN","0.0"],
    [1563325,"2026-07-13 21:20:00","16035","1.321","83.2","2.352","75.63","1013.722","26.72","92.6","NAN","0.0"],
    [1563326,"2026-07-13 21:30:00","16036","1.296","93.6","2.189","107.1","1013.807","26.67","92.3","NAN","0.0"],
    [1563327,"2026-07-13 21:40:00","16037","1.09","93.0","1.895","104.8","1013.8389999999999","26.69","91.8","NAN","0.0"],
    [1563328,"2026-07-13 21:50:00","16038","1.5930000000000002","84.0","2.613","76.26","1013.862","26.69","90.7","NAN","0.0"],
    [1563329,"2026-07-13 22:00:00","16039","1.565","93.1","2.287","112.9","1013.904","26.6","90.5","NAN","0.0"],
    [1563330,"2026-07-13 22:10:00","16040","1.045","86.7","2.123","73.69","1013.9639999999999","26.63","90.8","NAN","0.0"],
    [1563331,"2026-07-13 22:20:00","16041","1.368","90.5","2.385","96.4","1013.9810000000001","26.62","91.4","NAN","0.0"],
    [1563332,"2026-07-13 22:30:00","16042","1.163","100.6","2.123","92.4","1014.069","26.57","91.6","NAN","0.0"],
    [1563333,"2026-07-13 22:40:00","16043","1.143","99.1","1.7309999999999999","59.72","1014.0980000000001","26.54","91.6","NAN","0.0"],
    [1563334,"2026-07-13 22:50:00","16044","0.862","88.9","1.339","87.6","1014.215","26.59","91.4","NAN","0.0"],
    [1563335,"2026-07-13 23:00:00","16045","1.1179999999999999","84.3","1.9269999999999998","71.58","1014.328","26.62","91.6","NAN","0.0"],
    [1563336,"2026-07-13 23:10:00","16046","1.248","90.9","1.895","68.07","1014.347","26.55","91.8","NAN","0.0"],
    [1563337,"2026-07-13 23:20:00","16047","1.2229999999999999","88.8","1.96","93.4","1014.37","26.55","91.2","NAN","0.0"],
    [1563338,"2026-07-13 23:30:00","16048","1.357","91.1","2.0909999999999997","95.6","1014.467","26.55","90.8","NAN","0.0"],
    [1563339,"2026-07-13 23:40:00","16049","1.061","87.1","1.96","88.5","1014.6339999999999","26.62","90","NAN","0.0"],
    [1563340,"2026-07-13 23:50:00","16050","1.207","57.87","2.0909999999999997","71.58","1014.7460000000001","26.6","89.5","NAN","0.0"],
    [1563341,"2026-07-14 00:00:00","16051","1.266","63.35","2.548","77.6","1014.679","26.48","90.1","NAN","0.0"],
    [1563342,"2026-07-14 00:10:00","16052","1.103","57.29","2.45","53.73","1014.7810000000001","26.4","90.5","NAN","0.0"],
    [1563343,"2026-07-14 00:20:00","16053","0.9420000000000001","68.06","2.025","70.21","1014.773","26.37","90.2","NAN","0.0"],
    [1563344,"2026-07-14 00:30:00","16054","0.799","85.0","1.5030000000000001","110.1","1014.8380000000001","26.44","89.8","NAN","0.0"],
    [1563345,"2026-07-14 00:40:00","16055","0.8340000000000001","71.37","1.568","64.78","1014.831","26.44","89.3","NAN","0.0"],
    [1563346,"2026-07-14 00:50:00","16056","1.047","58.14","1.895","53.84","1014.836","26.41","89","NAN","0.0"],
    [1563347,"2026-07-14 01:00:00","16057","1.123","69.1","2.123","96.9","1014.841","26.37","89.8","NAN","0.0"],
    [1563348,"2026-07-14 01:10:00","16058","0.902","81.5","1.7309999999999999","85.8","1014.828","26.45","90.7","NAN","0.0"],
    [1563349,"2026-07-14 01:20:00","16059","1.008","50.76","2.5810000000000004","28.33","1014.773","26.45","91.5","NAN","0.0"],
    [1563350,"2026-07-14 01:30:00","16060","1.032","73.51","2.548","86.1","1014.6239999999999","26.41","93.1","NAN","0.0"],
    [1563351,"2026-07-14 01:40:00","16061","1.229","86.8","2.548","106.6","1014.6439999999999","26.37","94.2","NAN","0.0"],
    [1563352,"2026-07-14 01:50:00","16062","1.689","82.8","2.613","78.31","1014.7539999999999","26.32","94.6","NAN","0.0"],
    [1563353,"2026-07-14 02:00:00","16063","1.3840000000000001","79.52","2.7769999999999997","79.14","1014.7410000000001","26.35","95.3","NAN","0.0"],
    [1563354,"2026-07-14 02:10:00","16064","1.5959999999999999","83.5","3.136","82.5","1014.748","26.27","93","NAN","0.0"],
    [1563355,"2026-07-14 02:20:00","16065","1.716","72.25","3.495","70.66","1014.6239999999999","26.4","88.6","NAN","0.0"],
    [1563356,"2026-07-14 02:30:00","16066","1.761","73.74","2.907","79.85","1014.6039999999999","26.47","88.6","NAN","0.0"],
    [1563357,"2026-07-14 02:40:00","16067","1.7690000000000001","70.2","3.071","74.32","1014.5419999999999","26.45","89.5","NAN","0.0"],
    [1563358,"2026-07-14 02:50:00","16068","1.21","58.73","2.679","25.96","1014.512","26.44","88","NAN","0.0"],
    [1563359,"2026-07-14 03:00:00","16069","1.19","43.49","2.6460000000000004","49.22","1014.477","26.42","86.9","NAN","0.0"],
    [1563360,"2026-07-14 03:10:00","16070","1.4809999999999999","54.67","3.234","63.84","1014.414","26.37","87.5","NAN","0.0"],
    [1563361,"2026-07-14 03:20:00","16071","2.022","46.64","3.43","60.2","1014.34","26.21","88.8","NAN","0.0"],
    [1563362,"2026-07-14 03:30:00","16072","1.781","44.42","3.528","6.662999999999999","1014.365","26.08","89.8","NAN","0.0"],
    [1563363,"2026-07-14 03:40:00","16073","1.506","50.03","3.332","37.86","1014.3430000000001","25.99","90.2","NAN","0.0"],
    [1563364,"2026-07-14 03:50:00","16074","1.266","43.5","2.7439999999999998","30.46","1014.4069999999999","25.92","90.4","NAN","0.0"],
    [1563365,"2026-07-14 04:00:00","16075","1.204","53.66","2.7439999999999998","30.46","1014.355","25.86","90","NAN","0.0"],
    [1563366,"2026-07-14 04:10:00","16076","1.2429999999999999","48.5","2.156","55.26","1014.3430000000001","25.84","89.9","NAN","0.0"],
    [1563367,"2026-07-14 04:20:00","16077","1.304","54.75","2.5810000000000004","54.7","1014.34","25.8","90.2","NAN","0.0"],
    [1563368,"2026-07-14 04:30:00","16078","1.037","53.56","2.189","71.83","1014.357","25.79","90.4","NAN","0.0"],
    [1563369,"2026-07-14 04:40:00","16079","0.973","52.36","1.895","70.81","1014.345","25.79","89.9","NAN","0.0"],
    [1563370,"2026-07-14 04:50:00","16080","0.728","24.39","2.0580000000000003","47.27","1014.4019999999999","25.88","88.5","NAN","0.0"],
    [1563371,"2026-07-14 05:00:00","16081","0.648","23.57","1.764","28.54","1014.387","26.06","86.5","NAN","0.0"],
    [1563372,"2026-07-14 05:10:00","16082","0.807","26.27","1.764","48.99","1014.5169999999999","26.28","84.7","NAN","0.0"],
    [1563373,"2026-07-14 05:20:00","16083","0.647","9.18","1.9269999999999998","6.346","1014.694","26.44","83.7","NAN","0.0"],
    [1563374,"2026-07-14 05:30:00","16084","0.7090000000000001","39.39","1.633","10.32","1014.6310000000001","26.61","82.7","NAN","0.0"],
    [1563375,"2026-07-14 05:40:00","16085","1.133","33.96","2.254","349.9","1014.632","26.72","81.9","NAN","0.0"],
    [1563376,"2026-07-14 05:50:00","16086","1.19","27.21","2.7769999999999997","66.75","1014.65","26.78","81.5","NAN","0.0"],
    [1563377,"2026-07-14 06:00:00","16087","1.466","6.362","2.7769999999999997","14.39","1014.581","26.93","80.6","NAN","0.0"],
    [1563378,"2026-07-14 06:10:00","16088","1.369","19.71","3.528","48.35","1014.427","27.14","79.51","NAN","0.0"],
    [1563379,"2026-07-14 06:20:00","16089","1.3530000000000002","10.16","2.842","43.26","1014.362","27.22","78.62","NAN","0.0"],
    [1563380,"2026-07-14 06:30:00","16090","1.466","37.43","3.201","60.71","1014.51","27.31","77.93","NAN","0.0"],
    [1563381,"2026-07-14 06:40:00","16091","1.262","23.43","3.1689999999999996","65.87","1014.518","27.71","75.76","NAN","0.0"],
    [1563382,"2026-07-14 06:50:00","16092","1.236","27.66","2.842","6.058","1014.663","27.92","74.63","NAN","0.0"],
    [1563383,"2026-07-14 07:00:00","16093","1.5390000000000001","47.93","3.659","69.07","1014.81","28.07","73.39","NAN","0.0"],
    [1563384,"2026-07-14 07:10:00","16094","1.157","21.23","2.8089999999999997","29.5","1014.8789999999999","28.13","72.83","NAN","0.0"],
    [1563385,"2026-07-14 07:20:00","16095","1.867","111.7","3.365","96.7","1014.908","28.22","73.8","NAN","0.0"],
    [1563386,"2026-07-14 07:30:00","16096","1.95","124.7","2.9730000000000003","119.1","1015.0010000000001","27.2","79.63","NAN","0.0"],
    [1563387,"2026-07-14 07:40:00","16097","2.045","131.5","4.149","117.3","1015.188","27.38","80.2","NAN","0.0"],
    [1563388,"2026-07-14 07:50:00","16098","2.2030000000000003","120.1","3.071","110.5","1015.331","27.46","79.48","NAN","0.0"],
    [1563389,"2026-07-14 08:00:00","16099","2.0469999999999997","122.2","3.234","112.9","1015.462","27.63","78.62","NAN","0.0"],
    [1563390,"2026-07-14 08:10:00","16100","2.312","124.6","3.463","112.8","1015.5939999999999","27.64","78.87","NAN","9.7"],
    [1563391,"2026-07-14 08:20:00","16101","2.245","121.7","3.463","111.2","1015.758","27.73","78.92","NAN","0.0"],
    [1563392,"2026-07-14 08:30:00","16102","2.144","131.1","3.9530000000000003","113.4","1015.887","27.67","78.86","NAN","0.0"],
    [1563393,"2026-07-14 08:40:00","16103","1.9080000000000001","156.3","3.887","161.3","1016.085","27.7","80.3","NAN","0.0"],
    [1563394,"2026-07-14 08:50:00","16104","1.182","128.5","4.9","109.0","1016.311","29","74.44","NAN","0.0"],
    [1563395,"2026-07-14 09:00:00","16105","2.154","156.3","3.659","169.4","1016.345","28.01","76.82","NAN","0.4"],
    [1563396,"2026-07-14 09:10:00","16106","2.324","153.1","3.7889999999999997","163.3","1016.4639999999999","27.94","77.47","NAN","0.0"],
    [1563397,"2026-07-14 09:20:00","16107","2.246","147.1","3.6910000000000003","137.5","1016.534","27.89","78.61","NAN","0.0"],
    [1563398,"2026-07-14 09:30:00","16108","2.364","148.0","4.149","150.1","1016.715","28.01","77.75","NAN","0.0"],
    [1563399,"2026-07-14 09:40:00","16109","2.145","142.5","3.887","153.1","1016.7819999999999","27.91","77.66","NAN","0.0"],
    [1563400,"2026-07-14 09:50:00","16110","2.043","143.8","3.985","163.3","1016.895","28.05","77.83","NAN","0.0"],
    [1563401,"2026-07-14 10:00:00","16111","2.003","126.4","3.299","111.3","1016.8960000000001","28.3","77.04","NAN","0.0"],
    [1563402,"2026-07-14 10:10:00","16112","2.406","156.0","4.2139999999999995","165.4","1016.8610000000001","27.95","77.75","NAN","0.0"],
    [1563403,"2026-07-14 10:20:00","16113","1.9040000000000001","145.0","3.463","146.5","1016.932","28.41","74.71","NAN","0.0"],
    [1563404,"2026-07-14 10:30:00","16114","1.857","169.4","3.659","197.1","1017.007","28.75","75.18","NAN","0.0"],
    [1563405,"2026-07-14 10:40:00","16115","2.483","181.7","5.194","171.1","1017.102","28.43","78.39","NAN","0.0"],
    [1563406,"2026-07-14 10:50:00","16116","2.523","174.1","4.41","182.3","1017.0880000000001","28.16","79.33","NAN","0.0"],
    [1563407,"2026-07-14 11:00:00","16117","2.5469999999999997","182.5","4.083","176.3","1017.1080000000001","28.21","79.91","NAN","0.0"],
    [1563408,"2026-07-14 11:10:00","16118","2.832","182.7","4.312","173.1","1017.035","28.06","79.56","NAN","0.0"],
    [1563409,"2026-07-14 11:20:00","16119","2.458","185.1","4.018","192.8","1017.035","28.24","77.35","NAN","0.0"],
    [1563410,"2026-07-14 11:30:00","16120","2.779","180.4","4.41","189.3","1017.1160000000001","28.16","76.9","NAN","0.0"],
    [1563411,"2026-07-14 11:40:00","16121","2.556","184.3","4.606","188.2","1017.012","28.27","77.02","NAN","0.0"],
    [1563412,"2026-07-14 11:50:00","16122","2.255","177.3","3.659","145.8","1016.8430000000001","28.39","77.56","NAN","0.0"],
    [1563413,"2026-07-14 12:00:00","16123","2.1790000000000003","157.1","4.312","155.8","1016.615","28.35","77.81","NAN","0.0"],
    [1563414,"2026-07-14 12:10:00","16124","2.164","142.2","4.312","151.8","1016.573","28.19","77.58","NAN","0.0"],
    [1563415,"2026-07-14 12:20:00","16125","2.273","152.6","4.802","148.3","1016.653","28.19","77.5","NAN","0.0"],
    [1563416,"2026-07-14 12:30:00","16126","2.454","147.8","4.1160000000000005","146.0","1016.5060000000001","28.07","78.12","NAN","0.0"],
    [1563417,"2026-07-14 12:40:00","16127","2.3409999999999997","138.5","4.737","140.3","1016.461","28.32","77.14","NAN","0.0"],
    [1563418,"2026-07-14 12:50:00","16128","2.425","151.4","4.475","153.3","1016.429","28.3","76.85","NAN","0.0"],
    [1563419,"2026-07-14 13:00:00","16129","2.311","153.7","4.247","135.6","1016.4169999999999","27.95","79.58","NAN","0.0"],
    [1563420,"2026-07-14 13:10:00","16130","2.418","159.4","4.083","166.3","1016.415","28","78.38","NAN","0.0"],
    [1563421,"2026-07-14 13:20:00","16131","2.265","136.4","4.018","145.1","1016.3939999999999","28.03","78.99","NAN","0.0"],
    [1563422,"2026-07-14 13:30:00","16132","2.312","145.3","4.083","138.4","1016.323","28.29","77.91","NAN","0.0"],
    [1563423,"2026-07-14 13:40:00","16133","2.255","148.0","3.887","180.4","1016.2239999999999","28.13","77.89","NAN","0.0"],
    [1563424,"2026-07-14 13:50:00","16134","2.331","134.2","3.9530000000000003","116.5","1016.057","27.89","78.62","NAN","0.0"],
    [1563425,"2026-07-14 14:00:00","16135","2.1390000000000002","152.3","3.7239999999999998","162.7","1016.035","28.07","78.26","NAN","0.0"],
    [1563426,"2026-07-14 14:10:00","16136","2.074","139.9","3.855","158.7","1016.038","28.12","77.73","NAN","0.0"],
    [1563427,"2026-07-14 14:20:00","16137","1.761","160.7","3.822","166.0","1015.9689999999999","28.72","75.54","NAN","0.0"],
    [1563428,"2026-07-14 14:30:00","16138","1.942","145.0","3.103","139.3","1015.804","28.41","76.69","NAN","0.0"],
    [1563429,"2026-07-14 14:40:00","16139","1.903","177.6","3.234","193.8","1015.794","28.6","76.76","NAN","0.0"],
    [1563430,"2026-07-14 14:50:00","16140","1.778","180.7","3.495","148.5","1015.7810000000001","28.59","76.16","NAN","0.0"],
    [1563431,"2026-07-14 15:00:00","16141","1.5759999999999998","186.1","3.0380000000000003","147.2","1015.812","28.62","76.56","NAN","0.0"],
    [1563432,"2026-07-14 15:10:00","16142","1.768","177.3","3.201","183.5","1015.753","28.75","74.68","NAN","0.0"],
    [1563433,"2026-07-14 15:20:00","16143","1.9069999999999998","170.1","3.9530000000000003","178.1","1015.592","28.16","76.61","NAN","0.0"],
    [1563434,"2026-07-14 15:30:00","16144","1.9709999999999999","177.0","3.201","147.8","1015.4839999999999","28.19","78.09","NAN","0.0"],
    [1563435,"2026-07-14 15:40:00","16145","1.935","180.0","3.267","176.5","1015.447","28.39","77.56","NAN","0.0"],
    [1563436,"2026-07-14 15:50:00","16146","2.068","178.2","3.332","188.1","1015.39","28.14","78.68","NAN","0.0"],
    [1563437,"2026-07-14 16:00:00","16147","2.208","181.5","3.7569999999999997","181.2","1015.318","28.15","78.25","NAN","0.0"],
    [1563438,"2026-07-14 16:10:00","16148","2.17","184.6","3.855","182.7","1015.291","28.43","77.19","NAN","0.0"],
    [1563439,"2026-07-14 16:20:00","16149","2.41","170.3","3.985","179.0","1015.257","28.02","79.06","NAN","0.0"],
    [1563440,"2026-07-14 16:30:00","16150","2.404","175.8","3.7889999999999997","179.3","1015.198","27.98","78.55","NAN","0.0"],
    [1563441,"2026-07-14 16:40:00","16151","2.503","172.9","4.149","170.7","1015.148","27.89","79.9","NAN","0.0"],
    [1563442,"2026-07-14 16:50:00","16152","2.441","168.6","3.6910000000000003","172.1","1015.102","27.86","80.3","NAN","0.0"],
    [1563443,"2026-07-14 17:00:00","16153","2.305","166.0","3.9530000000000003","155.3","1015.046","27.86","79.98","NAN","0.0"],
    [1563444,"2026-07-14 17:10:00","16154","2.467","168.9","3.7889999999999997","163.1","1015.072","27.93","79.55","NAN","0.0"],
    [1563445,"2026-07-14 17:20:00","16155","2.42","169.2","3.593","177.2","1014.933","28.01","79.71","NAN","0.0"],
    [1563446,"2026-07-14 17:30:00","16156","2.705","172.4","4.1160000000000005","177.8","1014.835","28.02","79.75","NAN","0.0"],
    [1563447,"2026-07-14 17:40:00","16157","2.399","174.7","3.6260000000000003","169.5","1014.83","28.2","79.28","NAN","0.0"],
    [1563448,"2026-07-14 17:50:00","16158","2.693","172.3","4.083","168.9","1014.836","28.15","80.9","NAN","0.0"],
    [1563449,"2026-07-14 18:00:00","16159","2.842","171.8","3.92","177.5","1014.8610000000001","27.96","82.6","NAN","0.0"],
    [1563450,"2026-07-14 18:10:00","16160","2.5610000000000004","166.4","3.855","179.0","1014.941","28.22","81","NAN","0.0"],
    [1563451,"2026-07-14 18:20:00","16161","2.202","184.5","3.6910000000000003","173.1","1015.007","28.59","79.14","NAN","0.0"],
    [1563452,"2026-07-14 18:30:00","16162","1.911","192.1","3.43","169.5","1014.924","28.67","78.77","NAN","0.0"],
    [1563453,"2026-07-14 18:40:00","16163","1.633","193.6","2.7769999999999997","171.4","1014.8489999999999","28.39","80.5","NAN","0.0"],
    [1563454,"2026-07-14 18:50:00","16164","1.054","208.9","2.8089999999999997","207.1","1014.865","28.57","78.99","NAN","0.0"],
    [1563455,"2026-07-14 19:00:00","16165","1.396","213.5","2.907","221.9","1014.84","28.55","79.05","NAN","0.0"],
    [1563456,"2026-07-14 19:10:00","16166","1.288","213.8","3.071","215.6","1014.92","28.4","79.98","NAN","0.0"],
    [1563457,"2026-07-14 19:20:00","16167","1.115","209.9","2.907","240.2","1014.8430000000001","28.3","80.8","NAN","0.0"],
    [1563458,"2026-07-14 19:30:00","16168","1.147","222.1","2.7439999999999998","206.5","1014.966","28.29","80.7","NAN","0.0"],
    [1563459,"2026-07-14 19:40:00","16169","1.3019999999999998","217.0","3.136","208.9","1014.945","28.21","81.2","NAN","0.0"],
    [1563460,"2026-07-14 19:50:00","16170","1.307","207.2","3.071","227.1","1015.065","27.99","82.9","NAN","0.0"],
    [1563461,"2026-07-14 20:00:00","16171","0.9570000000000001","215.3","3.0380000000000003","264.9","1015.145","27.96","83.6","NAN","0.0"],
    [1563462,"2026-07-14 20:10:00","16172","1.462","236.3","3.7239999999999998","217.9","1015.2639999999999","28.03","83.1","NAN","0.0"],
    [1563463,"2026-07-14 20:20:00","16173","1.3969999999999998","238.4","3.43","247.2","1015.472","28.17","82.4","NAN","0.0"],
    [1563464,"2026-07-14 20:30:00","16174","1.1520000000000001","242.1","2.6460000000000004","251.1","1015.775","28.27","82.1","NAN","0.0"],
    [1563465,"2026-07-14 20:40:00","16175","1.179","234.9","2.8089999999999997","239.4","1015.89","28.13","83.2","NAN","0.0"],
    [1563466,"2026-07-14 20:50:00","16176","1.162","235.7","3.234","244.7","1015.735","27.98","83.7","NAN","0.0"],
    [1563467,"2026-07-14 21:00:00","16177","0.8540000000000001","238.5","2.45","225.5","1015.56","27.97","83.5","NAN","0.0"],
    [1563468,"2026-07-14 21:10:00","16178","0.877","104.0","1.601","77.82","1015.0139999999999","27.82","84.1","NAN","0.0"],
    [1563469,"2026-07-14 21:20:00","16179","0.7","82.8","1.633","50.11","1014.923","27.79","83.7","NAN","0.0"],
    [1563470,"2026-07-14 21:30:00","16180","0.518","27.17","1.4369999999999998","19.31","1015.19","28.01","82.5","NAN","0.0"],
    [1563471,"2026-07-14 21:40:00","16181","0.889","139.3","2.025","156.0","1015.2639999999999","28.13","82.1","NAN","0.0"],
    [1563472,"2026-07-14 21:50:00","16182","1.087","163.1","2.0580000000000003","154.4","1015.034","28","83.7","NAN","0.0"],
    [1563473,"2026-07-14 22:00:00","16183","1.075","189.5","2.0909999999999997","178.0","1015.05","27.82","85.7","NAN","0.0"],
    [1563474,"2026-07-14 22:10:00","16184","1.146","215.8","3.495","218.8","1015.576","27.79","85.3","NAN","0.0"],
    [1563475,"2026-07-14 22:20:00","16185","1.9869999999999999","252.9","4.606","244.4","1015.683","28.06","82.9","NAN","0.0"],
    [1563476,"2026-07-14 22:30:00","16186","1.25","230.2","3.528","246.0","1015.683","27.98","83.8","NAN","0.0"],
    [1563477,"2026-07-14 22:40:00","16187","1.335","241.8","4.1160000000000005","240.2","1015.565","27.96","83.1","NAN","0.0"],
    [1563478,"2026-07-14 22:50:00","16188","1.3969999999999998","243.0","3.1689999999999996","237.3","1015.3860000000001","27.95","82.4","NAN","0.0"],
    [1563479,"2026-07-14 23:00:00","16189","0.958","225.6","2.352","236.1","1015.419","27.93","82.1","NAN","0.0"],
    [1563480,"2026-07-14 23:10:00","16190","1.047","208.9","2.9730000000000003","209.3","1015.404","27.87","81.8","NAN","0.0"],
    [1563481,"2026-07-14 23:20:00","16191","1.2","210.2","2.385","192.8","1015.439","27.54","82.2","NAN","0.0"],
    [1563482,"2026-07-14 23:30:00","16192","1.0390000000000001","203.7","2.875","201.0","1015.372","27.54","81.9","NAN","0.0"],
    [1563483,"2026-07-14 23:40:00","16193","1.325","215.1","3.0380000000000003","234.7","1015.5010000000001","27.49","83.9","NAN","0.0"],
    [1563484,"2026-07-14 23:50:00","16194","1.0090000000000001","232.0","2.679","232.1","1015.4580000000001","27.4","85.9","NAN","0.0"],
    [1563485,"2026-07-15 00:00:00","16195","1.052","223.9","2.613","261.9","1015.314","27.35","86.2","NAN","0.0"],
    [1563486,"2026-07-15 00:10:00","16196","0.9520000000000001","226.9","3.0380000000000003","217.4","1015.334","27.44","85.3","NAN","0.0"],
    [1563487,"2026-07-15 00:20:00","16197","1.4780000000000002","227.5","4.083","241.4","1015.3510000000001","27.29","87","NAN","0.0"],
    [1563488,"2026-07-15 00:30:00","16198","1.535","218.6","3.201","193.8","1015.456","27.17","88.6","NAN","0.0"],
    [1563489,"2026-07-15 00:40:00","16199","1.429","229.4","3.0380000000000003","223.3","1015.6260000000001","27.04","89.7","NAN","0.0"],
    [1563490,"2026-07-15 00:50:00","16200","1.27","241.7","3.071","278.0","1015.725","27.09","88.9","NAN","0.0"],
    [1563491,"2026-07-15 01:00:00","16201","1.625","242.4","6.566","236.1","1015.735","27.2","87.7","NAN","0.0"],
    [1563492,"2026-07-15 01:10:00","16202","1.916","240.4","4.377","238.1","1015.638","27.15","87","NAN","0.0"],
    [1563493,"2026-07-15 01:20:00","16203","1.864","241.8","4.606","256.4","1015.563","27.15","85","NAN","0.0"],
    [1563494,"2026-07-15 01:30:00","16204","1.935","243.0","4.2139999999999995","235.2","1015.513","27.08","83.6","NAN","0.0"],
    [1563495,"2026-07-15 01:40:00","16205","1.587","242.7","4.149","230.3","1015.461","27.03","81.3","NAN","0.0"],
    [1563496,"2026-07-15 01:50:00","16206","1.334","246.6","3.1689999999999996","239.6","1015.3910000000001","27.19","79.88","NAN","0.0"],
    [1563497,"2026-07-15 02:00:00","16207","1.535","241.1","3.6260000000000003","233.2","1015.342","27.26","80.2","NAN","0.0"],
    [1563498,"2026-07-15 02:10:00","16208","1.412","246.0","3.528","232.6","1015.2919999999999","27.23","80.9","NAN","0.0"],
    [1563499,"2026-07-15 02:20:00","16209","1.245","251.3","3.495","263.6","1015.204","27.23","81.2","NAN","0.0"],
    [1563500,"2026-07-15 02:30:00","16210","1.3319999999999999","267.8","2.679","256.0","1015.189","27.33","80.2","NAN","0.0"],
    [1563501,"2026-07-15 02:40:00","16211","0.9540000000000001","262.9","3.136","259.9","1015.092","27.46","79.63","NAN","0.0"],
    [1563502,"2026-07-15 02:50:00","16212","1.203","238.7","3.365","229.2","1015.047","27.4","79.96","NAN","0.0"],
    [1563503,"2026-07-15 03:00:00","16213","1.751","237.7","3.43","252.8","1015.077","27.31","80.2","NAN","0.0"],
    [1563504,"2026-07-15 03:10:00","16214","1.443","240.7","3.0380000000000003","233.4","1014.791","27.32","80.2","NAN","0.0"],
    [1563505,"2026-07-15 03:20:00","16215","1.6540000000000001","239.0","3.299","250.7","1014.791","27.33","80.2","NAN","0.0"],
    [1563506,"2026-07-15 03:30:00","16216","1.287","232.7","3.822","252.7","1015.023","27.38","80.1","NAN","0.0"],
    [1563507,"2026-07-15 03:40:00","16217","1.168","222.0","2.548","223.5","1015.217","27.21","81.1","NAN","0.0"],
    [1563508,"2026-07-15 03:50:00","16218","1.319","219.8","2.7110000000000003","215.5","1015.12","27","82","NAN","0.0"],
    [1563509,"2026-07-15 04:00:00","16219","1.3159999999999998","222.6","3.0380000000000003","229.8","1015.102","27","82","NAN","0.0"],
    [1563510,"2026-07-15 04:10:00","16220","1.065","217.2","2.0909999999999997","233.0","1015.115","26.96","82.2","NAN","0.0"],
    [1563511,"2026-07-15 04:20:00","16221","0.713","212.1","1.993","235.6","1015.1","26.85","83.1","NAN","0.0"],
    [1563512,"2026-07-15 04:30:00","16222","0.991","220.3","2.352","224.1","1015.2769999999999","26.82","83.2","NAN","0.0"],
    [1563513,"2026-07-15 04:40:00","16223","1.05","217.1","2.352","226.6","1015.322","26.82","83.2","NAN","0.0"],
    [1563514,"2026-07-15 04:50:00","16224","1.078","218.7","2.613","215.9","1015.3389999999999","26.78","84","NAN","0.0"],
    [1563515,"2026-07-15 05:00:00","16225","1.077","224.6","2.319","227.2","1015.5110000000001","26.77","84.7","NAN","0.0"],
    [1563516,"2026-07-15 05:10:00","16226","0.99","227.3","2.123","236.3","1015.66","26.83","85.1","NAN","0.0"],
    [1563517,"2026-07-15 05:20:00","16227","0.883","225.3","2.6460000000000004","212.4","1015.676","27.07","85","NAN","0.0"],
    [1563518,"2026-07-15 05:30:00","16228","0.732","223.8","2.025","231.2","1015.6410000000001","27.16","85","NAN","0.0"],
    [1563519,"2026-07-15 05:40:00","16229","1.004","224.2","2.7439999999999998","237.7","1015.743","27.37","83.7","NAN","0.0"],
    [1563520,"2026-07-15 05:50:00","16230","1.239","220.1","2.385","240.9","1015.73","27.38","83.2","NAN","0.0"],
    [1563521,"2026-07-15 06:00:00","16231","1.179","219.6","3.136","208.5","1015.8960000000001","27.56","82.4","NAN","0.0"],
    [1563522,"2026-07-15 06:10:00","16232","1.4980000000000002","206.3","4.018","211.5","1016.308","27.85","81.8","NAN","0.0"],
    [1563523,"2026-07-15 06:20:00","16233","1.127","215.4","2.875","220.3","1016.0989999999999","27.95","81.8","NAN","0.0"],
    [1563524,"2026-07-15 06:30:00","16234","1.1440000000000001","240.3","3.1689999999999996","197.1","1016.143","28.19","81.3","NAN","0.0"],
    [1563525,"2026-07-15 06:40:00","16235","1.6580000000000001","232.1","3.822","222.9","1016.122","28.18","81.3","NAN","0.0"],
    [1563526,"2026-07-15 06:50:00","16236","1.74","227.6","4.541","237.1","1015.998","28.25","81.7","NAN","0.0"],
    [1563527,"2026-07-15 07:00:00","16237","1.609","257.0","4.279","252.5","1015.982","28.75","79.23","NAN","0.0"],
    [1563528,"2026-07-15 07:10:00","16238","1.923","234.5","4.2139999999999995","228.7","1016.0369999999999","28.74","78.77","NAN","0.0"],
    [1563529,"2026-07-15 07:20:00","16239","1.5390000000000001","223.6","3.7569999999999997","226.7","1015.846","29.11","76.97","NAN","0.0"],
    [1563530,"2026-07-15 07:30:00","16240","1.38","264.2","2.94","245.4","1015.7180000000001","29.56","73.55","NAN","0.0"],
    [1563531,"2026-07-15 07:40:00","16241","0.821","223.8","1.829","282.4","1015.4960000000001","29.99","71.48","NAN","0.0"],
    [1563532,"2026-07-15 07:50:00","16242","0.469","199.3","1.699","170.7","1015.3739999999999","30.47","69.66","NAN","0.0"],
    [1563533,"2026-07-15 08:00:00","16243","0.688","225.6","1.993","257.9","1015.25","31.12","66.31","NAN","0.0"],
    [1563534,"2026-07-15 08:10:00","16244","1.9469999999999998","172.2","3.267","159.6","1015.2310000000001","30.62","68.7","NAN","0.0"],
    [1563535,"2026-07-15 08:20:00","16245","1.655","187.8","4.051","176.7","1015.201","30.26","75.33","NAN","0.0"],
    [1563536,"2026-07-15 08:30:00","16246","2.134","179.0","3.822","166.6","1015.279","29.74","77.82","NAN","0.0"],
    [1563537,"2026-07-15 08:40:00","16247","2.591","184.6","4.41","176.8","1015.655","30.39","74.25","NAN","0.0"],
    [1563538,"2026-07-15 08:50:00","16248","2.513","192.2","4.933","194.2","1015.6039999999999","30.48","73.94","NAN","0.0"],
    [1563539,"2026-07-15 09:00:00","16249","1.9969999999999999","194.5","4.051","165.4","1015.3639999999999","30.8","71.81","NAN","0.0"],
    [1563540,"2026-07-15 09:10:00","16250","1.794","192.4","3.593","162.1","1015.1260000000001","31.11","69.77","NAN","0.0"],
    [1563541,"2026-07-15 09:20:00","16251","2.0269999999999997","174.2","3.201","175.6","1014.789","31.18","69.9","NAN","0.0"],
    [1563542,"2026-07-15 09:30:00","16252","3.362","172.2","5.586","176.7","1014.837","30.33","74.81","NAN","0.0"],
    [1563543,"2026-07-15 09:40:00","16253","2.572","175.5","4.835","189.1","1014.56","29.79","78.38","NAN","0.0"],
    [1563544,"2026-07-15 09:50:00","16254","2.725","162.8","5.292000000000001","183.3","1014.421","29.88","78.01","NAN","0.0"],
    [1563545,"2026-07-15 10:00:00","16255","3.037","171.2","5.553","185.9","1014.563","30.13","76.59","NAN","0.0"],
    [1563546,"2026-07-15 10:10:00","16256","2.887","174.5","4.704","161.5","1014.191","29.78","78.56","NAN","0.0"],
    [1563547,"2026-07-15 10:20:00","16257","1.722","183.1","3.593","185.0","1014.164","30.95","73.91","NAN","0.0"],
    [1563548,"2026-07-15 10:30:00","16258","2.471","173.7","4.149","172.3","1014.166","30.81","74.07","NAN","0.0"],
    [1563549,"2026-07-15 10:40:00","16259","1.9580000000000002","181.1","3.9530000000000003","172.0","1014.34","31","73.45","NAN","0.0"],
    [1563550,"2026-07-15 10:50:00","16260","1.9380000000000002","179.8","4.41","178.5","1014.456","31.49","71.09","NAN","0.0"],
    [1563551,"2026-07-15 11:00:00","16261","2.092","168.1","4.9","174.5","1014.587","30.24","77.34","NAN","0.0"],
    [1563552,"2026-07-15 11:10:00","16262","3.2710000000000004","180.4","11.37","165.2","1014.709","29.97","78.19","NAN","0.0"],
    [1563553,"2026-07-15 11:20:00","16263","3.5239999999999996","201.2","9.05","169.5","1014.91","30","77.25","NAN","0.0"],
    [1563554,"2026-07-15 11:30:00","16264","3.048","199.1","6.631","219.1","1015.445","30.37","76.25","NAN","0.0"],
    [1563555,"2026-07-15 11:40:00","16265","2.8510000000000004","201.5","8.0","198.8","1015.177","30.09","77.93","NAN","0.0"],
    [1563556,"2026-07-15 11:50:00","16266","2.6039999999999996","222.0","7.775","169.6","1015.7769999999999","30.06","77.25","NAN","0.0"],
    [1563557,"2026-07-15 12:00:00","16267","3.091","233.0","8.85","238.4","1016.1089999999999","30.63","75.54","NAN","0.0"],
    [1563558,"2026-07-15 12:10:00","16268","3.362","228.4","8.1","235.6","1015.87","30.98","72.3","NAN","0.0"],
    [1563559,"2026-07-15 12:20:00","16269","2.8560000000000003","221.9","6.827000000000001","236.3","1015.73","31.51","69.87","NAN","0.0"],
    [1563560,"2026-07-15 12:30:00","16270","2.399","211.1","7.285","248.4","1015.528","31.64","70.11","NAN","0.0"],
    [1563561,"2026-07-15 12:40:00","16271","2.7030000000000003","230.0","6.566","243.7","1015.38","31.81","68.37","NAN","0.0"],
    [1563562,"2026-07-15 12:50:00","16272","2.267","219.9","5.978","206.4","1015.071","31.91","67.31","NAN","0.0"],
    [1563563,"2026-07-15 13:00:00","16273","1.405","211.2","3.103","170.5","1014.863","32.02","66.66","NAN","0.0"],
    [1563564,"2026-07-15 13:10:00","16274","2.4019999999999997","193.8","4.573","169.9","1015.145","31.69","69.54","NAN","0.0"],
    [1563565,"2026-07-15 13:20:00","16275","2.577","222.1","5.553","219.4","1015.2710000000001","31.58","67.41","NAN","0.0"],
    [1563566,"2026-07-15 13:30:00","16276","1.891","221.9","5.1610000000000005","210.1","1015.21","32.2","63.8","NAN","0.0"],
    [1563567,"2026-07-15 13:40:00","16277","2.469","211.8","5.455","189.9","1014.872","32.54","62.35","NAN","0.0"],
    [1563568,"2026-07-15 13:50:00","16278","1.695","202.5","3.43","203.6","1014.6","33.06","61.29","NAN","0.0"],
    [1563569,"2026-07-15 14:00:00","16279","1.456","225.4","3.887","230.6","1014.6060000000001","34.01","58.56","NAN","0.0"],
    [1563570,"2026-07-15 14:10:00","16280","1.754","198.6","5.096","224.9","1014.6139999999999","34.28","55.66","NAN","0.0"],
    [1563571,"2026-07-15 14:20:00","16281","2.401","185.8","5.194","183.2","1014.311","34.2","53.73","NAN","0.0"],
    [1563572,"2026-07-15 14:30:00","16282","2.548","194.9","5.521","176.7","1014.2289999999999","32.87","60.21","NAN","0.0"],
    [1563573,"2026-07-15 14:40:00","16283","2.457","203.0","6.925","206.9","1014.336","31.93","63.61","NAN","0.0"],
    [1563574,"2026-07-15 14:50:00","16284","2.036","199.8","5.031000000000001","211.2","1014.321","31.52","64.31","NAN","0.0"],
    [1563575,"2026-07-15 15:00:00","16285","1.725","231.3","5.2589999999999995","242.9","1014.3789999999999","31.59","63.88","NAN","0.0"],
    [1563576,"2026-07-15 15:10:00","16286","1.985","177.2","4.2139999999999995","184.4","1013.935","31.49","65.97","NAN","0.0"],
    [1563577,"2026-07-15 15:20:00","16287","2.176","180.9","3.887","185.3","1013.816","30.61","72.71","NAN","0.0"],
    [1563578,"2026-07-15 15:30:00","16288","2.403","188.3","4.41","177.3","1013.826","30.01","78.33","NAN","0.0"],
    [1563579,"2026-07-15 15:40:00","16289","1.7519999999999998","198.4","3.9530000000000003","174.3","1013.802","30.06","79.01","NAN","0.0"],
    [1563580,"2026-07-15 15:50:00","16290","2.0140000000000002","225.1","4.018","222.9","1014.245","30.52","76.44","NAN","0.0"],
    [1563581,"2026-07-15 16:00:00","16291","2.124","206.0","5.847","220.6","1014.617","31.02","75.21","NAN","0.0"],
    [1563582,"2026-07-15 16:10:00","16292","2.178","218.1","7.056","219.1","1014.7689999999999","30.54","77.72","NAN","0.0"],
    [1563583,"2026-07-15 16:20:00","16293","1.0859999999999999","223.6","3.7569999999999997","222.5","1014.7560000000001","31.07","72.39","NAN","0.0"],
    [1563584,"2026-07-15 16:30:00","16294","1.534","207.9","3.855","181.9","1014.398","31.14","69.68","NAN","0.0"],
    [1563585,"2026-07-15 16:40:00","16295","0.684","197.8","3.136","185.2","1014.4019999999999","31.39","68.15","NAN","0.0"],
    [1563586,"2026-07-15 16:50:00","16296","1.337","205.3","3.659","166.0","1014.535","31.26","68.1","NAN","0.0"],
    [1563587,"2026-07-15 17:00:00","16297","1.078","201.2","3.9530000000000003","213.4","1014.6610000000001","31.48","65.91","NAN","0.0"],
    [1563588,"2026-07-15 17:10:00","16298","1.618","227.2","4.606","248.1","1014.7560000000001","31.75","65.24","NAN","0.0"],
    [1563589,"2026-07-15 17:20:00","16299","1.949","219.2","4.312","215.3","1014.7460000000001","31.45","66.92","NAN","0.0"],
    [1563590,"2026-07-15 17:30:00","16300","2.029","220.9","4.835","227.1","1014.7810000000001","31.13","68.55","NAN","0.0"],
    [1563591,"2026-07-15 17:40:00","16301","1.69","226.0","5.2589999999999995","239.4","1014.5310000000001","31.09","68.33","NAN","0.0"],
    [1563592,"2026-07-15 17:50:00","16302","1.755","185.8","3.5610000000000004","232.9","1014.544","30.93","68.84","NAN","0.0"],
    [1563593,"2026-07-15 18:00:00","16303","1.255","175.5","2.7439999999999998","160.9","1014.57","30.67","71.21","NAN","0.0"],
    [1563594,"2026-07-15 18:10:00","16304","1.376","150.7","2.875","170.8","1014.668","30.67","72.05","NAN","0.0"],
    [1563595,"2026-07-15 18:20:00","16305","0.858","197.1","2.352","211.4","1014.7510000000001","30.63","73.13","NAN","0.0"],
    [1563596,"2026-07-15 18:30:00","16306","0.9420000000000001","161.1","2.025","153.4","1014.569","30.63","72.99","NAN","0.0"],
    [1563597,"2026-07-15 18:40:00","16307","0.797","161.7","2.6460000000000004","206.1","1014.5989999999999","30.3","74.47","NAN","0.0"],
    [1563598,"2026-07-15 18:50:00","16308","1.304","224.0","3.103","223.1","1014.6010000000001","30.22","75.36","NAN","0.0"],
    [1563599,"2026-07-15 19:00:00","16309","1.112","220.4","2.319","222.2","1014.5880000000001","30.31","75.55","NAN","0.0"],
    [1563600,"2026-07-15 19:10:00","16310","0.907","215.7","2.483","222.3","1014.7389999999999","30.39","75.34","NAN","0.0"],
    [1563601,"2026-07-15 19:20:00","16311","1.16","234.7","2.9730000000000003","219.8","1014.681","30.39","74.95","NAN","0.0"],
    [1563602,"2026-07-15 19:30:00","16312","1.365","246.9","3.103","254.8","1014.556","30.4","74.62","NAN","0.0"],
    [1563603,"2026-07-15 19:40:00","16313","1.392","241.4","3.136","236.1","1014.597","30.41","74.34","NAN","0.0"],
    [1563604,"2026-07-15 19:50:00","16314","1.058","247.8","2.9730000000000003","236.7","1014.512","30.33","74.11","NAN","0.0"],
    [1563605,"2026-07-15 20:00:00","16315","0.9890000000000001","212.5","1.8619999999999999","212.9","1014.607","30.51","73.68","NAN","0.0"],
    [1563606,"2026-07-15 20:10:00","16316","1.228","185.5","2.0909999999999997","213.0","1014.873","29.99","75.33","NAN","0.0"],
    [1563607,"2026-07-15 20:20:00","16317","1.5519999999999998","148.6","3.7569999999999997","153.5","1014.8380000000001","29.89","76.78","NAN","0.0"],
    [1563608,"2026-07-15 20:30:00","16318","1.534","192.3","3.43","172.0","1014.846","29.22","82.1","NAN","0.0"],
    [1563609,"2026-07-15 20:40:00","16319","1.002","207.8","3.071","203.1","1015.046","29.08","82.6","NAN","0.0"],
    [1563610,"2026-07-15 20:50:00","16320","1.149","245.5","2.515","242.8","1015.427","29.5","77.36","NAN","0.0"],
    [1563611,"2026-07-15 21:00:00","16321","1.099","232.9","2.483","254.8","1015.438","29.86","74.87","NAN","0.0"],
    [1563612,"2026-07-15 21:10:00","16322","0.902","250.8","2.5810000000000004","241.9","1015.1239999999999","29.75","75.85","NAN","0.0"],
    [1563613,"2026-07-15 21:20:00","16323","0.787","231.4","2.123","220.7","1015.215","29.87","74.76","NAN","0.0"],
    [1563614,"2026-07-15 21:30:00","16324","0.708","229.5","1.895","225.4","1015.3389999999999","29.7","75.02","NAN","0.0"],
    [1563615,"2026-07-15 21:40:00","16325","0.327","245.6","1.3719999999999999","249.9","1015.3839999999999","29.86","74","NAN","0.0"],
    [1563616,"2026-07-15 21:50:00","16326","0.71","208.1","1.307","204.3","1015.466","29.97","73.37","NAN","0.0"],
    [1563617,"2026-07-15 22:00:00","16327","0.763","179.4","1.666","189.8","1015.6460000000001","29.51","75.9","NAN","0.0"],
    [1563618,"2026-07-15 22:10:00","16328","0.875","175.8","2.0580000000000003","175.3","1015.693","29.22","78.75","NAN","0.0"],
    [1563619,"2026-07-15 22:20:00","16329","0.636","266.0","2.025","150.0","1015.6410000000001","29.22","78.44","NAN","0.0"],
    [1563620,"2026-07-15 22:30:00","16330","0.7170000000000001","33.86","1.4369999999999998","136.1","1015.383","29.09","79.71","NAN","0.0"],
    [1563621,"2026-07-15 22:40:00","16331","0.638","41.14","1.274","12.03","1015.079","29.44","76","NAN","0.0"],
    [1563622,"2026-07-15 22:50:00","16332","0.506","81.4","1.143","51.7","1014.953","29.57","74.64","NAN","0.0"],
    [1563623,"2026-07-15 23:00:00","16333","1.2990000000000002","167.8","2.548","178.0","1015.275","29.39","76.48","NAN","0.0"],
    [1563624,"2026-07-15 23:10:00","16334","0.802","166.9","2.0580000000000003","188.2","1015.3610000000001","28.56","80.8","NAN","0.0"],
    [1563625,"2026-07-15 23:20:00","16335","1.035","37.85","1.699","24.47","1014.97","27.95","82.8","NAN","0.0"],
    [1563626,"2026-07-15 23:30:00","16336","1.151","56.31","2.7769999999999997","57.5","1014.956","28.36","80.3","NAN","0.0"],
    [1563627,"2026-07-15 23:40:00","16337","0.446","66.31","2.0909999999999997","72.02","1015.2669999999999","28.55","79.2","NAN","0.0"],
    [1563628,"2026-07-15 23:50:00","16338","0.515","18.83","1.8619999999999999","40.11","1015.087","28.72","78.26","NAN","0.0"],
    [1563629,"2026-07-16 00:00:00","16339","1.296","4.757","2.94","26.14","1015.048","28.78","79.23","NAN","0.0"],
    [1563630,"2026-07-16 00:10:00","16340","1.6480000000000001","3.822","2.7110000000000003","356.6","1015.08","28.8","80.2","NAN","0.0"],
    [1563631,"2026-07-16 00:20:00","16341","1.004","23.67","2.5810000000000004","8.81","1015.073","28.79","81","NAN","0.0"],
    [1563632,"2026-07-16 00:30:00","16342","1.162","29.0","2.875","41.51","1015.27","28.62","82.4","NAN","0.0"],
    [1563633,"2026-07-16 00:40:00","16343","0.7659999999999999","41.21","2.7110000000000003","21.38","1015.342","28.47","83.6","NAN","0.0"],
    [1563634,"2026-07-16 00:50:00","16344","0.8079999999999999","71.92","1.7309999999999999","78.5","1015.347","28.43","83.9","NAN","0.0"],
    [1563635,"2026-07-16 01:00:00","16345","0.23","127.0","0.8170000000000001","101.7","1015.4839999999999","28.4","84.1","NAN","0.0"],
    [1563636,"2026-07-16 01:10:00","16346","0.31","77.11","1.013","101.4","1015.4910000000001","28.39","83.1","NAN","0.0"],
    [1563637,"2026-07-16 01:20:00","16347","0.297","71.74","0.882","0.73","1015.63","28.57","81.6","NAN","0.0"],
    [1563638,"2026-07-16 01:30:00","16348","0.782","96.6","1.96","110.6","1015.5830000000001","28.57","81.7","NAN","0.0"],
    [1563639,"2026-07-16 01:40:00","16349","1.48","102.9","2.9730000000000003","95.2","1015.6510000000001","28.14","85.3","NAN","0.0"],
    [1563640,"2026-07-16 01:50:00","16350","1.102","107.0","2.679","109.5","1015.738","27.82","88.7","NAN","0.0"],
    [1563641,"2026-07-16 02:00:00","16351","0.937","82.7","1.797","63.0","1015.7230000000001","27.62","90.4","NAN","0.0"],
    [1563642,"2026-07-16 02:10:00","16352","0.9329999999999999","69.87","1.764","73.36","1015.795","27.55","91.6","NAN","0.0"],
    [1563643,"2026-07-16 02:20:00","16353","0.8959999999999999","90.8","1.764","116.7","1015.882","27.5","92.9","NAN","0.0"],
    [1563644,"2026-07-16 02:30:00","16354","0.737","79.04","1.797","90.1","1015.837","27.38","94.2","NAN","0.0"],
    [1563645,"2026-07-16 02:40:00","16355","0.941","75.69","1.666","90.7","1015.795","27.3","94.8","NAN","0.0"],
    [1563646,"2026-07-16 02:50:00","16356","0.7659999999999999","80.8","1.601","65.34","1015.808","27.27","94.5","NAN","0.0"],
    [1563647,"2026-07-16 03:00:00","16357","0.382","56.9","1.764","64.0","1016.053","27.29","94.5","NAN","0.0"],
    [1563648,"2026-07-16 03:10:00","16358","0.52","294.0","1.666","315.4","1016.834","27.47","93.7","NAN","0.0"],
    [1563649,"2026-07-16 03:20:00","16359","3.77","93.2","7.579","111.9","1014.615","27.49","92.4","NAN","0.0"],
    [1563650,"2026-07-16 03:30:00","16360","1.81","86.2","5.847","96.1","1014.7130000000001","27.05","95.2","NAN","0.0"],
    [1563651,"2026-07-16 03:40:00","16361","0.564","40.27","2.221","46.42","1015.5169999999999","26.98","96","NAN","0.0"],
    [1563652,"2026-07-16 03:50:00","16362","0.33399999999999996","336.0","0.9470000000000001","71.61","1016.082","27","96.3","NAN","0.0"],
    [1563653,"2026-07-16 04:00:00","16363","0.23600000000000002","85.4","1.111","107.6","1016.443","27.09","95.6","NAN","0.0"],
    [1563654,"2026-07-16 04:10:00","16364","1.807","90.7","3.593","94.9","1015.841","26.98","95.3","NAN","0.0"],
    [1563655,"2026-07-16 04:20:00","16365","1.435","80.9","3.397","103.5","1015.857","26.98","94.9","NAN","0.0"],
    [1563656,"2026-07-16 04:30:00","16366","1.306","85.4","2.548","62.49","1015.83","26.93","95","NAN","0.0"],
    [1563657,"2026-07-16 04:40:00","16367","1.43","90.2","2.7110000000000003","83.8","1016.1060000000001","26.84","95.4","NAN","0.0"],
    [1563658,"2026-07-16 04:50:00","16368","1.2930000000000001","104.5","2.9730000000000003","107.2","1016.221","26.71","95.7","NAN","0.0"],
    [1563659,"2026-07-16 05:00:00","16369","1.272","45.81","2.7110000000000003","57.88","1016.445","26.68","95.5","NAN","0.0"],
    [1563660,"2026-07-16 05:10:00","16370","1.421","51.15","2.7769999999999997","34.29","1016.52","26.75","94.9","NAN","0.0"],
    [1563661,"2026-07-16 05:20:00","16371","1.425","54.79","3.103","54.79","1016.453","26.87","93.9","NAN","0.0"],
    [1563662,"2026-07-16 05:30:00","16372","1.304","68.49","2.613","30.55","1016.363","27.05","93","NAN","0.0"],
    [1563663,"2026-07-16 05:40:00","16373","2.327","79.28","4.4430000000000005","77.31","1016.1610000000001","27.05","92.4","NAN","0.0"],
    [1563664,"2026-07-16 05:50:00","16374","1.6369999999999998","65.33","3.7889999999999997","64.3","1015.924","27.02","92.5","NAN","0.0"],
    [1563665,"2026-07-16 06:00:00","16375","2.1719999999999997","73.08","5.455","77.99","1015.595","27","92.8","NAN","0.0"],
    [1563666,"2026-07-16 06:10:00","16376","2.09","67.12","4.835","101.4","1015.456","27.04","92.8","NAN","0.0"],
    [1563667,"2026-07-16 06:20:00","16377","1.885","66.96","4.965","66.45","1015.5260000000001","27.12","92.3","NAN","0.0"],
    [1563668,"2026-07-16 06:30:00","16378","1.716","59.61","3.463","37.73","1015.596","27.34","91.1","NAN","0.0"],
    [1563669,"2026-07-16 06:40:00","16379","2.329","75.75","6.109","94.9","1015.4760000000001","27.21","91.1","NAN","0.0"],
    [1563670,"2026-07-16 06:50:00","16380","2.7430000000000003","83.6","4.9","117.6","1015.471","27.08","91.4","NAN","0.0"],
    [1563671,"2026-07-16 07:00:00","16381","1.88","77.54","3.7569999999999997","82.1","1015.821","27.25","91.5","NAN","0.0"],
    [1563672,"2026-07-16 07:10:00","16382","1.9680000000000002","77.27","3.7239999999999998","86.8","1016.079","27.45","90.6","NAN","0.0"],
    [1563673,"2026-07-16 07:20:00","16383","2.2640000000000002","87.0","4.312","113.8","1016.204","27.83","89","NAN","0.0"],
    [1563674,"2026-07-16 07:30:00","16384","2.042","88.1","3.985","91.3","1016.2610000000001","27.82","89","NAN","0.0"],
    [1563675,"2026-07-16 07:40:00","16385","1.413","72.31","2.94","89.3","1016.297","28.62","84.4","NAN","0.0"],
    [1563676,"2026-07-16 07:50:00","16386","2.114","90.8","3.6910000000000003","101.5","1016.475","28.56","83.4","NAN","0.0"],
    [1563677,"2026-07-16 08:00:00","16387","2.4659999999999997","89.3","3.7569999999999997","95.4","1016.617","28.25","84.5","NAN","0.0"],
    [1563678,"2026-07-16 08:10:00","16388","2.123","90.4","3.528","79.21","1016.675","28.27","84.2","NAN","0.0"],
    [1563679,"2026-07-16 08:20:00","16389","2.62","89.5","4.312","106.4","1016.4580000000001","28.49","82.1","NAN","0.0"],
    [1563680,"2026-07-16 08:30:00","16390","2.523","99.7","4.4430000000000005","110.4","1016.1460000000001","28.5","83.5","NAN","0.0"],
    [1563681,"2026-07-16 08:40:00","16391","3.11","108.9","4.835","108.6","1016.2860000000001","28.06","86","NAN","0.0"],
    [1563682,"2026-07-16 08:50:00","16392","3.196","89.1","5.455","107.9","1016.122","28.19","83.7","NAN","0.0"],
    [1563683,"2026-07-16 09:00:00","16393","3.12","83.0","5.553","68.16","1015.835","28.21","83.4","NAN","0.0"],
    [1563684,"2026-07-16 09:10:00","16394","2.991","83.1","5.88","96.0","1015.9680000000001","28.17","84.8","NAN","0.0"],
    [1563685,"2026-07-16 09:20:00","16395","3.4219999999999997","86.3","5.357","94.9","1015.9760000000001","28.24","85.1","NAN","0.0"],
    [1563686,"2026-07-16 09:30:00","16396","3.321","87.6","5.292000000000001","91.7","1015.8910000000001","28.15","85.5","NAN","0.0"],
    [1563687,"2026-07-16 09:40:00","16397","3.63","85.3","6.0760000000000005","103.7","1015.85","28.14","85.5","NAN","0.0"],
    [1563688,"2026-07-16 09:50:00","16398","2.985","86.4","5.39","95.4","1015.84","28.44","84.3","NAN","0.0"],
    [1563689,"2026-07-16 10:00:00","16399","2.99","86.5","5.2589999999999995","97.2","1016.0930000000001","28.35","84.8","NAN","0.0"],
    [1563690,"2026-07-16 10:10:00","16400","2.74","93.2","4.671","81.7","1016.1110000000001","28.36","85.2","NAN","0.0"],
    [1563691,"2026-07-16 10:20:00","16401","2.742","84.9","4.835","64.81","1016.12","28.19","86.3","NAN","0.0"],
    [1563692,"2026-07-16 10:30:00","16402","2.57","99.5","4.671","63.98","1016.319","28.3","86.6","NAN","0.0"],
    [1563693,"2026-07-16 10:40:00","16403","2.248","84.8","4.312","67.36","1016.166","28.72","84.4","NAN","0.0"],
    [1563694,"2026-07-16 10:50:00","16404","2.7880000000000003","96.2","4.867","111.2","1016.198","28.49","85.5","NAN","0.0"],
    [1563695,"2026-07-16 11:00:00","16405","2.6039999999999996","80.7","5.063","112.2","1016.1","28.68","84.6","NAN","0.0"],
    [1563696,"2026-07-16 11:10:00","16406","2.562","80.5","4.965","61.62","1015.852","28.93","83.1","NAN","0.0"],
    [1563697,"2026-07-16 11:20:00","16407","2.597","91.3","5.422999999999999","109.8","1015.908","28.71","84.3","NAN","0.0"],
    [1563698,"2026-07-16 11:30:00","16408","2.9","100.8","4.606","93.0","1015.806","28.55","85.2","NAN","0.0"],
    [1563699,"2026-07-16 11:40:00","16409","2.75","94.3","5.063","109.9","1015.82","28.5","85.4","NAN","0.0"],
    [1563700,"2026-07-16 11:50:00","16410","2.903","107.7","5.455","105.1","1016.074","28.55","85.3","NAN","0.0"],
    [1563701,"2026-07-16 12:00:00","16411","2.296","105.2","3.887","95.3","1016.133","28.97","83.2","NAN","0.0"],
    [1563702,"2026-07-16 12:10:00","16412","2.822","112.7","5.2589999999999995","110.6","1016.158","28.68","84.3","NAN","0.0"],
    [1563703,"2026-07-16 12:20:00","16413","2.289","87.3","4.475","73.91","1016.3810000000001","29.14","81.6","NAN","0.0"],
    [1563704,"2026-07-16 12:30:00","16414","2.544","92.8","5.031000000000001","106.7","1016.232","29.13","81.6","NAN","0.0"],
    [1563705,"2026-07-16 12:40:00","16415","3.065","105.0","5.2589999999999995","114.6","1016.179","28.89","82.9","NAN","0.0"],
    [1563706,"2026-07-16 12:50:00","16416","3.156","103.3","5.912999999999999","101.6","1016.015","28.77","84.4","NAN","0.0"],
    [1563707,"2026-07-16 13:00:00","16417","3.468","103.9","6.207000000000001","103.9","1015.85","28.34","86.3","NAN","0.0"],
    [1563708,"2026-07-16 13:10:00","16418","2.93","111.5","5.2589999999999995","103.0","1015.742","28.09","87.9","NAN","0.0"],
    [1563709,"2026-07-16 13:20:00","16419","2.5540000000000003","98.9","4.835","102.5","1016.128","27.97","88.2","NAN","0.0"],
    [1563710,"2026-07-16 13:30:00","16420","2.6910000000000003","93.7","5.2589999999999995","86.6","1016.313","27.77","88.4","NAN","0.0"],
    [1563711,"2026-07-16 13:40:00","16421","2.779","103.4","4.965","105.0","1016.387","27.58","89.2","NAN","0.0"],
    [1563712,"2026-07-16 13:50:00","16422","2.465","98.9","3.92","92.8","1016.413","27.66","89.1","NAN","0.0"],
    [1563713,"2026-07-16 14:00:00","16423","1.7530000000000001","108.1","3.822","155.1","1016.743","28.07","87.5","NAN","0.0"],
    [1563714,"2026-07-16 14:10:00","16424","2.541","106.9","5.325","115.5","1016.4730000000001","27.7","88.8","NAN","0.0"],
    [1563715,"2026-07-16 14:20:00","16425","2.7739999999999996","118.5","4.737","115.1","1016.2360000000001","27.58","88.8","NAN","0.0"],
    [1563716,"2026-07-16 14:30:00","16426","2.912","100.1","5.39","99.4","1015.4780000000001","27.72","88.7","NAN","0.0"],
    [1563717,"2026-07-16 14:40:00","16427","1.7480000000000002","68.63","3.6260000000000003","67.73","1015.674","28.16","86.2","NAN","0.0"],
    [1563718,"2026-07-16 14:50:00","16428","1.854","71.02","3.9530000000000003","47.41","1015.3710000000001","28.01","86.6","NAN","0.0"],
    [1563719,"2026-07-16 15:00:00","16429","2.552","55.6","5.1610000000000005","59.51","1014.727","28.06","86","NAN","0.0"],
    [1563720,"2026-07-16 15:10:00","16430","2.187","46.56","4.149","24.99","1014.882","28.31","83.8","NAN","0.0"],
    [1563721,"2026-07-16 15:20:00","16431","2.274","82.0","3.7889999999999997","109.3","1015.061","27.96","85.6","NAN","0.0"],
    [1563722,"2026-07-16 15:30:00","16432","3.627","73.6","7.611000000000001","69.88","1013.826","28","85.4","NAN","0.0"],
    [1563723,"2026-07-16 15:40:00","16433","2.5340000000000003","73.98","6.207000000000001","99.8","1014.0","28.18","85.4","NAN","0.0"],
    [1563724,"2026-07-16 15:50:00","16434","2.9819999999999998","103.8","5.815","105.0","1014.595","28.08","86.2","NAN","0.0"],
    [1563725,"2026-07-16 16:00:00","16435","1.972","103.5","3.593","93.7","1015.138","27.94","87.2","NAN","0.0"],
    [1563726,"2026-07-16 16:10:00","16436","2.127","128.1","3.7889999999999997","150.1","1015.423","27.44","89.7","NAN","0.0"],
    [1563727,"2026-07-16 16:20:00","16437","2.412","101.8","3.822","109.3","1014.8430000000001","27.23","91","NAN","0.0"],
    [1563728,"2026-07-16 16:30:00","16438","1.89","60.87","3.6910000000000003","71.56","1014.253","27.52","89.5","NAN","0.0"],
    [1563729,"2026-07-16 16:40:00","16439","2.362","82.0","4.867","101.6","1014.0419999999999","27.53","88.8","NAN","0.0"],
    [1563730,"2026-07-16 16:50:00","16440","2.048","80.4","3.7889999999999997","105.1","1014.0930000000001","27.47","89.7","NAN","0.0"],
    [1563731,"2026-07-16 17:00:00","16441","2.001","70.4","3.528","79.4","1014.238","27.4","89.7","NAN","0.0"],
    [1563732,"2026-07-16 17:10:00","16442","1.8230000000000002","78.52","3.1689999999999996","56.18","1013.8580000000001","27.69","87.1","NAN","0.0"],
    [1563733,"2026-07-16 17:20:00","16443","2.117","84.5","5.129","90.3","1013.779","28.05","85.2","NAN","0.0"],
    [1563734,"2026-07-16 17:30:00","16444","2.676","95.4","4.606","98.0","1013.77","27.49","88.6","NAN","0.0"],
    [1563735,"2026-07-16 17:40:00","16445","2.151","88.5","3.855","115.4","1013.785","27.6","88.7","NAN","0.0"],
    [1563736,"2026-07-16 17:50:00","16446","2.6289999999999996","85.7","4.312","70.35","1013.699","27.47","89.6","NAN","0.0"],
    [1563737,"2026-07-16 18:00:00","16447","2.733","92.7","4.377","93.0","1013.3330000000001","27.36","90.6","NAN","0.0"],
    [1563738,"2026-07-16 18:10:00","16448","2.414","85.1","4.606","95.7","1013.181","27.37","90.9","NAN","0.0"],
    [1563739,"2026-07-16 18:20:00","16449","2.2230000000000003","80.1","4.541","70.78","1012.937","27.25","91.6","NAN","0.0"],
    [1563740,"2026-07-16 18:30:00","16450","1.743","92.9","3.332","90.0","1013.192","27.17","92.1","NAN","0.0"],
    [1563741,"2026-07-16 18:40:00","16451","1.925","101.7","3.887","104.0","1013.324","27.13","92.2","NAN","0.0"],
    [1563742,"2026-07-16 18:50:00","16452","1.598","93.3","3.299","107.2","1013.3810000000001","27.18","91.8","NAN","0.0"],
    [1563743,"2026-07-16 19:00:00","16453","1.444","103.6","2.8089999999999997","117.2","1013.585","27.16","91.8","NAN","0.0"],
    [1563744,"2026-07-16 19:10:00","16454","1.3359999999999999","104.4","3.0380000000000003","87.9","1013.62","27.09","92.2","NAN","0.0"],
    [1563745,"2026-07-16 19:20:00","16455","1.284","92.8","2.679","73.6","1013.518","27.05","92.5","NAN","0.0"],
    [1563746,"2026-07-16 19:30:00","16456","1.568","96.7","2.417","95.3","1013.565","26.91","93.3","NAN","0.0"],
    [1563747,"2026-07-16 19:40:00","16457","1.5519999999999998","108.4","2.5810000000000004","110.0","1013.617","26.88","93.7","NAN","0.0"],
    [1563748,"2026-07-16 19:50:00","16458","1.511","89.4","2.875","99.3","1013.416","26.82","94.4","NAN","0.0"],
    [1563749,"2026-07-16 20:00:00","16459","1.6980000000000002","77.22","2.5810000000000004","99.6","1013.5360000000001","26.88","94.1","NAN","0.0"],
    [1563750,"2026-07-16 20:10:00","16460","1.258","87.0","2.483","94.1","1013.755","26.82","94.8","NAN","0.0"],
    [1563751,"2026-07-16 20:20:00","16461","0.83","73.47","1.895","66.47","1013.827","26.88","94.3","NAN","0.0"],
    [1563752,"2026-07-16 20:30:00","16462","0.938","91.1","1.666","55.55","1013.877","26.87","94.2","NAN","0.0"],
    [1563753,"2026-07-16 20:40:00","16463","0.9640000000000001","117.4","1.666","110.3","1013.9860000000001","26.76","94","NAN","0.0"],
    [1563754,"2026-07-16 20:50:00","16464","0.6990000000000001","116.6","1.666","144.5","1014.193","26.85","93.7","NAN","0.0"],
    [1563755,"2026-07-16 21:00:00","16465","0.488","92.2","1.143","76.48","1014.205","26.88","94.7","NAN","0.0"],
    [1563756,"2026-07-16 21:10:00","16466","0.44","98.7","0.98","103.7","1014.195","26.86","94.8","NAN","0.0"],
    [1563757,"2026-07-16 21:20:00","16467","0.598","69.7","1.699","72.87","1014.063","26.84","94.7","NAN","0.0"],
    [1563758,"2026-07-16 21:30:00","16468","1.117","67.08","2.025","67.2","1013.831","26.83","94.7","NAN","0.0"],
    [1563759,"2026-07-16 21:40:00","16469","1.3159999999999998","44.16","2.45","57.54","1013.702","26.8","94.3","NAN","0.0"],
    [1563760,"2026-07-16 21:50:00","16470","0.9990000000000001","74.75","2.189","63.06","1013.6669999999999","26.75","94.1","NAN","0.0"],
    [1563761,"2026-07-16 22:00:00","16471","1.088","51.78","1.9269999999999998","58.9","1013.587","26.83","93.5","NAN","0.0"],
    [1563762,"2026-07-16 22:10:00","16472","0.7","72.55","1.699","54.27","1013.717","26.95","93.7","NAN","0.0"],
    [1563763,"2026-07-16 22:20:00","16473","1.026","97.4","1.764","112.6","1013.62","26.86","93.7","NAN","0.0"],
    [1563764,"2026-07-16 22:30:00","16474","1.173","97.7","2.319","109.3","1013.572","26.77","94.2","NAN","0.0"],
    [1563765,"2026-07-16 22:40:00","16475","0.8909999999999999","91.8","1.601","88.5","1013.341","26.71","94.5","NAN","0.0"],
    [1563766,"2026-07-16 22:50:00","16476","1.3940000000000001","112.5","2.025","109.2","1013.446","26.64","94.2","NAN","0.0"],
    [1563767,"2026-07-16 23:00:00","16477","0.7879999999999999","100.2","1.568","102.5","1013.41","26.56","94.3","NAN","0.0"],
    [1563768,"2026-07-16 23:10:00","16478","0.614","110.8","1.078","117.5","1013.346","26.62","93.7","NAN","0.0"],
    [1563769,"2026-07-16 23:20:00","16479","0.337","149.9","0.882","174.9","1013.2760000000001","26.67","93.4","NAN","0.0"],
    [1563770,"2026-07-16 23:30:00","16480","0.546","181.9","1.078","182.1","1013.1460000000001","26.79","93.2","NAN","0.0"],
    [1563771,"2026-07-16 23:40:00","16481","0.664","175.8","1.568","166.0","1013.1089999999999","26.69","93.7","NAN","0.0"],
    [1563772,"2026-07-16 23:50:00","16482","0.0","0.0","0.0","0.0","1013.054","26.82","93","NAN","0.0"],
    [1563773,"2026-07-17 00:00:00","16483","0.0","0.0","0.0","0.0","1012.992","26.87","92.4","NAN","0.0"],
    [1563774,"2026-07-17 00:10:00","16484","0.105","176.5","0.8170000000000001","173.7","1012.8919999999999","26.88","92.7","NAN","0.0"],
    [1563775,"2026-07-17 00:20:00","16485","0.154","170.3","0.588","185.7","1012.847","26.84","92.9","NAN","0.0"],
    [1563776,"2026-07-17 00:30:00","16486","0.5379999999999999","168.8","1.078","161.8","1012.9169999999999","26.82","93.3","NAN","0.0"],
    [1563777,"2026-07-17 00:40:00","16487","0.318","173.1","0.8170000000000001","160.3","1012.865","26.81","93.4","NAN","0.0"],
    [1563778,"2026-07-17 00:50:00","16488","0.21600000000000003","195.1","0.784","179.0","1012.84","26.74","93.9","NAN","0.0"],
    [1563779,"2026-07-17 01:00:00","16489","0.8","170.4","1.4369999999999998","173.7","1012.84","26.69","94.7","NAN","0.0"],
    [1563780,"2026-07-17 01:10:00","16490","0.42","182.8","1.143","185.2","1012.8430000000001","26.61","95.6","NAN","0.0"],
    [1563781,"2026-07-17 01:20:00","16491","0.466","191.0","1.4369999999999998","199.1","1012.683","26.62","95.5","NAN","0.0"],
    [1563782,"2026-07-17 01:30:00","16492","0.98","178.7","1.666","168.6","1012.703","26.56","95.1","NAN","0.0"],
    [1563783,"2026-07-17 01:40:00","16493","0.395","186.5","1.307","175.6","1012.748","26.51","94.5","NAN","0.0"],
    [1563784,"2026-07-17 01:50:00","16494","1.135","177.6","2.613","180.3","1012.75","26.51","93.5","NAN","0.0"],
    [1563785,"2026-07-17 02:00:00","16495","0.446","201.6","1.699","155.0","1012.7180000000001","26.44","92.4","NAN","0.0"],
    [1563786,"2026-07-17 02:10:00","16496","0.519","190.8","1.209","209.4","1012.847","26.44","90.1","NAN","0.0"],
    [1563787,"2026-07-17 02:20:00","16497","0.757","226.7","1.633","251.2","1012.847","26.59","87.4","NAN","0.0"],
    [1563788,"2026-07-17 02:30:00","16498","0.519","236.0","2.156","237.8","1012.847","26.71","86","NAN","0.0"],
    [1563789,"2026-07-17 02:40:00","16499","0.9390000000000001","246.0","1.797","248.5","1012.847","26.68","85.6","NAN","0.0"],
    [1563790,"2026-07-17 02:50:00","16500","0.5","239.0","1.405","227.4","1012.865","26.74","85.1","NAN","0.0"],
    [1563791,"2026-07-17 03:00:00","16501","0.276","246.5","1.633","247.7","1012.975","26.85","84.8","NAN","0.0"],
    [1563792,"2026-07-17 03:10:00","16502","0.331","246.2","0.882","286.3","1013.211","26.85","84.7","NAN","0.0"],
    [1563793,"2026-07-17 03:20:00","16503","0.456","92.6","0.915","76.78","1013.3660000000001","26.93","84.6","NAN","0.0"],
    [1563794,"2026-07-17 03:30:00","16504","1.278","46.84","2.875","19.23","1013.533","26.75","88.7","NAN","0.0"],
    [1563795,"2026-07-17 03:40:00","16505","1.7069999999999999","62.96","3.463","67.46","1013.65","26.51","90.1","NAN","0.0"],
    [1563796,"2026-07-17 03:50:00","16506","2.2359999999999998","80.6","5.129","110.3","1013.8539999999999","26.51","91.7","NAN","0.0"],
    [1563797,"2026-07-17 04:00:00","16507","1.814","47.36","4.312","16.79","1013.8539999999999","26.32","94","NAN","0.0"],
    [1563798,"2026-07-17 04:10:00","16508","2.439","68.55","5.325","76.09","1013.9860000000001","26.29","95.1","NAN","0.0"],
    [1563799,"2026-07-17 04:20:00","16509","2.85","76.59","4.933","75.03","1014.0060000000001","26.3","93.2","NAN","0.1"],
    [1563800,"2026-07-17 04:30:00","16510","3.176","72.25","5.4879999999999995","85.4","1014.076","26.53","91","NAN","0.0"],
    [1563801,"2026-07-17 04:40:00","16511","2.8160000000000003","78.38","4.802","89.2","1014.086","26.37","92.3","NAN","0.0"],
    [1563802,"2026-07-17 04:50:00","16512","3.572","70.39","7.154","68.12","1014.1460000000001","26.37","91","NAN","0.0"],
    [1563803,"2026-07-17 05:00:00","16513","4.013","72.64","6.337000000000001","90.6","1014.295","26.32","91.1","NAN","0.0"],
    [1563804,"2026-07-17 05:10:00","16514","3.0039999999999996","70.45","6.403","71.94","1014.3430000000001","26.33","91.2","NAN","0.0"],
    [1563805,"2026-07-17 05:20:00","16515","1.825","74.14","4.377","102.7","1014.449","26.43","90.9","NAN","0.0"],
    [1563806,"2026-07-17 05:30:00","16516","1.405","55.13","3.43","75.5","1014.5219999999999","26.5","90.6","NAN","0.0"],
    [1563807,"2026-07-17 05:40:00","16517","1.535","69.14","3.7569999999999997","84.0","1014.572","26.59","90.1","NAN","0.0"],
    [1563808,"2026-07-17 05:50:00","16518","1.6840000000000002","77.62","3.92","86.1","1014.597","26.64","90.3","NAN","0.0"],
    [1563809,"2026-07-17 06:00:00","16519","1.4169999999999998","54.95","3.0380000000000003","30.88","1014.612","26.8","89.4","NAN","0.0"],
    [1563810,"2026-07-17 06:10:00","16520","1.526","35.0","3.234","37.66","1014.711","26.98","88.3","NAN","0.0"],
    [1563811,"2026-07-17 06:20:00","16521","1.544","52.84","2.875","33.55","1014.821","27.06","87.7","NAN","0.0"],
    [1563812,"2026-07-17 06:30:00","16522","1.528","58.46","3.071","6.2989999999999995","1014.7860000000001","27.31","86.2","NAN","0.0"],
    [1563813,"2026-07-17 06:40:00","16523","1.589","59.35","3.103","60.66","1014.824","27.56","84.5","NAN","0.0"],
    [1563814,"2026-07-17 06:50:00","16524","1.6130000000000002","58.21","3.234","86.6","1014.8910000000001","27.51","83.8","NAN","0.0"],
    [1563815,"2026-07-17 07:00:00","16525","1.248","66.22","2.94","90.7","1014.972","28.02","81.1","NAN","0.0"],
    [1563816,"2026-07-17 07:10:00","16526","1.196","81.1","3.201","79.09","1015.034","28.01","80.3","NAN","0.0"],
    [1563817,"2026-07-17 07:20:00","16527","1.5930000000000002","77.9","3.397","106.6","1015.0039999999999","28.16","80.3","NAN","0.0"],
    [1563818,"2026-07-17 07:30:00","16528","1.943","84.3","3.267","111.4","1014.928","27.96","81.2","NAN","0.0"],
    [1563819,"2026-07-17 07:40:00","16529","1.337","95.8","3.0380000000000003","104.3","1015.0039999999999","28.3","79.41","NAN","0.0"],
    [1563820,"2026-07-17 07:50:00","16530","1.7890000000000001","91.0","2.94","90.2","1014.94","28.46","78.32","NAN","0.0"],
    [1563821,"2026-07-17 08:00:00","16531","1.587","85.2","3.0380000000000003","105.5","1014.919","28.61","77.59","NAN","0.0"],
    [1563822,"2026-07-17 08:10:00","16532","1.7369999999999999","110.2","3.234","115.5","1014.962","28.55","78.33","NAN","0.0"],
    [1563823,"2026-07-17 08:20:00","16533","1.805","106.2","3.5610000000000004","110.6","1014.9739999999999","28.44","79.34","NAN","0.0"],
    [1563824,"2026-07-17 08:30:00","16534","1.379","120.5","2.189","103.4","1014.913","28.82","77.06","NAN","0.0"],
    [1563825,"2026-07-17 08:40:00","16535","1.546","133.1","2.679","107.0","1014.925","28.78","77.35","NAN","0.0"],
    [1563826,"2026-07-17 08:50:00","16536","1.6159999999999999","131.5","2.6460000000000004","115.4","1014.8939999999999","28.82","76.81","NAN","0.0"],
    [1563827,"2026-07-17 09:00:00","16537","1.671","142.4","2.842","146.7","1014.8380000000001","28.75","78.18","NAN","0.0"],
    [1563828,"2026-07-17 09:10:00","16538","1.692","144.9","3.136","163.5","1014.885","29","76.27","NAN","0.0"],
    [1563829,"2026-07-17 09:20:00","16539","1.6030000000000002","180.1","2.842","179.0","1014.945","29.35","75.62","NAN","0.0"],
    [1563830,"2026-07-17 09:30:00","16540","2.009","182.6","3.5610000000000004","179.0","1015.034","29.48","75.37","NAN","0.0"],
    [1563831,"2026-07-17 09:40:00","16541","2.188","182.1","3.6910000000000003","185.1","1015.023","29.35","76.44","NAN","0.0"],
    [1563832,"2026-07-17 09:50:00","16542","2.219","179.2","4.149","183.3","1014.992","29.15","77.83","NAN","0.0"],
    [1563833,"2026-07-17 10:00:00","16543","2.7039999999999997","183.6","4.475","184.6","1014.91","29.01","78.77","NAN","0.0"],
    [1563834,"2026-07-17 10:10:00","16544","2.3","184.8","3.593","167.7","1014.747","29.2","78.04","NAN","0.0"],
    [1563835,"2026-07-17 10:20:00","16545","2.645","178.4","4.247","180.4","1014.7539999999999","28.98","78.21","NAN","0.0"],
    [1563836,"2026-07-17 10:30:00","16546","2.3040000000000003","180.8","4.083","182.5","1014.683","29.21","75.72","NAN","0.0"],
    [1563837,"2026-07-17 10:40:00","16547","2.7889999999999997","178.8","4.4430000000000005","182.6","1014.5939999999999","29.54","74.13","NAN","0.0"],
    [1563838,"2026-07-17 10:50:00","16548","3.082","173.3","4.737","189.9","1014.534","29.03","77.65","NAN","0.0"],
    [1563839,"2026-07-17 11:00:00","16549","3.2030000000000003","176.7","4.802","166.7","1014.523","29.18","77.4","NAN","0.0"],
    [1563840,"2026-07-17 11:10:00","16550","3.3080000000000003","177.7","5.422999999999999","173.2","1014.466","29.13","77.15","NAN","0.0"],
    [1563841,"2026-07-17 11:20:00","16551","3.6439999999999997","176.6","5.586","178.4","1014.422","29.23","75.89","NAN","0.0"],
    [1563842,"2026-07-17 11:30:00","16552","3.9989999999999997","177.2","5.619","177.4","1014.372","28.84","76.43","NAN","0.0"],
    [1563843,"2026-07-17 11:40:00","16553","3.432","177.9","5.4879999999999995","179.2","1014.309","29.02","77.36","NAN","0.0"],
    [1563844,"2026-07-17 11:50:00","16554","2.64","182.9","4.671","179.2","1014.301","29.68","75.83","NAN","0.0"],
    [1563845,"2026-07-17 12:00:00","16555","2.6889999999999996","184.9","5.031000000000001","169.1","1014.179","29.59","74.6","NAN","0.0"],
    [1563846,"2026-07-17 12:10:00","16556","2.443","184.1","4.737","175.2","1014.137","29.94","73.3","NAN","0.0"],
    [1563847,"2026-07-17 12:20:00","16557","2.497","182.1","4.475","168.8","1014.11","30.01","72.03","NAN","0.0"],
    [1563848,"2026-07-17 12:30:00","16558","2.803","176.5","4.835","174.5","1014.053","30","70.9","NAN","0.0"],
    [1563849,"2026-07-17 12:40:00","16559","2.7560000000000002","178.6","4.9","177.9","1014.033","29.73","72.16","NAN","0.0"],
    [1563850,"2026-07-17 12:50:00","16560","2.718","169.4","4.4430000000000005","153.9","1014.046","29.84","71.51","NAN","0.0"],
    [1563851,"2026-07-17 13:00:00","16561","2.6289999999999996","178.8","4.998","174.8","1014.038","29.76","71.7","NAN","0.0"],
    [1563852,"2026-07-17 13:10:00","16562","2.356","183.1","4.345","161.4","1013.995","29.82","71.48","NAN","0.0"],
    [1563853,"2026-07-17 13:20:00","16563","2.68","180.2","5.031000000000001","175.6","1013.926","29.78","71.04","NAN","0.0"],
    [1563854,"2026-07-17 13:30:00","16564","2.695","183.3","4.704","174.1","1013.9889999999999","29.69","70.6","NAN","0.0"],
    [1563855,"2026-07-17 13:40:00","16565","2.224","184.6","4.2139999999999995","187.9","1013.9789999999999","30.05","69.06","NAN","0.0"],
    [1563856,"2026-07-17 13:50:00","16566","2.71","176.1","4.9","180.7","1013.945","29.9","68.69","NAN","0.0"],
    [1563857,"2026-07-17 14:00:00","16567","2.8989999999999996","178.4","5.096","175.5","1013.815","29.72","70.94","NAN","0.0"],
    [1563858,"2026-07-17 14:10:00","16568","2.585","185.2","4.475","184.4","1013.7869999999999","29.85","70.96","NAN","0.0"],
    [1563859,"2026-07-17 14:20:00","16569","3.0839999999999996","178.2","5.129","181.0","1013.735","29.6","71.98","NAN","0.0"],
    [1563860,"2026-07-17 14:30:00","16570","3.292","176.2","5.422999999999999","175.8","1013.66","29.46","72.87","NAN","0.0"],
    [1563861,"2026-07-17 14:40:00","16571","3.286","172.9","5.651","174.4","1013.66","29.28","73.55","NAN","0.0"],
    [1563862,"2026-07-17 14:50:00","16572","3.5660000000000003","174.4","5.912999999999999","174.2","1013.5189999999999","29.23","74.81","NAN","0.0"],
    [1563863,"2026-07-17 15:00:00","16573","3.904","173.8","5.4879999999999995","176.3","1013.453","29.11","75.63","NAN","0.0"],
    [1563864,"2026-07-17 15:10:00","16574","3.678","170.6","5.847","179.3","1013.409","29.04","76.61","NAN","0.0"],
    [1563865,"2026-07-17 15:20:00","16575","3.4619999999999997","172.1","5.422999999999999","182.4","1013.5169999999999","28.95","76.93","NAN","0.0"],
    [1563866,"2026-07-17 15:30:00","16576","3.4789999999999996","173.7","5.2589999999999995","175.3","1013.529","28.92","76.72","NAN","0.0"],
    [1563867,"2026-07-17 15:40:00","16577","3.264","176.2","5.227","178.6","1013.55","28.94","76.02","NAN","0.0"],
    [1563868,"2026-07-17 15:50:00","16578","3.0589999999999997","173.6","4.508","167.6","1013.576","28.88","76.9","NAN","0.0"],
    [1563869,"2026-07-17 16:00:00","16579","3.029","175.7","4.867","176.3","1013.572","28.9","77.17","NAN","0.0"],
    [1563870,"2026-07-17 16:10:00","16580","3.0839999999999996","172.9","5.325","177.9","1013.551","28.8","77.29","NAN","0.0"],
    [1563871,"2026-07-17 16:20:00","16581","3.0789999999999997","172.0","4.835","176.4","1013.48","28.84","77.86","NAN","0.0"],
    [1563872,"2026-07-17 16:30:00","16582","2.875","173.1","4.9","179.1","1013.314","28.98","77.14","NAN","0.0"],
    [1563873,"2026-07-17 16:40:00","16583","3.045","172.7","4.377","171.7","1013.187","28.88","77.27","NAN","0.0"],
    [1563874,"2026-07-17 16:50:00","16584","3.097","171.4","4.606","180.0","1013.039","28.72","78.25","NAN","0.0"],
    [1563875,"2026-07-17 17:00:00","16585","2.778","171.7","4.802","173.2","1012.847","28.7","79.15","NAN","0.0"],
    [1563876,"2026-07-17 17:10:00","16586","2.637","171.6","4.279","175.7","1012.8439999999999","28.76","78.7","NAN","0.0"],
    [1563877,"2026-07-17 17:20:00","16587","2.571","171.7","4.018","183.0","1012.847","28.83","78.71","NAN","0.0"],
    [1563878,"2026-07-17 17:30:00","16588","2.884","171.2","4.475","176.7","1012.8439999999999","28.64","78.99","NAN","0.0"],
    [1563879,"2026-07-17 17:40:00","16589","3.1319999999999997","170.0","4.998","179.5","1012.847","28.46","79.99","NAN","0.0"],
    [1563880,"2026-07-17 17:50:00","16590","3.031","173.4","4.704","172.6","1012.8439999999999","28.41","80.7","NAN","0.0"],
    [1563881,"2026-07-17 18:00:00","16591","2.9810000000000003","173.1","4.704","172.6","1012.847","28.21","81.7","NAN","0.0"],
    [1563882,"2026-07-17 18:10:00","16592","3.06","174.0","4.606","174.5","1012.847","28.17","82.1","NAN","0.0"],
    [1563883,"2026-07-17 18:20:00","16593","2.7489999999999997","171.8","4.573","178.0","1012.847","28.08","83.1","NAN","0.0"],
    [1563884,"2026-07-17 18:30:00","16594","2.568","174.8","4.475","176.6","1012.847","28.01","83.6","NAN","0.0"],
    [1563885,"2026-07-17 18:40:00","16595","2.58","170.6","3.7889999999999997","178.2","1012.935","27.92","84.3","NAN","0.0"],
    [1563886,"2026-07-17 18:50:00","16596","1.9909999999999999","171.3","3.103","170.0","1012.9","27.94","84.6","NAN","0.0"],
    [1563887,"2026-07-17 19:00:00","16597","1.399","175.9","2.679","178.3","1013.007","28.02","84","NAN","0.0"],
    [1563888,"2026-07-17 19:10:00","16598","1.444","177.4","2.352","175.4","1012.865","28.08","82.8","NAN","0.0"],
    [1563889,"2026-07-17 19:20:00","16599","2.017","174.2","3.43","173.3","1012.85","27.92","85.5","NAN","0.0"],
    [1563890,"2026-07-17 19:30:00","16600","2.114","175.2","3.528","177.1","1013.002","27.63","86.9","NAN","0.0"],
    [1563891,"2026-07-17 19:40:00","16601","1.963","176.3","3.005","173.0","1013.1489999999999","27.53","87.3","NAN","0.0"],
    [1563892,"2026-07-17 19:50:00","16602","1.992","169.2","3.201","176.0","1013.304","27.48","87.3","NAN","0.0"],
    [1563893,"2026-07-17 20:00:00","16603","1.6740000000000002","172.9","2.842","171.0","1013.413","27.52","87.3","NAN","0.0"],
    [1563894,"2026-07-17 20:10:00","16604","1.554","168.9","2.548","141.7","1013.525","27.48","87","NAN","0.0"],
    [1563895,"2026-07-17 20:20:00","16605","1.4240000000000002","172.0","2.6460000000000004","159.1","1013.745","27.52","87.2","NAN","0.0"],
    [1563896,"2026-07-17 20:30:00","16606","1.931","175.8","3.1689999999999996","179.1","1014.049","27.41","87.4","NAN","0.0"],
    [1563897,"2026-07-17 20:40:00","16607","1.636","175.2","2.613","170.3","1014.3330000000001","27.42","87.1","NAN","0.0"],
    [1563898,"2026-07-17 20:50:00","16608","1.557","173.0","2.7769999999999997","180.7","1014.4069999999999","27.43","87.8","NAN","0.0"],
    [1563899,"2026-07-17 21:00:00","16609","1.439","176.9","2.6460000000000004","174.2","1014.365","27.37","88.3","NAN","0.0"],
    [1563900,"2026-07-17 21:10:00","16610","1.294","172.3","2.221","183.9","1014.387","27.36","88.3","NAN","0.0"],
    [1563901,"2026-07-17 21:20:00","16611","0.929","153.4","1.764","151.8","1014.375","27.38","88.2","NAN","0.0"],
    [1563902,"2026-07-17 21:30:00","16612","0.826","124.3","1.568","141.4","1014.3430000000001","27.37","88.2","NAN","0.0"],
    [1563903,"2026-07-17 21:40:00","16613","1.1420000000000001","150.1","2.123","143.9","1014.377","27.35","88","NAN","0.0"],
    [1563904,"2026-07-17 21:50:00","16614","1.133","133.5","1.8619999999999999","112.5","1014.322","27.27","88.3","NAN","0.0"],
    [1563905,"2026-07-17 22:00:00","16615","1.1440000000000001","125.8","1.993","104.4","1014.138","27.25","88.3","NAN","0.0"],
    [1563906,"2026-07-17 22:10:00","16616","1.177","102.3","2.287","115.1","1014.076","27.31","88.3","NAN","0.0"],
    [1563907,"2026-07-17 22:20:00","16617","1.3330000000000002","85.9","2.613","78.11","1014.0010000000001","27.37","87.8","NAN","0.0"],
    [1563908,"2026-07-17 22:30:00","16618","1.32","90.4","2.7110000000000003","106.0","1014.048","27.39","88","NAN","0.0"],
    [1563909,"2026-07-17 22:40:00","16619","1.49","81.0","2.7439999999999998","75.45","1014.041","27.31","88.8","NAN","0.0"],
    [1563910,"2026-07-17 22:50:00","16620","1.5030000000000001","103.8","2.483","108.9","1014.058","27.24","88.9","NAN","0.0"],
    [1563911,"2026-07-17 23:00:00","16621","1.663","85.6","2.679","70.1","1013.779","27.15","89.3","NAN","0.0"],
    [1563912,"2026-07-17 23:10:00","16622","1.334","84.6","2.548","99.5","1013.6469999999999","27.2","88.8","NAN","0.0"],
    [1563913,"2026-07-17 23:20:00","16623","1.329","64.9","2.679","78.46","1013.455","27.18","88.1","NAN","0.0"],
    [1563914,"2026-07-17 23:30:00","16624","0.986","62.23","2.287","108.4","1013.448","27.22","88.3","NAN","0.0"],
    [1563915,"2026-07-17 23:40:00","16625","1.531","86.9","2.7439999999999998","95.0","1013.475","27.23","88.9","NAN","0.0"],
    [1563916,"2026-07-17 23:50:00","16626","1.444","84.7","3.0380000000000003","116.0","1013.47","27.13","90","NAN","0.0"],
    [1563917,"2026-07-18 00:00:00","16627","0.818","56.22","2.156","31.8","1013.475","27.15","89.8","NAN","0.0"],
    [1563918,"2026-07-18 00:10:00","16628","1.64","98.2","2.875","101.6","1013.6110000000001","27.14","89.4","NAN","0.0"],
    [1563919,"2026-07-18 00:20:00","16629","1.368","93.9","2.385","105.2","1013.7869999999999","27.09","89.9","NAN","0.0"],
    [1563920,"2026-07-18 00:30:00","16630","1.298","72.25","2.483","64.87","1013.712","27.1","89.3","NAN","0.0"],
    [1563921,"2026-07-18 00:40:00","16631","1.6280000000000001","99.3","3.201","110.8","1013.7869999999999","27.14","89","NAN","0.0"],
    [1563922,"2026-07-18 00:50:00","16632","0.9990000000000001","128.7","2.287","109.6","1014.061","27.06","90","NAN","0.0"],
    [1563923,"2026-07-18 01:00:00","16633","1.107","123.9","2.287","113.9","1014.1080000000001","27.04","90.2","NAN","0.0"],
    [1563924,"2026-07-18 01:10:00","16634","1.601","127.9","2.9730000000000003","112.6","1014.158","27.01","91.3","NAN","0.0"],
    [1563925,"2026-07-18 01:20:00","16635","1.501","123.9","2.7769999999999997","138.8","1014.1030000000001","26.88","93.3","NAN","0.0"],
    [1563926,"2026-07-18 01:30:00","16636","1.432","133.9","2.5810000000000004","135.4","1014.201","26.78","93.4","NAN","0.0"],
    [1563927,"2026-07-18 01:40:00","16637","1.073","131.4","1.96","136.1","1014.29","26.72","93.1","NAN","0.0"],
    [1563928,"2026-07-18 01:50:00","16638","0.816","138.6","1.993","148.0","1014.323","26.71","92.9","NAN","0.0"],
    [1563929,"2026-07-18 02:00:00","16639","0.49200000000000005","105.8","1.339","145.3","1014.26","26.72","93","NAN","0.0"],
    [1563930,"2026-07-18 02:10:00","16640","1.146","90.4","1.8619999999999999","95.7","1014.253","26.7","92.1","NAN","0.0"],
    [1563931,"2026-07-18 02:20:00","16641","0.7559999999999999","108.0","1.535","115.8","1014.328","26.76","91.8","NAN","0.0"],
    [1563932,"2026-07-18 02:30:00","16642","0.721","147.4","1.274","159.9","1014.3430000000001","26.69","92.1","NAN","0.0"],
    [1563933,"2026-07-18 02:40:00","16643","0.436","142.5","1.176","153.1","1014.385","26.61","92.6","NAN","0.0"],
    [1563934,"2026-07-18 02:50:00","16644","0.44799999999999995","127.9","1.274","149.0","1014.422","26.54","91.9","NAN","0.0"],
    [1563935,"2026-07-18 03:00:00","16645","0.642","88.0","1.176","111.6","1014.3430000000001","26.67","91.6","NAN","0.0"],
    [1563936,"2026-07-18 03:10:00","16646","0.807","108.0","1.601","118.2","1014.3430000000001","26.65","91.6","NAN","0.0"],
    [1563937,"2026-07-18 03:20:00","16647","0.635","81.8","1.47","60.86","1014.3430000000001","26.67","91.6","NAN","0.0"],
    [1563938,"2026-07-18 03:30:00","16648","0.626","64.96","1.535","71.87","1014.3430000000001","26.62","91","NAN","0.0"],
    [1563939,"2026-07-18 03:40:00","16649","0.647","90.8","1.535","83.5","1014.325","26.65","89.6","NAN","0.0"],
    [1563940,"2026-07-18 03:50:00","16650","1.021","64.67","2.287","38.21","1014.23","26.63","89","NAN","0.0"],
    [1563941,"2026-07-18 04:00:00","16651","0.625","80.5","1.5030000000000001","60.25","1014.303","26.68","88.5","NAN","0.0"],
    [1563942,"2026-07-18 04:10:00","16652","0.7040000000000001","61.25","1.535","51.93","1014.3580000000001","26.67","88.9","NAN","0.0"],
    [1563943,"2026-07-18 04:20:00","16653","1.075","44.69","2.189","55.4","1014.442","26.61","88.8","NAN","0.0"],
    [1563944,"2026-07-18 04:30:00","16654","1.087","52.21","1.96","63.29","1014.355","26.57","89.1","NAN","0.0"],
    [1563945,"2026-07-18 04:40:00","16655","1.071","52.88","1.895","70.17","1014.35","26.54","88.5","NAN","0.0"],
    [1563946,"2026-07-18 04:50:00","16656","0.9840000000000001","57.32","2.189","58.57","1014.3430000000001","26.54","88.6","NAN","0.0"],
    [1563947,"2026-07-18 05:00:00","16657","1.173","43.36","1.993","67.14","1014.3430000000001","26.5","88.1","NAN","0.0"],
    [1563948,"2026-07-18 05:10:00","16658","0.96","46.16","1.96","35.62","1014.33","26.58","87.7","NAN","0.0"],
    [1563949,"2026-07-18 05:20:00","16659","0.977","58.87","2.025","29.69","1014.3430000000001","26.66","86.9","NAN","0.0"],
    [1563950,"2026-07-18 05:30:00","16660","1.038","53.13","1.666","28.09","1014.3430000000001","26.71","86.3","NAN","0.0"],
    [1563951,"2026-07-18 05:40:00","16661","0.816","69.6","1.699","66.42","1014.375","26.86","85.7","NAN","0.0"],
    [1563952,"2026-07-18 05:50:00","16662","0.853","66.85","1.764","69.29","1014.3430000000001","27.03","84.4","NAN","0.0"],
    [1563953,"2026-07-18 06:00:00","16663","0.987","12.39","2.515","33.73","1014.2919999999999","27.13","83.6","NAN","0.0"],
    [1563954,"2026-07-18 06:10:00","16664","0.904","14.52","2.025","60.85","1014.23","27.23","82.6","NAN","0.0"],
    [1563955,"2026-07-18 06:20:00","16665","0.8009999999999999","35.24","1.764","45.02","1014.22","27.41","81","NAN","0.0"],
    [1563956,"2026-07-18 06:30:00","16666","1.02","52.21","2.45","56.14","1014.303","27.65","80.3","NAN","0.0"],
    [1563957,"2026-07-18 06:40:00","16667","1.3230000000000002","25.87","2.5810000000000004","70.3","1014.2860000000001","27.47","80.3","NAN","0.0"],
    [1563958,"2026-07-18 06:50:00","16668","1.1340000000000001","55.91","2.875","27.08","1014.002","27.67","79.07","NAN","0.0"],
    [1563959,"2026-07-18 07:00:00","16669","1.401","35.82","2.7110000000000003","66.93","1013.992","27.81","76.35","NAN","0.0"],
    [1563960,"2026-07-18 07:10:00","16670","1.234","9.78","2.7110000000000003","8.06","1014.24","27.92","74.27","NAN","0.0"],
    [1563961,"2026-07-18 07:20:00","16671","1.065","40.78","2.6460000000000004","58.71","1014.175","28.37","69.89","NAN","0.0"],
    [1563962,"2026-07-18 07:30:00","16672","0.76","63.19","2.7769999999999997","96.9","1014.438","29.04","66.06","NAN","0.0"],
    [1563963,"2026-07-18 07:40:00","16673","1.041","51.12","2.483","25.89","1014.5360000000001","29.22","64.13","NAN","0.0"],
    [1563964,"2026-07-18 07:50:00","16674","0.556","178.4","1.699","110.0","1014.421","29.44","63.47","NAN","0.0"],
    [1563965,"2026-07-18 08:00:00","16675","1.318","61.0","3.659","17.23","1014.005","29.52","62.67","NAN","0.0"],
    [1563966,"2026-07-18 08:10:00","16676","1.854","88.7","4.051","108.8","1013.485","29.54","64.16","NAN","0.0"],
    [1563967,"2026-07-18 08:20:00","16677","1.22","94.6","2.385","81.9","1013.806","30.19","61.73","NAN","0.0"],
    [1563968,"2026-07-18 08:30:00","16678","1.599","106.1","3.201","113.2","1013.9680000000001","30.22","58.96","NAN","0.0"],
    [1563969,"2026-07-18 08:40:00","16679","1.329","128.8","2.287","113.0","1014.321","29.96","60.2","NAN","0.0"],
    [1563970,"2026-07-18 08:50:00","16680","1.422","130.1","2.907","132.1","1014.326","30.1","58.39","NAN","0.0"],
    [1563971,"2026-07-18 09:00:00","16681","1.3030000000000002","146.6","2.0580000000000003","158.5","1014.434","30.07","58.23","NAN","0.0"],
    [1563972,"2026-07-18 09:10:00","16682","1.556","135.1","2.94","117.0","1014.248","30.31","58.18","NAN","0.0"],
    [1563973,"2026-07-18 09:20:00","16683","1.508","124.4","2.875","122.6","1014.057","30.05","58.58","NAN","0.0"],
    [1563974,"2026-07-18 09:30:00","16684","1.422","128.1","2.319","116.1","1013.9680000000001","30.15","56.19","NAN","0.0"],
    [1563975,"2026-07-18 09:40:00","16685","1.5630000000000002","132.9","2.352","115.0","1014.137","30.37","55.94","NAN","0.0"],
    [1563976,"2026-07-18 09:50:00","16686","1.786","141.7","2.679","149.7","1014.221","30.16","56.26","NAN","0.0"],
    [1563977,"2026-07-18 10:00:00","16687","1.561","128.4","2.613","137.5","1014.301","30.14","55.64","NAN","0.0"],
    [1563978,"2026-07-18 10:10:00","16688","1.476","149.6","2.385","154.5","1014.2919999999999","30.69","55.11","NAN","0.0"],
    [1563979,"2026-07-18 10:20:00","16689","1.581","135.7","2.7110000000000003","153.8","1014.15","30.77","53.42","NAN","0.0"],
    [1563980,"2026-07-18 10:30:00","16690","1.472","141.4","2.7769999999999997","118.8","1014.2560000000001","31.12","50.73","NAN","0.0"],
    [1563981,"2026-07-18 10:40:00","16691","1.541","141.7","2.6460000000000004","153.5","1014.168","31.1","50.18","NAN","0.0"],
    [1563982,"2026-07-18 10:50:00","16692","1.8219999999999998","139.2","3.397","103.4","1014.278","30.8","51.74","NAN","0.0"],
    [1563983,"2026-07-18 11:00:00","16693","2.086","149.6","3.463","108.8","1014.408","30.54","54.69","NAN","0.0"],
    [1563984,"2026-07-18 11:10:00","16694","2.053","179.2","3.7889999999999997","182.6","1014.457","30.62","56.92","NAN","0.0"],
    [1563985,"2026-07-18 11:20:00","16695","1.751","184.2","3.201","175.2","1014.395","30.74","56.98","NAN","0.0"],
    [1563986,"2026-07-18 11:30:00","16696","1.784","186.6","3.365","175.8","1014.279","30.86","57.36","NAN","0.0"],
    [1563987,"2026-07-18 11:40:00","16697","2.154","158.4","5.455","114.5","1014.2639999999999","30.57","57.89","NAN","0.0"],
    [1563988,"2026-07-18 11:50:00","16698","1.909","169.8","3.6910000000000003","154.1","1014.345","30.57","57.93","NAN","0.0"],
    [1563989,"2026-07-18 12:00:00","16699","2.117","143.5","3.6910000000000003","109.5","1014.128","30.53","58","NAN","0.0"],
    [1563990,"2026-07-18 12:10:00","16700","2.233","137.2","3.887","152.1","1013.97","30.47","58.21","NAN","0.0"],
    [1563991,"2026-07-18 12:20:00","16701","2.116","142.8","3.6260000000000003","168.1","1013.802","30.35","58.61","NAN","0.0"],
    [1563992,"2026-07-18 12:30:00","16702","2.4019999999999997","151.7","3.855","148.4","1013.7489999999999","30.1","59.54","NAN","0.0"],
    [1563993,"2026-07-18 12:40:00","16703","2.113","150.7","4.2139999999999995","168.9","1013.627","30.13","59.61","NAN","0.0"],
    [1563994,"2026-07-18 12:50:00","16704","2.511","152.9","4.279","149.4","1013.617","30.03","59.67","NAN","0.0"],
    [1563995,"2026-07-18 13:00:00","16705","2.605","142.3","4.312","152.8","1013.578","30.12","59.61","NAN","0.0"],
    [1563996,"2026-07-18 13:10:00","16706","2.456","158.9","4.279","149.9","1013.574","30.17","59.36","NAN","0.0"],
    [1563997,"2026-07-18 13:20:00","16707","2.585","143.5","4.181","162.1","1013.435","30.01","59.99","NAN","0.0"],
    [1563998,"2026-07-18 13:30:00","16708","2.738","142.6","4.737","151.2","1013.3760000000001","29.98","60.52","NAN","0.0"],
    [1563999,"2026-07-18 13:40:00","16709","2.478","133.7","4.965","100.0","1013.365","30.31","59.26","NAN","0.0"],
    [1564000,"2026-07-18 13:50:00","16710","2.623","135.3","4.704","112.6","1013.35","30.1","59.8","NAN","0.0"],
    [1564001,"2026-07-18 14:00:00","16711","2.438","150.6","4.279","165.4","1013.3839999999999","30.05","58.35","NAN","0.0"],
    [1564002,"2026-07-18 14:10:00","16712","2.622","138.0","4.4430000000000005","152.9","1013.35","30.04","59.46","NAN","0.0"],
    [1564003,"2026-07-18 14:20:00","16713","2.35","136.8","4.2139999999999995","159.4","1013.336","30.12","58.77","NAN","0.0"],
    [1564004,"2026-07-18 14:30:00","16714","2.588","158.1","4.279","168.4","1013.408","29.66","61.4","NAN","0.0"],
    [1564005,"2026-07-18 14:40:00","16715","2.126","141.0","3.593","113.1","1013.459","29.9","61.32","NAN","0.0"],
    [1564006,"2026-07-18 14:50:00","16716","1.7469999999999999","148.5","3.332","144.5","1013.395","30.16","60.85","NAN","0.0"],
    [1564007,"2026-07-18 15:00:00","16717","2.033","135.2","3.822","111.5","1013.323","30.36","59.21","NAN","0.0"],
    [1564008,"2026-07-18 15:10:00","16718","2.103","135.3","3.9530000000000003","157.9","1013.1389999999999","29.98","60.87","NAN","0.0"],
    [1564009,"2026-07-18 15:20:00","16719","2.425","148.4","3.985","159.4","1012.914","29.73","61.32","NAN","0.0"],
    [1564010,"2026-07-18 15:30:00","16720","2.023","146.3","3.855","162.1","1012.811","29.56","61.39","NAN","0.0"],
    [1564011,"2026-07-18 15:40:00","16721","1.84","151.4","3.299","172.4","1012.7710000000001","29.75","62.03","NAN","0.0"],
    [1564012,"2026-07-18 15:50:00","16722","2.193","144.0","4.377","163.9","1012.548","29.6","61.96","NAN","0.0"],
    [1564013,"2026-07-18 16:00:00","16723","1.9140000000000001","148.4","3.234","135.9","1012.498","29.51","61.46","NAN","0.0"],
    [1564014,"2026-07-18 16:10:00","16724","1.699","151.6","3.0380000000000003","169.8","1012.7260000000001","29.73","61.6","NAN","0.0"],
    [1564015,"2026-07-18 16:20:00","16725","1.8530000000000002","136.0","3.528","108.1","1012.6469999999999","29.61","62.23","NAN","0.0"],
    [1564016,"2026-07-18 16:30:00","16726","1.3980000000000001","145.9","3.332","109.9","1012.6610000000001","29.39","63.23","NAN","0.0"],
    [1564017,"2026-07-18 16:40:00","16727","1.5190000000000001","146.4","2.515","156.4","1012.4069999999999","29.37","64.37","NAN","0.0"],
    [1564018,"2026-07-18 16:50:00","16728","1.365","147.4","2.8089999999999997","100.3","1012.3739999999999","29.21","64.55","NAN","0.0"],
    [1564019,"2026-07-18 17:00:00","16729","1.14","185.3","2.417","188.3","1012.299","29.07","64.29","NAN","0.0"],
    [1564020,"2026-07-18 17:10:00","16730","1.23","161.5","2.156","149.4","1012.2260000000001","28.92","65.09","NAN","0.0"],
    [1564021,"2026-07-18 17:20:00","16731","1.4140000000000001","194.8","2.7769999999999997","153.1","1012.284","29.18","64.13","NAN","0.0"],
    [1564022,"2026-07-18 17:30:00","16732","1.89","175.4","3.201","162.3","1012.199","28.66","65.99","NAN","0.0"],
    [1564023,"2026-07-18 17:40:00","16733","1.993","178.4","3.234","180.1","1012.4169999999999","28.63","66.87","NAN","0.0"],
    [1564024,"2026-07-18 17:50:00","16734","1.8359999999999999","167.4","3.1689999999999996","170.6","1012.3430000000001","28.55","67.07","NAN","0.0"],
    [1564025,"2026-07-18 18:00:00","16735","1.895","170.4","3.463","162.3","1011.9680000000001","28.47","67.32","NAN","0.0"],
    [1564026,"2026-07-18 18:10:00","16736","1.304","189.2","2.8089999999999997","184.0","1012.1210000000001","28.54","67.67","NAN","0.0"],
    [1564027,"2026-07-18 18:20:00","16737","2.144","165.8","3.6910000000000003","168.6","1012.216","28.38","68.03","NAN","0.0"],
    [1564028,"2026-07-18 18:30:00","16738","1.416","156.2","2.5810000000000004","156.0","1011.935","28.37","67.78","NAN","0.0"],
    [1564029,"2026-07-18 18:40:00","16739","1.296","179.4","1.9269999999999998","197.2","1011.966","28.3","68.21","NAN","0.0"],
    [1564030,"2026-07-18 18:50:00","16740","1.506","166.7","2.417","163.1","1012.135","28.28","68.93","NAN","0.0"],
    [1564031,"2026-07-18 19:00:00","16741","1.2109999999999999","146.1","2.385","135.0","1012.171","28.26","69.98","NAN","0.0"],
    [1564032,"2026-07-18 19:10:00","16742","1.3719999999999999","140.3","2.7439999999999998","139.4","1011.926","28.14","70.12","NAN","0.0"],
    [1564033,"2026-07-18 19:20:00","16743","1.479","130.9","2.5810000000000004","118.6","1011.903","28.05","70.18","NAN","0.0"],
    [1564034,"2026-07-18 19:30:00","16744","1.7169999999999999","114.6","2.7769999999999997","120.1","1011.791","28.03","70.79","NAN","0.0"],
    [1564035,"2026-07-18 19:40:00","16745","1.619","93.7","3.005","111.0","1011.8589999999999","28.13","70.45","NAN","0.0"],
    [1564036,"2026-07-18 19:50:00","16746","1.507","89.2","2.5810000000000004","95.9","1011.908","28.2","70.16","NAN","0.0"],
    [1564037,"2026-07-18 20:00:00","16747","1.673","88.1","3.5610000000000004","86.1","1012.053","28.18","70.06","NAN","0.0"],
    [1564038,"2026-07-18 20:10:00","16748","1.21","60.13","2.7769999999999997","76.53","1012.297","28.2","70.41","NAN","0.0"],
    [1564039,"2026-07-18 20:20:00","16749","1.548","83.0","2.7769999999999997","95.2","1012.3539999999999","28.01","71.83","NAN","0.0"],
    [1564040,"2026-07-18 20:30:00","16750","1.99","95.7","3.593","109.2","1012.3919999999999","27.95","72.43","NAN","0.0"],
    [1564041,"2026-07-18 20:40:00","16751","1.734","87.2","3.201","72.25","1012.3560000000001","27.89","72.92","NAN","0.0"],
    [1564042,"2026-07-18 20:50:00","16752","1.692","79.77","2.9730000000000003","81.6","1012.3639999999999","27.82","73.92","NAN","0.0"],
    [1564043,"2026-07-18 21:00:00","16753","1.2209999999999999","85.6","2.548","102.7","1012.454","27.82","74.08","NAN","0.0"],
    [1564044,"2026-07-18 21:10:00","16754","1.6869999999999998","99.3","3.528","121.8","1012.567","27.78","74.09","NAN","0.0"],
    [1564045,"2026-07-18 21:20:00","16755","0.8370000000000001","91.4","2.156","56.4","1012.812","27.68","74.66","NAN","0.0"],
    [1564046,"2026-07-18 21:30:00","16756","1.19","77.66","2.417","90.8","1012.618","27.65","74.74","NAN","0.0"],
    [1564047,"2026-07-18 21:40:00","16757","0.9470000000000001","99.4","1.895","111.0","1012.6560000000001","27.65","75.14","NAN","0.0"],
    [1564048,"2026-07-18 21:50:00","16758","1.105","91.4","2.123","94.0","1012.663","27.57","75.21","NAN","0.0"],
    [1564049,"2026-07-18 22:00:00","16759","1.068","115.0","2.287","128.1","1012.643","27.53","75.77","NAN","0.0"],
    [1564050,"2026-07-18 22:10:00","16760","0.779","115.0","1.601","82.1","1012.5980000000001","27.42","76.37","NAN","0.0"],
    [1564051,"2026-07-18 22:20:00","16761","0.9209999999999999","91.0","1.9269999999999998","70.98","1012.4860000000001","27.5","76.51","NAN","0.0"],
    [1564052,"2026-07-18 22:30:00","16762","1.1520000000000001","92.6","2.254","72.35","1012.4639999999999","27.54","76.21","NAN","0.0"],
    [1564053,"2026-07-18 22:40:00","16763","0.914","108.6","1.895","113.3","1012.683","27.44","77.29","NAN","0.0"],
    [1564054,"2026-07-18 22:50:00","16764","0.769","122.8","1.7309999999999999","105.5","1012.5989999999999","27.43","78.17","NAN","0.0"],
    [1564055,"2026-07-18 23:00:00","16765","0.69","141.1","1.568","154.9","1012.678","27.37","78.75","NAN","0.0"],
    [1564056,"2026-07-18 23:10:00","16766","0.639","139.9","1.4369999999999998","139.1","1012.613","27.28","79.19","NAN","0.0"],
    [1564057,"2026-07-18 23:20:00","16767","0.693","97.4","1.699","93.4","1012.4939999999999","27.28","79.27","NAN","0.0"],
    [1564058,"2026-07-18 23:30:00","16768","0.789","77.93","1.535","85.1","1012.466","27.35","79.02","NAN","0.0"],
    [1564059,"2026-07-18 23:40:00","16769","0.9470000000000001","63.32","1.829","73.6","1012.566","27.41","78.38","NAN","0.0"],
    [1564060,"2026-07-18 23:50:00","16770","0.825","49.75","1.7309999999999999","66.21","1012.576","27.36","78.38","NAN","0.0"],
    [1564061,"2026-07-19 00:00:00","16771","0.84","59.53","1.7309999999999999","59.83","1012.3639999999999","27.35","77.85","NAN","0.0"],
    [1564062,"2026-07-19 00:10:00","16772","0.674","40.81","1.764","44.4","1012.352","27.33","78.2","NAN","0.0"],
    [1564063,"2026-07-19 00:20:00","16773","0.915","47.86","1.993","62.79","1012.3489999999999","27.33","77.99","NAN","0.0"],
    [1564064,"2026-07-19 00:30:00","16774","0.7759999999999999","76.17","1.3719999999999999","59.21","1012.3489999999999","27.36","77.39","NAN","0.0"],
    [1564065,"2026-07-19 00:40:00","16775","0.927","66.6","1.699","63.9","1012.252","27.3","77.27","NAN","0.0"],
    [1564066,"2026-07-19 00:50:00","16776","0.727","70.6","1.601","66.66","1012.227","27.34","76.8","NAN","0.0"],
    [1564067,"2026-07-19 01:00:00","16777","0.877","55.18","1.666","58.76","1012.1419999999999","27.37","76.62","NAN","0.0"],
    [1564068,"2026-07-19 01:10:00","16778","0.46799999999999997","55.78","1.176","54.29","1012.0980000000001","27.34","76.54","NAN","0.0"],
    [1564069,"2026-07-19 01:20:00","16779","0.838","50.06","1.666","62.44","1012.018","27.35","75.82","NAN","0.0"],
    [1564070,"2026-07-19 01:30:00","16780","0.41200000000000003","57.27","1.274","10.29","1011.9830000000001","27.39","75.27","NAN","0.0"],
    [1564071,"2026-07-19 01:40:00","16781","0.204","80.5","0.6859999999999999","75.21","1012.0310000000001","27.42","75.09","NAN","0.0"],
    [1564072,"2026-07-19 01:50:00","16782","0.251","48.66","0.98","65.2","1012.123","27.5","73.43","NAN","0.0"],
    [1564073,"2026-07-19 02:00:00","16783","0.523","60.99","1.666","59.62","1012.172","27.63","70.42","NAN","0.0"],
    [1564074,"2026-07-19 02:10:00","16784","0.593","71.28","1.4369999999999998","65.28","1012.12","27.67","69.7","NAN","0.0"],
    [1564075,"2026-07-19 02:20:00","16785","0.40399999999999997","94.6","0.98","96.8","1012.192","27.56","70.15","NAN","0.0"],
    [1564076,"2026-07-19 02:30:00","16786","0.568","78.55","1.274","71.79","1012.11","27.54","70.05","NAN","0.0"],
    [1564077,"2026-07-19 02:40:00","16787","0.716","70.25","1.405","72.04","1012.177","27.48","70.12","NAN","0.0"],
    [1564078,"2026-07-19 02:50:00","16788","0.42100000000000004","80.1","0.9470000000000001","64.93","1012.262","27.45","70.3","NAN","0.0"],
    [1564079,"2026-07-19 03:00:00","16789","0.664","112.7","1.47","114.4","1012.322","27.38","71.15","NAN","0.0"],
    [1564080,"2026-07-19 03:10:00","16790","0.618","115.0","1.339","106.5","1012.332","27.25","72.39","NAN","0.0"],
    [1564081,"2026-07-19 03:20:00","16791","0.805","92.8","1.633","104.6","1012.3489999999999","27.23","72.8","NAN","0.0"],
    [1564082,"2026-07-19 03:30:00","16792","0.622","105.6","1.078","112.7","1012.416","27.13","72.18","NAN","0.0"],
    [1564083,"2026-07-19 03:40:00","16793","0.914","96.0","1.601","95.4","1012.4019999999999","27.13","71.5","NAN","0.0"],
    [1564084,"2026-07-19 03:50:00","16794","0.593","93.8","1.209","105.3","1012.4110000000001","27.11","71.58","NAN","0.0"],
    [1564085,"2026-07-19 04:00:00","16795","0.413","116.5","0.915","127.1","1012.4069999999999","27.13","71.9","NAN","0.0"],
    [1564086,"2026-07-19 04:10:00","16796","0.301","167.8","0.7509999999999999","154.3","1012.633","26.97","73.5","NAN","0.0"],
    [1564087,"2026-07-19 04:20:00","16797","0.322","119.5","0.7190000000000001","123.1","1012.461","26.97","74.67","NAN","0.0"],
    [1564088,"2026-07-19 04:30:00","16798","0.0","0.0","0.0","0.0","1012.3839999999999","26.86","74.77","NAN","0.0"],
    [1564089,"2026-07-19 04:40:00","16799","0.013000000000000001","205.0","0.294","222.5","1012.4739999999999","26.82","75.89","NAN","0.0"],
    [1564090,"2026-07-19 04:50:00","16800","0.023","69.84","0.425","65.6","1012.566","26.89","76.81","NAN","0.0"],
    [1564091,"2026-07-19 05:00:00","16801","0.607","46.33","1.209","52.85","1012.559","26.95","72.96","NAN","0.0"],
    [1564092,"2026-07-19 05:10:00","16802","0.39299999999999996","83.1","0.882","92.1","1012.5980000000001","27.1","71.16","NAN","0.0"],
    [1564093,"2026-07-19 05:20:00","16803","0.07","177.3","0.523","186.0","1012.7610000000001","27.14","71.58","NAN","0.0"],
    [1564094,"2026-07-19 05:30:00","16804","0.10099999999999999","30.46","1.013","30.41","1012.835","27.27","70.62","NAN","0.0"],
    [1564095,"2026-07-19 05:40:00","16805","0.42700000000000005","57.47","1.013","18.44","1012.857","27.56","68.74","NAN","0.0"],
    [1564096,"2026-07-19 05:50:00","16806","0.588","49.57","1.535","31.37","1012.9069999999999","27.85","67.12","NAN","0.0"],
    [1564097,"2026-07-19 06:00:00","16807","0.39","37.06","1.3719999999999999","7.181","1012.967","28.1","66.03","NAN","0.0"],
    [1564098,"2026-07-19 06:10:00","16808","0.325","30.79","1.209","49.58","1012.925","28.48","64.31","NAN","0.0"],
    [1564099,"2026-07-19 06:20:00","16809","0.44","51.71","1.601","33.68","1012.957","28.66","63.88","NAN","0.0"],
    [1564100,"2026-07-19 06:30:00","16810","0.653","69.75","1.993","77.57","1012.9989999999999","29.12","61.85","NAN","0.0"],
    [1564101,"2026-07-19 06:40:00","16811","0.914","46.27","1.535","0.657","1012.927","28.96","61.77","NAN","0.0"],
    [1564102,"2026-07-19 06:50:00","16812","0.6829999999999999","53.58","1.699","67.92","1012.8910000000001","29.03","60.11","NAN","0.0"],
    [1564103,"2026-07-19 07:00:00","16813","1.073","45.8","2.548","34.56","1012.835","29.38","57.72","NAN","0.0"],
    [1564104,"2026-07-19 07:10:00","16814","0.5589999999999999","34.92","1.535","60.66","1012.857","29.71","55.82","NAN","0.0"],
    [1564105,"2026-07-19 07:20:00","16815","0.795","23.0","2.189","15.96","1012.8580000000001","30.09","53.98","NAN","0.0"],
    [1564106,"2026-07-19 07:30:00","16816","0.8290000000000001","34.12","2.123","93.5","1012.962","30.23","53.16","NAN","0.0"],
    [1564107,"2026-07-19 07:40:00","16817","0.907","60.58","2.189","82.1","1013.046","30.34","51.83","NAN","0.0"],
    [1564108,"2026-07-19 07:50:00","16818","0.37200000000000005","342.2","1.176","355.8","1013.075","30.94","49.81","NAN","0.0"],
    [1564109,"2026-07-19 08:00:00","16819","0.927","25.09","2.417","356.7","1013.075","31.24","48.57","NAN","0.0"],
    [1564110,"2026-07-19 08:10:00","16820","0.782","83.1","1.7309999999999999","34.03","1013.064","31.58","47.19","NAN","0.0"],
    [1564111,"2026-07-19 08:20:00","16821","1.4080000000000001","98.1","2.319","104.5","1013.13","31.25","45.88","NAN","0.0"],
    [1564112,"2026-07-19 08:30:00","16822","1.795","118.7","2.907","109.8","1013.076","30.86","48.18","NAN","0.0"],
    [1564113,"2026-07-19 08:40:00","16823","1.506","122.0","2.352","112.3","1013.165","30.8","49.35","NAN","0.0"],
    [1564114,"2026-07-19 08:50:00","16824","1.315","127.0","2.352","130.3","1013.24","31.17","47.17","NAN","0.0"],
    [1564115,"2026-07-19 09:00:00","16825","1.14","145.7","2.123","151.6","1013.2560000000001","31.08","47.25","NAN","0.0"],
    [1564116,"2026-07-19 09:10:00","16826","1.121","149.0","2.025","164.9","1013.237","31.56","46.35","NAN","0.0"],
    [1564117,"2026-07-19 09:20:00","16827","1.2690000000000001","147.0","2.352","159.0","1013.289","31.49","46.84","NAN","0.0"],
    [1564118,"2026-07-19 09:30:00","16828","1.462","146.3","2.679","163.2","1013.3510000000001","31.75","44.7","NAN","0.0"],
    [1564119,"2026-07-19 09:40:00","16829","1.525","146.6","2.417","147.8","1013.347","31.53","45.65","NAN","0.0"],
    [1564120,"2026-07-19 09:50:00","16830","1.386","149.2","2.548","153.4","1013.4060000000001","31.83","44.79","NAN","0.0"],
    [1564121,"2026-07-19 10:00:00","16831","1.455","153.0","2.7110000000000003","152.7","1013.6110000000001","31.8","44.2","NAN","0.0"],
    [1564122,"2026-07-19 10:10:00","16832","1.7269999999999999","181.0","3.0380000000000003","157.3","1013.689","31.89","44.81","NAN","0.0"],
    [1564123,"2026-07-19 10:20:00","16833","1.639","180.5","2.7769999999999997","170.3","1013.618","31.54","45.55","NAN","0.0"],
    [1564124,"2026-07-19 10:30:00","16834","1.492","191.9","2.5810000000000004","198.7","1013.515","32.17","44.45","NAN","0.0"],
    [1564125,"2026-07-19 10:40:00","16835","1.7169999999999999","177.1","3.136","179.1","1013.4830000000001","31.88","45.29","NAN","0.0"],
    [1564126,"2026-07-19 10:50:00","16836","2.088","172.1","3.528","181.9","1013.546","31.38","47.77","NAN","0.0"],
    [1564127,"2026-07-19 11:00:00","16837","1.9680000000000002","176.8","3.7889999999999997","174.0","1013.618","31.61","47.82","NAN","0.0"],
    [1564128,"2026-07-19 11:10:00","16838","2.231","176.0","3.6260000000000003","161.2","1013.694","31.62","49.51","NAN","0.0"],
    [1564129,"2026-07-19 11:20:00","16839","1.3969999999999998","196.6","3.103","179.9","1013.676","32.32","48.89","NAN","0.0"],
    [1564130,"2026-07-19 11:30:00","16840","1.63","185.8","3.071","167.5","1013.6410000000001","32.21","48.23","NAN","0.0"],
    [1564131,"2026-07-19 11:40:00","16841","2.089","171.7","3.6260000000000003","171.5","1013.666","31.6","50.09","NAN","0.0"],
    [1564132,"2026-07-19 11:50:00","16842","1.682","196.3","3.7569999999999997","218.0","1013.699","32.07","49.49","NAN","0.0"],
    [1564133,"2026-07-19 12:00:00","16843","1.8","190.6","3.267","188.9","1013.7130000000001","32.22","48.98","NAN","0.0"],
    [1564134,"2026-07-19 12:10:00","16844","2.238","172.6","3.7569999999999997","180.7","1013.576","31.67","48.84","NAN","0.0"],
    [1564135,"2026-07-19 12:20:00","16845","2.136","180.9","3.985","175.6","1013.675","31.26","50.67","NAN","0.0"],
    [1564136,"2026-07-19 12:30:00","16846","2.779","172.1","4.704","176.3","1013.798","31.3","51.34","NAN","0.0"],
    [1564137,"2026-07-19 12:40:00","16847","1.906","186.5","4.573","173.1","1013.796","31.84","50.99","NAN","0.0"],
    [1564138,"2026-07-19 12:50:00","16848","1.875","184.0","3.822","172.7","1013.68","32.3","50.65","NAN","0.0"],
    [1564139,"2026-07-19 13:00:00","16849","2.157","184.6","3.6260000000000003","177.0","1013.5260000000001","31.71","52.27","NAN","0.0"],
    [1564140,"2026-07-19 13:10:00","16850","1.913","182.0","3.6260000000000003","175.7","1013.457","32.12","51.24","NAN","0.0"],
    [1564141,"2026-07-19 13:20:00","16851","1.861","189.9","3.495","157.5","1013.3489999999999","32.05","51.37","NAN","0.0"],
    [1564142,"2026-07-19 13:30:00","16852","2.295","181.5","4.1160000000000005","171.3","1013.2310000000001","31.89","53.19","NAN","0.0"],
    [1564143,"2026-07-19 13:40:00","16853","1.881","185.2","3.071","198.0","1013.27","31.41","52.41","NAN","0.0"],
    [1564144,"2026-07-19 13:50:00","16854","1.8880000000000001","180.4","3.397","173.5","1013.206","31.34","53.72","NAN","0.0"],
    [1564145,"2026-07-19 14:00:00","16855","2.042","179.0","3.528","175.3","1013.2760000000001","31.55","54.02","NAN","0.0"],
    [1564146,"2026-07-19 14:10:00","16856","1.6869999999999998","184.2","3.6260000000000003","169.2","1013.191","32.03","53.03","NAN","0.0"],
    [1564147,"2026-07-19 14:20:00","16857","2.1390000000000002","175.3","3.822","198.9","1013.128","31.36","56.43","NAN","0.0"],
    [1564148,"2026-07-19 14:30:00","16858","2.24","179.1","4.312","177.7","1013.26","31.33","56.44","NAN","0.0"],
    [1564149,"2026-07-19 14:40:00","16859","1.493","197.7","3.365","201.1","1013.2769999999999","31.72","54.1","NAN","0.0"],
    [1564150,"2026-07-19 14:50:00","16860","2.945","173.4","4.737","149.4","1013.1339999999999","31.1","55.85","NAN","0.0"],
    [1564151,"2026-07-19 15:00:00","16861","2.665","174.4","4.638999999999999","177.6","1013.1210000000001","30.66","57.92","NAN","0.0"],
    [1564152,"2026-07-19 15:10:00","16862","2.685","163.4","4.279","152.8","1013.0010000000001","30.57","58.77","NAN","0.0"],
    [1564153,"2026-07-19 15:20:00","16863","2.702","168.9","4.769","171.7","1012.9739999999999","30.26","61.39","NAN","0.0"],
    [1564154,"2026-07-19 15:30:00","16864","1.9180000000000001","172.2","3.887","176.4","1013.012","30.42","59.64","NAN","0.0"],
    [1564155,"2026-07-19 15:40:00","16865","2.0069999999999997","176.2","3.495","176.9","1013.079","30.57","59.11","NAN","0.0"],
    [1564156,"2026-07-19 15:50:00","16866","2.187","173.1","4.377","181.9","1012.8710000000001","30.4","59.76","NAN","0.0"],
    [1564157,"2026-07-19 16:00:00","16867","2.206","174.2","4.018","154.5","1012.796","30.08","61.69","NAN","0.0"],
    [1564158,"2026-07-19 16:10:00","16868","1.7730000000000001","191.3","4.149","177.7","1012.9689999999999","30.76","58.65","NAN","0.0"],
    [1564159,"2026-07-19 16:20:00","16869","1.807","188.7","3.593","174.7","1012.961","30.12","61.16","NAN","0.0"],
    [1564160,"2026-07-19 16:30:00","16870","1.771","200.3","3.6910000000000003","232.0","1013.028","30.34","58.36","NAN","0.0"],
    [1564161,"2026-07-19 16:40:00","16871","2.035","179.9","4.312","176.1","1012.915","29.98","59.06","NAN","0.0"],
    [1564162,"2026-07-19 16:50:00","16872","2.3369999999999997","172.9","4.018","169.1","1013.0360000000001","30.07","60.3","NAN","0.0"],
    [1564163,"2026-07-19 17:00:00","16873","2.512","172.4","3.985","186.6","1012.789","29.68","63.32","NAN","0.0"],
    [1564164,"2026-07-19 17:10:00","16874","2.085","181.3","4.377","168.8","1012.825","29.54","64.94","NAN","0.0"],
    [1564165,"2026-07-19 17:20:00","16875","2.475","175.7","3.822","189.6","1012.518","29.63","63.57","NAN","0.0"],
    [1564166,"2026-07-19 17:30:00","16876","2.14","180.7","4.671","169.4","1012.551","29.51","65.82","NAN","0.0"],
    [1564167,"2026-07-19 17:40:00","16877","1.5519999999999998","193.9","3.43","166.8","1012.4680000000001","29.72","62.81","NAN","0.0"],
    [1564168,"2026-07-19 17:50:00","16878","1.405","177.8","3.43","179.4","1012.252","29.8","61.53","NAN","0.0"],
    [1564169,"2026-07-19 18:00:00","16879","2.219","170.6","3.7239999999999998","178.0","1012.3489999999999","29.33","59.9","NAN","0.0"],
    [1564170,"2026-07-19 18:10:00","16880","1.319","165.0","2.5810000000000004","136.9","1012.24","29.32","58.74","NAN","0.0"],
    [1564171,"2026-07-19 18:20:00","16881","0.97","181.1","1.8619999999999999","177.2","1012.441","29.54","56.12","NAN","0.0"],
    [1564172,"2026-07-19 18:30:00","16882","1.207","125.3","2.45","103.7","1012.1289999999999","29.51","57.26","NAN","0.0"],
    [1564173,"2026-07-19 18:40:00","16883","1.536","116.9","2.613","106.8","1011.857","29.34","58.81","NAN","0.0"],
    [1564174,"2026-07-19 18:50:00","16884","1.024","121.4","2.7769999999999997","99.3","1011.805","29.24","59.69","NAN","0.0"],
    [1564175,"2026-07-19 19:00:00","16885","1.047","102.1","1.7309999999999999","65.97","1011.78","29.23","59.22","NAN","0.0"],
    [1564176,"2026-07-19 19:10:00","16886","1.107","62.04","2.6460000000000004","50.63","1011.5989999999999","29.56","57.83","NAN","0.0"],
    [1564177,"2026-07-19 19:20:00","16887","0.461","74.47","1.405","67.68","1011.852","29.59","59.09","NAN","0.0"],
    [1564178,"2026-07-19 19:30:00","16888","0.551","102.7","1.2409999999999999","107.3","1012.185","29.63","59.07","NAN","0.0"],
    [1564179,"2026-07-19 19:40:00","16889","1.2409999999999999","163.4","2.156","171.6","1012.492","29.43","63.14","NAN","0.0"],
    [1564180,"2026-07-19 19:50:00","16890","1.517","179.6","2.417","165.8","1012.928","28.91","65.76","NAN","0.0"],
    [1564181,"2026-07-19 20:00:00","16891","1.604","176.4","2.907","177.9","1013.316","28.8","66.05","NAN","0.0"],
    [1564182,"2026-07-19 20:10:00","16892","1.225","171.9","2.123","176.9","1013.3960000000001","28.8","66.4","NAN","0.0"],
    [1564183,"2026-07-19 20:20:00","16893","1.645","166.7","2.548","171.6","1013.55","28.76","69.18","NAN","0.0"],
    [1564184,"2026-07-19 20:30:00","16894","1.2930000000000001","154.1","2.385","180.6","1013.5830000000001","28.73","71.78","NAN","0.0"],
    [1564185,"2026-07-19 20:40:00","16895","1.551","170.6","2.515","182.7","1013.515","28.69","74.2","NAN","0.0"],
    [1564186,"2026-07-19 20:50:00","16896","1.411","167.1","2.385","166.1","1013.692","28.57","77.19","NAN","0.0"],
    [1564187,"2026-07-19 21:00:00","16897","1.39","178.9","2.45","183.0","1013.618","28.47","77.13","NAN","0.0"],
    [1564188,"2026-07-19 21:10:00","16898","1.526","178.3","2.7110000000000003","177.2","1013.785","28.48","77.23","NAN","0.0"],
    [1564189,"2026-07-19 21:20:00","16899","1.207","179.7","2.907","175.2","1013.829","28.47","77.84","NAN","0.0"],
    [1564190,"2026-07-19 21:30:00","16900","0.287","210.4","1.274","224.8","1013.862","28.69","76.54","NAN","0.0"],
    [1564191,"2026-07-19 21:40:00","16901","0.617","192.4","1.4369999999999998","162.8","1013.8860000000001","28.73","75.95","NAN","0.0"],
    [1564192,"2026-07-19 21:50:00","16902","0.846","178.0","1.5030000000000001","189.7","1013.59","28.56","74.07","NAN","0.0"],
    [1564193,"2026-07-19 22:00:00","16903","0.49200000000000005","122.4","0.882","121.0","1013.3610000000001","28.62","74.22","NAN","0.0"],
    [1564194,"2026-07-19 22:10:00","16904","0.7490000000000001","104.3","1.764","95.9","1013.2810000000001","28.67","72.76","NAN","0.0"],
    [1564195,"2026-07-19 22:20:00","16905","1.4569999999999999","91.7","2.483","102.1","1013.0939999999999","28.66","77.3","NAN","0.0"],
    [1564196,"2026-07-19 22:30:00","16906","1.584","111.8","2.679","100.1","1013.222","28.37","79.45","NAN","0.0"],
    [1564197,"2026-07-19 22:40:00","16907","1.345","148.0","2.45","181.0","1013.722","28.28","83.3","NAN","0.0"],
    [1564198,"2026-07-19 22:50:00","16908","1.08","84.8","2.0580000000000003","91.6","1013.488","28.15","84.4","NAN","0.0"],
    [1564199,"2026-07-19 23:00:00","16909","1.284","89.6","2.287","74.67","1013.204","28.16","83.2","NAN","0.0"],
    [1564200,"2026-07-19 23:10:00","16910","0.5720000000000001","99.1","1.274","80.6","1013.503","28.13","82.5","NAN","0.0"],
    [1564201,"2026-07-19 23:20:00","16911","0.726","158.2","1.601","167.5","1013.418","28.05","82.6","NAN","0.0"],
    [1564202,"2026-07-19 23:30:00","16912","0.065","192.8","0.392","154.4","1013.318","27.99","81.8","NAN","0.0"],
    [1564203,"2026-07-19 23:40:00","16913","0.4","121.0","0.784","113.3","1013.194","27.97","81.9","NAN","0.0"],
    [1564204,"2026-07-19 23:50:00","16914","0.519","130.9","0.915","145.4","1013.132","27.96","81.6","NAN","0.0"],
    [1564205,"2026-07-20 00:00:00","16915","0.711","76.59","1.4369999999999998","96.8","1013.054","27.99","81.8","NAN","0.0"],
    [1564206,"2026-07-20 00:10:00","16916","0.85","77.64","1.993","56.87","1012.92","28.05","81.7","NAN","0.0"],
    [1564207,"2026-07-20 00:20:00","16917","0.795","60.19","1.797","71.59","1012.885","27.99","80.1","NAN","0.0"],
    [1564208,"2026-07-20 00:30:00","16918","0.8420000000000001","53.21","2.254","57.51","1012.803","28.02","73.53","NAN","0.0"],
    [1564209,"2026-07-20 00:40:00","16919","0.52","46.15","1.9269999999999998","29.37","1012.72","28.2","65.56","NAN","0.0"],
    [1564210,"2026-07-20 00:50:00","16920","0.502","38.56","2.254","36.83","1012.688","28.2","62.51","NAN","0.0"],
    [1564211,"2026-07-20 01:00:00","16921","1.013","48.38","2.45","49.33","1012.596","28.35","58.71","NAN","0.0"],
    [1564212,"2026-07-20 01:10:00","16922","0.86","37.51","1.797","35.65","1012.538","28.33","56.87","NAN","0.0"],
    [1564213,"2026-07-20 01:20:00","16923","0.718","54.29","1.5030000000000001","24.16","1012.5889999999999","28.35","55.56","NAN","0.0"],
    [1564214,"2026-07-20 01:30:00","16924","0.624","69.77","1.633","57.65","1012.7510000000001","28.36","55.41","NAN","0.0"],
    [1564215,"2026-07-20 01:40:00","16925","0.48","60.85","1.4369999999999998","57.4","1012.788","28.18","55.37","NAN","0.0"],
    [1564216,"2026-07-20 01:50:00","16926","0.262","65.66","0.784","350.2","1012.86","28.11","55.64","NAN","0.0"],
    [1564217,"2026-07-20 02:00:00","16927","0.377","90.5","1.045","144.6","1013.015","28.02","56.12","NAN","0.0"],
    [1564218,"2026-07-20 02:10:00","16928","0.513","146.7","1.2409999999999999","147.8","1013.1439999999999","28","56.12","NAN","0.0"],
    [1564219,"2026-07-20 02:20:00","16929","0.359","159.1","1.111","147.4","1013.166","27.93","57.66","NAN","0.0"],
    [1564220,"2026-07-20 02:30:00","16930","0.196","165.8","0.784","200.2","1013.159","27.7","59.72","NAN","0.0"],
    [1564221,"2026-07-20 02:40:00","16931","0.441","168.1","0.882","169.4","1013.319","27.62","61.56","NAN","0.0"],
    [1564222,"2026-07-20 02:50:00","16932","0.3","198.9","0.915","175.9","1013.4010000000001","27.6","62.65","NAN","0.0"],
    [1564223,"2026-07-20 03:00:00","16933","0.585","196.1","1.339","208.8","1013.665","27.53","66.02","NAN","0.0"],
    [1564224,"2026-07-20 03:10:00","16934","0.461","176.1","1.013","169.0","1013.722","27.46","67.23","NAN","0.0"],
    [1564225,"2026-07-20 03:20:00","16935","0.175","186.8","0.915","178.4","1013.797","27.42","67.72","NAN","0.0"],
    [1564226,"2026-07-20 03:30:00","16936","0.615","208.1","1.3719999999999999","190.6","1013.8439999999999","27.51","70.91","NAN","0.0"],
    [1564227,"2026-07-20 03:40:00","16937","0.784","221.2","1.47","239.2","1013.939","27.73","72.37","NAN","0.0"],
    [1564228,"2026-07-20 03:50:00","16938","0.335","244.7","1.143","245.5","1013.9760000000001","27.73","72.17","NAN","0.0"],
    [1564229,"2026-07-20 04:00:00","16939","0.494","297.4","1.47","262.6","1013.8739999999999","27.86","71.33","NAN","0.0"],
    [1564230,"2026-07-20 04:10:00","16940","0.085","37.22","0.653","1.827","1013.7239999999999","27.77","73.25","NAN","0.0"],
    [1564231,"2026-07-20 04:20:00","16941","0.711","46.04","1.405","55.52","1013.6469999999999","27.69","75.95","NAN","0.0"],
    [1564232,"2026-07-20 04:30:00","16942","1.236","45.65","2.0909999999999997","27.21","1013.69","27.39","71.18","NAN","0.0"],
    [1564233,"2026-07-20 04:40:00","16943","1.3219999999999998","41.32","2.385","31.92","1013.54","27.19","62.74","NAN","0.0"],
    [1564234,"2026-07-20 04:50:00","16944","1.06","31.08","2.417","14.2","1013.488","27.19","59.64","NAN","0.0"],
    [1564235,"2026-07-20 05:00:00","16945","0.823","30.03","2.483","24.72","1013.508","27.26","58.67","NAN","0.0"],
    [1564236,"2026-07-20 05:10:00","16946","0.593","27.14","1.666","21.58","1013.475","27.38","57.91","NAN","0.0"],
    [1564237,"2026-07-20 05:20:00","16947","0.5820000000000001","26.26","1.699","19.7","1013.5880000000001","27.56","56.59","NAN","0.0"],
    [1564238,"2026-07-20 05:30:00","16948","0.7240000000000001","8.48","1.699","19.7","1013.757","27.81","55.59","NAN","0.0"],
    [1564239,"2026-07-20 05:40:00","16949","0.9890000000000001","0.228","2.319","350.4","1013.7669999999999","28.08","54.8","NAN","0.0"],
    [1564240,"2026-07-20 05:50:00","16950","0.93","10.52","2.319","13.31","1013.732","28.19","54.43","NAN","0.0"],
    [1564241,"2026-07-20 06:00:00","16951","0.784","39.74","1.829","37.91","1013.797","28.37","54.03","NAN","0.0"],
    [1564242,"2026-07-20 06:10:00","16952","0.7070000000000001","21.7","1.96","7.568","1013.725","28.66","53.06","NAN","0.0"],
    [1564243,"2026-07-20 06:20:00","16953","1.121","29.42","2.7110000000000003","41.08","1013.74","28.87","52.53","NAN","0.0"],
    [1564244,"2026-07-20 06:30:00","16954","1.26","6.231","2.7439999999999998","352.7","1013.75","29.05","51.54","NAN","0.0"],
    [1564245,"2026-07-20 06:40:00","16955","0.9670000000000001","9.54","2.45","24.17","1013.757","29.35","51.19","NAN","0.0"],
    [1564246,"2026-07-20 06:50:00","16956","0.562","13.51","1.699","55.06","1013.785","30.02","49.86","NAN","0.0"],
    [1564247,"2026-07-20 07:00:00","16957","1.163","62.43","2.417","33.55","1013.936","29.82","51.16","NAN","0.0"],
    [1564248,"2026-07-20 07:10:00","16958","0.972","26.71","2.123","14.28","1014.074","29.83","51.7","NAN","0.0"],
    [1564249,"2026-07-20 07:20:00","16959","1.247","47.09","2.842","33.31","1013.995","30.22","49.53","NAN","0.0"],
    [1564250,"2026-07-20 07:30:00","16960","1.256","49.26","3.397","66.79","1014.013","30.62","46.96","NAN","0.0"],
    [1564251,"2026-07-20 07:40:00","16961","1.7480000000000002","62.25","3.071","68.22","1014.073","30.79","45.12","NAN","0.0"],
    [1564252,"2026-07-20 07:50:00","16962","1.944","98.5","3.071","99.2","1014.1080000000001","30.59","47.48","NAN","0.0"],
    [1564253,"2026-07-20 08:00:00","16963","2.042","92.7","3.463","112.2","1014.08","30.08","51.55","NAN","0.0"],
    [1564254,"2026-07-20 08:10:00","16964","1.6680000000000001","90.2","3.005","109.3","1014.225","29.92","55.1","NAN","0.0"],
    [1564255,"2026-07-20 08:20:00","16965","1.9","87.6","3.267","79.72","1014.2660000000001","29.8","58.95","NAN","0.0"],
    [1564256,"2026-07-20 08:30:00","16966","2.012","82.4","3.267","84.0","1014.27","29.67","60.27","NAN","0.0"],
    [1564257,"2026-07-20 08:40:00","16967","1.756","88.7","3.332","91.0","1014.2080000000001","29.81","61.61","NAN","0.0"],
    [1564258,"2026-07-20 08:50:00","16968","1.516","99.0","3.463","99.5","1014.211","30","64.45","NAN","0.0"],
    [1564259,"2026-07-20 09:00:00","16969","1.72","100.0","3.103","94.5","1014.24","29.81","67.67","NAN","0.0"],
    [1564260,"2026-07-20 09:10:00","16970","1.8359999999999999","103.5","3.201","127.5","1014.253","29.7","68.68","NAN","0.0"],
    [1564261,"2026-07-20 09:20:00","16971","1.861","116.8","3.201","117.4","1014.2589999999999","29.35","68.09","NAN","0.0"],
    [1564262,"2026-07-20 09:30:00","16972","1.581","112.6","2.679","114.5","1014.2639999999999","29.65","63.62","NAN","0.0"],
    [1564263,"2026-07-20 09:40:00","16973","1.817","104.8","3.365","115.1","1014.168","29.96","61.23","NAN","0.0"],
    [1564264,"2026-07-20 09:50:00","16974","1.8769999999999998","112.0","3.659","109.7","1014.297","30.04","60.59","NAN","0.0"],
    [1564265,"2026-07-20 10:00:00","16975","2.005","110.1","3.234","90.4","1014.3739999999999","30.05","60.6","NAN","0.0"],
    [1564266,"2026-07-20 10:10:00","16976","2.25","107.6","3.9530000000000003","121.4","1014.2660000000001","30.4","56.73","NAN","0.0"],
    [1564267,"2026-07-20 10:20:00","16977","2.5269999999999997","109.6","4.2139999999999995","101.6","1014.295","29.76","60.67","NAN","0.0"],
    [1564268,"2026-07-20 10:30:00","16978","2.625","123.3","4.247","106.1","1014.421","29.54","63.87","NAN","0.0"],
    [1564269,"2026-07-20 10:40:00","16979","2.5380000000000003","125.7","4.508","110.7","1014.6419999999999","29.45","66.08","NAN","0.0"],
    [1564270,"2026-07-20 10:50:00","16980","2.237","129.9","3.659","106.4","1014.805","29.31","68.03","NAN","0.0"],
    [1564271,"2026-07-20 11:00:00","16981","2.14","137.7","3.6910000000000003","162.7","1014.883","29.89","60.23","NAN","0.0"],
    [1564272,"2026-07-20 11:10:00","16982","2.5610000000000004","124.6","4.279","150.3","1015.043","29.83","57.79","NAN","0.0"],
    [1564273,"2026-07-20 11:20:00","16983","2.32","130.3","4.051","130.7","1015.102","29.74","61.1","NAN","0.0"],
    [1564274,"2026-07-20 11:30:00","16984","2.424","137.6","4.737","142.0","1015.0260000000001","29.86","61.76","NAN","0.0"],
    [1564275,"2026-07-20 11:40:00","16985","2.385","122.3","4.41","139.7","1014.888","29.24","64.42","NAN","0.0"],
    [1564276,"2026-07-20 11:50:00","16986","2.5069999999999997","125.2","4.149","102.6","1014.962","29.31","65.45","NAN","0.0"],
    [1564277,"2026-07-20 12:00:00","16987","2.391","119.0","4.018","138.7","1014.8639999999999","28.93","67.62","NAN","0.0"],
    [1564278,"2026-07-20 12:10:00","16988","2.046","102.8","4.41","98.7","1014.822","29.9","64.63","NAN","0.0"],
    [1564279,"2026-07-20 12:20:00","16989","2.367","114.5","4.704","119.4","1014.791","29.43","66.02","NAN","0.0"],
    [1564280,"2026-07-20 12:30:00","16990","2.224","107.9","3.887","103.7","1014.711","29.49","66.15","NAN","0.0"],
    [1564281,"2026-07-20 12:40:00","16991","2.2840000000000003","107.5","4.638999999999999","110.1","1014.7130000000001","29.47","64.98","NAN","0.0"],
    [1564282,"2026-07-20 12:50:00","16992","2.367","114.1","3.9530000000000003","119.6","1014.679","29.72","63.28","NAN","0.0"],
    [1564283,"2026-07-20 13:00:00","16993","2.0780000000000003","109.0","3.6910000000000003","137.8","1014.413","29.54","63.17","NAN","0.0"],
    [1564284,"2026-07-20 13:10:00","16994","2.799","108.1","4.802","102.7","1014.2739999999999","29.51","63.03","NAN","0.0"],
    [1564285,"2026-07-20 13:20:00","16995","2.434","100.9","4.41","86.5","1014.1360000000001","29.51","63.18","NAN","0.0"],
    [1564286,"2026-07-20 13:30:00","16996","2.335","105.0","3.92","111.7","1014.049","29.44","63.15","NAN","0.0"],
    [1564287,"2026-07-20 13:40:00","16997","2.577","106.2","4.247","89.3","1013.929","29.57","62.03","NAN","0.0"],
    [1564288,"2026-07-20 13:50:00","16998","2.291","108.0","3.7889999999999997","124.6","1013.8710000000001","29.63","62.53","NAN","0.0"],
    [1564289,"2026-07-20 14:00:00","16999","2.112","105.7","3.855","104.1","1013.825","29.73","62.94","NAN","0.0"],
    [1564290,"2026-07-20 14:10:00","17000","2.273","117.6","3.7569999999999997","95.6","1013.99","29.69","62.07","NAN","0.0"],
    [1564291,"2026-07-20 14:20:00","17001","2.126","123.2","4.083","126.3","1013.909","29.5","63.33","NAN","0.0"],
    [1564292,"2026-07-20 14:30:00","17002","2.021","123.9","3.463","132.8","1013.696","29.6","64.42","NAN","0.0"],
    [1564293,"2026-07-20 14:40:00","17003","2.43","128.9","4.345","110.5","1013.68","29.34","65.35","NAN","0.0"],
    [1564294,"2026-07-20 14:50:00","17004","2.092","133.2","3.593","141.4","1013.6","29.27","66.13","NAN","0.0"],
    [1564295,"2026-07-20 15:00:00","17005","2.102","127.1","3.5610000000000004","137.8","1013.4989999999999","29.37","65.06","NAN","0.0"],
    [1564296,"2026-07-20 15:10:00","17006","2.124","128.3","4.083","168.2","1013.429","29.44","63.62","NAN","0.0"],
    [1564297,"2026-07-20 15:20:00","17007","2.182","125.4","4.345","111.2","1013.2180000000001","29.29","65.08","NAN","0.0"],
    [1564298,"2026-07-20 15:30:00","17008","1.8459999999999999","127.7","3.822","106.0","1013.368","29.01","67.23","NAN","0.0"],
    [1564299,"2026-07-20 15:40:00","17009","1.268","156.9","2.385","137.9","1013.8560000000001","28.97","67.81","NAN","0.0"],
    [1564300,"2026-07-20 15:50:00","17010","1.3319999999999999","176.3","2.7439999999999998","181.6","1013.681","28.94","67.64","NAN","0.0"],
    [1564301,"2026-07-20 16:00:00","17011","1.5230000000000001","172.7","3.267","183.4","1013.9119999999999","28.74","69.47","NAN","0.0"],
    [1564302,"2026-07-20 16:10:00","17012","1.521","177.9","3.365","164.2","1014.972","28.88","70.89","NAN","0.0"],
    [1564303,"2026-07-20 16:20:00","17013","2.085","104.8","5.815","118.1","1013.419","28.7","72.43","NAN","0.0"],
    [1564304,"2026-07-20 16:30:00","17014","2.889","128.0","8.4","99.1","1011.799","28.22","76.13","NAN","0.0"],
    [1564305,"2026-07-20 16:40:00","17015","3.053","279.2","11.17","286.3","1013.305","29.27","69.02","NAN","0.0"],
    [1564306,"2026-07-20 16:50:00","17016","2.4090000000000003","135.8","5.684","80.3","1010.982","28.82","70.19","NAN","0.0"],
    [1564307,"2026-07-20 17:00:00","17017","2.1719999999999997","190.9","4.9","197.3","1012.18","28.86","71.97","NAN","0.0"],
    [1564308,"2026-07-20 17:10:00","17018","1.5130000000000001","220.0","4.345","210.6","1013.033","28.75","73.91","NAN","0.0"],
    [1564309,"2026-07-20 17:20:00","17019","1.178","229.0","3.855","241.2","1012.9110000000001","28.68","73.5","NAN","0.0"],
    [1564310,"2026-07-20 17:30:00","17020","0.9359999999999999","191.3","2.907","279.2","1012.195","28.57","73.35","NAN","0.0"],
    [1564311,"2026-07-20 17:40:00","17021","1.202","227.2","2.907","285.7","1012.561","28.89","73","NAN","0.0"],
    [1564312,"2026-07-20 17:50:00","17022","0.9520000000000001","247.6","3.267","243.9","1012.4689999999999","28.92","73.73","NAN","0.0"],
    [1564313,"2026-07-20 18:00:00","17023","0.7240000000000001","71.14","1.764","75.66","1011.86","29.29","72.99","NAN","0.0"],
    [1564314,"2026-07-20 18:10:00","17024","0.9940000000000001","76.94","2.319","60.01","1011.46","29.37","72.05","NAN","0.0"],
    [1564315,"2026-07-20 18:20:00","17025","1.157","125.5","2.025","158.9","1011.7139999999999","29.31","71.83","NAN","0.0"],
    [1564316,"2026-07-20 18:30:00","17026","1.207","176.0","2.613","182.1","1011.8789999999999","29.02","75","NAN","0.0"],
    [1564317,"2026-07-20 18:40:00","17027","1.3330000000000002","185.8","2.189","150.8","1011.953","28.8","77.5","NAN","0.0"],
    [1564318,"2026-07-20 18:50:00","17028","1.2590000000000001","176.0","2.6460000000000004","171.8","1011.9760000000001","28.67","79.6","NAN","0.0"],
    [1564319,"2026-07-20 19:00:00","17029","1.207","174.4","2.5810000000000004","178.7","1011.997","28.52","82.3","NAN","0.0"],
    [1564320,"2026-07-20 19:10:00","17030","0.852","152.7","1.535","166.3","1011.8580000000001","28.54","82.6","NAN","0.0"],
    [1564321,"2026-07-20 19:20:00","17031","1.5390000000000001","172.6","2.483","171.0","1011.8480000000001","28.54","83.2","NAN","0.0"],
    [1564322,"2026-07-20 19:30:00","17032","0.935","178.5","1.9269999999999998","177.9","1011.7310000000001","28.34","85","NAN","0.0"],
    [1564323,"2026-07-20 19:40:00","17033","0.7040000000000001","183.2","1.895","174.5","1011.664","28.48","83.2","NAN","0.0"],
    [1564324,"2026-07-20 19:50:00","17034","0.8009999999999999","178.7","1.601","161.7","1011.809","28.61","82.3","NAN","0.0"],
    [1564325,"2026-07-20 20:00:00","17035","1.8319999999999999","176.8","3.103","176.3","1012.168","28.48","85","NAN","0.0"],
    [1564326,"2026-07-20 20:10:00","17036","1.599","172.4","3.7239999999999998","179.4","1012.4069999999999","28.26","86.2","NAN","0.0"],
    [1564327,"2026-07-20 20:20:00","17037","1.528","180.2","2.6460000000000004","170.9","1012.591","28.47","82.3","NAN","0.0"],
    [1564328,"2026-07-20 20:30:00","17038","1.128","188.8","2.385","181.3","1012.8380000000001","28.38","84.6","NAN","0.0"],
    [1564329,"2026-07-20 20:40:00","17039","0.8240000000000001","193.7","2.352","185.7","1013.1439999999999","28.33","83.8","NAN","0.0"],
    [1564330,"2026-07-20 20:50:00","17040","0.9390000000000001","208.5","2.156","201.0","1013.3889999999999","28.25","84.2","NAN","0.0"],
    [1564331,"2026-07-20 21:00:00","17041","0.634","221.9","2.287","201.5","1013.385","28.33","82.8","NAN","0.0"],
    [1564332,"2026-07-20 21:10:00","17042","0.799","225.8","2.385","237.3","1013.416","28.39","83.5","NAN","0.0"],
    [1564333,"2026-07-20 21:20:00","17043","1.192","222.5","3.005","199.9","1013.538","28.29","84.5","NAN","0.0"],
    [1564334,"2026-07-20 21:30:00","17044","1.1420000000000001","221.8","2.613","227.1","1013.58","28.21","85","NAN","0.0"],
    [1564335,"2026-07-20 21:40:00","17045","1.0290000000000001","225.3","2.6460000000000004","226.7","1013.557","28.22","84.7","NAN","0.0"],
    [1564336,"2026-07-20 21:50:00","17046","1.084","212.1","2.679","207.3","1013.605","28.22","84.7","NAN","0.0"],
    [1564337,"2026-07-20 22:00:00","17047","0.6890000000000001","233.7","1.993","196.4","1013.56","28.31","84.7","NAN","0.0"],
    [1564338,"2026-07-20 22:10:00","17048","0.48100000000000004","222.1","1.535","188.6","1013.535","28.29","84.8","NAN","0.0"],
    [1564339,"2026-07-20 22:20:00","17049","0.397","227.5","1.96","193.7","1013.403","28.57","83.4","NAN","0.0"],
    [1564340,"2026-07-20 22:30:00","17050","0.5479999999999999","184.8","1.307","166.2","1013.49","28.29","85.1","NAN","0.0"],
    [1564341,"2026-07-20 22:40:00","17051","0.614","172.3","1.176","149.5","1013.3660000000001","28.1","85.9","NAN","0.0"],
    [1564342,"2026-07-20 22:50:00","17052","0.625","167.2","1.078","167.5","1013.3530000000001","28.05","86","NAN","0.0"],
    [1564343,"2026-07-20 23:00:00","17053","0.76","175.4","1.176","169.0","1013.3860000000001","28.03","86.5","NAN","0.0"],
    [1564344,"2026-07-20 23:10:00","17054","0.8059999999999999","180.0","1.4369999999999998","185.9","1013.3580000000001","27.92","87.4","NAN","0.0"],
    [1564345,"2026-07-20 23:20:00","17055","0.377","153.0","0.882","129.6","1013.3710000000001","27.94","87.3","NAN","0.0"],
    [1564346,"2026-07-20 23:30:00","17056","0.532","130.6","1.307","104.8","1013.346","27.9","87.3","NAN","0.0"],
    [1564347,"2026-07-20 23:40:00","17057","0.887","129.4","1.666","114.9","1013.346","27.85","88","NAN","0.0"],
    [1564348,"2026-07-20 23:50:00","17058","0.9840000000000001","99.1","1.895","95.4","1013.3910000000001","27.85","88.5","NAN","0.0"],
    [1564349,"2026-07-21 00:00:00","17059","1.29","72.23","2.907","73.56","1013.403","27.86","90","NAN","0.0"],
    [1564350,"2026-07-21 00:10:00","17060","1.274","51.46","2.548","28.47","1013.3430000000001","27.59","91.3","NAN","0.0"],
    [1564351,"2026-07-21 00:20:00","17061","1.166","72.44","2.7769999999999997","73.02","1013.318","27.56","90.9","NAN","0.0"],
    [1564352,"2026-07-21 00:30:00","17062","1.515","85.8","2.7110000000000003","85.3","1013.3889999999999","27.53","91","NAN","0.0"],
    [1564353,"2026-07-21 00:40:00","17063","1.3119999999999998","77.41","2.613","79.7","1013.448","27.4","91.1","NAN","0.0"],
    [1564354,"2026-07-21 00:50:00","17064","0.895","55.65","2.0909999999999997","80.3","1013.513","27.45","90.6","NAN","0.0"],
    [1564355,"2026-07-21 01:00:00","17065","0.951","47.02","2.025","25.03","1013.495","27.48","90.5","NAN","0.0"],
    [1564356,"2026-07-21 01:10:00","17066","0.9640000000000001","50.33","2.025","54.57","1013.548","27.44","90.6","NAN","0.0"],
    [1564357,"2026-07-21 01:20:00","17067","1.0190000000000001","67.21","2.5810000000000004","69.65","1013.637","27.36","90.8","NAN","0.0"],
    [1564358,"2026-07-21 01:30:00","17068","0.8320000000000001","63.8","1.666","57.68","1013.485","27.26","91.2","NAN","0.0"],
    [1564359,"2026-07-21 01:40:00","17069","0.506","64.17","1.3719999999999999","77.53","1013.415","27.26","91","NAN","0.0"],
    [1564360,"2026-07-21 01:50:00","17070","0.503","101.6","1.176","57.52","1013.3430000000001","27.36","90.3","NAN","0.0"],
    [1564361,"2026-07-21 02:00:00","17071","0.16899999999999998","130.7","0.6859999999999999","150.7","1013.174","27.2","91","NAN","0.0"],
    [1564362,"2026-07-21 02:10:00","17072","0.633","125.4","1.176","162.7","1013.238","27.18","91.2","NAN","0.0"],
    [1564363,"2026-07-21 02:20:00","17073","0.878","68.5","2.123","75.02","1013.047","27.2","91.3","NAN","0.0"],
    [1564364,"2026-07-21 02:30:00","17074","0.986","54.35","2.025","61.51","1013.0989999999999","27.16","91.2","NAN","0.0"],
    [1564365,"2026-07-21 02:40:00","17075","1.6059999999999999","83.1","2.7110000000000003","96.0","1013.1089999999999","27.11","91.5","NAN","0.0"],
    [1564366,"2026-07-21 02:50:00","17076","1.452","85.9","3.005","98.5","1013.279","26.99","90.2","NAN","0.0"],
    [1564367,"2026-07-21 03:00:00","17077","0.9329999999999999","41.46","2.254","37.58","1013.363","26.97","85.5","NAN","0.0"],
    [1564368,"2026-07-21 03:10:00","17078","0.965","62.25","3.234","78.01","1013.2589999999999","27.19","84","NAN","0.0"],
    [1564369,"2026-07-21 03:20:00","17079","1.22","46.85","2.842","88.8","1012.8939999999999","27.2","86","NAN","0.0"],
    [1564370,"2026-07-21 03:30:00","17080","0.583","30.35","1.5030000000000001","6.553999999999999","1013.408","27.31","84.8","NAN","0.0"],
    [1564371,"2026-07-21 03:40:00","17081","0.595","57.94","1.3719999999999999","72.38","1013.5","27.19","85.4","NAN","0.0"],
    [1564372,"2026-07-21 03:50:00","17082","0.607","73.36","1.568","60.31","1013.326","27.15","86.8","NAN","0.0"],
    [1564373,"2026-07-21 04:00:00","17083","0.44799999999999995","61.45","1.4369999999999998","22.02","1013.451","27.15","88.2","NAN","0.0"],
    [1564374,"2026-07-21 04:10:00","17084","0.441","59.68","0.98","78.92","1013.475","27.1","89.6","NAN","0.0"],
    [1564375,"2026-07-21 04:20:00","17085","0.524","44.26","1.339","25.95","1013.596","27.16","91","NAN","0.0"],
    [1564376,"2026-07-21 04:30:00","17086","0.198","15.79","0.8490000000000001","34.66","1013.8939999999999","27.28","90.9","NAN","0.0"],
    [1564377,"2026-07-21 04:40:00","17087","0.563","75.1","1.143","96.6","1013.8560000000001","27.16","90.9","NAN","0.0"],
    [1564378,"2026-07-21 04:50:00","17088","0.878","76.66","1.666","62.64","1013.6389999999999","27.01","91.2","NAN","0.0"],
    [1564379,"2026-07-21 05:00:00","17089","0.8740000000000001","29.44","2.0909999999999997","17.39","1013.5060000000001","27.08","90.8","NAN","0.0"],
    [1564380,"2026-07-21 05:10:00","17090","0.765","44.15","1.699","76.91","1013.578","27.1","89.4","NAN","0.0"],
    [1564381,"2026-07-21 05:20:00","17091","0.662","13.15","1.535","348.0","1013.725","27.18","88.6","NAN","0.0"],
    [1564382,"2026-07-21 05:30:00","17092","1.047","28.33","2.352","69.83","1013.577","27.24","86","NAN","0.0"],
    [1564383,"2026-07-21 05:40:00","17093","0.687","30.9","2.156","35.11","1013.623","27.4","82.2","NAN","0.0"],
    [1564384,"2026-07-21 05:50:00","17094","0.868","40.54","1.699","34.98","1013.882","27.41","80.4","NAN","0.0"],
    [1564385,"2026-07-21 06:00:00","17095","0.456","10.34","1.7309999999999999","25.27","1014.1289999999999","27.95","77.74","NAN","0.0"],
    [1564386,"2026-07-21 06:10:00","17096","0.579","28.99","1.895","12.4","1014.258","28.43","74.91","NAN","0.0"],
    [1564387,"2026-07-21 06:20:00","17097","0.645","188.4","2.287","205.1","1014.7310000000001","28.56","72.83","NAN","0.0"],
    [1564388,"2026-07-21 06:30:00","17098","1.5119999999999998","90.0","3.659","63.69","1013.982","28.28","72.22","NAN","0.0"],
    [1564389,"2026-07-21 06:40:00","17099","1.8090000000000002","38.84","4.4430000000000005","35.97","1013.4010000000001","28.1","72.43","NAN","0.0"],
    [1564390,"2026-07-21 06:50:00","17100","0.963","18.56","3.332","62.2","1014.201","28.38","68.67","NAN","0.0"],
    [1564391,"2026-07-21 07:00:00","17101","1.496","44.75","3.071","35.61","1014.2239999999999","28.45","65.1","NAN","0.0"],
    [1564392,"2026-07-21 07:10:00","17102","1.0090000000000001","65.82","2.319","80.1","1013.977","28.67","65.05","NAN","0.0"],
    [1564393,"2026-07-21 07:20:00","17103","0.9520000000000001","80.1","2.189","42.3","1014.453","28.99","63.8","NAN","0.0"],
    [1564394,"2026-07-21 07:30:00","17104","1.381","152.8","2.5810000000000004","145.5","1014.673","28.93","65.87","NAN","0.0"],
    [1564395,"2026-07-21 07:40:00","17105","1.78","175.3","4.149","158.5","1015.295","28.46","72.66","NAN","0.0"],
    [1564396,"2026-07-21 07:50:00","17106","1.751","155.1","3.299","180.7","1015.429","28.14","73.08","NAN","0.0"],
    [1564397,"2026-07-21 08:00:00","17107","1.65","124.6","2.842","122.2","1014.972","28.57","69.83","NAN","0.0"],
    [1564398,"2026-07-21 08:10:00","17108","2.234","104.4","5.031000000000001","99.5","1014.321","28.66","69.69","NAN","0.0"],
    [1564399,"2026-07-21 08:20:00","17109","2.254","88.9","4.638999999999999","91.3","1013.471","28.04","72.79","NAN","0.0"],
    [1564400,"2026-07-21 08:30:00","17110","0.92","52.3","3.005","74.53","1014.3760000000001","28.8","68.4","NAN","0.0"],
    [1564401,"2026-07-21 08:40:00","17111","0.595","90.7","2.189","89.2","1014.87","29.87","62.66","NAN","0.0"],
    [1564402,"2026-07-21 08:50:00","17112","2.106","106.3","3.985","115.0","1014.138","29.79","62.34","NAN","0.0"],
    [1564403,"2026-07-21 09:00:00","17113","1.189","130.8","2.319","117.1","1014.5089999999999","29.41","64.75","NAN","0.0"],
    [1564404,"2026-07-21 09:10:00","17114","1.6219999999999999","147.5","3.0380000000000003","173.1","1014.789","29.49","63.77","NAN","0.0"],
    [1564405,"2026-07-21 09:20:00","17115","2.322","152.9","4.279","154.7","1014.812","28.75","66.54","NAN","0.0"],
    [1564406,"2026-07-21 09:30:00","17116","2.9130000000000003","173.4","5.2589999999999995","184.6","1015.365","29.01","65.43","NAN","0.0"],
    [1564407,"2026-07-21 09:40:00","17117","2.256","151.9","3.985","172.6","1015.193","29.09","63.47","NAN","0.0"],
    [1564408,"2026-07-21 09:50:00","17118","1.828","132.0","3.5610000000000004","112.0","1014.9760000000001","29.36","62.05","NAN","0.0"],
    [1564409,"2026-07-21 10:00:00","17119","2.13","125.4","3.7239999999999998","133.8","1014.578","29.34","61.18","NAN","0.0"],
    [1564410,"2026-07-21 10:10:00","17120","1.87","144.2","3.103","132.9","1015.025","29.27","62.8","NAN","0.0"],
    [1564411,"2026-07-21 10:20:00","17121","2.1180000000000003","136.7","3.7569999999999997","160.5","1015.461","29.34","60.02","NAN","0.0"],
    [1564412,"2026-07-21 10:30:00","17122","2.002","128.3","3.7889999999999997","125.1","1015.3689999999999","29.41","58.69","NAN","0.0"],
    [1564413,"2026-07-21 10:40:00","17123","2.18","134.3","4.083","176.0","1015.453","29.3","60.58","NAN","0.0"],
    [1564414,"2026-07-21 10:50:00","17124","1.944","140.4","3.6910000000000003","152.2","1015.577","29.49","59.17","NAN","0.0"],
    [1564415,"2026-07-21 11:00:00","17125","2.408","133.0","3.887","110.1","1015.62","29.52","58.55","NAN","0.0"],
    [1564416,"2026-07-21 11:10:00","17126","2.55","129.6","4.051","118.1","1015.571","29.19","62.13","NAN","0.0"],
    [1564417,"2026-07-21 11:20:00","17127","2.634","122.5","4.867","117.3","1015.2719999999999","29.17","63.37","NAN","0.0"],
    [1564418,"2026-07-21 11:30:00","17128","2.627","116.6","4.475","103.7","1015.255","29.4","63.75","NAN","0.0"],
    [1564419,"2026-07-21 11:40:00","17129","2.271","104.8","3.887","119.6","1015.39","29.66","63.6","NAN","0.0"],
    [1564420,"2026-07-21 11:50:00","17130","2.591","111.0","4.4430000000000005","109.5","1015.554","29.5","61.6","NAN","0.0"],
    [1564421,"2026-07-21 12:00:00","17131","2.418","126.6","3.92","140.5","1015.745","29.65","59.81","NAN","0.0"],
    [1564422,"2026-07-21 12:10:00","17132","2.2230000000000003","133.7","3.7239999999999998","162.7","1016.112","29.69","60.17","NAN","0.0"],
    [1564423,"2026-07-21 12:20:00","17133","2.313","122.5","3.43","109.9","1016.278","29.48","61.89","NAN","0.0"],
    [1564424,"2026-07-21 12:30:00","17134","2.693","122.7","3.822","108.5","1016.216","29.35","63.17","NAN","0.0"],
    [1564425,"2026-07-21 12:40:00","17135","2.31","114.3","3.593","110.1","1015.783","29.7","61.79","NAN","0.0"],
    [1564426,"2026-07-21 12:50:00","17136","3.003","107.3","5.422999999999999","105.3","1015.49","29.74","57.4","NAN","0.0"],
    [1564427,"2026-07-21 13:00:00","17137","2.52","101.9","5.521","103.3","1015.419","30.22","53.06","NAN","0.0"],
    [1564428,"2026-07-21 13:10:00","17138","2.9339999999999997","103.8","5.619","122.0","1015.304","29.78","51.56","NAN","0.0"],
    [1564429,"2026-07-21 13:20:00","17139","2.813","90.7","5.7170000000000005","100.1","1015.1610000000001","30.08","50.36","NAN","0.0"],
    [1564430,"2026-07-21 13:30:00","17140","2.7260000000000004","82.8","5.619","71.24","1014.985","30.38","49.13","NAN","0.0"],
    [1564431,"2026-07-21 13:40:00","17141","2.679","74.65","5.063","66.31","1014.816","30.31","50.75","NAN","0.0"],
    [1564432,"2026-07-21 13:50:00","17142","3.156","74.43","6.042999999999999","83.2","1014.77","30.37","49.1","NAN","0.0"],
    [1564433,"2026-07-21 14:00:00","17143","2.6710000000000003","82.3","4.9","55.55","1014.7719999999999","30.21","51.6","NAN","0.0"],
    [1564434,"2026-07-21 14:10:00","17144","2.99","71.42","6.011","57.15","1014.8330000000001","30","51.41","NAN","0.0"],
    [1564435,"2026-07-21 14:20:00","17145","3.5669999999999997","81.9","5.945","107.3","1014.59","29.91","50.88","NAN","0.0"],
    [1564436,"2026-07-21 14:30:00","17146","2.9760000000000004","81.9","5.651","111.5","1014.742","29.81","51.41","NAN","0.0"],
    [1564437,"2026-07-21 14:40:00","17147","3.221","95.2","5.619","94.6","1014.888","29.78","52.53","NAN","0.0"],
    [1564438,"2026-07-21 14:50:00","17148","2.748","89.5","4.704","94.0","1015.068","29.61","53.83","NAN","0.0"],
    [1564439,"2026-07-21 15:00:00","17149","2.529","106.5","4.475","113.6","1015.289","29.69","53.07","NAN","0.0"],
    [1564440,"2026-07-21 15:10:00","17150","2.49","129.8","4.671","117.1","1015.471","29.34","54.12","NAN","0.0"],
    [1564441,"2026-07-21 15:20:00","17151","2.255","123.5","3.593","127.9","1015.467","29.34","55.21","NAN","0.0"],
    [1564442,"2026-07-21 15:30:00","17152","1.838","131.0","3.071","137.6","1015.3539999999999","29.27","55.38","NAN","0.0"],
    [1564443,"2026-07-21 15:40:00","17153","1.865","123.6","3.1689999999999996","99.4","1015.299","29.49","55.2","NAN","0.0"],
    [1564444,"2026-07-21 15:50:00","17154","1.72","143.7","3.1689999999999996","141.2","1015.461","29.39","54.88","NAN","0.0"],
    [1564445,"2026-07-21 16:00:00","17155","1.314","133.0","2.515","120.2","1015.549","29.26","55.58","NAN","0.0"],
    [1564446,"2026-07-21 16:10:00","17156","1.702","125.5","3.234","112.0","1015.329","29.15","56.65","NAN","0.0"],
    [1564447,"2026-07-21 16:20:00","17157","1.624","149.8","3.136","153.6","1015.3960000000001","29.24","56.82","NAN","0.0"],
    [1564448,"2026-07-21 16:30:00","17158","1.518","152.0","2.875","113.5","1015.367","29.08","57.93","NAN","0.0"],
    [1564449,"2026-07-21 16:40:00","17159","1.4269999999999998","133.1","2.417","107.3","1015.3480000000001","29.16","57.37","NAN","0.0"],
    [1564450,"2026-07-21 16:50:00","17160","1.745","158.6","3.005","151.3","1015.296","28.88","58.23","NAN","0.0"],
    [1564451,"2026-07-21 17:00:00","17161","1.262","145.9","2.842","156.7","1015.102","28.93","58.2","NAN","0.0"],
    [1564452,"2026-07-21 17:10:00","17162","1.3230000000000002","135.6","2.5810000000000004","154.9","1015.19","29.07","57.69","NAN","0.0"],
    [1564453,"2026-07-21 17:20:00","17163","0.836","124.3","2.0580000000000003","102.3","1015.303","29.29","57.39","NAN","0.0"],
    [1564454,"2026-07-21 17:30:00","17164","0.9990000000000001","137.2","1.96","155.0","1015.367","29.11","56.88","NAN","0.0"],
    [1564455,"2026-07-21 17:40:00","17165","0.902","138.2","1.9269999999999998","143.8","1015.48","29.15","56.69","NAN","0.0"],
    [1564456,"2026-07-21 17:50:00","17166","1.033","178.4","2.319","195.0","1015.52","29.35","55.67","NAN","0.0"],
    [1564457,"2026-07-21 18:00:00","17167","0.496","188.5","1.535","177.3","1015.6569999999999","29.5","54.9","NAN","0.0"],
    [1564458,"2026-07-21 18:10:00","17168","1.11","142.3","1.96","107.2","1015.623","29.21","54.72","NAN","0.0"],
    [1564459,"2026-07-21 18:20:00","17169","0.754","152.6","1.307","175.4","1015.825","29.21","53.28","NAN","0.0"],
    [1564460,"2026-07-21 18:30:00","17170","0.977","127.2","1.47","108.0","1015.7669999999999","29.23","55.23","NAN","0.0"],
    [1564461,"2026-07-21 18:40:00","17171","0.8320000000000001","160.5","1.47","213.0","1015.921","29.06","56.83","NAN","0.0"],
    [1564462,"2026-07-21 18:50:00","17172","1.001","174.8","1.7309999999999999","151.2","1016.0089999999999","28.98","59.6","NAN","0.0"],
    [1564463,"2026-07-21 19:00:00","17173","0.7659999999999999","171.6","1.176","193.0","1016.047","28.73","60.94","NAN","0.0"],
    [1564464,"2026-07-21 19:10:00","17174","0.8759999999999999","188.3","1.601","175.4","1016.294","28.74","61.31","NAN","0.0"],
    [1564465,"2026-07-21 19:20:00","17175","1.5590000000000002","169.5","2.7110000000000003","175.7","1016.3560000000001","28.49","64.85","NAN","0.0"],
    [1564466,"2026-07-21 19:30:00","17176","1.127","196.8","2.7439999999999998","226.3","1016.51","28.48","63.52","NAN","0.0"],
    [1564467,"2026-07-21 19:40:00","17177","1.0959999999999999","231.5","2.319","231.0","1016.602","29.05","53.84","NAN","0.0"],
    [1564468,"2026-07-21 19:50:00","17178","0.847","245.7","3.267","220.6","1016.4780000000001","29.57","52.9","NAN","0.0"],
    [1564469,"2026-07-21 20:00:00","17179","1.1","233.9","2.907","241.8","1016.558","29.44","52.74","NAN","0.0"],
    [1564470,"2026-07-21 20:10:00","17180","0.841","223.1","2.319","248.5","1016.687","29.48","53.74","NAN","0.0"],
    [1564471,"2026-07-21 20:20:00","17181","1.065","241.9","2.319","237.3","1016.715","29.38","51.17","NAN","0.0"],
    [1564472,"2026-07-21 20:30:00","17182","0.743","235.0","1.895","236.8","1016.622","29.6","48.85","NAN","0.0"],
    [1564473,"2026-07-21 20:40:00","17183","0.446","281.7","1.3719999999999999","269.1","1016.5269999999999","29.6","46.12","NAN","0.0"],
    [1564474,"2026-07-21 20:50:00","17184","0.284","353.2","0.7509999999999999","348.0","1016.465","30.47","41.55","NAN","0.0"],
    [1564475,"2026-07-21 21:00:00","17185","0.768","43.62","2.156","36.82","1016.507","30.16","42.05","NAN","0.0"],
    [1564476,"2026-07-21 21:10:00","17186","0.7040000000000001","35.35","2.0909999999999997","7.9879999999999995","1016.4830000000001","30.05","42.99","NAN","0.0"],
    [1564477,"2026-07-21 21:20:00","17187","1.23","33.29","2.5810000000000004","13.02","1016.36","29.91","48.43","NAN","0.0"],
    [1564478,"2026-07-21 21:30:00","17188","0.782","37.8","2.7110000000000003","60.23","1016.418","29.55","49.45","NAN","0.0"],
    [1564479,"2026-07-21 21:40:00","17189","0.8220000000000001","36.4","3.332","27.91","1016.258","29.54","47.99","NAN","0.0"],
    [1564480,"2026-07-21 21:50:00","17190","0.868","32.37","2.319","40.64","1016.0889999999999","29.71","45.98","NAN","0.0"],
    [1564481,"2026-07-21 22:00:00","17191","0.825","9.13","2.907","15.83","1015.952","29.87","45.09","NAN","0.0"],
    [1564482,"2026-07-21 22:10:00","17192","1.624","9.02","3.463","19.77","1015.942","29.79","44.68","NAN","0.0"],
    [1564483,"2026-07-21 22:20:00","17193","1.4069999999999998","6.906000000000001","4.377","7.318","1015.9069999999999","29.9","43.78","NAN","0.0"],
    [1564484,"2026-07-21 22:30:00","17194","1.3980000000000001","357.4","3.528","5.5089999999999995","1015.84","29.84","42.84","NAN","0.0"],
    [1564485,"2026-07-21 22:40:00","17195","1.3090000000000002","8.54","3.855","33.36","1015.845","29.67","42.46","NAN","0.0"],
    [1564486,"2026-07-21 22:50:00","17196","1.882","4.922","3.7889999999999997","15.43","1015.7919999999999","29.49","42.42","NAN","0.0"],
    [1564487,"2026-07-21 23:00:00","17197","1.345","5.777","3.397","9.39","1015.795","29.53","42.27","NAN","0.0"],
    [1564488,"2026-07-21 23:10:00","17198","0.948","14.75","2.156","11.88","1015.763","29.73","41.74","NAN","0.0"],
    [1564489,"2026-07-21 23:20:00","17199","0.8290000000000001","21.83","2.0580000000000003","12.4","1015.742","29.82","41.54","NAN","0.0"],
    [1564490,"2026-07-21 23:30:00","17200","0.531","13.05","1.601","12.84","1015.812","29.91","41.4","NAN","0.0"],
    [1564491,"2026-07-21 23:40:00","17201","0.528","31.7","1.2409999999999999","50.59","1015.67","29.57","42.42","NAN","0.0"],
    [1564492,"2026-07-21 23:50:00","17202","0.662","39.59","1.5030000000000001","21.58","1015.4860000000001","29.42","42.74","NAN","0.0"],
    [1564493,"2026-07-22 00:00:00","17203","0.522","355.4","1.274","1.141","1015.798","29.91","41.7","NAN","0.0"],
    [1564494,"2026-07-22 00:10:00","17204","0.6609999999999999","8.53","1.535","21.99","1015.7919999999999","30.04","41.23","NAN","0.0"],
    [1564495,"2026-07-22 00:20:00","17205","0.42200000000000004","7.178999999999999","1.4369999999999998","358.9","1015.748","29.93","41.51","NAN","0.0"],
    [1564496,"2026-07-22 00:30:00","17206","0.037000000000000005","219.1","0.555","208.8","1015.992","30","41.69","NAN","0.0"],
    [1564497,"2026-07-22 00:40:00","17207","0.0","0.0","0.0","0.0","1016.086","29.33","45.95","NAN","0.0"],
    [1564498,"2026-07-22 00:50:00","17208","0.508","43.02","1.176","60.51","1016.047","29.13","44.05","NAN","0.0"],
    [1564499,"2026-07-22 01:00:00","17209","1.213","57.69","3.071","58.54","1016.204","29.12","43.35","NAN","0.0"],
    [1564500,"2026-07-22 01:10:00","17210","1.469","65.54","4.149","66.96","1016.605","29.05","45","NAN","0.0"],
    [1564501,"2026-07-22 01:20:00","17211","1.054","50.02","2.254","50.24","1016.6469999999999","28.93","48.91","NAN","0.0"],
    [1564502,"2026-07-22 01:30:00","17212","0.77","49.81","1.895","70.2","1016.6489999999999","28.76","50.19","NAN","0.0"],
    [1564503,"2026-07-22 01:40:00","17213","0.578","88.7","1.339","94.7","1016.675","28.59","57.03","NAN","0.0"],
    [1564504,"2026-07-22 01:50:00","17214","1.2770000000000001","80.2","3.822","65.05","1016.834","28.58","58.05","NAN","0.0"],
    [1564505,"2026-07-22 02:00:00","17215","1.696","77.91","3.822","65.05","1016.877","28.89","50.14","NAN","0.0"],
    [1564506,"2026-07-22 02:10:00","17216","2.557","83.1","5.1610000000000005","73.14","1016.8660000000001","29.04","45.34","NAN","0.0"],
    [1564507,"2026-07-22 02:20:00","17217","2.292","72.3","4.377","62.25","1016.8889999999999","29.03","46.04","NAN","0.0"],
    [1564508,"2026-07-22 02:30:00","17218","1.354","60.67","3.528","101.3","1016.988","28.91","46","NAN","0.0"],
    [1564509,"2026-07-22 02:40:00","17219","1.848","68.13","4.606","70.98","1017.023","28.9","42.11","NAN","0.0"],
    [1564510,"2026-07-22 02:50:00","17220","2.228","72.77","5.096","59.11","1017.073","28.9","38.98","NAN","0.0"],
    [1564511,"2026-07-22 03:00:00","17221","2.286","69.11","5.586","78.66","1017.065","28.84","37.89","NAN","0.0"],
    [1564512,"2026-07-22 03:10:00","17222","2.917","78.06","5.749","64.5","1016.951","28.8","38.3","NAN","0.0"],
    [1564513,"2026-07-22 03:20:00","17223","2.041","67.1","5.031000000000001","80.5","1016.936","28.63","41.73","NAN","0.0"],
    [1564514,"2026-07-22 03:30:00","17224","1.455","44.84","3.7889999999999997","71.5","1016.9639999999999","28.46","43.82","NAN","0.0"],
    [1564515,"2026-07-22 03:40:00","17225","1.43","37.21","3.1689999999999996","27.86","1017.128","28.31","40.92","NAN","0.0"],
    [1564516,"2026-07-22 03:50:00","17226","2.254","73.24","4.606","82.0","1017.173","28.23","38.48","NAN","0.0"],
    [1564517,"2026-07-22 04:00:00","17227","2.1919999999999997","79.92","4.704","98.2","1017.145","28.28","38.67","NAN","0.0"],
    [1564518,"2026-07-22 04:10:00","17228","1.895","44.09","4.9","56.84","1017.0830000000001","28.2","38.86","NAN","0.0"],
    [1564519,"2026-07-22 04:20:00","17229","1.2690000000000001","34.99","2.907","32.99","1017.15","28","39.24","NAN","0.0"],
    [1564520,"2026-07-22 04:30:00","17230","1.061","34.45","2.548","32.48","1017.288","27.82","40.02","NAN","0.0"],
    [1564521,"2026-07-22 04:40:00","17231","0.945","40.69","2.254","31.52","1017.21","27.65","40.63","NAN","0.0"],
    [1564522,"2026-07-22 04:50:00","17232","1.794","67.42","4.573","86.9","1017.123","27.56","42.48","NAN","0.0"],
    [1564523,"2026-07-22 05:00:00","17233","2.121","79.46","4.345","75.26","1017.0830000000001","27.59","46.05","NAN","0.0"],
    [1564524,"2026-07-22 05:10:00","17234","1.354","60.38","5.455","77.09","1017.173","27.47","47.59","NAN","0.0"],
    [1564525,"2026-07-22 05:20:00","17235","0.878","34.01","2.515","29.08","1017.2330000000001","27.4","45.32","NAN","0.0"],
    [1564526,"2026-07-22 05:30:00","17236","0.935","45.72","2.0580000000000003","30.57","1017.235","27.49","42.48","NAN","0.0"],
    [1564527,"2026-07-22 05:40:00","17237","0.9079999999999999","4.493","1.829","8.77","1017.26","27.53","43.4","NAN","0.0"],
    [1564528,"2026-07-22 05:50:00","17238","0.899","39.22","2.189","19.24","1017.332","27.55","44.02","NAN","0.0"],
    [1564529,"2026-07-22 06:00:00","17239","0.951","42.65","2.123","59.25","1017.122","27.59","42.07","NAN","0.0"],
    [1564530,"2026-07-22 06:10:00","17240","0.75","358.5","1.535","21.38","1017.2330000000001","27.79","40.08","NAN","0.0"],
    [1564531,"2026-07-22 06:20:00","17241","0.66","6.407","1.601","359.2","1017.332","28.01","39.44","NAN","0.0"],
    [1564532,"2026-07-22 06:30:00","17242","0.802","24.1","2.189","29.16","1017.222","28.07","39.9","NAN","0.0"],
    [1564533,"2026-07-22 06:40:00","17243","0.919","356.8","2.0580000000000003","17.75","1017.414","28.15","39.28","NAN","0.0"],
    [1564534,"2026-07-22 06:50:00","17244","1.024","56.0","2.417","57.72","1017.5089999999999","28.24","41.56","NAN","0.0"],
    [1564535,"2026-07-22 07:00:00","17245","0.92","7.409","2.352","32.14","1017.627","28.08","44.35","NAN","0.0"],
    [1564536,"2026-07-22 07:10:00","17246","0.858","94.7","2.417","102.5","1017.6560000000001","28.48","44.1","NAN","0.0"],
    [1564537,"2026-07-22 07:20:00","17247","1.7819999999999998","118.6","2.94","113.9","1017.703","27.87","47.92","NAN","0.0"],
    [1564538,"2026-07-22 07:30:00","17248","1.7209999999999999","100.6","2.8089999999999997","109.1","1017.826","27.78","49.84","NAN","0.0"],
    [1564539,"2026-07-22 07:40:00","17249","1.845","95.4","3.267","113.1","1017.8330000000001","28.14","49.39","NAN","0.0"],
    [1564540,"2026-07-22 07:50:00","17250","1.614","117.6","2.8089999999999997","117.2","1017.9730000000001","27.97","50.59","NAN","0.0"],
    [1564541,"2026-07-22 08:00:00","17251","1.778","107.4","3.7569999999999997","113.3","1017.956","28.29","51.6","NAN","0.0"],
    [1564542,"2026-07-22 08:10:00","17252","2.105","110.2","3.822","103.7","1017.812","28.09","53","NAN","0.0"],
    [1564543,"2026-07-22 08:20:00","17253","2.042","114.6","3.6910000000000003","112.3","1017.817","28.19","51.6","NAN","0.0"],
    [1564544,"2026-07-22 08:30:00","17254","2.073","91.2","3.659","80.2","1017.825","28.66","50.07","NAN","0.0"],
    [1564545,"2026-07-22 08:40:00","17255","2.325","97.7","4.1160000000000005","91.5","1017.961","28.67","47.18","NAN","0.0"],
    [1564546,"2026-07-22 08:50:00","17256","2.745","95.9","4.9","99.6","1018.023","29.1","41.12","NAN","0.0"],
    [1564547,"2026-07-22 09:00:00","17257","2.875","100.2","5.096","95.8","1018.0319999999999","28.97","40.84","NAN","0.0"],
    [1564548,"2026-07-22 09:10:00","17258","2.334","100.9","4.998","110.9","1018.148","28.75","43.2","NAN","0.0"],
    [1564549,"2026-07-22 09:20:00","17259","2.021","102.1","3.9530000000000003","107.5","1018.2539999999999","29.35","42.88","NAN","0.0"],
    [1564550,"2026-07-22 09:30:00","17260","2.733","102.6","4.998","104.2","1018.057","28.77","44.31","NAN","0.0"],
    [1564551,"2026-07-22 09:40:00","17261","2.903","107.3","5.586","98.0","1018.068","28.54","46.91","NAN","0.0"],
    [1564552,"2026-07-22 09:50:00","17262","2.792","112.7","5.031000000000001","89.4","1017.9939999999999","28.37","48.11","NAN","0.0"],
    [1564553,"2026-07-22 10:00:00","17263","2.764","103.0","5.684","107.2","1018.0139999999999","28.57","47.72","NAN","0.0"],
    [1564554,"2026-07-22 10:10:00","17264","2.63","104.8","4.541","108.2","1018.112","28.52","50.34","NAN","0.0"],
    [1564555,"2026-07-22 10:20:00","17265","2.478","114.2","4.671","107.2","1018.176","28.32","53.02","NAN","0.0"],
    [1564556,"2026-07-22 10:30:00","17266","2.526","98.0","4.475","97.7","1018.222","28.4","52.4","NAN","0.0"],
    [1564557,"2026-07-22 10:40:00","17267","2.7760000000000002","112.8","4.345","100.0","1018.176","28.6","52.28","NAN","0.0"],
    [1564558,"2026-07-22 10:50:00","17268","2.674","103.1","5.031000000000001","105.3","1018.2919999999999","28.82","51.15","NAN","0.0"],
    [1564559,"2026-07-22 11:00:00","17269","2.734","103.2","4.508","106.6","1018.294","28.9","51.63","NAN","0.0"],
    [1564560,"2026-07-22 11:10:00","17270","2.7089999999999996","109.4","4.606","112.7","1018.32","28.82","51.86","NAN","0.0"],
    [1564561,"2026-07-22 11:20:00","17271","2.9789999999999996","104.5","4.933","107.4","1018.3710000000001","28.64","52.34","NAN","0.0"],
    [1564562,"2026-07-22 11:30:00","17272","2.591","101.9","5.129","114.7","1018.313","29.01","52.94","NAN","0.0"],
    [1564563,"2026-07-22 11:40:00","17273","2.299","96.5","3.985","113.3","1018.337","29.12","51.55","NAN","0.0"],
    [1564564,"2026-07-22 11:50:00","17274","2.589","102.5","4.704","121.8","1018.238","29.04","51.4","NAN","0.0"],
    [1564565,"2026-07-22 12:00:00","17275","2.739","109.7","5.129","93.1","1018.113","28.94","52.08","NAN","0.0"],
    [1564566,"2026-07-22 12:10:00","17276","3.03","105.4","5.4879999999999995","113.9","1018.069","28.61","52.2","NAN","0.0"],
    [1564567,"2026-07-22 12:20:00","17277","2.909","103.0","5.2589999999999995","106.8","1018.075","28.72","51.83","NAN","0.0"],
    [1564568,"2026-07-22 12:30:00","17278","2.832","113.1","4.998","108.6","1018.066","28.88","51.77","NAN","0.0"],
    [1564569,"2026-07-22 12:40:00","17279","2.752","120.5","4.638999999999999","117.5","1017.927","28.85","50.56","NAN","0.0"],
    [1564570,"2026-07-22 12:50:00","17280","3.13","123.1","5.422999999999999","143.7","1017.791","28.68","52.09","NAN","0.0"],
    [1564571,"2026-07-22 13:00:00","17281","3.4419999999999997","118.5","6.141","110.0","1017.5139999999999","28.25","53.81","NAN","0.0"],
    [1564572,"2026-07-22 13:10:00","17282","2.767","126.1","5.2589999999999995","115.4","1017.677","28.5","54.05","NAN","0.0"],
    [1564573,"2026-07-22 13:20:00","17283","2.7889999999999997","123.6","5.292000000000001","112.1","1017.823","28.27","55.73","NAN","0.0"],
    [1564574,"2026-07-22 13:30:00","17284","2.502","124.7","4.345","141.2","1017.862","28.51","55.33","NAN","0.0"],
    [1564575,"2026-07-22 13:40:00","17285","2.441","125.8","4.2139999999999995","135.8","1017.7330000000001","28.44","55.46","NAN","0.0"],
    [1564576,"2026-07-22 13:50:00","17286","2.4330000000000003","130.7","3.92","121.3","1017.7310000000001","28.54","55.71","NAN","0.0"],
    [1564577,"2026-07-22 14:00:00","17287","2.4290000000000003","125.1","4.051","98.4","1017.553","28.42","55.26","NAN","0.0"],
    [1564578,"2026-07-22 14:10:00","17288","2.088","127.2","3.855","131.9","1017.5089999999999","28.74","55.32","NAN","0.0"],
    [1564579,"2026-07-22 14:20:00","17289","2.248","120.7","3.822","124.5","1017.4739999999999","28.48","55.17","NAN","0.0"],
    [1564580,"2026-07-22 14:30:00","17290","1.96","132.5","3.463","168.8","1017.4810000000001","28.18","58.85","NAN","0.0"],
    [1564581,"2026-07-22 14:40:00","17291","2.391","137.4","4.1160000000000005","161.7","1017.283","28.64","55.13","NAN","0.0"],
    [1564582,"2026-07-22 14:50:00","17292","2.307","136.6","3.365","140.1","1017.133","28.39","54.44","NAN","0.0"],
    [1564583,"2026-07-22 15:00:00","17293","1.7719999999999998","127.2","3.103","107.8","1017.2410000000001","28.63","55.66","NAN","0.0"],
    [1564584,"2026-07-22 15:10:00","17294","2.535","127.3","4.1160000000000005","129.9","1016.449","28.03","57.49","NAN","0.0"],
    [1564585,"2026-07-22 15:20:00","17295","2.245","130.6","3.855","146.5","1016.2739999999999","27.95","58.95","NAN","0.0"],
    [1564586,"2026-07-22 15:30:00","17296","1.724","138.6","3.234","152.3","1016.63","28.13","59.05","NAN","0.0"],
    [1564587,"2026-07-22 15:40:00","17297","1.8659999999999999","136.0","3.136","123.9","1016.442","28.09","58.16","NAN","0.0"],
    [1564588,"2026-07-22 15:50:00","17298","1.6019999999999999","128.3","2.7439999999999998","111.8","1016.685","28.15","59.47","NAN","0.0"],
    [1564589,"2026-07-22 16:00:00","17299","1.74","121.3","2.7769999999999997","111.3","1016.7439999999999","28.19","60.03","NAN","0.0"],
    [1564590,"2026-07-22 16:10:00","17300","1.681","136.0","2.5810000000000004","113.7","1016.7689999999999","28.16","60.57","NAN","0.0"],
    [1564591,"2026-07-22 16:20:00","17301","1.588","155.8","3.1689999999999996","167.4","1016.882","28.3","59.84","NAN","0.0"],
    [1564592,"2026-07-22 16:30:00","17302","1.91","172.1","3.136","167.9","1016.81","28.32","58.94","NAN","0.0"],
    [1564593,"2026-07-22 16:40:00","17303","2.298","176.8","3.528","185.2","1016.7389999999999","28.17","58.88","NAN","0.0"],
    [1564594,"2026-07-22 16:50:00","17304","2.0669999999999997","128.0","4.181","105.2","1016.461","28.05","60.2","NAN","0.0"],
    [1564595,"2026-07-22 17:00:00","17305","2.248","112.6","3.495","103.6","1016.1","27.83","61.14","NAN","0.0"],
    [1564596,"2026-07-22 17:10:00","17306","1.984","105.4","3.7239999999999998","122.3","1015.763","28.12","60.79","NAN","0.0"],
    [1564597,"2026-07-22 17:20:00","17307","2.1590000000000003","101.6","3.7239999999999998","115.8","1015.937","28.06","61.35","NAN","0.0"],
    [1564598,"2026-07-22 17:30:00","17308","2.074","102.1","3.822","109.5","1015.7819999999999","27.89","63.56","NAN","0.0"],
    [1564599,"2026-07-22 17:40:00","17309","2.13","104.5","3.5610000000000004","146.8","1015.867","27.74","63.92","NAN","0.0"],
    [1564600,"2026-07-22 17:50:00","17310","1.8459999999999999","98.1","3.103","109.3","1015.765","27.63","64.54","NAN","0.0"],
    [1564601,"2026-07-22 18:00:00","17311","2.2840000000000003","88.3","3.9530000000000003","97.3","1015.7","27.5","64.93","NAN","0.0"],
    [1564602,"2026-07-22 18:10:00","17312","2.09","82.9","3.985","104.2","1015.75","27.38","65.48","NAN","0.0"],
    [1564603,"2026-07-22 18:20:00","17313","1.827","88.4","3.299","88.1","1015.765","27.47","65.8","NAN","0.0"],
    [1564604,"2026-07-22 18:30:00","17314","1.591","73.09","3.593","70.58","1015.7130000000001","27.42","65.89","NAN","0.0"],
    [1564605,"2026-07-22 18:40:00","17315","1.53","96.5","3.528","115.7","1015.934","27.4","65.62","NAN","0.0"],
    [1564606,"2026-07-22 18:50:00","17316","1.385","87.0","3.365","97.5","1015.716","27.27","65.82","NAN","0.0"],
    [1564607,"2026-07-22 19:00:00","17317","1.4180000000000001","82.8","2.5810000000000004","72.31","1015.835","27.31","65.38","NAN","0.0"],
    [1564608,"2026-07-22 19:10:00","17318","1.41","100.9","2.875","108.0","1015.935","27.16","64.99","NAN","0.0"],
    [1564609,"2026-07-22 19:20:00","17319","1.117","80.2","2.548","69.52","1016.189","27.24","63.89","NAN","0.0"],
    [1564610,"2026-07-22 19:30:00","17320","1.33","89.8","2.7110000000000003","91.1","1016.1139999999999","27.31","62.29","NAN","0.0"],
    [1564611,"2026-07-22 19:40:00","17321","1.482","106.3","2.94","105.3","1016.273","27.12","62.65","NAN","0.0"],
    [1564612,"2026-07-22 19:50:00","17322","1.495","98.3","2.613","89.6","1016.193","27.09","62.93","NAN","0.0"],
    [1564613,"2026-07-22 20:00:00","17323","1.601","96.0","3.0380000000000003","110.5","1016.2239999999999","27.07","63.18","NAN","0.0"],
    [1564614,"2026-07-22 20:10:00","17324","1.719","76.4","3.071","71.14","1016.1189999999999","26.98","63.44","NAN","0.0"],
    [1564615,"2026-07-22 20:20:00","17325","1.794","69.4","3.234","83.5","1016.047","26.95","62.67","NAN","0.0"],
    [1564616,"2026-07-22 20:30:00","17326","1.5190000000000001","82.8","3.071","93.3","1016.2660000000001","27.01","63.31","NAN","0.0"],
    [1564617,"2026-07-22 20:40:00","17327","1.8730000000000002","82.9","3.201","91.0","1016.0269999999999","26.93","64.07","NAN","0.0"],
    [1564618,"2026-07-22 20:50:00","17328","1.426","86.8","2.6460000000000004","106.3","1016.3580000000001","26.88","64.4","NAN","0.0"],
    [1564619,"2026-07-22 21:00:00","17329","0.953","71.17","2.0909999999999997","88.6","1016.482","26.9","64.52","NAN","0.0"],
    [1564620,"2026-07-22 21:10:00","17330","0.9009999999999999","66.96","1.829","72.91","1016.64","26.98","64.69","NAN","0.0"],
    [1564621,"2026-07-22 21:20:00","17331","1.249","95.0","2.5810000000000004","106.8","1016.67","26.85","65.92","NAN","0.0"],
    [1564622,"2026-07-22 21:30:00","17332","0.865","90.0","1.568","95.4","1016.674","26.77","65.43","NAN","0.0"],
    [1564623,"2026-07-22 21:40:00","17333","0.551","97.3","2.156","76.18","1016.7639999999999","26.78","66.32","NAN","0.0"],
    [1564624,"2026-07-22 21:50:00","17334","1.3230000000000002","82.3","2.254","68.0","1016.587","26.71","66.7","NAN","0.0"],
    [1564625,"2026-07-22 22:00:00","17335","0.516","65.97","1.8619999999999999","32.22","1016.732","26.74","66.62","NAN","0.0"],
    [1564626,"2026-07-22 22:10:00","17336","0.792","67.31","1.895","57.78","1016.784","26.7","66.62","NAN","0.0"],
    [1564627,"2026-07-22 22:20:00","17337","0.684","131.9","1.2409999999999999","114.2","1016.827","26.7","66.88","NAN","0.0"],
    [1564628,"2026-07-22 22:30:00","17338","0.6920000000000001","169.5","1.535","154.2","1016.961","26.66","67.28","NAN","0.0"],
    [1564629,"2026-07-22 22:40:00","17339","0.441","181.1","0.8170000000000001","166.2","1016.998","26.54","67.79","NAN","0.0"],
    [1564630,"2026-07-22 22:50:00","17340","0.5589999999999999","163.4","1.209","169.6","1016.834","26.56","67.84","NAN","0.0"],
    [1564631,"2026-07-22 23:00:00","17341","0.31","118.9","1.078","146.3","1016.659","26.46","67.84","NAN","0.0"],
    [1564632,"2026-07-22 23:10:00","17342","0.335","65.43","0.8170000000000001","69.51","1016.452","26.47","67.48","NAN","0.0"],
    [1564633,"2026-07-22 23:20:00","17343","0.836","54.36","1.895","60.92","1016.306","26.51","67.25","NAN","0.0"],
    [1564634,"2026-07-22 23:30:00","17344","1.198","55.48","2.189","60.39","1016.091","26.53","67.73","NAN","0.0"],
    [1564635,"2026-07-22 23:40:00","17345","0.774","66.57","1.5030000000000001","61.85","1015.954","26.54","67.7","NAN","0.0"],
    [1564636,"2026-07-22 23:50:00","17346","1.162","54.46","2.515","74.01","1015.805","26.55","67.26","NAN","0.0"],
    [1564637,"2026-07-23 00:00:00","17347","1.133","64.47","2.515","74.01","1015.793","26.48","67.26","NAN","0.0"],
    [1564638,"2026-07-23 00:10:00","17348","0.6609999999999999","75.41","1.339","50.73","1015.687","26.54","66.89","NAN","0.0"],
    [1564639,"2026-07-23 00:20:00","17349","0.534","86.1","1.5030000000000001","59.22","1015.528","26.58","66.3","NAN","0.0"],
    [1564640,"2026-07-23 00:30:00","17350","0.28","85.8","0.9470000000000001","72.43","1015.3789999999999","26.57","65.86","NAN","0.0"],
    [1564641,"2026-07-23 00:40:00","17351","0.355","102.9","0.8170000000000001","110.1","1015.2610000000001","26.7","65.21","NAN","0.0"],
    [1564642,"2026-07-23 00:50:00","17352","0.13","59.78","0.653","49.42","1015.1619999999999","26.57","64.85","NAN","0.0"],
    [1564643,"2026-07-23 01:00:00","17353","0.488","64.78","1.2409999999999999","29.11","1015.087","26.46","63.49","NAN","0.0"],
    [1564644,"2026-07-23 01:10:00","17354","0.302","89.5","1.143","24.72","1014.977","26.62","60.46","NAN","0.0"],
    [1564645,"2026-07-23 01:20:00","17355","0.278","173.9","0.784","197.7","1014.9580000000001","26.62","60.81","NAN","0.0"],
    [1564646,"2026-07-23 01:30:00","17356","0.457","190.2","1.045","175.2","1014.846","26.42","64.03","NAN","0.0"],
    [1564647,"2026-07-23 01:40:00","17357","0.452","187.0","0.882","179.6","1014.841","26.43","64.75","NAN","0.0"],
    [1564648,"2026-07-23 01:50:00","17358","0.812","203.2","1.764","207.5","1014.841","26.47","67.4","NAN","0.0"],
    [1564649,"2026-07-23 02:00:00","17359","0.506","225.2","1.307","216.3","1014.798","26.44","67.07","NAN","0.0"],
    [1564650,"2026-07-23 02:10:00","17360","0.57","194.5","1.405","215.1","1014.664","26.43","67.35","NAN","0.0"],
    [1564651,"2026-07-23 02:20:00","17361","0.654","199.1","1.3719999999999999","209.8","1014.6360000000001","26.34","68.42","NAN","0.0"],
    [1564652,"2026-07-23 02:30:00","17362","0.5760000000000001","186.1","1.013","158.2","1014.592","26.35","69.61","NAN","0.0"],
    [1564653,"2026-07-23 02:40:00","17363","0.218","217.5","0.98","257.6","1014.592","26.34","68.87","NAN","0.0"],
    [1564654,"2026-07-23 02:50:00","17364","0.175","227.1","0.915","281.1","1014.592","26.64","65.96","NAN","0.0"],
    [1564655,"2026-07-23 03:00:00","17365","0.282","231.6","1.013","246.5","1014.4939999999999","26.57","65.67","NAN","0.0"],
    [1564656,"2026-07-23 03:10:00","17366","0.418","196.0","0.98","199.6","1014.404","26.52","65.77","NAN","0.0"],
    [1564657,"2026-07-23 03:20:00","17367","0.099","192.2","0.523","183.5","1014.35","26.44","66.82","NAN","0.0"],
    [1564658,"2026-07-23 03:30:00","17368","0.39799999999999996","181.3","0.8490000000000001","162.8","1014.342","26.44","68.64","NAN","0.0"],
    [1564659,"2026-07-23 03:40:00","17369","0.555","172.2","0.9470000000000001","170.6","1014.225","26.32","68.91","NAN","0.0"],
    [1564660,"2026-07-23 03:50:00","17370","0.05","163.5","0.653","166.6","1014.24","26.22","67.84","NAN","0.0"],
    [1564661,"2026-07-23 04:00:00","17371","0.122","99.4","0.523","111.5","1014.125","26.09","65.89","NAN","0.0"],
    [1564662,"2026-07-23 04:10:00","17372","0.022000000000000002","133.0","0.359","137.7","1014.19","26.37","65.01","NAN","0.0"],
    [1564663,"2026-07-23 04:20:00","17373","0.59","32.2","1.764","38.47","1014.0980000000001","26.09","64.14","NAN","0.0"],
    [1564664,"2026-07-23 04:30:00","17374","0.573","22.0","1.2409999999999999","41.69","1014.091","25.98","60.28","NAN","0.0"],
    [1564665,"2026-07-23 04:40:00","17375","0.433","29.21","1.3719999999999999","24.8","1014.0930000000001","25.87","60.5","NAN","0.0"],
    [1564666,"2026-07-23 04:50:00","17376","0.552","357.2","1.209","24.73","1014.1560000000001","26.2","58.66","NAN","0.0"],
    [1564667,"2026-07-23 05:00:00","17377","0.6629999999999999","7.141","1.339","19.48","1014.265","26.28","58.2","NAN","0.0"],
    [1564668,"2026-07-23 05:10:00","17378","0.544","25.7","0.98","11.65","1014.28","26.22","58.35","NAN","0.0"],
    [1564669,"2026-07-23 05:20:00","17379","0.585","32.72","1.4369999999999998","30.93","1014.328","26.17","58.68","NAN","0.0"],
    [1564670,"2026-07-23 05:30:00","17380","0.792","26.91","1.699","34.58","1014.3","26.35","57.74","NAN","0.0"],
    [1564671,"2026-07-23 05:40:00","17381","0.965","28.45","1.699","46.29","1014.293","26.47","56.82","NAN","0.0"],
    [1564672,"2026-07-23 05:50:00","17382","1.028","13.63","2.254","27.13","1014.3430000000001","26.37","56.44","NAN","0.0"],
    [1564673,"2026-07-23 06:00:00","17383","0.6709999999999999","28.48","1.47","15.16","1014.3580000000001","26.68","55.42","NAN","0.0"],
    [1564674,"2026-07-23 06:10:00","17384","0.873","26.35","1.993","7.468","1014.415","26.72","54.06","NAN","0.0"],
    [1564675,"2026-07-23 06:20:00","17385","0.7559999999999999","15.49","1.601","354.3","1014.459","27.08","52.1","NAN","0.0"],
    [1564676,"2026-07-23 06:30:00","17386","0.743","24.83","1.699","356.0","1014.555","27.33","50.68","NAN","0.0"],
    [1564677,"2026-07-23 06:40:00","17387","0.539","31.16","1.47","63.21","1014.5039999999999","27.82","49.12","NAN","0.0"],
    [1564678,"2026-07-23 06:50:00","17388","0.815","65.95","1.7309999999999999","53.84","1014.5189999999999","28.08","47.69","NAN","0.0"],
    [1564679,"2026-07-23 07:00:00","17389","0.693","37.27","2.156","23.69","1014.5939999999999","28.18","46.13","NAN","0.0"],
    [1564680,"2026-07-23 07:10:00","17390","1.005","33.33","2.123","77.14","1014.69","28.42","43.91","NAN","0.0"],
    [1564681,"2026-07-23 07:20:00","17391","1.242","54.03","2.417","35.64","1014.742","28.55","43","NAN","0.0"],
    [1564682,"2026-07-23 07:30:00","17392","1.19","52.95","2.385","33.6","1014.779","29.02","41.07","NAN","0.0"],
    [1564683,"2026-07-23 07:40:00","17393","1.218","71.32","2.156","63.94","1014.813","29.19","41.26","NAN","0.0"],
    [1564684,"2026-07-23 07:50:00","17394","0.8370000000000001","65.67","1.895","64.1","1014.7919999999999","29.6","39.4","NAN","0.0"],
    [1564685,"2026-07-23 08:00:00","17395","1.778","96.2","2.7439999999999998","105.4","1014.775","29.41","40.54","NAN","0.0"],
    [1564686,"2026-07-23 08:10:00","17396","1.4980000000000002","107.8","2.842","110.8","1014.8489999999999","29.66","40.83","NAN","0.0"],
    [1564687,"2026-07-23 08:20:00","17397","2.116","118.8","3.103","103.1","1014.923","29.06","42.5","NAN","0.0"],
    [1564688,"2026-07-23 08:30:00","17398","2.234","115.3","3.201","111.1","1015.0139999999999","28.72","47.22","NAN","0.0"],
    [1564689,"2026-07-23 08:40:00","17399","1.875","111.0","2.875","110.7","1015.025","28.87","48.93","NAN","0.0"],
    [1564690,"2026-07-23 08:50:00","17400","1.975","103.7","3.299","95.9","1015.123","28.7","54.56","NAN","0.0"],
    [1564691,"2026-07-23 09:00:00","17401","2.2119999999999997","109.2","3.43","102.1","1015.1410000000001","28.47","57.3","NAN","0.0"],
    [1564692,"2026-07-23 09:10:00","17402","1.814","109.8","3.299","116.9","1015.158","28.7","57.48","NAN","0.0"],
    [1564693,"2026-07-23 09:20:00","17403","1.9269999999999998","108.3","2.8089999999999997","113.4","1015.206","28.73","59.15","NAN","0.0"],
    [1564694,"2026-07-23 09:30:00","17404","2.006","106.5","3.5610000000000004","116.8","1015.252","28.65","61.32","NAN","0.0"],
    [1564695,"2026-07-23 09:40:00","17405","2.051","102.0","3.332","93.1","1015.2589999999999","28.81","62.81","NAN","0.0"],
    [1564696,"2026-07-23 09:50:00","17406","2.191","113.5","3.659","118.5","1015.2689999999999","28.78","64.01","NAN","0.0"],
    [1564697,"2026-07-23 10:00:00","17407","2.208","108.6","4.279","103.3","1015.2819999999999","28.7","63.32","NAN","0.0"],
    [1564698,"2026-07-23 10:10:00","17408","2.4","107.5","4.083","100.5","1015.2760000000001","28.91","55","NAN","0.0"],
    [1564699,"2026-07-23 10:20:00","17409","2.165","106.8","4.4430000000000005","95.8","1015.2919999999999","29.18","52.63","NAN","0.0"],
    [1564700,"2026-07-23 10:30:00","17410","2.224","108.1","4.279","90.5","1015.29","29.04","50.57","NAN","0.0"],
    [1564701,"2026-07-23 10:40:00","17411","2.266","106.7","4.4430000000000005","111.7","1015.296","29.31","50.07","NAN","0.0"],
    [1564702,"2026-07-23 10:50:00","17412","2.388","126.0","4.051","145.8","1015.2869999999999","29.07","48.11","NAN","0.0"],
    [1564703,"2026-07-23 11:00:00","17413","2.505","114.1","4.279","116.6","1015.248","29.24","47.02","NAN","0.0"],
    [1564704,"2026-07-23 11:10:00","17414","2.79","125.9","4.704","119.5","1015.209","28.93","46.3","NAN","0.0"],
    [1564705,"2026-07-23 11:20:00","17415","2.696","124.3","4.965","109.3","1015.204","28.99","46.49","NAN","0.0"],
    [1564706,"2026-07-23 11:30:00","17416","2.8310000000000004","128.1","4.41","96.0","1015.1610000000001","29.13","47.03","NAN","0.0"],
    [1564707,"2026-07-23 11:40:00","17417","2.577","126.5","4.279","112.9","1015.1419999999999","28.84","46.59","NAN","0.0"],
    [1564708,"2026-07-23 11:50:00","17418","2.4130000000000003","126.1","4.181","98.1","1015.074","29","48.81","NAN","0.0"],
    [1564709,"2026-07-23 12:00:00","17419","2.279","126.9","4.018","108.0","1014.988","29.01","48.91","NAN","0.0"],
    [1564710,"2026-07-23 12:10:00","17420","2.383","112.3","4.247","118.7","1014.845","29.22","48.38","NAN","0.0"],
    [1564711,"2026-07-23 12:20:00","17421","2.57","122.1","4.083","113.9","1014.817","28.8","49.89","NAN","0.0"],
    [1564712,"2026-07-23 12:30:00","17422","2.239","101.1","4.051","110.6","1014.79","29.24","49.78","NAN","0.0"],
    [1564713,"2026-07-23 12:40:00","17423","2.522","117.4","4.41","86.2","1014.707","29.13","51.6","NAN","0.0"],
    [1564714,"2026-07-23 12:50:00","17424","2.31","109.2","4.345","118.4","1014.49","29.2","51.18","NAN","0.0"],
    [1564715,"2026-07-23 13:00:00","17425","2.489","116.7","4.247","109.9","1014.431","28.96","52.48","NAN","0.0"],
    [1564716,"2026-07-23 13:10:00","17426","2.168","119.4","4.312","143.7","1014.3710000000001","29.07","54.84","NAN","0.0"],
    [1564717,"2026-07-23 13:20:00","17427","2.392","107.3","4.1160000000000005","110.0","1014.33","29.04","55.13","NAN","0.0"],
    [1564718,"2026-07-23 13:30:00","17428","2.185","112.1","4.149","145.2","1014.279","29.04","55.91","NAN","0.0"],
    [1564719,"2026-07-23 13:40:00","17429","2.073","113.5","3.7889999999999997","110.3","1014.1160000000001","28.85","56.21","NAN","0.0"],
    [1564720,"2026-07-23 13:50:00","17430","2.3480000000000003","126.9","4.018","106.2","1014.072","28.78","57.22","NAN","0.0"],
    [1564721,"2026-07-23 14:00:00","17431","2.205","119.2","4.181","103.0","1014.018","28.51","58.51","NAN","0.0"],
    [1564722,"2026-07-23 14:10:00","17432","2.247","123.4","3.43","138.2","1013.841","28.59","58.28","NAN","0.0"],
    [1564723,"2026-07-23 14:20:00","17433","2.4330000000000003","122.9","4.149","139.0","1013.735","28.62","58.42","NAN","0.0"],
    [1564724,"2026-07-23 14:30:00","17434","2.094","120.1","4.377","114.1","1013.613","28.59","58.35","NAN","0.0"],
    [1564725,"2026-07-23 14:40:00","17435","1.735","121.9","2.875","122.7","1013.577","28.54","58.36","NAN","0.0"],
    [1564726,"2026-07-23 14:50:00","17436","1.9040000000000001","114.9","3.201","134.0","1013.3760000000001","28.67","58.76","NAN","0.0"],
    [1564727,"2026-07-23 15:00:00","17437","1.901","96.4","3.528","90.9","1013.327","28.8","58.62","NAN","0.0"],
    [1564728,"2026-07-23 15:10:00","17438","1.954","119.4","3.397","119.0","1013.263","28.69","59.39","NAN","0.0"],
    [1564729,"2026-07-23 15:20:00","17439","1.9880000000000002","113.3","3.397","101.1","1013.12","28.5","59.96","NAN","0.0"],
    [1564730,"2026-07-23 15:30:00","17440","1.995","101.9","3.528","71.31","1013.049","28.53","60.19","NAN","0.0"],
    [1564731,"2026-07-23 15:40:00","17441","1.85","113.3","4.083","121.1","1012.945","28.43","60.64","NAN","0.0"],
    [1564732,"2026-07-23 15:50:00","17442","2.057","110.7","3.5610000000000004","96.8","1012.828","28.34","61.51","NAN","0.0"],
    [1564733,"2026-07-23 16:00:00","17443","1.7380000000000002","123.1","3.528","101.2","1012.893","28.53","61.41","NAN","0.0"],
    [1564734,"2026-07-23 16:10:00","17444","1.8330000000000002","120.2","2.907","128.9","1012.829","28.11","62.85","NAN","0.0"],
    [1564735,"2026-07-23 16:20:00","17445","1.633","123.1","3.365","112.8","1012.828","28.18","63.49","NAN","0.0"],
    [1564736,"2026-07-23 16:30:00","17446","1.3090000000000002","129.0","3.103","132.4","1012.959","28.06","64.29","NAN","0.0"],
    [1564737,"2026-07-23 16:40:00","17447","1.913","100.1","3.6260000000000003","99.6","1013.079","28.04","64.77","NAN","0.0"],
    [1564738,"2026-07-23 16:50:00","17448","2.3040000000000003","108.6","4.345","95.3","1013.076","27.88","65.47","NAN","0.0"],
    [1564739,"2026-07-23 17:00:00","17449","2.0980000000000003","110.6","3.887","116.5","1013.084","27.8","66.33","NAN","0.0"],
    [1564740,"2026-07-23 17:10:00","17450","2.242","97.8","3.9530000000000003","70.76","1013.092","27.83","66.52","NAN","0.0"],
    [1564741,"2026-07-23 17:20:00","17451","1.795","98.9","3.92","100.0","1013.044","27.87","67.01","NAN","0.0"],
    [1564742,"2026-07-23 17:30:00","17452","1.619","103.2","2.907","116.0","1012.934","27.84","67.22","NAN","0.0"],
    [1564743,"2026-07-23 17:40:00","17453","1.999","78.41","3.397","69.86","1012.847","27.79","67.48","NAN","0.0"],
    [1564744,"2026-07-23 17:50:00","17454","1.8869999999999998","90.8","3.593","101.5","1012.855","27.63","68.11","NAN","0.0"],
    [1564745,"2026-07-23 18:00:00","17455","1.996","82.2","3.7239999999999998","76.02","1012.8430000000001","27.57","67.77","NAN","0.0"],
    [1564746,"2026-07-23 18:10:00","17456","1.406","109.0","2.842","82.4","1012.77","27.49","66.6","NAN","0.0"],
    [1564747,"2026-07-23 18:20:00","17457","0.866","148.6","1.47","184.1","1012.721","27.55","67.36","NAN","0.0"],
    [1564748,"2026-07-23 18:30:00","17458","0.61","171.5","1.209","154.0","1012.758","27.62","67.46","NAN","0.0"],
    [1564749,"2026-07-23 18:40:00","17459","0.7509999999999999","116.4","1.339","112.9","1012.7819999999999","27.6","67.22","NAN","0.0"],
    [1564750,"2026-07-23 18:50:00","17460","0.7659999999999999","128.2","1.4369999999999998","115.8","1012.81","27.59","67.83","NAN","0.0"],
    [1564751,"2026-07-23 19:00:00","17461","1.067","132.6","1.633","146.6","1012.7869999999999","27.4","68.72","NAN","0.0"],
    [1564752,"2026-07-23 19:10:00","17462","1.097","130.3","1.568","122.7","1012.81","27.29","69.25","NAN","0.0"],
    [1564753,"2026-07-23 19:20:00","17463","0.9","135.7","1.7309999999999999","143.8","1012.78","27.26","69.45","NAN","0.0"],
    [1564754,"2026-07-23 19:30:00","17464","0.612","148.4","1.111","151.9","1012.85","27.26","69.41","NAN","0.0"],
    [1564755,"2026-07-23 19:40:00","17465","0.835","109.0","1.9269999999999998","112.0","1013.0419999999999","27.36","69.36","NAN","0.0"],
    [1564756,"2026-07-23 19:50:00","17466","0.9279999999999999","83.4","2.0580000000000003","80.4","1013.179","27.35","69.34","NAN","0.0"],
    [1564757,"2026-07-23 20:00:00","17467","0.65","106.1","1.601","109.9","1013.334","27.27","68.92","NAN","0.0"],
    [1564758,"2026-07-23 20:10:00","17468","0.619","152.4","1.045","149.3","1013.513","27.45","68.28","NAN","0.0"],
    [1564759,"2026-07-23 20:20:00","17469","0.569","190.4","1.405","168.5","1013.625","27.34","69.01","NAN","0.0"],
    [1564760,"2026-07-23 20:30:00","17470","0.7879999999999999","141.6","1.339","154.6","1013.887","27.44","68.85","NAN","0.0"],
    [1564761,"2026-07-23 20:40:00","17471","0.9079999999999999","172.7","1.764","137.4","1014.153","27.38","69.99","NAN","0.0"],
    [1564762,"2026-07-23 20:50:00","17472","1.1159999999999999","167.6","2.287","177.4","1014.33","27.3","71.71","NAN","0.0"],
    [1564763,"2026-07-23 21:00:00","17473","0.919","163.9","1.633","135.6","1014.3430000000001","27.29","72.66","NAN","0.0"],
    [1564764,"2026-07-23 21:10:00","17474","1.139","183.2","2.287","172.6","1014.3430000000001","27.23","74.64","NAN","0.0"],
    [1564765,"2026-07-23 21:20:00","17475","0.9420000000000001","215.8","2.156","201.7","1014.295","27.2","75.2","NAN","0.0"],
    [1564766,"2026-07-23 21:30:00","17476","0.742","220.9","2.156","237.4","1014.3330000000001","27.43","73.58","NAN","0.0"],
    [1564767,"2026-07-23 21:40:00","17477","0.88","222.3","2.287","232.0","1014.335","27.55","73.08","NAN","0.0"],
    [1564768,"2026-07-23 21:50:00","17478","0.9640000000000001","212.5","2.025","217.1","1014.3430000000001","27.62","73.29","NAN","0.0"],
    [1564769,"2026-07-23 22:00:00","17479","1.056","208.3","2.189","213.4","1014.34","27.42","74.99","NAN","0.0"],
    [1564770,"2026-07-23 22:10:00","17480","0.6759999999999999","206.9","1.8619999999999999","219.1","1014.317","27.4","76.44","NAN","0.0"],
    [1564771,"2026-07-23 22:20:00","17481","0.47700000000000004","209.1","1.895","244.5","1014.258","27.48","76.31","NAN","0.0"],
    [1564772,"2026-07-23 22:30:00","17482","0.705","207.5","2.352","210.7","1014.265","27.61","75.83","NAN","0.0"],
    [1564773,"2026-07-23 22:40:00","17483","1.018","236.1","2.613","220.4","1014.193","27.72","77.27","NAN","0.0"],
    [1564774,"2026-07-23 22:50:00","17484","0.96","215.8","2.287","222.4","1014.1610000000001","27.69","77.5","NAN","0.0"],
    [1564775,"2026-07-23 23:00:00","17485","0.34600000000000003","195.0","1.666","198.6","1014.0930000000001","27.72","78.46","NAN","0.0"],
    [1564776,"2026-07-23 23:10:00","17486","0.524","187.4","1.111","195.3","1014.0210000000001","27.57","83.3","NAN","0.0"],
    [1564777,"2026-07-23 23:20:00","17487","0.23","163.2","0.588","133.4","1013.8439999999999","27.57","84.9","NAN","0.0"],
    [1564778,"2026-07-23 23:30:00","17488","0.247","108.9","0.588","154.1","1013.842","27.34","84.9","NAN","0.0"],
    [1564779,"2026-07-23 23:40:00","17489","0.593","55.02","1.7309999999999999","71.47","1013.814","27.19","78.21","NAN","0.0"],
    [1564780,"2026-07-23 23:50:00","17490","0.831","31.01","1.7309999999999999","30.73","1013.7189999999999","27.4","63.67","NAN","0.0"],
    [1564781,"2026-07-24 00:00:00","17491","0.306","51.09","1.111","68.89","1013.615","27.66","57.27","NAN","0.0"],
    [1564782,"2026-07-24 00:10:00","17492","0.43","7.949","1.274","35.96","1013.45","27.87","53.07","NAN","0.0"],
    [1564783,"2026-07-24 00:20:00","17493","0.56","15.13","1.3719999999999999","17.27","1013.321","28.06","52.07","NAN","0.0"],
    [1564784,"2026-07-24 00:30:00","17494","0.626","8.47","1.47","6.571000000000001","1013.2460000000001","28.23","50.78","NAN","0.0"],
    [1564785,"2026-07-24 00:40:00","17495","0.8340000000000001","27.56","2.319","9.25","1013.1260000000001","28.28","48.62","NAN","0.0"],
    [1564786,"2026-07-24 00:50:00","17496","1.151","11.76","2.6460000000000004","6.263","1012.977","28.22","45.68","NAN","0.0"],
    [1564787,"2026-07-24 01:00:00","17497","1.251","13.59","2.875","9.75","1012.847","28.35","43.37","NAN","0.0"],
    [1564788,"2026-07-24 01:10:00","17498","0.986","16.98","2.842","14.07","1012.815","28.4","41.72","NAN","0.0"],
    [1564789,"2026-07-24 01:20:00","17499","1.198","8.37","3.201","355.4","1012.6410000000001","28.3","40.66","NAN","0.0"],
    [1564790,"2026-07-24 01:30:00","17500","1.03","6.647","2.417","28.43","1012.6510000000001","28.38","39.33","NAN","0.0"],
    [1564791,"2026-07-24 01:40:00","17501","0.975","4.062","1.96","17.2","1012.5210000000001","28.45","38.38","NAN","0.0"],
    [1564792,"2026-07-24 01:50:00","17502","0.8809999999999999","358.8","2.0580000000000003","10.81","1012.4860000000001","28.55","37.41","NAN","0.0"],
    [1564793,"2026-07-24 02:00:00","17503","0.6940000000000001","359.1","1.829","3.9139999999999997","1012.4739999999999","28.66","35.86","NAN","0.0"],
    [1564794,"2026-07-24 02:10:00","17504","0.192","9.41","0.915","10.4","1012.4789999999999","28.65","35.3","NAN","0.0"],
    [1564795,"2026-07-24 02:20:00","17505","0.215","359.2","1.045","18.29","1012.409","28.5","35.24","NAN","0.0"],
    [1564796,"2026-07-24 02:30:00","17506","0.752","25.1","1.8619999999999999","1.656","1012.3489999999999","28.43","34.24","NAN","0.0"],
    [1564797,"2026-07-24 02:40:00","17507","0.873","7.484","1.797","16.67","1012.3489999999999","28.58","33.01","NAN","0.0"],
    [1564798,"2026-07-24 02:50:00","17508","0.887","19.69","1.96","1.376","1012.3489999999999","28.7","32.14","NAN","0.0"],
    [1564799,"2026-07-24 03:00:00","17509","1.244","7.171","2.287","20.78","1012.3489999999999","28.69","31.69","NAN","0.0"],
    [1564800,"2026-07-24 03:10:00","17510","0.9390000000000001","1.97","1.829","358.4","1012.442","28.77","31.35","NAN","0.0"],
    [1564801,"2026-07-24 03:20:00","17511","0.924","3.875","1.633","0.785","1012.564","28.83","31.16","NAN","0.0"],
    [1564802,"2026-07-24 03:30:00","17512","0.6809999999999999","35.19","1.3719999999999999","13.41","1012.825","28.61","31.76","NAN","0.0"],
    [1564803,"2026-07-24 03:40:00","17513","1.093","51.62","1.8619999999999999","64.89","1012.847","28.03","33.58","NAN","0.0"],
    [1564804,"2026-07-24 03:50:00","17514","1.064","48.7","2.189","63.48","1012.875","27.52","35.64","NAN","0.0"],
    [1564805,"2026-07-24 04:00:00","17515","1.102","14.11","2.221","34.67","1012.96","27.23","37.49","NAN","0.0"],
    [1564806,"2026-07-24 04:10:00","17516","1.66","2.141","2.7769999999999997","30.81","1012.887","27.35","38.47","NAN","0.0"],
    [1564807,"2026-07-24 04:20:00","17517","0.852","18.99","2.319","20.77","1012.93","27.25","39.97","NAN","0.0"],
    [1564808,"2026-07-24 04:30:00","17518","0.605","51.17","1.209","55.28","1013.0319999999999","26.83","41.49","NAN","0.0"],
    [1564809,"2026-07-24 04:40:00","17519","0.495","45.66","1.078","51.11","1013.209","26.72","42.18","NAN","0.0"],
    [1564810,"2026-07-24 04:50:00","17520","0.48","47.07","1.111","54.91","1013.368","26.57","43.16","NAN","0.0"],
    [1564811,"2026-07-24 05:00:00","17521","0.209","37.26","0.7509999999999999","23.3","1013.52","26.73","43.41","NAN","0.0"],
    [1564812,"2026-07-24 05:10:00","17522","0.519","10.07","1.143","351.8","1013.59","26.94","42.81","NAN","0.0"],
    [1564813,"2026-07-24 05:20:00","17523","0.759","359.6","1.4369999999999998","4.629","1013.648","27.3","41.54","NAN","0.0"],
    [1564814,"2026-07-24 05:30:00","17524","0.8059999999999999","7.846","1.764","4.789","1013.832","27.33","42.45","NAN","0.0"],
    [1564815,"2026-07-24 05:40:00","17525","0.551","13.33","1.339","5.527","1013.971","27.23","42.46","NAN","0.0"],
    [1564816,"2026-07-24 05:50:00","17526","0.449","21.65","1.176","12.15","1013.9760000000001","27.2","42.34","NAN","0.0"],
    [1564817,"2026-07-24 06:00:00","17527","0.618","15.84","1.2409999999999999","58.73","1013.857","27.32","41.39","NAN","0.0"],
    [1564818,"2026-07-24 06:10:00","17528","0.7559999999999999","2.5380000000000003","1.47","11.96","1014.034","27.71","40.23","NAN","0.0"],
    [1564819,"2026-07-24 06:20:00","17529","0.387","6.4639999999999995","1.633","5.672000000000001","1014.1310000000001","28.06","40.13","NAN","0.0"],
    [1564820,"2026-07-24 06:30:00","17530","0.382","39.33","1.045","65.31","1014.243","28.38","39.74","NAN","0.0"],
    [1564821,"2026-07-24 06:40:00","17531","0.6409999999999999","28.52","1.405","36.42","1014.328","28.37","40.31","NAN","0.0"],
    [1564822,"2026-07-24 06:50:00","17532","0.61","27.96","1.535","63.1","1014.37","28.52","40.42","NAN","0.0"],
    [1564823,"2026-07-24 07:00:00","17533","1.214","65.5","2.679","58.06","1014.138","28.56","41.3","NAN","0.0"],
    [1564824,"2026-07-24 07:10:00","17534","1.8430000000000002","74.31","4.051","60.86","1014.279","28.39","42.96","NAN","0.0"],
    [1564825,"2026-07-24 07:20:00","17535","1.131","75.96","3.071","94.8","1014.472","28.85","42.52","NAN","0.0"],
    [1564826,"2026-07-24 07:30:00","17536","1.817","79.03","5.684","120.2","1014.62","28.98","42.3","NAN","0.0"],
    [1564827,"2026-07-24 07:40:00","17537","2.3080000000000003","88.5","4.312","108.4","1014.5310000000001","28.98","43.25","NAN","0.0"],
    [1564828,"2026-07-24 07:50:00","17538","2.532","87.1","4.638999999999999","92.2","1014.418","28.98","45.11","NAN","0.0"],
    [1564829,"2026-07-24 08:00:00","17539","2.155","84.0","4.1160000000000005","104.2","1014.432","29.12","43.12","NAN","0.0"],
    [1564830,"2026-07-24 08:10:00","17540","2.755","89.2","5.553","91.3","1014.457","29.34","39.25","NAN","0.0"],
    [1564831,"2026-07-24 08:20:00","17541","2.261","88.9","4.541","97.6","1014.525","29.35","37.33","NAN","0.0"],
    [1564832,"2026-07-24 08:30:00","17542","1.899","77.28","4.377","70.42","1014.47","29.62","37.16","NAN","0.0"],
    [1564833,"2026-07-24 08:40:00","17543","2.242","91.0","4.4430000000000005","75.41","1014.33","29.47","38.7","NAN","0.0"],
    [1564834,"2026-07-24 08:50:00","17544","2.283","96.1","4.247","98.2","1014.192","29.17","40.74","NAN","0.0"],
    [1564835,"2026-07-24 09:00:00","17545","2.386","98.5","4.279","97.6","1014.173","29.1","42.02","NAN","0.0"],
    [1564836,"2026-07-24 09:10:00","17546","2.524","97.5","4.737","79.4","1014.057","28.86","41.38","NAN","0.0"],
    [1564837,"2026-07-24 09:20:00","17547","2.119","86.6","4.2139999999999995","51.21","1014.082","29.39","40.21","NAN","0.0"],
    [1564838,"2026-07-24 09:30:00","17548","2.347","66.53","4.41","62.01","1014.1389999999999","29.75","38.67","NAN","0.0"],
    [1564839,"2026-07-24 09:40:00","17549","2.763","91.2","5.227","96.7","1014.1519999999999","29.73","38.39","NAN","0.0"],
    [1564840,"2026-07-24 09:50:00","17550","3.148","93.6","5.619","113.1","1014.057","29.71","37.44","NAN","0.0"],
    [1564841,"2026-07-24 10:00:00","17551","2.895","89.5","5.521","108.9","1013.9169999999999","29.7","38.36","NAN","0.0"],
    [1564842,"2026-07-24 10:10:00","17552","2.825","90.1","5.227","114.1","1014.0219999999999","29.8","39.65","NAN","0.0"],
    [1564843,"2026-07-24 10:20:00","17553","3.0189999999999997","92.2","5.521","91.6","1014.0169999999999","29.71","39.32","NAN","0.0"],
    [1564844,"2026-07-24 10:30:00","17554","2.6839999999999997","91.2","5.129","78.69","1013.923","29.74","40.22","NAN","0.0"],
    [1564845,"2026-07-24 10:40:00","17555","3.065","94.3","5.651","106.2","1013.779","29.53","41.31","NAN","0.0"],
    [1564846,"2026-07-24 10:50:00","17556","2.82","99.8","5.227","107.7","1013.68","29.39","43.04","NAN","0.0"],
    [1564847,"2026-07-24 11:00:00","17557","2.719","92.4","5.292000000000001","94.2","1013.671","29.59","43.17","NAN","0.0"],
    [1564848,"2026-07-24 11:10:00","17558","2.3680000000000003","95.2","4.475","60.09","1013.698","29.91","42.52","NAN","0.0"],
    [1564849,"2026-07-24 11:20:00","17559","2.255","102.9","4.671","104.7","1013.757","29.51","44.52","NAN","0.0"],
    [1564850,"2026-07-24 11:30:00","17560","2.923","110.9","5.4879999999999995","105.0","1013.735","29.05","46.09","NAN","0.0"],
    [1564851,"2026-07-24 11:40:00","17561","2.947","104.8","4.933","73.19","1013.686","28.76","49.64","NAN","0.0"],
    [1564852,"2026-07-24 11:50:00","17562","2.291","103.3","3.7239999999999998","102.4","1013.6669999999999","29.18","50.06","NAN","0.0"],
    [1564853,"2026-07-24 12:00:00","17563","2.6710000000000003","111.7","4.475","92.8","1013.605","29.1","50.4","NAN","0.0"],
    [1564854,"2026-07-24 12:10:00","17564","2.369","111.5","4.2139999999999995","98.8","1013.64","28.87","52.78","NAN","0.0"],
    [1564855,"2026-07-24 12:20:00","17565","2.474","106.8","4.345","92.8","1013.5089999999999","28.8","54.2","NAN","0.0"],
    [1564856,"2026-07-24 12:30:00","17566","2.609","101.7","5.031000000000001","103.7","1013.3539999999999","28.8","53.83","NAN","0.0"],
    [1564857,"2026-07-24 12:40:00","17567","2.491","105.2","4.181","110.1","1013.2669999999999","28.55","54.27","NAN","0.0"],
    [1564858,"2026-07-24 12:50:00","17568","2.491","111.5","4.704","110.2","1013.199","28.66","54.93","NAN","0.0"],
    [1564859,"2026-07-24 13:00:00","17569","2.705","110.4","5.194","114.1","1013.076","28.39","56.13","NAN","0.0"],
    [1564860,"2026-07-24 13:10:00","17570","2.611","117.9","4.769","115.0","1012.946","28.63","55.69","NAN","0.0"],
    [1564861,"2026-07-24 13:20:00","17571","2.668","111.2","5.031000000000001","118.1","1012.827","28.26","57.78","NAN","0.0"],
    [1564862,"2026-07-24 13:30:00","17572","2.801","115.5","4.802","111.3","1012.695","28.19","59.1","NAN","0.0"],
    [1564863,"2026-07-24 13:40:00","17573","2.582","116.6","4.051","115.8","1012.5889999999999","28.29","59.62","NAN","0.0"],
    [1564864,"2026-07-24 13:50:00","17574","2.4530000000000003","116.2","4.312","116.5","1012.5010000000001","28.35","60.36","NAN","0.0"],
    [1564865,"2026-07-24 14:00:00","17575","2.678","106.2","4.671","107.9","1012.38","28.21","61.61","NAN","0.0"],
    [1564866,"2026-07-24 14:10:00","17576","2.283","106.5","4.704","117.8","1012.2860000000001","28.45","60.97","NAN","0.0"],
    [1564867,"2026-07-24 14:20:00","17577","2.113","104.8","3.7889999999999997","117.7","1012.1310000000001","28.32","61.13","NAN","0.0"],
    [1564868,"2026-07-24 14:30:00","17578","2.4419999999999997","110.6","4.279","119.9","1011.9780000000001","28.46","60.89","NAN","0.0"],
    [1564869,"2026-07-24 14:40:00","17579","2.867","109.4","4.508","112.3","1011.799","28.06","61.64","NAN","0.0"],
    [1564870,"2026-07-24 14:50:00","17580","2.693","106.4","4.508","112.2","1011.7260000000001","27.97","62.58","NAN","0.0"],
    [1564871,"2026-07-24 15:00:00","17581","2.4330000000000003","103.8","4.508","106.3","1011.823","27.98","63.2","NAN","0.0"],
    [1564872,"2026-07-24 15:10:00","17582","2.096","111.3","3.528","120.2","1011.752","28.36","62.38","NAN","0.0"],
    [1564873,"2026-07-24 15:20:00","17583","2.119","91.3","4.018","109.3","1011.664","28.26","63.25","NAN","0.0"],
    [1564874,"2026-07-24 15:30:00","17584","2.134","102.5","3.7239999999999998","101.5","1011.592","28.14","63.87","NAN","0.0"],
    [1564875,"2026-07-24 15:40:00","17585","2.25","111.6","3.855","91.8","1011.5830000000001","27.98","64.75","NAN","0.0"],
    [1564876,"2026-07-24 15:50:00","17586","2.145","109.6","3.659","108.4","1011.6610000000001","27.93","65.07","NAN","0.0"],
    [1564877,"2026-07-24 16:00:00","17587","2.07","105.8","3.659","145.7","1011.404","27.66","66.55","NAN","0.0"],
    [1564878,"2026-07-24 16:10:00","17588","2.1430000000000002","108.8","3.659","101.5","1011.3580000000001","27.67","66.71","NAN","0.0"],
    [1564879,"2026-07-24 16:20:00","17589","2.089","113.9","4.149","100.8","1011.2589999999999","27.74","66.78","NAN","0.0"],
    [1564880,"2026-07-24 16:30:00","17590","2.181","103.6","3.528","118.1","1011.273","27.6","68.07","NAN","0.0"],
    [1564881,"2026-07-24 16:40:00","17591","1.964","88.8","3.593","102.0","1011.1610000000001","27.51","69.06","NAN","0.0"],
    [1564882,"2026-07-24 16:50:00","17592","1.334","106.5","3.136","95.2","1011.3430000000001","27.69","68.6","NAN","0.0"],
    [1564883,"2026-07-24 17:00:00","17593","1.574","97.5","2.94","93.8","1011.263","27.69","68.54","NAN","0.0"],
    [1564884,"2026-07-24 17:10:00","17594","2.0469999999999997","92.8","3.234","89.7","1010.9060000000001","27.79","68.38","NAN","0.0"],
    [1564885,"2026-07-24 17:20:00","17595","1.919","89.9","3.136","83.9","1010.697","27.66","69.12","NAN","0.0"],
    [1564886,"2026-07-24 17:30:00","17596","2.1430000000000002","105.8","3.267","105.2","1010.431","27.65","69.8","NAN","0.0"],
    [1564887,"2026-07-24 17:40:00","17597","2.355","112.7","4.4430000000000005","112.3","1010.3480000000001","27.39","71.31","NAN","0.0"],
    [1564888,"2026-07-24 17:50:00","17598","2.38","94.9","4.181","102.8","1010.216","27.32","72.31","NAN","0.0"],
    [1564889,"2026-07-24 18:00:00","17599","1.605","123.8","3.299","98.9","1010.319","27.33","73.14","NAN","0.0"],
    [1564890,"2026-07-24 18:10:00","17600","1.5530000000000002","116.6","3.0380000000000003","116.6","1010.3580000000001","27.41","73.2","NAN","0.0"],
    [1564891,"2026-07-24 18:20:00","17601","1.567","125.2","2.842","120.0","1010.3660000000001","27.32","73.21","NAN","0.0"],
    [1564892,"2026-07-24 18:30:00","17602","1.495","106.6","2.5810000000000004","108.2","1010.3580000000001","27.45","72.25","NAN","0.0"],
    [1564893,"2026-07-24 18:40:00","17603","1.58","110.9","2.8089999999999997","95.3","1010.293","27.48","72.93","NAN","0.0"],
    [1564894,"2026-07-24 18:50:00","17604","1.2890000000000001","116.1","2.7439999999999998","112.4","1010.3389999999999","27.38","73.64","NAN","0.0"],
    [1564895,"2026-07-24 19:00:00","17605","1.368","92.8","2.287","70.41","1010.3510000000001","27.52","73.24","NAN","0.0"],
    [1564896,"2026-07-24 19:10:00","17606","1.521","75.62","2.875","50.07","1010.3389999999999","27.5","73.32","NAN","0.0"],
    [1564897,"2026-07-24 19:20:00","17607","1.402","85.2","2.5810000000000004","86.3","1010.3439999999999","27.51","73.79","NAN","0.0"],
    [1564898,"2026-07-24 19:30:00","17608","1.355","74.8","2.483","69.56","1010.331","27.36","75.1","NAN","0.0"],
    [1564899,"2026-07-24 19:40:00","17609","1.175","92.6","2.156","95.2","1010.314","27.27","75.86","NAN","0.0"],
    [1564900,"2026-07-24 19:50:00","17610","1.311","96.2","2.221","106.5","1010.3530000000001","27.29","75.98","NAN","0.0"],
    [1564901,"2026-07-24 20:00:00","17611","1.063","73.38","1.993","58.61","1010.346","27.4","75.25","NAN","0.0"],
    [1564902,"2026-07-24 20:10:00","17612","1.331","56.75","2.907","42.68","1010.2360000000001","27.31","75.14","NAN","0.0"],
    [1564903,"2026-07-24 20:20:00","17613","1.357","57.39","2.385","69.42","1010.2510000000001","27.22","75.49","NAN","0.0"],
    [1564904,"2026-07-24 20:30:00","17614","1.189","46.08","2.875","24.24","1010.301","27.31","74.99","NAN","0.0"],
    [1564905,"2026-07-24 20:40:00","17615","1.1320000000000001","52.12","2.221","31.73","1010.3560000000001","27.49","74.06","NAN","0.0"],
    [1564906,"2026-07-24 20:50:00","17616","0.562","81.4","1.7309999999999999","111.3","1010.3910000000001","27.51","74.17","NAN","0.0"],
    [1564907,"2026-07-24 21:00:00","17617","1.005","105.2","2.156","83.5","1010.3510000000001","27.57","74.15","NAN","0.0"],
    [1564908,"2026-07-24 21:10:00","17618","1.276","93.2","2.189","103.3","1010.3510000000001","27.47","74.85","NAN","0.0"],
    [1564909,"2026-07-24 21:20:00","17619","1.1059999999999999","55.12","2.0909999999999997","31.49","1010.2860000000001","27.47","74.62","NAN","0.0"],
    [1564910,"2026-07-24 21:30:00","17620","0.888","52.88","1.829","22.59","1010.2689999999999","27.61","73.82","NAN","0.0"],
    [1564911,"2026-07-24 21:40:00","17621","0.8340000000000001","75.29","1.993","110.1","1010.318","27.61","73.93","NAN","0.0"],
    [1564912,"2026-07-24 21:50:00","17622","1.175","85.2","2.254","79.94","1010.117","27.6","74.54","NAN","0.0"],
    [1564913,"2026-07-24 22:00:00","17623","0.843","74.52","1.9269999999999998","82.6","1010.072","27.59","74.4","NAN","0.0"],
    [1564914,"2026-07-24 22:10:00","17624","1.102","85.1","1.993","89.4","1010.067","27.54","74.22","NAN","0.0"],
    [1564915,"2026-07-24 22:20:00","17625","1.415","95.4","2.156","89.1","1010.084","27.35","75.08","NAN","0.0"],
    [1564916,"2026-07-24 22:30:00","17626","0.847","78.91","1.829","93.6","1010.0219999999999","27.46","74.87","NAN","0.0"],
    [1564917,"2026-07-24 22:40:00","17627","0.851","73.62","1.7309999999999999","79.52","1009.905","27.68","73.49","NAN","0.0"],
    [1564918,"2026-07-24 22:50:00","17628","0.706","56.71","1.5030000000000001","99.0","1009.8","27.75","73.06","NAN","0.0"],
    [1564919,"2026-07-24 23:00:00","17629","0.853","46.86","1.829","37.44","1009.7180000000001","27.79","72.19","NAN","0.0"],
    [1564920,"2026-07-24 23:10:00","17630","1.261","43.2","2.189","31.97","1009.673","27.9","69.96","NAN","0.0"],
    [1564921,"2026-07-24 23:20:00","17631","0.855","39.83","1.666","352.7","1009.5939999999999","27.95","69.47","NAN","0.0"],
    [1564922,"2026-07-24 23:30:00","17632","0.491","60.19","1.535","74.32","1009.561","28.11","68.7","NAN","0.0"],
    [1564923,"2026-07-24 23:40:00","17633","0.907","68.37","1.601","70.32","1009.4760000000001","28.01","69.07","NAN","0.0"],
    [1564924,"2026-07-24 23:50:00","17634","1.045","94.7","1.8619999999999999","93.3","1009.382","27.93","70.23","NAN","0.0"],
    [1564925,"2026-07-25 00:00:00","17635","0.687","94.2","1.8619999999999999","97.3","1009.3539999999999","27.71","72.55","NAN","0.0"],
    [1564926,"2026-07-25 00:10:00","17636","0.804","93.7","1.47","96.6","1009.324","27.79","72.29","NAN","0.0"],
    [1564927,"2026-07-25 00:20:00","17637","1.056","115.1","1.829","105.0","1009.252","27.74","72.83","NAN","0.0"],
    [1564928,"2026-07-25 00:30:00","17638","0.884","90.2","1.568","110.5","1009.11","27.74","72.71","NAN","0.0"],
    [1564929,"2026-07-25 00:40:00","17639","0.7879999999999999","92.5","1.274","73.95","1009.105","27.78","72.36","NAN","0.0"],
    [1564930,"2026-07-25 00:50:00","17640","0.5379999999999999","86.5","1.209","105.3","1009.018","27.84","71.8","NAN","0.0"],
    [1564931,"2026-07-25 01:00:00","17641","0.667","108.6","1.143","93.3","1008.903","27.96","71.18","NAN","0.0"],
    [1564932,"2026-07-25 01:10:00","17642","0.841","121.0","1.47","143.0","1008.8689999999999","27.94","72.22","NAN","0.0"],
    [1564933,"2026-07-25 01:20:00","17643","0.905","132.2","1.535","137.8","1008.846","27.77","73.27","NAN","0.0"],
    [1564934,"2026-07-25 01:30:00","17644","1.013","137.9","1.7309999999999999","141.8","1008.654","27.65","73.95","NAN","0.0"],
    [1564935,"2026-07-25 01:40:00","17645","0.971","137.3","1.993","149.4","1008.5939999999999","27.64","74.17","NAN","0.0"],
    [1564936,"2026-07-25 01:50:00","17646","0.7440000000000001","138.4","1.666","153.5","1008.547","27.58","74.64","NAN","0.0"],
    [1564937,"2026-07-25 02:00:00","17647","0.9520000000000001","129.4","1.4369999999999998","137.9","1008.485","27.58","74.81","NAN","0.0"],
    [1564938,"2026-07-25 02:10:00","17648","0.606","137.5","1.405","142.9","1008.475","27.58","74.2","NAN","0.0"],
    [1564939,"2026-07-25 02:20:00","17649","0.506","120.6","1.274","105.0","1008.39","27.58","73.91","NAN","0.0"],
    [1564940,"2026-07-25 02:30:00","17650","0.6809999999999999","115.1","1.2409999999999999","95.3","1008.363","27.6","73.57","NAN","0.0"],
    [1564941,"2026-07-25 02:40:00","17651","0.7120000000000001","125.1","1.3719999999999999","124.0","1008.363","27.6","73.58","NAN","0.0"],
    [1564942,"2026-07-25 02:50:00","17652","0.622","111.0","1.47","118.9","1008.31","27.61","74.05","NAN","0.0"],
    [1564943,"2026-07-25 03:00:00","17653","0.5329999999999999","108.9","1.5030000000000001","112.1","1008.2280000000001","27.59","74.1","NAN","0.0"],
    [1564944,"2026-07-25 03:10:00","17654","0.377","94.3","1.013","112.3","1008.2230000000001","27.61","74.53","NAN","0.0"],
    [1564945,"2026-07-25 03:20:00","17655","0.9520000000000001","103.8","1.405","109.0","1008.301","27.64","74.83","NAN","0.0"],
    [1564946,"2026-07-25 03:30:00","17656","0.754","89.4","1.209","111.2","1008.363","27.6","75.12","NAN","0.0"],
    [1564947,"2026-07-25 03:40:00","17657","0.57","81.4","1.274","64.09","1008.363","27.71","74.98","NAN","0.0"],
    [1564948,"2026-07-25 03:50:00","17658","0.833","58.92","1.96","56.64","1008.363","27.73","74.48","NAN","0.0"],
    [1564949,"2026-07-25 04:00:00","17659","0.682","64.5","1.3719999999999999","39.77","1008.363","27.7","74.43","NAN","0.0"],
    [1564950,"2026-07-25 04:10:00","17660","0.941","81.0","1.633","98.3","1008.368","27.66","74.46","NAN","0.0"],
    [1564951,"2026-07-25 04:20:00","17661","0.8809999999999999","87.2","1.666","113.0","1008.367","27.62","75.18","NAN","0.0"],
    [1564952,"2026-07-25 04:30:00","17662","0.8","73.63","1.535","76.8","1008.4169999999999","27.71","74.47","NAN","0.0"],
    [1564953,"2026-07-25 04:40:00","17663","0.8690000000000001","58.86","1.7309999999999999","35.38","1008.487","27.74","73.5","NAN","0.0"],
    [1564954,"2026-07-25 04:50:00","17664","0.753","72.23","1.699","74.24","1008.545","27.79","73.07","NAN","0.0"],
    [1564955,"2026-07-25 05:00:00","17665","0.877","62.99","1.9269999999999998","58.78","1008.709","27.83","71.98","NAN","0.0"],
    [1564956,"2026-07-25 05:10:00","17666","1.131","48.15","2.221","27.74","1008.6569999999999","27.88","69.81","NAN","0.0"],
    [1564957,"2026-07-25 05:20:00","17667","1.04","49.1","2.352","19.88","1008.7389999999999","27.95","68.01","NAN","0.0"],
    [1564958,"2026-07-25 05:30:00","17668","0.88","54.85","2.0909999999999997","69.79","1008.732","28.08","66.55","NAN","0.0"],
    [1564959,"2026-07-25 05:40:00","17669","1.324","44.1","2.548","36.15","1008.6669999999999","28.07","65.41","NAN","0.0"],
    [1564960,"2026-07-25 05:50:00","17670","1.1909999999999998","47.4","2.221","58.07","1008.6669999999999","28.1","63.38","NAN","0.0"],
    [1564961,"2026-07-25 06:00:00","17671","0.802","34.72","1.829","30.97","1008.693","28.34","62.81","NAN","0.0"],
    [1564962,"2026-07-25 06:10:00","17672","1.0859999999999999","88.0","2.156","93.0","1008.7539999999999","28.45","69.48","NAN","0.0"],
    [1564963,"2026-07-25 06:20:00","17673","1.16","87.2","2.0580000000000003","94.9","1008.6469999999999","27.85","75.93","NAN","0.0"],
    [1564964,"2026-07-25 06:30:00","17674","1.482","93.6","2.8089999999999997","77.02","1008.677","27.8","76.82","NAN","0.0"],
    [1564965,"2026-07-25 06:40:00","17675","1.4980000000000002","93.6","2.679","89.2","1008.691","27.88","75.67","NAN","0.0"],
    [1564966,"2026-07-25 06:50:00","17676","0.885","95.9","2.123","115.5","1008.7719999999999","27.94","75.24","NAN","0.0"],
    [1564967,"2026-07-25 07:00:00","17677","1.4909999999999999","94.8","3.071","106.4","1008.8580000000001","28.16","73.24","NAN","0.0"],
    [1564968,"2026-07-25 07:10:00","17678","1.939","117.3","2.94","89.3","1008.857","27.93","73.35","NAN","0.0"],
    [1564969,"2026-07-25 07:20:00","17679","1.9","108.7","3.071","91.8","1008.8610000000001","28.09","72.61","NAN","0.0"],
    [1564970,"2026-07-25 07:30:00","17680","1.929","100.8","3.92","91.5","1008.8639999999999","28.18","71.9","NAN","0.0"],
    [1564971,"2026-07-25 07:40:00","17681","2.35","113.5","4.4430000000000005","107.8","1008.85","28.31","69.86","NAN","0.0"],
    [1564972,"2026-07-25 07:50:00","17682","2.569","112.8","4.2139999999999995","95.3","1008.824","28.18","67.51","NAN","0.0"],
    [1564973,"2026-07-25 08:00:00","17683","2.373","102.4","4.541","98.4","1008.799","28.57","64.8","NAN","0.0"],
    [1564974,"2026-07-25 08:10:00","17684","2.335","97.4","4.704","88.7","1008.74","28.95","64.55","NAN","0.0"],
    [1564975,"2026-07-25 08:20:00","17685","2.452","100.4","4.279","97.8","1008.689","28.57","68.03","NAN","0.0"],
    [1564976,"2026-07-25 08:30:00","17686","2.623","109.7","5.227","111.5","1008.7310000000001","28.62","67.26","NAN","0.0"],
    [1564977,"2026-07-25 08:40:00","17687","2.241","95.9","4.475","98.2","1008.7289999999999","28.53","68.5","NAN","0.0"],
    [1564978,"2026-07-25 08:50:00","17688","2.531","104.1","4.671","105.1","1008.7689999999999","28.22","68.95","NAN","0.0"],
    [1564979,"2026-07-25 09:00:00","17689","2.61","107.3","4.802","125.3","1008.775","28.38","67.45","NAN","0.0"],
    [1564980,"2026-07-25 09:10:00","17690","2.701","102.1","4.769","97.8","1008.7869999999999","28.4","65.9","NAN","0.0"],
    [1564981,"2026-07-25 09:20:00","17691","2.365","108.3","4.083","110.3","1008.801","28.48","65.78","NAN","0.0"],
    [1564982,"2026-07-25 09:30:00","17692","2.519","119.8","4.606","149.3","1008.806","28.41","65.8","NAN","0.0"],
    [1564983,"2026-07-25 09:40:00","17693","2.766","127.3","4.671","138.3","1008.808","27.8","68.31","NAN","0.0"],
    [1564984,"2026-07-25 09:50:00","17694","2.7030000000000003","127.6","4.377","119.1","1008.8330000000001","28.11","68.89","NAN","0.0"],
    [1564985,"2026-07-25 10:00:00","17695","2.634","133.0","4.41","146.5","1008.8919999999999","27.86","70.08","NAN","0.0"],
    [1564986,"2026-07-25 10:10:00","17696","2.718","130.5","4.377","115.8","1008.915","28.01","67.14","NAN","0.0"],
    [1564987,"2026-07-25 10:20:00","17697","2.9730000000000003","124.2","5.292000000000001","120.8","1008.852","28.04","63.42","NAN","0.0"],
    [1564988,"2026-07-25 10:30:00","17698","2.432","120.5","4.312","99.0","1008.8389999999999","28.6","60.84","NAN","0.0"],
    [1564989,"2026-07-25 10:40:00","17699","2.842","119.0","4.704","104.0","1008.816","28.49","61.37","NAN","0.0"],
    [1564990,"2026-07-25 10:50:00","17700","3.025","115.9","5.553","102.3","1008.818","28.58","60.45","NAN","0.0"],
    [1564991,"2026-07-25 11:00:00","17701","2.552","121.5","5.063","111.1","1008.797","28.51","62.1","NAN","0.0"],
    [1564992,"2026-07-25 11:10:00","17702","2.414","125.8","4.345","118.1","1008.7769999999999","28.45","65.04","NAN","0.0"],
    [1564993,"2026-07-25 11:20:00","17703","2.267","127.2","4.051","104.3","1008.6139999999999","28.5","66.1","NAN","0.0"],
    [1564994,"2026-07-25 11:30:00","17704","2.539","133.7","5.096","98.6","1008.5369999999999","28.27","66.5","NAN","0.0"],
    [1564995,"2026-07-25 11:40:00","17705","2.824","125.7","5.357","134.3","1008.451","28.1","65.11","NAN","0.0"],
    [1564996,"2026-07-25 11:50:00","17706","3.025","127.5","5.129","113.1","1008.415","28.09","66.37","NAN","0.0"],
    [1564997,"2026-07-25 12:00:00","17707","2.8789999999999996","128.1","5.325","118.1","1008.372","27.91","67.74","NAN","0.0"],
    [1564998,"2026-07-25 12:10:00","17708","2.948","124.1","5.521","109.6","1008.3760000000001","27.97","67.38","NAN","0.0"],
    [1564999,"2026-07-25 12:20:00","17709","2.448","125.2","4.4430000000000005","111.1","1008.427","28.26","66.75","NAN","0.0"],
    [1565000,"2026-07-25 12:30:00","17710","2.294","121.9","4.573","103.5","1008.475","28.33","66.67","NAN","0.0"],
    [1565001,"2026-07-25 12:40:00","17711","3.0180000000000002","124.3","5.978","110.3","1008.357","28.15","67.8","NAN","0.0"],
    [1565002,"2026-07-25 12:50:00","17712","3.227","129.4","4.965","139.7","1008.3330000000001","27.92","68.68","NAN","0.0"],
    [1565003,"2026-07-25 13:00:00","17713","3.563","122.6","5.684","112.5","1008.331","27.89","70.25","NAN","0.0"],
    [1565004,"2026-07-25 13:10:00","17714","3.2","119.1","6.011","105.5","1008.3660000000001","28.17","70.49","NAN","0.0"],
    [1565005,"2026-07-25 13:20:00","17715","2.977","121.1","5.39","109.7","1008.438","28.16","70.77","NAN","0.0"],
    [1565006,"2026-07-25 13:30:00","17716","2.675","120.0","5.619","109.1","1008.4689999999999","28.09","71.68","NAN","0.0"],
    [1565007,"2026-07-25 13:40:00","17717","2.827","106.1","5.651","116.1","1008.472","27.9","72.12","NAN","0.0"],
    [1565008,"2026-07-25 13:50:00","17718","2.963","107.4","5.553","112.7","1008.443","27.9","72.82","NAN","0.0"],
    [1565009,"2026-07-25 14:00:00","17719","2.9939999999999998","120.4","5.521","111.4","1008.362","28.02","73.17","NAN","0.0"],
    [1565010,"2026-07-25 14:10:00","17720","2.908","120.7","5.749","108.7","1008.3539999999999","27.84","74.59","NAN","0.0"],
    [1565011,"2026-07-25 14:20:00","17721","3.12","120.0","5.129","110.9","1008.291","27.56","76.09","NAN","0.0"],
    [1565012,"2026-07-25 14:30:00","17722","2.826","122.8","5.096","109.8","1008.2610000000001","27.57","76.6","NAN","0.0"],
    [1565013,"2026-07-25 14:40:00","17723","2.9330000000000003","124.9","5.096","105.3","1008.16","27.57","76.61","NAN","0.0"],
    [1565014,"2026-07-25 14:50:00","17724","3.41","120.4","5.978","113.1","1008.068","27.61","75.75","NAN","0.0"],
    [1565015,"2026-07-25 15:00:00","17725","3.1660000000000004","119.9","5.129","116.3","1008.033","27.84","74.7","NAN","0.0"],
    [1565016,"2026-07-25 15:10:00","17726","3.264","121.6","6.337000000000001","107.9","1008.069","27.74","75.23","NAN","0.0"],
    [1565017,"2026-07-25 15:20:00","17727","3.08","121.6","5.2589999999999995","102.7","1008.1389999999999","27.7","75.64","NAN","0.0"],
    [1565018,"2026-07-25 15:30:00","17728","3.181","116.2","5.4879999999999995","104.0","1008.1610000000001","27.75","75.84","NAN","0.0"],
    [1565019,"2026-07-25 15:40:00","17729","3.464","103.8","6.011","111.1","1008.25","27.68","75.39","NAN","0.0"],
    [1565020,"2026-07-25 15:50:00","17730","2.997","107.8","4.638999999999999","118.6","1008.363","27.8","74.86","NAN","0.0"],
    [1565021,"2026-07-25 16:00:00","17731","2.716","101.5","5.619","100.0","1008.365","27.67","75.25","NAN","0.0"],
    [1565022,"2026-07-25 16:10:00","17732","3.4730000000000003","109.0","6.925","107.7","1008.375","27.76","73.58","NAN","0.0"],
    [1565023,"2026-07-25 16:20:00","17733","3.528","104.6","6.566","104.1","1008.395","27.66","73.71","NAN","0.0"],
    [1565024,"2026-07-25 16:30:00","17734","2.912","103.9","4.965","105.2","1008.363","27.72","73.52","NAN","0.0"],
    [1565025,"2026-07-25 16:40:00","17735","3.299","102.8","6.011","107.5","1008.37","27.74","72.8","NAN","0.0"],
    [1565026,"2026-07-25 16:50:00","17736","3.319","94.2","5.422999999999999","90.4","1008.443","27.91","73.22","NAN","0.0"],
    [1565027,"2026-07-25 17:00:00","17737","3.2110000000000003","101.2","5.945","84.6","1008.3969999999999","27.59","74.51","NAN","0.0"],
    [1565028,"2026-07-25 17:10:00","17738","2.931","96.8","5.586","114.5","1008.544","27.65","73.39","NAN","0.0"],
    [1565029,"2026-07-25 17:20:00","17739","3.1489999999999996","103.8","6.0760000000000005","103.2","1008.547","27.7","72.93","NAN","0.0"],
    [1565030,"2026-07-25 17:30:00","17740","3.426","100.6","6.957999999999999","108.9","1008.592","27.47","73.49","NAN","0.0"],
    [1565031,"2026-07-25 17:40:00","17741","3.1210000000000004","99.3","6.697","117.9","1008.62","27.36","72.75","NAN","0.0"],
    [1565032,"2026-07-25 17:50:00","17742","3.2060000000000004","96.4","6.435","70.71","1008.579","27.48","72.67","NAN","0.0"],
    [1565033,"2026-07-25 18:00:00","17743","2.717","107.6","5.945","105.1","1008.51","27.29","74.28","NAN","0.0"],
    [1565034,"2026-07-25 18:10:00","17744","3.092","104.9","5.455","101.0","1008.6189999999999","27.16","75.16","NAN","0.0"],
    [1565035,"2026-07-25 18:20:00","17745","2.616","112.5","5.031000000000001","127.4","1008.7389999999999","27.09","74.77","NAN","0.0"],
    [1565036,"2026-07-25 18:30:00","17746","2.694","87.3","5.357","89.2","1009.029","27.22","75.51","NAN","0.0"],
    [1565037,"2026-07-25 18:40:00","17747","3.077","68.87","5.847","71.3","1009.2869999999999","26.89","75.02","NAN","0.0"],
    [1565038,"2026-07-25 18:50:00","17748","2.3040000000000003","86.3","5.815","59.49","1009.3589999999999","26.74","75.85","NAN","0.0"],
    [1565039,"2026-07-25 19:00:00","17749","2.542","92.2","4.965","89.7","1009.317","26.64","76.17","NAN","0.0"],
    [1565040,"2026-07-25 19:10:00","17750","2.492","95.6","4.802","110.7","1009.215","26.63","74.51","NAN","0.0"],
    [1565041,"2026-07-25 19:20:00","17751","2.2880000000000003","94.0","4.933","105.4","1009.195","26.66","73.82","NAN","0.0"],
    [1565042,"2026-07-25 19:30:00","17752","1.786","73.96","3.299","55.54","1009.362","26.74","73.6","NAN","0.0"],
    [1565043,"2026-07-25 19:40:00","17753","2.075","87.8","3.92","98.7","1009.37","26.76","74.05","NAN","0.0"],
    [1565044,"2026-07-25 19:50:00","17754","2.016","78.39","3.7569999999999997","81.4","1009.6389999999999","26.66","75.37","NAN","0.0"],
    [1565045,"2026-07-25 20:00:00","17755","2.1430000000000002","73.5","4.279","52.99","1009.831","26.62","74.29","NAN","0.0"],
    [1565046,"2026-07-25 20:10:00","17756","2.378","79.61","4.933","66.93","1009.878","26.65","73.62","NAN","0.0"],
    [1565047,"2026-07-25 20:20:00","17757","2.576","64.21","4.769","77.07","1009.933","26.67","72.71","NAN","0.0"],
    [1565048,"2026-07-25 20:30:00","17758","1.439","331.1","4.345","288.2","1010.5160000000001","25.85","77.5","NAN","3.4"],
    [1565049,"2026-07-25 20:40:00","17759","1.589","179.1","2.548","157.9","1010.697","22.84","93.3","NAN","0.6"],
    [1565050,"2026-07-25 20:50:00","17760","1.754","96.8","4.704","109.2","1010.3530000000001","23.24","85.8","NAN","0.0"],
    [1565051,"2026-07-25 21:00:00","17761","0.384","62.29","2.0580000000000003","156.4","1010.3910000000001","23.5","69.38","NAN","0.0"],
    [1565052,"2026-07-25 21:10:00","17762","0.33","43.7","1.209","38.12","1010.585","23.54","70.55","NAN","0.0"],
    [1565053,"2026-07-25 21:20:00","17763","0.523","302.9","1.045","310.9","1010.613","23.7","71.75","NAN","0.0"],
    [1565054,"2026-07-25 21:30:00","17764","1.069","47.56","1.895","56.53","1010.747","23.99","68.57","NAN","0.0"],
    [1565055,"2026-07-25 21:40:00","17765","0.7120000000000001","18.68","1.633","28.54","1010.757","24.23","68.13","NAN","0.0"],
    [1565056,"2026-07-25 21:50:00","17766","0.847","11.41","1.9269999999999998","16.18","1010.8589999999999","24.6","68.54","NAN","0.0"],
    [1565057,"2026-07-25 22:00:00","17767","0.983","13.21","1.7309999999999999","26.25","1010.924","24.63","71.73","NAN","0.0"],
    [1565058,"2026-07-25 22:10:00","17768","1.24","3.322","2.221","10.69","1010.9889999999999","24.63","74.49","NAN","0.0"],
    [1565059,"2026-07-25 22:20:00","17769","0.772","11.81","1.797","11.99","1011.084","24.74","75.89","NAN","0.0"],
    [1565060,"2026-07-25 22:30:00","17770","0.9229999999999999","32.63","2.417","37.81","1011.074","24.81","76.45","NAN","0.0"],
    [1565061,"2026-07-25 22:40:00","17771","1.083","16.56","2.254","13.16","1011.084","24.76","76.57","NAN","0.0"],
    [1565062,"2026-07-25 22:50:00","17772","1.2890000000000001","3.237","2.319","359.4","1011.245","24.99","75.33","NAN","0.0"],
    [1565063,"2026-07-25 23:00:00","17773","1.344","4.763","2.94","10.78","1011.24","25.21","74.37","NAN","0.0"],
    [1565064,"2026-07-25 23:10:00","17774","1.2","10.19","2.5810000000000004","30.93","1011.221","25.11","74.12","NAN","0.0"],
    [1565065,"2026-07-25 23:20:00","17775","0.941","21.48","2.417","21.66","1011.415","25.16","75.58","NAN","0.0"],
    [1565066,"2026-07-25 23:30:00","17776","0.858","24.55","2.0580000000000003","7.226","1011.507","25.13","76.79","NAN","0.0"],
    [1565067,"2026-07-25 23:40:00","17777","0.335","6.935","1.176","26.98","1011.502","25.36","76.21","NAN","0.0"],
    [1565068,"2026-07-25 23:50:00","17778","0.534","346.6","1.3719999999999999","3.8560000000000003","1011.29","25.57","75.37","NAN","0.0"],
    [1565069,"2026-07-26 00:00:00","17779","0.6629999999999999","359.2","1.8619999999999999","311.4","1011.425","25.69","73.79","NAN","0.0"],
    [1565070,"2026-07-26 00:10:00","17780","0.815","21.12","1.8619999999999999","42.22","1011.44","25.5","74.78","NAN","0.0"],
    [1565071,"2026-07-26 00:20:00","17781","0.7040000000000001","50.45","1.47","68.0","1011.388","25.41","75.81","NAN","0.0"],
    [1565072,"2026-07-26 00:30:00","17782","1.122","37.58","2.189","21.63","1011.424","25.25","75.59","NAN","0.0"],
    [1565073,"2026-07-26 00:40:00","17783","0.589","28.49","1.633","355.6","1011.505","25.3","75.11","NAN","0.0"],
    [1565074,"2026-07-26 00:50:00","17784","0.47","29.87","1.47","31.7","1011.7239999999999","25.3","74.95","NAN","0.0"],
    [1565075,"2026-07-26 01:00:00","17785","0.331","43.7","0.8490000000000001","49.83","1011.727","25.53","74.49","NAN","0.0"],
    [1565076,"2026-07-26 01:10:00","17786","0.006999999999999999","64.06","0.425","49.22","1011.868","25.52","74.4","NAN","0.0"],
    [1565077,"2026-07-26 01:20:00","17787","0.344","137.8","0.8170000000000001","163.9","1011.8610000000001","25.55","75.3","NAN","0.0"],
    [1565078,"2026-07-26 01:30:00","17788","0.22699999999999998","151.7","0.8170000000000001","155.3","1011.828","25.51","76.58","NAN","0.0"],
    [1565079,"2026-07-26 01:40:00","17789","0.591","197.4","1.339","222.1","1011.8430000000001","25.53","78.16","NAN","0.0"],
    [1565080,"2026-07-26 01:50:00","17790","0.904","220.4","1.633","211.9","1011.8530000000001","25.58","77.72","NAN","0.0"],
    [1565081,"2026-07-26 02:00:00","17791","0.638","242.0","1.764","256.0","1011.791","25.68","76.35","NAN","0.0"],
    [1565082,"2026-07-26 02:10:00","17792","0.982","211.0","2.7439999999999998","233.1","1011.816","25.6","76.59","NAN","0.0"],
    [1565083,"2026-07-26 02:20:00","17793","1.2309999999999999","199.0","2.842","180.9","1011.7710000000001","25.21","79.01","NAN","0.0"],
    [1565084,"2026-07-26 02:30:00","17794","0.7709999999999999","225.3","2.385","192.8","1011.7360000000001","25.05","79.33","NAN","0.0"],
    [1565085,"2026-07-26 02:40:00","17795","1.197","197.4","2.7439999999999998","199.8","1011.8389999999999","24.99","80.2","NAN","0.0"],
    [1565086,"2026-07-26 02:50:00","17796","1.0659999999999998","208.0","2.385","225.4","1012.085","24.96","81.2","NAN","0.0"],
    [1565087,"2026-07-26 03:00:00","17797","0.83","198.7","1.7309999999999999","160.2","1012.203","24.9","78.74","NAN","0.0"],
    [1565088,"2026-07-26 03:10:00","17798","0.892","218.5","1.993","235.4","1012.357","25.05","77.59","NAN","0.0"],
    [1565089,"2026-07-26 03:20:00","17799","0.759","220.7","2.352","219.4","1012.462","25.08","75.42","NAN","0.0"],
    [1565090,"2026-07-26 03:30:00","17800","0.695","255.5","2.0580000000000003","312.7","1012.679","25.26","72.84","NAN","0.0"],
    [1565091,"2026-07-26 03:40:00","17801","1.379","312.6","4.279","306.9","1012.762","25.22","51.75","NAN","0.0"],
    [1565092,"2026-07-26 03:50:00","17802","1.818","320.3","4.279","312.2","1012.541","25.3","46.78","NAN","0.0"],
    [1565093,"2026-07-26 04:00:00","17803","1.538","316.3","4.377","329.1","1012.554","25.05","46.41","NAN","0.0"],
    [1565094,"2026-07-26 04:10:00","17804","1.255","302.0","3.332","307.8","1012.533","25.05","45.9","NAN","0.0"],
    [1565095,"2026-07-26 04:20:00","17805","1.3719999999999999","312.1","3.005","322.2","1012.362","24.84","45.95","NAN","0.0"],
    [1565096,"2026-07-26 04:30:00","17806","0.94","292.1","2.679","245.2","1012.459","24.68","46.82","NAN","0.0"],
    [1565097,"2026-07-26 04:40:00","17807","0.8009999999999999","324.4","2.385","301.8","1012.404","24.65","47.15","NAN","0.0"],
    [1565098,"2026-07-26 04:50:00","17808","0.7909999999999999","332.5","2.254","315.5","1012.2669999999999","24.54","47.03","NAN","0.0"],
    [1565099,"2026-07-26 05:00:00","17809","0.614","298.3","1.764","263.8","1012.347","24.4","47.55","NAN","0.0"],
    [1565100,"2026-07-26 05:10:00","17810","1.3330000000000002","303.4","4.345","312.4","1012.324","24.16","47.88","NAN","0.0"],
    [1565101,"2026-07-26 05:20:00","17811","1.005","278.4","2.319","250.9","1012.3489999999999","24.22","48.42","NAN","0.0"],
    [1565102,"2026-07-26 05:30:00","17812","1.5319999999999998","276.0","3.9530000000000003","304.8","1012.4689999999999","24.09","49.01","NAN","0.0"],
    [1565103,"2026-07-26 05:40:00","17813","0.96","281.0","2.352","269.8","1012.6160000000001","24.03","49.76","NAN","0.0"],
    [1565104,"2026-07-26 05:50:00","17814","1.169","284.1","2.7110000000000003","324.7","1012.7460000000001","24.01","49.51","NAN","0.0"],
    [1565105,"2026-07-26 06:00:00","17815","1.265","288.9","3.201","309.8","1012.84","23.77","50.03","NAN","0.0"],
    [1565106,"2026-07-26 06:10:00","17816","1.635","300.7","3.593","287.6","1012.822","23.72","50.14","NAN","0.0"],
    [1565107,"2026-07-26 06:20:00","17817","1.432","309.0","3.593","291.3","1012.795","23.68","49.65","NAN","0.0"],
    [1565108,"2026-07-26 06:30:00","17818","1.845","323.6","4.312","332.2","1012.748","23.6","49.23","NAN","0.0"],
    [1565109,"2026-07-26 06:40:00","17819","0.915","285.4","3.0380000000000003","285.8","1012.8380000000001","23.71","49.21","NAN","0.0"],
    [1565110,"2026-07-26 06:50:00","17820","1.795","325.2","4.737","339.2","1012.873","23.72","49.04","NAN","0.0"],
    [1565111,"2026-07-26 07:00:00","17821","1.054","302.2","3.201","318.7","1013.095","23.76","49.24","NAN","0.0"],
    [1565112,"2026-07-26 07:10:00","17822","1.484","330.7","4.051","305.0","1013.2710000000001","23.76","49.04","NAN","0.0"],
    [1565113,"2026-07-26 07:20:00","17823","1.6569999999999998","322.7","3.463","292.6","1013.3760000000001","23.61","49.35","NAN","0.0"],
    [1565114,"2026-07-26 07:30:00","17824","0.75","324.1","2.123","300.8","1013.471","24.05","48.73","NAN","0.0"],
    [1565115,"2026-07-26 07:40:00","17825","1.449","299.9","3.528","276.7","1013.578","24.26","48.08","NAN","0.0"],
    [1565116,"2026-07-26 07:50:00","17826","1.754","302.4","3.887","331.6","1013.6569999999999","24.29","48.5","NAN","0.0"],
    [1565117,"2026-07-26 08:00:00","17827","1.561","308.4","4.018","302.3","1013.812","24.46","47.94","NAN","0.0"],
    [1565118,"2026-07-26 08:10:00","17828","1.7069999999999999","316.3","3.9530000000000003","310.3","1013.842","24.79","46.55","NAN","0.0"],
    [1565119,"2026-07-26 08:20:00","17829","1.284","299.9","2.842","298.4","1013.8439999999999","25","45.82","NAN","0.0"],
    [1565120,"2026-07-26 08:30:00","17830","1.48","266.5","3.43","263.6","1013.914","25.19","45.4","NAN","0.0"],
    [1565121,"2026-07-26 08:40:00","17831","1.291","292.9","3.7889999999999997","255.3","1014.066","25.69","44.56","NAN","0.0"],
    [1565122,"2026-07-26 08:50:00","17832","1.652","307.3","3.397","315.2","1014.107","26.03","44.04","NAN","0.0"],
    [1565123,"2026-07-26 09:00:00","17833","1.2409999999999999","285.2","3.7889999999999997","264.7","1014.288","26","44.62","NAN","0.0"],
    [1565124,"2026-07-26 09:10:00","17834","1.1420000000000001","332.6","3.136","299.9","1014.34","26.5","43.48","NAN","0.0"],
    [1565125,"2026-07-26 09:20:00","17835","0.8170000000000001","334.6","1.666","346.2","1014.303","26.7","43.41","NAN","0.0"],
    [1565126,"2026-07-26 09:30:00","17836","1.1640000000000001","299.4","2.7769999999999997","282.4","1014.304","26.87","43.72","NAN","0.0"],
    [1565127,"2026-07-26 09:40:00","17837","0.868","295.5","2.8089999999999997","304.3","1014.318","26.85","43.95","NAN","0.0"],
    [1565128,"2026-07-26 09:50:00","17838","1.337","257.9","3.7889999999999997","232.9","1014.308","27.17","43.33","NAN","0.0"],
    [1565129,"2026-07-26 10:00:00","17839","1.224","242.1","2.907","283.6","1014.2919999999999","27.44","42.86","NAN","0.0"],
    [1565130,"2026-07-26 10:10:00","17840","1.008","214.6","2.679","227.9","1014.308","27.75","42.57","NAN","0.0"],
    [1565131,"2026-07-26 10:20:00","17841","0.868","254.0","2.352","316.1","1014.289","28.16","41.68","NAN","0.0"],
    [1565132,"2026-07-26 10:30:00","17842","1.281","203.3","3.136","210.8","1014.328","28.5","42.56","NAN","0.0"],
    [1565133,"2026-07-26 10:40:00","17843","1.588","151.8","2.9730000000000003","135.8","1014.273","28.13","43.26","NAN","0.0"],
    [1565134,"2026-07-26 10:50:00","17844","1.765","128.6","3.659","114.6","1014.2410000000001","27.92","45.17","NAN","0.0"],
    [1565135,"2026-07-26 11:00:00","17845","2.3280000000000003","167.1","3.6910000000000003","186.6","1014.07","27.97","45.9","NAN","0.0"],
    [1565136,"2026-07-26 11:10:00","17846","2.985","170.0","4.769","153.5","1014.046","27.74","46.94","NAN","0.0"],
    [1565137,"2026-07-26 11:20:00","17847","2.984","175.5","5.39","171.7","1014.039","27.63","48.35","NAN","0.0"],
    [1565138,"2026-07-26 11:30:00","17848","3.318","179.2","5.031000000000001","179.7","1013.998","27.27","50.3","NAN","0.0"],
    [1565139,"2026-07-26 11:40:00","17849","3.011","176.4","4.638999999999999","176.3","1014.079","27.26","51.35","NAN","0.0"],
    [1565140,"2026-07-26 11:50:00","17850","3.397","175.3","5.325","186.8","1014.09","26.98","52.11","NAN","0.0"],
    [1565141,"2026-07-26 12:00:00","17851","3.5780000000000003","171.3","5.782","183.4","1014.107","27.05","52.68","NAN","0.0"],
    [1565142,"2026-07-26 12:10:00","17852","3.457","175.4","6.042999999999999","175.3","1014.085","27.06","54.02","NAN","0.0"],
    [1565143,"2026-07-26 12:20:00","17853","3.958","169.5","5.978","173.9","1014.015","27.06","53.84","NAN","0.0"],
    [1565144,"2026-07-26 12:30:00","17854","3.7430000000000003","168.4","6.664","180.4","1013.8860000000001","27.1","53.57","NAN","0.0"],
    [1565145,"2026-07-26 12:40:00","17855","2.998","165.9","4.606","186.1","1013.8689999999999","27.38","52.19","NAN","0.0"],
    [1565146,"2026-07-26 12:50:00","17856","3.468","172.4","5.357","149.4","1013.829","27.33","51.95","NAN","0.0"],
    [1565147,"2026-07-26 13:00:00","17857","3.161","176.3","5.357","177.3","1013.815","27.26","53.51","NAN","0.0"],
    [1565148,"2026-07-26 13:10:00","17858","3.5069999999999997","175.2","5.782","172.9","1013.828","27.28","54.12","NAN","0.0"],
    [1565149,"2026-07-26 13:20:00","17859","3.464","175.7","5.684","157.1","1013.8","27.33","54.82","NAN","0.0"],
    [1565150,"2026-07-26 13:30:00","17860","3.424","176.3","6.1739999999999995","179.6","1013.705","27.47","54.69","NAN","0.0"],
    [1565151,"2026-07-26 13:40:00","17861","2.892","186.7","6.141","183.8","1013.677","27.93","53.41","NAN","0.0"],
    [1565152,"2026-07-26 13:50:00","17862","3.702","173.9","6.403","176.0","1013.59","27.54","54.85","NAN","0.0"],
    [1565153,"2026-07-26 14:00:00","17863","3.5239999999999996","182.1","6.37","174.2","1013.475","27.62","56.19","NAN","0.0"],
    [1565154,"2026-07-26 14:10:00","17864","3.812","181.3","6.925","175.1","1013.408","28.02","53.33","NAN","0.0"],
    [1565155,"2026-07-26 14:20:00","17865","2.655","186.1","6.468","186.8","1013.331","28.4","52.62","NAN","0.0"],
    [1565156,"2026-07-26 14:30:00","17866","3.049","185.5","5.782","187.2","1013.387","28.38","52.77","NAN","0.0"],
    [1565157,"2026-07-26 14:40:00","17867","3.452","189.4","6.599","180.2","1013.429","28.59","51.65","NAN","0.0"],
    [1565158,"2026-07-26 14:50:00","17868","2.9989999999999997","192.5","7.0889999999999995","172.4","1013.424","28.52","51.54","NAN","0.0"],
    [1565159,"2026-07-26 15:00:00","17869","3.252","190.1","6.1739999999999995","176.2","1013.4780000000001","28.37","49.32","NAN","0.0"],
    [1565160,"2026-07-26 15:10:00","17870","3.194","184.6","7.0889999999999995","173.8","1013.554","28.46","48.64","NAN","0.0"],
    [1565161,"2026-07-26 15:20:00","17871","3.641","180.9","7.415","171.7","1013.6439999999999","28.38","48.95","NAN","0.0"],
    [1565162,"2026-07-26 15:30:00","17872","2.657","189.1","5.129","175.5","1013.722","28.79","46.58","NAN","0.0"],
    [1565163,"2026-07-26 15:40:00","17873","2.525","194.8","5.815","200.0","1013.7739999999999","28.86","46.48","NAN","0.0"],
    [1565164,"2026-07-26 15:50:00","17874","2.8369999999999997","191.0","6.207000000000001","177.4","1013.793","28.69","45.43","NAN","0.0"],
    [1565165,"2026-07-26 16:00:00","17875","3.298","176.8","6.403","171.1","1013.8330000000001","28.42","46.99","NAN","0.0"],
    [1565166,"2026-07-26 16:10:00","17876","3.116","180.8","6.141","182.7","1013.921","28.23","48.26","NAN","0.0"],
    [1565167,"2026-07-26 16:20:00","17877","3.59","170.7","6.305","157.1","1013.9010000000001","28.15","49.46","NAN","0.0"],
    [1565168,"2026-07-26 16:30:00","17878","3.67","173.3","5.945","174.4","1013.993","27.94","50.1","NAN","0.0"],
    [1565169,"2026-07-26 16:40:00","17879","3.492","172.9","5.194","159.2","1014.0010000000001","27.82","49.83","NAN","0.0"],
    [1565170,"2026-07-26 16:50:00","17880","3.429","175.1","6.1739999999999995","181.8","1014.062","27.76","50.39","NAN","0.0"],
    [1565171,"2026-07-26 17:00:00","17881","2.8160000000000003","175.4","4.377","141.8","1014.085","27.95","49.14","NAN","0.0"],
    [1565172,"2026-07-26 17:10:00","17882","3.1460000000000004","169.0","5.063","183.5","1014.102","27.95","48.26","NAN","0.0"],
    [1565173,"2026-07-26 17:20:00","17883","3.2119999999999997","173.7","5.063","160.0","1014.225","27.93","48.45","NAN","0.0"],
    [1565174,"2026-07-26 17:30:00","17884","2.509","179.2","4.2139999999999995","182.9","1014.21","27.97","47.99","NAN","0.0"],
    [1565175,"2026-07-26 17:40:00","17885","2.9389999999999996","176.7","5.357","191.6","1014.293","27.91","47.38","NAN","0.0"],
    [1565176,"2026-07-26 17:50:00","17886","2.311","176.7","5.292000000000001","162.6","1014.3430000000001","27.92","47.95","NAN","0.0"],
    [1565177,"2026-07-26 18:00:00","17887","2.84","176.8","4.704","172.2","1014.388","27.78","49.03","NAN","0.0"],
    [1565178,"2026-07-26 18:10:00","17888","2.325","178.3","4.2139999999999995","185.1","1014.5219999999999","27.75","48.69","NAN","0.0"],
    [1565179,"2026-07-26 18:20:00","17889","2.105","173.0","3.7239999999999998","182.6","1014.576","27.79","49.82","NAN","0.0"],
    [1565180,"2026-07-26 18:30:00","17890","2.343","176.8","3.463","151.0","1014.577","27.6","51.8","NAN","0.0"],
    [1565181,"2026-07-26 18:40:00","17891","2.5860000000000003","170.9","4.475","187.6","1014.6619999999999","27.49","55.36","NAN","0.0"],
    [1565182,"2026-07-26 18:50:00","17892","2.452","160.2","4.279","157.5","1014.7310000000001","27.16","60.12","NAN","0.0"],
    [1565183,"2026-07-26 19:00:00","17893","2.532","165.6","4.377","164.6","1014.699","27.02","61.42","NAN","0.0"],
    [1565184,"2026-07-26 19:10:00","17894","2.225","170.4","4.1160000000000005","178.6","1014.7489999999999","27.02","61.29","NAN","0.0"],
    [1565185,"2026-07-26 19:20:00","17895","2.161","174.6","3.659","177.9","1014.841","26.97","60.73","NAN","0.0"],
    [1565186,"2026-07-26 19:30:00","17896","1.9469999999999998","161.3","3.6910000000000003","176.3","1014.883","26.96","61.62","NAN","0.0"],
    [1565187,"2026-07-26 19:40:00","17897","2.013","167.1","3.332","174.4","1015.073","26.94","61.45","NAN","0.0"],
    [1565188,"2026-07-26 19:50:00","17898","1.882","165.0","3.332","190.5","1015.23","26.94","61.4","NAN","0.0"],
    [1565189,"2026-07-26 20:00:00","17899","2.053","178.1","3.593","202.8","1015.329","26.93","61.03","NAN","0.0"],
    [1565190,"2026-07-26 20:10:00","17900","2.023","167.3","3.528","177.4","1015.459","26.96","61.71","NAN","0.0"],
    [1565191,"2026-07-26 20:20:00","17901","2.352","172.8","3.7569999999999997","157.6","1015.681","26.93","61.88","NAN","0.0"],
    [1565192,"2026-07-26 20:30:00","17902","2.086","170.1","3.6260000000000003","173.1","1015.818","26.97","62.02","NAN","0.0"],
    [1565193,"2026-07-26 20:40:00","17903","2.423","173.5","3.7239999999999998","176.6","1015.9169999999999","27.02","61.17","NAN","0.0"],
    [1565194,"2026-07-26 20:50:00","17904","1.925","178.7","3.985","176.9","1015.997","27.08","60.81","NAN","0.0"],
    [1565195,"2026-07-26 21:00:00","17905","2.1180000000000003","176.3","3.5610000000000004","175.0","1016.086","27.14","60.63","NAN","0.0"],
    [1565196,"2026-07-26 21:10:00","17906","1.96","172.2","3.593","188.2","1016.0989999999999","27.13","60.05","NAN","0.0"],
    [1565197,"2026-07-26 21:20:00","17907","1.976","169.2","3.822","167.4","1016.1110000000001","27.18","59.24","NAN","0.0"],
    [1565198,"2026-07-26 21:30:00","17908","1.81","166.1","3.6910000000000003","162.2","1016.174","27.19","59.77","NAN","0.0"],
    [1565199,"2026-07-26 21:40:00","17909","2.033","170.0","4.149","155.0","1016.169","27.23","60.74","NAN","0.0"],
    [1565200,"2026-07-26 21:50:00","17910","1.849","180.1","3.103","201.5","1016.179","27.29","60.89","NAN","0.0"],
    [1565201,"2026-07-26 22:00:00","17911","2.492","175.4","4.2139999999999995","172.3","1016.209","27.39","59.17","NAN","0.0"],
    [1565202,"2026-07-26 22:10:00","17912","1.7530000000000001","186.8","3.43","173.4","1016.296","27.44","59.23","NAN","0.0"],
    [1565203,"2026-07-26 22:20:00","17913","0.8959999999999999","227.8","2.7439999999999998","227.5","1016.336","27.61","57.23","NAN","0.0"],
    [1565204,"2026-07-26 22:30:00","17914","1.229","225.0","2.94","231.5","1016.428","27.57","56.2","NAN","0.0"],
    [1565205,"2026-07-26 22:40:00","17915","1.109","227.8","2.7439999999999998","216.2","1016.38","27.46","56.52","NAN","0.0"],
    [1565206,"2026-07-26 22:50:00","17916","1.41","230.4","3.887","217.6","1016.3380000000001","27.47","57.23","NAN","0.0"],
    [1565207,"2026-07-26 23:00:00","17917","1.325","226.7","3.397","235.0","1016.336","27.46","57.83","NAN","0.0"],
    [1565208,"2026-07-26 23:10:00","17918","1.329","231.3","2.7110000000000003","212.0","1016.336","27.37","58.32","NAN","0.0"],
    [1565209,"2026-07-26 23:20:00","17919","1.002","211.8","2.221","208.0","1016.336","27.32","59.2","NAN","0.0"],
    [1565210,"2026-07-26 23:30:00","17920","0.9129999999999999","202.3","2.385","152.0","1016.336","27.17","61.1","NAN","0.0"],
    [1565211,"2026-07-26 23:40:00","17921","1.058","190.2","2.189","172.6","1016.336","27.09","62.63","NAN","0.0"],
    [1565212,"2026-07-26 23:50:00","17922","0.8420000000000001","204.6","2.679","210.8","1016.32","27.07","63.62","NAN","0.0"],
    [1565213,"2026-07-27 00:00:00","17923","1.171","195.1","3.43","197.8","1016.283","27.08","65.07","NAN","0.0"],
    [1565214,"2026-07-27 00:10:00","17924","2.057","176.8","3.7569999999999997","173.2","1016.181","26.98","65.83","NAN","0.0"],
    [1565215,"2026-07-27 00:20:00","17925","1.746","179.5","3.6260000000000003","188.1","1016.1310000000001","26.96","67.83","NAN","0.0"],
    [1565216,"2026-07-27 00:30:00","17926","1.7819999999999998","178.4","4.41","174.0","1016.0889999999999","26.87","68.66","NAN","0.0"],
    [1565217,"2026-07-27 00:40:00","17927","1.8230000000000002","175.0","3.7889999999999997","177.2","1016.0360000000001","26.85","69.78","NAN","0.0"],
    [1565218,"2026-07-27 00:50:00","17928","1.8090000000000002","164.9","3.234","154.6","1015.9169999999999","26.8","69.98","NAN","0.0"],
    [1565219,"2026-07-27 01:00:00","17929","1.859","158.1","3.495","162.7","1015.837","26.77","70.08","NAN","0.0"],
    [1565220,"2026-07-27 01:10:00","17930","1.699","139.1","3.9530000000000003","137.6","1015.837","26.78","71.02","NAN","0.0"],
    [1565221,"2026-07-27 01:20:00","17931","1.02","157.3","2.679","155.9","1015.837","26.79","71.25","NAN","0.0"],
    [1565222,"2026-07-27 01:30:00","17932","1.104","113.7","2.875","116.2","1015.812","26.85","70.12","NAN","0.0"],
    [1565223,"2026-07-27 01:40:00","17933","1.781","55.03","3.7239999999999998","24.43","1015.832","26.37","68.83","NAN","0.0"],
    [1565224,"2026-07-27 01:50:00","17934","2.063","27.56","4.149","46.1","1015.937","25.7","69.4","NAN","0.0"],
    [1565225,"2026-07-27 02:00:00","17935","1.617","33.0","3.659","7.022","1016.044","25.55","69.56","NAN","0.0"],
    [1565226,"2026-07-27 02:10:00","17936","1.599","30.44","3.397","20.07","1016.082","25.44","69.29","NAN","0.0"],
    [1565227,"2026-07-27 02:20:00","17937","1.439","28.69","2.875","8.65","1016.079","25.25","69.77","NAN","0.0"],
    [1565228,"2026-07-27 02:30:00","17938","1.263","20.18","2.613","8.86","1016.002","25.19","70","NAN","0.0"],
    [1565229,"2026-07-27 02:40:00","17939","1.429","15.16","3.071","19.21","1016.054","25.1","70.24","NAN","0.0"],
    [1565230,"2026-07-27 02:50:00","17940","1.266","10.63","2.842","1.598","1016.086","25.13","70.3","NAN","0.0"],
    [1565231,"2026-07-27 03:00:00","17941","1.4269999999999998","9.51","3.103","38.12","1016.096","25.2","70.33","NAN","0.0"],
    [1565232,"2026-07-27 03:10:00","17942","1.986","8.91","3.5610000000000004","26.32","1016.164","25.17","70.48","NAN","0.0"],
    [1565233,"2026-07-27 03:20:00","17943","1.7369999999999999","6.627000000000001","3.985","8.27","1016.1610000000001","25.1","70.7","NAN","0.0"],
    [1565234,"2026-07-27 03:30:00","17944","1.555","10.36","3.659","23.7","1016.0889999999999","25.09","70.77","NAN","0.0"],
    [1565235,"2026-07-27 03:40:00","17945","1.953","8.37","3.593","25.86","1016.166","25.03","70.75","NAN","0.0"],
    [1565236,"2026-07-27 03:50:00","17946","1.84","13.27","3.822","18.06","1016.1610000000001","25.04","70.78","NAN","0.0"],
    [1565237,"2026-07-27 04:00:00","17947","1.4480000000000002","18.86","3.887","13.86","1016.194","25.01","70.64","NAN","0.0"],
    [1565238,"2026-07-27 04:10:00","17948","1.463","18.48","3.7889999999999997","6.394","1016.2810000000001","24.97","70.91","NAN","0.0"],
    [1565239,"2026-07-27 04:20:00","17949","1.662","2.7680000000000002","3.7889999999999997","353.2","1016.336","25.04","70.92","NAN","0.0"],
    [1565240,"2026-07-27 04:30:00","17950","1.181","7.558","2.8089999999999997","38.97","1016.383","25.1","70.32","NAN","0.0"],
    [1565241,"2026-07-27 04:40:00","17951","1.4269999999999998","9.42","3.299","27.52","1016.4580000000001","25.08","67.93","NAN","0.0"],
    [1565242,"2026-07-27 04:50:00","17952","0.816","12.42","2.45","21.16","1016.557","25.09","64.92","NAN","0.0"],
    [1565243,"2026-07-27 05:00:00","17953","1.33","15.48","3.267","10.25","1016.612","25.06","62.91","NAN","0.0"],
    [1565244,"2026-07-27 05:10:00","17954","1.4180000000000001","29.83","3.365","355.6","1016.68","24.9","60.49","NAN","0.0"],
    [1565245,"2026-07-27 05:20:00","17955","2.005","7.825","4.345","35.73","1016.732","24.88","59.07","NAN","0.0"],
    [1565246,"2026-07-27 05:30:00","17956","1.367","14.9","2.8089999999999997","27.51","1016.819","25","58.15","NAN","0.0"],
    [1565247,"2026-07-27 05:40:00","17957","1.325","2.938","2.7439999999999998","3.1910000000000003","1016.8739999999999","25.1","56.7","NAN","0.0"],
    [1565248,"2026-07-27 05:50:00","17958","1.2890000000000001","10.04","3.593","20.34","1016.9639999999999","25.21","55.01","NAN","0.0"],
    [1565249,"2026-07-27 06:00:00","17959","1.401","13.5","3.495","39.08","1017.0110000000001","25.34","53.76","NAN","0.0"],
    [1565250,"2026-07-27 06:10:00","17960","1.288","7.564","3.495","5.702999999999999","1017.081","25.36","53.44","NAN","0.0"],
    [1565251,"2026-07-27 06:20:00","17961","1.44","8.97","3.855","356.4","1017.193","25.73","52.35","NAN","0.0"],
    [1565252,"2026-07-27 06:30:00","17962","1.431","20.24","3.528","13.15","1017.332","25.71","51.95","NAN","0.0"],
    [1565253,"2026-07-27 06:40:00","17963","1.883","7.972","3.7889999999999997","34.71","1017.427","25.7","51.1","NAN","0.0"],
    [1565254,"2026-07-27 06:50:00","17964","1.788","359.3","3.267","4.4030000000000005","1017.617","25.64","52.29","NAN","0.0"],
    [1565255,"2026-07-27 07:00:00","17965","1.2890000000000001","5.88","2.9730000000000003","12.31","1017.7310000000001","25.87","52.27","NAN","0.0"],
    [1565256,"2026-07-27 07:10:00","17966","1.661","5.75","3.234","15.59","1017.803","25.89","53.95","NAN","0.0"],
    [1565257,"2026-07-27 07:20:00","17967","1.473","18.48","3.201","20.17","1017.826","25.92","53.59","NAN","0.0"],
    [1565258,"2026-07-27 07:30:00","17968","1.385","10.22","3.005","11.06","1017.857","26.48","50.91","NAN","0.0"],
    [1565259,"2026-07-27 07:40:00","17969","1.2690000000000001","2.6630000000000003","3.299","81.9","1017.8739999999999","26.51","50.99","NAN","0.0"],
    [1565260,"2026-07-27 07:50:00","17970","1.068","9.85","2.94","74.84","1017.931","26.99","51.54","NAN","0.0"],
    [1565261,"2026-07-27 08:00:00","17971","1.062","10.66","2.842","349.3","1018.007","27.22","53.7","NAN","0.0"],
    [1565262,"2026-07-27 08:10:00","17972","1.097","35.62","2.613","34.52","1018.01","27.21","54.93","NAN","0.0"],
    [1565263,"2026-07-27 08:20:00","17973","1.713","66.44","4.051","71.71","1017.9960000000001","27.18","56.97","NAN","0.0"],
    [1565264,"2026-07-27 08:30:00","17974","2.117","85.7","3.6910000000000003","64.19","1018.0089999999999","27.29","58.54","NAN","0.0"],
    [1565265,"2026-07-27 08:40:00","17975","2.1069999999999998","97.6","4.1160000000000005","113.6","1018.0939999999999","27.16","60.3","NAN","0.0"],
    [1565266,"2026-07-27 08:50:00","17976","2.682","106.5","4.802","110.4","1018.2139999999999","26.68","62.65","NAN","0.0"],
    [1565267,"2026-07-27 09:00:00","17977","3.2760000000000002","107.5","5.227","97.2","1018.2639999999999","26.5","64.16","NAN","0.0"],
    [1565268,"2026-07-27 09:10:00","17978","2.989","109.6","4.867","102.7","1018.2819999999999","26.47","64.33","NAN","0.0"],
    [1565269,"2026-07-27 09:20:00","17979","2.526","99.6","5.227","97.2","1018.306","26.87","63.43","NAN","0.0"],
    [1565270,"2026-07-27 09:30:00","17980","2.85","103.9","5.096","102.6","1018.385","26.91","63.08","NAN","0.0"],
    [1565271,"2026-07-27 09:40:00","17981","2.94","104.5","4.638999999999999","119.1","1018.414","26.74","63.92","NAN","0.0"],
    [1565272,"2026-07-27 09:50:00","17982","2.9160000000000004","101.2","5.4879999999999995","107.6","1018.409","26.74","64","NAN","0.0"],
    [1565273,"2026-07-27 10:00:00","17983","3.319","106.8","5.553","107.5","1018.43","26.85","62.93","NAN","0.0"],
    [1565274,"2026-07-27 10:10:00","17984","3.237","103.9","5.4879999999999995","104.6","1018.419","26.79","63.12","NAN","0.0"],
    [1565275,"2026-07-27 10:20:00","17985","3.218","111.4","5.586","107.7","1018.442","26.71","63.08","NAN","0.0"],
    [1565276,"2026-07-27 10:30:00","17986","3.0389999999999997","117.2","5.357","113.2","1018.414","26.91","63.57","NAN","0.0"],
    [1565277,"2026-07-27 10:40:00","17987","2.925","116.8","5.096","115.2","1018.3910000000001","26.83","64.59","NAN","0.0"],
    [1565278,"2026-07-27 10:50:00","17988","2.95","117.3","4.965","117.6","1018.378","26.85","64.7","NAN","0.0"],
    [1565279,"2026-07-27 11:00:00","17989","2.9989999999999997","109.3","5.357","115.1","1018.419","26.74","65.21","NAN","0.0"],
    [1565280,"2026-07-27 11:10:00","17990","2.806","112.0","4.737","95.0","1018.4580000000001","26.83","64.66","NAN","0.0"],
    [1565281,"2026-07-27 11:20:00","17991","2.85","115.3","5.39","111.2","1018.441","26.9","64.85","NAN","0.0"],
    [1565282,"2026-07-27 11:30:00","17992","2.722","110.3","4.247","130.3","1018.375","26.93","65.12","NAN","0.0"],
    [1565283,"2026-07-27 11:40:00","17993","2.74","123.1","4.345","89.8","1018.328","27.05","65.15","NAN","0.0"],
    [1565284,"2026-07-27 11:50:00","17994","2.8739999999999997","120.4","4.541","104.1","1018.319","26.65","66.55","NAN","0.0"],
    [1565285,"2026-07-27 12:00:00","17995","2.596","110.7","4.638999999999999","118.1","1018.327","27.18","65.06","NAN","0.0"],
    [1565286,"2026-07-27 12:10:00","17996","2.945","121.4","5.88","111.8","1018.2919999999999","27.13","65.61","NAN","0.0"],
    [1565287,"2026-07-27 12:20:00","17997","2.775","123.2","4.508","110.1","1018.183","27.03","66.43","NAN","0.0"],
    [1565288,"2026-07-27 12:30:00","17998","2.833","117.8","4.737","110.1","1018.075","26.97","67.61","NAN","0.0"],
    [1565289,"2026-07-27 12:40:00","17999","2.66","123.1","5.031000000000001","104.2","1018.028","27.19","68.03","NAN","0.0"],
    [1565290,"2026-07-27 12:50:00","18000","2.803","126.4","4.737","114.3","1017.9739999999999","27.3","68.69","NAN","0.0"],
    [1565291,"2026-07-27 13:00:00","18001","2.535","127.5","4.345","105.7","1017.923","27.42","69.63","NAN","0.0"],
    [1565292,"2026-07-27 13:10:00","18002","2.735","119.0","4.933","131.8","1017.8689999999999","27.56","70.02","NAN","0.0"],
    [1565293,"2026-07-27 13:20:00","18003","3.486","125.9","5.912999999999999","110.8","1017.811","27.33","71.23","NAN","0.0"],
    [1565294,"2026-07-27 13:30:00","18004","3.326","124.6","5.39","108.5","1017.7669999999999","27.46","71.79","NAN","0.0"],
    [1565295,"2026-07-27 13:40:00","18005","3.451","123.2","5.912999999999999","115.1","1017.6569999999999","27.47","72.44","NAN","0.0"],
    [1565296,"2026-07-27 13:50:00","18006","3.128","124.1","5.325","110.3","1017.638","27.61","72.3","NAN","0.0"],
    [1565297,"2026-07-27 14:00:00","18007","3.335","122.0","6.1739999999999995","107.8","1017.53","27.6","72.37","NAN","0.0"],
    [1565298,"2026-07-27 14:10:00","18008","3.261","120.7","4.965","105.0","1017.413","27.88","71.73","NAN","0.0"],
    [1565299,"2026-07-27 14:20:00","18009","2.9730000000000003","131.4","5.325","109.7","1017.318","28.22","69.35","NAN","0.0"],
    [1565300,"2026-07-27 14:30:00","18010","2.864","147.4","4.9","149.3","1017.2689999999999","28.41","67.56","NAN","0.0"],
    [1565301,"2026-07-27 14:40:00","18011","2.738","135.9","4.181","152.4","1017.189","28.7","67.59","NAN","0.0"],
    [1565302,"2026-07-27 14:50:00","18012","2.6260000000000003","136.2","4.9","109.4","1017.12","28.63","67.13","NAN","0.0"],
    [1565303,"2026-07-27 15:00:00","18013","2.947","121.0","4.573","109.7","1017.041","28.37","67.51","NAN","0.0"],
    [1565304,"2026-07-27 15:10:00","18014","2.4419999999999997","125.8","4.345","107.5","1016.939","28.35","66.58","NAN","0.0"],
    [1565305,"2026-07-27 15:20:00","18015","2.303","123.8","3.92","145.8","1016.809","28.38","69.2","NAN","0.0"],
    [1565306,"2026-07-27 15:30:00","18016","2.575","167.7","3.822","158.0","1016.804","28.31","66.61","NAN","0.0"],
    [1565307,"2026-07-27 15:40:00","18017","2.3040000000000003","167.9","4.247","175.3","1016.798","28.54","64.34","NAN","0.0"],
    [1565308,"2026-07-27 15:50:00","18018","2.963","176.6","4.638999999999999","177.1","1016.7660000000001","28.33","63.44","NAN","0.0"],
    [1565309,"2026-07-27 16:00:00","18019","2.99","172.6","4.671","169.8","1016.76","28.28","60.61","NAN","0.0"],
    [1565310,"2026-07-27 16:10:00","18020","3.187","172.3","5.096","175.4","1016.664","28.54","55.96","NAN","0.0"],
    [1565311,"2026-07-27 16:20:00","18021","2.773","172.8","4.606","176.7","1016.5989999999999","28.78","52.68","NAN","0.0"],
    [1565312,"2026-07-27 16:30:00","18022","2.675","182.3","4.737","156.1","1016.557","29","49.9","NAN","0.0"],
    [1565313,"2026-07-27 16:40:00","18023","2.103","193.3","4.181","199.5","1016.595","29.1","48.87","NAN","0.0"],
    [1565314,"2026-07-27 16:50:00","18024","1.794","201.4","4.2139999999999995","198.2","1016.574","29.12","49.8","NAN","0.0"],
    [1565315,"2026-07-27 17:00:00","18025","2.345","199.0","4.312","192.3","1016.4739999999999","28.99","49.5","NAN","0.0"],
    [1565316,"2026-07-27 17:10:00","18026","2.161","202.6","4.345","196.6","1016.437","29.05","48.28","NAN","0.0"],
    [1565317,"2026-07-27 17:20:00","18027","2.329","203.5","4.606","216.2","1016.4689999999999","29.1","46.6","NAN","0.0"],
    [1565318,"2026-07-27 17:30:00","18028","2.059","209.0","4.606","227.6","1016.488","28.99","46.07","NAN","0.0"],
    [1565319,"2026-07-27 17:40:00","18029","1.72","212.5","4.671","219.5","1016.515","29.23","44.78","NAN","0.0"],
    [1565320,"2026-07-27 17:50:00","18030","2.1719999999999997","216.3","4.671","210.7","1016.4689999999999","29.17","43.9","NAN","0.0"],
    [1565321,"2026-07-27 18:00:00","18031","1.617","205.4","3.6260000000000003","212.4","1016.438","29.08","43.69","NAN","0.0"],
    [1565322,"2026-07-27 18:10:00","18032","1.389","213.9","3.659","247.0","1016.443","29.06","43.86","NAN","0.0"],
    [1565323,"2026-07-27 18:20:00","18033","1.3330000000000002","202.8","3.5610000000000004","222.0","1016.459","29.02","43.59","NAN","0.0"],
    [1565324,"2026-07-27 18:30:00","18034","1.439","213.2","3.136","236.3","1016.4910000000001","28.6","44.15","NAN","0.0"],
    [1565325,"2026-07-27 18:40:00","18035","1.5319999999999998","216.2","3.1689999999999996","209.3","1016.579","28.4","43.94","NAN","0.0"],
    [1565326,"2026-07-27 18:50:00","18036","1.278","217.5","3.7889999999999997","226.5","1016.637","28.34","44.85","NAN","0.0"],
    [1565327,"2026-07-27 19:00:00","18037","1.2819999999999998","213.4","4.051","228.5","1016.791","28.11","46.65","NAN","0.0"],
    [1565328,"2026-07-27 19:10:00","18038","1.5090000000000001","206.7","3.92","184.0","1016.799","27.78","49.07","NAN","0.0"],
    [1565329,"2026-07-27 19:20:00","18039","1.23","216.5","2.94","238.7","1016.8389999999999","27.84","49.34","NAN","0.0"],
    [1565330,"2026-07-27 19:30:00","18040","1.5530000000000002","219.1","3.495","198.0","1016.954","27.62","49.48","NAN","0.0"],
    [1565331,"2026-07-27 19:40:00","18041","1.04","224.1","3.071","210.9","1016.9760000000001","27.66","50.21","NAN","0.0"],
    [1565332,"2026-07-27 19:50:00","18042","1.0270000000000001","208.5","2.613","208.1","1017.061","27.45","52.05","NAN","0.0"],
    [1565333,"2026-07-27 20:00:00","18043","1.141","204.0","2.875","210.2","1017.188","27.22","53.8","NAN","0.0"],
    [1565334,"2026-07-27 20:10:00","18044","1.416","207.7","3.103","209.2","1017.33","27.15","55.65","NAN","0.0"],
    [1565335,"2026-07-27 20:20:00","18045","0.762","213.1","2.123","237.6","1017.395","27.05","55.17","NAN","0.0"],
    [1565336,"2026-07-27 20:30:00","18046","1.028","203.5","2.254","244.7","1017.534","26.96","56.33","NAN","0.0"],
    [1565337,"2026-07-27 20:40:00","18047","0.8240000000000001","208.0","2.287","226.2","1017.574","26.92","55.9","NAN","0.0"],
    [1565338,"2026-07-27 20:50:00","18048","0.904","212.1","2.548","203.1","1017.6510000000001","26.97","54.8","NAN","0.0"],
    [1565339,"2026-07-27 21:00:00","18049","0.39799999999999996","191.2","2.123","219.3","1017.696","26.81","55.17","NAN","0.0"],
    [1565340,"2026-07-27 21:10:00","18050","0.8759999999999999","257.4","2.907","223.5","1017.6439999999999","27.14","53.04","NAN","0.0"],
    [1565341,"2026-07-27 21:20:00","18051","0.988","246.2","2.221","228.8","1017.681","27.27","52.62","NAN","0.0"],
    [1565342,"2026-07-27 21:30:00","18052","0.40700000000000003","227.8","1.4369999999999998","263.2","1017.6060000000001","27.35","52.5","NAN","0.0"],
    [1565343,"2026-07-27 21:40:00","18053","0.331","284.2","1.633","295.9","1017.6360000000001","27.41","52.25","NAN","0.0"],
    [1565344,"2026-07-27 21:50:00","18054","0.62","274.5","1.699","258.4","1017.6339999999999","27.55","50.64","NAN","0.0"],
    [1565345,"2026-07-27 22:00:00","18055","0.19899999999999998","286.0","1.045","338.5","1017.6389999999999","27.74","50.4","NAN","0.0"],
    [1565346,"2026-07-27 22:10:00","18056","0.358","250.7","0.98","219.9","1017.666","27.66","51.08","NAN","0.0"],
    [1565347,"2026-07-27 22:20:00","18057","0.484","160.9","1.045","174.2","1017.676","27.15","54.08","NAN","0.0"],
    [1565348,"2026-07-27 22:30:00","18058","0.47100000000000003","208.3","1.307","202.3","1017.711","26.84","56.85","NAN","0.0"],
    [1565349,"2026-07-27 22:40:00","18059","0.461","218.3","1.7309999999999999","195.5","1017.7560000000001","26.83","54.3","NAN","0.0"],
    [1565350,"2026-07-27 22:50:00","18060","0.818","203.9","1.895","234.3","1017.818","26.63","54.36","NAN","0.0"],
    [1565351,"2026-07-27 23:00:00","18061","0.451","237.8","1.829","266.9","1017.813","26.71","53.31","NAN","0.0"],
    [1565352,"2026-07-27 23:10:00","18062","1.088","241.4","2.221","225.9","1017.768","26.74","52.68","NAN","0.0"],
    [1565353,"2026-07-27 23:20:00","18063","0.763","235.4","1.7309999999999999","257.4","1017.7460000000001","26.61","52.83","NAN","0.0"],
    [1565354,"2026-07-27 23:30:00","18064","0.445","215.9","1.209","258.4","1017.7130000000001","26.6","53.85","NAN","0.0"],
    [1565355,"2026-07-27 23:40:00","18065","0.163","178.2","0.555","215.6","1017.704","26.47","55.98","NAN","0.0"],
    [1565356,"2026-07-27 23:50:00","18066","0.574","221.4","1.895","280.5","1017.704","26.33","55.65","NAN","0.0"],
    [1565357,"2026-07-28 00:00:00","18067","0.281","250.0","1.3719999999999999","279.9","1017.706","26.54","53.93","NAN","0.0"],
    [1565358,"2026-07-28 00:10:00","18068","0.799","235.6","2.025","245.0","1017.671","26.49","53","NAN","0.0"],
    [1565359,"2026-07-28 00:20:00","18069","0.7290000000000001","235.8","2.221","231.5","1017.6089999999999","26.52","52.32","NAN","0.0"],
    [1565360,"2026-07-28 00:30:00","18070","0.446","246.8","1.2409999999999999","236.7","1017.581","26.46","52.11","NAN","0.0"],
    [1565361,"2026-07-28 00:40:00","18071","0.326","245.8","1.209","273.4","1017.546","26.38","52.06","NAN","0.0"],
    [1565362,"2026-07-28 00:50:00","18072","0.762","241.1","1.764","252.0","1017.477","26.4","51.42","NAN","0.0"],
    [1565363,"2026-07-28 01:00:00","18073","0.6709999999999999","236.2","1.699","238.0","1017.4739999999999","26.34","51.15","NAN","0.0"],
    [1565364,"2026-07-28 01:10:00","18074","0.8270000000000001","235.6","1.797","228.2","1017.4639999999999","26.36","50.61","NAN","0.0"],
    [1565365,"2026-07-28 01:20:00","18075","0.653","228.7","1.797","242.3","1017.465","26.31","51.17","NAN","0.0"],
    [1565366,"2026-07-28 01:30:00","18076","0.436","7.45","1.274","27.85","1017.477","26.2","52.62","NAN","0.0"],
    [1565367,"2026-07-28 01:40:00","18077","0.284","55.69","0.7509999999999999","77.57","1017.562","25.8","55.36","NAN","0.0"],
    [1565368,"2026-07-28 01:50:00","18078","0.65","41.34","1.4369999999999998","42.84","1017.581","25.56","56.36","NAN","0.0"],
    [1565369,"2026-07-28 02:00:00","18079","0.665","29.52","1.47","9.28","1017.586","25.43","57.14","NAN","0.0"],
    [1565370,"2026-07-28 02:10:00","18080","0.508","23.88","1.405","35.36","1017.6489999999999","25.35","57.36","NAN","0.0"],
    [1565371,"2026-07-28 02:20:00","18081","0.495","15.03","1.209","22.03","1017.6510000000001","25.3","57.06","NAN","0.0"],
    [1565372,"2026-07-28 02:30:00","18082","0.39399999999999996","26.32","1.045","36.42","1017.6339999999999","25.31","56.82","NAN","0.0"],
    [1565373,"2026-07-28 02:40:00","18083","0.452","15.91","1.209","11.75","1017.6610000000001","25.25","56.94","NAN","0.0"],
    [1565374,"2026-07-28 02:50:00","18084","0.9440000000000001","7.931","1.699","10.56","1017.666","25.37","56.25","NAN","0.0"],
    [1565375,"2026-07-28 03:00:00","18085","0.8009999999999999","29.18","1.3719999999999999","20.56","1017.564","25.32","56.22","NAN","0.0"],
    [1565376,"2026-07-28 03:10:00","18086","0.439","23.4","1.013","8.35","1017.4889999999999","25.14","56.74","NAN","0.0"],
    [1565377,"2026-07-28 03:20:00","18087","0.7340000000000001","17.92","1.601","18.14","1017.459","25.07","56.94","NAN","0.0"],
    [1565378,"2026-07-28 03:30:00","18088","0.48100000000000004","6.016","1.045","1.682","1017.529","25.32","56.12","NAN","0.0"],
    [1565379,"2026-07-28 03:40:00","18089","0.376","13.44","0.882","28.09","1017.586","25.35","56.09","NAN","0.0"],
    [1565380,"2026-07-28 03:50:00","18090","0.5379999999999999","27.65","1.013","34.18","1017.6039999999999","25.21","56.82","NAN","0.0"],
    [1565381,"2026-07-28 04:00:00","18091","0.444","30.01","0.8490000000000001","27.03","1017.6139999999999","25.16","57.15","NAN","0.0"],
    [1565382,"2026-07-28 04:10:00","18092","0.59","45.46","1.3719999999999999","33.57","1017.581","25.02","57.61","NAN","0.0"],
    [1565383,"2026-07-28 04:20:00","18093","0.222","59.89","1.3719999999999999","33.57","1017.581","25.01","57.81","NAN","0.0"],
    [1565384,"2026-07-28 04:30:00","18094","0.255","59.45","0.653","25.27","1017.584","25.02","58.18","NAN","0.0"],
    [1565385,"2026-07-28 04:40:00","18095","0.5","27.6","1.045","29.77","1017.579","25","58.58","NAN","0.0"],
    [1565386,"2026-07-28 04:50:00","18096","0.07200000000000001","4.246","0.523","351.2","1017.581","25.25","58.96","NAN","0.0"],
    [1565387,"2026-07-28 05:00:00","18097","0.502","36.13","1.111","58.09","1017.581","25.14","60.29","NAN","0.0"],
    [1565388,"2026-07-28 05:10:00","18098","0.385","54.66","1.2409999999999999","33.78","1017.6260000000001","24.98","61.43","NAN","0.0"],
    [1565389,"2026-07-28 05:20:00","18099","0.757","28.12","1.47","35.2","1017.584","25.06","62.41","NAN","0.0"],
    [1565390,"2026-07-28 05:30:00","18100","0.696","24.39","1.209","349.7","1017.5889999999999","25.22","62.29","NAN","0.0"],
    [1565391,"2026-07-28 05:40:00","18101","0.36700000000000005","13.9","0.98","353.5","1017.576","25.29","62.15","NAN","0.0"],
    [1565392,"2026-07-28 05:50:00","18102","0.435","355.3","1.209","36.76","1017.579","25.49","61.26","NAN","0.0"],
    [1565393,"2026-07-28 06:00:00","18103","0.22899999999999998","78.37","0.915","63.97","1017.597","26.13","60.59","NAN","0.0"],
    [1565394,"2026-07-28 06:10:00","18104","0.311","85.4","0.8170000000000001","58.53","1017.704","26.49","60.64","NAN","0.0"],
    [1565395,"2026-07-28 06:20:00","18105","0.301","147.7","0.784","174.4","1017.7289999999999","26.56","62.68","NAN","0.0"],
    [1565396,"2026-07-28 06:30:00","18106","0.941","258.8","2.515","234.3","1017.826","27.04","66.58","NAN","0.0"],
    [1565397,"2026-07-28 06:40:00","18107","0.88","239.5","3.365","247.7","1017.828","27.01","68.72","NAN","0.0"],
    [1565398,"2026-07-28 06:50:00","18108","0.424","255.4","1.3719999999999999","236.5","1017.817","27.32","67.68","NAN","0.0"],
    [1565399,"2026-07-28 07:00:00","18109","1.236","242.6","3.103","206.5","1017.924","27.46","67.82","NAN","0.0"],
    [1565400,"2026-07-28 07:10:00","18110","1.5919999999999999","238.3","3.365","240.2","1018.0360000000001","27.19","69.62","NAN","0.0"],
    [1565401,"2026-07-28 07:20:00","18111","0.927","219.1","2.5810000000000004","226.2","1018.068","27.59","68.34","NAN","0.0"],
    [1565402,"2026-07-28 07:30:00","18112","1.319","220.1","3.005","218.2","1018.1089999999999","27.84","67.43","NAN","0.0"],
    [1565403,"2026-07-28 07:40:00","18113","0.5329999999999999","223.6","1.699","226.3","1018.055","28.34","65.92","NAN","0.0"],
    [1565404,"2026-07-28 07:50:00","18114","1.1059999999999999","245.3","3.6910000000000003","292.6","1018.127","28.41","65.17","NAN","0.0"],
    [1565405,"2026-07-28 08:00:00","18115","1.275","233.8","3.43","276.8","1018.076","28.26","65.64","NAN","0.0"],
    [1565406,"2026-07-28 08:10:00","18116","1.251","199.4","3.1689999999999996","237.8","1018.13","28.34","65.8","NAN","0.0"],
    [1565407,"2026-07-28 08:20:00","18117","1.633","195.8","2.8089999999999997","169.3","1018.2189999999999","28.57","65.55","NAN","0.0"],
    [1565408,"2026-07-28 08:30:00","18118","2.805","175.1","4.247","177.2","1018.245","27.7","69.1","NAN","0.0"],
    [1565409,"2026-07-28 08:40:00","18119","2.708","169.2","4.377","178.6","1018.2489999999999","27.51","70.95","NAN","0.0"],
    [1565410,"2026-07-28 08:50:00","18120","2.51","183.7","4.345","181.6","1018.258","27.77","71.02","NAN","0.0"],
    [1565411,"2026-07-28 09:00:00","18121","2.504","176.3","4.149","184.8","1018.2639999999999","27.79","71.62","NAN","0.0"],
    [1565412,"2026-07-28 09:10:00","18122","2.8930000000000002","177.2","4.475","163.2","1018.265","28.22","69.23","NAN","0.0"],
    [1565413,"2026-07-28 09:20:00","18123","3.073","179.1","5.422999999999999","186.3","1018.336","28.2","70.36","NAN","0.0"],
    [1565414,"2026-07-28 09:30:00","18124","3.141","176.1","5.227","167.9","1018.41","28.04","71.73","NAN","0.0"],
    [1565415,"2026-07-28 09:40:00","18125","3.0810000000000004","178.5","6.37","176.7","1018.452","28.41","70.43","NAN","0.0"],
    [1565416,"2026-07-28 09:50:00","18126","3.615","176.5","6.599","171.3","1018.5089999999999","28.11","72.76","NAN","0.0"],
    [1565417,"2026-07-28 10:00:00","18127","3.93","174.2","6.435","178.0","1018.552","27.99","73.13","NAN","0.0"],
    [1565418,"2026-07-28 10:10:00","18128","2.968","179.2","5.521","170.6","1018.4910000000001","28.45","71.39","NAN","0.0"],
    [1565419,"2026-07-28 10:20:00","18129","2.246","188.2","4.933","218.2","1018.465","29.3","67.54","NAN","0.0"],
    [1565420,"2026-07-28 10:30:00","18130","2.845","185.6","5.586","183.4","1018.41","29.49","66.74","NAN","0.0"],
    [1565421,"2026-07-28 10:40:00","18131","2.7319999999999998","201.0","5.684","222.3","1018.347","29.84","63.49","NAN","0.0"],
    [1565422,"2026-07-28 10:50:00","18132","2.7110000000000003","201.7","7.121","207.8","1018.294","30.52","60.56","NAN","0.0"],
    [1565423,"2026-07-28 11:00:00","18133","2.372","204.4","5.325","193.5","1018.2610000000001","30.76","58.48","NAN","0.0"],
    [1565424,"2026-07-28 11:10:00","18134","2.59","199.4","8.0","198.5","1018.2539999999999","30.75","60.53","NAN","0.0"],
    [1565425,"2026-07-28 11:20:00","18135","3.009","196.5","6.435","207.2","1018.2310000000001","30.56","61.2","NAN","0.0"],
    [1565426,"2026-07-28 11:30:00","18136","3.65","198.5","8.85","207.0","1018.232","29.98","62.84","NAN","0.0"],
    [1565427,"2026-07-28 11:40:00","18137","3.387","195.1","6.403","190.1","1018.18","30.08","63.1","NAN","0.0"],
    [1565428,"2026-07-28 11:50:00","18138","3.3680000000000003","196.4","7.4479999999999995","201.0","1018.081","30.38","62.25","NAN","0.0"],
    [1565429,"2026-07-28 12:00:00","18139","3.071","204.0","6.664","196.4","1018.005","30.48","62.46","NAN","0.0"],
    [1565430,"2026-07-28 12:10:00","18140","3.22","204.8","7.807","200.3","1017.929","30.84","60.6","NAN","0.0"],
    [1565431,"2026-07-28 12:20:00","18141","3.5380000000000003","202.8","8.53","197.5","1017.7810000000001","30.51","61.25","NAN","0.0"],
    [1565432,"2026-07-28 12:30:00","18142","3.4530000000000003","197.0","7.218999999999999","213.2","1017.74","30.49","62.06","NAN","0.0"],
    [1565433,"2026-07-28 12:40:00","18143","3.167","201.7","6.631","173.7","1017.745","30.54","59.56","NAN","0.0"],
    [1565434,"2026-07-28 12:50:00","18144","3.199","202.5","7.775","211.0","1017.691","30.67","58.55","NAN","0.0"],
    [1565435,"2026-07-28 13:00:00","18145","3.326","204.5","7.415","190.5","1017.669","30.84","57.29","NAN","0.0"],
    [1565436,"2026-07-28 13:10:00","18146","3.555","201.1","8.23","210.8","1017.6039999999999","30.74","57.7","NAN","0.0"],
    [1565437,"2026-07-28 13:20:00","18147","3.695","195.6","8.46","197.7","1017.545","30.44","59.38","NAN","0.0"],
    [1565438,"2026-07-28 13:30:00","18148","3.2110000000000003","202.4","6.925","175.1","1017.5","30.59","58.9","NAN","0.0"],
    [1565439,"2026-07-28 13:40:00","18149","3.6689999999999996","202.4","8.2","195.6","1017.5","30.75","57.68","NAN","0.0"],
    [1565440,"2026-07-28 13:50:00","18150","2.889","202.7","8.04","199.4","1017.4739999999999","31.04","56.26","NAN","0.0"],
    [1565441,"2026-07-28 14:00:00","18151","2.9410000000000003","203.7","7.513","194.8","1017.408","30.9","55.58","NAN","0.0"],
    [1565442,"2026-07-28 14:10:00","18152","2.443","215.9","6.0760000000000005","198.0","1017.46","31.31","53.75","NAN","0.0"],
    [1565443,"2026-07-28 14:20:00","18153","3.228","206.0","6.5329999999999995","224.5","1017.3789999999999","31.05","54.65","NAN","0.0"],
    [1565444,"2026-07-28 14:30:00","18154","2.858","208.2","7.611000000000001","189.8","1017.3789999999999","30.73","56.44","NAN","0.0"],
    [1565445,"2026-07-28 14:40:00","18155","2.444","217.2","6.86","199.1","1017.3969999999999","31.21","54.76","NAN","0.0"],
    [1565446,"2026-07-28 14:50:00","18156","2.748","210.1","7.6770000000000005","229.7","1017.3839999999999","31.19","54.6","NAN","0.0"],
    [1565447,"2026-07-28 15:00:00","18157","2.9019999999999997","202.7","6.042999999999999","198.8","1017.2719999999999","30.7","56.82","NAN","0.0"],
    [1565448,"2026-07-28 15:10:00","18158","2.46","203.9","5.749","193.4","1017.2760000000001","30.65","57.33","NAN","0.0"],
    [1565449,"2026-07-28 15:20:00","18159","2.311","206.6","5.945","211.5","1017.258","30.88","57.93","NAN","0.0"],
    [1565450,"2026-07-28 15:30:00","18160","2.4859999999999998","212.6","5.292000000000001","230.2","1017.262","30.83","56.5","NAN","0.0"],
    [1565451,"2026-07-28 15:40:00","18161","2.1","207.9","5.7170000000000005","185.2","1017.24","30.77","57.14","NAN","0.0"],
    [1565452,"2026-07-28 15:50:00","18162","2.943","198.8","5.912999999999999","227.8","1017.225","30.29","58.23","NAN","0.0"],
    [1565453,"2026-07-28 16:00:00","18163","2.5780000000000003","205.3","5.749","221.2","1017.2539999999999","30.16","57.21","NAN","0.0"],
    [1565454,"2026-07-28 16:10:00","18164","2.661","208.4","7.317","221.5","1017.2389999999999","30.48","59.22","NAN","0.0"],
    [1565455,"2026-07-28 16:20:00","18165","2.8560000000000003","204.8","6.501","206.6","1017.066","30.26","59.49","NAN","0.0"],
    [1565456,"2026-07-28 16:30:00","18166","2.2769999999999997","213.5","5.815","180.8","1017.0189999999999","30.25","58.01","NAN","0.0"],
    [1565457,"2026-07-28 16:40:00","18167","2.658","207.1","6.403","214.7","1016.9689999999999","30.05","57.48","NAN","0.0"],
    [1565458,"2026-07-28 16:50:00","18168","2.38","214.3","5.978","239.9","1016.9839999999999","29.93","59.21","NAN","0.0"],
    [1565459,"2026-07-28 17:00:00","18169","2.04","219.1","7.317","240.6","1016.9810000000001","29.99","56.83","NAN","0.0"],
    [1565460,"2026-07-28 17:10:00","18170","2.338","208.9","6.011","234.8","1017.033","29.85","58.21","NAN","0.0"],
    [1565461,"2026-07-28 17:20:00","18171","2.227","207.8","5.455","208.1","1016.997","29.88","59.3","NAN","0.0"],
    [1565462,"2026-07-28 17:30:00","18172","2.025","217.4","5.651","229.5","1016.99","29.89","57.72","NAN","0.0"],
    [1565463,"2026-07-28 17:40:00","18173","1.703","216.1","4.704","265.0","1016.97","30","57.88","NAN","0.0"],
    [1565464,"2026-07-28 17:50:00","18174","1.982","206.2","4.965","228.2","1016.9730000000001","29.56","61.79","NAN","0.0"],
    [1565465,"2026-07-28 18:00:00","18175","1.9869999999999999","208.9","5.684","204.5","1017.044","29.35","62","NAN","0.0"],
    [1565466,"2026-07-28 18:10:00","18176","1.771","214.3","4.998","192.9","1017.078","29.32","62.98","NAN","0.0"],
    [1565467,"2026-07-28 18:20:00","18177","1.63","212.5","3.9530000000000003","239.7","1017.085","29.05","65.75","NAN","0.0"],
    [1565468,"2026-07-28 18:30:00","18178","1.69","223.1","5.684","242.9","1017.1439999999999","28.98","65.17","NAN","0.0"],
    [1565469,"2026-07-28 18:40:00","18179","2.532","222.0","6.501","226.9","1017.245","28.72","65.78","NAN","0.0"],
    [1565470,"2026-07-28 18:50:00","18180","1.5490000000000002","214.6","4.704","236.3","1017.332","28.61","68","NAN","0.0"],
    [1565471,"2026-07-28 19:00:00","18181","1.3969999999999998","217.9","4.377","201.0","1017.347","28.53","69.38","NAN","0.0"],
    [1565472,"2026-07-28 19:10:00","18182","1.59","217.9","3.9530000000000003","226.9","1017.447","28.23","70.55","NAN","0.0"],
    [1565473,"2026-07-28 19:20:00","18183","2.279","220.9","4.541","211.4","1017.4689999999999","28.04","71.6","NAN","0.0"],
    [1565474,"2026-07-28 19:30:00","18184","1.2409999999999999","216.5","3.0380000000000003","239.9","1017.567","28.04","71.78","NAN","0.0"],
    [1565475,"2026-07-28 19:40:00","18185","1.217","219.6","4.4430000000000005","221.0","1017.7489999999999","27.94","72.74","NAN","0.0"],
    [1565476,"2026-07-28 19:50:00","18186","1.5630000000000002","217.2","3.7569999999999997","202.8","1017.99","27.8","74.55","NAN","0.0"],
    [1565477,"2026-07-28 20:00:00","18187","0.88","224.3","2.613","248.1","1018.1519999999999","27.71","74.56","NAN","0.0"],
    [1565478,"2026-07-28 20:10:00","18188","1.4409999999999998","223.1","4.149","207.5","1018.321","27.69","75.07","NAN","0.0"],
    [1565479,"2026-07-28 20:20:00","18189","1.48","220.8","3.495","217.9","1018.434","27.6","74.72","NAN","0.0"],
    [1565480,"2026-07-28 20:30:00","18190","1.751","228.5","3.7889999999999997","246.7","1018.546","27.51","75.43","NAN","0.0"],
    [1565481,"2026-07-28 20:40:00","18191","1.411","230.5","3.528","226.7","1018.658","27.43","75.65","NAN","0.0"],
    [1565482,"2026-07-28 20:50:00","18192","1.382","215.6","3.267","200.0","1018.812","27.36","75.8","NAN","0.0"],
    [1565483,"2026-07-28 21:00:00","18193","1.486","214.0","2.7439999999999998","205.8","1018.827","27.31","75.78","NAN","0.0"],
    [1565484,"2026-07-28 21:10:00","18194","1.072","217.1","2.875","239.4","1018.827","27.29","75.86","NAN","0.0"],
    [1565485,"2026-07-28 21:20:00","18195","0.67","217.6","2.025","216.4","1018.829","27.32","75.6","NAN","0.0"],
    [1565486,"2026-07-28 21:30:00","18196","0.9740000000000001","207.1","2.254","230.9","1018.905","27.24","75.93","NAN","0.0"],
    [1565487,"2026-07-28 21:40:00","18197","0.733","208.0","1.9269999999999998","190.7","1019.0319999999999","27.16","76.14","NAN","0.0"],
    [1565488,"2026-07-28 21:50:00","18198","0.924","206.0","2.907","187.1","1019.076","27.15","75.86","NAN","0.0"],
    [1565489,"2026-07-28 22:00:00","18199","1.016","204.9","2.287","211.1","1019.076","27.09","76.35","NAN","0.0"],
    [1565490,"2026-07-28 22:10:00","18200","0.937","196.4","1.633","203.7","1019.1010000000001","26.99","77.1","NAN","0.0"],
    [1565491,"2026-07-28 22:20:00","18201","0.6970000000000001","198.4","1.7309999999999999","201.9","1019.206","26.86","78.14","NAN","0.0"],
    [1565492,"2026-07-28 22:30:00","18202","0.8320000000000001","221.6","2.254","213.6","1019.263","26.89","76.08","NAN","0.0"],
    [1565493,"2026-07-28 22:40:00","18203","1.249","228.9","2.45","205.9","1019.2080000000001","27","75.04","NAN","0.0"],
    [1565494,"2026-07-28 22:50:00","18204","1.429","229.0","2.7769999999999997","224.1","1019.278","26.99","75.4","NAN","0.0"],
    [1565495,"2026-07-28 23:00:00","18205","0.925","218.8","2.548","228.5","1019.308","26.98","76.03","NAN","0.0"],
    [1565496,"2026-07-28 23:10:00","18206","0.805","211.2","2.025","204.7","1019.323","26.94","76.69","NAN","0.0"],
    [1565497,"2026-07-28 23:20:00","18207","0.8759999999999999","218.7","2.679","232.4","1019.326","26.84","77.46","NAN","0.0"],
    [1565498,"2026-07-28 23:30:00","18208","0.635","212.9","1.993","199.6","1019.323","26.91","77.43","NAN","0.0"],
    [1565499,"2026-07-28 23:40:00","18209","0.747","212.8","1.9269999999999998","280.1","1019.2710000000001","26.78","78.5","NAN","0.0"],
    [1565500,"2026-07-28 23:50:00","18210","0.7559999999999999","230.6","2.7439999999999998","236.3","1019.1189999999999","26.67","78.74","NAN","0.0"],
    [1565501,"2026-07-29 00:00:00","18211","0.7759999999999999","238.0","2.417","258.8","1019.1410000000001","26.92","75.42","NAN","0.0"],
    [1565502,"2026-07-29 00:10:00","18212","0.6609999999999999","218.9","1.895","251.5","1019.0889999999999","26.94","75.9","NAN","0.0"],
    [1565503,"2026-07-29 00:20:00","18213","0.65","217.3","1.666","240.3","1019.076","26.76","77.2","NAN","0.0"],
    [1565504,"2026-07-29 00:30:00","18214","0.738","243.1","1.993","266.9","1018.9860000000001","26.71","75.7","NAN","0.0"],
    [1565505,"2026-07-29 00:40:00","18215","1.1420000000000001","236.6","2.548","241.2","1018.862","26.89","74.55","NAN","0.0"],
    [1565506,"2026-07-29 00:50:00","18216","0.948","241.8","2.515","226.3","1018.812","26.85","75","NAN","0.0"],
    [1565507,"2026-07-29 01:00:00","18217","0.5329999999999999","221.2","2.123","222.3","1018.697","26.84","75.22","NAN","0.0"],
    [1565508,"2026-07-29 01:10:00","18218","0.809","213.6","2.287","201.0","1018.568","26.54","76.94","NAN","0.0"],
    [1565509,"2026-07-29 01:20:00","18219","0.748","212.8","1.633","232.0","1018.553","26.43","77.62","NAN","0.0"],
    [1565510,"2026-07-29 01:30:00","18220","0.868","219.2","2.254","245.0","1018.5260000000001","26.39","77.65","NAN","0.0"],
    [1565511,"2026-07-29 01:40:00","18221","0.857","222.5","2.842","250.8","1018.578","26.55","76.66","NAN","0.0"],
    [1565512,"2026-07-29 01:50:00","18222","0.42100000000000004","210.5","1.209","216.0","1018.451","26.43","77.91","NAN","0.0"],
    [1565513,"2026-07-29 02:00:00","18223","0.677","202.9","1.4369999999999998","219.1","1018.336","26.29","79.03","NAN","0.0"],
    [1565514,"2026-07-29 02:10:00","18224","0.76","203.1","1.829","198.1","1018.329","26.14","80.6","NAN","0.0"],
    [1565515,"2026-07-29 02:20:00","18225","0.898","207.0","1.9269999999999998","196.8","1018.329","26.13","81.3","NAN","0.0"],
    [1565516,"2026-07-29 02:30:00","18226","0.977","202.0","1.7309999999999999","187.4","1018.329","26.1","81.9","NAN","0.0"],
    [1565517,"2026-07-29 02:40:00","18227","0.932","210.6","2.254","206.9","1018.329","26.03","81.8","NAN","0.0"],
    [1565518,"2026-07-29 02:50:00","18228","0.564","210.3","1.5030000000000001","205.1","1018.329","26.05","81.7","NAN","0.0"],
    [1565519,"2026-07-29 03:00:00","18229","0.619","207.2","1.5030000000000001","208.1","1018.324","26.02","82.8","NAN","0.0"],
    [1565520,"2026-07-29 03:10:00","18230","0.611","208.7","1.47","186.4","1018.304","25.97","83.2","NAN","0.0"],
    [1565521,"2026-07-29 03:20:00","18231","1.0190000000000001","205.7","2.0580000000000003","208.2","1018.329","25.94","83.7","NAN","0.0"],
    [1565522,"2026-07-29 03:30:00","18232","1.011","214.3","1.993","223.0","1018.329","25.91","82.3","NAN","0.0"],
    [1565523,"2026-07-29 03:40:00","18233","0.998","219.0","2.417","233.1","1018.301","25.95","81.5","NAN","0.0"],
    [1565524,"2026-07-29 03:50:00","18234","0.9059999999999999","218.9","2.0909999999999997","241.0","1018.2769999999999","25.99","80.5","NAN","0.0"],
    [1565525,"2026-07-29 04:00:00","18235","0.8","223.7","1.764","217.7","1018.2769999999999","26.03","79.39","NAN","0.0"],
    [1565526,"2026-07-29 04:10:00","18236","0.816","212.8","1.96","240.5","1018.2689999999999","26.01","79.3","NAN","0.0"],
    [1565527,"2026-07-29 04:20:00","18237","0.7929999999999999","212.9","1.797","224.0","1018.319","25.94","79.87","NAN","0.0"],
    [1565528,"2026-07-29 04:30:00","18238","0.97","205.8","1.7309999999999999","204.9","1018.329","25.89","80.3","NAN","0.0"],
    [1565529,"2026-07-29 04:40:00","18239","0.698","195.7","1.4369999999999998","171.1","1018.3839999999999","25.79","82.3","NAN","0.0"],
    [1565530,"2026-07-29 04:50:00","18240","0.7170000000000001","192.6","1.3719999999999999","185.7","1018.451","25.71","83.1","NAN","0.0"],
    [1565531,"2026-07-29 05:00:00","18241","0.7829999999999999","212.0","1.7309999999999999","242.3","1018.523","25.64","81.9","NAN","0.0"],
    [1565532,"2026-07-29 05:10:00","18242","0.7390000000000001","208.0","1.699","216.1","1018.576","25.65","79.7","NAN","0.0"],
    [1565533,"2026-07-29 05:20:00","18243","1.061","242.2","2.352","247.7","1018.688","26","76.17","NAN","0.0"],
    [1565534,"2026-07-29 05:30:00","18244","0.47200000000000003","234.5","1.405","252.4","1018.795","26.42","74.05","NAN","0.0"],
    [1565535,"2026-07-29 05:40:00","18245","0.47600000000000003","215.5","1.339","199.5","1018.7769999999999","26.47","74.76","NAN","0.0"],
    [1565536,"2026-07-29 05:50:00","18246","0.32299999999999995","224.6","1.209","192.9","1018.74","26.53","74.22","NAN","0.0"],
    [1565537,"2026-07-29 06:00:00","18247","0.6679999999999999","225.8","1.764","253.6","1018.82","26.85","71.79","NAN","0.0"],
    [1565538,"2026-07-29 06:10:00","18248","0.7040000000000001","215.7","1.829","246.8","1018.825","26.94","71.26","NAN","0.0"],
    [1565539,"2026-07-29 06:20:00","18249","0.8109999999999999","203.4","1.666","197.4","1018.827","27.24","70.88","NAN","0.0"],
    [1565540,"2026-07-29 06:30:00","18250","0.6679999999999999","207.1","1.895","190.5","1018.882","27.43","71.05","NAN","0.0"],
    [1565541,"2026-07-29 06:40:00","18251","0.763","226.5","1.895","199.5","1019.03","27.7","69.42","NAN","0.0"],
    [1565542,"2026-07-29 06:50:00","18252","1.016","215.2","2.319","230.0","1019.1189999999999","27.81","69.24","NAN","0.0"],
    [1565543,"2026-07-29 07:00:00","18253","1.005","215.3","2.7769999999999997","215.8","1019.1389999999999","27.93","69.32","NAN","0.0"],
    [1565544,"2026-07-29 07:10:00","18254","1.105","214.3","2.613","195.1","1019.1310000000001","28.29","68.12","NAN","0.0"],
    [1565545,"2026-07-29 07:20:00","18255","0.924","214.3","2.483","220.1","1019.173","28.59","67.6","NAN","0.0"],
    [1565546,"2026-07-29 07:30:00","18256","1.311","224.0","2.842","246.4","1019.178","28.75","66.69","NAN","0.0"],
    [1565547,"2026-07-29 07:40:00","18257","1.354","213.4","2.45","200.1","1019.145","28.88","66.14","NAN","0.0"],
    [1565548,"2026-07-29 07:50:00","18258","1.3869999999999998","204.2","2.7110000000000003","215.3","1019.189","28.98","65.65","NAN","0.0"],
    [1565549,"2026-07-29 08:00:00","18259","1.403","215.2","3.071","235.8","1019.215","29.23","64.7","NAN","0.0"],
    [1565550,"2026-07-29 08:10:00","18260","1.127","226.8","3.0380000000000003","203.9","1019.222","29.45","64.07","NAN","0.0"],
    [1565551,"2026-07-29 08:20:00","18261","1.432","213.3","3.463","210.6","1019.206","29.67","63.52","NAN","0.0"],
    [1565552,"2026-07-29 08:30:00","18262","1.075","207.1","2.548","211.6","1019.21","29.89","61.74","NAN","0.0"],
    [1565553,"2026-07-29 08:40:00","18263","1.183","188.4","3.7569999999999997","181.1","1019.188","30.12","63.2","NAN","0.0"],
    [1565554,"2026-07-29 08:50:00","18264","2.479","174.5","4.769","169.4","1019.195","29.27","70.59","NAN","0.0"],
    [1565555,"2026-07-29 09:00:00","18265","3.313","172.9","6.011","176.2","1019.2260000000001","28.85","72.95","NAN","0.0"],
    [1565556,"2026-07-29 09:10:00","18266","2.88","177.7","5.455","179.9","1019.2539999999999","29.01","72.06","NAN","0.0"],
    [1565557,"2026-07-29 09:20:00","18267","2.6489999999999996","178.3","4.835","170.5","1019.298","29.31","69.76","NAN","0.0"],
    [1565558,"2026-07-29 09:30:00","18268","4.005","174.5","6.042999999999999","173.6","1019.385","28.91","72.64","NAN","0.0"],
    [1565559,"2026-07-29 09:40:00","18269","3.985","174.7","6.207000000000001","175.6","1019.443","28.61","74.1","NAN","0.0"],
    [1565560,"2026-07-29 09:50:00","18270","3.755","174.6","5.847","175.1","1019.503","28.67","74.28","NAN","0.0"],
    [1565561,"2026-07-29 10:00:00","18271","3.555","169.8","5.455","167.4","1019.505","28.79","73.5","NAN","0.0"],
    [1565562,"2026-07-29 10:10:00","18272","3.82","172.7","6.239","173.7","1019.5189999999999","28.78","74.39","NAN","0.0"],
    [1565563,"2026-07-29 10:20:00","18273","3.9189999999999996","173.7","5.749","161.5","1019.439","28.95","72.43","NAN","0.0"],
    [1565564,"2026-07-29 10:30:00","18274","3.445","174.5","5.782","184.4","1019.418","29.11","71.83","NAN","0.0"],
    [1565565,"2026-07-29 10:40:00","18275","3.003","182.1","6.042999999999999","185.4","1019.41","29.8","67.97","NAN","0.0"],
    [1565566,"2026-07-29 10:50:00","18276","2.85","183.5","4.671","172.8","1019.441","29.87","67.41","NAN","0.0"],
    [1565567,"2026-07-29 11:00:00","18277","2.383","187.5","5.455","202.3","1019.487","30.4","64.76","NAN","0.0"],
    [1565568,"2026-07-29 11:10:00","18278","1.8969999999999998","194.4","5.553","199.1","1019.4810000000001","30.87","62.02","NAN","0.0"],
    [1565569,"2026-07-29 11:20:00","18279","2.738","186.2","5.39","173.8","1019.324","30.69","62.94","NAN","0.0"],
    [1565570,"2026-07-29 11:30:00","18280","2.519","186.6","5.1610000000000005","168.4","1019.309","30.83","62.45","NAN","0.0"],
    [1565571,"2026-07-29 11:40:00","18281","2.688","187.8","4.508","213.4","1019.2510000000001","30.63","61.96","NAN","0.0"],
    [1565572,"2026-07-29 11:50:00","18282","3.168","184.2","5.227","174.4","1019.215","30.53","61.81","NAN","0.0"],
    [1565573,"2026-07-29 12:00:00","18283","3.4010000000000002","189.2","6.599","174.3","1019.178","30.43","60.77","NAN","0.0"],
    [1565574,"2026-07-29 12:10:00","18284","2.7560000000000002","196.0","5.325","184.5","1019.068","30.85","60.62","NAN","0.0"],
    [1565575,"2026-07-29 12:20:00","18285","2.374","194.7","5.422999999999999","183.9","1019.13","31.12","60.87","NAN","0.0"],
    [1565576,"2026-07-29 12:30:00","18286","3.27","189.4","6.7620000000000005","179.5","1019.074","30.91","61.7","NAN","0.0"],
    [1565577,"2026-07-29 12:40:00","18287","2.7110000000000003","196.4","5.978","195.5","1019.048","30.84","60.92","NAN","0.0"],
    [1565578,"2026-07-29 12:50:00","18288","2.931","191.6","6.599","167.7","1019.0239999999999","30.94","59.92","NAN","0.0"],
    [1565579,"2026-07-29 13:00:00","18289","2.853","193.9","5.749","176.1","1019.002","30.94","59.27","NAN","0.0"],
    [1565580,"2026-07-29 13:10:00","18290","2.279","199.9","6.7620000000000005","171.0","1018.939","31.3","57.17","NAN","0.0"],
    [1565581,"2026-07-29 13:20:00","18291","2.4859999999999998","202.4","6.141","190.8","1018.825","32.07","50.85","NAN","0.0"],
    [1565582,"2026-07-29 13:30:00","18292","2.373","204.8","5.684","219.3","1018.78","32.07","50.84","NAN","0.0"],
    [1565583,"2026-07-29 13:40:00","18293","2.735","208.1","7.611000000000001","202.7","1018.7660000000001","32.12","50.4","NAN","0.0"],
    [1565584,"2026-07-29 13:50:00","18294","3.003","201.1","7.023","198.0","1018.7360000000001","31.73","52.07","NAN","0.0"],
    [1565585,"2026-07-29 14:00:00","18295","2.496","201.5","6.337000000000001","197.6","1018.7080000000001","31.89","52.55","NAN","0.0"],
    [1565586,"2026-07-29 14:10:00","18296","2.4290000000000003","205.7","6.011","215.5","1018.6510000000001","31.59","53.46","NAN","0.0"],
    [1565587,"2026-07-29 14:20:00","18297","3.318","205.6","7.285","213.6","1018.4830000000001","31.79","48.77","NAN","0.0"],
    [1565588,"2026-07-29 14:30:00","18298","2.762","201.7","6.435","191.4","1018.456","31.93","49.47","NAN","0.0"],
    [1565589,"2026-07-29 14:40:00","18299","3.17","202.8","6.729","193.9","1018.3939999999999","31.52","48.09","NAN","0.0"],
    [1565590,"2026-07-29 14:50:00","18300","2.908","203.4","7.121","190.2","1018.375","31.87","50.04","NAN","0.0"],
    [1565591,"2026-07-29 15:00:00","18301","3.1630000000000003","205.7","7.6770000000000005","220.4","1018.342","31.61","49.77","NAN","0.0"],
    [1565592,"2026-07-29 15:10:00","18302","2.363","206.0","5.325","179.3","1018.255","31.79","50.65","NAN","0.0"],
    [1565593,"2026-07-29 15:20:00","18303","2.365","215.4","5.945","191.3","1018.243","32.17","49.56","NAN","0.0"],
    [1565594,"2026-07-29 15:30:00","18304","2.458","208.6","5.978","202.3","1018.248","31.96","48.66","NAN","0.0"],
    [1565595,"2026-07-29 15:40:00","18305","2.408","209.1","5.031000000000001","192.3","1018.177","31.83","48.36","NAN","0.0"],
    [1565596,"2026-07-29 15:50:00","18306","2.219","210.8","5.945","209.5","1018.06","31.87","48.58","NAN","0.0"],
    [1565597,"2026-07-29 16:00:00","18307","1.8159999999999998","218.7","6.141","207.3","1018.005","32.28","47.82","NAN","0.0"],
    [1565598,"2026-07-29 16:10:00","18308","1.838","213.1","5.063","218.0","1017.966","32.43","47.41","NAN","0.0"],
    [1565599,"2026-07-29 16:20:00","18309","2.585","207.9","5.7170000000000005","195.4","1017.8939999999999","31.92","48.62","NAN","0.0"],
    [1565600,"2026-07-29 16:30:00","18310","2.59","209.3","5.749","210.8","1017.9680000000001","31.67","48.1","NAN","0.0"],
    [1565601,"2026-07-29 16:40:00","18311","2.256","207.3","5.129","175.4","1017.87","31.52","50.74","NAN","0.0"],
    [1565602,"2026-07-29 16:50:00","18312","2.218","211.3","5.194","207.8","1017.778","31.33","50.37","NAN","0.0"],
    [1565603,"2026-07-29 17:00:00","18313","2.823","204.3","5.455","206.4","1017.78","31.12","51.82","NAN","0.0"],
    [1565604,"2026-07-29 17:10:00","18314","2.89","201.2","6.566","213.1","1017.705","30.91","52.19","NAN","0.0"],
    [1565605,"2026-07-29 17:20:00","18315","2.15","207.8","5.978","194.4","1017.685","30.95","52.59","NAN","0.0"],
    [1565606,"2026-07-29 17:30:00","18316","2.017","205.6","5.292000000000001","208.0","1017.665","31.08","53.02","NAN","0.0"],
    [1565607,"2026-07-29 17:40:00","18317","1.824","211.3","4.737","237.0","1017.677","30.94","54.06","NAN","0.0"],
    [1565608,"2026-07-29 17:50:00","18318","1.588","212.5","3.92","189.0","1017.6619999999999","30.95","53.53","NAN","0.0"],
    [1565609,"2026-07-29 18:00:00","18319","1.162","214.1","3.201","221.5","1017.596","31","54.65","NAN","0.0"],
    [1565610,"2026-07-29 18:10:00","18320","1.328","215.5","4.181","216.7","1017.585","30.72","55.09","NAN","0.0"],
    [1565611,"2026-07-29 18:20:00","18321","1.8769999999999998","206.5","4.737","225.0","1017.684","30.26","57.69","NAN","0.0"],
    [1565612,"2026-07-29 18:30:00","18322","1.235","212.7","4.573","210.2","1017.74","29.95","59.95","NAN","0.0"],
    [1565613,"2026-07-29 18:40:00","18323","1.133","227.9","3.463","212.5","1017.805","29.87","60.06","NAN","0.0"],
    [1565614,"2026-07-29 18:50:00","18324","1.355","221.1","3.7239999999999998","224.6","1017.824","29.71","60.48","NAN","0.0"],
    [1565615,"2026-07-29 19:00:00","18325","1.258","218.1","3.136","230.3","1017.84","29.58","60.29","NAN","0.0"],
    [1565616,"2026-07-29 19:10:00","18326","1.284","215.6","3.005","264.4","1017.923","29.43","60.63","NAN","0.0"],
    [1565617,"2026-07-29 19:20:00","18327","1.69","215.7","3.463","222.6","1017.96","29.23","60.99","NAN","0.0"],
    [1565618,"2026-07-29 19:30:00","18328","1.445","221.3","3.593","233.3","1018.028","29.11","61.23","NAN","0.0"],
    [1565619,"2026-07-29 19:40:00","18329","1.306","222.0","3.7239999999999998","242.7","1018.062","29.02","61.4","NAN","0.0"],
    [1565620,"2026-07-29 19:50:00","18330","1.345","218.5","2.613","232.0","1018.102","29","61.41","NAN","0.0"],
    [1565621,"2026-07-29 20:00:00","18331","1.444","229.2","3.92","240.1","1018.299","28.82","61.98","NAN","0.0"],
    [1565622,"2026-07-29 20:10:00","18332","0.862","223.9","2.7439999999999998","218.8","1018.446","28.8","62.39","NAN","0.0"],
    [1565623,"2026-07-29 20:20:00","18333","1.295","220.9","3.103","226.4","1018.635","28.63","64.09","NAN","0.0"],
    [1565624,"2026-07-29 20:30:00","18334","1.264","224.3","2.9730000000000003","218.8","1018.748","28.5","65.42","NAN","0.0"],
    [1565625,"2026-07-29 20:40:00","18335","0.8290000000000001","220.9","2.0909999999999997","234.8","1018.827","28.4","66.14","NAN","0.0"],
    [1565626,"2026-07-29 20:50:00","18336","1.046","214.6","2.483","228.4","1018.9","28.35","67.16","NAN","0.0"],
    [1565627,"2026-07-29 21:00:00","18337","1.028","229.5","2.352","279.8","1018.932","28.25","68.55","NAN","0.0"],
    [1565628,"2026-07-29 21:10:00","18338","1.0090000000000001","218.8","2.548","221.4","1018.947","28.29","68.93","NAN","0.0"],
    [1565629,"2026-07-29 21:20:00","18339","0.873","219.4","2.45","223.6","1018.954","28.16","69.9","NAN","0.0"],
    [1565630,"2026-07-29 21:30:00","18340","0.888","242.7","2.548","234.7","1019.039","28.14","69.78","NAN","0.0"],
    [1565631,"2026-07-29 21:40:00","18341","1.6369999999999998","250.8","3.463","239.6","1018.934","28.09","70","NAN","0.0"],
    [1565632,"2026-07-29 21:50:00","18342","0.912","235.2","2.385","245.6","1018.852","28.08","70.2","NAN","0.0"],
    [1565633,"2026-07-29 22:00:00","18343","0.831","231.2","2.7439999999999998","230.0","1018.8989999999999","27.95","71","NAN","0.0"],
    [1565634,"2026-07-29 22:10:00","18344","0.9640000000000001","231.7","2.352","250.1","1018.827","27.96","70.35","NAN","0.0"],
    [1565635,"2026-07-29 22:20:00","18345","0.588","235.0","1.666","244.7","1018.827","28","69.79","NAN","0.0"],
    [1565636,"2026-07-29 22:30:00","18346","0.882","210.5","1.829","200.0","1018.827","27.85","71.52","NAN","0.0"],
    [1565637,"2026-07-29 22:40:00","18347","0.951","208.6","1.993","214.5","1018.827","27.52","72.18","NAN","0.0"],
    [1565638,"2026-07-29 22:50:00","18348","0.8909999999999999","207.6","1.96","231.2","1018.9019999999999","27.43","71.99","NAN","0.0"],
    [1565639,"2026-07-29 23:00:00","18349","1.085","199.6","1.699","189.4","1018.9839999999999","27.35","70.45","NAN","0.0"],
    [1565640,"2026-07-29 23:10:00","18350","0.831","207.5","1.797","221.0","1019.076","27.41","68.69","NAN","0.0"],
    [1565641,"2026-07-29 23:20:00","18351","0.785","217.0","1.666","203.5","1019.076","27.48","67.5","NAN","0.0"],
    [1565642,"2026-07-29 23:30:00","18352","1.031","225.2","2.221","221.2","1019.076","27.53","67.06","NAN","0.0"],
    [1565643,"2026-07-29 23:40:00","18353","1.022","222.4","2.875","208.9","1019.076","27.48","67.18","NAN","0.0"],
    [1565644,"2026-07-29 23:50:00","18354","1.148","229.6","3.528","223.8","1019.064","27.43","69.63","NAN","0.0"],
    [1565645,"2026-07-30 00:00:00","18355","0.711","241.3","2.45","238.0","1019.076","27.36","72.09","NAN","0.0"],
    [1565646,"2026-07-30 00:10:00","18356","0.8759999999999999","237.4","2.7110000000000003","267.9","1019.056","27.22","73.87","NAN","0.0"],
    [1565647,"2026-07-30 00:20:00","18357","0.741","235.9","2.7439999999999998","240.4","1018.9639999999999","27.14","75.02","NAN","0.0"],
    [1565648,"2026-07-30 00:30:00","18358","1.2930000000000001","249.0","3.887","217.9","1018.8889999999999","27.09","76.71","NAN","0.0"],
    [1565649,"2026-07-30 00:40:00","18359","1.8319999999999999","247.6","4.051","240.5","1018.825","26.89","79.81","NAN","0.0"],
    [1565650,"2026-07-30 00:50:00","18360","2.033","242.6","3.985","233.1","1018.7769999999999","26.74","82.4","NAN","0.0"],
    [1565651,"2026-07-30 01:00:00","18361","0.8690000000000001","241.4","2.156","232.2","1018.702","26.7","83.8","NAN","0.0"],
    [1565652,"2026-07-30 01:10:00","18362","0.657","234.3","2.123","193.4","1018.6080000000001","26.67","83.9","NAN","0.0"],
    [1565653,"2026-07-30 01:20:00","18363","1.0190000000000001","227.8","2.842","274.5","1018.578","26.63","83.1","NAN","0.0"],
    [1565654,"2026-07-30 01:30:00","18364","0.758","232.0","2.287","259.1","1018.571","26.45","82.7","NAN","0.0"],
    [1565655,"2026-07-30 01:40:00","18365","1.405","241.2","2.907","266.1","1018.5210000000001","26.52","74.01","NAN","0.0"],
    [1565656,"2026-07-30 01:50:00","18366","1.196","234.7","2.189","232.6","1018.4630000000001","26.77","69.38","NAN","0.0"],
    [1565657,"2026-07-30 02:00:00","18367","0.569","214.7","1.339","227.1","1018.456","26.77","70.31","NAN","0.0"],
    [1565658,"2026-07-30 02:10:00","18368","0.7979999999999999","205.3","1.601","203.6","1018.453","26.5","70.15","NAN","0.0"],
    [1565659,"2026-07-30 02:20:00","18369","0.9490000000000001","203.4","1.535","191.1","1018.448","26.23","68.96","NAN","0.0"],
    [1565660,"2026-07-30 02:30:00","18370","0.8440000000000001","202.3","1.601","202.1","1018.329","26.25","68.37","NAN","0.0"],
    [1565661,"2026-07-30 02:40:00","18371","0.7809999999999999","204.3","1.9269999999999998","206.6","1018.319","26.35","67.31","NAN","0.0"],
    [1565662,"2026-07-30 02:50:00","18372","0.9470000000000001","206.4","1.699","191.2","1018.329","26.32","67.16","NAN","0.0"],
    [1565663,"2026-07-30 03:00:00","18373","0.889","202.1","1.5030000000000001","191.2","1018.279","26.27","67.75","NAN","0.0"],
    [1565664,"2026-07-30 03:10:00","18374","0.9229999999999999","207.3","1.633","193.8","1018.1469999999999","26.27","69.58","NAN","0.0"],
    [1565665,"2026-07-30 03:20:00","18375","0.8220000000000001","212.7","1.666","200.7","1018.09","26.25","69.89","NAN","0.0"],
    [1565666,"2026-07-30 03:30:00","18376","1.0590000000000002","205.3","1.797","198.1","1018.072","26.19","70.4","NAN","0.0"],
    [1565667,"2026-07-30 03:40:00","18377","0.813","211.3","1.4369999999999998","220.0","1018.0219999999999","26.21","72.14","NAN","0.0"],
    [1565668,"2026-07-30 03:50:00","18378","0.981","211.5","1.895","197.7","1017.92","26.17","71.48","NAN","0.0"],
    [1565669,"2026-07-30 04:00:00","18379","0.8340000000000001","221.1","1.8619999999999999","218.8","1017.831","26.25","70.72","NAN","0.0"],
    [1565670,"2026-07-30 04:10:00","18380","0.515","220.4","1.5030000000000001","206.0","1017.818","26.29","70.4","NAN","0.0"],
    [1565671,"2026-07-30 04:20:00","18381","0.77","218.8","2.025","243.0","1017.803","26.29","70.76","NAN","0.0"],
    [1565672,"2026-07-30 04:30:00","18382","0.614","213.4","1.274","200.7","1017.818","26.23","71.2","NAN","0.0"],
    [1565673,"2026-07-30 04:40:00","18383","0.7659999999999999","214.7","1.601","274.3","1017.841","26.09","71.48","NAN","0.0"],
    [1565674,"2026-07-30 04:50:00","18384","0.706","215.0","1.895","255.7","1017.8860000000001","26.11","70.84","NAN","0.0"],
    [1565675,"2026-07-30 05:00:00","18385","0.636","207.8","1.4369999999999998","201.9","1018.035","26.1","71.04","NAN","0.0"],
    [1565676,"2026-07-30 05:10:00","18386","0.9790000000000001","205.4","1.829","194.9","1018.077","25.99","71.41","NAN","0.0"],
    [1565677,"2026-07-30 05:20:00","18387","0.912","208.1","1.7309999999999999","242.0","1018.12","26.06","70.69","NAN","0.0"],
    [1565678,"2026-07-30 05:30:00","18388","0.764","210.1","1.5030000000000001","181.2","1018.107","26.32","70.19","NAN","0.0"],
    [1565679,"2026-07-30 05:40:00","18389","0.634","213.3","1.5030000000000001","205.9","1018.08","26.49","70.38","NAN","0.0"],
    [1565680,"2026-07-30 05:50:00","18390","0.752","215.3","1.699","237.2","1018.085","26.66","69.98","NAN","0.0"],
    [1565681,"2026-07-30 06:00:00","18391","1.016","223.7","2.548","238.3","1018.209","27.1","67.73","NAN","0.0"],
    [1565682,"2026-07-30 06:10:00","18392","1.3259999999999998","235.9","3.463","224.6","1018.202","27.36","66.19","NAN","0.0"],
    [1565683,"2026-07-30 06:20:00","18393","1.7930000000000001","239.3","3.528","259.8","1018.125","27.48","66.84","NAN","0.0"],
    [1565684,"2026-07-30 06:30:00","18394","1.5219999999999998","239.9","3.92","230.6","1018.204","27.49","67.49","NAN","0.0"],
    [1565685,"2026-07-30 06:40:00","18395","1.272","239.3","3.103","208.8","1018.324","27.74","67.11","NAN","0.0"],
    [1565686,"2026-07-30 06:50:00","18396","1.805","245.1","3.365","245.2","1018.329","27.82","67.34","NAN","0.0"],
    [1565687,"2026-07-30 07:00:00","18397","1.5759999999999998","263.8","3.7569999999999997","269.4","1018.326","28.02","66.52","NAN","0.0"],
    [1565688,"2026-07-30 07:10:00","18398","1.073","245.2","2.7439999999999998","288.9","1018.26","28.26","66.1","NAN","0.0"],
    [1565689,"2026-07-30 07:20:00","18399","0.8","226.3","2.385","194.1","1018.2389999999999","28.86","65.61","NAN","0.0"],
    [1565690,"2026-07-30 07:30:00","18400","0.971","231.5","2.45","253.8","1018.317","29.12","64.2","NAN","0.0"],
    [1565691,"2026-07-30 07:40:00","18401","1.7830000000000001","243.9","3.593","242.2","1018.285","28.96","64.64","NAN","0.0"],
    [1565692,"2026-07-30 07:50:00","18402","1.595","249.8","3.299","256.1","1018.327","29.2","62.76","NAN","0.0"],
    [1565693,"2026-07-30 08:00:00","18403","1.857","231.7","4.835","214.7","1018.385","29.44","62.01","NAN","0.0"],
    [1565694,"2026-07-30 08:10:00","18404","2.112","245.8","4.345","249.3","1018.39","29.54","61.03","NAN","0.0"],
    [1565695,"2026-07-30 08:20:00","18405","1.794","243.9","4.345","235.0","1018.3989999999999","29.66","61.42","NAN","0.0"],
    [1565696,"2026-07-30 08:30:00","18406","1.926","226.4","4.247","230.5","1018.4010000000001","29.98","61.22","NAN","0.0"],
    [1565697,"2026-07-30 08:40:00","18407","1.085","218.9","3.267","212.0","1018.419","30.31","60.31","NAN","0.0"],
    [1565698,"2026-07-30 08:50:00","18408","1.653","223.8","3.495","238.1","1018.377","30.73","59.69","NAN","0.0"],
    [1565699,"2026-07-30 09:00:00","18409","1.3869999999999998","213.6","3.332","167.2","1018.352","30.94","60.92","NAN","0.0"],
    [1565700,"2026-07-30 09:10:00","18410","1.869","216.9","5.063","228.8","1018.334","30.79","61.94","NAN","0.0"],
    [1565701,"2026-07-30 09:20:00","18411","1.5230000000000001","197.7","3.103","175.3","1018.3389999999999","31.06","61.62","NAN","0.0"],
    [1565702,"2026-07-30 09:30:00","18412","2.33","185.3","4.835","169.8","1018.35","30.83","63.01","NAN","0.0"],
    [1565703,"2026-07-30 09:40:00","18413","3.138","174.8","5.292000000000001","180.2","1018.337","29.87","69.35","NAN","0.0"],
    [1565704,"2026-07-30 09:50:00","18414","4.176","168.6","6.631","171.8","1018.285","29.15","73.77","NAN","0.0"],
    [1565705,"2026-07-30 10:00:00","18415","4.427","170.0","6.37","163.1","1018.248","28.88","74.9","NAN","0.0"],
    [1565706,"2026-07-30 10:10:00","18416","4.263999999999999","172.6","7.252000000000001","170.8","1018.275","28.79","75.51","NAN","0.0"],
    [1565707,"2026-07-30 10:20:00","18417","4.0680000000000005","171.2","6.042999999999999","178.1","1018.2719999999999","28.83","75.6","NAN","0.0"],
    [1565708,"2026-07-30 10:30:00","18418","3.6510000000000002","172.9","5.847","173.9","1018.305","28.86","75.82","NAN","0.0"],
    [1565709,"2026-07-30 10:40:00","18419","3.7539999999999996","170.1","6.0760000000000005","179.6","1018.3","29.16","74.36","NAN","0.0"],
    [1565710,"2026-07-30 10:50:00","18420","3.694","172.4","5.912999999999999","182.4","1018.227","28.99","76.39","NAN","0.0"],
    [1565711,"2026-07-30 11:00:00","18421","3.0380000000000003","178.3","5.782","180.7","1018.191","29.29","75.4","NAN","0.0"],
    [1565712,"2026-07-30 11:10:00","18422","3.429","178.3","5.815","174.6","1018.235","29.37","74.9","NAN","0.0"],
    [1565713,"2026-07-30 11:20:00","18423","3.532","177.0","6.141","173.7","1018.16","29.25","75.78","NAN","0.0"],
    [1565714,"2026-07-30 11:30:00","18424","3.5260000000000002","174.4","5.455","171.1","1018.087","29.37","75.33","NAN","0.0"],
    [1565715,"2026-07-30 11:40:00","18425","3.3510000000000004","175.1","5.945","163.5","1018.054","29.5","75.01","NAN","0.0"],
    [1565716,"2026-07-30 11:50:00","18426","3.7089999999999996","176.7","6.435","165.8","1017.9960000000001","29.54","73.3","NAN","0.0"],
    [1565717,"2026-07-30 12:00:00","18427","3.457","182.7","6.109","166.7","1018.045","29.86","72.51","NAN","0.0"],
    [1565718,"2026-07-30 12:10:00","18428","4.098","180.0","6.468","173.8","1018.0980000000001","29.73","73.16","NAN","0.0"],
    [1565719,"2026-07-30 12:20:00","18429","4.133","178.5","6.729","166.9","1018.1039999999999","29.55","74.25","NAN","0.0"],
    [1565720,"2026-07-30 12:30:00","18430","4.504","174.9","7.252000000000001","176.9","1018.1039999999999","29.41","74.43","NAN","0.0"],
    [1565721,"2026-07-30 12:40:00","18431","3.59","179.8","6.141","187.3","1018.085","29.92","69.86","NAN","0.0"],
    [1565722,"2026-07-30 12:50:00","18432","3.892","180.7","8.59","170.0","1018.07","30.21","65.92","NAN","0.0"],
    [1565723,"2026-07-30 13:00:00","18433","3.335","182.9","6.207000000000001","171.9","1018.023","30.4","66.81","NAN","0.0"],
    [1565724,"2026-07-30 13:10:00","18434","3.523","179.1","5.945","166.0","1017.8969999999999","30.31","67.49","NAN","0.0"],
    [1565725,"2026-07-30 13:20:00","18435","3.0580000000000003","185.4","6.042999999999999","175.2","1017.8","30.34","67.55","NAN","0.0"],
    [1565726,"2026-07-30 13:30:00","18436","3.049","183.6","5.912999999999999","173.0","1017.738","30.38","67.29","NAN","0.0"],
    [1565727,"2026-07-30 13:40:00","18437","3.602","186.4","7.218999999999999","179.8","1017.683","30.41","66.05","NAN","0.0"],
    [1565728,"2026-07-30 13:50:00","18438","3.455","188.2","7.971","171.6","1017.596","30.39","65.63","NAN","0.0"],
    [1565729,"2026-07-30 14:00:00","18439","2.75","195.2","5.39","160.0","1017.5060000000001","30.98","63.15","NAN","0.0"],
    [1565730,"2026-07-30 14:10:00","18440","3.08","192.9","6.0760000000000005","167.5","1017.3919999999999","30.85","63.29","NAN","0.0"],
    [1565731,"2026-07-30 14:20:00","18441","3.1460000000000004","192.4","6.207000000000001","172.9","1017.298","30.65","64.28","NAN","0.0"],
    [1565732,"2026-07-30 14:30:00","18442","3.15","193.7","6.599","202.0","1017.28","30.79","63.75","NAN","0.0"],
    [1565733,"2026-07-30 14:40:00","18443","3.13","192.4","6.435","194.6","1017.211","30.8","62.94","NAN","0.0"],
    [1565734,"2026-07-30 14:50:00","18444","2.846","192.0","6.272","169.9","1017.11","30.7","62.68","NAN","0.0"],
    [1565735,"2026-07-30 15:00:00","18445","2.741","198.7","5.357","169.1","1017.071","30.87","61.08","NAN","0.0"],
    [1565736,"2026-07-30 15:10:00","18446","3.2260000000000004","198.8","6.042999999999999","207.2","1017.03","30.81","60.05","NAN","0.0"],
    [1565737,"2026-07-30 15:20:00","18447","2.9010000000000002","198.7","8.92","173.5","1016.988","30.8","59.84","NAN","0.0"],
    [1565738,"2026-07-30 15:30:00","18448","2.832","205.7","6.501","193.8","1016.96","30.76","60.12","NAN","0.0"],
    [1565739,"2026-07-30 15:40:00","18449","2.1959999999999997","203.2","5.031000000000001","182.9","1016.8689999999999","31.25","58.88","NAN","0.0"],
    [1565740,"2026-07-30 15:50:00","18450","3.0589999999999997","197.8","6.501","205.2","1016.773","30.73","60.18","NAN","0.0"],
    [1565741,"2026-07-30 16:00:00","18451","2.801","198.0","5.325","197.0","1016.7739999999999","30.62","60.17","NAN","0.0"],
    [1565742,"2026-07-30 16:10:00","18452","2.59","198.1","6.403","205.2","1016.679","30.54","60.02","NAN","0.0"],
    [1565743,"2026-07-30 16:20:00","18453","2.6239999999999997","202.8","5.031000000000001","206.4","1016.549","30.69","59.09","NAN","0.0"],
    [1565744,"2026-07-30 16:30:00","18454","1.796","212.4","4.769","205.6","1016.549","31","57.43","NAN","0.0"],
    [1565745,"2026-07-30 16:40:00","18455","2.5580000000000003","210.2","5.553","198.0","1016.422","30.8","58.18","NAN","0.0"],
    [1565746,"2026-07-30 16:50:00","18456","2.615","205.7","5.422999999999999","194.9","1016.316","30.28","60.89","NAN","0.0"],
    [1565747,"2026-07-30 17:00:00","18457","2.316","200.8","5.096","187.7","1016.308","30.37","60.62","NAN","0.0"],
    [1565748,"2026-07-30 17:10:00","18458","1.6780000000000002","210.5","4.835","204.4","1016.2610000000001","30.39","60.14","NAN","0.0"],
    [1565749,"2026-07-30 17:20:00","18459","1.963","206.6","4.998","193.7","1016.184","30.33","60.17","NAN","0.0"],
    [1565750,"2026-07-30 17:30:00","18460","2.295","201.2","4.9","184.3","1016.122","30.28","59.11","NAN","0.0"],
    [1565751,"2026-07-30 17:40:00","18461","1.903","207.5","4.051","195.2","1016.0930000000001","30.01","60.04","NAN","0.0"],
    [1565752,"2026-07-30 17:50:00","18462","1.781","208.0","3.7569999999999997","226.7","1016.166","30.43","57.89","NAN","0.0"],
    [1565753,"2026-07-30 18:00:00","18463","1.7480000000000002","201.2","3.6260000000000003","190.8","1016.174","30.01","60.21","NAN","0.0"],
    [1565754,"2026-07-30 18:10:00","18464","1.524","214.2","3.659","234.2","1016.2139999999999","29.99","58.47","NAN","0.0"],
    [1565755,"2026-07-30 18:20:00","18465","1.7169999999999999","212.2","5.194","228.6","1016.2339999999999","29.84","58.65","NAN","0.0"],
    [1565756,"2026-07-30 18:30:00","18466","1.238","217.8","3.6910000000000003","215.1","1016.285","29.67","60.43","NAN","0.0"],
    [1565757,"2026-07-30 18:40:00","18467","1.314","209.9","3.9530000000000003","200.6","1016.334","29.41","61.66","NAN","0.0"],
    [1565758,"2026-07-30 18:50:00","18468","1.656","205.9","3.7569999999999997","211.3","1016.331","29.12","63.94","NAN","0.0"],
    [1565759,"2026-07-30 19:00:00","18469","1.575","219.4","3.6910000000000003","217.2","1016.336","28.96","63.93","NAN","0.0"],
    [1565760,"2026-07-30 19:10:00","18470","1.673","220.3","3.528","227.5","1016.336","28.84","64.55","NAN","0.0"],
    [1565761,"2026-07-30 19:20:00","18471","1.345","214.3","3.43","202.2","1016.436","28.75","65.33","NAN","0.0"],
    [1565762,"2026-07-30 19:30:00","18472","1.732","209.6","3.7569999999999997","210.8","1016.4580000000001","28.55","65.01","NAN","0.0"],
    [1565763,"2026-07-30 19:40:00","18473","1.421","214.9","3.822","192.4","1016.57","28.49","65.48","NAN","0.0"],
    [1565764,"2026-07-30 19:50:00","18474","1.405","230.5","3.365","269.9","1016.6469999999999","28.43","66.01","NAN","0.0"],
    [1565765,"2026-07-30 20:00:00","18475","1.594","230.6","4.051","243.8","1016.817","28.4","65.53","NAN","0.0"],
    [1565766,"2026-07-30 20:10:00","18476","1.5019999999999998","223.1","3.593","212.7","1016.834","28.35","65.61","NAN","0.0"],
    [1565767,"2026-07-30 20:20:00","18477","1.062","223.1","2.7439999999999998","214.1","1016.951","28.32","66.81","NAN","0.0"],
    [1565768,"2026-07-30 20:30:00","18478","1.186","209.7","2.7769999999999997","238.7","1017.091","28.28","67.41","NAN","0.0"],
    [1565769,"2026-07-30 20:40:00","18479","0.823","221.0","2.45","190.5","1017.255","28.15","68.51","NAN","0.0"],
    [1565770,"2026-07-30 20:50:00","18480","0.91","223.2","2.254","209.0","1017.27","28.02","68.73","NAN","0.0"],
    [1565771,"2026-07-30 21:00:00","18481","1.182","216.8","2.287","227.4","1017.332","27.95","69.42","NAN","0.0"],
    [1565772,"2026-07-30 21:10:00","18482","0.8170000000000001","218.7","2.254","205.7","1017.332","27.89","70.18","NAN","0.0"],
    [1565773,"2026-07-30 21:20:00","18483","1.0390000000000001","217.2","2.352","212.5","1017.4069999999999","27.82","71.13","NAN","0.0"],
    [1565774,"2026-07-30 21:30:00","18484","0.41100000000000003","203.3","1.895","219.1","1017.422","27.9","71.51","NAN","0.0"],
    [1565775,"2026-07-30 21:40:00","18485","0.831","209.4","1.993","202.8","1017.457","27.79","71.9","NAN","0.0"],
    [1565776,"2026-07-30 21:50:00","18486","1.225","216.2","2.352","214.9","1017.3589999999999","27.66","72.31","NAN","0.0"],
    [1565777,"2026-07-30 22:00:00","18487","0.9059999999999999","211.4","2.0580000000000003","238.8","1017.332","27.65","72.66","NAN","0.0"],
    [1565778,"2026-07-30 22:10:00","18488","0.912","222.6","2.156","228.8","1017.33","27.59","72.83","NAN","0.0"],
    [1565779,"2026-07-30 22:20:00","18489","0.5","219.6","1.699","225.6","1017.322","27.56","72.85","NAN","0.0"],
    [1565780,"2026-07-30 22:30:00","18490","0.657","213.3","1.633","197.4","1017.302","27.47","73.35","NAN","0.0"],
    [1565781,"2026-07-30 22:40:00","18491","0.486","225.9","1.96","261.0","1017.26","27.35","74.32","NAN","0.0"],
    [1565782,"2026-07-30 22:50:00","18492","0.493","241.6","1.993","232.0","1017.332","27.48","74.53","NAN","0.0"],
    [1565783,"2026-07-30 23:00:00","18493","0.545","234.1","2.515","216.1","1017.41","27.6","74.51","NAN","0.0"],
    [1565784,"2026-07-30 23:10:00","18494","0.754","235.8","2.319","252.6","1017.452","27.51","75.66","NAN","0.0"],
    [1565785,"2026-07-30 23:20:00","18495","0.6729999999999999","226.7","1.5030000000000001","227.6","1017.442","27.43","76.6","NAN","0.0"],
    [1565786,"2026-07-30 23:30:00","18496","0.5920000000000001","212.4","1.764","200.9","1017.362","27.26","77.48","NAN","0.0"],
    [1565787,"2026-07-30 23:40:00","18497","1.0190000000000001","207.7","2.0580000000000003","241.4","1017.442","27.18","78.22","NAN","0.0"],
    [1565788,"2026-07-30 23:50:00","18498","0.8270000000000001","209.2","2.025","235.1","1017.457","27.1","78.99","NAN","0.0"],
    [1565789,"2026-07-31 00:00:00","18499","0.7909999999999999","219.3","1.797","231.1","1017.439","27.04","79.22","NAN","0.0"],
    [1565790,"2026-07-31 00:10:00","18500","0.7070000000000001","218.5","1.699","223.2","1017.34","27.06","78.8","NAN","0.0"],
    [1565791,"2026-07-31 00:20:00","18501","0.825","219.5","2.189","190.1","1017.332","27.04","79.05","NAN","0.0"],
    [1565792,"2026-07-31 00:30:00","18502","0.846","229.3","1.993","223.8","1017.335","27.01","79.12","NAN","0.0"],
    [1565793,"2026-07-31 00:40:00","18503","0.517","218.9","1.993","233.5","1017.332","27.08","78.54","NAN","0.0"],
    [1565794,"2026-07-31 00:50:00","18504","0.818","215.5","1.797","214.5","1017.332","26.89","79.33","NAN","0.0"],
    [1565795,"2026-07-31 01:00:00","18505","0.682","235.3","1.9269999999999998","234.6","1017.327","26.84","79.68","NAN","0.0"],
    [1565796,"2026-07-31 01:10:00","18506","0.7879999999999999","225.0","2.156","249.1","1017.322","26.98","79.19","NAN","0.0"],
    [1565797,"2026-07-31 01:20:00","18507","0.528","220.7","1.797","286.8","1017.268","26.95","79.5","NAN","0.0"],
    [1565798,"2026-07-31 01:30:00","18508","0.726","216.4","2.254","246.8","1017.2669999999999","26.87","79.23","NAN","0.0"],
    [1565799,"2026-07-31 01:40:00","18509","0.618","244.8","1.9269999999999998","246.4","1017.248","26.94","78.64","NAN","0.0"],
    [1565800,"2026-07-31 01:50:00","18510","0.525","231.6","1.699","219.6","1017.255","27","78.96","NAN","0.0"],
    [1565801,"2026-07-31 02:00:00","18511","0.426","241.6","1.601","233.3","1017.118","27.02","79.15","NAN","0.0"],
    [1565802,"2026-07-31 02:10:00","18512","0.662","249.3","1.993","236.9","1017.08","26.98","79.34","NAN","0.0"],
    [1565803,"2026-07-31 02:20:00","18513","1.099","244.1","2.221","244.4","1017.0260000000001","27.01","79.55","NAN","0.0"],
    [1565804,"2026-07-31 02:30:00","18514","0.6709999999999999","247.3","2.025","246.0","1017.063","26.99","79.58","NAN","0.0"],
    [1565805,"2026-07-31 02:40:00","18515","0.512","218.6","1.601","215.7","1016.8739999999999","26.94","80","NAN","0.0"],
    [1565806,"2026-07-31 02:50:00","18516","0.629","245.2","1.797","232.9","1016.834","26.78","80.6","NAN","0.0"],
    [1565807,"2026-07-31 03:00:00","18517","0.703","247.0","1.699","265.5","1016.791","26.89","79.53","NAN","0.0"],
    [1565808,"2026-07-31 03:10:00","18518","0.268","203.2","1.4369999999999998","266.6","1016.62","26.92","79.97","NAN","0.0"],
    [1565809,"2026-07-31 03:20:00","18519","0.255","177.3","0.9470000000000001","177.1","1016.58","26.73","82.5","NAN","0.0"],
    [1565810,"2026-07-31 03:30:00","18520","0.462","159.2","0.98","171.9","1016.55","26.63","83","NAN","0.0"],
    [1565811,"2026-07-31 03:40:00","18521","0.322","182.7","1.045","181.8","1016.518","26.51","84.2","NAN","0.0"],
    [1565812,"2026-07-31 03:50:00","18522","0.025","28.53","0.6859999999999999","40.51","1016.555","26.25","82.5","NAN","0.0"],
    [1565813,"2026-07-31 04:00:00","18523","0.325","20.42","1.47","32.72","1016.4630000000001","25.84","72.39","NAN","0.0"],
    [1565814,"2026-07-31 04:10:00","18524","0.534","37.02","1.013","22.3","1016.4630000000001","26.07","68.76","NAN","0.0"],
    [1565815,"2026-07-31 04:20:00","18525","0.45799999999999996","35.09","0.98","30.09","1016.3430000000001","26.07","67.13","NAN","0.0"],
    [1565816,"2026-07-31 04:30:00","18526","0.414","1.595","0.8170000000000001","322.3","1016.423","26.31","65.14","NAN","0.0"],
    [1565817,"2026-07-31 04:40:00","18527","0.501","24.6","1.47","22.82","1016.336","26.29","65.18","NAN","0.0"],
    [1565818,"2026-07-31 04:50:00","18528","0.618","2.8569999999999998","1.405","12.93","1016.363","26.28","63.47","NAN","0.0"],
    [1565819,"2026-07-31 05:00:00","18529","0.545","16.33","1.209","353.3","1016.336","26.23","63.1","NAN","0.0"],
    [1565820,"2026-07-31 05:10:00","18530","0.695","356.7","1.111","2.7239999999999998","1016.383","26.3","63.18","NAN","0.0"],
    [1565821,"2026-07-31 05:20:00","18531","0.535","12.44","1.274","19.93","1016.328","26.55","63.05","NAN","0.0"],
    [1565822,"2026-07-31 05:30:00","18532","0.757","13.94","1.699","28.83","1016.278","26.53","62.44","NAN","0.0"],
    [1565823,"2026-07-31 05:40:00","18533","0.602","358.2","1.274","21.71","1016.179","26.73","62.99","NAN","0.0"],
    [1565824,"2026-07-31 05:50:00","18534","0.113","39.27","0.523","350.6","1016.203","27.06","63.98","NAN","0.0"],
    [1565825,"2026-07-31 06:00:00","18535","0.308","27.64","0.882","48.92","1016.291","27.3","63.69","NAN","0.0"],
    [1565826,"2026-07-31 06:10:00","18536","0.45899999999999996","87.7","0.882","67.73","1016.2310000000001","27.62","64.36","NAN","0.0"],
    [1565827,"2026-07-31 06:20:00","18537","0.321","93.7","0.7509999999999999","109.7","1016.212","27.98","66.68","NAN","0.0"],
    [1565828,"2026-07-31 06:30:00","18538","0.8240000000000001","142.0","1.797","164.4","1016.323","28.08","70.85","NAN","0.0"],
    [1565829,"2026-07-31 06:40:00","18539","1.006","178.4","2.254","188.9","1016.31","27.8","77.02","NAN","0.0"],
    [1565830,"2026-07-31 06:50:00","18540","0.618","185.4","1.405","152.9","1016.38","27.94","76.66","NAN","0.0"],
    [1565831,"2026-07-31 07:00:00","18541","1.3090000000000002","222.1","3.0380000000000003","242.2","1016.6410000000001","28.25","74.98","NAN","0.0"],
    [1565832,"2026-07-31 07:10:00","18542","1.204","214.9","2.5810000000000004","223.9","1016.793","28.6","74.14","NAN","0.0"],
    [1565833,"2026-07-31 07:20:00","18543","1.1540000000000001","210.8","2.679","200.9","1016.812","28.88","72.23","NAN","0.0"],
    [1565834,"2026-07-31 07:30:00","18544","1.028","218.9","3.071","206.2","1016.791","29.03","70.87","NAN","0.0"],
    [1565835,"2026-07-31 07:40:00","18545","0.907","224.4","2.45","234.4","1016.643","29.12","70.3","NAN","0.0"],
    [1565836,"2026-07-31 07:50:00","18546","0.841","231.8","2.613","260.2","1016.453","29.55","68.26","NAN","0.0"],
    [1565837,"2026-07-31 08:00:00","18547","1.252","190.9","2.45","196.9","1016.387","29.5","68.53","NAN","0.0"],
    [1565838,"2026-07-31 08:10:00","18548","1.45","194.2","2.8089999999999997","203.8","1016.316","29.44","68.24","NAN","0.0"],
    [1565839,"2026-07-31 08:20:00","18549","2.131","178.7","3.463","178.2","1016.2510000000001","28.87","72.34","NAN","0.0"],
    [1565840,"2026-07-31 08:30:00","18550","2.487","177.8","4.4430000000000005","179.9","1016.2760000000001","28.58","73.76","NAN","0.0"],
    [1565841,"2026-07-31 08:40:00","18551","2.944","176.5","4.606","180.8","1016.413","28.56","74.39","NAN","0.0"],
    [1565842,"2026-07-31 08:50:00","18552","2.883","176.1","4.704","170.4","1016.569","28.23","75.82","NAN","0.0"],
    [1565843,"2026-07-31 09:00:00","18553","2.83","178.3","4.965","178.1","1016.6389999999999","28.19","76.25","NAN","0.0"],
    [1565844,"2026-07-31 09:10:00","18554","2.872","175.6","4.41","176.4","1016.789","27.98","77.2","NAN","0.0"],
    [1565845,"2026-07-31 09:20:00","18555","3.07","174.3","4.541","182.3","1016.81","28.05","77.3","NAN","0.0"],
    [1565846,"2026-07-31 09:30:00","18556","3.0610000000000004","172.6","4.769","180.4","1016.804","28.46","75.68","NAN","0.0"],
    [1565847,"2026-07-31 09:40:00","18557","3.635","171.0","4.998","169.5","1016.796","28.32","76.69","NAN","0.0"],
    [1565848,"2026-07-31 09:50:00","18558","3.972","172.8","5.553","177.8","1016.7639999999999","28.29","78.29","NAN","0.0"],
    [1565849,"2026-07-31 10:00:00","18559","3.878","173.8","5.88","180.1","1016.6560000000001","28.31","78.9","NAN","0.0"],
    [1565850,"2026-07-31 10:10:00","18560","3.945","172.2","6.239","181.6","1016.62","28.49","77.77","NAN","0.0"],
    [1565851,"2026-07-31 10:20:00","18561","4.0760000000000005","172.5","5.782","172.2","1016.617","28.37","78.53","NAN","0.0"],
    [1565852,"2026-07-31 10:30:00","18562","3.9389999999999996","173.1","5.553","183.9","1016.6210000000001","28.4","79.06","NAN","0.0"],
    [1565853,"2026-07-31 10:40:00","18563","4.249","175.4","5.815","185.8","1016.465","28.44","79.24","NAN","0.0"],
    [1565854,"2026-07-31 10:50:00","18564","3.944","175.9","5.847","176.7","1016.3660000000001","28.38","79.3","NAN","0.0"],
    [1565855,"2026-07-31 11:00:00","18565","4.037","174.9","5.782","185.8","1016.327","28.55","78.41","NAN","0.0"],
    [1565856,"2026-07-31 11:10:00","18566","4.083","173.8","5.847","176.0","1016.312","28.52","78.48","NAN","0.0"],
    [1565857,"2026-07-31 11:20:00","18567","4.067","172.8","5.945","178.0","1016.2510000000001","28.57","78.49","NAN","0.0"],
    [1565858,"2026-07-31 11:30:00","18568","4.119","172.4","6.337000000000001","180.2","1016.278","28.68","78.02","NAN","0.0"],
    [1565859,"2026-07-31 11:40:00","18569","3.9819999999999998","172.3","6.468","178.1","1016.183","28.75","77.87","NAN","0.0"],
    [1565860,"2026-07-31 11:50:00","18570","3.8930000000000002","172.3","6.207000000000001","182.5","1016.1030000000001","29","76.57","NAN","0.0"],
    [1565861,"2026-07-31 12:00:00","18571","3.951","173.3","6.0760000000000005","175.1","1016.0310000000001","28.94","77.06","NAN","0.0"],
    [1565862,"2026-07-31 12:10:00","18572","4.078","173.1","6.7620000000000005","179.9","1015.942","29.02","76.12","NAN","0.0"],
    [1565863,"2026-07-31 12:20:00","18573","3.5469999999999997","168.1","5.455","166.4","1015.835","29.16","75.54","NAN","0.0"],
    [1565864,"2026-07-31 12:30:00","18574","3.5780000000000003","172.8","6.664","158.2","1015.829","29.38","73.86","NAN","0.0"],
    [1565865,"2026-07-31 12:40:00","18575","2.1790000000000003","186.2","4.475","183.4","1015.828","30.15","70.4","NAN","0.0"],
    [1565866,"2026-07-31 12:50:00","18576","2.188","188.1","4.4430000000000005","178.3","1015.821","30.18","69.58","NAN","0.0"],
    [1565867,"2026-07-31 13:00:00","18577","3.3089999999999997","181.6","6.403","179.0","1015.795","29.78","71.12","NAN","0.0"],
    [1565868,"2026-07-31 13:10:00","18578","3.102","175.6","6.7620000000000005","189.3","1015.693","29.87","72.11","NAN","0.0"],
    [1565869,"2026-07-31 13:20:00","18579","3.866","173.4","6.957999999999999","171.8","1015.6110000000001","29.35","74.59","NAN","0.0"],
    [1565870,"2026-07-31 13:30:00","18580","4.159","173.6","7.35","178.2","1015.5269999999999","29.27","75.06","NAN","0.0"],
    [1565871,"2026-07-31 13:40:00","18581","4.3","170.3","7.121","173.7","1015.418","29.16","75.58","NAN","0.0"],
    [1565872,"2026-07-31 13:50:00","18582","3.516","170.9","6.239","175.0","1015.372","29.5","73.53","NAN","0.0"],
    [1565873,"2026-07-31 14:00:00","18583","4.184","169.0","6.468","165.5","1015.336","29.31","73.92","NAN","0.0"],
    [1565874,"2026-07-31 14:10:00","18584","3.322","173.9","5.749","170.0","1015.32","29.58","71.81","NAN","0.0"],
    [1565875,"2026-07-31 14:20:00","18585","3.022","176.4","4.965","170.0","1015.2460000000001","30.15","68.68","NAN","0.0"],
    [1565876,"2026-07-31 14:30:00","18586","3.7939999999999996","167.6","5.815","171.6","1015.081","29.67","71.2","NAN","0.0"],
    [1565877,"2026-07-31 14:40:00","18587","4.084","169.1","6.272","179.8","1015.07","29.4","71.48","NAN","0.0"],
    [1565878,"2026-07-31 14:50:00","18588","3.505","175.1","6.0760000000000005","178.7","1015.059","29.7","67.91","NAN","0.0"],
    [1565879,"2026-07-31 15:00:00","18589","3.4619999999999997","174.9","6.042999999999999","176.8","1015.055","29.8","68.1","NAN","0.0"],
    [1565880,"2026-07-31 15:10:00","18590","4.382","172.5","6.795","175.2","1015.066","29.17","74.01","NAN","0.0"],
    [1565881,"2026-07-31 15:20:00","18591","4.27","174.1","7.0889999999999995","174.1","1015.055","28.86","76.38","NAN","0.0"],
    [1565882,"2026-07-31 15:30:00","18592","4.617","172.6","6.468","177.4","1014.905","28.56","77.23","NAN","0.0"],
    [1565883,"2026-07-31 15:40:00","18593","4.056","171.1","5.978","176.6","1014.8389999999999","28.63","76.8","NAN","0.0"],
    [1565884,"2026-07-31 15:50:00","18594","3.612","173.2","5.945","174.6","1014.824","28.7","76.5","NAN","0.0"],
    [1565885,"2026-07-31 16:00:00","18595","3.5060000000000002","174.2","5.651","179.4","1014.84","28.74","76.49","NAN","0.0"],
    [1565886,"2026-07-31 16:10:00","18596","3.551","175.1","6.042999999999999","177.9","1014.8969999999999","28.67","77.14","NAN","0.0"],
    [1565887,"2026-07-31 16:20:00","18597","3.383","172.4","5.1610000000000005","175.6","1014.916","28.65","77.38","NAN","0.0"],
    [1565888,"2026-07-31 16:30:00","18598","3.701","172.0","5.39","176.0","1014.841","28.56","78.01","NAN","0.0"],
    [1565889,"2026-07-31 16:40:00","18599","3.3489999999999998","174.9","5.521","177.8","1014.846","28.45","78.86","NAN","0.0"],
    [1565890,"2026-07-31 16:50:00","18600","2.858","178.1","4.9","189.4","1014.846","28.47","79.49","NAN","0.0"],
    [1565891,"2026-07-31 17:00:00","18601","2.594","179.1","4.802","177.3","1014.783","28.48","79.34","NAN","0.0"],
    [1565892,"2026-07-31 17:10:00","18602","2.718","178.0","4.41","182.7","1014.549","28.46","79.27","NAN","0.0"],
    [1565893,"2026-07-31 17:20:00","18603","2.451","175.4","4.181","173.6","1014.3430000000001","28.39","80.4","NAN","0.0"],
    [1565894,"2026-07-31 17:30:00","18604","2.312","184.5","3.855","178.0","1014.295","28.3","81.4","NAN","0.0"],
    [1565895,"2026-07-31 17:40:00","18605","1.85","186.3","3.6910000000000003","170.3","1014.382","28.34","81.2","NAN","0.0"],
    [1565896,"2026-07-31 17:50:00","18606","2.815","169.4","4.051","170.0","1014.3430000000001","28.2","82.1","NAN","0.0"],
    [1565897,"2026-07-31 18:00:00","18607","2.675","170.0","4.083","174.3","1014.3430000000001","28.06","82.8","NAN","0.0"],
    [1565898,"2026-07-31 18:10:00","18608","2.83","169.2","4.247","176.0","1014.357","28.02","83","NAN","0.0"],
    [1565899,"2026-07-31 18:20:00","18609","2.713","171.0","4.2139999999999995","170.9","1014.3430000000001","27.97","83.4","NAN","0.0"],
    [1565900,"2026-07-31 18:30:00","18610","2.529","173.7","4.508","172.2","1014.3430000000001","27.94","83.5","NAN","0.0"],
    [1565901,"2026-07-31 18:40:00","18611","2.0469999999999997","175.3","3.92","177.3","1014.495","27.93","83.3","NAN","0.0"],
    [1565902,"2026-07-31 18:50:00","18612","1.896","173.8","3.005","148.9","1014.682","27.96","83","NAN","0.0"],
    [1565903,"2026-07-31 19:00:00","18613","2.165","172.3","3.397","174.8","1014.768","27.91","83.7","NAN","0.0"],
    [1565904,"2026-07-31 19:10:00","18614","1.449","182.1","2.94","163.6","1014.8380000000001","27.81","84.6","NAN","0.0"],
    [1565905,"2026-07-31 19:20:00","18615","0.902","203.6","2.515","255.0","1014.8510000000001","27.95","83.3","NAN","0.0"],
    [1565906,"2026-07-31 19:30:00","18616","0.995","220.3","2.7110000000000003","210.4","1014.878","28.21","79.26","NAN","0.0"],
    [1565907,"2026-07-31 19:40:00","18617","0.997","219.6","2.254","189.3","1014.8430000000001","28.28","78.69","NAN","0.0"],
    [1565908,"2026-07-31 19:50:00","18618","1.053","223.8","2.548","230.2","1014.841","28.25","77.35","NAN","0.0"],
    [1565909,"2026-07-31 20:00:00","18619","1.053","230.6","2.352","241.2","1014.9730000000001","28.37","76.62","NAN","0.0"],
    [1565910,"2026-07-31 20:10:00","18620","0.9","224.7","2.385","248.9","1015.2080000000001","28.32","76.27","NAN","0.0"],
    [1565911,"2026-07-31 20:20:00","18621","1.3459999999999999","206.8","2.483","185.5","1015.6060000000001","28.44","76.14","NAN","0.0"],
    [1565912,"2026-07-31 20:30:00","18622","1.219","200.0","2.613","211.3","1015.5310000000001","28.26","77.5","NAN","0.0"],
    [1565913,"2026-07-31 20:40:00","18623","1.031","215.3","2.875","199.9","1015.63","28.35","77.08","NAN","0.0"],
    [1565914,"2026-07-31 20:50:00","18624","1.069","216.7","2.548","230.7","1015.683","28.43","76.76","NAN","0.0"],
    [1565915,"2026-07-31 21:00:00","18625","0.875","200.5","1.699","187.0","1015.67","28.27","77.75","NAN","0.0"],
    [1565916,"2026-07-31 21:10:00","18626","0.6859999999999999","214.1","1.9269999999999998","244.4","1015.706","28.16","77.64","NAN","0.0"],
    [1565917,"2026-07-31 21:20:00","18627","0.728","221.3","2.319","198.5","1015.793","28.36","76.3","NAN","0.0"],
    [1565918,"2026-07-31 21:30:00","18628","1.094","204.1","2.417","200.7","1015.837","28.24","77.66","NAN","0.0"],
    [1565919,"2026-07-31 21:40:00","18629","1.057","203.7","2.907","197.3","1015.855","28.1","77.94","NAN","0.0"],
    [1565920,"2026-07-31 21:50:00","18630","0.904","202.8","1.96","232.6","1015.855","28.27","76.65","NAN","0.0"],
    [1565921,"2026-07-31 22:00:00","18631","1.13","197.6","2.0909999999999997","187.6","1015.75","28.1","76.81","NAN","0.0"],
    [1565922,"2026-07-31 22:10:00","18632","0.722","201.8","1.633","202.8","1015.79","28.07","76.69","NAN","0.0"],
    [1565923,"2026-07-31 22:20:00","18633","0.344","206.1","1.405","210.2","1015.815","28.38","76.16","NAN","0.0"],
    [1565924,"2026-07-31 22:30:00","18634","0.41100000000000003","203.4","1.078","193.7","1015.825","28.26","76.54","NAN","0.0"],
    [1565925,"2026-07-31 22:40:00","18635","0.495","201.2","1.307","236.8","1015.812","28.19","76.29","NAN","0.0"],
    [1565926,"2026-07-31 22:50:00","18636","0.769","200.6","1.568","199.2","1015.829","28","77.51","NAN","0.0"],
    [1565927,"2026-07-31 23:00:00","18637","0.9329999999999999","200.6","1.568","199.4","1015.837","27.92","77.93","NAN","0.0"],
    [1565928,"2026-07-31 23:10:00","18638","0.7879999999999999","190.7","1.797","209.2","1015.7919999999999","27.87","77.71","NAN","0.0"],
    [1565929,"2026-07-31 23:20:00","18639","0.733","184.3","1.143","193.0","1015.732","27.79","78.52","NAN","0.0"],
    [1565930,"2026-07-31 23:30:00","18640","0.6829999999999999","179.4","1.209","173.0","1015.748","27.86","78.05","NAN","0.0"],
    [1565931,"2026-07-31 23:40:00","18641","0.7709999999999999","179.8","1.2409999999999999","171.6","1015.778","27.88","77.7","NAN","0.0"],
    [1565932,"2026-07-31 23:50:00","18642","0.8859999999999999","165.8","1.601","156.2","1015.82","27.84","78.89","NAN","0.0"],
    [1565933,"2026-08-01 00:00:00","18643","0.79","166.5","1.405","171.2","1015.74","27.68","80.8","NAN","0.0"],
    [1565934,"2026-08-01 00:10:00","18644","0.45","174.5","1.078","157.9","1015.73","27.56","81.5","NAN","0.0"],
    [1565935,"2026-08-01 00:20:00","18645","0.133","146.4","0.555","128.3","1015.7080000000001","27.56","82.1","NAN","0.0"],
    [1565936,"2026-08-01 00:30:00","18646","0.307","118.7","0.7190000000000001","108.8","1015.5980000000001","27.65","81.2","NAN","0.0"],
    [1565937,"2026-08-01 00:40:00","18647","0.6","156.7","0.9470000000000001","169.7","1015.5830000000001","27.54","81.6","NAN","0.0"],
    [1565938,"2026-08-01 00:50:00","18648","0.12","136.7","0.7509999999999999","140.4","1015.668","27.45","82","NAN","0.0"],
    [1565939,"2026-08-01 01:00:00","18649","0.35200000000000004","84.8","1.405","92.4","1015.643","27.46","82.5","NAN","0.0"],
    [1565940,"2026-08-01 01:10:00","18650","1.151","68.54","2.156","67.23","1015.623","27.22","80.9","NAN","0.0"],
    [1565941,"2026-08-01 01:20:00","18651","1.229","53.0","2.189","52.51","1015.568","27.11","78.45","NAN","0.0"],
    [1565942,"2026-08-01 01:30:00","18652","0.696","44.45","1.666","40.7","1015.566","27.12","77.5","NAN","0.0"],
    [1565943,"2026-08-01 01:40:00","18653","0.968","67.93","1.993","66.45","1015.581","27.17","77.34","NAN","0.0"],
    [1565944,"2026-08-01 01:50:00","18654","1.0290000000000001","61.75","2.189","59.24","1015.4810000000001","27.05","78.88","NAN","0.0"],
    [1565945,"2026-08-01 02:00:00","18655","0.9940000000000001","60.13","1.9269999999999998","64.66","1015.4689999999999","26.89","79.96","NAN","0.0"],
    [1565946,"2026-08-01 02:10:00","18656","0.644","55.08","1.405","60.22","1015.4739999999999","26.8","80.4","NAN","0.0"],
    [1565947,"2026-08-01 02:20:00","18657","0.93","51.04","1.633","47.08","1015.4830000000001","26.72","80.3","NAN","0.0"],
    [1565948,"2026-08-01 02:30:00","18658","0.9279999999999999","53.8","1.829","54.93","1015.4889999999999","26.76","79.72","NAN","0.0"],
    [1565949,"2026-08-01 02:40:00","18659","1.3719999999999999","42.9","2.8089999999999997","33.84","1015.553","26.81","80","NAN","0.0"],
    [1565950,"2026-08-01 02:50:00","18660","1.37","42.82","3.136","20.99","1015.4639999999999","26.66","81.3","NAN","0.0"],
    [1565951,"2026-08-01 03:00:00","18661","1.824","51.42","3.593","56.69","1015.4639999999999","26.55","82","NAN","0.0"],
    [1565952,"2026-08-01 03:10:00","18662","1.734","51.79","3.7889999999999997","68.63","1015.431","26.41","83.7","NAN","0.0"],
    [1565953,"2026-08-01 03:20:00","18663","1.849","50.01","3.593","23.3","1015.421","26.36","83.7","NAN","0.0"],
    [1565954,"2026-08-01 03:30:00","18664","1.544","47.22","3.463","59.84","1015.459","26.31","83.3","NAN","0.0"],
    [1565955,"2026-08-01 03:40:00","18665","2.031","61.39","3.855","64.35","1015.439","26.26","82.6","NAN","0.0"],
    [1565956,"2026-08-01 03:50:00","18666","1.547","63.55","3.43","60.6","1015.3489999999999","26.22","82.6","NAN","0.0"],
    [1565957,"2026-08-01 04:00:00","18667","1.2309999999999999","51.4","3.5610000000000004","45.21","1015.3389999999999","26.19","82.8","NAN","0.0"],
    [1565958,"2026-08-01 04:10:00","18668","1.396","47.11","2.679","53.81","1015.3389999999999","26.15","83.3","NAN","0.0"],
    [1565959,"2026-08-01 04:20:00","18669","1.431","44.3","2.9730000000000003","60.15","1015.2189999999999","26.09","84.1","NAN","0.0"],
    [1565960,"2026-08-01 04:30:00","18670","1.114","34.3","3.234","36.81","1015.105","26.04","83.3","NAN","0.0"],
    [1565961,"2026-08-01 04:40:00","18671","1.2409999999999999","42.16","2.385","42.89","1015.2539999999999","25.98","82.7","NAN","0.0"],
    [1565962,"2026-08-01 04:50:00","18672","0.718","21.52","2.156","33.86","1015.332","25.97","82.5","NAN","0.0"],
    [1565963,"2026-08-01 05:00:00","18673","0.759","31.6","1.8619999999999999","13.19","1015.3389999999999","26.02","82.2","NAN","0.0"],
    [1565964,"2026-08-01 05:10:00","18674","0.722","31.58","2.0909999999999997","34.19","1015.3760000000001","26.1","81.8","NAN","0.0"],
    [1565965,"2026-08-01 05:20:00","18675","0.95","24.53","2.515","19.4","1015.3389999999999","26.11","81.9","NAN","0.0"],
    [1565966,"2026-08-01 05:30:00","18676","1.097","28.34","2.515","19.4","1015.3389999999999","26.1","82","NAN","0.0"],
    [1565967,"2026-08-01 05:40:00","18677","0.902","47.16","2.123","26.95","1015.372","26.18","81.2","NAN","0.0"],
    [1565968,"2026-08-01 05:50:00","18678","0.899","39.32","1.895","76.43","1015.4760000000001","26.37","80.2","NAN","0.0"],
    [1565969,"2026-08-01 06:00:00","18679","0.9620000000000001","41.79","1.9269999999999998","61.43","1015.4810000000001","26.46","79.45","NAN","0.0"],
    [1565970,"2026-08-01 06:10:00","18680","1.226","47.69","2.385","61.34","1015.551","26.62","78.33","NAN","0.0"],
    [1565971,"2026-08-01 06:20:00","18681","1.245","48.44","2.45","41.52","1015.546","26.77","78.11","NAN","0.0"],
    [1565972,"2026-08-01 06:30:00","18682","1.193","54.95","2.613","66.51","1015.573","27.14","76.71","NAN","0.0"],
    [1565973,"2026-08-01 06:40:00","18683","1.58","40.09","3.267","39.54","1015.6560000000001","27.2","77.13","NAN","0.0"],
    [1565974,"2026-08-01 06:50:00","18684","1.574","59.31","3.528","83.5","1015.706","27.12","78.66","NAN","0.0"],
    [1565975,"2026-08-01 07:00:00","18685","1.7919999999999998","74.61","3.855","75.23","1015.7139999999999","27.3","79.65","NAN","0.0"],
    [1565976,"2026-08-01 07:10:00","18686","1.936","61.77","3.985","61.98","1015.7130000000001","27.44","80.8","NAN","0.0"],
    [1565977,"2026-08-01 07:20:00","18687","1.4680000000000002","73.03","3.7889999999999997","73.29","1015.725","27.65","80.9","NAN","0.0"],
    [1565978,"2026-08-01 07:30:00","18688","2.015","80.4","3.92","84.4","1015.677","27.71","80.9","NAN","0.0"],
    [1565979,"2026-08-01 07:40:00","18689","2.529","79.5","3.7239999999999998","86.5","1015.565","27.4","82","NAN","0.0"],
    [1565980,"2026-08-01 07:50:00","18690","2.016","62.45","3.397","71.38","1015.577","27.39","82.5","NAN","0.0"],
    [1565981,"2026-08-01 08:00:00","18691","1.301","60.87","2.9730000000000003","76.59","1015.825","27.68","82.1","NAN","0.0"],
    [1565982,"2026-08-01 08:10:00","18692","1.173","78.97","2.7110000000000003","111.1","1016.1339999999999","27.75","82.6","NAN","0.0"],
    [1565983,"2026-08-01 08:20:00","18693","1.4340000000000002","107.4","2.6460000000000004","108.6","1016.204","27.48","84.1","NAN","0.0"],
    [1565984,"2026-08-01 08:30:00","18694","1.595","102.0","2.7439999999999998","105.1","1016.11","27.39","84.5","NAN","0.0"],
    [1565985,"2026-08-01 08:40:00","18695","1.426","110.5","2.287","91.4","1016.043","28","82","NAN","0.0"],
    [1565986,"2026-08-01 08:50:00","18696","1.652","117.0","2.613","98.9","1016.047","28.37","79.43","NAN","0.0"],
    [1565987,"2026-08-01 09:00:00","18697","1.5659999999999998","104.3","2.385","109.1","1015.8610000000001","28.22","80","NAN","0.0"],
    [1565988,"2026-08-01 09:10:00","18698","1.514","121.2","2.613","104.1","1015.798","28.48","78.46","NAN","0.0"],
    [1565989,"2026-08-01 09:20:00","18699","1.92","127.4","2.9730000000000003","144.3","1015.794","28.35","78.35","NAN","0.0"],
    [1565990,"2026-08-01 09:30:00","18700","1.704","128.4","3.136","104.1","1015.748","28.78","77.27","NAN","0.0"],
    [1565991,"2026-08-01 09:40:00","18701","2.046","151.3","3.1689999999999996","148.5","1015.835","28.88","74.74","NAN","0.0"],
    [1565992,"2026-08-01 09:50:00","18702","2.075","139.1","3.234","141.7","1015.8789999999999","29.06","73.67","NAN","0.0"],
    [1565993,"2026-08-01 10:00:00","18703","2.247","129.8","3.463","138.7","1015.819","29.15","73.65","NAN","0.0"],
    [1565994,"2026-08-01 10:10:00","18704","1.889","165.3","3.7889999999999997","190.9","1015.865","28.95","74.75","NAN","0.0"],
    [1565995,"2026-08-01 10:20:00","18705","2.248","152.3","4.018","111.6","1015.865","29.22","72.01","NAN","0.0"],
    [1565996,"2026-08-01 10:30:00","18706","2.4290000000000003","150.3","3.6910000000000003","115.7","1015.79","29.62","69.73","NAN","0.0"],
    [1565997,"2026-08-01 10:40:00","18707","2.539","183.5","4.1160000000000005","180.4","1015.785","29","71.17","NAN","0.0"],
    [1565998,"2026-08-01 10:50:00","18708","2.48","178.4","4.018","176.3","1015.779","28.96","70.33","NAN","0.0"],
    [1565999,"2026-08-01 11:00:00","18709","3.16","173.8","5.521","178.5","1015.7869999999999","28.46","72.45","NAN","0.0"],
    [1566000,"2026-08-01 11:10:00","18710","2.44","177.8","3.887","176.8","1015.7280000000001","28.58","72.82","NAN","0.0"],
    [1566001,"2026-08-01 11:20:00","18711","2.6289999999999996","181.3","4.279","178.8","1015.674","28.68","73.11","NAN","0.0"],
    [1566002,"2026-08-01 11:30:00","18712","2.57","175.9","4.867","163.3","1015.534","28.51","72.67","NAN","0.0"],
    [1566003,"2026-08-01 11:40:00","18713","2.529","179.0","4.377","179.6","1015.419","28.93","71.84","NAN","0.0"],
    [1566004,"2026-08-01 11:50:00","18714","2.883","180.5","5.1610000000000005","178.5","1015.315","28.73","73.3","NAN","0.0"],
    [1566005,"2026-08-01 12:00:00","18715","2.84","180.9","4.671","182.7","1015.283","28.63","73.77","NAN","0.0"],
    [1566006,"2026-08-01 12:10:00","18716","2.7910000000000004","181.4","4.737","183.9","1015.2819999999999","28.7","71.84","NAN","0.0"],
    [1566007,"2026-08-01 12:20:00","18717","2.9960000000000004","179.5","4.998","181.8","1015.199","28.44","74.08","NAN","0.0"],
    [1566008,"2026-08-01 12:30:00","18718","3.14","178.8","5.455","183.7","1015.096","28.38","74.55","NAN","0.0"],
    [1566009,"2026-08-01 12:40:00","18719","3.18","177.8","5.194","169.5","1014.953","28.42","74.52","NAN","0.0"],
    [1566010,"2026-08-01 12:50:00","18720","2.707","179.0","4.638999999999999","166.5","1014.834","28.46","74.39","NAN","0.0"],
    [1566011,"2026-08-01 13:00:00","18721","2.8489999999999998","180.4","4.541","186.6","1014.725","28.43","73.92","NAN","0.0"],
    [1566012,"2026-08-01 13:10:00","18722","3.201","180.1","5.357","182.1","1014.579","28.48","74.13","NAN","0.0"],
    [1566013,"2026-08-01 13:20:00","18723","2.786","180.9","4.704","174.5","1014.4810000000001","28.53","73.83","NAN","0.0"],
    [1566014,"2026-08-01 13:30:00","18724","3.051","182.2","5.4879999999999995","181.0","1014.455","28.54","72.43","NAN","0.0"],
    [1566015,"2026-08-01 13:40:00","18725","2.923","181.9","4.835","173.5","1014.424","28.43","73.64","NAN","0.0"],
    [1566016,"2026-08-01 13:50:00","18726","3.18","181.6","5.2589999999999995","175.7","1014.346","28.38","74.16","NAN","0.0"],
    [1566017,"2026-08-01 14:00:00","18727","3.179","181.6","5.945","181.1","1014.303","28.29","74.99","NAN","0.0"],
    [1566018,"2026-08-01 14:10:00","18728","3.2689999999999997","177.7","5.194","176.0","1014.19","28.32","74.64","NAN","0.0"],
    [1566019,"2026-08-01 14:20:00","18729","3.312","178.0","5.749","169.4","1013.9910000000001","28.32","74.76","NAN","0.0"],
    [1566020,"2026-08-01 14:30:00","18730","3.133","178.4","5.2589999999999995","182.2","1013.8439999999999","28.39","74.28","NAN","0.0"],
    [1566021,"2026-08-01 14:40:00","18731","3.1260000000000003","177.2","4.802","173.3","1013.753","28.39","74.19","NAN","0.0"],
    [1566022,"2026-08-01 14:50:00","18732","3.617","176.3","5.815","182.4","1013.6460000000001","28.26","74.34","NAN","0.0"],
    [1566023,"2026-08-01 15:00:00","18733","3.659","172.9","5.815","175.3","1013.53","28.16","75.42","NAN","0.0"],
    [1566024,"2026-08-01 15:10:00","18734","3.238","172.3","5.39","175.8","1013.4760000000001","28.36","75.09","NAN","0.0"],
    [1566025,"2026-08-01 15:20:00","18735","2.221","186.7","3.7889999999999997","190.1","1013.427","28.77","73.55","NAN","0.0"],
    [1566026,"2026-08-01 15:30:00","18736","3.345","176.3","5.749","181.0","1013.303","28.6","74.21","NAN","0.0"],
    [1566027,"2026-08-01 15:40:00","18737","2.64","184.2","4.965","171.4","1013.385","28.62","75.05","NAN","0.0"],
    [1566028,"2026-08-01 15:50:00","18738","2.8689999999999998","181.8","4.933","179.1","1013.3789999999999","28.81","74.41","NAN","0.0"],
    [1566029,"2026-08-01 16:00:00","18739","3.4730000000000003","175.4","5.1610000000000005","170.4","1013.3380000000001","28.38","76.23","NAN","0.0"],
    [1566030,"2026-08-01 16:10:00","18740","3.471","174.0","5.2589999999999995","173.8","1013.294","28.16","77.05","NAN","0.0"],
    [1566031,"2026-08-01 16:20:00","18741","2.256","187.1","4.508","171.4","1013.3810000000001","28.36","76.71","NAN","0.0"],
    [1566032,"2026-08-01 16:30:00","18742","2.616","178.0","4.475","181.4","1013.326","28.45","76.85","NAN","0.0"],
    [1566033,"2026-08-01 16:40:00","18743","2.5780000000000003","179.5","4.737","178.7","1013.133","28.37","77.91","NAN","0.0"],
    [1566034,"2026-08-01 16:50:00","18744","2.19","176.2","3.593","164.5","1013.301","28.43","77.41","NAN","0.0"],
    [1566035,"2026-08-01 17:00:00","18745","2.687","179.7","4.377","188.5","1013.373","28.19","79.42","NAN","0.0"],
    [1566036,"2026-08-01 17:10:00","18746","2.267","182.5","3.985","172.8","1013.112","28.27","80","NAN","0.0"],
    [1566037,"2026-08-01 17:20:00","18747","2.0469999999999997","174.8","3.201","168.1","1013.29","28.17","80.1","NAN","0.0"],
    [1566038,"2026-08-01 17:30:00","18748","2.3209999999999997","175.8","3.463","155.1","1013.206","28.2","79.33","NAN","0.0"],
    [1566039,"2026-08-01 17:40:00","18749","1.474","153.1","3.365","118.6","1013.706","28.2","79.56","NAN","0.0"],
    [1566040,"2026-08-01 17:50:00","18750","1.827","140.6","3.6260000000000003","114.9","1013.796","28.32","78.62","NAN","0.0"],
    [1566041,"2026-08-01 18:00:00","18751","1.8869999999999998","126.8","3.6260000000000003","132.5","1013.42","28.11","79.56","NAN","0.0"],
    [1566042,"2026-08-01 18:10:00","18752","1.837","130.4","3.201","110.1","1013.4910000000001","28.03","79.56","NAN","0.0"],
    [1566043,"2026-08-01 18:20:00","18753","1.8259999999999998","146.8","2.7769999999999997","164.2","1013.812","28","79.45","NAN","0.0"],
    [1566044,"2026-08-01 18:30:00","18754","1.334","155.2","2.189","142.5","1014.018","28.01","79.53","NAN","0.0"],
    [1566045,"2026-08-01 18:40:00","18755","1.4709999999999999","131.5","2.417","127.2","1013.7660000000001","28.1","78.53","NAN","0.0"],
    [1566046,"2026-08-01 18:50:00","18756","1.556","163.7","2.7110000000000003","115.6","1013.4119999999999","27.91","79.66","NAN","0.0"],
    [1566047,"2026-08-01 19:00:00","18757","1.536","185.0","2.417","170.5","1013.164","27.8","80.5","NAN","0.0"],
    [1566048,"2026-08-01 19:10:00","18758","1.381","187.6","2.385","179.6","1013.221","27.71","81.2","NAN","0.0"],
    [1566049,"2026-08-01 19:20:00","18759","1.515","180.8","2.515","205.0","1013.12","27.6","81.9","NAN","0.0"],
    [1566050,"2026-08-01 19:30:00","18760","0.7490000000000001","179.1","1.535","175.3","1013.328","27.71","81.5","NAN","0.0"],
    [1566051,"2026-08-01 19:40:00","18761","0.971","156.1","1.8619999999999999","160.3","1013.1460000000001","27.8","81.2","NAN","0.0"],
    [1566052,"2026-08-01 19:50:00","18762","1.2930000000000001","150.2","2.0909999999999997","158.5","1012.867","27.67","81.6","NAN","0.0"],
    [1566053,"2026-08-01 20:00:00","18763","1.053","170.0","2.352","157.6","1012.9","27.63","82","NAN","0.0"],
    [1566054,"2026-08-01 20:10:00","18764","1.0490000000000002","186.9","1.96","209.1","1012.932","27.63","82.6","NAN","0.0"],
    [1566055,"2026-08-01 20:20:00","18765","1.294","187.2","2.417","152.5","1012.867","27.53","83.5","NAN","0.0"],
    [1566056,"2026-08-01 20:30:00","18766","0.767","175.1","1.764","214.4","1012.947","27.49","83.6","NAN","0.0"],
    [1566057,"2026-08-01 20:40:00","18767","1.153","161.6","1.96","150.6","1013.07","27.52","83.6","NAN","0.0"],
    [1566058,"2026-08-01 20:50:00","18768","0.858","176.4","1.405","179.5","1013.329","27.52","84.3","NAN","0.0"],
    [1566059,"2026-08-01 21:00:00","18769","0.66","200.9","1.2409999999999999","178.0","1013.336","27.55","84","NAN","0.0"],
    [1566060,"2026-08-01 21:10:00","18770","0.677","191.9","1.633","200.3","1013.466","27.54","84.2","NAN","0.0"],
    [1566061,"2026-08-01 21:20:00","18771","0.6659999999999999","184.3","1.666","176.3","1013.3510000000001","27.7","83.8","NAN","0.0"],
    [1566062,"2026-08-01 21:30:00","18772","0.695","176.4","1.5030000000000001","160.3","1013.346","27.73","83.8","NAN","0.0"],
    [1566063,"2026-08-01 21:40:00","18773","0.958","189.9","2.45","189.7","1013.3560000000001","27.7","84","NAN","0.0"],
    [1566064,"2026-08-01 21:50:00","18774","0.71","192.8","1.9269999999999998","176.1","1013.331","27.67","83.6","NAN","0.0"],
    [1566065,"2026-08-01 22:00:00","18775","0.841","202.1","2.613","185.2","1013.0110000000001","27.79","83.1","NAN","0.0"],
    [1566066,"2026-08-01 22:10:00","18776","0.652","241.8","1.797","254.5","1012.862","27.89","81.8","NAN","0.0"],
    [1566067,"2026-08-01 22:20:00","18777","0.474","243.1","1.7309999999999999","243.1","1012.7230000000001","27.95","81","NAN","0.0"],
    [1566068,"2026-08-01 22:30:00","18778","0.39399999999999996","261.6","1.535","294.9","1012.648","28.08","79.65","NAN","0.0"],
    [1566069,"2026-08-01 22:40:00","18779","0.624","268.0","1.568","243.3","1012.678","28.13","79.81","NAN","0.0"],
    [1566070,"2026-08-01 22:50:00","18780","1.095","290.6","2.385","254.9","1012.633","28.2","79.92","NAN","0.0"],
    [1566071,"2026-08-01 23:00:00","18781","0.7559999999999999","311.4","2.0580000000000003","328.4","1012.568","28.18","79.88","NAN","0.0"],
    [1566072,"2026-08-01 23:10:00","18782","0.654","327.9","1.535","275.1","1012.431","28.03","79.93","NAN","0.0"],
    [1566073,"2026-08-01 23:20:00","18783","0.6409999999999999","310.5","1.535","314.8","1012.3489999999999","28.05","79.16","NAN","0.0"],
    [1566074,"2026-08-01 23:30:00","18784","0.39","71.94","1.176","59.06","1012.284","28.06","78.96","NAN","0.0"],
    [1566075,"2026-08-01 23:40:00","18785","0.446","129.1","1.078","120.2","1012.329","28.03","79.15","NAN","0.0"],
    [1566076,"2026-08-01 23:50:00","18786","0.893","161.4","1.633","162.3","1012.3489999999999","27.78","81.3","NAN","0.0"],
    [1566077,"2026-08-02 00:00:00","18787","0.532","151.1","1.274","178.6","1012.212","27.51","83","NAN","0.0"],
    [1566078,"2026-08-02 00:10:00","18788","0.546","161.1","1.339","159.6","1012.1","27.4","83.5","NAN","0.0"],
    [1566079,"2026-08-02 00:20:00","18789","0.679","142.2","1.339","150.2","1012.057","27.31","84.6","NAN","0.0"],
    [1566080,"2026-08-02 00:30:00","18790","0.6709999999999999","131.4","1.176","135.5","1011.94","27","86.7","NAN","0.0"],
    [1566081,"2026-08-02 00:40:00","18791","0.012","176.5","0.359","181.3","1011.8530000000001","26.92","87","NAN","0.0"],
    [1566082,"2026-08-02 00:50:00","18792","0.252","153.2","0.882","155.5","1011.778","26.87","87.5","NAN","0.0"],
    [1566083,"2026-08-02 01:00:00","18793","0.42700000000000005","163.3","1.078","163.6","1011.721","26.95","87","NAN","0.0"],
    [1566084,"2026-08-02 01:10:00","18794","0.569","159.6","0.882","154.0","1011.6189999999999","26.89","87.2","NAN","0.0"],
    [1566085,"2026-08-02 01:20:00","18795","0.322","143.8","0.7509999999999999","177.1","1011.552","26.9","87.2","NAN","0.0"],
    [1566086,"2026-08-02 01:30:00","18796","0.183","124.1","0.7509999999999999","108.4","1011.375","26.97","86.7","NAN","0.0"],
    [1566087,"2026-08-02 01:40:00","18797","0.605","89.3","1.078","62.38","1011.243","27.02","86.2","NAN","0.0"],
    [1566088,"2026-08-02 01:50:00","18798","0.755","90.8","1.307","85.6","1011.2280000000001","27.07","85.5","NAN","0.0"],
    [1566089,"2026-08-02 02:00:00","18799","0.862","86.3","1.535","101.3","1011.138","27.02","86.4","NAN","0.0"],
    [1566090,"2026-08-02 02:10:00","18800","0.797","68.83","1.4369999999999998","68.6","1011.1030000000001","26.89","86.5","NAN","0.0"],
    [1566091,"2026-08-02 02:20:00","18801","0.652","64.28","1.274","59.9","1011.1030000000001","26.78","86.4","NAN","0.0"],
    [1566092,"2026-08-02 02:30:00","18802","0.465","39.84","1.078","39.48","1011.0089999999999","26.71","86.2","NAN","0.0"],
    [1566093,"2026-08-02 02:40:00","18803","0.861","48.29","1.9269999999999998","60.58","1010.877","26.68","85.8","NAN","0.0"],
    [1566094,"2026-08-02 02:50:00","18804","0.7859999999999999","41.76","1.8619999999999999","17.08","1010.9169999999999","26.58","86.2","NAN","0.0"],
    [1566095,"2026-08-02 03:00:00","18805","0.743","46.41","1.8619999999999999","54.74","1010.939","26.57","86","NAN","0.0"],
    [1566096,"2026-08-02 03:10:00","18806","0.5589999999999999","68.93","1.176","91.7","1011.1030000000001","26.58","85.5","NAN","0.0"],
    [1566097,"2026-08-02 03:20:00","18807","0.386","78.05","1.078","66.11","1011.198","26.53","85.4","NAN","0.0"],
    [1566098,"2026-08-02 03:30:00","18808","0.14800000000000002","141.9","0.7190000000000001","170.2","1011.3480000000001","26.5","85.5","NAN","0.0"],
    [1566099,"2026-08-02 03:40:00","18809","0.33799999999999997","130.2","0.7509999999999999","115.0","1011.36","26.42","86.2","NAN","0.0"],
    [1566100,"2026-08-02 03:50:00","18810","0.0","0.0","0.0","0.0","1011.4","26.45","86.3","NAN","0.0"],
    [1566101,"2026-08-02 04:00:00","18811","0.10400000000000001","172.6","0.457","145.9","1011.477","26.33","87.2","NAN","0.0"],
    [1566102,"2026-08-02 04:10:00","18812","0.051","160.3","0.588","163.1","1011.385","26.31","87.7","NAN","0.0"],
    [1566103,"2026-08-02 04:20:00","18813","0.048","102.0","0.588","108.1","1011.42","26.32","87.9","NAN","0.0"],
    [1566104,"2026-08-02 04:30:00","18814","0.0","0.0","0.0","0.0","1011.4119999999999","26.36","88.2","NAN","0.0"],
    [1566105,"2026-08-02 04:40:00","18815","0.273","21.16","0.915","21.29","1011.427","26.27","87.9","NAN","0.0"],
    [1566106,"2026-08-02 04:50:00","18816","0.565","33.92","1.568","25.82","1011.557","26.36","83.9","NAN","0.0"],
    [1566107,"2026-08-02 05:00:00","18817","1.052","36.88","2.025","38.22","1011.597","26.51","80.5","NAN","0.0"],
    [1566108,"2026-08-02 05:10:00","18818","1.17","36.68","2.548","19.98","1011.6389999999999","26.54","77.71","NAN","0.0"],
    [1566109,"2026-08-02 05:20:00","18819","1.013","30.38","2.254","21.73","1011.7239999999999","26.54","76.22","NAN","0.0"],
    [1566110,"2026-08-02 05:30:00","18820","1.166","31.36","2.417","34.15","1011.796","26.53","74.85","NAN","0.0"],
    [1566111,"2026-08-02 05:40:00","18821","1.033","35.37","2.5810000000000004","39.67","1011.7589999999999","26.5","75","NAN","0.0"],
    [1566112,"2026-08-02 05:50:00","18822","1.02","33.35","2.025","48.89","1011.6489999999999","26.54","77.81","NAN","0.0"],
    [1566113,"2026-08-02 06:00:00","18823","0.638","33.7","2.0580000000000003","19.98","1011.6189999999999","26.61","79.14","NAN","0.0"],
    [1566114,"2026-08-02 06:10:00","18824","1.014","42.93","2.287","40.49","1011.5369999999999","26.78","79.91","NAN","0.0"],
    [1566115,"2026-08-02 06:20:00","18825","0.882","35.59","2.5810000000000004","38.57","1011.475","26.78","80.2","NAN","0.0"],
    [1566116,"2026-08-02 06:30:00","18826","1.212","22.89","2.7439999999999998","24.13","1011.477","27.09","79.32","NAN","0.0"],
    [1566117,"2026-08-02 06:40:00","18827","1.186","22.37","2.352","354.8","1011.467","27.33","79.33","NAN","0.0"],
    [1566118,"2026-08-02 06:50:00","18828","1.354","36.46","3.0380000000000003","62.07","1011.438","27.48","79.67","NAN","0.0"],
    [1566119,"2026-08-02 07:00:00","18829","1.127","6.732","2.5810000000000004","1.683","1011.467","27.51","81.4","NAN","0.0"],
    [1566120,"2026-08-02 07:10:00","18830","1.6280000000000001","11.16","2.9730000000000003","15.78","1011.47","27.64","81.2","NAN","0.0"],
    [1566121,"2026-08-02 07:20:00","18831","1.238","29.87","2.352","66.4","1011.597","27.96","79.13","NAN","0.0"],
    [1566122,"2026-08-02 07:30:00","18832","1.046","80.3","1.9269999999999998","70.27","1011.673","28.48","77.05","NAN","0.0"],
    [1566123,"2026-08-02 07:40:00","18833","1.3090000000000002","107.3","2.156","105.5","1011.694","28.38","78.72","NAN","0.0"],
    [1566124,"2026-08-02 07:50:00","18834","0.795","96.0","1.47","113.1","1011.7139999999999","28.72","76.89","NAN","0.0"],
    [1566125,"2026-08-02 08:00:00","18835","1.339","131.3","2.0580000000000003","152.0","1011.716","28.65","77.21","NAN","0.0"],
    [1566126,"2026-08-02 08:10:00","18836","1.556","126.2","2.385","112.3","1011.6619999999999","28.33","79.17","NAN","0.0"],
    [1566127,"2026-08-02 08:20:00","18837","1.588","128.9","2.417","121.3","1011.65","28.45","77.21","NAN","0.0"],
    [1566128,"2026-08-02 08:30:00","18838","1.804","128.0","2.6460000000000004","127.3","1011.597","28.12","78.3","NAN","0.0"],
    [1566129,"2026-08-02 08:40:00","18839","1.679","124.2","2.417","109.4","1011.659","28.4","80","NAN","0.0"],
    [1566130,"2026-08-02 08:50:00","18840","1.892","129.8","2.679","129.9","1011.658","28.41","82.6","NAN","0.0"],
    [1566131,"2026-08-02 09:00:00","18841","2.133","126.8","3.528","109.2","1011.54","27.97","85.8","NAN","0.0"],
    [1566132,"2026-08-02 09:10:00","18842","2.103","130.2","3.1689999999999996","147.7","1011.546","27.78","87.2","NAN","0.0"],
    [1566133,"2026-08-02 09:20:00","18843","1.99","125.8","2.875","105.6","1011.56","28.18","85.4","NAN","0.0"],
    [1566134,"2026-08-02 09:30:00","18844","2.352","126.6","3.822","138.1","1011.543","28.07","86.4","NAN","0.0"],
    [1566135,"2026-08-02 09:40:00","18845","2.459","122.5","4.345","111.5","1011.445","28.18","86","NAN","0.0"],
    [1566136,"2026-08-02 09:50:00","18846","2.479","126.7","4.149","111.2","1011.431","28.18","85.7","NAN","0.0"],
    [1566137,"2026-08-02 10:00:00","18847","2.512","119.8","4.018","109.5","1011.424","28.35","85.4","NAN","0.0"],
    [1566138,"2026-08-02 10:10:00","18848","2.353","122.3","4.018","104.3","1011.42","28.24","85.5","NAN","0.0"],
    [1566139,"2026-08-02 10:20:00","18849","2.275","119.2","3.528","113.8","1011.434","28.67","83.8","NAN","0.0"],
    [1566140,"2026-08-02 10:30:00","18850","2.318","123.2","3.6260000000000003","106.0","1011.425","28.67","83.3","NAN","0.0"],
    [1566141,"2026-08-02 10:40:00","18851","2.249","125.2","3.365","127.6","1011.3530000000001","28.77","82.2","NAN","0.0"],
    [1566142,"2026-08-02 10:50:00","18852","2.563","125.7","4.345","138.7","1011.297","28.69","81.9","NAN","0.0"],
    [1566143,"2026-08-02 11:00:00","18853","2.4219999999999997","122.6","3.7569999999999997","119.0","1011.2919999999999","28.57","81.9","NAN","0.0"],
    [1566144,"2026-08-02 11:10:00","18854","2.305","126.5","3.43","120.4","1011.31","28.81","79.64","NAN","0.0"],
    [1566145,"2026-08-02 11:20:00","18855","2.779","118.0","5.063","115.1","1011.319","28.85","79.64","NAN","0.0"],
    [1566146,"2026-08-02 11:30:00","18856","2.4730000000000003","121.8","4.083","109.8","1011.289","29.16","78.15","NAN","0.0"],
    [1566147,"2026-08-02 11:40:00","18857","2.7230000000000003","137.2","4.508","160.2","1011.268","29.33","77.47","NAN","0.0"],
    [1566148,"2026-08-02 11:50:00","18858","2.552","157.7","4.802","162.9","1011.1669999999999","29.12","80","NAN","0.0"],
    [1566149,"2026-08-02 12:00:00","18859","2.951","139.0","4.802","144.2","1011.17","28.99","81.1","NAN","0.0"],
    [1566150,"2026-08-02 12:10:00","18860","2.845","137.4","4.279","121.7","1011.0889999999999","28.9","82.6","NAN","0.0"],
    [1566151,"2026-08-02 12:20:00","18861","3.031","137.1","4.998","109.7","1011.0089999999999","29.1","82.2","NAN","0.0"],
    [1566152,"2026-08-02 12:30:00","18862","2.7","149.0","4.4430000000000005","157.9","1010.93","29.06","82.8","NAN","0.0"],
    [1566153,"2026-08-02 12:40:00","18863","2.708","138.4","4.41","157.6","1010.813","29.04","83.1","NAN","0.0"],
    [1566154,"2026-08-02 12:50:00","18864","2.5660000000000003","123.4","4.2139999999999995","104.3","1010.8330000000001","29.31","82.2","NAN","0.0"],
    [1566155,"2026-08-02 13:00:00","18865","2.917","130.5","4.671","106.3","1010.802","29.13","82.8","NAN","0.0"],
    [1566156,"2026-08-02 13:10:00","18866","2.739","151.3","4.181","160.9","1010.813","29.12","83.1","NAN","0.0"],
    [1566157,"2026-08-02 13:20:00","18867","2.21","146.6","3.92","106.3","1010.812","29.52","81.8","NAN","0.0"],
    [1566158,"2026-08-02 13:30:00","18868","1.973","171.7","3.234","130.6","1010.807","29.96","80.3","NAN","0.0"],
    [1566159,"2026-08-02 13:40:00","18869","2.119","176.3","3.332","172.7","1010.711","29.94","80.4","NAN","0.0"],
    [1566160,"2026-08-02 13:50:00","18870","2.495","177.3","4.345","161.7","1010.7560000000001","29.58","81.6","NAN","0.0"],
    [1566161,"2026-08-02 14:00:00","18871","2.6310000000000002","183.3","4.247","176.4","1010.648","29.74","80.6","NAN","0.0"],
    [1566162,"2026-08-02 14:10:00","18872","2.465","175.9","4.051","144.9","1010.56","29.88","79.94","NAN","0.0"],
    [1566163,"2026-08-02 14:20:00","18873","2.255","154.1","3.528","141.0","1010.4760000000001","29.89","80.2","NAN","0.0"],
    [1566164,"2026-08-02 14:30:00","18874","3.3","178.2","4.769","178.5","1010.3919999999999","29.65","78.77","NAN","0.0"],
    [1566165,"2026-08-02 14:40:00","18875","2.6660000000000004","181.9","4.149","177.7","1010.284","29.58","79.51","NAN","0.0"],
    [1566166,"2026-08-02 14:50:00","18876","2.252","180.5","3.92","160.6","1010.128","29.96","75.04","NAN","0.0"],
    [1566167,"2026-08-02 15:00:00","18877","2.3609999999999998","176.8","3.6910000000000003","171.2","1010.01","30.02","75.38","NAN","0.0"],
    [1566168,"2026-08-02 15:10:00","18878","2.529","180.4","3.7239999999999998","182.6","1009.9910000000001","30","77.25","NAN","0.0"],
    [1566169,"2026-08-02 15:20:00","18879","2.472","182.3","4.41","189.4","1009.916","29.84","77.69","NAN","0.0"],
    [1566170,"2026-08-02 15:30:00","18880","2.713","187.0","4.704","177.0","1009.888","29.93","77.72","NAN","0.0"],
    [1566171,"2026-08-02 15:40:00","18881","2.571","177.5","4.704","179.2","1009.812","29.59","79.7","NAN","0.0"],
    [1566172,"2026-08-02 15:50:00","18882","2.693","177.1","4.2139999999999995","175.8","1009.788","29.56","80.3","NAN","0.0"],
    [1566173,"2026-08-02 16:00:00","18883","2.697","178.4","4.051","176.4","1009.683","29.55","80.3","NAN","0.0"],
    [1566174,"2026-08-02 16:10:00","18884","2.388","175.1","3.822","158.5","1009.654","29.54","80.5","NAN","0.0"],
    [1566175,"2026-08-02 16:20:00","18885","2.713","180.0","4.2139999999999995","179.3","1009.602","29.46","80.9","NAN","0.0"],
    [1566176,"2026-08-02 16:30:00","18886","2.6660000000000004","174.2","4.2139999999999995","179.6","1009.529","29.15","82.1","NAN","0.0"],
    [1566177,"2026-08-02 16:40:00","18887","2.326","176.4","3.6260000000000003","159.7","1009.453","29.27","81.8","NAN","0.0"],
    [1566178,"2026-08-02 16:50:00","18888","2.094","172.7","3.7889999999999997","151.3","1009.421","29.33","81.4","NAN","0.0"],
    [1566179,"2026-08-02 17:00:00","18889","2.301","177.4","3.6260000000000003","172.8","1009.3439999999999","29.16","82.7","NAN","0.0"],
    [1566180,"2026-08-02 17:10:00","18890","2.22","169.5","3.43","155.3","1009.3480000000001","29.03","83.4","NAN","0.0"],
    [1566181,"2026-08-02 17:20:00","18891","2.015","174.7","3.397","192.5","1009.321","29.03","83.6","NAN","0.0"],
    [1566182,"2026-08-02 17:30:00","18892","1.652","188.1","3.299","178.4","1009.315","29.08","83.9","NAN","0.0"],
    [1566183,"2026-08-02 17:40:00","18893","1.525","183.7","2.7110000000000003","184.0","1009.311","29.25","83.4","NAN","0.0"],
    [1566184,"2026-08-02 17:50:00","18894","1.37","176.7","2.287","114.8","1009.262","29.06","84.7","NAN","0.0"],
    [1566185,"2026-08-02 18:00:00","18895","1.574","159.4","2.907","172.7","1009.316","29.15","84.5","NAN","0.0"],
    [1566186,"2026-08-02 18:10:00","18896","1.5919999999999999","178.1","2.875","177.9","1009.3430000000001","29","85.2","NAN","0.0"],
    [1566187,"2026-08-02 18:20:00","18897","1.777","175.1","2.7439999999999998","156.8","1009.2339999999999","28.96","85.7","NAN","0.0"],
    [1566188,"2026-08-02 18:30:00","18898","1.6340000000000001","181.6","2.7769999999999997","181.2","1009.212","28.79","86.5","NAN","0.0"],
    [1566189,"2026-08-02 18:40:00","18899","1.3459999999999999","181.5","2.352","151.0","1009.22","28.74","86.2","NAN","0.0"],
    [1566190,"2026-08-02 18:50:00","18900","1.156","186.1","2.221","157.4","1009.288","28.74","85.7","NAN","0.0"],
    [1566191,"2026-08-02 19:00:00","18901","1.044","194.4","2.156","171.6","1009.3580000000001","28.71","85.4","NAN","0.0"],
    [1566192,"2026-08-02 19:10:00","18902","1.1159999999999999","192.0","2.45","186.1","1009.334","28.68","86","NAN","0.0"],
    [1566193,"2026-08-02 19:20:00","18903","1.351","176.8","2.679","156.3","1009.3539999999999","28.59","86.8","NAN","0.0"],
    [1566194,"2026-08-02 19:30:00","18904","1.149","173.4","1.9269999999999998","186.7","1009.3639999999999","28.56","86.6","NAN","0.0"],
    [1566195,"2026-08-02 19:40:00","18905","0.972","179.2","1.895","181.8","1009.449","28.55","86.8","NAN","0.0"],
    [1566196,"2026-08-02 19:50:00","18906","0.7440000000000001","191.3","1.535","208.4","1009.6139999999999","28.57","86.7","NAN","0.0"],
    [1566197,"2026-08-02 20:00:00","18907","0.9279999999999999","178.2","1.764","159.3","1009.743","28.59","86.3","NAN","0.0"],
    [1566198,"2026-08-02 20:10:00","18908","1.026","186.6","2.0580000000000003","166.8","1009.91","28.55","86.8","NAN","0.0"],
    [1566199,"2026-08-02 20:20:00","18909","1.27","178.3","2.156","171.9","1010.1089999999999","28.49","86.7","NAN","0.0"],
    [1566200,"2026-08-02 20:30:00","18910","1.061","145.9","1.993","111.5","1010.199","28.57","86.4","NAN","0.0"],
    [1566201,"2026-08-02 20:40:00","18911","1.02","153.7","1.8619999999999999","115.6","1010.2760000000001","28.6","86.3","NAN","0.0"],
    [1566202,"2026-08-02 20:50:00","18912","1.097","171.1","1.829","168.6","1010.3560000000001","28.5","85.8","NAN","0.0"],
    [1566203,"2026-08-02 21:00:00","18913","1.159","163.8","1.96","160.5","1010.3560000000001","28.43","85.1","NAN","0.0"],
    [1566204,"2026-08-02 21:10:00","18914","0.909","163.4","1.764","153.0","1010.3939999999999","28.5","84.8","NAN","0.0"],
    [1566205,"2026-08-02 21:20:00","18915","0.875","166.0","1.535","168.9","1010.443","28.49","84.6","NAN","0.0"],
    [1566206,"2026-08-02 21:30:00","18916","0.455","176.9","0.7509999999999999","181.7","1010.4810000000001","28.49","84.5","NAN","0.0"],
    [1566207,"2026-08-02 21:40:00","18917","0.474","164.4","0.98","157.7","1010.4810000000001","28.48","84.4","NAN","0.0"],
    [1566208,"2026-08-02 21:50:00","18918","0.848","165.7","1.2409999999999999","177.0","1010.535","28.48","83.9","NAN","0.0"],
    [1566209,"2026-08-02 22:00:00","18919","0.436","160.3","1.078","175.5","1010.4910000000001","28.5","83.7","NAN","0.0"],
    [1566210,"2026-08-02 22:10:00","18920","0.635","139.2","1.045","165.6","1010.503","28.52","82.9","NAN","0.0"],
    [1566211,"2026-08-02 22:20:00","18921","0.67","125.9","1.111","142.1","1010.578","28.43","83.5","NAN","0.0"],
    [1566212,"2026-08-02 22:30:00","18922","0.836","138.5","1.3719999999999999","137.5","1010.625","28.3","83.9","NAN","0.0"],
    [1566213,"2026-08-02 22:40:00","18923","0.6659999999999999","181.0","1.339","180.8","1010.69","28.31","84.4","NAN","0.0"],
    [1566214,"2026-08-02 22:50:00","18924","0.6990000000000001","186.2","1.274","187.7","1010.842","28.16","85.4","NAN","0.0"],
    [1566215,"2026-08-02 23:00:00","18925","0.777","184.7","1.3719999999999999","187.7","1010.8489999999999","28.05","86.5","NAN","0.0"],
    [1566216,"2026-08-02 23:10:00","18926","0.5489999999999999","207.6","1.209","203.7","1010.8489999999999","27.93","87.1","NAN","0.0"],
    [1566217,"2026-08-02 23:20:00","18927","0.507","196.7","0.98","180.1","1010.8539999999999","27.83","87.5","NAN","0.0"],
    [1566218,"2026-08-02 23:30:00","18928","0.616","192.7","1.176","178.5","1010.8539999999999","27.8","87.5","NAN","0.0"],
    [1566219,"2026-08-02 23:40:00","18929","0.705","182.2","1.274","180.6","1010.857","27.81","87.2","NAN","0.0"],
    [1566220,"2026-08-02 23:50:00","18930","0.446","181.2","1.013","180.4","1010.8539999999999","27.83","86.3","NAN","0.0"],
    [1566221,"2026-08-03 00:00:00","18931","0.526","199.3","0.98","198.5","1010.8539999999999","27.73","86.3","NAN","0.0"],
    [1566222,"2026-08-03 00:10:00","18932","0.43700000000000006","178.4","0.7190000000000001","172.2","1010.842","27.71","86.9","NAN","0.0"],
    [1566223,"2026-08-03 00:20:00","18933","0.031","189.1","0.425","188.5","1010.852","27.71","87.1","NAN","0.0"],
    [1566224,"2026-08-03 00:30:00","18934","0.098","124.1","0.588","135.1","1010.7819999999999","27.88","86.2","NAN","0.0"],
    [1566225,"2026-08-03 00:40:00","18935","0.12","127.4","0.523","130.9","1010.707","27.95","85.5","NAN","0.0"],
    [1566226,"2026-08-03 00:50:00","18936","0.0","0.0","0.0","0.0","1010.607","28.01","85.2","NAN","0.0"],
    [1566227,"2026-08-03 01:00:00","18937","0.0","0.0","0.0","0.0","1010.605","27.91","85.6","NAN","0.0"],
    [1566228,"2026-08-03 01:10:00","18938","0.037000000000000005","120.5","0.6859999999999999","118.2","1010.538","27.86","86.2","NAN","0.0"],
    [1566229,"2026-08-03 01:20:00","18939","0.601","110.5","1.274","106.6","1010.47","27.84","86.1","NAN","0.0"],
    [1566230,"2026-08-03 01:30:00","18940","0.888","91.4","1.633","90.9","1010.3560000000001","27.95","84.8","NAN","0.0"],
    [1566231,"2026-08-03 01:40:00","18941","1.179","70.56","2.254","63.72","1010.3560000000001","27.97","85.6","NAN","0.0"],
    [1566232,"2026-08-03 01:50:00","18942","0.986","43.88","2.123","58.02","1010.3530000000001","27.72","87.1","NAN","0.0"],
    [1566233,"2026-08-03 02:00:00","18943","0.9790000000000001","50.04","2.025","43.86","1010.291","27.65","87.4","NAN","0.0"],
    [1566234,"2026-08-03 02:10:00","18944","1.173","56.56","2.0580000000000003","51.71","1010.326","27.61","87.7","NAN","0.0"],
    [1566235,"2026-08-03 02:20:00","18945","0.848","38.03","1.797","23.44","1010.2760000000001","27.55","88.2","NAN","0.0"],
    [1566236,"2026-08-03 02:30:00","18946","0.898","55.58","1.9269999999999998","11.06","1010.182","27.55","88.5","NAN","0.0"],
    [1566237,"2026-08-03 02:40:00","18947","1.063","57.31","2.189","61.9","1010.1289999999999","27.51","88.8","NAN","0.0"],
    [1566238,"2026-08-03 02:50:00","18948","1.21","43.28","2.221","53.71","1010.107","27.44","89.5","NAN","0.0"],
    [1566239,"2026-08-03 03:00:00","18949","0.526","37.79","1.699","352.4","1010.1039999999999","27.46","89.5","NAN","0.0"],
    [1566240,"2026-08-03 03:10:00","18950","0.809","62.18","1.5030000000000001","45.94","1010.084","27.45","89.6","NAN","0.0"],
    [1566241,"2026-08-03 03:20:00","18951","1.3559999999999999","42.07","2.417","56.95","1009.944","27.35","89.8","NAN","0.0"],
    [1566242,"2026-08-03 03:30:00","18952","1.078","43.65","2.548","66.61","1009.913","27.31","89.8","NAN","0.0"],
    [1566243,"2026-08-03 03:40:00","18953","0.884","46.52","2.0909999999999997","26.72","1009.88","27.28","89.6","NAN","0.0"],
    [1566244,"2026-08-03 03:50:00","18954","0.922","54.79","1.895","7.515","1009.993","27.26","89.1","NAN","0.0"],
    [1566245,"2026-08-03 04:00:00","18955","1.229","47.97","2.679","57.67","1010.097","27.14","89.2","NAN","0.0"],
    [1566246,"2026-08-03 04:10:00","18956","0.7559999999999999","26.49","1.797","19.67","1010.117","27.08","88.8","NAN","0.0"],
    [1566247,"2026-08-03 04:20:00","18957","0.7879999999999999","28.14","2.352","27.84","1010.2489999999999","27.04","88.2","NAN","0.0"],
    [1566248,"2026-08-03 04:30:00","18958","0.975","24.04","1.829","64.85","1010.336","26.9","87.5","NAN","0.0"],
    [1566249,"2026-08-03 04:40:00","18959","1.222","37.43","2.8089999999999997","30.6","1010.326","26.74","87.1","NAN","0.0"],
    [1566250,"2026-08-03 04:50:00","18960","0.89","27.55","2.319","51.24","1010.3660000000001","26.67","86.4","NAN","0.0"],
    [1566251,"2026-08-03 05:00:00","18961","0.802","21.64","2.0580000000000003","36.29","1010.4830000000001","26.78","85.7","NAN","0.0"],
    [1566252,"2026-08-03 05:10:00","18962","0.5870000000000001","23.63","1.699","17.02","1010.605","26.82","85.2","NAN","0.0"],
    [1566253,"2026-08-03 05:20:00","18963","1.2109999999999999","35.43","2.515","32.36","1010.695","27.05","84.9","NAN","0.0"],
    [1566254,"2026-08-03 05:30:00","18964","1.041","35.0","2.548","22.59","1010.812","26.99","86","NAN","0.0"],
    [1566255,"2026-08-03 05:40:00","18965","0.93","10.52","1.699","342.3","1010.8639999999999","27.06","85.4","NAN","0.0"],
    [1566256,"2026-08-03 05:50:00","18966","0.963","25.77","2.123","26.04","1011.0089999999999","27.26","84.3","NAN","0.0"],
    [1566257,"2026-08-03 06:00:00","18967","1.4780000000000002","43.47","3.43","61.81","1011.1030000000001","27.22","84.4","NAN","0.0"],
    [1566258,"2026-08-03 06:10:00","18968","1.3659999999999999","46.88","2.8089999999999997","27.82","1011.1030000000001","27.14","84.3","NAN","0.0"],
    [1566259,"2026-08-03 06:20:00","18969","1.39","35.51","3.463","31.65","1011.193","27.1","83.9","NAN","0.0"],
    [1566260,"2026-08-03 06:30:00","18970","1.028","42.13","2.156","19.84","1011.293","27.3","82.7","NAN","0.0"],
    [1566261,"2026-08-03 06:40:00","18971","1.6119999999999999","49.94","3.103","19.11","1011.3580000000001","27.36","83.7","NAN","0.0"],
    [1566262,"2026-08-03 06:50:00","18972","2.0980000000000003","65.34","4.704","64.64","1011.455","27.59","84.7","NAN","0.0"],
    [1566263,"2026-08-03 07:00:00","18973","1.919","54.72","3.887","74.4","1011.5","27.35","85.5","NAN","0.0"],
    [1566264,"2026-08-03 07:10:00","18974","1.828","59.01","4.475","65.97","1011.582","27.43","84.4","NAN","0.0"],
    [1566265,"2026-08-03 07:20:00","18975","2.01","50.67","3.855","55.21","1011.564","27.52","83.9","NAN","0.0"],
    [1566266,"2026-08-03 07:30:00","18976","2.3890000000000002","53.53","5.129","56.69","1011.487","27.51","83.8","NAN","0.0"],
    [1566267,"2026-08-03 07:40:00","18977","2.089","64.83","4.802","64.52","1011.477","27.95","82.2","NAN","0.0"],
    [1566268,"2026-08-03 07:50:00","18978","2.022","62.18","4.4430000000000005","74.4","1011.475","28.3","80.4","NAN","0.0"],
    [1566269,"2026-08-03 08:00:00","18979","1.996","57.6","4.41","31.4","1011.5010000000001","28.66","79.2","NAN","0.0"],
    [1566270,"2026-08-03 08:10:00","18980","2.847","84.3","5.422999999999999","80.7","1011.497","28.65","79.19","NAN","0.0"],
    [1566271,"2026-08-03 08:20:00","18981","3.252","85.9","5.847","93.8","1011.552","28.74","78.77","NAN","0.0"],
    [1566272,"2026-08-03 08:30:00","18982","3.705","86.2","5.978","109.7","1011.6039999999999","28.49","80.1","NAN","0.0"],
    [1566273,"2026-08-03 08:40:00","18983","3.1910000000000003","75.52","5.88","70.24","1011.681","28.53","80.1","NAN","0.0"],
    [1566274,"2026-08-03 08:50:00","18984","3.342","81.6","5.978","69.17","1011.711","29","78.11","NAN","0.0"],
    [1566275,"2026-08-03 09:00:00","18985","2.6889999999999996","80.2","4.998","60.42","1011.8580000000001","29.22","77.31","NAN","0.0"],
    [1566276,"2026-08-03 09:10:00","18986","2.682","82.5","5.325","63.17","1012.02","29.06","78.01","NAN","0.0"],
    [1566277,"2026-08-03 09:20:00","18987","2.467","84.1","4.508","85.2","1012.054","30.06","74.39","NAN","0.0"],
    [1566278,"2026-08-03 09:30:00","18988","3.569","92.4","6.893","110.8","1012.1260000000001","29.47","76.47","NAN","0.0"],
    [1566279,"2026-08-03 09:40:00","18989","3.304","90.7","5.684","101.9","1012.1489999999999","29.32","76.48","NAN","0.0"],
    [1566280,"2026-08-03 09:50:00","18990","3.352","91.3","5.7170000000000005","98.3","1012.1569999999999","29.4","76.15","NAN","0.0"],
    [1566281,"2026-08-03 10:00:00","18991","3.727","90.8","5.521","95.4","1012.181","29.17","76.38","NAN","0.0"],
    [1566282,"2026-08-03 10:10:00","18992","3.465","90.5","5.39","100.0","1012.198","29.14","77.32","NAN","0.0"],
    [1566283,"2026-08-03 10:20:00","18993","3.5180000000000002","87.1","5.88","97.5","1012.211","29.62","75.33","NAN","0.0"],
    [1566284,"2026-08-03 10:30:00","18994","3.233","88.9","5.586","65.75","1012.118","29.69","74.81","NAN","0.0"],
    [1566285,"2026-08-03 10:40:00","18995","3.009","74.61","5.88","76.86","1012.035","29.77","73.55","NAN","0.0"],
    [1566286,"2026-08-03 10:50:00","18996","2.965","87.6","6.042999999999999","97.5","1012.0160000000001","30.05","72.1","NAN","0.0"],
    [1566287,"2026-08-03 11:00:00","18997","3.18","87.6","5.227","82.0","1011.923","29.89","73.03","NAN","0.0"],
    [1566288,"2026-08-03 11:10:00","18998","3.3710000000000004","91.1","6.207000000000001","111.6","1011.868","29.43","74.96","NAN","0.0"],
    [1566289,"2026-08-03 11:20:00","18999","3.2510000000000003","88.0","5.2589999999999995","106.1","1011.821","29.48","76.66","NAN","0.0"],
    [1566290,"2026-08-03 11:30:00","19000","3.26","89.0","5.912999999999999","92.3","1011.807","29.62","75.76","NAN","0.0"],
    [1566291,"2026-08-03 11:40:00","19001","3.222","89.2","5.455","83.4","1011.795","29.47","77.74","NAN","0.0"],
    [1566292,"2026-08-03 11:50:00","19002","3.009","87.1","5.651","101.2","1011.81","29.73","75.68","NAN","0.0"],
    [1566293,"2026-08-03 12:00:00","19003","3.238","106.5","5.749","112.6","1011.808","29.34","76.63","NAN","0.0"],
    [1566294,"2026-08-03 12:10:00","19004","3.549","99.8","6.239","111.4","1011.671","29.46","76.33","NAN","0.0"],
    [1566295,"2026-08-03 12:20:00","19005","3.0860000000000003","103.2","5.88","93.3","1011.681","29.42","77.48","NAN","0.0"],
    [1566296,"2026-08-03 12:30:00","19006","2.7939999999999996","106.2","4.933","98.6","1011.615","29.49","77.5","NAN","0.0"],
    [1566297,"2026-08-03 12:40:00","19007","3.043","104.1","5.847","101.7","1011.497","29.36","77.6","NAN","0.0"],
    [1566298,"2026-08-03 12:50:00","19008","2.81","106.4","5.422999999999999","106.1","1011.441","29.36","78.48","NAN","0.0"],
    [1566299,"2026-08-03 13:00:00","19009","2.668","100.0","4.965","100.8","1011.471","29.63","77.38","NAN","0.0"],
    [1566300,"2026-08-03 13:10:00","19010","2.677","106.4","4.769","110.2","1011.416","29.38","78.94","NAN","0.0"],
    [1566301,"2026-08-03 13:20:00","19011","2.9389999999999996","114.4","4.671","103.1","1011.4060000000001","29.45","78.65","NAN","0.0"],
    [1566302,"2026-08-03 13:30:00","19012","3.115","122.9","4.606","122.9","1011.316","29.22","80.5","NAN","0.0"],
    [1566303,"2026-08-03 13:40:00","19013","3.076","112.3","5.227","109.8","1011.183","29.2","81.4","NAN","0.0"],
    [1566304,"2026-08-03 13:50:00","19014","2.8089999999999997","117.1","4.377","129.1","1011.113","29.1","81.7","NAN","0.0"],
    [1566305,"2026-08-03 14:00:00","19015","2.622","110.0","4.965","104.2","1010.9169999999999","29.15","81.4","NAN","0.0"],
    [1566306,"2026-08-03 14:10:00","19016","2.862","110.9","4.965","114.6","1010.836","29.25","80.7","NAN","0.0"],
    [1566307,"2026-08-03 14:20:00","19017","2.202","110.8","4.508","97.9","1010.895","29.32","81.2","NAN","0.0"],
    [1566308,"2026-08-03 14:30:00","19018","2.7110000000000003","124.6","4.508","116.4","1010.8480000000001","29.01","81.7","NAN","0.0"],
    [1566309,"2026-08-03 14:40:00","19019","2.535","119.7","4.083","105.3","1010.809","28.76","83.3","NAN","0.0"],
    [1566310,"2026-08-03 14:50:00","19020","2.342","121.8","4.2139999999999995","125.5","1010.793","29.12","82","NAN","0.0"],
    [1566311,"2026-08-03 15:00:00","19021","2.01","124.1","3.136","120.2","1010.7660000000001","28.89","83","NAN","0.0"],
    [1566312,"2026-08-03 15:10:00","19022","2.182","131.3","3.43","126.6","1010.622","28.82","83.4","NAN","0.0"],
    [1566313,"2026-08-03 15:20:00","19023","2.338","123.6","3.659","135.2","1010.502","28.82","84.2","NAN","0.0"],
    [1566314,"2026-08-03 15:30:00","19024","2.168","125.1","3.1689999999999996","115.3","1010.475","28.92","83.2","NAN","0.0"],
    [1566315,"2026-08-03 15:40:00","19025","2.45","141.4","3.855","164.1","1010.454","28.96","83.8","NAN","0.0"],
    [1566316,"2026-08-03 15:50:00","19026","2.3040000000000003","133.3","3.92","116.5","1010.357","28.77","84.8","NAN","0.0"],
    [1566317,"2026-08-03 16:00:00","19027","1.81","160.2","3.659","119.4","1010.558","29.02","83.7","NAN","0.0"],
    [1566318,"2026-08-03 16:10:00","19028","1.655","185.9","3.267","178.5","1010.791","29.23","82.8","NAN","0.0"],
    [1566319,"2026-08-03 16:20:00","19029","1.781","157.5","3.267","178.5","1010.617","28.88","84","NAN","0.0"],
    [1566320,"2026-08-03 16:30:00","19030","1.811","146.1","2.907","157.1","1010.42","28.99","83.7","NAN","0.0"],
    [1566321,"2026-08-03 16:40:00","19031","1.972","128.2","3.201","101.5","1010.235","28.82","83.9","NAN","0.0"],
    [1566322,"2026-08-03 16:50:00","19032","2.206","107.4","4.018","113.4","1009.7130000000001","28.7","84.6","NAN","0.0"],
    [1566323,"2026-08-03 17:00:00","19033","2.545","98.1","4.802","98.9","1009.357","28.85","84.6","NAN","0.0"],
    [1566324,"2026-08-03 17:10:00","19034","3.108","100.4","5.1610000000000005","105.8","1009.203","28.7","84.8","NAN","0.0"],
    [1566325,"2026-08-03 17:20:00","19035","2.345","109.6","4.2139999999999995","100.4","1009.436","28.48","86","NAN","0.0"],
    [1566326,"2026-08-03 17:30:00","19036","2.45","122.2","4.2139999999999995","106.8","1009.296","28.42","86.1","NAN","0.0"],
    [1566327,"2026-08-03 17:40:00","19037","2.262","100.6","3.887","110.8","1009.007","28.55","84.6","NAN","0.0"],
    [1566328,"2026-08-03 17:50:00","19038","2.562","108.1","4.573","109.7","1009.028","28.5","84.9","NAN","0.0"],
    [1566329,"2026-08-03 18:00:00","19039","1.186","158.1","4.051","111.8","1009.837","28.48","85.4","NAN","0.0"],
    [1566330,"2026-08-03 18:10:00","19040","1.0390000000000001","193.3","2.123","215.2","1010.436","28.69","83.9","NAN","0.0"],
    [1566331,"2026-08-03 18:20:00","19041","1.0759999999999998","167.0","2.352","131.2","1010.444","28.61","84.3","NAN","0.0"],
    [1566332,"2026-08-03 18:30:00","19042","1.785","165.0","2.907","152.7","1010.4060000000001","28.61","84.5","NAN","0.0"],
    [1566333,"2026-08-03 18:40:00","19043","1.439","167.7","2.483","184.4","1010.336","28.54","85.6","NAN","0.0"],
    [1566334,"2026-08-03 18:50:00","19044","1.479","173.6","2.417","173.6","1010.159","28.42","85.8","NAN","0.0"],
    [1566335,"2026-08-03 19:00:00","19045","1.57","174.5","2.548","164.0","1010.1089999999999","28.41","86.5","NAN","0.0"],
    [1566336,"2026-08-03 19:10:00","19046","1.48","154.0","2.254","174.4","1010.0139999999999","28.32","87.2","NAN","0.0"],
    [1566337,"2026-08-03 19:20:00","19047","1.3459999999999999","135.3","2.45","138.2","1009.85","28.32","87.4","NAN","0.0"],
    [1566338,"2026-08-03 19:30:00","19048","1.304","147.5","2.287","107.4","1009.9680000000001","28.3","87.7","NAN","0.0"],
    [1566339,"2026-08-03 19:40:00","19049","0.564","148.8","1.339","121.7","1010.077","28.43","87.1","NAN","0.0"],
    [1566340,"2026-08-03 19:50:00","19050","1.053","126.4","1.568","137.7","1010.064","28.36","87","NAN","0.0"],
    [1566341,"2026-08-03 20:00:00","19051","0.588","122.9","1.176","107.6","1010.312","28.26","87.7","NAN","0.0"],
    [1566342,"2026-08-03 20:10:00","19052","0.461","139.5","1.405","149.0","1010.551","28.32","87.2","NAN","0.0"],
    [1566343,"2026-08-03 20:20:00","19053","0.682","145.5","1.209","188.2","1010.8969999999999","28.35","86.3","NAN","0.0"],
    [1566344,"2026-08-03 20:30:00","19054","1.0","101.2","1.96","113.5","1011.082","28.51","86.1","NAN","0.0"],
    [1566345,"2026-08-03 20:40:00","19055","1.34","105.1","2.352","113.3","1011.2410000000001","28.44","86.8","NAN","0.0"],
    [1566346,"2026-08-03 20:50:00","19056","1.626","97.7","2.5810000000000004","94.2","1011.4","28.46","87.2","NAN","0.0"],
    [1566347,"2026-08-03 21:00:00","19057","1.079","93.5","1.699","101.5","1011.502","28.52","87.3","NAN","0.0"],
    [1566348,"2026-08-03 21:10:00","19058","1.501","92.0","2.45","100.3","1011.559","28.56","86.9","NAN","0.0"],
    [1566349,"2026-08-03 21:20:00","19059","1.466","86.7","2.352","67.49","1011.4169999999999","28.46","87","NAN","0.0"],
    [1566350,"2026-08-03 21:30:00","19060","1.712","88.2","2.6460000000000004","71.26","1011.575","28.39","88","NAN","0.0"],
    [1566351,"2026-08-03 21:40:00","19061","1.4069999999999998","85.1","2.7439999999999998","104.8","1011.691","28.34","88.2","NAN","0.0"],
    [1566352,"2026-08-03 21:50:00","19062","1.507","75.11","3.005","75.9","1011.6089999999999","28.26","88.9","NAN","0.0"],
    [1566353,"2026-08-03 22:00:00","19063","1.983","88.4","3.201","78.36","1011.6160000000001","28.23","88.9","NAN","0.0"],
    [1566354,"2026-08-03 22:10:00","19064","1.3259999999999998","80.7","2.417","82.1","1011.6510000000001","28.23","88.6","NAN","0.0"],
    [1566355,"2026-08-03 22:20:00","19065","1.219","88.4","2.385","77.35","1011.602","28.2","88.7","NAN","0.0"],
    [1566356,"2026-08-03 22:30:00","19066","1.463","85.7","2.319","86.1","1011.6489999999999","28.22","88.8","NAN","0.0"],
    [1566357,"2026-08-03 22:40:00","19067","1.621","82.2","2.548","76.56","1011.549","28.18","88.8","NAN","0.0"],
    [1566358,"2026-08-03 22:50:00","19068","1.5030000000000001","78.34","3.593","68.04","1011.472","28.13","88.8","NAN","0.0"],
    [1566359,"2026-08-03 23:00:00","19069","1.495","82.8","2.6460000000000004","78.92","1011.5219999999999","28.08","89.1","NAN","0.0"],
    [1566360,"2026-08-03 23:10:00","19070","1.3030000000000002","82.9","2.45","74.56","1011.575","28.07","89.3","NAN","0.0"],
    [1566361,"2026-08-03 23:20:00","19071","1.111","89.4","2.189","95.0","1011.597","28.03","89.4","NAN","0.0"],
    [1566362,"2026-08-03 23:30:00","19072","0.948","92.4","1.666","105.2","1011.562","27.98","89.4","NAN","0.0"],
    [1566363,"2026-08-03 23:40:00","19073","1.057","111.9","2.025","102.6","1011.58","27.94","89.4","NAN","0.0"],
    [1566364,"2026-08-03 23:50:00","19074","0.83","79.72","1.829","103.5","1011.602","27.95","89.4","NAN","0.0"],
    [1566365,"2026-08-04 00:00:00","19075","1.253","92.9","2.189","97.4","1011.602","27.98","88.9","NAN","0.0"],
    [1566366,"2026-08-04 00:10:00","19076","1.0759999999999998","79.36","1.829","99.8","1011.6189999999999","27.96","88.7","NAN","0.0"],
    [1566367,"2026-08-04 00:20:00","19077","0.82","87.4","1.666","55.49","1011.6510000000001","27.97","88.9","NAN","0.0"],
    [1566368,"2026-08-04 00:30:00","19078","0.86","89.7","1.797","94.3","1011.607","28","88.5","NAN","0.0"],
    [1566369,"2026-08-04 00:40:00","19079","0.682","39.84","1.405","45.01","1011.6419999999999","28","88.2","NAN","0.0"],
    [1566370,"2026-08-04 00:50:00","19080","0.9179999999999999","80.2","1.797","56.35","1011.671","27.94","88.6","NAN","0.0"],
    [1566371,"2026-08-04 01:00:00","19081","1.2009999999999998","62.34","2.123","37.74","1011.697","27.87","89","NAN","0.0"],
    [1566372,"2026-08-04 01:10:00","19082","0.956","63.0","1.829","57.08","1011.711","27.76","89.3","NAN","0.0"],
    [1566373,"2026-08-04 01:20:00","19083","1.275","68.95","2.483","70.57","1011.6619999999999","27.76","89.4","NAN","0.0"],
    [1566374,"2026-08-04 01:30:00","19084","1.209","41.0","2.352","40.42","1011.654","27.66","88.8","NAN","0.0"],
    [1566375,"2026-08-04 01:40:00","19085","0.41700000000000004","27.15","1.209","34.03","1011.7239999999999","27.64","86.6","NAN","0.0"],
    [1566376,"2026-08-04 01:50:00","19086","1.02","42.18","2.0909999999999997","60.54","1011.814","27.65","85.5","NAN","0.0"],
    [1566377,"2026-08-04 02:00:00","19087","1.178","36.33","2.613","27.59","1011.8430000000001","27.52","84","NAN","0.0"],
    [1566378,"2026-08-04 02:10:00","19088","1.1079999999999999","30.22","2.417","14.0","1011.789","27.49","83.1","NAN","0.0"],
    [1566379,"2026-08-04 02:20:00","19089","0.883","29.82","2.221","41.69","1011.721","27.47","82.7","NAN","0.0"],
    [1566380,"2026-08-04 02:30:00","19090","1.305","38.71","2.385","48.64","1011.722","27.28","82.6","NAN","0.0"],
    [1566381,"2026-08-04 02:40:00","19091","0.983","1.475","1.993","38.2","1011.7260000000001","27.24","81.2","NAN","0.0"],
    [1566382,"2026-08-04 02:50:00","19092","0.616","17.99","1.3719999999999999","39.61","1011.7589999999999","27.33","80.2","NAN","0.0"],
    [1566383,"2026-08-04 03:00:00","19093","0.855","29.36","1.7309999999999999","27.82","1011.7510000000001","27.3","79.92","NAN","0.0"],
    [1566384,"2026-08-04 03:10:00","19094","0.688","8.07","1.96","3.489","1011.7289999999999","27.26","79.62","NAN","0.0"],
    [1566385,"2026-08-04 03:20:00","19095","0.691","18.55","1.8619999999999999","346.8","1011.7289999999999","27.34","79.82","NAN","0.0"],
    [1566386,"2026-08-04 03:30:00","19096","0.7120000000000001","35.52","1.568","11.63","1011.7239999999999","27.23","79.81","NAN","0.0"],
    [1566387,"2026-08-04 03:40:00","19097","0.636","4.263999999999999","1.895","11.59","1011.612","27.35","79.12","NAN","0.0"],
    [1566388,"2026-08-04 03:50:00","19098","0.914","3.5460000000000003","1.764","351.8","1011.602","27.35","79.58","NAN","0.0"],
    [1566389,"2026-08-04 04:00:00","19099","0.636","38.0","1.307","17.08","1011.7260000000001","27.31","79.82","NAN","0.0"],
    [1566390,"2026-08-04 04:10:00","19100","0.737","20.6","1.829","1.6980000000000002","1011.831","27.14","80.5","NAN","0.0"],
    [1566391,"2026-08-04 04:20:00","19101","0.677","12.66","1.699","4.031000000000001","1011.8860000000001","27.23","79.82","NAN","0.0"],
    [1566392,"2026-08-04 04:30:00","19102","0.9109999999999999","28.96","2.6460000000000004","31.57","1011.9760000000001","27.06","79.79","NAN","0.0"],
    [1566393,"2026-08-04 04:40:00","19103","1.172","22.83","2.7769999999999997","30.77","1012.08","27.02","79.27","NAN","0.0"],
    [1566394,"2026-08-04 04:50:00","19104","1.26","1.138","2.548","12.24","1012.1","26.83","79.06","NAN","0.0"],
    [1566395,"2026-08-04 05:00:00","19105","1.073","9.25","2.123","32.79","1012.1669999999999","26.72","78.99","NAN","0.0"],
    [1566396,"2026-08-04 05:10:00","19106","1.002","17.8","2.123","36.2","1012.255","26.69","78.76","NAN","0.0"],
    [1566397,"2026-08-04 05:20:00","19107","0.841","22.84","2.221","31.73","1012.3489999999999","26.85","77.8","NAN","0.0"],
    [1566398,"2026-08-04 05:30:00","19108","0.877","8.88","2.287","27.51","1012.442","26.87","76.57","NAN","0.0"],
    [1566399,"2026-08-04 05:40:00","19109","0.557","8.31","1.7309999999999999","355.5","1012.4889999999999","26.96","74.11","NAN","0.0"],
    [1566400,"2026-08-04 05:50:00","19110","1.013","34.92","2.156","39.14","1012.6060000000001","26.86","73.11","NAN","0.0"],
    [1566401,"2026-08-04 06:00:00","19111","0.9890000000000001","8.34","2.515","24.92","1012.668","26.86","73.01","NAN","0.0"],
    [1566402,"2026-08-04 06:10:00","19112","0.701","15.28","2.352","4.8389999999999995","1012.74","27.33","71.59","NAN","0.0"],
    [1566403,"2026-08-04 06:20:00","19113","0.85","3.497","2.385","24.64","1012.818","27.69","70.15","NAN","0.0"],
    [1566404,"2026-08-04 06:30:00","19114","1.026","1.764","1.9269999999999998","350.8","1012.868","27.66","69.43","NAN","0.0"],
    [1566405,"2026-08-04 06:40:00","19115","1.04","1.78","2.221","17.01","1012.985","27.52","69.51","NAN","0.0"],
    [1566406,"2026-08-04 06:50:00","19116","0.722","5.651","2.0580000000000003","20.73","1013.072","27.96","68.15","NAN","0.0"],
    [1566407,"2026-08-04 07:00:00","19117","1.01","355.1","1.8619999999999999","355.5","1013.1189999999999","28.01","68.26","NAN","0.0"],
    [1566408,"2026-08-04 07:10:00","19118","0.8690000000000001","17.74","2.385","26.45","1013.232","28.22","67.77","NAN","0.0"],
    [1566409,"2026-08-04 07:20:00","19119","1.1159999999999999","0.93","2.319","351.9","1013.3330000000001","28.01","68.06","NAN","0.0"],
    [1566410,"2026-08-04 07:30:00","19120","1.004","2.21","2.7439999999999998","21.54","1013.3389999999999","28.03","69.23","NAN","0.0"],
    [1566411,"2026-08-04 07:40:00","19121","0.642","8.15","1.5030000000000001","5.736000000000001","1013.4169999999999","28.69","70.35","NAN","0.0"],
    [1566412,"2026-08-04 07:50:00","19122","1.046","38.15","2.189","56.61","1013.4960000000001","29.06","70.35","NAN","0.0"],
    [1566413,"2026-08-04 08:00:00","19123","0.6890000000000001","6.834","1.601","87.2","1013.529","29.03","69.34","NAN","0.0"],
    [1566414,"2026-08-04 08:10:00","19124","1.015","73.6","2.0580000000000003","75.68","1013.6110000000001","29.37","68.07","NAN","0.0"],
    [1566415,"2026-08-04 08:20:00","19125","1.3259999999999998","58.92","2.6460000000000004","102.6","1013.64","29.31","68.54","NAN","0.0"],
    [1566416,"2026-08-04 08:30:00","19126","2.0180000000000002","111.6","3.299","115.6","1013.655","28.85","72.17","NAN","0.0"],
    [1566417,"2026-08-04 08:40:00","19127","2.05","106.2","3.234","109.5","1013.7410000000001","29.21","70.67","NAN","0.0"],
    [1566418,"2026-08-04 08:50:00","19128","2.074","110.5","3.234","112.0","1013.762","28.95","74.66","NAN","0.0"],
    [1566419,"2026-08-04 09:00:00","19129","2.325","106.7","4.247","103.9","1013.7660000000001","29.03","74.99","NAN","0.0"],
    [1566420,"2026-08-04 09:10:00","19130","2.436","107.3","4.083","92.7","1013.797","28.99","75.25","NAN","0.0"],
    [1566421,"2026-08-04 09:20:00","19131","2.319","119.2","3.5610000000000004","93.0","1013.873","28.85","75.52","NAN","0.0"],
    [1566422,"2026-08-04 09:30:00","19132","2.6","122.1","4.345","145.4","1013.997","28.65","76.15","NAN","0.0"],
    [1566423,"2026-08-04 09:40:00","19133","2.7060000000000004","117.9","4.2139999999999995","104.2","1013.997","28.73","76.1","NAN","0.0"],
    [1566424,"2026-08-04 09:50:00","19134","2.8110000000000004","118.0","4.312","152.8","1014.03","28.77","75.16","NAN","0.0"],
    [1566425,"2026-08-04 10:00:00","19135","2.623","116.9","4.149","116.8","1014.0369999999999","28.95","74.21","NAN","0.0"],
    [1566426,"2026-08-04 10:10:00","19136","2.674","121.7","4.737","100.5","1014.051","28.98","72.46","NAN","0.0"],
    [1566427,"2026-08-04 10:20:00","19137","2.7510000000000003","122.5","4.573","113.5","1014.1260000000001","28.86","73.88","NAN","0.0"],
    [1566428,"2026-08-04 10:30:00","19138","2.448","124.8","4.149","116.0","1014.248","28.92","77.41","NAN","0.0"],
    [1566429,"2026-08-04 10:40:00","19139","2.95","126.2","4.835","106.5","1014.2819999999999","28.73","78.36","NAN","0.0"],
    [1566430,"2026-08-04 10:50:00","19140","2.966","122.5","4.704","109.4","1014.2919999999999","28.57","78.07","NAN","0.0"],
    [1566431,"2026-08-04 11:00:00","19141","3.02","119.7","5.325","113.3","1014.2819999999999","28.75","77.33","NAN","0.0"],
    [1566432,"2026-08-04 11:10:00","19142","2.761","121.4","5.1610000000000005","107.6","1014.2539999999999","28.69","77.33","NAN","0.0"],
    [1566433,"2026-08-04 11:20:00","19143","2.542","127.7","4.1160000000000005","108.4","1014.237","29.11","75.01","NAN","0.0"],
    [1566434,"2026-08-04 11:30:00","19144","2.75","124.6","4.704","108.6","1014.2689999999999","28.73","76.99","NAN","0.0"],
    [1566435,"2026-08-04 11:40:00","19145","2.93","121.4","5.063","110.4","1014.201","28.94","76.47","NAN","0.0"],
    [1566436,"2026-08-04 11:50:00","19146","2.878","125.6","5.096","117.1","1014.203","29.32","75.32","NAN","0.0"],
    [1566437,"2026-08-04 12:00:00","19147","2.891","123.8","4.541","129.3","1014.2230000000001","28.89","76.7","NAN","0.0"],
    [1566438,"2026-08-04 12:10:00","19148","2.8480000000000003","123.8","4.475","118.2","1014.204","28.8","76.25","NAN","0.0"],
    [1566439,"2026-08-04 12:20:00","19149","2.8310000000000004","129.1","4.312","145.3","1014.209","28.8","76.3","NAN","0.0"],
    [1566440,"2026-08-04 12:30:00","19150","2.984","127.3","4.377","147.2","1014.066","28.86","75.94","NAN","0.0"],
    [1566441,"2026-08-04 12:40:00","19151","2.8480000000000003","122.8","5.227","112.0","1014.062","29.09","73.86","NAN","0.0"],
    [1566442,"2026-08-04 12:50:00","19152","2.977","123.9","5.39","108.2","1014.051","28.6","77.08","NAN","0.0"],
    [1566443,"2026-08-04 13:00:00","19153","2.399","124.0","4.769","116.8","1014.225","28.35","78.38","NAN","0.0"],
    [1566444,"2026-08-04 13:10:00","19154","2.3409999999999997","124.8","3.855","137.0","1014.173","28.15","79.2","NAN","0.0"],
    [1566445,"2026-08-04 13:20:00","19155","1.9880000000000002","129.6","3.5610000000000004","137.6","1014.3739999999999","27.92","80.3","NAN","0.0"],
    [1566446,"2026-08-04 13:30:00","19156","2.0469999999999997","124.5","3.7569999999999997","109.2","1014.447","27.88","80.2","NAN","0.0"],
    [1566447,"2026-08-04 13:40:00","19157","1.631","123.7","3.0380000000000003","94.4","1014.544","27.87","79.08","NAN","0.0"],
    [1566448,"2026-08-04 13:50:00","19158","1.605","149.6","3.136","151.7","1014.462","27.96","79.31","NAN","0.0"],
    [1566449,"2026-08-04 14:00:00","19159","1.675","136.6","3.1689999999999996","98.3","1014.41","27.95","79.52","NAN","0.0"],
    [1566450,"2026-08-04 14:10:00","19160","1.557","131.1","2.515","112.7","1014.457","28.03","79.56","NAN","0.0"],
    [1566451,"2026-08-04 14:20:00","19161","1.462","136.0","2.45","130.0","1014.467","28.04","79.59","NAN","0.0"],
    [1566452,"2026-08-04 14:30:00","19162","1.739","142.6","3.5610000000000004","142.0","1014.327","28.22","78.5","NAN","0.0"],
    [1566453,"2026-08-04 14:40:00","19163","1.564","149.0","3.071","143.0","1014.3380000000001","29.21","74.86","NAN","0.0"],
    [1566454,"2026-08-04 14:50:00","19164","1.9169999999999998","143.3","3.92","106.0","1014.1460000000001","29.08","74.74","NAN","0.0"],
    [1566455,"2026-08-04 15:00:00","19165","2.23","140.7","3.593","115.6","1013.997","28.9","75.86","NAN","0.0"],
    [1566456,"2026-08-04 15:10:00","19166","1.9409999999999998","156.1","4.083","145.1","1014.003","29.03","74.82","NAN","0.0"],
    [1566457,"2026-08-04 15:20:00","19167","1.875","136.9","3.7569999999999997","165.8","1013.982","29.01","74.77","NAN","0.0"],
    [1566458,"2026-08-04 15:30:00","19168","2.227","140.5","3.7239999999999998","158.2","1013.807","28.93","74.5","NAN","0.0"],
    [1566459,"2026-08-04 15:40:00","19169","1.996","128.0","3.6910000000000003","126.7","1013.803","28.8","75.21","NAN","0.0"],
    [1566460,"2026-08-04 15:50:00","19170","1.3659999999999999","172.3","2.679","137.7","1013.878","29.08","74.48","NAN","0.0"],
    [1566461,"2026-08-04 16:00:00","19171","1.7080000000000002","140.4","2.94","152.4","1013.8430000000001","29.01","74.77","NAN","0.0"],
    [1566462,"2026-08-04 16:10:00","19172","2.075","128.6","3.528","136.2","1013.954","28.75","75.52","NAN","0.0"],
    [1566463,"2026-08-04 16:20:00","19173","1.671","123.9","3.495","140.4","1013.9839999999999","28.62","75.48","NAN","0.0"],
    [1566464,"2026-08-04 16:30:00","19174","1.67","134.1","2.907","147.9","1014.2810000000001","28.93","73.74","NAN","0.0"],
    [1566465,"2026-08-04 16:40:00","19175","1.679","126.9","3.0380000000000003","108.5","1014.204","28.61","74.85","NAN","0.0"],
    [1566466,"2026-08-04 16:50:00","19176","1.639","124.8","2.613","112.5","1014.2439999999999","28.64","74.87","NAN","0.0"],
    [1566467,"2026-08-04 17:00:00","19177","2.263","108.5","3.6260000000000003","110.7","1014.312","28.47","76.33","NAN","0.0"],
    [1566468,"2026-08-04 17:10:00","19178","1.851","96.7","3.1689999999999996","105.2","1014.3439999999999","28.8","75.54","NAN","0.0"],
    [1566469,"2026-08-04 17:20:00","19179","1.551","123.7","2.385","146.1","1014.301","28.52","77.04","NAN","0.0"],
    [1566470,"2026-08-04 17:30:00","19180","1.999","109.3","3.6910000000000003","111.9","1014.14","28.29","78.7","NAN","0.0"],
    [1566471,"2026-08-04 17:40:00","19181","1.331","125.0","2.319","129.8","1013.975","28.36","78.37","NAN","0.0"],
    [1566472,"2026-08-04 17:50:00","19182","1.459","108.4","2.515","93.8","1014.033","28.33","78.85","NAN","0.0"],
    [1566473,"2026-08-04 18:00:00","19183","1.169","170.7","2.319","181.6","1014.09","28.22","79.26","NAN","0.0"],
    [1566474,"2026-08-04 18:10:00","19184","0.873","203.2","1.797","217.0","1014.045","28.37","78.96","NAN","0.0"],
    [1566475,"2026-08-04 18:20:00","19185","0.903","156.4","2.352","107.1","1014.1410000000001","28.54","77.96","NAN","0.0"],
    [1566476,"2026-08-04 18:30:00","19186","0.955","153.7","1.699","113.1","1014.315","28.02","80.2","NAN","0.0"],
    [1566477,"2026-08-04 18:40:00","19187","0.867","135.7","1.339","179.1","1014.24","28.06","80.3","NAN","0.0"],
    [1566478,"2026-08-04 18:50:00","19188","0.975","149.3","1.535","157.1","1014.303","28.05","80.6","NAN","0.0"],
    [1566479,"2026-08-04 19:00:00","19189","0.7120000000000001","135.7","1.47","143.0","1014.345","28.01","81.1","NAN","0.0"],
    [1566480,"2026-08-04 19:10:00","19190","0.675","186.3","1.2409999999999999","211.4","1014.345","28.1","80.9","NAN","0.0"],
    [1566481,"2026-08-04 19:20:00","19191","0.64","181.7","1.143","180.4","1014.335","28.1","81.1","NAN","0.0"],
    [1566482,"2026-08-04 19:30:00","19192","1.0270000000000001","181.2","1.764","190.1","1014.335","28.15","82","NAN","0.0"],
    [1566483,"2026-08-04 19:40:00","19193","1.072","155.0","1.7309999999999999","166.2","1014.4069999999999","28.21","81.5","NAN","0.0"],
    [1566484,"2026-08-04 19:50:00","19194","0.861","178.7","1.568","141.0","1014.51","28.25","80.8","NAN","0.0"],
    [1566485,"2026-08-04 20:00:00","19195","0.899","178.5","1.699","225.1","1014.796","28.32","78.87","NAN","0.0"],
    [1566486,"2026-08-04 20:10:00","19196","0.619","133.3","1.013","123.4","1014.9730000000001","28.45","77.95","NAN","0.0"],
    [1566487,"2026-08-04 20:20:00","19197","0.932","124.8","1.895","115.8","1015.122","28.3","79.86","NAN","0.0"],
    [1566488,"2026-08-04 20:30:00","19198","1.0270000000000001","140.2","1.764","108.9","1015.182","28.1","82.1","NAN","0.0"],
    [1566489,"2026-08-04 20:40:00","19199","0.5660000000000001","146.3","0.915","133.1","1015.24","27.92","82.9","NAN","0.0"],
    [1566490,"2026-08-04 20:50:00","19200","0.57","144.4","1.045","150.1","1015.217","27.9","82.9","NAN","0.0"],
    [1566491,"2026-08-04 21:00:00","19201","0.6579999999999999","139.5","1.3719999999999999","144.5","1015.312","27.89","83","NAN","0.0"],
    [1566492,"2026-08-04 21:10:00","19202","0.67","152.4","1.176","151.7","1015.284","27.88","82.9","NAN","0.0"],
    [1566493,"2026-08-04 21:20:00","19203","0.242","160.8","0.915","137.4","1015.202","27.9","82.6","NAN","0.0"],
    [1566494,"2026-08-04 21:30:00","19204","0.037000000000000005","172.3","0.49","183.0","1015.177","27.91","83.4","NAN","0.0"],
    [1566495,"2026-08-04 21:40:00","19205","0.183","161.9","0.653","180.7","1015.184","27.86","82.8","NAN","0.0"],
    [1566496,"2026-08-04 21:50:00","19206","0.547","232.7","2.123","240.2","1015.212","28.1","78.93","NAN","0.0"],
    [1566497,"2026-08-04 22:00:00","19207","1.146","250.9","2.45","262.2","1015.187","28.57","75.29","NAN","0.0"],
    [1566498,"2026-08-04 22:10:00","19208","0.745","237.1","2.0580000000000003","228.3","1015.212","28.61","75.31","NAN","0.0"],
    [1566499,"2026-08-04 22:20:00","19209","1.137","238.2","2.45","243.8","1015.2669999999999","28.49","76","NAN","0.0"],
    [1566500,"2026-08-04 22:30:00","19210","1.368","247.3","2.7110000000000003","233.4","1015.3389999999999","28.44","74.74","NAN","0.0"],
    [1566501,"2026-08-04 22:40:00","19211","0.672","237.4","2.025","255.9","1015.3389999999999","28.54","73.37","NAN","0.0"],
    [1566502,"2026-08-04 22:50:00","19212","1.2790000000000001","243.8","2.483","246.6","1015.342","28.41","71.63","NAN","0.0"],
    [1566503,"2026-08-04 23:00:00","19213","0.9940000000000001","243.7","2.385","261.3","1015.3539999999999","28.4","71.09","NAN","0.0"],
    [1566504,"2026-08-04 23:10:00","19214","0.9279999999999999","240.1","2.254","244.8","1015.3389999999999","28.34","70.81","NAN","0.0"],
    [1566505,"2026-08-04 23:20:00","19215","0.993","243.2","2.287","243.5","1015.3860000000001","28.35","70.38","NAN","0.0"],
    [1566506,"2026-08-04 23:30:00","19216","1.099","250.4","2.123","252.6","1015.3389999999999","28.26","70.55","NAN","0.0"],
    [1566507,"2026-08-04 23:40:00","19217","0.259","270.4","1.568","248.2","1015.316","28.33","70.07","NAN","0.0"],
    [1566508,"2026-08-04 23:50:00","19218","0.451","186.7","0.9470000000000001","166.5","1015.232","28.34","70.14","NAN","0.0"],
    [1566509,"2026-08-05 00:00:00","19219","0.40299999999999997","138.7","0.915","103.9","1015.222","28.06","71.57","NAN","0.0"],
    [1566510,"2026-08-05 00:10:00","19220","0.634","95.1","1.4369999999999998","82.4","1015.2189999999999","27.94","71.34","NAN","0.0"],
    [1566511,"2026-08-05 00:20:00","19221","0.6920000000000001","63.2","1.4369999999999998","71.26","1015.2669999999999","28.01","68.13","NAN","0.0"],
    [1566512,"2026-08-05 00:30:00","19222","0.5539999999999999","76.12","1.2409999999999999","69.4","1015.232","28.03","69.13","NAN","0.0"],
    [1566513,"2026-08-05 00:40:00","19223","0.322","47.53","1.339","51.82","1015.2639999999999","27.9","70.96","NAN","0.0"],
    [1566514,"2026-08-05 00:50:00","19224","0.275","65.43","0.6859999999999999","53.74","1015.252","27.8","72.19","NAN","0.0"],
    [1566515,"2026-08-05 01:00:00","19225","0.057","53.03","0.457","82.6","1015.23","27.6","74.02","NAN","0.0"],
    [1566516,"2026-08-05 01:10:00","19226","0.085","27.03","0.653","23.84","1015.262","27.58","74.51","NAN","0.0"],
    [1566517,"2026-08-05 01:20:00","19227","0.094","188.7","0.588","193.9","1015.209","27.33","76.4","NAN","0.0"],
    [1566518,"2026-08-05 01:30:00","19228","0.361","199.1","0.7509999999999999","222.1","1015.174","27.03","78.78","NAN","0.0"],
    [1566519,"2026-08-05 01:40:00","19229","0.35700000000000004","301.1","1.4369999999999998","303.5","1015.257","27.48","76.03","NAN","0.0"],
    [1566520,"2026-08-05 01:50:00","19230","0.052000000000000005","151.3","0.555","222.6","1015.3989999999999","27.74","74.56","NAN","0.0"],
    [1566521,"2026-08-05 02:00:00","19231","0.812","3.859","1.8619999999999999","28.92","1015.459","27.66","71.69","NAN","0.0"],
    [1566522,"2026-08-05 02:10:00","19232","1.022","41.98","2.45","41.89","1015.471","27.94","66.42","NAN","0.0"],
    [1566523,"2026-08-05 02:20:00","19233","1.203","22.51","2.94","9.65","1015.4639999999999","27.68","64.77","NAN","0.0"],
    [1566524,"2026-08-05 02:30:00","19234","0.914","42.72","3.103","18.19","1015.4810000000001","27.57","65.26","NAN","0.0"],
    [1566525,"2026-08-05 02:40:00","19235","0.835","34.67","2.8089999999999997","23.25","1015.4989999999999","27.32","66.88","NAN","0.0"],
    [1566526,"2026-08-05 02:50:00","19236","0.625","355.9","1.405","350.9","1015.4739999999999","27.33","66.62","NAN","0.0"],
    [1566527,"2026-08-05 03:00:00","19237","0.593","358.6","1.405","350.9","1015.436","27.49","64.5","NAN","0.0"],
    [1566528,"2026-08-05 03:10:00","19238","0.521","349.1","2.025","306.9","1015.342","27.71","61.25","NAN","0.0"],
    [1566529,"2026-08-05 03:20:00","19239","0.299","348.6","1.535","20.46","1015.3389999999999","28.11","58.32","NAN","0.0"],
    [1566530,"2026-08-05 03:30:00","19240","0.36700000000000005","348.8","1.47","17.51","1015.306","28.04","57.22","NAN","0.0"],
    [1566531,"2026-08-05 03:40:00","19241","0.715","47.07","1.96","30.04","1015.302","27.92","57.44","NAN","0.0"],
    [1566532,"2026-08-05 03:50:00","19242","0.5770000000000001","12.38","1.568","11.51","1015.3389999999999","27.58","58.76","NAN","0.0"],
    [1566533,"2026-08-05 04:00:00","19243","0.826","6.75","2.0580000000000003","6.399","1015.3439999999999","27.55","58.79","NAN","0.0"],
    [1566534,"2026-08-05 04:10:00","19244","0.132","14.93","0.915","15.96","1015.3660000000001","27.47","59.07","NAN","0.0"],
    [1566535,"2026-08-05 04:20:00","19245","0.466","32.61","1.176","18.57","1015.3969999999999","27.25","59.66","NAN","0.0"],
    [1566536,"2026-08-05 04:30:00","19246","0.56","21.26","1.5030000000000001","26.57","1015.444","27.26","59.61","NAN","0.0"],
    [1566537,"2026-08-05 04:40:00","19247","0.53","355.5","1.8619999999999999","358.9","1015.544","27.5","58.49","NAN","0.0"],
    [1566538,"2026-08-05 04:50:00","19248","0.34600000000000003","357.9","0.8170000000000001","24.63","1015.5930000000001","27.86","57.18","NAN","0.0"],
    [1566539,"2026-08-05 05:00:00","19249","0.523","358.9","1.633","18.56","1015.703","27.85","57.26","NAN","0.0"],
    [1566540,"2026-08-05 05:10:00","19250","0.46799999999999997","5.145","1.013","13.48","1015.8","27.83","57.4","NAN","0.0"],
    [1566541,"2026-08-05 05:20:00","19251","0.6970000000000001","4.013999999999999","1.339","26.23","1015.837","27.98","56.91","NAN","0.0"],
    [1566542,"2026-08-05 05:30:00","19252","0.879","4.73","1.8619999999999999","32.05","1015.837","27.9","57.39","NAN","0.0"],
    [1566543,"2026-08-05 05:40:00","19253","0.972","10.22","1.8619999999999999","26.18","1015.87","27.83","57.65","NAN","0.0"],
    [1566544,"2026-08-05 05:50:00","19254","1.0590000000000002","10.75","2.254","16.6","1015.852","27.85","57.52","NAN","0.0"],
    [1566545,"2026-08-05 06:00:00","19255","0.8490000000000001","17.43","2.515","25.47","1015.947","28.03","57.08","NAN","0.0"],
    [1566546,"2026-08-05 06:10:00","19256","0.855","18.28","2.483","21.1","1015.915","28.24","56.58","NAN","0.0"],
    [1566547,"2026-08-05 06:20:00","19257","1.294","10.0","2.679","9.42","1016.0089999999999","28.35","56.32","NAN","0.0"],
    [1566548,"2026-08-05 06:30:00","19258","1.12","22.01","2.5810000000000004","24.42","1016.096","28.54","56.07","NAN","0.0"],
    [1566549,"2026-08-05 06:40:00","19259","0.5670000000000001","10.08","1.4369999999999998","31.45","1016.2660000000001","28.88","55.18","NAN","0.0"],
    [1566550,"2026-08-05 06:50:00","19260","0.6940000000000001","351.0","1.535","22.32","1016.3760000000001","29.46","53.31","NAN","0.0"],
    [1566551,"2026-08-05 07:00:00","19261","0.374","66.16","0.98","72.39","1016.475","30.04","51.96","NAN","0.0"],
    [1566552,"2026-08-05 07:10:00","19262","0.305","12.33","1.3719999999999999","23.46","1016.613","30.56","50.2","NAN","0.0"],
    [1566553,"2026-08-05 07:20:00","19263","0.693","15.94","1.699","17.9","1016.73","30.66","49.59","NAN","0.0"],
    [1566554,"2026-08-05 07:30:00","19264","0.858","61.01","1.9269999999999998","48.35","1016.745","30.92","48.98","NAN","0.0"],
    [1566555,"2026-08-05 07:40:00","19265","1.317","74.08","2.319","103.5","1016.721","30.71","49.98","NAN","0.0"],
    [1566556,"2026-08-05 07:50:00","19266","0.8340000000000001","100.1","1.764","119.7","1016.7310000000001","30.61","53.2","NAN","0.0"],
    [1566557,"2026-08-05 08:00:00","19267","1.287","123.2","2.189","112.9","1016.712","30.66","55.87","NAN","0.0"],
    [1566558,"2026-08-05 08:10:00","19268","1.272","102.2","2.352","117.9","1016.675","30.33","56.94","NAN","0.0"],
    [1566559,"2026-08-05 08:20:00","19269","1.315","104.9","2.45","102.4","1016.696","30.68","57.97","NAN","0.0"],
    [1566560,"2026-08-05 08:30:00","19270","1.079","116.5","1.96","120.7","1016.702","30.46","59.53","NAN","0.0"],
    [1566561,"2026-08-05 08:40:00","19271","1.2409999999999999","126.2","2.0580000000000003","129.4","1016.7510000000001","30.54","60.14","NAN","0.0"],
    [1566562,"2026-08-05 08:50:00","19272","0.873","122.7","1.96","140.7","1016.817","30.66","58.98","NAN","0.0"],
    [1566563,"2026-08-05 09:00:00","19273","1.025","125.1","2.0909999999999997","115.8","1016.753","30.91","58.16","NAN","0.0"],
    [1566564,"2026-08-05 09:10:00","19274","1.5030000000000001","117.8","2.515","100.1","1016.709","30.68","58","NAN","0.0"],
    [1566565,"2026-08-05 09:20:00","19275","1.7369999999999999","121.9","3.0380000000000003","109.3","1016.834","30.59","58.27","NAN","0.0"],
    [1566566,"2026-08-05 09:30:00","19276","2.237","115.6","3.299","106.7","1016.9010000000001","30.44","58.71","NAN","0.0"],
    [1566567,"2026-08-05 09:40:00","19277","2.077","119.1","2.9730000000000003","102.3","1016.915","30.41","59.23","NAN","0.0"],
    [1566568,"2026-08-05 09:50:00","19278","1.5959999999999999","171.7","2.8089999999999997","183.7","1016.96","30.86","56.27","NAN","0.0"],
    [1566569,"2026-08-05 10:00:00","19279","1.89","174.4","3.136","161.1","1017.045","30.94","55.12","NAN","0.0"],
    [1566570,"2026-08-05 10:10:00","19280","1.975","168.4","3.201","148.3","1017.11","30.86","56.59","NAN","0.0"],
    [1566571,"2026-08-05 10:20:00","19281","2.123","177.2","3.267","169.1","1017.221","30.95","57.05","NAN","0.0"],
    [1566572,"2026-08-05 10:30:00","19282","2.146","173.9","3.495","189.5","1017.2310000000001","31.11","56.45","NAN","0.0"],
    [1566573,"2026-08-05 10:40:00","19283","2.614","180.8","3.887","183.1","1017.2510000000001","30.86","55.87","NAN","0.0"],
    [1566574,"2026-08-05 10:50:00","19284","2.98","177.5","4.671","175.7","1017.252","30.91","54.14","NAN","0.0"],
    [1566575,"2026-08-05 11:00:00","19285","3.017","168.3","4.4430000000000005","178.2","1017.247","30.81","54.26","NAN","0.0"],
    [1566576,"2026-08-05 11:10:00","19286","3.113","171.7","4.671","152.2","1017.258","30.83","54.68","NAN","0.0"],
    [1566577,"2026-08-05 11:20:00","19287","2.6510000000000002","177.2","4.377","176.8","1017.265","31.12","52.22","NAN","0.0"],
    [1566578,"2026-08-05 11:30:00","19288","3.062","179.0","5.129","172.9","1017.221","31.68","49.18","NAN","0.0"],
    [1566579,"2026-08-05 11:40:00","19289","2.785","183.8","4.9","184.2","1017.176","31.73","48.56","NAN","0.0"],
    [1566580,"2026-08-05 11:50:00","19290","3.569","179.3","5.749","169.1","1017.1310000000001","31.63","48.91","NAN","0.0"],
    [1566581,"2026-08-05 12:00:00","19291","3.634","177.9","5.847","179.9","1017.067","31.48","48.06","NAN","0.0"],
    [1566582,"2026-08-05 12:10:00","19292","3.654","175.8","5.912999999999999","177.0","1017.0369999999999","31.57","45.69","NAN","0.0"],
    [1566583,"2026-08-05 12:20:00","19293","3.648","176.1","6.435","170.1","1017.028","31.67","45.63","NAN","0.0"],
    [1566584,"2026-08-05 12:30:00","19294","3.5810000000000004","181.3","6.957999999999999","172.4","1017.013","31.64","46.99","NAN","0.0"],
    [1566585,"2026-08-05 12:40:00","19295","2.2159999999999997","192.8","4.965","182.7","1016.941","32.22","48.53","NAN","0.0"],
    [1566586,"2026-08-05 12:50:00","19296","3.157","180.8","6.141","170.9","1016.847","31.96","49.09","NAN","0.0"],
    [1566587,"2026-08-05 13:00:00","19297","3.32","179.1","5.4879999999999995","172.2","1016.8889999999999","31.46","52.48","NAN","0.0"],
    [1566588,"2026-08-05 13:10:00","19298","2.855","182.5","5.194","178.2","1016.818","31.63","53.19","NAN","0.0"],
    [1566589,"2026-08-05 13:20:00","19299","2.7430000000000003","187.5","4.9","176.5","1016.802","31.84","52.05","NAN","0.0"],
    [1566590,"2026-08-05 13:30:00","19300","2.855","185.4","5.194","185.7","1016.811","31.8","52.06","NAN","0.0"],
    [1566591,"2026-08-05 13:40:00","19301","2.7460000000000004","188.1","5.7170000000000005","170.5","1016.793","32.04","51.53","NAN","0.0"],
    [1566592,"2026-08-05 13:50:00","19302","2.363","199.7","5.847","197.0","1016.743","32.26","51.33","NAN","0.0"],
    [1566593,"2026-08-05 14:00:00","19303","2.405","197.3","5.847","201.4","1016.581","32.71","50.23","NAN","0.0"],
    [1566594,"2026-08-05 14:10:00","19304","2.884","198.3","5.357","182.9","1016.512","32.18","51.93","NAN","0.0"],
    [1566595,"2026-08-05 14:20:00","19305","2.36","204.9","5.651","198.6","1016.4860000000001","32.69","51.1","NAN","0.0"],
    [1566596,"2026-08-05 14:30:00","19306","3.096","194.1","5.815","192.5","1016.428","31.98","54.28","NAN","0.0"],
    [1566597,"2026-08-05 14:40:00","19307","2.092","216.8","5.063","215.2","1016.4","32.78","52.15","NAN","0.0"],
    [1566598,"2026-08-05 14:50:00","19308","2.2969999999999997","218.6","5.88","246.3","1016.308","32.57","51.89","NAN","0.0"],
    [1566599,"2026-08-05 15:00:00","19309","1.879","209.9","5.129","200.9","1016.2819999999999","32.73","51.75","NAN","0.0"],
    [1566600,"2026-08-05 15:10:00","19310","2.9419999999999997","200.8","5.2589999999999995","182.0","1016.263","32.2","53.29","NAN","0.0"],
    [1566601,"2026-08-05 15:20:00","19311","2.314","204.7","5.292000000000001","226.9","1016.215","32.17","53.67","NAN","0.0"],
    [1566602,"2026-08-05 15:30:00","19312","2.614","202.5","5.227","199.7","1016.182","32.09","54.42","NAN","0.0"],
    [1566603,"2026-08-05 15:40:00","19313","2.793","215.9","6.272","211.1","1016.1389999999999","32.08","54.4","NAN","0.0"],
    [1566604,"2026-08-05 15:50:00","19314","2.752","204.4","5.096","223.8","1016.1039999999999","32.09","55.3","NAN","0.0"],
    [1566605,"2026-08-05 16:00:00","19315","2.479","203.0","5.031000000000001","192.2","1016.1010000000001","31.79","56.52","NAN","0.0"],
    [1566606,"2026-08-05 16:10:00","19316","2.656","210.2","7.023","206.6","1016.087","31.83","54.69","NAN","0.0"],
    [1566607,"2026-08-05 16:20:00","19317","2.892","203.5","6.5329999999999995","211.8","1016.095","31.58","53.5","NAN","0.0"],
    [1566608,"2026-08-05 16:30:00","19318","2.605","206.2","6.435","196.2","1016.085","31.71","53.78","NAN","0.0"],
    [1566609,"2026-08-05 16:40:00","19319","2.4659999999999997","199.3","4.606","209.3","1016.095","31.66","54.16","NAN","0.0"],
    [1566610,"2026-08-05 16:50:00","19320","2.627","194.7","5.2589999999999995","199.4","1016.041","31.11","54.86","NAN","0.0"],
    [1566611,"2026-08-05 17:00:00","19321","2.258","207.3","5.2589999999999995","217.6","1016.0310000000001","31.34","53.15","NAN","0.0"],
    [1566612,"2026-08-05 17:10:00","19322","2.013","214.6","4.345","223.4","1016.09","31.41","53.06","NAN","0.0"],
    [1566613,"2026-08-05 17:20:00","19323","2.07","209.4","4.9","193.5","1016.1389999999999","31.61","52.89","NAN","0.0"],
    [1566614,"2026-08-05 17:30:00","19324","1.869","205.0","3.9530000000000003","211.5","1016.237","31.21","54.44","NAN","0.0"],
    [1566615,"2026-08-05 17:40:00","19325","1.838","198.2","4.312","178.1","1016.325","31.04","56.36","NAN","0.0"],
    [1566616,"2026-08-05 17:50:00","19326","2.201","193.8","4.638999999999999","196.2","1016.329","30.8","56.46","NAN","0.0"],
    [1566617,"2026-08-05 18:00:00","19327","1.744","195.8","4.1160000000000005","182.5","1016.3939999999999","30.66","57.88","NAN","0.0"],
    [1566618,"2026-08-05 18:10:00","19328","1.8769999999999998","200.0","4.247","198.5","1016.59","30.75","57.67","NAN","0.0"],
    [1566619,"2026-08-05 18:20:00","19329","1.828","207.1","3.9530000000000003","191.9","1016.7389999999999","30.42","57.73","NAN","0.0"],
    [1566620,"2026-08-05 18:30:00","19330","1.871","198.2","3.985","207.8","1016.823","30.13","60.72","NAN","0.0"],
    [1566621,"2026-08-05 18:40:00","19331","1.3869999999999998","208.9","3.365","199.8","1016.8430000000001","30.14","60.26","NAN","0.0"],
    [1566622,"2026-08-05 18:50:00","19332","1.3730000000000002","204.7","4.051","209.3","1016.8589999999999","29.99","60.1","NAN","0.0"],
    [1566623,"2026-08-05 19:00:00","19333","1.9769999999999999","185.4","3.593","170.9","1016.9639999999999","29.68","62.25","NAN","0.0"],
    [1566624,"2026-08-05 19:10:00","19334","1.7109999999999999","180.7","3.136","169.4","1017.0260000000001","29.48","63.7","NAN","0.0"],
    [1566625,"2026-08-05 19:20:00","19335","1.405","186.0","2.7110000000000003","172.9","1017.168","29.35","66.11","NAN","0.0"],
    [1566626,"2026-08-05 19:30:00","19336","1.125","182.5","2.287","142.9","1017.273","29.26","66.5","NAN","0.0"],
    [1566627,"2026-08-05 19:40:00","19337","1.265","182.8","2.385","187.6","1017.332","29.23","67.33","NAN","0.0"],
    [1566628,"2026-08-05 19:50:00","19338","0.904","196.6","2.025","214.9","1017.362","29.16","68.06","NAN","0.0"],
    [1566629,"2026-08-05 20:00:00","19339","1.328","176.8","2.5810000000000004","171.5","1017.507","29.14","68.9","NAN","0.0"],
    [1566630,"2026-08-05 20:10:00","19340","1.359","180.5","2.548","166.0","1017.617","29.02","69.35","NAN","0.0"],
    [1566631,"2026-08-05 20:20:00","19341","1.056","197.1","2.254","203.5","1017.7510000000001","28.95","68.51","NAN","0.0"],
    [1566632,"2026-08-05 20:30:00","19342","0.68","211.5","1.8619999999999999","193.4","1017.826","28.97","68.22","NAN","0.0"],
    [1566633,"2026-08-05 20:40:00","19343","0.935","224.7","2.156","246.7","1017.888","29.19","66.49","NAN","0.0"],
    [1566634,"2026-08-05 20:50:00","19344","0.883","209.4","1.993","228.5","1017.95","29.2","67.52","NAN","0.0"],
    [1566635,"2026-08-05 21:00:00","19345","0.972","213.5","2.548","226.7","1017.95","29.06","65.7","NAN","0.0"],
    [1566636,"2026-08-05 21:10:00","19346","0.7020000000000001","217.0","2.123","202.9","1017.885","29.04","66.51","NAN","0.0"],
    [1566637,"2026-08-05 21:20:00","19347","0.753","216.6","1.8619999999999999","216.1","1018.003","29.15","65.94","NAN","0.0"],
    [1566638,"2026-08-05 21:30:00","19348","0.22399999999999998","194.2","0.8170000000000001","231.9","1017.94","29.04","66.97","NAN","0.0"],
    [1566639,"2026-08-05 21:40:00","19349","0.341","175.4","0.7509999999999999","188.9","1017.831","29.12","66.27","NAN","0.0"],
    [1566640,"2026-08-05 21:50:00","19350","0.539","142.6","1.111","141.5","1017.796","28.89","66.67","NAN","0.0"],
    [1566641,"2026-08-05 22:00:00","19351","0.198","146.8","0.621","156.6","1017.823","28.94","65.5","NAN","0.0"],
    [1566642,"2026-08-05 22:10:00","19352","0.713","137.3","1.4369999999999998","148.6","1017.831","28.95","65.86","NAN","0.0"],
    [1566643,"2026-08-05 22:20:00","19353","0.91","136.5","1.666","138.6","1017.821","28.79","67.52","NAN","0.0"],
    [1566644,"2026-08-05 22:30:00","19354","0.512","143.2","0.9470000000000001","155.6","1017.831","28.73","68.23","NAN","0.0"],
    [1566645,"2026-08-05 22:40:00","19355","0.5489999999999999","134.7","0.98","144.6","1017.793","28.68","68.54","NAN","0.0"],
    [1566646,"2026-08-05 22:50:00","19356","0.275","205.8","0.915","205.9","1017.743","28.6","69.8","NAN","0.0"],
    [1566647,"2026-08-05 23:00:00","19357","0.578","190.5","1.078","205.8","1017.721","28.43","69.95","NAN","0.0"],
    [1566648,"2026-08-05 23:10:00","19358","0.664","187.3","1.143","174.7","1017.765","28.43","70.89","NAN","0.0"],
    [1566649,"2026-08-05 23:20:00","19359","0.8009999999999999","168.5","1.405","154.9","1017.591","28.5","71.69","NAN","0.0"],
    [1566650,"2026-08-05 23:30:00","19360","0.846","182.0","1.3719999999999999","172.1","1017.574","28.44","71.89","NAN","0.0"],
    [1566651,"2026-08-05 23:40:00","19361","0.7909999999999999","191.4","1.699","175.2","1017.571","28.4","72.64","NAN","0.0"],
    [1566652,"2026-08-05 23:50:00","19362","0.8370000000000001","190.8","1.666","196.8","1017.5039999999999","28.26","72.57","NAN","0.0"],
    [1566653,"2026-08-06 00:00:00","19363","0.73","191.7","1.535","171.4","1017.439","28.27","72.25","NAN","0.0"],
    [1566654,"2026-08-06 00:10:00","19364","0.612","179.8","1.2409999999999999","160.4","1017.332","28.22","72.02","NAN","0.0"],
    [1566655,"2026-08-06 00:20:00","19365","0.623","187.8","1.013","158.6","1017.327","28.22","71.55","NAN","0.0"],
    [1566656,"2026-08-06 00:30:00","19366","0.366","238.3","1.4369999999999998","278.7","1017.332","28.33","69.68","NAN","0.0"],
    [1566657,"2026-08-06 00:40:00","19367","0.43799999999999994","237.8","1.699","283.9","1017.332","28.67","67.34","NAN","0.0"],
    [1566658,"2026-08-06 00:50:00","19368","0.738","236.9","1.96","253.7","1017.332","28.76","66.3","NAN","0.0"],
    [1566659,"2026-08-06 01:00:00","19369","0.532","239.6","1.4369999999999998","255.0","1017.332","28.68","65.98","NAN","0.0"],
    [1566660,"2026-08-06 01:10:00","19370","0.502","49.24","1.4369999999999998","60.47","1017.365","28.63","66.47","NAN","0.0"],
    [1566661,"2026-08-06 01:20:00","19371","0.33299999999999996","78.35","1.143","64.93","1017.342","28.33","67.42","NAN","0.0"],
    [1566662,"2026-08-06 01:30:00","19372","0.348","125.4","0.588","137.4","1017.33","28.19","67.88","NAN","0.0"],
    [1566663,"2026-08-06 01:40:00","19373","0.27","98.7","0.8170000000000001","102.3","1017.237","28.12","68.29","NAN","0.0"],
    [1566664,"2026-08-06 01:50:00","19374","0.7659999999999999","48.44","1.797","58.65","1017.145","28.06","67.84","NAN","0.0"],
    [1566665,"2026-08-06 02:00:00","19375","0.28300000000000003","21.62","1.078","33.06","1017.086","28.31","65.28","NAN","0.0"],
    [1566666,"2026-08-06 02:10:00","19376","0.893","40.87","1.7309999999999999","22.13","1017.081","28.22","65.47","NAN","0.0"],
    [1566667,"2026-08-06 02:20:00","19377","0.152","56.74","1.013","49.4","1017.076","28.06","66.55","NAN","0.0"],
    [1566668,"2026-08-06 02:30:00","19378","0.0","0.0","0.0","0.0","1017.081","28.02","66.51","NAN","0.0"],
    [1566669,"2026-08-06 02:40:00","19379","0.408","181.4","1.078","171.8","1017.0830000000001","27.83","69.68","NAN","0.0"],
    [1566670,"2026-08-06 02:50:00","19380","0.44299999999999995","180.3","1.013","174.8","1017.0830000000001","27.63","70.63","NAN","0.0"],
    [1566671,"2026-08-06 03:00:00","19381","0.529","192.2","1.274","197.7","1017.0830000000001","27.66","72.47","NAN","0.0"],
    [1566672,"2026-08-06 03:10:00","19382","0.17","162.3","0.621","162.5","1017.046","27.61","72.98","NAN","0.0"],
    [1566673,"2026-08-06 03:20:00","19383","0.138","208.6","0.7190000000000001","207.8","1016.961","27.54","73.41","NAN","0.0"],
    [1566674,"2026-08-06 03:30:00","19384","0.0","0.0","0.0","0.0","1016.998","27.36","72.27","NAN","0.0"],
    [1566675,"2026-08-06 03:40:00","19385","0.076","218.7","0.621","201.7","1016.959","27.31","72.56","NAN","0.0"],
    [1566676,"2026-08-06 03:50:00","19386","0.0","0.0","0.0","0.0","1017.048","27.34","72.85","NAN","0.0"],
    [1566677,"2026-08-06 04:00:00","19387","0.0","0.0","0.0","0.0","1017.0930000000001","27.28","73.16","NAN","0.0"],
    [1566678,"2026-08-06 04:10:00","19388","0.0","0.0","0.0","0.0","1017.086","27.27","73.11","NAN","0.0"],
    [1566679,"2026-08-06 04:20:00","19389","0.2","110.0","0.588","109.9","1017.0830000000001","27.28","72.91","NAN","0.0"],
    [1566680,"2026-08-06 04:30:00","19390","0.505","79.8","1.111","53.26","1017.045","27.32","73","NAN","0.0"],
    [1566681,"2026-08-06 04:40:00","19391","0.6920000000000001","48.6","1.307","41.29","1017.0360000000001","27.34","71.29","NAN","0.0"],
    [1566682,"2026-08-06 04:50:00","19392","0.5760000000000001","42.03","0.9470000000000001","56.05","1017.176","27.44","70.45","NAN","0.0"],
    [1566683,"2026-08-06 05:00:00","19393","0.619","45.02","1.5030000000000001","78.77","1017.258","27.42","70.28","NAN","0.0"],
    [1566684,"2026-08-06 05:10:00","19394","0.301","44.84","1.078","32.43","1017.332","27.44","69.7","NAN","0.0"],
    [1566685,"2026-08-06 05:20:00","19395","0.456","38.78","1.143","38.68","1017.332","27.3","70.22","NAN","0.0"],
    [1566686,"2026-08-06 05:30:00","19396","0.20199999999999999","59.17","0.784","62.68","1017.415","27.57","69.42","NAN","0.0"],
    [1566687,"2026-08-06 05:40:00","19397","0.373","48.04","0.915","64.12","1017.574","27.96","67.95","NAN","0.0"],
    [1566688,"2026-08-06 05:50:00","19398","0.51","64.42","1.176","68.95","1017.581","28.06","67.92","NAN","0.0"],
    [1566689,"2026-08-06 06:00:00","19399","0.509","50.52","0.915","71.61","1017.6339999999999","28.23","67.99","NAN","0.0"],
    [1566690,"2026-08-06 06:10:00","19400","0.73","67.15","1.339","60.39","1017.808","28.29","67.59","NAN","0.0"],
    [1566691,"2026-08-06 06:20:00","19401","0.8079999999999999","82.5","1.4369999999999998","69.91","1017.8330000000001","28.36","66.85","NAN","0.0"],
    [1566692,"2026-08-06 06:30:00","19402","0.6729999999999999","67.14","1.307","51.63","1017.9680000000001","28.43","66.66","NAN","0.0"],
    [1566693,"2026-08-06 06:40:00","19403","0.705","43.93","1.3719999999999999","35.86","1018.077","28.37","65.39","NAN","0.0"],
    [1566694,"2026-08-06 06:50:00","19404","0.882","92.7","1.3719999999999999","69.38","1018.175","28.69","63.87","NAN","0.0"],
    [1566695,"2026-08-06 07:00:00","19405","0.856","98.8","1.633","82.6","1018.199","28.85","62.66","NAN","0.0"],
    [1566696,"2026-08-06 07:10:00","19406","1.157","68.4","2.221","73.71","1018.204","29.26","61.13","NAN","0.0"],
    [1566697,"2026-08-06 07:20:00","19407","1.41","92.7","2.352","80.4","1018.298","29.44","60.7","NAN","0.0"],
    [1566698,"2026-08-06 07:30:00","19408","1.4680000000000002","118.7","2.483","112.4","1018.418","29.21","63.08","NAN","0.0"],
    [1566699,"2026-08-06 07:40:00","19409","1.632","120.3","2.94","107.0","1018.492","28.98","63.67","NAN","0.0"],
    [1566700,"2026-08-06 07:50:00","19410","2.1069999999999998","109.6","3.659","103.5","1018.388","28.8","64.82","NAN","0.0"],
    [1566701,"2026-08-06 08:00:00","19411","1.854","111.5","2.875","119.7","1018.453","29.12","65.54","NAN","0.0"],
    [1566702,"2026-08-06 08:10:00","19412","2.122","92.6","3.6260000000000003","104.8","1018.419","29.27","66.24","NAN","0.0"],
    [1566703,"2026-08-06 08:20:00","19413","2.039","111.6","3.463","108.3","1018.4910000000001","29.25","67.42","NAN","0.0"],
    [1566704,"2026-08-06 08:30:00","19414","1.3630000000000002","142.8","2.679","117.7","1018.679","29.35","67.97","NAN","0.0"],
    [1566705,"2026-08-06 08:40:00","19415","1.672","98.4","3.136","110.8","1018.698","29.65","67.24","NAN","0.0"],
    [1566706,"2026-08-06 08:50:00","19416","1.74","142.3","2.907","146.7","1018.7360000000001","29.65","67.77","NAN","0.0"],
    [1566707,"2026-08-06 09:00:00","19417","1.3730000000000002","104.0","3.495","111.7","1018.7489999999999","29.86","67.79","NAN","0.0"],
    [1566708,"2026-08-06 09:10:00","19418","1.818","101.3","4.018","100.6","1018.7589999999999","30.18","66.13","NAN","0.0"],
    [1566709,"2026-08-06 09:20:00","19419","1.796","123.8","3.005","129.8","1018.829","29.81","66.93","NAN","0.0"],
    [1566710,"2026-08-06 09:30:00","19420","1.5119999999999998","133.7","3.071","150.5","1018.8810000000001","29.69","67.54","NAN","0.0"],
    [1566711,"2026-08-06 09:40:00","19421","1.608","144.0","2.679","152.3","1018.813","29.88","67.18","NAN","0.0"],
    [1566712,"2026-08-06 09:50:00","19422","1.7080000000000002","130.1","3.0380000000000003","106.7","1018.816","30.05","67.02","NAN","0.0"],
    [1566713,"2026-08-06 10:00:00","19423","2.265","139.5","3.659","170.0","1018.865","29.81","68.56","NAN","0.0"],
    [1566714,"2026-08-06 10:10:00","19424","2.016","144.3","3.9530000000000003","158.5","1018.797","29.83","69.08","NAN","0.0"],
    [1566715,"2026-08-06 10:20:00","19425","2.267","144.9","3.9530000000000003","165.9","1018.7810000000001","29.73","69.63","NAN","0.0"],
    [1566716,"2026-08-06 10:30:00","19426","2.2359999999999998","144.8","3.6260000000000003","146.3","1018.768","29.71","70.29","NAN","0.0"],
    [1566717,"2026-08-06 10:40:00","19427","1.794","144.8","3.267","112.2","1018.7460000000001","30.39","68.75","NAN","0.0"],
    [1566718,"2026-08-06 10:50:00","19428","2.4130000000000003","177.4","4.2139999999999995","193.9","1018.717","30.47","68.21","NAN","0.0"],
    [1566719,"2026-08-06 11:00:00","19429","2.573","182.5","4.1160000000000005","175.5","1018.679","30.23","69.58","NAN","0.0"],
    [1566720,"2026-08-06 11:10:00","19430","2.447","181.8","4.247","174.6","1018.628","30.32","68.67","NAN","0.0"],
    [1566721,"2026-08-06 11:20:00","19431","2.532","184.6","4.2139999999999995","180.1","1018.5089999999999","30.19","66.92","NAN","0.0"],
    [1566722,"2026-08-06 11:30:00","19432","2.7539999999999996","181.7","4.247","178.2","1018.429","30.48","65.38","NAN","0.0"],
    [1566723,"2026-08-06 11:40:00","19433","2.853","177.9","4.018","183.6","1018.4010000000001","29.93","68.33","NAN","0.0"],
    [1566724,"2026-08-06 11:50:00","19434","3.071","172.5","4.4430000000000005","182.8","1018.307","29.92","69.13","NAN","0.0"],
    [1566725,"2026-08-06 12:00:00","19435","3.0210000000000004","179.8","5.031000000000001","183.8","1018.253","30.32","68.27","NAN","0.0"],
    [1566726,"2026-08-06 12:10:00","19436","2.656","181.5","4.573","178.8","1018.0980000000001","30.59","67.3","NAN","0.0"],
    [1566727,"2026-08-06 12:20:00","19437","3.0660000000000003","174.4","5.227","166.6","1017.931","30.42","67.26","NAN","0.0"],
    [1566728,"2026-08-06 12:30:00","19438","3.051","185.2","5.096","185.8","1017.8489999999999","30.5","66.44","NAN","0.0"],
    [1566729,"2026-08-06 12:40:00","19439","2.544","192.4","4.345","178.9","1017.742","30.9","65.83","NAN","0.0"],
    [1566730,"2026-08-06 12:50:00","19440","2.655","187.2","4.965","196.1","1017.6469999999999","30.83","66.08","NAN","0.0"],
    [1566731,"2026-08-06 13:00:00","19441","2.697","190.5","4.769","167.9","1017.548","30.71","66.46","NAN","0.0"],
    [1566732,"2026-08-06 13:10:00","19442","2.9019999999999997","184.3","5.88","160.9","1017.393","30.76","66.69","NAN","0.0"],
    [1566733,"2026-08-06 13:20:00","19443","3.1180000000000003","180.7","5.1610000000000005","177.1","1017.299","30.44","67.53","NAN","0.0"],
    [1566734,"2026-08-06 13:30:00","19444","2.8680000000000003","181.5","4.606","176.6","1017.263","30.55","67.05","NAN","0.0"],
    [1566735,"2026-08-06 13:40:00","19445","3.14","182.6","5.455","176.7","1017.1469999999999","30.53","67","NAN","0.0"],
    [1566736,"2026-08-06 13:50:00","19446","2.5639999999999996","182.0","4.835","177.1","1017.09","30.63","64.93","NAN","0.0"],
    [1566737,"2026-08-06 14:00:00","19447","2.681","186.8","5.782","158.7","1017.013","30.43","65.53","NAN","0.0"],
    [1566738,"2026-08-06 14:10:00","19448","3.18","182.4","5.096","176.9","1017.0310000000001","30.54","66","NAN","0.0"],
    [1566739,"2026-08-06 14:20:00","19449","3.4960000000000004","181.6","5.945","183.6","1017.0260000000001","30.39","65.74","NAN","0.0"],
    [1566740,"2026-08-06 14:30:00","19450","3.4219999999999997","179.0","5.88","181.7","1017.086","30.45","66.05","NAN","0.0"],
    [1566741,"2026-08-06 14:40:00","19451","3.3089999999999997","183.4","6.599","168.0","1017.11","30.41","65.49","NAN","0.0"],
    [1566742,"2026-08-06 14:50:00","19452","3.552","183.3","7.056","175.2","1016.916","30.4","66.67","NAN","0.0"],
    [1566743,"2026-08-06 15:00:00","19453","3.755","178.3","7.154","177.5","1016.778","30.37","67.95","NAN","0.0"],
    [1566744,"2026-08-06 15:10:00","19454","3.799","182.1","6.011","177.8","1016.76","30.19","67.93","NAN","0.0"],
    [1566745,"2026-08-06 15:20:00","19455","3.24","178.9","6.011","170.4","1016.9989999999999","30.12","67.72","NAN","0.0"],
    [1566746,"2026-08-06 15:30:00","19456","3.181","181.5","5.815","179.8","1017.1569999999999","30.22","66.76","NAN","0.0"],
    [1566747,"2026-08-06 15:40:00","19457","2.909","178.7","4.769","188.9","1017.3539999999999","29.92","68.43","NAN","0.0"],
    [1566748,"2026-08-06 15:50:00","19458","2.884","182.0","5.357","162.8","1017.485","29.7","69.23","NAN","0.0"],
    [1566749,"2026-08-06 16:00:00","19459","1.743","199.6","3.528","176.9","1017.3939999999999","29.77","68.78","NAN","0.0"],
    [1566750,"2026-08-06 16:10:00","19460","2.089","197.7","4.606","227.3","1017.441","30","67.36","NAN","0.0"],
    [1566751,"2026-08-06 16:20:00","19461","0.96","243.4","2.7769999999999997","268.6","1018.07","30.27","65.94","NAN","0.0"],
    [1566752,"2026-08-06 16:30:00","19462","1.041","180.5","3.365","173.5","1018.385","30","67.09","NAN","0.0"],
    [1566753,"2026-08-06 16:40:00","19463","1.56","19.0","4.018","40.94","1018.987","29.87","55.68","NAN","0.0"],
    [1566754,"2026-08-06 16:50:00","19464","1.615","25.56","4.867","353.5","1018.825","29.74","45.35","NAN","0.0"],
    [1566755,"2026-08-06 17:00:00","19465","2.86","48.34","6.664","62.33","1019.242","29.19","54.03","NAN","0.0"],
    [1566756,"2026-08-06 17:10:00","19466","3.225","24.73","6.7620000000000005","8.7","1019.742","28.09","62.06","NAN","0.0"],
    [1566757,"2026-08-06 17:20:00","19467","2.325","341.5","5.39","306.8","1020.0210000000001","26.77","67.66","NAN","0.7"],
    [1566758,"2026-08-06 17:30:00","19468","1.9869999999999999","335.5","4.312","323.1","1020.125","25.64","71.79","NAN","0.5"],
    [1566759,"2026-08-06 17:40:00","19469","1.7590000000000001","11.9","4.345","37.28","1019.2360000000001","25.97","67.65","NAN","0.4"],
    [1566760,"2026-08-06 17:50:00","19470","1.0490000000000002","83.9","2.8089999999999997","62.77","1017.872","25.48","68.58","NAN","0.1"],
    [1566761,"2026-08-06 18:00:00","19471","1.067","63.99","2.515","2.5639999999999996","1017.332","26.08","67.49","NAN","0.0"],
    [1566762,"2026-08-06 18:10:00","19472","0.809","12.18","3.005","318.1","1017.6010000000001","26.73","65.65","NAN","0.0"],
    [1566763,"2026-08-06 18:20:00","19473","0.721","359.6","2.548","2.38","1017.6189999999999","27.02","62.63","NAN","0.1"],
    [1566764,"2026-08-06 18:30:00","19474","1.391","44.67","2.287","6.49","1017.7230000000001","26.79","66.75","NAN","0.0"],
    [1566765,"2026-08-06 18:40:00","19475","1.286","24.12","2.8089999999999997","22.15","1017.577","25.95","70.3","NAN","0.0"],
    [1566766,"2026-08-06 18:50:00","19476","1.179","28.57","3.005","41.15","1017.4810000000001","25.88","69.87","NAN","0.0"],
    [1566767,"2026-08-06 19:00:00","19477","1.339","10.12","3.332","14.13","1017.312","25.95","68.09","NAN","0.0"],
    [1566768,"2026-08-06 19:10:00","19478","0.551","335.2","1.339","287.9","1017.293","26.5","65.35","NAN","0.0"],
    [1566769,"2026-08-06 19:20:00","19479","0.9590000000000001","248.2","2.319","221.2","1017.387","27.27","64.53","NAN","0.0"],
    [1566770,"2026-08-06 19:30:00","19480","1.605","241.9","3.103","234.0","1017.307","27.14","65.73","NAN","0.0"],
    [1566771,"2026-08-06 19:40:00","19481","0.966","280.2","2.123","321.3","1017.143","27.07","65.19","NAN","0.0"],
    [1566772,"2026-08-06 19:50:00","19482","0.973","282.6","2.417","295.0","1017.273","27.58","62.82","NAN","0.0"],
    [1566773,"2026-08-06 20:00:00","19483","0.7859999999999999","292.5","1.666","307.0","1017.113","27.86","62.5","NAN","0.0"],
    [1566774,"2026-08-06 20:10:00","19484","1.133","313.9","3.267","313.1","1017.2130000000001","27.78","61.44","NAN","0.0"],
    [1566775,"2026-08-06 20:20:00","19485","0.917","287.3","2.189","261.1","1017.325","27.78","60.64","NAN","0.0"],
    [1566776,"2026-08-06 20:30:00","19486","0.8059999999999999","302.6","2.221","307.1","1017.492","27.88","61.49","NAN","0.0"],
    [1566777,"2026-08-06 20:40:00","19487","0.62","40.5","3.0380000000000003","311.8","1017.706","27.55","63.49","NAN","0.0"],
    [1566778,"2026-08-06 20:50:00","19488","0.67","312.0","2.7769999999999997","280.2","1017.763","27.01","63.34","NAN","0.0"],
    [1566779,"2026-08-06 21:00:00","19489","0.494","318.0","1.633","310.2","1017.7260000000001","27.69","59.86","NAN","0.0"],
    [1566780,"2026-08-06 21:10:00","19490","0.526","356.5","1.96","36.52","1017.828","27.6","61.13","NAN","0.0"],
    [1566781,"2026-08-06 21:20:00","19491","0.53","22.47","1.7309999999999999","39.1","1017.6510000000001","27.38","60.56","NAN","0.0"],
    [1566782,"2026-08-06 21:30:00","19492","0.856","67.47","1.4369999999999998","51.19","1017.377","27.25","60.35","NAN","0.0"],
    [1566783,"2026-08-06 21:40:00","19493","0.701","45.23","1.764","28.86","1017.284","27.08","59.89","NAN","0.0"],
    [1566784,"2026-08-06 21:50:00","19494","0.787","170.2","1.797","174.3","1017.206","27.24","60.01","NAN","0.0"],
    [1566785,"2026-08-06 22:00:00","19495","0.8590000000000001","54.43","2.0580000000000003","29.52","1017.422","27.04","60.37","NAN","0.0"],
    [1566786,"2026-08-06 22:10:00","19496","0.5379999999999999","38.18","1.699","22.53","1017.4169999999999","27.08","59.32","NAN","0.0"],
    [1566787,"2026-08-06 22:20:00","19497","0.253","195.8","0.784","218.4","1017.5089999999999","27.39","58.72","NAN","0.0"],
    [1566788,"2026-08-06 22:30:00","19498","0.5920000000000001","142.9","1.176","173.9","1017.7510000000001","27.18","60.45","NAN","0.0"],
    [1566789,"2026-08-06 22:40:00","19499","0.48100000000000004","34.57","1.274","63.66","1018.06","27.18","58.98","NAN","0.0"],
    [1566790,"2026-08-06 22:50:00","19500","0.555","46.03","1.2409999999999999","54.59","1017.977","27.1","58.61","NAN","0.0"],
    [1566791,"2026-08-06 23:00:00","19501","0.8420000000000001","56.87","2.025","46.37","1017.796","27.11","57.69","NAN","0.0"],
    [1566792,"2026-08-06 23:10:00","19502","0.74","39.31","1.699","50.67","1017.7330000000001","26.84","58.09","NAN","0.0"],
    [1566793,"2026-08-06 23:20:00","19503","0.968","17.24","2.7439999999999998","25.37","1017.6189999999999","26.8","58.27","NAN","0.0"],
    [1566794,"2026-08-06 23:30:00","19504","1.005","18.59","2.156","17.61","1017.763","26.84","57.79","NAN","0.0"],
    [1566795,"2026-08-06 23:40:00","19505","0.9129999999999999","33.75","1.9269999999999998","53.38","1017.7330000000001","26.84","58.33","NAN","0.0"],
    [1566796,"2026-08-06 23:50:00","19506","0.523","23.62","1.8619999999999999","57.6","1017.6139999999999","26.72","58.74","NAN","0.0"],
    [1566797,"2026-08-07 00:00:00","19507","0.48700000000000004","71.08","1.111","75.38","1017.7239999999999","26.87","59.07","NAN","0.0"],
    [1566798,"2026-08-07 00:10:00","19508","0.506","77.0","0.8490000000000001","61.95","1017.706","26.66","60.31","NAN","0.0"],
    [1566799,"2026-08-07 00:20:00","19509","0.452","72.72","1.339","91.0","1017.6089999999999","26.64","61.05","NAN","0.0"],
    [1566800,"2026-08-07 00:30:00","19510","0.036000000000000004","29.44","0.588","85.9","1017.7330000000001","26.8","60.46","NAN","0.0"],
    [1566801,"2026-08-07 00:40:00","19511","0.772","26.66","1.601","32.06","1017.7860000000001","26.79","60.37","NAN","0.0"],
    [1566802,"2026-08-07 00:50:00","19512","0.513","35.57","1.143","35.6","1017.704","26.8","60.56","NAN","0.0"],
    [1566803,"2026-08-07 01:00:00","19513","0.767","24.98","1.601","30.89","1017.6560000000001","26.65","62.06","NAN","0.0"],
    [1566804,"2026-08-07 01:10:00","19514","0.537","21.07","1.568","29.02","1017.581","26.41","63.83","NAN","0.0"],
    [1566805,"2026-08-07 01:20:00","19515","0.48200000000000004","22.12","1.111","13.6","1017.5139999999999","26.59","62.79","NAN","0.0"],
    [1566806,"2026-08-07 01:30:00","19516","0.7509999999999999","37.23","1.699","40.67","1017.459","26.23","64.01","NAN","0.0"],
    [1566807,"2026-08-07 01:40:00","19517","0.858","4.638","1.307","38.7","1017.5189999999999","26.07","65.02","NAN","0.0"],
    [1566808,"2026-08-07 01:50:00","19518","0.892","15.7","1.797","351.1","1017.462","26.18","64.16","NAN","0.0"],
    [1566809,"2026-08-07 02:00:00","19519","0.976","15.08","2.0580000000000003","23.73","1017.457","25.91","64.72","NAN","0.0"],
    [1566810,"2026-08-07 02:10:00","19520","0.6559999999999999","34.86","1.3719999999999999","24.92","1017.4739999999999","25.9","64.88","NAN","0.0"],
    [1566811,"2026-08-07 02:20:00","19521","0.991","16.1","2.0909999999999997","17.61","1017.457","25.82","64.65","NAN","0.0"],
    [1566812,"2026-08-07 02:30:00","19522","0.5670000000000001","22.35","1.764","8.92","1017.357","25.96","64.19","NAN","0.0"],
    [1566813,"2026-08-07 02:40:00","19523","0.8290000000000001","28.25","2.189","30.75","1017.332","25.9","65.15","NAN","0.0"],
    [1566814,"2026-08-07 02:50:00","19524","0.997","11.82","2.45","348.0","1017.332","25.63","67.6","NAN","0.0"],
    [1566815,"2026-08-07 03:00:00","19525","0.9179999999999999","16.65","2.0580000000000003","37.32","1017.332","25.5","69.18","NAN","0.0"],
    [1566816,"2026-08-07 03:10:00","19526","1.107","19.42","2.45","357.9","1017.335","25.36","69.71","NAN","0.0"],
    [1566817,"2026-08-07 03:20:00","19527","0.978","16.91","2.0909999999999997","20.61","1017.362","25.41","68.48","NAN","0.0"],
    [1566818,"2026-08-07 03:30:00","19528","0.818","25.51","2.0580000000000003","35.04","1017.337","25.22","69.22","NAN","0.0"],
    [1566819,"2026-08-07 03:40:00","19529","0.713","33.98","1.7309999999999999","60.31","1017.332","25.29","68.76","NAN","0.0"],
    [1566820,"2026-08-07 03:50:00","19530","0.76","31.73","1.8619999999999999","35.88","1017.332","25.25","68.74","NAN","0.0"],
    [1566821,"2026-08-07 04:00:00","19531","0.882","31.79","2.123","10.7","1017.2669999999999","25.16","68.55","NAN","0.0"],
    [1566822,"2026-08-07 04:10:00","19532","0.9440000000000001","17.73","2.483","353.8","1017.21","25.33","67.43","NAN","0.0"],
    [1566823,"2026-08-07 04:20:00","19533","0.8370000000000001","8.48","1.8619999999999999","13.45","1017.315","25.43","67.03","NAN","0.0"],
    [1566824,"2026-08-07 04:30:00","19534","0.903","15.24","2.0909999999999997","1.287","1017.332","25.45","66.91","NAN","0.0"],
    [1566825,"2026-08-07 04:40:00","19535","0.608","7.218999999999999","1.666","6.683","1017.46","25.56","66.65","NAN","0.0"],
    [1566826,"2026-08-07 04:50:00","19536","0.736","26.43","1.405","32.03","1017.581","25.65","66.43","NAN","0.0"],
    [1566827,"2026-08-07 05:00:00","19537","0.677","20.45","1.47","9.1","1017.6139999999999","25.68","66.28","NAN","0.0"],
    [1566828,"2026-08-07 05:10:00","19538","0.696","12.91","1.209","8.69","1017.6360000000001","25.82","65.57","NAN","0.0"],
    [1566829,"2026-08-07 05:20:00","19539","0.68","8.99","1.764","33.99","1017.699","26.1","63.81","NAN","0.0"],
    [1566830,"2026-08-07 05:30:00","19540","0.303","9.56","0.8490000000000001","1.57","1017.7560000000001","26.52","61.98","NAN","0.0"],
    [1566831,"2026-08-07 05:40:00","19541","0.46299999999999997","50.02","1.176","351.1","1017.831","26.18","63.23","NAN","0.0"],
    [1566832,"2026-08-07 05:50:00","19542","0.713","6.612","1.4369999999999998","2.98","1017.8660000000001","26.45","63.27","NAN","0.0"],
    [1566833,"2026-08-07 06:00:00","19543","0.595","22.89","1.829","25.61","1017.893","26.28","64.61","NAN","0.0"],
    [1566834,"2026-08-07 06:10:00","19544","0.852","0.499","1.8619999999999999","6.281000000000001","1017.831","26.33","64.47","NAN","0.0"],
    [1566835,"2026-08-07 06:20:00","19545","0.909","8.28","1.993","354.5","1017.8530000000001","26.81","62.98","NAN","0.0"],
    [1566836,"2026-08-07 06:30:00","19546","0.648","18.31","1.568","349.7","1017.95","27.01","62.86","NAN","0.0"],
    [1566837,"2026-08-07 06:40:00","19547","0.95","52.06","1.764","59.09","1017.895","27.2","62.3","NAN","0.0"],
    [1566838,"2026-08-07 06:50:00","19548","0.488","56.99","1.274","74.64","1017.959","27.63","61.56","NAN","0.0"],
    [1566839,"2026-08-07 07:00:00","19549","0.754","74.01","1.3719999999999999","67.28","1017.998","28.03","60.92","NAN","0.0"],
    [1566840,"2026-08-07 07:10:00","19550","0.7959999999999999","54.45","1.405","27.82","1018.0319999999999","28.23","60.56","NAN","0.0"],
    [1566841,"2026-08-07 07:20:00","19551","0.767","92.2","1.47","104.0","1018.062","28.85","59.14","NAN","0.0"],
    [1566842,"2026-08-07 07:30:00","19552","0.514","109.5","0.9470000000000001","94.8","1018.128","28.86","59.29","NAN","0.0"],
    [1566843,"2026-08-07 07:40:00","19553","0.966","95.9","1.9269999999999998","102.6","1018.175","29.32","59.66","NAN","0.0"],
    [1566844,"2026-08-07 07:50:00","19554","1.054","104.3","1.829","91.8","1018.055","29.42","59.92","NAN","0.0"],
    [1566845,"2026-08-07 08:00:00","19555","1.337","129.5","2.025","114.2","1018.0060000000001","29.03","61.26","NAN","0.0"],
    [1566846,"2026-08-07 08:10:00","19556","1.16","143.4","1.993","158.0","1018.012","28.94","62.02","NAN","0.0"],
    [1566847,"2026-08-07 08:20:00","19557","1.405","140.3","2.417","112.7","1018.005","29.13","63.71","NAN","0.0"],
    [1566848,"2026-08-07 08:30:00","19558","1.381","156.9","2.352","141.2","1018.0060000000001","29.17","65.28","NAN","0.0"],
    [1566849,"2026-08-07 08:40:00","19559","1.403","171.0","2.515","186.9","1018.0010000000001","29.22","68.95","NAN","0.0"],
    [1566850,"2026-08-07 08:50:00","19560","1.706","168.8","2.515","179.0","1017.883","29.34","68.36","NAN","0.0"],
    [1566851,"2026-08-07 09:00:00","19561","1.899","173.2","2.7439999999999998","185.0","1017.944","29.31","70.58","NAN","0.0"],
    [1566852,"2026-08-07 09:10:00","19562","2.3080000000000003","136.6","3.528","114.6","1018.023","29.19","69.55","NAN","0.0"],
    [1566853,"2026-08-07 09:20:00","19563","2.316","120.5","3.659","108.1","1018.0089999999999","29.01","68.29","NAN","0.0"],
    [1566854,"2026-08-07 09:30:00","19564","2.104","133.8","3.463","108.5","1017.945","29.24","67.97","NAN","0.0"],
    [1566855,"2026-08-07 09:40:00","19565","2.0069999999999997","143.4","3.201","171.6","1017.903","29.25","68.07","NAN","0.0"],
    [1566856,"2026-08-07 09:50:00","19566","2.3","144.8","4.1160000000000005","143.3","1017.898","29.23","68.79","NAN","0.0"],
    [1566857,"2026-08-07 10:00:00","19567","2.421","143.0","3.985","155.0","1017.85","29.29","69.37","NAN","0.0"],
    [1566858,"2026-08-07 10:10:00","19568","2.5869999999999997","139.6","4.377","112.6","1017.809","29.32","69.94","NAN","0.0"],
    [1566859,"2026-08-07 10:20:00","19569","2.485","142.6","4.181","131.3","1017.7739999999999","29.58","69.94","NAN","0.0"],
    [1566860,"2026-08-07 10:30:00","19570","2.4530000000000003","140.3","4.867","113.4","1017.7410000000001","29.67","70.12","NAN","0.0"],
    [1566861,"2026-08-07 10:40:00","19571","2.313","155.4","3.985","106.6","1017.7739999999999","29.88","69.89","NAN","0.0"],
    [1566862,"2026-08-07 10:50:00","19572","3.2739999999999996","175.7","5.031000000000001","173.9","1017.784","29.66","70.77","NAN","0.0"],
    [1566863,"2026-08-07 11:00:00","19573","2.908","177.0","4.802","178.6","1017.797","29.65","71.87","NAN","0.0"],
    [1566864,"2026-08-07 11:10:00","19574","3.123","178.4","4.867","169.0","1017.796","29.67","72.15","NAN","0.0"],
    [1566865,"2026-08-07 11:20:00","19575","3.281","178.4","5.227","151.7","1017.703","29.71","72.44","NAN","0.0"],
    [1566866,"2026-08-07 11:30:00","19576","3.556","176.3","5.586","176.0","1017.556","29.48","73.43","NAN","0.0"],
    [1566867,"2026-08-07 11:40:00","19577","3.089","177.4","4.802","173.3","1017.5419999999999","29.59","73.73","NAN","0.0"],
    [1566868,"2026-08-07 11:50:00","19578","2.978","180.0","4.737","172.9","1017.548","29.71","73.52","NAN","0.0"],
    [1566869,"2026-08-07 12:00:00","19579","2.761","170.9","4.083","171.9","1017.482","29.92","73.15","NAN","0.0"],
    [1566870,"2026-08-07 12:10:00","19580","2.759","178.0","4.965","182.4","1017.341","30.09","73.15","NAN","0.0"],
    [1566871,"2026-08-07 12:20:00","19581","2.695","176.7","4.1160000000000005","182.8","1017.2919999999999","30.14","73.07","NAN","0.0"],
    [1566872,"2026-08-07 12:30:00","19582","3.389","177.3","5.227","176.1","1017.186","29.78","74.03","NAN","0.0"],
    [1566873,"2026-08-07 12:40:00","19583","3.013","175.1","4.606","189.7","1017.047","30.12","73.15","NAN","0.0"],
    [1566874,"2026-08-07 12:50:00","19584","2.957","167.4","4.606","150.6","1016.908","29.96","73.88","NAN","0.0"],
    [1566875,"2026-08-07 13:00:00","19585","2.83","179.0","4.638999999999999","174.4","1016.8","30.14","73.17","NAN","0.0"],
    [1566876,"2026-08-07 13:10:00","19586","3.5069999999999997","178.2","5.782","188.1","1016.784","29.93","72.48","NAN","0.0"],
    [1566877,"2026-08-07 13:20:00","19587","3.895","177.6","6.5329999999999995","177.6","1016.682","29.82","73.54","NAN","0.0"],
    [1566878,"2026-08-07 13:30:00","19588","3.3169999999999997","183.3","6.337000000000001","139.5","1016.582","29.97","74.29","NAN","0.0"],
    [1566879,"2026-08-07 13:40:00","19589","3.355","180.8","6.37","170.8","1016.5","30","74.18","NAN","0.0"],
    [1566880,"2026-08-07 13:50:00","19590","3.514","181.6","6.435","177.1","1016.367","30.16","73.35","NAN","0.0"],
    [1566881,"2026-08-07 14:00:00","19591","3.736","175.9","7.154","173.8","1016.317","30.21","72.72","NAN","0.0"],
    [1566882,"2026-08-07 14:10:00","19592","3.897","177.9","6.7620000000000005","181.8","1016.318","30.23","72.81","NAN","0.0"],
    [1566883,"2026-08-07 14:20:00","19593","4.04","174.8","6.305","171.8","1016.186","30.15","73.16","NAN","0.0"],
    [1566884,"2026-08-07 14:30:00","19594","2.927","196.5","5.325","191.1","1016.063","30.9","68.15","NAN","0.0"],
    [1566885,"2026-08-07 14:40:00","19595","2.22","203.6","5.7170000000000005","224.2","1016.066","31.77","64.75","NAN","0.0"],
    [1566886,"2026-08-07 14:50:00","19596","2.231","201.6","4.933","215.5","1016.0310000000001","31.47","66.13","NAN","0.0"],
    [1566887,"2026-08-07 15:00:00","19597","1.994","187.9","5.292000000000001","197.2","1015.988","31.31","67.81","NAN","0.0"],
    [1566888,"2026-08-07 15:10:00","19598","2.386","196.7","5.063","212.0","1015.84","31.49","65.13","NAN","0.0"],
    [1566889,"2026-08-07 15:20:00","19599","2.379","192.2","4.573","189.1","1015.825","30.99","67.68","NAN","0.0"],
    [1566890,"2026-08-07 15:30:00","19600","2.948","194.1","6.109","181.4","1015.735","31.22","66.15","NAN","0.0"],
    [1566891,"2026-08-07 15:40:00","19601","3.217","177.6","5.945","186.1","1015.643","30.54","69.74","NAN","0.0"],
    [1566892,"2026-08-07 15:50:00","19602","2.8569999999999998","186.1","5.096","202.3","1015.6010000000001","30.48","69.59","NAN","0.0"],
    [1566893,"2026-08-07 16:00:00","19603","2.171","190.9","5.096","163.5","1015.5239999999999","30.74","69.21","NAN","0.0"],
    [1566894,"2026-08-07 16:10:00","19604","2.801","185.3","5.39","163.2","1015.4780000000001","30.49","69.96","NAN","0.0"],
    [1566895,"2026-08-07 16:20:00","19605","2.705","194.9","5.422999999999999","186.1","1015.337","30.45","69.98","NAN","0.0"],
    [1566896,"2026-08-07 16:30:00","19606","2.252","196.0","4.41","157.6","1015.18","30.62","69.49","NAN","0.0"],
    [1566897,"2026-08-07 16:40:00","19607","2.549","209.9","5.4879999999999995","207.2","1015.086","30.45","69.43","NAN","0.0"],
    [1566898,"2026-08-07 16:50:00","19608","2.408","207.2","6.042999999999999","194.3","1015.066","30.52","69.41","NAN","0.0"],
    [1566899,"2026-08-07 17:00:00","19609","1.9669999999999999","208.3","5.096","197.6","1015.092","30.59","69.53","NAN","0.0"],
    [1566900,"2026-08-07 17:10:00","19610","1.8459999999999999","204.1","4.247","217.4","1015.3","30.46","69.31","NAN","0.0"],
    [1566901,"2026-08-07 17:20:00","19611","1.5659999999999998","198.1","3.887","174.7","1015.5139999999999","30.51","70.02","NAN","0.0"],
    [1566902,"2026-08-07 17:30:00","19612","2.082","200.8","4.606","169.3","1015.571","30.53","69.46","NAN","0.0"],
    [1566903,"2026-08-07 17:40:00","19613","2.2230000000000003","194.4","4.4430000000000005","166.1","1015.6519999999999","30.36","70.63","NAN","0.0"],
    [1566904,"2026-08-07 17:50:00","19614","2.184","193.1","5.521","178.8","1015.78","30.02","71.77","NAN","0.0"],
    [1566905,"2026-08-07 18:00:00","19615","1.7380000000000002","203.7","3.5610000000000004","207.7","1015.862","30.23","71.05","NAN","0.0"],
    [1566906,"2026-08-07 18:10:00","19616","1.3719999999999999","209.7","3.528","208.8","1016.183","30.22","70.71","NAN","0.0"],
    [1566907,"2026-08-07 18:20:00","19617","1.6869999999999998","227.3","4.051","228.4","1016.322","30.02","68.92","NAN","0.0"],
    [1566908,"2026-08-07 18:30:00","19618","1.123","217.4","3.397","234.1","1016.8839999999999","30.12","68.66","NAN","0.0"],
    [1566909,"2026-08-07 18:40:00","19619","0.759","176.7","1.7309999999999999","207.2","1017.1560000000001","29.98","70.32","NAN","0.0"],
    [1566910,"2026-08-07 18:50:00","19620","1.271","196.4","2.7110000000000003","197.5","1016.818","29.93","70.61","NAN","0.0"],
    [1566911,"2026-08-07 19:00:00","19621","1.077","214.3","2.7110000000000003","200.4","1016.528","30.06","67.88","NAN","0.0"],
    [1566912,"2026-08-07 19:10:00","19622","1.013","208.1","2.0909999999999997","206.0","1016.3330000000001","30.08","68.12","NAN","0.0"],
    [1566913,"2026-08-07 19:20:00","19623","1.39","194.9","2.679","198.6","1016.202","29.92","69.65","NAN","0.0"],
    [1566914,"2026-08-07 19:30:00","19624","1.791","174.7","3.6910000000000003","177.2","1016.0319999999999","29.71","71.66","NAN","0.0"],
    [1566915,"2026-08-07 19:40:00","19625","1.7180000000000002","170.4","2.7110000000000003","166.9","1016.154","29.46","73.84","NAN","0.0"],
    [1566916,"2026-08-07 19:50:00","19626","1.48","190.6","3.0380000000000003","178.7","1016.096","29.23","76.15","NAN","0.0"],
    [1566917,"2026-08-07 20:00:00","19627","1.212","226.0","2.7110000000000003","230.5","1016.074","29.33","74.21","NAN","0.0"],
    [1566918,"2026-08-07 20:10:00","19628","0.868","224.4","2.287","245.7","1016.1060000000001","29.43","73.59","NAN","0.0"],
    [1566919,"2026-08-07 20:20:00","19629","0.825","217.3","2.221","226.4","1016.211","29.34","74.16","NAN","0.0"],
    [1566920,"2026-08-07 20:30:00","19630","0.948","207.4","2.385","221.5","1016.153","29.26","74.99","NAN","0.0"],
    [1566921,"2026-08-07 20:40:00","19631","1.1059999999999999","209.5","2.7110000000000003","198.3","1016.0310000000001","29.16","74.8","NAN","0.0"],
    [1566922,"2026-08-07 20:50:00","19632","0.917","220.4","3.332","220.4","1015.84","29.18","73.92","NAN","0.0"],
    [1566923,"2026-08-07 21:00:00","19633","1.227","237.3","2.8089999999999997","254.6","1015.8","29.26","73.14","NAN","0.0"],
    [1566924,"2026-08-07 21:10:00","19634","1.399","259.8","2.94","284.2","1015.84","29.32","71.8","NAN","0.0"],
    [1566925,"2026-08-07 21:20:00","19635","1.068","255.7","2.9730000000000003","297.8","1015.8919999999999","29.4","71.3","NAN","0.0"],
    [1566926,"2026-08-07 21:30:00","19636","1.256","249.4","3.1689999999999996","241.7","1015.82","29.4","72.15","NAN","0.0"],
    [1566927,"2026-08-07 21:40:00","19637","1.495","239.2","3.7239999999999998","230.2","1015.812","29.26","72.66","NAN","0.0"],
    [1566928,"2026-08-07 21:50:00","19638","1.288","233.4","3.332","234.4","1015.613","29.21","72.91","NAN","0.0"],
    [1566929,"2026-08-07 22:00:00","19639","1.077","236.2","3.7569999999999997","250.2","1015.456","29.11","74.45","NAN","0.0"],
    [1566930,"2026-08-07 22:10:00","19640","1.2","231.4","3.5610000000000004","247.7","1015.3389999999999","29.03","74.74","NAN","0.0"],
    [1566931,"2026-08-07 22:20:00","19641","0.457","218.0","1.3719999999999999","231.7","1015.334","28.98","74.71","NAN","0.0"],
    [1566932,"2026-08-07 22:30:00","19642","0.302","115.9","1.013","206.7","1015.3889999999999","28.76","74.91","NAN","0.0"],
    [1566933,"2026-08-07 22:40:00","19643","0.7809999999999999","220.3","2.385","206.5","1015.5110000000001","28.74","75.11","NAN","0.0"],
    [1566934,"2026-08-07 22:50:00","19644","0.737","224.8","2.7769999999999997","244.3","1015.541","28.69","74.31","NAN","0.0"],
    [1566935,"2026-08-07 23:00:00","19645","1.147","248.2","3.332","242.7","1015.74","28.74","69.48","NAN","0.0"],
    [1566936,"2026-08-07 23:10:00","19646","1.569","237.5","3.495","226.1","1015.715","28.8","63.9","NAN","0.0"],
    [1566937,"2026-08-07 23:20:00","19647","1.7180000000000002","235.5","4.802","242.5","1015.543","28.77","60.08","NAN","0.0"],
    [1566938,"2026-08-07 23:30:00","19648","0.5670000000000001","228.6","1.895","232.5","1015.706","28.9","61.57","NAN","0.0"],
    [1566939,"2026-08-07 23:40:00","19649","1.245","239.7","2.45","255.7","1015.752","28.65","63.31","NAN","0.0"],
    [1566940,"2026-08-07 23:50:00","19650","0.726","285.4","1.96","264.5","1015.8330000000001","28.64","63.92","NAN","0.0"],
    [1566941,"2026-08-08 00:00:00","19651","0.419","99.6","1.045","102.4","1015.952","28.92","63.64","NAN","0.0"],
    [1566942,"2026-08-08 00:10:00","19652","0.775","94.3","1.274","108.8","1016.086","28.52","65.84","NAN","0.0"],
    [1566943,"2026-08-08 00:20:00","19653","1.3940000000000001","33.8","2.7769999999999997","21.92","1016.061","28.52","64.2","NAN","0.0"],
    [1566944,"2026-08-08 00:30:00","19654","1.329","37.99","2.875","359.8","1015.9939999999999","28.19","65.32","NAN","0.0"],
    [1566945,"2026-08-08 00:40:00","19655","1.196","34.3","2.907","10.19","1015.977","28.13","65.65","NAN","0.0"],
    [1566946,"2026-08-08 00:50:00","19656","1.005","33.68","2.7439999999999998","13.3","1015.932","28.07","65.01","NAN","0.0"],
    [1566947,"2026-08-08 01:00:00","19657","1.278","28.62","3.071","24.12","1015.877","28.09","65.24","NAN","0.0"],
    [1566948,"2026-08-08 01:10:00","19658","0.9890000000000001","4.085","2.287","5.1610000000000005","1015.852","28.09","65.1","NAN","0.0"],
    [1566949,"2026-08-08 01:20:00","19659","0.53","341.4","1.7309999999999999","341.4","1015.837","28.38","63.84","NAN","0.0"],
    [1566950,"2026-08-08 01:30:00","19660","0.9109999999999999","324.2","2.189","295.3","1015.755","28.39","63.62","NAN","0.0"],
    [1566951,"2026-08-08 01:40:00","19661","0.706","316.8","1.993","316.5","1015.653","28.52","62.85","NAN","0.0"],
    [1566952,"2026-08-08 01:50:00","19662","0.6629999999999999","297.8","1.568","310.9","1015.553","28.54","62.73","NAN","0.0"],
    [1566953,"2026-08-08 02:00:00","19663","0.616","325.8","1.829","294.7","1015.4110000000001","28.76","61.51","NAN","0.0"],
    [1566954,"2026-08-08 02:10:00","19664","0.5720000000000001","313.3","1.307","316.2","1015.319","28.84","59.68","NAN","0.0"],
    [1566955,"2026-08-08 02:20:00","19665","0.654","266.2","1.666","287.4","1015.177","28.81","59.39","NAN","0.0"],
    [1566956,"2026-08-08 02:30:00","19666","0.289","242.0","1.176","247.0","1015.107","28.55","61.44","NAN","0.0"],
    [1566957,"2026-08-08 02:40:00","19667","1.3730000000000002","250.1","3.234","245.5","1015.097","28.46","59.74","NAN","0.0"],
    [1566958,"2026-08-08 02:50:00","19668","1.214","244.1","2.7439999999999998","253.3","1015.043","28.4","59.36","NAN","0.0"],
    [1566959,"2026-08-08 03:00:00","19669","0.284","217.8","1.045","264.7","1014.975","28.27","59.6","NAN","0.0"],
    [1566960,"2026-08-08 03:10:00","19670","0.937","262.6","2.515","249.9","1014.846","28.06","59.93","NAN","0.0"],
    [1566961,"2026-08-08 03:20:00","19671","1.526","276.5","3.6910000000000003","303.6","1014.916","27.89","62.15","NAN","0.0"],
    [1566962,"2026-08-08 03:30:00","19672","0.86","271.6","2.483","260.0","1014.923","27.55","63.92","NAN","0.0"],
    [1566963,"2026-08-08 03:40:00","19673","1.089","270.4","2.515","257.9","1015.023","27.55","64.07","NAN","0.0"],
    [1566964,"2026-08-08 03:50:00","19674","0.836","304.9","1.9269999999999998","260.2","1014.9730000000001","27.54","63.82","NAN","0.0"],
    [1566965,"2026-08-08 04:00:00","19675","0.882","46.19","1.797","55.44","1015.028","27.06","59.84","NAN","0.0"],
    [1566966,"2026-08-08 04:10:00","19676","0.44299999999999995","39.07","1.209","31.58","1015.023","26.89","59.82","NAN","0.0"],
    [1566967,"2026-08-08 04:20:00","19677","0.922","16.4","2.123","18.54","1015.08","26.89","59.74","NAN","0.0"],
    [1566968,"2026-08-08 04:30:00","19678","0.915","8.23","1.5030000000000001","10.11","1015.035","27.3","58.59","NAN","0.0"],
    [1566969,"2026-08-08 04:40:00","19679","0.6890000000000001","1.6280000000000001","1.405","349.2","1014.9680000000001","27.56","58.04","NAN","0.0"],
    [1566970,"2026-08-08 04:50:00","19680","0.7140000000000001","6.912000000000001","1.764","8.4","1014.98","27.75","57.73","NAN","0.0"],
    [1566971,"2026-08-08 05:00:00","19681","0.247","175.0","0.7190000000000001","174.6","1015.177","27.45","59.93","NAN","0.0"],
    [1566972,"2026-08-08 05:10:00","19682","0.302","199.5","0.915","205.8","1015.3489999999999","27","63.3","NAN","0.0"],
    [1566973,"2026-08-08 05:20:00","19683","0.34299999999999997","159.4","0.588","175.0","1015.4639999999999","26.91","65.73","NAN","0.0"],
    [1566974,"2026-08-08 05:30:00","19684","0.001","109.3","0.065","109.3","1015.4639999999999","27.04","66.68","NAN","0.0"],
    [1566975,"2026-08-08 05:40:00","19685","0.0","0.0","0.0","0.0","1015.5039999999999","27.18","64.84","NAN","0.0"],
    [1566976,"2026-08-08 05:50:00","19686","0.08800000000000001","88.4","0.588","99.7","1015.633","27.52","65.34","NAN","0.0"],
    [1566977,"2026-08-08 06:00:00","19687","0.237","83.0","0.7190000000000001","82.9","1015.7130000000001","27.64","61.77","NAN","0.0"],
    [1566978,"2026-08-08 06:10:00","19688","0.8109999999999999","64.73","1.47","32.99","1015.69","28.07","59.12","NAN","0.0"],
    [1566979,"2026-08-08 06:20:00","19689","0.6970000000000001","29.1","1.764","4.1160000000000005","1015.705","28.26","54.84","NAN","0.0"],
    [1566980,"2026-08-08 06:30:00","19690","0.8540000000000001","36.77","2.156","38.81","1015.738","28.37","52.36","NAN","0.0"],
    [1566981,"2026-08-08 06:40:00","19691","0.991","24.83","2.417","43.0","1015.805","28.38","51.43","NAN","0.0"],
    [1566982,"2026-08-08 06:50:00","19692","1.2409999999999999","31.05","3.071","8.03","1015.855","28.28","51.83","NAN","0.0"],
    [1566983,"2026-08-08 07:00:00","19693","1.261","22.44","2.907","357.5","1016.023","28.44","52.32","NAN","0.0"],
    [1566984,"2026-08-08 07:10:00","19694","1.3530000000000002","8.98","2.875","345.7","1016.091","28.55","52.54","NAN","0.0"],
    [1566985,"2026-08-08 07:20:00","19695","1.097","19.67","2.5810000000000004","37.93","1016.238","28.79","52.96","NAN","0.0"],
    [1566986,"2026-08-08 07:30:00","19696","1.0590000000000002","15.28","2.6460000000000004","35.21","1016.294","29.05","53.83","NAN","0.0"],
    [1566987,"2026-08-08 07:40:00","19697","0.628","19.3","1.633","35.89","1016.288","29.41","54.02","NAN","0.0"],
    [1566988,"2026-08-08 07:50:00","19698","0.763","15.91","1.535","357.8","1016.299","29.83","54.34","NAN","0.0"],
    [1566989,"2026-08-08 08:00:00","19699","1.126","86.5","1.895","62.55","1016.385","30.35","54.6","NAN","0.0"],
    [1566990,"2026-08-08 08:10:00","19700","1.4880000000000002","117.9","2.221","109.6","1016.3969999999999","29.94","57.13","NAN","0.0"],
    [1566991,"2026-08-08 08:20:00","19701","1.7009999999999998","116.1","2.907","115.2","1016.505","29.85","59.21","NAN","0.0"],
    [1566992,"2026-08-08 08:30:00","19702","1.881","104.8","2.8089999999999997","116.3","1016.5010000000001","30.12","59.99","NAN","0.0"],
    [1566993,"2026-08-08 08:40:00","19703","2.108","108.1","2.842","110.0","1016.518","29.66","62.41","NAN","0.0"],
    [1566994,"2026-08-08 08:50:00","19704","2.0","107.2","3.103","104.2","1016.543","29.75","63.52","NAN","0.0"],
    [1566995,"2026-08-08 09:00:00","19705","2.08","106.7","3.495","110.0","1016.665","29.93","64.55","NAN","0.0"],
    [1566996,"2026-08-08 09:10:00","19706","2.099","101.5","3.397","103.3","1016.7460000000001","30","66.11","NAN","0.0"],
    [1566997,"2026-08-08 09:20:00","19707","2.1790000000000003","103.4","3.43","108.2","1016.7589999999999","29.69","69.06","NAN","0.0"],
    [1566998,"2026-08-08 09:30:00","19708","2.407","97.7","3.7889999999999997","105.7","1016.76","29.95","69.85","NAN","0.0"],
    [1566999,"2026-08-08 09:40:00","19709","2.158","101.1","3.7569999999999997","103.6","1016.76","29.97","70.83","NAN","0.0"],
    [1567000,"2026-08-08 09:50:00","19710","2.504","93.6","4.018","103.4","1016.768","30.09","70.49","NAN","0.0"],
    [1567001,"2026-08-08 10:00:00","19711","2.536","104.0","4.606","92.8","1016.7710000000001","30.05","71","NAN","0.0"],
    [1567002,"2026-08-08 10:10:00","19712","2.6289999999999996","89.4","4.933","89.3","1016.768","30.19","65.12","NAN","0.0"],
    [1567003,"2026-08-08 10:20:00","19713","3.13","91.6","4.606","104.7","1016.7439999999999","30.3","61.43","NAN","0.0"],
    [1567004,"2026-08-08 10:30:00","19714","2.725","97.5","4.769","95.5","1016.7660000000001","30.69","59.19","NAN","0.0"],
    [1567005,"2026-08-08 10:40:00","19715","2.863","107.8","5.194","118.2","1016.7689999999999","30.81","57.17","NAN","0.0"],
    [1567006,"2026-08-08 10:50:00","19716","2.9939999999999998","112.2","4.704","113.7","1016.742","30.49","57.69","NAN","0.0"],
    [1567007,"2026-08-08 11:00:00","19717","2.759","104.8","5.096","112.6","1016.72","30.33","57.96","NAN","0.0"],
    [1567008,"2026-08-08 11:10:00","19718","2.256","108.6","3.528","113.3","1016.7260000000001","30.57","58.9","NAN","0.0"],
    [1567009,"2026-08-08 11:20:00","19719","2.4459999999999997","105.4","3.985","107.7","1016.74","30.69","58.44","NAN","0.0"],
    [1567010,"2026-08-08 11:30:00","19720","2.345","122.0","3.7889999999999997","106.9","1016.688","30.5","59.21","NAN","0.0"],
    [1567011,"2026-08-08 11:40:00","19721","2.2030000000000003","124.7","3.822","108.5","1016.675","30.21","61.08","NAN","0.0"],
    [1567012,"2026-08-08 11:50:00","19722","2.27","116.3","3.6910000000000003","104.2","1016.576","30.38","62.57","NAN","0.0"],
    [1567013,"2026-08-08 12:00:00","19723","2.38","120.0","3.92","113.4","1016.645","30.46","63.63","NAN","0.0"],
    [1567014,"2026-08-08 12:10:00","19724","2.299","129.0","3.43","133.6","1016.548","30.32","65.69","NAN","0.0"],
    [1567015,"2026-08-08 12:20:00","19725","2.4819999999999998","127.2","3.593","123.1","1016.4760000000001","29.96","68.58","NAN","0.0"],
    [1567016,"2026-08-08 12:30:00","19726","2.452","126.3","4.018","140.1","1016.3989999999999","29.85","69.9","NAN","0.0"],
    [1567017,"2026-08-08 12:40:00","19727","2.408","127.0","3.528","121.9","1016.317","29.81","70.75","NAN","0.0"],
    [1567018,"2026-08-08 12:50:00","19728","2.397","123.7","3.887","116.1","1016.32","30","70.78","NAN","0.0"],
    [1567019,"2026-08-08 13:00:00","19729","2.5580000000000003","126.9","3.855","102.8","1016.312","29.88","71.77","NAN","0.0"],
    [1567020,"2026-08-08 13:10:00","19730","2.47","155.2","3.9530000000000003","153.7","1016.195","30.18","70.52","NAN","0.0"],
    [1567021,"2026-08-08 13:20:00","19731","2.4930000000000003","148.3","4.083","155.3","1016.105","30.36","69.89","NAN","0.0"],
    [1567022,"2026-08-08 13:30:00","19732","2.41","145.1","3.9530000000000003","159.8","1016.054","30.29","70.12","NAN","0.0"],
    [1567023,"2026-08-08 13:40:00","19733","2.191","150.8","3.855","129.6","1015.965","30.41","69.57","NAN","0.0"],
    [1567024,"2026-08-08 13:50:00","19734","1.992","154.3","4.018","157.9","1015.816","30.82","67.67","NAN","0.0"],
    [1567025,"2026-08-08 14:00:00","19735","2.516","140.8","4.541","115.7","1015.697","30.4","68.1","NAN","0.0"],
    [1567026,"2026-08-08 14:10:00","19736","2.4090000000000003","150.9","3.985","148.1","1015.558","30.47","67.12","NAN","0.0"],
    [1567027,"2026-08-08 14:20:00","19737","2.778","154.1","4.769","164.9","1015.3710000000001","30.14","67.86","NAN","0.0"],
    [1567028,"2026-08-08 14:30:00","19738","2.48","144.8","4.312","155.6","1015.307","30.16","67.82","NAN","0.0"],
    [1567029,"2026-08-08 14:40:00","19739","2.525","152.3","4.606","155.0","1015.301","30.14","68.09","NAN","0.0"],
    [1567030,"2026-08-08 14:50:00","19740","1.9","165.9","3.495","131.6","1015.309","30.38","67.99","NAN","0.0"],
    [1567031,"2026-08-08 15:00:00","19741","1.9480000000000002","159.9","3.234","160.2","1015.2","30.45","67.91","NAN","0.0"],
    [1567032,"2026-08-08 15:10:00","19742","2.074","182.7","3.593","182.3","1015.285","30.35","69","NAN","0.0"],
    [1567033,"2026-08-08 15:20:00","19743","2.38","179.1","3.9530000000000003","176.0","1015.1160000000001","29.98","71.87","NAN","0.0"],
    [1567034,"2026-08-08 15:30:00","19744","2.516","171.5","3.887","165.1","1014.831","30.02","73.5","NAN","0.0"],
    [1567035,"2026-08-08 15:40:00","19745","2.494","172.6","3.822","178.9","1014.785","30.08","73.24","NAN","0.0"],
    [1567036,"2026-08-08 15:50:00","19746","2.423","170.5","3.7569999999999997","163.9","1014.7310000000001","30.18","72.9","NAN","0.0"],
    [1567037,"2026-08-08 16:00:00","19747","2.398","177.4","4.181","175.7","1014.903","30.02","73.5","NAN","0.0"],
    [1567038,"2026-08-08 16:10:00","19748","2.694","171.8","4.149","177.9","1015.1489999999999","29.89","74.15","NAN","0.0"],
    [1567039,"2026-08-08 16:20:00","19749","2.6310000000000002","170.4","3.985","173.5","1015.107","29.95","74.18","NAN","0.0"],
    [1567040,"2026-08-08 16:30:00","19750","2.718","175.3","4.083","178.5","1015.064","29.97","74.32","NAN","0.0"],
    [1567041,"2026-08-08 16:40:00","19751","2.215","180.8","3.7239999999999998","174.1","1014.89","29.91","75.45","NAN","0.0"],
    [1567042,"2026-08-08 16:50:00","19752","2.188","176.9","3.7889999999999997","168.9","1014.905","29.78","76.73","NAN","0.0"],
    [1567043,"2026-08-08 17:00:00","19753","2.772","171.5","4.508","174.4","1014.931","29.54","78.36","NAN","0.0"],
    [1567044,"2026-08-08 17:10:00","19754","3.306","172.6","5.096","177.4","1014.841","29.47","78.73","NAN","0.0"],
    [1567045,"2026-08-08 17:20:00","19755","3.216","174.7","5.325","173.0","1014.7610000000001","29.5","79.96","NAN","0.0"],
    [1567046,"2026-08-08 17:30:00","19756","2.897","172.6","4.737","171.0","1014.7360000000001","29.36","83.7","NAN","0.0"],
    [1567047,"2026-08-08 17:40:00","19757","1.9880000000000002","171.1","3.495","166.1","1014.791","29.51","83.5","NAN","0.0"],
    [1567048,"2026-08-08 17:50:00","19758","1.959","169.4","3.463","143.5","1014.645","29.41","83.7","NAN","0.0"],
    [1567049,"2026-08-08 18:00:00","19759","1.642","178.4","3.1689999999999996","171.2","1014.5169999999999","29.37","82.6","NAN","0.0"],
    [1567050,"2026-08-08 18:10:00","19760","1.8840000000000001","175.2","3.332","151.8","1014.579","29.45","81.8","NAN","0.0"],
    [1567051,"2026-08-08 18:20:00","19761","1.51","183.8","3.0380000000000003","210.7","1014.682","29.42","82","NAN","0.0"],
    [1567052,"2026-08-08 18:30:00","19762","1.1420000000000001","184.9","2.45","167.5","1014.9060000000001","29.44","80.9","NAN","0.0"],
    [1567053,"2026-08-08 18:40:00","19763","0.863","192.8","2.0909999999999997","162.9","1015.195","29.54","78.08","NAN","0.0"],
    [1567054,"2026-08-08 18:50:00","19764","1.187","219.0","2.5810000000000004","232.7","1015.538","30.02","72.88","NAN","0.0"],
    [1567055,"2026-08-08 19:00:00","19765","1.301","196.4","2.8089999999999997","205.4","1015.404","29.85","75.1","NAN","0.0"],
    [1567056,"2026-08-08 19:10:00","19766","0.8690000000000001","196.4","2.025","165.0","1015.5310000000001","29.62","76.93","NAN","0.0"],
    [1567057,"2026-08-08 19:20:00","19767","0.93","196.2","1.829","248.0","1015.61","29.74","76.28","NAN","0.0"],
    [1567058,"2026-08-08 19:30:00","19768","1.127","191.0","1.96","176.1","1015.3739999999999","29.6","75.88","NAN","0.0"],
    [1567059,"2026-08-08 19:40:00","19769","1.538","175.7","3.1689999999999996","151.6","1015.2639999999999","29.49","78.78","NAN","0.0"],
    [1567060,"2026-08-08 19:50:00","19770","1.305","181.3","2.319","181.5","1015.3389999999999","29.19","80.9","NAN","0.0"],
    [1567061,"2026-08-08 20:00:00","19771","1.206","178.3","2.156","144.3","1015.431","29.15","81.4","NAN","0.0"],
    [1567062,"2026-08-08 20:10:00","19772","1.24","178.7","2.0580000000000003","157.8","1015.581","29.11","81.3","NAN","0.0"],
    [1567063,"2026-08-08 20:20:00","19773","1.262","192.7","3.005","192.5","1015.635","29.09","79.9","NAN","0.0"],
    [1567064,"2026-08-08 20:30:00","19774","1.113","198.8","2.842","200.5","1015.655","29.31","77.32","NAN","0.0"],
    [1567065,"2026-08-08 20:40:00","19775","0.7959999999999999","210.0","2.548","207.2","1015.4910000000001","29.28","77.77","NAN","0.0"],
    [1567066,"2026-08-08 20:50:00","19776","0.98","223.4","2.319","219.3","1015.529","29.43","75.49","NAN","0.0"],
    [1567067,"2026-08-08 21:00:00","19777","0.941","209.2","2.7110000000000003","195.4","1015.6189999999999","29.44","76.28","NAN","0.0"],
    [1567068,"2026-08-08 21:10:00","19778","1.3519999999999999","199.0","2.7439999999999998","194.8","1015.705","29.23","77.88","NAN","0.0"],
    [1567069,"2026-08-08 21:20:00","19779","1.2109999999999999","194.2","2.842","168.5","1015.7130000000001","29.04","79.26","NAN","0.0"],
    [1567070,"2026-08-08 21:30:00","19780","1.004","207.8","2.156","216.6","1015.68","29.03","78.64","NAN","0.0"],
    [1567071,"2026-08-08 21:40:00","19781","0.7829999999999999","227.8","2.0909999999999997","267.8","1015.795","29.14","76.8","NAN","0.0"],
    [1567072,"2026-08-08 21:50:00","19782","0.649","236.0","1.9269999999999998","256.1","1015.735","29.37","76.13","NAN","0.0"],
    [1567073,"2026-08-08 22:00:00","19783","0.628","239.0","1.895","273.9","1015.73","29.44","76.09","NAN","0.0"],
    [1567074,"2026-08-08 22:10:00","19784","0.857","206.7","2.7110000000000003","220.8","1015.743","29.26","77.37","NAN","0.0"],
    [1567075,"2026-08-08 22:20:00","19785","0.768","203.7","2.0580000000000003","212.9","1015.67","28.95","79","NAN","0.0"],
    [1567076,"2026-08-08 22:30:00","19786","1.092","214.9","2.417","238.7","1015.703","28.87","79.2","NAN","0.0"],
    [1567077,"2026-08-08 22:40:00","19787","0.905","205.8","1.764","198.6","1015.743","28.98","78.46","NAN","0.0"],
    [1567078,"2026-08-08 22:50:00","19788","0.691","188.4","1.339","214.2","1015.812","28.96","79.26","NAN","0.0"],
    [1567079,"2026-08-08 23:00:00","19789","0.982","204.3","2.0909999999999997","157.9","1015.882","28.89","79.11","NAN","0.0"],
    [1567080,"2026-08-08 23:10:00","19790","0.833","205.3","2.0580000000000003","189.4","1015.812","28.88","79.39","NAN","0.0"],
    [1567081,"2026-08-08 23:20:00","19791","0.606","226.0","1.993","223.2","1015.727","28.79","79.06","NAN","0.0"],
    [1567082,"2026-08-08 23:30:00","19792","0.564","239.1","1.8619999999999999","219.9","1015.7080000000001","28.88","78.38","NAN","0.0"],
    [1567083,"2026-08-08 23:40:00","19793","0.6629999999999999","229.4","1.666","260.0","1015.665","28.88","78.58","NAN","0.0"],
    [1567084,"2026-08-08 23:50:00","19794","0.239","243.7","1.764","309.1","1015.448","28.87","79.22","NAN","0.0"],
    [1567085,"2026-08-09 00:00:00","19795","0.557","203.6","1.339","204.6","1015.337","28.87","79.18","NAN","0.0"],
    [1567086,"2026-08-09 00:10:00","19796","0.593","193.0","1.4369999999999998","224.2","1015.311","28.7","80.1","NAN","0.0"],
    [1567087,"2026-08-09 00:20:00","19797","0.6970000000000001","204.8","1.764","245.9","1015.2689999999999","28.62","79.39","NAN","0.0"],
    [1567088,"2026-08-09 00:30:00","19798","0.184","178.7","0.98","156.2","1015.18","28.67","79.87","NAN","0.0"],
    [1567089,"2026-08-09 00:40:00","19799","0.623","210.1","1.633","198.1","1015.2669999999999","28.48","80.1","NAN","0.0"],
    [1567090,"2026-08-09 00:50:00","19800","1.045","238.2","3.136","251.7","1015.414","28.42","78.25","NAN","0.0"],
    [1567091,"2026-08-09 01:00:00","19801","1.092","263.4","3.1689999999999996","269.2","1015.3489999999999","28.85","75.81","NAN","0.0"],
    [1567092,"2026-08-09 01:10:00","19802","0.654","226.7","1.9269999999999998","266.7","1015.232","28.74","75.5","NAN","0.0"],
    [1567093,"2026-08-09 01:20:00","19803","0.7140000000000001","183.3","1.535","277.1","1015.012","28.49","77.04","NAN","0.0"],
    [1567094,"2026-08-09 01:30:00","19804","0.484","149.8","1.601","172.0","1014.788","28.27","78.43","NAN","0.0"],
    [1567095,"2026-08-09 01:40:00","19805","0.366","103.6","1.078","92.4","1014.676","28.2","79.32","NAN","0.0"],
    [1567096,"2026-08-09 01:50:00","19806","0.27399999999999997","97.4","1.209","100.9","1014.597","28.17","78.14","NAN","0.0"],
    [1567097,"2026-08-09 02:00:00","19807","0.667","99.1","1.3719999999999999","80.8","1014.576","28.2","78.41","NAN","0.0"],
    [1567098,"2026-08-09 02:10:00","19808","0.595","103.5","1.209","113.2","1014.4739999999999","28.19","78.51","NAN","0.0"],
    [1567099,"2026-08-09 02:20:00","19809","0.5529999999999999","118.4","1.274","112.2","1014.477","28.17","79.04","NAN","0.0"],
    [1567100,"2026-08-09 02:30:00","19810","0.331","144.2","1.111","133.6","1014.529","28.11","79.5","NAN","0.0"],
    [1567101,"2026-08-09 02:40:00","19811","0.406","139.5","1.143","139.4","1014.47","28.04","80","NAN","0.0"],
    [1567102,"2026-08-09 02:50:00","19812","0.243","156.1","0.98","168.7","1014.592","28.05","80.8","NAN","0.0"],
    [1567103,"2026-08-09 03:00:00","19813","0.502","177.9","0.98","161.1","1014.627","28.01","82.2","NAN","0.0"],
    [1567104,"2026-08-09 03:10:00","19814","0.309","209.2","1.111","238.4","1014.7289999999999","28.02","82.6","NAN","0.0"],
    [1567105,"2026-08-09 03:20:00","19815","0.985","236.5","2.7769999999999997","252.8","1014.9060000000001","28.04","79.88","NAN","0.0"],
    [1567106,"2026-08-09 03:30:00","19816","1.286","241.9","3.071","265.8","1015.182","28.28","76.06","NAN","0.0"],
    [1567107,"2026-08-09 03:40:00","19817","0.89","238.7","2.156","257.8","1015.062","28.22","75.93","NAN","0.0"],
    [1567108,"2026-08-09 03:50:00","19818","1.102","252.5","3.43","274.5","1015.013","28.33","74.78","NAN","0.0"],
    [1567109,"2026-08-09 04:00:00","19819","1.61","266.0","3.7569999999999997","254.2","1014.99","28.25","71.61","NAN","0.0"],
    [1567110,"2026-08-09 04:10:00","19820","1.472","268.3","3.463","260.0","1014.87","28.2","67.99","NAN","0.0"],
    [1567111,"2026-08-09 04:20:00","19821","0.507","247.5","1.829","269.8","1014.9010000000001","28.27","66.05","NAN","0.0"],
    [1567112,"2026-08-09 04:30:00","19822","0.444","137.4","0.882","114.9","1014.8380000000001","28.07","66.19","NAN","0.0"],
    [1567113,"2026-08-09 04:40:00","19823","0.8","135.9","1.5030000000000001","146.9","1014.6210000000001","27.84","67.19","NAN","0.0"],
    [1567114,"2026-08-09 04:50:00","19824","0.23399999999999999","107.9","1.2409999999999999","168.4","1014.567","27.96","70.17","NAN","0.0"],
    [1567115,"2026-08-09 05:00:00","19825","1.127","17.18","3.234","41.87","1014.607","27.95","66.31","NAN","0.0"],
    [1567116,"2026-08-09 05:10:00","19826","0.8590000000000001","34.32","2.123","29.21","1014.5419999999999","27.85","64.43","NAN","0.0"],
    [1567117,"2026-08-09 05:20:00","19827","0.256","7.297999999999999","1.2409999999999999","7.196000000000001","1014.596","28.17","63.26","NAN","0.0"],
    [1567118,"2026-08-09 05:30:00","19828","0.386","142.0","1.405","111.2","1014.5039999999999","28.36","62.93","NAN","0.0"],
    [1567119,"2026-08-09 05:40:00","19829","0.889","114.9","1.5030000000000001","111.1","1014.497","28.03","65.15","NAN","0.0"],
    [1567120,"2026-08-09 05:50:00","19830","1.026","108.4","1.764","140.3","1014.547","28.02","66.45","NAN","0.0"],
    [1567121,"2026-08-09 06:00:00","19831","0.742","140.0","1.699","113.5","1014.49","27.81","68.69","NAN","0.0"],
    [1567122,"2026-08-09 06:10:00","19832","0.48","95.6","0.882","124.4","1014.6469999999999","28.14","67.47","NAN","0.0"],
    [1567123,"2026-08-09 06:20:00","19833","0.42100000000000004","70.9","1.078","59.13","1014.804","28.68","63.86","NAN","0.0"],
    [1567124,"2026-08-09 06:30:00","19834","0.375","10.28","1.176","3.605","1014.841","29.22","59.96","NAN","0.0"],
    [1567125,"2026-08-09 06:40:00","19835","0.34600000000000003","76.42","0.8490000000000001","60.3","1014.939","29.51","57.09","NAN","0.0"],
    [1567126,"2026-08-09 06:50:00","19836","0.596","89.6","1.307","107.5","1015.081","29.9","55.86","NAN","0.0"],
    [1567127,"2026-08-09 07:00:00","19837","0.777","129.0","1.176","123.1","1015.071","29.28","57","NAN","0.0"],
    [1567128,"2026-08-09 07:10:00","19838","0.6509999999999999","112.9","1.111","119.2","1015.163","29.44","57.64","NAN","0.0"],
    [1567129,"2026-08-09 07:20:00","19839","0.27","70.98","0.7509999999999999","64.28","1015.305","30.3","56.69","NAN","0.0"],
    [1567130,"2026-08-09 07:30:00","19840","0.353","102.7","1.143","144.1","1015.3989999999999","30.53","58.7","NAN","0.0"],
    [1567131,"2026-08-09 07:40:00","19841","0.387","178.6","1.045","170.2","1015.415","30.52","60.52","NAN","0.0"],
    [1567132,"2026-08-09 07:50:00","19842","0.368","179.9","1.209","196.7","1015.465","30.5","63.46","NAN","0.0"],
    [1567133,"2026-08-09 08:00:00","19843","0.77","142.7","1.535","135.7","1015.5139999999999","30.54","64.26","NAN","0.0"],
    [1567134,"2026-08-09 08:10:00","19844","0.735","178.6","1.4369999999999998","178.8","1015.497","30.61","66.45","NAN","0.0"],
    [1567135,"2026-08-09 08:20:00","19845","0.46399999999999997","173.4","1.143","183.7","1015.4169999999999","31.16","64.73","NAN","0.0"],
    [1567136,"2026-08-09 08:30:00","19846","0.919","175.9","1.633","171.9","1015.505","30.94","63.71","NAN","0.0"],
    [1567137,"2026-08-09 08:40:00","19847","1.4080000000000001","174.0","2.6460000000000004","178.5","1015.538","30.94","62.91","NAN","0.0"],
    [1567138,"2026-08-09 08:50:00","19848","0.742","209.2","1.8619999999999999","227.9","1015.6030000000001","32.09","58.89","NAN","0.0"],
    [1567139,"2026-08-09 09:00:00","19849","1.389","150.7","2.352","162.8","1015.561","31.89","60.04","NAN","0.0"],
    [1567140,"2026-08-09 09:10:00","19850","2.229","113.0","3.463","116.1","1015.5980000000001","30.38","69.54","NAN","0.0"],
    [1567141,"2026-08-09 09:20:00","19851","1.584","123.1","2.548","159.1","1015.6010000000001","30.63","69.75","NAN","0.0"],
    [1567142,"2026-08-09 09:30:00","19852","1.945","173.9","3.103","143.7","1015.6139999999999","30.94","66.23","NAN","0.0"],
    [1567143,"2026-08-09 09:40:00","19853","1.964","167.4","3.1689999999999996","165.7","1015.622","31.22","65.06","NAN","0.0"],
    [1567144,"2026-08-09 09:50:00","19854","2.2319999999999998","169.3","3.332","175.2","1015.637","31.05","62.88","NAN","0.0"],
    [1567145,"2026-08-09 10:00:00","19855","2.023","178.1","3.103","148.0","1015.572","31.27","57.53","NAN","0.0"],
    [1567146,"2026-08-09 10:10:00","19856","1.736","181.9","2.8089999999999997","177.0","1015.561","31.88","54.09","NAN","0.0"],
    [1567147,"2026-08-09 10:20:00","19857","2.088","175.7","3.103","174.5","1015.55","31.91","55.81","NAN","0.0"],
    [1567148,"2026-08-09 10:30:00","19858","1.9880000000000002","172.9","2.9730000000000003","177.8","1015.529","31.45","54.93","NAN","0.0"],
    [1567149,"2026-08-09 10:40:00","19859","1.9080000000000001","148.5","2.7769999999999997","173.6","1015.4789999999999","31.79","58.62","NAN","0.0"],
    [1567150,"2026-08-09 10:50:00","19860","2.101","165.8","3.593","108.5","1015.475","31.91","55.68","NAN","0.0"],
    [1567151,"2026-08-09 11:00:00","19861","2.033","175.0","3.1689999999999996","182.7","1015.5139999999999","31.97","53.3","NAN","0.0"],
    [1567152,"2026-08-09 11:10:00","19862","2.272","174.2","3.299","182.8","1015.455","31.91","56.95","NAN","0.0"],
    [1567153,"2026-08-09 11:20:00","19863","2.42","179.2","3.43","177.7","1015.4960000000001","31.54","59.51","NAN","0.0"],
    [1567154,"2026-08-09 11:30:00","19864","2.445","180.1","3.822","170.9","1015.422","31.53","58.23","NAN","0.0"],
    [1567155,"2026-08-09 11:40:00","19865","2.75","173.3","3.92","178.4","1015.4019999999999","31.06","58.8","NAN","0.0"],
    [1567156,"2026-08-09 11:50:00","19866","2.662","173.4","3.659","177.2","1015.329","31.26","59.69","NAN","0.0"],
    [1567157,"2026-08-09 12:00:00","19867","2.9160000000000004","177.1","4.083","181.0","1015.321","31.31","60.06","NAN","0.0"],
    [1567158,"2026-08-09 12:10:00","19868","2.906","170.1","3.887","172.5","1015.36","31.12","61.02","NAN","0.0"],
    [1567159,"2026-08-09 12:20:00","19869","2.693","164.7","3.887","176.3","1015.301","31.36","59.14","NAN","0.0"],
    [1567160,"2026-08-09 12:30:00","19870","2.955","169.3","3.92","170.9","1015.306","31.31","60.02","NAN","0.0"],
    [1567161,"2026-08-09 12:40:00","19871","3.015","169.7","4.181","174.1","1015.2180000000001","31.26","59.68","NAN","0.0"],
    [1567162,"2026-08-09 12:50:00","19872","3.1039999999999996","172.5","4.606","172.7","1015.069","31.18","61.47","NAN","0.0"],
    [1567163,"2026-08-09 13:00:00","19873","3.208","166.0","4.606","176.8","1015.039","31.28","58.49","NAN","0.0"],
    [1567164,"2026-08-09 13:10:00","19874","3.28","174.0","4.737","177.4","1015.028","31.12","60.61","NAN","0.0"],
    [1567165,"2026-08-09 13:20:00","19875","2.9330000000000003","171.3","4.541","176.1","1014.932","31.21","60.79","NAN","0.0"],
    [1567166,"2026-08-09 13:30:00","19876","2.699","172.8","4.345","179.1","1014.8839999999999","31.43","61.51","NAN","0.0"],
    [1567167,"2026-08-09 13:40:00","19877","2.67","166.2","4.149","150.8","1014.813","31.33","63.18","NAN","0.0"],
    [1567168,"2026-08-09 13:50:00","19878","2.947","167.5","4.4430000000000005","155.5","1014.748","31.43","62.95","NAN","0.0"],
    [1567169,"2026-08-09 14:00:00","19879","2.8989999999999996","167.2","4.181","174.2","1014.66","31.1","64.82","NAN","0.0"],
    [1567170,"2026-08-09 14:10:00","19880","3.5180000000000002","176.6","4.867","175.0","1014.453","31.07","65.49","NAN","0.0"],
    [1567171,"2026-08-09 14:20:00","19881","3.2969999999999997","177.4","4.704","180.3","1014.444","31.06","65.78","NAN","0.0"],
    [1567172,"2026-08-09 14:30:00","19882","2.927","166.5","4.671","181.8","1014.441","30.97","65.84","NAN","0.0"],
    [1567173,"2026-08-09 14:40:00","19883","2.645","164.5","3.92","158.1","1014.434","31.31","64.85","NAN","0.0"],
    [1567174,"2026-08-09 14:50:00","19884","2.763","165.2","4.4430000000000005","164.4","1014.32","31.31","65.82","NAN","0.0"],
    [1567175,"2026-08-09 15:00:00","19885","2.9010000000000002","167.6","5.096","170.2","1014.28","31.06","66.54","NAN","0.0"],
    [1567176,"2026-08-09 15:10:00","19886","3.155","173.6","4.345","177.6","1014.203","30.91","67.75","NAN","0.0"],
    [1567177,"2026-08-09 15:20:00","19887","2.964","165.1","3.985","153.8","1014.118","30.96","69.54","NAN","0.0"],
    [1567178,"2026-08-09 15:30:00","19888","2.5869999999999997","171.7","4.279","155.2","1014.052","30.91","69.36","NAN","0.0"],
    [1567179,"2026-08-09 15:40:00","19889","2.383","168.3","3.855","180.4","1013.9839999999999","31.32","67.92","NAN","0.0"],
    [1567180,"2026-08-09 15:50:00","19890","2.543","168.4","4.051","161.2","1013.8960000000001","30.97","69.52","NAN","0.0"],
    [1567181,"2026-08-09 16:00:00","19891","2.51","169.9","3.7889999999999997","157.8","1013.8889999999999","30.94","69.3","NAN","0.0"],
    [1567182,"2026-08-09 16:10:00","19892","2.42","168.2","3.7889999999999997","176.3","1014.0060000000001","30.89","67.59","NAN","0.0"],
    [1567183,"2026-08-09 16:20:00","19893","2.6189999999999998","169.1","3.528","166.2","1014.078","30.8","67.05","NAN","0.0"],
    [1567184,"2026-08-09 16:30:00","19894","2.355","168.9","3.822","154.8","1014.077","30.85","67.52","NAN","0.0"],
    [1567185,"2026-08-09 16:40:00","19895","2.411","172.6","3.5610000000000004","174.8","1014.081","30.74","67.8","NAN","0.0"],
    [1567186,"2026-08-09 16:50:00","19896","2.6039999999999996","178.8","3.5610000000000004","176.0","1014.105","30.65","67.58","NAN","0.0"],
    [1567187,"2026-08-09 17:00:00","19897","2.266","175.9","3.397","174.7","1014.02","30.52","68.04","NAN","0.0"],
    [1567188,"2026-08-09 17:10:00","19898","2.335","175.7","3.365","171.5","1014.018","30.5","68.82","NAN","0.0"],
    [1567189,"2026-08-09 17:20:00","19899","2.171","171.3","3.5610000000000004","174.9","1013.9680000000001","30.43","68.91","NAN","0.0"],
    [1567190,"2026-08-09 17:30:00","19900","2.21","171.0","3.365","159.2","1013.895","30.55","68.85","NAN","0.0"],
    [1567191,"2026-08-09 17:40:00","19901","2.536","172.0","3.5610000000000004","175.8","1013.8589999999999","30.3","70.22","NAN","0.0"],
    [1567192,"2026-08-09 17:50:00","19902","2.003","170.1","3.365","177.6","1013.8910000000001","30.31","70.87","NAN","0.0"],
    [1567193,"2026-08-09 18:00:00","19903","2.238","166.9","3.136","181.1","1013.8439999999999","30.25","71.82","NAN","0.0"],
    [1567194,"2026-08-09 18:10:00","19904","1.935","166.6","3.071","175.2","1013.867","30.08","74.29","NAN","0.0"],
    [1567195,"2026-08-09 18:20:00","19905","2.081","165.7","3.6260000000000003","163.0","1013.966","29.97","74.94","NAN","0.0"],
    [1567196,"2026-08-09 18:30:00","19906","1.795","170.6","3.985","171.0","1013.842","29.95","75.23","NAN","0.0"],
    [1567197,"2026-08-09 18:40:00","19907","2.133","177.5","3.365","178.1","1013.914","29.76","76.56","NAN","0.0"],
    [1567198,"2026-08-09 18:50:00","19908","2.7939999999999996","175.9","4.279","176.7","1013.7339999999999","29.68","77.86","NAN","0.0"],
    [1567199,"2026-08-09 19:00:00","19909","1.896","175.3","3.7889999999999997","174.9","1013.797","29.58","79.06","NAN","0.0"],
    [1567200,"2026-08-09 19:10:00","19910","1.9069999999999998","169.1","3.299","184.3","1013.682","29.65","78.73","NAN","0.0"],
    [1567201,"2026-08-09 19:20:00","19911","2.151","176.2","3.201","165.8","1013.552","29.55","79.02","NAN","0.0"],
    [1567202,"2026-08-09 19:30:00","19912","2.205","174.8","3.267","174.0","1013.543","29.49","79.95","NAN","0.0"],
    [1567203,"2026-08-09 19:40:00","19913","1.3530000000000002","183.2","2.842","173.8","1013.75","29.51","80.2","NAN","0.0"],
    [1567204,"2026-08-09 19:50:00","19914","0.986","192.5","1.96","183.5","1013.972","29.55","79.96","NAN","0.0"],
    [1567205,"2026-08-09 20:00:00","19915","1.031","183.4","1.895","176.3","1014.1160000000001","29.6","78.21","NAN","0.0"],
    [1567206,"2026-08-09 20:10:00","19916","0.992","189.2","2.123","210.4","1014.265","29.57","77.61","NAN","0.0"],
    [1567207,"2026-08-09 20:20:00","19917","0.7170000000000001","196.5","2.221","208.0","1014.3330000000001","29.6","75.66","NAN","0.0"],
    [1567208,"2026-08-09 20:30:00","19918","0.711","162.4","1.633","141.0","1014.335","29.69","74.3","NAN","0.0"],
    [1567209,"2026-08-09 20:40:00","19919","0.963","170.4","1.8619999999999999","154.9","1014.323","29.6","74.36","NAN","0.0"],
    [1567210,"2026-08-09 20:50:00","19920","0.795","176.7","1.274","157.7","1014.34","29.6","74.27","NAN","0.0"],
    [1567211,"2026-08-09 21:00:00","19921","1.077","161.7","2.0580000000000003","166.4","1014.323","29.52","73.91","NAN","0.0"],
    [1567212,"2026-08-09 21:10:00","19922","0.728","172.5","1.143","173.8","1014.328","29.53","74.34","NAN","0.0"],
    [1567213,"2026-08-09 21:20:00","19923","0.821","164.9","1.405","139.8","1014.217","29.5","73.81","NAN","0.0"],
    [1567214,"2026-08-09 21:30:00","19924","0.922","146.5","1.535","123.3","1014.211","29.37","73.78","NAN","0.0"],
    [1567215,"2026-08-09 21:40:00","19925","0.428","157.2","1.339","144.4","1014.335","29.34","74.67","NAN","0.0"],
    [1567216,"2026-08-09 21:50:00","19926","0.5529999999999999","172.4","1.568","168.8","1014.355","29.43","74.92","NAN","0.0"],
    [1567217,"2026-08-09 22:00:00","19927","0.187","213.7","0.621","232.1","1014.559","29.27","75.16","NAN","0.0"],
    [1567218,"2026-08-09 22:10:00","19928","0.6759999999999999","176.6","1.013","170.0","1014.549","29.38","74.84","NAN","0.0"],
    [1567219,"2026-08-09 22:20:00","19929","0.604","153.8","0.98","164.9","1014.5239999999999","29.28","75.24","NAN","0.0"],
    [1567220,"2026-08-09 22:30:00","19930","0.716","174.1","1.143","168.4","1014.582","29.16","76.23","NAN","0.0"],
    [1567221,"2026-08-09 22:40:00","19931","0.49200000000000005","196.3","1.339","183.9","1014.579","29.13","77.08","NAN","0.0"],
    [1567222,"2026-08-09 22:50:00","19932","0.41","181.0","1.045","202.2","1014.6489999999999","29.05","77.54","NAN","0.0"],
    [1567223,"2026-08-09 23:00:00","19933","0.04","180.0","0.392","173.8","1014.574","29.08","77.68","NAN","0.0"],
    [1567224,"2026-08-09 23:10:00","19934","0.301","134.8","0.7509999999999999","142.7","1014.482","28.88","78.1","NAN","0.0"],
    [1567225,"2026-08-09 23:20:00","19935","0.466","127.0","0.8490000000000001","145.8","1014.472","28.85","77.9","NAN","0.0"],
    [1567226,"2026-08-09 23:30:00","19936","0.042","103.9","0.327","98.8","1014.452","28.78","78.3","NAN","0.0"],
    [1567227,"2026-08-09 23:40:00","19937","0.369","112.7","0.653","102.3","1014.4019999999999","28.87","79.04","NAN","0.0"],
    [1567228,"2026-08-09 23:50:00","19938","0.26899999999999996","138.7","0.621","147.8","1014.4169999999999","28.85","78.83","NAN","0.0"],
    [1567229,"2026-08-10 00:00:00","19939","0.51","92.8","1.176","91.7","1014.462","28.86","78.62","NAN","0.0"],
    [1567230,"2026-08-10 00:10:00","19940","0.8220000000000001","63.97","1.666","66.57","1014.467","28.96","77.44","NAN","0.0"],
    [1567231,"2026-08-10 00:20:00","19941","0.8740000000000001","67.99","1.699","63.47","1014.375","28.86","76.95","NAN","0.0"],
    [1567232,"2026-08-10 00:30:00","19942","0.9490000000000001","49.91","1.829","55.26","1014.28","28.77","75.95","NAN","0.0"],
    [1567233,"2026-08-10 00:40:00","19943","0.9229999999999999","48.98","1.9269999999999998","19.24","1014.096","28.75","74.5","NAN","0.0"],
    [1567234,"2026-08-10 00:50:00","19944","0.9940000000000001","48.19","2.417","35.21","1014.171","28.72","73.11","NAN","0.0"],
    [1567235,"2026-08-10 01:00:00","19945","0.934","38.26","1.829","31.63","1014.096","28.68","71.94","NAN","0.0"],
    [1567236,"2026-08-10 01:10:00","19946","0.7879999999999999","42.08","1.699","26.01","1014.081","28.63","71.84","NAN","0.0"],
    [1567237,"2026-08-10 01:20:00","19947","0.6609999999999999","62.21","1.3719999999999999","53.34","1014.033","28.57","71.96","NAN","0.0"],
    [1567238,"2026-08-10 01:30:00","19948","0.727","60.19","1.47","73.71","1014.076","28.51","71.9","NAN","0.0"],
    [1567239,"2026-08-10 01:40:00","19949","0.924","70.72","1.568","73.04","1014.063","28.43","71.99","NAN","0.0"],
    [1567240,"2026-08-10 01:50:00","19950","0.9740000000000001","49.91","2.0580000000000003","66.25","1014.061","28.28","72.38","NAN","0.0"],
    [1567241,"2026-08-10 02:00:00","19951","0.48100000000000004","36.62","1.3719999999999999","29.16","1014.178","28.25","72.43","NAN","0.0"],
    [1567242,"2026-08-10 02:10:00","19952","0.888","45.8","2.123","65.02","1014.1030000000001","28.24","71.71","NAN","0.0"],
    [1567243,"2026-08-10 02:20:00","19953","1.172","46.84","2.515","32.4","1014.096","28.1","71.47","NAN","0.0"],
    [1567244,"2026-08-10 02:30:00","19954","1.065","29.63","2.352","16.92","1014.273","28.19","70.71","NAN","0.0"],
    [1567245,"2026-08-10 02:40:00","19955","1.035","23.38","2.8089999999999997","29.08","1014.31","28.11","70.71","NAN","0.0"],
    [1567246,"2026-08-10 02:50:00","19956","0.623","24.19","1.5030000000000001","60.06","1014.3430000000001","28.17","70.42","NAN","0.0"],
    [1567247,"2026-08-10 03:00:00","19957","0.778","8.82","1.601","10.5","1014.3430000000001","28.14","70.64","NAN","0.0"],
    [1567248,"2026-08-10 03:10:00","19958","1.016","10.21","2.45","15.69","1014.437","28.15","70.22","NAN","0.0"],
    [1567249,"2026-08-10 03:20:00","19959","1.0290000000000001","31.38","1.895","61.56","1014.4019999999999","28.07","70.99","NAN","0.0"],
    [1567250,"2026-08-10 03:30:00","19960","0.768","36.01","1.797","54.68","1014.58","27.96","71.2","NAN","0.0"],
    [1567251,"2026-08-10 03:40:00","19961","1.3530000000000002","43.31","2.679","56.05","1014.706","27.95","70.72","NAN","0.0"],
    [1567252,"2026-08-10 03:50:00","19962","1.6380000000000001","41.48","3.365","29.0","1014.7860000000001","27.9","71.94","NAN","0.0"],
    [1567253,"2026-08-10 04:00:00","19963","1.287","23.19","3.071","66.5","1014.716","27.92","73.27","NAN","0.0"],
    [1567254,"2026-08-10 04:10:00","19964","0.975","25.26","2.679","19.13","1014.7310000000001","28.04","72.6","NAN","0.0"],
    [1567255,"2026-08-10 04:20:00","19965","1.287","35.95","2.679","27.82","1014.7539999999999","27.9","73.12","NAN","0.0"],
    [1567256,"2026-08-10 04:30:00","19966","0.878","52.31","2.0909999999999997","39.93","1014.8380000000001","27.84","72.71","NAN","0.0"],
    [1567257,"2026-08-10 04:40:00","19967","2.483","65.08","5.586","75.39","1014.8530000000001","27.95","71.05","NAN","0.0"],
    [1567258,"2026-08-10 04:50:00","19968","2.622","74.63","5.782","63.45","1014.898","28.41","68.92","NAN","0.0"],
    [1567259,"2026-08-10 05:00:00","19969","2.678","77.46","5.357","68.24","1015.063","28.56","67.9","NAN","0.0"],
    [1567260,"2026-08-10 05:10:00","19970","4.21","75.15","8.07","60.33","1015.0830000000001","28.49","67.39","NAN","0.0"],
    [1567261,"2026-08-10 05:20:00","19971","4.19","77.04","7.513","54.78","1015.17","28.14","74.33","NAN","0.0"],
    [1567262,"2026-08-10 05:30:00","19972","3.659","73.2","6.468","89.0","1015.2389999999999","27.93","78.7","NAN","0.0"],
    [1567263,"2026-08-10 05:40:00","19973","3.728","76.74","6.239","71.56","1015.252","27.79","83.6","NAN","0.0"],
    [1567264,"2026-08-10 05:50:00","19974","3.826","74.81","7.775","89.5","1015.2869999999999","27.77","83.8","NAN","0.0"],
    [1567265,"2026-08-10 06:00:00","19975","3.753","71.66","7.415","55.79","1015.304","27.78","83.8","NAN","0.0"],
    [1567266,"2026-08-10 06:10:00","19976","3.238","71.96","6.631","72.29","1015.324","27.81","83.4","NAN","0.0"],
    [1567267,"2026-08-10 06:20:00","19977","3.585","77.12","7.121","75.76","1015.421","27.83","83.4","NAN","0.0"],
    [1567268,"2026-08-10 06:30:00","19978","3.1010000000000004","80.5","6.011","74.54","1015.471","27.89","83.3","NAN","0.0"],
    [1567269,"2026-08-10 06:40:00","19979","3.25","81.1","5.88","84.6","1015.4110000000001","27.93","83","NAN","0.0"],
    [1567270,"2026-08-10 06:50:00","19980","3.378","83.3","5.619","98.6","1015.541","28.08","81.8","NAN","0.0"],
    [1567271,"2026-08-10 07:00:00","19981","2.9419999999999997","78.73","5.782","115.0","1015.696","28.25","77.99","NAN","0.0"],
    [1567272,"2026-08-10 07:10:00","19982","2.167","76.82","4.475","85.8","1015.842","28.67","75.11","NAN","0.0"],
    [1567273,"2026-08-10 07:20:00","19983","2.571","87.2","4.377","62.32","1015.987","28.8","73.53","NAN","0.0"],
    [1567274,"2026-08-10 07:30:00","19984","2.176","84.3","3.234","78.17","1016.113","29.08","73.16","NAN","0.0"],
    [1567275,"2026-08-10 07:40:00","19985","2.405","83.4","4.051","74.94","1015.956","29.18","72.58","NAN","0.0"],
    [1567276,"2026-08-10 07:50:00","19986","2.948","89.8","4.671","76.06","1015.691","28.95","73.61","NAN","0.0"],
    [1567277,"2026-08-10 08:00:00","19987","1.626","94.8","2.9730000000000003","100.1","1015.803","28.87","74.49","NAN","0.0"],
    [1567278,"2026-08-10 08:10:00","19988","2.024","109.6","3.267","102.8","1016.034","28.61","74.81","NAN","0.0"],
    [1567279,"2026-08-10 08:20:00","19989","2.0540000000000003","92.1","3.234","77.71","1015.925","28.7","74.78","NAN","0.0"],
    [1567280,"2026-08-10 08:30:00","19990","2.311","89.4","3.528","100.2","1015.7739999999999","29.3","72.09","NAN","0.0"],
    [1567281,"2026-08-10 08:40:00","19991","1.8319999999999999","83.5","3.267","77.36","1015.807","29.73","70.2","NAN","0.0"],
    [1567282,"2026-08-10 08:50:00","19992","1.962","93.2","3.365","102.8","1015.8480000000001","29.9","69.66","NAN","0.0"],
    [1567283,"2026-08-10 09:00:00","19993","2.381","103.6","4.018","108.6","1015.887","29.81","69.85","NAN","0.0"],
    [1567284,"2026-08-10 09:10:00","19994","2.06","105.3","3.7569999999999997","112.9","1015.9689999999999","30.32","67.33","NAN","0.0"],
    [1567285,"2026-08-10 09:20:00","19995","3.176","100.4","5.2589999999999995","110.0","1015.9730000000001","30.43","65.75","NAN","0.0"],
    [1567286,"2026-08-10 09:30:00","19996","3.404","104.4","5.847","106.1","1015.947","30.32","65.01","NAN","0.0"],
    [1567287,"2026-08-10 09:40:00","19997","2.958","99.2","5.292000000000001","102.5","1016.0980000000001","30.33","63.45","NAN","0.0"],
    [1567288,"2026-08-10 09:50:00","19998","2.824","101.9","5.553","110.1","1016.0989999999999","30.55","62.81","NAN","0.0"],
    [1567289,"2026-08-10 10:00:00","19999","2.474","113.4","5.063","109.4","1016.201","30.76","62.82","NAN","0.0"],
    [1567290,"2026-08-10 10:10:00","20000","2.5810000000000004","113.3","5.749","103.8","1016.221","30.47","63.62","NAN","0.0"],
    [1567291,"2026-08-10 10:20:00","20001","2.513","114.0","4.802","98.1","1016.2610000000001","30.69","62.12","NAN","0.0"],
    [1567292,"2026-08-10 10:30:00","20002","2.8110000000000004","131.3","4.998","148.3","1016.2769999999999","30.31","65.16","NAN","0.0"],
    [1567293,"2026-08-10 10:40:00","20003","2.755","127.6","5.553","135.9","1016.313","30.18","66.65","NAN","0.0"],
    [1567294,"2026-08-10 10:50:00","20004","2.359","126.8","4.475","110.5","1016.357","30.25","68.49","NAN","0.0"],
    [1567295,"2026-08-10 11:00:00","20005","2.273","122.9","3.92","98.8","1016.405","30.49","67.49","NAN","0.0"],
    [1567296,"2026-08-10 11:10:00","20006","2.4419999999999997","121.0","4.377","142.2","1016.388","30.38","66.77","NAN","0.0"],
    [1567297,"2026-08-10 11:20:00","20007","2.568","114.2","4.998","91.9","1016.326","30.65","64.29","NAN","0.0"],
    [1567298,"2026-08-10 11:30:00","20008","2.266","119.1","4.377","102.7","1016.317","30.97","63.14","NAN","0.0"],
    [1567299,"2026-08-10 11:40:00","20009","2.221","102.5","4.4430000000000005","110.2","1016.298","31.15","62.16","NAN","0.0"],
    [1567300,"2026-08-10 11:50:00","20010","2.394","109.5","3.887","113.1","1016.296","31.08","61.34","NAN","0.0"],
    [1567301,"2026-08-10 12:00:00","20011","2.807","103.1","4.802","90.8","1016.2130000000001","31.24","61.73","NAN","0.0"],
    [1567302,"2026-08-10 12:10:00","20012","2.9760000000000004","102.6","4.802","110.6","1016.169","31.04","62.5","NAN","0.0"],
    [1567303,"2026-08-10 12:20:00","20013","2.9610000000000003","108.4","5.749","98.7","1016.132","31.23","62.21","NAN","0.0"],
    [1567304,"2026-08-10 12:30:00","20014","3.193","115.1","5.455","106.1","1016.05","30.85","66.02","NAN","0.0"],
    [1567305,"2026-08-10 12:40:00","20015","3.1910000000000003","126.1","5.129","151.6","1016.003","30.58","68.52","NAN","0.0"],
    [1567306,"2026-08-10 12:50:00","20016","3.1510000000000002","123.9","5.521","113.8","1015.885","30.15","71.2","NAN","0.0"],
    [1567307,"2026-08-10 13:00:00","20017","2.698","108.5","4.769","124.3","1015.8760000000001","30.49","70.35","NAN","0.0"],
    [1567308,"2026-08-10 13:10:00","20018","3.123","104.9","5.521","94.7","1015.82","30.55","69.7","NAN","0.0"],
    [1567309,"2026-08-10 13:20:00","20019","3.466","98.5","5.619","93.5","1015.804","30.47","70.11","NAN","0.0"],
    [1567310,"2026-08-10 13:30:00","20020","2.747","104.1","4.573","96.3","1015.807","30.72","70.13","NAN","0.0"],
    [1567311,"2026-08-10 13:40:00","20021","2.945","104.4","5.129","103.7","1015.7410000000001","30.49","72.4","NAN","0.0"],
    [1567312,"2026-08-10 13:50:00","20022","2.795","117.3","4.835","110.5","1015.682","30.22","73.29","NAN","0.0"],
    [1567313,"2026-08-10 14:00:00","20023","2.6719999999999997","122.5","4.704","115.5","1015.745","29.92","74.61","NAN","0.0"],
    [1567314,"2026-08-10 14:10:00","20024","2.715","128.6","4.475","115.0","1015.685","29.63","75.95","NAN","0.0"],
    [1567315,"2026-08-10 14:20:00","20025","2.6319999999999997","130.6","4.2139999999999995","134.1","1015.653","29.46","77.37","NAN","0.0"],
    [1567316,"2026-08-10 14:30:00","20026","2.519","122.4","3.9530000000000003","106.3","1015.6060000000001","29.15","78.52","NAN","0.0"],
    [1567317,"2026-08-10 14:40:00","20027","2.498","130.1","4.051","108.8","1015.4780000000001","29.34","78.28","NAN","0.0"],
    [1567318,"2026-08-10 14:50:00","20028","2.401","130.6","3.9530000000000003","140.1","1015.367","29.18","79.31","NAN","0.0"],
    [1567319,"2026-08-10 15:00:00","20029","2.546","133.9","4.1160000000000005","140.8","1015.377","29.1","79.89","NAN","0.0"],
    [1567320,"2026-08-10 15:10:00","20030","2.373","124.9","3.593","114.0","1015.33","29.15","80.1","NAN","0.0"],
    [1567321,"2026-08-10 15:20:00","20031","2.428","117.9","3.887","145.3","1015.202","29.4","79.55","NAN","0.0"],
    [1567322,"2026-08-10 15:30:00","20032","2.5989999999999998","108.4","4.149","121.4","1015.09","29.3","79.91","NAN","0.0"],
    [1567323,"2026-08-10 15:40:00","20033","2.204","117.1","3.855","109.4","1014.905","29.26","80.3","NAN","0.0"],
    [1567324,"2026-08-10 15:50:00","20034","2.661","105.2","4.345","102.4","1014.748","29.16","81.6","NAN","0.0"],
    [1567325,"2026-08-10 16:00:00","20035","2.113","104.4","4.018","101.1","1014.7869999999999","29.11","81.7","NAN","0.0"],
    [1567326,"2026-08-10 16:10:00","20036","2.122","114.8","3.659","110.0","1014.794","29.15","81.4","NAN","0.0"],
    [1567327,"2026-08-10 16:20:00","20037","2.123","109.2","3.593","107.9","1014.8330000000001","28.81","83","NAN","0.0"],
    [1567328,"2026-08-10 16:30:00","20038","2.377","107.6","4.1160000000000005","104.0","1014.86","28.87","83.2","NAN","0.0"],
    [1567329,"2026-08-10 16:40:00","20039","1.797","105.1","3.593","92.7","1015.048","28.95","83.6","NAN","0.0"],
    [1567330,"2026-08-10 16:50:00","20040","1.636","116.7","3.005","137.5","1015.1510000000001","28.73","84.7","NAN","0.0"],
    [1567331,"2026-08-10 17:00:00","20041","1.4769999999999999","126.6","2.613","115.2","1015.337","28.74","85.2","NAN","0.0"],
    [1567332,"2026-08-10 17:10:00","20042","1.251","103.4","2.417","101.1","1015.194","28.72","85.9","NAN","0.0"],
    [1567333,"2026-08-10 17:20:00","20043","1.3780000000000001","123.5","2.6460000000000004","158.5","1015.052","28.79","86","NAN","0.0"],
    [1567334,"2026-08-10 17:30:00","20044","1.493","117.4","2.515","112.3","1014.7230000000001","28.68","86.7","NAN","0.0"],
    [1567335,"2026-08-10 17:40:00","20045","1.534","101.4","3.136","101.8","1014.821","28.54","87.6","NAN","0.0"],
    [1567336,"2026-08-10 17:50:00","20046","1.4969999999999999","127.0","2.94","130.5","1014.841","28.62","87","NAN","0.0"],
    [1567337,"2026-08-10 18:00:00","20047","1.439","117.3","2.907","90.7","1014.841","28.66","86.6","NAN","0.0"],
    [1567338,"2026-08-10 18:10:00","20048","1.7269999999999999","122.5","3.234","85.7","1014.868","28.62","86.6","NAN","0.0"],
    [1567339,"2026-08-10 18:20:00","20049","1.1520000000000001","140.6","2.189","128.8","1015.085","28.66","86","NAN","0.0"],
    [1567340,"2026-08-10 18:30:00","20050","1.5830000000000002","126.7","2.417","112.0","1015.097","28.6","85.9","NAN","0.0"],
    [1567341,"2026-08-10 18:40:00","20051","1.155","131.3","2.0580000000000003","125.5","1015.15","28.55","86.8","NAN","0.0"],
    [1567342,"2026-08-10 18:50:00","20052","1.0290000000000001","139.0","2.025","159.1","1015.301","28.45","87.2","NAN","0.0"],
    [1567343,"2026-08-10 19:00:00","20053","0.735","153.8","1.699","157.3","1015.314","28.47","87.2","NAN","0.0"],
    [1567344,"2026-08-10 19:10:00","20054","0.639","156.0","1.405","109.3","1015.3489999999999","28.5","87.4","NAN","0.0"],
    [1567345,"2026-08-10 19:20:00","20055","0.36200000000000004","210.5","0.9470000000000001","209.6","1015.3660000000001","28.56","87.3","NAN","0.0"],
    [1567346,"2026-08-10 19:30:00","20056","0.685","151.7","1.2409999999999999","158.5","1015.421","28.6","86.7","NAN","0.0"],
    [1567347,"2026-08-10 19:40:00","20057","0.6609999999999999","170.7","1.2409999999999999","116.2","1015.466","28.5","86.3","NAN","0.0"],
    [1567348,"2026-08-10 19:50:00","20058","0.6970000000000001","99.0","1.895","90.4","1015.4639999999999","28.59","87.2","NAN","0.0"],
    [1567349,"2026-08-10 20:00:00","20059","0.8440000000000001","81.9","1.666","99.3","1015.4789999999999","28.52","87.2","NAN","0.0"],
    [1567350,"2026-08-10 20:10:00","20060","1.115","90.6","1.993","100.6","1015.6360000000001","28.56","86.8","NAN","0.0"],
    [1567351,"2026-08-10 20:20:00","20061","1.015","99.3","1.895","115.6","1015.855","28.53","87","NAN","0.0"],
    [1567352,"2026-08-10 20:30:00","20062","0.665","118.9","1.829","96.4","1016.1239999999999","28.43","87.7","NAN","0.0"],
    [1567353,"2026-08-10 20:40:00","20063","1.085","142.0","2.254","161.2","1016.446","28.45","88.3","NAN","0.0"],
    [1567354,"2026-08-10 20:50:00","20064","1.036","156.5","1.764","176.4","1016.702","28.44","89.1","NAN","0.0"],
    [1567355,"2026-08-10 21:00:00","20065","1.3559999999999999","132.1","2.352","120.7","1016.834","28.51","89.2","NAN","0.0"],
    [1567356,"2026-08-10 21:10:00","20066","0.626","173.6","1.176","200.2","1016.8489999999999","28.6","88.9","NAN","0.0"],
    [1567357,"2026-08-10 21:20:00","20067","0.685","163.2","1.568","151.3","1016.836","28.62","88.7","NAN","0.0"],
    [1567358,"2026-08-10 21:30:00","20068","1.033","140.0","1.568","163.9","1016.836","28.55","89","NAN","0.0"],
    [1567359,"2026-08-10 21:40:00","20069","0.302","100.3","1.111","102.5","1016.4839999999999","28.53","89.5","NAN","0.0"],
    [1567360,"2026-08-10 21:50:00","20070","0.191","192.5","0.8490000000000001","199.1","1016.336","28.55","88.7","NAN","0.0"],
    [1567361,"2026-08-10 22:00:00","20071","0.483","155.5","1.176","183.9","1016.3660000000001","28.63","87.9","NAN","0.0"],
    [1567362,"2026-08-10 22:10:00","20072","0.624","177.5","1.078","182.8","1016.318","28.68","86.5","NAN","0.0"],
    [1567363,"2026-08-10 22:20:00","20073","0.89","156.9","1.568","175.2","1016.1460000000001","28.88","84.7","NAN","0.0"],
    [1567364,"2026-08-10 22:30:00","20074","0.657","123.5","1.3719999999999999","109.9","1016.1610000000001","28.89","85.5","NAN","0.0"],
    [1567365,"2026-08-10 22:40:00","20075","0.5820000000000001","73.04","1.993","89.3","1015.9019999999999","28.86","86.2","NAN","0.0"],
    [1567366,"2026-08-10 22:50:00","20076","1.544","48.72","2.875","17.8","1015.6469999999999","28.92","85.9","NAN","0.0"],
    [1567367,"2026-08-10 23:00:00","20077","1.415","29.67","2.9730000000000003","51.77","1015.2719999999999","28.98","84.8","NAN","0.0"],
    [1567368,"2026-08-10 23:10:00","20078","1.538","24.45","3.855","25.96","1015.117","29.01","81.8","NAN","0.0"],
    [1567369,"2026-08-10 23:20:00","20079","1.217","346.6","4.279","18.29","1015.01","29.21","78.03","NAN","0.0"],
    [1567370,"2026-08-10 23:30:00","20080","1.515","349.6","4.181","10.07","1014.4110000000001","29.25","77.44","NAN","0.0"],
    [1567371,"2026-08-10 23:40:00","20081","1.012","356.6","2.6460000000000004","8.78","1014.063","29.26","76.82","NAN","0.0"],
    [1567372,"2026-08-10 23:50:00","20082","1.043","344.6","2.7439999999999998","355.3","1013.747","29.25","76.39","NAN","0.0"],
    [1567373,"2026-08-11 00:00:00","20083","1.375","353.4","4.41","318.9","1013.692","29.15","71.5","NAN","0.0"],
    [1567374,"2026-08-11 00:10:00","20084","1.194","1.8259999999999998","3.593","14.92","1013.72","29.23","67.25","NAN","0.0"],
    [1567375,"2026-08-11 00:20:00","20085","1.1340000000000001","23.07","3.332","42.98","1013.785","29.34","64.1","NAN","0.0"],
    [1567376,"2026-08-11 00:30:00","20086","2.82","93.4","4.9","79.12","1014.1489999999999","29.12","65.02","NAN","0.0"],
    [1567377,"2026-08-11 00:40:00","20087","2.372","60.56","4.802","80.0","1014.28","28.45","69.85","NAN","0.0"],
    [1567378,"2026-08-11 00:50:00","20088","1.1909999999999998","42.89","2.5810000000000004","22.53","1014.205","28.73","67.37","NAN","0.0"],
    [1567379,"2026-08-11 01:00:00","20089","0.938","21.97","2.548","19.48","1014.076","28.88","71.96","NAN","0.0"],
    [1567380,"2026-08-11 01:10:00","20090","0.555","15.74","1.405","30.65","1014.1210000000001","28.9","70.76","NAN","0.0"],
    [1567381,"2026-08-11 01:20:00","20091","0.397","78.82","1.143","89.1","1013.933","29.05","70.76","NAN","0.0"],
    [1567382,"2026-08-11 01:30:00","20092","0.521","55.16","1.47","56.24","1013.7389999999999","28.97","72.68","NAN","0.0"],
    [1567383,"2026-08-11 01:40:00","20093","0.5539999999999999","69.23","1.209","111.6","1013.577","29.04","74.57","NAN","0.0"],
    [1567384,"2026-08-11 01:50:00","20094","0.72","318.0","1.993","307.7","1013.633","29.04","74.51","NAN","0.0"],
    [1567385,"2026-08-11 02:00:00","20095","0.728","247.6","2.45","241.7","1014.0369999999999","29.38","71.48","NAN","0.0"],
    [1567386,"2026-08-11 02:10:00","20096","0.447","329.3","1.209","331.1","1014.176","29.36","64.47","NAN","0.0"],
    [1567387,"2026-08-11 02:20:00","20097","1.036","167.2","2.5810000000000004","147.1","1014.493","29.25","64.5","NAN","0.0"],
    [1567388,"2026-08-11 02:30:00","20098","0.903","270.3","2.6460000000000004","160.9","1014.613","28.87","65.95","NAN","0.0"],
    [1567389,"2026-08-11 02:40:00","20099","0.245","58.05","0.915","3.139","1014.6139999999999","29.14","65.61","NAN","0.0"],
    [1567390,"2026-08-11 02:50:00","20100","1.1320000000000001","55.7","2.0580000000000003","89.5","1014.535","28.99","66.31","NAN","0.0"],
    [1567391,"2026-08-11 03:00:00","20101","0.41","41.01","1.274","82.6","1014.6260000000001","28.9","63.84","NAN","0.0"],
    [1567392,"2026-08-11 03:10:00","20102","0.071","352.6","0.555","343.6","1014.684","28.94","59.2","NAN","0.0"],
    [1567393,"2026-08-11 03:20:00","20103","0.512","5.343999999999999","1.176","20.4","1014.7489999999999","29.09","57.45","NAN","0.0"],
    [1567394,"2026-08-11 03:30:00","20104","0.48100000000000004","352.3","1.568","0.126","1014.7560000000001","29.08","56.93","NAN","0.0"],
    [1567395,"2026-08-11 03:40:00","20105","0.46299999999999997","0.498","1.078","357.8","1014.8430000000001","28.97","57.63","NAN","0.0"],
    [1567396,"2026-08-11 03:50:00","20106","0.414","10.48","0.9470000000000001","350.6","1014.923","29","58.24","NAN","0.0"],
    [1567397,"2026-08-11 04:00:00","20107","0.7929999999999999","26.54","1.633","17.19","1015.038","28.91","58.74","NAN","0.0"],
    [1567398,"2026-08-11 04:10:00","20108","0.526","357.5","1.666","351.5","1015.085","28.84","58.93","NAN","0.0"],
    [1567399,"2026-08-11 04:20:00","20109","0.799","11.18","2.189","17.63","1015.1419999999999","28.87","59.03","NAN","0.0"],
    [1567400,"2026-08-11 04:30:00","20110","1.126","34.65","2.221","60.34","1015.1080000000001","28.62","60.61","NAN","0.0"],
    [1567401,"2026-08-11 04:40:00","20111","1.0590000000000002","33.22","2.548","35.94","1015.252","28.31","61.99","NAN","0.0"],
    [1567402,"2026-08-11 04:50:00","20112","0.988","23.36","2.7439999999999998","29.55","1015.3389999999999","28.07","63.19","NAN","0.0"],
    [1567403,"2026-08-11 05:00:00","20113","0.7140000000000001","27.39","2.0580000000000003","10.29","1015.357","28.07","63.68","NAN","0.0"],
    [1567404,"2026-08-11 05:10:00","20114","0.7040000000000001","23.19","1.699","7.275","1015.4989999999999","28.14","63.6","NAN","0.0"],
    [1567405,"2026-08-11 05:20:00","20115","0.78","53.66","1.535","52.19","1015.801","28.03","64.52","NAN","0.0"],
    [1567406,"2026-08-11 05:30:00","20116","0.9570000000000001","53.55","1.9269999999999998","31.52","1016.079","27.92","64.75","NAN","0.0"],
    [1567407,"2026-08-11 05:40:00","20117","0.7909999999999999","36.29","2.0909999999999997","12.27","1016.091","27.99","64.93","NAN","0.0"],
    [1567408,"2026-08-11 05:50:00","20118","1.01","0.527","2.0909999999999997","8.24","1016.091","28.26","65.39","NAN","0.0"],
    [1567409,"2026-08-11 06:00:00","20119","0.983","8.27","2.483","3.807","1016.1619999999999","28.5","65.2","NAN","0.0"],
    [1567410,"2026-08-11 06:10:00","20120","0.8390000000000001","43.43","2.385","17.1","1016.336","28.8","64.95","NAN","0.0"],
    [1567411,"2026-08-11 06:20:00","20121","0.992","49.62","2.254","74.59","1016.373","28.9","66.26","NAN","0.0"],
    [1567412,"2026-08-11 06:30:00","20122","1.286","39.8","2.6460000000000004","28.33","1016.4780000000001","28.93","66.87","NAN","0.0"],
    [1567413,"2026-08-11 06:40:00","20123","1.797","85.3","4.018","106.3","1016.62","29.21","72.56","NAN","0.0"],
    [1567414,"2026-08-11 06:50:00","20124","2.519","68.46","4.475","53.8","1016.7239999999999","28.96","79.74","NAN","0.0"],
    [1567415,"2026-08-11 07:00:00","20125","2.574","64.5","4.769","59.75","1016.7130000000001","28.72","81.9","NAN","0.0"],
    [1567416,"2026-08-11 07:10:00","20126","2.898","67.49","5.619","66.34","1016.737","28.78","82.5","NAN","0.0"],
    [1567417,"2026-08-11 07:20:00","20127","2.4219999999999997","75.76","5.063","74.85","1016.8389999999999","28.94","80.8","NAN","0.0"],
    [1567418,"2026-08-11 07:30:00","20128","2.7119999999999997","79.44","5.4879999999999995","81.1","1016.971","29.05","76.71","NAN","0.0"],
    [1567419,"2026-08-11 07:40:00","20129","2.563","82.6","5.586","117.1","1017.049","29.17","75.33","NAN","0.0"],
    [1567420,"2026-08-11 07:50:00","20130","3.049","77.46","5.847","72.75","1017.05","29.11","76.79","NAN","0.0"],
    [1567421,"2026-08-11 08:00:00","20131","3.2","80.8","6.042999999999999","106.4","1017.049","29.01","77.72","NAN","0.0"],
    [1567422,"2026-08-11 08:10:00","20132","2.861","81.7","5.194","84.0","1017.1519999999999","29.16","77.68","NAN","0.0"],
    [1567423,"2026-08-11 08:20:00","20133","3.147","86.6","5.586","105.4","1017.31","28.85","79.09","NAN","0.0"],
    [1567424,"2026-08-11 08:30:00","20134","2.755","97.3","4.606","116.2","1017.321","29.03","78.72","NAN","0.0"],
    [1567425,"2026-08-11 08:40:00","20135","2.635","89.7","4.769","83.9","1017.327","28.85","78.65","NAN","0.0"],
    [1567426,"2026-08-11 08:50:00","20136","2.6239999999999997","93.6","4.4430000000000005","103.3","1017.362","29.11","77.14","NAN","0.0"],
    [1567427,"2026-08-11 09:00:00","20137","2.522","95.6","4.2139999999999995","96.9","1017.43","29.02","77.79","NAN","0.0"],
    [1567428,"2026-08-11 09:10:00","20138","2.614","91.0","4.9","94.9","1017.3560000000001","29.1","77.16","NAN","0.0"],
    [1567429,"2026-08-11 09:20:00","20139","2.394","91.9","4.671","114.5","1017.307","29.52","75.35","NAN","0.0"],
    [1567430,"2026-08-11 09:30:00","20140","2.334","87.3","4.345","48.26","1017.297","29.4","75.6","NAN","0.0"],
    [1567431,"2026-08-11 09:40:00","20141","2.591","89.9","4.181","100.5","1017.304","29.07","78.01","NAN","0.0"],
    [1567432,"2026-08-11 09:50:00","20142","2.157","74.89","3.92","68.0","1017.297","29.27","77.12","NAN","0.0"],
    [1567433,"2026-08-11 10:00:00","20143","2.424","92.9","3.92","86.9","1017.304","29.28","77.75","NAN","0.0"],
    [1567434,"2026-08-11 10:10:00","20144","1.989","91.1","4.377","72.69","1017.2769999999999","29.57","76.35","NAN","0.0"],
    [1567435,"2026-08-11 10:20:00","20145","2.22","89.5","3.7569999999999997","101.9","1017.275","29.58","75.44","NAN","0.0"],
    [1567436,"2026-08-11 10:30:00","20146","2.2569999999999997","114.0","4.083","110.9","1017.284","29.31","76.92","NAN","0.0"],
    [1567437,"2026-08-11 10:40:00","20147","2.29","123.4","3.593","120.7","1017.326","29.23","77.09","NAN","0.0"],
    [1567438,"2026-08-11 10:50:00","20148","2.215","134.9","3.593","174.7","1017.316","29.06","77.45","NAN","0.0"],
    [1567439,"2026-08-11 11:00:00","20149","2.138","128.3","3.855","143.6","1017.32","29.39","76.68","NAN","0.0"],
    [1567440,"2026-08-11 11:10:00","20150","2.274","128.9","3.92","107.4","1017.2869999999999","29.33","77.66","NAN","0.0"],
    [1567441,"2026-08-11 11:20:00","20151","2.522","119.4","5.129","112.0","1017.086","29.2","77.65","NAN","0.0"],
    [1567442,"2026-08-11 11:30:00","20152","2.322","102.5","4.083","107.7","1016.9069999999999","29.75","74.63","NAN","0.0"],
    [1567443,"2026-08-11 11:40:00","20153","2.9610000000000003","113.5","5.227","109.4","1016.828","29.53","75.27","NAN","0.0"],
    [1567444,"2026-08-11 11:50:00","20154","3.009","108.6","5.325","105.3","1016.817","29.77","74.64","NAN","0.0"],
    [1567445,"2026-08-11 12:00:00","20155","3.1910000000000003","110.7","5.096","95.6","1016.802","29.68","74.3","NAN","0.0"],
    [1567446,"2026-08-11 12:10:00","20156","3.056","107.8","5.422999999999999","105.9","1016.742","29.74","73.15","NAN","0.0"],
    [1567447,"2026-08-11 12:20:00","20157","2.668","109.0","4.704","96.5","1016.543","29.89","72.57","NAN","0.0"],
    [1567448,"2026-08-11 12:30:00","20158","3.306","112.7","4.9","113.2","1016.443","29.81","71.84","NAN","0.0"],
    [1567449,"2026-08-11 12:40:00","20159","2.637","107.8","4.018","109.5","1016.368","30.02","70.6","NAN","0.0"],
    [1567450,"2026-08-11 12:50:00","20160","2.184","107.9","3.985","109.3","1016.296","30.48","68.52","NAN","0.0"],
    [1567451,"2026-08-11 13:00:00","20161","2.502","113.7","4.769","115.1","1016.189","30.22","70.62","NAN","0.0"],
    [1567452,"2026-08-11 13:10:00","20162","2.377","126.4","4.41","120.5","1016.066","30.68","65.75","NAN","0.0"],
    [1567453,"2026-08-11 13:20:00","20163","2.678","127.0","3.822","139.8","1016.04","30.09","68.02","NAN","0.0"],
    [1567454,"2026-08-11 13:30:00","20164","2.593","126.6","4.247","108.3","1015.895","30.03","68.41","NAN","0.0"],
    [1567455,"2026-08-11 13:40:00","20165","2.5180000000000002","120.5","4.279","109.3","1015.829","30.19","68.74","NAN","0.0"],
    [1567456,"2026-08-11 13:50:00","20166","2.045","127.4","3.593","126.7","1015.7310000000001","30.18","71.58","NAN","0.0"],
    [1567457,"2026-08-11 14:00:00","20167","2.102","131.7","3.201","135.9","1015.618","29.77","75.78","NAN","0.0"],
    [1567458,"2026-08-11 14:10:00","20168","2.112","139.4","3.6910000000000003","157.0","1015.582","29.79","77.83","NAN","0.0"],
    [1567459,"2026-08-11 14:20:00","20169","2.029","131.5","3.5610000000000004","122.6","1015.508","29.61","79.18","NAN","0.0"],
    [1567460,"2026-08-11 14:30:00","20170","2.1830000000000003","126.3","3.7889999999999997","114.1","1015.3610000000001","29.76","79.33","NAN","0.0"],
    [1567461,"2026-08-11 14:40:00","20171","2.313","136.3","3.887","115.3","1015.318","29.58","80.7","NAN","0.0"],
    [1567462,"2026-08-11 14:50:00","20172","2.197","137.1","3.887","112.0","1015.309","29.84","80.5","NAN","0.0"],
    [1567463,"2026-08-11 15:00:00","20173","2.279","130.4","3.463","139.6","1015.1260000000001","29.49","82.2","NAN","0.0"],
    [1567464,"2026-08-11 15:10:00","20174","2.08","126.0","3.463","123.9","1015.1189999999999","29.36","84.3","NAN","0.0"],
    [1567465,"2026-08-11 15:20:00","20175","2.062","124.5","3.659","116.2","1015.182","29.54","84.3","NAN","0.0"],
    [1567466,"2026-08-11 15:30:00","20176","2.2030000000000003","120.7","3.7569999999999997","136.9","1015.168","29.57","84.6","NAN","0.0"],
    [1567467,"2026-08-11 15:40:00","20177","2.1830000000000003","122.8","3.332","110.9","1015.09","29.17","86.5","NAN","0.0"],
    [1567468,"2026-08-11 15:50:00","20178","2.0709999999999997","129.0","3.822","113.5","1015.1160000000001","29.4","85.7","NAN","0.0"],
    [1567469,"2026-08-11 16:00:00","20179","1.966","123.1","3.267","114.2","1015.1089999999999","29.31","86.1","NAN","0.0"],
    [1567470,"2026-08-11 16:10:00","20180","1.8090000000000002","135.5","2.842","100.7","1015.175","29.4","86.2","NAN","0.0"],
    [1567471,"2026-08-11 16:20:00","20181","1.902","119.2","2.9730000000000003","118.5","1015.316","29.26","87.5","NAN","0.0"],
    [1567472,"2026-08-11 16:30:00","20182","1.786","119.5","3.201","106.2","1015.205","29.42","86.6","NAN","0.0"],
    [1567473,"2026-08-11 16:40:00","20183","1.49","128.6","2.907","147.5","1015.096","29.54","86.1","NAN","0.0"],
    [1567474,"2026-08-11 16:50:00","20184","1.7690000000000001","132.8","2.8089999999999997","135.9","1015.05","29.45","86.3","NAN","0.0"],
    [1567475,"2026-08-11 17:00:00","20185","1.896","127.7","2.7769999999999997","149.7","1014.943","29.3","86.8","NAN","0.0"],
    [1567476,"2026-08-11 17:10:00","20186","1.5619999999999998","125.6","2.5810000000000004","141.0","1014.8480000000001","29.39","87.2","NAN","0.0"],
    [1567477,"2026-08-11 17:20:00","20187","1.536","130.2","2.7439999999999998","128.9","1014.9580000000001","29.43","86.4","NAN","0.0"],
    [1567478,"2026-08-11 17:30:00","20188","1.63","117.7","3.0380000000000003","86.7","1014.938","29.8","85.6","NAN","0.0"],
    [1567479,"2026-08-11 17:40:00","20189","1.8719999999999999","119.6","3.1689999999999996","120.3","1014.9069999999999","29.52","87","NAN","0.0"],
    [1567480,"2026-08-11 17:50:00","20190","1.4269999999999998","115.2","3.267","103.7","1014.928","29.39","87.9","NAN","0.0"],
    [1567481,"2026-08-11 18:00:00","20191","1.651","95.1","3.267","99.1","1015.237","29.59","86.5","NAN","0.0"],
    [1567482,"2026-08-11 18:10:00","20192","1.847","106.7","3.528","116.7","1015.319","29.48","86.8","NAN","0.0"],
    [1567483,"2026-08-11 18:20:00","20193","2.084","88.6","3.822","115.0","1015.554","29.54","88.7","NAN","0.0"],
    [1567484,"2026-08-11 18:30:00","20194","2.359","89.4","3.985","63.55","1015.9830000000001","29.48","89.2","NAN","0.0"],
    [1567485,"2026-08-11 18:40:00","20195","2.725","88.7","4.835","94.7","1016.204","29.34","89.6","NAN","0.0"],
    [1567486,"2026-08-11 18:50:00","20196","2.17","82.9","3.855","67.61","1016.054","29.17","90.4","NAN","0.0"],
    [1567487,"2026-08-11 19:00:00","20197","2.195","81.2","4.541","81.9","1016.052","29.14","90.2","NAN","0.0"],
    [1567488,"2026-08-11 19:10:00","20198","1.577","45.07","3.332","36.99","1016.0939999999999","29.23","89.5","NAN","0.0"],
    [1567489,"2026-08-11 19:20:00","20199","1.797","63.14","3.0380000000000003","79.44","1016.189","29.12","89.7","NAN","0.0"],
    [1567490,"2026-08-11 19:30:00","20200","1.206","63.69","2.483","110.9","1016.202","29.21","89.4","NAN","0.0"],
    [1567491,"2026-08-11 19:40:00","20201","1.604","68.32","3.528","96.2","1016.186","29.29","89.1","NAN","0.0"],
    [1567492,"2026-08-11 19:50:00","20202","1.608","78.63","3.7569999999999997","68.02","1016.202","29.08","90.1","NAN","0.0"],
    [1567493,"2026-08-11 20:00:00","20203","1.626","79.4","2.8089999999999997","48.44","1016.5830000000001","29.05","90.2","NAN","0.0"],
    [1567494,"2026-08-11 20:10:00","20204","1.4069999999999998","49.25","2.679","50.8","1016.887","29.04","90.6","NAN","0.0"],
    [1567495,"2026-08-11 20:20:00","20205","1.354","69.64","3.1689999999999996","57.46","1016.8810000000001","29.09","90.2","NAN","0.0"],
    [1567496,"2026-08-11 20:30:00","20206","1.625","69.32","3.005","75.28","1017.0980000000001","29.17","89.3","NAN","0.0"],
    [1567497,"2026-08-11 20:40:00","20207","1.127","52.81","3.397","70.37","1017.3480000000001","29.22","89.1","NAN","0.0"],
    [1567498,"2026-08-11 20:50:00","20208","1.609","70.29","2.679","32.8","1017.3939999999999","29.19","88.9","NAN","0.0"],
    [1567499,"2026-08-11 21:00:00","20209","1.75","75.42","3.7569999999999997","92.8","1017.3","29.22","87.6","NAN","0.0"],
    [1567500,"2026-08-11 21:10:00","20210","1.905","92.1","3.463","106.7","1017.138","29.13","85.1","NAN","0.0"],
    [1567501,"2026-08-11 21:20:00","20211","1.36","86.4","2.9730000000000003","93.9","1017.2310000000001","29.27","84.7","NAN","0.0"],
    [1567502,"2026-08-11 21:30:00","20212","1.537","88.5","2.7439999999999998","110.2","1017.1569999999999","29.22","85.1","NAN","0.0"],
    [1567503,"2026-08-11 21:40:00","20213","1.252","87.2","2.417","98.1","1016.8989999999999","29.26","84.1","NAN","0.0"],
    [1567504,"2026-08-11 21:50:00","20214","1.119","110.1","2.0580000000000003","162.8","1016.829","29.13","84.1","NAN","0.0"],
    [1567505,"2026-08-11 22:00:00","20215","0.42700000000000005","152.9","1.209","132.9","1016.829","29.15","85.4","NAN","0.0"],
    [1567506,"2026-08-11 22:10:00","20216","0.8240000000000001","196.1","1.3719999999999999","223.2","1016.692","29.05","87.1","NAN","0.0"],
    [1567507,"2026-08-11 22:20:00","20217","0.679","202.1","1.3719999999999999","217.9","1016.6619999999999","28.97","87.1","NAN","0.0"],
    [1567508,"2026-08-11 22:30:00","20218","0.627","139.1","1.2409999999999999","130.8","1016.674","28.96","86.9","NAN","0.0"],
    [1567509,"2026-08-11 22:40:00","20219","1.148","175.6","1.96","177.1","1016.48","28.88","86.7","NAN","0.0"],
    [1567510,"2026-08-11 22:50:00","20220","0.861","183.6","1.699","178.1","1016.513","28.99","88.4","NAN","0.0"],
    [1567511,"2026-08-11 23:00:00","20221","1.179","168.9","1.8619999999999999","171.0","1016.485","28.93","91.4","NAN","0.0"],
    [1567512,"2026-08-11 23:10:00","20222","0.5820000000000001","141.7","1.307","147.6","1016.675","28.78","92.7","NAN","0.0"],
    [1567513,"2026-08-11 23:20:00","20223","0.16399999999999998","213.5","0.7509999999999999","180.1","1016.7719999999999","28.66","92.7","NAN","0.0"],
    [1567514,"2026-08-11 23:30:00","20224","0.179","145.9","0.653","214.5","1016.9119999999999","28.66","91.6","NAN","0.0"],
    [1567515,"2026-08-11 23:40:00","20225","0.8","84.4","1.7309999999999999","85.0","1016.9860000000001","28.83","89","NAN","0.0"],
    [1567516,"2026-08-11 23:50:00","20226","0.899","125.9","1.7309999999999999","109.2","1016.862","28.95","89.1","NAN","0.0"],
    [1567517,"2026-08-12 00:00:00","20227","0.8690000000000001","101.4","1.47","84.0","1017.068","28.82","91.7","NAN","0.0"],
    [1567518,"2026-08-12 00:10:00","20228","1.171","97.0","2.189","83.0","1017.033","28.85","92.3","NAN","0.0"],
    [1567519,"2026-08-12 00:20:00","20229","1.321","99.9","2.156","85.6","1016.9689999999999","28.79","92.9","NAN","0.0"],
    [1567520,"2026-08-12 00:30:00","20230","1.16","55.75","2.6460000000000004","56.79","1017.046","28.5","89.3","NAN","0.0"],
    [1567521,"2026-08-12 00:40:00","20231","0.91","27.73","1.8619999999999999","35.67","1017.0310000000001","28.66","81.2","NAN","0.0"],
    [1567522,"2026-08-12 00:50:00","20232","0.7190000000000001","38.54","1.7309999999999999","34.0","1017.1110000000001","28.94","79.23","NAN","0.0"],
    [1567523,"2026-08-12 01:00:00","20233","0.612","39.98","1.8619999999999999","50.45","1017.038","28.95","78.16","NAN","0.0"],
    [1567524,"2026-08-12 01:10:00","20234","0.8079999999999999","41.36","1.797","25.38","1016.916","28.84","77.26","NAN","0.0"],
    [1567525,"2026-08-12 01:20:00","20235","1.045","46.46","2.123","58.09","1016.834","28.79","75.44","NAN","0.0"],
    [1567526,"2026-08-12 01:30:00","20236","0.8009999999999999","37.96","2.7769999999999997","7.131","1016.8539999999999","28.79","73.17","NAN","0.0"],
    [1567527,"2026-08-12 01:40:00","20237","0.765","28.76","1.993","350.6","1016.834","28.78","68.36","NAN","0.0"],
    [1567528,"2026-08-12 01:50:00","20238","0.93","47.11","1.9269999999999998","33.02","1016.831","28.82","64.38","NAN","0.0"],
    [1567529,"2026-08-12 02:00:00","20239","0.698","44.32","1.4369999999999998","53.18","1016.831","28.81","59.26","NAN","0.0"],
    [1567530,"2026-08-12 02:10:00","20240","0.748","39.41","1.829","30.97","1016.812","28.84","57.32","NAN","0.0"],
    [1567531,"2026-08-12 02:20:00","20241","0.741","32.94","1.666","25.16","1016.834","28.8","57.34","NAN","0.0"],
    [1567532,"2026-08-12 02:30:00","20242","0.502","23.45","2.287","26.76","1016.834","28.78","57.61","NAN","0.0"],
    [1567533,"2026-08-12 02:40:00","20243","0.79","39.06","1.7309999999999999","32.21","1016.842","28.72","58.01","NAN","0.0"],
    [1567534,"2026-08-12 02:50:00","20244","0.846","18.07","1.96","347.0","1016.914","28.66","58.65","NAN","0.0"],
    [1567535,"2026-08-12 03:00:00","20245","0.872","19.99","1.699","34.84","1016.8589999999999","28.56","59.55","NAN","0.0"],
    [1567536,"2026-08-12 03:10:00","20246","0.73","13.62","2.156","16.15","1016.834","28.44","60.95","NAN","0.0"],
    [1567537,"2026-08-12 03:20:00","20247","0.7390000000000001","23.42","2.417","1.805","1016.841","28.33","62.14","NAN","0.0"],
    [1567538,"2026-08-12 03:30:00","20248","0.9","17.71","2.483","19.28","1016.8739999999999","28.25","62.76","NAN","0.0"],
    [1567539,"2026-08-12 03:40:00","20249","1.416","13.87","2.9730000000000003","17.39","1016.834","28.12","63.21","NAN","0.0"],
    [1567540,"2026-08-12 03:50:00","20250","1.219","10.16","2.5810000000000004","13.13","1016.8489999999999","28.04","63.52","NAN","0.0"],
    [1567541,"2026-08-12 04:00:00","20251","0.7709999999999999","358.3","1.895","4.133","1016.909","28.06","63.27","NAN","0.0"],
    [1567542,"2026-08-12 04:10:00","20252","1.089","11.1","1.993","14.97","1016.8539999999999","28.05","63.93","NAN","0.0"],
    [1567543,"2026-08-12 04:20:00","20253","0.9640000000000001","9.17","1.993","11.12","1017.0139999999999","28.04","65.08","NAN","0.0"],
    [1567544,"2026-08-12 04:30:00","20254","0.731","5.818","1.666","28.57","1017.128","28","65.16","NAN","0.0"],
    [1567545,"2026-08-12 04:40:00","20255","1.218","5.361000000000001","2.7769999999999997","15.27","1017.235","27.92","65.02","NAN","0.0"],
    [1567546,"2026-08-12 04:50:00","20256","0.971","18.65","2.123","20.06","1017.21","27.93","64.27","NAN","0.0"],
    [1567547,"2026-08-12 05:00:00","20257","0.8420000000000001","14.96","2.025","4.677","1017.285","27.98","63.57","NAN","0.0"],
    [1567548,"2026-08-12 05:10:00","20258","0.986","17.96","2.417","27.56","1017.33","27.99","62.14","NAN","0.0"],
    [1567549,"2026-08-12 05:20:00","20259","0.6809999999999999","27.98","2.156","15.51","1017.387","27.97","61.68","NAN","0.0"],
    [1567550,"2026-08-12 05:30:00","20260","0.8079999999999999","21.35","1.96","351.8","1017.449","27.96","61.69","NAN","0.0"],
    [1567551,"2026-08-12 05:40:00","20261","0.897","17.73","1.96","16.52","1017.4789999999999","27.93","61.73","NAN","0.0"],
    [1567552,"2026-08-12 05:50:00","20262","1.071","10.7","2.417","1.5030000000000001","1017.576","27.92","61.33","NAN","0.0"],
    [1567553,"2026-08-12 06:00:00","20263","1.046","15.4","2.287","16.84","1017.694","28.05","61.26","NAN","0.0"],
    [1567554,"2026-08-12 06:10:00","20264","1.367","3.263","2.385","10.39","1017.773","28.17","62.28","NAN","0.0"],
    [1567555,"2026-08-12 06:20:00","20265","1.055","14.53","2.0580000000000003","356.5","1017.828","28.41","62.04","NAN","0.0"],
    [1567556,"2026-08-12 06:30:00","20266","0.8640000000000001","22.53","2.156","27.19","1017.921","28.82","61.97","NAN","0.0"],
    [1567557,"2026-08-12 06:40:00","20267","1.344","15.01","2.679","11.58","1018.075","28.94","60.49","NAN","0.0"],
    [1567558,"2026-08-12 06:50:00","20268","1.1320000000000001","4.942","2.842","1.238","1018.09","28.96","59.69","NAN","0.0"],
    [1567559,"2026-08-12 07:00:00","20269","1.2830000000000001","15.07","2.5810000000000004","35.2","1018.166","29.26","58.14","NAN","0.0"],
    [1567560,"2026-08-12 07:10:00","20270","1.392","7.382000000000001","2.613","17.52","1018.227","29.34","60.59","NAN","0.0"],
    [1567561,"2026-08-12 07:20:00","20271","1.199","61.65","2.45","56.03","1018.31","29.59","67.08","NAN","0.0"],
    [1567562,"2026-08-12 07:30:00","20272","1.117","45.23","2.679","68.09","1018.311","29.68","69.39","NAN","0.0"],
    [1567563,"2026-08-12 07:40:00","20273","1.2770000000000001","58.79","2.548","82.3","1018.303","29.5","72.16","NAN","0.0"],
    [1567564,"2026-08-12 07:50:00","20274","1.2770000000000001","71.16","2.9730000000000003","79.13","1018.377","29.86","73.6","NAN","0.0"],
    [1567565,"2026-08-12 08:00:00","20275","1.82","90.3","3.659","80.7","1018.341","29.38","78.07","NAN","0.0"],
    [1567566,"2026-08-12 08:10:00","20276","2.217","93.5","3.6260000000000003","72.76","1018.3","29.13","79.28","NAN","0.0"],
    [1567567,"2026-08-12 08:20:00","20277","1.919","94.1","3.463","110.3","1018.312","29.49","77.74","NAN","0.0"],
    [1567568,"2026-08-12 08:30:00","20278","1.903","91.0","3.6910000000000003","91.8","1018.3989999999999","29.76","77.55","NAN","0.0"],
    [1567569,"2026-08-12 08:40:00","20279","2.287","90.3","4.573","101.6","1018.434","29.64","77.71","NAN","0.0"],
    [1567570,"2026-08-12 08:50:00","20280","2.4419999999999997","94.6","3.7239999999999998","75.66","1018.586","29.41","78.41","NAN","0.0"],
    [1567571,"2026-08-12 09:00:00","20281","2.352","93.7","3.985","97.8","1018.687","29.47","78.11","NAN","0.0"],
    [1567572,"2026-08-12 09:10:00","20282","2.386","89.8","4.475","85.2","1018.7769999999999","29.59","79.57","NAN","0.0"],
    [1567573,"2026-08-12 09:20:00","20283","2.506","100.5","4.345","112.9","1018.7810000000001","29.58","80.1","NAN","0.0"],
    [1567574,"2026-08-12 09:30:00","20284","2.7110000000000003","103.3","4.279","66.27","1018.807","29.59","79.68","NAN","0.0"],
    [1567575,"2026-08-12 09:40:00","20285","2.603","94.8","4.965","114.1","1018.937","29.5","81.4","NAN","0.0"],
    [1567576,"2026-08-12 09:50:00","20286","2.8710000000000004","110.6","5.2589999999999995","112.7","1018.992","29.55","80.8","NAN","0.0"],
    [1567577,"2026-08-12 10:00:00","20287","2.414","107.0","4.638999999999999","113.4","1019.063","29.4","82.1","NAN","0.0"],
    [1567578,"2026-08-12 10:10:00","20288","2.497","107.4","4.704","112.6","1019.188","29.65","80.9","NAN","0.0"],
    [1567579,"2026-08-12 10:20:00","20289","2.605","104.0","5.684","112.9","1019.2410000000001","29.73","81.2","NAN","0.0"],
    [1567580,"2026-08-12 10:30:00","20290","2.697","105.2","4.475","109.8","1019.2869999999999","29.45","82.5","NAN","0.0"],
    [1567581,"2026-08-12 10:40:00","20291","2.405","108.2","4.704","111.8","1019.29","29.73","80.9","NAN","0.0"],
    [1567582,"2026-08-12 10:50:00","20292","2.23","114.1","4.018","112.0","1019.2810000000001","29.74","80.4","NAN","0.0"],
    [1567583,"2026-08-12 11:00:00","20293","2.25","117.1","3.7239999999999998","109.3","1019.314","29.64","80.2","NAN","0.0"],
    [1567584,"2026-08-12 11:10:00","20294","2.193","107.2","3.463","105.3","1019.2389999999999","29.93","79.2","NAN","0.0"],
    [1567585,"2026-08-12 11:20:00","20295","2.03","108.5","3.332","102.3","1019.177","29.8","79.84","NAN","0.0"],
    [1567586,"2026-08-12 11:30:00","20296","2.07","109.1","3.7239999999999998","91.4","1019.133","30.01","78.94","NAN","0.0"],
    [1567587,"2026-08-12 11:40:00","20297","2.278","111.8","3.7889999999999997","110.0","1019.0419999999999","30.02","78.94","NAN","0.0"],
    [1567588,"2026-08-12 11:50:00","20298","2.057","129.5","3.299","140.2","1018.925","29.99","78.33","NAN","0.0"],
    [1567589,"2026-08-12 12:00:00","20299","2.355","117.0","4.2139999999999995","111.1","1018.847","30.12","77.98","NAN","0.0"],
    [1567590,"2026-08-12 12:10:00","20300","2.289","132.2","3.6910000000000003","154.3","1018.814","30.09","76.94","NAN","0.0"],
    [1567591,"2026-08-12 12:20:00","20301","2.241","135.9","3.6260000000000003","151.9","1018.7539999999999","30.03","75.47","NAN","0.0"],
    [1567592,"2026-08-12 12:30:00","20302","2.108","129.8","3.43","144.3","1018.688","30.51","72.5","NAN","0.0"],
    [1567593,"2026-08-12 12:40:00","20303","2.293","133.0","3.528","98.7","1018.676","30.43","72.42","NAN","0.0"],
    [1567594,"2026-08-12 12:50:00","20304","2.2119999999999997","139.6","3.528","100.1","1018.725","30.44","73.43","NAN","0.0"],
    [1567595,"2026-08-12 13:00:00","20305","2.367","127.7","3.5610000000000004","135.2","1018.783","30.15","75.06","NAN","0.0"],
    [1567596,"2026-08-12 13:10:00","20306","2.356","124.3","3.528","105.4","1018.762","30.03","75.41","NAN","0.0"],
    [1567597,"2026-08-12 13:20:00","20307","2.272","124.3","3.593","100.3","1018.812","30.2","74.7","NAN","0.0"],
    [1567598,"2026-08-12 13:30:00","20308","2.2569999999999997","123.8","3.43","139.5","1018.74","30.24","74.75","NAN","0.0"],
    [1567599,"2026-08-12 13:40:00","20309","2.3040000000000003","129.9","3.528","137.3","1018.684","30.2","76.42","NAN","0.0"],
    [1567600,"2026-08-12 13:50:00","20310","2.347","125.6","3.9530000000000003","128.1","1018.658","30.09","77.73","NAN","0.0"],
    [1567601,"2026-08-12 14:00:00","20311","2.405","121.5","4.2139999999999995","104.3","1018.6010000000001","30.04","78.11","NAN","0.0"],
    [1567602,"2026-08-12 14:10:00","20312","2.447","128.6","3.822","137.0","1018.518","29.84","76.92","NAN","0.0"],
    [1567603,"2026-08-12 14:20:00","20313","2.611","125.9","4.2139999999999995","115.1","1018.487","29.87","76.06","NAN","0.0"],
    [1567604,"2026-08-12 14:30:00","20314","2.37","128.2","4.083","116.8","1018.443","30.04","75.87","NAN","0.0"],
    [1567605,"2026-08-12 14:40:00","20315","2.418","125.7","3.855","91.5","1018.3860000000001","30","76.16","NAN","0.0"],
    [1567606,"2026-08-12 14:50:00","20316","2.471","124.9","3.6260000000000003","135.6","1018.318","30.29","71.85","NAN","0.0"],
    [1567607,"2026-08-12 15:00:00","20317","2.417","122.7","3.593","95.8","1018.315","30.34","73.95","NAN","0.0"],
    [1567608,"2026-08-12 15:10:00","20318","2.0180000000000002","122.8","3.528","113.1","1018.325","30.45","72.76","NAN","0.0"],
    [1567609,"2026-08-12 15:20:00","20319","2.249","119.7","3.5610000000000004","109.6","1018.308","30.32","72.87","NAN","0.0"],
    [1567610,"2026-08-12 15:30:00","20320","2.197","139.8","3.365","115.3","1018.311","30.53","71.06","NAN","0.0"],
    [1567611,"2026-08-12 15:40:00","20321","2.1719999999999997","131.7","4.1160000000000005","159.7","1018.2130000000001","30.22","73.59","NAN","0.0"],
    [1567612,"2026-08-12 15:50:00","20322","2.056","138.9","3.43","143.5","1018.1460000000001","30.17","74.35","NAN","0.0"],
    [1567613,"2026-08-12 16:00:00","20323","2.17","127.7","3.299","115.9","1018.1469999999999","30.12","74.57","NAN","0.0"],
    [1567614,"2026-08-12 16:10:00","20324","2.09","127.8","3.071","120.1","1018.197","29.94","75.48","NAN","0.0"],
    [1567615,"2026-08-12 16:20:00","20325","2.121","128.5","3.332","132.7","1018.2919999999999","30.03","73.42","NAN","0.0"],
    [1567616,"2026-08-12 16:30:00","20326","2.181","127.2","3.43","107.3","1018.313","29.96","74.88","NAN","0.0"],
    [1567617,"2026-08-12 16:40:00","20327","1.8459999999999999","129.5","3.332","129.8","1018.262","30.04","74.41","NAN","0.0"],
    [1567618,"2026-08-12 16:50:00","20328","2.204","131.1","3.332","137.3","1018.1489999999999","29.82","75.88","NAN","0.0"],
    [1567619,"2026-08-12 17:00:00","20329","2.114","129.8","3.43","145.8","1018.288","29.66","76.14","NAN","0.0"],
    [1567620,"2026-08-12 17:10:00","20330","2.112","126.0","3.6910000000000003","160.6","1018.2360000000001","29.8","74.43","NAN","0.0"],
    [1567621,"2026-08-12 17:20:00","20331","2.207","131.5","3.855","137.4","1018.187","29.73","75.21","NAN","0.0"],
    [1567622,"2026-08-12 17:30:00","20332","1.959","136.2","3.299","142.1","1018.245","29.78","74.46","NAN","0.0"],
    [1567623,"2026-08-12 17:40:00","20333","1.875","134.1","3.071","140.9","1018.336","29.7","75.17","NAN","0.0"],
    [1567624,"2026-08-12 17:50:00","20334","1.824","130.7","3.201","137.6","1018.4760000000001","29.52","75.78","NAN","0.0"],
    [1567625,"2026-08-12 18:00:00","20335","1.765","123.7","3.0380000000000003","125.8","1018.563","29.51","76","NAN","0.0"],
    [1567626,"2026-08-12 18:10:00","20336","1.475","130.6","2.45","114.6","1018.451","29.51","76.34","NAN","0.0"],
    [1567627,"2026-08-12 18:20:00","20337","2.02","119.8","3.0380000000000003","103.4","1018.418","29.38","76.48","NAN","0.0"],
    [1567628,"2026-08-12 18:30:00","20338","1.6030000000000002","140.1","2.94","146.8","1018.451","29.31","75.63","NAN","0.0"],
    [1567629,"2026-08-12 18:40:00","20339","1.287","137.6","2.254","134.5","1018.4580000000001","29.26","75.51","NAN","0.0"],
    [1567630,"2026-08-12 18:50:00","20340","1.1740000000000002","115.8","2.254","105.1","1018.5260000000001","29.3","75.16","NAN","0.0"],
    [1567631,"2026-08-12 19:00:00","20341","1.033","98.4","2.8089999999999997","116.5","1018.541","29.44","74.82","NAN","0.0"],
    [1567632,"2026-08-12 19:10:00","20342","1.14","89.5","2.352","59.88","1018.4110000000001","29.26","75.44","NAN","0.0"],
    [1567633,"2026-08-12 19:20:00","20343","1.143","97.4","2.679","68.04","1018.329","29.41","74.73","NAN","0.0"],
    [1567634,"2026-08-12 19:30:00","20344","0.7509999999999999","100.9","1.895","61.91","1018.3889999999999","29.33","74.28","NAN","0.0"],
    [1567635,"2026-08-12 19:40:00","20345","0.9790000000000001","123.5","1.96","144.1","1018.4580000000001","29.25","75.26","NAN","0.0"],
    [1567636,"2026-08-12 19:50:00","20346","1.123","125.8","2.352","102.7","1018.628","29.14","76.01","NAN","0.0"],
    [1567637,"2026-08-12 20:00:00","20347","0.863","130.7","1.601","149.1","1018.803","29.08","75.93","NAN","0.0"],
    [1567638,"2026-08-12 20:10:00","20348","0.26","140.6","0.8170000000000001","135.6","1019.079","29.31","74.92","NAN","0.0"],
    [1567639,"2026-08-12 20:20:00","20349","0.846","102.4","1.307","106.2","1019.1519999999999","29.28","74.51","NAN","0.0"],
    [1567640,"2026-08-12 20:30:00","20350","0.6629999999999999","141.9","1.274","172.3","1019.323","29.2","74.71","NAN","0.0"],
    [1567641,"2026-08-12 20:40:00","20351","0.37200000000000005","152.5","0.98","179.3","1019.482","29.17","76.05","NAN","0.0"],
    [1567642,"2026-08-12 20:50:00","20352","0.528","170.9","0.98","172.7","1019.45","29.1","75.23","NAN","0.0"],
    [1567643,"2026-08-12 21:00:00","20353","0.604","178.4","1.111","168.5","1019.505","29.08","75.34","NAN","0.0"],
    [1567644,"2026-08-12 21:10:00","20354","0.42","163.1","1.045","155.0","1019.4680000000001","29.08","74.67","NAN","0.0"],
    [1567645,"2026-08-12 21:20:00","20355","0.7040000000000001","163.7","1.143","168.1","1019.57","29.12","74.72","NAN","0.0"],
    [1567646,"2026-08-12 21:30:00","20356","0.85","179.6","1.535","206.6","1019.61","28.98","76.7","NAN","0.0"],
    [1567647,"2026-08-12 21:40:00","20357","0.624","184.6","1.568","173.6","1019.747","28.92","78.15","NAN","0.0"],
    [1567648,"2026-08-12 21:50:00","20358","0.763","165.6","1.2409999999999999","149.0","1019.824","28.88","77.32","NAN","0.0"],
    [1567649,"2026-08-12 22:00:00","20359","0.578","170.2","1.143","144.5","1019.824","29","77.54","NAN","0.0"],
    [1567650,"2026-08-12 22:10:00","20360","0.439","165.5","1.013","197.1","1019.909","28.99","77.39","NAN","0.0"],
    [1567651,"2026-08-12 22:20:00","20361","0.903","208.6","1.633","197.4","1019.9730000000001","28.85","76.54","NAN","0.0"],
    [1567652,"2026-08-12 22:30:00","20362","0.9690000000000001","198.3","1.764","200.6","1019.921","28.9","77.69","NAN","0.0"],
    [1567653,"2026-08-12 22:40:00","20363","0.6920000000000001","215.8","1.764","204.5","1019.8810000000001","28.89","76.95","NAN","0.0"],
    [1567654,"2026-08-12 22:50:00","20364","0.532","229.5","1.5030000000000001","191.7","1019.824","28.89","77.42","NAN","0.0"],
    [1567655,"2026-08-12 23:00:00","20365","0.615","266.5","1.5030000000000001","245.8","1019.784","29.23","73.47","NAN","0.0"],
    [1567656,"2026-08-12 23:10:00","20366","0.987","254.9","2.156","239.6","1019.7589999999999","29.72","70.4","NAN","0.0"],
    [1567657,"2026-08-12 23:20:00","20367","0.953","239.3","2.156","230.6","1019.704","29.4","71.71","NAN","0.0"],
    [1567658,"2026-08-12 23:30:00","20368","0.7509999999999999","211.8","1.9269999999999998","253.3","1019.702","29.12","74.82","NAN","0.0"],
    [1567659,"2026-08-12 23:40:00","20369","0.759","239.8","1.633","259.8","1019.6489999999999","29.16","73.65","NAN","0.0"],
    [1567660,"2026-08-12 23:50:00","20370","0.578","278.4","1.601","274.6","1019.465","29.48","70.98","NAN","0.0"],
    [1567661,"2026-08-13 00:00:00","20371","0.599","259.6","2.254","260.4","1019.395","29.51","70.58","NAN","0.0"],
    [1567662,"2026-08-13 00:10:00","20372","0.413","245.4","1.535","206.3","1019.318","29.36","70.22","NAN","0.0"],
    [1567663,"2026-08-13 00:20:00","20373","0.47","218.9","1.5030000000000001","271.8","1019.2080000000001","29.2","71.81","NAN","0.0"],
    [1567664,"2026-08-13 00:30:00","20374","0.5870000000000001","171.4","1.209","174.7","1019.096","28.75","76.39","NAN","0.0"],
    [1567665,"2026-08-13 00:40:00","20375","0.006999999999999999","207.9","0.392","201.3","1019.076","28.39","77.2","NAN","0.0"],
    [1567666,"2026-08-13 00:50:00","20376","0.18899999999999997","143.3","0.653","144.7","1019.0010000000001","28.29","76.38","NAN","0.0"],
    [1567667,"2026-08-13 01:00:00","20377","0.033","196.3","0.425","180.6","1018.939","28.34","75.59","NAN","0.0"],
    [1567668,"2026-08-13 01:10:00","20378","0.784","47.59","1.47","60.97","1018.832","28.39","74.55","NAN","0.0"],
    [1567669,"2026-08-13 01:20:00","20379","0.599","35.7","1.47","71.24","1018.855","28.32","74","NAN","0.0"],
    [1567670,"2026-08-13 01:30:00","20380","0.7070000000000001","44.94","1.4369999999999998","26.1","1018.835","28.33","73.83","NAN","0.0"],
    [1567671,"2026-08-13 01:40:00","20381","0.522","33.7","1.307","34.59","1018.82","28.24","74.35","NAN","0.0"],
    [1567672,"2026-08-13 01:50:00","20382","0.439","31.86","1.405","21.71","1018.785","28.2","74.2","NAN","0.0"],
    [1567673,"2026-08-13 02:00:00","20383","0.42100000000000004","60.17","1.013","57.97","1018.673","28.28","73.49","NAN","0.0"],
    [1567674,"2026-08-13 02:10:00","20384","0.043","88.6","0.327","97.4","1018.658","28.24","73.93","NAN","0.0"],
    [1567675,"2026-08-13 02:20:00","20385","0.038","106.3","0.359","109.6","1018.653","28.24","73.9","NAN","0.0"],
    [1567676,"2026-08-13 02:30:00","20386","0.0","0.0","0.0","0.0","1018.623","28.09","73.52","NAN","0.0"],
    [1567677,"2026-08-13 02:40:00","20387","0.16899999999999998","189.6","0.6859999999999999","204.3","1018.558","28.24","74.93","NAN","0.0"],
    [1567678,"2026-08-13 02:50:00","20388","0.139","198.7","0.555","204.1","1018.5010000000001","27.95","79.06","NAN","0.0"],
    [1567679,"2026-08-13 03:00:00","20389","0.162","204.3","0.621","191.3","1018.568","27.76","78.75","NAN","0.0"],
    [1567680,"2026-08-13 03:10:00","20390","0.052000000000000005","211.1","0.588","211.9","1018.5930000000001","27.69","78.94","NAN","0.0"],
    [1567681,"2026-08-13 03:20:00","20391","0.457","200.6","0.8170000000000001","207.3","1018.586","27.62","77.27","NAN","0.0"],
    [1567682,"2026-08-13 03:30:00","20392","0.5489999999999999","190.8","0.915","195.5","1018.541","27.62","76.73","NAN","0.0"],
    [1567683,"2026-08-13 03:40:00","20393","0.517","173.2","1.045","183.4","1018.5310000000001","27.65","77.09","NAN","0.0"],
    [1567684,"2026-08-13 03:50:00","20394","0.276","188.9","0.8490000000000001","182.6","1018.568","27.61","76.27","NAN","0.0"],
    [1567685,"2026-08-13 04:00:00","20395","0.067","176.5","0.457","185.2","1018.571","27.46","75.67","NAN","0.0"],
    [1567686,"2026-08-13 04:10:00","20396","0.0","0.0","0.0","0.0","1018.581","27.38","74.38","NAN","0.0"],
    [1567687,"2026-08-13 04:20:00","20397","0.047","167.4","0.49","168.2","1018.67","27.45","74.63","NAN","0.0"],
    [1567688,"2026-08-13 04:30:00","20398","0.0","0.0","0.0","0.0","1018.68","27.44","76.94","NAN","0.0"],
    [1567689,"2026-08-13 04:40:00","20399","0.0","0.0","0.0","0.0","1018.763","27.51","76.52","NAN","0.0"],
    [1567690,"2026-08-13 04:50:00","20400","0.16","13.38","0.6859999999999999","323.7","1018.812","27.62","76.56","NAN","0.0"],
    [1567691,"2026-08-13 05:00:00","20401","0.531","17.39","1.209","39.29","1018.827","27.84","75.35","NAN","0.0"],
    [1567692,"2026-08-13 05:10:00","20402","0.511","14.42","1.47","25.03","1018.825","27.71","74.77","NAN","0.0"],
    [1567693,"2026-08-13 05:20:00","20403","0.5670000000000001","2.332","0.98","2.227","1018.827","27.92","73.92","NAN","0.0"],
    [1567694,"2026-08-13 05:30:00","20404","0.39899999999999997","20.22","0.9470000000000001","38.34","1018.832","28.08","73.28","NAN","0.0"],
    [1567695,"2026-08-13 05:40:00","20405","0.306","33.42","0.784","341.1","1018.827","28.24","71.82","NAN","0.0"],
    [1567696,"2026-08-13 05:50:00","20406","0.40700000000000003","40.87","1.045","27.35","1018.832","28.31","71.12","NAN","0.0"],
    [1567697,"2026-08-13 06:00:00","20407","0.47100000000000003","57.75","1.143","50.74","1018.92","28.51","68.17","NAN","0.0"],
    [1567698,"2026-08-13 06:10:00","20408","0.405","102.6","0.882","60.07","1019.102","28.87","66.11","NAN","0.0"],
    [1567699,"2026-08-13 06:20:00","20409","0.305","98.2","0.7509999999999999","115.7","1019.268","28.84","66.02","NAN","0.0"],
    [1567700,"2026-08-13 06:30:00","20410","0.402","152.9","1.176","175.9","1019.326","28.97","66.94","NAN","0.0"],
    [1567701,"2026-08-13 06:40:00","20411","0.716","155.6","1.111","160.1","1019.328","28.99","71.75","NAN","0.0"],
    [1567702,"2026-08-13 06:50:00","20412","0.579","133.1","0.882","117.3","1019.4119999999999","29.01","71.1","NAN","0.0"],
    [1567703,"2026-08-13 07:00:00","20413","0.746","137.1","1.143","164.2","1019.455","29.03","70.02","NAN","0.0"],
    [1567704,"2026-08-13 07:10:00","20414","0.8390000000000001","171.1","1.4369999999999998","172.1","1019.5","29.27","69.66","NAN","0.0"],
    [1567705,"2026-08-13 07:20:00","20415","0.912","128.3","1.47","134.7","1019.471","29.37","69.79","NAN","0.0"],
    [1567706,"2026-08-13 07:30:00","20416","0.805","122.0","1.339","118.8","1019.377","29.52","69.43","NAN","0.0"],
    [1567707,"2026-08-13 07:40:00","20417","0.675","135.9","1.307","171.5","1019.368","29.76","66.91","NAN","0.0"],
    [1567708,"2026-08-13 07:50:00","20418","1.054","148.1","1.4369999999999998","158.2","1019.428","29.99","66.14","NAN","0.0"],
    [1567709,"2026-08-13 08:00:00","20419","1.308","127.7","2.156","134.5","1019.424","29.87","66","NAN","0.0"],
    [1567710,"2026-08-13 08:10:00","20420","1.26","139.8","1.8619999999999999","150.6","1019.4110000000001","29.74","65.5","NAN","0.0"],
    [1567711,"2026-08-13 08:20:00","20421","1.357","134.8","2.123","124.5","1019.419","30.08","62.15","NAN","0.0"],
    [1567712,"2026-08-13 08:30:00","20422","1.412","156.4","2.0909999999999997","166.0","1019.4169999999999","30.28","61.89","NAN","0.0"],
    [1567713,"2026-08-13 08:40:00","20423","1.597","152.4","2.515","157.7","1019.428","30.2","61.66","NAN","0.0"],
    [1567714,"2026-08-13 08:50:00","20424","1.4509999999999998","144.9","2.254","117.5","1019.4019999999999","30.38","62.2","NAN","0.0"],
    [1567715,"2026-08-13 09:00:00","20425","1.401","147.1","2.515","169.4","1019.4860000000001","30.56","60.94","NAN","0.0"],
    [1567716,"2026-08-13 09:10:00","20426","1.556","159.3","2.548","153.9","1019.513","30.34","61.45","NAN","0.0"],
    [1567717,"2026-08-13 09:20:00","20427","1.9040000000000001","141.4","2.9730000000000003","160.9","1019.553","30.68","59.24","NAN","0.0"],
    [1567718,"2026-08-13 09:30:00","20428","1.8319999999999999","156.2","2.875","162.6","1019.6510000000001","30.48","60.64","NAN","0.0"],
    [1567719,"2026-08-13 09:40:00","20429","1.75","139.7","3.0380000000000003","171.7","1019.752","30.67","60.18","NAN","0.0"],
    [1567720,"2026-08-13 09:50:00","20430","1.807","146.6","3.397","160.8","1019.768","30.89","60.05","NAN","0.0"],
    [1567721,"2026-08-13 10:00:00","20431","1.868","142.0","3.201","170.7","1019.7639999999999","31.01","61.76","NAN","0.0"],
    [1567722,"2026-08-13 10:10:00","20432","2.137","142.7","3.92","146.8","1019.778","30.89","59.95","NAN","0.0"],
    [1567723,"2026-08-13 10:20:00","20433","2.2880000000000003","131.8","3.855","99.1","1019.763","31.05","56.49","NAN","0.0"],
    [1567724,"2026-08-13 10:30:00","20434","1.8230000000000002","173.0","3.332","181.6","1019.778","31.58","52.81","NAN","0.0"],
    [1567725,"2026-08-13 10:40:00","20435","1.909","174.8","3.071","182.3","1019.81","31.8","52.55","NAN","0.0"],
    [1567726,"2026-08-13 10:50:00","20436","1.98","189.3","3.7569999999999997","171.5","1019.903","31.68","57.64","NAN","0.0"],
    [1567727,"2026-08-13 11:00:00","20437","2.256","169.6","3.1689999999999996","180.8","1019.8789999999999","31.32","56.86","NAN","0.0"],
    [1567728,"2026-08-13 11:10:00","20438","2.622","176.2","3.9530000000000003","183.6","1019.875","31.11","54.24","NAN","0.0"],
    [1567729,"2026-08-13 11:20:00","20439","2.8339999999999996","177.3","3.985","181.7","1019.8989999999999","31.27","50.7","NAN","0.0"],
    [1567730,"2026-08-13 11:30:00","20440","2.873","176.2","4.638999999999999","142.5","1019.93","31.38","49.14","NAN","0.0"],
    [1567731,"2026-08-13 11:40:00","20441","2.8689999999999998","179.8","4.345","176.2","1019.9","31.61","47.58","NAN","0.0"],
    [1567732,"2026-08-13 11:50:00","20442","3.233","177.9","4.835","177.4","1019.904","31.31","48.49","NAN","0.0"],
    [1567733,"2026-08-13 12:00:00","20443","2.25","180.8","3.92","181.8","1019.9019999999999","31.81","49.37","NAN","0.0"],
    [1567734,"2026-08-13 12:10:00","20444","2.752","178.8","4.573","174.2","1019.888","31.51","53.19","NAN","0.0"],
    [1567735,"2026-08-13 12:20:00","20445","3.02","172.3","4.638999999999999","174.3","1019.8689999999999","31.41","54.53","NAN","0.0"],
    [1567736,"2026-08-13 12:30:00","20446","2.7880000000000003","177.7","4.802","178.8","1019.827","31.33","55.96","NAN","0.0"],
    [1567737,"2026-08-13 12:40:00","20447","3.116","173.8","4.965","176.6","1019.8539999999999","31.26","56.1","NAN","0.0"],
    [1567738,"2026-08-13 12:50:00","20448","3.182","174.2","5.357","177.0","1019.903","31.23","59.51","NAN","0.0"],
    [1567739,"2026-08-13 13:00:00","20449","3.14","167.7","4.965","153.0","1019.818","31.05","60.38","NAN","0.0"],
    [1567740,"2026-08-13 13:10:00","20450","3.373","174.3","5.031000000000001","174.7","1019.784","31.06","59.91","NAN","0.0"],
    [1567741,"2026-08-13 13:20:00","20451","3.08","173.9","4.541","173.3","1019.67","30.98","61.76","NAN","0.0"],
    [1567742,"2026-08-13 13:30:00","20452","3.097","174.7","5.357","176.2","1019.5889999999999","30.91","64.01","NAN","0.0"],
    [1567743,"2026-08-13 13:40:00","20453","3.032","175.6","4.638999999999999","178.2","1019.512","30.91","66.59","NAN","0.0"],
    [1567744,"2026-08-13 13:50:00","20454","3.312","172.2","5.749","176.3","1019.438","30.81","67.12","NAN","0.0"],
    [1567745,"2026-08-13 14:00:00","20455","3.423","173.6","5.422999999999999","182.3","1019.443","30.8","64.92","NAN","0.0"],
    [1567746,"2026-08-13 14:10:00","20456","3.435","174.9","4.965","178.4","1019.3610000000001","30.75","66.87","NAN","0.0"],
    [1567747,"2026-08-13 14:20:00","20457","3.176","173.1","5.129","172.8","1019.297","30.82","66.83","NAN","0.0"],
    [1567748,"2026-08-13 14:30:00","20458","3.173","177.0","5.063","173.9","1019.174","30.79","67.62","NAN","0.0"],
    [1567749,"2026-08-13 14:40:00","20459","3.193","174.6","4.4430000000000005","185.4","1019.0219999999999","30.58","69.08","NAN","0.0"],
    [1567750,"2026-08-13 14:50:00","20460","2.951","169.4","4.508","185.9","1018.959","30.73","68.02","NAN","0.0"],
    [1567751,"2026-08-13 15:00:00","20461","2.9619999999999997","178.2","4.671","177.7","1018.898","30.77","66.31","NAN","0.0"],
    [1567752,"2026-08-13 15:10:00","20462","3.1510000000000002","173.7","4.4430000000000005","178.1","1018.819","30.65","66.24","NAN","0.0"],
    [1567753,"2026-08-13 15:20:00","20463","3.412","175.4","4.933","182.1","1018.648","30.51","66.91","NAN","0.0"],
    [1567754,"2026-08-13 15:30:00","20464","2.763","170.7","4.41","183.4","1018.6439999999999","30.52","68.04","NAN","0.0"],
    [1567755,"2026-08-13 15:40:00","20465","2.8560000000000003","171.3","4.573","175.7","1018.7669999999999","30.53","69.12","NAN","0.0"],
    [1567756,"2026-08-13 15:50:00","20466","2.8539999999999996","170.6","4.4430000000000005","172.7","1018.778","30.36","69.91","NAN","0.0"],
    [1567757,"2026-08-13 16:00:00","20467","2.54","168.1","3.92","170.2","1018.8739999999999","30.53","68.95","NAN","0.0"],
    [1567758,"2026-08-13 16:10:00","20468","2.766","172.8","4.051","179.0","1018.824","30.43","68.76","NAN","0.0"],
    [1567759,"2026-08-13 16:20:00","20469","2.989","169.8","4.4430000000000005","178.6","1018.6489999999999","30.43","68.23","NAN","0.0"],
    [1567760,"2026-08-13 16:30:00","20470","3.0839999999999996","169.8","4.4430000000000005","176.7","1018.523","30.45","68.85","NAN","0.0"],
    [1567761,"2026-08-13 16:40:00","20471","2.81","169.4","4.345","178.0","1018.3969999999999","30.45","69.46","NAN","0.0"],
    [1567762,"2026-08-13 16:50:00","20472","2.19","166.3","3.43","173.1","1018.352","30.64","67.03","NAN","0.0"],
    [1567763,"2026-08-13 17:00:00","20473","2.414","169.4","3.397","181.0","1018.403","30.63","66.97","NAN","0.0"],
    [1567764,"2026-08-13 17:10:00","20474","2.4090000000000003","173.7","3.593","178.8","1018.2139999999999","30.54","69.16","NAN","0.0"],
    [1567765,"2026-08-13 17:20:00","20475","2.2640000000000002","168.6","3.397","177.4","1018.0939999999999","30.44","69.89","NAN","0.0"],
    [1567766,"2026-08-13 17:30:00","20476","2.262","170.6","3.463","178.0","1018.066","30.45","68.1","NAN","0.0"],
    [1567767,"2026-08-13 17:40:00","20477","2.319","178.3","3.528","172.9","1018.062","30.42","66.2","NAN","0.0"],
    [1567768,"2026-08-13 17:50:00","20478","2.31","173.0","3.397","180.5","1018.082","30.28","67.65","NAN","0.0"],
    [1567769,"2026-08-13 18:00:00","20479","1.9969999999999999","176.1","3.299","181.1","1018.15","30.2","69.61","NAN","0.0"],
    [1567770,"2026-08-13 18:10:00","20480","2.09","178.3","3.332","179.3","1018.252","30.03","71.5","NAN","0.0"],
    [1567771,"2026-08-13 18:20:00","20481","2.121","175.2","3.1689999999999996","172.8","1018.328","29.91","70.96","NAN","0.0"],
    [1567772,"2026-08-13 18:30:00","20482","2.035","175.1","3.234","190.4","1018.334","29.84","73.88","NAN","0.0"],
    [1567773,"2026-08-13 18:40:00","20483","2.46","176.5","3.659","174.8","1018.431","29.55","76.8","NAN","0.0"],
    [1567774,"2026-08-13 18:50:00","20484","2.155","179.4","3.397","175.6","1018.424","29.5","76.59","NAN","0.0"],
    [1567775,"2026-08-13 19:00:00","20485","2.24","175.4","3.365","178.7","1018.424","29.51","77.97","NAN","0.0"],
    [1567776,"2026-08-13 19:10:00","20486","1.4669999999999999","186.4","3.234","179.2","1018.5980000000001","29.5","77.59","NAN","0.0"],
    [1567777,"2026-08-13 19:20:00","20487","1.006","204.9","2.6460000000000004","209.7","1018.715","29.63","73.72","NAN","0.0"],
    [1567778,"2026-08-13 19:30:00","20488","1.557","210.8","3.267","205.5","1018.81","30","64.38","NAN","0.0"],
    [1567779,"2026-08-13 19:40:00","20489","1.365","215.9","3.299","199.8","1018.825","30.2","66.61","NAN","0.0"],
    [1567780,"2026-08-13 19:50:00","20490","1.6440000000000001","218.9","3.071","230.3","1018.822","30.04","70","NAN","0.0"],
    [1567781,"2026-08-13 20:00:00","20491","1.371","209.2","2.7439999999999998","230.7","1018.827","29.87","71.09","NAN","0.0"],
    [1567782,"2026-08-13 20:10:00","20492","1.175","217.3","2.94","213.7","1018.827","29.89","70.71","NAN","0.0"],
    [1567783,"2026-08-13 20:20:00","20493","1.327","227.2","3.005","229.6","1018.817","29.94","69.03","NAN","0.0"],
    [1567784,"2026-08-13 20:30:00","20494","0.995","231.4","2.287","216.2","1018.77","30","67.97","NAN","0.0"],
    [1567785,"2026-08-13 20:40:00","20495","1.213","221.7","3.0380000000000003","198.2","1018.77","29.96","68.82","NAN","0.0"],
    [1567786,"2026-08-13 20:50:00","20496","1.169","212.8","2.9730000000000003","193.4","1018.735","29.72","70.39","NAN","0.0"],
    [1567787,"2026-08-13 21:00:00","20497","1.2309999999999999","201.8","2.94","194.0","1018.561","29.53","71.88","NAN","0.0"],
    [1567788,"2026-08-13 21:10:00","20498","0.9690000000000001","217.8","2.875","222.1","1018.578","29.34","71.84","NAN","0.0"],
    [1567789,"2026-08-13 21:20:00","20499","1.056","228.1","2.6460000000000004","232.1","1018.5160000000001","29.67","69.33","NAN","0.0"],
    [1567790,"2026-08-13 21:30:00","20500","0.565","233.3","1.7309999999999999","249.1","1018.451","29.89","67.8","NAN","0.0"],
    [1567791,"2026-08-13 21:40:00","20501","1.249","233.3","3.071","234.3","1018.466","29.78","67.77","NAN","0.0"],
    [1567792,"2026-08-13 21:50:00","20502","0.775","229.4","2.189","255.9","1018.431","29.87","67.1","NAN","0.0"],
    [1567793,"2026-08-13 22:00:00","20503","0.797","235.0","1.96","242.4","1018.416","29.74","67.62","NAN","0.0"],
    [1567794,"2026-08-13 22:10:00","20504","0.7759999999999999","237.5","2.0909999999999997","235.3","1018.3710000000001","29.77","67.98","NAN","0.0"],
    [1567795,"2026-08-13 22:20:00","20505","0.745","237.3","2.189","236.8","1018.329","29.62","68.72","NAN","0.0"],
    [1567796,"2026-08-13 22:30:00","20506","1.068","239.6","2.548","231.4","1018.329","29.63","67.55","NAN","0.0"],
    [1567797,"2026-08-13 22:40:00","20507","1.229","235.9","2.94","238.9","1018.329","29.61","67.08","NAN","0.0"],
    [1567798,"2026-08-13 22:50:00","20508","0.958","225.1","2.417","237.5","1018.329","29.55","66.76","NAN","0.0"],
    [1567799,"2026-08-13 23:00:00","20509","0.909","201.8","1.829","191.2","1018.324","29.01","68.77","NAN","0.0"],
    [1567800,"2026-08-13 23:10:00","20510","0.746","205.4","2.025","199.7","1018.2139999999999","28.87","68.32","NAN","0.0"],
    [1567801,"2026-08-13 23:20:00","20511","0.44","198.8","1.339","201.1","1018.09","29.04","67.64","NAN","0.0"],
    [1567802,"2026-08-13 23:30:00","20512","0.423","229.0","1.143","188.0","1018.077","29.22","65.6","NAN","0.0"],
    [1567803,"2026-08-13 23:40:00","20513","0.605","218.4","1.3719999999999999","260.6","1017.8969999999999","29.31","63.32","NAN","0.0"],
    [1567804,"2026-08-13 23:50:00","20514","0.311","100.8","0.8490000000000001","56.21","1017.831","29.4","62.32","NAN","0.0"],
    [1567805,"2026-08-14 00:00:00","20515","0.08900000000000001","100.1","0.8490000000000001","76.99","1017.768","29.33","63.36","NAN","0.0"],
    [1567806,"2026-08-14 00:10:00","20516","0.0","0.0","0.0","0.0","1017.666","28.99","64.15","NAN","0.0"],
    [1567807,"2026-08-14 00:20:00","20517","0.226","107.1","1.013","57.33","1017.4910000000001","29.03","62.24","NAN","0.0"],
    [1567808,"2026-08-14 00:30:00","20518","0.42","101.1","0.8170000000000001","110.0","1017.37","29.18","62.03","NAN","0.0"],
    [1567809,"2026-08-14 00:40:00","20519","0.52","99.8","0.882","83.2","1017.325","29.27","60.3","NAN","0.0"],
    [1567810,"2026-08-14 00:50:00","20520","0.11599999999999999","132.2","0.523","125.0","1017.173","29.39","57.89","NAN","0.0"],
    [1567811,"2026-08-14 01:00:00","20521","0.012","122.0","0.392","123.8","1017.056","29.39","57.58","NAN","0.0"],
    [1567812,"2026-08-14 01:10:00","20522","0.642","176.6","1.339","148.6","1016.959","29.16","59.6","NAN","0.0"],
    [1567813,"2026-08-14 01:20:00","20523","0.402","193.0","1.2409999999999999","207.1","1016.8710000000001","28.65","61.66","NAN","0.0"],
    [1567814,"2026-08-14 01:30:00","20524","0.023","139.9","0.49","146.2","1016.834","28.62","61.5","NAN","0.0"],
    [1567815,"2026-08-14 01:40:00","20525","0.076","173.3","0.915","206.3","1016.831","28.33","62.66","NAN","0.0"],
    [1567816,"2026-08-14 01:50:00","20526","1.26","253.7","3.1689999999999996","279.8","1016.819","28.83","55.82","NAN","0.0"],
    [1567817,"2026-08-14 02:00:00","20527","1.1909999999999998","249.6","3.5610000000000004","262.4","1016.6519999999999","29.21","53.16","NAN","0.0"],
    [1567818,"2026-08-14 02:10:00","20528","1.153","257.5","2.417","264.6","1016.572","29.19","52.72","NAN","0.0"],
    [1567819,"2026-08-14 02:20:00","20529","0.871","254.0","2.842","278.7","1016.4680000000001","29.13","52.26","NAN","0.0"],
    [1567820,"2026-08-14 02:30:00","20530","0.7809999999999999","239.6","2.123","276.1","1016.53","29.05","51.8","NAN","0.0"],
    [1567821,"2026-08-14 02:40:00","20531","0.987","262.8","3.071","294.4","1016.505","29.12","50.76","NAN","0.0"],
    [1567822,"2026-08-14 02:50:00","20532","0.866","249.4","2.221","232.7","1016.341","29.34","49.83","NAN","0.0"],
    [1567823,"2026-08-14 03:00:00","20533","1.18","266.6","2.6460000000000004","238.7","1016.258","29.25","49.68","NAN","0.0"],
    [1567824,"2026-08-14 03:10:00","20534","0.8859999999999999","271.1","1.9269999999999998","260.5","1016.2339999999999","29.38","49.27","NAN","0.0"],
    [1567825,"2026-08-14 03:20:00","20535","0.138","109.0","0.7509999999999999","327.2","1016.326","29.34","49.65","NAN","0.0"],
    [1567826,"2026-08-14 03:30:00","20536","0.6759999999999999","60.11","1.633","41.93","1016.326","28.69","53.54","NAN","0.0"],
    [1567827,"2026-08-14 03:40:00","20537","0.6729999999999999","39.73","1.4369999999999998","61.21","1016.2810000000001","28.37","56.29","NAN","0.0"],
    [1567828,"2026-08-14 03:50:00","20538","0.34600000000000003","61.21","0.621","61.47","1016.313","28.21","55.52","NAN","0.0"],
    [1567829,"2026-08-14 04:00:00","20539","0.0","0.0","0.0","0.0","1016.313","28.2","55.82","NAN","0.0"],
    [1567830,"2026-08-14 04:10:00","20540","0.0","0.0","0.0","0.0","1016.206","28.09","55.58","NAN","0.0"],
    [1567831,"2026-08-14 04:20:00","20541","0.004","241.1","0.22899999999999998","241.2","1016.253","28.34","55.16","NAN","0.0"],
    [1567832,"2026-08-14 04:30:00","20542","0.345","197.5","0.7190000000000001","193.6","1016.211","28.24","56.12","NAN","0.0"],
    [1567833,"2026-08-14 04:40:00","20543","0.313","179.6","0.882","189.7","1016.179","28.12","58.99","NAN","0.0"],
    [1567834,"2026-08-14 04:50:00","20544","0.182","201.7","0.7509999999999999","260.3","1016.1110000000001","28.53","51.71","NAN","0.0"],
    [1567835,"2026-08-14 05:00:00","20545","0.5379999999999999","232.9","1.568","238.4","1016.1360000000001","28.74","49.26","NAN","0.0"],
    [1567836,"2026-08-14 05:10:00","20546","0.405","259.7","1.209","225.3","1016.1519999999999","29.59","44.62","NAN","0.0"],
    [1567837,"2026-08-14 05:20:00","20547","0.127","303.8","0.784","281.2","1016.1610000000001","29.48","45.95","NAN","0.0"],
    [1567838,"2026-08-14 05:30:00","20548","0.225","48.27","0.555","59.74","1016.1389999999999","29.02","49.92","NAN","0.0"],
    [1567839,"2026-08-14 05:40:00","20549","0.687","45.96","1.339","56.88","1016.1139999999999","28.58","53.04","NAN","0.0"],
    [1567840,"2026-08-14 05:50:00","20550","0.6729999999999999","56.11","1.666","64.48","1016.279","28.39","52.48","NAN","0.0"],
    [1567841,"2026-08-14 06:00:00","20551","0.507","30.11","1.3719999999999999","59.26","1016.336","28.38","52.19","NAN","0.0"],
    [1567842,"2026-08-14 06:10:00","20552","0.39899999999999997","352.5","1.2409999999999999","7.99","1016.336","28.66","50.81","NAN","0.0"],
    [1567843,"2026-08-14 06:20:00","20553","0.22899999999999998","134.6","0.8170000000000001","186.9","1016.421","28.63","50.93","NAN","0.0"],
    [1567844,"2026-08-14 06:30:00","20554","0.53","201.0","2.352","200.4","1016.4730000000001","29","51.12","NAN","0.0"],
    [1567845,"2026-08-14 06:40:00","20555","0.893","163.5","1.8619999999999999","202.4","1016.635","29.02","51.86","NAN","0.0"],
    [1567846,"2026-08-14 06:50:00","20556","1.178","148.7","2.025","108.2","1016.707","29.13","51.84","NAN","0.0"],
    [1567847,"2026-08-14 07:00:00","20557","0.9620000000000001","127.2","1.633","118.6","1016.725","28.87","55.63","NAN","0.0"],
    [1567848,"2026-08-14 07:10:00","20558","0.47600000000000003","169.5","1.013","167.7","1016.791","29.65","48.5","NAN","0.0"],
    [1567849,"2026-08-14 07:20:00","20559","0.679","245.5","2.156","237.6","1016.799","30.93","41.61","NAN","0.0"],
    [1567850,"2026-08-14 07:30:00","20560","0.985","205.0","2.7439999999999998","209.7","1016.7810000000001","31.04","40.74","NAN","0.0"],
    [1567851,"2026-08-14 07:40:00","20561","0.512","185.1","1.2409999999999999","157.5","1016.694","31.5","40.21","NAN","0.0"],
    [1567852,"2026-08-14 07:50:00","20562","0.919","171.4","1.601","169.4","1016.648","31.4","40.65","NAN","0.0"],
    [1567853,"2026-08-14 08:00:00","20563","0.473","166.7","1.143","200.7","1016.6360000000001","31.57","40.37","NAN","0.0"],
    [1567854,"2026-08-14 08:10:00","20564","0.515","138.5","1.111","119.9","1016.541","32.19","38.54","NAN","0.0"],
    [1567855,"2026-08-14 08:20:00","20565","0.633","127.9","1.078","120.6","1016.51","32.31","39.21","NAN","0.0"],
    [1567856,"2026-08-14 08:30:00","20566","0.611","158.3","0.9470000000000001","154.2","1016.54","32.85","37.34","NAN","0.0"],
    [1567857,"2026-08-14 08:40:00","20567","0.993","172.6","1.797","154.6","1016.5980000000001","32.77","38.67","NAN","0.0"],
    [1567858,"2026-08-14 08:50:00","20568","0.875","130.6","1.47","154.5","1016.561","33.07","35.75","NAN","0.0"],
    [1567859,"2026-08-14 09:00:00","20569","1.47","112.8","2.6460000000000004","88.8","1016.5239999999999","33.57","35.74","NAN","0.0"],
    [1567860,"2026-08-14 09:10:00","20570","1.8030000000000002","117.7","3.201","113.8","1016.568","32.64","38.83","NAN","0.0"],
    [1567861,"2026-08-14 09:20:00","20571","1.382","127.5","2.45","136.3","1016.55","32.69","38.06","NAN","0.0"],
    [1567862,"2026-08-14 09:30:00","20572","1.556","122.1","2.548","129.2","1016.581","32.75","38.68","NAN","0.0"],
    [1567863,"2026-08-14 09:40:00","20573","1.69","116.0","2.613","113.1","1016.5930000000001","33.27","38.35","NAN","0.0"],
    [1567864,"2026-08-14 09:50:00","20574","1.761","147.4","3.299","106.2","1016.5169999999999","33.26","47.01","NAN","0.0"],
    [1567865,"2026-08-14 10:00:00","20575","1.64","158.6","2.679","155.1","1016.4680000000001","33.6","46.15","NAN","0.0"],
    [1567866,"2026-08-14 10:10:00","20576","2.019","179.9","3.6260000000000003","165.9","1016.3969999999999","34.42","41.52","NAN","0.0"],
    [1567867,"2026-08-14 10:20:00","20577","2.7680000000000002","173.5","4.704","170.7","1016.306","33.69","47.01","NAN","0.0"],
    [1567868,"2026-08-14 10:30:00","20578","2.452","189.6","4.41","172.1","1016.2439999999999","33.74","49.81","NAN","0.0"],
    [1567869,"2026-08-14 10:40:00","20579","2.2","187.2","4.1160000000000005","181.1","1016.2539999999999","33.58","52.79","NAN","0.0"],
    [1567870,"2026-08-14 10:50:00","20580","2.155","183.3","3.659","169.6","1016.2510000000001","34.01","52.04","NAN","0.0"],
    [1567871,"2026-08-14 11:00:00","20581","2.385","190.7","4.638999999999999","208.4","1016.154","33.9","52.4","NAN","0.0"],
    [1567872,"2026-08-14 11:10:00","20582","2.11","190.6","4.149","210.1","1016.081","34.2","51.88","NAN","0.0"],
    [1567873,"2026-08-14 11:20:00","20583","2.177","186.2","4.1160000000000005","176.2","1016.01","34.22","52.16","NAN","0.0"],
    [1567874,"2026-08-14 11:30:00","20584","2.153","185.6","3.9530000000000003","182.8","1015.954","34.22","53.38","NAN","0.0"],
    [1567875,"2026-08-14 11:40:00","20585","2.509","180.3","4.247","175.8","1015.832","33.83","53.56","NAN","0.0"],
    [1567876,"2026-08-14 11:50:00","20586","2.537","183.5","4.312","212.3","1015.7510000000001","34.17","51.56","NAN","0.0"],
    [1567877,"2026-08-14 12:00:00","20587","2.767","171.8","4.279","160.0","1015.681","33.93","51.69","NAN","0.0"],
    [1567878,"2026-08-14 12:10:00","20588","2.625","179.9","4.377","178.0","1015.63","34.38","48.34","NAN","0.0"],
    [1567879,"2026-08-14 12:20:00","20589","2.69","181.3","4.279","164.7","1015.535","34.67","47.15","NAN","0.0"],
    [1567880,"2026-08-14 12:30:00","20590","2.472","186.2","4.541","198.3","1015.408","34.83","48.19","NAN","0.0"],
    [1567881,"2026-08-14 12:40:00","20591","2.385","198.4","5.325","205.2","1015.337","35.05","44.27","NAN","0.0"],
    [1567882,"2026-08-14 12:50:00","20592","3.1719999999999997","185.1","5.292000000000001","183.8","1015.2639999999999","34.64","48.85","NAN","0.0"],
    [1567883,"2026-08-14 13:00:00","20593","2.7560000000000002","187.2","5.619","206.0","1015.2560000000001","33.96","54.65","NAN","0.0"],
    [1567884,"2026-08-14 13:10:00","20594","2.859","189.1","5.1610000000000005","157.7","1015.2330000000001","33.6","56.37","NAN","0.0"],
    [1567885,"2026-08-14 13:20:00","20595","2.717","191.5","4.769","191.1","1015.1010000000001","33.39","56.61","NAN","0.0"],
    [1567886,"2026-08-14 13:30:00","20596","2.6689999999999996","193.8","5.129","170.0","1015.002","33.47","55.62","NAN","0.0"],
    [1567887,"2026-08-14 13:40:00","20597","3.082","191.3","5.227","196.6","1014.825","33.32","54.29","NAN","0.0"],
    [1567888,"2026-08-14 13:50:00","20598","2.233","201.7","5.553","204.4","1014.78","33.8","49.46","NAN","0.0"],
    [1567889,"2026-08-14 14:00:00","20599","2.31","195.3","5.063","168.8","1014.648","33.69","52.57","NAN","0.0"],
    [1567890,"2026-08-14 14:10:00","20600","2.552","196.1","4.867","178.9","1014.534","33.49","53.22","NAN","0.0"],
    [1567891,"2026-08-14 14:20:00","20601","2.677","196.6","5.586","193.1","1014.454","33.49","52.01","NAN","0.0"],
    [1567892,"2026-08-14 14:30:00","20602","2.767","191.8","6.239","174.2","1014.431","33.74","51.91","NAN","0.0"],
    [1567893,"2026-08-14 14:40:00","20603","2.733","187.0","5.815","182.2","1014.42","33.1","53.67","NAN","0.0"],
    [1567894,"2026-08-14 14:50:00","20604","2.786","188.2","4.704","177.2","1014.3539999999999","33.02","55.88","NAN","0.0"],
    [1567895,"2026-08-14 15:00:00","20605","2.905","194.9","6.566","206.2","1014.293","32.81","56.61","NAN","0.0"],
    [1567896,"2026-08-14 15:10:00","20606","2.43","201.5","6.664","186.8","1014.283","33.32","53.42","NAN","0.0"],
    [1567897,"2026-08-14 15:20:00","20607","2.826","191.9","5.096","169.7","1014.122","32.9","54.9","NAN","0.0"],
    [1567898,"2026-08-14 15:30:00","20608","2.912","194.5","5.619","210.7","1014.0930000000001","33.04","52.96","NAN","0.0"],
    [1567899,"2026-08-14 15:40:00","20609","2.551","202.5","6.011","193.0","1014.1110000000001","33.2","51.92","NAN","0.0"],
    [1567900,"2026-08-14 15:50:00","20610","2.5069999999999997","198.3","5.4879999999999995","210.5","1014.061","32.98","53.93","NAN","0.0"],
    [1567901,"2026-08-14 16:00:00","20611","2.39","197.6","5.227","200.6","1013.8989999999999","32.75","54.5","NAN","0.0"],
    [1567902,"2026-08-14 16:10:00","20612","2.622","197.7","5.2589999999999995","206.5","1013.8430000000001","32.99","52.24","NAN","0.0"],
    [1567903,"2026-08-14 16:20:00","20613","2.707","203.0","5.619","227.2","1013.812","33","48.87","NAN","0.0"],
    [1567904,"2026-08-14 16:30:00","20614","2.5660000000000003","208.5","5.749","201.3","1013.762","33.05","48.76","NAN","0.0"],
    [1567905,"2026-08-14 16:40:00","20615","1.929","203.2","4.279","171.6","1013.7410000000001","33.12","47.54","NAN","0.0"],
    [1567906,"2026-08-14 16:50:00","20616","1.665","210.2","3.9530000000000003","196.7","1013.679","32.96","48.48","NAN","0.0"],
    [1567907,"2026-08-14 17:00:00","20617","1.45","208.1","4.737","202.9","1013.6160000000001","32.97","47.78","NAN","0.0"],
    [1567908,"2026-08-14 17:10:00","20618","1.8519999999999999","210.4","4.933","203.1","1013.5239999999999","32.98","45.51","NAN","0.0"],
    [1567909,"2026-08-14 17:20:00","20619","1.7109999999999999","224.3","4.638999999999999","250.0","1013.579","33.05","45.93","NAN","0.0"],
    [1567910,"2026-08-14 17:30:00","20620","1.817","224.7","4.769","192.3","1013.6","33.49","41.56","NAN","0.0"],
    [1567911,"2026-08-14 17:40:00","20621","1.635","200.6","4.181","203.0","1013.453","32.87","45.76","NAN","0.0"],
    [1567912,"2026-08-14 17:50:00","20622","1.3880000000000001","211.8","4.4430000000000005","228.0","1013.4839999999999","32.43","47.21","NAN","0.0"],
    [1567913,"2026-08-14 18:00:00","20623","1.325","223.0","2.9730000000000003","220.2","1013.725","32.73","44.26","NAN","0.0"],
    [1567914,"2026-08-14 18:10:00","20624","1.1340000000000001","213.3","3.0380000000000003","216.8","1013.77","32.66","44.26","NAN","0.0"],
    [1567915,"2026-08-14 18:20:00","20625","0.9570000000000001","225.2","3.071","212.6","1013.8960000000001","32.62","43.37","NAN","0.0"],
    [1567916,"2026-08-14 18:30:00","20626","0.456","134.3","1.895","189.8","1014.0010000000001","32.54","44.27","NAN","0.0"],
    [1567917,"2026-08-14 18:40:00","20627","1.166","208.3","2.613","192.3","1014.0930000000001","32.34","45.37","NAN","0.0"],
    [1567918,"2026-08-14 18:50:00","20628","1.2890000000000001","205.9","3.234","199.6","1014.0930000000001","31.94","49.01","NAN","0.0"],
    [1567919,"2026-08-14 19:00:00","20629","1.22","216.4","2.548","208.8","1014.0930000000001","31.81","50.09","NAN","0.0"],
    [1567920,"2026-08-14 19:10:00","20630","1.202","216.0","2.515","224.2","1014.188","31.74","51.31","NAN","0.0"],
    [1567921,"2026-08-14 19:20:00","20631","0.8440000000000001","225.5","2.025","227.9","1014.325","31.71","51.48","NAN","0.0"],
    [1567922,"2026-08-14 19:30:00","20632","0.846","240.0","2.417","244.3","1014.3330000000001","31.93","50.84","NAN","0.0"],
    [1567923,"2026-08-14 19:40:00","20633","1.0270000000000001","236.8","2.6460000000000004","246.8","1014.34","31.92","50.86","NAN","0.0"],
    [1567924,"2026-08-14 19:50:00","20634","0.809","199.6","1.568","198.8","1014.3380000000001","31.38","53.83","NAN","0.0"],
    [1567925,"2026-08-14 20:00:00","20635","1.082","201.1","1.666","200.2","1014.32","31","54.2","NAN","0.0"],
    [1567926,"2026-08-14 20:10:00","20636","0.8759999999999999","190.6","1.405","204.2","1014.378","31.21","52.74","NAN","0.0"],
    [1567927,"2026-08-14 20:20:00","20637","0.5770000000000001","203.4","1.535","196.3","1014.477","31.34","51.65","NAN","0.0"],
    [1567928,"2026-08-14 20:30:00","20638","0.687","194.0","1.666","199.9","1014.5089999999999","31.49","49.82","NAN","0.0"],
    [1567929,"2026-08-14 20:40:00","20639","0.69","339.9","2.5810000000000004","300.7","1014.437","31.96","44.77","NAN","0.0"],
    [1567930,"2026-08-14 20:50:00","20640","0.731","268.6","2.319","289.0","1014.35","33.18","37.55","NAN","0.0"],
    [1567931,"2026-08-14 21:00:00","20641","0.9109999999999999","151.6","1.829","169.3","1014.242","32.44","45.01","NAN","0.0"],
    [1567932,"2026-08-14 21:10:00","20642","0.607","188.8","1.797","146.6","1014.076","31.56","51.34","NAN","0.0"],
    [1567933,"2026-08-14 21:20:00","20643","0.491","161.5","1.2409999999999999","162.4","1013.954","31.14","53.92","NAN","0.0"],
    [1567934,"2026-08-14 21:30:00","20644","0.546","167.7","1.274","170.2","1013.8910000000001","31.1","50.85","NAN","0.0"],
    [1567935,"2026-08-14 21:40:00","20645","0.213","144.1","1.078","165.7","1013.8439999999999","31.07","46.74","NAN","0.0"],
    [1567936,"2026-08-14 21:50:00","20646","0.8270000000000001","208.2","3.365","236.5","1013.842","31.15","44.8","NAN","0.0"],
    [1567937,"2026-08-14 22:00:00","20647","1.545","240.7","3.495","245.2","1013.757","31.61","39.03","NAN","0.0"],
    [1567938,"2026-08-14 22:10:00","20648","1.494","242.9","3.463","227.6","1013.612","31.59","37.95","NAN","0.0"],
    [1567939,"2026-08-14 22:20:00","20649","1.25","236.8","2.7110000000000003","243.7","1013.582","31.49","37.51","NAN","0.0"],
    [1567940,"2026-08-14 22:30:00","20650","1.411","235.9","3.136","227.5","1013.488","31.3","39.13","NAN","0.0"],
    [1567941,"2026-08-14 22:40:00","20651","1.275","237.0","2.7110000000000003","232.1","1013.4680000000001","31.11","43.85","NAN","0.0"],
    [1567942,"2026-08-14 22:50:00","20652","0.8740000000000001","247.6","2.025","256.8","1013.385","30.91","46.16","NAN","0.0"],
    [1567943,"2026-08-14 23:00:00","20653","1.15","241.1","2.9730000000000003","225.4","1013.346","30.89","47.78","NAN","0.0"],
    [1567944,"2026-08-14 23:10:00","20654","0.941","246.6","2.613","239.6","1013.346","30.75","50.31","NAN","0.0"],
    [1567945,"2026-08-14 23:20:00","20655","0.909","217.3","2.679","278.0","1013.296","30.62","53.06","NAN","0.0"],
    [1567946,"2026-08-14 23:30:00","20656","1.138","203.1","2.189","205.9","1013.3389999999999","30.16","54.55","NAN","0.0"],
    [1567947,"2026-08-14 23:40:00","20657","0.79","216.8","2.287","233.6","1013.388","29.87","58.65","NAN","0.0"],
    [1567948,"2026-08-14 23:50:00","20658","1.433","220.0","3.005","222.0","1013.3480000000001","29.89","63.04","NAN","0.0"],
    [1567949,"2026-08-15 00:00:00","20659","0.897","219.8","2.5810000000000004","255.0","1013.346","29.63","67.42","NAN","0.0"],
    [1567950,"2026-08-15 00:10:00","20660","1.02","209.7","2.9730000000000003","228.5","1013.378","29.44","66.49","NAN","0.0"],
    [1567951,"2026-08-15 00:20:00","20661","0.907","232.5","2.287","260.0","1013.3510000000001","29.39","66.09","NAN","0.0"],
    [1567952,"2026-08-15 00:30:00","20662","1.214","241.3","2.7110000000000003","236.4","1013.341","29.42","65.21","NAN","0.0"],
    [1567953,"2026-08-15 00:40:00","20663","0.895","243.0","3.201","233.8","1013.2689999999999","29.31","64.26","NAN","0.0"],
    [1567954,"2026-08-15 00:50:00","20664","1.091","242.5","2.548","231.0","1013.2860000000001","29.34","62.1","NAN","0.0"],
    [1567955,"2026-08-15 01:00:00","20665","0.981","237.1","2.189","276.2","1013.1489999999999","29.44","59.05","NAN","0.0"],
    [1567956,"2026-08-15 01:10:00","20666","0.35100000000000003","240.2","1.176","259.3","1013.1189999999999","29.44","57.09","NAN","0.0"],
    [1567957,"2026-08-15 01:20:00","20667","0.494","196.9","1.078","181.4","1013.1089999999999","29.4","57.44","NAN","0.0"],
    [1567958,"2026-08-15 01:30:00","20668","0.5489999999999999","118.3","1.111","108.1","1013.187","29.12","58.74","NAN","0.0"],
    [1567959,"2026-08-15 01:40:00","20669","0.6859999999999999","134.8","1.274","141.6","1013.2310000000001","29.11","57.82","NAN","0.0"],
    [1567960,"2026-08-15 01:50:00","20670","0.6940000000000001","152.6","1.078","135.5","1013.216","29.16","55.54","NAN","0.0"],
    [1567961,"2026-08-15 02:00:00","20671","0.693","136.1","1.339","124.3","1013.211","29.16","56.6","NAN","0.0"],
    [1567962,"2026-08-15 02:10:00","20672","0.6940000000000001","94.6","1.96","76.86","1013.206","29.1","56.38","NAN","0.0"],
    [1567963,"2026-08-15 02:20:00","20673","0.607","145.2","1.3719999999999999","150.7","1013.2289999999999","29.03","51.91","NAN","0.0"],
    [1567964,"2026-08-15 02:30:00","20674","1.272","133.2","2.0580000000000003","116.9","1013.316","29.04","49.7","NAN","0.0"],
    [1567965,"2026-08-15 02:40:00","20675","0.8490000000000001","132.9","1.535","133.7","1013.331","28.54","56.19","NAN","0.0"],
    [1567966,"2026-08-15 02:50:00","20676","0.7120000000000001","91.7","1.405","96.5","1013.326","28.73","52.49","NAN","0.0"],
    [1567967,"2026-08-15 03:00:00","20677","0.5529999999999999","93.8","1.535","78.41","1013.346","28.98","46.74","NAN","0.0"],
    [1567968,"2026-08-15 03:10:00","20678","0.6709999999999999","80.4","1.5030000000000001","75.76","1013.291","28.95","47.46","NAN","0.0"],
    [1567969,"2026-08-15 03:20:00","20679","0.632","182.8","1.3719999999999999","170.1","1013.321","28.65","52.5","NAN","0.0"],
    [1567970,"2026-08-15 03:30:00","20680","0.22699999999999998","212.1","1.078","200.4","1013.2239999999999","27.89","54.75","NAN","0.0"],
    [1567971,"2026-08-15 03:40:00","20681","0.382","33.35","1.209","36.21","1013.076","28.04","54.69","NAN","0.0"],
    [1567972,"2026-08-15 03:50:00","20682","0.8640000000000001","29.84","1.8619999999999999","33.06","1012.987","28.22","48.12","NAN","0.0"],
    [1567973,"2026-08-15 04:00:00","20683","0.6759999999999999","33.99","1.339","34.7","1013.0169999999999","28.27","45.61","NAN","0.0"],
    [1567974,"2026-08-15 04:10:00","20684","0.66","44.97","1.176","58.74","1012.992","28.19","45.56","NAN","0.0"],
    [1567975,"2026-08-15 04:20:00","20685","0.373","18.72","1.078","22.21","1012.97","28.26","45.37","NAN","0.0"],
    [1567976,"2026-08-15 04:30:00","20686","0.368","28.86","1.405","35.33","1013.044","28.24","45.14","NAN","0.0"],
    [1567977,"2026-08-15 04:40:00","20687","0.618","34.87","1.666","42.66","1013.069","27.96","45.93","NAN","0.0"],
    [1567978,"2026-08-15 04:50:00","20688","0.59","25.05","1.274","4.361000000000001","1013.097","27.86","45.96","NAN","0.0"],
    [1567979,"2026-08-15 05:00:00","20689","0.222","12.42","0.8490000000000001","26.84","1013.097","27.79","46.2","NAN","0.0"],
    [1567980,"2026-08-15 05:10:00","20690","0.33399999999999996","358.5","0.915","12.24","1013.102","27.93","45.66","NAN","0.0"],
    [1567981,"2026-08-15 05:20:00","20691","0.114","4.324","0.915","3.9739999999999998","1013.097","28.29","44.75","NAN","0.0"],
    [1567982,"2026-08-15 05:30:00","20692","0.133","179.3","0.523","171.7","1013.2510000000001","28.14","47.65","NAN","0.0"],
    [1567983,"2026-08-15 05:40:00","20693","0.002","181.7","0.163","181.2","1013.331","27.76","50.94","NAN","0.0"],
    [1567984,"2026-08-15 05:50:00","20694","0.13699999999999998","90.9","0.882","59.48","1013.3760000000001","27.98","48.02","NAN","0.0"],
    [1567985,"2026-08-15 06:00:00","20695","0.41600000000000004","49.39","2.515","22.54","1013.45","28.34","46.55","NAN","0.0"],
    [1567986,"2026-08-15 06:10:00","20696","0.6779999999999999","27.24","2.189","357.8","1013.498","28.3","47.01","NAN","0.0"],
    [1567987,"2026-08-15 06:20:00","20697","1.167","43.7","2.9730000000000003","4.4","1013.693","28.48","46.85","NAN","0.0"],
    [1567988,"2026-08-15 06:30:00","20698","1.135","34.57","2.7439999999999998","22.7","1013.827","28.54","46.81","NAN","0.0"],
    [1567989,"2026-08-15 06:40:00","20699","0.777","15.3","1.797","355.4","1013.8439999999999","28.73","47.82","NAN","0.0"],
    [1567990,"2026-08-15 06:50:00","20700","1.078","16.69","2.6460000000000004","7.47","1013.8439999999999","28.96","49.14","NAN","0.0"],
    [1567991,"2026-08-15 07:00:00","20701","0.963","28.41","2.221","53.3","1013.8739999999999","29.21","53.87","NAN","0.0"],
    [1567992,"2026-08-15 07:10:00","20702","1.189","41.92","2.842","26.84","1013.9789999999999","29.47","57.59","NAN","0.0"],
    [1567993,"2026-08-15 07:20:00","20703","1.015","37.98","2.319","30.86","1014.087","29.56","62.39","NAN","0.0"],
    [1567994,"2026-08-15 07:30:00","20704","2.1919999999999997","65.08","5.129","83.6","1014.117","29.8","69.12","NAN","0.0"],
    [1567995,"2026-08-15 07:40:00","20705","3.031","80.0","5.063","65.43","1014.1410000000001","29.38","76.99","NAN","0.0"],
    [1567996,"2026-08-15 07:50:00","20706","3.748","80.7","6.468","69.14","1014.209","29.01","83.5","NAN","0.0"],
    [1567997,"2026-08-15 08:00:00","20707","3.3339999999999996","85.7","5.978","91.9","1014.2919999999999","29.01","83.8","NAN","0.0"],
    [1567998,"2026-08-15 08:10:00","20708","3.58","83.4","5.88","89.8","1014.327","29.22","82.2","NAN","0.0"],
    [1567999,"2026-08-15 08:20:00","20709","3.5460000000000003","85.2","6.37","73.37","1014.329","29.21","82","NAN","0.0"],
    [1568000,"2026-08-15 08:30:00","20710","2.9739999999999998","80.9","5.521","72.81","1014.3380000000001","29.42","81.9","NAN","0.0"],
    [1568001,"2026-08-15 08:40:00","20711","2.151","73.94","4.704","90.7","1014.3660000000001","29.8","80.3","NAN","0.0"],
    [1568002,"2026-08-15 08:50:00","20712","3.06","87.6","5.619","103.0","1014.429","29.81","80.2","NAN","0.0"],
    [1568003,"2026-08-15 09:00:00","20713","3.4210000000000003","85.5","6.893","96.1","1014.477","29.66","81.3","NAN","0.0"],
    [1568004,"2026-08-15 09:10:00","20714","3.875","80.4","5.978","77.05","1014.518","29.51","82","NAN","0.0"],
    [1568005,"2026-08-15 09:20:00","20715","2.9560000000000004","70.91","5.39","68.48","1014.586","29.82","80.4","NAN","0.0"],
    [1568006,"2026-08-15 09:30:00","20716","3.017","78.8","5.521","83.0","1014.635","30.14","79.27","NAN","0.0"],
    [1568007,"2026-08-15 09:40:00","20717","2.6639999999999997","85.5","5.749","99.6","1014.745","30.37","78.57","NAN","0.0"],
    [1568008,"2026-08-15 09:50:00","20718","3.574","91.4","5.619","107.0","1014.7760000000001","30.25","78.09","NAN","0.0"],
    [1568009,"2026-08-15 10:00:00","20719","3.198","98.0","5.88","104.9","1014.8919999999999","30.12","78.06","NAN","0.0"],
    [1568010,"2026-08-15 10:10:00","20720","2.978","109.8","5.422999999999999","115.5","1015.065","30.01","78.59","NAN","0.0"],
    [1568011,"2026-08-15 10:20:00","20721","2.968","108.4","4.9","95.5","1015.085","30.02","77.76","NAN","0.0"],
    [1568012,"2026-08-15 10:30:00","20722","2.7510000000000003","106.5","4.737","102.3","1015.073","30.24","76.87","NAN","0.0"],
    [1568013,"2026-08-15 10:40:00","20723","2.8110000000000004","103.9","5.1610000000000005","109.4","1015.064","30.3","75.9","NAN","0.0"],
    [1568014,"2026-08-15 10:50:00","20724","2.71","116.4","4.737","110.7","1015.062","30.16","76.32","NAN","0.0"],
    [1568015,"2026-08-15 11:00:00","20725","2.759","123.5","5.2589999999999995","109.4","1015.086","29.78","77.67","NAN","0.0"],
    [1568016,"2026-08-15 11:10:00","20726","2.8280000000000003","124.0","4.835","108.8","1015.199","29.58","77.59","NAN","0.0"],
    [1568017,"2026-08-15 11:20:00","20727","2.523","123.7","4.051","111.3","1015.159","29.84","76.7","NAN","0.0"],
    [1568018,"2026-08-15 11:30:00","20728","2.56","125.8","4.508","107.9","1015.0939999999999","29.74","76.65","NAN","0.0"],
    [1568019,"2026-08-15 11:40:00","20729","2.515","124.8","4.475","110.9","1014.985","29.79","75.99","NAN","0.0"],
    [1568020,"2026-08-15 11:50:00","20730","2.582","125.6","4.247","114.1","1014.8510000000001","29.81","75.8","NAN","0.0"],
    [1568021,"2026-08-15 12:00:00","20731","2.6860000000000004","123.4","4.475","113.4","1014.745","29.78","75.91","NAN","0.0"],
    [1568022,"2026-08-15 12:10:00","20732","2.908","125.1","4.508","101.7","1014.5889999999999","29.87","75.62","NAN","0.0"],
    [1568023,"2026-08-15 12:20:00","20733","2.7030000000000003","143.6","4.573","158.8","1014.487","30.12","74.79","NAN","0.0"],
    [1568024,"2026-08-15 12:30:00","20734","2.9360000000000004","152.8","5.063","156.2","1014.3919999999999","30.12","74.42","NAN","0.0"],
    [1568025,"2026-08-15 12:40:00","20735","2.443","137.4","4.1160000000000005","99.3","1014.323","30.16","75.33","NAN","0.0"],
    [1568026,"2026-08-15 12:50:00","20736","2.7289999999999996","141.0","4.475","165.3","1014.345","30.17","74.84","NAN","0.0"],
    [1568027,"2026-08-15 13:00:00","20737","2.6319999999999997","141.7","4.541","126.0","1014.34","30.17","74.99","NAN","0.0"],
    [1568028,"2026-08-15 13:10:00","20738","2.633","122.6","4.671","107.3","1014.421","30.47","74.34","NAN","0.0"],
    [1568029,"2026-08-15 13:20:00","20739","2.642","124.6","4.41","110.8","1014.395","29.99","76.2","NAN","0.0"],
    [1568030,"2026-08-15 13:30:00","20740","2.653","125.9","5.063","105.7","1014.203","30.11","76","NAN","0.0"],
    [1568031,"2026-08-15 13:40:00","20741","2.8810000000000002","142.9","4.704","143.3","1013.96","30.05","76.55","NAN","0.0"],
    [1568032,"2026-08-15 13:50:00","20742","2.8560000000000003","151.2","4.573","142.4","1013.687","29.93","77.14","NAN","0.0"],
    [1568033,"2026-08-15 14:00:00","20743","2.552","145.5","4.247","140.9","1013.5889999999999","30.12","77.01","NAN","0.0"],
    [1568034,"2026-08-15 14:10:00","20744","2.3369999999999997","130.7","4.737","110.8","1013.8710000000001","30.36","76.77","NAN","0.0"],
    [1568035,"2026-08-15 14:20:00","20745","2.399","130.1","3.887","104.9","1014.028","30.12","77.99","NAN","0.0"],
    [1568036,"2026-08-15 14:30:00","20746","2.9019999999999997","128.8","4.345","111.7","1013.78","29.82","79.64","NAN","0.0"],
    [1568037,"2026-08-15 14:40:00","20747","2.6839999999999997","124.5","4.1160000000000005","116.1","1013.681","29.96","79.47","NAN","0.0"],
    [1568038,"2026-08-15 14:50:00","20748","2.432","131.2","4.312","103.6","1013.6439999999999","29.96","80.3","NAN","0.0"],
    [1568039,"2026-08-15 15:00:00","20749","2.342","143.8","3.7239999999999998","138.2","1013.578","30.43","78.52","NAN","0.0"],
    [1568040,"2026-08-15 15:10:00","20750","2.801","122.7","4.345","109.4","1013.508","30.44","78.16","NAN","0.0"],
    [1568041,"2026-08-15 15:20:00","20751","2.667","113.6","4.1160000000000005","112.3","1013.4630000000001","30.08","78.55","NAN","0.0"],
    [1568042,"2026-08-15 15:30:00","20752","1.906","119.4","3.365","105.5","1013.485","30.21","73.63","NAN","0.0"],
    [1568043,"2026-08-15 15:40:00","20753","1.879","100.6","3.7239999999999998","119.6","1013.6080000000001","29.96","77.68","NAN","0.0"],
    [1568044,"2026-08-15 15:50:00","20754","2.594","354.1","6.925","314.0","1014.2610000000001","30.23","61.92","NAN","0.0"],
    [1568045,"2026-08-15 16:00:00","20755","1.78","5.215","4.704","297.5","1013.888","30.11","42.96","NAN","0.0"],
    [1568046,"2026-08-15 16:10:00","20756","2.323","21.68","6.011","345.0","1013.525","29.84","42.98","NAN","0.0"],
    [1568047,"2026-08-15 16:20:00","20757","2.616","20.14","5.194","47.2","1013.176","29.75","43.12","NAN","0.0"],
    [1568048,"2026-08-15 16:30:00","20758","2.056","3.573","5.063","32.96","1012.927","29.48","45.97","NAN","0.0"],
    [1568049,"2026-08-15 16:40:00","20759","1.5590000000000002","357.0","4.933","10.54","1012.802","29.3","47.69","NAN","0.0"],
    [1568050,"2026-08-15 16:50:00","20760","2.254","359.0","6.011","28.81","1012.628","29.15","48.19","NAN","0.0"],
    [1568051,"2026-08-15 17:00:00","20761","2.767","8.84","7.218999999999999","28.37","1012.673","28.71","49.92","NAN","0.0"],
    [1568052,"2026-08-15 17:10:00","20762","2.4819999999999998","0.8320000000000001","5.978","3.452","1012.573","28.43","50.94","NAN","0.0"],
    [1568053,"2026-08-15 17:20:00","20763","1.518","346.1","4.1160000000000005","21.64","1012.566","28.89","49.03","NAN","0.0"],
    [1568054,"2026-08-15 17:30:00","20764","2.0180000000000002","310.9","5.031000000000001","321.5","1012.4839999999999","29.25","47.37","NAN","0.0"],
    [1568055,"2026-08-15 17:40:00","20765","1.063","304.4","3.5610000000000004","318.0","1012.544","29.57","45.92","NAN","0.0"],
    [1568056,"2026-08-15 17:50:00","20766","1.55","301.5","3.528","310.6","1012.5989999999999","29.69","43.7","NAN","0.0"],
    [1568057,"2026-08-15 18:00:00","20767","1.514","313.4","4.149","314.2","1012.693","29.73","41.97","NAN","0.0"],
    [1568058,"2026-08-15 18:10:00","20768","1.262","299.7","3.267","5.484","1012.801","30","41.02","NAN","0.0"],
    [1568059,"2026-08-15 18:20:00","20769","1.033","221.8","2.7439999999999998","240.9","1012.975","29.71","46.15","NAN","0.0"],
    [1568060,"2026-08-15 18:30:00","20770","1.82","242.0","3.92","241.5","1013.087","29.36","46.36","NAN","0.0"],
    [1568061,"2026-08-15 18:40:00","20771","1.319","243.8","2.907","257.2","1013.122","29.24","46.76","NAN","0.0"],
    [1568062,"2026-08-15 18:50:00","20772","1.374","242.8","2.8089999999999997","243.6","1013.3589999999999","29.22","46.44","NAN","0.0"],
    [1568063,"2026-08-15 19:00:00","20773","1.219","278.2","3.103","309.5","1013.488","29.39","45.89","NAN","0.0"],
    [1568064,"2026-08-15 19:10:00","20774","1.162","288.9","2.5810000000000004","277.2","1013.52","29.64","44","NAN","0.0"],
    [1568065,"2026-08-15 19:20:00","20775","0.568","332.7","2.254","305.3","1013.685","30.01","41.75","NAN","0.0"],
    [1568066,"2026-08-15 19:30:00","20776","0.6990000000000001","344.8","1.797","298.4","1013.72","30.19","40.82","NAN","0.0"],
    [1568067,"2026-08-15 19:40:00","20777","1.217","357.2","2.679","9.25","1013.74","30.2","39.14","NAN","0.0"],
    [1568068,"2026-08-15 19:50:00","20778","0.525","348.1","1.9269999999999998","71.51","1013.9169999999999","30.14","39.29","NAN","0.0"],
    [1568069,"2026-08-15 20:00:00","20779","0.688","1.6869999999999998","2.254","306.3","1014.0930000000001","30.28","38.18","NAN","0.0"],
    [1568070,"2026-08-15 20:10:00","20780","0.557","232.9","1.96","246.2","1014.1410000000001","30.18","39.53","NAN","0.0"],
    [1568071,"2026-08-15 20:20:00","20781","0.863","255.0","2.287","253.3","1014.26","29.97","40.54","NAN","0.0"],
    [1568072,"2026-08-15 20:30:00","20782","0.40299999999999997","252.8","1.993","266.3","1014.317","30.3","39.27","NAN","0.0"],
    [1568073,"2026-08-15 20:40:00","20783","0.35200000000000004","275.3","1.274","232.0","1014.193","30.2","39.61","NAN","0.0"],
    [1568074,"2026-08-15 20:50:00","20784","1.013","51.12","1.764","30.05","1014.0930000000001","29.53","42.99","NAN","0.0"],
    [1568075,"2026-08-15 21:00:00","20785","0.551","40.86","1.3719999999999999","57.18","1014.153","29.12","44.45","NAN","0.0"],
    [1568076,"2026-08-15 21:10:00","20786","0.625","49.3","1.5030000000000001","68.6","1014.325","29.1","44.65","NAN","0.0"],
    [1568077,"2026-08-15 21:20:00","20787","0.584","11.81","1.405","12.27","1014.288","29.07","44.73","NAN","0.0"],
    [1568078,"2026-08-15 21:30:00","20788","0.252","9.32","1.209","35.32","1014.365","29.05","44.54","NAN","0.0"],
    [1568079,"2026-08-15 21:40:00","20789","0.154","161.2","0.8490000000000001","172.7","1014.357","28.91","45.14","NAN","0.0"],
    [1568080,"2026-08-15 21:50:00","20790","0.499","200.4","1.339","241.6","1014.3430000000001","28.93","45.86","NAN","0.0"],
    [1568081,"2026-08-15 22:00:00","20791","0.5489999999999999","242.0","1.666","231.5","1014.373","29.28","42.75","NAN","0.0"],
    [1568082,"2026-08-15 22:10:00","20792","0.446","164.3","1.176","224.0","1014.4689999999999","29.62","42.68","NAN","0.0"],
    [1568083,"2026-08-15 22:20:00","20793","0.368","64.63","0.9470000000000001","60.5","1014.512","29","44.99","NAN","0.0"],
    [1568084,"2026-08-15 22:30:00","20794","0.45","51.88","0.915","50.01","1014.5039999999999","28.88","44.97","NAN","0.0"],
    [1568085,"2026-08-15 22:40:00","20795","0.5660000000000001","39.47","1.4369999999999998","47.43","1014.457","28.77","45.19","NAN","0.0"],
    [1568086,"2026-08-15 22:50:00","20796","1.12","51.63","1.993","26.13","1014.472","28.64","45.34","NAN","0.0"],
    [1568087,"2026-08-15 23:00:00","20797","0.973","14.07","2.417","11.97","1014.515","28.55","45.94","NAN","0.0"],
    [1568088,"2026-08-15 23:10:00","20798","0.972","6.404","2.319","20.72","1014.6439999999999","28.49","47.34","NAN","0.0"],
    [1568089,"2026-08-15 23:20:00","20799","1.0590000000000002","26.55","2.548","14.61","1014.674","28.4","47.77","NAN","0.0"],
    [1568090,"2026-08-15 23:30:00","20800","1.081","38.34","2.189","52.49","1014.699","28.23","47.34","NAN","0.0"],
    [1568091,"2026-08-15 23:40:00","20801","0.888","20.02","2.0909999999999997","357.3","1014.581","28.19","47.09","NAN","0.0"],
    [1568092,"2026-08-15 23:50:00","20802","1.15","18.77","2.287","39.39","1014.439","28.38","47.42","NAN","0.0"],
    [1568093,"2026-08-16 00:00:00","20803","0.9940000000000001","44.7","2.0580000000000003","32.17","1014.403","28.17","47.11","NAN","0.0"],
    [1568094,"2026-08-16 00:10:00","20804","1.011","17.83","2.548","34.68","1014.345","28.07","46.4","NAN","0.0"],
    [1568095,"2026-08-16 00:20:00","20805","0.7440000000000001","359.5","2.6460000000000004","12.08","1014.403","28.22","44.7","NAN","0.0"],
    [1568096,"2026-08-16 00:30:00","20806","0.6559999999999999","337.1","2.221","324.5","1014.57","28.41","43.76","NAN","0.0"],
    [1568097,"2026-08-16 00:40:00","20807","1.161","317.2","2.515","316.8","1014.7139999999999","28.73","42.4","NAN","0.0"],
    [1568098,"2026-08-16 00:50:00","20808","0.8059999999999999","290.3","1.797","240.9","1014.818","28.79","43.59","NAN","0.0"],
    [1568099,"2026-08-16 01:00:00","20809","1.083","243.7","3.267","237.5","1014.793","28.35","46.9","NAN","0.0"],
    [1568100,"2026-08-16 01:10:00","20810","0.614","230.6","1.568","256.2","1014.6360000000001","27.86","48.76","NAN","0.0"],
    [1568101,"2026-08-16 01:20:00","20811","0.52","38.64","1.4369999999999998","284.5","1014.4169999999999","27.82","49.72","NAN","0.0"],
    [1568102,"2026-08-16 01:30:00","20812","0.72","43.38","1.764","31.39","1014.128","28.05","48.08","NAN","0.0"],
    [1568103,"2026-08-16 01:40:00","20813","1.2990000000000002","43.55","3.299","32.34","1013.8660000000001","28.17","46.45","NAN","0.0"],
    [1568104,"2026-08-16 01:50:00","20814","1.163","22.73","2.385","49.34","1013.872","27.97","47.06","NAN","0.0"],
    [1568105,"2026-08-16 02:00:00","20815","0.8809999999999999","27.18","2.385","29.6","1013.832","27.93","47.81","NAN","0.0"],
    [1568106,"2026-08-16 02:10:00","20816","0.807","3.9130000000000003","1.601","8.7","1013.8439999999999","28.07","47.87","NAN","0.0"],
    [1568107,"2026-08-16 02:20:00","20817","0.785","356.5","1.9269999999999998","19.64","1013.8439999999999","28.15","47.4","NAN","0.0"],
    [1568108,"2026-08-16 02:30:00","20818","0.253","255.7","1.078","181.8","1013.937","28.31","48.45","NAN","0.0"],
    [1568109,"2026-08-16 02:40:00","20819","0.478","183.5","1.601","182.9","1014.044","27.98","52.48","NAN","0.0"],
    [1568110,"2026-08-16 02:50:00","20820","0.746","172.7","1.405","202.7","1014.028","27.58","54.91","NAN","0.0"],
    [1568111,"2026-08-16 03:00:00","20821","0.557","187.3","1.209","186.1","1013.846","27.39","57.18","NAN","0.0"],
    [1568112,"2026-08-16 03:10:00","20822","0.49200000000000005","187.8","1.111","198.9","1013.8439999999999","27.12","57.02","NAN","0.0"],
    [1568113,"2026-08-16 03:20:00","20823","0.775","258.8","1.895","264.7","1013.8439999999999","27.33","53.58","NAN","0.0"],
    [1568114,"2026-08-16 03:30:00","20824","0.379","245.4","1.274","298.3","1013.7639999999999","27.81","50.71","NAN","0.0"],
    [1568115,"2026-08-16 03:40:00","20825","0.457","217.8","1.045","255.2","1013.747","27.52","51.78","NAN","0.0"],
    [1568116,"2026-08-16 03:50:00","20826","0.62","252.8","2.254","241.4","1013.827","27.48","51.17","NAN","0.0"],
    [1568117,"2026-08-16 04:00:00","20827","0.765","267.9","1.829","272.0","1013.7819999999999","27.6","50.22","NAN","0.0"],
    [1568118,"2026-08-16 04:10:00","20828","0.755","276.1","1.633","273.8","1013.837","27.76","49.81","NAN","0.0"],
    [1568119,"2026-08-16 04:20:00","20829","0.262","347.9","1.4369999999999998","289.6","1013.824","27.65","50.22","NAN","0.0"],
    [1568120,"2026-08-16 04:30:00","20830","0.496","40.5","1.601","64.25","1013.752","27.15","51.38","NAN","0.0"],
    [1568121,"2026-08-16 04:40:00","20831","0.682","9.79","1.797","24.48","1013.67","26.87","51.98","NAN","0.0"],
    [1568122,"2026-08-16 04:50:00","20832","0.2","30.77","1.045","56.65","1013.76","26.87","51.81","NAN","0.0"],
    [1568123,"2026-08-16 05:00:00","20833","0.19899999999999998","356.1","1.013","281.5","1013.7739999999999","26.93","51.44","NAN","0.0"],
    [1568124,"2026-08-16 05:10:00","20834","0.16399999999999998","74.32","0.6859999999999999","82.7","1013.7919999999999","27.11","51.36","NAN","0.0"],
    [1568125,"2026-08-16 05:20:00","20835","0.114","203.0","1.111","250.0","1013.785","26.85","52.84","NAN","0.0"],
    [1568126,"2026-08-16 05:30:00","20836","0.261","90.7","1.176","245.4","1013.857","26.89","52.66","NAN","0.0"],
    [1568127,"2026-08-16 05:40:00","20837","0.303","94.7","0.653","105.1","1013.8660000000001","27.04","52.35","NAN","0.0"],
    [1568128,"2026-08-16 05:50:00","20838","0.446","351.5","1.535","292.4","1013.914","27.45","51.41","NAN","0.0"],
    [1568129,"2026-08-16 06:00:00","20839","0.518","288.0","1.143","262.2","1013.9939999999999","27.77","49.73","NAN","0.0"],
    [1568130,"2026-08-16 06:10:00","20840","0.518","50.31","1.993","359.7","1014.073","27.56","50.85","NAN","0.0"],
    [1568131,"2026-08-16 06:20:00","20841","0.35600000000000004","19.53","1.5030000000000001","30.04","1014.183","27.61","50.18","NAN","0.0"],
    [1568132,"2026-08-16 06:30:00","20842","0.2","149.2","0.588","150.3","1014.323","27.96","49.72","NAN","0.0"],
    [1568133,"2026-08-16 06:40:00","20843","0.452","174.5","1.274","244.7","1014.345","28.39","49.94","NAN","0.0"],
    [1568134,"2026-08-16 06:50:00","20844","0.745","180.0","1.274","198.3","1014.367","28.57","50.28","NAN","0.0"],
    [1568135,"2026-08-16 07:00:00","20845","1.031","185.7","1.96","210.6","1014.403","28.71","48.97","NAN","0.0"],
    [1568136,"2026-08-16 07:10:00","20846","0.7859999999999999","260.3","2.0580000000000003","242.1","1014.462","29.33","45.71","NAN","0.0"],
    [1568137,"2026-08-16 07:20:00","20847","0.733","274.6","2.156","283.9","1014.3760000000001","29.77","44.44","NAN","0.0"],
    [1568138,"2026-08-16 07:30:00","20848","0.708","99.6","1.568","143.6","1014.318","30.41","43.72","NAN","0.0"],
    [1568139,"2026-08-16 07:40:00","20849","1.545","111.0","2.7110000000000003","110.7","1014.294","29.64","50.96","NAN","0.0"],
    [1568140,"2026-08-16 07:50:00","20850","1.567","114.6","2.45","115.2","1014.3839999999999","29.17","52.45","NAN","0.0"],
    [1568141,"2026-08-16 08:00:00","20851","1.5319999999999998","111.9","2.254","116.3","1014.451","28.91","54.27","NAN","0.0"],
    [1568142,"2026-08-16 08:10:00","20852","1.43","106.5","2.254","108.2","1014.459","29.41","52.77","NAN","0.0"],
    [1568143,"2026-08-16 08:20:00","20853","1.19","108.6","1.96","92.5","1014.425","29.96","48.99","NAN","0.0"],
    [1568144,"2026-08-16 08:30:00","20854","1.234","125.5","1.993","115.8","1014.497","29.82","49.58","NAN","0.0"],
    [1568145,"2026-08-16 08:40:00","20855","1.249","120.0","2.0909999999999997","100.3","1014.544","29.82","51.99","NAN","0.0"],
    [1568146,"2026-08-16 08:50:00","20856","1.3419999999999999","115.9","1.895","111.9","1014.623","30.17","52.29","NAN","0.0"],
    [1568147,"2026-08-16 09:00:00","20857","1.48","115.9","2.189","108.8","1014.797","30.12","53.29","NAN","0.0"],
    [1568148,"2026-08-16 09:10:00","20858","1.53","139.2","2.6460000000000004","172.1","1014.7919999999999","30.73","50.67","NAN","0.0"],
    [1568149,"2026-08-16 09:20:00","20859","2.033","135.8","3.332","150.4","1014.7869999999999","30.78","49.9","NAN","0.0"],
    [1568150,"2026-08-16 09:30:00","20860","2.144","134.8","3.299","175.6","1014.763","31.03","50.27","NAN","0.0"],
    [1568151,"2026-08-16 09:40:00","20861","2.907","167.7","4.312","170.2","1014.67","31.05","51.13","NAN","0.0"],
    [1568152,"2026-08-16 09:50:00","20862","3.511","172.3","5.553","172.9","1014.7689999999999","30.12","60.91","NAN","0.0"],
    [1568153,"2026-08-16 10:00:00","20863","3.688","171.9","5.357","177.0","1014.818","29.89","62.77","NAN","0.0"],
    [1568154,"2026-08-16 10:10:00","20864","3.432","169.2","4.965","172.4","1014.824","30.06","61.8","NAN","0.0"],
    [1568155,"2026-08-16 10:20:00","20865","2.885","161.3","4.606","147.4","1014.852","30.49","61.4","NAN","0.0"],
    [1568156,"2026-08-16 10:30:00","20866","3.806","168.8","5.422999999999999","183.2","1014.8639999999999","29.97","65.76","NAN","0.0"],
    [1568157,"2026-08-16 10:40:00","20867","3.88","175.4","5.39","178.4","1014.875","29.76","67.74","NAN","0.0"],
    [1568158,"2026-08-16 10:50:00","20868","4.221","177.5","5.978","173.3","1014.8480000000001","29.69","70.35","NAN","0.0"],
    [1568159,"2026-08-16 11:00:00","20869","3.511","167.4","5.227","162.0","1014.84","29.85","70.39","NAN","0.0"],
    [1568160,"2026-08-16 11:10:00","20870","3.306","165.1","6.042999999999999","174.9","1014.835","30.01","69.39","NAN","0.0"],
    [1568161,"2026-08-16 11:20:00","20871","3.56","170.1","5.357","180.2","1014.732","30.15","70.43","NAN","0.0"],
    [1568162,"2026-08-16 11:30:00","20872","4.148","174.3","6.5329999999999995","177.8","1014.6260000000001","29.95","70.83","NAN","0.0"],
    [1568163,"2026-08-16 11:40:00","20873","3.6189999999999998","176.1","6.042999999999999","172.7","1014.6210000000001","30.33","68.41","NAN","0.0"],
    [1568164,"2026-08-16 11:50:00","20874","2.96","180.6","5.521","176.2","1014.602","30.92","63.84","NAN","0.0"],
    [1568165,"2026-08-16 12:00:00","20875","3.7969999999999997","174.2","6.1739999999999995","173.9","1014.633","30.71","66.19","NAN","0.0"],
    [1568166,"2026-08-16 12:10:00","20876","2.938","174.1","4.802","157.0","1014.612","30.9","63.8","NAN","0.0"],
    [1568167,"2026-08-16 12:20:00","20877","3.245","169.6","5.521","173.5","1014.5169999999999","31.16","61.87","NAN","0.0"],
    [1568168,"2026-08-16 12:30:00","20878","3.407","172.5","5.1610000000000005","175.0","1014.456","31.43","58.18","NAN","0.0"],
    [1568169,"2026-08-16 12:40:00","20879","3.247","176.3","5.455","169.2","1014.4019999999999","31.48","58.2","NAN","0.0"],
    [1568170,"2026-08-16 12:50:00","20880","3.055","182.6","5.88","179.0","1014.528","31.39","58.85","NAN","0.0"],
    [1568171,"2026-08-16 13:00:00","20881","3.139","182.8","6.109","172.6","1014.678","30.94","60.93","NAN","0.0"],
    [1568172,"2026-08-16 13:10:00","20882","2.49","186.3","5.1610000000000005","206.0","1014.826","30.4","63.8","NAN","0.0"],
    [1568173,"2026-08-16 13:20:00","20883","2.384","195.2","5.194","185.7","1014.846","30.39","65.07","NAN","0.0"],
    [1568174,"2026-08-16 13:30:00","20884","2.374","190.7","4.802","196.0","1014.816","30.2","64.79","NAN","0.0"],
    [1568175,"2026-08-16 13:40:00","20885","2.181","192.8","3.7569999999999997","203.4","1014.791","30.33","62.65","NAN","0.0"],
    [1568176,"2026-08-16 13:50:00","20886","1.7730000000000001","194.0","3.7889999999999997","173.2","1014.81","30.35","62.64","NAN","0.0"],
    [1568177,"2026-08-16 14:00:00","20887","1.8730000000000002","191.2","3.7569999999999997","171.8","1014.783","30.61","63.38","NAN","0.0"],
    [1568178,"2026-08-16 14:10:00","20888","2.017","196.9","4.573","177.2","1014.6060000000001","30.51","63.57","NAN","0.0"],
    [1568179,"2026-08-16 14:20:00","20889","2.144","193.5","5.096","201.4","1014.7410000000001","30.44","64.04","NAN","0.0"],
    [1568180,"2026-08-16 14:30:00","20890","1.891","215.0","4.508","235.7","1014.788","30.63","62.06","NAN","0.0"],
    [1568181,"2026-08-16 14:40:00","20891","1.5330000000000001","196.9","3.234","194.2","1014.7860000000001","30.7","63.21","NAN","0.0"],
    [1568182,"2026-08-16 14:50:00","20892","1.558","202.4","3.7569999999999997","210.4","1014.6460000000001","30.76","62.71","NAN","0.0"],
    [1568183,"2026-08-16 15:00:00","20893","1.682","195.3","3.299","176.9","1014.539","30.64","64.09","NAN","0.0"],
    [1568184,"2026-08-16 15:10:00","20894","1.88","186.1","3.397","190.9","1014.467","30.4","64.63","NAN","0.0"],
    [1568185,"2026-08-16 15:20:00","20895","1.952","181.0","3.528","174.8","1014.3610000000001","30.37","64.16","NAN","0.0"],
    [1568186,"2026-08-16 15:30:00","20896","2.656","167.7","4.345","168.9","1014.335","30.25","63.72","NAN","0.0"],
    [1568187,"2026-08-16 15:40:00","20897","2.307","168.9","3.7889999999999997","143.7","1014.3430000000001","30.27","64.63","NAN","0.0"],
    [1568188,"2026-08-16 15:50:00","20898","1.766","188.8","3.397","198.1","1014.342","30.29","65.21","NAN","0.0"],
    [1568189,"2026-08-16 16:00:00","20899","1.734","194.7","3.593","235.0","1014.2439999999999","30.36","65.47","NAN","0.0"],
    [1568190,"2026-08-16 16:10:00","20900","1.52","170.9","3.136","169.0","1014.188","30.28","66.14","NAN","0.0"],
    [1568191,"2026-08-16 16:20:00","20901","1.8940000000000001","166.6","3.9530000000000003","179.4","1014.301","30.2","68","NAN","0.0"],
    [1568192,"2026-08-16 16:30:00","20902","2.12","169.0","3.495","175.8","1014.5989999999999","30.03","69.44","NAN","0.0"],
    [1568193,"2026-08-16 16:40:00","20903","2.037","170.0","3.1689999999999996","175.9","1014.826","29.94","70.08","NAN","0.0"],
    [1568194,"2026-08-16 16:50:00","20904","2.246","135.6","3.593","163.4","1014.676","29.89","71.78","NAN","0.0"],
    [1568195,"2026-08-16 17:00:00","20905","2.025","172.3","3.234","156.3","1014.4169999999999","29.86","71.99","NAN","0.0"],
    [1568196,"2026-08-16 17:10:00","20906","2.21","174.0","3.659","180.1","1014.347","29.85","72.51","NAN","0.0"],
    [1568197,"2026-08-16 17:20:00","20907","1.851","152.0","3.136","134.0","1014.432","29.81","73.05","NAN","0.0"],
    [1568198,"2026-08-16 17:30:00","20908","1.8780000000000001","148.8","3.267","157.2","1014.35","29.65","73.74","NAN","0.0"],
    [1568199,"2026-08-16 17:40:00","20909","1.6569999999999998","145.1","2.6460000000000004","132.9","1014.3430000000001","29.58","73.94","NAN","0.0"],
    [1568200,"2026-08-16 17:50:00","20910","1.588","167.8","2.94","162.1","1014.3430000000001","29.6","74.15","NAN","0.0"],
    [1568201,"2026-08-16 18:00:00","20911","1.61","144.4","3.071","161.9","1014.437","29.5","74.28","NAN","0.0"],
    [1568202,"2026-08-16 18:10:00","20912","1.841","120.6","3.071","109.4","1014.387","29.47","74.33","NAN","0.0"],
    [1568203,"2026-08-16 18:20:00","20913","1.381","141.3","2.0909999999999997","179.3","1014.385","29.38","74.09","NAN","0.0"],
    [1568204,"2026-08-16 18:30:00","20914","1.0270000000000001","148.2","1.666","155.6","1014.47","29.39","74.16","NAN","0.0"],
    [1568205,"2026-08-16 18:40:00","20915","1.026","142.8","1.8619999999999999","147.4","1014.559","29.38","74.55","NAN","0.0"],
    [1568206,"2026-08-16 18:50:00","20916","1.166","157.7","2.123","156.7","1014.612","29.24","74.92","NAN","0.0"],
    [1568207,"2026-08-16 19:00:00","20917","0.841","169.5","1.535","174.5","1014.654","29.15","76.22","NAN","0.0"],
    [1568208,"2026-08-16 19:10:00","20918","1.545","105.5","2.842","113.4","1014.789","29.17","75.94","NAN","0.0"],
    [1568209,"2026-08-16 19:20:00","20919","1.5419999999999998","72.42","2.94","67.86","1015.0","28.9","76.83","NAN","0.0"],
    [1568210,"2026-08-16 19:30:00","20920","1.886","86.8","3.43","106.9","1015.075","28.68","76.95","NAN","0.0"],
    [1568211,"2026-08-16 19:40:00","20921","1.28","99.6","2.6460000000000004","105.6","1015.043","28.66","76.43","NAN","0.0"],
    [1568212,"2026-08-16 19:50:00","20922","1.916","104.2","2.9730000000000003","106.0","1015.092","28.64","77.2","NAN","0.0"],
    [1568213,"2026-08-16 20:00:00","20923","1.32","131.1","2.254","105.6","1015.12","28.54","78.03","NAN","0.0"],
    [1568214,"2026-08-16 20:10:00","20924","1.266","145.6","2.515","148.4","1015.302","28.54","78.82","NAN","0.0"],
    [1568215,"2026-08-16 20:20:00","20925","0.993","147.1","2.221","155.9","1015.434","28.52","79.22","NAN","0.0"],
    [1568216,"2026-08-16 20:30:00","20926","1.0590000000000002","168.4","2.025","154.9","1015.586","28.54","80","NAN","0.0"],
    [1568217,"2026-08-16 20:40:00","20927","0.7140000000000001","171.0","1.829","183.1","1015.6610000000001","28.47","81.7","NAN","0.0"],
    [1568218,"2026-08-16 20:50:00","20928","0.368","144.8","1.078","121.8","1015.7130000000001","28.53","81.8","NAN","0.0"],
    [1568219,"2026-08-16 21:00:00","20929","0.861","147.7","1.3719999999999999","162.6","1015.7080000000001","28.49","83.1","NAN","0.0"],
    [1568220,"2026-08-16 21:10:00","20930","0.479","121.9","1.078","108.7","1015.76","28.51","83.1","NAN","0.0"],
    [1568221,"2026-08-16 21:20:00","20931","0.8079999999999999","127.8","1.5030000000000001","151.1","1015.773","28.59","82.9","NAN","0.0"],
    [1568222,"2026-08-16 21:30:00","20932","1.35","90.5","2.0909999999999997","65.02","1015.837","28.6","82.7","NAN","0.0"],
    [1568223,"2026-08-16 21:40:00","20933","0.773","102.7","1.666","96.9","1015.945","28.55","82.9","NAN","0.0"],
    [1568224,"2026-08-16 21:50:00","20934","0.9059999999999999","105.9","1.601","114.2","1015.9069999999999","28.57","82.9","NAN","0.0"],
    [1568225,"2026-08-16 22:00:00","20935","0.782","86.9","1.895","67.36","1015.865","28.58","83.2","NAN","0.0"],
    [1568226,"2026-08-16 22:10:00","20936","0.991","82.5","1.8619999999999999","74.57","1016.0089999999999","28.54","83.1","NAN","0.0"],
    [1568227,"2026-08-16 22:20:00","20937","1.091","72.13","2.221","86.2","1016.084","28.56","83.5","NAN","0.0"],
    [1568228,"2026-08-16 22:30:00","20938","1.038","71.1","2.025","86.9","1016.0889999999999","28.49","83","NAN","0.0"],
    [1568229,"2026-08-16 22:40:00","20939","1.237","88.2","2.287","72.67","1016.1160000000001","28.48","83.1","NAN","0.0"],
    [1568230,"2026-08-16 22:50:00","20940","1.2919999999999998","84.1","2.123","96.4","1016.0939999999999","28.45","82.6","NAN","0.0"],
    [1568231,"2026-08-16 23:00:00","20941","1.178","68.32","2.319","102.7","1016.0360000000001","28.42","83.3","NAN","0.0"],
    [1568232,"2026-08-16 23:10:00","20942","1.137","62.25","2.907","49.74","1015.9639999999999","28.28","82.7","NAN","0.0"],
    [1568233,"2026-08-16 23:20:00","20943","1.235","47.97","2.5810000000000004","29.9","1015.972","28.19","81.2","NAN","0.0"],
    [1568234,"2026-08-16 23:30:00","20944","1.122","51.21","2.45","47.98","1015.985","28.16","80.5","NAN","0.0"],
    [1568235,"2026-08-16 23:40:00","20945","1.2670000000000001","50.04","2.842","27.64","1015.9889999999999","28.15","79.86","NAN","0.0"],
    [1568236,"2026-08-16 23:50:00","20946","0.941","58.07","1.96","37.6","1015.995","28.15","79.49","NAN","0.0"],
    [1568237,"2026-08-17 00:00:00","20947","1.01","58.4","2.123","63.95","1016.039","28.1","79.84","NAN","0.0"],
    [1568238,"2026-08-17 00:10:00","20948","0.7340000000000001","62.02","1.633","48.52","1016.072","28.11","79.63","NAN","0.0"],
    [1568239,"2026-08-17 00:20:00","20949","0.951","52.06","2.0580000000000003","66.71","1016.039","28.12","79.38","NAN","0.0"],
    [1568240,"2026-08-17 00:30:00","20950","0.726","50.32","1.764","68.43","1016.084","28.08","79.44","NAN","0.0"],
    [1568241,"2026-08-17 00:40:00","20951","0.988","50.47","2.156","69.25","1015.9169999999999","28","79.68","NAN","0.0"],
    [1568242,"2026-08-17 00:50:00","20952","0.731","56.5","1.993","72.27","1015.842","28.11","78.88","NAN","0.0"],
    [1568243,"2026-08-17 01:00:00","20953","0.753","77.24","1.699","69.04","1015.837","28.02","78.86","NAN","0.0"],
    [1568244,"2026-08-17 01:10:00","20954","0.389","47.53","1.013","59.96","1015.895","28.05","78.48","NAN","0.0"],
    [1568245,"2026-08-17 01:20:00","20955","0.324","39.76","0.784","20.24","1015.7669999999999","27.93","79.23","NAN","0.0"],
    [1568246,"2026-08-17 01:30:00","20956","0.621","39.96","1.307","63.45","1015.705","27.92","79.51","NAN","0.0"],
    [1568247,"2026-08-17 01:40:00","20957","0.075","186.1","0.523","180.4","1015.7180000000001","27.85","79.92","NAN","0.0"],
    [1568248,"2026-08-17 01:50:00","20958","0.0","0.0","0.0","0.0","1015.7080000000001","27.88","80.5","NAN","0.0"],
    [1568249,"2026-08-17 02:00:00","20959","0.035","241.1","0.425","230.5","1015.695","27.86","80.9","NAN","0.0"],
    [1568250,"2026-08-17 02:10:00","20960","0.127","86.5","0.882","59.85","1015.5930000000001","27.81","81.8","NAN","0.0"],
    [1568251,"2026-08-17 02:20:00","20961","0.846","44.59","1.633","45.42","1015.5830000000001","27.58","79.78","NAN","0.0"],
    [1568252,"2026-08-17 02:30:00","20962","0.524","24.9","1.601","39.31","1015.653","27.54","76.76","NAN","0.0"],
    [1568253,"2026-08-17 02:40:00","20963","0.565","33.3","1.568","42.01","1015.683","27.44","74.07","NAN","0.0"],
    [1568254,"2026-08-17 02:50:00","20964","0.619","29.79","1.5030000000000001","31.37","1015.5980000000001","27.49","69.12","NAN","0.0"],
    [1568255,"2026-08-17 03:00:00","20965","0.7240000000000001","13.14","1.699","10.62","1015.5310000000001","27.54","66.54","NAN","0.0"],
    [1568256,"2026-08-17 03:10:00","20966","0.958","33.41","1.96","30.05","1015.4689999999999","27.51","66.18","NAN","0.0"],
    [1568257,"2026-08-17 03:20:00","20967","0.898","15.09","2.254","12.63","1015.4639999999999","27.43","66.36","NAN","0.0"],
    [1568258,"2026-08-17 03:30:00","20968","1.047","26.55","2.189","26.61","1015.3760000000001","27.32","66.29","NAN","0.0"],
    [1568259,"2026-08-17 03:40:00","20969","0.5539999999999999","12.33","1.405","38.79","1015.289","27.37","65.3","NAN","0.0"],
    [1568260,"2026-08-17 03:50:00","20970","1.044","9.56","2.221","28.81","1015.2689999999999","27.33","64.57","NAN","0.0"],
    [1568261,"2026-08-17 04:00:00","20971","0.968","11.92","2.679","13.81","1015.329","27.24","64.18","NAN","0.0"],
    [1568262,"2026-08-17 04:10:00","20972","1.18","8.99","2.319","8.25","1015.317","27.15","63.51","NAN","0.0"],
    [1568263,"2026-08-17 04:20:00","20973","0.657","21.15","1.993","27.0","1015.232","27.04","63.29","NAN","0.0"],
    [1568264,"2026-08-17 04:30:00","20974","0.653","1.001","1.5030000000000001","34.74","1015.202","27.09","62.77","NAN","0.0"],
    [1568265,"2026-08-17 04:40:00","20975","0.6779999999999999","17.26","1.47","25.03","1015.2139999999999","27.05","63.74","NAN","0.0"],
    [1568266,"2026-08-17 04:50:00","20976","0.318","27.2","1.339","22.48","1015.1419999999999","27.03","64.74","NAN","0.0"],
    [1568267,"2026-08-17 05:00:00","20977","0.498","24.79","1.601","44.17","1015.21","27.16","64.92","NAN","0.0"],
    [1568268,"2026-08-17 05:10:00","20978","1.0590000000000002","20.09","1.993","31.89","1015.3689999999999","26.91","66.44","NAN","0.0"],
    [1568269,"2026-08-17 05:20:00","20979","1.25","8.75","2.45","13.39","1015.449","26.87","65.87","NAN","0.0"],
    [1568270,"2026-08-17 05:30:00","20980","0.631","29.93","1.568","19.81","1015.448","26.94","66.05","NAN","0.0"],
    [1568271,"2026-08-17 05:40:00","20981","0.62","15.15","2.0909999999999997","34.86","1015.3860000000001","26.95","67.53","NAN","0.0"],
    [1568272,"2026-08-17 05:50:00","20982","0.433","4.925","1.209","13.59","1015.441","27.23","67.06","NAN","0.0"],
    [1568273,"2026-08-17 06:00:00","20983","0.602","57.25","1.405","51.08","1015.456","27.49","66.98","NAN","0.0"],
    [1568274,"2026-08-17 06:10:00","20984","0.516","60.95","1.013","72.78","1015.4639999999999","27.58","66.36","NAN","0.0"],
    [1568275,"2026-08-17 06:20:00","20985","0.847","57.09","1.5030000000000001","55.4","1015.4939999999999","27.78","66.05","NAN","0.0"],
    [1568276,"2026-08-17 06:30:00","20986","0.7190000000000001","75.93","1.274","69.57","1015.596","28.18","64.57","NAN","0.0"],
    [1568277,"2026-08-17 06:40:00","20987","0.267","119.2","0.915","112.6","1015.711","28.53","64.58","NAN","0.0"],
    [1568278,"2026-08-17 06:50:00","20988","0.698","125.6","1.307","141.3","1015.75","28.51","65.35","NAN","0.0"],
    [1568279,"2026-08-17 07:00:00","20989","1.057","125.4","1.535","144.5","1015.73","28.12","68.77","NAN","0.0"],
    [1568280,"2026-08-17 07:10:00","20990","1.153","109.1","1.7309999999999999","118.2","1015.715","28.54","67.9","NAN","0.0"],
    [1568281,"2026-08-17 07:20:00","20991","1.308","121.8","1.9269999999999998","111.3","1015.71","28.59","68.31","NAN","0.0"],
    [1568282,"2026-08-17 07:30:00","20992","1.153","116.7","1.666","111.7","1015.694","28.78","67.75","NAN","0.0"],
    [1568283,"2026-08-17 07:40:00","20993","0.997","113.0","1.797","108.2","1015.7339999999999","28.99","67.94","NAN","0.0"],
    [1568284,"2026-08-17 07:50:00","20994","1.249","131.1","1.797","101.7","1015.7139999999999","29.18","67.52","NAN","0.0"],
    [1568285,"2026-08-17 08:00:00","20995","1.351","127.7","2.254","113.5","1015.801","29.23","66.78","NAN","0.0"],
    [1568286,"2026-08-17 08:10:00","20996","2.049","111.5","3.136","115.9","1015.803","29.42","62.68","NAN","0.0"],
    [1568287,"2026-08-17 08:20:00","20997","2.266","112.5","3.234","116.5","1015.805","29.29","61.78","NAN","0.0"],
    [1568288,"2026-08-17 08:30:00","20998","2.258","109.0","2.842","108.3","1015.868","29.38","63.3","NAN","0.0"],
    [1568289,"2026-08-17 08:40:00","20999","1.919","117.5","3.005","113.0","1015.898","29.62","64.9","NAN","0.0"],
    [1568290,"2026-08-17 08:50:00","21000","1.994","124.5","3.6910000000000003","103.1","1016.018","29.47","64.69","NAN","0.0"],
    [1568291,"2026-08-17 09:00:00","21001","2.037","125.5","3.071","114.9","1016.09","29.15","66.23","NAN","0.0"],
    [1568292,"2026-08-17 09:10:00","21002","2.084","124.0","2.94","103.1","1016.158","29.15","67.81","NAN","0.0"],
    [1568293,"2026-08-17 09:20:00","21003","2.117","121.6","3.1689999999999996","107.4","1016.137","29.08","70.49","NAN","0.0"],
    [1568294,"2026-08-17 09:30:00","21004","2.364","118.2","3.528","110.1","1016.177","29.19","72.57","NAN","0.0"],
    [1568295,"2026-08-17 09:40:00","21005","2.379","125.2","3.5610000000000004","107.5","1016.1389999999999","29.24","74.51","NAN","0.0"],
    [1568296,"2026-08-17 09:50:00","21006","2.258","146.0","3.985","159.5","1016.145","29.3","75.77","NAN","0.0"],
    [1568297,"2026-08-17 10:00:00","21007","2.366","131.6","4.1160000000000005","117.5","1016.12","29.54","75.69","NAN","0.0"],
    [1568298,"2026-08-17 10:10:00","21008","2.517","132.9","4.41","110.2","1016.1060000000001","29.69","74.97","NAN","0.0"],
    [1568299,"2026-08-17 10:20:00","21009","2.3609999999999998","146.3","4.769","147.4","1016.168","29.64","75.51","NAN","0.0"],
    [1568300,"2026-08-17 10:30:00","21010","2.476","141.3","4.933","105.9","1016.137","29.87","75.27","NAN","0.0"],
    [1568301,"2026-08-17 10:40:00","21011","2.484","179.0","4.508","171.6","1016.1289999999999","30.08","74.37","NAN","0.0"],
    [1568302,"2026-08-17 10:50:00","21012","2.944","180.6","5.129","181.2","1016.143","29.97","74.54","NAN","0.0"],
    [1568303,"2026-08-17 11:00:00","21013","2.597","179.0","4.606","160.9","1016.0160000000001","30.08","73.89","NAN","0.0"],
    [1568304,"2026-08-17 11:10:00","21014","3.1630000000000003","181.7","5.031000000000001","183.7","1015.933","30.03","73.45","NAN","0.0"],
    [1568305,"2026-08-17 11:20:00","21015","3.11","177.4","4.933","173.4","1015.9830000000001","29.92","73.67","NAN","0.0"],
    [1568306,"2026-08-17 11:30:00","21016","3.372","176.2","4.998","165.8","1015.931","30.01","73.13","NAN","0.0"],
    [1568307,"2026-08-17 11:40:00","21017","3.5010000000000003","175.0","5.1610000000000005","172.5","1015.841","29.93","73.34","NAN","0.0"],
    [1568308,"2026-08-17 11:50:00","21018","3.259","179.5","5.031000000000001","170.5","1015.888","30.13","72.51","NAN","0.0"],
    [1568309,"2026-08-17 12:00:00","21019","3.384","176.7","5.129","179.4","1016.0","30.17","72.3","NAN","0.0"],
    [1568310,"2026-08-17 12:10:00","21020","3.845","174.0","5.88","172.6","1015.919","30","71.44","NAN","0.0"],
    [1568311,"2026-08-17 12:20:00","21021","3.5810000000000004","174.7","6.042999999999999","178.1","1015.835","30.26","69.99","NAN","0.0"],
    [1568312,"2026-08-17 12:30:00","21022","3.6060000000000003","174.5","6.566","179.2","1015.82","30.23","70.66","NAN","0.0"],
    [1568313,"2026-08-17 12:40:00","21023","3.611","177.0","5.978","178.9","1015.78","30.31","69.59","NAN","0.0"],
    [1568314,"2026-08-17 12:50:00","21024","3.7039999999999997","173.2","5.782","172.3","1015.615","30.14","71.46","NAN","0.0"],
    [1568315,"2026-08-17 13:00:00","21025","3.714","175.8","5.422999999999999","178.6","1015.495","30.15","72.53","NAN","0.0"],
    [1568316,"2026-08-17 13:10:00","21026","3.673","181.0","6.566","179.0","1015.5010000000001","30.46","68.88","NAN","0.0"],
    [1568317,"2026-08-17 13:20:00","21027","3.324","175.6","5.455","175.8","1015.5880000000001","30.01","70.93","NAN","0.0"],
    [1568318,"2026-08-17 13:30:00","21028","3.3739999999999997","173.3","4.769","166.0","1015.562","29.65","72.61","NAN","0.0"],
    [1568319,"2026-08-17 13:40:00","21029","2.5869999999999997","183.4","5.031000000000001","164.9","1015.421","29.8","71.85","NAN","0.0"],
    [1568320,"2026-08-17 13:50:00","21030","2.336","192.1","4.737","156.6","1015.3689999999999","29.92","70.84","NAN","0.0"],
    [1568321,"2026-08-17 14:00:00","21031","2.4","188.5","4.247","194.0","1015.3330000000001","30.02","69.09","NAN","0.0"],
    [1568322,"2026-08-17 14:10:00","21032","1.966","187.9","3.985","170.6","1015.289","30.54","68.22","NAN","0.0"],
    [1568323,"2026-08-17 14:20:00","21033","2.8089999999999997","175.4","5.521","171.4","1015.183","30.66","67.41","NAN","0.0"],
    [1568324,"2026-08-17 14:30:00","21034","3.55","173.1","5.325","184.2","1015.057","30.36","69.45","NAN","0.0"],
    [1568325,"2026-08-17 14:40:00","21035","3.072","177.0","5.455","181.0","1014.8489999999999","30.25","69.89","NAN","0.0"],
    [1568326,"2026-08-17 14:50:00","21036","2.237","192.6","4.867","176.4","1014.7760000000001","30.93","68.45","NAN","0.0"],
    [1568327,"2026-08-17 15:00:00","21037","2.0669999999999997","198.9","5.096","177.8","1014.704","30.73","68.9","NAN","0.0"],
    [1568328,"2026-08-17 15:10:00","21038","2.68","186.5","4.802","175.4","1014.67","31.11","64.54","NAN","0.0"],
    [1568329,"2026-08-17 15:20:00","21039","2.556","183.7","4.835","178.4","1014.555","30.72","66.53","NAN","0.0"],
    [1568330,"2026-08-17 15:30:00","21040","2.498","190.6","4.671","184.2","1014.7710000000001","30.98","68.33","NAN","0.0"],
    [1568331,"2026-08-17 15:40:00","21041","2.0580000000000003","190.8","3.92","173.4","1014.696","30.77","68.86","NAN","0.0"],
    [1568332,"2026-08-17 15:50:00","21042","2.5869999999999997","179.6","5.325","162.9","1014.765","30.08","72.66","NAN","0.0"],
    [1568333,"2026-08-17 16:00:00","21043","2.392","182.6","5.325","174.1","1014.709","29.94","73.5","NAN","0.0"],
    [1568334,"2026-08-17 16:10:00","21044","1.946","189.0","4.279","173.0","1014.735","30.03","71.69","NAN","0.0"],
    [1568335,"2026-08-17 16:20:00","21045","1.7280000000000002","191.3","3.103","171.0","1014.813","30.02","71.5","NAN","0.0"],
    [1568336,"2026-08-17 16:30:00","21046","2.115","179.1","3.9530000000000003","168.2","1014.659","29.85","72.94","NAN","0.0"],
    [1568337,"2026-08-17 16:40:00","21047","2.153","175.2","3.593","202.1","1014.809","29.7","74.08","NAN","0.0"],
    [1568338,"2026-08-17 16:50:00","21048","1.93","185.0","3.7569999999999997","178.9","1014.721","29.78","72.16","NAN","0.0"],
    [1568339,"2026-08-17 17:00:00","21049","1.45","198.3","3.234","166.0","1014.681","29.81","72.23","NAN","0.0"],
    [1568340,"2026-08-17 17:10:00","21050","1.66","178.5","2.94","159.0","1014.801","29.82","73.19","NAN","0.0"],
    [1568341,"2026-08-17 17:20:00","21051","1.626","170.8","3.005","160.5","1014.684","29.62","74.25","NAN","0.0"],
    [1568342,"2026-08-17 17:30:00","21052","1.93","171.8","3.0380000000000003","184.7","1014.507","29.58","74.15","NAN","0.0"],
    [1568343,"2026-08-17 17:40:00","21053","1.557","172.6","2.907","160.7","1014.4639999999999","29.58","74.23","NAN","0.0"],
    [1568344,"2026-08-17 17:50:00","21054","1.4680000000000002","175.4","2.6460000000000004","180.5","1014.497","29.55","73.76","NAN","0.0"],
    [1568345,"2026-08-17 18:00:00","21055","1.379","171.0","2.221","153.8","1014.584","29.53","74.06","NAN","0.0"],
    [1568346,"2026-08-17 18:10:00","21056","1.5419999999999998","174.7","2.613","211.0","1014.5939999999999","29.51","73.87","NAN","0.0"],
    [1568347,"2026-08-17 18:20:00","21057","1.234","163.4","2.156","161.2","1014.7689999999999","29.44","73.91","NAN","0.0"],
    [1568348,"2026-08-17 18:30:00","21058","0.878","177.5","2.123","161.3","1014.8380000000001","29.47","73.74","NAN","0.0"],
    [1568349,"2026-08-17 18:40:00","21059","1.111","177.1","1.8619999999999999","157.0","1014.7860000000001","29.48","74.11","NAN","0.0"],
    [1568350,"2026-08-17 18:50:00","21060","1.156","168.9","1.8619999999999999","159.8","1014.801","29.41","74.72","NAN","0.0"],
    [1568351,"2026-08-17 19:00:00","21061","1.3880000000000001","172.9","2.189","174.9","1014.8380000000001","29.29","74.98","NAN","0.0"],
    [1568352,"2026-08-17 19:10:00","21062","1.215","148.4","2.025","151.1","1014.841","29.31","74.82","NAN","0.0"],
    [1568353,"2026-08-17 19:20:00","21063","1.138","161.1","1.895","154.9","1014.841","29.3","74.77","NAN","0.0"],
    [1568354,"2026-08-17 19:30:00","21064","1.21","159.2","1.9269999999999998","153.4","1014.966","29.28","74.91","NAN","0.0"],
    [1568355,"2026-08-17 19:40:00","21065","0.973","155.3","1.895","157.8","1015.058","29.3","74.74","NAN","0.0"],
    [1568356,"2026-08-17 19:50:00","21066","0.76","161.1","1.4369999999999998","175.6","1015.207","29.29","75.23","NAN","0.0"],
    [1568357,"2026-08-17 20:00:00","21067","0.777","160.8","1.307","158.6","1015.337","29.28","75.36","NAN","0.0"],
    [1568358,"2026-08-17 20:10:00","21068","0.91","159.9","1.3719999999999999","155.1","1015.3389999999999","29.27","75.5","NAN","0.0"],
    [1568359,"2026-08-17 20:20:00","21069","1.003","171.4","1.601","162.4","1015.2919999999999","29.24","75.56","NAN","0.0"],
    [1568360,"2026-08-17 20:30:00","21070","0.727","175.3","1.4369999999999998","191.3","1015.3389999999999","29.2","76.1","NAN","0.0"],
    [1568361,"2026-08-17 20:40:00","21071","0.27699999999999997","151.5","1.176","141.3","1015.444","29.2","75.85","NAN","0.0"],
    [1568362,"2026-08-17 20:50:00","21072","0.302","160.6","0.7190000000000001","169.6","1015.4889999999999","29.3","75.18","NAN","0.0"],
    [1568363,"2026-08-17 21:00:00","21073","0.39","162.9","0.9470000000000001","132.1","1015.581","29.26","75.49","NAN","0.0"],
    [1568364,"2026-08-17 21:10:00","21074","0.7020000000000001","158.9","1.339","133.3","1015.663","29.15","76.41","NAN","0.0"],
    [1568365,"2026-08-17 21:20:00","21075","0.5820000000000001","132.2","1.339","133.3","1015.61","29.09","76.87","NAN","0.0"],
    [1568366,"2026-08-17 21:30:00","21076","0.43200000000000005","134.3","0.8490000000000001","144.5","1015.4839999999999","29.07","78","NAN","0.0"],
    [1568367,"2026-08-17 21:40:00","21077","0.557","136.7","1.2409999999999999","143.1","1015.4839999999999","28.92","77.61","NAN","0.0"],
    [1568368,"2026-08-17 21:50:00","21078","0.345","124.4","0.784","135.1","1015.591","29.02","77.21","NAN","0.0"],
    [1568369,"2026-08-17 22:00:00","21079","0.023","132.4","0.653","137.1","1015.6210000000001","29.12","76.97","NAN","0.0"],
    [1568370,"2026-08-17 22:10:00","21080","0.589","144.3","1.209","132.8","1015.5210000000001","28.98","77.43","NAN","0.0"],
    [1568371,"2026-08-17 22:20:00","21081","0.23","143.3","0.7190000000000001","136.4","1015.4689999999999","28.96","78.53","NAN","0.0"],
    [1568372,"2026-08-17 22:30:00","21082","0.214","141.1","0.7509999999999999","153.3","1015.5060000000001","28.85","79.16","NAN","0.0"],
    [1568373,"2026-08-17 22:40:00","21083","0.507","141.6","0.8170000000000001","142.6","1015.513","28.78","78.97","NAN","0.0"],
    [1568374,"2026-08-17 22:50:00","21084","0.47200000000000003","137.5","0.915","148.0","1015.466","28.77","78.66","NAN","0.0"],
    [1568375,"2026-08-17 23:00:00","21085","0.617","169.5","0.98","182.7","1015.3610000000001","28.76","79.64","NAN","0.0"],
    [1568376,"2026-08-17 23:10:00","21086","0.45","139.6","1.111","136.4","1015.424","28.68","79.98","NAN","0.0"],
    [1568377,"2026-08-17 23:20:00","21087","0.157","150.4","0.457","148.4","1015.459","28.75","80.3","NAN","0.0"],
    [1568378,"2026-08-17 23:30:00","21088","0.442","154.4","1.045","175.8","1015.4010000000001","28.64","81.4","NAN","0.0"],
    [1568379,"2026-08-17 23:40:00","21089","0.304","174.8","0.7190000000000001","182.6","1015.434","28.61","82.2","NAN","0.0"],
    [1568380,"2026-08-17 23:50:00","21090","0.396","151.4","0.8170000000000001","151.5","1015.4010000000001","28.49","82.5","NAN","0.0"],
    [1568381,"2026-08-18 00:00:00","21091","0.364","148.3","0.7509999999999999","141.9","1015.342","28.52","82.3","NAN","0.0"],
    [1568382,"2026-08-18 00:10:00","21092","0.568","147.2","0.98","147.1","1015.3389999999999","28.48","82.4","NAN","0.0"],
    [1568383,"2026-08-18 00:20:00","21093","0.478","141.5","0.8170000000000001","148.4","1015.3389999999999","28.52","83","NAN","0.0"],
    [1568384,"2026-08-18 00:30:00","21094","0.26","156.4","0.7509999999999999","179.2","1015.337","28.46","83.5","NAN","0.0"],
    [1568385,"2026-08-18 00:40:00","21095","0.299","180.3","0.7509999999999999","179.6","1015.3389999999999","28.37","84.1","NAN","0.0"],
    [1568386,"2026-08-18 00:50:00","21096","0.679","174.7","1.4369999999999998","228.6","1015.3389999999999","28.28","84.4","NAN","0.0"],
    [1568387,"2026-08-18 01:00:00","21097","0.691","192.1","1.405","207.8","1015.3389999999999","28.33","82.7","NAN","0.0"],
    [1568388,"2026-08-18 01:10:00","21098","0.654","205.8","1.993","207.3","1015.3389999999999","28.44","81.2","NAN","0.0"],
    [1568389,"2026-08-18 01:20:00","21099","0.188","248.5","1.078","235.2","1015.3389999999999","28.57","80.4","NAN","0.0"],
    [1568390,"2026-08-18 01:30:00","21100","0.293","63.11","0.7509999999999999","62.91","1015.3389999999999","28.46","79.27","NAN","0.0"],
    [1568391,"2026-08-18 01:40:00","21101","0.649","73.88","1.3719999999999999","64.83","1015.3389999999999","28.38","77.97","NAN","0.0"],
    [1568392,"2026-08-18 01:50:00","21102","0.191","58.28","0.8490000000000001","64.06","1015.324","28.35","77.77","NAN","0.0"],
    [1568393,"2026-08-18 02:00:00","21103","0.726","42.36","1.405","70.82","1015.2389999999999","28.18","78.44","NAN","0.0"],
    [1568394,"2026-08-18 02:10:00","21104","0.672","27.66","1.895","27.23","1015.232","28.09","78.6","NAN","0.0"],
    [1568395,"2026-08-18 02:20:00","21105","0.638","28.72","1.699","5.705","1015.12","28.1","78.41","NAN","0.0"],
    [1568396,"2026-08-18 02:30:00","21106","0.934","31.62","2.156","30.81","1015.092","28.07","78.32","NAN","0.0"],
    [1568397,"2026-08-18 02:40:00","21107","0.794","36.37","1.568","8.64","1015.09","28","78.43","NAN","0.0"],
    [1568398,"2026-08-18 02:50:00","21108","0.518","33.8","1.2409999999999999","30.99","1015.085","27.89","78.86","NAN","0.0"],
    [1568399,"2026-08-18 03:00:00","21109","0.439","29.49","1.307","31.33","1015.015","27.87","78.79","NAN","0.0"],
    [1568400,"2026-08-18 03:10:00","21110","0.87","44.3","1.601","40.03","1015.055","27.82","78.89","NAN","0.0"],
    [1568401,"2026-08-18 03:20:00","21111","0.375","47.03","1.274","44.96","1015.005","27.76","79.01","NAN","0.0"],
    [1568402,"2026-08-18 03:30:00","21112","0.721","21.06","1.797","28.67","1015.09","27.85","78.57","NAN","0.0"],
    [1568403,"2026-08-18 03:40:00","21113","0.662","51.32","1.601","62.6","1015.107","27.86","78.37","NAN","0.0"],
    [1568404,"2026-08-18 03:50:00","21114","0.9620000000000001","40.46","1.633","23.87","1015.2","27.74","78.66","NAN","0.0"],
    [1568405,"2026-08-18 04:00:00","21115","0.688","24.96","1.47","35.24","1015.212","27.76","78.46","NAN","0.0"],
    [1568406,"2026-08-18 04:10:00","21116","0.9440000000000001","42.54","2.0580000000000003","37.77","1015.2489999999999","27.78","78.24","NAN","0.0"],
    [1568407,"2026-08-18 04:20:00","21117","0.927","17.24","1.9269999999999998","13.94","1015.2539999999999","27.72","78.43","NAN","0.0"],
    [1568408,"2026-08-18 04:30:00","21118","0.47100000000000003","15.32","1.797","60.65","1015.2489999999999","27.74","78.27","NAN","0.0"],
    [1568409,"2026-08-18 04:40:00","21119","0.738","32.38","1.568","14.87","1015.324","27.77","78.15","NAN","0.0"],
    [1568410,"2026-08-18 04:50:00","21120","0.45799999999999996","42.84","1.111","48.33","1015.3389999999999","27.58","79.22","NAN","0.0"],
    [1568411,"2026-08-18 05:00:00","21121","0.445","17.21","1.2409999999999999","8.34","1015.3639999999999","27.64","79.16","NAN","0.0"],
    [1568412,"2026-08-18 05:10:00","21122","0.35200000000000004","14.72","1.2409999999999999","22.19","1015.5139999999999","27.88","78.29","NAN","0.0"],
    [1568413,"2026-08-18 05:20:00","21123","0.48700000000000004","42.99","1.3719999999999999","42.98","1015.623","27.74","78.44","NAN","0.0"],
    [1568414,"2026-08-18 05:30:00","21124","0.55","0.177","1.7309999999999999","352.1","1015.6560000000001","27.77","78.59","NAN","0.0"],
    [1568415,"2026-08-18 05:40:00","21125","0.594","10.22","1.3719999999999999","33.15","1015.73","27.86","78.31","NAN","0.0"],
    [1568416,"2026-08-18 05:50:00","21126","0.6729999999999999","20.47","1.535","16.0","1015.78","27.9","78.25","NAN","0.0"],
    [1568417,"2026-08-18 06:00:00","21127","0.636","70.36","1.274","58.28","1015.827","28.07","77.81","NAN","0.0"],
    [1568418,"2026-08-18 06:10:00","21128","0.165","102.5","0.653","91.6","1015.877","28.44","77.23","NAN","0.0"],
    [1568419,"2026-08-18 06:20:00","21129","0.179","183.9","0.653","159.6","1015.972","28.51","78.56","NAN","0.0"],
    [1568420,"2026-08-18 06:30:00","21130","0.588","168.3","0.9470000000000001","159.9","1016.077","28.3","81.3","NAN","0.0"],
    [1568421,"2026-08-18 06:40:00","21131","0.494","135.4","0.8170000000000001","127.0","1016.096","28.21","82.8","NAN","0.0"],
    [1568422,"2026-08-18 06:50:00","21132","1.203","118.2","2.352","101.1","1016.182","28.17","81.9","NAN","0.0"],
    [1568423,"2026-08-18 07:00:00","21133","1.271","99.6","2.842","107.4","1016.326","28.42","78.78","NAN","0.0"],
    [1568424,"2026-08-18 07:10:00","21134","1.135","112.9","2.025","107.8","1016.4110000000001","29.36","75.18","NAN","0.0"],
    [1568425,"2026-08-18 07:20:00","21135","1.18","115.9","2.221","116.4","1016.561","29.12","74.83","NAN","0.0"],
    [1568426,"2026-08-18 07:30:00","21136","1.044","113.0","1.797","87.4","1016.6410000000001","29.44","70.71","NAN","0.0"],
    [1568427,"2026-08-18 07:40:00","21137","0.7170000000000001","118.2","2.025","118.1","1016.658","29.99","68.34","NAN","0.0"],
    [1568428,"2026-08-18 07:50:00","21138","1.124","116.8","2.0580000000000003","105.7","1016.53","29.58","71.35","NAN","0.0"],
    [1568429,"2026-08-18 08:00:00","21139","1.01","161.3","2.123","167.5","1016.437","29.51","72.19","NAN","0.0"],
    [1568430,"2026-08-18 08:10:00","21140","1.348","162.3","2.45","199.8","1016.415","29.58","70.94","NAN","0.0"],
    [1568431,"2026-08-18 08:20:00","21141","1.236","155.8","2.287","151.5","1016.422","29.61","70.87","NAN","0.0"],
    [1568432,"2026-08-18 08:30:00","21142","2.133","141.0","4.508","114.3","1016.419","29.74","69","NAN","0.0"],
    [1568433,"2026-08-18 08:40:00","21143","2.311","155.4","3.855","149.8","1016.328","30.19","66.31","NAN","0.0"],
    [1568434,"2026-08-18 08:50:00","21144","2.918","177.6","4.573","184.4","1016.2860000000001","30.14","68.19","NAN","0.0"],
    [1568435,"2026-08-18 09:00:00","21145","3.083","172.4","5.2589999999999995","159.4","1016.28","30.17","68","NAN","0.0"],
    [1568436,"2026-08-18 09:10:00","21146","3.245","175.0","5.521","176.4","1016.305","30.28","67.11","NAN","0.0"],
    [1568437,"2026-08-18 09:20:00","21147","3.182","174.8","4.998","138.7","1016.291","30.25","67.71","NAN","0.0"],
    [1568438,"2026-08-18 09:30:00","21148","3.36","181.3","5.651","174.6","1016.279","30.28","67.68","NAN","0.0"],
    [1568439,"2026-08-18 09:40:00","21149","2.946","176.5","4.4430000000000005","186.9","1016.2589999999999","30.35","68.03","NAN","0.0"],
    [1568440,"2026-08-18 09:50:00","21150","2.964","177.5","5.063","172.0","1016.202","30.66","64.28","NAN","0.0"],
    [1568441,"2026-08-18 10:00:00","21151","3.103","177.9","5.357","179.1","1016.11","30.61","62.61","NAN","0.0"],
    [1568442,"2026-08-18 10:10:00","21152","3.84","175.3","5.422999999999999","155.7","1016.0369999999999","30.36","63.6","NAN","0.0"],
    [1568443,"2026-08-18 10:20:00","21153","3.003","180.1","5.292000000000001","179.6","1015.952","30.51","66.26","NAN","0.0"],
    [1568444,"2026-08-18 10:30:00","21154","2.306","182.5","4.149","174.1","1015.8710000000001","31","68.2","NAN","0.0"],
    [1568445,"2026-08-18 10:40:00","21155","2.767","185.6","5.2589999999999995","172.6","1015.804","30.63","69.31","NAN","0.0"],
    [1568446,"2026-08-18 10:50:00","21156","3.1210000000000004","179.4","6.042999999999999","170.7","1015.7","30.39","69.47","NAN","0.0"],
    [1568447,"2026-08-18 11:00:00","21157","3.142","179.1","5.619","179.4","1015.7389999999999","30.41","69.29","NAN","0.0"],
    [1568448,"2026-08-18 11:10:00","21158","3.174","182.8","5.129","173.3","1015.702","30.2","71.13","NAN","0.0"],
    [1568449,"2026-08-18 11:20:00","21159","3.6039999999999996","183.2","5.815","174.1","1015.66","30.07","70.95","NAN","0.0"],
    [1568450,"2026-08-18 11:30:00","21160","3.346","183.5","6.042999999999999","157.0","1015.5880000000001","30.16","71.19","NAN","0.0"],
    [1568451,"2026-08-18 11:40:00","21161","2.717","189.4","6.501","176.5","1015.579","30.53","70.29","NAN","0.0"],
    [1568452,"2026-08-18 11:50:00","21162","3.4360000000000004","188.2","6.7620000000000005","189.3","1015.455","30.16","71.76","NAN","0.0"],
    [1568453,"2026-08-18 12:00:00","21163","3.215","186.7","5.422999999999999","195.4","1015.3810000000001","29.98","71.54","NAN","0.0"],
    [1568454,"2026-08-18 12:10:00","21164","3.3360000000000003","187.2","5.651","170.3","1015.319","30","71.42","NAN","0.0"],
    [1568455,"2026-08-18 12:20:00","21165","3.1710000000000003","187.1","6.337000000000001","171.5","1015.216","30.04","69.37","NAN","0.0"],
    [1568456,"2026-08-18 12:30:00","21166","3.312","189.6","5.945","173.9","1015.1","30.23","67.93","NAN","0.0"],
    [1568457,"2026-08-18 12:40:00","21167","3.623","191.3","6.37","178.5","1015.092","30.16","66.4","NAN","0.0"],
    [1568458,"2026-08-18 12:50:00","21168","3.1630000000000003","192.9","5.4879999999999995","189.4","1015.078","30.19","65.45","NAN","0.0"],
    [1568459,"2026-08-18 13:00:00","21169","3.353","190.0","6.207000000000001","168.4","1014.8969999999999","30.06","65.71","NAN","0.0"],
    [1568460,"2026-08-18 13:10:00","21170","3.63","189.7","6.664","181.3","1014.795","30.29","64.47","NAN","0.0"],
    [1568461,"2026-08-18 13:20:00","21171","3.738","190.7","6.827000000000001","171.0","1014.6260000000001","30.5","64.3","NAN","0.0"],
    [1568462,"2026-08-18 13:30:00","21172","4.306","185.7","7.579","186.3","1014.482","30.47","63.64","NAN","0.0"],
    [1568463,"2026-08-18 13:40:00","21173","4.372","184.8","7.513","172.4","1014.367","30.43","64.38","NAN","0.0"],
    [1568464,"2026-08-18 13:50:00","21174","4.359","184.2","6.9910000000000005","167.8","1014.2760000000001","30.09","67","NAN","0.0"],
    [1568465,"2026-08-18 14:00:00","21175","4.492","183.6","7.938","172.2","1014.1339999999999","30.06","67.22","NAN","0.0"],
    [1568466,"2026-08-18 14:10:00","21176","4.941","179.5","8.36","171.4","1014.064","30.05","67.78","NAN","0.0"],
    [1568467,"2026-08-18 14:20:00","21177","4.6080000000000005","177.2","7.4479999999999995","171.8","1013.937","30.21","67.71","NAN","0.0"],
    [1568468,"2026-08-18 14:30:00","21178","4.727","180.6","7.579","178.1","1013.828","30.18","68.8","NAN","0.0"],
    [1568469,"2026-08-18 14:40:00","21179","4.379","182.5","8.13","175.4","1013.72","30.22","69.11","NAN","0.0"],
    [1568470,"2026-08-18 14:50:00","21180","4.438","179.3","8.4","181.4","1013.698","30.1","70.49","NAN","0.0"],
    [1568471,"2026-08-18 15:00:00","21181","3.045","189.4","6.566","174.6","1013.694","30.52","69.74","NAN","0.0"],
    [1568472,"2026-08-18 15:10:00","21182","2.4","191.1","5.455","214.1","1013.65","30.72","69.61","NAN","0.0"],
    [1568473,"2026-08-18 15:20:00","21183","3.319","181.7","6.7620000000000005","174.8","1013.612","30.26","71.47","NAN","0.0"],
    [1568474,"2026-08-18 15:30:00","21184","3.443","182.3","6.697","171.4","1013.568","30.16","72.38","NAN","0.0"],
    [1568475,"2026-08-18 15:40:00","21185","3.0860000000000003","188.0","6.9910000000000005","146.7","1013.54","30.12","73.04","NAN","0.0"],
    [1568476,"2026-08-18 15:50:00","21186","2.173","194.1","4.41","211.5","1013.58","30.11","73.48","NAN","0.0"],
    [1568477,"2026-08-18 16:00:00","21187","2.617","191.3","6.957999999999999","175.0","1013.553","30.06","73.85","NAN","0.0"],
    [1568478,"2026-08-18 16:10:00","21188","2.488","185.5","5.292000000000001","164.4","1013.49","30.05","73.8","NAN","0.0"],
    [1568479,"2026-08-18 16:20:00","21189","3.302","185.1","6.0760000000000005","172.6","1013.4580000000001","30.06","73.72","NAN","0.0"],
    [1568480,"2026-08-18 16:30:00","21190","3.056","183.6","6.827000000000001","170.8","1013.44","29.8","75.04","NAN","0.0"],
    [1568481,"2026-08-18 16:40:00","21191","3.069","184.3","6.109","175.2","1013.436","29.84","75.42","NAN","0.0"],
    [1568482,"2026-08-18 16:50:00","21192","3.688","181.4","6.207000000000001","178.3","1013.431","29.67","76.18","NAN","0.0"],
    [1568483,"2026-08-18 17:00:00","21193","3.167","186.8","5.749","170.0","1013.4630000000001","29.64","76.76","NAN","0.0"],
    [1568484,"2026-08-18 17:10:00","21194","2.8539999999999996","192.8","5.227","176.8","1013.47","29.72","76.78","NAN","0.0"],
    [1568485,"2026-08-18 17:20:00","21195","2.8110000000000004","194.8","5.684","163.8","1013.373","29.68","77.04","NAN","0.0"],
    [1568486,"2026-08-18 17:30:00","21196","3.4789999999999996","189.3","6.011","176.7","1013.298","29.49","77.93","NAN","0.0"],
    [1568487,"2026-08-18 17:40:00","21197","3.3819999999999997","182.5","6.1739999999999995","172.1","1013.289","29.38","78.99","NAN","0.0"],
    [1568488,"2026-08-18 17:50:00","21198","2.759","176.5","6.239","141.7","1013.323","29.4","79.64","NAN","0.0"],
    [1568489,"2026-08-18 18:00:00","21199","3.0060000000000002","176.8","6.0760000000000005","175.7","1013.3380000000001","29.29","81.1","NAN","0.0"],
    [1568490,"2026-08-18 18:10:00","21200","2.674","182.9","4.606","176.2","1013.346","29.17","82.5","NAN","0.0"],
    [1568491,"2026-08-18 18:20:00","21201","2.972","177.2","4.802","175.3","1013.3610000000001","29.16","82.8","NAN","0.0"],
    [1568492,"2026-08-18 18:30:00","21202","3.051","177.9","4.835","177.9","1013.45","29.12","83.8","NAN","0.0"],
    [1568493,"2026-08-18 18:40:00","21203","2.677","179.1","4.541","177.2","1013.4960000000001","29.11","83.4","NAN","0.0"],
    [1568494,"2026-08-18 18:50:00","21204","2.625","177.4","4.41","169.0","1013.595","29.19","83.4","NAN","0.0"],
    [1568495,"2026-08-18 19:00:00","21205","2.137","176.5","3.659","183.5","1013.697","29.14","84.5","NAN","0.0"],
    [1568496,"2026-08-18 19:10:00","21206","2.35","177.7","4.051","182.0","1013.73","29.14","84.2","NAN","0.0"],
    [1568497,"2026-08-18 19:20:00","21207","2.04","177.5","3.659","173.5","1013.814","29.12","84.8","NAN","0.0"],
    [1568498,"2026-08-18 19:30:00","21208","2.515","174.8","4.149","182.3","1013.8919999999999","29.12","84.2","NAN","0.0"],
    [1568499,"2026-08-18 19:40:00","21209","1.808","171.3","3.1689999999999996","184.4","1014.069","29.19","84.3","NAN","0.0"],
    [1568500,"2026-08-18 19:50:00","21210","2.072","175.2","3.92","169.0","1014.211","29.18","83.7","NAN","0.0"],
    [1568501,"2026-08-18 20:00:00","21211","1.944","177.4","3.201","185.7","1014.33","29.21","84.1","NAN","0.0"],
    [1568502,"2026-08-18 20:10:00","21212","1.739","180.6","3.1689999999999996","175.4","1014.3430000000001","29.13","84.1","NAN","0.0"],
    [1568503,"2026-08-18 20:20:00","21213","1.909","169.4","3.365","150.5","1014.422","29.11","83.3","NAN","0.0"],
    [1568504,"2026-08-18 20:30:00","21214","1.557","161.9","3.234","170.7","1014.529","29.12","82.2","NAN","0.0"],
    [1568505,"2026-08-18 20:40:00","21215","1.1909999999999998","149.8","2.5810000000000004","174.9","1014.582","29.27","81.8","NAN","0.0"],
    [1568506,"2026-08-18 20:50:00","21216","1.594","167.9","3.7569999999999997","185.0","1014.584","29.23","82.2","NAN","0.0"],
    [1568507,"2026-08-18 21:00:00","21217","1.7480000000000002","178.2","2.907","175.3","1014.512","29.08","83","NAN","0.0"],
    [1568508,"2026-08-18 21:10:00","21218","1.1840000000000002","194.8","2.548","169.8","1014.482","28.98","83.9","NAN","0.0"],
    [1568509,"2026-08-18 21:20:00","21219","1.308","181.2","3.136","180.3","1014.467","28.9","83","NAN","0.0"],
    [1568510,"2026-08-18 21:30:00","21220","1.67","178.5","3.071","178.2","1014.362","28.93","83.1","NAN","0.0"],
    [1568511,"2026-08-18 21:40:00","21221","1.3090000000000002","182.0","2.907","178.0","1014.435","28.9","83.1","NAN","0.0"],
    [1568512,"2026-08-18 21:50:00","21222","0.9590000000000001","184.8","2.287","168.9","1014.4789999999999","28.91","83.5","NAN","0.0"],
    [1568513,"2026-08-18 22:00:00","21223","1.041","191.1","2.221","179.9","1014.534","28.78","83","NAN","0.0"],
    [1568514,"2026-08-18 22:10:00","21224","1.369","179.4","3.071","165.7","1014.472","28.7","83.3","NAN","0.0"],
    [1568515,"2026-08-18 22:20:00","21225","1.052","186.4","2.123","175.5","1014.4639999999999","28.69","84.2","NAN","0.0"],
    [1568516,"2026-08-18 22:30:00","21226","1.4180000000000001","183.8","2.842","179.1","1014.362","28.62","83.9","NAN","0.0"],
    [1568517,"2026-08-18 22:40:00","21227","1.31","187.7","2.875","186.3","1014.3430000000001","28.6","84.2","NAN","0.0"],
    [1568518,"2026-08-18 22:50:00","21228","1.329","183.0","2.385","178.6","1014.3430000000001","28.59","84","NAN","0.0"],
    [1568519,"2026-08-18 23:00:00","21229","0.8959999999999999","190.5","1.797","190.9","1014.3430000000001","28.63","84.4","NAN","0.0"],
    [1568520,"2026-08-18 23:10:00","21230","0.861","207.5","1.829","209.1","1014.3330000000001","28.65","83.5","NAN","0.0"],
    [1568521,"2026-08-18 23:20:00","21231","1.217","230.5","2.548","238.7","1014.225","28.86","80.9","NAN","0.0"],
    [1568522,"2026-08-18 23:30:00","21232","1.091","231.6","2.7439999999999998","244.4","1014.183","28.98","80.8","NAN","0.0"],
    [1568523,"2026-08-18 23:40:00","21233","1.006","227.2","2.319","238.3","1014.2","28.93","80.1","NAN","0.0"],
    [1568524,"2026-08-18 23:50:00","21234","0.968","221.5","1.993","231.9","1014.1080000000001","28.88","80","NAN","0.0"],
    [1568525,"2026-08-19 00:00:00","21235","0.943","223.5","2.025","235.3","1014.0830000000001","28.83","80.8","NAN","0.0"],
    [1568526,"2026-08-19 00:10:00","21236","0.654","224.9","2.0909999999999997","218.4","1013.9910000000001","28.71","80.7","NAN","0.0"],
    [1568527,"2026-08-19 00:20:00","21237","0.45299999999999996","245.1","1.633","268.9","1013.8539999999999","28.7","80.5","NAN","0.0"],
    [1568528,"2026-08-19 00:30:00","21238","0.414","238.7","1.209","209.8","1013.7869999999999","28.65","80.8","NAN","0.0"],
    [1568529,"2026-08-19 00:40:00","21239","0.47700000000000004","229.9","1.2409999999999999","226.6","1013.615","28.61","80.9","NAN","0.0"],
    [1568530,"2026-08-19 00:50:00","21240","0.301","243.5","1.535","254.2","1013.513","28.66","80.6","NAN","0.0"],
    [1568531,"2026-08-19 01:00:00","21241","0.3","234.6","1.209","257.2","1013.47","28.63","81","NAN","0.0"],
    [1568532,"2026-08-19 01:10:00","21242","0.35600000000000004","240.0","1.47","260.6","1013.398","28.57","81.3","NAN","0.0"],
    [1568533,"2026-08-19 01:20:00","21243","0.302","234.3","1.176","253.1","1013.3430000000001","28.5","81.8","NAN","0.0"],
    [1568534,"2026-08-19 01:30:00","21244","0.43","219.6","1.3719999999999999","211.1","1013.3330000000001","28.52","81.6","NAN","0.0"],
    [1568535,"2026-08-19 01:40:00","21245","0.621","204.3","1.405","196.6","1013.346","28.34","82.5","NAN","0.0"],
    [1568536,"2026-08-19 01:50:00","21246","0.5670000000000001","217.8","1.176","202.9","1013.283","28.22","83.2","NAN","0.0"],
    [1568537,"2026-08-19 02:00:00","21247","0.634","229.4","1.7309999999999999","241.9","1013.179","28.24","83.2","NAN","0.0"],
    [1568538,"2026-08-19 02:10:00","21248","0.515","224.0","1.274","225.3","1013.0989999999999","28.36","82.5","NAN","0.0"],
    [1568539,"2026-08-19 02:20:00","21249","0.455","231.1","1.8619999999999999","256.6","1013.0369999999999","28.4","82.5","NAN","0.0"],
    [1568540,"2026-08-19 02:30:00","21250","0.642","198.2","1.405","251.4","1012.972","28.29","83.6","NAN","0.0"],
    [1568541,"2026-08-19 02:40:00","21251","0.525","211.5","1.111","201.8","1012.9069999999999","28.13","84.7","NAN","0.0"],
    [1568542,"2026-08-19 02:50:00","21252","0.5589999999999999","204.5","1.339","199.7","1012.847","28.17","83.9","NAN","0.0"],
    [1568543,"2026-08-19 03:00:00","21253","0.466","285.7","1.307","328.0","1012.778","28.42","82.4","NAN","0.0"],
    [1568544,"2026-08-19 03:10:00","21254","0.6890000000000001","273.6","1.993","284.9","1012.748","28.6","81.5","NAN","0.0"],
    [1568545,"2026-08-19 03:20:00","21255","0.63","288.6","1.633","299.6","1012.7330000000001","28.64","81.3","NAN","0.0"],
    [1568546,"2026-08-19 03:30:00","21256","0.337","282.3","1.764","299.8","1012.643","28.56","80.2","NAN","0.0"],
    [1568547,"2026-08-19 03:40:00","21257","0.48200000000000004","332.1","1.274","312.8","1012.568","28.52","79.4","NAN","0.0"],
    [1568548,"2026-08-19 03:50:00","21258","0.583","284.9","1.666","249.1","1012.539","28.57","78.59","NAN","0.0"],
    [1568549,"2026-08-19 04:00:00","21259","0.795","278.2","1.666","286.8","1012.4739999999999","28.45","78.59","NAN","0.0"],
    [1568550,"2026-08-19 04:10:00","21260","0.9179999999999999","303.8","1.8619999999999999","298.2","1012.352","28.45","78.13","NAN","0.0"],
    [1568551,"2026-08-19 04:20:00","21261","0.74","298.2","1.764","321.4","1012.3489999999999","28.36","78.37","NAN","0.0"],
    [1568552,"2026-08-19 04:30:00","21262","0.775","273.6","1.666","249.0","1012.3489999999999","28.36","78.25","NAN","0.0"],
    [1568553,"2026-08-19 04:40:00","21263","0.547","294.2","1.8619999999999999","292.9","1012.334","28.43","78.09","NAN","0.0"],
    [1568554,"2026-08-19 04:50:00","21264","0.648","276.0","1.699","276.3","1012.304","28.38","78.41","NAN","0.0"],
    [1568555,"2026-08-19 05:00:00","21265","0.8079999999999999","279.8","1.7309999999999999","288.5","1012.245","28.38","78.36","NAN","0.0"],
    [1568556,"2026-08-19 05:10:00","21266","0.7340000000000001","269.4","1.7309999999999999","262.4","1012.23","28.47","78.06","NAN","0.0"],
    [1568557,"2026-08-19 05:20:00","21267","0.405","262.7","1.633","304.4","1012.23","28.48","78.57","NAN","0.0"],
    [1568558,"2026-08-19 05:30:00","21268","0.281","223.9","1.666","290.7","1012.21","28.31","79.75","NAN","0.0"],
    [1568559,"2026-08-19 05:40:00","21269","0.374","245.3","1.829","253.0","1012.2","28.27","79.76","NAN","0.0"],
    [1568560,"2026-08-19 05:50:00","21270","0.6990000000000001","228.4","1.993","256.4","1012.222","28.34","79.57","NAN","0.0"],
    [1568561,"2026-08-19 06:00:00","21271","0.883","242.2","1.8619999999999999","234.5","1012.227","28.5","78.22","NAN","0.0"],
    [1568562,"2026-08-19 06:10:00","21272","1.095","260.6","3.103","284.8","1012.204","28.64","77.33","NAN","0.0"],
    [1568563,"2026-08-19 06:20:00","21273","1.148","245.7","2.352","263.6","1012.15","28.91","76.49","NAN","0.0"],
    [1568564,"2026-08-19 06:30:00","21274","1.119","240.1","2.483","237.9","1012.222","29.05","76.37","NAN","0.0"],
    [1568565,"2026-08-19 06:40:00","21275","1.3769999999999998","236.3","3.299","247.9","1012.15","29.05","76.73","NAN","0.0"],
    [1568566,"2026-08-19 06:50:00","21276","1.165","240.5","2.613","292.2","1012.1030000000001","29.24","76.06","NAN","0.0"],
    [1568567,"2026-08-19 07:00:00","21277","1.091","243.9","3.136","267.4","1012.16","29.46","75.24","NAN","0.0"],
    [1568568,"2026-08-19 07:10:00","21278","1.3019999999999998","249.1","3.1689999999999996","255.6","1012.202","29.77","74.32","NAN","0.0"],
    [1568569,"2026-08-19 07:20:00","21279","1.399","241.1","3.7569999999999997","246.4","1012.112","29.82","74.44","NAN","0.0"],
    [1568570,"2026-08-19 07:30:00","21280","0.976","220.5","2.45","245.8","1012.06","29.97","73.93","NAN","0.0"],
    [1568571,"2026-08-19 07:40:00","21281","1.3969999999999998","235.2","3.495","255.2","1012.053","30.38","72.03","NAN","0.0"],
    [1568572,"2026-08-19 07:50:00","21282","1.4169999999999998","235.1","3.6260000000000003","250.3","1012.051","30.08","73.01","NAN","0.0"],
    [1568573,"2026-08-19 08:00:00","21283","1.8","214.7","3.593","244.4","1012.035","30.33","71.74","NAN","0.0"],
    [1568574,"2026-08-19 08:10:00","21284","1.639","231.6","3.495","199.8","1011.932","30.51","70.35","NAN","0.0"],
    [1568575,"2026-08-19 08:20:00","21285","1.4369999999999998","221.0","3.495","235.6","1011.867","30.94","68.48","NAN","0.0"],
    [1568576,"2026-08-19 08:30:00","21286","1.5619999999999998","217.0","3.7239999999999998","248.5","1011.863","30.99","66.49","NAN","0.0"],
    [1568577,"2026-08-19 08:40:00","21287","1.3019999999999998","201.9","3.005","229.4","1011.9110000000001","31.56","65.13","NAN","0.0"],
    [1568578,"2026-08-19 08:50:00","21288","1.755","210.2","4.377","179.6","1011.918","31.47","64.22","NAN","0.0"],
    [1568579,"2026-08-19 09:00:00","21289","0.8370000000000001","212.7","2.385","195.6","1011.952","32.06","63.74","NAN","0.0"],
    [1568580,"2026-08-19 09:10:00","21290","1.208","210.6","2.7110000000000003","209.7","1011.888","32.27","62.88","NAN","0.0"],
    [1568581,"2026-08-19 09:20:00","21291","2.276","178.3","3.7569999999999997","171.6","1011.841","31.17","70.27","NAN","0.0"],
    [1568582,"2026-08-19 09:30:00","21292","2.827","172.5","4.606","174.4","1011.775","30.38","75.23","NAN","0.0"],
    [1568583,"2026-08-19 09:40:00","21293","3.448","173.4","5.096","169.0","1011.7710000000001","29.89","78.44","NAN","0.0"],
    [1568584,"2026-08-19 09:50:00","21294","3.39","175.3","6.0760000000000005","181.5","1011.7560000000001","30.23","74.48","NAN","0.0"],
    [1568585,"2026-08-19 10:00:00","21295","3.5180000000000002","175.1","6.272","175.9","1011.779","30.46","73.97","NAN","0.0"],
    [1568586,"2026-08-19 10:10:00","21296","3.5260000000000002","171.3","5.455","173.7","1011.671","30.46","72.75","NAN","0.0"],
    [1568587,"2026-08-19 10:20:00","21297","3.592","170.4","5.782","169.1","1011.627","30.6","72.43","NAN","0.0"],
    [1568588,"2026-08-19 10:30:00","21298","3.4930000000000003","172.1","6.403","152.6","1011.5880000000001","30.41","74.7","NAN","0.0"],
    [1568589,"2026-08-19 10:40:00","21299","3.4989999999999997","171.9","5.553","168.0","1011.547","30.71","72.65","NAN","0.0"],
    [1568590,"2026-08-19 10:50:00","21300","3.697","177.4","5.945","172.3","1011.471","30.69","72.07","NAN","0.0"],
    [1568591,"2026-08-19 11:00:00","21301","3.4010000000000002","177.4","5.2589999999999995","157.9","1011.3580000000001","30.86","72.08","NAN","0.0"],
    [1568592,"2026-08-19 11:10:00","21302","3.325","175.1","5.4879999999999995","172.2","1011.328","30.75","73.77","NAN","0.0"],
    [1568593,"2026-08-19 11:20:00","21303","3.384","172.7","5.1610000000000005","177.2","1011.21","30.51","75.74","NAN","0.0"],
    [1568594,"2026-08-19 11:30:00","21304","3.5639999999999996","175.1","5.455","170.0","1011.1110000000001","30.56","75.83","NAN","0.0"],
    [1568595,"2026-08-19 11:40:00","21305","3.365","178.7","5.88","177.2","1011.1030000000001","30.7","75.85","NAN","0.0"],
    [1568596,"2026-08-19 11:50:00","21306","3.176","179.9","5.292000000000001","179.2","1011.073","30.94","74.89","NAN","0.0"],
    [1568597,"2026-08-19 12:00:00","21307","3.464","171.0","5.847","180.9","1010.9110000000001","30.64","76.53","NAN","0.0"],
    [1568598,"2026-08-19 12:10:00","21308","3.312","171.2","5.096","159.6","1010.8439999999999","30.7","76.8","NAN","0.0"],
    [1568599,"2026-08-19 12:20:00","21309","3.1510000000000002","175.6","5.129","166.7","1010.803","30.91","76.46","NAN","0.0"],
    [1568600,"2026-08-19 12:30:00","21310","3.01","176.6","4.998","171.3","1010.7139999999999","31.14","75.23","NAN","0.0"],
    [1568601,"2026-08-19 12:40:00","21311","3.6430000000000002","172.9","5.749","179.3","1010.57","30.98","75.04","NAN","0.0"],
    [1568602,"2026-08-19 12:50:00","21312","3.198","175.8","4.965","158.6","1010.437","31.01","75.36","NAN","0.0"],
    [1568603,"2026-08-19 13:00:00","21313","3.218","175.2","4.769","172.2","1010.3610000000001","31.11","75.45","NAN","0.0"],
    [1568604,"2026-08-19 13:10:00","21314","3.076","170.9","6.011","173.1","1010.334","30.91","77.22","NAN","0.0"],
    [1568605,"2026-08-19 13:20:00","21315","3.2739999999999996","171.4","6.011","176.4","1010.238","30.83","77.78","NAN","0.0"],
    [1568606,"2026-08-19 13:30:00","21316","3.2560000000000002","169.2","5.129","169.4","1010.1089999999999","30.71","78.98","NAN","0.0"],
    [1568607,"2026-08-19 13:40:00","21317","2.725","180.1","5.4879999999999995","173.1","1009.959","31.07","77.13","NAN","0.0"],
    [1568608,"2026-08-19 13:50:00","21318","3.12","181.5","5.422999999999999","170.9","1009.852","31.28","76.41","NAN","0.0"],
    [1568609,"2026-08-19 14:00:00","21319","3.199","182.6","6.435","181.0","1009.794","31.21","77.39","NAN","0.0"],
    [1568610,"2026-08-19 14:10:00","21320","3.045","181.0","6.207000000000001","175.4","1009.705","31.13","79.25","NAN","0.0"],
    [1568611,"2026-08-19 14:20:00","21321","3.6","178.6","6.501","156.6","1009.59","31.15","78.31","NAN","0.0"],
    [1568612,"2026-08-19 14:30:00","21322","3.425","175.3","6.011","177.2","1009.4580000000001","31.13","78.39","NAN","0.0"],
    [1568613,"2026-08-19 14:40:00","21323","3.25","177.1","5.553","181.5","1009.355","31.06","79.94","NAN","0.0"],
    [1568614,"2026-08-19 14:50:00","21324","2.72","177.8","5.063","167.8","1009.3439999999999","31.11","80.4","NAN","0.0"],
    [1568615,"2026-08-19 15:00:00","21325","2.34","178.0","3.855","176.7","1009.35","31.15","81.4","NAN","0.0"],
    [1568616,"2026-08-19 15:10:00","21326","2.479","182.6","4.4430000000000005","168.6","1009.2180000000001","31.56","76.11","NAN","0.0"],
    [1568617,"2026-08-19 15:20:00","21327","2.359","187.8","4.508","192.4","1009.0189999999999","32.18","68.75","NAN","0.0"],
    [1568618,"2026-08-19 15:30:00","21328","2.633","174.4","4.9","153.9","1008.942","31.86","72.94","NAN","0.0"],
    [1568619,"2026-08-19 15:40:00","21329","2.198","199.8","4.475","216.3","1008.985","32.06","69.84","NAN","0.0"],
    [1568620,"2026-08-19 15:50:00","21330","2.123","204.4","4.933","211.1","1008.862","31.93","71.32","NAN","0.0"],
    [1568621,"2026-08-19 16:00:00","21331","1.714","204.5","4.018","186.9","1008.828","31.63","71.85","NAN","0.0"],
    [1568622,"2026-08-19 16:10:00","21332","1.443","221.5","4.4430000000000005","186.6","1008.812","32.3","68.03","NAN","0.0"],
    [1568623,"2026-08-19 16:20:00","21333","1.7409999999999999","203.3","3.985","215.5","1008.804","31.74","73.57","NAN","0.0"],
    [1568624,"2026-08-19 16:30:00","21334","1.65","204.2","4.769","209.3","1008.857","31.38","74.39","NAN","0.0"],
    [1568625,"2026-08-19 16:40:00","21335","1.315","210.6","3.299","214.8","1008.868","31.71","72.74","NAN","0.0"],
    [1568626,"2026-08-19 16:50:00","21336","1.9240000000000002","201.7","4.704","184.2","1008.883","31.58","72.51","NAN","0.0"],
    [1568627,"2026-08-19 17:00:00","21337","1.921","208.1","4.345","197.8","1008.841","31.63","71.93","NAN","0.0"],
    [1568628,"2026-08-19 17:10:00","21338","2.1109999999999998","202.3","4.247","187.3","1008.67","31.5","72.81","NAN","0.0"],
    [1568629,"2026-08-19 17:20:00","21339","1.885","193.8","4.475","185.7","1008.6189999999999","30.92","75.62","NAN","0.0"],
    [1568630,"2026-08-19 17:30:00","21340","1.7830000000000001","201.0","4.2139999999999995","179.8","1008.6239999999999","31.03","74.62","NAN","0.0"],
    [1568631,"2026-08-19 17:40:00","21341","2.069","197.6","4.149","204.9","1008.5830000000001","30.69","77.27","NAN","0.0"],
    [1568632,"2026-08-19 17:50:00","21342","1.943","206.9","4.279","189.1","1008.587","30.72","76.15","NAN","0.0"],
    [1568633,"2026-08-19 18:00:00","21343","1.632","200.5","3.6260000000000003","190.3","1008.5139999999999","30.48","76.31","NAN","0.0"],
    [1568634,"2026-08-19 18:10:00","21344","1.666","195.2","3.267","196.7","1008.515","30.49","77.32","NAN","0.0"],
    [1568635,"2026-08-19 18:20:00","21345","2.182","192.8","4.2139999999999995","171.0","1008.5939999999999","30.21","80.5","NAN","0.0"],
    [1568636,"2026-08-19 18:30:00","21346","2.281","199.7","6.109","204.1","1008.794","29.94","82.6","NAN","0.0"],
    [1568637,"2026-08-19 18:40:00","21347","2.029","208.4","4.802","199.5","1008.8610000000001","29.92","82.6","NAN","0.0"],
    [1568638,"2026-08-19 18:50:00","21348","1.496","207.6","4.573","209.7","1008.878","29.9","82","NAN","0.0"],
    [1568639,"2026-08-19 19:00:00","21349","1.641","215.6","4.1160000000000005","211.5","1009.018","29.9","82.2","NAN","0.0"],
    [1568640,"2026-08-19 19:10:00","21350","1.368","205.7","2.7439999999999998","205.8","1009.053","29.75","82.6","NAN","0.0"],
    [1568641,"2026-08-19 19:20:00","21351","1.138","229.6","3.0380000000000003","242.8","1009.11","29.88","81.2","NAN","0.0"],
    [1568642,"2026-08-19 19:30:00","21352","1.3259999999999998","228.2","4.1160000000000005","227.9","1009.248","30.01","79.85","NAN","0.0"],
    [1568643,"2026-08-19 19:40:00","21353","0.966","218.6","3.234","241.6","1009.31","29.91","80.5","NAN","0.0"],
    [1568644,"2026-08-19 19:50:00","21354","1.577","220.7","4.247","224.9","1009.3539999999999","29.79","81.4","NAN","0.0"],
    [1568645,"2026-08-19 20:00:00","21355","1.11","214.2","3.103","250.1","1009.387","29.74","81.9","NAN","0.0"],
    [1568646,"2026-08-19 20:10:00","21356","0.998","238.7","3.43","269.4","1009.431","29.73","82.4","NAN","0.0"],
    [1568647,"2026-08-19 20:20:00","21357","0.966","236.7","2.907","259.2","1009.3589999999999","29.85","81.6","NAN","0.0"],
    [1568648,"2026-08-19 20:30:00","21358","0.9309999999999999","221.3","2.5810000000000004","231.2","1009.382","29.79","81.7","NAN","0.0"],
    [1568649,"2026-08-19 20:40:00","21359","0.9470000000000001","204.9","2.287","204.3","1009.5310000000001","29.55","83.2","NAN","0.0"],
    [1568650,"2026-08-19 20:50:00","21360","0.762","210.9","1.829","230.7","1009.6189999999999","29.42","84","NAN","0.0"],
    [1568651,"2026-08-19 21:00:00","21361","0.8490000000000001","236.9","2.156","258.7","1009.7310000000001","29.57","82.8","NAN","0.0"],
    [1568652,"2026-08-19 21:10:00","21362","0.903","212.8","1.895","207.6","1009.71","29.6","82.9","NAN","0.0"],
    [1568653,"2026-08-19 21:20:00","21363","0.784","188.7","1.3719999999999999","192.9","1009.6080000000001","29.36","84.6","NAN","0.0"],
    [1568654,"2026-08-19 21:30:00","21364","0.257","159.2","0.98","207.7","1009.568","29.32","84.7","NAN","0.0"],
    [1568655,"2026-08-19 21:40:00","21365","0.303","126.4","0.6859999999999999","112.7","1009.4910000000001","29.31","84.6","NAN","0.0"],
    [1568656,"2026-08-19 21:50:00","21366","0.365","92.8","0.7509999999999999","107.6","1009.416","29.43","84.2","NAN","0.0"],
    [1568657,"2026-08-19 22:00:00","21367","0.49700000000000005","114.6","0.98","109.3","1009.362","29.4","84.7","NAN","0.0"],
    [1568658,"2026-08-19 22:10:00","21368","0.43","122.8","0.98","134.0","1009.409","29.5","84.9","NAN","0.0"],
    [1568659,"2026-08-19 22:20:00","21369","0.7759999999999999","146.1","1.339","161.0","1009.419","29.24","86.2","NAN","0.0"],
    [1568660,"2026-08-19 22:30:00","21370","0.664","148.6","1.143","168.3","1009.442","29.07","86.9","NAN","0.0"],
    [1568661,"2026-08-19 22:40:00","21371","0.589","127.6","1.143","121.0","1009.4910000000001","28.96","88.2","NAN","0.0"],
    [1568662,"2026-08-19 22:50:00","21372","0.087","137.5","0.7190000000000001","131.9","1009.539","29.22","87.8","NAN","0.0"],
    [1568663,"2026-08-19 23:00:00","21373","0.0","0.0","0.0","0.0","1009.6239999999999","29.39","87.3","NAN","0.0"],
    [1568664,"2026-08-19 23:10:00","21374","0.33299999999999996","82.7","0.882","81.1","1009.743","29.51","87.9","NAN","0.0"],
    [1568665,"2026-08-19 23:20:00","21375","0.597","62.03","1.209","39.98","1009.7360000000001","29.46","88","NAN","0.0"],
    [1568666,"2026-08-19 23:30:00","21376","0.892","75.79","1.601","60.04","1009.658","29.39","87.8","NAN","0.0"],
    [1568667,"2026-08-19 23:40:00","21377","0.843","67.75","1.5030000000000001","57.68","1009.638","29.37","87.9","NAN","0.0"],
    [1568668,"2026-08-19 23:50:00","21378","0.945","43.39","1.8619999999999999","30.41","1009.676","29.27","88.5","NAN","0.0"],
    [1568669,"2026-08-20 00:00:00","21379","1.4369999999999998","62.53","2.319","53.1","1009.826","29.24","88.6","NAN","0.0"],
    [1568670,"2026-08-20 00:10:00","21380","1.232","56.83","2.287","31.97","1009.74","29.18","88.3","NAN","0.0"],
    [1568671,"2026-08-20 00:20:00","21381","1.2429999999999999","61.93","2.613","67.56","1009.671","29.11","87.8","NAN","0.0"],
    [1568672,"2026-08-20 00:30:00","21382","1.464","47.15","3.071","30.35","1009.788","29.07","87.8","NAN","0.0"],
    [1568673,"2026-08-20 00:40:00","21383","1.286","49.04","3.201","52.33","1009.93","29.07","88.3","NAN","0.0"],
    [1568674,"2026-08-20 00:50:00","21384","1.083","59.06","1.9269999999999998","61.32","1009.758","29.03","87.5","NAN","0.0"],
    [1568675,"2026-08-20 01:00:00","21385","1.149","50.8","2.025","31.28","1009.6110000000001","29.08","86.8","NAN","0.0"],
    [1568676,"2026-08-20 01:10:00","21386","1.445","50.7","3.005","62.04","1009.454","29.03","87.5","NAN","0.0"],
    [1568677,"2026-08-20 01:20:00","21387","1.051","56.64","2.156","69.45","1009.559","28.98","87.1","NAN","0.0"],
    [1568678,"2026-08-20 01:30:00","21388","0.461","42.43","1.209","57.3","1009.7360000000001","28.92","86.6","NAN","0.0"],
    [1568679,"2026-08-20 01:40:00","21389","0.575","42.68","1.568","8.59","1009.82","28.94","85.5","NAN","0.0"],
    [1568680,"2026-08-20 01:50:00","21390","0.285","82.4","0.882","106.2","1009.823","29.18","84","NAN","0.0"],
    [1568681,"2026-08-20 02:00:00","21391","0.755","89.4","1.829","80.1","1009.663","29.31","83.1","NAN","0.0"],
    [1568682,"2026-08-20 02:10:00","21392","0.821","63.4","1.535","81.6","1009.618","29.11","83.4","NAN","0.0"],
    [1568683,"2026-08-20 02:20:00","21393","0.848","55.73","1.699","86.1","1009.6260000000001","29","83.7","NAN","0.0"],
    [1568684,"2026-08-20 02:30:00","21394","1.061","49.13","1.797","39.15","1009.561","28.9","83","NAN","0.0"],
    [1568685,"2026-08-20 02:40:00","21395","0.9","32.36","1.895","26.29","1009.668","28.82","81.9","NAN","0.0"],
    [1568686,"2026-08-20 02:50:00","21396","1.05","37.76","2.319","58.65","1009.6260000000001","28.74","81.3","NAN","0.0"],
    [1568687,"2026-08-20 03:00:00","21397","0.768","31.2","1.797","24.1","1009.813","28.75","81.2","NAN","0.0"],
    [1568688,"2026-08-20 03:10:00","21398","0.951","58.09","2.156","64.13","1009.915","28.78","81.6","NAN","0.0"],
    [1568689,"2026-08-20 03:20:00","21399","1.2009999999999998","43.26","2.45","63.65","1009.863","28.67","82.6","NAN","0.0"],
    [1568690,"2026-08-20 03:30:00","21400","1.187","53.17","2.613","31.42","1009.868","28.59","83.5","NAN","0.0"],
    [1568691,"2026-08-20 03:40:00","21401","1.5659999999999998","63.1","3.43","74.09","1010.02","28.7","83.6","NAN","0.0"],
    [1568692,"2026-08-20 03:50:00","21402","2.145","46.04","4.541","60.66","1010.069","28.62","83.3","NAN","0.0"],
    [1568693,"2026-08-20 04:00:00","21403","1.635","49.98","3.201","13.31","1010.052","28.62","85","NAN","0.0"],
    [1568694,"2026-08-20 04:10:00","21404","1.5530000000000002","53.23","3.136","61.63","1010.1089999999999","28.63","87.5","NAN","0.0"],
    [1568695,"2026-08-20 04:20:00","21405","1.9369999999999998","72.93","4.41","112.5","1010.164","28.55","87.6","NAN","0.0"],
    [1568696,"2026-08-20 04:30:00","21406","2.8680000000000003","67.14","5.7170000000000005","63.61","1010.291","28.6","78.26","NAN","0.0"],
    [1568697,"2026-08-20 04:40:00","21407","3.6660000000000004","83.1","6.697","81.6","1010.252","28.91","74.45","NAN","0.0"],
    [1568698,"2026-08-20 04:50:00","21408","3.0239999999999996","98.2","6.1739999999999995","108.0","1010.579","28.83","75.52","NAN","0.0"],
    [1568699,"2026-08-20 05:00:00","21409","2.7969999999999997","85.2","5.292000000000001","81.5","1010.8389999999999","28.7","76.68","NAN","0.0"],
    [1568700,"2026-08-20 05:10:00","21410","1.9769999999999999","80.3","3.887","71.96","1010.877","28.72","77.15","NAN","0.0"],
    [1568701,"2026-08-20 05:20:00","21411","2.079","70.8","4.965","89.5","1010.8919999999999","28.77","75.69","NAN","0.0"],
    [1568702,"2026-08-20 05:30:00","21412","2.224","85.4","4.704","98.2","1010.9839999999999","28.78","75.82","NAN","0.0"],
    [1568703,"2026-08-20 05:40:00","21413","2.6060000000000003","83.5","4.508","96.1","1011.076","28.73","76.72","NAN","0.0"],
    [1568704,"2026-08-20 05:50:00","21414","1.626","89.1","4.018","110.1","1011.1239999999999","28.75","77.08","NAN","0.0"],
    [1568705,"2026-08-20 06:00:00","21415","1.75","73.34","4.2139999999999995","58.43","1011.2760000000001","28.72","76.28","NAN","0.0"],
    [1568706,"2026-08-20 06:10:00","21416","0.84","55.06","2.5810000000000004","67.27","1011.462","28.85","74.96","NAN","0.0"],
    [1568707,"2026-08-20 06:20:00","21417","1.986","62.89","3.822","59.99","1011.432","28.86","73.89","NAN","0.0"],
    [1568708,"2026-08-20 06:30:00","21418","1.901","83.6","3.7239999999999998","74.09","1011.415","28.83","73.31","NAN","0.0"],
    [1568709,"2026-08-20 06:40:00","21419","2.115","93.2","4.508","106.2","1011.265","28.78","74.15","NAN","0.0"],
    [1568710,"2026-08-20 06:50:00","21420","2.4","88.7","4.312","89.6","1011.1010000000001","28.65","74","NAN","0.0"],
    [1568711,"2026-08-20 07:00:00","21421","2.186","88.0","4.083","67.35","1011.1160000000001","28.67","73.75","NAN","0.0"],
    [1568712,"2026-08-20 07:10:00","21422","2.006","95.0","4.508","121.2","1011.138","28.64","75.65","NAN","0.0"],
    [1568713,"2026-08-20 07:20:00","21423","1.818","81.7","3.365","65.27","1011.086","28.6","74.62","NAN","0.0"],
    [1568714,"2026-08-20 07:30:00","21424","1.7830000000000001","78.56","4.051","95.7","1011.176","28.56","75.77","NAN","0.0"],
    [1568715,"2026-08-20 07:40:00","21425","1.44","49.88","3.528","40.54","1011.2330000000001","28.42","75.89","NAN","0.0"],
    [1568716,"2026-08-20 07:50:00","21426","1.714","46.87","3.103","22.03","1011.291","28.36","75.36","NAN","0.0"],
    [1568717,"2026-08-20 08:00:00","21427","1.65","54.83","3.43","17.83","1011.35","28.35","75.39","NAN","0.0"],
    [1568718,"2026-08-20 08:10:00","21428","1.429","56.94","2.94","18.62","1011.315","28.43","75.57","NAN","0.0"],
    [1568719,"2026-08-20 08:20:00","21429","1.305","51.1","3.332","67.65","1011.243","28.56","75.64","NAN","0.0"],
    [1568720,"2026-08-20 08:30:00","21430","1.87","81.0","4.051","110.3","1011.196","28.55","76.14","NAN","0.0"],
    [1568721,"2026-08-20 08:40:00","21431","1.902","88.7","3.495","93.8","1011.2560000000001","28.54","75.79","NAN","0.0"],
    [1568722,"2026-08-20 08:50:00","21432","1.825","86.0","3.299","98.2","1011.3530000000001","28.56","75.78","NAN","0.0"],
    [1568723,"2026-08-20 09:00:00","21433","1.555","65.77","2.7110000000000003","87.2","1011.36","28.59","75.21","NAN","0.0"],
    [1568724,"2026-08-20 09:10:00","21434","1.3869999999999998","80.9","2.842","71.35","1011.443","28.79","74.91","NAN","0.0"],
    [1568725,"2026-08-20 09:20:00","21435","1.749","64.04","3.7889999999999997","68.16","1011.3969999999999","28.8","74.67","NAN","0.0"],
    [1568726,"2026-08-20 09:30:00","21436","1.7009999999999998","59.26","3.495","24.98","1011.365","28.8","74.47","NAN","0.0"],
    [1568727,"2026-08-20 09:40:00","21437","1.4140000000000001","51.94","3.103","16.87","1011.3530000000001","28.94","73.44","NAN","0.0"],
    [1568728,"2026-08-20 09:50:00","21438","1.6569999999999998","72.04","3.201","83.2","1011.315","29.18","71.94","NAN","0.0"],
    [1568729,"2026-08-20 10:00:00","21439","1.919","65.33","3.299","63.73","1011.2260000000001","29.23","71.57","NAN","0.0"],
    [1568730,"2026-08-20 10:10:00","21440","1.97","85.5","3.7239999999999998","97.5","1011.378","29.26","71.88","NAN","0.0"],
    [1568731,"2026-08-20 10:20:00","21441","2.04","82.6","3.6910000000000003","103.7","1011.307","29.13","72.87","NAN","0.0"],
    [1568732,"2026-08-20 10:30:00","21442","1.864","72.81","3.299","86.0","1011.438","29.25","72.55","NAN","0.0"],
    [1568733,"2026-08-20 10:40:00","21443","1.681","75.7","3.005","95.4","1011.437","29.45","72.11","NAN","0.0"],
    [1568734,"2026-08-20 10:50:00","21444","1.56","65.17","3.887","62.5","1011.385","29.5","71.8","NAN","0.0"],
    [1568735,"2026-08-20 11:00:00","21445","2.049","87.8","4.41","91.8","1011.3969999999999","29.47","71.26","NAN","0.0"],
    [1568736,"2026-08-20 11:10:00","21446","2.3409999999999997","94.8","3.985","102.2","1011.3380000000001","29.84","69.96","NAN","0.0"],
    [1568737,"2026-08-20 11:20:00","21447","2.157","88.1","3.659","111.0","1011.357","30.16","69.01","NAN","0.0"],
    [1568738,"2026-08-20 11:30:00","21448","2.081","93.4","4.083","123.4","1011.347","30.22","69.55","NAN","0.0"],
    [1568739,"2026-08-20 11:40:00","21449","2.226","97.1","4.475","110.5","1011.28","29.98","70.44","NAN","0.0"],
    [1568740,"2026-08-20 11:50:00","21450","2.074","93.8","3.985","111.6","1011.1339999999999","30.34","68.16","NAN","0.0"],
    [1568741,"2026-08-20 12:00:00","21451","2.932","114.0","4.769","116.8","1011.145","30.12","66.6","NAN","0.0"],
    [1568742,"2026-08-20 12:10:00","21452","2.827","108.9","4.41","104.0","1011.0930000000001","30.23","64.45","NAN","0.0"],
    [1568743,"2026-08-20 12:20:00","21453","2.7430000000000003","99.5","5.325","103.3","1010.925","30.52","64.52","NAN","0.0"],
    [1568744,"2026-08-20 12:30:00","21454","2.943","101.9","5.357","116.5","1010.818","30.33","65.64","NAN","0.0"],
    [1568745,"2026-08-20 12:40:00","21455","2.787","109.7","5.357","115.7","1010.826","30.02","67.27","NAN","0.0"],
    [1568746,"2026-08-20 12:50:00","21456","3.111","106.2","4.9","105.7","1010.62","30.03","68.15","NAN","0.0"],
    [1568747,"2026-08-20 13:00:00","21457","3.7489999999999997","105.6","6.207000000000001","116.5","1010.357","29.96","70.2","NAN","0.0"],
    [1568748,"2026-08-20 13:10:00","21458","3.596","108.1","5.7170000000000005","98.5","1010.1410000000001","29.94","70.24","NAN","0.0"],
    [1568749,"2026-08-20 13:20:00","21459","2.625","101.7","5.651","107.7","1010.3969999999999","30.49","69.48","NAN","0.0"],
    [1568750,"2026-08-20 13:30:00","21460","3.3569999999999998","104.6","5.945","111.4","1010.513","30.56","69.92","NAN","0.0"],
    [1568751,"2026-08-20 13:40:00","21461","3.008","85.5","5.227","97.0","1010.768","30.84","69.84","NAN","0.0"],
    [1568752,"2026-08-20 13:50:00","21462","3.057","72.92","6.1739999999999995","82.8","1010.826","30.6","70.76","NAN","0.0"],
    [1568753,"2026-08-20 14:00:00","21463","1.923","38.05","4.1160000000000005","76.16","1010.6489999999999","30.59","69.77","NAN","0.0"],
    [1568754,"2026-08-20 14:10:00","21464","2.5580000000000003","55.7","5.619","20.48","1010.497","30.87","68.26","NAN","0.0"],
    [1568755,"2026-08-20 14:20:00","21465","3.1010000000000004","74.7","6.0760000000000005","89.2","1010.3380000000001","31.08","64.5","NAN","0.0"],
    [1568756,"2026-08-20 14:30:00","21466","3.589","85.0","6.042999999999999","95.5","1010.0210000000001","30.77","59.71","NAN","0.0"],
    [1568757,"2026-08-20 14:40:00","21467","3.2880000000000003","82.1","5.357","104.9","1010.078","30.49","59.14","NAN","0.0"],
    [1568758,"2026-08-20 14:50:00","21468","2.419","60.26","4.933","77.81","1010.291","30.16","59.97","NAN","0.0"],
    [1568759,"2026-08-20 15:00:00","21469","3.303","89.7","5.684","95.2","1010.3610000000001","29.71","66.06","NAN","0.0"],
    [1568760,"2026-08-20 15:10:00","21470","2.2319999999999998","99.7","4.508","90.7","1010.7130000000001","29.27","69.6","NAN","0.0"],
    [1568761,"2026-08-20 15:20:00","21471","2.713","89.7","4.671","92.5","1010.7639999999999","28.96","71.76","NAN","0.1"],
    [1568762,"2026-08-20 15:30:00","21472","2.522","63.0","5.096","87.9","1010.443","28.57","73.78","NAN","0.0"],
    [1568763,"2026-08-20 15:40:00","21473","1.235","59.95","3.005","54.93","1010.3710000000001","28.74","72.96","NAN","0.0"],
    [1568764,"2026-08-20 15:50:00","21474","0.9520000000000001","70.27","1.764","71.38","1010.3530000000001","29.09","72.11","NAN","0.0"],
    [1568765,"2026-08-20 16:00:00","21475","1.2670000000000001","89.9","2.189","87.4","1010.181","29.34","69.64","NAN","0.0"],
    [1568766,"2026-08-20 16:10:00","21476","1.805","60.12","3.201","37.65","1009.954","29.31","68.05","NAN","0.0"],
    [1568767,"2026-08-20 16:20:00","21477","1.273","9.54","3.463","27.37","1010.0369999999999","28.92","68.15","NAN","0.0"],
    [1568768,"2026-08-20 16:30:00","21478","0.93","10.45","1.9269999999999998","24.44","1009.9","29.18","67.34","NAN","0.0"],
    [1568769,"2026-08-20 16:40:00","21479","1.2990000000000002","17.08","3.0380000000000003","20.77","1009.735","29.03","68.74","NAN","0.0"],
    [1568770,"2026-08-20 16:50:00","21480","1.205","20.8","3.103","26.12","1009.5260000000001","28.97","70.08","NAN","0.0"],
    [1568771,"2026-08-20 17:00:00","21481","0.753","12.27","1.895","21.78","1009.551","29.04","68.66","NAN","0.0"],
    [1568772,"2026-08-20 17:10:00","21482","1.005","41.9","2.907","64.59","1009.6030000000001","29.15","67.46","NAN","0.0"],
    [1568773,"2026-08-20 17:20:00","21483","0.802","21.56","1.47","24.42","1009.4839999999999","29.16","66.83","NAN","0.0"],
    [1568774,"2026-08-20 17:30:00","21484","0.568","5.022","1.699","31.53","1009.5260000000001","29.3","64.92","NAN","0.0"],
    [1568775,"2026-08-20 17:40:00","21485","0.5820000000000001","67.82","1.633","13.11","1009.6010000000001","29.43","63.87","NAN","0.0"],
    [1568776,"2026-08-20 17:50:00","21486","0.33899999999999997","139.1","1.078","185.5","1009.6060000000001","29.39","64.1","NAN","0.0"],
    [1568777,"2026-08-20 18:00:00","21487","1.3419999999999999","225.4","4.345","208.7","1009.7460000000001","29.4","64.35","NAN","0.0"],
    [1568778,"2026-08-20 18:10:00","21488","2.315","217.4","6.664","207.6","1009.698","30.11","58.91","NAN","0.0"],
    [1568779,"2026-08-20 18:20:00","21489","2.583","233.8","7.807","219.7","1009.808","30.29","55.78","NAN","0.0"],
    [1568780,"2026-08-20 18:30:00","21490","2.596","220.2","6.337000000000001","192.4","1009.748","30.28","51.95","NAN","0.0"],
    [1568781,"2026-08-20 18:40:00","21491","1.494","222.4","4.835","172.0","1009.533","30.36","53.15","NAN","0.0"],
    [1568782,"2026-08-20 18:50:00","21492","2.296","223.5","6.011","220.5","1009.204","30.23","51.48","NAN","0.0"],
    [1568783,"2026-08-20 19:00:00","21493","2.315","235.4","6.795","238.0","1009.07","30.28","51.01","NAN","0.0"],
    [1568784,"2026-08-20 19:10:00","21494","3.574","240.3","8.17","245.2","1009.023","30.2","47.92","NAN","0.0"],
    [1568785,"2026-08-20 19:20:00","21495","2.2230000000000003","240.4","4.867","212.3","1009.072","30.32","45.64","NAN","0.0"],
    [1568786,"2026-08-20 19:30:00","21496","2.342","257.8","5.553","234.1","1008.7180000000001","29.65","51.99","NAN","0.0"],
    [1568787,"2026-08-20 19:40:00","21497","2.194","273.2","4.508","288.9","1008.345","29.38","53.17","NAN","0.0"],
    [1568788,"2026-08-20 19:50:00","21498","1.8940000000000001","275.2","5.455","291.7","1008.265","29.08","54.1","NAN","0.0"],
    [1568789,"2026-08-20 20:00:00","21499","1.172","292.9","3.234","267.6","1008.1039999999999","29.17","51.58","NAN","0.0"],
    [1568790,"2026-08-20 20:10:00","21500","1.058","289.8","2.385","290.4","1008.341","29.53","48.13","NAN","0.0"],
    [1568791,"2026-08-20 20:20:00","21501","0.7829999999999999","288.5","2.221","308.7","1008.47","29.79","45.89","NAN","0.0"],
    [1568792,"2026-08-20 20:30:00","21502","1.2209999999999999","263.8","3.103","275.1","1008.842","30.06","44.22","NAN","0.0"],
    [1568793,"2026-08-20 20:40:00","21503","1.663","244.7","3.5610000000000004","243.3","1009.0980000000001","29.84","47.02","NAN","0.0"],
    [1568794,"2026-08-20 20:50:00","21504","1.8940000000000001","246.1","5.129","240.3","1009.31","29.55","50.36","NAN","0.0"],
    [1568795,"2026-08-20 21:00:00","21505","2.3169999999999997","254.8","5.782","271.2","1009.135","29.18","52.7","NAN","0.0"],
    [1568796,"2026-08-20 21:10:00","21506","2.3169999999999997","248.5","5.619","253.5","1009.148","29.14","53.62","NAN","0.0"],
    [1568797,"2026-08-20 21:20:00","21507","2.696","239.1","8.33","237.1","1009.227","28.73","56.07","NAN","0.0"],
    [1568798,"2026-08-20 21:30:00","21508","2.861","229.8","7.938","240.2","1009.247","28.32","56.9","NAN","0.0"],
    [1568799,"2026-08-20 21:40:00","21509","2.7680000000000002","247.9","7.35","246.3","1009.08","28","56.19","NAN","0.0"],
    [1568800,"2026-08-20 21:50:00","21510","2.194","240.3","5.096","239.8","1009.0980000000001","28","57.27","NAN","0.0"],
    [1568801,"2026-08-20 22:00:00","21511","2.201","240.0","5.782","240.3","1009.128","27.84","58.73","NAN","0.0"],
    [1568802,"2026-08-20 22:10:00","21512","1.676","223.8","5.422999999999999","232.2","1009.367","27.73","61.16","NAN","0.0"],
    [1568803,"2026-08-20 22:20:00","21513","1.8330000000000002","260.2","4.965","240.0","1009.257","27.63","62.68","NAN","0.0"],
    [1568804,"2026-08-20 22:30:00","21514","1.75","304.4","4.475","308.7","1008.941","27.72","61.95","NAN","0.0"],
    [1568805,"2026-08-20 22:40:00","21515","1.6880000000000002","308.6","5.88","294.6","1009.325","27.54","62.65","NAN","0.1"],
    [1568806,"2026-08-20 22:50:00","21516","1.621","299.6","5.129","291.7","1009.674","26.96","65.48","NAN","0.3"],
    [1568807,"2026-08-20 23:00:00","21517","1.8119999999999998","266.4","5.422999999999999","241.6","1010.22","26.47","66.16","NAN","0.3"],
    [1568808,"2026-08-20 23:10:00","21518","1.69","266.2","3.855","270.4","1010.523","26.09","67.55","NAN","0.1"],
    [1568809,"2026-08-20 23:20:00","21519","1.871","290.9","4.998","290.8","1010.528","25.69","67.17","NAN","0.5"],
    [1568810,"2026-08-20 23:30:00","21520","2.086","272.5","4.377","317.2","1010.368","25.17","67.73","NAN","0.1"],
    [1568811,"2026-08-20 23:40:00","21521","0.593","296.8","3.0380000000000003","309.8","1009.857","25.07","66.99","NAN","0.0"],
    [1568812,"2026-08-20 23:50:00","21522","0.846","285.9","2.613","284.4","1009.471","25.3","66.25","NAN","0.0"],
    [1568813,"2026-08-21 00:00:00","21523","1.067","278.4","2.875","307.1","1009.3589999999999","25.52","65.39","NAN","0.0"],
    [1568814,"2026-08-21 00:10:00","21524","1.138","256.8","2.45","218.8","1009.357","25.69","65.08","NAN","0.0"],
    [1568815,"2026-08-21 00:20:00","21525","1.3869999999999998","241.8","2.7439999999999998","260.2","1009.194","25.63","64.26","NAN","0.0"],
    [1568816,"2026-08-21 00:30:00","21526","1.2930000000000001","225.2","3.332","246.8","1008.948","25.84","64.58","NAN","0.0"],
    [1568817,"2026-08-21 00:40:00","21527","1.526","226.6","4.051","248.9","1008.9739999999999","25.54","67.24","NAN","0.0"],
    [1568818,"2026-08-21 00:50:00","21528","2.9189999999999996","246.1","7.611000000000001","238.3","1009.06","25.54","67.06","NAN","0.3"],
    [1568819,"2026-08-21 01:00:00","21529","0.938","246.0","3.528","252.3","1008.6310000000001","24.26","76.23","NAN","0.4"],
    [1568820,"2026-08-21 01:10:00","21530","1.1440000000000001","301.9","2.7439999999999998","308.2","1008.191","23.96","78.86","NAN","0.1"],
    [1568821,"2026-08-21 01:20:00","21531","1.103","219.7","2.7769999999999997","244.1","1008.206","23.77","84.2","NAN","0.3"],
    [1568822,"2026-08-21 01:30:00","21532","0.9570000000000001","201.1","2.254","200.3","1008.245","23.1","89","NAN","0.0"],
    [1568823,"2026-08-21 01:40:00","21533","0.795","276.7","2.319","305.6","1008.1110000000001","23.15","87.2","NAN","0.0"],
    [1568824,"2026-08-21 01:50:00","21534","0.847","277.7","2.287","290.5","1008.1139999999999","23.6","84.9","NAN","0.0"],
    [1568825,"2026-08-21 02:00:00","21535","0.593","288.8","2.548","316.5","1008.1389999999999","23.96","82.6","NAN","0.0"],
    [1568826,"2026-08-21 02:10:00","21536","0.812","303.3","2.7110000000000003","258.3","1008.1139999999999","24.26","79.11","NAN","0.0"],
    [1568827,"2026-08-21 02:20:00","21537","0.762","248.0","2.156","270.4","1008.153","24.62","76.51","NAN","0.0"],
    [1568828,"2026-08-21 02:30:00","21538","1.196","246.7","2.6460000000000004","219.7","1008.194","24.41","76.7","NAN","0.0"],
    [1568829,"2026-08-21 02:40:00","21539","1.2109999999999999","254.3","3.495","283.2","1008.2710000000001","24.52","75.02","NAN","0.0"],
    [1568830,"2026-08-21 02:50:00","21540","0.455","245.8","1.9269999999999998","235.1","1008.2280000000001","24.8","73.7","NAN","0.0"],
    [1568831,"2026-08-21 03:00:00","21541","0.608","218.0","1.568","192.1","1008.263","24.86","74.3","NAN","0.0"],
    [1568832,"2026-08-21 03:10:00","21542","0.775","231.4","2.025","248.6","1008.363","24.57","77.22","NAN","0.0"],
    [1568833,"2026-08-21 03:20:00","21543","0.447","239.9","1.764","228.5","1008.398","24.73","74.56","NAN","0.0"],
    [1568834,"2026-08-21 03:30:00","21544","0.878","243.4","1.993","254.1","1008.55","24.88","72.91","NAN","0.0"],
    [1568835,"2026-08-21 03:40:00","21545","1.436","264.0","3.365","262.3","1008.717","24.99","72.07","NAN","0.0"],
    [1568836,"2026-08-21 03:50:00","21546","1.4269999999999998","270.5","5.7170000000000005","259.1","1008.836","24.8","72.18","NAN","0.0"],
    [1568837,"2026-08-21 04:00:00","21547","0.899","258.5","3.071","287.1","1008.8789999999999","24.6","73.64","NAN","0.0"],
    [1568838,"2026-08-21 04:10:00","21548","0.907","278.8","2.875","276.4","1009.0260000000001","24.57","72.29","NAN","0.0"],
    [1568839,"2026-08-21 04:20:00","21549","1.6019999999999999","284.9","3.985","294.8","1009.1","24.78","67.57","NAN","0.0"],
    [1568840,"2026-08-21 04:30:00","21550","0.924","311.0","3.822","326.3","1009.013","24.64","66.74","NAN","0.0"],
    [1568841,"2026-08-21 04:40:00","21551","0.486","290.3","1.8619999999999999","328.1","1009.168","24.4","69.12","NAN","0.0"],
    [1568842,"2026-08-21 04:50:00","21552","0.41700000000000004","49.31","1.829","308.1","1009.3589999999999","24.34","69.34","NAN","0.0"],
    [1568843,"2026-08-21 05:00:00","21553","0.7709999999999999","239.5","2.287","256.3","1009.462","24.26","69.61","NAN","0.0"],
    [1568844,"2026-08-21 05:10:00","21554","0.502","211.1","1.96","248.6","1009.6139999999999","23.95","70.95","NAN","0.0"],
    [1568845,"2026-08-21 05:20:00","21555","0.97","19.54","3.7239999999999998","353.6","1009.763","24.14","68.38","NAN","0.0"],
    [1568846,"2026-08-21 05:30:00","21556","0.905","351.3","2.385","21.64","1009.925","24.52","65.02","NAN","0.0"],
    [1568847,"2026-08-21 05:40:00","21557","1.025","301.2","3.299","318.1","1010.052","24.8","63.11","NAN","0.0"],
    [1568848,"2026-08-21 05:50:00","21558","0.605","334.2","2.483","281.4","1010.2339999999999","24.83","62.5","NAN","0.0"],
    [1568849,"2026-08-21 06:00:00","21559","1.696","10.71","4.181","18.38","1010.4730000000001","24.57","63.54","NAN","0.0"],
    [1568850,"2026-08-21 06:10:00","21560","1.726","6.077000000000001","4.2139999999999995","26.16","1010.66","24.37","64.42","NAN","0.0"],
    [1568851,"2026-08-21 06:20:00","21561","1.261","358.9","2.7769999999999997","0.527","1010.618","24.59","64.06","NAN","0.0"],
    [1568852,"2026-08-21 06:30:00","21562","0.6759999999999999","359.0","2.123","18.11","1010.678","24.88","63.59","NAN","0.0"],
    [1568853,"2026-08-21 06:40:00","21563","0.703","3.346","2.254","4.373","1010.852","25.41","62.25","NAN","0.0"],
    [1568854,"2026-08-21 06:50:00","21564","1.265","314.9","3.234","301.4","1010.922","25.86","60.46","NAN","0.0"],
    [1568855,"2026-08-21 07:00:00","21565","1.035","328.5","2.483","319.6","1011.168","25.98","59.52","NAN","0.0"],
    [1568856,"2026-08-21 07:10:00","21566","1.182","358.9","2.907","300.9","1011.33","25.92","59.69","NAN","0.0"],
    [1568857,"2026-08-21 07:20:00","21567","1.023","17.03","2.613","359.9","1011.413","25.85","60.14","NAN","0.0"],
    [1568858,"2026-08-21 07:30:00","21568","0.894","4.627","2.123","52.72","1011.435","25.9","60.72","NAN","0.0"],
    [1568859,"2026-08-21 07:40:00","21569","1.025","27.35","2.613","8.48","1011.4689999999999","26.08","60.35","NAN","0.0"],
    [1568860,"2026-08-21 07:50:00","21570","1.075","11.94","3.397","333.8","1011.498","26.37","59.04","NAN","0.0"],
    [1568861,"2026-08-21 08:00:00","21571","1.3530000000000002","354.5","5.325","10.69","1011.415","26.59","57.99","NAN","0.0"],
    [1568862,"2026-08-21 08:10:00","21572","1.474","332.5","4.4430000000000005","281.0","1011.388","26.52","58.22","NAN","0.0"],
    [1568863,"2026-08-21 08:20:00","21573","0.866","329.4","2.94","291.1","1011.553","27.19","56.93","NAN","0.0"],
    [1568864,"2026-08-21 08:30:00","21574","1.515","319.2","4.606","310.8","1011.643","27.13","56.85","NAN","0.0"],
    [1568865,"2026-08-21 08:40:00","21575","1.524","33.79","4.41","9.36","1011.697","27.15","56.99","NAN","0.0"],
    [1568866,"2026-08-21 08:50:00","21576","1.003","27.76","2.385","40.7","1011.819","27.57","55.73","NAN","0.0"],
    [1568867,"2026-08-21 09:00:00","21577","1.499","321.3","3.201","295.9","1011.9960000000001","27.74","54.77","NAN","0.0"],
    [1568868,"2026-08-21 09:10:00","21578","1.0490000000000002","44.24","3.0380000000000003","52.94","1012.056","28.26","53.55","NAN","0.0"],
    [1568869,"2026-08-21 09:20:00","21579","1.159","76.5","2.8089999999999997","91.2","1012.0830000000001","28.5","52.45","NAN","0.0"],
    [1568870,"2026-08-21 09:30:00","21580","2.072","91.1","4.508","110.4","1012.2919999999999","28.22","53.08","NAN","0.0"],
    [1568871,"2026-08-21 09:40:00","21581","2.873","107.0","4.345","117.0","1012.3960000000001","27.26","59.47","NAN","0.0"],
    [1568872,"2026-08-21 09:50:00","21582","2.121","99.4","3.92","106.0","1012.472","27.62","61.92","NAN","0.0"],
    [1568873,"2026-08-21 10:00:00","21583","2.28","107.4","3.528","112.4","1012.4639999999999","27.4","63.17","NAN","0.0"],
    [1568874,"2026-08-21 10:10:00","21584","2.219","110.6","3.6910000000000003","103.0","1012.55","27.46","63.08","NAN","0.0"],
    [1568875,"2026-08-21 10:20:00","21585","2.193","105.6","3.5610000000000004","104.7","1012.577","27.45","62.41","NAN","0.0"],
    [1568876,"2026-08-21 10:30:00","21586","2.398","115.3","4.312","114.8","1012.59","27.47","62.22","NAN","0.0"],
    [1568877,"2026-08-21 10:40:00","21587","2.3409999999999997","94.1","3.92","91.9","1012.591","27.85","59.43","NAN","0.0"],
    [1568878,"2026-08-21 10:50:00","21588","1.95","116.9","3.365","124.9","1012.6","27.92","57.5","NAN","0.0"],
    [1568879,"2026-08-21 11:00:00","21589","2.318","123.9","3.985","92.4","1012.653","27.64","55.93","NAN","0.0"],
    [1568880,"2026-08-21 11:10:00","21590","2.369","121.8","3.7569999999999997","119.5","1012.655","27.78","54.15","NAN","0.0"],
    [1568881,"2026-08-21 11:20:00","21591","2.4019999999999997","124.6","4.051","107.1","1012.7139999999999","27.76","53.18","NAN","0.0"],
    [1568882,"2026-08-21 11:30:00","21592","2.346","124.3","3.855","103.4","1012.6489999999999","27.91","53.14","NAN","0.0"],
    [1568883,"2026-08-21 11:40:00","21593","2.267","123.4","4.051","108.7","1012.627","28","53.08","NAN","0.0"],
    [1568884,"2026-08-21 11:50:00","21594","2.838","122.4","4.541","131.0","1012.732","27.92","54.49","NAN","0.0"],
    [1568885,"2026-08-21 12:00:00","21595","2.6439999999999997","116.1","4.835","108.9","1012.711","27.98","57.28","NAN","0.0"],
    [1568886,"2026-08-21 12:10:00","21596","3.615","118.2","5.88","113.1","1012.622","27.53","59.22","NAN","0.0"],
    [1568887,"2026-08-21 12:20:00","21597","3.002","128.8","5.586","115.4","1012.688","27.5","61.36","NAN","0.0"],
    [1568888,"2026-08-21 12:30:00","21598","3.2","123.6","5.063","113.7","1012.803","27.47","65.66","NAN","0.0"],
    [1568889,"2026-08-21 12:40:00","21599","3.5389999999999997","122.2","5.749","105.3","1012.836","27.51","68.76","NAN","0.0"],
    [1568890,"2026-08-21 12:50:00","21600","3.819","125.9","6.337000000000001","112.3","1012.91","27.03","70.08","NAN","0.0"],
    [1568891,"2026-08-21 13:00:00","21601","3.764","130.0","6.141","114.8","1012.99","27.23","69.94","NAN","0.0"],
    [1568892,"2026-08-21 13:10:00","21602","4.104","126.2","6.566","103.6","1012.922","27.17","70.29","NAN","0.0"],
    [1568893,"2026-08-21 13:20:00","21603","3.437","126.8","5.651","143.1","1012.887","27.01","70.67","NAN","0.0"],
    [1568894,"2026-08-21 13:30:00","21604","3.937","128.5","6.5329999999999995","132.8","1012.85","26.91","70.25","NAN","0.0"],
    [1568895,"2026-08-21 13:40:00","21605","3.891","125.1","6.957999999999999","110.4","1012.828","26.89","71.02","NAN","0.0"],
    [1568896,"2026-08-21 13:50:00","21606","4.022","127.2","6.109","144.1","1012.76","26.84","71.18","NAN","0.0"],
    [1568897,"2026-08-21 14:00:00","21607","4.022","125.1","6.729","104.3","1012.773","26.81","71.31","NAN","0.0"],
    [1568898,"2026-08-21 14:10:00","21608","3.438","125.8","6.435","110.6","1012.78","26.59","72.85","NAN","0.0"],
    [1568899,"2026-08-21 14:20:00","21609","3.707","125.1","5.978","108.4","1012.768","26.44","73.48","NAN","0.0"],
    [1568900,"2026-08-21 14:30:00","21610","3.515","124.3","5.553","116.5","1012.757","26.25","74.64","NAN","0.0"],
    [1568901,"2026-08-21 14:40:00","21611","3.892","127.2","6.795","133.1","1012.7130000000001","26.22","75.23","NAN","0.0"],
    [1568902,"2026-08-21 14:50:00","21612","3.679","127.3","5.651","123.7","1012.835","26.18","74.93","NAN","0.0"],
    [1568903,"2026-08-21 15:00:00","21613","3.437","124.2","6.109","97.8","1012.793","26.16","74.67","NAN","0.0"],
    [1568904,"2026-08-21 15:10:00","21614","3.181","125.1","5.422999999999999","143.7","1012.805","26.32","74.32","NAN","0.0"],
    [1568905,"2026-08-21 15:20:00","21615","2.963","124.4","5.325","115.3","1012.783","26.36","73.77","NAN","0.0"],
    [1568906,"2026-08-21 15:30:00","21616","3.3510000000000004","122.5","5.847","114.8","1012.847","26.29","73.73","NAN","0.0"],
    [1568907,"2026-08-21 15:40:00","21617","3.5589999999999997","127.2","5.978","111.1","1012.83","26.31","73.44","NAN","0.0"],
    [1568908,"2026-08-21 15:50:00","21618","3.3939999999999997","125.9","5.521","144.9","1012.982","26.24","74.13","NAN","0.0"],
    [1568909,"2026-08-21 16:00:00","21619","3.193","119.4","6.272","110.4","1012.965","26.23","73.61","NAN","0.0"],
    [1568910,"2026-08-21 16:10:00","21620","3.028","119.6","5.292000000000001","122.6","1013.0939999999999","26.43","72.79","NAN","0.0"],
    [1568911,"2026-08-21 16:20:00","21621","2.886","122.0","5.2589999999999995","108.2","1013.102","26.58","72.03","NAN","0.0"],
    [1568912,"2026-08-21 16:30:00","21622","2.639","115.7","4.279","117.4","1013.209","26.68","71.76","NAN","0.0"],
    [1568913,"2026-08-21 16:40:00","21623","2.298","129.9","3.7569999999999997","108.7","1013.3389999999999","26.62","71.94","NAN","0.0"],
    [1568914,"2026-08-21 16:50:00","21624","3.072","112.4","5.129","115.9","1013.3430000000001","26.53","71.55","NAN","0.0"],
    [1568915,"2026-08-21 17:00:00","21625","2.523","114.5","5.292000000000001","104.1","1013.346","26.71","71.19","NAN","0.0"],
    [1568916,"2026-08-21 17:10:00","21626","2.188","111.6","4.2139999999999995","114.2","1013.403","26.61","71.04","NAN","0.0"],
    [1568917,"2026-08-21 17:20:00","21627","2.612","119.4","4.1160000000000005","103.2","1013.515","26.57","71.34","NAN","0.0"],
    [1568918,"2026-08-21 17:30:00","21628","2.638","117.6","4.508","113.0","1013.638","26.54","71.11","NAN","0.0"],
    [1568919,"2026-08-21 17:40:00","21629","2.737","113.2","5.129","104.2","1013.722","26.46","71.18","NAN","0.0"],
    [1568920,"2026-08-21 17:50:00","21630","2.381","110.7","4.345","113.6","1013.707","26.46","70.89","NAN","0.0"],
    [1568921,"2026-08-21 18:00:00","21631","3.043","113.3","6.566","110.6","1013.692","26.42","72.24","NAN","0.0"],
    [1568922,"2026-08-21 18:10:00","21632","3.0610000000000004","127.9","5.847","119.4","1013.837","26.32","71.75","NAN","0.0"],
    [1568923,"2026-08-21 18:20:00","21633","2.9189999999999996","123.8","5.031000000000001","142.3","1013.947","26.26","71.5","NAN","0.0"],
    [1568924,"2026-08-21 18:30:00","21634","2.464","122.9","5.031000000000001","127.6","1014.118","26.32","71.52","NAN","0.0"],
    [1568925,"2026-08-21 18:40:00","21635","3.284","127.5","5.129","148.9","1014.243","26.23","70.26","NAN","0.0"],
    [1568926,"2026-08-21 18:50:00","21636","2.86","127.0","5.455","108.8","1014.328","26.26","70.13","NAN","0.0"],
    [1568927,"2026-08-21 19:00:00","21637","3.117","121.8","7.154","106.4","1014.3430000000001","26.36","71.01","NAN","0.0"],
    [1568928,"2026-08-21 19:10:00","21638","3.345","124.0","6.501","133.7","1014.4069999999999","26.29","71.55","NAN","0.0"],
    [1568929,"2026-08-21 19:20:00","21639","3.2","120.2","5.422999999999999","142.9","1014.52","26.24","71.41","NAN","0.0"],
    [1568930,"2026-08-21 19:30:00","21640","3.766","125.9","7.056","130.3","1014.697","26.22","70.57","NAN","0.0"],
    [1568931,"2026-08-21 19:40:00","21641","3.4019999999999997","128.7","5.749","116.5","1014.878","26.22","70.62","NAN","0.0"],
    [1568932,"2026-08-21 19:50:00","21642","4.102","125.8","6.697","127.5","1014.938","26.16","70.62","NAN","0.0"],
    [1568933,"2026-08-21 20:00:00","21643","3.3680000000000003","117.4","8.49","117.5","1015.12","26.19","70.31","NAN","0.0"],
    [1568934,"2026-08-21 20:10:00","21644","3.342","109.7","6.5329999999999995","106.3","1015.14","26.21","69.09","NAN","0.0"],
    [1568935,"2026-08-21 20:20:00","21645","3.094","128.2","5.422999999999999","120.2","1015.27","26.23","68.34","NAN","0.0"],
    [1568936,"2026-08-21 20:30:00","21646","2.767","124.7","4.933","112.2","1015.539","26.26","68.29","NAN","0.0"],
    [1568937,"2026-08-21 20:40:00","21647","3.1289999999999996","123.0","5.39","141.4","1015.725","26.32","67.76","NAN","0.0"],
    [1568938,"2026-08-21 20:50:00","21648","2.842","118.1","5.325","105.7","1015.7130000000001","26.36","67.31","NAN","0.0"],
    [1568939,"2026-08-21 21:00:00","21649","2.59","117.3","4.606","139.1","1015.685","26.34","66.37","NAN","0.0"],
    [1568940,"2026-08-21 21:10:00","21650","3.0980000000000003","113.4","6.207000000000001","97.8","1015.648","26.34","65.98","NAN","0.0"],
    [1568941,"2026-08-21 21:20:00","21651","3.1460000000000004","121.5","5.978","139.6","1015.566","26.29","65.4","NAN","0.0"],
    [1568942,"2026-08-21 21:30:00","21652","2.3569999999999998","125.7","4.508","107.8","1015.763","26.34","65.37","NAN","0.0"],
    [1568943,"2026-08-21 21:40:00","21653","2.4530000000000003","127.6","4.671","98.8","1015.817","26.42","64.62","NAN","0.0"],
    [1568944,"2026-08-21 21:50:00","21654","3.1460000000000004","123.8","5.194","110.4","1015.7080000000001","26.46","64.43","NAN","0.0"],
    [1568945,"2026-08-21 22:00:00","21655","2.6719999999999997","125.7","4.4430000000000005","116.4","1015.645","26.45","63.89","NAN","0.0"],
    [1568946,"2026-08-21 22:10:00","21656","2.48","133.2","5.227","115.4","1015.6010000000001","26.44","63.86","NAN","0.0"],
    [1568947,"2026-08-21 22:20:00","21657","3.035","120.5","5.749","111.2","1015.596","26.44","64.21","NAN","0.0"],
    [1568948,"2026-08-21 22:30:00","21658","2.707","127.6","4.933","107.6","1015.633","26.41","64","NAN","0.0"],
    [1568949,"2026-08-21 22:40:00","21659","2.636","116.9","5.39","148.4","1015.716","26.43","64.03","NAN","0.0"],
    [1568950,"2026-08-21 22:50:00","21660","2.658","111.4","4.573","111.1","1015.7","26.44","64.01","NAN","0.0"],
    [1568951,"2026-08-21 23:00:00","21661","2.5540000000000003","90.1","5.1610000000000005","100.6","1015.69","26.38","62.84","NAN","0.0"],
    [1568952,"2026-08-21 23:10:00","21662","2.35","79.1","5.031000000000001","62.9","1015.768","26.26","61.04","NAN","0.0"],
    [1568953,"2026-08-21 23:20:00","21663","2.7119999999999997","86.8","5.4879999999999995","100.7","1015.845","26.18","61.2","NAN","0.0"],
    [1568954,"2026-08-21 23:30:00","21664","2.37","71.75","5.39","50.41","1015.915","26.04","60.4","NAN","0.0"],
    [1568955,"2026-08-21 23:40:00","21665","2.174","75.65","4.247","74.6","1016.074","25.93","60.27","NAN","0.0"],
    [1568956,"2026-08-21 23:50:00","21666","2.616","74.93","5.325","52.89","1015.954","25.83","59.21","NAN","0.0"],
    [1568957,"2026-08-22 00:00:00","21667","2.4419999999999997","68.68","4.802","71.09","1016.0139999999999","25.74","58.94","NAN","0.0"],
    [1568958,"2026-08-22 00:10:00","21668","2.772","75.29","5.586","61.77","1015.814","25.65","59.07","NAN","0.0"],
    [1568959,"2026-08-22 00:20:00","21669","2.18","75.31","4.867","57.66","1015.73","25.59","59.42","NAN","0.0"],
    [1568960,"2026-08-22 00:30:00","21670","2.1519999999999997","77.44","5.619","71.56","1015.7919999999999","25.52","59.68","NAN","0.0"],
    [1568961,"2026-08-22 00:40:00","21671","1.851","58.14","4.312","73.26","1015.783","25.41","59.52","NAN","0.0"],
    [1568962,"2026-08-22 00:50:00","21672","2.081","67.47","4.345","52.41","1015.7130000000001","25.34","59.21","NAN","0.0"],
    [1568963,"2026-08-22 01:00:00","21673","2.363","79.58","4.4430000000000005","69.67","1015.7180000000001","25.36","58.81","NAN","0.0"],
    [1568964,"2026-08-22 01:10:00","21674","1.858","58.79","4.149","85.3","1015.793","25.32","58.49","NAN","0.0"],
    [1568965,"2026-08-22 01:20:00","21675","1.291","48.85","3.593","25.48","1015.85","25.24","58.28","NAN","0.0"],
    [1568966,"2026-08-22 01:30:00","21676","1.329","56.6","3.1689999999999996","54.82","1015.845","25.2","57.9","NAN","0.0"],
    [1568967,"2026-08-22 01:40:00","21677","1.797","70.97","3.887","65.47","1015.862","25.24","57.55","NAN","0.0"],
    [1568968,"2026-08-22 01:50:00","21678","0.8859999999999999","65.7","2.483","94.1","1015.822","25.26","57.07","NAN","0.0"],
    [1568969,"2026-08-22 02:00:00","21679","1.4380000000000002","62.22","2.8089999999999997","92.6","1015.722","25.26","56.28","NAN","0.0"],
    [1568970,"2026-08-22 02:10:00","21680","1.9980000000000002","84.1","4.475","70.94","1015.596","25.25","56.24","NAN","0.0"],
    [1568971,"2026-08-22 02:20:00","21681","1.797","82.1","3.267","82.7","1015.72","25.29","56.91","NAN","0.0"],
    [1568972,"2026-08-22 02:30:00","21682","1.631","79.89","3.201","72.03","1015.7180000000001","25.27","56.54","NAN","0.0"],
    [1568973,"2026-08-22 02:40:00","21683","1.227","48.88","2.679","83.6","1015.82","25.24","55.54","NAN","0.0"],
    [1568974,"2026-08-22 02:50:00","21684","0.67","8.88","1.9269999999999998","30.56","1015.77","25.11","54.38","NAN","0.0"],
    [1568975,"2026-08-22 03:00:00","21685","0.373","54.38","1.4369999999999998","60.2","1015.845","25.1","54.5","NAN","0.0"],
    [1568976,"2026-08-22 03:10:00","21686","1.036","58.02","1.895","33.75","1015.9","25.01","54.81","NAN","0.0"],
    [1568977,"2026-08-22 03:20:00","21687","1.105","29.76","2.025","13.04","1015.7819999999999","24.95","54.65","NAN","0.0"],
    [1568978,"2026-08-22 03:30:00","21688","1.228","49.76","2.7769999999999997","24.15","1015.715","24.93","54.66","NAN","0.0"],
    [1568979,"2026-08-22 03:40:00","21689","0.674","29.06","2.287","31.58","1015.797","24.88","55.15","NAN","0.0"],
    [1568980,"2026-08-22 03:50:00","21690","1.051","55.16","2.123","41.49","1015.695","24.8","55.47","NAN","0.0"],
    [1568981,"2026-08-22 04:00:00","21691","0.762","33.36","1.5030000000000001","26.05","1015.753","24.76","55.4","NAN","0.0"],
    [1568982,"2026-08-22 04:10:00","21692","0.865","55.41","1.699","50.38","1015.832","24.75","55.24","NAN","0.0"],
    [1568983,"2026-08-22 04:20:00","21693","0.882","30.53","2.0909999999999997","23.46","1015.832","24.75","55.31","NAN","0.0"],
    [1568984,"2026-08-22 04:30:00","21694","0.938","28.56","1.764","71.27","1015.855","24.84","55.38","NAN","0.0"],
    [1568985,"2026-08-22 04:40:00","21695","0.733","73.3","3.0380000000000003","142.0","1015.847","24.85","55.86","NAN","0.0"],
    [1568986,"2026-08-22 04:50:00","21696","1.995","79.07","4.312","53.75","1015.837","24.97","57.4","NAN","0.0"],
    [1568987,"2026-08-22 05:00:00","21697","2.162","93.5","3.7239999999999998","86.5","1015.8","25.13","57.1","NAN","0.0"],
    [1568988,"2026-08-22 05:10:00","21698","2.761","98.1","5.096","118.0","1015.98","25.19","58.21","NAN","0.0"],
    [1568989,"2026-08-22 05:20:00","21699","2.8339999999999996","92.7","5.782","95.8","1016.132","25.12","57.79","NAN","0.0"],
    [1568990,"2026-08-22 05:30:00","21700","2.634","90.6","4.312","77.49","1016.378","25.1","55.38","NAN","0.0"],
    [1568991,"2026-08-22 05:40:00","21701","2.76","84.7","4.965","84.1","1016.408","25.09","54.5","NAN","0.0"],
    [1568992,"2026-08-22 05:50:00","21702","2.908","87.6","5.455","89.5","1016.456","25.11","53.75","NAN","0.0"],
    [1568993,"2026-08-22 06:00:00","21703","2.2319999999999998","106.5","3.985","97.4","1016.7919999999999","25.13","53.99","NAN","0.0"],
    [1568994,"2026-08-22 06:10:00","21704","2.042","92.1","3.593","94.7","1016.7589999999999","25.17","55.83","NAN","0.0"],
    [1568995,"2026-08-22 06:20:00","21705","2.173","93.6","3.7889999999999997","92.7","1016.834","25.14","55.1","NAN","0.0"],
    [1568996,"2026-08-22 06:30:00","21706","2.228","97.5","4.704","118.3","1016.9010000000001","25.12","55.06","NAN","0.0"],
    [1568997,"2026-08-22 06:40:00","21707","2.244","92.2","4.508","109.5","1016.9910000000001","25.05","55.84","NAN","0.0"],
    [1568998,"2026-08-22 06:50:00","21708","1.815","72.21","3.528","55.28","1017.053","25.04","55.38","NAN","0.0"],
    [1568999,"2026-08-22 07:00:00","21709","1.2590000000000001","51.48","2.8089999999999997","65.7","1017.1010000000001","24.81","56.36","NAN","0.0"],
    [1569000,"2026-08-22 07:10:00","21710","1.2770000000000001","41.85","2.189","30.89","1017.173","24.71","56.62","NAN","0.0"],
    [1569001,"2026-08-22 07:20:00","21711","1.47","40.34","3.463","54.62","1017.1110000000001","24.75","56.43","NAN","0.0"],
    [1569002,"2026-08-22 07:30:00","21712","1.178","62.52","2.875","32.31","1017.1110000000001","24.99","55.76","NAN","0.0"],
    [1569003,"2026-08-22 07:40:00","21713","1.0170000000000001","47.96","2.515","6.522","1017.288","25.1","55.54","NAN","0.0"],
    [1569004,"2026-08-22 07:50:00","21714","1.4340000000000002","52.22","2.94","72.43","1017.332","24.98","55.76","NAN","0.0"],
    [1569005,"2026-08-22 08:00:00","21715","1.2790000000000001","43.11","3.0380000000000003","28.81","1017.332","25","55.45","NAN","0.0"],
    [1569006,"2026-08-22 08:10:00","21716","1.733","74.07","3.6260000000000003","86.2","1017.332","24.98","55.58","NAN","0.0"],
    [1569007,"2026-08-22 08:20:00","21717","1.633","62.5","3.463","37.48","1017.332","25.11","54.91","NAN","0.0"],
    [1569008,"2026-08-22 08:30:00","21718","1.01","56.72","2.287","71.66","1017.377","25.43","53.6","NAN","0.0"],
    [1569009,"2026-08-22 08:40:00","21719","1.234","60.24","3.495","52.7","1017.482","25.39","53.66","NAN","0.0"],
    [1569010,"2026-08-22 08:50:00","21720","0.5820000000000001","31.1","1.4369999999999998","0.122","1017.6489999999999","25.62","53.45","NAN","0.0"],
    [1569011,"2026-08-22 09:00:00","21721","0.897","60.0","2.156","57.2","1017.813","25.88","52.5","NAN","0.0"],
    [1569012,"2026-08-22 09:10:00","21722","1.057","65.78","3.071","57.01","1017.836","26.15","51.68","NAN","0.0"],
    [1569013,"2026-08-22 09:20:00","21723","2.188","89.0","4.573","91.4","1017.831","26.29","51.25","NAN","0.0"],
    [1569014,"2026-08-22 09:30:00","21724","1.824","101.4","4.1160000000000005","101.4","1017.822","26.52","50.91","NAN","0.0"],
    [1569015,"2026-08-22 09:40:00","21725","2.258","83.4","4.704","106.6","1017.961","26.71","50.53","NAN","0.0"],
    [1569016,"2026-08-22 09:50:00","21726","2.096","66.48","4.802","106.9","1017.972","26.6","49.74","NAN","0.0"],
    [1569017,"2026-08-22 10:00:00","21727","2.597","98.4","5.129","104.8","1017.821","26.66","49.85","NAN","0.0"],
    [1569018,"2026-08-22 10:10:00","21728","2.3819999999999997","84.4","4.247","95.9","1017.803","26.71","48.76","NAN","0.0"],
    [1569019,"2026-08-22 10:20:00","21729","2.702","93.3","5.031000000000001","111.6","1017.762","26.59","49.57","NAN","0.0"],
    [1569020,"2026-08-22 10:30:00","21730","2.7260000000000004","93.5","4.606","108.1","1017.775","26.6","47.4","NAN","0.0"],
    [1569021,"2026-08-22 10:40:00","21731","2.657","77.68","5.1610000000000005","97.3","1017.808","26.88","47.42","NAN","0.0"],
    [1569022,"2026-08-22 10:50:00","21732","2.377","98.5","5.063","110.5","1017.7660000000001","26.83","47.89","NAN","0.0"],
    [1569023,"2026-08-22 11:00:00","21733","2.483","88.5","5.422999999999999","107.6","1017.7919999999999","27.04","47.16","NAN","0.0"],
    [1569024,"2026-08-22 11:10:00","21734","2.832","100.2","4.606","99.0","1017.732","26.94","49.17","NAN","0.0"],
    [1569025,"2026-08-22 11:20:00","21735","2.45","87.4","4.638999999999999","94.0","1017.6339999999999","26.95","49.35","NAN","0.0"],
    [1569026,"2026-08-22 11:30:00","21736","2.992","109.2","5.782","109.2","1017.5039999999999","26.61","51.33","NAN","0.0"],
    [1569027,"2026-08-22 11:40:00","21737","2.878","101.3","5.031000000000001","118.4","1017.3889999999999","26.72","51.64","NAN","0.0"],
    [1569028,"2026-08-22 11:50:00","21738","2.9219999999999997","98.0","5.227","114.1","1017.3919999999999","26.86","51.26","NAN","0.0"],
    [1569029,"2026-08-22 12:00:00","21739","2.929","89.3","4.835","73.98","1017.295","26.6","51.88","NAN","0.0"],
    [1569030,"2026-08-22 12:10:00","21740","2.454","102.8","4.638999999999999","104.0","1017.322","26.61","52.91","NAN","0.0"],
    [1569031,"2026-08-22 12:20:00","21741","2.274","101.9","4.638999999999999","112.7","1017.306","26.49","53.78","NAN","0.0"],
    [1569032,"2026-08-22 12:30:00","21742","2.6319999999999997","102.0","5.1610000000000005","109.2","1017.303","26.4","54.36","NAN","0.0"],
    [1569033,"2026-08-22 12:40:00","21743","2.645","108.8","4.573","98.2","1017.332","26.32","55.35","NAN","0.0"],
    [1569034,"2026-08-22 12:50:00","21744","2.6639999999999997","101.1","4.508","103.5","1017.326","26.31","55.73","NAN","0.0"],
    [1569035,"2026-08-22 13:00:00","21745","2.428","107.0","4.181","118.8","1017.315","26.55","55.51","NAN","0.0"],
    [1569036,"2026-08-22 13:10:00","21746","2.494","95.1","4.149","99.4","1017.2439999999999","26.91","54.58","NAN","0.0"],
    [1569037,"2026-08-22 13:20:00","21747","2.463","104.2","4.247","112.8","1017.188","27.14","54.5","NAN","0.0"],
    [1569038,"2026-08-22 13:30:00","21748","2.543","110.4","4.573","94.4","1017.01","26.92","54.2","NAN","0.0"],
    [1569039,"2026-08-22 13:40:00","21749","2.34","119.7","4.2139999999999995","137.1","1016.988","26.81","54.56","NAN","0.0"],
    [1569040,"2026-08-22 13:50:00","21750","2.572","125.9","5.031000000000001","108.9","1016.9830000000001","26.55","56.35","NAN","0.0"],
    [1569041,"2026-08-22 14:00:00","21751","2.779","127.5","4.9","111.6","1016.8910000000001","26.48","56.31","NAN","0.0"],
    [1569042,"2026-08-22 14:10:00","21752","2.497","121.1","4.279","114.1","1016.83","26.37","56.59","NAN","0.0"],
    [1569043,"2026-08-22 14:20:00","21753","2.594","125.8","4.933","100.0","1016.829","26.56","57.14","NAN","0.0"],
    [1569044,"2026-08-22 14:30:00","21754","2.395","122.9","4.018","95.0","1016.79","26.67","57.69","NAN","0.0"],
    [1569045,"2026-08-22 14:40:00","21755","2.336","124.7","5.063","147.5","1016.528","26.31","57.93","NAN","0.0"],
    [1569046,"2026-08-22 14:50:00","21756","2.563","126.0","4.2139999999999995","112.8","1016.418","26.49","57.61","NAN","0.0"],
    [1569047,"2026-08-22 15:00:00","21757","2.52","130.2","4.704","115.9","1016.462","26.4","58.76","NAN","0.0"],
    [1569048,"2026-08-22 15:10:00","21758","2.421","126.2","4.345","109.8","1016.335","26.52","58.52","NAN","0.0"],
    [1569049,"2026-08-22 15:20:00","21759","2.383","124.9","3.92","111.7","1016.28","26.55","57.87","NAN","0.0"],
    [1569050,"2026-08-22 15:30:00","21760","2.294","126.7","3.822","112.0","1016.1260000000001","26.45","58.36","NAN","0.0"],
    [1569051,"2026-08-22 15:40:00","21761","2.369","128.4","3.6260000000000003","113.8","1016.086","26.39","58.58","NAN","0.0"],
    [1569052,"2026-08-22 15:50:00","21762","2.3040000000000003","127.4","4.018","113.2","1016.076","26.27","60.03","NAN","0.0"],
    [1569053,"2026-08-22 16:00:00","21763","2.174","136.1","4.1160000000000005","119.4","1016.0089999999999","26.21","60.27","NAN","0.0"],
    [1569054,"2026-08-22 16:10:00","21764","2.2","141.5","4.051","163.1","1015.956","26.24","60.59","NAN","0.0"],
    [1569055,"2026-08-22 16:20:00","21765","2.344","125.6","4.606","141.9","1015.952","26.14","61.56","NAN","0.0"],
    [1569056,"2026-08-22 16:30:00","21766","2.046","141.0","3.855","154.2","1015.971","26.09","61.29","NAN","0.0"],
    [1569057,"2026-08-22 16:40:00","21767","2.235","127.1","3.9530000000000003","107.2","1015.9789999999999","26.15","61.15","NAN","0.0"],
    [1569058,"2026-08-22 16:50:00","21768","1.5119999999999998","130.4","2.907","123.2","1015.959","26.18","61.41","NAN","0.0"],
    [1569059,"2026-08-22 17:00:00","21769","1.686","124.8","2.8089999999999997","99.5","1016.0189999999999","25.97","62.64","NAN","0.0"],
    [1569060,"2026-08-22 17:10:00","21770","1.702","113.5","2.907","108.7","1016.003","26.03","63.12","NAN","0.0"],
    [1569061,"2026-08-22 17:20:00","21771","1.4169999999999998","135.1","2.7439999999999998","123.6","1015.904","26","63.84","NAN","0.0"],
    [1569062,"2026-08-22 17:30:00","21772","1.5290000000000001","133.5","2.515","139.7","1015.885","25.9","64.25","NAN","0.0"],
    [1569063,"2026-08-22 17:40:00","21773","1.3319999999999999","131.8","2.842","104.0","1015.865","25.94","64.02","NAN","0.0"],
    [1569064,"2026-08-22 17:50:00","21774","1.348","113.2","2.6460000000000004","106.9","1015.837","25.95","64.19","NAN","0.0"],
    [1569065,"2026-08-22 18:00:00","21775","1.4269999999999998","111.8","2.417","115.2","1015.822","25.87","64.47","NAN","0.0"],
    [1569066,"2026-08-22 18:10:00","21776","0.932","116.3","2.875","113.0","1015.822","25.8","64.86","NAN","0.0"],
    [1569067,"2026-08-22 18:20:00","21777","0.669","144.4","1.274","89.5","1015.86","25.89","64.91","NAN","0.0"],
    [1569068,"2026-08-22 18:30:00","21778","0.732","137.9","2.025","117.5","1015.962","25.84","65.41","NAN","0.0"],
    [1569069,"2026-08-22 18:40:00","21779","1.129","137.1","1.829","138.6","1015.982","25.72","66.12","NAN","0.0"],
    [1569070,"2026-08-22 18:50:00","21780","0.764","150.7","1.568","191.3","1015.9639999999999","25.77","65.95","NAN","0.0"],
    [1569071,"2026-08-22 19:00:00","21781","1.163","150.1","2.025","161.2","1016.047","25.62","66.37","NAN","0.0"],
    [1569072,"2026-08-22 19:10:00","21782","0.693","175.4","1.405","172.7","1016.091","25.58","67.04","NAN","0.0"],
    [1569073,"2026-08-22 19:20:00","21783","1.236","174.4","2.123","153.7","1016.122","25.65","67.24","NAN","0.0"],
    [1569074,"2026-08-22 19:30:00","21784","0.905","171.9","1.764","154.5","1016.289","25.59","67.18","NAN","0.0"],
    [1569075,"2026-08-22 19:40:00","21785","0.7709999999999999","139.9","1.47","112.7","1016.3330000000001","25.57","67.21","NAN","0.0"],
    [1569076,"2026-08-22 19:50:00","21786","0.37","139.0","0.915","171.7","1016.403","25.71","67.05","NAN","0.0"],
    [1569077,"2026-08-22 20:00:00","21787","0.746","138.4","1.96","141.9","1016.425","25.71","67.47","NAN","0.0"],
    [1569078,"2026-08-22 20:10:00","21788","0.993","103.7","1.764","118.9","1016.3380000000001","25.71","67.16","NAN","0.0"],
    [1569079,"2026-08-22 20:20:00","21789","0.733","100.2","1.699","107.8","1016.336","25.71","66.7","NAN","0.0"],
    [1569080,"2026-08-22 20:30:00","21790","0.7759999999999999","90.5","2.189","108.9","1016.336","25.7","67.02","NAN","0.0"],
    [1569081,"2026-08-22 20:40:00","21791","0.755","72.97","1.895","70.15","1016.3610000000001","25.77","66.92","NAN","0.0"],
    [1569082,"2026-08-22 20:50:00","21792","0.5820000000000001","96.0","1.307","98.3","1016.445","25.75","66.97","NAN","0.0"],
    [1569083,"2026-08-22 21:00:00","21793","0.708","105.1","1.568","111.8","1016.553","25.79","67.18","NAN","0.0"],
    [1569084,"2026-08-22 21:10:00","21794","0.46399999999999997","156.5","1.274","148.1","1016.687","25.66","67.56","NAN","0.0"],
    [1569085,"2026-08-22 21:20:00","21795","0.375","113.4","0.882","105.3","1016.809","25.67","67.73","NAN","0.0"],
    [1569086,"2026-08-22 21:30:00","21796","0.054000000000000006","97.5","0.523","116.5","1016.834","25.7","67.92","NAN","0.0"],
    [1569087,"2026-08-22 21:40:00","21797","0.069","102.5","0.7190000000000001","125.7","1016.834","25.69","67.97","NAN","0.0"],
    [1569088,"2026-08-22 21:50:00","21798","0.752","162.1","1.143","183.9","1016.831","25.7","68.12","NAN","0.0"],
    [1569089,"2026-08-22 22:00:00","21799","0.755","66.52","1.4369999999999998","70.36","1016.846","25.64","68.29","NAN","0.0"],
    [1569090,"2026-08-22 22:10:00","21800","0.6409999999999999","49.26","1.143","16.57","1016.954","25.58","68.43","NAN","0.0"],
    [1569091,"2026-08-22 22:20:00","21801","0.049","66.63","1.013","56.18","1016.8510000000001","25.57","68.62","NAN","0.0"],
    [1569092,"2026-08-22 22:30:00","21802","0.0","0.0","0.0","0.0","1016.8839999999999","25.6","68.58","NAN","0.0"],
    [1569093,"2026-08-22 22:40:00","21803","0.078","167.7","0.784","164.2","1016.8689999999999","25.64","68.53","NAN","0.0"],
    [1569094,"2026-08-22 22:50:00","21804","0.299","80.1","1.143","73.93","1016.8610000000001","25.64","68.59","NAN","0.0"],
    [1569095,"2026-08-22 23:00:00","21805","0.573","73.19","1.4369999999999998","45.64","1016.934","25.63","68.87","NAN","0.0"],
    [1569096,"2026-08-22 23:10:00","21806","0.302","140.4","0.915","129.9","1016.961","25.6","68.99","NAN","0.0"],
    [1569097,"2026-08-22 23:20:00","21807","0.091","84.7","0.8170000000000001","81.5","1016.9860000000001","25.49","69.47","NAN","0.0"],
    [1569098,"2026-08-22 23:30:00","21808","0.8490000000000001","52.37","1.96","1.954","1017.038","25.5","69.27","NAN","0.0"],
    [1569099,"2026-08-22 23:40:00","21809","0.716","24.71","1.568","1.122","1017.063","25.43","68.48","NAN","0.0"],
    [1569100,"2026-08-22 23:50:00","21810","0.579","19.35","1.8619999999999999","16.74","1017.081","25.49","67.58","NAN","0.0"],
    [1569101,"2026-08-23 00:00:00","21811","0.8340000000000001","32.88","1.601","345.3","1017.038","25.38","67.62","NAN","0.0"],
    [1569102,"2026-08-23 00:10:00","21812","1.1340000000000001","19.62","2.613","5.16","1016.9580000000001","25.29","67.92","NAN","0.0"],
    [1569103,"2026-08-23 00:20:00","21813","0.988","25.9","2.5810000000000004","355.7","1016.8560000000001","25.23","68.15","NAN","0.0"],
    [1569104,"2026-08-23 00:30:00","21814","1.555","11.03","3.887","16.19","1016.834","25.06","68.22","NAN","0.0"],
    [1569105,"2026-08-23 00:40:00","21815","1.619","14.92","3.299","356.5","1016.7860000000001","24.95","68.12","NAN","0.0"],
    [1569106,"2026-08-23 00:50:00","21816","1.18","11.96","2.842","27.03","1016.6569999999999","24.89","68.11","NAN","0.0"],
    [1569107,"2026-08-23 01:00:00","21817","1.075","10.23","2.907","17.79","1016.54","24.85","68.11","NAN","0.0"],
    [1569108,"2026-08-23 01:10:00","21818","0.8640000000000001","25.4","2.613","24.35","1016.403","24.71","68.57","NAN","0.0"],
    [1569109,"2026-08-23 01:20:00","21819","0.7759999999999999","42.39","1.895","38.14","1016.331","24.61","68.9","NAN","0.0"],
    [1569110,"2026-08-23 01:30:00","21820","0.647","14.52","1.4369999999999998","46.1","1016.263","24.55","69.08","NAN","0.0"],
    [1569111,"2026-08-23 01:40:00","21821","0.8909999999999999","4.269","1.8619999999999999","17.39","1016.209","24.59","69.01","NAN","0.0"],
    [1569112,"2026-08-23 01:50:00","21822","0.812","9.45","2.254","12.09","1016.211","24.66","68.88","NAN","0.0"],
    [1569113,"2026-08-23 02:00:00","21823","0.71","7.519","1.535","345.5","1016.216","24.78","68.76","NAN","0.0"],
    [1569114,"2026-08-23 02:10:00","21824","0.835","9.87","2.0909999999999997","353.5","1016.211","24.91","68.68","NAN","0.0"],
    [1569115,"2026-08-23 02:20:00","21825","0.635","7.0120000000000005","2.123","33.87","1016.2139999999999","24.94","68.91","NAN","0.0"],
    [1569116,"2026-08-23 02:30:00","21826","0.605","48.4","1.535","31.04","1016.204","24.86","68.96","NAN","0.0"],
    [1569117,"2026-08-23 02:40:00","21827","0.48","17.15","1.797","13.69","1016.0989999999999","24.92","69.25","NAN","0.0"],
    [1569118,"2026-08-23 02:50:00","21828","0.47100000000000003","31.27","1.307","25.21","1016.002","25.03","68.89","NAN","0.0"],
    [1569119,"2026-08-23 03:00:00","21829","0.565","40.46","1.601","38.45","1015.8939999999999","24.97","69.02","NAN","0.0"],
    [1569120,"2026-08-23 03:10:00","21830","0.674","40.63","1.4369999999999998","22.22","1015.84","24.84","69.55","NAN","0.0"],
    [1569121,"2026-08-23 03:20:00","21831","1.083","44.55","1.829","31.65","1015.825","24.75","69.59","NAN","0.0"],
    [1569122,"2026-08-23 03:30:00","21832","0.893","43.56","1.666","69.53","1015.802","24.62","70","NAN","0.0"],
    [1569123,"2026-08-23 03:40:00","21833","0.675","28.37","1.633","19.07","1015.7330000000001","24.6","70.23","NAN","0.0"],
    [1569124,"2026-08-23 03:50:00","21834","0.779","28.23","1.535","26.36","1015.74","24.66","70.08","NAN","0.0"],
    [1569125,"2026-08-23 04:00:00","21835","0.7240000000000001","19.29","1.7309999999999999","353.1","1015.665","24.59","70.22","NAN","0.0"],
    [1569126,"2026-08-23 04:10:00","21836","0.67","11.95","1.7309999999999999","1.976","1015.7","24.48","70.4","NAN","0.0"],
    [1569127,"2026-08-23 04:20:00","21837","1.216","9.52","2.548","351.1","1015.74","24.27","70.71","NAN","0.0"],
    [1569128,"2026-08-23 04:30:00","21838","0.65","19.36","2.123","19.77","1015.805","24.25","71.18","NAN","0.0"],
    [1569129,"2026-08-23 04:40:00","21839","0.64","28.57","1.568","350.0","1015.762","24.36","71.12","NAN","0.0"],
    [1569130,"2026-08-23 04:50:00","21840","0.862","37.1","1.797","21.94","1015.72","24.41","71.29","NAN","0.0"],
    [1569131,"2026-08-23 05:00:00","21841","0.626","13.88","1.7309999999999999","37.57","1015.7180000000001","24.46","71.18","NAN","0.0"],
    [1569132,"2026-08-23 05:10:00","21842","0.473","20.89","1.601","40.47","1015.82","24.52","71","NAN","0.0"],
    [1569133,"2026-08-23 05:20:00","21843","0.5379999999999999","33.37","1.4369999999999998","34.18","1015.927","24.52","70.95","NAN","0.0"],
    [1569134,"2026-08-23 05:30:00","21844","0.48700000000000004","2.3609999999999998","1.601","6.537999999999999","1016.0239999999999","24.6","70.62","NAN","0.0"],
    [1569135,"2026-08-23 05:40:00","21845","0.619","46.44","1.601","40.62","1016.082","24.74","69.86","NAN","0.0"],
    [1569136,"2026-08-23 05:50:00","21846","0.469","36.99","1.339","21.57","1016.0889999999999","24.84","69.86","NAN","0.0"],
    [1569137,"2026-08-23 06:00:00","21847","0.767","40.91","1.568","34.66","1016.2489999999999","25.1","68.91","NAN","0.0"],
    [1569138,"2026-08-23 06:10:00","21848","0.823","33.56","1.993","47.24","1016.3610000000001","25.11","68.56","NAN","0.0"],
    [1569139,"2026-08-23 06:20:00","21849","0.9640000000000001","37.8","1.666","26.75","1016.421","25.38","67.78","NAN","0.0"],
    [1569140,"2026-08-23 06:30:00","21850","1.023","46.99","1.895","69.88","1016.53","25.76","66.22","NAN","0.0"],
    [1569141,"2026-08-23 06:40:00","21851","0.6709999999999999","21.76","1.274","39.9","1016.592","26.07","65.25","NAN","0.0"],
    [1569142,"2026-08-23 06:50:00","21852","0.541","10.08","1.307","12.39","1016.587","26.37","64.66","NAN","0.0"],
    [1569143,"2026-08-23 07:00:00","21853","0.6890000000000001","98.6","1.143","100.3","1016.582","27.03","63.1","NAN","0.0"],
    [1569144,"2026-08-23 07:10:00","21854","0.8420000000000001","105.5","1.339","116.2","1016.658","27.27","62.83","NAN","0.0"],
    [1569145,"2026-08-23 07:20:00","21855","0.941","123.2","1.47","109.9","1016.678","27.21","63.58","NAN","0.0"],
    [1569146,"2026-08-23 07:30:00","21856","0.6940000000000001","187.2","1.3719999999999999","207.6","1016.7330000000001","27.31","64.73","NAN","0.0"],
    [1569147,"2026-08-23 07:40:00","21857","0.775","192.4","1.993","161.3","1016.735","27.9","63.47","NAN","0.0"],
    [1569148,"2026-08-23 07:50:00","21858","1.187","170.1","2.156","179.7","1016.7180000000001","27.15","66.64","NAN","0.0"],
    [1569149,"2026-08-23 08:00:00","21859","1.347","160.0","2.45","109.4","1016.722","27.33","67.53","NAN","0.0"],
    [1569150,"2026-08-23 08:10:00","21860","1.506","133.1","3.071","119.6","1016.7330000000001","27.29","67.7","NAN","0.0"],
    [1569151,"2026-08-23 08:20:00","21861","1.663","117.8","2.94","113.7","1016.76","27.39","67.19","NAN","0.0"],
    [1569152,"2026-08-23 08:30:00","21862","1.845","125.0","2.842","104.3","1016.72","27.18","68.08","NAN","0.0"],
    [1569153,"2026-08-23 08:40:00","21863","1.849","122.8","3.071","112.2","1016.758","27","68.83","NAN","0.0"],
    [1569154,"2026-08-23 08:50:00","21864","2.184","115.3","3.7569999999999997","125.5","1016.7860000000001","27.17","68.59","NAN","0.0"],
    [1569155,"2026-08-23 09:00:00","21865","1.993","124.8","3.463","102.8","1016.784","27.5","67.72","NAN","0.0"],
    [1569156,"2026-08-23 09:10:00","21866","1.913","132.6","3.463","102.4","1016.722","27.36","68.49","NAN","0.0"],
    [1569157,"2026-08-23 09:20:00","21867","2.104","131.7","3.201","161.9","1016.6569999999999","27.52","67.96","NAN","0.0"],
    [1569158,"2026-08-23 09:30:00","21868","1.9909999999999999","143.8","3.267","155.3","1016.7360000000001","27.63","67.92","NAN","0.0"],
    [1569159,"2026-08-23 09:40:00","21869","2.188","143.9","3.7569999999999997","162.0","1016.796","27.5","68.62","NAN","0.0"],
    [1569160,"2026-08-23 09:50:00","21870","2.197","149.6","3.855","165.0","1016.794","27.75","68.26","NAN","0.0"],
    [1569161,"2026-08-23 10:00:00","21871","2.612","140.2","4.41","95.2","1016.809","27.6","69.34","NAN","0.0"],
    [1569162,"2026-08-23 10:10:00","21872","2.229","140.4","3.92","139.9","1016.8","27.76","69.33","NAN","0.0"],
    [1569163,"2026-08-23 10:20:00","21873","2.4419999999999997","150.5","4.083","171.7","1016.812","27.97","68.6","NAN","0.0"],
    [1569164,"2026-08-23 10:30:00","21874","1.952","170.8","3.299","147.3","1016.817","28.29","68.46","NAN","0.0"],
    [1569165,"2026-08-23 10:40:00","21875","2.458","184.8","4.541","166.3","1016.7760000000001","28.35","68.4","NAN","0.0"],
    [1569166,"2026-08-23 10:50:00","21876","2.4090000000000003","179.4","3.593","187.1","1016.722","28.16","69.59","NAN","0.0"],
    [1569167,"2026-08-23 11:00:00","21877","2.537","178.2","4.573","145.7","1016.698","28.32","69.48","NAN","0.0"],
    [1569168,"2026-08-23 11:10:00","21878","2.5860000000000003","174.8","4.377","157.7","1016.578","28.19","70.14","NAN","0.0"],
    [1569169,"2026-08-23 11:20:00","21879","2.6689999999999996","177.6","4.606","180.3","1016.4910000000001","28.34","70.07","NAN","0.0"],
    [1569170,"2026-08-23 11:30:00","21880","2.786","175.2","4.475","180.3","1016.4169999999999","28.23","70.99","NAN","0.0"],
    [1569171,"2026-08-23 11:40:00","21881","3.37","176.9","5.227","185.0","1016.325","28.11","71.21","NAN","0.0"],
    [1569172,"2026-08-23 11:50:00","21882","2.8280000000000003","176.0","4.998","174.7","1016.314","28.47","70.29","NAN","0.0"],
    [1569173,"2026-08-23 12:00:00","21883","3.597","170.6","5.847","153.4","1016.323","28.23","70.59","NAN","0.0"],
    [1569174,"2026-08-23 12:10:00","21884","2.9530000000000003","177.7","5.422999999999999","172.5","1016.293","28.4","70.41","NAN","0.0"],
    [1569175,"2026-08-23 12:20:00","21885","2.909","173.8","4.704","162.4","1016.164","28.61","69.5","NAN","0.0"],
    [1569176,"2026-08-23 12:30:00","21886","2.951","174.0","4.541","180.5","1016.061","28.41","70.33","NAN","0.0"],
    [1569177,"2026-08-23 12:40:00","21887","2.9210000000000003","171.8","4.933","167.3","1016.054","28.34","70.81","NAN","0.0"],
    [1569178,"2026-08-23 12:50:00","21888","3.0839999999999996","170.9","4.9","148.9","1015.893","28.45","69.99","NAN","0.0"],
    [1569179,"2026-08-23 13:00:00","21889","2.7769999999999997","179.2","5.031000000000001","153.2","1015.817","28.48","70.11","NAN","0.0"],
    [1569180,"2026-08-23 13:10:00","21890","2.33","173.2","3.463","179.9","1015.674","28.9","68.83","NAN","0.0"],
    [1569181,"2026-08-23 13:20:00","21891","2.336","158.4","4.377","120.1","1015.538","28.88","68.95","NAN","0.0"],
    [1569182,"2026-08-23 13:30:00","21892","2.334","177.1","3.985","169.4","1015.465","29.02","68.29","NAN","0.0"],
    [1569183,"2026-08-23 13:40:00","21893","2.7710000000000004","180.1","4.247","176.0","1015.4069999999999","28.75","68.64","NAN","0.0"],
    [1569184,"2026-08-23 13:50:00","21894","3.075","178.7","5.39","174.1","1015.39","28.57","69.28","NAN","0.0"],
    [1569185,"2026-08-23 14:00:00","21895","3.052","178.1","5.1610000000000005","176.6","1015.427","28.51","69.84","NAN","0.0"],
    [1569186,"2026-08-23 14:10:00","21896","3.082","177.6","5.227","183.0","1015.39","28.64","69.54","NAN","0.0"],
    [1569187,"2026-08-23 14:20:00","21897","3.123","176.1","5.1610000000000005","167.9","1015.33","28.45","69.69","NAN","0.0"],
    [1569188,"2026-08-23 14:30:00","21898","3.375","176.4","5.194","177.9","1015.321","28.54","68.88","NAN","0.0"],
    [1569189,"2026-08-23 14:40:00","21899","3.366","175.0","5.357","177.4","1015.313","28.45","68.76","NAN","0.0"],
    [1569190,"2026-08-23 14:50:00","21900","3.167","182.4","6.239","176.8","1015.3530000000001","28.7","67.57","NAN","0.0"],
    [1569191,"2026-08-23 15:00:00","21901","3.01","179.8","5.1610000000000005","183.1","1015.45","28.75","66.5","NAN","0.0"],
    [1569192,"2026-08-23 15:10:00","21902","2.752","179.5","4.965","160.9","1015.4639999999999","29.04","65.24","NAN","0.0"],
    [1569193,"2026-08-23 15:20:00","21903","2.655","184.8","4.998","177.3","1015.5989999999999","29.06","65.44","NAN","0.0"],
    [1569194,"2026-08-23 15:30:00","21904","3.052","182.0","5.292000000000001","184.9","1015.555","28.99","65.2","NAN","0.0"],
    [1569195,"2026-08-23 15:40:00","21905","3.029","177.4","6.239","176.6","1015.36","28.74","66.52","NAN","0.0"],
    [1569196,"2026-08-23 15:50:00","21906","3.358","176.2","5.422999999999999","177.9","1015.331","28.57","66.81","NAN","0.0"],
    [1569197,"2026-08-23 16:00:00","21907","3.133","175.8","4.9","172.7","1015.324","28.75","65.88","NAN","0.0"],
    [1569198,"2026-08-23 16:10:00","21908","2.92","177.7","5.031000000000001","164.9","1015.34","28.61","66.26","NAN","0.0"],
    [1569199,"2026-08-23 16:20:00","21909","2.642","184.0","4.965","157.8","1015.326","28.65","65.79","NAN","0.0"],
    [1569200,"2026-08-23 16:30:00","21910","2.842","174.4","4.769","176.4","1015.163","28.56","66.68","NAN","0.0"],
    [1569201,"2026-08-23 16:40:00","21911","2.614","180.7","5.063","183.3","1015.2289999999999","28.45","66.92","NAN","0.0"],
    [1569202,"2026-08-23 16:50:00","21912","2.563","178.8","4.769","177.4","1015.199","28.57","66.07","NAN","0.0"],
    [1569203,"2026-08-23 17:00:00","21913","2.783","172.9","4.312","176.9","1015.199","28.38","67.19","NAN","0.0"],
    [1569204,"2026-08-23 17:10:00","21914","2.802","172.3","5.194","177.5","1015.14","28.19","67.47","NAN","0.0"],
    [1569205,"2026-08-23 17:20:00","21915","2.005","184.1","3.201","177.3","1015.216","28.22","67.01","NAN","0.0"],
    [1569206,"2026-08-23 17:30:00","21916","2.0069999999999997","181.5","3.7889999999999997","169.5","1015.002","28.21","67.68","NAN","0.0"],
    [1569207,"2026-08-23 17:40:00","21917","2.419","182.2","4.508","173.6","1014.888","28.04","67.45","NAN","0.0"],
    [1569208,"2026-08-23 17:50:00","21918","2.256","183.5","4.149","174.6","1014.841","27.98","67.07","NAN","0.0"],
    [1569209,"2026-08-23 18:00:00","21919","2.4819999999999998","173.6","4.149","178.1","1014.678","27.98","67.54","NAN","0.0"],
    [1569210,"2026-08-23 18:10:00","21920","1.9280000000000002","186.0","3.659","184.9","1014.6519999999999","27.96","66.68","NAN","0.0"],
    [1569211,"2026-08-23 18:20:00","21921","2.165","174.3","3.267","173.1","1014.784","27.91","67.81","NAN","0.0"],
    [1569212,"2026-08-23 18:30:00","21922","1.838","176.0","3.136","155.9","1014.7710000000001","27.92","67.53","NAN","0.0"],
    [1569213,"2026-08-23 18:40:00","21923","1.2890000000000001","193.6","3.6260000000000003","177.0","1014.669","27.93","66.54","NAN","0.0"],
    [1569214,"2026-08-23 18:50:00","21924","1.81","179.3","3.5610000000000004","178.9","1014.577","27.82","67.85","NAN","0.0"],
    [1569215,"2026-08-23 19:00:00","21925","1.4369999999999998","184.0","2.679","171.9","1014.702","27.77","68.38","NAN","0.0"],
    [1569216,"2026-08-23 19:10:00","21926","0.9179999999999999","201.5","1.829","185.2","1014.9760000000001","27.78","68.56","NAN","0.0"],
    [1569217,"2026-08-23 19:20:00","21927","0.871","199.1","2.319","245.2","1015.19","27.69","69.4","NAN","0.0"],
    [1569218,"2026-08-23 19:30:00","21928","1.004","209.1","2.515","194.8","1015.3389999999999","27.83","67.63","NAN","0.0"],
    [1569219,"2026-08-23 19:40:00","21929","0.851","201.6","1.9269999999999998","202.9","1015.3389999999999","27.8","67.35","NAN","0.0"],
    [1569220,"2026-08-23 19:50:00","21930","0.7090000000000001","202.8","2.319","197.6","1015.3389999999999","27.66","68.7","NAN","0.0"],
    [1569221,"2026-08-23 20:00:00","21931","0.653","202.2","1.9269999999999998","201.3","1015.342","27.71","68.22","NAN","0.0"],
    [1569222,"2026-08-23 20:10:00","21932","1.217","192.3","2.9730000000000003","182.0","1015.551","27.6","69.11","NAN","0.0"],
    [1569223,"2026-08-23 20:20:00","21933","1.57","172.1","2.45","188.7","1015.725","27.61","69.8","NAN","0.0"],
    [1569224,"2026-08-23 20:30:00","21934","1.528","174.0","2.5810000000000004","173.5","1015.895","27.64","70.11","NAN","0.0"],
    [1569225,"2026-08-23 20:40:00","21935","1.5859999999999999","176.3","3.0380000000000003","177.8","1015.7869999999999","27.56","70.68","NAN","0.0"],
    [1569226,"2026-08-23 20:50:00","21936","0.7","192.5","1.633","214.8","1015.638","27.5","70.59","NAN","0.0"],
    [1569227,"2026-08-23 21:00:00","21937","0.99","164.8","1.797","144.1","1015.6110000000001","27.46","71.49","NAN","0.0"],
    [1569228,"2026-08-23 21:10:00","21938","0.868","183.5","1.3719999999999999","204.2","1015.5880000000001","27.42","72.76","NAN","0.0"],
    [1569229,"2026-08-23 21:20:00","21939","0.787","183.6","1.47","185.3","1015.3639999999999","27.3","72.24","NAN","0.0"],
    [1569230,"2026-08-23 21:30:00","21940","0.787","181.4","1.535","173.1","1015.3389999999999","27.37","72.26","NAN","0.0"],
    [1569231,"2026-08-23 21:40:00","21941","0.9670000000000001","186.9","1.9269999999999998","172.6","1015.2739999999999","27.26","72.22","NAN","0.0"],
    [1569232,"2026-08-23 21:50:00","21942","1.147","171.3","1.829","177.9","1015.062","27.23","71.94","NAN","0.0"],
    [1569233,"2026-08-23 22:00:00","21943","0.987","172.2","1.8619999999999999","181.4","1015.053","27.3","71.77","NAN","0.0"],
    [1569234,"2026-08-23 22:10:00","21944","0.82","170.1","1.699","184.1","1015.1","27.27","72.19","NAN","0.0"],
    [1569235,"2026-08-23 22:20:00","21945","0.9620000000000001","179.1","1.764","176.1","1015.12","27.18","72.38","NAN","0.0"],
    [1569236,"2026-08-23 22:30:00","21946","0.682","191.5","1.3719999999999999","180.7","1015.295","27.13","72.08","NAN","0.0"],
    [1569237,"2026-08-23 22:40:00","21947","0.358","199.9","1.176","248.3","1015.324","27.15","72.34","NAN","0.0"],
    [1569238,"2026-08-23 22:50:00","21948","0.574","213.2","1.7309999999999999","212.5","1015.3439999999999","27.2","71.6","NAN","0.0"],
    [1569239,"2026-08-23 23:00:00","21949","0.254","210.5","1.045","235.5","1015.347","27.2","71.43","NAN","0.0"],
    [1569240,"2026-08-23 23:10:00","21950","0.657","183.5","1.274","196.9","1015.3660000000001","27.15","71.79","NAN","0.0"],
    [1569241,"2026-08-23 23:20:00","21951","0.507","179.1","0.8490000000000001","169.7","1015.2919999999999","27.09","72.42","NAN","0.0"],
    [1569242,"2026-08-23 23:30:00","21952","0.402","193.0","1.2409999999999999","196.7","1015.291","26.99","73.47","NAN","0.0"],
    [1569243,"2026-08-23 23:40:00","21953","0.205","218.9","1.143","231.7","1015.289","26.9","73.28","NAN","0.0"],
    [1569244,"2026-08-23 23:50:00","21954","0.309","255.3","1.078","238.2","1015.329","27.14","71.14","NAN","0.0"],
    [1569245,"2026-08-24 00:00:00","21955","0.11","212.1","0.6859999999999999","155.4","1015.2769999999999","27.22","70.78","NAN","0.0"],
    [1569246,"2026-08-24 00:10:00","21956","0.184","228.7","0.882","218.8","1015.2339999999999","27.18","70.71","NAN","0.0"],
    [1569247,"2026-08-24 00:20:00","21957","0.364","202.6","1.045","201.1","1015.174","26.98","72.05","NAN","0.0"],
    [1569248,"2026-08-24 00:30:00","21958","0.1","229.4","0.555","196.4","1014.992","26.89","72.14","NAN","0.0"],
    [1569249,"2026-08-24 00:40:00","21959","0.597","23.63","1.829","23.76","1014.8910000000001","27.01","70.92","NAN","0.0"],
    [1569250,"2026-08-24 00:50:00","21960","0.5589999999999999","35.72","1.307","18.64","1014.701","26.66","72.02","NAN","0.0"],
    [1569251,"2026-08-24 01:00:00","21961","0.89","36.9","1.993","20.99","1014.541","26.57","72.46","NAN","0.0"],
    [1569252,"2026-08-24 01:10:00","21962","0.544","35.99","1.895","45.52","1014.3969999999999","26.55","72.46","NAN","0.0"],
    [1569253,"2026-08-24 01:20:00","21963","0.823","37.04","2.483","22.85","1014.3430000000001","26.49","72.77","NAN","0.0"],
    [1569254,"2026-08-24 01:30:00","21964","0.8370000000000001","34.52","2.0909999999999997","18.96","1014.385","26.4","73.13","NAN","0.0"],
    [1569255,"2026-08-24 01:40:00","21965","0.6859999999999999","36.31","1.568","27.92","1014.2869999999999","26.32","73.34","NAN","0.0"],
    [1569256,"2026-08-24 01:50:00","21966","0.6629999999999999","35.68","1.47","0.7829999999999999","1014.128","26.28","73.44","NAN","0.0"],
    [1569257,"2026-08-24 02:00:00","21967","1.026","18.71","2.385","356.2","1014.1160000000001","26.28","73.42","NAN","0.0"],
    [1569258,"2026-08-24 02:10:00","21968","0.8029999999999999","9.13","2.319","27.74","1014.165","26.3","73.26","NAN","0.0"],
    [1569259,"2026-08-24 02:20:00","21969","0.845","34.18","1.8619999999999999","42.69","1014.043","26.2","73.61","NAN","0.0"],
    [1569260,"2026-08-24 02:30:00","21970","0.316","31.78","1.143","41.79","1014.123","26.09","74.03","NAN","0.0"],
    [1569261,"2026-08-24 02:40:00","21971","0.604","44.64","1.5030000000000001","61.91","1014.068","26.01","74.4","NAN","0.0"],
    [1569262,"2026-08-24 02:50:00","21972","0.503","27.1","1.5030000000000001","352.8","1014.0260000000001","25.98","74.53","NAN","0.0"],
    [1569263,"2026-08-24 03:00:00","21973","0.64","25.8","1.601","8.18","1013.8789999999999","25.98","74.58","NAN","0.0"],
    [1569264,"2026-08-24 03:10:00","21974","0.5529999999999999","30.72","1.829","48.15","1013.7739999999999","25.97","74.61","NAN","0.0"],
    [1569265,"2026-08-24 03:20:00","21975","0.52","38.92","1.209","34.48","1013.607","25.9","74.86","NAN","0.0"],
    [1569266,"2026-08-24 03:30:00","21976","0.914","24.37","2.156","1.138","1013.59","25.86","75.01","NAN","0.0"],
    [1569267,"2026-08-24 03:40:00","21977","0.909","17.41","2.483","20.37","1013.508","25.83","75.04","NAN","0.0"],
    [1569268,"2026-08-24 03:50:00","21978","0.713","6.218","1.764","26.28","1013.66","25.86","74.78","NAN","0.0"],
    [1569269,"2026-08-24 04:00:00","21979","0.897","0.242","2.123","10.03","1013.699","25.89","74.59","NAN","0.0"],
    [1569270,"2026-08-24 04:10:00","21980","0.7440000000000001","5.537000000000001","1.7309999999999999","1.006","1013.717","25.85","74.85","NAN","0.0"],
    [1569271,"2026-08-24 04:20:00","21981","0.655","9.77","1.797","13.83","1013.715","25.88","74.61","NAN","0.0"],
    [1569272,"2026-08-24 04:30:00","21982","0.441","38.18","1.535","8.65","1013.817","25.85","74.69","NAN","0.0"],
    [1569273,"2026-08-24 04:40:00","21983","0.41","25.17","1.045","28.25","1013.7589999999999","25.8","74.82","NAN","0.0"],
    [1569274,"2026-08-24 04:50:00","21984","0.688","26.74","1.5030000000000001","32.82","1013.5880000000001","25.74","75.05","NAN","0.0"],
    [1569275,"2026-08-24 05:00:00","21985","0.726","28.45","1.47","39.52","1013.558","25.82","74.61","NAN","0.0"],
    [1569276,"2026-08-24 05:10:00","21986","0.883","33.72","1.699","12.71","1013.62","25.78","74.79","NAN","0.0"],
    [1569277,"2026-08-24 05:20:00","21987","0.596","16.82","1.829","21.26","1013.4060000000001","25.84","74.52","NAN","0.0"],
    [1569278,"2026-08-24 05:30:00","21988","0.649","28.26","1.601","24.71","1013.573","25.92","74.18","NAN","0.0"],
    [1569279,"2026-08-24 05:40:00","21989","0.41100000000000003","4.7219999999999995","1.4369999999999998","44.26","1013.795","26.04","73.69","NAN","0.0"],
    [1569280,"2026-08-24 05:50:00","21990","0.512","354.0","0.9470000000000001","4.084","1014.0939999999999","26.16","73.2","NAN","0.0"],
    [1569281,"2026-08-24 06:00:00","21991","0.13699999999999998","45.17","0.523","52.16","1014.278","26.3","72.94","NAN","0.0"],
    [1569282,"2026-08-24 06:10:00","21992","0.032","52.5","0.327","65.76","1014.363","26.71","72.37","NAN","0.0"],
    [1569283,"2026-08-24 06:20:00","21993","0.126","93.2","0.882","99.0","1014.3919999999999","27.25","71.1","NAN","0.0"],
    [1569284,"2026-08-24 06:30:00","21994","0.9079999999999999","56.41","1.666","31.07","1014.467","27.35","69.72","NAN","0.0"],
    [1569285,"2026-08-24 06:40:00","21995","0.6409999999999999","23.99","1.47","32.98","1014.377","27.3","69.6","NAN","0.0"],
    [1569286,"2026-08-24 06:50:00","21996","0.7809999999999999","8.97","1.666","349.1","1014.297","27.45","68.67","NAN","0.0"],
    [1569287,"2026-08-24 07:00:00","21997","0.9159999999999999","0.58","2.254","29.29","1014.1560000000001","27.44","68.51","NAN","0.0"],
    [1569288,"2026-08-24 07:10:00","21998","1.01","15.68","2.123","30.78","1013.9630000000001","27.39","68.58","NAN","0.0"],
    [1569289,"2026-08-24 07:20:00","21999","1.207","27.03","2.613","31.19","1013.73","27.55","67.8","NAN","0.0"],
    [1569290,"2026-08-24 07:30:00","22000","1.544","18.27","2.7110000000000003","16.63","1013.685","27.62","67.83","NAN","0.0"],
    [1569291,"2026-08-24 07:40:00","22001","1.551","358.3","3.267","17.1","1013.441","27.56","69.01","NAN","0.0"],
    [1569292,"2026-08-24 07:50:00","22002","1.188","354.9","2.613","6.813","1013.551","27.87","68.54","NAN","0.0"],
    [1569293,"2026-08-24 08:00:00","22003","1.103","61.0","2.515","70.61","1013.732","28.4","67.04","NAN","0.0"],
    [1569294,"2026-08-24 08:10:00","22004","0.872","143.3","1.699","150.6","1014.029","28.35","67.39","NAN","0.0"],
    [1569295,"2026-08-24 08:20:00","22005","1.33","128.3","2.254","129.1","1014.252","28.47","67.88","NAN","0.0"],
    [1569296,"2026-08-24 08:30:00","22006","1.337","127.4","2.123","88.8","1014.273","28.31","68.22","NAN","0.0"],
    [1569297,"2026-08-24 08:40:00","22007","1.588","129.9","2.613","108.3","1014.326","28.06","69.17","NAN","0.0"],
    [1569298,"2026-08-24 08:50:00","22008","1.7919999999999998","122.9","2.875","115.1","1014.584","28.1","69.39","NAN","0.0"],
    [1569299,"2026-08-24 09:00:00","22009","1.93","118.9","3.136","106.1","1014.503","27.98","69.86","NAN","0.0"],
    [1569300,"2026-08-24 09:10:00","22010","2.171","117.7","3.267","113.4","1014.097","27.87","70.51","NAN","0.0"],
    [1569301,"2026-08-24 09:20:00","22011","2.312","106.4","3.822","88.9","1013.823","28.21","69.85","NAN","0.0"],
    [1569302,"2026-08-24 09:30:00","22012","2.01","123.5","3.103","112.1","1014.041","28.16","70.41","NAN","0.0"],
    [1569303,"2026-08-24 09:40:00","22013","2.205","116.9","3.43","99.6","1013.943","28.12","71.26","NAN","0.0"],
    [1569304,"2026-08-24 09:50:00","22014","2.1","125.9","3.332","110.0","1013.947","27.87","72.6","NAN","0.0"],
    [1569305,"2026-08-24 10:00:00","22015","1.883","111.4","2.9730000000000003","92.3","1013.687","28.31","72","NAN","0.0"],
    [1569306,"2026-08-24 10:10:00","22016","2.39","102.8","4.1160000000000005","111.7","1013.285","28.15","72.54","NAN","0.0"],
    [1569307,"2026-08-24 10:20:00","22017","2.5140000000000002","110.5","3.855","116.7","1013.191","28.13","73.37","NAN","0.0"],
    [1569308,"2026-08-24 10:30:00","22018","1.864","99.0","3.267","111.1","1013.1","28.56","71.07","NAN","0.0"],
    [1569309,"2026-08-24 10:40:00","22019","1.57","113.6","3.0380000000000003","108.4","1013.0269999999999","28.97","68.43","NAN","0.0"],
    [1569310,"2026-08-24 10:50:00","22020","2.063","124.7","3.299","106.1","1012.8810000000001","28.32","70.63","NAN","0.0"],
    [1569311,"2026-08-24 11:00:00","22021","2.024","110.7","3.365","140.9","1012.811","28.76","69.55","NAN","0.0"],
    [1569312,"2026-08-24 11:10:00","22022","2.145","129.7","3.299","135.8","1012.926","28.84","69.15","NAN","0.0"],
    [1569313,"2026-08-24 11:20:00","22023","2.438","121.6","4.247","109.8","1012.926","28.78","69.82","NAN","0.0"],
    [1569314,"2026-08-24 11:30:00","22024","2.491","126.2","4.475","127.0","1013.069","28.86","69.57","NAN","0.0"],
    [1569315,"2026-08-24 11:40:00","22025","2.645","123.3","4.312","110.9","1013.237","28.83","70.32","NAN","0.0"],
    [1569316,"2026-08-24 11:50:00","22026","2.532","118.3","3.659","110.8","1013.14","28.88","72.39","NAN","0.0"],
    [1569317,"2026-08-24 12:00:00","22027","2.401","120.1","3.6910000000000003","106.9","1013.0169999999999","28.65","74.82","NAN","0.0"],
    [1569318,"2026-08-24 12:10:00","22028","2.22","113.8","3.855","107.5","1012.824","28.94","74.71","NAN","0.0"],
    [1569319,"2026-08-24 12:20:00","22029","2.086","145.2","4.181","160.7","1012.685","29.07","73.76","NAN","0.0"],
    [1569320,"2026-08-24 12:30:00","22030","2.28","135.5","4.1160000000000005","115.1","1012.466","29.24","70.91","NAN","0.0"],
    [1569321,"2026-08-24 12:40:00","22031","2.229","137.7","3.855","107.8","1012.263","29.55","68.05","NAN","0.0"],
    [1569322,"2026-08-24 12:50:00","22032","2.22","140.9","4.051","142.1","1012.065","29.42","67.87","NAN","0.0"],
    [1569323,"2026-08-24 13:00:00","22033","2.489","149.5","4.312","127.5","1012.04","29.2","68.08","NAN","0.0"],
    [1569324,"2026-08-24 13:10:00","22034","2.327","133.9","4.247","117.3","1011.865","29.2","68.03","NAN","0.0"],
    [1569325,"2026-08-24 13:20:00","22035","2.475","148.5","4.149","160.5","1011.62","29.02","69.73","NAN","0.0"],
    [1569326,"2026-08-24 13:30:00","22036","2.0180000000000002","163.1","3.887","108.7","1011.6439999999999","28.85","70.72","NAN","0.0"],
    [1569327,"2026-08-24 13:40:00","22037","2.222","182.7","3.7239999999999998","167.4","1011.6669999999999","28.85","72.29","NAN","0.0"],
    [1569328,"2026-08-24 13:50:00","22038","2.387","179.9","4.181","179.0","1011.763","28.55","74.19","NAN","0.0"],
    [1569329,"2026-08-24 14:00:00","22039","2.079","181.3","3.267","180.0","1011.607","28.52","74.5","NAN","0.0"],
    [1569330,"2026-08-24 14:10:00","22040","2.3209999999999997","177.1","4.671","183.6","1011.305","28.54","73.83","NAN","0.0"],
    [1569331,"2026-08-24 14:20:00","22041","2.238","177.0","4.1160000000000005","154.9","1010.7639999999999","28.72","72.8","NAN","0.0"],
    [1569332,"2026-08-24 14:30:00","22042","1.885","183.5","3.136","177.5","1010.3689999999999","29.04","70.43","NAN","0.0"],
    [1569333,"2026-08-24 14:40:00","22043","1.788","186.9","3.103","180.0","1010.302","29.47","69.06","NAN","0.0"],
    [1569334,"2026-08-24 14:50:00","22044","1.944","173.9","3.103","169.1","1010.195","28.97","71.92","NAN","0.0"],
    [1569335,"2026-08-24 15:00:00","22045","2.41","171.2","4.279","182.6","1009.87","28.85","70.11","NAN","0.0"],
    [1569336,"2026-08-24 15:10:00","22046","2.5869999999999997","179.5","4.475","176.2","1009.77","28.8","71.48","NAN","0.0"],
    [1569337,"2026-08-24 15:20:00","22047","2.908","178.3","5.063","176.4","1009.722","28.85","70.42","NAN","0.0"],
    [1569338,"2026-08-24 15:30:00","22048","3.471","175.9","5.2589999999999995","177.9","1009.508","28.31","73.17","NAN","0.0"],
    [1569339,"2026-08-24 15:40:00","22049","3.5789999999999997","176.3","5.815","171.1","1009.247","28.23","74.6","NAN","0.0"],
    [1569340,"2026-08-24 15:50:00","22050","3.537","184.2","5.749","186.4","1008.987","28.11","75.96","NAN","0.0"],
    [1569341,"2026-08-24 16:00:00","22051","3.302","185.9","5.7170000000000005","183.4","1008.9630000000001","28.11","73.65","NAN","0.0"],
    [1569342,"2026-08-24 16:10:00","22052","2.675","189.4","5.1610000000000005","206.1","1009.123","28.04","73.75","NAN","0.0"],
    [1569343,"2026-08-24 16:20:00","22053","2.17","183.9","4.018","147.1","1009.197","28.09","75.3","NAN","0.0"],
    [1569344,"2026-08-24 16:30:00","22054","1.989","189.8","5.031000000000001","173.2","1009.0880000000001","28.11","75.69","NAN","0.0"],
    [1569345,"2026-08-24 16:40:00","22055","1.9809999999999999","206.5","5.586","176.9","1009.3430000000001","28.08","75.27","NAN","0.0"],
    [1569346,"2026-08-24 16:50:00","22056","1.706","227.6","4.671","250.8","1009.763","28.35","73.87","NAN","0.0"],
    [1569347,"2026-08-24 17:00:00","22057","2.516","231.2","5.684","225.4","1009.878","28.27","75.12","NAN","0.0"],
    [1569348,"2026-08-24 17:10:00","22058","3.523","207.4","8.46","199.9","1009.921","27.88","79.95","NAN","0.2"],
    [1569349,"2026-08-24 17:20:00","22059","4.2010000000000005","203.7","10.78","211.6","1008.325","26.97","87.3","NAN","0.0"],
    [1569350,"2026-08-24 17:30:00","22060","2.9419999999999997","218.1","6.86","224.4","1008.822","26.27","81.2","NAN","0.0"],
    [1569351,"2026-08-24 17:40:00","22061","2.213","203.5","4.671","217.0","1008.818","26.33","72.39","NAN","0.0"],
    [1569352,"2026-08-24 17:50:00","22062","2.971","207.3","6.729","233.4","1009.025","26.32","60.5","NAN","0.0"],
    [1569353,"2026-08-24 18:00:00","22063","2.2230000000000003","232.3","5.031000000000001","226.5","1009.7460000000001","25.97","60.75","NAN","0.0"],
    [1569354,"2026-08-24 18:10:00","22064","1.4040000000000001","229.4","3.6260000000000003","239.3","1009.591","25.99","60.01","NAN","0.0"],
    [1569355,"2026-08-24 18:20:00","22065","2.0180000000000002","250.1","4.083","246.8","1009.693","26.17","58.84","NAN","0.0"],
    [1569356,"2026-08-24 18:30:00","22066","2.434","257.1","5.357","295.7","1009.7239999999999","26.27","59.23","NAN","0.0"],
    [1569357,"2026-08-24 18:40:00","22067","1.62","251.8","4.083","237.3","1009.61","26.13","61.03","NAN","0.0"],
    [1569358,"2026-08-24 18:50:00","22068","1.595","247.3","4.279","230.7","1009.4839999999999","26.32","60.51","NAN","0.0"],
    [1569359,"2026-08-24 19:00:00","22069","2.418","255.6","5.1610000000000005","257.3","1009.449","26.09","61.49","NAN","0.0"],
    [1569360,"2026-08-24 19:10:00","22070","2.5340000000000003","245.9","5.063","223.1","1009.422","26.13","60.59","NAN","0.0"],
    [1569361,"2026-08-24 19:20:00","22071","1.6840000000000002","254.7","4.051","290.2","1009.4789999999999","26.19","59.39","NAN","0.0"],
    [1569362,"2026-08-24 19:30:00","22072","1.3719999999999999","238.4","2.842","224.9","1009.6260000000001","26.4","57.65","NAN","0.0"],
    [1569363,"2026-08-24 19:40:00","22073","1.435","263.5","4.475","308.2","1009.8330000000001","26.57","53.59","NAN","0.0"],
    [1569364,"2026-08-24 19:50:00","22074","1.311","308.7","2.679","317.6","1010.062","26.63","48.91","NAN","0.0"],
    [1569365,"2026-08-24 20:00:00","22075","1.053","287.8","2.907","270.2","1010.1439999999999","26.4","48.97","NAN","0.0"],
    [1569366,"2026-08-24 20:10:00","22076","0.287","239.6","1.7309999999999999","222.1","1010.331","26.42","49.42","NAN","0.0"],
    [1569367,"2026-08-24 20:20:00","22077","0.7759999999999999","233.3","2.679","260.2","1010.3560000000001","26.57","49.03","NAN","0.0"],
    [1569368,"2026-08-24 20:30:00","22078","0.9640000000000001","265.6","2.319","273.7","1010.3580000000001","26.69","48.26","NAN","0.0"],
    [1569369,"2026-08-24 20:40:00","22079","0.45","208.3","1.405","211.5","1010.4830000000001","26.57","49.74","NAN","0.0"],
    [1569370,"2026-08-24 20:50:00","22080","0.578","189.4","1.339","213.8","1010.485","26.12","52.88","NAN","0.0"],
    [1569371,"2026-08-24 21:00:00","22081","0.614","228.5","2.025","249.8","1010.3560000000001","26.26","50.36","NAN","0.0"],
    [1569372,"2026-08-24 21:10:00","22082","0.86","225.0","2.0580000000000003","234.0","1010.303","26.78","48.42","NAN","0.0"],
    [1569373,"2026-08-24 21:20:00","22083","0.69","185.5","1.209","197.0","1010.199","26.69","51.91","NAN","0.0"],
    [1569374,"2026-08-24 21:30:00","22084","0.539","171.8","1.405","152.9","1010.2539999999999","26.43","52.04","NAN","0.0"],
    [1569375,"2026-08-24 21:40:00","22085","0.665","149.9","1.4369999999999998","142.7","1010.3510000000001","26.46","53.07","NAN","0.0"],
    [1569376,"2026-08-24 21:50:00","22086","0.36200000000000004","143.8","0.7509999999999999","136.4","1010.3530000000001","26.28","54.22","NAN","0.0"],
    [1569377,"2026-08-24 22:00:00","22087","0.209","109.8","0.621","139.8","1010.416","26.14","55.08","NAN","0.0"],
    [1569378,"2026-08-24 22:10:00","22088","0.855","59.13","2.287","34.23","1010.4810000000001","26.09","55.04","NAN","0.0"],
    [1569379,"2026-08-24 22:20:00","22089","0.35200000000000004","20.16","2.123","26.6","1010.4830000000001","25.82","53.27","NAN","0.0"],
    [1569380,"2026-08-24 22:30:00","22090","0.7709999999999999","33.4","1.9269999999999998","37.22","1010.518","25.79","53.56","NAN","0.0"],
    [1569381,"2026-08-24 22:40:00","22091","0.667","33.09","1.829","31.31","1010.6080000000001","25.81","52.99","NAN","0.0"],
    [1569382,"2026-08-24 22:50:00","22092","0.53","352.5","1.339","25.77","1010.6030000000001","25.86","52.45","NAN","0.0"],
    [1569383,"2026-08-24 23:00:00","22093","0.03","150.3","0.359","161.5","1010.61","26.05","52.98","NAN","0.0"],
    [1569384,"2026-08-24 23:10:00","22094","0.125","39.72","0.621","40.17","1010.737","25.91","53.94","NAN","0.0"],
    [1569385,"2026-08-24 23:20:00","22095","0.11900000000000001","64.3","0.784","15.11","1010.762","25.94","54.51","NAN","0.0"],
    [1569386,"2026-08-24 23:30:00","22096","0.0","0.0","0.0","0.0","1010.8539999999999","26.08","54.65","NAN","0.0"],
    [1569387,"2026-08-24 23:40:00","22097","0.0","0.0","0.0","0.0","1010.852","26.11","54.1","NAN","0.0"],
    [1569388,"2026-08-24 23:50:00","22098","0.349","161.8","0.9470000000000001","148.3","1010.794","26.09","55.33","NAN","0.0"],
    [1569389,"2026-08-25 00:00:00","22099","0.267","143.5","0.98","127.6","1010.67","25.99","58.43","NAN","0.0"],
    [1569390,"2026-08-25 00:10:00","22100","0.41200000000000003","31.97","0.9470000000000001","13.14","1010.64","26.06","57.4","NAN","0.0"],
    [1569391,"2026-08-25 00:20:00","22101","0.26","24.8","1.078","20.88","1010.605","25.98","57.33","NAN","0.0"],
    [1569392,"2026-08-25 00:30:00","22102","0.212","30.16","0.653","30.0","1010.518","25.96","56.32","NAN","0.0"],
    [1569393,"2026-08-25 00:40:00","22103","0.228","2.4659999999999997","0.9470000000000001","21.1","1010.4810000000001","25.92","56.1","NAN","0.0"],
    [1569394,"2026-08-25 00:50:00","22104","0.541","37.7","1.3719999999999999","28.07","1010.47","25.94","55.63","NAN","0.0"],
    [1569395,"2026-08-25 01:00:00","22105","0.0","0.0","0.0","0.0","1010.3889999999999","25.98","55","NAN","0.0"],
    [1569396,"2026-08-25 01:10:00","22106","0.040999999999999995","124.5","0.523","125.8","1010.3580000000001","25.94","56.22","NAN","0.0"],
    [1569397,"2026-08-25 01:20:00","22107","0.239","183.7","0.588","136.4","1010.3530000000001","25.74","58.27","NAN","0.0"],
    [1569398,"2026-08-25 01:30:00","22108","0.024","187.3","0.359","189.6","1010.3560000000001","25.72","59.27","NAN","0.0"],
    [1569399,"2026-08-25 01:40:00","22109","0.311","15.89","1.176","26.61","1010.3480000000001","25.69","58.69","NAN","0.0"],
    [1569400,"2026-08-25 01:50:00","22110","0.023","42.5","0.555","45.57","1010.2539999999999","25.65","58.18","NAN","0.0"],
    [1569401,"2026-08-25 02:00:00","22111","0.445","13.21","1.2409999999999999","35.4","1010.289","25.41","58.41","NAN","0.0"],
    [1569402,"2026-08-25 02:10:00","22112","0.634","356.1","1.339","355.3","1010.3439999999999","25.45","58.38","NAN","0.0"],
    [1569403,"2026-08-25 02:20:00","22113","0.7190000000000001","28.28","1.7309999999999999","31.13","1010.324","25.48","58.16","NAN","0.0"],
    [1569404,"2026-08-25 02:30:00","22114","1.085","4.678","1.8619999999999999","14.13","1010.288","25.22","58.86","NAN","0.0"],
    [1569405,"2026-08-25 02:40:00","22115","0.805","21.89","1.4369999999999998","12.19","1010.1089999999999","25.13","59.32","NAN","0.0"],
    [1569406,"2026-08-25 02:50:00","22116","0.619","9.46","1.96","351.0","1010.072","24.94","59.52","NAN","0.0"],
    [1569407,"2026-08-25 03:00:00","22117","1.0390000000000001","13.17","2.417","5.766","1010.1139999999999","24.8","59.27","NAN","0.0"],
    [1569408,"2026-08-25 03:10:00","22118","0.17","5.3260000000000005","1.535","31.55","1010.1439999999999","24.82","59.13","NAN","0.0"],
    [1569409,"2026-08-25 03:20:00","22119","0.099","41.72","0.882","352.2","1010.2710000000001","24.81","59.28","NAN","0.0"],
    [1569410,"2026-08-25 03:30:00","22120","0.522","10.96","1.274","16.37","1010.336","24.75","59.34","NAN","0.0"],
    [1569411,"2026-08-25 03:40:00","22121","0.7290000000000001","18.39","1.7309999999999999","13.51","1010.3530000000001","24.79","59.05","NAN","0.0"],
    [1569412,"2026-08-25 03:50:00","22122","0.9520000000000001","16.45","2.123","28.15","1010.3560000000001","24.77","58.9","NAN","0.0"],
    [1569413,"2026-08-25 04:00:00","22123","0.9940000000000001","7.629","2.0580000000000003","36.2","1010.3489999999999","24.87","58.4","NAN","0.0"],
    [1569414,"2026-08-25 04:10:00","22124","0.748","358.9","1.568","7.667000000000001","1010.3560000000001","25.07","58.15","NAN","0.0"],
    [1569415,"2026-08-25 04:20:00","22125","0.22","0.643","0.98","352.1","1010.3560000000001","25.15","58.48","NAN","0.0"],
    [1569416,"2026-08-25 04:30:00","22126","0.085","344.3","1.274","276.3","1010.3889999999999","25.05","59.19","NAN","0.0"],
    [1569417,"2026-08-25 04:40:00","22127","0.182","279.3","1.274","288.9","1010.4830000000001","25.51","59.01","NAN","0.0"],
    [1569418,"2026-08-25 04:50:00","22128","0.244","268.9","0.98","281.6","1010.4780000000001","25.97","57.24","NAN","0.0"],
    [1569419,"2026-08-25 05:00:00","22129","0.039","104.7","0.457","138.1","1010.585","25.85","57.35","NAN","0.0"],
    [1569420,"2026-08-25 05:10:00","22130","0.182","284.5","1.013","300.4","1010.5830000000001","25.66","57.96","NAN","0.0"],
    [1569421,"2026-08-25 05:20:00","22131","0.77","267.1","1.568","266.3","1010.623","25.98","58.64","NAN","0.0"],
    [1569422,"2026-08-25 05:30:00","22132","0.897","276.9","1.96","293.3","1010.725","26.25","57.98","NAN","0.0"],
    [1569423,"2026-08-25 05:40:00","22133","0.406","197.1","1.2409999999999999","234.9","1010.8539999999999","25.93","59.24","NAN","0.0"],
    [1569424,"2026-08-25 05:50:00","22134","0.21100000000000002","155.9","0.915","292.3","1010.8960000000001","25.51","62.11","NAN","0.0"],
    [1569425,"2026-08-25 06:00:00","22135","0.7020000000000001","260.1","1.895","210.8","1010.862","25.67","59.72","NAN","0.0"],
    [1569426,"2026-08-25 06:10:00","22136","0.597","241.3","2.189","210.5","1010.949","26.24","57.34","NAN","0.0"],
    [1569427,"2026-08-25 06:20:00","22137","0.22899999999999998","156.8","1.405","304.6","1011.039","26.04","58.11","NAN","0.0"],
    [1569428,"2026-08-25 06:30:00","22138","0.396","62.76","1.4369999999999998","57.18","1011.079","26.12","57.03","NAN","0.0"],
    [1569429,"2026-08-25 06:40:00","22139","0.688","129.3","2.907","319.9","1011.1030000000001","25.83","57.88","NAN","0.0"],
    [1569430,"2026-08-25 06:50:00","22140","1.676","253.6","3.822","253.4","1011.2130000000001","27.08","52.18","NAN","0.0"],
    [1569431,"2026-08-25 07:00:00","22141","1.281","253.0","3.1689999999999996","247.7","1011.278","27.71","50.29","NAN","0.0"],
    [1569432,"2026-08-25 07:10:00","22142","1.3719999999999999","244.8","4.377","271.9","1011.3489999999999","27.65","50.58","NAN","0.0"],
    [1569433,"2026-08-25 07:20:00","22143","1.452","248.5","3.005","304.3","1011.446","27.71","49.69","NAN","0.0"],
    [1569434,"2026-08-25 07:30:00","22144","1.073","248.0","2.221","260.3","1011.4580000000001","28","49.24","NAN","0.0"],
    [1569435,"2026-08-25 07:40:00","22145","1.244","244.1","3.103","238.2","1011.545","28.3","48.03","NAN","0.0"],
    [1569436,"2026-08-25 07:50:00","22146","1.382","277.5","3.234","280.0","1011.551","28.84","45.84","NAN","0.0"],
    [1569437,"2026-08-25 08:00:00","22147","1.643","316.4","4.181","298.1","1011.5360000000001","29.13","43.45","NAN","0.0"],
    [1569438,"2026-08-25 08:10:00","22148","1.665","310.9","5.031000000000001","300.6","1011.5319999999999","29.28","42.52","NAN","0.0"],
    [1569439,"2026-08-25 08:20:00","22149","1.722","321.4","4.704","311.8","1011.591","29.42","42.03","NAN","0.0"],
    [1569440,"2026-08-25 08:30:00","22150","1.4780000000000002","325.2","3.7889999999999997","310.1","1011.701","29.6","41.35","NAN","0.0"],
    [1569441,"2026-08-25 08:40:00","22151","1.405","300.3","4.965","307.7","1011.76","30.14","39.89","NAN","0.0"],
    [1569442,"2026-08-25 08:50:00","22152","1.62","316.7","5.129","303.8","1011.76","30.34","39.11","NAN","0.0"],
    [1569443,"2026-08-25 09:00:00","22153","1.851","308.6","4.802","309.4","1011.7810000000001","30.53","38.7","NAN","0.0"],
    [1569444,"2026-08-25 09:10:00","22154","2.166","319.4","5.912999999999999","314.8","1011.857","30.6","37.69","NAN","0.0"],
    [1569445,"2026-08-25 09:20:00","22155","1.733","299.0","5.978","303.1","1011.9110000000001","31.04","36.37","NAN","0.0"],
    [1569446,"2026-08-25 09:30:00","22156","1.396","295.6","4.769","273.8","1011.932","31.58","35.22","NAN","0.0"],
    [1569447,"2026-08-25 09:40:00","22157","1.6130000000000002","305.6","5.1610000000000005","314.8","1011.945","32.07","33.79","NAN","0.0"],
    [1569448,"2026-08-25 09:50:00","22158","2.346","319.7","6.0760000000000005","309.0","1011.878","31.69","34.6","NAN","0.0"],
    [1569449,"2026-08-25 10:00:00","22159","1.8419999999999999","309.8","6.435","293.7","1011.829","32.5","32.6","NAN","0.0"],
    [1569450,"2026-08-25 10:10:00","22160","2.04","307.4","5.815","307.3","1011.9169999999999","32.27","32.84","NAN","0.0"],
    [1569451,"2026-08-25 10:20:00","22161","2.112","303.8","5.553","316.2","1011.805","32.87","31.42","NAN","0.0"],
    [1569452,"2026-08-25 10:30:00","22162","1.42","330.8","3.397","291.1","1011.73","33.23","30.26","NAN","0.0"],
    [1569453,"2026-08-25 10:40:00","22163","1.818","298.2","5.978","314.1","1011.7239999999999","33.27","29.44","NAN","0.0"],
    [1569454,"2026-08-25 10:50:00","22164","1.891","136.7","4.018","120.7","1011.712","32.82","36.49","NAN","0.0"],
    [1569455,"2026-08-25 11:00:00","22165","1.574","202.3","4.475","176.2","1011.694","31.99","38.39","NAN","0.0"],
    [1569456,"2026-08-25 11:10:00","22166","1.959","197.3","5.031000000000001","197.8","1011.7289999999999","32.63","39.17","NAN","0.0"],
    [1569457,"2026-08-25 11:20:00","22167","3.238","176.6","5.978","164.0","1011.6030000000001","31.54","43.92","NAN","0.0"],
    [1569458,"2026-08-25 11:30:00","22168","4.171","171.9","6.566","181.9","1011.513","30.96","46.16","NAN","0.0"],
    [1569459,"2026-08-25 11:40:00","22169","4.098","175.6","6.795","182.0","1011.5310000000001","30.93","46","NAN","0.0"],
    [1569460,"2026-08-25 11:50:00","22170","3.636","180.0","6.957999999999999","174.9","1011.513","31.4","44.91","NAN","0.0"],
    [1569461,"2026-08-25 12:00:00","22171","3.738","183.2","7.6770000000000005","170.8","1011.586","31.28","46.53","NAN","0.0"],
    [1569462,"2026-08-25 12:10:00","22172","2.9410000000000003","190.2","5.651","187.9","1011.5889999999999","32.19","41.94","NAN","0.0"],
    [1569463,"2026-08-25 12:20:00","22173","4.177","170.3","6.9910000000000005","173.7","1011.4730000000001","30.85","48.18","NAN","0.0"],
    [1569464,"2026-08-25 12:30:00","22174","3.968","169.4","6.501","178.9","1011.408","31.17","47.12","NAN","0.0"],
    [1569465,"2026-08-25 12:40:00","22175","3.42","185.7","5.847","166.9","1011.3839999999999","31.67","45.36","NAN","0.0"],
    [1569466,"2026-08-25 12:50:00","22176","2.74","194.0","5.619","212.0","1011.307","32.43","42.54","NAN","0.0"],
    [1569467,"2026-08-25 13:00:00","22177","2.472","196.5","5.227","200.1","1011.166","32.93","40.72","NAN","0.0"],
    [1569468,"2026-08-25 13:10:00","22178","2.511","205.8","5.194","190.9","1011.008","33.08","39.8","NAN","0.0"],
    [1569469,"2026-08-25 13:20:00","22179","3.1639999999999997","190.2","6.566","177.9","1010.808","32.96","38.65","NAN","0.0"],
    [1569470,"2026-08-25 13:30:00","22180","3.1860000000000004","192.7","7.023","199.9","1010.802","32.92","39.12","NAN","0.0"],
    [1569471,"2026-08-25 13:40:00","22181","3.8510000000000004","200.5","7.546","184.9","1010.802","32.32","41.53","NAN","0.0"],
    [1569472,"2026-08-25 13:50:00","22182","3.3569999999999998","204.6","6.957999999999999","202.2","1010.789","32.33","42.08","NAN","0.0"],
    [1569473,"2026-08-25 14:00:00","22183","3.345","204.3","7.218999999999999","236.5","1010.795","32.59","40.25","NAN","0.0"],
    [1569474,"2026-08-25 14:10:00","22184","2.8539999999999996","203.4","6.272","166.0","1010.8","32.53","40.85","NAN","0.0"],
    [1569475,"2026-08-25 14:20:00","22185","2.9130000000000003","200.9","6.239","198.5","1010.7810000000001","32.42","41.12","NAN","0.0"],
    [1569476,"2026-08-25 14:30:00","22186","3.265","202.7","7.415","203.2","1010.7389999999999","32.62","40.59","NAN","0.0"],
    [1569477,"2026-08-25 14:40:00","22187","2.532","210.3","7.415","233.9","1010.712","32.44","41.76","NAN","0.0"],
    [1569478,"2026-08-25 14:50:00","22188","2.965","200.9","6.729","208.3","1010.704","32.2","42.84","NAN","0.0"],
    [1569479,"2026-08-25 15:00:00","22189","2.906","197.7","7.317","194.5","1010.7239999999999","32.21","41.99","NAN","0.0"],
    [1569480,"2026-08-25 15:10:00","22190","2.7319999999999998","205.1","6.925","207.1","1010.715","32.11","41.94","NAN","0.0"],
    [1569481,"2026-08-25 15:20:00","22191","2.752","203.3","6.795","203.5","1010.648","32.31","40.41","NAN","0.0"],
    [1569482,"2026-08-25 15:30:00","22192","3.056","209.7","6.9910000000000005","184.7","1010.637","32.26","38.58","NAN","0.0"],
    [1569483,"2026-08-25 15:40:00","22193","3.065","219.9","6.207000000000001","215.9","1010.556","32.07","40.69","NAN","0.0"],
    [1569484,"2026-08-25 15:50:00","22194","3.237","209.5","7.4479999999999995","209.5","1010.567","31.89","41.83","NAN","0.0"],
    [1569485,"2026-08-25 16:00:00","22195","3.307","209.4","7.4479999999999995","205.1","1010.579","31.6","43.05","NAN","0.0"],
    [1569486,"2026-08-25 16:10:00","22196","2.432","210.3","5.684","205.7","1010.58","31.78","43.03","NAN","0.0"],
    [1569487,"2026-08-25 16:20:00","22197","2.784","212.5","6.566","216.1","1010.663","31.75","40.63","NAN","0.0"],
    [1569488,"2026-08-25 16:30:00","22198","2.07","217.0","5.912999999999999","216.4","1010.7610000000001","32.21","37.91","NAN","0.0"],
    [1569489,"2026-08-25 16:40:00","22199","2.387","233.4","6.957999999999999","235.5","1010.773","32.1","38.08","NAN","0.0"],
    [1569490,"2026-08-25 16:50:00","22200","2.231","219.7","6.207000000000001","206.9","1010.803","31.68","42.84","NAN","0.0"],
    [1569491,"2026-08-25 17:00:00","22201","2.191","222.0","5.39","220.4","1010.828","31.27","45.91","NAN","0.0"],
    [1569492,"2026-08-25 17:10:00","22202","2.168","223.6","5.782","241.5","1010.904","31.22","45.88","NAN","0.0"],
    [1569493,"2026-08-25 17:20:00","22203","2.4659999999999997","221.2","6.468","231.0","1010.97","30.92","47.16","NAN","0.0"],
    [1569494,"2026-08-25 17:30:00","22204","1.7919999999999998","217.6","5.39","225.2","1011.03","30.93","50.18","NAN","0.0"],
    [1569495,"2026-08-25 17:40:00","22205","1.382","217.2","4.867","218.7","1011.0830000000001","30.84","49.43","NAN","0.0"],
    [1569496,"2026-08-25 17:50:00","22206","1.734","210.3","4.181","200.4","1011.0980000000001","30.38","53.08","NAN","0.0"],
    [1569497,"2026-08-25 18:00:00","22207","1.7890000000000001","218.3","6.403","214.1","1011.1360000000001","30.04","51.72","NAN","0.0"],
    [1569498,"2026-08-25 18:10:00","22208","1.955","212.0","5.39","252.5","1011.2510000000001","29.78","52.91","NAN","0.0"],
    [1569499,"2026-08-25 18:20:00","22209","1.92","219.9","5.651","189.4","1011.3480000000001","29.66","51.96","NAN","0.0"],
    [1569500,"2026-08-25 18:30:00","22210","1.564","222.4","4.769","235.8","1011.383","29.51","53.93","NAN","0.0"],
    [1569501,"2026-08-25 18:40:00","22211","1.34","211.4","3.463","236.1","1011.437","29.32","55.42","NAN","0.0"],
    [1569502,"2026-08-25 18:50:00","22212","1.307","211.7","3.7889999999999997","208.0","1011.49","29.13","55.86","NAN","0.0"],
    [1569503,"2026-08-25 19:00:00","22213","1.749","227.0","5.553","225.3","1011.559","29.1","54.64","NAN","0.0"],
    [1569504,"2026-08-25 19:10:00","22214","1.473","227.6","4.149","226.6","1011.7289999999999","29.04","54.62","NAN","0.0"],
    [1569505,"2026-08-25 19:20:00","22215","1.3780000000000001","222.6","3.855","214.5","1011.8689999999999","29.09","53.3","NAN","0.0"],
    [1569506,"2026-08-25 19:30:00","22216","1.2309999999999999","210.9","2.5810000000000004","214.5","1012.068","28.83","52.36","NAN","0.0"],
    [1569507,"2026-08-25 19:40:00","22217","1.245","240.9","2.842","209.1","1012.1","29.04","49.72","NAN","0.0"],
    [1569508,"2026-08-25 19:50:00","22218","1.3","188.0","4.312","232.4","1012.257","28.93","49.66","NAN","0.0"],
    [1569509,"2026-08-25 20:00:00","22219","1.379","177.4","2.352","173.3","1012.472","28.53","49.44","NAN","0.0"],
    [1569510,"2026-08-25 20:10:00","22220","0.9279999999999999","201.8","2.189","194.4","1012.696","28.49","48.85","NAN","0.0"],
    [1569511,"2026-08-25 20:20:00","22221","0.696","208.6","2.123","194.7","1012.893","28.73","47.94","NAN","0.0"],
    [1569512,"2026-08-25 20:30:00","22222","0.8759999999999999","213.4","2.221","195.8","1013.0139999999999","28.42","51.79","NAN","0.0"],
    [1569513,"2026-08-25 20:40:00","22223","0.973","217.5","2.483","238.5","1013.085","28.42","50.86","NAN","0.0"],
    [1569514,"2026-08-25 20:50:00","22224","0.99","208.1","2.025","202.8","1013.2360000000001","28.24","52.41","NAN","0.0"],
    [1569515,"2026-08-25 21:00:00","22225","0.815","211.2","1.797","215.2","1013.341","27.99","52.96","NAN","0.0"],
    [1569516,"2026-08-25 21:10:00","22226","0.45299999999999996","200.8","1.405","197.3","1013.346","27.97","53.9","NAN","0.0"],
    [1569517,"2026-08-25 21:20:00","22227","0.5","139.7","0.98","148.1","1013.368","28.12","53.06","NAN","0.0"],
    [1569518,"2026-08-25 21:30:00","22228","0.233","164.9","0.8170000000000001","114.9","1013.423","27.86","54.41","NAN","0.0"],
    [1569519,"2026-08-25 21:40:00","22229","0.419","153.0","1.111","147.1","1013.3660000000001","27.79","54.38","NAN","0.0"],
    [1569520,"2026-08-25 21:50:00","22230","0.303","137.8","0.6859999999999999","136.5","1013.3530000000001","27.94","52.26","NAN","0.0"],
    [1569521,"2026-08-25 22:00:00","22231","0.10800000000000001","135.4","0.523","131.0","1013.3430000000001","28.04","52.18","NAN","0.0"],
    [1569522,"2026-08-25 22:10:00","22232","0.13699999999999998","60.84","0.784","59.35","1013.346","27.84","53","NAN","0.0"],
    [1569523,"2026-08-25 22:20:00","22233","0.5429999999999999","47.04","1.535","68.04","1013.346","27.9","50.78","NAN","0.0"],
    [1569524,"2026-08-25 22:30:00","22234","0.633","65.75","1.4369999999999998","24.18","1013.451","28.04","49.42","NAN","0.0"],
    [1569525,"2026-08-25 22:40:00","22235","0.6459999999999999","81.6","1.8619999999999999","67.14","1013.488","28.06","49.69","NAN","0.0"],
    [1569526,"2026-08-25 22:50:00","22236","0.655","59.33","1.4369999999999998","66.16","1013.428","27.96","49.88","NAN","0.0"],
    [1569527,"2026-08-25 23:00:00","22237","0.8290000000000001","62.77","1.601","27.82","1013.4630000000001","27.73","50.86","NAN","0.0"],
    [1569528,"2026-08-25 23:10:00","22238","1.11","40.13","1.895","41.41","1013.523","27.5","54.1","NAN","0.0"],
    [1569529,"2026-08-25 23:20:00","22239","0.8270000000000001","22.16","2.287","32.49","1013.63","27.33","57.33","NAN","0.0"],
    [1569530,"2026-08-25 23:30:00","22240","0.772","22.7","2.025","6.233","1013.617","27.27","58.32","NAN","0.0"],
    [1569531,"2026-08-25 23:40:00","22241","1.004","44.62","2.123","22.26","1013.565","27.07","59.59","NAN","0.0"],
    [1569532,"2026-08-25 23:50:00","22242","1.109","44.8","2.417","30.8","1013.625","26.95","60.75","NAN","0.0"],
    [1569533,"2026-08-26 00:00:00","22243","0.997","36.5","2.319","56.64","1013.74","26.87","61.8","NAN","0.0"],
    [1569534,"2026-08-26 00:10:00","22244","0.953","44.38","1.895","35.65","1013.89","26.84","63.06","NAN","0.0"],
    [1569535,"2026-08-26 00:20:00","22245","0.972","43.66","1.993","57.83","1013.988","26.79","64.88","NAN","0.0"],
    [1569536,"2026-08-26 00:30:00","22246","1.4280000000000002","35.04","2.417","16.21","1013.682","26.71","66.47","NAN","0.0"],
    [1569537,"2026-08-26 00:40:00","22247","0.7140000000000001","15.54","1.47","49.14","1013.495","26.73","67.48","NAN","0.0"],
    [1569538,"2026-08-26 00:50:00","22248","0.54","8.16","1.7309999999999999","350.1","1013.7660000000001","26.78","68.93","NAN","0.0"],
    [1569539,"2026-08-26 01:00:00","22249","0.632","22.82","1.3719999999999999","30.33","1013.975","26.77","70.5","NAN","0.0"],
    [1569540,"2026-08-26 01:10:00","22250","0.773","29.76","1.829","26.2","1013.443","26.68","71.75","NAN","0.0"],
    [1569541,"2026-08-26 01:20:00","22251","1.3840000000000001","39.04","2.8089999999999997","55.04","1012.944","26.53","72.74","NAN","0.0"],
    [1569542,"2026-08-26 01:30:00","22252","0.607","309.9","1.9269999999999998","29.96","1014.133","26.52","73.62","NAN","0.0"],
    [1569543,"2026-08-26 01:40:00","22253","0.9279999999999999","42.67","2.875","64.59","1014.2360000000001","26.63","73.42","NAN","0.0"],
    [1569544,"2026-08-26 01:50:00","22254","1.6580000000000001","59.32","3.1689999999999996","68.43","1013.1039999999999","26.35","74.15","NAN","0.0"],
    [1569545,"2026-08-26 02:00:00","22255","0.606","345.4","1.4369999999999998","11.54","1013.8480000000001","26.31","74.5","NAN","0.0"],
    [1569546,"2026-08-26 02:10:00","22256","1.095","38.15","2.352","33.54","1013.6410000000001","26.33","74.95","NAN","0.0"],
    [1569547,"2026-08-26 02:20:00","22257","1.2830000000000001","43.2","2.45","51.36","1013.166","26.14","74.67","NAN","0.0"],
    [1569548,"2026-08-26 02:30:00","22258","1.141","9.03","2.221","6.6339999999999995","1013.423","26.02","74.9","NAN","0.0"],
    [1569549,"2026-08-26 02:40:00","22259","1.1159999999999999","27.86","2.352","24.15","1013.194","25.99","74.62","NAN","0.0"],
    [1569550,"2026-08-26 02:50:00","22260","1.12","24.33","2.221","35.37","1013.268","26.01","74.46","NAN","0.0"],
    [1569551,"2026-08-26 03:00:00","22261","0.636","347.3","1.7309999999999999","317.7","1013.576","26.04","74.21","NAN","0.0"],
    [1569552,"2026-08-26 03:10:00","22262","1.18","43.69","2.0909999999999997","26.73","1013.205","26.17","73.43","NAN","0.0"],
    [1569553,"2026-08-26 03:20:00","22263","1.12","37.11","2.123","58.07","1013.265","25.91","74.12","NAN","0.0"],
    [1569554,"2026-08-26 03:30:00","22264","0.792","342.8","2.515","305.2","1013.9939999999999","26.18","73.34","NAN","0.0"],
    [1569555,"2026-08-26 03:40:00","22265","1.295","37.61","3.299","28.31","1013.3530000000001","26.3","73.23","NAN","0.0"],
    [1569556,"2026-08-26 03:50:00","22266","1.0","350.5","2.0909999999999997","2.862","1013.893","26.38","72.88","NAN","0.0"],
    [1569557,"2026-08-26 04:00:00","22267","1.4580000000000002","7.746","3.071","12.46","1013.023","26.39","73.39","NAN","0.0"],
    [1569558,"2026-08-26 04:10:00","22268","1.594","16.91","4.247","45.34","1012.77","26.04","71.11","NAN","0.0"],
    [1569559,"2026-08-26 04:20:00","22269","1.439","31.77","3.1689999999999996","55.6","1012.322","25.62","68.53","NAN","0.0"],
    [1569560,"2026-08-26 04:30:00","22270","1.222","315.7","3.593","304.5","1013.6410000000001","25.99","66.71","NAN","0.0"],
    [1569561,"2026-08-26 04:40:00","22271","1.0070000000000001","4.425","3.299","323.7","1013.63","26.09","64.45","NAN","0.0"],
    [1569562,"2026-08-26 04:50:00","22272","1.585","35.58","3.332","31.2","1013.253","25.71","64.81","NAN","0.0"],
    [1569563,"2026-08-26 05:00:00","22273","1.04","17.64","2.7110000000000003","14.28","1013.3760000000001","25.51","64.88","NAN","0.0"],
    [1569564,"2026-08-26 05:10:00","22274","0.665","29.1","1.764","62.68","1013.084","25.43","64.87","NAN","0.0"],
    [1569565,"2026-08-26 05:20:00","22275","0.6609999999999999","339.2","2.0580000000000003","311.9","1013.2719999999999","25.51","64.87","NAN","0.0"],
    [1569566,"2026-08-26 05:30:00","22276","1.1440000000000001","335.0","2.6460000000000004","316.9","1013.706","26.14","63.12","NAN","0.0"],
    [1569567,"2026-08-26 05:40:00","22277","0.251","348.4","1.274","340.9","1013.623","26.28","63.21","NAN","0.0"],
    [1569568,"2026-08-26 05:50:00","22278","0.585","357.8","1.176","11.03","1013.819","26.37","63.9","NAN","0.0"],
    [1569569,"2026-08-26 06:00:00","22279","0.41700000000000004","323.0","1.209","297.1","1014.0189999999999","26.89","63.24","NAN","0.0"],
    [1569570,"2026-08-26 06:10:00","22280","0.5579999999999999","10.54","1.764","1.4709999999999999","1013.877","26.91","63.71","NAN","0.0"],
    [1569571,"2026-08-26 06:20:00","22281","0.8140000000000001","0.706","2.613","15.49","1013.819","27.03","63.34","NAN","0.0"],
    [1569572,"2026-08-26 06:30:00","22282","0.9229999999999999","344.0","1.8619999999999999","310.0","1014.188","27.24","63.12","NAN","0.0"],
    [1569573,"2026-08-26 06:40:00","22283","1.39","55.31","2.875","91.4","1013.4989999999999","27.37","64.1","NAN","0.0"],
    [1569574,"2026-08-26 06:50:00","22284","1.357","22.23","2.9730000000000003","54.11","1013.495","27.31","64.16","NAN","0.0"],
    [1569575,"2026-08-26 07:00:00","22285","1.895","38.24","4.083","51.4","1013.112","26.75","63.87","NAN","0.0"],
    [1569576,"2026-08-26 07:10:00","22286","1.774","51.87","4.9","52.41","1012.659","26.42","64.45","NAN","0.0"],
    [1569577,"2026-08-26 07:20:00","22287","1.844","76.8","4.508","66.0","1011.909","26.49","66.56","NAN","0.0"],
    [1569578,"2026-08-26 07:30:00","22288","1.965","74.35","4.867","57.09","1011.6519999999999","26.72","67.06","NAN","0.0"],
    [1569579,"2026-08-26 07:40:00","22289","1.626","49.17","4.018","70.96","1011.929","27.18","68.52","NAN","0.0"],
    [1569580,"2026-08-26 07:50:00","22290","0.8009999999999999","344.2","2.0580000000000003","32.04","1012.791","27.56","68.1","NAN","0.0"],
    [1569581,"2026-08-26 08:00:00","22291","0.904","354.6","2.875","312.7","1012.8","28.03","64.36","NAN","0.0"],
    [1569582,"2026-08-26 08:10:00","22292","2.72","93.1","4.965","107.0","1012.451","27.64","67.58","NAN","0.0"],
    [1569583,"2026-08-26 08:20:00","22293","2.258","122.9","4.933","106.5","1013.41","27.16","72.85","NAN","0.0"],
    [1569584,"2026-08-26 08:30:00","22294","1.578","124.0","3.6910000000000003","110.0","1013.95","27.21","74.08","NAN","0.0"],
    [1569585,"2026-08-26 08:40:00","22295","1.113","116.4","3.267","95.5","1014.005","27.44","74.15","NAN","0.0"],
    [1569586,"2026-08-26 08:50:00","22296","2.05","111.3","4.2139999999999995","108.6","1013.2860000000001","27.52","74.42","NAN","0.0"],
    [1569587,"2026-08-26 09:00:00","22297","1.985","107.2","4.051","104.2","1013.321","27.36","78.2","NAN","0.0"],
    [1569588,"2026-08-26 09:10:00","22298","3.26","97.5","6.0760000000000005","110.8","1012.2489999999999","27.33","80.8","NAN","0.0"],
    [1569589,"2026-08-26 09:20:00","22299","3.949","90.9","7.4479999999999995","83.0","1011.0310000000001","27.2","78.32","NAN","0.0"],
    [1569590,"2026-08-26 09:30:00","22300","3.733","99.2","7.317","108.0","1011.4780000000001","27.46","75.8","NAN","0.0"],
    [1569591,"2026-08-26 09:40:00","22301","2.7439999999999998","128.7","5.782","114.9","1012.538","27.45","80.8","NAN","0.0"],
    [1569592,"2026-08-26 09:50:00","22302","2.6010000000000004","132.1","4.508","128.6","1013.427","27.41","81.8","NAN","0.0"],
    [1569593,"2026-08-26 10:00:00","22303","2.271","156.5","4.508","139.7","1014.308","27.54","79.26","NAN","0.0"],
    [1569594,"2026-08-26 10:10:00","22304","2.7439999999999998","133.3","5.422999999999999","101.1","1013.855","27.55","77.48","NAN","0.0"],
    [1569595,"2026-08-26 10:20:00","22305","2.12","127.9","4.149","105.5","1013.635","27.51","76.7","NAN","0.0"],
    [1569596,"2026-08-26 10:30:00","22306","2.1319999999999997","121.5","3.43","108.6","1013.3380000000001","27.65","74.84","NAN","0.0"],
    [1569597,"2026-08-26 10:40:00","22307","1.742","117.2","2.9730000000000003","109.0","1013.159","27.75","74.01","NAN","0.0"],
    [1569598,"2026-08-26 10:50:00","22308","1.492","81.1","3.071","68.18","1012.824","28.09","72.25","NAN","0.0"],
    [1569599,"2026-08-26 11:00:00","22309","1.766","112.1","3.495","113.9","1013.0930000000001","28.11","72.01","NAN","0.0"],
    [1569600,"2026-08-26 11:10:00","22310","1.6469999999999998","132.0","2.7110000000000003","142.6","1013.6010000000001","27.98","72.48","NAN","0.0"],
    [1569601,"2026-08-26 11:20:00","22311","1.63","130.4","3.234","105.1","1013.809","27.86","72.68","NAN","0.0"],
    [1569602,"2026-08-26 11:30:00","22312","1.7280000000000002","107.5","3.005","115.0","1013.372","27.99","71.67","NAN","0.0"],
    [1569603,"2026-08-26 11:40:00","22313","1.8159999999999998","94.5","3.0380000000000003","118.0","1013.127","28.31","69.71","NAN","0.0"],
    [1569604,"2026-08-26 11:50:00","22314","1.895","78.63","3.201","93.3","1012.872","28.68","68.6","NAN","0.0"],
    [1569605,"2026-08-26 12:00:00","22315","2.177","72.18","4.638999999999999","87.7","1012.488","29.18","65.01","NAN","0.0"],
    [1569606,"2026-08-26 12:10:00","22316","1.597","42.7","3.7239999999999998","30.04","1012.195","29.63","61.07","NAN","0.0"],
    [1569607,"2026-08-26 12:20:00","22317","1.903","55.21","3.659","70.82","1011.82","29.7","58.74","NAN","0.0"],
    [1569608,"2026-08-26 12:30:00","22318","1.2590000000000001","51.62","3.005","21.18","1011.832","29.77","58.73","NAN","0.0"],
    [1569609,"2026-08-26 12:40:00","22319","2.329","86.6","4.149","93.5","1011.742","29.91","59.44","NAN","0.0"],
    [1569610,"2026-08-26 12:50:00","22320","2.741","90.4","4.4430000000000005","93.3","1011.5160000000001","29.42","61.06","NAN","0.0"],
    [1569611,"2026-08-26 13:00:00","22321","1.847","65.51","3.6910000000000003","70.37","1011.2439999999999","29.65","60.14","NAN","0.0"],
    [1569612,"2026-08-26 13:10:00","22322","1.631","74.85","3.201","88.9","1011.0060000000001","30.07","59.99","NAN","0.0"],
    [1569613,"2026-08-26 13:20:00","22323","2.5469999999999997","104.2","4.377","88.3","1011.188","29.81","62.24","NAN","0.0"],
    [1569614,"2026-08-26 13:30:00","22324","2.647","120.8","4.149","103.4","1011.3439999999999","29.2","65.83","NAN","0.0"],
    [1569615,"2026-08-26 13:40:00","22325","2.589","139.7","4.312","146.6","1011.6510000000001","29.11","67.39","NAN","0.0"],
    [1569616,"2026-08-26 13:50:00","22326","2.6510000000000002","151.7","4.638999999999999","154.1","1011.8960000000001","29.13","67.34","NAN","0.0"],
    [1569617,"2026-08-26 14:00:00","22327","2.011","147.5","3.365","149.3","1011.8589999999999","29.36","66.93","NAN","0.0"],
    [1569618,"2026-08-26 14:10:00","22328","2.039","128.6","3.528","113.7","1011.824","29.22","67.68","NAN","0.0"],
    [1569619,"2026-08-26 14:20:00","22329","2.199","124.4","3.365","112.0","1011.814","28.87","68.84","NAN","0.0"],
    [1569620,"2026-08-26 14:30:00","22330","1.985","118.6","3.103","103.6","1011.716","28.96","68.24","NAN","0.0"],
    [1569621,"2026-08-26 14:40:00","22331","2.12","114.9","3.822","109.4","1011.569","29.19","67.91","NAN","0.0"],
    [1569622,"2026-08-26 14:50:00","22332","2.7310000000000003","124.1","3.887","107.8","1011.347","28.7","70.51","NAN","0.0"],
    [1569623,"2026-08-26 15:00:00","22333","2.693","126.3","4.279","145.6","1011.248","28.62","72.4","NAN","0.0"],
    [1569624,"2026-08-26 15:10:00","22334","2.71","116.8","3.985","111.5","1011.33","28.66","73.1","NAN","0.0"],
    [1569625,"2026-08-26 15:20:00","22335","2.8960000000000004","115.4","4.638999999999999","108.0","1011.153","28.82","73.62","NAN","0.0"],
    [1569626,"2026-08-26 15:30:00","22336","2.316","116.7","4.4430000000000005","120.7","1011.135","28.6","74.91","NAN","0.0"],
    [1569627,"2026-08-26 15:40:00","22337","2.5639999999999996","110.5","4.312","123.6","1011.0189999999999","28.85","74.4","NAN","0.0"],
    [1569628,"2026-08-26 15:50:00","22338","2.6289999999999996","104.1","4.377","100.2","1010.8710000000001","28.65","75.68","NAN","0.0"],
    [1569629,"2026-08-26 16:00:00","22339","2.463","92.5","4.181","90.3","1010.818","28.86","74.49","NAN","0.0"],
    [1569630,"2026-08-26 16:10:00","22340","2.242","100.5","3.822","113.9","1010.7510000000001","28.91","74.4","NAN","0.0"],
    [1569631,"2026-08-26 16:20:00","22341","2.821","96.1","4.573","91.8","1010.846","28.78","74.98","NAN","0.0"],
    [1569632,"2026-08-26 16:30:00","22342","3.1289999999999996","104.3","5.096","104.2","1010.8330000000001","28.5","77.05","NAN","0.0"],
    [1569633,"2026-08-26 16:40:00","22343","2.3280000000000003","90.5","3.822","88.0","1010.722","28.59","75.99","NAN","0.0"],
    [1569634,"2026-08-26 16:50:00","22344","2.523","106.2","4.312","107.5","1010.6469999999999","28.63","76.77","NAN","0.0"],
    [1569635,"2026-08-26 17:00:00","22345","2.0069999999999997","95.4","3.822","110.5","1010.543","28.45","77.89","NAN","0.0"],
    [1569636,"2026-08-26 17:10:00","22346","1.841","93.6","3.593","108.9","1010.547","28.6","76.96","NAN","0.0"],
    [1569637,"2026-08-26 17:20:00","22347","1.8359999999999999","83.2","3.234","72.59","1010.533","28.61","76.34","NAN","0.0"],
    [1569638,"2026-08-26 17:30:00","22348","2.5610000000000004","94.4","3.6260000000000003","92.4","1010.421","28.44","75.54","NAN","0.0"],
    [1569639,"2026-08-26 17:40:00","22349","2.34","92.8","3.887","98.0","1010.404","28.36","76.47","NAN","0.0"],
    [1569640,"2026-08-26 17:50:00","22350","2.127","91.9","3.985","93.9","1010.548","28.4","76.71","NAN","0.0"],
    [1569641,"2026-08-26 18:00:00","22351","2.15","105.5","4.181","113.8","1010.605","28.32","76.06","NAN","0.0"],
    [1569642,"2026-08-26 18:10:00","22352","1.9969999999999999","99.0","4.508","104.1","1010.595","28.2","75.71","NAN","0.0"],
    [1569643,"2026-08-26 18:20:00","22353","1.768","110.1","3.397","111.7","1010.518","28.31","75.16","NAN","0.0"],
    [1569644,"2026-08-26 18:30:00","22354","1.1740000000000002","107.6","2.483","125.6","1010.53","28.18","75.14","NAN","0.0"],
    [1569645,"2026-08-26 18:40:00","22355","1.392","104.5","2.5810000000000004","118.6","1010.465","28.16","74.68","NAN","0.0"],
    [1569646,"2026-08-26 18:50:00","22356","1.2409999999999999","78.8","2.254","94.3","1010.3989999999999","28.22","73.71","NAN","0.0"],
    [1569647,"2026-08-26 19:00:00","22357","1.095","90.5","1.96","93.2","1010.461","28.23","73.91","NAN","0.0"],
    [1569648,"2026-08-26 19:10:00","22358","1.031","85.5","1.829","90.9","1010.513","28.22","73.17","NAN","0.0"],
    [1569649,"2026-08-26 19:20:00","22359","0.204","36.05","1.274","18.52","1010.605","28.22","73.27","NAN","0.0"],
    [1569650,"2026-08-26 19:30:00","22360","0.5760000000000001","92.7","1.47","101.4","1010.658","28.2","72.77","NAN","0.0"],
    [1569651,"2026-08-26 19:40:00","22361","1.288","109.1","1.993","108.4","1010.775","28.18","73.19","NAN","0.0"],
    [1569652,"2026-08-26 19:50:00","22362","1.396","112.1","2.189","105.3","1010.822","28.15","75.13","NAN","0.0"],
    [1569653,"2026-08-26 20:00:00","22363","1.2890000000000001","127.1","2.319","121.1","1010.8969999999999","28.03","77.95","NAN","0.0"],
    [1569654,"2026-08-26 20:10:00","22364","0.996","129.7","1.895","163.8","1011.0139999999999","27.87","80.1","NAN","0.0"],
    [1569655,"2026-08-26 20:20:00","22365","0.816","157.2","1.829","136.6","1010.9960000000001","27.85","82","NAN","0.0"],
    [1569656,"2026-08-26 20:30:00","22366","0.746","149.3","2.221","152.3","1011.028","27.79","83.6","NAN","0.0"],
    [1569657,"2026-08-26 20:40:00","22367","0.044000000000000004","210.2","0.555","217.6","1011.1010000000001","27.8","83.8","NAN","0.0"],
    [1569658,"2026-08-26 20:50:00","22368","0.025","208.5","0.392","209.8","1011.078","27.65","84.5","NAN","0.0"],
    [1569659,"2026-08-26 21:00:00","22369","0.008","106.1","0.22899999999999998","112.4","1010.8989999999999","27.6","84.3","NAN","0.0"],
    [1569660,"2026-08-26 21:10:00","22370","0.539","122.5","1.568","106.8","1010.867","27.7","84.1","NAN","0.0"],
    [1569661,"2026-08-26 21:20:00","22371","0.635","115.2","1.307","111.3","1010.914","27.72","84.3","NAN","0.0"],
    [1569662,"2026-08-26 21:30:00","22372","0.818","117.6","1.797","113.6","1011.059","27.74","84.9","NAN","0.0"],
    [1569663,"2026-08-26 21:40:00","22373","0.6990000000000001","89.4","1.633","75.65","1010.9839999999999","27.77","85.4","NAN","0.0"],
    [1569664,"2026-08-26 21:50:00","22374","0.6709999999999999","74.06","1.633","75.65","1011.0039999999999","27.71","85.6","NAN","0.0"],
    [1569665,"2026-08-26 22:00:00","22375","0.76","78.89","1.601","53.23","1011.1080000000001","27.76","85.1","NAN","0.0"],
    [1569666,"2026-08-26 22:10:00","22376","0.611","79.18","1.2409999999999999","58.05","1011.1030000000001","27.79","84.7","NAN","0.0"],
    [1569667,"2026-08-26 22:20:00","22377","0.677","84.4","1.209","113.0","1011.1189999999999","27.84","84.1","NAN","0.0"],
    [1569668,"2026-08-26 22:30:00","22378","0.6940000000000001","113.8","1.405","118.5","1011.3430000000001","27.9","83.6","NAN","0.0"],
    [1569669,"2026-08-26 22:40:00","22379","0.915","104.8","2.0580000000000003","112.2","1011.443","27.89","84.1","NAN","0.0"],
    [1569670,"2026-08-26 22:50:00","22380","0.809","92.3","1.535","110.4","1011.387","27.85","84.4","NAN","0.0"],
    [1569671,"2026-08-26 23:00:00","22381","0.765","87.0","1.209","85.9","1011.268","27.92","84.3","NAN","0.0"],
    [1569672,"2026-08-26 23:10:00","22382","0.85","96.4","1.699","101.5","1011.405","27.86","84.8","NAN","0.0"],
    [1569673,"2026-08-26 23:20:00","22383","0.898","94.7","1.666","115.2","1011.5","27.78","85.6","NAN","0.0"],
    [1569674,"2026-08-26 23:30:00","22384","0.644","90.3","1.209","67.39","1011.5219999999999","27.72","85.7","NAN","0.0"],
    [1569675,"2026-08-26 23:40:00","22385","0.5579999999999999","101.5","1.045","110.9","1011.48","27.86","85.3","NAN","0.0"],
    [1569676,"2026-08-26 23:50:00","22386","0.733","83.5","1.209","94.2","1011.477","27.91","84.9","NAN","0.0"],
    [1569677,"2026-08-27 00:00:00","22387","0.6920000000000001","80.4","1.5030000000000001","80.0","1011.323","27.92","84.8","NAN","0.0"],
    [1569678,"2026-08-27 00:10:00","22388","1.4280000000000002","40.17","2.548","43.64","1010.9810000000001","27.79","85.4","NAN","0.0"],
    [1569679,"2026-08-27 00:20:00","22389","1.3519999999999999","44.18","3.0380000000000003","59.3","1010.7739999999999","27.61","84","NAN","0.0"],
    [1569680,"2026-08-27 00:30:00","22390","0.718","21.25","2.123","24.13","1010.702","27.62","80.7","NAN","0.0"],
    [1569681,"2026-08-27 00:40:00","22391","1.024","33.8","2.319","38.34","1010.535","27.71","78.76","NAN","0.0"],
    [1569682,"2026-08-27 00:50:00","22392","1.052","33.53","2.45","26.56","1010.303","27.61","77.69","NAN","0.0"],
    [1569683,"2026-08-27 01:00:00","22393","1.327","44.11","2.45","45.61","1010.3439999999999","27.52","76.29","NAN","0.0"],
    [1569684,"2026-08-27 01:10:00","22394","1.156","16.41","2.483","10.72","1010.2260000000001","27.4","74.91","NAN","0.0"],
    [1569685,"2026-08-27 01:20:00","22395","1.156","33.09","2.7769999999999997","2.661","1010.002","27.23","75.1","NAN","0.0"],
    [1569686,"2026-08-27 01:30:00","22396","1.136","14.17","2.842","15.63","1009.83","27.15","75.16","NAN","0.0"],
    [1569687,"2026-08-27 01:40:00","22397","1.2919999999999998","3.175","2.6460000000000004","16.3","1009.888","27.19","75.16","NAN","0.0"],
    [1569688,"2026-08-27 01:50:00","22398","0.375","15.34","1.4369999999999998","39.51","1009.937","27.38","74.81","NAN","0.0"],
    [1569689,"2026-08-27 02:00:00","22399","0.469","21.08","1.764","19.03","1009.895","27.53","74.64","NAN","0.0"],
    [1569690,"2026-08-27 02:10:00","22400","0.877","20.39","1.699","10.9","1010.072","27.59","75.06","NAN","0.0"],
    [1569691,"2026-08-27 02:20:00","22401","0.498","53.6","1.2409999999999999","56.98","1010.0219999999999","27.61","75.19","NAN","0.0"],
    [1569692,"2026-08-27 02:30:00","22402","0.542","82.7","1.7309999999999999","55.2","1009.875","27.6","75.33","NAN","0.0"],
    [1569693,"2026-08-27 02:40:00","22403","0.836","66.2","1.764","54.94","1009.71","27.68","75.31","NAN","0.0"],
    [1569694,"2026-08-27 02:50:00","22404","1.0490000000000002","33.17","2.679","23.12","1009.658","27.61","75.3","NAN","0.0"],
    [1569695,"2026-08-27 03:00:00","22405","0.414","262.9","1.4369999999999998","215.7","1009.6560000000001","27.86","74.36","NAN","0.0"],
    [1569696,"2026-08-27 03:10:00","22406","0.7659999999999999","125.1","1.339","144.9","1009.628","27.86","75.24","NAN","0.0"],
    [1569697,"2026-08-27 03:20:00","22407","0.284","144.8","0.98","141.4","1009.659","27.61","76.52","NAN","0.0"],
    [1569698,"2026-08-27 03:30:00","22408","0.20800000000000002","138.6","0.8170000000000001","163.4","1009.7310000000001","27.74","75.97","NAN","0.0"],
    [1569699,"2026-08-27 03:40:00","22409","0.342","192.1","1.013","208.2","1009.748","27.71","76.59","NAN","0.0"],
    [1569700,"2026-08-27 03:50:00","22410","0.41100000000000003","156.2","1.078","149.3","1009.586","27.62","77.69","NAN","0.0"],
    [1569701,"2026-08-27 04:00:00","22411","0.025","163.6","0.392","171.9","1009.429","27.59","77.28","NAN","0.0"],
    [1569702,"2026-08-27 04:10:00","22412","0.0","0.0","0.0","0.0","1009.3919999999999","27.48","77.94","NAN","0.0"],
    [1569703,"2026-08-27 04:20:00","22413","0.0","0.0","0.0","0.0","1009.559","27.37","78.26","NAN","0.0"],
    [1569704,"2026-08-27 04:30:00","22414","0.402","183.1","1.405","177.4","1009.596","27.39","79.28","NAN","0.0"],
    [1569705,"2026-08-27 04:40:00","22415","0.27399999999999997","205.4","0.7509999999999999","176.5","1009.571","27.25","79.52","NAN","0.0"],
    [1569706,"2026-08-27 04:50:00","22416","0.11900000000000001","163.3","0.6859999999999999","149.8","1009.4739999999999","27.29","80.6","NAN","0.0"],
    [1569707,"2026-08-27 05:00:00","22417","0.092","122.9","0.6859999999999999","115.9","1009.367","27.16","81.2","NAN","0.0"],
    [1569708,"2026-08-27 05:10:00","22418","0.0","0.0","0.0","0.0","1009.5139999999999","27.26","81.4","NAN","0.0"],
    [1569709,"2026-08-27 05:20:00","22419","0.295","167.5","0.9470000000000001","161.9","1009.808","27.28","82.1","NAN","0.0"],
    [1569710,"2026-08-27 05:30:00","22420","0.095","160.6","0.555","144.3","1009.955","27.27","83.9","NAN","0.0"],
    [1569711,"2026-08-27 05:40:00","22421","0.026000000000000002","139.9","0.555","144.4","1009.9119999999999","27.19","83.7","NAN","0.0"],
    [1569712,"2026-08-27 05:50:00","22422","0.0","0.0","0.0","0.0","1009.845","27.4","83.5","NAN","0.0"],
    [1569713,"2026-08-27 06:00:00","22423","0.242","90.6","0.7509999999999999","100.3","1009.86","27.74","82.7","NAN","0.0"],
    [1569714,"2026-08-27 06:10:00","22424","0.486","66.32","1.013","53.65","1009.93","27.63","80.3","NAN","0.0"],
    [1569715,"2026-08-27 06:20:00","22425","0.142","105.2","0.7509999999999999","42.06","1010.115","27.82","78.7","NAN","0.0"],
    [1569716,"2026-08-27 06:30:00","22426","0.5660000000000001","162.1","1.339","153.4","1010.202","28.02","81.6","NAN","0.0"],
    [1569717,"2026-08-27 06:40:00","22427","1.278","184.6","2.548","204.1","1010.3710000000001","27.63","83.8","NAN","0.0"],
    [1569718,"2026-08-27 06:50:00","22428","1.173","202.9","2.907","185.5","1010.471","28","83.1","NAN","0.0"],
    [1569719,"2026-08-27 07:00:00","22429","1.361","234.2","3.201","283.9","1010.5260000000001","28.53","78.29","NAN","0.0"],
    [1569720,"2026-08-27 07:10:00","22430","1.114","221.5","3.136","232.9","1010.563","28.79","76.5","NAN","0.0"],
    [1569721,"2026-08-27 07:20:00","22431","1.5530000000000002","205.4","3.365","238.0","1010.555","28.95","74.34","NAN","0.0"],
    [1569722,"2026-08-27 07:30:00","22432","1.639","196.5","3.7239999999999998","193.2","1010.557","28.93","73.72","NAN","0.0"],
    [1569723,"2026-08-27 07:40:00","22433","1.608","197.5","4.312","186.9","1010.658","29.35","71.62","NAN","0.0"],
    [1569724,"2026-08-27 07:50:00","22434","1.665","198.5","3.855","202.9","1010.75","29.62","69.59","NAN","0.0"],
    [1569725,"2026-08-27 08:00:00","22435","1.494","200.5","3.9530000000000003","211.9","1010.845","29.65","69.07","NAN","0.0"],
    [1569726,"2026-08-27 08:10:00","22436","1.954","187.5","4.312","187.8","1011.1089999999999","29.61","66.14","NAN","0.0"],
    [1569727,"2026-08-27 08:20:00","22437","1.8230000000000002","190.8","3.267","182.1","1011.245","29.72","65.77","NAN","0.0"],
    [1569728,"2026-08-27 08:30:00","22438","2.349","186.7","5.031000000000001","183.9","1011.3589999999999","29.57","66.22","NAN","0.0"],
    [1569729,"2026-08-27 08:40:00","22439","2.042","192.3","4.802","162.2","1011.405","29.65","66.72","NAN","0.0"],
    [1569730,"2026-08-27 08:50:00","22440","2.06","198.5","4.737","173.6","1011.451","29.77","66.74","NAN","0.0"],
    [1569731,"2026-08-27 09:00:00","22441","1.7990000000000002","207.3","4.4430000000000005","213.3","1011.49","30.25","65.76","NAN","0.0"],
    [1569732,"2026-08-27 09:10:00","22442","1.6880000000000002","200.8","4.377","177.1","1011.5210000000001","30.52","63.86","NAN","0.0"],
    [1569733,"2026-08-27 09:20:00","22443","2.134","189.2","4.051","198.5","1011.533","30.21","65.04","NAN","0.0"],
    [1569734,"2026-08-27 09:30:00","22444","2.015","181.6","3.7569999999999997","178.4","1011.405","30.14","65.74","NAN","0.0"],
    [1569735,"2026-08-27 09:40:00","22445","2.5860000000000003","172.3","4.41","176.4","1011.4","30.02","66.93","NAN","0.0"],
    [1569736,"2026-08-27 09:50:00","22446","2.904","170.3","4.508","180.1","1011.403","29.69","69.19","NAN","0.0"],
    [1569737,"2026-08-27 10:00:00","22447","3.185","173.0","5.2589999999999995","168.1","1011.419","29.58","69.4","NAN","0.0"],
    [1569738,"2026-08-27 10:10:00","22448","3.214","172.0","4.835","175.9","1011.378","29.5","69.09","NAN","0.0"],
    [1569739,"2026-08-27 10:20:00","22449","2.944","168.3","4.704","175.6","1011.185","29.48","70.42","NAN","0.0"],
    [1569740,"2026-08-27 10:30:00","22450","2.665","179.4","4.1160000000000005","184.2","1011.158","29.68","70.58","NAN","0.0"],
    [1569741,"2026-08-27 10:40:00","22451","2.26","171.5","3.5610000000000004","166.8","1011.046","29.72","70.41","NAN","0.0"],
    [1569742,"2026-08-27 10:50:00","22452","2.3369999999999997","178.7","4.018","177.0","1011.025","29.76","70.85","NAN","0.0"],
    [1569743,"2026-08-27 11:00:00","22453","1.8559999999999999","174.2","3.332","117.4","1010.83","30","70.75","NAN","0.0"],
    [1569744,"2026-08-27 11:10:00","22454","1.954","141.6","3.855","144.4","1010.82","29.98","71.53","NAN","0.0"],
    [1569745,"2026-08-27 11:20:00","22455","1.964","158.5","3.005","107.9","1010.815","30.05","71.87","NAN","0.0"],
    [1569746,"2026-08-27 11:30:00","22456","2.176","184.0","3.365","185.4","1010.789","30","71.56","NAN","0.0"],
    [1569747,"2026-08-27 11:40:00","22457","2.4090000000000003","174.9","3.887","177.5","1010.795","30.01","72.35","NAN","0.0"],
    [1569748,"2026-08-27 11:50:00","22458","2.7539999999999996","174.2","4.835","150.8","1010.805","29.77","74.91","NAN","0.0"],
    [1569749,"2026-08-27 12:00:00","22459","2.379","177.8","3.855","162.4","1010.747","29.69","76","NAN","0.0"],
    [1569750,"2026-08-27 12:10:00","22460","2.5810000000000004","169.9","4.671","171.6","1010.554","29.8","75.13","NAN","0.0"],
    [1569751,"2026-08-27 12:20:00","22461","2.8110000000000004","170.1","4.181","176.1","1010.465","29.79","75.39","NAN","0.0"],
    [1569752,"2026-08-27 12:30:00","22462","2.8789999999999996","173.2","5.194","164.1","1010.437","29.81","74.34","NAN","0.0"],
    [1569753,"2026-08-27 12:40:00","22463","2.742","180.5","4.965","178.9","1010.5010000000001","30.09","72.78","NAN","0.0"],
    [1569754,"2026-08-27 12:50:00","22464","3.161","177.7","5.978","178.7","1010.418","30.12","73.27","NAN","0.0"],
    [1569755,"2026-08-27 13:00:00","22465","3.015","179.7","4.835","169.0","1010.33","30.14","72.87","NAN","0.0"],
    [1569756,"2026-08-27 13:10:00","22466","3.687","175.7","5.912999999999999","182.9","1010.3589999999999","29.95","73.1","NAN","0.0"],
    [1569757,"2026-08-27 13:20:00","22467","3.325","178.7","6.0760000000000005","188.5","1010.3939999999999","30.2","72.81","NAN","0.0"],
    [1569758,"2026-08-27 13:30:00","22468","3.76","175.7","7.0889999999999995","182.5","1010.4630000000001","29.91","74.5","NAN","0.0"],
    [1569759,"2026-08-27 13:40:00","22469","3.279","181.1","5.651","164.7","1010.6339999999999","29.99","74.47","NAN","0.0"],
    [1569760,"2026-08-27 13:50:00","22470","2.945","183.4","5.292000000000001","175.7","1010.623","30.08","74.04","NAN","0.0"],
    [1569761,"2026-08-27 14:00:00","22471","2.602","189.2","4.769","163.7","1010.456","30.18","73.4","NAN","0.0"],
    [1569762,"2026-08-27 14:10:00","22472","2.56","201.0","5.684","188.7","1010.497","30.57","68.93","NAN","0.0"],
    [1569763,"2026-08-27 14:20:00","22473","3.113","195.3","5.782","198.9","1010.7339999999999","30.15","68.89","NAN","0.0"],
    [1569764,"2026-08-27 14:30:00","22474","2.971","196.9","6.37","191.9","1010.829","30.02","69.84","NAN","0.0"],
    [1569765,"2026-08-27 14:40:00","22475","2.767","194.1","5.651","233.8","1010.828","30.08","70.43","NAN","0.0"],
    [1569766,"2026-08-27 14:50:00","22476","3.3280000000000003","197.4","7.121","206.9","1010.663","29.66","72.21","NAN","0.0"],
    [1569767,"2026-08-27 15:00:00","22477","2.784","193.9","5.4879999999999995","177.3","1010.55","30.03","69.18","NAN","0.0"],
    [1569768,"2026-08-27 15:10:00","22478","2.3680000000000003","202.0","5.2589999999999995","203.0","1010.4760000000001","30.4","65.34","NAN","0.0"],
    [1569769,"2026-08-27 15:20:00","22479","2.199","195.4","5.749","206.4","1010.4730000000001","30.63","63.42","NAN","0.0"],
    [1569770,"2026-08-27 15:30:00","22480","2.244","187.6","4.998","180.4","1010.432","30.42","66.61","NAN","0.0"],
    [1569771,"2026-08-27 15:40:00","22481","2.285","194.9","4.638999999999999","186.7","1010.633","30.08","69.04","NAN","0.0"],
    [1569772,"2026-08-27 15:50:00","22482","2.198","204.1","4.965","200.3","1010.512","29.88","70.12","NAN","0.0"],
    [1569773,"2026-08-27 16:00:00","22483","2.279","197.2","4.9","203.0","1010.505","29.59","70.94","NAN","0.0"],
    [1569774,"2026-08-27 16:10:00","22484","2.252","187.8","4.508","181.4","1010.423","29.22","73.14","NAN","0.0"],
    [1569775,"2026-08-27 16:20:00","22485","2.2680000000000002","203.5","5.619","201.5","1010.503","29.12","71.63","NAN","0.0"],
    [1569776,"2026-08-27 16:30:00","22486","1.8719999999999999","213.8","4.933","248.1","1010.553","29.44","62.31","NAN","0.0"],
    [1569777,"2026-08-27 16:40:00","22487","1.858","202.4","4.802","206.3","1010.418","29.35","60.55","NAN","0.0"],
    [1569778,"2026-08-27 16:50:00","22488","1.7519999999999998","203.5","3.5610000000000004","206.0","1010.393","29.39","60.13","NAN","0.0"],
    [1569779,"2026-08-27 17:00:00","22489","2.046","205.7","4.998","215.3","1010.3389999999999","29.42","55.17","NAN","0.0"],
    [1569780,"2026-08-27 17:10:00","22490","1.7209999999999999","217.3","4.541","214.8","1010.275","29.51","56.7","NAN","0.0"],
    [1569781,"2026-08-27 17:20:00","22491","1.5430000000000001","226.9","3.887","237.7","1010.4630000000001","29.52","58.39","NAN","0.0"],
    [1569782,"2026-08-27 17:30:00","22492","1.7990000000000002","209.1","4.345","194.8","1010.7180000000001","29.32","62.16","NAN","0.0"],
    [1569783,"2026-08-27 17:40:00","22493","2.083","207.6","4.312","203.6","1010.6260000000001","29.11","62.74","NAN","0.0"],
    [1569784,"2026-08-27 17:50:00","22494","1.8119999999999998","193.6","3.92","171.8","1010.4839999999999","29.08","62.26","NAN","0.0"],
    [1569785,"2026-08-27 18:00:00","22495","2.221","200.4","4.4430000000000005","183.6","1010.3660000000001","28.68","62.61","NAN","0.0"],
    [1569786,"2026-08-27 18:10:00","22496","1.432","210.3","3.495","205.3","1010.1610000000001","28.93","60.48","NAN","0.0"],
    [1569787,"2026-08-27 18:20:00","22497","1.3659999999999999","225.0","3.267","245.9","1010.0089999999999","29.1","56.64","NAN","0.0"],
    [1569788,"2026-08-27 18:30:00","22498","1.038","222.0","2.8089999999999997","242.9","1009.945","29.19","56.75","NAN","0.0"],
    [1569789,"2026-08-27 18:40:00","22499","1.054","216.1","3.43","237.1","1010.137","29.31","57.51","NAN","0.0"],
    [1569790,"2026-08-27 18:50:00","22500","1.013","228.5","3.201","222.0","1010.426","28.97","59.81","NAN","0.0"],
    [1569791,"2026-08-27 19:00:00","22501","1.4569999999999999","234.4","4.181","215.0","1010.525","29.04","57.47","NAN","0.0"],
    [1569792,"2026-08-27 19:10:00","22502","1.11","210.8","2.7439999999999998","237.8","1010.663","28.87","60.04","NAN","0.0"],
    [1569793,"2026-08-27 19:20:00","22503","0.41100000000000003","205.4","1.47","212.6","1010.872","28.56","62.8","NAN","0.0"],
    [1569794,"2026-08-27 19:30:00","22504","1.331","177.7","2.254","178.3","1011.303","28.49","63.92","NAN","0.0"],
    [1569795,"2026-08-27 19:40:00","22505","1.5","180.3","3.005","178.2","1011.578","28.44","65.86","NAN","0.0"],
    [1569796,"2026-08-27 19:50:00","22506","0.897","228.5","2.352","203.0","1011.808","28.56","63.15","NAN","0.0"],
    [1569797,"2026-08-27 20:00:00","22507","1.217","242.3","3.5610000000000004","230.1","1011.462","28.95","60.32","NAN","0.0"],
    [1569798,"2026-08-27 20:10:00","22508","1.24","212.0","4.671","242.4","1011.664","28.8","60.64","NAN","0.0"],
    [1569799,"2026-08-27 20:20:00","22509","1.219","222.3","3.005","192.9","1011.732","28.69","60.59","NAN","0.0"],
    [1569800,"2026-08-27 20:30:00","22510","1.6640000000000001","177.7","3.136","172.8","1011.836","28.69","60.61","NAN","0.0"],
    [1569801,"2026-08-27 20:40:00","22511","0.9059999999999999","225.9","1.895","176.8","1011.789","28.59","61.47","NAN","0.0"],
    [1569802,"2026-08-27 20:50:00","22512","1.3630000000000002","230.6","3.1689999999999996","254.0","1012.702","28.89","61.46","NAN","0.0"],
    [1569803,"2026-08-27 21:00:00","22513","1.719","254.0","3.7569999999999997","284.0","1012.591","28.94","61.98","NAN","0.0"],
    [1569804,"2026-08-27 21:10:00","22514","1.661","202.7","4.998","173.0","1012.578","28.62","63.64","NAN","0.0"],
    [1569805,"2026-08-27 21:20:00","22515","1.006","242.6","2.319","212.5","1011.9689999999999","28.7","63.25","NAN","0.0"],
    [1569806,"2026-08-27 21:30:00","22516","1.209","235.4","3.495","238.1","1011.7189999999999","28.81","62.5","NAN","0.0"],
    [1569807,"2026-08-27 21:40:00","22517","0.958","234.5","3.397","216.9","1011.691","28.78","62.46","NAN","0.0"],
    [1569808,"2026-08-27 21:50:00","22518","1.508","228.3","2.94","264.6","1011.645","28.8","62.28","NAN","0.0"],
    [1569809,"2026-08-27 22:00:00","22519","1.131","222.0","2.254","241.7","1012.1460000000001","28.57","63.99","NAN","0.0"],
    [1569810,"2026-08-27 22:10:00","22520","0.9940000000000001","218.8","3.136","211.7","1012.572","28.7","63.25","NAN","0.0"],
    [1569811,"2026-08-27 22:20:00","22521","1.709","233.0","4.638999999999999","234.3","1012.832","28.6","63.96","NAN","0.0"],
    [1569812,"2026-08-27 22:30:00","22522","1.65","240.8","4.573","223.4","1012.544","28.74","62.98","NAN","0.0"],
    [1569813,"2026-08-27 22:40:00","22523","1.172","225.3","2.907","238.1","1013.074","28.77","63.71","NAN","0.0"],
    [1569814,"2026-08-27 22:50:00","22524","1.19","224.7","2.9730000000000003","263.9","1013.018","28.65","64.7","NAN","0.0"],
    [1569815,"2026-08-27 23:00:00","22525","0.743","221.2","2.352","218.1","1013.192","28.58","65.2","NAN","0.0"],
    [1569816,"2026-08-27 23:10:00","22526","1.117","210.2","2.9730000000000003","179.1","1013.346","28.47","65.75","NAN","0.0"],
    [1569817,"2026-08-27 23:20:00","22527","0.983","246.5","2.548","245.8","1012.7460000000001","28.48","64.71","NAN","0.0"],
    [1569818,"2026-08-27 23:30:00","22528","0.82","264.8","3.005","284.8","1012.1569999999999","28.81","60.93","NAN","0.0"],
    [1569819,"2026-08-27 23:40:00","22529","0.9179999999999999","286.6","2.352","282.6","1012.2230000000001","29.07","56.39","NAN","0.0"],
    [1569820,"2026-08-27 23:50:00","22530","0.6609999999999999","272.9","2.123","266.9","1012.6110000000001","29.12","52.89","NAN","0.0"],
    [1569821,"2026-08-28 00:00:00","22531","1.536","250.2","3.6910000000000003","225.9","1012.78","29.2","45.08","NAN","0.0"],
    [1569822,"2026-08-28 00:10:00","22532","0.7040000000000001","239.9","2.385","247.9","1012.493","29.45","42.29","NAN","0.0"],
    [1569823,"2026-08-28 00:20:00","22533","0.961","265.8","2.385","277.7","1012.617","29.42","39.18","NAN","0.0"],
    [1569824,"2026-08-28 00:30:00","22534","1.28","239.0","2.94","232.0","1013.1569999999999","29.39","37.05","NAN","0.0"],
    [1569825,"2026-08-28 00:40:00","22535","1.1079999999999999","215.1","3.365","198.4","1013.738","29.11","41.18","NAN","0.0"],
    [1569826,"2026-08-28 00:50:00","22536","0.96","223.8","2.94","244.8","1014.038","28.93","40.42","NAN","0.0"],
    [1569827,"2026-08-28 01:00:00","22537","1.3419999999999999","261.0","3.43","302.0","1013.622","28.9","41.28","NAN","0.1"],
    [1569828,"2026-08-28 01:10:00","22538","1.19","234.5","3.0380000000000003","290.8","1013.573","28.34","42.96","NAN","0.0"],
    [1569829,"2026-08-28 01:20:00","22539","0.718","203.5","2.385","214.7","1013.826","27.74","46.99","NAN","0.0"],
    [1569830,"2026-08-28 01:30:00","22540","0.752","219.2","1.8619999999999999","202.6","1013.732","27.43","44.82","NAN","0.0"],
    [1569831,"2026-08-28 01:40:00","22541","0.513","261.6","1.568","288.5","1013.308","27.48","43.08","NAN","0.0"],
    [1569832,"2026-08-28 01:50:00","22542","0.595","248.7","2.45","220.1","1013.303","28.01","40.87","NAN","0.0"],
    [1569833,"2026-08-28 02:00:00","22543","0.904","241.8","2.0580000000000003","309.6","1013.346","28.23","38.77","NAN","0.0"],
    [1569834,"2026-08-28 02:10:00","22544","0.855","252.6","2.94","314.9","1013.482","28","36.65","NAN","0.0"],
    [1569835,"2026-08-28 02:20:00","22545","1.155","279.2","2.907","280.2","1013.034","28.5","30.25","NAN","0.0"],
    [1569836,"2026-08-28 02:30:00","22546","1.078","257.5","4.018","250.5","1013.329","28.37","29.82","NAN","0.0"],
    [1569837,"2026-08-28 02:40:00","22547","0.976","275.6","2.907","298.3","1013.28","28.34","29.28","NAN","0.0"],
    [1569838,"2026-08-28 02:50:00","22548","1.042","298.5","5.553","288.7","1013.105","28.28","29.24","NAN","0.0"],
    [1569839,"2026-08-28 03:00:00","22549","1.3019999999999998","281.8","4.769","261.3","1013.313","28.17","29.4","NAN","0.0"],
    [1569840,"2026-08-28 03:10:00","22550","1.1079999999999999","272.7","2.9730000000000003","302.1","1013.216","28.01","29.66","NAN","0.0"],
    [1569841,"2026-08-28 03:20:00","22551","0.8079999999999999","318.3","2.156","208.0","1013.331","27.99","29.58","NAN","0.0"],
    [1569842,"2026-08-28 03:30:00","22552","0.9179999999999999","275.4","2.5810000000000004","296.6","1013.448","27.99","29.35","NAN","0.0"],
    [1569843,"2026-08-28 03:40:00","22553","0.9420000000000001","303.5","2.254","292.0","1013.4630000000001","27.94","29.48","NAN","0.0"],
    [1569844,"2026-08-28 03:50:00","22554","1.204","300.1","3.6260000000000003","285.3","1013.618","27.88","29.53","NAN","0.0"],
    [1569845,"2026-08-28 04:00:00","22555","1.209","280.1","3.887","299.5","1013.8589999999999","27.74","29.85","NAN","0.0"],
    [1569846,"2026-08-28 04:10:00","22556","1.185","305.0","3.005","328.1","1013.814","27.63","30.14","NAN","0.0"],
    [1569847,"2026-08-28 04:20:00","22557","0.595","312.9","2.352","311.9","1013.692","27.49","30.44","NAN","0.0"],
    [1569848,"2026-08-28 04:30:00","22558","1.4669999999999999","315.8","3.365","318.4","1013.4730000000001","27.33","30.66","NAN","0.0"],
    [1569849,"2026-08-28 04:40:00","22559","0.972","296.2","3.887","307.0","1013.762","27.26","31.03","NAN","0.0"],
    [1569850,"2026-08-28 04:50:00","22560","1.426","299.1","4.769","309.6","1013.563","27.11","31.35","NAN","0.0"],
    [1569851,"2026-08-28 05:00:00","22561","1.659","309.7","4.051","320.7","1013.612","27.09","31.55","NAN","0.0"],
    [1569852,"2026-08-28 05:10:00","22562","1.591","303.7","5.945","303.3","1013.518","27.03","31.86","NAN","0.0"],
    [1569853,"2026-08-28 05:20:00","22563","1.2590000000000001","283.5","4.051","334.0","1013.735","27","32.04","NAN","0.0"],
    [1569854,"2026-08-28 05:30:00","22564","0.985","268.8","2.7110000000000003","255.8","1013.9860000000001","26.8","32.58","NAN","0.0"],
    [1569855,"2026-08-28 05:40:00","22565","0.84","285.6","3.234","316.0","1014.092","26.78","32.42","NAN","0.0"],
    [1569856,"2026-08-28 05:50:00","22566","1.236","279.9","2.94","275.4","1014.34","26.92","32.07","NAN","0.0"],
    [1569857,"2026-08-28 06:00:00","22567","1.214","306.6","3.463","315.6","1014.317","26.84","32.08","NAN","0.0"],
    [1569858,"2026-08-28 06:10:00","22568","0.895","275.0","2.385","334.5","1014.34","26.93","31.81","NAN","0.0"],
    [1569859,"2026-08-28 06:20:00","22569","1.266","288.8","3.1689999999999996","321.6","1014.393","26.95","31.45","NAN","0.0"],
    [1569860,"2026-08-28 06:30:00","22570","1.182","269.5","4.051","303.3","1014.691","27.09","31.23","NAN","0.0"],
    [1569861,"2026-08-28 06:40:00","22571","1.129","290.1","3.593","248.7","1014.586","27.09","31.09","NAN","0.0"],
    [1569862,"2026-08-28 06:50:00","22572","1.511","294.7","3.43","319.0","1014.495","27.08","30.81","NAN","0.0"],
    [1569863,"2026-08-28 07:00:00","22573","1.239","310.2","3.985","307.3","1014.949","27.16","30.36","NAN","0.0"],
    [1569864,"2026-08-28 07:10:00","22574","1.496","324.5","5.096","298.0","1015.217","27.31","29.69","NAN","0.0"],
    [1569865,"2026-08-28 07:20:00","22575","1.845","297.9","5.912999999999999","300.6","1015.466","27.22","29.36","NAN","0.0"],
    [1569866,"2026-08-28 07:30:00","22576","1.8880000000000001","298.4","4.279","310.4","1015.5830000000001","27.15","29.41","NAN","0.0"],
    [1569867,"2026-08-28 07:40:00","22577","1.172","292.9","4.312","255.1","1015.5830000000001","27.37","28.86","NAN","0.0"],
    [1569868,"2026-08-28 07:50:00","22578","1.29","314.0","4.2139999999999995","308.1","1015.5160000000001","27.44","28.48","NAN","0.0"],
    [1569869,"2026-08-28 08:00:00","22579","1.649","309.7","5.945","308.4","1015.673","27.45","28.04","NAN","0.0"],
    [1569870,"2026-08-28 08:10:00","22580","1.929","329.7","5.39","328.6","1015.755","27.35","28.04","NAN","0.0"],
    [1569871,"2026-08-28 08:20:00","22581","1.561","316.5","7.546","313.9","1015.93","27.34","27.8","NAN","0.0"],
    [1569872,"2026-08-28 08:30:00","22582","1.686","302.2","7.187","276.4","1016.1210000000001","27.37","27.24","NAN","0.0"],
    [1569873,"2026-08-28 08:40:00","22583","1.732","299.1","6.664","313.9","1016.209","27.3","27.32","NAN","0.0"],
    [1569874,"2026-08-28 08:50:00","22584","1.806","308.1","5.7170000000000005","298.3","1016.2660000000001","27.44","27.11","NAN","0.0"],
    [1569875,"2026-08-28 09:00:00","22585","2.023","302.4","4.802","306.0","1016.363","27.52","26.79","NAN","0.0"],
    [1569876,"2026-08-28 09:10:00","22586","2.022","297.4","5.782","285.9","1016.585","27.62","25.43","NAN","0.0"],
    [1569877,"2026-08-28 09:20:00","22587","2.251","311.8","6.86","288.0","1016.49","27.57","23.79","NAN","0.0"],
    [1569878,"2026-08-28 09:30:00","22588","2.161","283.5","6.1739999999999995","272.7","1016.4580000000001","27.76","23.45","NAN","0.0"],
    [1569879,"2026-08-28 09:40:00","22589","1.8869999999999998","302.1","5.194","279.8","1016.5269999999999","27.99","23","NAN","0.0"],
    [1569880,"2026-08-28 09:50:00","22590","1.9980000000000002","308.3","5.782","307.4","1016.388","28.34","22.33","NAN","0.0"],
    [1569881,"2026-08-28 10:00:00","22591","2.377","291.4","6.631","322.2","1016.547","28.33","22.19","NAN","0.0"],
    [1569882,"2026-08-28 10:10:00","22592","2.195","298.6","6.957999999999999","319.4","1016.362","28.42","22.36","NAN","0.0"],
    [1569883,"2026-08-28 10:20:00","22593","1.8630000000000002","297.4","5.292000000000001","287.3","1016.253","28.74","22.07","NAN","0.0"],
    [1569884,"2026-08-28 10:30:00","22594","2.261","316.8","4.573","315.3","1016.211","28.78","21.93","NAN","0.0"],
    [1569885,"2026-08-28 10:40:00","22595","1.526","295.0","4.573","250.2","1016.373","29.2","22.14","NAN","0.0"],
    [1569886,"2026-08-28 10:50:00","22596","1.6440000000000001","321.3","5.063","318.4","1016.682","29.67","21.69","NAN","0.0"],
    [1569887,"2026-08-28 11:00:00","22597","2.7289999999999996","317.9","6.566","314.0","1016.742","29.38","21.46","NAN","0.0"],
    [1569888,"2026-08-28 11:10:00","22598","1.71","313.2","4.377","317.2","1016.794","29.62","20.95","NAN","0.0"],
    [1569889,"2026-08-28 11:20:00","22599","1.766","288.4","4.638999999999999","302.0","1016.796","30.02","20.88","NAN","0.0"],
    [1569890,"2026-08-28 11:30:00","22600","1.5730000000000002","267.8","5.031000000000001","259.7","1016.673","30.27","20.16","NAN","0.0"],
    [1569891,"2026-08-28 11:40:00","22601","2.406","270.1","5.357","236.2","1016.556","30.16","19.62","NAN","0.0"],
    [1569892,"2026-08-28 11:50:00","22602","1.3619999999999999","261.2","3.887","302.9","1016.5089999999999","30.53","19.89","NAN","0.0"],
    [1569893,"2026-08-28 12:00:00","22603","2.011","262.8","5.39","278.2","1016.456","30.65","20.39","NAN","0.0"],
    [1569894,"2026-08-28 12:10:00","22604","1.422","304.7","3.9530000000000003","284.2","1016.3480000000001","31.12","19.93","NAN","0.0"],
    [1569895,"2026-08-28 12:20:00","22605","1.784","250.2","4.018","273.3","1016.413","30.97","20.72","NAN","0.0"],
    [1569896,"2026-08-28 12:30:00","22606","1.734","239.3","4.247","244.9","1016.426","31.51","20.63","NAN","0.0"],
    [1569897,"2026-08-28 12:40:00","22607","1.7069999999999999","249.7","4.149","237.5","1016.4730000000001","31.68","20.68","NAN","0.0"],
    [1569898,"2026-08-28 12:50:00","22608","1.5190000000000001","294.7","4.312","318.4","1016.4060000000001","31.52","20.59","NAN","0.0"],
    [1569899,"2026-08-28 13:00:00","22609","1.567","278.8","3.887","281.2","1016.306","31.69","20.53","NAN","0.0"],
    [1569900,"2026-08-28 13:10:00","22610","1.7890000000000001","320.0","3.985","325.1","1016.216","31.75","20.19","NAN","0.0"],
    [1569901,"2026-08-28 13:20:00","22611","1.462","230.6","4.737","209.7","1016.034","32.16","20.45","NAN","0.0"],
    [1569902,"2026-08-28 13:30:00","22612","1.511","216.2","4.279","187.1","1015.872","32.31","23.81","NAN","0.0"],
    [1569903,"2026-08-28 13:40:00","22613","3.327","176.4","5.651","184.7","1015.762","30.14","34.51","NAN","0.0"],
    [1569904,"2026-08-28 13:50:00","22614","1.03","172.0","3.103","184.2","1015.559","30.47","31.32","NAN","0.0"],
    [1569905,"2026-08-28 14:00:00","22615","1.36","279.1","3.6910000000000003","302.1","1015.427","32.61","20.41","NAN","0.0"],
    [1569906,"2026-08-28 14:10:00","22616","1.527","176.5","4.867","164.9","1015.37","32.24","20.72","NAN","0.0"],
    [1569907,"2026-08-28 14:20:00","22617","1.8659999999999999","268.4","5.4879999999999995","284.9","1015.21","32.04","20.36","NAN","0.0"],
    [1569908,"2026-08-28 14:30:00","22618","1.581","263.2","3.92","285.2","1015.076","32.35","19.04","NAN","0.0"],
    [1569909,"2026-08-28 14:40:00","22619","1.2409999999999999","261.3","4.475","267.7","1015.113","32.9","19.02","NAN","0.0"],
    [1569910,"2026-08-28 14:50:00","22620","1.912","219.1","4.181","227.7","1015.069","31.87","24.01","NAN","0.0"],
    [1569911,"2026-08-28 15:00:00","22621","2.128","241.4","4.312","205.7","1014.9680000000001","31.5","24.05","NAN","0.0"],
    [1569912,"2026-08-28 15:10:00","22622","2.122","210.6","6.141","208.6","1014.905","31.62","25.94","NAN","0.0"],
    [1569913,"2026-08-28 15:20:00","22623","2.43","203.2","5.88","216.1","1015.0989999999999","30.93","27.9","NAN","0.0"],
    [1569914,"2026-08-28 15:30:00","22624","2.384","212.5","7.382999999999999","212.5","1015.222","30.79","28.06","NAN","0.0"],
    [1569915,"2026-08-28 15:40:00","22625","2.01","207.9","4.4430000000000005","206.7","1015.29","30.52","30.25","NAN","0.0"],
    [1569916,"2026-08-28 15:50:00","22626","1.922","213.9","4.541","214.7","1015.293","30.38","29.83","NAN","0.0"],
    [1569917,"2026-08-28 16:00:00","22627","2.181","208.5","4.998","216.6","1015.322","30.11","31.18","NAN","0.0"],
    [1569918,"2026-08-28 16:10:00","22628","2.537","206.7","6.337000000000001","201.9","1015.337","29.85","33.86","NAN","0.0"],
    [1569919,"2026-08-28 16:20:00","22629","2.1719999999999997","217.8","5.2589999999999995","202.6","1015.3960000000001","29.8","30.69","NAN","0.0"],
    [1569920,"2026-08-28 16:30:00","22630","2.011","221.7","5.194","209.2","1015.337","29.81","31.57","NAN","0.0"],
    [1569921,"2026-08-28 16:40:00","22631","1.4409999999999998","229.8","4.704","233.5","1015.332","29.99","30.68","NAN","0.0"],
    [1569922,"2026-08-28 16:50:00","22632","2.126","222.7","5.096","233.5","1015.253","29.82","31.78","NAN","0.0"],
    [1569923,"2026-08-28 17:00:00","22633","1.879","225.9","4.671","217.1","1015.1339999999999","29.74","32.52","NAN","0.0"],
    [1569924,"2026-08-28 17:10:00","22634","1.382","230.5","3.6260000000000003","204.3","1015.082","29.89","31.44","NAN","0.0"],
    [1569925,"2026-08-28 17:20:00","22635","0.914","223.3","2.7769999999999997","230.0","1015.092","30.21","30.1","NAN","0.0"],
    [1569926,"2026-08-28 17:30:00","22636","1.215","209.2","3.005","205.4","1015.005","30.17","29.72","NAN","0.0"],
    [1569927,"2026-08-28 17:40:00","22637","0.74","223.0","2.319","207.9","1014.942","30.47","27.37","NAN","0.0"],
    [1569928,"2026-08-28 17:50:00","22638","1.047","271.1","2.94","301.0","1015.085","30.84","21.45","NAN","0.0"],
    [1569929,"2026-08-28 18:00:00","22639","1.4","288.8","3.332","303.7","1014.99","31.01","13.97","NAN","0.0"],
    [1569930,"2026-08-28 18:10:00","22640","1.274","299.5","4.1160000000000005","268.2","1015.052","30.97","13.26","NAN","0.0"],
    [1569931,"2026-08-28 18:20:00","22641","1.278","272.7","5.194","264.5","1015.0830000000001","30.8","13.58","NAN","0.0"],
    [1569932,"2026-08-28 18:30:00","22642","1.064","293.3","3.495","273.0","1015.1389999999999","30.58","14.16","NAN","0.0"],
    [1569933,"2026-08-28 18:40:00","22643","1.153","299.0","2.907","280.7","1015.17","30.31","14.76","NAN","0.0"],
    [1569934,"2026-08-28 18:50:00","22644","1.178","317.7","3.855","299.5","1015.4069999999999","30.04","15.84","NAN","0.0"],
    [1569935,"2026-08-28 19:00:00","22645","1.151","279.0","3.5610000000000004","287.1","1015.671","29.81","16.79","NAN","0.0"],
    [1569936,"2026-08-28 19:10:00","22646","1.2830000000000001","307.9","4.247","301.9","1015.665","29.6","17.01","NAN","0.0"],
    [1569937,"2026-08-28 19:20:00","22647","0.905","307.4","2.613","264.6","1015.768","29.32","17.19","NAN","0.0"],
    [1569938,"2026-08-28 19:30:00","22648","1.5130000000000001","322.9","3.528","283.9","1015.9069999999999","29.15","17.4","NAN","0.0"],
    [1569939,"2026-08-28 19:40:00","22649","1.079","287.9","3.201","304.4","1015.955","29.02","17.87","NAN","0.0"],
    [1569940,"2026-08-28 19:50:00","22650","0.912","323.1","3.463","312.7","1016.2289999999999","28.78","18.81","NAN","0.0"],
    [1569941,"2026-08-28 20:00:00","22651","0.961","325.5","2.7110000000000003","285.0","1016.3760000000001","28.81","19.42","NAN","0.0"],
    [1569942,"2026-08-28 20:10:00","22652","0.736","342.4","2.613","289.2","1016.465","28.62","20.27","NAN","0.0"],
    [1569943,"2026-08-28 20:20:00","22653","1.061","337.8","3.5610000000000004","322.7","1016.525","28.4","20.81","NAN","0.0"],
    [1569944,"2026-08-28 20:30:00","22654","1.51","324.6","3.1689999999999996","299.1","1016.508","28.36","21.15","NAN","0.0"],
    [1569945,"2026-08-28 20:40:00","22655","1.109","327.7","3.593","293.6","1016.653","28.13","21.4","NAN","0.0"],
    [1569946,"2026-08-28 20:50:00","22656","0.836","344.8","2.287","354.8","1016.834","28.05","21.48","NAN","0.0"],
    [1569947,"2026-08-28 21:00:00","22657","0.9890000000000001","4.106","2.842","29.47","1016.8910000000001","27.73","22.25","NAN","0.0"],
    [1569948,"2026-08-28 21:10:00","22658","0.867","34.01","2.417","13.49","1017.076","27.43","22.77","NAN","0.0"],
    [1569949,"2026-08-28 21:20:00","22659","0.752","34.12","1.666","20.3","1017.395","27.18","23.49","NAN","0.0"],
    [1569950,"2026-08-28 21:30:00","22660","0.872","40.79","2.319","74.36","1017.582","26.95","24.39","NAN","0.0"],
    [1569951,"2026-08-28 21:40:00","22661","1.07","57.58","2.0909999999999997","30.64","1017.7280000000001","26.71","25.45","NAN","0.0"],
    [1569952,"2026-08-28 21:50:00","22662","1.4369999999999998","41.94","2.9730000000000003","71.32","1017.711","26.48","32.03","NAN","0.0"],
    [1569953,"2026-08-28 22:00:00","22663","1.137","50.58","3.332","24.63","1017.8710000000001","26.24","41.48","NAN","0.0"],
    [1569954,"2026-08-28 22:10:00","22664","0.8270000000000001","75.85","2.221","106.8","1018.137","26.05","46.91","NAN","0.0"],
    [1569955,"2026-08-28 22:20:00","22665","1.4180000000000001","73.37","3.071","92.8","1018.177","25.97","52.9","NAN","0.0"],
    [1569956,"2026-08-28 22:30:00","22666","1.4509999999999998","66.86","3.6910000000000003","64.5","1018.175","25.76","56.45","NAN","0.0"],
    [1569957,"2026-08-28 22:40:00","22667","1.214","38.51","2.842","26.34","1018.307","25.67","56.71","NAN","0.0"],
    [1569958,"2026-08-28 22:50:00","22668","0.828","24.77","1.895","65.23","1018.329","25.59","57.76","NAN","0.0"],
    [1569959,"2026-08-28 23:00:00","22669","0.6679999999999999","2.501","1.339","15.97","1018.357","25.71","55.66","NAN","0.0"],
    [1569960,"2026-08-28 23:10:00","22670","0.6629999999999999","0.809","1.47","12.11","1018.5110000000001","25.76","54.76","NAN","0.0"],
    [1569961,"2026-08-28 23:20:00","22671","0.36","45.81","1.176","63.58","1018.73","25.83","53.58","NAN","0.0"],
    [1569962,"2026-08-28 23:30:00","22672","0.723","45.49","2.385","25.67","1018.822","25.71","52.4","NAN","0.0"],
    [1569963,"2026-08-28 23:40:00","22673","0.894","43.3","2.0580000000000003","59.61","1018.925","25.81","50.67","NAN","0.0"],
    [1569964,"2026-08-28 23:50:00","22674","0.63","43.14","1.535","30.99","1018.852","25.73","49.87","NAN","0.0"],
    [1569965,"2026-08-29 00:00:00","22675","0.682","53.81","1.3719999999999999","25.21","1018.802","25.59","49.45","NAN","0.0"],
    [1569966,"2026-08-29 00:10:00","22676","0.599","37.59","1.4369999999999998","6.73","1018.81","25.53","49.04","NAN","0.0"],
    [1569967,"2026-08-29 00:20:00","22677","0.5820000000000001","22.36","1.4369999999999998","7.935","1018.827","25.51","48.51","NAN","0.0"],
    [1569968,"2026-08-29 00:30:00","22678","0.433","34.36","1.633","31.58","1018.755","25.42","48.51","NAN","0.0"],
    [1569969,"2026-08-29 00:40:00","22679","0.527","4.367","1.274","29.31","1018.628","25.41","48.25","NAN","0.0"],
    [1569970,"2026-08-29 00:50:00","22680","0.639","27.72","1.5030000000000001","26.34","1018.57","25.38","48.06","NAN","0.0"],
    [1569971,"2026-08-29 01:00:00","22681","0.815","32.61","1.699","19.98","1018.416","25.29","47.87","NAN","0.0"],
    [1569972,"2026-08-29 01:10:00","22682","0.732","21.13","1.764","358.2","1018.299","25.14","47.87","NAN","0.0"],
    [1569973,"2026-08-29 01:20:00","22683","0.618","31.95","1.797","26.89","1018.202","25.08","47.75","NAN","0.0"],
    [1569974,"2026-08-29 01:30:00","22684","0.495","38.73","1.5030000000000001","348.0","1018.102","24.98","47.67","NAN","0.0"],
    [1569975,"2026-08-29 01:40:00","22685","0.614","28.76","1.633","20.26","1017.863","24.75","48.53","NAN","0.0"],
    [1569976,"2026-08-29 01:50:00","22686","0.731","16.71","1.9269999999999998","10.66","1017.831","24.69","48.46","NAN","0.0"],
    [1569977,"2026-08-29 02:00:00","22687","0.693","7.96","2.0580000000000003","16.51","1017.791","24.79","47.97","NAN","0.0"],
    [1569978,"2026-08-29 02:10:00","22688","0.875","16.1","2.254","347.6","1017.816","24.8","47.56","NAN","0.0"],
    [1569979,"2026-08-29 02:20:00","22689","0.696","29.94","1.829","35.47","1017.7230000000001","24.68","47.81","NAN","0.0"],
    [1569980,"2026-08-29 02:30:00","22690","0.7440000000000001","48.47","2.025","10.64","1017.6610000000001","24.41","48.77","NAN","0.0"],
    [1569981,"2026-08-29 02:40:00","22691","0.9259999999999999","38.83","2.123","44.14","1017.579","24.12","48.93","NAN","0.0"],
    [1569982,"2026-08-29 02:50:00","22692","0.7709999999999999","41.32","1.797","58.36","1017.581","23.97","48.22","NAN","0.0"],
    [1569983,"2026-08-29 03:00:00","22693","0.71","36.83","1.829","29.76","1017.4989999999999","23.76","48.49","NAN","0.0"],
    [1569984,"2026-08-29 03:10:00","22694","0.982","38.66","1.993","13.09","1017.444","23.66","48.56","NAN","0.0"],
    [1569985,"2026-08-29 03:20:00","22695","0.97","10.61","2.6460000000000004","5.54","1017.387","23.69","48.2","NAN","0.0"],
    [1569986,"2026-08-29 03:30:00","22696","1.148","9.29","2.483","7.2860000000000005","1017.332","23.66","48.05","NAN","0.0"],
    [1569987,"2026-08-29 03:40:00","22697","1.018","14.89","2.352","35.88","1017.365","23.69","47.73","NAN","0.0"],
    [1569988,"2026-08-29 03:50:00","22698","0.912","13.36","1.993","354.1","1017.35","23.68","47.53","NAN","0.0"],
    [1569989,"2026-08-29 04:00:00","22699","0.767","16.9","2.254","22.05","1017.337","23.66","47.6","NAN","0.0"],
    [1569990,"2026-08-29 04:10:00","22700","1.062","12.48","2.385","6.853","1017.365","23.76","47.22","NAN","0.0"],
    [1569991,"2026-08-29 04:20:00","22701","0.695","20.82","1.8619999999999999","42.93","1017.437","23.63","47.4","NAN","0.0"],
    [1569992,"2026-08-29 04:30:00","22702","0.706","31.9","1.9269999999999998","24.67","1017.462","23.43","47.54","NAN","0.0"],
    [1569993,"2026-08-29 04:40:00","22703","0.973","11.43","2.679","9.36","1017.4639999999999","23.43","46.9","NAN","0.0"],
    [1569994,"2026-08-29 04:50:00","22704","1.124","16.7","2.8089999999999997","351.9","1017.5089999999999","23.31","46.12","NAN","0.0"],
    [1569995,"2026-08-29 05:00:00","22705","1.0659999999999998","14.75","2.7439999999999998","33.2","1017.6610000000001","23.11","45.26","NAN","0.0"],
    [1569996,"2026-08-29 05:10:00","22706","0.7120000000000001","14.38","2.254","353.0","1017.7410000000001","22.94","45.5","NAN","0.0"],
    [1569997,"2026-08-29 05:20:00","22707","1.234","13.43","2.385","26.23","1017.913","22.9","46.21","NAN","0.0"],
    [1569998,"2026-08-29 05:30:00","22708","1.068","8.6","1.993","0.5379999999999999","1018.077","23.01","46.16","NAN","0.0"],
    [1569999,"2026-08-29 05:40:00","22709","0.8220000000000001","7.779","1.764","15.53","1018.105","23.1","45.79","NAN","0.0"],
    [1570000,"2026-08-29 05:50:00","22710","0.8290000000000001","5.74","1.797","13.28","1018.17","23.18","45.44","NAN","0.0"],
    [1570001,"2026-08-29 06:00:00","22711","1.101","3.373","2.0580000000000003","8.24","1018.1489999999999","23.37","44.91","NAN","0.0"],
    [1570002,"2026-08-29 06:10:00","22712","0.845","8.72","2.0909999999999997","351.5","1018.1389999999999","23.71","44.19","NAN","0.0"],
    [1570003,"2026-08-29 06:20:00","22713","0.723","10.7","1.797","6.858","1018.082","24.21","42.91","NAN","0.0"],
    [1570004,"2026-08-29 06:30:00","22714","0.885","6.983","2.189","4.913","1018.0880000000001","24.62","41.27","NAN","0.0"],
    [1570005,"2026-08-29 06:40:00","22715","0.743","33.48","2.417","22.43","1018.19","25.07","40.24","NAN","0.0"],
    [1570006,"2026-08-29 06:50:00","22716","0.6779999999999999","37.98","2.025","351.1","1018.314","25.69","39.29","NAN","0.0"],
    [1570007,"2026-08-29 07:00:00","22717","1.095","13.41","2.5810000000000004","22.97","1018.329","25.52","39.73","NAN","0.0"],
    [1570008,"2026-08-29 07:10:00","22718","0.825","1.015","1.895","7.942","1018.3660000000001","25.63","39.89","NAN","0.0"],
    [1570009,"2026-08-29 07:20:00","22719","0.774","18.84","1.797","341.4","1018.342","25.99","39.15","NAN","0.0"],
    [1570010,"2026-08-29 07:30:00","22720","0.718","29.66","2.352","25.27","1018.43","26.52","37.94","NAN","0.0"],
    [1570011,"2026-08-29 07:40:00","22721","1.155","55.92","2.287","71.78","1018.55","27.05","36.27","NAN","0.0"],
    [1570012,"2026-08-29 07:50:00","22722","1.139","34.34","2.45","35.2","1018.545","27.1","35.04","NAN","0.0"],
    [1570013,"2026-08-29 08:00:00","22723","1.104","25.17","2.417","64.42","1018.555","26.98","34.92","NAN","0.0"],
    [1570014,"2026-08-29 08:10:00","22724","0.953","43.26","2.123","79.55","1018.692","27.64","34.94","NAN","0.0"],
    [1570015,"2026-08-29 08:20:00","22725","1.112","41.07","2.515","88.7","1018.768","27.57","36.65","NAN","0.0"],
    [1570016,"2026-08-29 08:30:00","22726","0.7020000000000001","88.4","1.5030000000000001","99.4","1018.862","27.51","37.19","NAN","0.0"],
    [1570017,"2026-08-29 08:40:00","22727","1.7930000000000001","112.7","3.332","113.6","1018.949","27.39","36.71","NAN","0.0"],
    [1570018,"2026-08-29 08:50:00","22728","1.6669999999999998","112.8","3.071","104.8","1019.087","27.31","35.05","NAN","0.0"],
    [1570019,"2026-08-29 09:00:00","22729","1.8769999999999998","117.6","3.267","111.6","1019.158","27.34","34.17","NAN","0.0"],
    [1570020,"2026-08-29 09:10:00","22730","1.857","119.4","2.875","100.4","1019.2869999999999","27.08","35.68","NAN","0.0"],
    [1570021,"2026-08-29 09:20:00","22731","1.624","128.5","2.613","109.7","1019.3660000000001","27.26","38.37","NAN","0.0"],
    [1570022,"2026-08-29 09:30:00","22732","1.46","134.4","2.515","136.4","1019.3839999999999","27.03","43","NAN","0.0"],
    [1570023,"2026-08-29 09:40:00","22733","1.473","135.1","2.189","102.8","1019.329","27.17","43.1","NAN","0.0"],
    [1570024,"2026-08-29 09:50:00","22734","1.7269999999999999","134.3","2.907","115.0","1019.3889999999999","27.02","44.18","NAN","0.0"],
    [1570025,"2026-08-29 10:00:00","22735","1.611","136.9","2.5810000000000004","184.7","1019.291","26.83","45.47","NAN","0.0"],
    [1570026,"2026-08-29 10:10:00","22736","1.5230000000000001","120.6","2.9730000000000003","110.1","1019.283","27.51","44.48","NAN","0.0"],
    [1570027,"2026-08-29 10:20:00","22737","1.925","125.9","3.332","122.7","1019.195","27.15","45.19","NAN","0.0"],
    [1570028,"2026-08-29 10:30:00","22738","1.5219999999999998","139.7","2.679","143.3","1019.1439999999999","27.43","45.26","NAN","0.0"],
    [1570029,"2026-08-29 10:40:00","22739","1.57","161.4","3.332","161.4","1019.044","27.31","46.05","NAN","0.0"],
    [1570030,"2026-08-29 10:50:00","22740","1.931","146.8","3.201","114.0","1018.8860000000001","27.4","46.23","NAN","0.0"],
    [1570031,"2026-08-29 11:00:00","22741","2.0980000000000003","165.9","3.495","175.6","1018.817","27.59","44.86","NAN","0.0"],
    [1570032,"2026-08-29 11:10:00","22742","2.217","164.2","3.5610000000000004","176.1","1018.763","27.63","44.89","NAN","0.0"],
    [1570033,"2026-08-29 11:20:00","22743","2.187","166.8","3.6260000000000003","132.0","1018.7180000000001","27.68","45.62","NAN","0.0"],
    [1570034,"2026-08-29 11:30:00","22744","2.411","157.0","4.573","175.3","1018.658","27.44","44.93","NAN","0.0"],
    [1570035,"2026-08-29 11:40:00","22745","2.31","170.1","3.9530000000000003","178.1","1018.574","27.57","45.46","NAN","0.0"],
    [1570036,"2026-08-29 11:50:00","22746","2.3","181.7","3.6910000000000003","167.6","1018.451","27.71","44.63","NAN","0.0"],
    [1570037,"2026-08-29 12:00:00","22747","2.263","180.8","3.985","180.2","1018.409","27.94","45.12","NAN","0.0"],
    [1570038,"2026-08-29 12:10:00","22748","2.431","181.7","4.1160000000000005","148.0","1018.323","27.76","45.62","NAN","0.0"],
    [1570039,"2026-08-29 12:20:00","22749","2.7260000000000004","176.9","4.345","168.3","1018.273","27.36","46.7","NAN","0.0"],
    [1570040,"2026-08-29 12:30:00","22750","2.761","182.0","4.541","164.9","1018.107","27.27","47.99","NAN","0.0"],
    [1570041,"2026-08-29 12:40:00","22751","3.168","174.2","4.769","152.0","1018.012","27.22","48.67","NAN","0.0"],
    [1570042,"2026-08-29 12:50:00","22752","3.386","176.6","5.227","177.8","1017.852","27.02","50.28","NAN","0.0"],
    [1570043,"2026-08-29 13:00:00","22753","3.478","176.3","5.357","169.4","1017.818","27.07","51.08","NAN","0.0"],
    [1570044,"2026-08-29 13:10:00","22754","2.762","183.0","5.227","166.2","1017.7260000000001","27.54","51.31","NAN","0.0"],
    [1570045,"2026-08-29 13:20:00","22755","2.6310000000000002","194.0","4.638999999999999","205.7","1017.674","27.69","50.77","NAN","0.0"],
    [1570046,"2026-08-29 13:30:00","22756","3.109","188.3","4.933","197.9","1017.6","27.51","51.72","NAN","0.0"],
    [1570047,"2026-08-29 13:40:00","22757","2.67","189.8","4.4430000000000005","172.5","1017.4789999999999","27.63","52.71","NAN","0.0"],
    [1570048,"2026-08-29 13:50:00","22758","3.315","183.5","5.7170000000000005","170.7","1017.3889999999999","27.4","53.76","NAN","0.0"],
    [1570049,"2026-08-29 14:00:00","22759","3.536","179.5","6.37","169.8","1017.332","27.33","54.78","NAN","0.0"],
    [1570050,"2026-08-29 14:10:00","22760","3.3169999999999997","185.0","6.1739999999999995","179.1","1017.324","27.47","55.24","NAN","0.0"],
    [1570051,"2026-08-29 14:20:00","22761","3.595","180.7","6.1739999999999995","176.8","1017.2489999999999","27.42","55.1","NAN","0.0"],
    [1570052,"2026-08-29 14:30:00","22762","2.738","195.6","5.357","200.1","1017.08","27.85","52.12","NAN","0.0"],
    [1570053,"2026-08-29 14:40:00","22763","2.665","194.9","5.422999999999999","175.0","1017.002","28.09","50.72","NAN","0.0"],
    [1570054,"2026-08-29 14:50:00","22764","2.306","196.5","5.2589999999999995","194.9","1016.925","28.34","50.9","NAN","0.0"],
    [1570055,"2026-08-29 15:00:00","22765","2.069","198.4","4.606","167.3","1016.824","28.39","51.49","NAN","0.0"],
    [1570056,"2026-08-29 15:10:00","22766","2.8989999999999996","182.9","4.835","169.3","1016.8","28.11","52.54","NAN","0.0"],
    [1570057,"2026-08-29 15:20:00","22767","2.274","201.4","5.455","208.9","1016.633","28.2","52.69","NAN","0.0"],
    [1570058,"2026-08-29 15:30:00","22768","2.924","198.6","5.815","182.9","1016.4730000000001","28.1","52.33","NAN","0.0"],
    [1570059,"2026-08-29 15:40:00","22769","2.9389999999999996","188.0","5.749","169.0","1016.37","27.92","52.85","NAN","0.0"],
    [1570060,"2026-08-29 15:50:00","22770","2.615","183.4","4.835","175.2","1016.325","27.85","53.34","NAN","0.0"],
    [1570061,"2026-08-29 16:00:00","22771","2.73","181.9","5.39","175.3","1016.324","27.82","53.83","NAN","0.0"],
    [1570062,"2026-08-29 16:10:00","22772","3.0789999999999997","180.4","5.7170000000000005","156.9","1016.2819999999999","27.78","53.72","NAN","0.0"],
    [1570063,"2026-08-29 16:20:00","22773","3.02","182.0","5.619","174.7","1016.202","27.64","54.74","NAN","0.0"],
    [1570064,"2026-08-29 16:30:00","22774","2.224","197.5","4.638999999999999","207.2","1016.0939999999999","27.93","53.77","NAN","0.0"],
    [1570065,"2026-08-29 16:40:00","22775","2.78","190.5","5.422999999999999","173.1","1016.069","27.76","54.71","NAN","0.0"],
    [1570066,"2026-08-29 16:50:00","22776","2.496","197.2","5.619","202.1","1016.071","27.94","54.2","NAN","0.0"],
    [1570067,"2026-08-29 17:00:00","22777","2.157","198.2","4.867","186.7","1016.078","27.65","55.22","NAN","0.0"],
    [1570068,"2026-08-29 17:10:00","22778","2.173","197.9","3.887","191.6","1015.967","27.57","55.91","NAN","0.0"],
    [1570069,"2026-08-29 17:20:00","22779","2.437","190.9","5.782","171.9","1015.8660000000001","27.48","56.83","NAN","0.0"],
    [1570070,"2026-08-29 17:30:00","22780","2.575","198.2","6.1739999999999995","169.4","1015.796","27.42","57.06","NAN","0.0"],
    [1570071,"2026-08-29 17:40:00","22781","2.56","187.1","5.553","178.6","1015.835","27.28","58.19","NAN","0.0"],
    [1570072,"2026-08-29 17:50:00","22782","1.807","184.4","3.7239999999999998","166.5","1015.857","27.16","59.28","NAN","0.0"],
    [1570073,"2026-08-29 18:00:00","22783","1.9409999999999998","191.2","4.998","211.3","1015.882","27.05","60.33","NAN","0.0"],
    [1570074,"2026-08-29 18:10:00","22784","2.211","205.0","4.671","216.4","1015.937","26.95","60.76","NAN","0.0"],
    [1570075,"2026-08-29 18:20:00","22785","1.8119999999999998","228.7","3.855","246.7","1015.944","27.09","59.47","NAN","0.0"],
    [1570076,"2026-08-29 18:30:00","22786","1.4909999999999999","220.4","4.2139999999999995","228.6","1015.922","27.09","59.91","NAN","0.0"],
    [1570077,"2026-08-29 18:40:00","22787","1.633","222.1","3.985","249.6","1015.944","27.04","59.94","NAN","0.0"],
    [1570078,"2026-08-29 18:50:00","22788","1.256","214.9","3.005","205.4","1016.069","26.84","60.84","NAN","0.0"],
    [1570079,"2026-08-29 19:00:00","22789","1.649","211.9","4.018","193.6","1016.169","26.84","61.52","NAN","0.0"],
    [1570080,"2026-08-29 19:10:00","22790","1.9","231.4","6.729","253.1","1016.0989999999999","26.81","61.49","NAN","0.0"],
    [1570081,"2026-08-29 19:20:00","22791","2.042","228.7","4.835","196.6","1016.086","26.91","61.04","NAN","0.0"],
    [1570082,"2026-08-29 19:30:00","22792","0.997","225.1","3.43","244.3","1016.177","26.94","61.01","NAN","0.0"],
    [1570083,"2026-08-29 19:40:00","22793","1.271","218.8","4.41","232.6","1016.388","26.9","61.18","NAN","0.0"],
    [1570084,"2026-08-29 19:50:00","22794","0.853","227.7","2.7110000000000003","209.5","1016.563","26.86","61.48","NAN","0.0"],
    [1570085,"2026-08-29 20:00:00","22795","1.2229999999999999","243.7","3.7889999999999997","226.5","1016.655","26.91","60.8","NAN","0.0"],
    [1570086,"2026-08-29 20:10:00","22796","0.852","213.4","2.875","257.0","1016.834","26.79","61.59","NAN","0.0"],
    [1570087,"2026-08-29 20:20:00","22797","0.552","187.5","1.764","171.4","1016.9739999999999","26.51","62.57","NAN","0.0"],
    [1570088,"2026-08-29 20:30:00","22798","0.777","193.3","2.319","195.9","1017.038","26.33","63.03","NAN","0.0"],
    [1570089,"2026-08-29 20:40:00","22799","1.014","187.3","1.797","198.4","1017.0830000000001","26.27","63.99","NAN","0.0"],
    [1570090,"2026-08-29 20:50:00","22800","0.96","171.9","1.666","177.5","1017.086","26.23","63.68","NAN","0.0"],
    [1570091,"2026-08-29 21:00:00","22801","0.779","197.8","1.274","202.2","1017.0930000000001","26.08","64.65","NAN","0.0"],
    [1570092,"2026-08-29 21:10:00","22802","0.6659999999999999","189.6","1.176","191.5","1017.148","25.93","66.45","NAN","0.0"],
    [1570093,"2026-08-29 21:20:00","22803","0.624","175.5","1.176","183.2","1017.163","25.85","66.05","NAN","0.0"],
    [1570094,"2026-08-29 21:30:00","22804","0.772","191.0","1.3719999999999999","209.3","1017.2080000000001","25.85","65.29","NAN","0.0"],
    [1570095,"2026-08-29 21:40:00","22805","0.688","162.6","1.209","167.1","1017.198","25.93","64.51","NAN","0.0"],
    [1570096,"2026-08-29 21:50:00","22806","0.361","166.5","0.8490000000000001","171.6","1017.18","25.96","63.78","NAN","0.0"],
    [1570097,"2026-08-29 22:00:00","22807","0.35100000000000003","182.5","0.7509999999999999","216.3","1017.205","25.84","65.48","NAN","0.0"],
    [1570098,"2026-08-29 22:10:00","22808","0.7829999999999999","124.3","1.274","110.6","1017.32","26.01","63.31","NAN","0.0"],
    [1570099,"2026-08-29 22:20:00","22809","0.604","130.7","1.078","143.7","1017.332","26","64.44","NAN","0.0"],
    [1570100,"2026-08-29 22:30:00","22810","0.392","181.9","0.9470000000000001","141.9","1017.332","25.9","66.45","NAN","0.0"],
    [1570101,"2026-08-29 22:40:00","22811","0.248","196.1","1.111","206.2","1017.335","25.63","66.57","NAN","0.0"],
    [1570102,"2026-08-29 22:50:00","22812","0.44299999999999995","202.5","1.045","227.2","1017.36","25.61","65.49","NAN","0.0"],
    [1570103,"2026-08-29 23:00:00","22813","0.141","186.2","0.588","164.9","1017.347","25.64","64.51","NAN","0.0"],
    [1570104,"2026-08-29 23:10:00","22814","1.0590000000000002","31.59","2.221","31.13","1017.43","25.78","63.02","NAN","0.0"],
    [1570105,"2026-08-29 23:20:00","22815","0.7340000000000001","36.83","1.8619999999999999","55.2","1017.455","25.77","63.27","NAN","0.0"],
    [1570106,"2026-08-29 23:30:00","22816","0.963","25.08","2.123","14.73","1017.457","25.68","63.61","NAN","0.0"],
    [1570107,"2026-08-29 23:40:00","22817","0.725","13.06","1.601","351.9","1017.387","25.67","63.53","NAN","0.0"],
    [1570108,"2026-08-29 23:50:00","22818","0.495","357.6","1.2409999999999999","0.84","1017.332","25.74","63.27","NAN","0.0"],
    [1570109,"2026-08-30 00:00:00","22819","0.68","359.4","1.7309999999999999","11.48","1017.31","25.76","63.29","NAN","0.0"],
    [1570110,"2026-08-30 00:10:00","22820","0.815","326.6","1.5030000000000001","314.1","1017.31","26.11","62.06","NAN","0.0"],
    [1570111,"2026-08-30 00:20:00","22821","0.5489999999999999","352.4","1.405","342.8","1017.26","26","62.46","NAN","0.0"],
    [1570112,"2026-08-30 00:30:00","22822","0.515","351.0","1.176","17.08","1017.135","25.89","62.8","NAN","0.0"],
    [1570113,"2026-08-30 00:40:00","22823","0.42200000000000004","359.7","1.9269999999999998","9.18","1017.073","25.73","63.34","NAN","0.0"],
    [1570114,"2026-08-30 00:50:00","22824","0.5479999999999999","348.6","1.339","18.73","1016.8839999999999","25.63","63.58","NAN","0.0"],
    [1570115,"2026-08-30 01:00:00","22825","0.862","40.64","2.0580000000000003","32.4","1016.872","25.45","63.96","NAN","0.0"],
    [1570116,"2026-08-30 01:10:00","22826","0.871","39.95","1.96","39.76","1016.8510000000001","25.08","64.92","NAN","0.0"],
    [1570117,"2026-08-30 01:20:00","22827","0.523","38.63","1.339","21.92","1016.8739999999999","24.93","65.27","NAN","0.0"],
    [1570118,"2026-08-30 01:30:00","22828","0.193","26.83","0.784","29.25","1016.954","24.9","65.4","NAN","0.0"],
    [1570119,"2026-08-30 01:40:00","22829","0.183","289.7","1.013","294.9","1016.966","25.02","65.28","NAN","0.0"],
    [1570120,"2026-08-30 01:50:00","22830","0.078","339.0","1.764","305.4","1016.9789999999999","25.13","64.97","NAN","0.0"],
    [1570121,"2026-08-30 02:00:00","22831","0.8059999999999999","306.4","1.7309999999999999","306.1","1016.913","25.52","63.66","NAN","0.0"],
    [1570122,"2026-08-30 02:10:00","22832","0.281","2.323","1.078","32.24","1016.834","25.54","63.62","NAN","0.0"],
    [1570123,"2026-08-30 02:20:00","22833","0.519","40.77","1.4369999999999998","22.82","1016.826","25.1","64.96","NAN","0.0"],
    [1570124,"2026-08-30 02:30:00","22834","0.0","0.0","0.0","0.0","1016.702","24.84","66.22","NAN","0.0"],
    [1570125,"2026-08-30 02:40:00","22835","0.183","79.56","0.98","72.57","1016.682","24.71","66.53","NAN","0.0"],
    [1570126,"2026-08-30 02:50:00","22836","0.406","68.12","0.7509999999999999","64.16","1016.597","24.58","67.25","NAN","0.0"],
    [1570127,"2026-08-30 03:00:00","22837","0.61","51.23","1.339","48.26","1016.625","24.33","67.68","NAN","0.0"],
    [1570128,"2026-08-30 03:10:00","22838","0.379","25.37","1.045","54.6","1016.6469999999999","24.25","67.74","NAN","0.0"],
    [1570129,"2026-08-30 03:20:00","22839","0.565","45.97","1.111","62.35","1016.592","24.16","67.79","NAN","0.0"],
    [1570130,"2026-08-30 03:30:00","22840","0.42100000000000004","44.81","1.078","22.59","1016.587","24.02","68.34","NAN","0.0"],
    [1570131,"2026-08-30 03:40:00","22841","0.727","40.15","1.143","35.91","1016.585","23.96","68.48","NAN","0.0"],
    [1570132,"2026-08-30 03:50:00","22842","0.162","26.56","0.915","23.04","1016.595","23.86","68.76","NAN","0.0"],
    [1570133,"2026-08-30 04:00:00","22843","0.308","199.2","0.915","197.4","1016.585","23.89","69.22","NAN","0.0"],
    [1570134,"2026-08-30 04:10:00","22844","0.17800000000000002","222.5","1.3719999999999999","209.7","1016.587","24.03","70.43","NAN","0.0"],
    [1570135,"2026-08-30 04:20:00","22845","0.10400000000000001","121.0","0.8170000000000001","242.6","1016.585","24.15","69.91","NAN","0.0"],
    [1570136,"2026-08-30 04:30:00","22846","0.204","44.73","0.7509999999999999","46.08","1016.54","23.88","69.53","NAN","0.0"],
    [1570137,"2026-08-30 04:40:00","22847","0.42200000000000004","56.75","1.405","29.42","1016.482","23.77","69.41","NAN","0.0"],
    [1570138,"2026-08-30 04:50:00","22848","0.907","11.82","1.797","346.0","1016.46","23.63","69.83","NAN","0.0"],
    [1570139,"2026-08-30 05:00:00","22849","0.684","352.5","1.2409999999999999","15.89","1016.46","23.67","69.69","NAN","0.0"],
    [1570140,"2026-08-30 05:10:00","22850","0.677","15.1","1.633","7.292000000000001","1016.5","23.71","69.47","NAN","0.0"],
    [1570141,"2026-08-30 05:20:00","22851","0.513","21.8","1.5030000000000001","31.69","1016.572","23.43","69.99","NAN","0.0"],
    [1570142,"2026-08-30 05:30:00","22852","0.091","354.0","1.111","12.1","1016.5880000000001","23.29","70.51","NAN","0.0"],
    [1570143,"2026-08-30 05:40:00","22853","0.493","43.59","1.2409999999999999","32.69","1016.702","23.4","70.18","NAN","0.0"],
    [1570144,"2026-08-30 05:50:00","22854","0.861","4.115","1.601","8.28","1016.802","23.52","69.13","NAN","0.0"],
    [1570145,"2026-08-30 06:00:00","22855","0.88","9.65","1.633","6.329","1016.834","23.71","68.07","NAN","0.0"],
    [1570146,"2026-08-30 06:10:00","22856","0.405","17.46","1.829","8.86","1016.8389999999999","23.95","67.1","NAN","0.0"],
    [1570147,"2026-08-30 06:20:00","22857","0.19","31.12","0.7190000000000001","0.22399999999999998","1016.8760000000001","24.49","65.08","NAN","0.0"],
    [1570148,"2026-08-30 06:30:00","22858","0.664","76.13","1.4369999999999998","68.29","1016.9910000000001","25.12","62.77","NAN","0.0"],
    [1570149,"2026-08-30 06:40:00","22859","0.6","76.1","1.176","64.33","1017.0830000000001","25.56","61.29","NAN","0.0"],
    [1570150,"2026-08-30 06:50:00","22860","0.723","64.68","1.4369999999999998","33.97","1017.0830000000001","25.88","59.47","NAN","0.0"],
    [1570151,"2026-08-30 07:00:00","22861","1.139","70.8","1.993","66.56","1017.1139999999999","25.98","58.07","NAN","0.0"],
    [1570152,"2026-08-30 07:10:00","22862","0.27699999999999997","49.6","1.078","99.0","1017.195","26.45","56.16","NAN","0.0"],
    [1570153,"2026-08-30 07:20:00","22863","0.7040000000000001","39.28","2.0909999999999997","17.14","1017.257","26.88","54.64","NAN","0.0"],
    [1570154,"2026-08-30 07:30:00","22864","1.114","56.3","2.287","57.39","1017.2560000000001","26.63","55.05","NAN","0.0"],
    [1570155,"2026-08-30 07:40:00","22865","0.623","23.48","1.829","33.6","1017.2489999999999","27.21","53.24","NAN","0.0"],
    [1570156,"2026-08-30 07:50:00","22866","0.9309999999999999","87.1","1.47","83.5","1017.237","27.97","50.68","NAN","0.0"],
    [1570157,"2026-08-30 08:00:00","22867","0.9109999999999999","143.0","1.633","178.5","1017.2660000000001","27.91","50.53","NAN","0.0"],
    [1570158,"2026-08-30 08:10:00","22868","1.31","191.3","2.515","175.2","1017.346","27.45","55.32","NAN","0.0"],
    [1570159,"2026-08-30 08:20:00","22869","1.24","173.4","2.0909999999999997","164.5","1017.413","26.88","58.03","NAN","0.0"],
    [1570160,"2026-08-30 08:30:00","22870","1.219","135.3","1.7309999999999999","107.0","1017.4960000000001","26.97","57.66","NAN","0.0"],
    [1570161,"2026-08-30 08:40:00","22871","1.2770000000000001","154.5","1.96","174.7","1017.5210000000001","27.23","57.46","NAN","0.0"],
    [1570162,"2026-08-30 08:50:00","22872","1.25","163.5","1.993","137.5","1017.6210000000001","27.47","56.44","NAN","0.0"],
    [1570163,"2026-08-30 09:00:00","22873","1.463","172.7","2.613","184.6","1017.6439999999999","27.64","54.98","NAN","0.0"],
    [1570164,"2026-08-30 09:10:00","22874","1.354","170.5","2.123","162.7","1017.6210000000001","27.87","50.83","NAN","0.0"],
    [1570165,"2026-08-30 09:20:00","22875","1.469","161.8","2.515","158.4","1017.547","27.88","51.36","NAN","0.0"],
    [1570166,"2026-08-30 09:30:00","22876","1.7530000000000001","167.6","2.679","162.3","1017.529","27.8","53.43","NAN","0.0"],
    [1570167,"2026-08-30 09:40:00","22877","1.921","164.7","2.6460000000000004","160.5","1017.497","27.65","55.36","NAN","0.0"],
    [1570168,"2026-08-30 09:50:00","22878","2.209","172.0","3.822","180.6","1017.419","27.87","58.01","NAN","0.0"],
    [1570169,"2026-08-30 10:00:00","22879","2.205","173.4","3.43","175.9","1017.3739999999999","27.74","64.62","NAN","0.0"],
    [1570170,"2026-08-30 10:10:00","22880","2.226","170.5","4.1160000000000005","181.1","1017.309","27.98","65.91","NAN","0.0"],
    [1570171,"2026-08-30 10:20:00","22881","3.306","169.1","5.129","179.8","1017.2919999999999","27.64","68.03","NAN","0.0"],
    [1570172,"2026-08-30 10:30:00","22882","3.24","167.4","4.835","182.0","1017.258","27.8","67.45","NAN","0.0"],
    [1570173,"2026-08-30 10:40:00","22883","3.207","167.8","4.638999999999999","183.5","1017.2819999999999","27.93","67.58","NAN","0.0"],
    [1570174,"2026-08-30 10:50:00","22884","3.697","169.1","5.4879999999999995","177.1","1017.176","27.81","68.72","NAN","0.0"],
    [1570175,"2026-08-30 11:00:00","22885","3.44","167.4","5.4879999999999995","171.8","1017.102","27.76","69.12","NAN","0.0"],
    [1570176,"2026-08-30 11:10:00","22886","3.528","166.9","4.998","171.4","1017.076","27.77","69.89","NAN","0.0"],
    [1570177,"2026-08-30 11:20:00","22887","3.662","169.5","5.7170000000000005","179.2","1017.077","27.78","70.5","NAN","0.0"],
    [1570178,"2026-08-30 11:30:00","22888","3.318","170.0","5.292000000000001","167.3","1016.972","27.61","71.67","NAN","0.0"],
    [1570179,"2026-08-30 11:40:00","22889","3.653","168.9","5.586","179.4","1016.8660000000001","27.88","69.57","NAN","0.0"],
    [1570180,"2026-08-30 11:50:00","22890","3.176","170.2","5.063","164.0","1016.83","28.08","70.12","NAN","0.0"],
    [1570181,"2026-08-30 12:00:00","22891","3.187","170.8","5.586","154.1","1016.834","28.09","69.6","NAN","0.0"],
    [1570182,"2026-08-30 12:10:00","22892","2.908","170.8","5.455","170.9","1016.789","28.23","67.46","NAN","0.0"],
    [1570183,"2026-08-30 12:20:00","22893","2.785","184.3","4.9","178.3","1016.742","28.61","63.13","NAN","0.0"],
    [1570184,"2026-08-30 12:30:00","22894","2.62","179.4","4.345","172.7","1016.6389999999999","28.98","59.77","NAN","0.0"],
    [1570185,"2026-08-30 12:40:00","22895","2.549","185.7","4.573","175.7","1016.574","28.98","60.11","NAN","0.0"],
    [1570186,"2026-08-30 12:50:00","22896","3.0260000000000002","179.8","4.835","174.2","1016.477","28.72","60.77","NAN","0.0"],
    [1570187,"2026-08-30 13:00:00","22897","2.7030000000000003","184.5","4.867","173.3","1016.38","28.88","59.98","NAN","0.0"],
    [1570188,"2026-08-30 13:10:00","22898","3.0","184.5","5.4879999999999995","164.4","1016.2919999999999","28.95","58.46","NAN","0.0"],
    [1570189,"2026-08-30 13:20:00","22899","3.0269999999999997","189.2","5.684","185.0","1016.2080000000001","28.91","57.92","NAN","0.0"],
    [1570190,"2026-08-30 13:30:00","22900","2.7769999999999997","184.7","5.129","148.9","1016.133","29.4","55.98","NAN","0.0"],
    [1570191,"2026-08-30 13:40:00","22901","2.7939999999999996","185.9","5.945","155.5","1016.076","29.31","57.24","NAN","0.0"],
    [1570192,"2026-08-30 13:50:00","22902","2.767","190.9","5.129","166.8","1016.015","29.65","54.36","NAN","0.0"],
    [1570193,"2026-08-30 14:00:00","22903","2.4819999999999998","196.4","5.063","208.0","1015.8889999999999","29.75","52.92","NAN","0.0"],
    [1570194,"2026-08-30 14:10:00","22904","2.738","195.2","4.802","214.6","1015.791","29.93","51.96","NAN","0.0"],
    [1570195,"2026-08-30 14:20:00","22905","3.133","188.8","6.7620000000000005","188.7","1015.68","29.44","54.58","NAN","0.0"],
    [1570196,"2026-08-30 14:30:00","22906","2.1519999999999997","199.5","4.41","182.9","1015.6139999999999","29.72","54.64","NAN","0.0"],
    [1570197,"2026-08-30 14:40:00","22907","2.907","203.9","5.7170000000000005","211.7","1015.4780000000001","29.9","51.53","NAN","0.0"],
    [1570198,"2026-08-30 14:50:00","22908","2.971","193.3","5.521","210.5","1015.372","29.54","53.03","NAN","0.0"],
    [1570199,"2026-08-30 15:00:00","22909","2.9619999999999997","195.9","5.39","198.2","1015.345","29.39","53.1","NAN","0.0"],
    [1570200,"2026-08-30 15:10:00","22910","2.544","195.1","5.031000000000001","203.7","1015.326","29.37","54.79","NAN","0.0"],
    [1570201,"2026-08-30 15:20:00","22911","2.937","190.5","6.5329999999999995","179.9","1015.2660000000001","29.35","53.84","NAN","0.0"],
    [1570202,"2026-08-30 15:30:00","22912","2.331","195.4","4.475","197.4","1015.17","29.38","52.99","NAN","0.0"],
    [1570203,"2026-08-30 15:40:00","22913","2.474","205.4","6.468","198.7","1015.177","29.88","50.1","NAN","0.0"],
    [1570204,"2026-08-30 15:50:00","22914","2.205","196.7","4.998","197.4","1015.09","29.77","51.04","NAN","0.0"],
    [1570205,"2026-08-30 16:00:00","22915","2.241","192.5","4.508","195.4","1015.0210000000001","29.34","53.05","NAN","0.0"],
    [1570206,"2026-08-30 16:10:00","22916","2.719","200.9","5.4879999999999995","196.8","1014.943","29.61","49.15","NAN","0.0"],
    [1570207,"2026-08-30 16:20:00","22917","2.773","204.5","6.272","229.6","1014.93","29.6","50.49","NAN","0.0"],
    [1570208,"2026-08-30 16:30:00","22918","2.427","201.7","5.1610000000000005","202.1","1014.903","29.46","47.98","NAN","0.0"],
    [1570209,"2026-08-30 16:40:00","22919","2.272","201.9","5.521","207.5","1014.92","29.55","48.97","NAN","0.0"],
    [1570210,"2026-08-30 16:50:00","22920","2.0980000000000003","208.3","5.815","238.6","1014.932","29.44","51.56","NAN","0.0"],
    [1570211,"2026-08-30 17:00:00","22921","1.936","224.9","4.965","228.6","1014.921","29.41","50.79","NAN","0.0"],
    [1570212,"2026-08-30 17:10:00","22922","2.1430000000000002","221.3","5.096","225.3","1014.834","29.29","49.73","NAN","0.0"],
    [1570213,"2026-08-30 17:20:00","22923","2.08","221.7","4.704","254.9","1014.878","29.27","50.7","NAN","0.0"],
    [1570214,"2026-08-30 17:30:00","22924","1.3","222.9","3.43","226.3","1014.8960000000001","29.32","53.15","NAN","0.0"],
    [1570215,"2026-08-30 17:40:00","22925","1.994","237.1","4.671","257.3","1014.8530000000001","29.01","53.02","NAN","0.0"],
    [1570216,"2026-08-30 17:50:00","22926","1.097","213.2","3.43","183.5","1014.8639999999999","28.52","57.05","NAN","0.0"],
    [1570217,"2026-08-30 18:00:00","22927","1.774","216.5","4.4430000000000005","239.0","1014.898","28.12","59.23","NAN","0.0"],
    [1570218,"2026-08-30 18:10:00","22928","1.163","211.2","3.267","236.2","1014.933","27.87","61.83","NAN","0.0"],
    [1570219,"2026-08-30 18:20:00","22929","2.052","216.0","4.541","237.4","1014.993","27.64","61.21","NAN","0.0"],
    [1570220,"2026-08-30 18:30:00","22930","1.5190000000000001","223.4","3.985","207.7","1014.9730000000001","27.62","58.2","NAN","0.0"],
    [1570221,"2026-08-30 18:40:00","22931","1.6159999999999999","224.3","3.7569999999999997","237.4","1014.913","27.58","59.04","NAN","0.0"],
    [1570222,"2026-08-30 18:50:00","22932","1.153","210.9","3.071","231.9","1015.013","27.4","59.53","NAN","0.0"],
    [1570223,"2026-08-30 19:00:00","22933","1.162","216.2","3.234","217.0","1015.13","27.15","60.34","NAN","0.0"],
    [1570224,"2026-08-30 19:10:00","22934","1.617","220.7","4.181","222.4","1015.284","27.14","61.37","NAN","0.0"],
    [1570225,"2026-08-30 19:20:00","22935","0.87","226.2","3.1689999999999996","244.2","1015.4069999999999","27.08","63.5","NAN","0.0"],
    [1570226,"2026-08-30 19:30:00","22936","0.885","229.8","2.0909999999999997","255.2","1015.556","27.12","63.1","NAN","0.0"],
    [1570227,"2026-08-30 19:40:00","22937","1.218","219.4","2.875","238.4","1015.7130000000001","26.93","62.04","NAN","0.0"],
    [1570228,"2026-08-30 19:50:00","22938","0.991","223.7","2.515","224.5","1015.758","26.83","62.17","NAN","0.0"],
    [1570229,"2026-08-30 20:00:00","22939","1.4769999999999999","225.8","3.267","192.9","1015.748","26.68","62.16","NAN","0.0"],
    [1570230,"2026-08-30 20:10:00","22940","1.671","225.7","3.495","231.2","1015.835","26.71","61.6","NAN","0.0"],
    [1570231,"2026-08-30 20:20:00","22941","1.031","221.2","3.071","210.2","1015.837","26.66","61.35","NAN","0.0"],
    [1570232,"2026-08-30 20:30:00","22942","0.917","209.1","2.0909999999999997","204.8","1015.8430000000001","26.57","61.5","NAN","0.0"],
    [1570233,"2026-08-30 20:40:00","22943","1.371","215.9","3.1689999999999996","220.3","1015.954","26.41","61.27","NAN","0.0"],
    [1570234,"2026-08-30 20:50:00","22944","0.574","214.2","1.633","193.7","1016.0139999999999","26.38","61.52","NAN","0.0"],
    [1570235,"2026-08-30 21:00:00","22945","0.878","212.2","2.025","222.2","1016.076","26.18","62.41","NAN","0.0"],
    [1570236,"2026-08-30 21:10:00","22946","0.972","212.7","2.8089999999999997","204.4","1015.972","26.25","62.3","NAN","0.0"],
    [1570237,"2026-08-30 21:20:00","22947","1.32","207.2","2.679","226.1","1016.0039999999999","26.06","64.46","NAN","0.0"],
    [1570238,"2026-08-30 21:30:00","22948","0.946","214.4","2.385","218.8","1016.079","26","64.78","NAN","0.0"],
    [1570239,"2026-08-30 21:40:00","22949","1.008","215.1","1.9269999999999998","196.2","1016.086","25.88","66.15","NAN","0.0"],
    [1570240,"2026-08-30 21:50:00","22950","1.119","208.6","2.025","202.1","1016.181","25.85","66.34","NAN","0.0"],
    [1570241,"2026-08-30 22:00:00","22951","0.799","212.7","1.5030000000000001","196.5","1016.306","25.76","67.21","NAN","0.0"],
    [1570242,"2026-08-30 22:10:00","22952","0.924","217.0","1.633","220.2","1016.336","25.62","66.96","NAN","0.0"],
    [1570243,"2026-08-30 22:20:00","22953","0.74","227.2","1.797","220.3","1016.336","25.75","65.41","NAN","0.0"],
    [1570244,"2026-08-30 22:30:00","22954","0.777","242.3","2.548","268.9","1016.335","26.2","62.7","NAN","0.0"],
    [1570245,"2026-08-30 22:40:00","22955","0.934","239.6","2.221","237.3","1016.2689999999999","26.18","61.32","NAN","0.0"],
    [1570246,"2026-08-30 22:50:00","22956","0.6859999999999999","217.7","1.797","227.5","1016.336","26.14","61.12","NAN","0.0"],
    [1570247,"2026-08-30 23:00:00","22957","0.47","220.2","1.4369999999999998","282.8","1016.336","25.55","61.33","NAN","0.0"],
    [1570248,"2026-08-30 23:10:00","22958","0.61","239.5","1.993","225.2","1016.336","25.82","57.68","NAN","0.0"],
    [1570249,"2026-08-30 23:20:00","22959","0.792","235.4","2.123","241.8","1016.3510000000001","26.12","56.21","NAN","0.0"],
    [1570250,"2026-08-30 23:30:00","22960","0.63","203.3","1.307","240.8","1016.3430000000001","25.94","57.57","NAN","0.0"],
    [1570251,"2026-08-30 23:40:00","22961","0.727","181.1","1.4369999999999998","202.6","1016.373","25.43","60.54","NAN","0.0"],
    [1570252,"2026-08-30 23:50:00","22962","0.927","201.4","1.5030000000000001","192.0","1016.4010000000001","25.24","60.58","NAN","0.0"],
    [1570253,"2026-08-31 00:00:00","22963","0.7909999999999999","221.5","1.895","211.7","1016.346","25.34","59.28","NAN","0.0"],
    [1570254,"2026-08-31 00:10:00","22964","0.581","200.3","1.568","199.3","1016.388","25.58","60.3","NAN","0.0"],
    [1570255,"2026-08-31 00:20:00","22965","0.33","203.9","0.915","203.6","1016.3530000000001","25.2","62.2","NAN","0.0"],
    [1570256,"2026-08-31 00:30:00","22966","0.281","180.0","0.8490000000000001","195.5","1016.4630000000001","25.11","62.58","NAN","0.0"],
    [1570257,"2026-08-31 00:40:00","22967","0.174","163.0","0.98","151.7","1016.47","25.13","62.01","NAN","0.0"],
    [1570258,"2026-08-31 00:50:00","22968","1.064","247.3","2.287","251.5","1016.4680000000001","25.38","61.23","NAN","0.0"],
    [1570259,"2026-08-31 01:00:00","22969","1.255","241.8","3.005","239.1","1016.47","25.56","60.27","NAN","0.0"],
    [1570260,"2026-08-31 01:10:00","22970","0.7120000000000001","250.7","1.699","242.1","1016.4780000000001","25.57","59.46","NAN","0.0"],
    [1570261,"2026-08-31 01:20:00","22971","0.628","242.2","2.123","233.6","1016.565","25.59","59.37","NAN","0.0"],
    [1570262,"2026-08-31 01:30:00","22972","0.574","237.4","2.025","243.1","1016.587","25.44","60.26","NAN","0.0"],
    [1570263,"2026-08-31 01:40:00","22973","0.868","239.8","1.96","246.0","1016.592","25.41","60.75","NAN","0.0"],
    [1570264,"2026-08-31 01:50:00","22974","0.701","247.1","1.699","251.2","1016.585","25.46","60.59","NAN","0.0"],
    [1570265,"2026-08-31 02:00:00","22975","0.765","246.7","2.123","249.5","1016.587","25.46","60.82","NAN","0.0"],
    [1570266,"2026-08-31 02:10:00","22976","0.498","246.4","1.4369999999999998","302.1","1016.6619999999999","25.45","61.52","NAN","0.0"],
    [1570267,"2026-08-31 02:20:00","22977","0.456","240.4","1.111","244.4","1016.692","25.37","62.52","NAN","0.0"],
    [1570268,"2026-08-31 02:30:00","22978","0.5329999999999999","207.6","1.209","233.2","1016.605","25.26","63.82","NAN","0.0"],
    [1570269,"2026-08-31 02:40:00","22979","0.256","126.1","0.653","104.3","1016.697","25.05","65.54","NAN","0.0"],
    [1570270,"2026-08-31 02:50:00","22980","0.26899999999999996","64.88","0.882","44.97","1016.737","24.64","65.78","NAN","0.0"],
    [1570271,"2026-08-31 03:00:00","22981","0.11699999999999999","53.83","0.7190000000000001","72.78","1016.794","24.54","64.93","NAN","0.0"],
    [1570272,"2026-08-31 03:10:00","22982","0.363","22.91","1.045","26.26","1016.821","24.48","64.26","NAN","0.0"],
    [1570273,"2026-08-31 03:20:00","22983","0.34","23.33","1.013","38.39","1016.809","24.4","64.15","NAN","0.0"],
    [1570274,"2026-08-31 03:30:00","22984","0.319","32.26","0.882","34.8","1016.7769999999999","24.28","63.97","NAN","0.0"],
    [1570275,"2026-08-31 03:40:00","22985","0.073","13.45","0.555","19.69","1016.834","24.27","63.8","NAN","0.0"],
    [1570276,"2026-08-31 03:50:00","22986","0.066","83.1","0.49","110.5","1016.826","24.32","62.64","NAN","0.0"],
    [1570277,"2026-08-31 04:00:00","22987","0.38799999999999996","56.54","1.045","77.84","1016.834","24.33","61.92","NAN","0.0"],
    [1570278,"2026-08-31 04:10:00","22988","0.17800000000000002","72.15","0.621","82.5","1016.819","24.35","61.81","NAN","0.0"],
    [1570279,"2026-08-31 04:20:00","22989","0.0","0.0","0.0","0.0","1016.797","24.25","62.33","NAN","0.0"],
    [1570280,"2026-08-31 04:30:00","22990","0.098","8.92","0.6859999999999999","14.81","1016.806","24.18","62.6","NAN","0.0"],
    [1570281,"2026-08-31 04:40:00","22991","0.0","0.0","0.0","0.0","1016.824","24.09","62.89","NAN","0.0"],
    [1570282,"2026-08-31 04:50:00","22992","0.0","313.0","0.098","313.0","1016.834","24.21","63.55","NAN","0.0"],
    [1570283,"2026-08-31 05:00:00","22993","0.204","31.01","0.8170000000000001","10.46","1016.836","24.11","61.76","NAN","0.0"],
    [1570284,"2026-08-31 05:10:00","22994","0.155","17.97","0.8490000000000001","340.3","1016.8389999999999","24.11","59.55","NAN","0.0"],
    [1570285,"2026-08-31 05:20:00","22995","0.193","53.24","0.653","61.82","1016.9639999999999","23.94","59.58","NAN","0.0"],
    [1570286,"2026-08-31 05:30:00","22996","0.591","26.96","1.5030000000000001","38.82","1017.086","23.89","59.7","NAN","0.0"],
    [1570287,"2026-08-31 05:40:00","22997","0.7829999999999999","23.2","1.405","15.56","1017.178","24.02","59.01","NAN","0.0"],
    [1570288,"2026-08-31 05:50:00","22998","0.496","27.39","1.111","38.05","1017.293","24.15","58.14","NAN","0.0"],
    [1570289,"2026-08-31 06:00:00","22999","0.809","32.26","1.666","7.771","1017.355","24.35","57.24","NAN","0.0"],
    [1570290,"2026-08-31 06:10:00","23000","0.872","102.6","1.4369999999999998","112.7","1017.564","24.55","57.37","NAN","0.0"],
    [1570291,"2026-08-31 06:20:00","23001","0.171","105.8","0.7190000000000001","108.3","1017.7339999999999","24.97","56.64","NAN","0.0"],
    [1570292,"2026-08-31 06:30:00","23002","0.509","125.5","1.013","141.1","1017.8530000000001","25.2","60.87","NAN","0.0"],
    [1570293,"2026-08-31 06:40:00","23003","0.551","129.1","0.882","137.3","1018.038","25.17","62.66","NAN","0.0"],
    [1570294,"2026-08-31 06:50:00","23004","0.513","126.0","1.013","117.1","1018.082","25.32","62.93","NAN","0.0"],
    [1570295,"2026-08-31 07:00:00","23005","0.504","118.6","0.915","115.1","1018.17","25.77","60.13","NAN","0.0"],
    [1570296,"2026-08-31 07:10:00","23006","0.513","137.6","1.2409999999999999","158.5","1018.297","26.25","59.37","NAN","0.0"],
    [1570297,"2026-08-31 07:20:00","23007","0.7609999999999999","141.9","1.274","119.6","1018.305","25.95","62.41","NAN","0.0"],
    [1570298,"2026-08-31 07:30:00","23008","0.524","136.3","0.9470000000000001","116.9","1018.295","26.44","60.47","NAN","0.0"],
    [1570299,"2026-08-31 07:40:00","23009","0.5579999999999999","109.7","1.078","141.6","1018.3530000000001","26.81","59.24","NAN","0.0"],
    [1570300,"2026-08-31 07:50:00","23010","1.831","114.9","3.7569999999999997","111.8","1018.404","27.14","56.54","NAN","0.0"],
    [1570301,"2026-08-31 08:00:00","23011","1.58","104.5","3.201","102.9","1018.4860000000001","27","57.18","NAN","0.0"],
    [1570302,"2026-08-31 08:10:00","23012","2.164","104.3","3.136","112.5","1018.586","26.86","58.8","NAN","0.0"],
    [1570303,"2026-08-31 08:20:00","23013","2.7510000000000003","91.2","4.345","93.0","1018.73","26.8","58.34","NAN","0.0"],
    [1570304,"2026-08-31 08:30:00","23014","1.9980000000000002","91.9","3.234","107.5","1018.7769999999999","26.94","59.49","NAN","0.0"],
    [1570305,"2026-08-31 08:40:00","23015","2.279","94.1","3.7239999999999998","86.3","1018.823","27.03","59.79","NAN","0.0"],
    [1570306,"2026-08-31 08:50:00","23016","1.607","115.0","2.679","101.0","1018.8960000000001","27.31","59.97","NAN","0.0"],
    [1570307,"2026-08-31 09:00:00","23017","2.0580000000000003","115.5","3.463","102.1","1019.025","26.95","61.5","NAN","0.0"],
    [1570308,"2026-08-31 09:10:00","23018","1.8840000000000001","111.4","3.7239999999999998","114.6","1019.039","27.07","61.77","NAN","0.0"],
    [1570309,"2026-08-31 09:20:00","23019","2.315","110.1","4.051","101.3","1019.102","27.03","62.77","NAN","0.0"],
    [1570310,"2026-08-31 09:30:00","23020","2.575","106.6","4.475","109.5","1019.125","26.96","64.39","NAN","0.0"],
    [1570311,"2026-08-31 09:40:00","23021","2.406","103.3","3.985","109.4","1019.07","27.13","65.91","NAN","0.0"],
    [1570312,"2026-08-31 09:50:00","23022","2.101","101.5","3.822","104.4","1019.0369999999999","27.23","67.44","NAN","0.0"],
    [1570313,"2026-08-31 10:00:00","23023","2.19","116.0","3.332","104.7","1019.065","27.67","67.14","NAN","0.0"],
    [1570314,"2026-08-31 10:10:00","23024","2.379","114.9","3.6910000000000003","115.3","1019.058","27.41","68.54","NAN","0.0"],
    [1570315,"2026-08-31 10:20:00","23025","2.659","114.6","4.051","103.7","1019.05","27.49","68.72","NAN","0.0"],
    [1570316,"2026-08-31 10:30:00","23026","2.427","127.7","3.985","139.1","1019.087","27.08","70.56","NAN","0.0"],
    [1570317,"2026-08-31 10:40:00","23027","2.8","122.9","4.508","108.8","1019.128","26.97","71.77","NAN","0.0"],
    [1570318,"2026-08-31 10:50:00","23028","2.253","121.5","3.593","108.8","1019.174","27.56","71","NAN","0.0"],
    [1570319,"2026-08-31 11:00:00","23029","2.302","129.6","3.7889999999999997","126.3","1019.18","27.45","72.18","NAN","0.0"],
    [1570320,"2026-08-31 11:10:00","23030","2.35","128.2","3.5610000000000004","111.1","1019.122","27.38","72.13","NAN","0.0"],
    [1570321,"2026-08-31 11:20:00","23031","2.559","128.6","3.659","131.3","1019.073","27.15","73.32","NAN","0.0"],
    [1570322,"2026-08-31 11:30:00","23032","2.645","121.8","4.181","105.6","1019.07","27.38","73.16","NAN","0.0"],
    [1570323,"2026-08-31 11:40:00","23033","2.001","140.8","3.6260000000000003","163.1","1019.07","27.89","71.69","NAN","0.0"],
    [1570324,"2026-08-31 11:50:00","23034","2.5780000000000003","158.1","4.541","161.4","1019.066","27.76","72.21","NAN","0.0"],
    [1570325,"2026-08-31 12:00:00","23035","2.299","147.1","3.887","159.2","1019.071","27.69","73.71","NAN","0.0"],
    [1570326,"2026-08-31 12:10:00","23036","2.186","142.2","3.5610000000000004","144.7","1018.977","28.06","72.84","NAN","0.0"],
    [1570327,"2026-08-31 12:20:00","23037","2.274","127.7","3.299","142.4","1018.8530000000001","27.59","74.89","NAN","0.0"],
    [1570328,"2026-08-31 12:30:00","23038","1.9880000000000002","126.8","3.299","143.1","1018.821","27.89","74.75","NAN","0.0"],
    [1570329,"2026-08-31 12:40:00","23039","2.225","122.0","3.5610000000000004","111.0","1018.811","28.04","74.37","NAN","0.0"],
    [1570330,"2026-08-31 12:50:00","23040","2.533","128.8","3.822","99.5","1018.818","28.01","72.28","NAN","0.0"],
    [1570331,"2026-08-31 13:00:00","23041","2.895","134.5","4.606","111.8","1018.735","28.47","66.98","NAN","0.0"],
    [1570332,"2026-08-31 13:10:00","23042","2.55","140.9","3.9530000000000003","140.9","1018.685","28.77","65.43","NAN","0.0"],
    [1570333,"2026-08-31 13:20:00","23043","2.772","181.0","4.802","179.4","1018.7810000000001","28.64","65.75","NAN","0.0"],
    [1570334,"2026-08-31 13:30:00","23044","3.0180000000000002","182.8","5.39","180.2","1018.7719999999999","28.71","65.23","NAN","0.0"],
    [1570335,"2026-08-31 13:40:00","23045","3.6689999999999996","177.6","5.945","173.6","1018.677","28.27","66.62","NAN","0.0"],
    [1570336,"2026-08-31 13:50:00","23046","3.575","179.3","5.553","181.1","1018.6260000000001","28.07","67.92","NAN","0.0"],
    [1570337,"2026-08-31 14:00:00","23047","3.85","176.7","5.978","167.2","1018.628","27.96","68.19","NAN","0.0"],
    [1570338,"2026-08-31 14:10:00","23048","4.003","177.2","5.847","181.3","1018.692","27.89","68.69","NAN","0.0"],
    [1570339,"2026-08-31 14:20:00","23049","3.8369999999999997","175.5","5.7170000000000005","180.8","1018.6060000000001","27.99","68.49","NAN","0.0"],
    [1570340,"2026-08-31 14:30:00","23050","3.467","178.0","5.749","171.5","1018.563","27.94","69.27","NAN","0.0"],
    [1570341,"2026-08-31 14:40:00","23051","2.7510000000000003","180.2","4.475","192.6","1018.447","28.5","66.13","NAN","0.0"],
    [1570342,"2026-08-31 14:50:00","23052","3.823","175.9","5.978","168.2","1018.442","28.09","67.19","NAN","0.0"],
    [1570343,"2026-08-31 15:00:00","23053","2.997","178.4","5.1610000000000005","174.9","1018.487","28.06","65.79","NAN","0.0"],
    [1570344,"2026-08-31 15:10:00","23054","2.765","173.6","4.345","172.4","1018.557","28.09","64.94","NAN","0.0"],
    [1570345,"2026-08-31 15:20:00","23055","2.763","181.9","5.031000000000001","178.1","1018.55","28.06","64.3","NAN","0.0"],
    [1570346,"2026-08-31 15:30:00","23056","2.846","180.1","4.802","171.6","1018.557","28.06","64.06","NAN","0.0"],
    [1570347,"2026-08-31 15:40:00","23057","2.6719999999999997","185.2","5.063","170.6","1018.4739999999999","27.99","64.56","NAN","0.0"],
    [1570348,"2026-08-31 15:50:00","23058","2.781","180.2","4.606","177.7","1018.488","27.72","67.14","NAN","0.0"],
    [1570349,"2026-08-31 16:00:00","23059","2.7510000000000003","177.7","5.031000000000001","164.8","1018.462","27.72","68.02","NAN","0.0"],
    [1570350,"2026-08-31 16:10:00","23060","2.8760000000000003","179.4","4.737","181.0","1018.438","27.45","68.65","NAN","0.0"],
    [1570351,"2026-08-31 16:20:00","23061","2.401","190.2","4.769","185.2","1018.337","27.49","68.14","NAN","0.0"],
    [1570352,"2026-08-31 16:30:00","23062","2.226","187.9","4.051","200.9","1018.323","27.48","68","NAN","0.0"],
    [1570353,"2026-08-31 16:40:00","23063","2.226","180.7","4.083","178.9","1018.307","27.46","67.1","NAN","0.0"],
    [1570354,"2026-08-31 16:50:00","23064","2.383","176.4","4.2139999999999995","182.8","1018.293","27.23","67.24","NAN","0.0"],
    [1570355,"2026-08-31 17:00:00","23065","2.066","178.8","3.659","172.8","1018.197","27.09","67.7","NAN","0.0"],
    [1570356,"2026-08-31 17:10:00","23066","2.2769999999999997","171.8","3.9530000000000003","180.2","1018.1289999999999","26.99","68.77","NAN","0.0"],
    [1570357,"2026-08-31 17:20:00","23067","1.76","182.1","3.332","177.2","1018.1519999999999","26.98","68.62","NAN","0.0"],
    [1570358,"2026-08-31 17:30:00","23068","2.033","175.5","3.593","185.2","1018.08","27.05","68.56","NAN","0.0"],
    [1570359,"2026-08-31 17:40:00","23069","2.184","179.9","3.6260000000000003","176.9","1018.08","26.81","68.96","NAN","0.0"],
    [1570360,"2026-08-31 17:50:00","23070","2.193","177.4","3.136","183.5","1018.082","26.77","69.36","NAN","0.0"],
    [1570361,"2026-08-31 18:00:00","23071","2.039","176.4","3.7889999999999997","179.4","1018.08","26.69","70.1","NAN","0.0"],
    [1570362,"2026-08-31 18:10:00","23072","1.824","181.1","3.397","183.1","1018.14","26.55","71.23","NAN","0.0"],
    [1570363,"2026-08-31 18:20:00","23073","1.575","176.5","2.483","181.9","1018.284","26.6","71.64","NAN","0.0"],
    [1570364,"2026-08-31 18:30:00","23074","1.9380000000000002","179.3","2.94","170.8","1018.299","26.48","73.13","NAN","0.0"],
    [1570365,"2026-08-31 18:40:00","23075","1.6059999999999999","177.3","2.417","177.1","1018.329","26.35","75.25","NAN","0.0"],
    [1570366,"2026-08-31 18:50:00","23076","1.505","176.3","2.7769999999999997","179.4","1018.3789999999999","26.31","75.21","NAN","0.0"],
    [1570367,"2026-08-31 19:00:00","23077","1.33","168.7","2.319","178.3","1018.513","26.31","75.87","NAN","0.0"],
    [1570368,"2026-08-31 19:10:00","23078","1.245","140.9","2.319","138.9","1018.671","26.35","75.5","NAN","0.0"],
    [1570369,"2026-08-31 19:20:00","23079","1.422","144.2","2.7769999999999997","139.7","1018.802","26.16","76.7","NAN","0.0"],
    [1570370,"2026-08-31 19:30:00","23080","1.588","132.3","2.548","133.1","1018.9019999999999","26.05","77.91","NAN","0.0"],
    [1570371,"2026-08-31 19:40:00","23081","1.736","129.2","3.234","145.5","1019.102","25.93","78.48","NAN","0.0"],
    [1570372,"2026-08-31 19:50:00","23082","1.768","129.6","2.7439999999999998","114.0","1019.248","25.91","79.22","NAN","0.0"],
    [1570373,"2026-08-31 20:00:00","23083","1.546","126.3","2.613","117.4","1019.323","25.89","78.23","NAN","0.0"],
    [1570374,"2026-08-31 20:10:00","23084","1.347","130.6","2.7439999999999998","143.4","1019.3580000000001","25.93","77.67","NAN","0.0"],
    [1570375,"2026-08-31 20:20:00","23085","1.072","117.4","2.319","157.8","1019.4830000000001","26","78.75","NAN","0.0"],
    [1570376,"2026-08-31 20:30:00","23086","1.0859999999999999","113.4","2.287","118.3","1019.597","26","80.1","NAN","0.0"],
    [1570377,"2026-08-31 20:40:00","23087","1.39","112.5","2.483","116.5","1019.709","25.96","78.54","NAN","0.0"],
    [1570378,"2026-08-31 20:50:00","23088","1.359","131.3","2.287","143.9","1019.822","25.89","78.08","NAN","0.0"],
    [1570379,"2026-08-31 21:00:00","23089","1.121","117.4","2.0580000000000003","159.1","1019.824","25.85","79.25","NAN","0.0"],
    [1570380,"2026-08-31 21:10:00","23090","1.087","112.4","1.9269999999999998","105.5","1019.829","25.93","78.01","NAN","0.0"],
    [1570381,"2026-08-31 21:20:00","23091","0.8390000000000001","132.8","1.535","136.5","1019.924","25.93","77.86","NAN","0.0"],
    [1570382,"2026-08-31 21:30:00","23092","0.925","137.8","1.601","117.7","1019.9689999999999","25.81","78.75","NAN","0.0"],
    [1570383,"2026-08-31 21:40:00","23093","0.711","125.7","1.5030000000000001","144.0","1019.951","25.79","78.44","NAN","0.0"],
    [1570384,"2026-08-31 21:50:00","23094","0.46","124.7","1.535","108.5","1020.043","25.88","76.87","NAN","0.0"],
    [1570385,"2026-08-31 22:00:00","23095","0.222","122.9","0.784","129.8","1020.08","25.92","75.42","NAN","0.0"],
    [1570386,"2026-08-31 22:10:00","23096","0.445","104.0","1.3719999999999999","102.5","1020.073","25.89","74.68","NAN","0.0"],
    [1570387,"2026-08-31 22:20:00","23097","0.321","74.28","1.4369999999999998","73.82","1020.085","26","73.37","NAN","0.0"],
    [1570388,"2026-08-31 22:30:00","23098","0.16899999999999998","110.7","0.588","122.2","1020.08","25.9","73.6","NAN","0.0"],
    [1570389,"2026-08-31 22:40:00","23099","0.289","79.9","1.045","79.15","1020.118","26","73.09","NAN","0.0"],
    [1570390,"2026-08-31 22:50:00","23100","0.248","79.51","1.045","82.7","1020.2","26.09","72.64","NAN","0.0"],
    [1570391,"2026-08-31 23:00:00","23101","0.107","105.3","1.013","108.9","1020.307","25.98","72.78","NAN","0.0"],
    [1570392,"2026-08-31 23:10:00","23102","0.0","0.0","0.0","0.0","1020.197","26","73.04","NAN","0.0"],
    [1570393,"2026-08-31 23:20:00","23103","0.0","0.0","0.0","0.0","1020.2","25.91","72.48","NAN","0.0"],
    [1570394,"2026-08-31 23:30:00","23104","0.091","150.1","0.457","147.5","1020.205","25.67","74.04","NAN","0.0"],
    [1570395,"2026-08-31 23:40:00","23105","0.309","191.1","0.98","199.1","1020.302","25.52","75.05","NAN","0.0"],
    [1570396,"2026-08-31 23:50:00","23106","0.556","208.8","0.8490000000000001","202.8","1020.322","25.38","75.4","NAN","0.0"],
    [1570397,"2026-09-01 00:00:00","23107","0.23","215.0","0.784","219.3","1020.322","25.37","72.36","NAN","0.0"],
    [1570398,"2026-09-01 00:10:00","23108","0.19","183.8","0.653","187.3","1020.322","25.69","72.63","NAN","0.0"],
    [1570399,"2026-09-01 00:20:00","23109","0.37200000000000005","195.3","0.7190000000000001","176.5","1020.322","25.53","71.44","NAN","0.0"],
    [1570400,"2026-09-01 00:30:00","23110","0.222","185.7","0.621","178.7","1020.319","25.58","71.62","NAN","0.0"],
    [1570401,"2026-09-01 00:40:00","23111","0.5479999999999999","192.4","1.013","181.9","1020.237","25.56","72.58","NAN","0.0"],
    [1570402,"2026-09-01 00:50:00","23112","0.529","202.3","1.209","240.2","1020.2080000000001","25.54","72.67","NAN","0.0"],
    [1570403,"2026-09-01 01:00:00","23113","0.657","247.0","1.47","257.2","1020.177","25.75","70.7","NAN","0.0"],
    [1570404,"2026-09-01 01:10:00","23114","0.369","219.5","1.078","251.0","1020.1210000000001","25.93","69.99","NAN","0.0"],
    [1570405,"2026-09-01 01:20:00","23115","0.503","240.6","1.829","274.2","1020.105","25.92","70.26","NAN","0.0"],
    [1570406,"2026-09-01 01:30:00","23116","0.594","235.1","1.699","233.1","1020.068","25.95","70.36","NAN","0.0"],
    [1570407,"2026-09-01 01:40:00","23117","0.474","235.9","1.8619999999999999","221.7","1020.005","25.88","70.8","NAN","0.0"],
    [1570408,"2026-09-01 01:50:00","23118","0.526","203.5","1.764","242.8","1020.046","25.67","73.27","NAN","0.0"],
    [1570409,"2026-09-01 02:00:00","23119","0.5660000000000001","227.6","1.307","247.2","1019.9810000000001","25.41","73.64","NAN","0.0"],
    [1570410,"2026-09-01 02:10:00","23120","0.735","267.5","1.699","262.3","1019.846","25.98","69.89","NAN","0.0"],
    [1570411,"2026-09-01 02:20:00","23121","0.44299999999999995","238.4","1.5030000000000001","259.2","1019.811","26.12","69.27","NAN","0.0"],
    [1570412,"2026-09-01 02:30:00","23122","0.42","260.8","1.601","249.3","1019.6439999999999","25.93","69.47","NAN","0.0"],
    [1570413,"2026-09-01 02:40:00","23123","0.244","255.6","1.7309999999999999","257.9","1019.54","25.93","69.58","NAN","0.0"],
    [1570414,"2026-09-01 02:50:00","23124","0.64","303.5","2.156","319.3","1019.49","26.09","68.51","NAN","0.0"],
    [1570415,"2026-09-01 03:00:00","23125","0.524","300.6","1.699","290.4","1019.437","26.13","68.04","NAN","0.0"],
    [1570416,"2026-09-01 03:10:00","23126","0.3","270.6","1.274","323.8","1019.34","26.09","68.06","NAN","0.0"],
    [1570417,"2026-09-01 03:20:00","23127","0.598","275.9","1.307","267.8","1019.328","26.07","67.6","NAN","0.0"],
    [1570418,"2026-09-01 03:30:00","23128","0.654","269.3","1.993","285.3","1019.32","26.15","66.9","NAN","0.0"],
    [1570419,"2026-09-01 03:40:00","23129","0.547","290.3","1.47","270.4","1019.285","26.17","65.93","NAN","0.0"],
    [1570420,"2026-09-01 03:50:00","23130","0.382","32.26","1.339","60.73","1019.2080000000001","25.69","69.3","NAN","0.0"],
    [1570421,"2026-09-01 04:00:00","23131","0.249","349.8","1.7309999999999999","320.2","1019.216","25.38","70.93","NAN","0.0"],
    [1570422,"2026-09-01 04:10:00","23132","0.65","279.3","1.633","258.5","1019.1310000000001","25.79","67.18","NAN","0.0"],
    [1570423,"2026-09-01 04:20:00","23133","0.7559999999999999","284.8","1.895","300.2","1019.076","26.26","64.39","NAN","0.0"],
    [1570424,"2026-09-01 04:30:00","23134","0.401","283.1","1.568","283.2","1019.076","26.29","63.94","NAN","0.0"],
    [1570425,"2026-09-01 04:40:00","23135","0.632","278.5","1.8619999999999999","278.6","1019.076","26.31","63.32","NAN","0.0"],
    [1570426,"2026-09-01 04:50:00","23136","0.662","280.1","1.797","274.8","1019.074","26.35","62.9","NAN","0.0"],
    [1570427,"2026-09-01 05:00:00","23137","1.061","282.2","2.287","284.7","1018.997","26.43","62.59","NAN","0.0"],
    [1570428,"2026-09-01 05:10:00","23138","0.6659999999999999","270.6","1.764","260.8","1019.0360000000001","26.43","62.99","NAN","0.0"],
    [1570429,"2026-09-01 05:20:00","23139","0.586","284.6","2.221","266.0","1019.044","26.38","63.48","NAN","0.0"],
    [1570430,"2026-09-01 05:30:00","23140","0.691","282.4","1.764","312.9","1019.0219999999999","26.3","64.15","NAN","0.0"],
    [1570431,"2026-09-01 05:40:00","23141","0.601","284.5","1.797","270.6","1019.029","26.37","64.34","NAN","0.0"],
    [1570432,"2026-09-01 05:50:00","23142","0.619","286.2","1.764","299.5","1019.074","26.5","64.27","NAN","0.0"],
    [1570433,"2026-09-01 06:00:00","23143","0.599","312.4","2.025","301.9","1019.1110000000001","26.54","64.24","NAN","0.0"],
    [1570434,"2026-09-01 06:10:00","23144","0.231","47.92","0.8490000000000001","80.3","1019.283","26.55","65.05","NAN","0.0"],
    [1570435,"2026-09-01 06:20:00","23145","0.17300000000000001","84.4","0.588","74.46","1019.318","26.54","66.04","NAN","0.0"],
    [1570436,"2026-09-01 06:30:00","23146","0.4","317.5","1.633","322.2","1019.328","26.91","64.25","NAN","0.0"],
    [1570437,"2026-09-01 06:40:00","23147","0.433","322.6","1.405","342.4","1019.325","27.39","61.94","NAN","0.0"],
    [1570438,"2026-09-01 06:50:00","23148","0.7559999999999999","336.7","2.254","296.9","1019.2610000000001","27.2","62.23","NAN","0.0"],
    [1570439,"2026-09-01 07:00:00","23149","0.7879999999999999","347.7","2.156","299.4","1019.091","27.4","61.17","NAN","0.0"],
    [1570440,"2026-09-01 07:10:00","23150","0.888","55.93","1.9269999999999998","56.32","1019.09","27.42","61.92","NAN","0.0"],
    [1570441,"2026-09-01 07:20:00","23151","1.379","53.79","2.515","63.79","1019.222","27.48","61.53","NAN","0.0"],
    [1570442,"2026-09-01 07:30:00","23152","1.1840000000000002","51.33","2.483","42.92","1019.2639999999999","27.7","59.65","NAN","0.0"],
    [1570443,"2026-09-01 07:40:00","23153","1.32","49.13","2.7110000000000003","40.23","1019.2410000000001","27.92","59.92","NAN","0.0"],
    [1570444,"2026-09-01 07:50:00","23154","1.368","47.5","2.8089999999999997","44.55","1019.195","27.97","59.23","NAN","0.0"],
    [1570445,"2026-09-01 08:00:00","23155","1.23","57.57","2.287","55.74","1019.24","28.25","56.58","NAN","0.0"],
    [1570446,"2026-09-01 08:10:00","23156","1.0979999999999999","99.9","1.829","87.4","1019.262","28.8","53.81","NAN","0.0"],
    [1570447,"2026-09-01 08:20:00","23157","0.919","84.7","2.189","77.97","1019.2689999999999","29.24","52.16","NAN","0.0"],
    [1570448,"2026-09-01 08:30:00","23158","1.037","106.9","2.7439999999999998","146.3","1019.385","29.14","52.09","NAN","0.0"],
    [1570449,"2026-09-01 08:40:00","23159","1.749","138.3","2.8089999999999997","120.6","1019.556","28.18","55.06","NAN","0.0"],
    [1570450,"2026-09-01 08:50:00","23160","1.901","123.0","3.005","108.1","1019.6439999999999","28.13","55.87","NAN","0.0"],
    [1570451,"2026-09-01 09:00:00","23161","1.824","133.0","2.7769999999999997","155.6","1019.755","27.85","57.86","NAN","0.0"],
    [1570452,"2026-09-01 09:10:00","23162","1.985","153.1","3.365","121.4","1019.926","27.95","59.38","NAN","0.0"],
    [1570453,"2026-09-01 09:20:00","23163","2.294","173.9","3.7889999999999997","180.1","1020.0830000000001","27.95","61.18","NAN","0.0"],
    [1570454,"2026-09-01 09:30:00","23164","2.475","178.6","4.508","183.5","1020.243","27.87","62.84","NAN","0.0"],
    [1570455,"2026-09-01 09:40:00","23165","3.0989999999999998","176.1","4.9","178.7","1020.342","27.38","66.29","NAN","0.0"],
    [1570456,"2026-09-01 09:50:00","23166","2.97","175.9","4.671","179.9","1020.421","27.23","68.98","NAN","0.0"],
    [1570457,"2026-09-01 10:00:00","23167","3.1889999999999996","177.2","4.802","182.1","1020.529","27.32","69.23","NAN","0.0"],
    [1570458,"2026-09-01 10:10:00","23168","3.008","173.8","4.835","185.4","1020.659","27.28","68.23","NAN","0.0"],
    [1570459,"2026-09-01 10:20:00","23169","3.3080000000000003","173.6","5.063","177.0","1020.5889999999999","27.58","65.71","NAN","0.0"],
    [1570460,"2026-09-01 10:30:00","23170","3.573","175.2","5.684","170.1","1020.6469999999999","27.47","66.66","NAN","0.0"],
    [1570461,"2026-09-01 10:40:00","23171","3.1510000000000002","175.2","5.422999999999999","156.8","1020.557","27.67","66.27","NAN","0.0"],
    [1570462,"2026-09-01 10:50:00","23172","3.8360000000000003","170.6","5.684","178.5","1020.436","27.52","66.37","NAN","0.0"],
    [1570463,"2026-09-01 11:00:00","23173","3.5439999999999996","170.8","5.4879999999999995","176.8","1020.437","27.61","66.85","NAN","0.0"],
    [1570464,"2026-09-01 11:10:00","23174","3.557","171.4","5.847","183.1","1020.4169999999999","27.74","66.39","NAN","0.0"],
    [1570465,"2026-09-01 11:20:00","23175","3.616","171.2","5.782","171.3","1020.329","27.43","66.91","NAN","0.0"],
    [1570466,"2026-09-01 11:30:00","23176","3.8810000000000002","171.7","6.337000000000001","177.4","1020.311","27.48","67.17","NAN","0.0"],
    [1570467,"2026-09-01 11:40:00","23177","4.093","173.5","6.109","180.2","1020.312","27.49","66.9","NAN","0.0"],
    [1570468,"2026-09-01 11:50:00","23178","4.021","172.3","5.945","171.7","1020.204","27.4","67.09","NAN","0.0"],
    [1570469,"2026-09-01 12:00:00","23179","4.22","175.3","5.945","187.3","1020.192","27.46","67.1","NAN","0.0"],
    [1570470,"2026-09-01 12:10:00","23180","3.7539999999999996","175.6","6.664","175.2","1020.13","27.63","66.66","NAN","0.0"],
    [1570471,"2026-09-01 12:20:00","23181","3.1660000000000004","176.3","5.292000000000001","161.0","1020.064","27.86","66.12","NAN","0.0"],
    [1570472,"2026-09-01 12:30:00","23182","3.378","173.2","5.815","175.0","1020.0189999999999","27.59","66.53","NAN","0.0"],
    [1570473,"2026-09-01 12:40:00","23183","3.9130000000000003","174.0","6.272","180.0","1019.823","27.05","68.29","NAN","0.0"],
    [1570474,"2026-09-01 12:50:00","23184","3.76","171.9","5.619","167.6","1019.7260000000001","27.45","66.06","NAN","0.0"],
    [1570475,"2026-09-01 13:00:00","23185","3.872","172.6","5.88","180.9","1019.679","27.32","64.47","NAN","0.0"],
    [1570476,"2026-09-01 13:10:00","23186","3.483","168.3","5.619","172.8","1019.581","27.36","64.01","NAN","0.0"],
    [1570477,"2026-09-01 13:20:00","23187","3.536","173.9","6.042999999999999","177.8","1019.414","27.1","65.78","NAN","0.0"],
    [1570478,"2026-09-01 13:30:00","23188","3.233","171.7","5.2589999999999995","172.4","1019.35","27.2","65.18","NAN","0.0"],
    [1570479,"2026-09-01 13:40:00","23189","2.9419999999999997","177.8","4.998","170.5","1019.28","27.38","65.27","NAN","0.0"],
    [1570480,"2026-09-01 13:50:00","23190","3.27","172.6","5.815","176.8","1019.13","27.02","68.64","NAN","0.0"],
    [1570481,"2026-09-01 14:00:00","23191","3.2880000000000003","174.6","5.096","174.4","1018.7769999999999","26.99","69.16","NAN","0.0"],
    [1570482,"2026-09-01 14:10:00","23192","2.6189999999999998","183.5","4.475","183.5","1018.8480000000001","26.87","70.92","NAN","0.0"],
    [1570483,"2026-09-01 14:20:00","23193","1.949","192.6","3.7889999999999997","177.6","1019.166","27.33","69.08","NAN","0.0"],
    [1570484,"2026-09-01 14:30:00","23194","2.991","172.6","4.867","171.5","1019.086","27.32","66.27","NAN","0.0"],
    [1570485,"2026-09-01 14:40:00","23195","2.396","180.9","4.737","180.6","1018.9960000000001","27.26","64.91","NAN","0.0"],
    [1570486,"2026-09-01 14:50:00","23196","2.099","193.3","3.822","179.2","1019.0139999999999","27.64","61.23","NAN","0.0"],
    [1570487,"2026-09-01 15:00:00","23197","2.057","200.1","4.965","193.9","1018.9939999999999","27.67","59.89","NAN","0.0"],
    [1570488,"2026-09-01 15:10:00","23198","1.739","191.1","3.299","171.6","1018.7","27.48","61.28","NAN","0.0"],
    [1570489,"2026-09-01 15:20:00","23199","1.615","195.7","3.365","168.8","1018.645","27.33","63.22","NAN","0.0"],
    [1570490,"2026-09-01 15:30:00","23200","1.423","200.2","3.855","175.3","1018.591","27.22","65.48","NAN","0.0"],
    [1570491,"2026-09-01 15:40:00","23201","1.7369999999999999","197.3","4.638999999999999","172.6","1018.704","27.68","64.15","NAN","0.0"],
    [1570492,"2026-09-01 15:50:00","23202","2.165","186.5","4.4430000000000005","168.2","1018.503","27.39","63.46","NAN","0.0"],
    [1570493,"2026-09-01 16:00:00","23203","1.6980000000000002","189.4","3.6910000000000003","169.2","1018.488","27.63","62.04","NAN","0.0"],
    [1570494,"2026-09-01 16:10:00","23204","2.089","188.0","3.9530000000000003","174.8","1018.453","27.57","61.06","NAN","0.0"],
    [1570495,"2026-09-01 16:20:00","23205","1.795","185.4","3.463","188.2","1018.3810000000001","27.27","61.64","NAN","0.0"],
    [1570496,"2026-09-01 16:30:00","23206","1.6130000000000002","184.1","3.267","178.2","1018.325","27.39","60.97","NAN","0.0"],
    [1570497,"2026-09-01 16:40:00","23207","1.296","194.5","2.94","166.7","1018.039","27.33","60.7","NAN","0.0"],
    [1570498,"2026-09-01 16:50:00","23208","1.288","217.7","2.6460000000000004","235.9","1018.063","27.53","59.69","NAN","0.0"],
    [1570499,"2026-09-01 17:00:00","23209","1.311","205.8","2.9730000000000003","211.8","1018.184","27.81","59.25","NAN","0.0"],
    [1570500,"2026-09-01 17:10:00","23210","1.561","204.1","3.397","206.9","1018.1389999999999","27.49","60.57","NAN","0.0"],
    [1570501,"2026-09-01 17:20:00","23211","1.244","212.3","3.43","233.6","1018.01","27.58","60.21","NAN","0.0"],
    [1570502,"2026-09-01 17:30:00","23212","1.7","230.6","3.5610000000000004","234.4","1017.8530000000001","27.61","59.55","NAN","0.0"],
    [1570503,"2026-09-01 17:40:00","23213","1.2690000000000001","221.7","3.103","236.5","1017.808","27.6","59.37","NAN","0.0"],
    [1570504,"2026-09-01 17:50:00","23214","0.8190000000000001","228.2","3.43","216.1","1017.753","27.75","58.98","NAN","0.0"],
    [1570505,"2026-09-01 18:00:00","23215","1.364","233.7","2.842","237.7","1017.444","27.57","59.33","NAN","0.0"],
    [1570506,"2026-09-01 18:10:00","23216","1.334","243.1","2.7439999999999998","227.7","1017.265","27.41","59.73","NAN","0.0"],
    [1570507,"2026-09-01 18:20:00","23217","1.02","211.6","2.385","211.0","1017.0830000000001","27.34","60.38","NAN","0.0"],
    [1570508,"2026-09-01 18:30:00","23218","1.264","229.3","2.907","200.0","1017.071","27.35","60.05","NAN","0.0"],
    [1570509,"2026-09-01 18:40:00","23219","1.3730000000000002","214.8","3.332","237.7","1017.3919999999999","27.18","61.24","NAN","0.0"],
    [1570510,"2026-09-01 18:50:00","23220","1.0170000000000001","219.0","2.875","197.5","1017.445","27.12","61.2","NAN","0.0"],
    [1570511,"2026-09-01 19:00:00","23221","1.265","226.9","3.1689999999999996","234.0","1017.449","27.13","60.7","NAN","0.0"],
    [1570512,"2026-09-01 19:10:00","23222","1.311","219.5","3.0380000000000003","238.1","1017.467","27.03","60.92","NAN","0.0"],
    [1570513,"2026-09-01 19:20:00","23223","1.197","212.8","3.005","230.7","1017.587","26.85","61.61","NAN","0.0"],
    [1570514,"2026-09-01 19:30:00","23224","0.8220000000000001","214.8","2.483","238.9","1017.6189999999999","26.74","62.26","NAN","0.0"],
    [1570515,"2026-09-01 19:40:00","23225","0.687","192.6","1.3719999999999999","178.9","1017.696","26.54","64.24","NAN","0.0"],
    [1570516,"2026-09-01 19:50:00","23226","0.836","220.9","1.764","246.0","1017.8380000000001","26.47","63.98","NAN","0.0"],
    [1570517,"2026-09-01 20:00:00","23227","1.131","228.9","3.7889999999999997","222.1","1018.035","26.6","63.32","NAN","0.0"],
    [1570518,"2026-09-01 20:10:00","23228","1.038","210.8","2.875","211.1","1018.2639999999999","26.65","63.68","NAN","0.0"],
    [1570519,"2026-09-01 20:20:00","23229","1.3090000000000002","212.0","3.071","229.4","1018.326","26.33","64.78","NAN","0.0"],
    [1570520,"2026-09-01 20:30:00","23230","0.769","197.7","1.7309999999999999","202.2","1018.329","26.26","65.46","NAN","0.0"],
    [1570521,"2026-09-01 20:40:00","23231","0.96","186.3","1.96","192.9","1018.329","26.18","66.38","NAN","0.0"],
    [1570522,"2026-09-01 20:50:00","23232","1.301","200.3","2.254","220.9","1018.3760000000001","26.06","67.08","NAN","0.0"],
    [1570523,"2026-09-01 21:00:00","23233","1.1740000000000002","208.1","2.8089999999999997","197.9","1018.4730000000001","26.09","66.77","NAN","0.0"],
    [1570524,"2026-09-01 21:10:00","23234","1.06","215.9","2.417","229.2","1018.558","26.13","66.82","NAN","0.0"],
    [1570525,"2026-09-01 21:20:00","23235","1.232","209.5","2.483","228.2","1018.6080000000001","26.13","66.86","NAN","0.0"],
    [1570526,"2026-09-01 21:30:00","23236","0.914","232.1","2.123","234.1","1018.7","26.11","67.14","NAN","0.0"],
    [1570527,"2026-09-01 21:40:00","23237","0.856","225.2","2.221","224.4","1018.82","26.43","66.34","NAN","0.0"],
    [1570528,"2026-09-01 21:50:00","23238","0.868","190.7","1.633","171.5","1018.827","26.06","68.45","NAN","0.0"],
    [1570529,"2026-09-01 22:00:00","23239","0.436","191.3","1.143","182.6","1018.827","25.97","68.9","NAN","0.0"],
    [1570530,"2026-09-01 22:10:00","23240","0.5429999999999999","186.0","1.143","296.4","1018.845","25.97","69.17","NAN","0.0"],
    [1570531,"2026-09-01 22:20:00","23241","0.536","187.5","1.339","192.4","1019.054","25.86","69.86","NAN","0.0"],
    [1570532,"2026-09-01 22:30:00","23242","0.78","174.6","1.405","163.0","1019.1139999999999","25.73","70.29","NAN","0.0"],
    [1570533,"2026-09-01 22:40:00","23243","0.7829999999999999","199.8","1.601","203.9","1019.1439999999999","25.73","70.24","NAN","0.0"],
    [1570534,"2026-09-01 22:50:00","23244","0.917","214.4","1.9269999999999998","207.5","1019.315","25.67","70.03","NAN","0.0"],
    [1570535,"2026-09-01 23:00:00","23245","0.716","205.1","1.535","190.7","1019.35","25.66","69.99","NAN","0.0"],
    [1570536,"2026-09-01 23:10:00","23246","0.562","191.8","1.307","187.2","1019.41","25.6","70.61","NAN","0.0"],
    [1570537,"2026-09-01 23:20:00","23247","0.268","227.3","1.274","196.5","1019.5169999999999","25.58","70.54","NAN","0.0"],
    [1570538,"2026-09-01 23:30:00","23248","0.946","219.4","2.189","266.8","1019.455","25.92","68.65","NAN","0.0"],
    [1570539,"2026-09-01 23:40:00","23249","0.7979999999999999","200.6","1.9269999999999998","240.9","1019.432","25.78","70.04","NAN","0.0"],
    [1570540,"2026-09-01 23:50:00","23250","0.452","235.4","1.47","264.8","1019.326","25.47","70.65","NAN","0.0"],
    [1570541,"2026-09-02 00:00:00","23251","0.568","236.0","2.679","253.6","1019.3330000000001","25.99","67.69","NAN","0.0"],
    [1570542,"2026-09-02 00:10:00","23252","0.292","188.5","1.2409999999999999","187.0","1019.4580000000001","25.8","69.56","NAN","0.0"],
    [1570543,"2026-09-02 00:20:00","23253","0.213","153.2","0.6859999999999999","199.9","1019.4630000000001","25.52","70.68","NAN","0.0"],
    [1570544,"2026-09-02 00:30:00","23254","0.6","203.0","1.209","175.6","1019.552","25.7","70.32","NAN","0.0"],
    [1570545,"2026-09-02 00:40:00","23255","0.226","186.2","1.111","186.4","1019.4780000000001","25.48","71.26","NAN","0.0"],
    [1570546,"2026-09-02 00:50:00","23256","0.498","215.9","1.3719999999999999","229.9","1019.457","25.46","71.54","NAN","0.0"],
    [1570547,"2026-09-02 01:00:00","23257","0.209","276.5","0.9470000000000001","288.3","1019.438","25.69","70.83","NAN","0.0"],
    [1570548,"2026-09-02 01:10:00","23258","0.299","290.3","1.2409999999999999","291.4","1019.373","25.82","69.75","NAN","0.0"],
    [1570549,"2026-09-02 01:20:00","23259","0.6859999999999999","24.9","1.895","17.51","1019.2710000000001","25.84","68.15","NAN","0.0"],
    [1570550,"2026-09-02 01:30:00","23260","0.5760000000000001","29.93","1.4369999999999998","2.211","1019.204","25.53","68.16","NAN","0.0"],
    [1570551,"2026-09-02 01:40:00","23261","0.7440000000000001","48.27","1.699","43.17","1019.196","25.36","68.72","NAN","0.0"],
    [1570552,"2026-09-02 01:50:00","23262","0.648","40.69","1.307","17.63","1019.1460000000001","25.17","69.69","NAN","0.0"],
    [1570553,"2026-09-02 02:00:00","23263","0.37","51.9","1.143","58.77","1019.076","25.09","70.25","NAN","0.0"],
    [1570554,"2026-09-02 02:10:00","23264","0.48","12.67","1.013","1.767","1019.064","25.04","70.76","NAN","0.0"],
    [1570555,"2026-09-02 02:20:00","23265","0.083","18.94","0.9470000000000001","29.77","1019.0189999999999","25.08","70.82","NAN","0.0"],
    [1570556,"2026-09-02 02:30:00","23266","0.563","28.44","1.405","29.74","1019.069","25.05","71.1","NAN","0.0"],
    [1570557,"2026-09-02 02:40:00","23267","0.767","38.64","1.797","24.58","1019.076","25.03","71.15","NAN","0.0"],
    [1570558,"2026-09-02 02:50:00","23268","0.736","42.07","1.339","37.57","1019.056","24.94","71.46","NAN","0.0"],
    [1570559,"2026-09-02 03:00:00","23269","0.596","10.46","1.3719999999999999","4.065","1018.9839999999999","24.93","71.26","NAN","0.0"],
    [1570560,"2026-09-02 03:10:00","23270","0.353","35.43","1.3719999999999999","73.55","1018.827","24.86","71.26","NAN","0.0"],
    [1570561,"2026-09-02 03:20:00","23271","0.5710000000000001","44.7","1.535","32.09","1018.827","24.73","71.73","NAN","0.0"],
    [1570562,"2026-09-02 03:30:00","23272","0.737","24.77","1.568","38.91","1018.92","24.69","71.56","NAN","0.0"],
    [1570563,"2026-09-02 03:40:00","23273","0.446","13.34","1.274","4.34","1018.939","24.63","71.31","NAN","0.0"],
    [1570564,"2026-09-02 03:50:00","23274","0.255","354.3","0.8170000000000001","0.32","1018.83","24.61","71.12","NAN","0.0"],
    [1570565,"2026-09-02 04:00:00","23275","0.166","109.0","0.588","113.5","1018.827","24.55","71.81","NAN","0.0"],
    [1570566,"2026-09-02 04:10:00","23276","0.262","73.91","0.7190000000000001","21.87","1018.795","24.35","72.63","NAN","0.0"],
    [1570567,"2026-09-02 04:20:00","23277","0.585","45.68","1.176","27.98","1018.812","24.3","72.56","NAN","0.0"],
    [1570568,"2026-09-02 04:30:00","23278","0.885","41.98","1.405","30.09","1018.737","24.35","72.2","NAN","0.0"],
    [1570569,"2026-09-02 04:40:00","23279","0.5720000000000001","45.22","1.078","68.13","1018.7330000000001","24.28","72.41","NAN","0.0"],
    [1570570,"2026-09-02 04:50:00","23280","0.804","33.62","1.8619999999999999","35.04","1018.797","24.23","72.86","NAN","0.0"],
    [1570571,"2026-09-02 05:00:00","23281","0.79","6.553","1.9269999999999998","12.22","1018.818","24.24","72.92","NAN","0.0"],
    [1570572,"2026-09-02 05:10:00","23282","0.619","10.66","1.7309999999999999","3.8939999999999997","1018.78","24.32","72.65","NAN","0.0"],
    [1570573,"2026-09-02 05:20:00","23283","0.016","355.4","0.6859999999999999","8.24","1018.825","24.37","72.82","NAN","0.0"],
    [1570574,"2026-09-02 05:30:00","23284","0.0","0.0","0.0","0.0","1018.83","24.52","72.8","NAN","0.0"],
    [1570575,"2026-09-02 05:40:00","23285","0.0","0.0","0.0","0.0","1018.9169999999999","24.37","74.44","NAN","0.0"],
    [1570576,"2026-09-02 05:50:00","23286","0.285","153.0","0.915","139.8","1018.9939999999999","24.5","73.82","NAN","0.0"],
    [1570577,"2026-09-02 06:00:00","23287","0.33299999999999996","191.4","1.111","228.5","1019.077","24.78","73.63","NAN","0.0"],
    [1570578,"2026-09-02 06:10:00","23288","0.6559999999999999","225.8","1.797","216.1","1019.206","25.15","71.4","NAN","0.0"],
    [1570579,"2026-09-02 06:20:00","23289","0.541","140.3","1.013","172.3","1019.293","25.61","69.89","NAN","0.0"],
    [1570580,"2026-09-02 06:30:00","23290","0.406","106.6","1.045","109.1","1019.326","25.69","70.88","NAN","0.0"],
    [1570581,"2026-09-02 06:40:00","23291","0.695","79.59","1.2409999999999999","70.54","1019.326","26.16","68.16","NAN","0.0"],
    [1570582,"2026-09-02 06:50:00","23292","0.753","62.46","1.7309999999999999","67.57","1019.3960000000001","26.62","64.84","NAN","0.0"],
    [1570583,"2026-09-02 07:00:00","23293","1.082","46.39","2.123","62.57","1019.437","26.68","63.24","NAN","0.0"],
    [1570584,"2026-09-02 07:10:00","23294","0.8059999999999999","41.26","2.254","48.21","1019.53","26.79","62.59","NAN","0.0"],
    [1570585,"2026-09-02 07:20:00","23295","1.12","13.14","2.7110000000000003","24.42","1019.56","27.21","60.47","NAN","0.0"],
    [1570586,"2026-09-02 07:30:00","23296","1.4609999999999999","14.62","3.332","354.9","1019.683","27.15","59.88","NAN","0.0"],
    [1570587,"2026-09-02 07:40:00","23297","1.217","38.83","2.7439999999999998","24.37","1019.762","27.73","58.36","NAN","0.0"],
    [1570588,"2026-09-02 07:50:00","23298","1.146","38.68","3.365","44.61","1019.7439999999999","28.22","56.46","NAN","0.0"],
    [1570589,"2026-09-02 08:00:00","23299","1.6030000000000002","39.03","3.528","57.82","1019.7589999999999","28.16","55.58","NAN","0.0"],
    [1570590,"2026-09-02 08:10:00","23300","1.318","5.9079999999999995","2.548","359.3","1019.7769999999999","28.17","54.94","NAN","0.0"],
    [1570591,"2026-09-02 08:20:00","23301","1.181","41.57","2.613","61.55","1019.875","28.5","53.58","NAN","0.0"],
    [1570592,"2026-09-02 08:30:00","23302","0.748","25.17","1.829","20.29","1019.966","29.51","50.46","NAN","0.0"],
    [1570593,"2026-09-02 08:40:00","23303","0.9540000000000001","354.9","2.319","7.497000000000001","1019.9939999999999","29.36","50.72","NAN","0.0"],
    [1570594,"2026-09-02 08:50:00","23304","0.821","27.79","2.352","76.37","1020.07","29.7","50.1","NAN","0.0"],
    [1570595,"2026-09-02 09:00:00","23305","1.642","64.85","3.7569999999999997","101.0","1020.0830000000001","30.1","48.4","NAN","0.0"],
    [1570596,"2026-09-02 09:10:00","23306","2.292","94.4","4.606","110.8","1020.189","29.79","49.62","NAN","0.0"],
    [1570597,"2026-09-02 09:20:00","23307","2.009","93.2","4.018","96.9","1020.2719999999999","29.79","49.74","NAN","0.0"],
    [1570598,"2026-09-02 09:30:00","23308","2.5069999999999997","95.0","4.181","95.2","1020.4069999999999","29.47","50.79","NAN","0.0"],
    [1570599,"2026-09-02 09:40:00","23309","2.245","97.5","3.985","83.4","1020.538","29.04","53.05","NAN","0.0"],
    [1570600,"2026-09-02 09:50:00","23310","1.883","82.8","3.201","69.22","1020.5930000000001","29.08","53.43","NAN","0.0"],
    [1570601,"2026-09-02 10:00:00","23311","1.973","84.3","3.299","86.0","1020.6669999999999","29.07","52.77","NAN","0.0"],
    [1570602,"2026-09-02 10:10:00","23312","1.781","104.1","3.234","105.3","1020.738","29.06","54.63","NAN","0.0"],
    [1570603,"2026-09-02 10:20:00","23313","1.615","96.0","2.515","71.89","1020.845","29.2","54.78","NAN","0.0"],
    [1570604,"2026-09-02 10:30:00","23314","1.436","106.2","2.7110000000000003","78.68","1020.806","29.01","55.08","NAN","0.0"],
    [1570605,"2026-09-02 10:40:00","23315","1.9180000000000001","99.6","3.136","101.0","1020.77","29.43","51.93","NAN","0.0"],
    [1570606,"2026-09-02 10:50:00","23316","1.804","125.3","3.528","150.4","1020.811","29.06","54.95","NAN","0.0"],
    [1570607,"2026-09-02 11:00:00","23317","1.7919999999999998","129.8","3.43","137.2","1020.7669999999999","28.76","58.36","NAN","0.0"],
    [1570608,"2026-09-02 11:10:00","23318","1.8119999999999998","126.7","3.201","139.2","1020.827","28.57","60.33","NAN","0.0"],
    [1570609,"2026-09-02 11:20:00","23319","1.621","126.3","2.907","123.5","1020.8689999999999","28.24","63.71","NAN","0.0"],
    [1570610,"2026-09-02 11:30:00","23320","1.6","127.3","2.352","112.8","1020.972","28.62","64.57","NAN","0.0"],
    [1570611,"2026-09-02 11:40:00","23321","1.683","159.5","2.7769999999999997","126.7","1021.0319999999999","28.52","65.26","NAN","0.0"],
    [1570612,"2026-09-02 11:50:00","23322","2.0069999999999997","153.8","3.201","138.1","1020.972","28.4","64.94","NAN","0.0"],
    [1570613,"2026-09-02 12:00:00","23323","2.051","129.8","3.528","130.5","1020.936","28.49","65.74","NAN","0.0"],
    [1570614,"2026-09-02 12:10:00","23324","2.262","122.1","3.528","110.2","1020.831","28.56","65.41","NAN","0.0"],
    [1570615,"2026-09-02 12:20:00","23325","2.135","126.6","4.149","107.8","1020.8330000000001","28.86","60.97","NAN","0.0"],
    [1570616,"2026-09-02 12:30:00","23326","1.931","158.4","3.6910000000000003","158.6","1020.816","29.16","59.49","NAN","0.0"],
    [1570617,"2026-09-02 12:40:00","23327","1.749","168.0","3.103","160.0","1020.798","29.06","61.03","NAN","0.0"],
    [1570618,"2026-09-02 12:50:00","23328","1.6059999999999999","189.7","3.463","183.2","1020.8489999999999","29.34","59.89","NAN","0.0"],
    [1570619,"2026-09-02 13:00:00","23329","1.8130000000000002","188.8","3.299","190.3","1020.84","29.47","58.81","NAN","0.0"],
    [1570620,"2026-09-02 13:10:00","23330","2.0540000000000003","178.5","4.018","175.7","1020.778","29.08","59.88","NAN","0.0"],
    [1570621,"2026-09-02 13:20:00","23331","1.776","167.3","3.855","145.8","1020.773","29.09","60.14","NAN","0.0"],
    [1570622,"2026-09-02 13:30:00","23332","2.269","174.0","3.659","188.4","1020.7539999999999","28.87","61.75","NAN","0.0"],
    [1570623,"2026-09-02 13:40:00","23333","2.0869999999999997","182.3","3.7889999999999997","168.6","1020.653","28.81","63.13","NAN","0.0"],
    [1570624,"2026-09-02 13:50:00","23334","1.9780000000000002","186.0","3.43","183.9","1020.577","29.17","62.94","NAN","0.0"],
    [1570625,"2026-09-02 14:00:00","23335","2.384","180.5","3.855","174.9","1020.487","28.45","65.77","NAN","0.0"],
    [1570626,"2026-09-02 14:10:00","23336","2.4","178.7","4.018","177.3","1020.3960000000001","28.22","66.48","NAN","0.0"],
    [1570627,"2026-09-02 14:20:00","23337","1.825","185.4","3.659","181.8","1020.3510000000001","28.5","65.01","NAN","0.0"],
    [1570628,"2026-09-02 14:30:00","23338","1.58","170.9","2.7439999999999998","180.2","1020.29","28.93","62.89","NAN","0.0"],
    [1570629,"2026-09-02 14:40:00","23339","1.765","179.5","3.0380000000000003","181.8","1020.289","28.9","62.8","NAN","0.0"],
    [1570630,"2026-09-02 14:50:00","23340","1.733","179.7","3.267","184.2","1020.1619999999999","28.93","62.44","NAN","0.0"],
    [1570631,"2026-09-02 15:00:00","23341","1.723","176.1","3.0380000000000003","171.7","1020.158","28.77","63.47","NAN","0.0"],
    [1570632,"2026-09-02 15:10:00","23342","1.39","191.2","2.8089999999999997","204.2","1020.063","28.94","63.37","NAN","0.0"],
    [1570633,"2026-09-02 15:20:00","23343","1.4080000000000001","183.5","2.842","183.2","1020.035","28.88","64.39","NAN","0.0"],
    [1570634,"2026-09-02 15:30:00","23344","1.6159999999999999","170.1","2.7439999999999998","187.6","1020.0319999999999","28.56","65.27","NAN","0.0"],
    [1570635,"2026-09-02 15:40:00","23345","1.6569999999999998","176.6","2.842","169.0","1019.985","28.33","66.68","NAN","0.0"],
    [1570636,"2026-09-02 15:50:00","23346","1.163","203.4","2.515","204.9","1019.908","28.53","67.31","NAN","0.0"],
    [1570637,"2026-09-02 16:00:00","23347","1.3430000000000002","202.1","2.5810000000000004","208.4","1019.921","29","64.92","NAN","0.0"],
    [1570638,"2026-09-02 16:10:00","23348","1.338","197.2","2.385","173.4","1019.888","28.53","66.07","NAN","0.0"],
    [1570639,"2026-09-02 16:20:00","23349","0.991","203.0","2.319","201.7","1019.798","29.02","64.74","NAN","0.0"],
    [1570640,"2026-09-02 16:30:00","23350","1.1320000000000001","210.4","2.6460000000000004","221.6","1019.796","28.9","64.84","NAN","0.0"],
    [1570641,"2026-09-02 16:40:00","23351","1.026","212.0","2.483","212.1","1019.768","28.75","65","NAN","0.0"],
    [1570642,"2026-09-02 16:50:00","23352","0.941","203.9","2.254","208.6","1019.705","28.9","64.23","NAN","0.0"],
    [1570643,"2026-09-02 17:00:00","23353","1.2670000000000001","192.9","2.6460000000000004","177.6","1019.7739999999999","27.95","67.55","NAN","0.0"],
    [1570644,"2026-09-02 17:10:00","23354","0.784","201.8","2.287","207.6","1019.717","28.01","67.92","NAN","0.0"],
    [1570645,"2026-09-02 17:20:00","23355","0.748","209.7","1.568","212.8","1019.701","28.11","67.33","NAN","0.0"],
    [1570646,"2026-09-02 17:30:00","23356","0.9690000000000001","188.4","1.797","218.4","1019.727","27.99","67.69","NAN","0.0"],
    [1570647,"2026-09-02 17:40:00","23357","0.705","204.6","1.9269999999999998","196.3","1019.7689999999999","27.79","68.15","NAN","0.0"],
    [1570648,"2026-09-02 17:50:00","23358","0.96","186.5","1.96","170.0","1019.811","27.61","68.27","NAN","0.0"],
    [1570649,"2026-09-02 18:00:00","23359","0.86","197.6","1.764","177.4","1019.8739999999999","27.5","67.99","NAN","0.0"],
    [1570650,"2026-09-02 18:10:00","23360","0.8390000000000001","191.3","1.666","170.1","1019.9010000000001","27.43","66.82","NAN","0.0"],
    [1570651,"2026-09-02 18:20:00","23361","1.005","177.3","1.8619999999999999","205.1","1019.826","27.33","66.33","NAN","0.0"],
    [1570652,"2026-09-02 18:30:00","23362","0.813","155.1","1.307","175.5","1019.9639999999999","27.28","66.97","NAN","0.0"],
    [1570653,"2026-09-02 18:40:00","23363","1.0859999999999999","163.2","1.797","149.1","1020.063","27.24","67.17","NAN","0.0"],
    [1570654,"2026-09-02 18:50:00","23364","0.9520000000000001","158.6","1.797","155.5","1020.1030000000001","27.16","68.19","NAN","0.0"],
    [1570655,"2026-09-02 19:00:00","23365","0.807","142.9","1.5030000000000001","153.7","1020.203","27.13","68.5","NAN","0.0"],
    [1570656,"2026-09-02 19:10:00","23366","0.609","145.2","1.045","179.3","1020.29","27.16","69.07","NAN","0.0"],
    [1570657,"2026-09-02 19:20:00","23367","0.82","127.6","1.274","145.9","1020.325","27.11","70.73","NAN","0.0"],
    [1570658,"2026-09-02 19:30:00","23368","0.654","119.0","1.111","109.9","1020.352","27.06","71.27","NAN","0.0"],
    [1570659,"2026-09-02 19:40:00","23369","0.5720000000000001","127.8","1.111","148.5","1020.444","26.94","72.18","NAN","0.0"],
    [1570660,"2026-09-02 19:50:00","23370","0.6970000000000001","137.5","1.4369999999999998","116.3","1020.6110000000001","26.81","72.9","NAN","0.0"],
    [1570661,"2026-09-02 20:00:00","23371","0.6940000000000001","124.4","1.339","117.7","1020.666","26.75","73.97","NAN","0.0"],
    [1570662,"2026-09-02 20:10:00","23372","0.439","112.1","1.143","111.7","1020.7860000000001","26.84","72.83","NAN","0.0"],
    [1570663,"2026-09-02 20:20:00","23373","0.265","105.3","0.784","92.2","1020.82","26.91","71.38","NAN","0.0"],
    [1570664,"2026-09-02 20:30:00","23374","0.179","94.9","0.621","106.1","1020.82","27.05","69.66","NAN","0.0"],
    [1570665,"2026-09-02 20:40:00","23375","0.196","154.4","0.523","96.3","1020.788","26.98","69.95","NAN","0.0"],
    [1570666,"2026-09-02 20:50:00","23376","0.336","177.5","0.6859999999999999","184.1","1020.7710000000001","26.67","73.06","NAN","0.0"],
    [1570667,"2026-09-02 21:00:00","23377","0.031","93.6","0.359","93.2","1020.793","26.66","72.55","NAN","0.0"],
    [1570668,"2026-09-02 21:10:00","23378","0.152","98.8","0.621","97.3","1020.808","26.96","69.97","NAN","0.0"],
    [1570669,"2026-09-02 21:20:00","23379","0.474","211.1","1.078","233.2","1020.808","27.02","70.03","NAN","0.0"],
    [1570670,"2026-09-02 21:30:00","23380","0.326","209.5","0.8170000000000001","227.3","1020.82","26.8","70.79","NAN","0.0"],
    [1570671,"2026-09-02 21:40:00","23381","0.6","11.97","1.568","48.86","1020.82","27.18","65.86","NAN","0.0"],
    [1570672,"2026-09-02 21:50:00","23382","0.47100000000000003","50.2","1.7309999999999999","69.66","1020.808","27.49","62.78","NAN","0.0"],
    [1570673,"2026-09-02 22:00:00","23383","0.66","31.3","1.405","24.02","1020.798","27.37","59.07","NAN","0.0"],
    [1570674,"2026-09-02 22:10:00","23384","0.36200000000000004","7.898","1.47","28.94","1020.82","27.39","57.25","NAN","0.0"],
    [1570675,"2026-09-02 22:20:00","23385","0.231","39.16","1.111","23.97","1021.008","27.36","57.36","NAN","0.0"],
    [1570676,"2026-09-02 22:30:00","23386","0.373","22.04","1.209","30.13","1021.052","27.32","57.54","NAN","0.0"],
    [1570677,"2026-09-02 22:40:00","23387","0.66","209.5","1.339","202.1","1021.02","27.14","63.22","NAN","0.0"],
    [1570678,"2026-09-02 22:50:00","23388","0.442","187.8","1.3719999999999999","206.5","1020.938","26.83","70.57","NAN","0.0"],
    [1570679,"2026-09-02 23:00:00","23389","0.335","171.2","0.915","181.5","1020.9019999999999","26.61","72.8","NAN","0.0"],
    [1570680,"2026-09-02 23:10:00","23390","0.076","185.9","0.621","166.0","1020.8430000000001","26.44","73.9","NAN","0.0"],
    [1570681,"2026-09-02 23:20:00","23391","0.193","189.1","1.209","224.9","1020.903","26.31","75.15","NAN","0.0"],
    [1570682,"2026-09-02 23:30:00","23392","0.109","174.4","0.98","180.2","1020.945","26.2","76.36","NAN","0.0"],
    [1570683,"2026-09-02 23:40:00","23393","0.131","131.8","0.784","114.0","1021.045","26.13","77.3","NAN","0.0"],
    [1570684,"2026-09-02 23:50:00","23394","0.0","0.0","0.0","0.0","1021.07","26.14","77.59","NAN","0.0"],
    [1570685,"2026-09-03 00:00:00","23395","0.223","103.8","0.49","105.8","1021.07","26.09","78.89","NAN","0.0"],
    [1570686,"2026-09-03 00:10:00","23396","0.017","168.7","0.261","182.9","1021.015","25.89","80.5","NAN","0.0"],
    [1570687,"2026-09-03 00:20:00","23397","0.17300000000000001","187.4","0.588","215.4","1020.945","25.74","82.7","NAN","0.0"],
    [1570688,"2026-09-03 00:30:00","23398","0.153","99.6","0.523","93.2","1020.953","25.65","83.6","NAN","0.0"],
    [1570689,"2026-09-03 00:40:00","23399","0.20800000000000002","80.6","0.6859999999999999","99.2","1020.947","25.78","84.7","NAN","0.0"],
    [1570690,"2026-09-03 00:50:00","23400","0.614","65.82","1.176","59.33","1020.828","25.48","83.2","NAN","0.0"],
    [1570691,"2026-09-03 01:00:00","23401","0.45299999999999996","83.3","0.882","116.2","1020.82","25.7","74.08","NAN","0.0"],
    [1570692,"2026-09-03 01:10:00","23402","0.387","90.0","0.9470000000000001","75.13","1020.82","26.12","68.7","NAN","0.0"],
    [1570693,"2026-09-03 01:20:00","23403","0.353","173.0","0.9470000000000001","171.7","1020.826","26.2","73.55","NAN","0.0"],
    [1570694,"2026-09-03 01:30:00","23404","0.488","186.4","0.9470000000000001","199.1","1020.943","25.89","82.8","NAN","0.0"],
    [1570695,"2026-09-03 01:40:00","23405","0.19","205.9","0.784","200.7","1020.862","25.38","84.4","NAN","0.0"],
    [1570696,"2026-09-03 01:50:00","23406","0.179","190.7","0.588","206.3","1020.82","25.24","83","NAN","0.0"],
    [1570697,"2026-09-03 02:00:00","23407","0.0","0.0","0.0","0.0","1020.82","25.29","83","NAN","0.0"],
    [1570698,"2026-09-03 02:10:00","23408","0.23399999999999999","52.83","0.457","60.7","1020.815","25.38","84.4","NAN","0.0"],
    [1570699,"2026-09-03 02:20:00","23409","0.327","48.25","1.5030000000000001","13.9","1020.815","25.16","81.9","NAN","0.0"],
    [1570700,"2026-09-03 02:30:00","23410","0.424","13.07","1.47","11.06","1020.808","25.17","70.32","NAN","0.0"],
    [1570701,"2026-09-03 02:40:00","23411","0.35200000000000004","4.407","1.274","3.957","1020.7460000000001","25.62","65.13","NAN","0.0"],
    [1570702,"2026-09-03 02:50:00","23412","0.265","4.257","0.7509999999999999","325.1","1020.7310000000001","25.78","63.23","NAN","0.0"],
    [1570703,"2026-09-03 03:00:00","23413","0.49700000000000005","22.62","1.601","23.04","1020.693","25.86","61.95","NAN","0.0"],
    [1570704,"2026-09-03 03:10:00","23414","0.21899999999999997","342.8","1.209","10.59","1020.6410000000001","25.89","61.87","NAN","0.0"],
    [1570705,"2026-09-03 03:20:00","23415","0.295","343.3","0.882","5.587999999999999","1020.571","25.66","62.58","NAN","0.0"],
    [1570706,"2026-09-03 03:30:00","23416","0.496","351.3","1.176","3.615","1020.5360000000001","25.99","58.31","NAN","0.0"],
    [1570707,"2026-09-03 03:40:00","23417","0.784","0.857","1.5030000000000001","24.05","1020.456","26.19","56.17","NAN","0.0"],
    [1570708,"2026-09-03 03:50:00","23418","0.9470000000000001","4.246","2.123","4.158","1020.439","26.18","55.33","NAN","0.0"],
    [1570709,"2026-09-03 04:00:00","23419","0.36700000000000005","1.41","1.274","8.41","1020.3789999999999","26.23","54.68","NAN","0.0"],
    [1570710,"2026-09-03 04:10:00","23420","0.239","11.1","1.797","51.52","1020.3439999999999","26.17","55.78","NAN","0.0"],
    [1570711,"2026-09-03 04:20:00","23421","0.14","200.1","0.7190000000000001","350.9","1020.3539999999999","26.04","61.78","NAN","0.0"],
    [1570712,"2026-09-03 04:30:00","23422","0.179","212.3","0.915","209.3","1020.3589999999999","25.69","70.37","NAN","0.0"],
    [1570713,"2026-09-03 04:40:00","23423","0.26899999999999996","206.0","0.9470000000000001","218.8","1020.322","25.48","76.13","NAN","0.0"],
    [1570714,"2026-09-03 04:50:00","23424","0.124","170.3","0.621","166.7","1020.385","25.13","79.11","NAN","0.0"],
    [1570715,"2026-09-03 05:00:00","23425","0.013999999999999999","177.7","0.261","178.3","1020.447","24.86","80.4","NAN","0.0"],
    [1570716,"2026-09-03 05:10:00","23426","0.166","179.2","0.6859999999999999","181.4","1020.482","24.78","82.1","NAN","0.0"],
    [1570717,"2026-09-03 05:20:00","23427","0.094","185.7","0.49","185.5","1020.6410000000001","24.54","83.4","NAN","0.0"],
    [1570718,"2026-09-03 05:30:00","23428","0.046","134.1","0.392","143.4","1020.7139999999999","24.47","82.3","NAN","0.0"],
    [1570719,"2026-09-03 05:40:00","23429","0.27899999999999997","167.6","0.621","181.9","1020.818","24.66","80.1","NAN","0.0"],
    [1570720,"2026-09-03 05:50:00","23430","0.022000000000000002","198.7","0.392","206.8","1020.883","24.66","79.98","NAN","0.0"],
    [1570721,"2026-09-03 06:00:00","23431","0.105","113.9","0.523","120.0","1020.997","24.98","73.94","NAN","0.0"],
    [1570722,"2026-09-03 06:10:00","23432","0.344","73.81","0.6859999999999999","68.79","1021.082","25.32","62.61","NAN","0.0"],
    [1570723,"2026-09-03 06:20:00","23433","0.551","39.46","1.307","46.37","1021.2389999999999","25.97","58.68","NAN","0.0"],
    [1570724,"2026-09-03 06:30:00","23434","0.519","13.7","1.274","49.05","1021.3389999999999","26.29","57.16","NAN","0.0"],
    [1570725,"2026-09-03 06:40:00","23435","0.8390000000000001","359.6","1.829","7.483","1021.456","26.32","56.67","NAN","0.0"],
    [1570726,"2026-09-03 06:50:00","23436","0.6759999999999999","359.2","1.47","351.8","1021.62","26.83","54.68","NAN","0.0"],
    [1570727,"2026-09-03 07:00:00","23437","0.84","31.29","2.0580000000000003","11.08","1021.7489999999999","27.36","52.89","NAN","0.0"],
    [1570728,"2026-09-03 07:10:00","23438","0.743","36.8","1.7309999999999999","8.83","1021.7710000000001","27.82","51.23","NAN","0.0"],
    [1570729,"2026-09-03 07:20:00","23439","0.442","25.47","1.4369999999999998","73.77","1021.7860000000001","28.14","50.34","NAN","0.0"],
    [1570730,"2026-09-03 07:30:00","23440","0.491","108.8","1.209","71.26","1021.778","28.71","51.81","NAN","0.0"],
    [1570731,"2026-09-03 07:40:00","23441","0.5770000000000001","163.1","1.274","138.4","1021.7539999999999","28.44","52.82","NAN","0.0"],
    [1570732,"2026-09-03 07:50:00","23442","1.107","164.9","1.699","157.6","1021.7710000000001","28.09","54.33","NAN","0.0"],
    [1570733,"2026-09-03 08:00:00","23443","1.111","129.3","1.568","109.9","1021.8660000000001","28.17","55.71","NAN","0.0"],
    [1570734,"2026-09-03 08:10:00","23444","1.338","123.0","2.221","118.3","1021.846","28.33","56.41","NAN","0.0"],
    [1570735,"2026-09-03 08:20:00","23445","1.268","122.9","1.993","110.0","1021.8989999999999","28.37","56.93","NAN","0.0"],
    [1570736,"2026-09-03 08:30:00","23446","1.327","121.0","2.156","110.1","1021.925","28.35","57.07","NAN","0.0"],
    [1570737,"2026-09-03 08:40:00","23447","1.341","129.2","2.025","143.5","1021.992","28.18","56.31","NAN","0.0"],
    [1570738,"2026-09-03 08:50:00","23448","1.419","124.7","2.221","105.1","1022.048","28.38","53.82","NAN","0.0"],
    [1570739,"2026-09-03 09:00:00","23449","1.344","129.5","1.96","131.9","1022.225","28.3","55.1","NAN","0.0"],
    [1570740,"2026-09-03 09:10:00","23450","1.33","126.8","2.189","121.4","1022.2819999999999","28.7","54.34","NAN","0.0"],
    [1570741,"2026-09-03 09:20:00","23451","1.4280000000000002","124.5","2.352","140.8","1022.373","28.77","55.8","NAN","0.0"],
    [1570742,"2026-09-03 09:30:00","23452","1.496","128.1","2.352","138.3","1022.455","28.45","58.07","NAN","0.0"],
    [1570743,"2026-09-03 09:40:00","23453","1.5019999999999998","127.2","2.287","147.5","1022.471","28.36","58.86","NAN","0.0"],
    [1570744,"2026-09-03 09:50:00","23454","1.6669999999999998","120.0","2.515","106.4","1022.388","28.83","55.88","NAN","0.0"],
    [1570745,"2026-09-03 10:00:00","23455","1.797","123.4","2.613","132.0","1022.368","29.04","55.42","NAN","0.0"],
    [1570746,"2026-09-03 10:10:00","23456","1.9240000000000002","122.5","2.6460000000000004","108.0","1022.3789999999999","28.95","56.66","NAN","0.0"],
    [1570747,"2026-09-03 10:20:00","23457","1.905","124.5","2.875","105.4","1022.385","28.63","58.79","NAN","0.0"],
    [1570748,"2026-09-03 10:30:00","23458","1.881","129.1","3.136","137.5","1022.322","28.77","58.54","NAN","0.0"],
    [1570749,"2026-09-03 10:40:00","23459","1.912","128.9","3.005","112.3","1022.217","28.54","60.41","NAN","0.0"],
    [1570750,"2026-09-03 10:50:00","23460","1.9709999999999999","137.1","3.201","133.9","1022.043","28.75","56.04","NAN","0.0"],
    [1570751,"2026-09-03 11:00:00","23461","1.906","137.2","3.071","167.3","1022.03","28.63","55.49","NAN","0.0"],
    [1570752,"2026-09-03 11:10:00","23462","1.831","165.8","3.201","168.7","1021.9630000000001","29.28","52.07","NAN","0.0"],
    [1570753,"2026-09-03 11:20:00","23463","1.9269999999999998","178.5","3.822","155.8","1021.85","29.54","54.22","NAN","0.0"],
    [1570754,"2026-09-03 11:30:00","23464","2.1719999999999997","187.9","3.822","182.1","1021.784","29.3","58.74","NAN","0.0"],
    [1570755,"2026-09-03 11:40:00","23465","2.4659999999999997","165.2","3.659","177.8","1021.7760000000001","28.8","59.35","NAN","0.0"],
    [1570756,"2026-09-03 11:50:00","23466","2.7439999999999998","172.6","4.018","175.3","1021.685","28.74","61.5","NAN","0.0"],
    [1570757,"2026-09-03 12:00:00","23467","2.821","177.1","4.312","182.1","1021.676","28.42","62.47","NAN","0.0"],
    [1570758,"2026-09-03 12:10:00","23468","3.045","176.5","4.573","181.4","1021.6110000000001","28.59","61.73","NAN","0.0"],
    [1570759,"2026-09-03 12:20:00","23469","2.193","191.6","4.1160000000000005","205.3","1021.55","29.13","62.8","NAN","0.0"],
    [1570760,"2026-09-03 12:30:00","23470","2.7430000000000003","170.9","4.638999999999999","148.2","1021.551","29.04","65.37","NAN","0.0"],
    [1570761,"2026-09-03 12:40:00","23471","2.635","173.2","4.051","174.5","1021.545","28.62","67.96","NAN","0.0"],
    [1570762,"2026-09-03 12:50:00","23472","3.0210000000000004","176.7","5.847","175.1","1021.6239999999999","28.74","68.7","NAN","0.0"],
    [1570763,"2026-09-03 13:00:00","23473","3.292","169.3","5.129","171.9","1021.557","28.29","70.85","NAN","0.0"],
    [1570764,"2026-09-03 13:10:00","23474","3.3560000000000003","168.1","5.031000000000001","168.4","1021.497","28.32","71.71","NAN","0.0"],
    [1570765,"2026-09-03 13:20:00","23475","3.049","175.9","5.684","177.2","1021.313","28.43","71.74","NAN","0.0"],
    [1570766,"2026-09-03 13:30:00","23476","3.085","181.4","6.207000000000001","178.7","1021.2919999999999","28.73","70.11","NAN","0.0"],
    [1570767,"2026-09-03 13:40:00","23477","3.213","179.1","5.2589999999999995","169.2","1021.2180000000001","28.85","69.42","NAN","0.0"],
    [1570768,"2026-09-03 13:50:00","23478","2.287","183.2","5.619","170.0","1021.0930000000001","29.19","68.64","NAN","0.0"],
    [1570769,"2026-09-03 14:00:00","23479","2.75","183.2","4.704","164.6","1020.9730000000001","29.02","69.28","NAN","0.0"],
    [1570770,"2026-09-03 14:10:00","23480","2.767","186.0","6.239","168.5","1020.816","29.16","68.09","NAN","0.0"],
    [1570771,"2026-09-03 14:20:00","23481","2.8139999999999996","194.3","6.337000000000001","191.3","1020.791","29.53","65.39","NAN","0.0"],
    [1570772,"2026-09-03 14:30:00","23482","2.883","193.3","5.749","165.1","1020.794","29.43","63.61","NAN","0.0"],
    [1570773,"2026-09-03 14:40:00","23483","2.821","188.8","4.998","205.0","1020.799","29.51","63.63","NAN","0.0"],
    [1570774,"2026-09-03 14:50:00","23484","3.112","194.5","5.619","204.4","1020.775","29.34","63.34","NAN","0.0"],
    [1570775,"2026-09-03 15:00:00","23485","3.016","195.1","6.5329999999999995","170.2","1020.695","29.67","62.15","NAN","0.0"],
    [1570776,"2026-09-03 15:10:00","23486","2.491","199.9","5.978","184.9","1020.6419999999999","29.7","62.73","NAN","0.0"],
    [1570777,"2026-09-03 15:20:00","23487","3.174","194.2","5.978","196.2","1020.627","29.32","64.5","NAN","0.0"],
    [1570778,"2026-09-03 15:30:00","23488","2.4130000000000003","208.0","5.88","194.3","1020.546","29.64","62.93","NAN","0.0"],
    [1570779,"2026-09-03 15:40:00","23489","2.231","214.9","5.88","207.3","1020.375","30.08","62.76","NAN","0.0"],
    [1570780,"2026-09-03 15:50:00","23490","2.114","209.0","5.586","203.4","1020.321","30.15","62.4","NAN","0.0"],
    [1570781,"2026-09-03 16:00:00","23491","2.149","209.3","6.141","235.4","1020.408","30.04","61.49","NAN","0.0"],
    [1570782,"2026-09-03 16:10:00","23492","2.18","201.8","5.129","187.9","1020.398","29.84","62.39","NAN","0.0"],
    [1570783,"2026-09-03 16:20:00","23493","2.141","217.5","6.435","207.6","1020.278","29.81","62.46","NAN","0.0"],
    [1570784,"2026-09-03 16:30:00","23494","2.201","212.8","6.0760000000000005","179.3","1020.23","29.98","62.25","NAN","0.0"],
    [1570785,"2026-09-03 16:40:00","23495","2.363","209.9","5.292000000000001","190.2","1020.2610000000001","29.43","65.08","NAN","0.0"],
    [1570786,"2026-09-03 16:50:00","23496","2.2969999999999997","209.8","5.129","220.3","1020.291","29.44","64.23","NAN","0.0"],
    [1570787,"2026-09-03 17:00:00","23497","2.351","209.0","5.357","203.9","1020.295","29.12","66.63","NAN","0.0"],
    [1570788,"2026-09-03 17:10:00","23498","1.886","206.2","4.9","193.4","1020.314","28.99","67.35","NAN","0.0"],
    [1570789,"2026-09-03 17:20:00","23499","2.1959999999999997","206.5","5.553","200.6","1020.32","29","68.01","NAN","0.0"],
    [1570790,"2026-09-03 17:30:00","23500","1.9769999999999999","202.6","4.573","194.2","1020.33","28.88","68.82","NAN","0.0"],
    [1570791,"2026-09-03 17:40:00","23501","1.911","209.9","4.279","253.7","1020.352","28.59","70.55","NAN","0.0"],
    [1570792,"2026-09-03 17:50:00","23502","1.396","213.7","3.887","210.6","1020.347","28.64","70.61","NAN","0.0"],
    [1570793,"2026-09-03 18:00:00","23503","1.391","214.0","4.018","210.6","1020.429","28.67","70.08","NAN","0.0"],
    [1570794,"2026-09-03 18:10:00","23504","1.699","208.2","4.704","168.7","1020.4630000000001","28.32","71.94","NAN","0.0"],
    [1570795,"2026-09-03 18:20:00","23505","1.828","214.1","5.063","212.2","1020.5189999999999","28.17","72.31","NAN","0.0"],
    [1570796,"2026-09-03 18:30:00","23506","1.113","221.9","3.5610000000000004","201.1","1020.492","28.23","72.31","NAN","0.0"],
    [1570797,"2026-09-03 18:40:00","23507","1.891","223.7","5.782","210.0","1020.5169999999999","28.15","72.31","NAN","0.0"],
    [1570798,"2026-09-03 18:50:00","23508","1.7480000000000002","215.4","3.659","233.6","1020.571","27.95","72.98","NAN","0.0"],
    [1570799,"2026-09-03 19:00:00","23509","1.4769999999999999","215.6","4.149","232.1","1020.7410000000001","27.87","74.3","NAN","0.0"],
    [1570800,"2026-09-03 19:10:00","23510","1.694","221.4","4.051","221.5","1020.818","27.87","74.16","NAN","0.0"],
    [1570801,"2026-09-03 19:20:00","23511","1.4809999999999999","222.2","3.528","243.8","1020.828","27.8","74.75","NAN","0.0"],
    [1570802,"2026-09-03 19:30:00","23512","1.349","208.3","3.299","194.2","1021.02","27.77","75.21","NAN","0.0"],
    [1570803,"2026-09-03 19:40:00","23513","1.228","240.3","3.887","222.6","1021.1519999999999","27.81","74.68","NAN","0.0"],
    [1570804,"2026-09-03 19:50:00","23514","1.139","215.6","2.483","200.9","1021.306","27.78","75","NAN","0.0"],
    [1570805,"2026-09-03 20:00:00","23515","1.071","234.0","2.352","217.7","1021.291","27.85","74.78","NAN","0.0"],
    [1570806,"2026-09-03 20:10:00","23516","1.577","242.8","4.4430000000000005","259.9","1021.2289999999999","27.99","74.11","NAN","0.0"],
    [1570807,"2026-09-03 20:20:00","23517","2.114","251.5","4.475","249.9","1021.184","27.83","74.68","NAN","0.0"],
    [1570808,"2026-09-03 20:30:00","23518","2.535","243.0","4.475","238.2","1021.1089999999999","27.65","75.41","NAN","0.0"],
    [1570809,"2026-09-03 20:40:00","23519","1.892","242.2","4.279","241.2","1021.0889999999999","27.7","74.33","NAN","0.0"],
    [1570810,"2026-09-03 20:50:00","23520","2.4730000000000003","239.6","5.063","231.9","1021.127","27.69","72.98","NAN","0.0"],
    [1570811,"2026-09-03 21:00:00","23521","2.039","242.4","4.769","225.6","1021.079","27.73","72.3","NAN","0.0"],
    [1570812,"2026-09-03 21:10:00","23522","1.8359999999999999","242.8","4.541","239.2","1021.07","27.66","72.24","NAN","0.0"],
    [1570813,"2026-09-03 21:20:00","23523","1.9269999999999998","236.8","4.2139999999999995","233.4","1021.065","27.66","72.05","NAN","0.0"],
    [1570814,"2026-09-03 21:30:00","23524","1.589","231.2","4.802","233.3","1021.097","27.61","72.63","NAN","0.0"],
    [1570815,"2026-09-03 21:40:00","23525","1.7690000000000001","240.5","3.6260000000000003","263.9","1021.062","27.58","73.04","NAN","0.0"],
    [1570816,"2026-09-03 21:50:00","23526","1.66","236.4","3.985","231.2","1021.06","27.53","73.75","NAN","0.0"],
    [1570817,"2026-09-03 22:00:00","23527","1.615","245.6","4.802","245.9","1021.057","27.55","73.42","NAN","0.0"],
    [1570818,"2026-09-03 22:10:00","23528","1.903","243.5","5.455","239.6","1020.99","27.47","73.37","NAN","0.0"],
    [1570819,"2026-09-03 22:20:00","23529","1.571","240.3","3.985","242.4","1021.035","27.52","72.92","NAN","0.0"],
    [1570820,"2026-09-03 22:30:00","23530","1.574","243.6","3.7239999999999998","227.1","1020.992","27.55","72.69","NAN","0.0"],
    [1570821,"2026-09-03 22:40:00","23531","1.768","236.6","4.083","220.8","1021.057","27.41","72.9","NAN","0.0"],
    [1570822,"2026-09-03 22:50:00","23532","1.472","244.3","3.887","258.8","1021.07","27.38","73.08","NAN","0.0"],
    [1570823,"2026-09-03 23:00:00","23533","0.8959999999999999","267.2","2.7769999999999997","287.5","1021.097","27.51","72.68","NAN","0.0"],
    [1570824,"2026-09-03 23:10:00","23534","1.09","268.7","3.103","293.2","1021.1039999999999","27.57","72.53","NAN","0.0"],
    [1570825,"2026-09-03 23:20:00","23535","1.288","264.1","3.528","262.4","1021.07","27.51","73.02","NAN","0.0"],
    [1570826,"2026-09-03 23:30:00","23536","1.079","256.4","3.495","289.3","1021.07","27.47","73.29","NAN","0.0"],
    [1570827,"2026-09-03 23:40:00","23537","0.746","260.0","2.352","276.4","1021.07","27.42","73.24","NAN","0.0"],
    [1570828,"2026-09-03 23:50:00","23538","1.075","272.8","2.7110000000000003","303.6","1021.052","27.38","73.44","NAN","0.0"],
    [1570829,"2026-09-04 00:00:00","23539","1.062","249.5","2.45","237.3","1020.935","27.31","73.71","NAN","0.0"],
    [1570830,"2026-09-04 00:10:00","23540","0.892","254.0","2.287","297.0","1020.823","27.26","73.87","NAN","0.0"],
    [1570831,"2026-09-04 00:20:00","23541","0.47700000000000004","244.5","1.9269999999999998","228.8","1020.82","27.19","74.1","NAN","0.0"],
    [1570832,"2026-09-04 00:30:00","23542","1.308","235.3","3.6260000000000003","252.4","1020.73","27.02","74.83","NAN","0.0"],
    [1570833,"2026-09-04 00:40:00","23543","1.051","240.8","2.679","258.8","1020.584","26.97","74.72","NAN","0.0"],
    [1570834,"2026-09-04 00:50:00","23544","1.135","258.4","2.907","247.0","1020.5210000000001","27.06","73.9","NAN","0.0"],
    [1570835,"2026-09-04 01:00:00","23545","1.3840000000000001","241.2","3.005","263.6","1020.4119999999999","26.93","73.79","NAN","0.0"],
    [1570836,"2026-09-04 01:10:00","23546","1.6840000000000002","238.5","3.136","211.8","1020.322","26.88","73.57","NAN","0.0"],
    [1570837,"2026-09-04 01:20:00","23547","1.439","237.8","3.103","242.3","1020.322","26.83","73.61","NAN","0.0"],
    [1570838,"2026-09-04 01:30:00","23548","1.133","239.1","2.417","227.1","1020.262","26.85","73.39","NAN","0.0"],
    [1570839,"2026-09-04 01:40:00","23549","1.463","239.4","3.071","258.5","1020.138","26.8","73.84","NAN","0.0"],
    [1570840,"2026-09-04 01:50:00","23550","1.6640000000000001","252.6","4.149","260.5","1020.073","26.79","74.16","NAN","0.0"],
    [1570841,"2026-09-04 02:00:00","23551","1.578","241.6","3.365","239.4","1020.073","26.72","74.75","NAN","0.0"],
    [1570842,"2026-09-04 02:10:00","23552","1.419","224.4","3.201","232.1","1020.045","26.58","75.72","NAN","0.0"],
    [1570843,"2026-09-04 02:20:00","23553","0.89","225.9","2.385","218.9","1019.8660000000001","26.34","76.66","NAN","0.0"],
    [1570844,"2026-09-04 02:30:00","23554","0.867","215.7","2.287","248.7","1019.819","26.24","77.16","NAN","0.0"],
    [1570845,"2026-09-04 02:40:00","23555","0.654","219.9","1.699","191.7","1019.7589999999999","26.19","77.21","NAN","0.0"],
    [1570846,"2026-09-04 02:50:00","23556","0.705","216.8","1.895","210.2","1019.702","26.14","77.49","NAN","0.0"],
    [1570847,"2026-09-04 03:00:00","23557","0.693","206.4","1.699","219.7","1019.637","25.96","78.94","NAN","0.0"],
    [1570848,"2026-09-04 03:10:00","23558","0.7290000000000001","200.9","1.405","201.5","1019.48","25.85","79.25","NAN","0.0"],
    [1570849,"2026-09-04 03:20:00","23559","0.935","206.6","1.993","226.4","1019.422","25.83","79.35","NAN","0.0"],
    [1570850,"2026-09-04 03:30:00","23560","0.662","220.3","2.254","241.2","1019.336","25.86","78.73","NAN","0.0"],
    [1570851,"2026-09-04 03:40:00","23561","0.708","213.4","1.601","224.8","1019.326","26.16","76.58","NAN","0.0"],
    [1570852,"2026-09-04 03:50:00","23562","0.9790000000000001","197.8","1.666","190.4","1019.326","25.82","78.59","NAN","0.0"],
    [1570853,"2026-09-04 04:00:00","23563","0.732","201.0","1.405","192.9","1019.283","25.62","79.73","NAN","0.0"],
    [1570854,"2026-09-04 04:10:00","23564","0.7440000000000001","218.2","1.666","218.5","1019.221","25.59","79.83","NAN","0.0"],
    [1570855,"2026-09-04 04:20:00","23565","0.688","265.8","1.829","282.4","1019.1560000000001","26.18","75.21","NAN","0.0"],
    [1570856,"2026-09-04 04:30:00","23566","0.344","238.3","1.111","231.8","1019.128","26.44","74.28","NAN","0.0"],
    [1570857,"2026-09-04 04:40:00","23567","0.493","222.5","1.829","229.6","1019.051","26.3","75.01","NAN","0.0"],
    [1570858,"2026-09-04 04:50:00","23568","0.331","234.9","1.2409999999999999","265.7","1018.9639999999999","26.01","76.05","NAN","0.0"],
    [1570859,"2026-09-04 05:00:00","23569","0.16699999999999998","289.7","0.882","266.3","1018.922","26.13","74.67","NAN","0.0"],
    [1570860,"2026-09-04 05:10:00","23570","0.327","246.9","1.405","208.5","1018.827","26.23","72.97","NAN","0.0"],
    [1570861,"2026-09-04 05:20:00","23571","0.773","191.5","1.568","200.6","1018.827","26.23","74.26","NAN","0.0"],
    [1570862,"2026-09-04 05:30:00","23572","0.28800000000000003","170.9","0.915","162.1","1018.827","25.75","76.8","NAN","0.0"],
    [1570863,"2026-09-04 05:40:00","23573","0.7140000000000001","198.7","1.666","202.2","1018.835","25.65","76.55","NAN","0.0"],
    [1570864,"2026-09-04 05:50:00","23574","0.667","214.1","2.025","203.0","1018.947","25.68","76.36","NAN","0.0"],
    [1570865,"2026-09-04 06:00:00","23575","1.1909999999999998","241.8","2.7439999999999998","231.9","1019.044","25.89","74.53","NAN","0.0"],
    [1570866,"2026-09-04 06:10:00","23576","1.175","241.9","2.548","246.4","1019.076","26.05","73.53","NAN","0.0"],
    [1570867,"2026-09-04 06:20:00","23577","1.141","238.5","2.5810000000000004","249.6","1019.076","26.41","71.49","NAN","0.0"],
    [1570868,"2026-09-04 06:30:00","23578","0.774","249.4","2.6460000000000004","248.2","1019.1160000000001","26.8","69.87","NAN","0.0"],
    [1570869,"2026-09-04 06:40:00","23579","1.094","239.6","2.385","237.6","1019.2139999999999","27.15","68.51","NAN","0.0"],
    [1570870,"2026-09-04 06:50:00","23580","1.2590000000000001","236.9","2.515","219.6","1019.318","27.03","68.77","NAN","0.0"],
    [1570871,"2026-09-04 07:00:00","23581","1.31","244.6","2.907","239.0","1019.306","27.14","67.87","NAN","0.0"],
    [1570872,"2026-09-04 07:10:00","23582","0.855","244.7","1.666","318.5","1019.309","27.68","66.12","NAN","0.0"],
    [1570873,"2026-09-04 07:20:00","23583","0.591","208.0","1.307","186.2","1019.284","27.99","65.14","NAN","0.0"],
    [1570874,"2026-09-04 07:30:00","23584","0.9520000000000001","155.2","1.568","160.0","1019.289","27.65","66","NAN","0.0"],
    [1570875,"2026-09-04 07:40:00","23585","0.457","128.7","1.045","112.5","1019.2710000000001","28.36","63.75","NAN","0.0"],
    [1570876,"2026-09-04 07:50:00","23586","0.7190000000000001","118.4","1.405","119.1","1019.2689999999999","28.73","62.32","NAN","0.0"],
    [1570877,"2026-09-04 08:00:00","23587","1.1740000000000002","117.9","2.0580000000000003","106.8","1019.248","28.52","63.41","NAN","0.0"],
    [1570878,"2026-09-04 08:10:00","23588","0.703","88.0","1.96","107.8","1019.2589999999999","28.49","64.01","NAN","0.0"],
    [1570879,"2026-09-04 08:20:00","23589","1.232","121.3","2.221","159.4","1019.289","28.35","64.57","NAN","0.0"],
    [1570880,"2026-09-04 08:30:00","23590","1.258","127.8","1.9269999999999998","127.3","1019.388","28.31","64.71","NAN","0.0"],
    [1570881,"2026-09-04 08:40:00","23591","1.3130000000000002","127.5","1.993","149.2","1019.4889999999999","28.37","63.95","NAN","0.0"],
    [1570882,"2026-09-04 08:50:00","23592","1.314","124.7","1.895","137.5","1019.5260000000001","28.96","62.05","NAN","0.0"],
    [1570883,"2026-09-04 09:00:00","23593","1.537","132.4","2.7439999999999998","120.4","1019.6160000000001","29.28","60.89","NAN","0.0"],
    [1570884,"2026-09-04 09:10:00","23594","1.551","137.6","2.45","119.4","1019.632","29.28","61.43","NAN","0.0"],
    [1570885,"2026-09-04 09:20:00","23595","1.785","143.9","2.8089999999999997","174.4","1019.663","29.31","64.19","NAN","0.0"],
    [1570886,"2026-09-04 09:30:00","23596","1.8459999999999999","178.5","3.1689999999999996","162.0","1019.6669999999999","29.37","65.49","NAN","0.0"],
    [1570887,"2026-09-04 09:40:00","23597","2.42","171.4","3.7239999999999998","144.5","1019.6510000000001","29.13","70.51","NAN","0.0"],
    [1570888,"2026-09-04 09:50:00","23598","2.8819999999999997","170.9","4.312","183.1","1019.6439999999999","28.88","72.84","NAN","0.0"],
    [1570889,"2026-09-04 10:00:00","23599","3.3680000000000003","169.6","4.965","181.4","1019.623","28.75","73.54","NAN","0.0"],
    [1570890,"2026-09-04 10:10:00","23600","3.636","170.0","5.586","171.6","1019.563","28.88","72.92","NAN","0.0"],
    [1570891,"2026-09-04 10:20:00","23601","3.5469999999999997","168.5","6.239","180.0","1019.525","28.91","73.44","NAN","0.0"],
    [1570892,"2026-09-04 10:30:00","23602","3.0069999999999997","173.4","5.325","166.5","1019.477","29.57","69.91","NAN","0.0"],
    [1570893,"2026-09-04 10:40:00","23603","2.963","170.1","4.769","173.3","1019.42","29.68","68.97","NAN","0.0"],
    [1570894,"2026-09-04 10:50:00","23604","2.8310000000000004","174.0","4.541","171.5","1019.3389999999999","29.92","68.26","NAN","0.0"],
    [1570895,"2026-09-04 11:00:00","23605","2.6180000000000003","180.9","4.933","175.6","1019.306","30.2","67.64","NAN","0.0"],
    [1570896,"2026-09-04 11:10:00","23606","2.787","178.3","5.031000000000001","172.2","1019.262","30.26","67.43","NAN","0.0"],
    [1570897,"2026-09-04 11:20:00","23607","2.594","174.2","3.9530000000000003","154.8","1019.176","30.17","67.9","NAN","0.0"],
    [1570898,"2026-09-04 11:30:00","23608","2.572","180.3","4.541","170.9","1019.232","30.41","66.81","NAN","0.0"],
    [1570899,"2026-09-04 11:40:00","23609","2.9210000000000003","175.5","4.671","190.1","1019.174","30.16","68.15","NAN","0.0"],
    [1570900,"2026-09-04 11:50:00","23610","2.971","176.2","5.455","192.0","1019.023","30.11","68.89","NAN","0.0"],
    [1570901,"2026-09-04 12:00:00","23611","2.698","177.1","3.9530000000000003","160.6","1018.935","30.16","69.03","NAN","0.0"],
    [1570902,"2026-09-04 12:10:00","23612","2.553","181.0","5.063","183.7","1018.841","30.24","68.65","NAN","0.0"],
    [1570903,"2026-09-04 12:20:00","23613","2.9930000000000003","172.5","4.802","174.0","1018.78","30.21","68.62","NAN","0.0"],
    [1570904,"2026-09-04 12:30:00","23614","2.426","185.3","4.475","188.7","1018.742","30.27","68.84","NAN","0.0"],
    [1570905,"2026-09-04 12:40:00","23615","2.54","189.3","5.847","220.5","1018.687","30.47","67.8","NAN","0.0"],
    [1570906,"2026-09-04 12:50:00","23616","2.6710000000000003","191.4","5.1610000000000005","202.8","1018.633","30.56","67.1","NAN","0.0"],
    [1570907,"2026-09-04 13:00:00","23617","3.2060000000000004","186.5","5.586","176.8","1018.559","30.15","69.26","NAN","0.0"],
    [1570908,"2026-09-04 13:10:00","23618","2.872","192.4","5.586","171.4","1018.498","30.28","69.35","NAN","0.0"],
    [1570909,"2026-09-04 13:20:00","23619","2.616","196.8","5.4879999999999995","197.2","1018.4","30.45","68.29","NAN","0.0"],
    [1570910,"2026-09-04 13:30:00","23620","2.273","201.1","5.194","201.6","1018.36","30.75","67.39","NAN","0.0"],
    [1570911,"2026-09-04 13:40:00","23621","2.399","192.3","5.651","178.1","1018.273","30.75","67.45","NAN","0.0"],
    [1570912,"2026-09-04 13:50:00","23622","2.3609999999999998","191.2","4.867","183.1","1018.2760000000001","30.45","68.57","NAN","0.0"],
    [1570913,"2026-09-04 14:00:00","23623","2.762","184.2","5.096","171.7","1018.27","30.24","68.44","NAN","0.0"],
    [1570914,"2026-09-04 14:10:00","23624","2.839","177.8","5.847","168.1","1018.2260000000001","30.09","68.99","NAN","0.0"],
    [1570915,"2026-09-04 14:20:00","23625","2.986","185.0","5.4879999999999995","177.3","1018.183","29.71","69.87","NAN","0.0"],
    [1570916,"2026-09-04 14:30:00","23626","2.457","190.1","5.586","198.1","1018.153","29.99","68.12","NAN","0.0"],
    [1570917,"2026-09-04 14:40:00","23627","2.434","190.9","4.802","174.6","1018.056","30.28","67.42","NAN","0.0"],
    [1570918,"2026-09-04 14:50:00","23628","2.37","193.8","4.704","199.3","1018.0419999999999","30.2","67.87","NAN","0.0"],
    [1570919,"2026-09-04 15:00:00","23629","2.6489999999999996","190.8","6.435","197.5","1018.0039999999999","30.14","65.77","NAN","0.0"],
    [1570920,"2026-09-04 15:10:00","23630","2.553","194.8","5.945","201.1","1018.023","30.56","61.8","NAN","0.0"],
    [1570921,"2026-09-04 15:20:00","23631","2.156","187.0","5.553","206.0","1017.985","30.4","59.74","NAN","0.0"],
    [1570922,"2026-09-04 15:30:00","23632","2.637","191.7","4.9","211.5","1018.01","30.56","59.56","NAN","0.0"],
    [1570923,"2026-09-04 15:40:00","23633","2.3209999999999997","196.1","5.7170000000000005","215.5","1018.015","30.69","57.13","NAN","0.0"],
    [1570924,"2026-09-04 15:50:00","23634","2.7689999999999997","189.4","5.553","200.1","1018.0219999999999","30.49","60.34","NAN","0.0"],
    [1570925,"2026-09-04 16:00:00","23635","3.147","191.4","5.88","188.2","1017.9739999999999","30.06","62.53","NAN","0.0"],
    [1570926,"2026-09-04 16:10:00","23636","1.9469999999999998","189.6","5.227","175.9","1018.0239999999999","30.07","63.68","NAN","0.0"],
    [1570927,"2026-09-04 16:20:00","23637","1.91","186.9","3.92","185.6","1018.0419999999999","30","65.39","NAN","0.0"],
    [1570928,"2026-09-04 16:30:00","23638","2.096","190.7","3.7889999999999997","176.9","1018.0239999999999","29.94","66.55","NAN","0.0"],
    [1570929,"2026-09-04 16:40:00","23639","2.525","173.5","4.345","157.3","1018.056","29.47","70.43","NAN","0.0"],
    [1570930,"2026-09-04 16:50:00","23640","2.4659999999999997","175.6","4.051","168.0","1017.966","29.1","73.55","NAN","0.0"],
    [1570931,"2026-09-04 17:00:00","23641","2.439","173.4","4.541","168.0","1018.0039999999999","28.9","75.43","NAN","0.0"],
    [1570932,"2026-09-04 17:10:00","23642","2.667","171.2","4.345","177.0","1018.1039999999999","28.64","77.32","NAN","0.0"],
    [1570933,"2026-09-04 17:20:00","23643","2.1430000000000002","175.1","4.279","152.9","1018.306","28.55","78.22","NAN","0.0"],
    [1570934,"2026-09-04 17:30:00","23644","1.6980000000000002","189.6","3.5610000000000004","185.2","1018.3789999999999","28.64","78.12","NAN","0.0"],
    [1570935,"2026-09-04 17:40:00","23645","1.76","193.2","3.7239999999999998","165.6","1018.4730000000001","28.57","78","NAN","0.0"],
    [1570936,"2026-09-04 17:50:00","23646","1.298","202.0","2.7769999999999997","178.8","1018.551","28.5","78.95","NAN","0.0"],
    [1570937,"2026-09-04 18:00:00","23647","1.182","182.9","2.417","212.9","1018.566","28.42","79.66","NAN","0.0"],
    [1570938,"2026-09-04 18:10:00","23648","1.55","171.9","2.679","164.1","1018.581","28.22","80.3","NAN","0.0"],
    [1570939,"2026-09-04 18:20:00","23649","1.001","201.9","2.189","200.3","1018.715","28.1","81.6","NAN","0.0"],
    [1570940,"2026-09-04 18:30:00","23650","1.3","205.5","2.9730000000000003","226.7","1018.742","28.11","81","NAN","0.0"],
    [1570941,"2026-09-04 18:40:00","23651","1.153","225.0","3.201","224.5","1018.813","28.3","78.58","NAN","0.0"],
    [1570942,"2026-09-04 18:50:00","23652","1.025","226.6","3.985","253.2","1019.064","28.54","77.78","NAN","0.0"],
    [1570943,"2026-09-04 19:00:00","23653","1.3119999999999998","220.2","2.9730000000000003","244.9","1019.278","28.41","79.48","NAN","0.0"],
    [1570944,"2026-09-04 19:10:00","23654","1.25","200.2","2.7439999999999998","199.1","1019.331","28.07","82.7","NAN","0.0"],
    [1570945,"2026-09-04 19:20:00","23655","0.9109999999999999","212.7","2.907","202.5","1019.438","27.89","84.3","NAN","0.0"],
    [1570946,"2026-09-04 19:30:00","23656","0.965","240.9","2.679","241.5","1019.507","28.11","83.4","NAN","0.0"],
    [1570947,"2026-09-04 19:40:00","23657","0.89","223.5","2.156","206.1","1019.46","27.98","84.2","NAN","0.0"],
    [1570948,"2026-09-04 19:50:00","23658","0.5479999999999999","216.1","1.339","211.3","1019.41","27.94","83.9","NAN","0.0"],
    [1570949,"2026-09-04 20:00:00","23659","0.885","225.2","2.352","244.7","1019.3430000000001","27.82","84.3","NAN","0.0"],
    [1570950,"2026-09-04 20:10:00","23660","0.895","221.4","2.5810000000000004","251.6","1019.3760000000001","28.02","82.4","NAN","0.0"],
    [1570951,"2026-09-04 20:20:00","23661","0.904","221.8","2.5810000000000004","244.0","1019.433","27.99","82.2","NAN","0.0"],
    [1570952,"2026-09-04 20:30:00","23662","1.0859999999999999","221.3","2.613","217.1","1019.37","28.04","81.9","NAN","0.0"],
    [1570953,"2026-09-04 20:40:00","23663","1.232","237.8","3.234","289.0","1019.328","28.1","81.5","NAN","0.0"],
    [1570954,"2026-09-04 20:50:00","23664","2.036","240.9","4.998","245.7","1019.328","28.06","82.2","NAN","0.0"],
    [1570955,"2026-09-04 21:00:00","23665","1.995","238.2","5.39","242.5","1019.331","27.74","84.3","NAN","0.0"],
    [1570956,"2026-09-04 21:10:00","23666","1.217","243.6","3.43","237.6","1019.3530000000001","27.72","84.6","NAN","0.0"],
    [1570957,"2026-09-04 21:20:00","23667","1.057","235.8","3.1689999999999996","236.7","1019.326","27.77","83.9","NAN","0.0"],
    [1570958,"2026-09-04 21:30:00","23668","0.937","233.9","2.45","230.0","1019.313","27.67","83.7","NAN","0.0"],
    [1570959,"2026-09-04 21:40:00","23669","0.7","218.6","2.189","263.0","1019.318","27.7","82.3","NAN","0.0"],
    [1570960,"2026-09-04 21:50:00","23670","0.987","216.8","2.875","217.4","1019.288","27.49","82.5","NAN","0.0"]
]}
